<?xml version="1.0" encoding="UTF-8"?>
<gpx version="1.1" creator="https://www.youtrack.es" xsi:schemaLocation="http://www.topografix.com/GPX/1/1 http://www.topografix.com/GPX/1/1/gpx.xsd http://www.garmin.com/xmlschemas/GpxExtensions/v3 http://www.garmin.com/xmlschemas/GpxExtensionsv3.xsd http://www.garmin.com/xmlschemas/TrackPointExtension/v1 http://www.garmin.com/xmlschemas/TrackPointExtensionv1.xsd" xmlns:gpxtpx="http://www.garmin.com/xmlschemas/TrackPointExtension/v1" xmlns:gpxx="http://www.garmin.com/xmlschemas/GpxExtensions/v3" xmlns:xsi="http://www.w3.org/2001/XMLSchema-instance">
  <metadata>
    <link href="https://www.youtrack.es">
      <text>YouTrack.es</text>
    </link>
    <time>2026-05-08T00:51:36Z</time>
  </metadata>
  <trk>
    <src>https://www.youtrack.es</src>
    <link href="https://www.youtrack.es/ruta/483-finisterre-tudela-2">
      <text>YouTrack.es</text>
    </link>
    <trkseg>
      <trkpt lat="42.881892984732985" lon="-9.271969003602862">
        <ele>73.700000000000003</ele>
        <time>2018-05-18T06:00:00Z</time>
      </trkpt>
      <trkpt lat="42.881904970854521" lon="-9.271967997774482">
        <ele>74.200000000000003</ele>
        <time>2018-05-18T06:00:00Z</time>
      </trkpt>
      <trkpt lat="42.88190103136003" lon="-9.271976966410875">
        <ele>73.900000000000006</ele>
        <time>2018-05-18T06:00:00Z</time>
      </trkpt>
      <trkpt lat="42.881911005824804" lon="-9.271923992782831">
        <ele>75.299999999999997</ele>
        <time>2018-05-18T06:00:01Z</time>
      </trkpt>
      <trkpt lat="42.881917040795088" lon="-9.271920975297689">
        <ele>75.700000000000003</ele>
        <time>2018-05-18T06:00:02Z</time>
      </trkpt>
      <trkpt lat="42.881958028301597" lon="-9.271949976682663">
        <ele>77</ele>
        <time>2018-05-18T06:00:03Z</time>
      </trkpt>
      <trkpt lat="42.882046960294247" lon="-9.271946959197521">
        <ele>81.099999999999994</ele>
        <time>2018-05-18T06:00:06Z</time>
      </trkpt>
      <trkpt lat="42.882070010527968" lon="-9.271936984732747">
        <ele>82.400000000000006</ele>
        <time>2018-05-18T06:00:07Z</time>
      </trkpt>
      <trkpt lat="42.882200013846159" lon="-9.271828019991517">
        <ele>86.599999999999994</ele>
        <time>2018-05-18T06:00:11Z</time>
      </trkpt>
      <trkpt lat="42.8825450129807" lon="-9.271689970046282">
        <ele>94.299999999999997</ele>
        <time>2018-05-18T06:00:22Z</time>
      </trkpt>
      <trkpt lat="42.882644003257155" lon="-9.271707991138101">
        <ele>95.200000000000003</ele>
        <time>2018-05-18T06:00:25Z</time>
      </trkpt>
      <trkpt lat="42.883076006546617" lon="-9.271682007238269">
        <ele>100.40000000000001</ele>
        <time>2018-05-18T06:00:38Z</time>
      </trkpt>
      <trkpt lat="42.883122023195028" lon="-9.271644037216902">
        <ele>101.8</ele>
        <time>2018-05-18T06:00:40Z</time>
      </trkpt>
      <trkpt lat="42.883123029023409" lon="-9.271638002246618">
        <ele>102</ele>
        <time>2018-05-18T06:00:40Z</time>
      </trkpt>
      <trkpt lat="42.88304197601974" lon="-9.27166298031807">
        <ele>100.8</ele>
        <time>2018-05-18T06:00:42Z</time>
      </trkpt>
      <trkpt lat="42.883025966584682" lon="-9.271661974489689">
        <ele>100.7</ele>
        <time>2018-05-18T06:00:43Z</time>
      </trkpt>
      <trkpt lat="42.883116994053125" lon="-9.271633978933096">
        <ele>102.09999999999999</ele>
        <time>2018-05-18T06:00:45Z</time>
      </trkpt>
      <trkpt lat="42.88317097350955" lon="-9.271629033610225">
        <ele>102.5</ele>
        <time>2018-05-18T06:00:47Z</time>
      </trkpt>
      <trkpt lat="42.883482025936246" lon="-9.271669015288353">
        <ele>103</ele>
        <time>2018-05-18T06:00:56Z</time>
      </trkpt>
      <trkpt lat="42.884065993130207" lon="-9.271897003054619">
        <ele>101.7</ele>
        <time>2018-05-18T06:01:14Z</time>
      </trkpt>
      <trkpt lat="42.884238995611668" lon="-9.271891973912716">
        <ele>104.40000000000001</ele>
        <time>2018-05-18T06:01:19Z</time>
      </trkpt>
      <trkpt lat="42.884505037218332" lon="-9.271843023598194">
        <ele>109.09999999999999</ele>
        <time>2018-05-18T06:01:27Z</time>
      </trkpt>
      <trkpt lat="42.884904015809298" lon="-9.271726012229919">
        <ele>114.40000000000001</ele>
        <time>2018-05-18T06:01:40Z</time>
      </trkpt>
      <trkpt lat="42.885760981589556" lon="-9.27157798781991">
        <ele>119</ele>
        <time>2018-05-18T06:02:05Z</time>
      </trkpt>
      <trkpt lat="42.886017970740795" lon="-9.271527025848627">
        <ele>119.2</ele>
        <time>2018-05-18T06:02:13Z</time>
      </trkpt>
      <trkpt lat="42.886130958795547" lon="-9.271509004756808">
        <ele>119.3</ele>
        <time>2018-05-18T06:02:16Z</time>
      </trkpt>
      <trkpt lat="42.886893041431904" lon="-9.271270958706737">
        <ele>124.2</ele>
        <time>2018-05-18T06:02:39Z</time>
      </trkpt>
      <trkpt lat="42.887940024957061" lon="-9.270638041198254">
        <ele>122.3</ele>
        <time>2018-05-18T06:03:13Z</time>
      </trkpt>
      <trkpt lat="42.888071034103632" lon="-9.270195979624987">
        <ele>117</ele>
        <time>2018-05-18T06:03:24Z</time>
      </trkpt>
      <trkpt lat="42.888077991083264" lon="-9.269702034071088">
        <ele>109.8</ele>
        <time>2018-05-18T06:03:34Z</time>
      </trkpt>
      <trkpt lat="42.888243030756712" lon="-9.269165005534887">
        <ele>108.09999999999999</ele>
        <time>2018-05-18T06:03:47Z</time>
      </trkpt>
      <trkpt lat="42.88843397051096" lon="-9.268839033320546">
        <ele>110.40000000000001</ele>
        <time>2018-05-18T06:03:56Z</time>
      </trkpt>
      <trkpt lat="42.888674028217793" lon="-9.268626971170306">
        <ele>114.7</ele>
        <time>2018-05-18T06:04:05Z</time>
      </trkpt>
      <trkpt lat="42.889274004846811" lon="-9.268274009227753">
        <ele>121</ele>
        <time>2018-05-18T06:04:24Z</time>
      </trkpt>
      <trkpt lat="42.889492018148303" lon="-9.268112992867827">
        <ele>120.7</ele>
        <time>2018-05-18T06:04:31Z</time>
      </trkpt>
      <trkpt lat="42.890248987823725" lon="-9.267863966524601">
        <ele>124.2</ele>
        <time>2018-05-18T06:04:54Z</time>
      </trkpt>
      <trkpt lat="42.890786016359925" lon="-9.267804035916925">
        <ele>124.90000000000001</ele>
        <time>2018-05-18T06:05:10Z</time>
      </trkpt>
      <trkpt lat="42.891442989930511" lon="-9.267820967361331">
        <ele>124.09999999999999</ele>
        <time>2018-05-18T06:05:30Z</time>
      </trkpt>
      <trkpt lat="42.891860995441675" lon="-9.267978966236115">
        <ele>125.09999999999999</ele>
        <time>2018-05-18T06:05:43Z</time>
      </trkpt>
      <trkpt lat="42.892482010647655" lon="-9.267870001494885">
        <ele>118.5</ele>
        <time>2018-05-18T06:06:01Z</time>
      </trkpt>
      <trkpt lat="42.89307402446866" lon="-9.267728012055159">
        <ele>114.09999999999999</ele>
        <time>2018-05-18T06:06:19Z</time>
      </trkpt>
      <trkpt lat="42.89339697919786" lon="-9.267412014305592">
        <ele>106.2</ele>
        <time>2018-05-18T06:06:31Z</time>
      </trkpt>
      <trkpt lat="42.893598983064294" lon="-9.266822012141347">
        <ele>94.799999999999997</ele>
        <time>2018-05-18T06:06:45Z</time>
      </trkpt>
      <trkpt lat="42.893709959462285" lon="-9.266229998320341">
        <ele>85.900000000000006</ele>
        <time>2018-05-18T06:06:59Z</time>
      </trkpt>
      <trkpt lat="42.893810039386153" lon="-9.265678972005844">
        <ele>80.5</ele>
        <time>2018-05-18T06:07:11Z</time>
      </trkpt>
      <trkpt lat="42.893968038260937" lon="-9.264698037877679">
        <ele>67.900000000000006</ele>
        <time>2018-05-18T06:07:33Z</time>
      </trkpt>
      <trkpt lat="42.893939036875963" lon="-9.264410035684705">
        <ele>60.200000000000003</ele>
        <time>2018-05-18T06:07:40Z</time>
      </trkpt>
      <trkpt lat="42.893958985805511" lon="-9.264327976852655">
        <ele>59.700000000000003</ele>
        <time>2018-05-18T06:07:42Z</time>
      </trkpt>
      <trkpt lat="42.893959991633892" lon="-9.264321019873023">
        <ele>59.700000000000003</ele>
        <time>2018-05-18T06:07:42Z</time>
      </trkpt>
      <trkpt lat="42.893965020775795" lon="-9.264297969639301">
        <ele>59.5</ele>
        <time>2018-05-18T06:07:42Z</time>
      </trkpt>
      <trkpt lat="42.89395404048264" lon="-9.264295035973191">
        <ele>58.799999999999997</ele>
        <time>2018-05-18T06:07:43Z</time>
      </trkpt>
      <trkpt lat="42.893946999683976" lon="-9.264294030144811">
        <ele>58.399999999999999</ele>
        <time>2018-05-18T06:07:43Z</time>
      </trkpt>
      <trkpt lat="42.893940964713693" lon="-9.264294030144811">
        <ele>58.100000000000001</ele>
        <time>2018-05-18T06:07:43Z</time>
      </trkpt>
      <trkpt lat="42.89395404048264" lon="-9.264304004609585">
        <ele>59</ele>
        <time>2018-05-18T06:07:44Z</time>
      </trkpt>
      <trkpt lat="42.893984969705343" lon="-9.264276009052992">
        <ele>60.100000000000001</ele>
        <time>2018-05-18T06:07:45Z</time>
      </trkpt>
      <trkpt lat="42.89421102963388" lon="-9.264115998521447">
        <ele>69.400000000000006</ele>
        <time>2018-05-18T06:07:53Z</time>
      </trkpt>
      <trkpt lat="42.89468795992434" lon="-9.263925980776548">
        <ele>88.400000000000006</ele>
        <time>2018-05-18T06:08:08Z</time>
      </trkpt>
      <trkpt lat="42.895104959607124" lon="-9.263923969119787">
        <ele>98.700000000000003</ele>
        <time>2018-05-18T06:08:21Z</time>
      </trkpt>
      <trkpt lat="42.89565104059875" lon="-9.263984989374876">
        <ele>107.7</ele>
        <time>2018-05-18T06:08:37Z</time>
      </trkpt>
      <trkpt lat="42.896025963127613" lon="-9.263961017131805">
        <ele>105.90000000000001</ele>
        <time>2018-05-18T06:08:48Z</time>
      </trkpt>
      <trkpt lat="42.896438017487526" lon="-9.263837970793247">
        <ele>102</ele>
        <time>2018-05-18T06:09:01Z</time>
      </trkpt>
      <trkpt lat="42.897077975794673" lon="-9.263645019382238">
        <ele>95.400000000000006</ele>
        <time>2018-05-18T06:09:20Z</time>
      </trkpt>
      <trkpt lat="42.897539986297488" lon="-9.263510992750526">
        <ele>89.599999999999994</ele>
        <time>2018-05-18T06:09:34Z</time>
      </trkpt>
      <trkpt lat="42.898199977353215" lon="-9.263309994712472">
        <ele>83.200000000000003</ele>
        <time>2018-05-18T06:09:55Z</time>
      </trkpt>
      <trkpt lat="42.898884024471045" lon="-9.263196000829339">
        <ele>80.099999999999994</ele>
        <time>2018-05-18T06:10:15Z</time>
      </trkpt>
      <trkpt lat="42.898925011977553" lon="-9.263203041628003">
        <ele>80.200000000000003</ele>
        <time>2018-05-18T06:10:16Z</time>
      </trkpt>
      <trkpt lat="42.899659015238285" lon="-9.2633690033108">
        <ele>82.700000000000003</ele>
        <time>2018-05-18T06:10:38Z</time>
      </trkpt>
      <trkpt lat="42.900042990222573" lon="-9.263313012197614">
        <ele>77.599999999999994</ele>
        <time>2018-05-18T06:10:50Z</time>
      </trkpt>
      <trkpt lat="42.900568032637239" lon="-9.263274036347866">
        <ele>71</ele>
        <time>2018-05-18T06:11:05Z</time>
      </trkpt>
      <trkpt lat="42.901032976806164" lon="-9.263247968629003">
        <ele>64.700000000000003</ele>
        <time>2018-05-18T06:11:19Z</time>
      </trkpt>
      <trkpt lat="42.901492975652218" lon="-9.263376966118813">
        <ele>60.700000000000003</ele>
        <time>2018-05-18T06:11:33Z</time>
      </trkpt>
      <trkpt lat="42.901810985058546" lon="-9.26338903605938">
        <ele>52.399999999999999</ele>
        <time>2018-05-18T06:11:43Z</time>
      </trkpt>
      <trkpt lat="42.902110973373055" lon="-9.263342013582587">
        <ele>44.200000000000003</ele>
        <time>2018-05-18T06:11:52Z</time>
      </trkpt>
      <trkpt lat="42.902178028598428" lon="-9.263329021632671">
        <ele>43.200000000000003</ele>
        <time>2018-05-18T06:11:54Z</time>
      </trkpt>
      <trkpt lat="42.902550017461181" lon="-9.263294991105795">
        <ele>37.899999999999999</ele>
        <time>2018-05-18T06:12:05Z</time>
      </trkpt>
      <trkpt lat="42.902880012989044" lon="-9.263438992202282">
        <ele>33.600000000000001</ele>
        <time>2018-05-18T06:12:15Z</time>
      </trkpt>
      <trkpt lat="42.902917983010411" lon="-9.26345600746572">
        <ele>33</ele>
        <time>2018-05-18T06:12:17Z</time>
      </trkpt>
      <trkpt lat="42.903246972709894" lon="-9.263610988855362">
        <ele>31.300000000000001</ele>
        <time>2018-05-18T06:12:27Z</time>
      </trkpt>
      <trkpt lat="42.903880979865789" lon="-9.263901002705097">
        <ele>29.5</ele>
        <time>2018-05-18T06:12:47Z</time>
      </trkpt>
      <trkpt lat="42.904480034485459" lon="-9.264167966321111">
        <ele>29.300000000000001</ele>
        <time>2018-05-18T06:13:05Z</time>
      </trkpt>
      <trkpt lat="42.905332976952195" lon="-9.264601981267333">
        <ele>28.5</ele>
        <time>2018-05-18T06:13:32Z</time>
      </trkpt>
      <trkpt lat="42.906280970200896" lon="-9.265019986778498">
        <ele>29</ele>
        <time>2018-05-18T06:14:02Z</time>
      </trkpt>
      <trkpt lat="42.90729995816946" lon="-9.265280999243259">
        <ele>28.199999999999999</ele>
        <time>2018-05-18T06:14:32Z</time>
      </trkpt>
      <trkpt lat="42.907578991726041" lon="-9.265193995088339">
        <ele>28.5</ele>
        <time>2018-05-18T06:14:41Z</time>
      </trkpt>
      <trkpt lat="42.907849978655577" lon="-9.264923008158803">
        <ele>28.100000000000001</ele>
        <time>2018-05-18T06:14:51Z</time>
      </trkpt>
      <trkpt lat="42.908094981685281" lon="-9.264595024287701">
        <ele>28.100000000000001</ele>
        <time>2018-05-18T06:15:01Z</time>
      </trkpt>
      <trkpt lat="42.908761007711291" lon="-9.263652982190251">
        <ele>26.399999999999999</ele>
        <time>2018-05-18T06:15:29Z</time>
      </trkpt>
      <trkpt lat="42.90907901711762" lon="-9.26341200247407">
        <ele>27.699999999999999</ele>
        <time>2018-05-18T06:15:40Z</time>
      </trkpt>
      <trkpt lat="42.909244978800416" lon="-9.263403033837676">
        <ele>29.300000000000001</ele>
        <time>2018-05-18T06:15:45Z</time>
      </trkpt>
      <trkpt lat="42.909595007076859" lon="-9.26349800080061">
        <ele>33.200000000000003</ele>
        <time>2018-05-18T06:15:55Z</time>
      </trkpt>
      <trkpt lat="42.910047965124249" lon="-9.263587016612291">
        <ele>33.399999999999999</ele>
        <time>2018-05-18T06:16:09Z</time>
      </trkpt>
      <trkpt lat="42.910083001479506" lon="-9.26354200579226">
        <ele>33.100000000000001</ele>
        <time>2018-05-18T06:16:10Z</time>
      </trkpt>
      <trkpt lat="42.910211998969316" lon="-9.263231959193945">
        <ele>31</ele>
        <time>2018-05-18T06:16:18Z</time>
      </trkpt>
      <trkpt lat="42.910323981195688" lon="-9.263113019987941">
        <ele>30.199999999999999</ele>
        <time>2018-05-18T06:16:22Z</time>
      </trkpt>
      <trkpt lat="42.910595973953605" lon="-9.263290967792273">
        <ele>30.300000000000001</ele>
        <time>2018-05-18T06:16:31Z</time>
      </trkpt>
      <trkpt lat="42.911246996372938" lon="-9.26369396969676">
        <ele>28.699999999999999</ele>
        <time>2018-05-18T06:16:52Z</time>
      </trkpt>
      <trkpt lat="42.91161697357893" lon="-9.263794971629977">
        <ele>28.199999999999999</ele>
        <time>2018-05-18T06:17:04Z</time>
      </trkpt>
      <trkpt lat="42.912248969078064" lon="-9.264092026278377">
        <ele>30.199999999999999</ele>
        <time>2018-05-18T06:17:23Z</time>
      </trkpt>
      <trkpt lat="42.912820028141141" lon="-9.264256982132793">
        <ele>31.699999999999999</ele>
        <time>2018-05-18T06:17:41Z</time>
      </trkpt>
      <trkpt lat="42.913029994815588" lon="-9.264396959915757">
        <ele>32.100000000000001</ele>
        <time>2018-05-18T06:17:47Z</time>
      </trkpt>
      <trkpt lat="42.913158992305398" lon="-9.264624025672674">
        <ele>33</ele>
        <time>2018-05-18T06:17:54Z</time>
      </trkpt>
      <trkpt lat="42.913328977301717" lon="-9.265106990933418">
        <ele>31.600000000000001</ele>
        <time>2018-05-18T06:18:05Z</time>
      </trkpt>
      <trkpt lat="42.91348597034812" lon="-9.265886005014181">
        <ele>28.5</ele>
        <time>2018-05-18T06:18:23Z</time>
      </trkpt>
      <trkpt lat="42.913631983101368" lon="-9.266681028530002">
        <ele>24.600000000000001</ele>
        <time>2018-05-18T06:18:41Z</time>
      </trkpt>
      <trkpt lat="42.913705995306373" lon="-9.266970036551356">
        <ele>23.5</ele>
        <time>2018-05-18T06:18:47Z</time>
      </trkpt>
      <trkpt lat="42.913725022226572" lon="-9.267042959108949">
        <ele>23.199999999999999</ele>
        <time>2018-05-18T06:18:49Z</time>
      </trkpt>
      <trkpt lat="42.914142021909356" lon="-9.267530031502247">
        <ele>23.199999999999999</ele>
        <time>2018-05-18T06:19:05Z</time>
      </trkpt>
      <trkpt lat="42.915019020438194" lon="-9.267552997916937">
        <ele>22</ele>
        <time>2018-05-18T06:19:31Z</time>
      </trkpt>
      <trkpt lat="42.915085991844535" lon="-9.267554003745318">
        <ele>21.899999999999999</ele>
        <time>2018-05-18T06:19:33Z</time>
      </trkpt>
      <trkpt lat="42.915267962962389" lon="-9.267702028155327">
        <ele>22.399999999999999</ele>
        <time>2018-05-18T06:19:39Z</time>
      </trkpt>
      <trkpt lat="42.915536016225815" lon="-9.268078962340951">
        <ele>24.100000000000001</ele>
        <time>2018-05-18T06:19:51Z</time>
      </trkpt>
      <trkpt lat="42.915832987055182" lon="-9.268466960638762">
        <ele>26.800000000000001</ele>
        <time>2018-05-18T06:20:03Z</time>
      </trkpt>
      <trkpt lat="42.916145967319608" lon="-9.268885971978307">
        <ele>29.800000000000001</ele>
        <time>2018-05-18T06:20:16Z</time>
      </trkpt>
      <trkpt lat="42.916531031951308" lon="-9.269396010786295">
        <ele>34.299999999999997</ele>
        <time>2018-05-18T06:20:32Z</time>
      </trkpt>
      <trkpt lat="42.916660029441118" lon="-9.269569013267756">
        <ele>36.299999999999997</ele>
        <time>2018-05-18T06:20:37Z</time>
      </trkpt>
      <trkpt lat="42.916792966425419" lon="-9.269745033234358">
        <ele>38.700000000000003</ele>
        <time>2018-05-18T06:20:43Z</time>
      </trkpt>
      <trkpt lat="42.917214995250106" lon="-9.270002022385597">
        <ele>45.100000000000001</ele>
        <time>2018-05-18T06:20:56Z</time>
      </trkpt>
      <trkpt lat="42.917722016572952" lon="-9.270019037649036">
        <ele>49.299999999999997</ele>
        <time>2018-05-18T06:21:11Z</time>
      </trkpt>
      <trkpt lat="42.918457025662065" lon="-9.269919041544199">
        <ele>51</ele>
        <time>2018-05-18T06:21:33Z</time>
      </trkpt>
      <trkpt lat="42.919035041704774" lon="-9.269853997975588">
        <ele>50.5</ele>
        <time>2018-05-18T06:21:50Z</time>
      </trkpt>
      <trkpt lat="42.919731996953487" lon="-9.270056001842022">
        <ele>52.600000000000001</ele>
        <time>2018-05-18T06:22:12Z</time>
      </trkpt>
      <trkpt lat="42.920175986364484" lon="-9.270463027060032">
        <ele>56.899999999999999</ele>
        <time>2018-05-18T06:22:27Z</time>
      </trkpt>
      <trkpt lat="42.920257039368153" lon="-9.270531004294753">
        <ele>58.100000000000001</ele>
        <time>2018-05-18T06:22:30Z</time>
      </trkpt>
      <trkpt lat="42.92066297493875" lon="-9.270699983462691">
        <ele>59.5</ele>
        <time>2018-05-18T06:22:43Z</time>
      </trkpt>
      <trkpt lat="42.920934967696667" lon="-9.270901987329125">
        <ele>62.399999999999999</ele>
        <time>2018-05-18T06:22:52Z</time>
      </trkpt>
      <trkpt lat="42.921167984604836" lon="-9.271012041717768">
        <ele>63.200000000000003</ele>
        <time>2018-05-18T06:22:59Z</time>
      </trkpt>
      <trkpt lat="42.921549025923014" lon="-9.271197030320764">
        <ele>62.899999999999999</ele>
        <time>2018-05-18T06:23:11Z</time>
      </trkpt>
      <trkpt lat="42.922172974795103" lon="-9.271258972585201">
        <ele>57.200000000000003</ele>
        <time>2018-05-18T06:23:30Z</time>
      </trkpt>
      <trkpt lat="42.922320999205112" lon="-9.271315969526768">
        <ele>58.899999999999999</ele>
        <time>2018-05-18T06:23:34Z</time>
      </trkpt>
      <trkpt lat="42.922494001686573" lon="-9.2712970264256">
        <ele>57.899999999999999</ele>
        <time>2018-05-18T06:23:39Z</time>
      </trkpt>
      <trkpt lat="42.922725006937981" lon="-9.271012041717768">
        <ele>51.399999999999999</ele>
        <time>2018-05-18T06:23:49Z</time>
      </trkpt>
      <trkpt lat="42.922893986105919" lon="-9.270816994830966">
        <ele>47.200000000000003</ele>
        <time>2018-05-18T06:23:55Z</time>
      </trkpt>
      <trkpt lat="42.923231022432446" lon="-9.270238978788257">
        <ele>42</ele>
        <time>2018-05-18T06:24:11Z</time>
      </trkpt>
      <trkpt lat="42.923541991040111" lon="-9.269873024895787">
        <ele>40.200000000000003</ele>
        <time>2018-05-18T06:24:24Z</time>
      </trkpt>
      <trkpt lat="42.923673000186682" lon="-9.269573036581278">
        <ele>36</ele>
        <time>2018-05-18T06:24:31Z</time>
      </trkpt>
      <trkpt lat="42.923793029040098" lon="-9.269286962226033">
        <ele>34.5</ele>
        <time>2018-05-18T06:24:38Z</time>
      </trkpt>
      <trkpt lat="42.923919009044766" lon="-9.269007006660104">
        <ele>33.5</ele>
        <time>2018-05-18T06:24:46Z</time>
      </trkpt>
      <trkpt lat="42.924058986827731" lon="-9.268679022789002">
        <ele>31.399999999999999</ele>
        <time>2018-05-18T06:24:54Z</time>
      </trkpt>
      <trkpt lat="42.924059992656112" lon="-9.268606016412377">
        <ele>30.5</ele>
        <time>2018-05-18T06:24:55Z</time>
      </trkpt>
      <trkpt lat="42.924057980999351" lon="-9.268595036119223">
        <ele>30.399999999999999</ele>
        <time>2018-05-18T06:24:56Z</time>
      </trkpt>
      <trkpt lat="42.924112966284156" lon="-9.268611967563629">
        <ele>31.399999999999999</ele>
        <time>2018-05-18T06:24:57Z</time>
      </trkpt>
      <trkpt lat="42.92427197098732" lon="-9.268477018922567">
        <ele>32</ele>
        <time>2018-05-18T06:25:03Z</time>
      </trkpt>
      <trkpt lat="42.924350006505847" lon="-9.268413987010717">
        <ele>32.200000000000003</ele>
        <time>2018-05-18T06:25:06Z</time>
      </trkpt>
      <trkpt lat="42.924525020644069" lon="-9.268242996186018">
        <ele>31.800000000000001</ele>
        <time>2018-05-18T06:25:12Z</time>
      </trkpt>
      <trkpt lat="42.924868008121848" lon="-9.267542017623782">
        <ele>29.5</ele>
        <time>2018-05-18T06:25:30Z</time>
      </trkpt>
      <trkpt lat="42.92504696175456" lon="-9.266899963840842">
        <ele>26.5</ele>
        <time>2018-05-18T06:25:45Z</time>
      </trkpt>
      <trkpt lat="42.925071017816663" lon="-9.266325971111655">
        <ele>22</ele>
        <time>2018-05-18T06:25:58Z</time>
      </trkpt>
      <trkpt lat="42.925064982846379" lon="-9.265819033607841">
        <ele>18.899999999999999</ele>
        <time>2018-05-18T06:26:09Z</time>
      </trkpt>
      <trkpt lat="42.925064982846379" lon="-9.265700010582805">
        <ele>18.199999999999999</ele>
        <time>2018-05-18T06:26:11Z</time>
      </trkpt>
      <trkpt lat="42.925028018653393" lon="-9.265537988394499">
        <ele>16.699999999999999</ele>
        <time>2018-05-18T06:26:15Z</time>
      </trkpt>
      <trkpt lat="42.925048973411322" lon="-9.265247974544764">
        <ele>15.5</ele>
        <time>2018-05-18T06:26:21Z</time>
      </trkpt>
      <trkpt lat="42.92517302557826" lon="-9.265076983720064">
        <ele>16.300000000000001</ele>
        <time>2018-05-18T06:26:26Z</time>
      </trkpt>
      <trkpt lat="42.925545014441013" lon="-9.264876991510391">
        <ele>19.699999999999999</ele>
        <time>2018-05-18T06:26:38Z</time>
      </trkpt>
      <trkpt lat="42.926121018826962" lon="-9.264718992635608">
        <ele>24.300000000000001</ele>
        <time>2018-05-18T06:26:56Z</time>
      </trkpt>
      <trkpt lat="42.926254961639643" lon="-9.264613967388868">
        <ele>22.899999999999999</ele>
        <time>2018-05-18T06:27:00Z</time>
      </trkpt>
      <trkpt lat="42.926328973844647" lon="-9.264161009341478">
        <ele>16.899999999999999</ele>
        <time>2018-05-18T06:27:10Z</time>
      </trkpt>
      <trkpt lat="42.926297038793564" lon="-9.263797989115119">
        <ele>11.699999999999999</ele>
        <time>2018-05-18T06:27:18Z</time>
      </trkpt>
      <trkpt lat="42.926315981894732" lon="-9.263643007725477">
        <ele>10.800000000000001</ele>
        <time>2018-05-18T06:27:22Z</time>
      </trkpt>
      <trkpt lat="42.926427964121103" lon="-9.263437986373901">
        <ele>10.4</ele>
        <time>2018-05-18T06:27:27Z</time>
      </trkpt>
      <trkpt lat="42.926628040149808" lon="-9.263388030230999">
        <ele>10.4</ele>
        <time>2018-05-18T06:27:33Z</time>
      </trkpt>
      <trkpt lat="42.926726024597883" lon="-9.263386018574238">
        <ele>10.4</ele>
        <time>2018-05-18T06:27:36Z</time>
      </trkpt>
      <trkpt lat="42.927387021481991" lon="-9.263260960578919">
        <ele>11</ele>
        <time>2018-05-18T06:27:56Z</time>
      </trkpt>
      <trkpt lat="42.927692038938403" lon="-9.263136992231011">
        <ele>11.300000000000001</ele>
        <time>2018-05-18T06:28:05Z</time>
      </trkpt>
      <trkpt lat="42.92775297537446" lon="-9.263199018314481">
        <ele>11.6</ele>
        <time>2018-05-18T06:28:08Z</time>
      </trkpt>
      <trkpt lat="42.928301990032196" lon="-9.26390502601862">
        <ele>16.5</ele>
        <time>2018-05-18T06:28:30Z</time>
      </trkpt>
      <trkpt lat="42.928937003016472" lon="-9.264721004292369">
        <ele>25.399999999999999</ele>
        <time>2018-05-18T06:28:56Z</time>
      </trkpt>
      <trkpt lat="42.929399013519287" lon="-9.265305977314711">
        <ele>31.5</ele>
        <time>2018-05-18T06:29:15Z</time>
      </trkpt>
      <trkpt lat="42.929806960746646" lon="-9.265823978930712">
        <ele>32.799999999999997</ele>
        <time>2018-05-18T06:29:31Z</time>
      </trkpt>
      <trkpt lat="42.930376008152962" lon="-9.266542978584766">
        <ele>29.199999999999999</ele>
        <time>2018-05-18T06:29:54Z</time>
      </trkpt>
      <trkpt lat="42.930568959563971" lon="-9.26678697578609">
        <ele>27.600000000000001</ele>
        <time>2018-05-18T06:30:02Z</time>
      </trkpt>
      <trkpt lat="42.931067012250423" lon="-9.267424000427127">
        <ele>28.300000000000001</ele>
        <time>2018-05-18T06:30:22Z</time>
      </trkpt>
      <trkpt lat="42.931313021108508" lon="-9.267737986519933">
        <ele>29.899999999999999</ele>
        <time>2018-05-18T06:30:32Z</time>
      </trkpt>
      <trkpt lat="42.931673023849726" lon="-9.268193040043116">
        <ele>33.100000000000001</ele>
        <time>2018-05-18T06:30:46Z</time>
      </trkpt>
      <trkpt lat="42.931722979992628" lon="-9.268254982307553">
        <ele>33.600000000000001</ele>
        <time>2018-05-18T06:30:48Z</time>
      </trkpt>
      <trkpt lat="42.931772014126182" lon="-9.26831197924912">
        <ele>33.899999999999999</ele>
        <time>2018-05-18T06:30:50Z</time>
      </trkpt>
      <trkpt lat="42.931818030774593" lon="-9.268365958705545">
        <ele>34.200000000000003</ele>
        <time>2018-05-18T06:30:52Z</time>
      </trkpt>
      <trkpt lat="42.931858012452722" lon="-9.268422033637762">
        <ele>34.5</ele>
        <time>2018-05-18T06:30:54Z</time>
      </trkpt>
      <trkpt lat="42.931892964988947" lon="-9.268476013094187">
        <ele>34.799999999999997</ele>
        <time>2018-05-18T06:30:55Z</time>
      </trkpt>
      <trkpt lat="42.931988015770912" lon="-9.268600987270474">
        <ele>35.399999999999999</ele>
        <time>2018-05-18T06:30:59Z</time>
      </trkpt>
      <trkpt lat="42.932454971596599" lon="-9.26884800195694">
        <ele>35.299999999999997</ele>
        <time>2018-05-18T06:31:14Z</time>
      </trkpt>
      <trkpt lat="42.932871971279383" lon="-9.269017986953259">
        <ele>34.5</ele>
        <time>2018-05-18T06:31:27Z</time>
      </trkpt>
      <trkpt lat="42.933277990669012" lon="-9.269186966121197">
        <ele>32.200000000000003</ele>
        <time>2018-05-18T06:31:40Z</time>
      </trkpt>
      <trkpt lat="42.933477982878685" lon="-9.269176991656423">
        <ele>30.600000000000001</ele>
        <time>2018-05-18T06:31:45Z</time>
      </trkpt>
      <trkpt lat="42.934049963951111" lon="-9.268897036090493">
        <ele>27.399999999999999</ele>
        <time>2018-05-18T06:32:03Z</time>
      </trkpt>
      <trkpt lat="42.934287004172802" lon="-9.268873985856772">
        <ele>26.800000000000001</ele>
        <time>2018-05-18T06:32:10Z</time>
      </trkpt>
      <trkpt lat="42.935040034353733" lon="-9.26895797252655">
        <ele>27.899999999999999</ele>
        <time>2018-05-18T06:32:33Z</time>
      </trkpt>
      <trkpt lat="42.935176994651556" lon="-9.268937017768621">
        <ele>28.5</ele>
        <time>2018-05-18T06:32:37Z</time>
      </trkpt>
      <trkpt lat="42.935648979619145" lon="-9.26899703219533">
        <ele>29.800000000000001</ele>
        <time>2018-05-18T06:32:51Z</time>
      </trkpt>
      <trkpt lat="42.936159018427134" lon="-9.269245974719524">
        <ele>30.199999999999999</ele>
        <time>2018-05-18T06:33:07Z</time>
      </trkpt>
      <trkpt lat="42.936273012310266" lon="-9.269284028559923">
        <ele>30.5</ele>
        <time>2018-05-18T06:33:10Z</time>
      </trkpt>
      <trkpt lat="42.936487002298236" lon="-9.269275981932879">
        <ele>31.399999999999999</ele>
        <time>2018-05-18T06:33:17Z</time>
      </trkpt>
      <trkpt lat="42.93675203807652" lon="-9.269091999158263">
        <ele>32.600000000000001</ele>
        <time>2018-05-18T06:33:26Z</time>
      </trkpt>
      <trkpt lat="42.936913976445794" lon="-9.268925031647086">
        <ele>33.299999999999997</ele>
        <time>2018-05-18T06:33:32Z</time>
      </trkpt>
      <trkpt lat="42.937122015282512" lon="-9.268734008073807">
        <ele>34.100000000000001</ele>
        <time>2018-05-18T06:33:39Z</time>
      </trkpt>
      <trkpt lat="42.937855012714863" lon="-9.268452962860465">
        <ele>36.200000000000003</ele>
        <time>2018-05-18T06:34:01Z</time>
      </trkpt>
      <trkpt lat="42.938497988507152" lon="-9.268581960350275">
        <ele>37.600000000000001</ele>
        <time>2018-05-18T06:34:21Z</time>
      </trkpt>
      <trkpt lat="42.938721030950546" lon="-9.268521023914218">
        <ele>38.200000000000003</ele>
        <time>2018-05-18T06:34:27Z</time>
      </trkpt>
      <trkpt lat="42.939022025093436" lon="-9.26831197924912">
        <ele>40.5</ele>
        <time>2018-05-18T06:34:37Z</time>
      </trkpt>
      <trkpt lat="42.939448999240994" lon="-9.268107963725925">
        <ele>44.299999999999997</ele>
        <time>2018-05-18T06:34:51Z</time>
      </trkpt>
      <trkpt lat="42.93965402059257" lon="-9.267780985683203">
        <ele>47.200000000000003</ele>
        <time>2018-05-18T06:35:00Z</time>
      </trkpt>
      <trkpt lat="42.939658965915442" lon="-9.267455013468862">
        <ele>48.700000000000003</ele>
        <time>2018-05-18T06:35:07Z</time>
      </trkpt>
      <trkpt lat="42.939753010869026" lon="-9.267099034041166">
        <ele>51.799999999999997</ele>
        <time>2018-05-18T06:35:15Z</time>
      </trkpt>
      <trkpt lat="42.939789975062013" lon="-9.2670420370996">
        <ele>52.600000000000001</ele>
        <time>2018-05-18T06:35:17Z</time>
      </trkpt>
      <trkpt lat="42.940179985016584" lon="-9.266962995752692">
        <ele>59.600000000000001</ele>
        <time>2018-05-18T06:35:29Z</time>
      </trkpt>
      <trkpt lat="42.940333960577846" lon="-9.266970958560705">
        <ele>62.100000000000001</ele>
        <time>2018-05-18T06:35:34Z</time>
      </trkpt>
      <trkpt lat="42.940402021631598" lon="-9.266984034329653">
        <ele>63.200000000000003</ele>
        <time>2018-05-18T06:35:36Z</time>
      </trkpt>
      <trkpt lat="42.940518027171493" lon="-9.267012029886246">
        <ele>64.599999999999994</ele>
        <time>2018-05-18T06:35:39Z</time>
      </trkpt>
      <trkpt lat="42.94062003493309" lon="-9.267019992694259">
        <ele>65.700000000000003</ele>
        <time>2018-05-18T06:35:42Z</time>
      </trkpt>
      <trkpt lat="42.940724976360798" lon="-9.266969030722976">
        <ele>67.200000000000003</ele>
        <time>2018-05-18T06:35:45Z</time>
      </trkpt>
      <trkpt lat="42.94113602489233" lon="-9.266683040186763">
        <ele>73.599999999999994</ele>
        <time>2018-05-18T06:35:59Z</time>
      </trkpt>
      <trkpt lat="42.941378010436893" lon="-9.266501991078258">
        <ele>76.900000000000006</ele>
        <time>2018-05-18T06:36:07Z</time>
      </trkpt>
      <trkpt lat="42.941536009311676" lon="-9.266351033002138">
        <ele>79.200000000000003</ele>
        <time>2018-05-18T06:36:13Z</time>
      </trkpt>
      <trkpt lat="42.941613039001822" lon="-9.266284983605146">
        <ele>80.299999999999997</ele>
        <time>2018-05-18T06:36:16Z</time>
      </trkpt>
      <trkpt lat="42.941799033433199" lon="-9.266181970015168">
        <ele>82.299999999999997</ele>
        <time>2018-05-18T06:36:22Z</time>
      </trkpt>
      <trkpt lat="42.941920990124345" lon="-9.266114998608828">
        <ele>83.5</ele>
        <time>2018-05-18T06:36:26Z</time>
      </trkpt>
      <trkpt lat="42.942194994539022" lon="-9.266036963090301">
        <ele>86</ele>
        <time>2018-05-18T06:36:34Z</time>
      </trkpt>
      <trkpt lat="42.942413007840514" lon="-9.266019025817514">
        <ele>87.599999999999994</ele>
        <time>2018-05-18T06:36:40Z</time>
      </trkpt>
      <trkpt lat="42.942557008937001" lon="-9.265996981412172">
        <ele>88.799999999999997</ele>
        <time>2018-05-18T06:36:45Z</time>
      </trkpt>
      <trkpt lat="42.942735040560365" lon="-9.265993963927031">
        <ele>90.099999999999994</ele>
        <time>2018-05-18T06:36:50Z</time>
      </trkpt>
      <trkpt lat="42.942997980862856" lon="-9.26579799503088">
        <ele>94.400000000000006</ele>
        <time>2018-05-18T06:36:59Z</time>
      </trkpt>
      <trkpt lat="42.943059001117945" lon="-9.265751978382468">
        <ele>95.700000000000003</ele>
        <time>2018-05-18T06:37:01Z</time>
      </trkpt>
      <trkpt lat="42.943368963897228" lon="-9.265594985336065">
        <ele>101.3</ele>
        <time>2018-05-18T06:37:11Z</time>
      </trkpt>
      <trkpt lat="42.943632993847132" lon="-9.265500018373132">
        <ele>105.7</ele>
        <time>2018-05-18T06:37:19Z</time>
      </trkpt>
      <trkpt lat="42.943811025470495" lon="-9.265473028644919">
        <ele>108.40000000000001</ele>
        <time>2018-05-18T06:37:24Z</time>
      </trkpt>
      <trkpt lat="42.944034989923239" lon="-9.265469005331397">
        <ele>111.7</ele>
        <time>2018-05-18T06:37:31Z</time>
      </trkpt>
      <trkpt lat="42.944164993241429" lon="-9.265479985624552">
        <ele>113.59999999999999</ele>
        <time>2018-05-18T06:37:35Z</time>
      </trkpt>
      <trkpt lat="42.944446038454771" lon="-9.265505969524384">
        <ele>117.7</ele>
        <time>2018-05-18T06:37:43Z</time>
      </trkpt>
      <trkpt lat="42.944580987095833" lon="-9.265498006716371">
        <ele>119.8</ele>
        <time>2018-05-18T06:37:47Z</time>
      </trkpt>
      <trkpt lat="42.944734962657094" lon="-9.265494989231229">
        <ele>121.3</ele>
        <time>2018-05-18T06:37:52Z</time>
      </trkpt>
      <trkpt lat="42.945053977891803" lon="-9.26547696813941">
        <ele>124.5</ele>
        <time>2018-05-18T06:38:01Z</time>
      </trkpt>
      <trkpt lat="42.945332005620003" lon="-9.265384012833238">
        <ele>127.40000000000001</ele>
        <time>2018-05-18T06:38:10Z</time>
      </trkpt>
      <trkpt lat="42.945381961762905" lon="-9.265352999791503">
        <ele>128</ele>
        <time>2018-05-18T06:38:12Z</time>
      </trkpt>
      <trkpt lat="42.945592012256384" lon="-9.265165999531746">
        <ele>128.30000000000001</ele>
        <time>2018-05-18T06:38:19Z</time>
      </trkpt>
      <trkpt lat="42.945646997541189" lon="-9.265052005648613">
        <ele>128.69999999999999</ele>
        <time>2018-05-18T06:38:22Z</time>
      </trkpt>
      <trkpt lat="42.94586299918592" lon="-9.264643974602222">
        <ele>131</ele>
        <time>2018-05-18T06:38:33Z</time>
      </trkpt>
      <trkpt lat="42.945994008332491" lon="-9.264446999877691">
        <ele>132.59999999999999</ele>
        <time>2018-05-18T06:38:39Z</time>
      </trkpt>
      <trkpt lat="42.946328027173877" lon="-9.26427198573947">
        <ele>134.09999999999999</ele>
        <time>2018-05-18T06:38:49Z</time>
      </trkpt>
      <trkpt lat="42.946836976334453" lon="-9.264093032106757">
        <ele>136.30000000000001</ele>
        <time>2018-05-18T06:39:05Z</time>
      </trkpt>
      <trkpt lat="42.947184992954135" lon="-9.263936961069703">
        <ele>137.40000000000001</ele>
        <time>2018-05-18T06:39:16Z</time>
      </trkpt>
      <trkpt lat="42.947477018460631" lon="-9.263602020218968">
        <ele>137.80000000000001</ele>
        <time>2018-05-18T06:39:27Z</time>
      </trkpt>
      <trkpt lat="42.947671981528401" lon="-9.263247968629003">
        <ele>137</ele>
        <time>2018-05-18T06:39:36Z</time>
      </trkpt>
      <trkpt lat="42.947768038138747" lon="-9.263087036088109">
        <ele>136.30000000000001</ele>
        <time>2018-05-18T06:39:41Z</time>
      </trkpt>
      <trkpt lat="42.94788203202188" lon="-9.262752011418343">
        <ele>135.19999999999999</ele>
        <time>2018-05-18T06:39:49Z</time>
      </trkpt>
      <trkpt lat="42.947955960407853" lon="-9.262527963146567">
        <ele>133.80000000000001</ele>
        <time>2018-05-18T06:39:54Z</time>
      </trkpt>
      <trkpt lat="42.948002982884645" lon="-9.26234096288681">
        <ele>132.59999999999999</ele>
        <time>2018-05-18T06:39:59Z</time>
      </trkpt>
      <trkpt lat="42.948142038658261" lon="-9.261798989027739">
        <ele>130.30000000000001</ele>
        <time>2018-05-18T06:40:11Z</time>
      </trkpt>
      <trkpt lat="42.948559038341045" lon="-9.261173028498888">
        <ele>127.09999999999999</ele>
        <time>2018-05-18T06:40:29Z</time>
      </trkpt>
      <trkpt lat="42.948857014998794" lon="-9.260870022699237">
        <ele>127.7</ele>
        <time>2018-05-18T06:40:40Z</time>
      </trkpt>
      <trkpt lat="42.949015013873577" lon="-9.260710012167692">
        <ele>128</ele>
        <time>2018-05-18T06:40:46Z</time>
      </trkpt>
      <trkpt lat="42.949221963062882" lon="-9.260585037991405">
        <ele>126.7</ele>
        <time>2018-05-18T06:40:53Z</time>
      </trkpt>
      <trkpt lat="42.949499990791082" lon="-9.260312961414456">
        <ele>126</ele>
        <time>2018-05-18T06:41:03Z</time>
      </trkpt>
      <trkpt lat="42.949656983837485" lon="-9.26010400056839">
        <ele>127.90000000000001</ele>
        <time>2018-05-18T06:41:09Z</time>
      </trkpt>
      <trkpt lat="42.949718004092574" lon="-9.260044991970062">
        <ele>128.5</ele>
        <time>2018-05-18T06:41:12Z</time>
      </trkpt>
      <trkpt lat="42.949868962168694" lon="-9.259880958124995">
        <ele>130.40000000000001</ele>
        <time>2018-05-18T06:41:17Z</time>
      </trkpt>
      <trkpt lat="42.949997037649155" lon="-9.259765036404133">
        <ele>131.59999999999999</ele>
        <time>2018-05-18T06:41:22Z</time>
      </trkpt>
      <trkpt lat="42.950212033465505" lon="-9.259646013379097">
        <ele>132.19999999999999</ele>
        <time>2018-05-18T06:41:29Z</time>
      </trkpt>
      <trkpt lat="42.950455024838448" lon="-9.259461024776101">
        <ele>133.30000000000001</ele>
        <time>2018-05-18T06:41:37Z</time>
      </trkpt>
      <trkpt lat="42.950728023424745" lon="-9.259463958442211">
        <ele>131.30000000000001</ele>
        <time>2018-05-18T06:41:45Z</time>
      </trkpt>
      <trkpt lat="42.950861966237426" lon="-9.259487008675933">
        <ele>130</ele>
        <time>2018-05-18T06:41:49Z</time>
      </trkpt>
      <trkpt lat="42.950902031734586" lon="-9.259520033374429">
        <ele>129.09999999999999</ele>
        <time>2018-05-18T06:41:51Z</time>
      </trkpt>
      <trkpt lat="42.950950982049108" lon="-9.259664034470916">
        <ele>126.3</ele>
        <time>2018-05-18T06:41:54Z</time>
      </trkpt>
      <trkpt lat="42.951061958447099" lon="-9.260020013898611">
        <ele>119.8</ele>
        <time>2018-05-18T06:42:03Z</time>
      </trkpt>
      <trkpt lat="42.951067993417382" lon="-9.260109029710293">
        <ele>118.3</ele>
        <time>2018-05-18T06:42:05Z</time>
      </trkpt>
      <trkpt lat="42.951094983145595" lon="-9.260228974744678">
        <ele>116.2</ele>
        <time>2018-05-18T06:42:07Z</time>
      </trkpt>
      <trkpt lat="42.951145023107529" lon="-9.260499039664865">
        <ele>111.5</ele>
        <time>2018-05-18T06:42:14Z</time>
      </trkpt>
      <trkpt lat="42.951277960091829" lon="-9.26089801825583">
        <ele>104.2</ele>
        <time>2018-05-18T06:42:23Z</time>
      </trkpt>
      <trkpt lat="42.951464960351586" lon="-9.261089963838458">
        <ele>102.40000000000001</ele>
        <time>2018-05-18T06:42:30Z</time>
      </trkpt>
      <trkpt lat="42.951573003083467" lon="-9.261203035712242">
        <ele>100.90000000000001</ele>
        <time>2018-05-18T06:42:34Z</time>
      </trkpt>
      <trkpt lat="42.951810965314507" lon="-9.261382995173335">
        <ele>99.400000000000006</ele>
        <time>2018-05-18T06:42:42Z</time>
      </trkpt>
      <trkpt lat="42.952046999707818" lon="-9.261396992951632">
        <ele>100.40000000000001</ele>
        <time>2018-05-18T06:42:49Z</time>
      </trkpt>
      <trkpt lat="42.952278004959226" lon="-9.261418031528592">
        <ele>99.900000000000006</ele>
        <time>2018-05-18T06:42:56Z</time>
      </trkpt>
      <trkpt lat="42.952562989667058" lon="-9.2613710090518">
        <ele>100.3</ele>
        <time>2018-05-18T06:43:05Z</time>
      </trkpt>
      <trkpt lat="42.952810004353523" lon="-9.261218039318919">
        <ele>102.8</ele>
        <time>2018-05-18T06:43:13Z</time>
      </trkpt>
      <trkpt lat="42.953074034303427" lon="-9.260956021025777">
        <ele>106.7</ele>
        <time>2018-05-18T06:43:22Z</time>
      </trkpt>
      <trkpt lat="42.953520035371184" lon="-9.260804979130626">
        <ele>105.59999999999999</ele>
        <time>2018-05-18T06:43:36Z</time>
      </trkpt>
      <trkpt lat="42.954033007845283" lon="-9.260753011330962">
        <ele>101.59999999999999</ele>
        <time>2018-05-18T06:43:51Z</time>
      </trkpt>
      <trkpt lat="42.954425029456615" lon="-9.260730966925621">
        <ele>98</ele>
        <time>2018-05-18T06:44:03Z</time>
      </trkpt>
      <trkpt lat="42.954812021926045" lon="-9.260631976649165">
        <ele>98</ele>
        <time>2018-05-18T06:44:14Z</time>
      </trkpt>
      <trkpt lat="42.955161966383457" lon="-9.260596018284559">
        <ele>98.700000000000003</ele>
        <time>2018-05-18T06:44:25Z</time>
      </trkpt>
      <trkpt lat="42.955444017425179" lon="-9.26062099635601">
        <ele>98.5</ele>
        <time>2018-05-18T06:44:33Z</time>
      </trkpt>
      <trkpt lat="42.955696983262897" lon="-9.260873040184379">
        <ele>95</ele>
        <time>2018-05-18T06:44:42Z</time>
      </trkpt>
      <trkpt lat="42.95589798130095" lon="-9.261068003252149">
        <ele>92.200000000000003</ele>
        <time>2018-05-18T06:44:50Z</time>
      </trkpt>
      <trkpt lat="42.956209033727646" lon="-9.261516015976667">
        <ele>86.5</ele>
        <time>2018-05-18T06:45:03Z</time>
      </trkpt>
      <trkpt lat="42.956230994313955" lon="-9.261885993182659">
        <ele>82.900000000000006</ele>
        <time>2018-05-18T06:45:11Z</time>
      </trkpt>
      <trkpt lat="42.956319004297256" lon="-9.26236099563539">
        <ele>81.200000000000003</ele>
        <time>2018-05-18T06:45:22Z</time>
      </trkpt>
      <trkpt lat="42.956473985686898" lon="-9.262670036405325">
        <ele>82.5</ele>
        <time>2018-05-18T06:45:30Z</time>
      </trkpt>
      <trkpt lat="42.956791995093226" lon="-9.263044036924839">
        <ele>85.400000000000006</ele>
        <time>2018-05-18T06:45:42Z</time>
      </trkpt>
      <trkpt lat="42.956872964277864" lon="-9.263190971687436">
        <ele>85.5</ele>
        <time>2018-05-18T06:45:46Z</time>
      </trkpt>
      <trkpt lat="42.956924010068178" lon="-9.263359028846026">
        <ele>85</ele>
        <time>2018-05-18T06:45:50Z</time>
      </trkpt>
      <trkpt lat="42.956981007009745" lon="-9.263806035742164">
        <ele>82.400000000000006</ele>
        <time>2018-05-18T06:46:00Z</time>
      </trkpt>
      <trkpt lat="42.957044038921595" lon="-9.263838976621628">
        <ele>82.700000000000003</ele>
        <time>2018-05-18T06:46:02Z</time>
      </trkpt>
      <trkpt lat="42.957819029688835" lon="-9.263775022700429">
        <ele>88.200000000000003</ele>
        <time>2018-05-18T06:46:25Z</time>
      </trkpt>
      <trkpt lat="42.958251032978296" lon="-9.263697993010283">
        <ele>89.5</ele>
        <time>2018-05-18T06:46:38Z</time>
      </trkpt>
      <trkpt lat="42.958587985485792" lon="-9.263507975265384">
        <ele>91.299999999999997</ele>
        <time>2018-05-18T06:46:49Z</time>
      </trkpt>
      <trkpt lat="42.958933990448713" lon="-9.263189965859056">
        <ele>91.799999999999997</ele>
        <time>2018-05-18T06:47:01Z</time>
      </trkpt>
      <trkpt lat="42.959047984331846" lon="-9.263059040531516">
        <ele>91.400000000000006</ele>
        <time>2018-05-18T06:47:06Z</time>
      </trkpt>
      <trkpt lat="42.959264991804957" lon="-9.262640029191971">
        <ele>92</ele>
        <time>2018-05-18T06:47:17Z</time>
      </trkpt>
      <trkpt lat="42.959345960989594" lon="-9.262512037530541">
        <ele>92</ele>
        <time>2018-05-18T06:47:20Z</time>
      </trkpt>
      <trkpt lat="42.959492979571223" lon="-9.262052960693836">
        <ele>93.5</ele>
        <time>2018-05-18T06:47:31Z</time>
      </trkpt>
      <trkpt lat="42.959552993997931" lon="-9.261748027056456">
        <ele>93.299999999999997</ele>
        <time>2018-05-18T06:47:38Z</time>
      </trkpt>
      <trkpt lat="42.959577972069383" lon="-9.261358017101884">
        <ele>93.799999999999997</ele>
        <time>2018-05-18T06:47:47Z</time>
      </trkpt>
      <trkpt lat="42.95959297567606" lon="-9.260647986084223">
        <ele>95.200000000000003</ele>
        <time>2018-05-18T06:48:02Z</time>
      </trkpt>
      <trkpt lat="42.959612002596259" lon="-9.260567016899586">
        <ele>94.900000000000006</ele>
        <time>2018-05-18T06:48:04Z</time>
      </trkpt>
      <trkpt lat="42.95967604033649" lon="-9.260256970301271">
        <ele>93.900000000000006</ele>
        <time>2018-05-18T06:48:11Z</time>
      </trkpt>
      <trkpt lat="42.959732031449676" lon="-9.259969973936677">
        <ele>93.5</ele>
        <time>2018-05-18T06:48:17Z</time>
      </trkpt>
      <trkpt lat="42.959788022562861" lon="-9.259582981467247">
        <ele>93.799999999999997</ele>
        <time>2018-05-18T06:48:26Z</time>
      </trkpt>
      <trkpt lat="42.959820963442326" lon="-9.259099010378122">
        <ele>94.299999999999997</ele>
        <time>2018-05-18T06:48:36Z</time>
      </trkpt>
      <trkpt lat="42.959839990362525" lon="-9.258743030950427">
        <ele>94.700000000000003</ele>
        <time>2018-05-18T06:48:44Z</time>
      </trkpt>
      <trkpt lat="42.959858011454344" lon="-9.258545972406864">
        <ele>95</ele>
        <time>2018-05-18T06:48:48Z</time>
      </trkpt>
      <trkpt lat="42.959857005625963" lon="-9.258365007117391">
        <ele>95.5</ele>
        <time>2018-05-18T06:48:52Z</time>
      </trkpt>
      <trkpt lat="42.959961025044322" lon="-9.25821396522224">
        <ele>94</ele>
        <time>2018-05-18T06:48:57Z</time>
      </trkpt>
      <trkpt lat="42.960032019764185" lon="-9.258112963289022">
        <ele>92.900000000000006</ele>
        <time>2018-05-18T06:49:00Z</time>
      </trkpt>
      <trkpt lat="42.960154982283711" lon="-9.257943984121084">
        <ele>91</ele>
        <time>2018-05-18T06:49:05Z</time>
      </trkpt>
      <trkpt lat="42.96032203361392" lon="-9.257640978321433">
        <ele>91.700000000000003</ele>
        <time>2018-05-18T06:49:13Z</time>
      </trkpt>
      <trkpt lat="42.960426975041628" lon="-9.257366973906755">
        <ele>93.599999999999994</ele>
        <time>2018-05-18T06:49:20Z</time>
      </trkpt>
      <trkpt lat="42.960552033036947" lon="-9.256979981437326">
        <ele>94.5</ele>
        <time>2018-05-18T06:49:29Z</time>
      </trkpt>
      <trkpt lat="42.960604000836611" lon="-9.256800021976233">
        <ele>93.599999999999994</ele>
        <time>2018-05-18T06:49:33Z</time>
      </trkpt>
      <trkpt lat="42.960672983899713" lon="-9.25673296675086">
        <ele>91.900000000000006</ele>
        <time>2018-05-18T06:49:36Z</time>
      </trkpt>
      <trkpt lat="42.960739033296704" lon="-9.256771020591259">
        <ele>89.799999999999997</ele>
        <time>2018-05-18T06:49:38Z</time>
      </trkpt>
      <trkpt lat="42.961001973599195" lon="-9.257015017792583">
        <ele>81.400000000000006</ele>
        <time>2018-05-18T06:49:48Z</time>
      </trkpt>
      <trkpt lat="42.961145974695683" lon="-9.257125994190574">
        <ele>76.599999999999994</ele>
        <time>2018-05-18T06:49:53Z</time>
      </trkpt>
      <trkpt lat="42.961217975243926" lon="-9.257183996960521">
        <ele>74.099999999999994</ele>
        <time>2018-05-18T06:49:55Z</time>
      </trkpt>
      <trkpt lat="42.961269021034241" lon="-9.257218027487397">
        <ele>72.599999999999994</ele>
        <time>2018-05-18T06:49:57Z</time>
      </trkpt>
      <trkpt lat="42.961448980495334" lon="-9.257376026362181">
        <ele>68.5</ele>
        <time>2018-05-18T06:50:03Z</time>
      </trkpt>
      <trkpt lat="42.961557023227215" lon="-9.257446015253663">
        <ele>66.299999999999997</ele>
        <time>2018-05-18T06:50:07Z</time>
      </trkpt>
      <trkpt lat="42.961571021005511" lon="-9.257456995546818">
        <ele>66</ele>
        <time>2018-05-18T06:50:07Z</time>
      </trkpt>
      <trkpt lat="42.961707981303334" lon="-9.257559003308415">
        <ele>63.299999999999997</ele>
        <time>2018-05-18T06:50:12Z</time>
      </trkpt>
      <trkpt lat="42.961916020140052" lon="-9.257594039663672">
        <ele>60</ele>
        <time>2018-05-18T06:50:18Z</time>
      </trkpt>
      <trkpt lat="42.962161023169756" lon="-9.257571995258331">
        <ele>57</ele>
        <time>2018-05-18T06:50:26Z</time>
      </trkpt>
      <trkpt lat="42.962437039241195" lon="-9.257522961124778">
        <ele>54.700000000000003</ele>
        <time>2018-05-18T06:50:34Z</time>
      </trkpt>
      <trkpt lat="42.962723029777408" lon="-9.25743998028338">
        <ele>52.5</ele>
        <time>2018-05-18T06:50:43Z</time>
      </trkpt>
      <trkpt lat="42.962955040857196" lon="-9.257401004433632">
        <ele>50.399999999999999</ele>
        <time>2018-05-18T06:50:49Z</time>
      </trkpt>
      <trkpt lat="42.963161990046501" lon="-9.257312994450331">
        <ele>48.299999999999997</ele>
        <time>2018-05-18T06:50:56Z</time>
      </trkpt>
      <trkpt lat="42.963199960067868" lon="-9.257305031642318">
        <ele>47.799999999999997</ele>
        <time>2018-05-18T06:50:57Z</time>
      </trkpt>
      <trkpt lat="42.963407998904586" lon="-9.257269995287061">
        <ele>45.399999999999999</ele>
        <time>2018-05-18T06:51:03Z</time>
      </trkpt>
      <trkpt lat="42.963548982515931" lon="-9.257237976416946">
        <ele>43.700000000000003</ele>
        <time>2018-05-18T06:51:08Z</time>
      </trkpt>
      <trkpt lat="42.963791973888874" lon="-9.257193971425295">
        <ele>40.600000000000001</ele>
        <time>2018-05-18T06:51:15Z</time>
      </trkpt>
      <trkpt lat="42.964436961337924" lon="-9.257056005299091">
        <ele>31.899999999999999</ele>
        <time>2018-05-18T06:51:34Z</time>
      </trkpt>
      <trkpt lat="42.965057976543903" lon="-9.256932958960533">
        <ele>28.800000000000001</ele>
        <time>2018-05-18T06:51:53Z</time>
      </trkpt>
      <trkpt lat="42.965440023690462" lon="-9.256840003654361">
        <ele>28.199999999999999</ele>
        <time>2018-05-18T06:52:04Z</time>
      </trkpt>
      <trkpt lat="42.965518981218338" lon="-9.2568189650774">
        <ele>28.5</ele>
        <time>2018-05-18T06:52:07Z</time>
      </trkpt>
      <trkpt lat="42.965895999222994" lon="-9.256737995892763">
        <ele>29.800000000000001</ele>
        <time>2018-05-18T06:52:18Z</time>
      </trkpt>
      <trkpt lat="42.966092973947525" lon="-9.256685022264719">
        <ele>30.899999999999999</ele>
        <time>2018-05-18T06:52:24Z</time>
      </trkpt>
      <trkpt lat="42.96642498113215" lon="-9.256649985909462">
        <ele>32.200000000000003</ele>
        <time>2018-05-18T06:52:34Z</time>
      </trkpt>
      <trkpt lat="42.966535035520792" lon="-9.256632970646024">
        <ele>32.700000000000003</ele>
        <time>2018-05-18T06:52:37Z</time>
      </trkpt>
      <trkpt lat="42.966659003868699" lon="-9.256406994536519">
        <ele>35.100000000000001</ele>
        <time>2018-05-18T06:52:43Z</time>
      </trkpt>
      <trkpt lat="42.966737961396575" lon="-9.256180012598634">
        <ele>37.200000000000003</ele>
        <time>2018-05-18T06:52:49Z</time>
      </trkpt>
      <trkpt lat="42.966735027730465" lon="-9.256008015945554">
        <ele>38.600000000000001</ele>
        <time>2018-05-18T06:52:52Z</time>
      </trkpt>
      <trkpt lat="42.966654980555177" lon="-9.255490014329553">
        <ele>42.899999999999999</ele>
        <time>2018-05-18T06:53:04Z</time>
      </trkpt>
      <trkpt lat="42.966637965291739" lon="-9.2553770262748">
        <ele>43.700000000000003</ele>
        <time>2018-05-18T06:53:06Z</time>
      </trkpt>
      <trkpt lat="42.966631008312106" lon="-9.255219027400017">
        <ele>44.200000000000003</ele>
        <time>2018-05-18T06:53:10Z</time>
      </trkpt>
      <trkpt lat="42.966893026605248" lon="-9.255144009366632">
        <ele>43.799999999999997</ele>
        <time>2018-05-18T06:53:18Z</time>
      </trkpt>
      <trkpt lat="42.967355959117413" lon="-9.255019035190344">
        <ele>41.700000000000003</ele>
        <time>2018-05-18T06:53:32Z</time>
      </trkpt>
      <trkpt lat="42.968129022046924" lon="-9.254802027717233">
        <ele>40.100000000000001</ele>
        <time>2018-05-18T06:53:55Z</time>
      </trkpt>
      <trkpt lat="42.968547027558088" lon="-9.254672024399042">
        <ele>42.799999999999997</ele>
        <time>2018-05-18T06:54:08Z</time>
      </trkpt>
      <trkpt lat="42.968693962320685" lon="-9.254631036892533">
        <ele>43.600000000000001</ele>
        <time>2018-05-18T06:54:12Z</time>
      </trkpt>
      <trkpt lat="42.969438023865223" lon="-9.254384022206068">
        <ele>48.700000000000003</ele>
        <time>2018-05-18T06:54:35Z</time>
      </trkpt>
      <trkpt lat="42.969558974727988" lon="-9.254356026649475">
        <ele>49.399999999999999</ele>
        <time>2018-05-18T06:54:38Z</time>
      </trkpt>
      <trkpt lat="42.969867009669542" lon="-9.254277991130948">
        <ele>49.799999999999997</ele>
        <time>2018-05-18T06:54:48Z</time>
      </trkpt>
      <trkpt lat="42.970337988808751" lon="-9.254139019176364">
        <ele>50</ele>
        <time>2018-05-18T06:55:02Z</time>
      </trkpt>
      <trkpt lat="42.970781978219748" lon="-9.253999041393399">
        <ele>48.799999999999997</ele>
        <time>2018-05-18T06:55:15Z</time>
      </trkpt>
      <trkpt lat="42.970907958224416" lon="-9.253961993381381">
        <ele>48.399999999999999</ele>
        <time>2018-05-18T06:55:19Z</time>
      </trkpt>
      <trkpt lat="42.971428977325559" lon="-9.253817992284894">
        <ele>46.899999999999999</ele>
        <time>2018-05-18T06:55:35Z</time>
      </trkpt>
      <trkpt lat="42.971627041697502" lon="-9.253779016435146">
        <ele>46.899999999999999</ele>
        <time>2018-05-18T06:55:41Z</time>
      </trkpt>
      <trkpt lat="42.972086034715176" lon="-9.253637026995421">
        <ele>48.5</ele>
        <time>2018-05-18T06:55:55Z</time>
      </trkpt>
      <trkpt lat="42.972346041351557" lon="-9.253584975376725">
        <ele>52.299999999999997</ele>
        <time>2018-05-18T06:56:03Z</time>
      </trkpt>
      <trkpt lat="42.972461963072419" lon="-9.253557985648513">
        <ele>54</ele>
        <time>2018-05-18T06:56:06Z</time>
      </trkpt>
      <trkpt lat="42.972449976950884" lon="-9.253516998142004">
        <ele>54.299999999999997</ele>
        <time>2018-05-18T06:56:07Z</time>
      </trkpt>
      <trkpt lat="42.972431033849716" lon="-9.253348018974066">
        <ele>55.899999999999999</ele>
        <time>2018-05-18T06:56:11Z</time>
      </trkpt>
      <trkpt lat="42.972423993051052" lon="-9.253232013434172">
        <ele>57.100000000000001</ele>
        <time>2018-05-18T06:56:13Z</time>
      </trkpt>
      <trkpt lat="42.972414018586278" lon="-9.252963038161397">
        <ele>59.899999999999999</ele>
        <time>2018-05-18T06:56:19Z</time>
      </trkpt>
      <trkpt lat="42.972392980009317" lon="-9.252679981291294">
        <ele>62.5</ele>
        <time>2018-05-18T06:56:25Z</time>
      </trkpt>
      <trkpt lat="42.972358027473092" lon="-9.252282008528709">
        <ele>66.299999999999997</ele>
        <time>2018-05-18T06:56:34Z</time>
      </trkpt>
      <trkpt lat="42.972306981682777" lon="-9.251894010230899">
        <ele>70.5</ele>
        <time>2018-05-18T06:56:43Z</time>
      </trkpt>
      <trkpt lat="42.97229097224772" lon="-9.251673985272646">
        <ele>73</ele>
        <time>2018-05-18T06:56:48Z</time>
      </trkpt>
      <trkpt lat="42.972272029146552" lon="-9.251478016376495">
        <ele>75.299999999999997</ele>
        <time>2018-05-18T06:56:52Z</time>
      </trkpt>
      <trkpt lat="42.97226800583303" lon="-9.251363016664982">
        <ele>76.700000000000003</ele>
        <time>2018-05-18T06:56:54Z</time>
      </trkpt>
      <trkpt lat="42.972386023029685" lon="-9.251194959506393">
        <ele>79</ele>
        <time>2018-05-18T06:57:00Z</time>
      </trkpt>
      <trkpt lat="42.972980970516801" lon="-9.251054981723428">
        <ele>80.700000000000003</ele>
        <time>2018-05-18T06:57:17Z</time>
      </trkpt>
      <trkpt lat="42.973064035177231" lon="-9.251093035563827">
        <ele>80.400000000000006</ele>
        <time>2018-05-18T06:57:20Z</time>
      </trkpt>
      <trkpt lat="42.973693013191223" lon="-9.251367039978504">
        <ele>79.099999999999994</ele>
        <time>2018-05-18T06:57:39Z</time>
      </trkpt>
      <trkpt lat="42.974125016480684" lon="-9.251583041623235">
        <ele>82.400000000000006</ele>
        <time>2018-05-18T06:57:53Z</time>
      </trkpt>
      <trkpt lat="42.974722981452942" lon="-9.251851011067629">
        <ele>87.099999999999994</ele>
        <time>2018-05-18T06:58:12Z</time>
      </trkpt>
      <trkpt lat="42.974914005026221" lon="-9.251952013000846">
        <ele>87</ele>
        <time>2018-05-18T06:58:18Z</time>
      </trkpt>
      <trkpt lat="42.975050965324044" lon="-9.252002974972129">
        <ele>87</ele>
        <time>2018-05-18T06:58:22Z</time>
      </trkpt>
      <trkpt lat="42.975146016106009" lon="-9.252044968307018">
        <ele>86.900000000000006</ele>
        <time>2018-05-18T06:58:25Z</time>
      </trkpt>
      <trkpt lat="42.975328993052244" lon="-9.252125015482307">
        <ele>86.700000000000003</ele>
        <time>2018-05-18T06:58:31Z</time>
      </trkpt>
      <trkpt lat="42.975423038005829" lon="-9.252187041565776">
        <ele>86.5</ele>
        <time>2018-05-18T06:58:34Z</time>
      </trkpt>
      <trkpt lat="42.975885970517993" lon="-9.252396002411842">
        <ele>85.900000000000006</ele>
        <time>2018-05-18T06:58:48Z</time>
      </trkpt>
      <trkpt lat="42.976048998534679" lon="-9.252456016838551">
        <ele>85.599999999999994</ele>
        <time>2018-05-18T06:58:53Z</time>
      </trkpt>
      <trkpt lat="42.976300036534667" lon="-9.252580991014838">
        <ele>85.599999999999994</ele>
        <time>2018-05-18T06:59:01Z</time>
      </trkpt>
      <trkpt lat="42.976556019857526" lon="-9.252736978232861">
        <ele>87.5</ele>
        <time>2018-05-18T06:59:09Z</time>
      </trkpt>
      <trkpt lat="42.976668002083898" lon="-9.252789029851556">
        <ele>88.400000000000006</ele>
        <time>2018-05-18T06:59:13Z</time>
      </trkpt>
      <trkpt lat="42.976905964314938" lon="-9.252861030399799">
        <ele>90.5</ele>
        <time>2018-05-18T06:59:20Z</time>
      </trkpt>
      <trkpt lat="42.976993974298239" lon="-9.252851977944374">
        <ele>91.5</ele>
        <time>2018-05-18T06:59:23Z</time>
      </trkpt>
      <trkpt lat="42.977247023954988" lon="-9.25294803455472">
        <ele>92.900000000000006</ele>
        <time>2018-05-18T06:59:30Z</time>
      </trkpt>
      <trkpt lat="42.977417008951306" lon="-9.253008970990777">
        <ele>93.599999999999994</ele>
        <time>2018-05-18T06:59:36Z</time>
      </trkpt>
      <trkpt lat="42.977529997006059" lon="-9.253065967932344">
        <ele>94</ele>
        <time>2018-05-18T06:59:39Z</time>
      </trkpt>
      <trkpt lat="42.97768397256732" lon="-9.253133023157716">
        <ele>94.5</ele>
        <time>2018-05-18T06:59:44Z</time>
      </trkpt>
      <trkpt lat="42.977869966998696" lon="-9.253149032592773">
        <ele>95.700000000000003</ele>
        <time>2018-05-18T06:59:50Z</time>
      </trkpt>
      <trkpt lat="42.978082029148936" lon="-9.2531200312078">
        <ele>96.799999999999997</ele>
        <time>2018-05-18T06:59:56Z</time>
      </trkpt>
      <trkpt lat="42.97826400026679" lon="-9.253103015944362">
        <ele>97.599999999999994</ele>
        <time>2018-05-18T07:00:01Z</time>
      </trkpt>
      <trkpt lat="42.978405989706516" lon="-9.253049958497286">
        <ele>98.5</ele>
        <time>2018-05-18T07:00:06Z</time>
      </trkpt>
      <trkpt lat="42.978744031861424" lon="-9.252961026504636">
        <ele>100.59999999999999</ele>
        <time>2018-05-18T07:00:16Z</time>
      </trkpt>
      <trkpt lat="42.979002026841044" lon="-9.252888020128012">
        <ele>103.09999999999999</ele>
        <time>2018-05-18T07:00:24Z</time>
      </trkpt>
      <trkpt lat="42.979128006845713" lon="-9.252830017358065">
        <ele>104.59999999999999</ele>
        <time>2018-05-18T07:00:28Z</time>
      </trkpt>
      <trkpt lat="42.979311989620328" lon="-9.252781989052892">
        <ele>106.40000000000001</ele>
        <time>2018-05-18T07:00:33Z</time>
      </trkpt>
      <trkpt lat="42.979704011231661" lon="-9.252662966027856">
        <ele>109.7</ele>
        <time>2018-05-18T07:00:45Z</time>
      </trkpt>
      <trkpt lat="42.979919007048011" lon="-9.252645028755069">
        <ele>110.3</ele>
        <time>2018-05-18T07:00:51Z</time>
      </trkpt>
      <trkpt lat="42.980172978714108" lon="-9.252644022926688">
        <ele>110.8</ele>
        <time>2018-05-18T07:00:59Z</time>
      </trkpt>
      <trkpt lat="42.98056298866868" lon="-9.252788024023175">
        <ele>110</ele>
        <time>2018-05-18T07:01:11Z</time>
      </trkpt>
      <trkpt lat="42.980675976723433" lon="-9.252868993207812">
        <ele>109.3</ele>
        <time>2018-05-18T07:01:15Z</time>
      </trkpt>
      <trkpt lat="42.980681005865335" lon="-9.252886008471251">
        <ele>109.2</ele>
        <time>2018-05-18T07:01:15Z</time>
      </trkpt>
      <trkpt lat="42.980699026957154" lon="-9.252924984320998">
        <ele>109</ele>
        <time>2018-05-18T07:01:16Z</time>
      </trkpt>
      <trkpt lat="42.980736996978521" lon="-9.25295096822083">
        <ele>108.90000000000001</ele>
        <time>2018-05-18T07:01:17Z</time>
      </trkpt>
      <trkpt lat="42.980850990861654" lon="-9.253173004835844">
        <ele>108.2</ele>
        <time>2018-05-18T07:01:23Z</time>
      </trkpt>
      <trkpt lat="42.980963978916407" lon="-9.253411972895265">
        <ele>107.59999999999999</ele>
        <time>2018-05-18T07:01:29Z</time>
      </trkpt>
      <trkpt lat="42.981177968904376" lon="-9.253462012857199">
        <ele>107.59999999999999</ele>
        <time>2018-05-18T07:01:36Z</time>
      </trkpt>
      <trkpt lat="42.981438981369138" lon="-9.253496965393424">
        <ele>107.09999999999999</ele>
        <time>2018-05-18T07:01:43Z</time>
      </trkpt>
      <trkpt lat="42.981644002720714" lon="-9.253492020070553">
        <ele>106.59999999999999</ele>
        <time>2018-05-18T07:01:50Z</time>
      </trkpt>
      <trkpt lat="42.981734024360776" lon="-9.253500988706946">
        <ele>106.3</ele>
        <time>2018-05-18T07:01:52Z</time>
      </trkpt>
      <trkpt lat="42.981876013800502" lon="-9.253547005355358">
        <ele>105.59999999999999</ele>
        <time>2018-05-18T07:01:57Z</time>
      </trkpt>
      <trkpt lat="42.982246996834874" lon="-9.253672985360026">
        <ele>105.09999999999999</ele>
        <time>2018-05-18T07:02:08Z</time>
      </trkpt>
      <trkpt lat="42.982312040403485" lon="-9.253686983138323">
        <ele>105.5</ele>
        <time>2018-05-18T07:02:10Z</time>
      </trkpt>
      <trkpt lat="42.982481019571424" lon="-9.253711039200425">
        <ele>106.7</ele>
        <time>2018-05-18T07:02:15Z</time>
      </trkpt>
      <trkpt lat="42.982586966827512" lon="-9.25374498590827">
        <ele>107.3</ele>
        <time>2018-05-18T07:02:18Z</time>
      </trkpt>
      <trkpt lat="42.982871029525995" lon="-9.253810029476881">
        <ele>109.09999999999999</ele>
        <time>2018-05-18T07:02:27Z</time>
      </trkpt>
      <trkpt lat="42.983187027275562" lon="-9.253918994218111">
        <ele>110.2</ele>
        <time>2018-05-18T07:02:36Z</time>
      </trkpt>
      <trkpt lat="42.983443010598421" lon="-9.253992000594735">
        <ele>111.40000000000001</ele>
        <time>2018-05-18T07:02:44Z</time>
      </trkpt>
      <trkpt lat="42.983706034719944" lon="-9.253983031958342">
        <ele>113.2</ele>
        <time>2018-05-18T07:02:52Z</time>
      </trkpt>
      <trkpt lat="42.98380603082478" lon="-9.253987977281213">
        <ele>113.5</ele>
        <time>2018-05-18T07:02:55Z</time>
      </trkpt>
      <trkpt lat="42.984224958345294" lon="-9.253877000883222">
        <ele>114</ele>
        <time>2018-05-18T07:03:07Z</time>
      </trkpt>
      <trkpt lat="42.984370971098542" lon="-9.253745991736651">
        <ele>114</ele>
        <time>2018-05-18T07:03:12Z</time>
      </trkpt>
      <trkpt lat="42.984405001625419" lon="-9.25344399176538">
        <ele>115.3</ele>
        <time>2018-05-18T07:03:19Z</time>
      </trkpt>
      <trkpt lat="42.984440959990025" lon="-9.253327986225486">
        <ele>115.7</ele>
        <time>2018-05-18T07:03:22Z</time>
      </trkpt>
      <trkpt lat="42.984668025746942" lon="-9.253241987898946">
        <ele>115.09999999999999</ele>
        <time>2018-05-18T07:03:29Z</time>
      </trkpt>
      <trkpt lat="42.984997015446424" lon="-9.253171999007464">
        <ele>112.59999999999999</ele>
        <time>2018-05-18T07:03:39Z</time>
      </trkpt>
      <trkpt lat="42.985162977129221" lon="-9.253125982359052">
        <ele>111.2</ele>
        <time>2018-05-18T07:03:44Z</time>
      </trkpt>
      <trkpt lat="42.985359029844403" lon="-9.252895982936025">
        <ele>109.5</ele>
        <time>2018-05-18T07:03:51Z</time>
      </trkpt>
      <trkpt lat="42.985605960711837" lon="-9.252505972981453">
        <ele>108.40000000000001</ele>
        <time>2018-05-18T07:04:02Z</time>
      </trkpt>
      <trkpt lat="42.985844006761909" lon="-9.252346968278289">
        <ele>108</ele>
        <time>2018-05-18T07:04:10Z</time>
      </trkpt>
      <trkpt lat="42.986085992306471" lon="-9.252200033515692">
        <ele>107.40000000000001</ele>
        <time>2018-05-18T07:04:18Z</time>
      </trkpt>
      <trkpt lat="42.986131003126502" lon="-9.252160973846912">
        <ele>107.3</ele>
        <time>2018-05-18T07:04:20Z</time>
      </trkpt>
      <trkpt lat="42.986308028921485" lon="-9.252048991620541">
        <ele>107</ele>
        <time>2018-05-18T07:04:25Z</time>
      </trkpt>
      <trkpt lat="42.986352033913136" lon="-9.251985959708691">
        <ele>106.7</ele>
        <time>2018-05-18T07:04:27Z</time>
      </trkpt>
      <trkpt lat="42.986520007252693" lon="-9.251809017732739">
        <ele>105.90000000000001</ele>
        <time>2018-05-18T07:04:34Z</time>
      </trkpt>
      <trkpt lat="42.986527970060706" lon="-9.251794014126062">
        <ele>105.8</ele>
        <time>2018-05-18T07:04:34Z</time>
      </trkpt>
      <trkpt lat="42.986612040549517" lon="-9.25161698833108">
        <ele>104.3</ele>
        <time>2018-05-18T07:04:39Z</time>
      </trkpt>
      <trkpt lat="42.986687980592251" lon="-9.251497965306044">
        <ele>103.5</ele>
        <time>2018-05-18T07:04:42Z</time>
      </trkpt>
      <trkpt lat="42.9868149664253" lon="-9.251325968652964">
        <ele>102.3</ele>
        <time>2018-05-18T07:04:47Z</time>
      </trkpt>
      <trkpt lat="42.986873975023627" lon="-9.25122999586165">
        <ele>101.40000000000001</ele>
        <time>2018-05-18T07:04:50Z</time>
      </trkpt>
      <trkpt lat="42.986994003877044" lon="-9.250942999497056">
        <ele>97.099999999999994</ele>
        <time>2018-05-18T07:04:57Z</time>
      </trkpt>
      <trkpt lat="42.98700699582696" lon="-9.250525999814272">
        <ele>89.799999999999997</ele>
        <time>2018-05-18T07:05:07Z</time>
      </trkpt>
      <trkpt lat="42.98705100081861" lon="-9.250363977625966">
        <ele>86.700000000000003</ele>
        <time>2018-05-18T07:05:10Z</time>
      </trkpt>
      <trkpt lat="42.987153008580208" lon="-9.249923005700111">
        <ele>80.5</ele>
        <time>2018-05-18T07:05:20Z</time>
      </trkpt>
      <trkpt lat="42.987235989421606" lon="-9.249437022954226">
        <ele>74.799999999999997</ele>
        <time>2018-05-18T07:05:31Z</time>
      </trkpt>
      <trkpt lat="42.987268008291721" lon="-9.249253962188959">
        <ele>73.099999999999994</ele>
        <time>2018-05-18T07:05:35Z</time>
      </trkpt>
      <trkpt lat="42.987214028835297" lon="-9.249183973297477">
        <ele>72.400000000000006</ele>
        <time>2018-05-18T07:05:38Z</time>
      </trkpt>
      <trkpt lat="42.98713699914515" lon="-9.249225966632366">
        <ele>72.700000000000003</ele>
        <time>2018-05-18T07:05:40Z</time>
      </trkpt>
      <trkpt lat="42.98689903691411" lon="-9.249373991042376">
        <ele>77</ele>
        <time>2018-05-18T07:05:48Z</time>
      </trkpt>
      <trkpt lat="42.986654033884406" lon="-9.249219009652734">
        <ele>79.5</ele>
        <time>2018-05-18T07:05:56Z</time>
      </trkpt>
      <trkpt lat="42.986649004742503" lon="-9.249200988560915">
        <ele>79.400000000000006</ele>
        <time>2018-05-18T07:05:56Z</time>
      </trkpt>
      <trkpt lat="42.986616985872388" lon="-9.248965959995985">
        <ele>77.5</ele>
        <time>2018-05-18T07:06:02Z</time>
      </trkpt>
      <trkpt lat="42.986597958952188" lon="-9.248880967497826">
        <ele>76.900000000000006</ele>
        <time>2018-05-18T07:06:04Z</time>
      </trkpt>
      <trkpt lat="42.986589996144176" lon="-9.248616015538573">
        <ele>74.099999999999994</ele>
        <time>2018-05-18T07:06:09Z</time>
      </trkpt>
      <trkpt lat="42.986655039712787" lon="-9.248306974768639">
        <ele>69.400000000000006</ele>
        <time>2018-05-18T07:06:16Z</time>
      </trkpt>
      <trkpt lat="42.986807003617287" lon="-9.248068006709218">
        <ele>64.400000000000006</ele>
        <time>2018-05-18T07:06:23Z</time>
      </trkpt>
      <trkpt lat="42.986886966973543" lon="-9.247920988127589">
        <ele>61.600000000000001</ele>
        <time>2018-05-18T07:06:27Z</time>
      </trkpt>
      <trkpt lat="42.986885039135814" lon="-9.24790196120739">
        <ele>61.399999999999999</ele>
        <time>2018-05-18T07:06:28Z</time>
      </trkpt>
      <trkpt lat="42.986832987517118" lon="-9.24768696539104">
        <ele>59.100000000000001</ele>
        <time>2018-05-18T07:06:33Z</time>
      </trkpt>
      <trkpt lat="42.986845979467034" lon="-9.247526032850146">
        <ele>56.600000000000001</ele>
        <time>2018-05-18T07:06:36Z</time>
      </trkpt>
      <trkpt lat="42.986952010542154" lon="-9.247513962909579">
        <ele>55.399999999999999</ele>
        <time>2018-05-18T07:06:39Z</time>
      </trkpt>
      <trkpt lat="42.987153008580208" lon="-9.247399969026446">
        <ele>53</ele>
        <time>2018-05-18T07:06:46Z</time>
      </trkpt>
      <trkpt lat="42.987327016890049" lon="-9.247064022347331">
        <ele>49.299999999999997</ele>
        <time>2018-05-18T07:06:55Z</time>
      </trkpt>
      <trkpt lat="42.987301032990217" lon="-9.246563035994768">
        <ele>43</ele>
        <time>2018-05-18T07:07:06Z</time>
      </trkpt>
      <trkpt lat="42.987347971647978" lon="-9.246121980249882">
        <ele>38.399999999999999</ele>
        <time>2018-05-18T07:07:16Z</time>
      </trkpt>
      <trkpt lat="42.987589035183191" lon="-9.245898015797138">
        <ele>38.399999999999999</ele>
        <time>2018-05-18T07:07:24Z</time>
      </trkpt>
      <trkpt lat="42.987890029326081" lon="-9.245750997215509">
        <ele>39.399999999999999</ele>
        <time>2018-05-18T07:07:34Z</time>
      </trkpt>
      <trkpt lat="42.988218013197184" lon="-9.245714033022523">
        <ele>39.299999999999997</ele>
        <time>2018-05-18T07:07:43Z</time>
      </trkpt>
      <trkpt lat="42.988502997905016" lon="-9.245777986943722">
        <ele>39.600000000000001</ele>
        <time>2018-05-18T07:07:52Z</time>
      </trkpt>
      <trkpt lat="42.988606011494994" lon="-9.245829032734036">
        <ele>40</ele>
        <time>2018-05-18T07:07:55Z</time>
      </trkpt>
      <trkpt lat="42.98887699842453" lon="-9.245899021625519">
        <ele>40.100000000000001</ele>
        <time>2018-05-18T07:08:03Z</time>
      </trkpt>
      <trkpt lat="42.989042960107327" lon="-9.245922993868589">
        <ele>39.799999999999997</ele>
        <time>2018-05-18T07:08:08Z</time>
      </trkpt>
      <trkpt lat="42.989496001973748" lon="-9.245970016345382">
        <ele>39.200000000000003</ele>
        <time>2018-05-18T07:08:22Z</time>
      </trkpt>
      <trkpt lat="42.989801019430161" lon="-9.246031036600471">
        <ele>40.799999999999997</ele>
        <time>2018-05-18T07:08:31Z</time>
      </trkpt>
      <trkpt lat="42.989923981949687" lon="-9.245941014960408">
        <ele>39.899999999999999</ele>
        <time>2018-05-18T07:08:35Z</time>
      </trkpt>
      <trkpt lat="42.989961029961705" lon="-9.245934979990125">
        <ele>39.899999999999999</ele>
        <time>2018-05-18T07:08:36Z</time>
      </trkpt>
      <trkpt lat="42.990197986364365" lon="-9.24581503495574">
        <ele>38.899999999999999</ele>
        <time>2018-05-18T07:08:44Z</time>
      </trkpt>
      <trkpt lat="42.990226987749338" lon="-9.245812017470598">
        <ele>39</ele>
        <time>2018-05-18T07:08:44Z</time>
      </trkpt>
      <trkpt lat="42.990304017439485" lon="-9.245788967236877">
        <ele>38.899999999999999</ele>
        <time>2018-05-18T07:08:47Z</time>
      </trkpt>
      <trkpt lat="42.990613980218768" lon="-9.245744962245226">
        <ele>38.100000000000001</ele>
        <time>2018-05-18T07:08:56Z</time>
      </trkpt>
      <trkpt lat="42.990966020151973" lon="-9.245675979182124">
        <ele>36</ele>
        <time>2018-05-18T07:09:06Z</time>
      </trkpt>
      <trkpt lat="42.991290986537933" lon="-9.245583023875952">
        <ele>33.200000000000003</ele>
        <time>2018-05-18T07:09:16Z</time>
      </trkpt>
      <trkpt lat="42.991570020094514" lon="-9.245548993349075">
        <ele>31</ele>
        <time>2018-05-18T07:09:25Z</time>
      </trkpt>
      <trkpt lat="42.991791972890496" lon="-9.245542958378792">
        <ele>29.699999999999999</ele>
        <time>2018-05-18T07:09:31Z</time>
      </trkpt>
      <trkpt lat="42.992000011727214" lon="-9.245454026386142">
        <ele>26.399999999999999</ele>
        <time>2018-05-18T07:09:38Z</time>
      </trkpt>
      <trkpt lat="42.992176031693816" lon="-9.245227966457605">
        <ele>22.399999999999999</ele>
        <time>2018-05-18T07:09:45Z</time>
      </trkpt>
      <trkpt lat="42.992190029472113" lon="-9.245212040841579">
        <ele>22.199999999999999</ele>
        <time>2018-05-18T07:09:45Z</time>
      </trkpt>
      <trkpt lat="42.992266975343227" lon="-9.245031997561455">
        <ele>19.899999999999999</ele>
        <time>2018-05-18T07:09:50Z</time>
      </trkpt>
      <trkpt lat="42.992450958117843" lon="-9.244537968188524">
        <ele>14.300000000000001</ele>
        <time>2018-05-18T07:10:02Z</time>
      </trkpt>
      <trkpt lat="42.992513990029693" lon="-9.244479965418577">
        <ele>14.300000000000001</ele>
        <time>2018-05-18T07:10:04Z</time>
      </trkpt>
      <trkpt lat="42.99280802719295" lon="-9.244472002610564">
        <ele>14.6</ele>
        <time>2018-05-18T07:10:13Z</time>
      </trkpt>
      <trkpt lat="42.992818001657724" lon="-9.244542997330427">
        <ele>14.800000000000001</ele>
        <time>2018-05-18T07:10:15Z</time>
      </trkpt>
      <trkpt lat="42.992859994992614" lon="-9.244753969833255">
        <ele>16.800000000000001</ele>
        <time>2018-05-18T07:10:19Z</time>
      </trkpt>
      <trkpt lat="42.992934007197618" lon="-9.244905011728406">
        <ele>18.399999999999999</ele>
        <time>2018-05-18T07:10:23Z</time>
      </trkpt>
      <trkpt lat="42.992972983047366" lon="-9.244920015335083">
        <ele>18.300000000000001</ele>
        <time>2018-05-18T07:10:24Z</time>
      </trkpt>
      <trkpt lat="42.992987986654043" lon="-9.244939964264631">
        <ele>18.5</ele>
        <time>2018-05-18T07:10:25Z</time>
      </trkpt>
      <trkpt lat="42.993377996608615" lon="-9.244873998686671">
        <ele>15.699999999999999</ele>
        <time>2018-05-18T07:10:37Z</time>
      </trkpt>
      <trkpt lat="42.993841012939811" lon="-9.244867963716388">
        <ele>13.6</ele>
        <time>2018-05-18T07:10:50Z</time>
      </trkpt>
      <trkpt lat="42.994344010949135" lon="-9.245047001168132">
        <ele>14.4</ele>
        <time>2018-05-18T07:11:06Z</time>
      </trkpt>
      <trkpt lat="42.994660008698702" lon="-9.24551596865058">
        <ele>17.899999999999999</ele>
        <time>2018-05-18T07:11:20Z</time>
      </trkpt>
      <trkpt lat="42.994852038100362" lon="-9.245689976960421">
        <ele>17.5</ele>
        <time>2018-05-18T07:11:26Z</time>
      </trkpt>
      <trkpt lat="42.995212040841579" lon="-9.246148969978094">
        <ele>19.100000000000001</ele>
        <time>2018-05-18T07:11:41Z</time>
      </trkpt>
      <trkpt lat="42.995362998917699" lon="-9.246235974133015">
        <ele>19.199999999999999</ele>
        <time>2018-05-18T07:11:46Z</time>
      </trkpt>
      <trkpt lat="42.995612025260925" lon="-9.245801959186792">
        <ele>11.9</ele>
        <time>2018-05-18T07:11:58Z</time>
      </trkpt>
      <trkpt lat="42.995778992772102" lon="-9.245483027771115">
        <ele>8.199999999999999</ele>
        <time>2018-05-18T07:12:06Z</time>
      </trkpt>
      <trkpt lat="42.995856022462249" lon="-9.245266020298004">
        <ele>7.9</ele>
        <time>2018-05-18T07:12:12Z</time>
      </trkpt>
      <trkpt lat="42.995935985818505" lon="-9.245394011959434">
        <ele>7.2</ele>
        <time>2018-05-18T07:12:15Z</time>
      </trkpt>
      <trkpt lat="42.996305963024497" lon="-9.245842024683952">
        <ele>6.4</ele>
        <time>2018-05-18T07:12:30Z</time>
      </trkpt>
      <trkpt lat="42.996821030974388" lon="-9.246476031839848">
        <ele>5.5</ele>
        <time>2018-05-18T07:12:50Z</time>
      </trkpt>
      <trkpt lat="42.997043989598751" lon="-9.246742995455861">
        <ele>3.8</ele>
        <time>2018-05-18T07:12:59Z</time>
      </trkpt>
      <trkpt lat="42.997096963226795" lon="-9.246866041794419">
        <ele>3.3</ele>
        <time>2018-05-18T07:13:02Z</time>
      </trkpt>
      <trkpt lat="42.997183967381716" lon="-9.246939970180392">
        <ele>3.2</ele>
        <time>2018-05-18T07:13:05Z</time>
      </trkpt>
      <trkpt lat="42.997255967929959" lon="-9.246832011267543">
        <ele>3.4</ele>
        <time>2018-05-18T07:13:08Z</time>
      </trkpt>
      <trkpt lat="42.997473981231451" lon="-9.246357008814812">
        <ele>4.3</ele>
        <time>2018-05-18T07:13:21Z</time>
      </trkpt>
      <trkpt lat="42.997614964842796" lon="-9.245631974190474">
        <ele>7.1</ele>
        <time>2018-05-18T07:13:37Z</time>
      </trkpt>
      <trkpt lat="42.997619993984699" lon="-9.245462995022535">
        <ele>7.7</ele>
        <time>2018-05-18T07:13:41Z</time>
      </trkpt>
      <trkpt lat="42.997587975114584" lon="-9.245261996984482">
        <ele>9.4</ele>
        <time>2018-05-18T07:13:45Z</time>
      </trkpt>
      <trkpt lat="42.997525027021766" lon="-9.24506401643157">
        <ele>11.199999999999999</ele>
        <time>2018-05-18T07:13:50Z</time>
      </trkpt>
      <trkpt lat="42.997548999264836" lon="-9.244899982586503">
        <ele>12.9</ele>
        <time>2018-05-18T07:13:53Z</time>
      </trkpt>
      <trkpt lat="42.997651007026434" lon="-9.244709964841604">
        <ele>15.1</ele>
        <time>2018-05-18T07:13:58Z</time>
      </trkpt>
      <trkpt lat="42.997761983424425" lon="-9.244476025924087">
        <ele>18.100000000000001</ele>
        <time>2018-05-18T07:14:05Z</time>
      </trkpt>
      <trkpt lat="42.997886035591364" lon="-9.244396984577179">
        <ele>19.399999999999999</ele>
        <time>2018-05-18T07:14:09Z</time>
      </trkpt>
      <trkpt lat="42.998003968968987" lon="-9.244381980970502">
        <ele>19.5</ele>
        <time>2018-05-18T07:14:12Z</time>
      </trkpt>
      <trkpt lat="42.998168002814054" lon="-9.244363959878683">
        <ele>19.5</ele>
        <time>2018-05-18T07:14:17Z</time>
      </trkpt>
      <trkpt lat="42.998410994186997" lon="-9.244245020672679">
        <ele>21</ele>
        <time>2018-05-18T07:14:25Z</time>
      </trkpt>
      <trkpt lat="42.99854502081871" lon="-9.244175031781197">
        <ele>22</ele>
        <time>2018-05-18T07:14:29Z</time>
      </trkpt>
      <trkpt lat="42.998649962246418" lon="-9.244101019576192">
        <ele>23.100000000000001</ele>
        <time>2018-05-18T07:14:32Z</time>
      </trkpt>
      <trkpt lat="42.99869698472321" lon="-9.244058020412922">
        <ele>23.800000000000001</ele>
        <time>2018-05-18T07:14:34Z</time>
      </trkpt>
      <trkpt lat="42.998833023011684" lon="-9.243917958810926">
        <ele>26.399999999999999</ele>
        <time>2018-05-18T07:14:39Z</time>
      </trkpt>
      <trkpt lat="42.999195959419012" lon="-9.244104037061334">
        <ele>24.300000000000001</ele>
        <time>2018-05-18T07:14:51Z</time>
      </trkpt>
      <trkpt lat="42.999343983829021" lon="-9.244158016517758">
        <ele>23.899999999999999</ele>
        <time>2018-05-18T07:14:55Z</time>
      </trkpt>
      <trkpt lat="42.999455966055393" lon="-9.244200009852648">
        <ele>23.600000000000001</ele>
        <time>2018-05-18T07:14:59Z</time>
      </trkpt>
      <trkpt lat="42.999560991302133" lon="-9.244162039831281">
        <ele>24.5</ele>
        <time>2018-05-18T07:15:02Z</time>
      </trkpt>
      <trkpt lat="42.999796019867063" lon="-9.244047040119767">
        <ele>27.800000000000001</ele>
        <time>2018-05-18T07:15:09Z</time>
      </trkpt>
      <trkpt lat="42.999909007921815" lon="-9.243640014901757">
        <ele>33.200000000000003</ele>
        <time>2018-05-18T07:15:19Z</time>
      </trkpt>
      <trkpt lat="43.000197010114789" lon="-9.243317982181907">
        <ele>35.700000000000003</ele>
        <time>2018-05-18T07:15:30Z</time>
      </trkpt>
      <trkpt lat="43.000506972894073" lon="-9.24308798275888">
        <ele>37.299999999999997</ele>
        <time>2018-05-18T07:15:40Z</time>
      </trkpt>
      <trkpt lat="43.000723980367184" lon="-9.242871981114149">
        <ele>38.700000000000003</ele>
        <time>2018-05-18T07:15:48Z</time>
      </trkpt>
      <trkpt lat="43.00086596980691" lon="-9.242655979469419">
        <ele>38.899999999999999</ele>
        <time>2018-05-18T07:15:54Z</time>
      </trkpt>
      <trkpt lat="43.000954985618591" lon="-9.242518013343215">
        <ele>38.700000000000003</ele>
        <time>2018-05-18T07:15:58Z</time>
      </trkpt>
      <trkpt lat="43.000974012538791" lon="-9.242494041100144">
        <ele>38.600000000000001</ele>
        <time>2018-05-18T07:15:59Z</time>
      </trkpt>
      <trkpt lat="43.001069985330105" lon="-9.242465039715171">
        <ele>38.799999999999997</ele>
        <time>2018-05-18T07:16:02Z</time>
      </trkpt>
      <trkpt lat="43.001194959506392" lon="-9.242379041388631">
        <ele>38.700000000000003</ele>
        <time>2018-05-18T07:16:06Z</time>
      </trkpt>
      <trkpt lat="43.001399980857968" lon="-9.242161028087139">
        <ele>36.899999999999999</ele>
        <time>2018-05-18T07:16:14Z</time>
      </trkpt>
      <trkpt lat="43.001609025523067" lon="-9.24216496758163">
        <ele>36.100000000000001</ele>
        <time>2018-05-18T07:16:20Z</time>
      </trkpt>
      <trkpt lat="43.001652024686337" lon="-9.24218500033021">
        <ele>36.100000000000001</ele>
        <time>2018-05-18T07:16:21Z</time>
      </trkpt>
      <trkpt lat="43.001997023820877" lon="-9.241843018680811">
        <ele>30.899999999999999</ele>
        <time>2018-05-18T07:16:34Z</time>
      </trkpt>
      <trkpt lat="43.002040022984147" lon="-9.24166901037097">
        <ele>28.800000000000001</ele>
        <time>2018-05-18T07:16:38Z</time>
      </trkpt>
      <trkpt lat="43.002060977742076" lon="-9.241560967639089">
        <ele>27.5</ele>
        <time>2018-05-18T07:16:41Z</time>
      </trkpt>
      <trkpt lat="43.002065001055598" lon="-9.24124002456665">
        <ele>24.100000000000001</ele>
        <time>2018-05-18T07:16:48Z</time>
      </trkpt>
      <trkpt lat="43.002306986600161" lon="-9.241449991241098">
        <ele>26.100000000000001</ele>
        <time>2018-05-18T07:16:56Z</time>
      </trkpt>
      <trkpt lat="43.002443024888635" lon="-9.241751991212368">
        <ele>28.600000000000001</ele>
        <time>2018-05-18T07:17:04Z</time>
      </trkpt>
      <trkpt lat="43.002552995458245" lon="-9.241912001743913">
        <ele>29.5</ele>
        <time>2018-05-18T07:17:08Z</time>
      </trkpt>
      <trkpt lat="43.002701019868255" lon="-9.242140995338559">
        <ele>30.899999999999999</ele>
        <time>2018-05-18T07:17:15Z</time>
      </trkpt>
      <trkpt lat="43.002920961007476" lon="-9.242114005610347">
        <ele>29.5</ele>
        <time>2018-05-18T07:17:22Z</time>
      </trkpt>
      <trkpt lat="43.002917021512985" lon="-9.242108976468444">
        <ele>29.399999999999999</ele>
        <time>2018-05-18T07:17:22Z</time>
      </trkpt>
      <trkpt lat="43.002916015684605" lon="-9.242111993953586">
        <ele>29.5</ele>
        <time>2018-05-18T07:17:22Z</time>
      </trkpt>
      <trkpt lat="43.002922972664237" lon="-9.242118028923869">
        <ele>29.600000000000001</ele>
        <time>2018-05-18T07:17:22Z</time>
      </trkpt>
      <trkpt lat="43.002920961007476" lon="-9.24212004058063">
        <ele>29.600000000000001</ele>
        <time>2018-05-18T07:17:22Z</time>
      </trkpt>
      <trkpt lat="43.002908974885941" lon="-9.242138983681798">
        <ele>29.899999999999999</ele>
        <time>2018-05-18T07:17:23Z</time>
      </trkpt>
      <trkpt lat="43.002911992371082" lon="-9.242138983681798">
        <ele>29.899999999999999</ele>
        <time>2018-05-18T07:17:23Z</time>
      </trkpt>
      <trkpt lat="43.002916015684605" lon="-9.242146024480462">
        <ele>30</ele>
        <time>2018-05-18T07:17:23Z</time>
      </trkpt>
      <trkpt lat="43.002934958785772" lon="-9.24214200116694">
        <ele>30</ele>
        <time>2018-05-18T07:17:24Z</time>
      </trkpt>
      <trkpt lat="43.003051970154047" lon="-9.241935973986983">
        <ele>28.899999999999999</ele>
        <time>2018-05-18T07:17:29Z</time>
      </trkpt>
      <trkpt lat="43.003328992053866" lon="-9.241617964580655">
        <ele>29.600000000000001</ele>
        <time>2018-05-18T07:17:40Z</time>
      </trkpt>
      <trkpt lat="43.003419013693929" lon="-9.241441022604704">
        <ele>30</ele>
        <time>2018-05-18T07:17:45Z</time>
      </trkpt>
      <trkpt lat="43.003528984263539" lon="-9.241300038993359">
        <ele>30.899999999999999</ele>
        <time>2018-05-18T07:17:49Z</time>
      </trkpt>
      <trkpt lat="43.003824027255177" lon="-9.241284029558301">
        <ele>33.399999999999999</ele>
        <time>2018-05-18T07:17:58Z</time>
      </trkpt>
      <trkpt lat="43.004058972001076" lon="-9.241373967379332">
        <ele>34.600000000000001</ele>
        <time>2018-05-18T07:18:05Z</time>
      </trkpt>
      <trkpt lat="43.004442024976015" lon="-9.241418978199363">
        <ele>36.600000000000001</ele>
        <time>2018-05-18T07:18:16Z</time>
      </trkpt>
      <trkpt lat="43.004790963605046" lon="-9.241309007629752">
        <ele>40.399999999999999</ele>
        <time>2018-05-18T07:18:27Z</time>
      </trkpt>
      <trkpt lat="43.005109978839755" lon="-9.241150002926588">
        <ele>44.799999999999997</ele>
        <time>2018-05-18T07:18:37Z</time>
      </trkpt>
      <trkpt lat="43.005357999354601" lon="-9.241008013486862">
        <ele>47.700000000000003</ele>
        <time>2018-05-18T07:18:45Z</time>
      </trkpt>
      <trkpt lat="43.005699981004" lon="-9.240794023498893">
        <ele>52.200000000000003</ele>
        <time>2018-05-18T07:18:56Z</time>
      </trkpt>
      <trkpt lat="43.005974991247058" lon="-9.240562012419105">
        <ele>56.799999999999997</ele>
        <time>2018-05-18T07:19:06Z</time>
      </trkpt>
      <trkpt lat="43.006413029506803" lon="-9.240177031606436">
        <ele>63.600000000000001</ele>
        <time>2018-05-18T07:19:21Z</time>
      </trkpt>
      <trkpt lat="43.006763979792595" lon="-9.239885006099939">
        <ele>66.900000000000006</ele>
        <time>2018-05-18T07:19:34Z</time>
      </trkpt>
      <trkpt lat="43.006982998922467" lon="-9.23971401527524">
        <ele>68.599999999999994</ele>
        <time>2018-05-18T07:19:41Z</time>
      </trkpt>
      <trkpt lat="43.007318023592234" lon="-9.239415032789111">
        <ele>73.099999999999994</ele>
        <time>2018-05-18T07:19:53Z</time>
      </trkpt>
      <trkpt lat="43.007806017994881" lon="-9.238981017842889">
        <ele>79.799999999999997</ele>
        <time>2018-05-18T07:20:10Z</time>
      </trkpt>
      <trkpt lat="43.008230980485678" lon="-9.238672982901335">
        <ele>84</ele>
        <time>2018-05-18T07:20:25Z</time>
      </trkpt>
      <trkpt lat="43.008610010147095" lon="-9.238493023440242">
        <ele>87.299999999999997</ele>
        <time>2018-05-18T07:20:36Z</time>
      </trkpt>
      <trkpt lat="43.008972024545074" lon="-9.23842697404325">
        <ele>89.400000000000006</ele>
        <time>2018-05-18T07:20:47Z</time>
      </trkpt>
      <trkpt lat="43.009372008964419" lon="-9.238357990980148">
        <ele>90.299999999999997</ele>
        <time>2018-05-18T07:20:59Z</time>
      </trkpt>
      <trkpt lat="43.01003803499043" lon="-9.238092033192515">
        <ele>90.599999999999994</ele>
        <time>2018-05-18T07:21:20Z</time>
      </trkpt>
      <trkpt lat="43.010187987238169" lon="-9.237797996029258">
        <ele>87.700000000000003</ele>
        <time>2018-05-18T07:21:27Z</time>
      </trkpt>
      <trkpt lat="43.010177006945014" lon="-9.237546036019921">
        <ele>85.5</ele>
        <time>2018-05-18T07:21:33Z</time>
      </trkpt>
      <trkpt lat="43.010221011936665" lon="-9.237018981948495">
        <ele>81.5</ele>
        <time>2018-05-18T07:21:44Z</time>
      </trkpt>
      <trkpt lat="43.010227968916297" lon="-9.236989980563521">
        <ele>81.299999999999997</ele>
        <time>2018-05-18T07:21:45Z</time>
      </trkpt>
      <trkpt lat="43.010304998606443" lon="-9.236667025834322">
        <ele>79.099999999999994</ele>
        <time>2018-05-18T07:21:52Z</time>
      </trkpt>
      <trkpt lat="43.010586965829134" lon="-9.236069982871413">
        <ele>75.099999999999994</ele>
        <time>2018-05-18T07:22:08Z</time>
      </trkpt>
      <trkpt lat="43.010888965800405" lon="-9.235518034547567">
        <ele>71.099999999999994</ele>
        <time>2018-05-18T07:22:23Z</time>
      </trkpt>
      <trkpt lat="43.011094992980361" lon="-9.235167000442743">
        <ele>69.900000000000006</ele>
        <time>2018-05-18T07:22:33Z</time>
      </trkpt>
      <trkpt lat="43.011382995173335" lon="-9.234621003270149">
        <ele>67.5</ele>
        <time>2018-05-18T07:22:47Z</time>
      </trkpt>
      <trkpt lat="43.011768981814384" lon="-9.233914995566011">
        <ele>62.200000000000003</ele>
        <time>2018-05-18T07:23:06Z</time>
      </trkpt>
      <trkpt lat="43.012064024806023" lon="-9.2333750333637">
        <ele>61</ele>
        <time>2018-05-18T07:23:21Z</time>
      </trkpt>
      <trkpt lat="43.01216603256762" lon="-9.233299009501934">
        <ele>62</ele>
        <time>2018-05-18T07:23:24Z</time>
      </trkpt>
      <trkpt lat="43.012373987585306" lon="-9.233649037778378">
        <ele>64.5</ele>
        <time>2018-05-18T07:23:34Z</time>
      </trkpt>
      <trkpt lat="43.012493010610342" lon="-9.233740987256169">
        <ele>65.900000000000006</ele>
        <time>2018-05-18T07:23:38Z</time>
      </trkpt>
      <trkpt lat="43.012625025585294" lon="-9.233854981139302">
        <ele>67.400000000000006</ele>
        <time>2018-05-18T07:23:43Z</time>
      </trkpt>
      <trkpt lat="43.012799033895135" lon="-9.233967969194055">
        <ele>69</ele>
        <time>2018-05-18T07:23:48Z</time>
      </trkpt>
      <trkpt lat="43.012911016121507" lon="-9.234146000817418">
        <ele>69.5</ele>
        <time>2018-05-18T07:23:54Z</time>
      </trkpt>
      <trkpt lat="43.012970024719834" lon="-9.234250020235777">
        <ele>69.799999999999997</ele>
        <time>2018-05-18T07:23:56Z</time>
      </trkpt>
      <trkpt lat="43.013094998896122" lon="-9.23430098220706">
        <ele>71.099999999999994</ele>
        <time>2018-05-18T07:24:00Z</time>
      </trkpt>
      <trkpt lat="43.013381995260715" lon="-9.234329983592033">
        <ele>74.299999999999997</ele>
        <time>2018-05-18T07:24:09Z</time>
      </trkpt>
      <trkpt lat="43.013590034097433" lon="-9.234474990516901">
        <ele>76.400000000000006</ele>
        <time>2018-05-18T07:24:16Z</time>
      </trkpt>
      <trkpt lat="43.013652982190251" lon="-9.234546991065145">
        <ele>76.900000000000006</ele>
        <time>2018-05-18T07:24:18Z</time>
      </trkpt>
      <trkpt lat="43.013715008273721" lon="-9.234627038240433">
        <ele>77.400000000000006</ele>
        <time>2018-05-18T07:24:21Z</time>
      </trkpt>
      <trkpt lat="43.01399496383965" lon="-9.234990980476141">
        <ele>79.900000000000006</ele>
        <time>2018-05-18T07:24:32Z</time>
      </trkpt>
      <trkpt lat="43.014178024604917" lon="-9.235206982120872">
        <ele>81.799999999999997</ele>
        <time>2018-05-18T07:24:39Z</time>
      </trkpt>
      <trkpt lat="43.014264022931457" lon="-9.235280994325876">
        <ele>82.799999999999997</ele>
        <time>2018-05-18T07:24:42Z</time>
      </trkpt>
      <trkpt lat="43.014737013727427" lon="-9.23563496209681">
        <ele>87.700000000000003</ele>
        <time>2018-05-18T07:24:58Z</time>
      </trkpt>
      <trkpt lat="43.015038007870317" lon="-9.235764965415001">
        <ele>90</ele>
        <time>2018-05-18T07:25:08Z</time>
      </trkpt>
      <trkpt lat="43.015366997569799" lon="-9.235789021477103">
        <ele>92.900000000000006</ele>
        <time>2018-05-18T07:25:17Z</time>
      </trkpt>
      <trkpt lat="43.015614012256265" lon="-9.235809976235032">
        <ele>94.299999999999997</ele>
        <time>2018-05-18T07:25:25Z</time>
      </trkpt>
      <trkpt lat="43.01616202108562" lon="-9.236045004799962">
        <ele>96.900000000000006</ele>
        <time>2018-05-18T07:25:42Z</time>
      </trkpt>
      <trkpt lat="43.016214994713664" lon="-9.236073000356555">
        <ele>97.200000000000003</ele>
        <time>2018-05-18T07:25:43Z</time>
      </trkpt>
      <trkpt lat="43.017014041543007" lon="-9.236507015302777">
        <ele>94.599999999999994</ele>
        <time>2018-05-18T07:26:09Z</time>
      </trkpt>
      <trkpt lat="43.017358034849167" lon="-9.236603993922472">
        <ele>95.099999999999994</ele>
        <time>2018-05-18T07:26:19Z</time>
      </trkpt>
      <trkpt lat="43.017621980980039" lon="-9.23659997060895">
        <ele>95.400000000000006</ele>
        <time>2018-05-18T07:26:27Z</time>
      </trkpt>
      <trkpt lat="43.01781702786684" lon="-9.236522018909454">
        <ele>95.200000000000003</ele>
        <time>2018-05-18T07:26:33Z</time>
      </trkpt>
      <trkpt lat="43.018133025616407" lon="-9.23640500754118">
        <ele>96.299999999999997</ele>
        <time>2018-05-18T07:26:43Z</time>
      </trkpt>
      <trkpt lat="43.018325977027416" lon="-9.236444989219308">
        <ele>97.700000000000003</ele>
        <time>2018-05-18T07:26:48Z</time>
      </trkpt>
      <trkpt lat="43.018479030579329" lon="-9.236512966454029">
        <ele>98.700000000000003</ele>
        <time>2018-05-18T07:26:53Z</time>
      </trkpt>
      <trkpt lat="43.018710035830736" lon="-9.236657973378897">
        <ele>99.799999999999997</ele>
        <time>2018-05-18T07:27:01Z</time>
      </trkpt>
      <trkpt lat="43.018751023337245" lon="-9.236688986420631">
        <ele>99.900000000000006</ele>
        <time>2018-05-18T07:27:02Z</time>
      </trkpt>
      <trkpt lat="43.019145978614688" lon="-9.23670700751245">
        <ele>99.099999999999994</ele>
        <time>2018-05-18T07:27:14Z</time>
      </trkpt>
      <trkpt lat="43.019214039668441" lon="-9.236591001972556">
        <ele>99.5</ele>
        <time>2018-05-18T07:27:17Z</time>
      </trkpt>
      <trkpt lat="43.019432974979281" lon="-9.236467033624649">
        <ele>99.799999999999997</ele>
        <time>2018-05-18T07:27:24Z</time>
      </trkpt>
      <trkpt lat="43.019526014104486" lon="-9.236522018909454">
        <ele>99.400000000000006</ele>
        <time>2018-05-18T07:27:27Z</time>
      </trkpt>
      <trkpt lat="43.01981401629746" lon="-9.236540962010622">
        <ele>99.299999999999997</ele>
        <time>2018-05-18T07:27:36Z</time>
      </trkpt>
      <trkpt lat="43.020200002938509" lon="-9.236376006156206">
        <ele>100.8</ele>
        <time>2018-05-18T07:27:48Z</time>
      </trkpt>
      <trkpt lat="43.020462021231651" lon="-9.236330995336175">
        <ele>101.3</ele>
        <time>2018-05-18T07:27:55Z</time>
      </trkpt>
      <trkpt lat="43.02078296430409" lon="-9.23625597730279">
        <ele>102</ele>
        <time>2018-05-18T07:28:05Z</time>
      </trkpt>
      <trkpt lat="43.020836021751165" lon="-9.236226975917816">
        <ele>102.09999999999999</ele>
        <time>2018-05-18T07:28:07Z</time>
      </trkpt>
      <trkpt lat="43.021625010296702" lon="-9.23582699149847">
        <ele>103.40000000000001</ele>
        <time>2018-05-18T07:28:32Z</time>
      </trkpt>
      <trkpt lat="43.022055001929402" lon="-9.235716015100479">
        <ele>104.3</ele>
        <time>2018-05-18T07:28:44Z</time>
      </trkpt>
      <trkpt lat="43.022301010787487" lon="-9.235700005665422">
        <ele>105.8</ele>
        <time>2018-05-18T07:28:52Z</time>
      </trkpt>
      <trkpt lat="43.022683979943395" lon="-9.235862027853727">
        <ele>108.5</ele>
        <time>2018-05-18T07:29:04Z</time>
      </trkpt>
      <trkpt lat="43.022861005738378" lon="-9.236064031720161">
        <ele>109.7</ele>
        <time>2018-05-18T07:29:10Z</time>
      </trkpt>
      <trkpt lat="43.022993020713329" lon="-9.236137960106134">
        <ele>110.40000000000001</ele>
        <time>2018-05-18T07:29:15Z</time>
      </trkpt>
      <trkpt lat="43.023326033726335" lon="-9.23623401671648">
        <ele>112.40000000000001</ele>
        <time>2018-05-18T07:29:25Z</time>
      </trkpt>
      <trkpt lat="43.023479003459215" lon="-9.23627601005137">
        <ele>113.3</ele>
        <time>2018-05-18T07:29:29Z</time>
      </trkpt>
      <trkpt lat="43.023653011769056" lon="-9.236295036971569">
        <ele>114.3</ele>
        <time>2018-05-18T07:29:35Z</time>
      </trkpt>
      <trkpt lat="43.023878987878561" lon="-9.236324960365892">
        <ele>114.90000000000001</ele>
        <time>2018-05-18T07:29:41Z</time>
      </trkpt>
      <trkpt lat="43.024200014770031" lon="-9.236379023641348">
        <ele>115.3</ele>
        <time>2018-05-18T07:29:51Z</time>
      </trkpt>
      <trkpt lat="43.024578960612416" lon="-9.236424034461379">
        <ele>116</ele>
        <time>2018-05-18T07:30:02Z</time>
      </trkpt>
      <trkpt lat="43.025139039382339" lon="-9.236460998654366">
        <ele>122</ele>
        <time>2018-05-18T07:30:19Z</time>
      </trkpt>
      <trkpt lat="43.025221014395356" lon="-9.236464016139507">
        <ele>122.90000000000001</ele>
        <time>2018-05-18T07:30:21Z</time>
      </trkpt>
      <trkpt lat="43.026112010702491" lon="-9.236474996432662">
        <ele>129</ele>
        <time>2018-05-18T07:30:48Z</time>
      </trkpt>
      <trkpt lat="43.026376962661743" lon="-9.236483965069056">
        <ele>130.30000000000001</ele>
        <time>2018-05-18T07:30:55Z</time>
      </trkpt>
      <trkpt lat="43.026545019820333" lon="-9.2364920116961">
        <ele>130.90000000000001</ele>
        <time>2018-05-18T07:31:00Z</time>
      </trkpt>
      <trkpt lat="43.027190007269382" lon="-9.2365110386163">
        <ele>133</ele>
        <time>2018-05-18T07:31:19Z</time>
      </trkpt>
      <trkpt lat="43.027721000835299" lon="-9.236525036394596">
        <ele>133.5</ele>
        <time>2018-05-18T07:31:35Z</time>
      </trkpt>
      <trkpt lat="43.028184017166495" lon="-9.236593013629317">
        <ele>133.19999999999999</ele>
        <time>2018-05-18T07:31:49Z</time>
      </trkpt>
      <trkpt lat="43.028572015464306" lon="-9.236546996980906">
        <ele>132.09999999999999</ele>
        <time>2018-05-18T07:32:00Z</time>
      </trkpt>
      <trkpt lat="43.028980968520045" lon="-9.236400984227657">
        <ele>129.40000000000001</ele>
        <time>2018-05-18T07:32:13Z</time>
      </trkpt>
      <trkpt lat="43.029330996796489" lon="-9.236165033653379">
        <ele>127.40000000000001</ele>
        <time>2018-05-18T07:32:25Z</time>
      </trkpt>
      <trkpt lat="43.029496958479285" lon="-9.235996976494789">
        <ele>127.40000000000001</ele>
        <time>2018-05-18T07:32:31Z</time>
      </trkpt>
      <trkpt lat="43.029840029776096" lon="-9.235448967665434">
        <ele>127.40000000000001</ele>
        <time>2018-05-18T07:32:46Z</time>
      </trkpt>
      <trkpt lat="43.030046978965402" lon="-9.235150991007686">
        <ele>127.8</ele>
        <time>2018-05-18T07:32:55Z</time>
      </trkpt>
      <trkpt lat="43.030313020572066" lon="-9.234826024621725">
        <ele>128.80000000000001</ele>
        <time>2018-05-18T07:33:06Z</time>
      </trkpt>
      <trkpt lat="43.030402958393097" lon="-9.234716976061463">
        <ele>129.40000000000001</ele>
        <time>2018-05-18T07:33:09Z</time>
      </trkpt>
      <trkpt lat="43.030445035547018" lon="-9.234654027968645">
        <ele>129.69999999999999</ele>
        <time>2018-05-18T07:33:11Z</time>
      </trkpt>
      <trkpt lat="43.030459033325315" lon="-9.234637012705207">
        <ele>129.69999999999999</ele>
        <time>2018-05-18T07:33:12Z</time>
      </trkpt>
      <trkpt lat="43.030533967539668" lon="-9.234728962182999">
        <ele>127.59999999999999</ele>
        <time>2018-05-18T07:33:15Z</time>
      </trkpt>
      <trkpt lat="43.030555006116629" lon="-9.234841028228402">
        <ele>125.90000000000001</ele>
        <time>2018-05-18T07:33:17Z</time>
      </trkpt>
      <trkpt lat="43.030552994459867" lon="-9.234847985208035">
        <ele>125.8</ele>
        <time>2018-05-18T07:33:17Z</time>
      </trkpt>
      <trkpt lat="43.03055802360177" lon="-9.234913028776646">
        <ele>124.90000000000001</ele>
        <time>2018-05-18T07:33:19Z</time>
      </trkpt>
      <trkpt lat="43.03055802360177" lon="-9.234958039596677">
        <ele>124.3</ele>
        <time>2018-05-18T07:33:20Z</time>
      </trkpt>
      <trkpt lat="43.030717028304935" lon="-9.234981006011367">
        <ele>122.09999999999999</ele>
        <time>2018-05-18T07:33:25Z</time>
      </trkpt>
      <trkpt lat="43.030877960845828" lon="-9.234950998798013">
        <ele>120.5</ele>
        <time>2018-05-18T07:33:29Z</time>
      </trkpt>
      <trkpt lat="43.030968988314271" lon="-9.235125007107854">
        <ele>117.40000000000001</ele>
        <time>2018-05-18T07:33:34Z</time>
      </trkpt>
      <trkpt lat="43.031119024381042" lon="-9.23522500321269">
        <ele>114.59999999999999</ele>
        <time>2018-05-18T07:33:39Z</time>
      </trkpt>
      <trkpt lat="43.031305018812418" lon="-9.235098017379642">
        <ele>114.09999999999999</ele>
        <time>2018-05-18T07:33:45Z</time>
      </trkpt>
      <trkpt lat="43.031524959951639" lon="-9.235014030709863">
        <ele>113.7</ele>
        <time>2018-05-18T07:33:52Z</time>
      </trkpt>
      <trkpt lat="43.031524959951639" lon="-9.235013024881482">
        <ele>113.7</ele>
        <time>2018-05-18T07:33:52Z</time>
      </trkpt>
      <trkpt lat="43.031753031536937" lon="-9.23505200073123">
        <ele>112</ele>
        <time>2018-05-18T07:33:59Z</time>
      </trkpt>
      <trkpt lat="43.032016977667809" lon="-9.234985029324889">
        <ele>111</ele>
        <time>2018-05-18T07:34:07Z</time>
      </trkpt>
      <trkpt lat="43.032057965174317" lon="-9.234969019889832">
        <ele>110.90000000000001</ele>
        <time>2018-05-18T07:34:08Z</time>
      </trkpt>
      <trkpt lat="43.032808983698487" lon="-9.234581021592021">
        <ele>111.40000000000001</ele>
        <time>2018-05-18T07:34:32Z</time>
      </trkpt>
      <trkpt lat="43.033122969791293" lon="-9.234379017725587">
        <ele>111.2</ele>
        <time>2018-05-18T07:34:42Z</time>
      </trkpt>
      <trkpt lat="43.033335031941533" lon="-9.23430098220706">
        <ele>111.2</ele>
        <time>2018-05-18T07:34:48Z</time>
      </trkpt>
      <trkpt lat="43.033695034682751" lon="-9.234104007482529">
        <ele>111.90000000000001</ele>
        <time>2018-05-18T07:35:00Z</time>
      </trkpt>
      <trkpt lat="43.034357959404588" lon="-9.233779963105917">
        <ele>114.59999999999999</ele>
        <time>2018-05-18T07:35:21Z</time>
      </trkpt>
      <trkpt lat="43.034567004069686" lon="-9.233475029468536">
        <ele>116.3</ele>
        <time>2018-05-18T07:35:30Z</time>
      </trkpt>
      <trkpt lat="43.034621989354491" lon="-9.233390036970377">
        <ele>117.3</ele>
        <time>2018-05-18T07:35:32Z</time>
      </trkpt>
      <trkpt lat="43.034922983497381" lon="-9.233255004510284">
        <ele>122.5</ele>
        <time>2018-05-18T07:35:42Z</time>
      </trkpt>
      <trkpt lat="43.035265970975161" lon="-9.233290040865541">
        <ele>127.7</ele>
        <time>2018-05-18T07:35:52Z</time>
      </trkpt>
      <trkpt lat="43.035516003146768" lon="-9.233413003385067">
        <ele>131.40000000000001</ele>
        <time>2018-05-18T07:36:00Z</time>
      </trkpt>
      <trkpt lat="43.035925040021539" lon="-9.233577037230134">
        <ele>136.59999999999999</ele>
        <time>2018-05-18T07:36:13Z</time>
      </trkpt>
      <trkpt lat="43.036159984767437" lon="-9.233644008636475">
        <ele>139.40000000000001</ele>
        <time>2018-05-18T07:36:20Z</time>
      </trkpt>
      <trkpt lat="43.036440024152398" lon="-9.23376202583313">
        <ele>141.30000000000001</ele>
        <time>2018-05-18T07:36:28Z</time>
      </trkpt>
      <trkpt lat="43.03663800470531" lon="-9.233836038038135">
        <ele>142.19999999999999</ele>
        <time>2018-05-18T07:36:34Z</time>
      </trkpt>
      <trkpt lat="43.03676700219512" lon="-9.233853975310922">
        <ele>143</ele>
        <time>2018-05-18T07:36:38Z</time>
      </trkpt>
      <trkpt lat="43.03683003410697" lon="-9.233854981139302">
        <ele>143.40000000000001</ele>
        <time>2018-05-18T07:36:40Z</time>
      </trkpt>
      <trkpt lat="43.037623967975378" lon="-9.233783986419439">
        <ele>145.09999999999999</ele>
        <time>2018-05-18T07:37:04Z</time>
      </trkpt>
      <trkpt lat="43.037708960473537" lon="-9.233744004741311">
        <ele>145.30000000000001</ele>
        <time>2018-05-18T07:37:06Z</time>
      </trkpt>
      <trkpt lat="43.038018001243472" lon="-9.233589023351669">
        <ele>146.59999999999999</ele>
        <time>2018-05-18T07:37:16Z</time>
      </trkpt>
      <trkpt lat="43.038424020633101" lon="-9.233567984774709">
        <ele>145.59999999999999</ele>
        <time>2018-05-18T07:37:28Z</time>
      </trkpt>
      <trkpt lat="43.038768013939261" lon="-9.233677033334971">
        <ele>143.59999999999999</ele>
        <time>2018-05-18T07:37:39Z</time>
      </trkpt>
      <trkpt lat="43.039545016363263" lon="-9.234177013859153">
        <ele>135</ele>
        <time>2018-05-18T07:38:04Z</time>
      </trkpt>
      <trkpt lat="43.039814997464418" lon="-9.234293019399047">
        <ele>134</ele>
        <time>2018-05-18T07:38:12Z</time>
      </trkpt>
      <trkpt lat="43.040429977700114" lon="-9.234478008002043">
        <ele>133.59999999999999</ele>
        <time>2018-05-18T07:38:31Z</time>
      </trkpt>
      <trkpt lat="43.040630975738168" lon="-9.234596025198698">
        <ele>133.40000000000001</ele>
        <time>2018-05-18T07:38:37Z</time>
      </trkpt>
      <trkpt lat="43.041215026751161" lon="-9.234848991036415">
        <ele>135.5</ele>
        <time>2018-05-18T07:38:56Z</time>
      </trkpt>
      <trkpt lat="43.04170997813344" lon="-9.23486097715795">
        <ele>141.19999999999999</ele>
        <time>2018-05-18T07:39:10Z</time>
      </trkpt>
      <trkpt lat="43.042037039995193" lon="-9.234792999923229">
        <ele>145.90000000000001</ele>
        <time>2018-05-18T07:39:20Z</time>
      </trkpt>
      <trkpt lat="43.042296962812543" lon="-9.234694009646773">
        <ele>147.30000000000001</ele>
        <time>2018-05-18T07:39:28Z</time>
      </trkpt>
      <trkpt lat="43.043072959408164" lon="-9.234381029382348">
        <ele>149</ele>
        <time>2018-05-18T07:39:52Z</time>
      </trkpt>
      <trkpt lat="43.043881980702281" lon="-9.233966963365674">
        <ele>152.59999999999999</ele>
        <time>2018-05-18T07:40:18Z</time>
      </trkpt>
      <trkpt lat="43.044430995360017" lon="-9.233577959239483">
        <ele>153.59999999999999</ele>
        <time>2018-05-18T07:40:36Z</time>
      </trkpt>
      <trkpt lat="43.044505007565022" lon="-9.233534038066864">
        <ele>153.80000000000001</ele>
        <time>2018-05-18T07:40:38Z</time>
      </trkpt>
      <trkpt lat="43.044578013941646" lon="-9.233493972569704">
        <ele>154</ele>
        <time>2018-05-18T07:40:41Z</time>
      </trkpt>
      <trkpt lat="43.044612966477871" lon="-9.233470000326634">
        <ele>154</ele>
        <time>2018-05-18T07:40:42Z</time>
      </trkpt>
      <trkpt lat="43.044683961197734" lon="-9.233405962586403">
        <ele>154.40000000000001</ele>
        <time>2018-05-18T07:40:44Z</time>
      </trkpt>
      <trkpt lat="43.04471799172461" lon="-9.233371010050178">
        <ele>154.59999999999999</ele>
        <time>2018-05-18T07:40:46Z</time>
      </trkpt>
      <trkpt lat="43.044751016423106" lon="-9.233331028372049">
        <ele>154.80000000000001</ele>
        <time>2018-05-18T07:40:47Z</time>
      </trkpt>
      <trkpt lat="43.044813964515924" lon="-9.233251987025142">
        <ele>155.30000000000001</ele>
        <time>2018-05-18T07:40:49Z</time>
      </trkpt>
      <trkpt lat="43.044876996427774" lon="-9.233171017840505">
        <ele>155.69999999999999</ele>
        <time>2018-05-18T07:40:52Z</time>
      </trkpt>
      <trkpt lat="43.04491002112627" lon="-9.233129024505615">
        <ele>155.80000000000001</ele>
        <time>2018-05-18T07:40:53Z</time>
      </trkpt>
      <trkpt lat="43.044942962005734" lon="-9.233086025342345">
        <ele>156</ele>
        <time>2018-05-18T07:40:55Z</time>
      </trkpt>
      <trkpt lat="43.045155024155974" lon="-9.232827024534345">
        <ele>156.5</ele>
        <time>2018-05-18T07:41:03Z</time>
      </trkpt>
      <trkpt lat="43.045344036072493" lon="-9.232715964317322">
        <ele>155.69999999999999</ele>
        <time>2018-05-18T07:41:09Z</time>
      </trkpt>
      <trkpt lat="43.045471021905541" lon="-9.232456963509321">
        <ele>159.69999999999999</ele>
        <time>2018-05-18T07:41:16Z</time>
      </trkpt>
      <trkpt lat="43.045602031052113" lon="-9.232357973232865">
        <ele>160</ele>
        <time>2018-05-18T07:41:20Z</time>
      </trkpt>
      <trkpt lat="43.046012995764613" lon="-9.232179019600153">
        <ele>156.69999999999999</ele>
        <time>2018-05-18T07:41:33Z</time>
      </trkpt>
      <trkpt lat="43.046490009874105" lon="-9.232018003240228">
        <ele>155.09999999999999</ele>
        <time>2018-05-18T07:41:48Z</time>
      </trkpt>
      <trkpt lat="43.04673601873219" lon="-9.23184902407229">
        <ele>158.69999999999999</ele>
        <time>2018-05-18T07:41:56Z</time>
      </trkpt>
      <trkpt lat="43.046797038987279" lon="-9.231819016858935">
        <ele>159.09999999999999</ele>
        <time>2018-05-18T07:41:58Z</time>
      </trkpt>
      <trkpt lat="43.046868033707142" lon="-9.231762019917369">
        <ele>160.19999999999999</ele>
        <time>2018-05-18T07:42:00Z</time>
      </trkpt>
      <trkpt lat="43.046875996515155" lon="-9.231767971068621">
        <ele>160</ele>
        <time>2018-05-18T07:42:01Z</time>
      </trkpt>
      <trkpt lat="43.046854035928845" lon="-9.231688007712364">
        <ele>162.19999999999999</ele>
        <time>2018-05-18T07:42:02Z</time>
      </trkpt>
      <trkpt lat="43.04667198099196" lon="-9.231732012704015">
        <ele>162.40000000000001</ele>
        <time>2018-05-18T07:42:08Z</time>
      </trkpt>
      <trkpt lat="43.046552035957575" lon="-9.23174299299717">
        <ele>162.90000000000001</ele>
        <time>2018-05-18T07:42:11Z</time>
      </trkpt>
      <trkpt lat="43.046181974932551" lon="-9.23172002658248">
        <ele>166.80000000000001</ele>
        <time>2018-05-18T07:42:22Z</time>
      </trkpt>
      <trkpt lat="43.046210976317525" lon="-9.231756990775466">
        <ele>165.19999999999999</ele>
        <time>2018-05-18T07:42:24Z</time>
      </trkpt>
      <trkpt lat="43.046296974644065" lon="-9.231734024360776">
        <ele>165</ele>
        <time>2018-05-18T07:42:26Z</time>
      </trkpt>
      <trkpt lat="43.046580031514168" lon="-9.231719020754099">
        <ele>163.40000000000001</ele>
        <time>2018-05-18T07:42:35Z</time>
      </trkpt>
      <trkpt lat="43.047198029235005" lon="-9.231513999402523">
        <ele>163.80000000000001</ele>
        <time>2018-05-18T07:42:54Z</time>
      </trkpt>
      <trkpt lat="43.047789959236979" lon="-9.231223985552788">
        <ele>164.80000000000001</ele>
        <time>2018-05-18T07:43:12Z</time>
      </trkpt>
      <trkpt lat="43.048377027735114" lon="-9.230942018330097">
        <ele>166.5</ele>
        <time>2018-05-18T07:43:30Z</time>
      </trkpt>
      <trkpt lat="43.049003994092345" lon="-9.230569023638964">
        <ele>171.09999999999999</ele>
        <time>2018-05-18T07:43:51Z</time>
      </trkpt>
      <trkpt lat="43.049521995708346" lon="-9.230275992304087">
        <ele>175.09999999999999</ele>
        <time>2018-05-18T07:44:07Z</time>
      </trkpt>
      <trkpt lat="43.049624003469944" lon="-9.230243973433971">
        <ele>175.59999999999999</ele>
        <time>2018-05-18T07:44:10Z</time>
      </trkpt>
      <trkpt lat="43.050028011202812" lon="-9.230163004249334">
        <ele>178.09999999999999</ele>
        <time>2018-05-18T07:44:23Z</time>
      </trkpt>
      <trkpt lat="43.050123983994126" lon="-9.230151018127799">
        <ele>178.5</ele>
        <time>2018-05-18T07:44:25Z</time>
      </trkpt>
      <trkpt lat="43.050744999200106" lon="-9.230041969567537">
        <ele>182.69999999999999</ele>
        <time>2018-05-18T07:44:44Z</time>
      </trkpt>
      <trkpt lat="43.051144983619452" lon="-9.22998296096921">
        <ele>185.80000000000001</ele>
        <time>2018-05-18T07:44:56Z</time>
      </trkpt>
      <trkpt lat="43.051781002432108" lon="-9.229939039796591">
        <ele>188.19999999999999</ele>
        <time>2018-05-18T07:45:15Z</time>
      </trkpt>
      <trkpt lat="43.052089959383011" lon="-9.229729995131493">
        <ele>191.90000000000001</ele>
        <time>2018-05-18T07:45:25Z</time>
      </trkpt>
      <trkpt lat="43.052149973809719" lon="-9.229643996804953">
        <ele>192.80000000000001</ele>
        <time>2018-05-18T07:45:28Z</time>
      </trkpt>
      <trkpt lat="43.052272014319897" lon="-9.229425983503461">
        <ele>195.59999999999999</ele>
        <time>2018-05-18T07:45:33Z</time>
      </trkpt>
      <trkpt lat="43.052417021244764" lon="-9.229196989908814">
        <ele>197.90000000000001</ele>
        <time>2018-05-18T07:45:40Z</time>
      </trkpt>
      <trkpt lat="43.052480975165963" lon="-9.229120966047049">
        <ele>198.30000000000001</ele>
        <time>2018-05-18T07:45:43Z</time>
      </trkpt>
      <trkpt lat="43.052697982639074" lon="-9.22888501547277">
        <ele>198.69999999999999</ele>
        <time>2018-05-18T07:45:51Z</time>
      </trkpt>
      <trkpt lat="43.053001994267106" lon="-9.228573963046074">
        <ele>199</ele>
        <time>2018-05-18T07:46:02Z</time>
      </trkpt>
      <trkpt lat="43.053351016715169" lon="-9.228194011375308">
        <ele>199.09999999999999</ele>
        <time>2018-05-18T07:46:15Z</time>
      </trkpt>
      <trkpt lat="43.053620997816324" lon="-9.227936016395688">
        <ele>197.59999999999999</ele>
        <time>2018-05-18T07:46:25Z</time>
      </trkpt>
      <trkpt lat="43.053839011117816" lon="-9.227839037775993">
        <ele>196.5</ele>
        <time>2018-05-18T07:46:32Z</time>
      </trkpt>
      <trkpt lat="43.054427001625299" lon="-9.227752033621073">
        <ele>195.19999999999999</ele>
        <time>2018-05-18T07:46:49Z</time>
      </trkpt>
      <trkpt lat="43.054781975224614" lon="-9.227975998073816">
        <ele>193.19999999999999</ele>
        <time>2018-05-18T07:47:01Z</time>
      </trkpt>
      <trkpt lat="43.054959001019597" lon="-9.22837296500802">
        <ele>194.90000000000001</ele>
        <time>2018-05-18T07:47:11Z</time>
      </trkpt>
      <trkpt lat="43.055087998509407" lon="-9.228487964719534">
        <ele>196.40000000000001</ele>
        <time>2018-05-18T07:47:15Z</time>
      </trkpt>
      <trkpt lat="43.055139966309071" lon="-9.228381011635065">
        <ele>196.59999999999999</ele>
        <time>2018-05-18T07:47:18Z</time>
      </trkpt>
      <trkpt lat="43.055169973522425" lon="-9.228311022743583">
        <ele>196.69999999999999</ele>
        <time>2018-05-18T07:47:20Z</time>
      </trkpt>
      <trkpt lat="43.055278016254306" lon="-9.228036012500525">
        <ele>196.59999999999999</ele>
        <time>2018-05-18T07:47:27Z</time>
      </trkpt>
      <trkpt lat="43.055514972656965" lon="-9.227481968700886">
        <ele>199.90000000000001</ele>
        <time>2018-05-18T07:47:41Z</time>
      </trkpt>
      <trkpt lat="43.055592002347112" lon="-9.227321958169341">
        <ele>201</ele>
        <time>2018-05-18T07:47:45Z</time>
      </trkpt>
      <trkpt lat="43.056090977042913" lon="-9.226231975480914">
        <ele>210</ele>
        <time>2018-05-18T07:48:13Z</time>
      </trkpt>
      <trkpt lat="43.056293986737728" lon="-9.225648008286953">
        <ele>215.80000000000001</ele>
        <time>2018-05-18T07:48:27Z</time>
      </trkpt>
      <trkpt lat="43.056348972022533" lon="-9.225385989993811">
        <ele>218</ele>
        <time>2018-05-18T07:48:33Z</time>
      </trkpt>
      <trkpt lat="43.056438993662596" lon="-9.224960021674633">
        <ele>219.30000000000001</ele>
        <time>2018-05-18T07:48:42Z</time>
      </trkpt>
      <trkpt lat="43.056527003645897" lon="-9.224808979779482">
        <ele>219.59999999999999</ele>
        <time>2018-05-18T07:48:46Z</time>
      </trkpt>
      <trkpt lat="43.056794973090291" lon="-9.224804034456611">
        <ele>219.09999999999999</ele>
        <time>2018-05-18T07:48:54Z</time>
      </trkpt>
      <trkpt lat="43.057131003588438" lon="-9.224807973951101">
        <ele>218.80000000000001</ele>
        <time>2018-05-18T07:49:04Z</time>
      </trkpt>
      <trkpt lat="43.057225970551372" lon="-9.224808979779482">
        <ele>219.5</ele>
        <time>2018-05-18T07:49:07Z</time>
      </trkpt>
      <trkpt lat="43.057326972484589" lon="-9.224807973951101">
        <ele>220.30000000000001</ele>
        <time>2018-05-18T07:49:10Z</time>
      </trkpt>
      <trkpt lat="43.057724023237824" lon="-9.22480302862823">
        <ele>223.30000000000001</ele>
        <time>2018-05-18T07:49:22Z</time>
      </trkpt>
      <trkpt lat="43.05803800933063" lon="-9.224881986156106">
        <ele>226.09999999999999</ele>
        <time>2018-05-18T07:49:31Z</time>
      </trkpt>
      <trkpt lat="43.058163989335299" lon="-9.224979970604181">
        <ele>227.5</ele>
        <time>2018-05-18T07:49:36Z</time>
      </trkpt>
      <trkpt lat="43.058357024565339" lon="-9.225197983905673">
        <ele>229.30000000000001</ele>
        <time>2018-05-18T07:49:43Z</time>
      </trkpt>
      <trkpt lat="43.058615019544959" lon="-9.225528985261917">
        <ele>230.90000000000001</ele>
        <time>2018-05-18T07:49:53Z</time>
      </trkpt>
      <trkpt lat="43.059356985613704" lon="-9.226425010710955">
        <ele>236.09999999999999</ele>
        <time>2018-05-18T07:50:23Z</time>
      </trkpt>
      <trkpt lat="43.059745989739895" lon="-9.226660039275885">
        <ele>238.90000000000001</ele>
        <time>2018-05-18T07:50:35Z</time>
      </trkpt>
      <trkpt lat="43.060080008581281" lon="-9.226580997928977">
        <ele>242.09999999999999</ele>
        <time>2018-05-18T07:50:45Z</time>
      </trkpt>
      <trkpt lat="43.060595998540521" lon="-9.226458035409451">
        <ele>246.90000000000001</ele>
        <time>2018-05-18T07:51:01Z</time>
      </trkpt>
      <trkpt lat="43.060847958549857" lon="-9.226392991840839">
        <ele>249.40000000000001</ele>
        <time>2018-05-18T07:51:08Z</time>
      </trkpt>
      <trkpt lat="43.061133027076721" lon="-9.226324008777738">
        <ele>252</ele>
        <time>2018-05-18T07:51:17Z</time>
      </trkpt>
      <trkpt lat="43.061445001512766" lon="-9.226233987137675">
        <ele>255.59999999999999</ele>
        <time>2018-05-18T07:51:27Z</time>
      </trkpt>
      <trkpt lat="43.062216974794865" lon="-9.225936010479927">
        <ele>263.10000000000002</ele>
        <time>2018-05-18T07:51:50Z</time>
      </trkpt>
      <trkpt lat="43.062821980565786" lon="-9.225826961919665">
        <ele>265.5</ele>
        <time>2018-05-18T07:52:08Z</time>
      </trkpt>
      <trkpt lat="43.063253983855247" lon="-9.225745992735028">
        <ele>266</ele>
        <time>2018-05-18T07:52:21Z</time>
      </trkpt>
      <trkpt lat="43.063611974939704" lon="-9.225662006065249">
        <ele>266</ele>
        <time>2018-05-18T07:52:32Z</time>
      </trkpt>
      <trkpt lat="43.064174987375736" lon="-9.225540971383452">
        <ele>265.60000000000002</ele>
        <time>2018-05-18T07:52:49Z</time>
      </trkpt>
      <trkpt lat="43.06459098123014" lon="-9.22553300857544">
        <ele>265.5</ele>
        <time>2018-05-18T07:53:01Z</time>
      </trkpt>
      <trkpt lat="43.06489298120141" lon="-9.225563015788794">
        <ele>264.80000000000001</ele>
        <time>2018-05-18T07:53:10Z</time>
      </trkpt>
      <trkpt lat="43.065172014757991" lon="-9.225676003843546">
        <ele>264.39999999999998</ele>
        <time>2018-05-18T07:53:19Z</time>
      </trkpt>
      <trkpt lat="43.065289026126266" lon="-9.225766025483608">
        <ele>264.30000000000001</ele>
        <time>2018-05-18T07:53:23Z</time>
      </trkpt>
      <trkpt lat="43.065532017499208" lon="-9.225907009094954">
        <ele>263.80000000000001</ele>
        <time>2018-05-18T07:53:30Z</time>
      </trkpt>
      <trkpt lat="43.065809039399028" lon="-9.226014968007803">
        <ele>262.89999999999998</ele>
        <time>2018-05-18T07:53:39Z</time>
      </trkpt>
      <trkpt lat="43.066144986078143" lon="-9.226286038756371">
        <ele>260.60000000000002</ele>
        <time>2018-05-18T07:53:51Z</time>
      </trkpt>
      <trkpt lat="43.066532984375954" lon="-9.226778978481889">
        <ele>257.69999999999999</ele>
        <time>2018-05-18T07:54:06Z</time>
      </trkpt>
      <trkpt lat="43.066874966025352" lon="-9.227208970114589">
        <ele>253.30000000000001</ele>
        <time>2018-05-18T07:54:20Z</time>
      </trkpt>
      <trkpt lat="43.067137990146875" lon="-9.227551035583019">
        <ele>249.80000000000001</ele>
        <time>2018-05-18T07:54:31Z</time>
      </trkpt>
      <trkpt lat="43.067425992339849" lon="-9.227887988090515">
        <ele>248.19999999999999</ele>
        <time>2018-05-18T07:54:42Z</time>
      </trkpt>
      <trkpt lat="43.067881967872381" lon="-9.228089991956949">
        <ele>246.40000000000001</ele>
        <time>2018-05-18T07:54:56Z</time>
      </trkpt>
      <trkpt lat="43.068265020847321" lon="-9.228175990283489">
        <ele>246.30000000000001</ele>
        <time>2018-05-18T07:55:08Z</time>
      </trkpt>
      <trkpt lat="43.068637009710073" lon="-9.228290989995003">
        <ele>246.69999999999999</ele>
        <time>2018-05-18T07:55:19Z</time>
      </trkpt>
      <trkpt lat="43.068958036601543" lon="-9.22834899276495">
        <ele>247.5</ele>
        <time>2018-05-18T07:55:28Z</time>
      </trkpt>
      <trkpt lat="43.069158028811216" lon="-9.228142965584993">
        <ele>247.80000000000001</ele>
        <time>2018-05-18T07:55:36Z</time>
      </trkpt>
      <trkpt lat="43.069306975230575" lon="-9.227851023897529">
        <ele>247.40000000000001</ele>
        <time>2018-05-18T07:55:44Z</time>
      </trkpt>
      <trkpt lat="43.069504033774137" lon="-9.22759504057467">
        <ele>246.90000000000001</ele>
        <time>2018-05-18T07:55:52Z</time>
      </trkpt>
      <trkpt lat="43.069823971018195" lon="-9.227435030043125">
        <ele>245.30000000000001</ele>
        <time>2018-05-18T07:56:02Z</time>
      </trkpt>
      <trkpt lat="43.070115996524692" lon="-9.22736001200974">
        <ele>243.30000000000001</ele>
        <time>2018-05-18T07:56:10Z</time>
      </trkpt>
      <trkpt lat="43.070333003997803" lon="-9.227044014260173">
        <ele>238.40000000000001</ele>
        <time>2018-05-18T07:56:20Z</time>
      </trkpt>
      <trkpt lat="43.070497959852219" lon="-9.226622991263866">
        <ele>233.5</ele>
        <time>2018-05-18T07:56:30Z</time>
      </trkpt>
      <trkpt lat="43.070527967065573" lon="-9.226231975480914">
        <ele>229.19999999999999</ele>
        <time>2018-05-18T07:56:39Z</time>
      </trkpt>
      <trkpt lat="43.070610025897622" lon="-9.225930981338024">
        <ele>228.09999999999999</ele>
        <time>2018-05-18T07:56:46Z</time>
      </trkpt>
      <trkpt lat="43.070709016174078" lon="-9.225576007738709">
        <ele>226.30000000000001</ele>
        <time>2018-05-18T07:56:54Z</time>
      </trkpt>
      <trkpt lat="43.070807000622153" lon="-9.225111985579133">
        <ele>223.69999999999999</ele>
        <time>2018-05-18T07:57:05Z</time>
      </trkpt>
      <trkpt lat="43.070922000333667" lon="-9.224698003381491">
        <ele>220.90000000000001</ele>
        <time>2018-05-18T07:57:14Z</time>
      </trkpt>
      <trkpt lat="43.071029959246516" lon="-9.224341018125415">
        <ele>217.69999999999999</ele>
        <time>2018-05-18T07:57:23Z</time>
      </trkpt>
      <trkpt lat="43.07110195979476" lon="-9.224172038957477">
        <ele>215.59999999999999</ele>
        <time>2018-05-18T07:57:27Z</time>
      </trkpt>
      <trkpt lat="43.07122902944684" lon="-9.223891999572516">
        <ele>211.09999999999999</ele>
        <time>2018-05-18T07:57:34Z</time>
      </trkpt>
      <trkpt lat="43.071405971422791" lon="-9.223608020693064">
        <ele>209.80000000000001</ele>
        <time>2018-05-18T07:57:42Z</time>
      </trkpt>
      <trkpt lat="43.071470009163022" lon="-9.22355898655951">
        <ele>210</ele>
        <time>2018-05-18T07:57:44Z</time>
      </trkpt>
      <trkpt lat="43.071500016376376" lon="-9.223530991002917">
        <ele>210</ele>
        <time>2018-05-18T07:57:45Z</time>
      </trkpt>
      <trkpt lat="43.071718029677868" lon="-9.223349019885063">
        <ele>209.69999999999999</ele>
        <time>2018-05-18T07:57:53Z</time>
      </trkpt>
      <trkpt lat="43.071821965277195" lon="-9.223266961053014">
        <ele>209.30000000000001</ele>
        <time>2018-05-18T07:57:56Z</time>
      </trkpt>
      <trkpt lat="43.071892959997058" lon="-9.223217004910111">
        <ele>209</ele>
        <time>2018-05-18T07:57:59Z</time>
      </trkpt>
      <trkpt lat="43.071950040757656" lon="-9.223169982433319">
        <ele>208.5</ele>
        <time>2018-05-18T07:58:01Z</time>
      </trkpt>
      <trkpt lat="43.071962026879191" lon="-9.223150033503771">
        <ele>208.19999999999999</ele>
        <time>2018-05-18T07:58:01Z</time>
      </trkpt>
      <trkpt lat="43.071991028264165" lon="-9.223119020462036">
        <ele>207.80000000000001</ele>
        <time>2018-05-18T07:58:02Z</time>
      </trkpt>
      <trkpt lat="43.072159001603723" lon="-9.222962027415633">
        <ele>206</ele>
        <time>2018-05-18T07:58:08Z</time>
      </trkpt>
      <trkpt lat="43.072185991331935" lon="-9.222946017980576">
        <ele>206</ele>
        <time>2018-05-18T07:58:09Z</time>
      </trkpt>
      <trkpt lat="43.072306020185351" lon="-9.222814003005624">
        <ele>205.69999999999999</ele>
        <time>2018-05-18T07:58:14Z</time>
      </trkpt>
      <trkpt lat="43.072508024051785" lon="-9.22267796471715">
        <ele>206.09999999999999</ele>
        <time>2018-05-18T07:58:21Z</time>
      </trkpt>
      <trkpt lat="43.072597039863467" lon="-9.222562965005636">
        <ele>205.30000000000001</ele>
        <time>2018-05-18T07:58:24Z</time>
      </trkpt>
      <trkpt lat="43.072606008499861" lon="-9.22254896722734">
        <ele>205.19999999999999</ele>
        <time>2018-05-18T07:58:25Z</time>
      </trkpt>
      <trkpt lat="43.072744980454445" lon="-9.222378982231021">
        <ele>203.5</ele>
        <time>2018-05-18T07:58:30Z</time>
      </trkpt>
      <trkpt lat="43.072815975174308" lon="-9.222300024703145">
        <ele>202.5</ele>
        <time>2018-05-18T07:58:33Z</time>
      </trkpt>
      <trkpt lat="43.072985960170627" lon="-9.222142025828362">
        <ele>200.59999999999999</ele>
        <time>2018-05-18T07:58:39Z</time>
      </trkpt>
      <trkpt lat="43.073049997910857" lon="-9.222074970602989">
        <ele>199.59999999999999</ele>
        <time>2018-05-18T07:58:41Z</time>
      </trkpt>
      <trkpt lat="43.07320699095726" lon="-9.221887970343232">
        <ele>196.40000000000001</ele>
        <time>2018-05-18T07:58:47Z</time>
      </trkpt>
      <trkpt lat="43.07339902035892" lon="-9.221698036417365">
        <ele>192.59999999999999</ele>
        <time>2018-05-18T07:58:55Z</time>
      </trkpt>
      <trkpt lat="43.073546038940549" lon="-9.221555041149259">
        <ele>189.30000000000001</ele>
        <time>2018-05-18T07:59:00Z</time>
      </trkpt>
      <trkpt lat="43.073677970096469" lon="-9.221465019509196">
        <ele>187</ele>
        <time>2018-05-18T07:59:04Z</time>
      </trkpt>
      <trkpt lat="43.073728010058403" lon="-9.221465019509196">
        <ele>186.90000000000001</ele>
        <time>2018-05-18T07:59:06Z</time>
      </trkpt>
      <trkpt lat="43.074011988937855" lon="-9.221312971785665">
        <ele>184.90000000000001</ele>
        <time>2018-05-18T07:59:15Z</time>
      </trkpt>
      <trkpt lat="43.074192032217979" lon="-9.221078027039766">
        <ele>181.59999999999999</ele>
        <time>2018-05-18T07:59:22Z</time>
      </trkpt>
      <trkpt lat="43.074382971972227" lon="-9.220782984048128">
        <ele>177.90000000000001</ele>
        <time>2018-05-18T07:59:31Z</time>
      </trkpt>
      <trkpt lat="43.074452960863709" lon="-9.220681982114911">
        <ele>176.69999999999999</ele>
        <time>2018-05-18T07:59:34Z</time>
      </trkpt>
      <trkpt lat="43.074657982215285" lon="-9.22042197547853">
        <ele>173.69999999999999</ele>
        <time>2018-05-18T07:59:42Z</time>
      </trkpt>
      <trkpt lat="43.074786979705095" lon="-9.220103966072202">
        <ele>168.59999999999999</ele>
        <time>2018-05-18T07:59:50Z</time>
      </trkpt>
      <trkpt lat="43.074859986081719" lon="-9.219977986067534">
        <ele>166.69999999999999</ele>
        <time>2018-05-18T07:59:54Z</time>
      </trkpt>
      <trkpt lat="43.075045980513096" lon="-9.21981998719275">
        <ele>165</ele>
        <time>2018-05-18T08:00:00Z</time>
      </trkpt>
      <trkpt lat="43.075229963287711" lon="-9.219675986096263">
        <ele>163.5</ele>
        <time>2018-05-18T08:00:06Z</time>
      </trkpt>
      <trkpt lat="43.075262987986207" lon="-9.219626029953361">
        <ele>162.80000000000001</ele>
        <time>2018-05-18T08:00:08Z</time>
      </trkpt>
      <trkpt lat="43.075301041826606" lon="-9.2196049913764">
        <ele>162.59999999999999</ele>
        <time>2018-05-18T08:00:09Z</time>
      </trkpt>
      <trkpt lat="43.075511008501053" lon="-9.219449004158378">
        <ele>161.40000000000001</ele>
        <time>2018-05-18T08:00:16Z</time>
      </trkpt>
      <trkpt lat="43.075645035132766" lon="-9.219391001388431">
        <ele>161.5</ele>
        <time>2018-05-18T08:00:20Z</time>
      </trkpt>
      <trkpt lat="43.075722986832261" lon="-9.219341967254877">
        <ele>161.30000000000001</ele>
        <time>2018-05-18T08:00:23Z</time>
      </trkpt>
      <trkpt lat="43.075884003192186" lon="-9.219185980036855">
        <ele>160</ele>
        <time>2018-05-18T08:00:29Z</time>
      </trkpt>
      <trkpt lat="43.075921973213553" lon="-9.219143986701965">
        <ele>159.59999999999999</ele>
        <time>2018-05-18T08:00:30Z</time>
      </trkpt>
      <trkpt lat="43.076115008443594" lon="-9.218884985893965">
        <ele>157</ele>
        <time>2018-05-18T08:00:38Z</time>
      </trkpt>
      <trkpt lat="43.076244005933404" lon="-9.218737967312336">
        <ele>155.69999999999999</ele>
        <time>2018-05-18T08:00:43Z</time>
      </trkpt>
      <trkpt lat="43.076267978176475" lon="-9.218708965927362">
        <ele>155.19999999999999</ele>
        <time>2018-05-18T08:00:44Z</time>
      </trkpt>
      <trkpt lat="43.076235959306359" lon="-9.21863503754139">
        <ele>154</ele>
        <time>2018-05-18T08:00:46Z</time>
      </trkpt>
      <trkpt lat="43.076141998171806" lon="-9.218622967600822">
        <ele>153.09999999999999</ele>
        <time>2018-05-18T08:00:49Z</time>
      </trkpt>
      <trkpt lat="43.076091958209872" lon="-9.218632020056248">
        <ele>152.90000000000001</ele>
        <time>2018-05-18T08:00:50Z</time>
      </trkpt>
      <trkpt lat="43.076143004000187" lon="-9.218620033934712">
        <ele>153.09999999999999</ele>
        <time>2018-05-18T08:00:52Z</time>
      </trkpt>
      <trkpt lat="43.07623503729701" lon="-9.218601007014513">
        <ele>153.40000000000001</ele>
        <time>2018-05-18T08:00:55Z</time>
      </trkpt>
      <trkpt lat="43.07632296346128" lon="-9.218626990914345">
        <ele>153.59999999999999</ele>
        <time>2018-05-18T08:00:57Z</time>
      </trkpt>
      <trkpt lat="43.076577018946409" lon="-9.218421969562769">
        <ele>149.69999999999999</ele>
        <time>2018-05-18T08:01:06Z</time>
      </trkpt>
      <trkpt lat="43.076804000884295" lon="-9.21809901483357">
        <ele>145</ele>
        <time>2018-05-18T08:01:16Z</time>
      </trkpt>
      <trkpt lat="43.076997958123684" lon="-9.217785028740764">
        <ele>142.19999999999999</ele>
        <time>2018-05-18T08:01:25Z</time>
      </trkpt>
      <trkpt lat="43.077036011964083" lon="-9.217283958569169">
        <ele>139.69999999999999</ele>
        <time>2018-05-18T08:01:36Z</time>
      </trkpt>
      <trkpt lat="43.07722301222384" lon="-9.216953963041306">
        <ele>138.59999999999999</ele>
        <time>2018-05-18T08:01:45Z</time>
      </trkpt>
      <trkpt lat="43.077487964183092" lon="-9.21666101552546">
        <ele>137.5</ele>
        <time>2018-05-18T08:01:55Z</time>
      </trkpt>
      <trkpt lat="43.077640011906624" lon="-9.21633898280561">
        <ele>135.19999999999999</ele>
        <time>2018-05-18T08:02:03Z</time>
      </trkpt>
      <trkpt lat="43.077684016898274" lon="-9.216211996972561">
        <ele>134</ele>
        <time>2018-05-18T08:02:06Z</time>
      </trkpt>
      <trkpt lat="43.077817959710956" lon="-9.215947967022657">
        <ele>131.30000000000001</ele>
        <time>2018-05-18T08:02:13Z</time>
      </trkpt>
      <trkpt lat="43.077987022697926" lon="-9.215719979256392">
        <ele>129.80000000000001</ele>
        <time>2018-05-18T08:02:20Z</time>
      </trkpt>
      <trkpt lat="43.078218027949333" lon="-9.215463995933533">
        <ele>129.59999999999999</ele>
        <time>2018-05-18T08:02:29Z</time>
      </trkpt>
      <trkpt lat="43.078279970213771" lon="-9.215420996770263">
        <ele>130.09999999999999</ele>
        <time>2018-05-18T08:02:31Z</time>
      </trkpt>
      <trkpt lat="43.078334033489227" lon="-9.215301973745227">
        <ele>128.90000000000001</ele>
        <time>2018-05-18T08:02:34Z</time>
      </trkpt>
      <trkpt lat="43.078437969088554" lon="-9.215184962376952">
        <ele>128.5</ele>
        <time>2018-05-18T08:02:38Z</time>
      </trkpt>
      <trkpt lat="43.078445009887218" lon="-9.215176999568939">
        <ele>128.5</ele>
        <time>2018-05-18T08:02:38Z</time>
      </trkpt>
      <trkpt lat="43.078507035970688" lon="-9.215113967657089">
        <ele>128.30000000000001</ele>
        <time>2018-05-18T08:02:40Z</time>
      </trkpt>
      <trkpt lat="43.078565960749984" lon="-9.215042972937226">
        <ele>127.90000000000001</ele>
        <time>2018-05-18T08:02:43Z</time>
      </trkpt>
      <trkpt lat="43.078741980716586" lon="-9.214854966849089">
        <ele>126.7</ele>
        <time>2018-05-18T08:02:49Z</time>
      </trkpt>
      <trkpt lat="43.078941972926259" lon="-9.214671989902854">
        <ele>124.8</ele>
        <time>2018-05-18T08:02:57Z</time>
      </trkpt>
      <trkpt lat="43.079146994277835" lon="-9.214450959116221">
        <ele>121.8</ele>
        <time>2018-05-18T08:03:04Z</time>
      </trkpt>
      <trkpt lat="43.079290995374322" lon="-9.214233029633761">
        <ele>118</ele>
        <time>2018-05-18T08:03:11Z</time>
      </trkpt>
      <trkpt lat="43.079491993412375" lon="-9.21406296081841">
        <ele>115.3</ele>
        <time>2018-05-18T08:03:18Z</time>
      </trkpt>
      <trkpt lat="43.079753005877137" lon="-9.214020967483521">
        <ele>115.3</ele>
        <time>2018-05-18T08:03:25Z</time>
      </trkpt>
      <trkpt lat="43.079969007521868" lon="-9.213879983872175">
        <ele>112.5</ele>
        <time>2018-05-18T08:03:33Z</time>
      </trkpt>
      <trkpt lat="43.080103034153581" lon="-9.213754003867507">
        <ele>110</ele>
        <time>2018-05-18T08:03:37Z</time>
      </trkpt>
      <trkpt lat="43.080219039693475" lon="-9.213633975014091">
        <ele>107.5</ele>
        <time>2018-05-18T08:03:42Z</time>
      </trkpt>
      <trkpt lat="43.080392964184284" lon="-9.213487040251494">
        <ele>104</ele>
        <time>2018-05-18T08:03:48Z</time>
      </trkpt>
      <trkpt lat="43.080593962222338" lon="-9.213452003896236">
        <ele>101.8</ele>
        <time>2018-05-18T08:03:54Z</time>
      </trkpt>
      <trkpt lat="43.080803006887436" lon="-9.213466001674533">
        <ele>100.5</ele>
        <time>2018-05-18T08:04:00Z</time>
      </trkpt>
      <trkpt lat="43.081038035452366" lon="-9.213536996394396">
        <ele>101.09999999999999</ele>
        <time>2018-05-18T08:04:07Z</time>
      </trkpt>
      <trkpt lat="43.081182958558202" lon="-9.213555017486215">
        <ele>100.7</ele>
        <time>2018-05-18T08:04:12Z</time>
      </trkpt>
      <trkpt lat="43.0813920032233" lon="-9.213659958913922">
        <ele>99.599999999999994</ele>
        <time>2018-05-18T08:04:18Z</time>
      </trkpt>
      <trkpt lat="43.0815439671278" lon="-9.213743023574352">
        <ele>97.599999999999994</ele>
        <time>2018-05-18T08:04:23Z</time>
      </trkpt>
      <trkpt lat="43.081874968484044" lon="-9.21399699524045">
        <ele>92.5</ele>
        <time>2018-05-18T08:04:34Z</time>
      </trkpt>
      <trkpt lat="43.082017041742802" lon="-9.214164968580008">
        <ele>91.200000000000003</ele>
        <time>2018-05-18T08:04:40Z</time>
      </trkpt>
      <trkpt lat="43.08201402425766" lon="-9.214165974408388">
        <ele>91.299999999999997</ele>
        <time>2018-05-18T08:04:40Z</time>
      </trkpt>
      <trkpt lat="43.082013018429279" lon="-9.214166980236769">
        <ele>91.299999999999997</ele>
        <time>2018-05-18T08:04:40Z</time>
      </trkpt>
      <trkpt lat="43.08201503008604" lon="-9.214167986065149">
        <ele>91.299999999999997</ele>
        <time>2018-05-18T08:04:40Z</time>
      </trkpt>
      <trkpt lat="43.082005977630615" lon="-9.214175026863813">
        <ele>91.700000000000003</ele>
        <time>2018-05-18T08:04:40Z</time>
      </trkpt>
      <trkpt lat="43.082011006772518" lon="-9.21418902464211">
        <ele>91.799999999999997</ele>
        <time>2018-05-18T08:04:41Z</time>
      </trkpt>
      <trkpt lat="43.082011006772518" lon="-9.21418902464211">
        <ele>91.799999999999997</ele>
        <time>2018-05-18T08:04:41Z</time>
      </trkpt>
      <trkpt lat="43.082012012600899" lon="-9.214202016592026">
        <ele>92</ele>
        <time>2018-05-18T08:04:41Z</time>
      </trkpt>
      <trkpt lat="43.082025004550815" lon="-9.214197993278503">
        <ele>91.5</ele>
        <time>2018-05-18T08:04:41Z</time>
      </trkpt>
      <trkpt lat="43.082028022035956" lon="-9.214206039905548">
        <ele>91.599999999999994</ele>
        <time>2018-05-18T08:04:42Z</time>
      </trkpt>
      <trkpt lat="43.082201024517417" lon="-9.214379964396358">
        <ele>88.200000000000003</ele>
        <time>2018-05-18T08:04:48Z</time>
      </trkpt>
      <trkpt lat="43.082366986200213" lon="-9.214546009898186">
        <ele>83.799999999999997</ele>
        <time>2018-05-18T08:04:54Z</time>
      </trkpt>
      <trkpt lat="43.082508975639939" lon="-9.214738961309195">
        <ele>80.099999999999994</ele>
        <time>2018-05-18T08:05:00Z</time>
      </trkpt>
      <trkpt lat="43.082565972581506" lon="-9.214757988229394">
        <ele>77.700000000000003</ele>
        <time>2018-05-18T08:05:02Z</time>
      </trkpt>
      <trkpt lat="43.082588016986847" lon="-9.214811967685819">
        <ele>77.400000000000006</ele>
        <time>2018-05-18T08:05:03Z</time>
      </trkpt>
      <trkpt lat="43.082632021978498" lon="-9.215098964050412">
        <ele>78.799999999999997</ele>
        <time>2018-05-18T08:05:10Z</time>
      </trkpt>
      <trkpt lat="43.082715002819896" lon="-9.215388977900147">
        <ele>78.400000000000006</ele>
        <time>2018-05-18T08:05:16Z</time>
      </trkpt>
      <trkpt lat="43.082851963117719" lon="-9.215783011168242">
        <ele>73.400000000000006</ele>
        <time>2018-05-18T08:05:26Z</time>
      </trkpt>
      <trkpt lat="43.082943996414542" lon="-9.216063972562552">
        <ele>70.299999999999997</ele>
        <time>2018-05-18T08:05:33Z</time>
      </trkpt>
      <trkpt lat="43.083022031933069" lon="-9.216249966993928">
        <ele>68.200000000000003</ele>
        <time>2018-05-18T08:05:37Z</time>
      </trkpt>
      <trkpt lat="43.08308900333941" lon="-9.216457000002265">
        <ele>65.400000000000006</ele>
        <time>2018-05-18T08:05:42Z</time>
      </trkpt>
      <trkpt lat="43.08317600749433" lon="-9.216601001098752">
        <ele>62.100000000000001</ele>
        <time>2018-05-18T08:05:46Z</time>
      </trkpt>
      <trkpt lat="43.083256976678967" lon="-9.216796969994903">
        <ele>59</ele>
        <time>2018-05-18T08:05:51Z</time>
      </trkpt>
      <trkpt lat="43.083374993875623" lon="-9.217031998559833">
        <ele>54.700000000000003</ele>
        <time>2018-05-18T08:05:58Z</time>
      </trkpt>
      <trkpt lat="43.083395026624203" lon="-9.217064017429948">
        <ele>53.899999999999999</ele>
        <time>2018-05-18T08:05:59Z</time>
      </trkpt>
      <trkpt lat="43.083502985537052" lon="-9.217168036848307">
        <ele>50.399999999999999</ele>
        <time>2018-05-18T08:06:03Z</time>
      </trkpt>
      <trkpt lat="43.083613961935043" lon="-9.217332992702723">
        <ele>46.799999999999997</ele>
        <time>2018-05-18T08:06:08Z</time>
      </trkpt>
      <trkpt lat="43.083659978583455" lon="-9.217415973544121">
        <ele>45.399999999999999</ele>
        <time>2018-05-18T08:06:10Z</time>
      </trkpt>
      <trkpt lat="43.083732984960079" lon="-9.217514963820577">
        <ele>43.100000000000001</ele>
        <time>2018-05-18T08:06:13Z</time>
      </trkpt>
      <trkpt lat="43.083825018256903" lon="-9.217638010159135">
        <ele>41</ele>
        <time>2018-05-18T08:06:17Z</time>
      </trkpt>
      <trkpt lat="43.083881009370089" lon="-9.217877984046936">
        <ele>40.100000000000001</ele>
        <time>2018-05-18T08:06:22Z</time>
      </trkpt>
      <trkpt lat="43.083897018805146" lon="-9.217969011515379">
        <ele>39.799999999999997</ele>
        <time>2018-05-18T08:06:24Z</time>
      </trkpt>
      <trkpt lat="43.083923002704978" lon="-9.218017961829901">
        <ele>39.200000000000003</ele>
        <time>2018-05-18T08:06:26Z</time>
      </trkpt>
      <trkpt lat="43.083968013525009" lon="-9.218124998733401">
        <ele>38.100000000000001</ele>
        <time>2018-05-18T08:06:28Z</time>
      </trkpt>
      <trkpt lat="43.084111008793116" lon="-9.218317028135061">
        <ele>34.600000000000001</ele>
        <time>2018-05-18T08:06:34Z</time>
      </trkpt>
      <trkpt lat="43.084235982969403" lon="-9.218420963734388">
        <ele>31.399999999999999</ele>
        <time>2018-05-18T08:06:39Z</time>
      </trkpt>
      <trkpt lat="43.084360035136342" lon="-9.218639982864261">
        <ele>27.899999999999999</ele>
        <time>2018-05-18T08:06:45Z</time>
      </trkpt>
      <trkpt lat="43.08440001681447" lon="-9.218670995905995">
        <ele>26.800000000000001</ele>
        <time>2018-05-18T08:06:46Z</time>
      </trkpt>
      <trkpt lat="43.084501018747687" lon="-9.218842992559075">
        <ele>24.300000000000001</ele>
        <time>2018-05-18T08:06:51Z</time>
      </trkpt>
      <trkpt lat="43.084605038166046" lon="-9.218909963965416">
        <ele>22.100000000000001</ele>
        <time>2018-05-18T08:06:54Z</time>
      </trkpt>
      <trkpt lat="43.084733029827476" lon="-9.218921028077602">
        <ele>20.600000000000001</ele>
        <time>2018-05-18T08:06:58Z</time>
      </trkpt>
      <trkpt lat="43.08472297154367" lon="-9.218925973400474">
        <ele>20.699999999999999</ele>
        <time>2018-05-18T08:06:58Z</time>
      </trkpt>
      <trkpt lat="43.084749039262533" lon="-9.218955980613828">
        <ele>20.5</ele>
        <time>2018-05-18T08:06:59Z</time>
      </trkpt>
      <trkpt lat="43.08485196903348" lon="-9.219087995588779">
        <ele>19.5</ele>
        <time>2018-05-18T08:07:04Z</time>
      </trkpt>
      <trkpt lat="43.084877030923963" lon="-9.219179023057222">
        <ele>19.300000000000001</ele>
        <time>2018-05-18T08:07:06Z</time>
      </trkpt>
      <trkpt lat="43.08491600677371" lon="-9.219221016392112">
        <ele>18.899999999999999</ele>
        <time>2018-05-18T08:07:07Z</time>
      </trkpt>
      <trkpt lat="43.084973003715277" lon="-9.219268960878253">
        <ele>18.300000000000001</ele>
        <time>2018-05-18T08:07:09Z</time>
      </trkpt>
      <trkpt lat="43.085027989000082" lon="-9.219293016940355">
        <ele>17.600000000000001</ele>
        <time>2018-05-18T08:07:11Z</time>
      </trkpt>
      <trkpt lat="43.085034023970366" lon="-9.219297962263227">
        <ele>17.600000000000001</ele>
        <time>2018-05-18T08:07:11Z</time>
      </trkpt>
      <trkpt lat="43.085094960406423" lon="-9.219414973631501">
        <ele>17</ele>
        <time>2018-05-18T08:07:14Z</time>
      </trkpt>
      <trkpt lat="43.085061013698578" lon="-9.219450009986758">
        <ele>17.5</ele>
        <time>2018-05-18T08:07:15Z</time>
      </trkpt>
      <trkpt lat="43.085033018141985" lon="-9.219418996945024">
        <ele>17.800000000000001</ele>
        <time>2018-05-18T08:07:17Z</time>
      </trkpt>
      <trkpt lat="43.085035029798746" lon="-9.219388989731669">
        <ele>17.699999999999999</ele>
        <time>2018-05-18T08:07:17Z</time>
      </trkpt>
      <trkpt lat="43.085037041455507" lon="-9.219439029693604">
        <ele>17.800000000000001</ele>
        <time>2018-05-18T08:07:18Z</time>
      </trkpt>
      <trkpt lat="43.085037041455507" lon="-9.219456966966391">
        <ele>17.800000000000001</ele>
        <time>2018-05-18T08:07:19Z</time>
      </trkpt>
      <trkpt lat="43.08502103202045" lon="-9.21954195946455">
        <ele>18.199999999999999</ele>
        <time>2018-05-18T08:07:21Z</time>
      </trkpt>
      <trkpt lat="43.085010973736644" lon="-9.219598034396768">
        <ele>18.5</ele>
        <time>2018-05-18T08:07:22Z</time>
      </trkpt>
      <trkpt lat="43.084865966811776" lon="-9.219748992472887">
        <ele>21.800000000000001</ele>
        <time>2018-05-18T08:07:27Z</time>
      </trkpt>
      <trkpt lat="43.084783991798759" lon="-9.21984001994133">
        <ele>23.800000000000001</ele>
        <time>2018-05-18T08:07:30Z</time>
      </trkpt>
      <trkpt lat="43.084751972928643" lon="-9.21990598551929">
        <ele>24.899999999999999</ele>
        <time>2018-05-18T08:07:32Z</time>
      </trkpt>
      <trkpt lat="43.084792038425803" lon="-9.219972034916282">
        <ele>25</ele>
        <time>2018-05-18T08:07:34Z</time>
      </trkpt>
      <trkpt lat="43.084952970966697" lon="-9.219982009381056">
        <ele>22.600000000000001</ele>
        <time>2018-05-18T08:07:39Z</time>
      </trkpt>
      <trkpt lat="43.084967974573374" lon="-9.219981003552675">
        <ele>22.300000000000001</ele>
        <time>2018-05-18T08:07:39Z</time>
      </trkpt>
      <trkpt lat="43.085156986489892" lon="-9.220007993280888">
        <ele>19.600000000000001</ele>
        <time>2018-05-18T08:07:45Z</time>
      </trkpt>
      <trkpt lat="43.085246002301574" lon="-9.220099020749331">
        <ele>18.899999999999999</ele>
        <time>2018-05-18T08:07:48Z</time>
      </trkpt>
      <trkpt lat="43.08528003282845" lon="-9.220060966908932">
        <ele>18</ele>
        <time>2018-05-18T08:07:50Z</time>
      </trkpt>
      <trkpt lat="43.085407018661499" lon="-9.219900034368038">
        <ele>15</ele>
        <time>2018-05-18T08:07:55Z</time>
      </trkpt>
      <trkpt lat="43.08545102365315" lon="-9.219752009958029">
        <ele>13.699999999999999</ele>
        <time>2018-05-18T08:07:58Z</time>
      </trkpt>
      <trkpt lat="43.085393020883203" lon="-9.219586970284581">
        <ele>13.300000000000001</ele>
        <time>2018-05-18T08:08:02Z</time>
      </trkpt>
      <trkpt lat="43.085394026711583" lon="-9.219585964456201">
        <ele>13.300000000000001</ele>
        <time>2018-05-18T08:08:02Z</time>
      </trkpt>
      <trkpt lat="43.085407018661499" lon="-9.219612032175064">
        <ele>13.300000000000001</ele>
        <time>2018-05-18T08:08:03Z</time>
      </trkpt>
      <trkpt lat="43.085552025586367" lon="-9.219929035753012">
        <ele>13.9</ele>
        <time>2018-05-18T08:08:11Z</time>
      </trkpt>
      <trkpt lat="43.08571002446115" lon="-9.220248972997069">
        <ele>14.199999999999999</ele>
        <time>2018-05-18T08:08:19Z</time>
      </trkpt>
      <trkpt lat="43.08577599003911" lon="-9.220289960503578">
        <ele>13.9</ele>
        <time>2018-05-18T08:08:21Z</time>
      </trkpt>
      <trkpt lat="43.085877997800708" lon="-9.220276968553662">
        <ele>12.800000000000001</ele>
        <time>2018-05-18T08:08:24Z</time>
      </trkpt>
      <trkpt lat="43.085991991683841" lon="-9.220295995473862">
        <ele>11.9</ele>
        <time>2018-05-18T08:08:28Z</time>
      </trkpt>
      <trkpt lat="43.086048988625407" lon="-9.220263976603746">
        <ele>11.199999999999999</ele>
        <time>2018-05-18T08:08:30Z</time>
      </trkpt>
      <trkpt lat="43.086158959195018" lon="-9.22024997882545">
        <ele>10.1</ele>
        <time>2018-05-18T08:08:33Z</time>
      </trkpt>
      <trkpt lat="43.086280999705195" lon="-9.220106983557344">
        <ele>8.5</ele>
        <time>2018-05-18T08:08:38Z</time>
      </trkpt>
      <trkpt lat="43.086388958618045" lon="-9.219939010217786">
        <ele>7.6</ele>
        <time>2018-05-18T08:08:43Z</time>
      </trkpt>
      <trkpt lat="43.086457019671798" lon="-9.219763996079564">
        <ele>6.8</ele>
        <time>2018-05-18T08:08:47Z</time>
      </trkpt>
      <trkpt lat="43.086417960003018" lon="-9.219639021903276">
        <ele>6.2</ele>
        <time>2018-05-18T08:08:50Z</time>
      </trkpt>
      <trkpt lat="43.08631201274693" lon="-9.219366023316979">
        <ele>6.1</ele>
        <time>2018-05-18T08:08:57Z</time>
      </trkpt>
      <trkpt lat="43.086292985826731" lon="-9.219145998358727">
        <ele>6.1</ele>
        <time>2018-05-18T08:09:01Z</time>
      </trkpt>
      <trkpt lat="43.086292985826731" lon="-9.219130994752049">
        <ele>6.1</ele>
        <time>2018-05-18T08:09:02Z</time>
      </trkpt>
      <trkpt lat="43.086318969726563" lon="-9.219090007245541">
        <ele>6.1</ele>
        <time>2018-05-18T08:09:03Z</time>
      </trkpt>
      <trkpt lat="43.086512004956603" lon="-9.219009038060904">
        <ele>6.6</ele>
        <time>2018-05-18T08:09:09Z</time>
      </trkpt>
      <trkpt lat="43.086694981902838" lon="-9.218986993655562">
        <ele>7.1</ele>
        <time>2018-05-18T08:09:14Z</time>
      </trkpt>
      <trkpt lat="43.086875025182962" lon="-9.219013983383775">
        <ele>7.5</ele>
        <time>2018-05-18T08:09:20Z</time>
      </trkpt>
      <trkpt lat="43.087068982422352" lon="-9.219049019739032">
        <ele>7.9</ele>
        <time>2018-05-18T08:09:25Z</time>
      </trkpt>
      <trkpt lat="43.08723796159029" lon="-9.219055976718664">
        <ele>8.9</ele>
        <time>2018-05-18T08:09:30Z</time>
      </trkpt>
      <trkpt lat="43.087370982393622" lon="-9.219030998647213">
        <ele>9.9</ele>
        <time>2018-05-18T08:09:34Z</time>
      </trkpt>
      <trkpt lat="43.087423034012318" lon="-9.219015995040536">
        <ele>10.4</ele>
        <time>2018-05-18T08:09:36Z</time>
      </trkpt>
      <trkpt lat="43.087505009025335" lon="-9.218996968120337">
        <ele>11.1</ele>
        <time>2018-05-18T08:09:38Z</time>
      </trkpt>
      <trkpt lat="43.087598970159888" lon="-9.219018006697297">
        <ele>11.6</ele>
        <time>2018-05-18T08:09:41Z</time>
      </trkpt>
      <trkpt lat="43.087777001783252" lon="-9.219156978651881">
        <ele>11.300000000000001</ele>
        <time>2018-05-18T08:09:47Z</time>
      </trkpt>
      <trkpt lat="43.087775995954871" lon="-9.219157984480262">
        <ele>11.300000000000001</ele>
        <time>2018-05-18T08:09:47Z</time>
      </trkpt>
      <trkpt lat="43.087775995954871" lon="-9.219158990308642">
        <ele>11.300000000000001</ele>
        <time>2018-05-18T08:09:47Z</time>
      </trkpt>
      <trkpt lat="43.087775995954871" lon="-9.219158990308642">
        <ele>11.300000000000001</ele>
        <time>2018-05-18T08:09:47Z</time>
      </trkpt>
      <trkpt lat="43.087775995954871" lon="-9.219163013622165">
        <ele>11.300000000000001</ele>
        <time>2018-05-18T08:09:47Z</time>
      </trkpt>
      <trkpt lat="43.087774990126491" lon="-9.21915496699512">
        <ele>11.4</ele>
        <time>2018-05-18T08:09:48Z</time>
      </trkpt>
      <trkpt lat="43.087956961244345" lon="-9.219365017488599">
        <ele>9.9</ele>
        <time>2018-05-18T08:09:55Z</time>
      </trkpt>
      <trkpt lat="43.088318975642323" lon="-9.219663999974728">
        <ele>8.4</ele>
        <time>2018-05-18T08:10:07Z</time>
      </trkpt>
      <trkpt lat="43.088501030579209" lon="-9.219767013564706">
        <ele>8.199999999999999</ele>
        <time>2018-05-18T08:10:13Z</time>
      </trkpt>
      <trkpt lat="43.089057002216578" lon="-9.219970023259521">
        <ele>6.6</ele>
        <time>2018-05-18T08:10:30Z</time>
      </trkpt>
      <trkpt lat="43.089966019615531" lon="-9.219859968870878">
        <ele>8.5</ele>
        <time>2018-05-18T08:10:57Z</time>
      </trkpt>
      <trkpt lat="43.09071603231132" lon="-9.219786962494254">
        <ele>9.9</ele>
        <time>2018-05-18T08:11:19Z</time>
      </trkpt>
      <trkpt lat="43.090800018981099" lon="-9.219802971929312">
        <ele>9.9</ele>
        <time>2018-05-18T08:11:22Z</time>
      </trkpt>
      <trkpt lat="43.091307962313294" lon="-9.21996901743114">
        <ele>8.800000000000001</ele>
        <time>2018-05-18T08:11:37Z</time>
      </trkpt>
      <trkpt lat="43.0919190030545" lon="-9.220248972997069">
        <ele>8.6</ele>
        <time>2018-05-18T08:11:56Z</time>
      </trkpt>
      <trkpt lat="43.092534989118576" lon="-9.220432033762336">
        <ele>9.1</ele>
        <time>2018-05-18T08:12:15Z</time>
      </trkpt>
      <trkpt lat="43.093435037881136" lon="-9.220518032088876">
        <ele>10.5</ele>
        <time>2018-05-18T08:12:41Z</time>
      </trkpt>
      <trkpt lat="43.094281023368239" lon="-9.22041904181242">
        <ele>11</ele>
        <time>2018-05-18T08:13:07Z</time>
      </trkpt>
      <trkpt lat="43.095241002738476" lon="-9.220428010448813">
        <ele>9.300000000000001</ele>
        <time>2018-05-18T08:13:35Z</time>
      </trkpt>
      <trkpt lat="43.095299005508423" lon="-9.220448965206742">
        <ele>9</ele>
        <time>2018-05-18T08:13:37Z</time>
      </trkpt>
      <trkpt lat="43.096070978790522" lon="-9.220755994319916">
        <ele>7.5</ele>
        <time>2018-05-18T08:14:01Z</time>
      </trkpt>
      <trkpt lat="43.096757959574461" lon="-9.221028992906213">
        <ele>6.5</ele>
        <time>2018-05-18T08:14:22Z</time>
      </trkpt>
      <trkpt lat="43.096962980926037" lon="-9.221037039533258">
        <ele>7.1</ele>
        <time>2018-05-18T08:14:28Z</time>
      </trkpt>
      <trkpt lat="43.097834028303623" lon="-9.220761023461819">
        <ele>14.1</ele>
        <time>2018-05-18T08:14:54Z</time>
      </trkpt>
      <trkpt lat="43.098125969991088" lon="-9.220650969073176">
        <ele>15.300000000000001</ele>
        <time>2018-05-18T08:15:03Z</time>
      </trkpt>
      <trkpt lat="43.098874976858497" lon="-9.220382999628782">
        <ele>15.300000000000001</ele>
        <time>2018-05-18T08:15:26Z</time>
      </trkpt>
      <trkpt lat="43.099635969847441" lon="-9.220242016017437">
        <ele>11.5</ele>
        <time>2018-05-18T08:15:49Z</time>
      </trkpt>
      <trkpt lat="43.100219015032053" lon="-9.220137996599078">
        <ele>11.1</ele>
        <time>2018-05-18T08:16:06Z</time>
      </trkpt>
      <trkpt lat="43.100297972559929" lon="-9.220118969678879">
        <ele>11.1</ele>
        <time>2018-05-18T08:16:09Z</time>
      </trkpt>
      <trkpt lat="43.100872971117496" lon="-9.219990978017449">
        <ele>9.6</ele>
        <time>2018-05-18T08:16:26Z</time>
      </trkpt>
      <trkpt lat="43.101083021610975" lon="-9.219854017719626">
        <ele>10</ele>
        <time>2018-05-18T08:16:33Z</time>
      </trkpt>
      <trkpt lat="43.101373035460711" lon="-9.219550006091595">
        <ele>11.4</ele>
        <time>2018-05-18T08:16:43Z</time>
      </trkpt>
      <trkpt lat="43.101771008223295" lon="-9.219091013073921">
        <ele>12.199999999999999</ele>
        <time>2018-05-18T08:16:59Z</time>
      </trkpt>
      <trkpt lat="43.101791040971875" lon="-9.2190679628402">
        <ele>12.199999999999999</ele>
        <time>2018-05-18T08:17:00Z</time>
      </trkpt>
      <trkpt lat="43.101805960759521" lon="-9.219041978940368">
        <ele>12.300000000000001</ele>
        <time>2018-05-18T08:17:00Z</time>
      </trkpt>
      <trkpt lat="43.10182498767972" lon="-9.219021024182439">
        <ele>12.300000000000001</ele>
        <time>2018-05-18T08:17:01Z</time>
      </trkpt>
      <trkpt lat="43.101869998499751" lon="-9.21898003667593">
        <ele>12.300000000000001</ele>
        <time>2018-05-18T08:17:03Z</time>
      </trkpt>
      <trkpt lat="43.10216998681426" lon="-9.218711983412504">
        <ele>11.199999999999999</ele>
        <time>2018-05-18T08:17:13Z</time>
      </trkpt>
      <trkpt lat="43.102310970425606" lon="-9.21857301145792">
        <ele>10</ele>
        <time>2018-05-18T08:17:18Z</time>
      </trkpt>
      <trkpt lat="43.102745991200209" lon="-9.21855297870934">
        <ele>6.8</ele>
        <time>2018-05-18T08:17:31Z</time>
      </trkpt>
      <trkpt lat="43.103144969791174" lon="-9.218627996742725">
        <ele>5.1</ele>
        <time>2018-05-18T08:17:43Z</time>
      </trkpt>
      <trkpt lat="43.103169025853276" lon="-9.218634031713009">
        <ele>5.1</ele>
        <time>2018-05-18T08:17:44Z</time>
      </trkpt>
      <trkpt lat="43.103421991690993" lon="-9.21867803670466">
        <ele>4.7</ele>
        <time>2018-05-18T08:17:51Z</time>
      </trkpt>
      <trkpt lat="43.103447975590825" lon="-9.218685999512672">
        <ele>4.6</ele>
        <time>2018-05-18T08:17:52Z</time>
      </trkpt>
      <trkpt lat="43.103527016937733" lon="-9.218695973977447">
        <ele>4.5</ele>
        <time>2018-05-18T08:17:55Z</time>
      </trkpt>
      <trkpt lat="43.103557024151087" lon="-9.218697985634208">
        <ele>4.5</ele>
        <time>2018-05-18T08:17:55Z</time>
      </trkpt>
      <trkpt lat="43.10358602553606" lon="-9.218703014776111">
        <ele>4.4</ele>
        <time>2018-05-18T08:17:56Z</time>
      </trkpt>
      <trkpt lat="43.103613015264273" lon="-9.218707038089633">
        <ele>4.4</ele>
        <time>2018-05-18T08:17:57Z</time>
      </trkpt>
      <trkpt lat="43.103718040511012" lon="-9.21872103586793">
        <ele>4.2</ele>
        <time>2018-05-18T08:18:00Z</time>
      </trkpt>
      <trkpt lat="43.104044012725353" lon="-9.218760011717677">
        <ele>5</ele>
        <time>2018-05-18T08:18:10Z</time>
      </trkpt>
      <trkpt lat="43.104135040193796" lon="-9.218769986182451">
        <ele>5.3</ele>
        <time>2018-05-18T08:18:13Z</time>
      </trkpt>
      <trkpt lat="43.104186002165079" lon="-9.218783983960748">
        <ele>5.5</ele>
        <time>2018-05-18T08:18:14Z</time>
      </trkpt>
      <trkpt lat="43.104241993278265" lon="-9.218799993395805">
        <ele>5.6</ele>
        <time>2018-05-18T08:18:16Z</time>
      </trkpt>
      <trkpt lat="43.104299996048212" lon="-9.218813991174102">
        <ele>5.8</ele>
        <time>2018-05-18T08:18:18Z</time>
      </trkpt>
      <trkpt lat="43.10435900464654" lon="-9.218828994780779">
        <ele>6</ele>
        <time>2018-05-18T08:18:19Z</time>
      </trkpt>
      <trkpt lat="43.104548016563058" lon="-9.218828994780779">
        <ele>6.6</ele>
        <time>2018-05-18T08:18:25Z</time>
      </trkpt>
      <trkpt lat="43.104824032634497" lon="-9.21876504085958">
        <ele>8.1</ele>
        <time>2018-05-18T08:18:33Z</time>
      </trkpt>
      <trkpt lat="43.1054110173136" lon="-9.218791024759412">
        <ele>10.800000000000001</ele>
        <time>2018-05-18T08:18:51Z</time>
      </trkpt>
      <trkpt lat="43.105624001473188" lon="-9.218727992847562">
        <ele>12</ele>
        <time>2018-05-18T08:18:57Z</time>
      </trkpt>
      <trkpt lat="43.106137979775667" lon="-9.218606036156416">
        <ele>14.300000000000001</ele>
        <time>2018-05-18T08:19:13Z</time>
      </trkpt>
      <trkpt lat="43.106450960040092" lon="-9.218666972592473">
        <ele>15.800000000000001</ele>
        <time>2018-05-18T08:19:22Z</time>
      </trkpt>
      <trkpt lat="43.106997041031718" lon="-9.218652974814177">
        <ele>18.399999999999999</ele>
        <time>2018-05-18T08:19:38Z</time>
      </trkpt>
      <trkpt lat="43.107391996309161" lon="-9.218703014776111">
        <ele>20.699999999999999</ele>
        <time>2018-05-18T08:19:50Z</time>
      </trkpt>
      <trkpt lat="43.107490986585617" lon="-9.218741990625858">
        <ele>21.399999999999999</ele>
        <time>2018-05-18T08:19:53Z</time>
      </trkpt>
      <trkpt lat="43.107700031250715" lon="-9.218869982287288">
        <ele>22.399999999999999</ele>
        <time>2018-05-18T08:20:00Z</time>
      </trkpt>
      <trkpt lat="43.107857024297118" lon="-9.219081960618496">
        <ele>23.399999999999999</ele>
        <time>2018-05-18T08:20:06Z</time>
      </trkpt>
      <trkpt lat="43.107983004301786" lon="-9.219255968928337">
        <ele>24.600000000000001</ele>
        <time>2018-05-18T08:20:11Z</time>
      </trkpt>
      <trkpt lat="43.108230018988252" lon="-9.219403993338347">
        <ele>26.5</ele>
        <time>2018-05-18T08:20:19Z</time>
      </trkpt>
      <trkpt lat="43.10885296203196" lon="-9.219490997493267">
        <ele>29.600000000000001</ele>
        <time>2018-05-18T08:20:38Z</time>
      </trkpt>
      <trkpt lat="43.109508007764816" lon="-9.219396030530334">
        <ele>27</ele>
        <time>2018-05-18T08:20:57Z</time>
      </trkpt>
      <trkpt lat="43.110068002715707" lon="-9.219412039965391">
        <ele>23.300000000000001</ele>
        <time>2018-05-18T08:21:14Z</time>
      </trkpt>
      <trkpt lat="43.110459018498659" lon="-9.21941002830863">
        <ele>21</ele>
        <time>2018-05-18T08:21:26Z</time>
      </trkpt>
      <trkpt lat="43.110559014603496" lon="-9.219422014430165">
        <ele>20.399999999999999</ele>
        <time>2018-05-18T08:21:29Z</time>
      </trkpt>
      <trkpt lat="43.110560020431876" lon="-9.219425031915307">
        <ele>20.399999999999999</ele>
        <time>2018-05-18T08:21:29Z</time>
      </trkpt>
      <trkpt lat="43.110563959926367" lon="-9.219428971409798">
        <ele>20.300000000000001</ele>
        <time>2018-05-18T08:21:29Z</time>
      </trkpt>
      <trkpt lat="43.110553985461593" lon="-9.219435006380081">
        <ele>20.100000000000001</ele>
        <time>2018-05-18T08:21:29Z</time>
      </trkpt>
      <trkpt lat="43.110562032088637" lon="-9.219416985288262">
        <ele>20.5</ele>
        <time>2018-05-18T08:21:30Z</time>
      </trkpt>
      <trkpt lat="43.110563037917018" lon="-9.219415979459882">
        <ele>20.600000000000001</ele>
        <time>2018-05-18T08:21:30Z</time>
      </trkpt>
      <trkpt lat="43.110586004331708" lon="-9.219401981681585">
        <ele>20.800000000000001</ele>
        <time>2018-05-18T08:21:30Z</time>
      </trkpt>
      <trkpt lat="43.110850034281611" lon="-9.219388989731669">
        <ele>20.300000000000001</ele>
        <time>2018-05-18T08:21:38Z</time>
      </trkpt>
      <trkpt lat="43.110923040658236" lon="-9.219398964196444">
        <ele>19.800000000000001</ele>
        <time>2018-05-18T08:21:40Z</time>
      </trkpt>
      <trkpt lat="43.111061006784439" lon="-9.219383960589767">
        <ele>19.699999999999999</ele>
        <time>2018-05-18T08:21:44Z</time>
      </trkpt>
      <trkpt lat="43.111245995387435" lon="-9.219413967803121">
        <ele>18.5</ele>
        <time>2018-05-18T08:21:50Z</time>
      </trkpt>
      <trkpt lat="43.111400976777077" lon="-9.219501977786422">
        <ele>16.199999999999999</ele>
        <time>2018-05-18T08:21:55Z</time>
      </trkpt>
      <trkpt lat="43.111619995906949" lon="-9.219481023028493">
        <ele>15.9</ele>
        <time>2018-05-18T08:22:01Z</time>
      </trkpt>
      <trkpt lat="43.11185996979475" lon="-9.219330986961722">
        <ele>17.399999999999999</ele>
        <time>2018-05-18T08:22:09Z</time>
      </trkpt>
      <trkpt lat="43.112059962004423" lon="-9.219280024990439">
        <ele>17.100000000000001</ele>
        <time>2018-05-18T08:22:15Z</time>
      </trkpt>
      <trkpt lat="43.112140009179711" lon="-9.219348002225161">
        <ele>15.5</ele>
        <time>2018-05-18T08:22:18Z</time>
      </trkpt>
      <trkpt lat="43.112140009179711" lon="-9.219400975853205">
        <ele>14.9</ele>
        <time>2018-05-18T08:22:19Z</time>
      </trkpt>
      <trkpt lat="43.112088041380048" lon="-9.219847982749343">
        <ele>9.800000000000001</ele>
        <time>2018-05-18T08:22:29Z</time>
      </trkpt>
      <trkpt lat="43.1120939925313" lon="-9.219888970255852">
        <ele>9.300000000000001</ele>
        <time>2018-05-18T08:22:30Z</time>
      </trkpt>
      <trkpt lat="43.112060967832804" lon="-9.219821998849511">
        <ele>10.199999999999999</ele>
        <time>2018-05-18T08:22:32Z</time>
      </trkpt>
      <trkpt lat="43.112102961167693" lon="-9.219768019393086">
        <ele>10.699999999999999</ele>
        <time>2018-05-18T08:22:33Z</time>
      </trkpt>
      <trkpt lat="43.112077983096242" lon="-9.219896011054516">
        <ele>9.300000000000001</ele>
        <time>2018-05-18T08:22:36Z</time>
      </trkpt>
      <trkpt lat="43.112084018066525" lon="-9.219971029087901">
        <ele>8.300000000000001</ele>
        <time>2018-05-18T08:22:38Z</time>
      </trkpt>
      <trkpt lat="43.112059962004423" lon="-9.220016961917281">
        <ele>7.8</ele>
        <time>2018-05-18T08:22:39Z</time>
      </trkpt>
      <trkpt lat="43.112059039995074" lon="-9.220016961917281">
        <ele>7.8</ele>
        <time>2018-05-18T08:22:39Z</time>
      </trkpt>
      <trkpt lat="43.112055016681552" lon="-9.220022996887565">
        <ele>7.7</ele>
        <time>2018-05-18T08:22:39Z</time>
      </trkpt>
      <trkpt lat="43.112044958397746" lon="-9.220011010766029">
        <ele>7.9</ele>
        <time>2018-05-18T08:22:40Z</time>
      </trkpt>
      <trkpt lat="43.112025009468198" lon="-9.220003969967365">
        <ele>8</ele>
        <time>2018-05-18T08:22:40Z</time>
      </trkpt>
      <trkpt lat="43.112019980326295" lon="-9.220001036301255">
        <ele>8</ele>
        <time>2018-05-18T08:22:41Z</time>
      </trkpt>
      <trkpt lat="43.112016962841153" lon="-9.220005981624126">
        <ele>8</ele>
        <time>2018-05-18T08:22:41Z</time>
      </trkpt>
      <trkpt lat="43.112016962841153" lon="-9.220019979402423">
        <ele>7.8</ele>
        <time>2018-05-18T08:22:41Z</time>
      </trkpt>
      <trkpt lat="43.112016962841153" lon="-9.220016961917281">
        <ele>7.8</ele>
        <time>2018-05-18T08:22:41Z</time>
      </trkpt>
      <trkpt lat="43.112016962841153" lon="-9.220018973574042">
        <ele>7.8</ele>
        <time>2018-05-18T08:22:41Z</time>
      </trkpt>
      <trkpt lat="43.11203196644783" lon="-9.219999024644494">
        <ele>8</ele>
        <time>2018-05-18T08:22:42Z</time>
      </trkpt>
      <trkpt lat="43.112013023346663" lon="-9.220409989356995">
        <ele>3</ele>
        <time>2018-05-18T08:22:51Z</time>
      </trkpt>
      <trkpt lat="43.112016962841153" lon="-9.220410995185375">
        <ele>3</ele>
        <time>2018-05-18T08:22:51Z</time>
      </trkpt>
      <trkpt lat="43.112027021124959" lon="-9.220414012670517">
        <ele>3</ele>
        <time>2018-05-18T08:22:51Z</time>
      </trkpt>
      <trkpt lat="43.112047975882888" lon="-9.220391968265176">
        <ele>3.3</ele>
        <time>2018-05-18T08:22:52Z</time>
      </trkpt>
      <trkpt lat="43.112067002803087" lon="-9.220389034599066">
        <ele>3.3</ele>
        <time>2018-05-18T08:22:53Z</time>
      </trkpt>
      <trkpt lat="43.112088963389397" lon="-9.220388028770685">
        <ele>3.3</ele>
        <time>2018-05-18T08:22:53Z</time>
      </trkpt>
      <trkpt lat="43.112130034714937" lon="-9.220377970486879">
        <ele>3.4</ele>
        <time>2018-05-18T08:22:54Z</time>
      </trkpt>
      <trkpt lat="43.112153001129627" lon="-9.220301024615765">
        <ele>4.2</ele>
        <time>2018-05-18T08:22:56Z</time>
      </trkpt>
      <trkpt lat="43.112099021673203" lon="-9.220126010477543">
        <ele>6.4</ele>
        <time>2018-05-18T08:23:00Z</time>
      </trkpt>
      <trkpt lat="43.112129028886557" lon="-9.220056021586061">
        <ele>7.2</ele>
        <time>2018-05-18T08:23:02Z</time>
      </trkpt>
      <trkpt lat="43.112130034714937" lon="-9.220042023807764">
        <ele>7.3</ele>
        <time>2018-05-18T08:23:02Z</time>
      </trkpt>
      <trkpt lat="43.112130034714937" lon="-9.219976980239153">
        <ele>8.1</ele>
        <time>2018-05-18T08:23:04Z</time>
      </trkpt>
      <trkpt lat="43.112131040543318" lon="-9.219940016046166">
        <ele>8.5</ele>
        <time>2018-05-18T08:23:05Z</time>
      </trkpt>
      <trkpt lat="43.112111007794738" lon="-9.219901040196419">
        <ele>9.1</ele>
        <time>2018-05-18T08:23:06Z</time>
      </trkpt>
      <trkpt lat="43.112002965062857" lon="-9.219984021037817">
        <ele>8.199999999999999</ele>
        <time>2018-05-18T08:23:09Z</time>
      </trkpt>
      <trkpt lat="43.111978992819786" lon="-9.219988966360688">
        <ele>8.199999999999999</ele>
        <time>2018-05-18T08:23:10Z</time>
      </trkpt>
      <trkpt lat="43.111978992819786" lon="-9.219995001330972">
        <ele>8.1</ele>
        <time>2018-05-18T08:23:10Z</time>
      </trkpt>
      <trkpt lat="43.111987039446831" lon="-9.220018973574042">
        <ele>7.8</ele>
        <time>2018-05-18T08:23:11Z</time>
      </trkpt>
      <trkpt lat="43.11198796145618" lon="-9.220016039907932">
        <ele>7.9</ele>
        <time>2018-05-18T08:23:11Z</time>
      </trkpt>
      <trkpt lat="43.111992990598083" lon="-9.220007993280888">
        <ele>8</ele>
        <time>2018-05-18T08:23:11Z</time>
      </trkpt>
      <trkpt lat="43.112030038610101" lon="-9.220001958310604">
        <ele>8</ele>
        <time>2018-05-18T08:23:12Z</time>
      </trkpt>
      <trkpt lat="43.112058034166694" lon="-9.219998018816114">
        <ele>8</ele>
        <time>2018-05-18T08:23:13Z</time>
      </trkpt>
      <trkpt lat="43.112112013623118" lon="-9.219881007447839">
        <ele>9.300000000000001</ele>
        <time>2018-05-18T08:23:16Z</time>
      </trkpt>
      <trkpt lat="43.11211796477437" lon="-9.219613960012794">
        <ele>12.4</ele>
        <time>2018-05-18T08:23:22Z</time>
      </trkpt>
      <trkpt lat="43.11211695894599" lon="-9.219571966677904">
        <ele>12.9</ele>
        <time>2018-05-18T08:23:23Z</time>
      </trkpt>
      <trkpt lat="43.112119976431131" lon="-9.219446992501617">
        <ele>14.5</ele>
        <time>2018-05-18T08:23:26Z</time>
      </trkpt>
      <trkpt lat="43.11215803027153" lon="-9.219228979200125">
        <ele>16.800000000000001</ele>
        <time>2018-05-18T08:23:30Z</time>
      </trkpt>
      <trkpt lat="43.112183008342981" lon="-9.218892026692629">
        <ele>20.5</ele>
        <time>2018-05-18T08:23:38Z</time>
      </trkpt>
      <trkpt lat="43.112131962552667" lon="-9.218626990914345">
        <ele>22.5</ele>
        <time>2018-05-18T08:23:44Z</time>
      </trkpt>
      <trkpt lat="43.111892994493246" lon="-9.218361033126712">
        <ele>24.5</ele>
        <time>2018-05-18T08:23:53Z</time>
      </trkpt>
      <trkpt lat="43.111693002283573" lon="-9.218175960704684">
        <ele>26.600000000000001</ele>
        <time>2018-05-18T08:24:00Z</time>
      </trkpt>
      <trkpt lat="43.11142603866756" lon="-9.217958031222224">
        <ele>30.300000000000001</ele>
        <time>2018-05-18T08:24:09Z</time>
      </trkpt>
      <trkpt lat="43.111079027876258" lon="-9.217641027644277">
        <ele>31.199999999999999</ele>
        <time>2018-05-18T08:24:22Z</time>
      </trkpt>
      <trkpt lat="43.110695974901319" lon="-9.217310026288033">
        <ele>31.100000000000001</ele>
        <time>2018-05-18T08:24:35Z</time>
      </trkpt>
      <trkpt lat="43.1103549990803" lon="-9.217080026865006">
        <ele>31.5</ele>
        <time>2018-05-18T08:24:46Z</time>
      </trkpt>
      <trkpt lat="43.110051993280649" lon="-9.216920016333461">
        <ele>30.199999999999999</ele>
        <time>2018-05-18T08:24:56Z</time>
      </trkpt>
      <trkpt lat="43.109800033271313" lon="-9.216838963329792">
        <ele>29.800000000000001</ele>
        <time>2018-05-18T08:25:03Z</time>
      </trkpt>
      <trkpt lat="43.109466014429927" lon="-9.216803004965186">
        <ele>29.199999999999999</ele>
        <time>2018-05-18T08:25:13Z</time>
      </trkpt>
      <trkpt lat="43.109225034713745" lon="-9.216772997751832">
        <ele>27</ele>
        <time>2018-05-18T08:25:21Z</time>
      </trkpt>
      <trkpt lat="43.109006015583873" lon="-9.216758999973536">
        <ele>25.399999999999999</ele>
        <time>2018-05-18T08:25:27Z</time>
      </trkpt>
      <trkpt lat="43.108831001445651" lon="-9.216734021902084">
        <ele>23.899999999999999</ele>
        <time>2018-05-18T08:25:32Z</time>
      </trkpt>
      <trkpt lat="43.108608964830637" lon="-9.216695968061686">
        <ele>20.899999999999999</ele>
        <time>2018-05-18T08:25:39Z</time>
      </trkpt>
      <trkpt lat="43.108424982056022" lon="-9.216679036617279">
        <ele>18.300000000000001</ele>
        <time>2018-05-18T08:25:44Z</time>
      </trkpt>
      <trkpt lat="43.108257008716464" lon="-9.216713989153504">
        <ele>16.800000000000001</ele>
        <time>2018-05-18T08:25:49Z</time>
      </trkpt>
      <trkpt lat="43.108156006783247" lon="-9.216740978881717">
        <ele>15.800000000000001</ele>
        <time>2018-05-18T08:25:53Z</time>
      </trkpt>
      <trkpt lat="43.108030026778579" lon="-9.216777021065354">
        <ele>14.6</ele>
        <time>2018-05-18T08:25:56Z</time>
      </trkpt>
      <trkpt lat="43.107932964339852" lon="-9.21681197360158">
        <ele>13.6</ele>
        <time>2018-05-18T08:25:59Z</time>
      </trkpt>
      <trkpt lat="43.107836991548538" lon="-9.216883974149823">
        <ele>13.800000000000001</ele>
        <time>2018-05-18T08:26:03Z</time>
      </trkpt>
      <trkpt lat="43.10779700987041" lon="-9.216912975534797">
        <ele>14</ele>
        <time>2018-05-18T08:26:04Z</time>
      </trkpt>
      <trkpt lat="43.107557035982609" lon="-9.21706804074347">
        <ele>14.6</ele>
        <time>2018-05-18T08:26:12Z</time>
      </trkpt>
      <trkpt lat="43.107472965493798" lon="-9.217125959694386">
        <ele>14.699999999999999</ele>
        <time>2018-05-18T08:26:15Z</time>
      </trkpt>
      <trkpt lat="43.107326030731201" lon="-9.217145992442966">
        <ele>14.199999999999999</ele>
        <time>2018-05-18T08:26:19Z</time>
      </trkpt>
      <trkpt lat="43.107153028249741" lon="-9.21715403907001">
        <ele>13.6</ele>
        <time>2018-05-18T08:26:24Z</time>
      </trkpt>
      <trkpt lat="43.106993017718196" lon="-9.217168958857656">
        <ele>13.300000000000001</ele>
        <time>2018-05-18T08:26:29Z</time>
      </trkpt>
      <trkpt lat="43.10698002576828" lon="-9.217160996049643">
        <ele>13.199999999999999</ele>
        <time>2018-05-18T08:26:29Z</time>
      </trkpt>
      <trkpt lat="43.106960998848081" lon="-9.217141969129443">
        <ele>13.1</ele>
        <time>2018-05-18T08:26:30Z</time>
      </trkpt>
      <trkpt lat="43.10698295943439" lon="-9.2171770054847">
        <ele>13.300000000000001</ele>
        <time>2018-05-18T08:26:31Z</time>
      </trkpt>
      <trkpt lat="43.107057977467775" lon="-9.217294016852975">
        <ele>14</ele>
        <time>2018-05-18T08:26:34Z</time>
      </trkpt>
      <trkpt lat="43.107067029923201" lon="-9.217302985489368">
        <ele>14</ele>
        <time>2018-05-18T08:26:35Z</time>
      </trkpt>
      <trkpt lat="43.10710902325809" lon="-9.21734900213778">
        <ele>14.4</ele>
        <time>2018-05-18T08:26:36Z</time>
      </trkpt>
      <trkpt lat="43.107100976631045" lon="-9.217389989644289">
        <ele>14.6</ele>
        <time>2018-05-18T08:26:37Z</time>
      </trkpt>
      <trkpt lat="43.107126038521528" lon="-9.21741496771574">
        <ele>14.800000000000001</ele>
        <time>2018-05-18T08:26:38Z</time>
      </trkpt>
      <trkpt lat="43.107124026864767" lon="-9.217318994924426">
        <ele>14.300000000000001</ele>
        <time>2018-05-18T08:26:40Z</time>
      </trkpt>
      <trkpt lat="43.107087984681129" lon="-9.217255041003227">
        <ele>13.800000000000001</ele>
        <time>2018-05-18T08:26:42Z</time>
      </trkpt>
      <trkpt lat="43.106914982199669" lon="-9.217159990221262">
        <ele>13.1</ele>
        <time>2018-05-18T08:26:47Z</time>
      </trkpt>
      <trkpt lat="43.106777016073465" lon="-9.217254035174847">
        <ele>13.300000000000001</ele>
        <time>2018-05-18T08:26:52Z</time>
      </trkpt>
      <trkpt lat="43.106579035520554" lon="-9.217212963849306">
        <ele>12.800000000000001</ele>
        <time>2018-05-18T08:26:58Z</time>
      </trkpt>
      <trkpt lat="43.106384994462132" lon="-9.21719896607101">
        <ele>12.5</ele>
        <time>2018-05-18T08:27:04Z</time>
      </trkpt>
      <trkpt lat="43.106258008629084" lon="-9.217209024354816">
        <ele>12.300000000000001</ele>
        <time>2018-05-18T08:27:07Z</time>
      </trkpt>
      <trkpt lat="43.106223978102207" lon="-9.21715403907001">
        <ele>12.1</ele>
        <time>2018-05-18T08:27:09Z</time>
      </trkpt>
      <trkpt lat="43.106095986440778" lon="-9.216886991634965">
        <ele>10.4</ele>
        <time>2018-05-18T08:27:16Z</time>
      </trkpt>
      <trkpt lat="43.106061033904552" lon="-9.216800993308425">
        <ele>9.800000000000001</ele>
        <time>2018-05-18T08:27:18Z</time>
      </trkpt>
      <trkpt lat="43.106051981449127" lon="-9.216770986095071">
        <ele>9.6</ele>
        <time>2018-05-18T08:27:19Z</time>
      </trkpt>
      <trkpt lat="43.105975035578012" lon="-9.216696973890066">
        <ele>9</ele>
        <time>2018-05-18T08:27:21Z</time>
      </trkpt>
      <trkpt lat="43.105929018929601" lon="-9.216720024123788">
        <ele>9.199999999999999</ele>
        <time>2018-05-18T08:27:23Z</time>
      </trkpt>
      <trkpt lat="43.105679992586374" lon="-9.216877017170191">
        <ele>10</ele>
        <time>2018-05-18T08:27:31Z</time>
      </trkpt>
      <trkpt lat="43.10543498955667" lon="-9.21702797524631">
        <ele>10.699999999999999</ele>
        <time>2018-05-18T08:27:39Z</time>
      </trkpt>
      <trkpt lat="43.105340022593737" lon="-9.21700400300324">
        <ele>10.4</ele>
        <time>2018-05-18T08:27:42Z</time>
      </trkpt>
      <trkpt lat="43.105334993451834" lon="-9.216946000233293">
        <ele>10</ele>
        <time>2018-05-18T08:27:43Z</time>
      </trkpt>
      <trkpt lat="43.105312027037144" lon="-9.216913981363177">
        <ele>9.800000000000001</ele>
        <time>2018-05-18T08:27:44Z</time>
      </trkpt>
      <trkpt lat="43.10506702400744" lon="-9.216710971668363">
        <ele>8.5</ele>
        <time>2018-05-18T08:27:52Z</time>
      </trkpt>
      <trkpt lat="43.104796037077904" lon="-9.216589014977217">
        <ele>7.9</ele>
        <time>2018-05-18T08:28:01Z</time>
      </trkpt>
      <trkpt lat="43.104417007416487" lon="-9.216452976688743">
        <ele>7.4</ele>
        <time>2018-05-18T08:28:12Z</time>
      </trkpt>
      <trkpt lat="43.104192037135363" lon="-9.216303024441004">
        <ele>7.1</ele>
        <time>2018-05-18T08:28:20Z</time>
      </trkpt>
      <trkpt lat="43.103915015235543" lon="-9.216047963127494">
        <ele>6.7</ele>
        <time>2018-05-18T08:28:30Z</time>
      </trkpt>
      <trkpt lat="43.103588037192822" lon="-9.21558796428144">
        <ele>7.5</ele>
        <time>2018-05-18T08:28:44Z</time>
      </trkpt>
      <trkpt lat="43.103420985862613" lon="-9.215331980958581">
        <ele>9.6</ele>
        <time>2018-05-18T08:28:51Z</time>
      </trkpt>
      <trkpt lat="43.103378992527723" lon="-9.215250005945563">
        <ele>10.4</ele>
        <time>2018-05-18T08:28:53Z</time>
      </trkpt>
      <trkpt lat="43.103186963126063" lon="-9.214995028451085">
        <ele>13.1</ele>
        <time>2018-05-18T08:29:01Z</time>
      </trkpt>
      <trkpt lat="43.103103982284665" lon="-9.214876005426049">
        <ele>14.1</ele>
        <time>2018-05-18T08:29:05Z</time>
      </trkpt>
      <trkpt lat="43.103056037798524" lon="-9.214823031798005">
        <ele>14.6</ele>
        <time>2018-05-18T08:29:07Z</time>
      </trkpt>
      <trkpt lat="43.103013038635254" lon="-9.214767962694168">
        <ele>15</ele>
        <time>2018-05-18T08:29:08Z</time>
      </trkpt>
      <trkpt lat="43.10294296592474" lon="-9.21472798101604">
        <ele>15.5</ele>
        <time>2018-05-18T08:29:11Z</time>
      </trkpt>
      <trkpt lat="43.102884963154793" lon="-9.214747007936239">
        <ele>16</ele>
        <time>2018-05-18T08:29:12Z</time>
      </trkpt>
      <trkpt lat="43.102855961769819" lon="-9.214724041521549">
        <ele>16.300000000000001</ele>
        <time>2018-05-18T08:29:13Z</time>
      </trkpt>
      <trkpt lat="43.102524038404226" lon="-9.214201010763645">
        <ele>16.800000000000001</ele>
        <time>2018-05-18T08:29:28Z</time>
      </trkpt>
      <trkpt lat="43.102412978187203" lon="-9.214065978303552">
        <ele>16.699999999999999</ele>
        <time>2018-05-18T08:29:33Z</time>
      </trkpt>
      <trkpt lat="43.10223201289773" lon="-9.213932035490871">
        <ele>17.300000000000001</ele>
        <time>2018-05-18T08:29:39Z</time>
      </trkpt>
      <trkpt lat="43.101959014311433" lon="-9.213776970282197">
        <ele>17.899999999999999</ele>
        <time>2018-05-18T08:29:47Z</time>
      </trkpt>
      <trkpt lat="43.101751981303096" lon="-9.213672028854489">
        <ele>17.5</ele>
        <time>2018-05-18T08:29:54Z</time>
      </trkpt>
      <trkpt lat="43.10150396078825" lon="-9.213521992787719">
        <ele>16.399999999999999</ele>
        <time>2018-05-18T08:30:02Z</time>
      </trkpt>
      <trkpt lat="43.101279996335506" lon="-9.213406993076205">
        <ele>15.5</ele>
        <time>2018-05-18T08:30:09Z</time>
      </trkpt>
      <trkpt lat="43.101113028824329" lon="-9.213347984477878">
        <ele>14.1</ele>
        <time>2018-05-18T08:30:14Z</time>
      </trkpt>
      <trkpt lat="43.100920999422669" lon="-9.213226027786732">
        <ele>11.5</ele>
        <time>2018-05-18T08:30:20Z</time>
      </trkpt>
      <trkpt lat="43.100716983899474" lon="-9.213225021958351">
        <ele>10.6</ele>
        <time>2018-05-18T08:30:27Z</time>
      </trkpt>
      <trkpt lat="43.100522020831704" lon="-9.213273972272873">
        <ele>10.300000000000001</ele>
        <time>2018-05-18T08:30:32Z</time>
      </trkpt>
      <trkpt lat="43.100396040827036" lon="-9.21324597671628">
        <ele>9.5</ele>
        <time>2018-05-18T08:30:36Z</time>
      </trkpt>
      <trkpt lat="43.100116001442075" lon="-9.213212030008435">
        <ele>8.1</ele>
        <time>2018-05-18T08:30:44Z</time>
      </trkpt>
      <trkpt lat="43.099897988140583" lon="-9.213155033066869">
        <ele>6.8</ele>
        <time>2018-05-18T08:30:51Z</time>
      </trkpt>
      <trkpt lat="43.099711993709207" lon="-9.213126031681895">
        <ele>5.9</ele>
        <time>2018-05-18T08:30:57Z</time>
      </trkpt>
      <trkpt lat="43.099708976224065" lon="-9.213125025853515">
        <ele>5.9</ele>
        <time>2018-05-18T08:30:57Z</time>
      </trkpt>
      <trkpt lat="43.09969799593091" lon="-9.213097030296922">
        <ele>5.7</ele>
        <time>2018-05-18T08:30:57Z</time>
      </trkpt>
      <trkpt lat="43.099599005654454" lon="-9.213081020861864">
        <ele>5.2</ele>
        <time>2018-05-18T08:31:00Z</time>
      </trkpt>
      <trkpt lat="43.099368000403047" lon="-9.213018994778395">
        <ele>4.6</ele>
        <time>2018-05-18T08:31:07Z</time>
      </trkpt>
      <trkpt lat="43.099063988775015" lon="-9.212946994230151">
        <ele>4.1</ele>
        <time>2018-05-18T08:31:16Z</time>
      </trkpt>
      <trkpt lat="43.098931973800063" lon="-9.212888991460204">
        <ele>4.1</ele>
        <time>2018-05-18T08:31:20Z</time>
      </trkpt>
      <trkpt lat="43.098918981850147" lon="-9.212773991748691">
        <ele>4.5</ele>
        <time>2018-05-18T08:31:23Z</time>
      </trkpt>
      <trkpt lat="43.098908001556993" lon="-9.212553966790438">
        <ele>5.4</ele>
        <time>2018-05-18T08:31:28Z</time>
      </trkpt>
      <trkpt lat="43.099130960181355" lon="-9.212417006492615">
        <ele>6.1</ele>
        <time>2018-05-18T08:31:35Z</time>
      </trkpt>
      <trkpt lat="43.099315026775002" lon="-9.212258001789451">
        <ele>6.9</ele>
        <time>2018-05-18T08:31:41Z</time>
      </trkpt>
      <trkpt lat="43.09954795986414" lon="-9.212087010964751">
        <ele>7.9</ele>
        <time>2018-05-18T08:31:49Z</time>
      </trkpt>
      <trkpt lat="43.099699001759291" lon="-9.212010987102985">
        <ele>8.5</ele>
        <time>2018-05-18T08:31:54Z</time>
      </trkpt>
      <trkpt lat="43.099759016185999" lon="-9.21197603456676">
        <ele>8.699999999999999</ele>
        <time>2018-05-18T08:31:56Z</time>
      </trkpt>
      <trkpt lat="43.099797992035747" lon="-9.211918031796813">
        <ele>9.199999999999999</ele>
        <time>2018-05-18T08:31:58Z</time>
      </trkpt>
      <trkpt lat="43.099973006173968" lon="-9.211714016273618">
        <ele>10.300000000000001</ele>
        <time>2018-05-18T08:32:04Z</time>
      </trkpt>
      <trkpt lat="43.100067973136902" lon="-9.211442023515701">
        <ele>11.800000000000001</ele>
        <time>2018-05-18T08:32:11Z</time>
      </trkpt>
      <trkpt lat="43.100092029199004" lon="-9.211005996912718">
        <ele>13.4</ele>
        <time>2018-05-18T08:32:20Z</time>
      </trkpt>
      <trkpt lat="43.100045006722212" lon="-9.210684970021248">
        <ele>14.4</ele>
        <time>2018-05-18T08:32:28Z</time>
      </trkpt>
      <trkpt lat="43.100042995065451" lon="-9.210621016100049">
        <ele>14.5</ele>
        <time>2018-05-18T08:32:29Z</time>
      </trkpt>
      <trkpt lat="43.100032014772296" lon="-9.210608024150133">
        <ele>14.699999999999999</ele>
        <time>2018-05-18T08:32:29Z</time>
      </trkpt>
      <trkpt lat="43.100036038085818" lon="-9.210494030267">
        <ele>14.800000000000001</ele>
        <time>2018-05-18T08:32:32Z</time>
      </trkpt>
      <trkpt lat="43.100018016993999" lon="-9.210135033354163">
        <ele>13.5</ele>
        <time>2018-05-18T08:32:40Z</time>
      </trkpt>
      <trkpt lat="43.099906034767628" lon="-9.209709987044334">
        <ele>12.5</ele>
        <time>2018-05-18T08:32:49Z</time>
      </trkpt>
      <trkpt lat="43.099803021177649" lon="-9.209502032026649">
        <ele>12.6</ele>
        <time>2018-05-18T08:32:55Z</time>
      </trkpt>
      <trkpt lat="43.099754992872477" lon="-9.20946498401463">
        <ele>13</ele>
        <time>2018-05-18T08:32:56Z</time>
      </trkpt>
      <trkpt lat="43.099705036729574" lon="-9.209357025101781">
        <ele>12.9</ele>
        <time>2018-05-18T08:32:59Z</time>
      </trkpt>
      <trkpt lat="43.099650973454118" lon="-9.208890991285443">
        <ele>10.300000000000001</ele>
        <time>2018-05-18T08:33:09Z</time>
      </trkpt>
      <trkpt lat="43.099702019244432" lon="-9.208623021841049">
        <ele>9.1</ele>
        <time>2018-05-18T08:33:15Z</time>
      </trkpt>
      <trkpt lat="43.099725991487503" lon="-9.208297971636057">
        <ele>9.5</ele>
        <time>2018-05-18T08:33:22Z</time>
      </trkpt>
      <trkpt lat="43.099671006202698" lon="-9.208212979137898">
        <ele>10.300000000000001</ele>
        <time>2018-05-18T08:33:25Z</time>
      </trkpt>
      <trkpt lat="43.099618032574654" lon="-9.208295959979296">
        <ele>10.699999999999999</ele>
        <time>2018-05-18T08:33:27Z</time>
      </trkpt>
      <trkpt lat="43.099639993160963" lon="-9.208294032141566">
        <ele>10.5</ele>
        <time>2018-05-18T08:33:28Z</time>
      </trkpt>
      <trkpt lat="43.09967502951622" lon="-9.208253966644406">
        <ele>10.199999999999999</ele>
        <time>2018-05-18T08:33:29Z</time>
      </trkpt>
      <trkpt lat="43.099734038114548" lon="-9.208278022706509">
        <ele>9.5</ele>
        <time>2018-05-18T08:33:31Z</time>
      </trkpt>
      <trkpt lat="43.099736971780658" lon="-9.208415988832712">
        <ele>9.199999999999999</ele>
        <time>2018-05-18T08:33:34Z</time>
      </trkpt>
      <trkpt lat="43.099737977609038" lon="-9.208430992439389">
        <ele>9.1</ele>
        <time>2018-05-18T08:33:34Z</time>
      </trkpt>
      <trkpt lat="43.099736971780658" lon="-9.208450019359589">
        <ele>9.1</ele>
        <time>2018-05-18T08:33:35Z</time>
      </trkpt>
      <trkpt lat="43.099733032286167" lon="-9.208316998556256">
        <ele>9.4</ele>
        <time>2018-05-18T08:33:38Z</time>
      </trkpt>
      <trkpt lat="43.099695984274149" lon="-9.208231000229716">
        <ele>10</ele>
        <time>2018-05-18T08:33:40Z</time>
      </trkpt>
      <trkpt lat="43.099664971232414" lon="-9.208210967481136">
        <ele>10.4</ele>
        <time>2018-05-18T08:33:41Z</time>
      </trkpt>
      <trkpt lat="43.099492974579334" lon="-9.207992032170296">
        <ele>13.199999999999999</ele>
        <time>2018-05-18T08:33:48Z</time>
      </trkpt>
      <trkpt lat="43.099335981532931" lon="-9.207677040249109">
        <ele>19.100000000000001</ele>
        <time>2018-05-18T08:33:56Z</time>
      </trkpt>
      <trkpt lat="43.099466990679502" lon="-9.207227015867829">
        <ele>22.199999999999999</ele>
        <time>2018-05-18T08:34:07Z</time>
      </trkpt>
      <trkpt lat="43.099537985399365" lon="-9.206958040595055">
        <ele>23.199999999999999</ele>
        <time>2018-05-18T08:34:13Z</time>
      </trkpt>
      <trkpt lat="43.099537985399365" lon="-9.206812027841806">
        <ele>24.5</ele>
        <time>2018-05-18T08:34:16Z</time>
      </trkpt>
      <trkpt lat="43.099620966240764" lon="-9.206356974318624">
        <ele>26.399999999999999</ele>
        <time>2018-05-18T08:34:26Z</time>
      </trkpt>
      <trkpt lat="43.099604034796357" lon="-9.206159999594092">
        <ele>28.300000000000001</ele>
        <time>2018-05-18T08:34:30Z</time>
      </trkpt>
      <trkpt lat="43.099596993997693" lon="-9.206122029572725">
        <ele>28.699999999999999</ele>
        <time>2018-05-18T08:34:31Z</time>
      </trkpt>
      <trkpt lat="43.09961199760437" lon="-9.205922037363052">
        <ele>29.899999999999999</ele>
        <time>2018-05-18T08:34:36Z</time>
      </trkpt>
      <trkpt lat="43.099620966240764" lon="-9.205908961594105">
        <ele>29.899999999999999</ele>
        <time>2018-05-18T08:34:36Z</time>
      </trkpt>
      <trkpt lat="43.099751975387335" lon="-9.205794967710972">
        <ele>28.899999999999999</ele>
        <time>2018-05-18T08:34:41Z</time>
      </trkpt>
      <trkpt lat="43.099766978994012" lon="-9.205780969932675">
        <ele>28.800000000000001</ele>
        <time>2018-05-18T08:34:41Z</time>
      </trkpt>
      <trkpt lat="43.099743006750941" lon="-9.205704024061561">
        <ele>29.800000000000001</ele>
        <time>2018-05-18T08:34:43Z</time>
      </trkpt>
      <trkpt lat="43.099749041721225" lon="-9.205705029889941">
        <ele>29.699999999999999</ele>
        <time>2018-05-18T08:34:43Z</time>
      </trkpt>
      <trkpt lat="43.099704030901194" lon="-9.205647027119994">
        <ele>30.800000000000001</ele>
        <time>2018-05-18T08:34:45Z</time>
      </trkpt>
      <trkpt lat="43.099688021466136" lon="-9.205646021291614">
        <ele>31</ele>
        <time>2018-05-18T08:34:46Z</time>
      </trkpt>
      <trkpt lat="43.099645022302866" lon="-9.20563998632133">
        <ele>31.600000000000001</ele>
        <time>2018-05-18T08:34:47Z</time>
      </trkpt>
      <trkpt lat="43.099480988457799" lon="-9.205561028793454">
        <ele>35.5</ele>
        <time>2018-05-18T08:34:52Z</time>
      </trkpt>
      <trkpt lat="43.099409993737936" lon="-9.205491039901972">
        <ele>37.700000000000003</ele>
        <time>2018-05-18T08:34:55Z</time>
      </trkpt>
      <trkpt lat="43.099291976541281" lon="-9.205410992726684">
        <ele>41</ele>
        <time>2018-05-18T08:34:59Z</time>
      </trkpt>
      <trkpt lat="43.099170019850135" lon="-9.205344021320343">
        <ele>44.5</ele>
        <time>2018-05-18T08:35:03Z</time>
      </trkpt>
      <trkpt lat="43.099050996825099" lon="-9.205265985801816">
        <ele>47.700000000000003</ele>
        <time>2018-05-18T08:35:07Z</time>
      </trkpt>
      <trkpt lat="43.098939014598727" lon="-9.205279983580113">
        <ele>50</ele>
        <time>2018-05-18T08:35:10Z</time>
      </trkpt>
      <trkpt lat="43.098846981301904" lon="-9.205256011337042">
        <ele>52.100000000000001</ele>
        <time>2018-05-18T08:35:13Z</time>
      </trkpt>
      <trkpt lat="43.098756037652493" lon="-9.20520999468863">
        <ele>54.100000000000001</ele>
        <time>2018-05-18T08:35:16Z</time>
      </trkpt>
      <trkpt lat="43.098743967711926" lon="-9.205180993303657">
        <ele>54.399999999999999</ele>
        <time>2018-05-18T08:35:17Z</time>
      </trkpt>
      <trkpt lat="43.098742039874196" lon="-9.205176969990134">
        <ele>54.399999999999999</ele>
        <time>2018-05-18T08:35:17Z</time>
      </trkpt>
      <trkpt lat="43.09877498075366" lon="-9.205138999968767">
        <ele>53.799999999999997</ele>
        <time>2018-05-18T08:35:18Z</time>
      </trkpt>
      <trkpt lat="43.098710021004081" lon="-9.205129025503993">
        <ele>55</ele>
        <time>2018-05-18T08:35:20Z</time>
      </trkpt>
      <trkpt lat="43.098538024351001" lon="-9.205180993303657">
        <ele>58</ele>
        <time>2018-05-18T08:35:25Z</time>
      </trkpt>
      <trkpt lat="43.098259996622801" lon="-9.205257017165422">
        <ele>63.200000000000003</ele>
        <time>2018-05-18T08:35:34Z</time>
      </trkpt>
      <trkpt lat="43.098154971376061" lon="-9.205244025215507">
        <ele>65</ele>
        <time>2018-05-18T08:35:37Z</time>
      </trkpt>
      <trkpt lat="43.098061010241508" lon="-9.205218041315675">
        <ele>66.5</ele>
        <time>2018-05-18T08:35:40Z</time>
      </trkpt>
      <trkpt lat="43.098019016906619" lon="-9.205198008567095">
        <ele>67.099999999999994</ele>
        <time>2018-05-18T08:35:41Z</time>
      </trkpt>
      <trkpt lat="43.097861018031836" lon="-9.205148974433541">
        <ele>69.099999999999994</ele>
        <time>2018-05-18T08:35:46Z</time>
      </trkpt>
      <trkpt lat="43.097697990015149" lon="-9.205133970826864">
        <ele>70.799999999999997</ele>
        <time>2018-05-18T08:35:51Z</time>
      </trkpt>
      <trkpt lat="43.097505960613489" lon="-9.205174958333373">
        <ele>73.299999999999997</ele>
        <time>2018-05-18T08:35:56Z</time>
      </trkpt>
      <trkpt lat="43.097254000604153" lon="-9.205365981906653">
        <ele>77.099999999999994</ele>
        <time>2018-05-18T08:36:05Z</time>
      </trkpt>
      <trkpt lat="43.097171019762754" lon="-9.205440999940038">
        <ele>78</ele>
        <time>2018-05-18T08:36:08Z</time>
      </trkpt>
      <trkpt lat="43.097087033092976" lon="-9.20557402074337">
        <ele>78</ele>
        <time>2018-05-18T08:36:12Z</time>
      </trkpt>
      <trkpt lat="43.096987958997488" lon="-9.205686002969742">
        <ele>77.799999999999997</ele>
        <time>2018-05-18T08:36:16Z</time>
      </trkpt>
      <trkpt lat="43.096648994833231" lon="-9.205819023773074">
        <ele>78.700000000000003</ele>
        <time>2018-05-18T08:36:26Z</time>
      </trkpt>
      <trkpt lat="43.096575988456607" lon="-9.205748029053211">
        <ele>79.400000000000006</ele>
        <time>2018-05-18T08:36:29Z</time>
      </trkpt>
      <trkpt lat="43.096498036757112" lon="-9.205376040190458">
        <ele>81.700000000000003</ele>
        <time>2018-05-18T08:36:37Z</time>
      </trkpt>
      <trkpt lat="43.096441961824894" lon="-9.20510002411902">
        <ele>81.200000000000003</ele>
        <time>2018-05-18T08:36:43Z</time>
      </trkpt>
      <trkpt lat="43.09632302261889" lon="-9.204785032197833">
        <ele>81.099999999999994</ele>
        <time>2018-05-18T08:36:51Z</time>
      </trkpt>
      <trkpt lat="43.096245992928743" lon="-9.204599959775806">
        <ele>81</ele>
        <time>2018-05-18T08:36:55Z</time>
      </trkpt>
      <trkpt lat="43.096128981560469" lon="-9.204337019473314">
        <ele>80.5</ele>
        <time>2018-05-18T08:37:02Z</time>
      </trkpt>
      <trkpt lat="43.096010964363813" lon="-9.204044993966818">
        <ele>79.900000000000006</ele>
        <time>2018-05-18T08:37:09Z</time>
      </trkpt>
      <trkpt lat="43.09593603014946" lon="-9.203967964276671">
        <ele>79.799999999999997</ele>
        <time>2018-05-18T08:37:12Z</time>
      </trkpt>
      <trkpt lat="43.095890013501048" lon="-9.203929994255304">
        <ele>79.799999999999997</ele>
        <time>2018-05-18T08:37:14Z</time>
      </trkpt>
      <trkpt lat="43.095503021031618" lon="-9.203669987618923">
        <ele>80.099999999999994</ele>
        <time>2018-05-18T08:37:26Z</time>
      </trkpt>
      <trkpt lat="43.095468990504742" lon="-9.203650038689375">
        <ele>80.299999999999997</ele>
        <time>2018-05-18T08:37:28Z</time>
      </trkpt>
      <trkpt lat="43.095246031880379" lon="-9.203581977635622">
        <ele>82.299999999999997</ele>
        <time>2018-05-18T08:37:34Z</time>
      </trkpt>
      <trkpt lat="43.095075041055679" lon="-9.203529004007578">
        <ele>84</ele>
        <time>2018-05-18T08:37:39Z</time>
      </trkpt>
      <trkpt lat="43.094978984445333" lon="-9.203477036207914">
        <ele>85</ele>
        <time>2018-05-18T08:37:43Z</time>
      </trkpt>
      <trkpt lat="43.094835989177227" lon="-9.203521041199565">
        <ele>86.299999999999997</ele>
        <time>2018-05-18T08:37:47Z</time>
      </trkpt>
      <trkpt lat="43.094612024724483" lon="-9.203890012577176">
        <ele>88.200000000000003</ele>
        <time>2018-05-18T08:37:57Z</time>
      </trkpt>
      <trkpt lat="43.094496019184589" lon="-9.204008029773831">
        <ele>88.400000000000006</ele>
        <time>2018-05-18T08:38:02Z</time>
      </trkpt>
      <trkpt lat="43.094274988397956" lon="-9.203923959285021">
        <ele>89.5</ele>
        <time>2018-05-18T08:38:08Z</time>
      </trkpt>
      <trkpt lat="43.094098968431354" lon="-9.203846007585526">
        <ele>90.400000000000006</ele>
        <time>2018-05-18T08:38:14Z</time>
      </trkpt>
      <trkpt lat="43.093669982627034" lon="-9.203710975125432">
        <ele>92.5</ele>
        <time>2018-05-18T08:38:27Z</time>
      </trkpt>
      <trkpt lat="43.093493962660432" lon="-9.203703012317419">
        <ele>93.099999999999994</ele>
        <time>2018-05-18T08:38:32Z</time>
      </trkpt>
      <trkpt lat="43.093192968517542" lon="-9.203714998438954">
        <ele>93.799999999999997</ele>
        <time>2018-05-18T08:38:41Z</time>
      </trkpt>
      <trkpt lat="43.0927789863199" lon="-9.20372698456049">
        <ele>94.5</ele>
        <time>2018-05-18T08:38:53Z</time>
      </trkpt>
      <trkpt lat="43.092304989695549" lon="-9.203730002045631">
        <ele>95</ele>
        <time>2018-05-18T08:39:07Z</time>
      </trkpt>
      <trkpt lat="43.09213500469923" lon="-9.20376998372376">
        <ele>94.700000000000003</ele>
        <time>2018-05-18T08:39:12Z</time>
      </trkpt>
      <trkpt lat="43.091804003342986" lon="-9.203837038949132">
        <ele>94.299999999999997</ele>
        <time>2018-05-18T08:39:22Z</time>
      </trkpt>
      <trkpt lat="43.091703001409769" lon="-9.203852964565158">
        <ele>94.299999999999997</ele>
        <time>2018-05-18T08:39:25Z</time>
      </trkpt>
      <trkpt lat="43.091535028070211" lon="-9.203836033120751">
        <ele>94.900000000000006</ele>
        <time>2018-05-18T08:39:30Z</time>
      </trkpt>
      <trkpt lat="43.091478031128645" lon="-9.203835027292371">
        <ele>95.099999999999994</ele>
        <time>2018-05-18T08:39:32Z</time>
      </trkpt>
      <trkpt lat="43.091120040044188" lon="-9.203823041170836">
        <ele>96.200000000000003</ele>
        <time>2018-05-18T08:39:42Z</time>
      </trkpt>
      <trkpt lat="43.09065300039947" lon="-9.203798985108733">
        <ele>98.200000000000003</ele>
        <time>2018-05-18T08:39:56Z</time>
      </trkpt>
      <trkpt lat="43.090428030118346" lon="-9.203723967075348">
        <ele>100.3</ele>
        <time>2018-05-18T08:40:03Z</time>
      </trkpt>
      <trkpt lat="43.090261984616518" lon="-9.203636962920427">
        <ele>101.2</ele>
        <time>2018-05-18T08:40:08Z</time>
      </trkpt>
      <trkpt lat="43.090189984068274" lon="-9.203593963757157">
        <ele>101.59999999999999</ele>
        <time>2018-05-18T08:40:11Z</time>
      </trkpt>
      <trkpt lat="43.090124018490314" lon="-9.20355498790741">
        <ele>101.90000000000001</ele>
        <time>2018-05-18T08:40:13Z</time>
      </trkpt>
      <trkpt lat="43.08996501378715" lon="-9.203392965719104">
        <ele>103.59999999999999</ele>
        <time>2018-05-18T08:40:19Z</time>
      </trkpt>
      <trkpt lat="43.089773990213871" lon="-9.203142011538148">
        <ele>106.09999999999999</ele>
        <time>2018-05-18T08:40:27Z</time>
      </trkpt>
      <trkpt lat="43.089743983000517" lon="-9.203089037910104">
        <ele>106.59999999999999</ele>
        <time>2018-05-18T08:40:28Z</time>
      </trkpt>
      <trkpt lat="43.089666031301022" lon="-9.203003961592913">
        <ele>107.3</ele>
        <time>2018-05-18T08:40:31Z</time>
      </trkpt>
      <trkpt lat="43.089547008275986" lon="-9.202923998236656">
        <ele>107.7</ele>
        <time>2018-05-18T08:40:35Z</time>
      </trkpt>
      <trkpt lat="43.089397978037596" lon="-9.202873036265373">
        <ele>107.09999999999999</ele>
        <time>2018-05-18T08:40:39Z</time>
      </trkpt>
      <trkpt lat="43.089264035224915" lon="-9.202833976596594">
        <ele>106.40000000000001</ele>
        <time>2018-05-18T08:40:44Z</time>
      </trkpt>
      <trkpt lat="43.089118022471666" lon="-9.202757030725479">
        <ele>105.5</ele>
        <time>2018-05-18T08:40:48Z</time>
      </trkpt>
      <trkpt lat="43.0889349617064" lon="-9.202642031013966">
        <ele>104.2</ele>
        <time>2018-05-18T08:40:54Z</time>
      </trkpt>
      <trkpt lat="43.088780986145139" lon="-9.202522002160549">
        <ele>102.8</ele>
        <time>2018-05-18T08:40:59Z</time>
      </trkpt>
      <trkpt lat="43.088670009747148" lon="-9.202399039641023">
        <ele>101.8</ele>
        <time>2018-05-18T08:41:04Z</time>
      </trkpt>
      <trkpt lat="43.088505975902081" lon="-9.202231988310814">
        <ele>100</ele>
        <time>2018-05-18T08:41:10Z</time>
      </trkpt>
      <trkpt lat="43.088393993675709" lon="-9.202098967507482">
        <ele>98.599999999999994</ele>
        <time>2018-05-18T08:41:14Z</time>
      </trkpt>
      <trkpt lat="43.088261978700757" lon="-9.201935017481446">
        <ele>96.599999999999994</ele>
        <time>2018-05-18T08:41:19Z</time>
      </trkpt>
      <trkpt lat="43.088201964274049" lon="-9.201891012489796">
        <ele>95.700000000000003</ele>
        <time>2018-05-18T08:41:21Z</time>
      </trkpt>
      <trkpt lat="43.088071038946509" lon="-9.20177198946476">
        <ele>93.599999999999994</ele>
        <time>2018-05-18T08:41:26Z</time>
      </trkpt>
      <trkpt lat="43.087929971516132" lon="-9.20164299197495">
        <ele>91</ele>
        <time>2018-05-18T08:41:31Z</time>
      </trkpt>
      <trkpt lat="43.087903987616301" lon="-9.201624970883131">
        <ele>90.599999999999994</ele>
        <time>2018-05-18T08:41:32Z</time>
      </trkpt>
      <trkpt lat="43.087836010381579" lon="-9.201717004179955">
        <ele>90.599999999999994</ele>
        <time>2018-05-18T08:41:35Z</time>
      </trkpt>
      <trkpt lat="43.087798962369561" lon="-9.201895035803318">
        <ele>91.400000000000006</ele>
        <time>2018-05-18T08:41:39Z</time>
      </trkpt>
      <trkpt lat="43.087745988741517" lon="-9.201938034966588">
        <ele>91.099999999999994</ele>
        <time>2018-05-18T08:41:41Z</time>
      </trkpt>
      <trkpt lat="43.087616991251707" lon="-9.202033001929522">
        <ele>90.200000000000003</ele>
        <time>2018-05-18T08:41:45Z</time>
      </trkpt>
      <trkpt lat="43.087609028443694" lon="-9.202038031071425">
        <ele>90.099999999999994</ele>
        <time>2018-05-18T08:41:45Z</time>
      </trkpt>
      <trkpt lat="43.087574997916818" lon="-9.202071977779269">
        <ele>89.900000000000006</ele>
        <time>2018-05-18T08:41:46Z</time>
      </trkpt>
      <trkpt lat="43.087494028732181" lon="-9.202084969729185">
        <ele>88.900000000000006</ele>
        <time>2018-05-18T08:41:49Z</time>
      </trkpt>
      <trkpt lat="43.087352039292455" lon="-9.202184965834022">
        <ele>87.700000000000003</ele>
        <time>2018-05-18T08:41:54Z</time>
      </trkpt>
      <trkpt lat="43.087176019325852" lon="-9.202316980808973">
        <ele>86</ele>
        <time>2018-05-18T08:42:00Z</time>
      </trkpt>
      <trkpt lat="43.087109969928861" lon="-9.202333996072412">
        <ele>85.200000000000003</ele>
        <time>2018-05-18T08:42:02Z</time>
      </trkpt>
      <trkpt lat="43.0869369674474" lon="-9.20241798274219">
        <ele>83.299999999999997</ele>
        <time>2018-05-18T08:42:07Z</time>
      </trkpt>
      <trkpt lat="43.086846023797989" lon="-9.20250297524035">
        <ele>82.5</ele>
        <time>2018-05-18T08:42:10Z</time>
      </trkpt>
      <trkpt lat="43.086700011044741" lon="-9.202591991052032">
        <ele>81.299999999999997</ele>
        <time>2018-05-18T08:42:15Z</time>
      </trkpt>
      <trkpt lat="43.086543017998338" lon="-9.202680001035333">
        <ele>80</ele>
        <time>2018-05-18T08:42:20Z</time>
      </trkpt>
      <trkpt lat="43.086405973881483" lon="-9.202731968834996">
        <ele>78.900000000000006</ele>
        <time>2018-05-18T08:42:24Z</time>
      </trkpt>
      <trkpt lat="43.086224002763629" lon="-9.202730040997267">
        <ele>77</ele>
        <time>2018-05-18T08:42:30Z</time>
      </trkpt>
      <trkpt lat="43.085952010005713" lon="-9.202649993821979">
        <ele>73.799999999999997</ele>
        <time>2018-05-18T08:42:38Z</time>
      </trkpt>
      <trkpt lat="43.085764003917575" lon="-9.202546980232">
        <ele>71.099999999999994</ele>
        <time>2018-05-18T08:42:44Z</time>
      </trkpt>
      <trkpt lat="43.085531992837787" lon="-9.202453019097447">
        <ele>68</ele>
        <time>2018-05-18T08:42:51Z</time>
      </trkpt>
      <trkpt lat="43.08549796231091" lon="-9.202335001900792">
        <ele>66.5</ele>
        <time>2018-05-18T08:42:54Z</time>
      </trkpt>
      <trkpt lat="43.085510032251477" lon="-9.202310023829341">
        <ele>66.299999999999997</ele>
        <time>2018-05-18T08:42:55Z</time>
      </trkpt>
      <trkpt lat="43.08562302030623" lon="-9.201957983896136">
        <ele>64.799999999999997</ele>
        <time>2018-05-18T08:43:03Z</time>
      </trkpt>
      <trkpt lat="43.085612962022424" lon="-9.201684985309839">
        <ele>64.400000000000006</ele>
        <time>2018-05-18T08:43:09Z</time>
      </trkpt>
      <trkpt lat="43.085556970909238" lon="-9.201573003083468">
        <ele>63.299999999999997</ele>
        <time>2018-05-18T08:43:12Z</time>
      </trkpt>
      <trkpt lat="43.08543099090457" lon="-9.201390026137233">
        <ele>60.799999999999997</ele>
        <time>2018-05-18T08:43:17Z</time>
      </trkpt>
      <trkpt lat="43.085332000628114" lon="-9.200941007584333">
        <ele>57.600000000000001</ele>
        <time>2018-05-18T08:43:27Z</time>
      </trkpt>
      <trkpt lat="43.085296964272857" lon="-9.200627021491528">
        <ele>56.100000000000001</ele>
        <time>2018-05-18T08:43:34Z</time>
      </trkpt>
      <trkpt lat="43.085272992029786" lon="-9.200449995696545">
        <ele>55.200000000000003</ele>
        <time>2018-05-18T08:43:38Z</time>
      </trkpt>
      <trkpt lat="43.085285983979702" lon="-9.200429040938616">
        <ele>55.399999999999999</ele>
        <time>2018-05-18T08:43:39Z</time>
      </trkpt>
      <trkpt lat="43.085276009514928" lon="-9.200425017625094">
        <ele>55.200000000000003</ele>
        <time>2018-05-18T08:43:39Z</time>
      </trkpt>
      <trkpt lat="43.085263017565012" lon="-9.200401967391372">
        <ele>54.899999999999999</ele>
        <time>2018-05-18T08:43:40Z</time>
      </trkpt>
      <trkpt lat="43.085225969552994" lon="-9.200128968805075">
        <ele>54.100000000000001</ele>
        <time>2018-05-18T08:43:46Z</time>
      </trkpt>
      <trkpt lat="43.085199985653162" lon="-9.1997080296278">
        <ele>53.600000000000001</ele>
        <time>2018-05-18T08:43:55Z</time>
      </trkpt>
      <trkpt lat="43.085264023393393" lon="-9.199514994397759">
        <ele>54.399999999999999</ele>
        <time>2018-05-18T08:43:59Z</time>
      </trkpt>
      <trkpt lat="43.08527902700007" lon="-9.199496973305941">
        <ele>54.600000000000001</ele>
        <time>2018-05-18T08:44:00Z</time>
      </trkpt>
      <trkpt lat="43.085321020334959" lon="-9.199463026598096">
        <ele>55.200000000000003</ele>
        <time>2018-05-18T08:44:01Z</time>
      </trkpt>
      <trkpt lat="43.085277015343308" lon="-9.199439976364374">
        <ele>54.200000000000003</ele>
        <time>2018-05-18T08:44:03Z</time>
      </trkpt>
      <trkpt lat="43.085167966783047" lon="-9.199484987184405">
        <ele>52.299999999999997</ele>
        <time>2018-05-18T08:44:06Z</time>
      </trkpt>
      <trkpt lat="43.085127985104918" lon="-9.199537038803101">
        <ele>51.799999999999997</ele>
        <time>2018-05-18T08:44:08Z</time>
      </trkpt>
      <trkpt lat="43.085096972063184" lon="-9.199555981904268">
        <ele>51.299999999999997</ele>
        <time>2018-05-18T08:44:09Z</time>
      </trkpt>
      <trkpt lat="43.085069982334971" lon="-9.199656983837485">
        <ele>50.899999999999999</ele>
        <time>2018-05-18T08:44:11Z</time>
      </trkpt>
      <trkpt lat="43.084962023422122" lon="-9.199775001034141">
        <ele>48.700000000000003</ele>
        <time>2018-05-18T08:44:15Z</time>
      </trkpt>
      <trkpt lat="43.08497803285718" lon="-9.199765026569367">
        <ele>49.100000000000001</ele>
        <time>2018-05-18T08:44:16Z</time>
      </trkpt>
      <trkpt lat="43.08491600677371" lon="-9.199728984385729">
        <ele>47.799999999999997</ele>
        <time>2018-05-18T08:44:18Z</time>
      </trkpt>
      <trkpt lat="43.084911983460188" lon="-9.199742982164025">
        <ele>47.700000000000003</ele>
        <time>2018-05-18T08:44:18Z</time>
      </trkpt>
      <trkpt lat="43.084982978180051" lon="-9.19975396245718">
        <ele>49.200000000000003</ele>
        <time>2018-05-18T08:44:20Z</time>
      </trkpt>
      <trkpt lat="43.085080962628126" lon="-9.199625970795751">
        <ele>51.200000000000003</ele>
        <time>2018-05-18T08:44:24Z</time>
      </trkpt>
      <trkpt lat="43.085175007581711" lon="-9.199483981356025">
        <ele>52.399999999999999</ele>
        <time>2018-05-18T08:44:29Z</time>
      </trkpt>
      <trkpt lat="43.085276009514928" lon="-9.199350960552692">
        <ele>53.600000000000001</ele>
        <time>2018-05-18T08:44:33Z</time>
      </trkpt>
      <trkpt lat="43.085347004234791" lon="-9.199226992204785">
        <ele>54.100000000000001</ele>
        <time>2018-05-18T08:44:36Z</time>
      </trkpt>
      <trkpt lat="43.08541196398437" lon="-9.199062958359718">
        <ele>54.200000000000003</ele>
        <time>2018-05-18T08:44:40Z</time>
      </trkpt>
      <trkpt lat="43.085456974804401" lon="-9.19889003969729">
        <ele>53.700000000000003</ele>
        <time>2018-05-18T08:44:44Z</time>
      </trkpt>
      <trkpt lat="43.085511960089207" lon="-9.198714019730687">
        <ele>52.799999999999997</ele>
        <time>2018-05-18T08:44:48Z</time>
      </trkpt>
      <trkpt lat="43.085569962859154" lon="-9.198617963120341">
        <ele>52.200000000000003</ele>
        <time>2018-05-18T08:44:51Z</time>
      </trkpt>
      <trkpt lat="43.085612962022424" lon="-9.198513021692634">
        <ele>51.200000000000003</ele>
        <time>2018-05-18T08:44:54Z</time>
      </trkpt>
      <trkpt lat="43.085631988942623" lon="-9.198469016700983">
        <ele>50.799999999999997</ele>
        <time>2018-05-18T08:44:55Z</time>
      </trkpt>
      <trkpt lat="43.085647998377681" lon="-9.19844102114439">
        <ele>50.600000000000001</ele>
        <time>2018-05-18T08:44:55Z</time>
      </trkpt>
      <trkpt lat="43.08566995896399" lon="-9.198385030031204">
        <ele>50</ele>
        <time>2018-05-18T08:44:57Z</time>
      </trkpt>
      <trkpt lat="43.085786970332265" lon="-9.198227031156421">
        <ele>49</ele>
        <time>2018-05-18T08:45:02Z</time>
      </trkpt>
      <trkpt lat="43.085828963667154" lon="-9.198150001466274">
        <ele>48.200000000000003</ele>
        <time>2018-05-18T08:45:04Z</time>
      </trkpt>
      <trkpt lat="43.085841033607721" lon="-9.198095016181469">
        <ele>47.5</ele>
        <time>2018-05-18T08:45:05Z</time>
      </trkpt>
      <trkpt lat="43.085841033607721" lon="-9.19796803034842">
        <ele>45.399999999999999</ele>
        <time>2018-05-18T08:45:08Z</time>
      </trkpt>
      <trkpt lat="43.085845978930593" lon="-9.197912039235234">
        <ele>44.600000000000001</ele>
        <time>2018-05-18T08:45:09Z</time>
      </trkpt>
      <trkpt lat="43.085870034992695" lon="-9.197794022038579">
        <ele>43.399999999999999</ele>
        <time>2018-05-18T08:45:12Z</time>
      </trkpt>
      <trkpt lat="43.085948992520571" lon="-9.197671981528401">
        <ele>42.700000000000003</ele>
        <time>2018-05-18T08:45:15Z</time>
      </trkpt>
      <trkpt lat="43.086009006947279" lon="-9.19764599762857">
        <ele>43</ele>
        <time>2018-05-18T08:45:17Z</time>
      </trkpt>
      <trkpt lat="43.086112020537257" lon="-9.197611967101693">
        <ele>43.600000000000001</ele>
        <time>2018-05-18T08:45:20Z</time>
      </trkpt>
      <trkpt lat="43.086197013035417" lon="-9.197527980431914">
        <ele>43.399999999999999</ele>
        <time>2018-05-18T08:45:23Z</time>
      </trkpt>
      <trkpt lat="43.086251998320222" lon="-9.197481963783503">
        <ele>43.299999999999997</ele>
        <time>2018-05-18T08:45:25Z</time>
      </trkpt>
      <trkpt lat="43.086299020797014" lon="-9.197379034012556">
        <ele>42</ele>
        <time>2018-05-18T08:45:28Z</time>
      </trkpt>
      <trkpt lat="43.086297009140253" lon="-9.197356989607215">
        <ele>41.700000000000003</ele>
        <time>2018-05-18T08:45:28Z</time>
      </trkpt>
      <trkpt lat="43.086335984990001" lon="-9.1971730068326">
        <ele>39.299999999999997</ele>
        <time>2018-05-18T08:45:33Z</time>
      </trkpt>
      <trkpt lat="43.086345959454775" lon="-9.197038980200887">
        <ele>37.5</ele>
        <time>2018-05-18T08:45:36Z</time>
      </trkpt>
      <trkpt lat="43.08633497916162" lon="-9.19695901684463">
        <ele>36.299999999999997</ele>
        <time>2018-05-18T08:45:37Z</time>
      </trkpt>
      <trkpt lat="43.086285023018718" lon="-9.196844017133117">
        <ele>34.600000000000001</ele>
        <time>2018-05-18T08:45:40Z</time>
      </trkpt>
      <trkpt lat="43.08622500859201" lon="-9.196683000773192">
        <ele>32.100000000000001</ele>
        <time>2018-05-18T08:45:44Z</time>
      </trkpt>
      <trkpt lat="43.086215034127235" lon="-9.196669002994895">
        <ele>31.800000000000001</ele>
        <time>2018-05-18T08:45:45Z</time>
      </trkpt>
      <trkpt lat="43.086138004437089" lon="-9.196531036868691">
        <ele>29.399999999999999</ele>
        <time>2018-05-18T08:45:48Z</time>
      </trkpt>
      <trkpt lat="43.08605401776731" lon="-9.196385024115443">
        <ele>26.899999999999999</ele>
        <time>2018-05-18T08:45:53Z</time>
      </trkpt>
      <trkpt lat="43.086000960320234" lon="-9.196279998868704">
        <ele>25.199999999999999</ele>
        <time>2018-05-18T08:45:55Z</time>
      </trkpt>
      <trkpt lat="43.085971958935261" lon="-9.196223001927137">
        <ele>24.399999999999999</ele>
        <time>2018-05-18T08:45:57Z</time>
      </trkpt>
      <trkpt lat="43.085961984470487" lon="-9.19622803106904">
        <ele>24.399999999999999</ele>
        <time>2018-05-18T08:45:57Z</time>
      </trkpt>
      <trkpt lat="43.085919991135597" lon="-9.196180002763867">
        <ele>23.600000000000001</ele>
        <time>2018-05-18T08:45:59Z</time>
      </trkpt>
      <trkpt lat="43.085832986980677" lon="-9.196062991395593">
        <ele>22</ele>
        <time>2018-05-18T08:46:02Z</time>
      </trkpt>
      <trkpt lat="43.085811026394367" lon="-9.196040024980903">
        <ele>21.699999999999999</ele>
        <time>2018-05-18T08:46:03Z</time>
      </trkpt>
      <trkpt lat="43.085718993097544" lon="-9.195916978642345">
        <ele>20.100000000000001</ele>
        <time>2018-05-18T08:46:07Z</time>
      </trkpt>
      <trkpt lat="43.08566702529788" lon="-9.195915972813964">
        <ele>19.899999999999999</ele>
        <time>2018-05-18T08:46:09Z</time>
      </trkpt>
      <trkpt lat="43.085611034184694" lon="-9.19588596560061">
        <ele>19.5</ele>
        <time>2018-05-18T08:46:10Z</time>
      </trkpt>
      <trkpt lat="43.085607010871172" lon="-9.195880014449358">
        <ele>19.399999999999999</ele>
        <time>2018-05-18T08:46:11Z</time>
      </trkpt>
      <trkpt lat="43.08555998839438" lon="-9.195871967822313">
        <ele>19.199999999999999</ele>
        <time>2018-05-18T08:46:12Z</time>
      </trkpt>
      <trkpt lat="43.085529981181026" lon="-9.195876996964216">
        <ele>19.199999999999999</ele>
        <time>2018-05-18T08:46:13Z</time>
      </trkpt>
      <trkpt lat="43.085541967302561" lon="-9.195785969495773">
        <ele>18.399999999999999</ele>
        <time>2018-05-18T08:46:15Z</time>
      </trkpt>
      <trkpt lat="43.085551019757986" lon="-9.19577800668776">
        <ele>18.300000000000001</ele>
        <time>2018-05-18T08:46:15Z</time>
      </trkpt>
      <trkpt lat="43.085367036983371" lon="-9.195816982537508">
        <ele>18.300000000000001</ele>
        <time>2018-05-18T08:46:21Z</time>
      </trkpt>
      <trkpt lat="43.085039975121617" lon="-9.195811031386256">
        <ele>17.5</ele>
        <time>2018-05-18T08:46:30Z</time>
      </trkpt>
      <trkpt lat="43.08480896987021" lon="-9.195678010582924">
        <ele>16.600000000000001</ele>
        <time>2018-05-18T08:46:38Z</time>
      </trkpt>
      <trkpt lat="43.084751972928643" lon="-9.195619001984596">
        <ele>16.300000000000001</ele>
        <time>2018-05-18T08:46:40Z</time>
      </trkpt>
      <trkpt lat="43.084230031818151" lon="-9.194950964301825">
        <ele>21.899999999999999</ele>
        <time>2018-05-18T08:47:01Z</time>
      </trkpt>
      <trkpt lat="43.084046971052885" lon="-9.194713002070785">
        <ele>24.600000000000001</ele>
        <time>2018-05-18T08:47:09Z</time>
      </trkpt>
      <trkpt lat="43.083613961935043" lon="-9.194138003513217">
        <ele>29.899999999999999</ele>
        <time>2018-05-18T08:47:26Z</time>
      </trkpt>
      <trkpt lat="43.083354039117694" lon="-9.193724021315575">
        <ele>34.100000000000001</ele>
        <time>2018-05-18T08:47:38Z</time>
      </trkpt>
      <trkpt lat="43.083321014419198" lon="-9.193633999675512">
        <ele>34.899999999999999</ele>
        <time>2018-05-18T08:47:40Z</time>
      </trkpt>
      <trkpt lat="43.083192016929388" lon="-9.193181963637471">
        <ele>38.5</ele>
        <time>2018-05-18T08:47:51Z</time>
      </trkpt>
      <trkpt lat="43.082877025008202" lon="-9.192375037819147">
        <ele>43</ele>
        <time>2018-05-18T08:48:11Z</time>
      </trkpt>
      <trkpt lat="43.082802006974816" lon="-9.192051999270916">
        <ele>42.700000000000003</ele>
        <time>2018-05-18T08:48:18Z</time>
      </trkpt>
      <trkpt lat="43.08287400752306" lon="-9.191597029566765">
        <ele>41.299999999999997</ele>
        <time>2018-05-18T08:48:28Z</time>
      </trkpt>
      <trkpt lat="43.082919018343091" lon="-9.191495021805167">
        <ele>40.700000000000003</ele>
        <time>2018-05-18T08:48:31Z</time>
      </trkpt>
      <trkpt lat="43.083206014707685" lon="-9.191012978553772">
        <ele>39.5</ele>
        <time>2018-05-18T08:48:44Z</time>
      </trkpt>
      <trkpt lat="43.083222024142742" lon="-9.190968973562121">
        <ele>39.600000000000001</ele>
        <time>2018-05-18T08:48:45Z</time>
      </trkpt>
      <trkpt lat="43.083323026075959" lon="-9.190701004117727">
        <ele>40.399999999999999</ele>
        <time>2018-05-18T08:48:52Z</time>
      </trkpt>
      <trkpt lat="43.083479013293982" lon="-9.190472010523081">
        <ele>40.899999999999999</ele>
        <time>2018-05-18T08:48:59Z</time>
      </trkpt>
      <trkpt lat="43.083515977486968" lon="-9.190201023593545">
        <ele>41.399999999999999</ele>
        <time>2018-05-18T08:49:04Z</time>
      </trkpt>
      <trkpt lat="43.083468033000827" lon="-9.190002959221602">
        <ele>41.799999999999997</ele>
        <time>2018-05-18T08:49:09Z</time>
      </trkpt>
      <trkpt lat="43.083471972495317" lon="-9.189905980601907">
        <ele>41.899999999999999</ele>
        <time>2018-05-18T08:49:11Z</time>
      </trkpt>
      <trkpt lat="43.083524024114013" lon="-9.189620995894074">
        <ele>42.200000000000003</ele>
        <time>2018-05-18T08:49:17Z</time>
      </trkpt>
      <trkpt lat="43.083615973591805" lon="-9.189339028671384">
        <ele>42.100000000000001</ele>
        <time>2018-05-18T08:49:24Z</time>
      </trkpt>
      <trkpt lat="43.083833986893296" lon="-9.189282031729817">
        <ele>41.5</ele>
        <time>2018-05-18T08:49:31Z</time>
      </trkpt>
      <trkpt lat="43.084043031558394" lon="-9.189154040068388">
        <ele>41.100000000000001</ele>
        <time>2018-05-18T08:49:37Z</time>
      </trkpt>
      <trkpt lat="43.084115032106638" lon="-9.189007021486759">
        <ele>40.899999999999999</ele>
        <time>2018-05-18T08:49:41Z</time>
      </trkpt>
      <trkpt lat="43.084208993241191" lon="-9.18877400457859">
        <ele>40.5</ele>
        <time>2018-05-18T08:49:47Z</time>
      </trkpt>
      <trkpt lat="43.084150990471244" lon="-9.188517015427351">
        <ele>41.5</ele>
        <time>2018-05-18T08:49:53Z</time>
      </trkpt>
      <trkpt lat="43.083955021575093" lon="-9.188296990469098">
        <ele>43.100000000000001</ele>
        <time>2018-05-18T08:50:00Z</time>
      </trkpt>
      <trkpt lat="43.08386399410665" lon="-9.188156006857753">
        <ele>44.100000000000001</ele>
        <time>2018-05-18T08:50:04Z</time>
      </trkpt>
      <trkpt lat="43.083874974399805" lon="-9.187701959162951">
        <ele>45.700000000000003</ele>
        <time>2018-05-18T08:50:14Z</time>
      </trkpt>
      <trkpt lat="43.083853013813496" lon="-9.18739702552557">
        <ele>46.200000000000003</ele>
        <time>2018-05-18T08:50:21Z</time>
      </trkpt>
      <trkpt lat="43.083909004926682" lon="-9.187130983918905">
        <ele>46.399999999999999</ele>
        <time>2018-05-18T08:50:27Z</time>
      </trkpt>
      <trkpt lat="43.084014030173421" lon="-9.186978014186025">
        <ele>47.299999999999997</ele>
        <time>2018-05-18T08:50:31Z</time>
      </trkpt>
      <trkpt lat="43.084050994366407" lon="-9.186936020851135">
        <ele>47.700000000000003</ele>
        <time>2018-05-18T08:50:33Z</time>
      </trkpt>
      <trkpt lat="43.084232965484262" lon="-9.186728987842798">
        <ele>49.200000000000003</ele>
        <time>2018-05-18T08:50:40Z</time>
      </trkpt>
      <trkpt lat="43.084332961589098" lon="-9.186336966231465">
        <ele>52.899999999999999</ele>
        <time>2018-05-18T08:50:49Z</time>
      </trkpt>
      <trkpt lat="43.08437897823751" lon="-9.186161030083895">
        <ele>54</ele>
        <time>2018-05-18T08:50:53Z</time>
      </trkpt>
      <trkpt lat="43.084386019036174" lon="-9.185885014012456">
        <ele>55.700000000000003</ele>
        <time>2018-05-18T08:50:59Z</time>
      </trkpt>
      <trkpt lat="43.084305971860886" lon="-9.185337005183101">
        <ele>59.600000000000001</ele>
        <time>2018-05-18T08:51:11Z</time>
      </trkpt>
      <trkpt lat="43.084287028759718" lon="-9.185176994651556">
        <ele>60.399999999999999</ele>
        <time>2018-05-18T08:51:14Z</time>
      </trkpt>
      <trkpt lat="43.084393981844187" lon="-9.184865020215511">
        <ele>60.600000000000001</ele>
        <time>2018-05-18T08:51:22Z</time>
      </trkpt>
      <trkpt lat="43.084574025124311" lon="-9.184580035507679">
        <ele>60.100000000000001</ele>
        <time>2018-05-18T08:51:30Z</time>
      </trkpt>
      <trkpt lat="43.084732023999095" lon="-9.184340983629227">
        <ele>60</ele>
        <time>2018-05-18T08:51:37Z</time>
      </trkpt>
      <trkpt lat="43.084848029538989" lon="-9.184181978926063">
        <ele>60</ele>
        <time>2018-05-18T08:51:42Z</time>
      </trkpt>
      <trkpt lat="43.084995970129967" lon="-9.183988021686673">
        <ele>60.299999999999997</ele>
        <time>2018-05-18T08:51:48Z</time>
      </trkpt>
      <trkpt lat="43.085180036723614" lon="-9.183867992833257">
        <ele>59.700000000000003</ele>
        <time>2018-05-18T08:51:54Z</time>
      </trkpt>
      <trkpt lat="43.085356978699565" lon="-9.183843014761806">
        <ele>58.399999999999999</ele>
        <time>2018-05-18T08:51:59Z</time>
      </trkpt>
      <trkpt lat="43.085557976737618" lon="-9.183879978954792">
        <ele>56.100000000000001</ele>
        <time>2018-05-18T08:52:05Z</time>
      </trkpt>
      <trkpt lat="43.085713963955641" lon="-9.183953991159797">
        <ele>53.5</ele>
        <time>2018-05-18T08:52:10Z</time>
      </trkpt>
      <trkpt lat="43.085864000022411" lon="-9.184057004749775">
        <ele>50.399999999999999</ele>
        <time>2018-05-18T08:52:15Z</time>
      </trkpt>
      <trkpt lat="43.085973970592022" lon="-9.184092963114381">
        <ele>48.5</ele>
        <time>2018-05-18T08:52:19Z</time>
      </trkpt>
      <trkpt lat="43.086251998320222" lon="-9.184135962277651">
        <ele>44.600000000000001</ele>
        <time>2018-05-18T08:52:27Z</time>
      </trkpt>
      <trkpt lat="43.08657000772655" lon="-9.184181978926063">
        <ele>44.5</ele>
        <time>2018-05-18T08:52:36Z</time>
      </trkpt>
      <trkpt lat="43.086951971054077" lon="-9.184181978926063">
        <ele>45.399999999999999</ele>
        <time>2018-05-18T08:52:48Z</time>
      </trkpt>
      <trkpt lat="43.087119022384286" lon="-9.184250961989164">
        <ele>44.600000000000001</ele>
        <time>2018-05-18T08:52:53Z</time>
      </trkpt>
      <trkpt lat="43.087227987125516" lon="-9.184339977800846">
        <ele>44.299999999999997</ele>
        <time>2018-05-18T08:52:57Z</time>
      </trkpt>
      <trkpt lat="43.087294958531857" lon="-9.184402003884316">
        <ele>43.899999999999999</ele>
        <time>2018-05-18T08:52:59Z</time>
      </trkpt>
      <trkpt lat="43.087590001523495" lon="-9.184601996093988">
        <ele>44.600000000000001</ele>
        <time>2018-05-18T08:53:09Z</time>
      </trkpt>
      <trkpt lat="43.08779401704669" lon="-9.18471297249198">
        <ele>45.700000000000003</ele>
        <time>2018-05-18T08:53:15Z</time>
      </trkpt>
      <trkpt lat="43.087947992607951" lon="-9.184751026332378">
        <ele>47.200000000000003</ele>
        <time>2018-05-18T08:53:20Z</time>
      </trkpt>
      <trkpt lat="43.088061986491084" lon="-9.184735016897321">
        <ele>48.299999999999997</ele>
        <time>2018-05-18T08:53:23Z</time>
      </trkpt>
      <trkpt lat="43.088268013671041" lon="-9.184715989977121">
        <ele>50.100000000000001</ele>
        <time>2018-05-18T08:53:29Z</time>
      </trkpt>
      <trkpt lat="43.088329033926129" lon="-9.184724036604166">
        <ele>50.399999999999999</ele>
        <time>2018-05-18T08:53:31Z</time>
      </trkpt>
      <trkpt lat="43.08841897174716" lon="-9.184710960835218">
        <ele>51.299999999999997</ele>
        <time>2018-05-18T08:53:34Z</time>
      </trkpt>
      <trkpt lat="43.088597003370523" lon="-9.184686988592148">
        <ele>52.799999999999997</ele>
        <time>2018-05-18T08:53:39Z</time>
      </trkpt>
      <trkpt lat="43.088615024462342" lon="-9.184681037440896">
        <ele>53</ele>
        <time>2018-05-18T08:53:40Z</time>
      </trkpt>
      <trkpt lat="43.088770005851984" lon="-9.184567965567112">
        <ele>55</ele>
        <time>2018-05-18T08:53:45Z</time>
      </trkpt>
      <trkpt lat="43.088802024722099" lon="-9.184532007202506">
        <ele>55.100000000000001</ele>
        <time>2018-05-18T08:53:46Z</time>
      </trkpt>
      <trkpt lat="43.088866984471679" lon="-9.184482973068953">
        <ele>55.100000000000001</ele>
        <time>2018-05-18T08:53:48Z</time>
      </trkpt>
      <trkpt lat="43.088981984183192" lon="-9.184350036084652">
        <ele>55.200000000000003</ele>
        <time>2018-05-18T08:53:53Z</time>
      </trkpt>
      <trkpt lat="43.089053984731436" lon="-9.184259008616209">
        <ele>55.200000000000003</ele>
        <time>2018-05-18T08:53:56Z</time>
      </trkpt>
      <trkpt lat="43.089174013584852" lon="-9.18419798836112">
        <ele>54.100000000000001</ele>
        <time>2018-05-18T08:53:59Z</time>
      </trkpt>
      <trkpt lat="43.089199997484684" lon="-9.184177033603191">
        <ele>53.899999999999999</ele>
        <time>2018-05-18T08:54:00Z</time>
      </trkpt>
      <trkpt lat="43.089353973045945" lon="-9.184037977829576">
        <ele>52.600000000000001</ele>
        <time>2018-05-18T08:54:06Z</time>
      </trkpt>
      <trkpt lat="43.089505014941096" lon="-9.183887019753456">
        <ele>50.899999999999999</ele>
        <time>2018-05-18T08:54:11Z</time>
      </trkpt>
      <trkpt lat="43.089567041024566" lon="-9.183781994506717">
        <ele>50.200000000000003</ele>
        <time>2018-05-18T08:54:14Z</time>
      </trkpt>
      <trkpt lat="43.089690003544092" lon="-9.183652997016907">
        <ele>49.299999999999997</ele>
        <time>2018-05-18T08:54:19Z</time>
      </trkpt>
      <trkpt lat="43.089760998263955" lon="-9.183559035882354">
        <ele>49.100000000000001</ele>
        <time>2018-05-18T08:54:22Z</time>
      </trkpt>
      <trkpt lat="43.08990097604692" lon="-9.183401959016919">
        <ele>48.200000000000003</ele>
        <time>2018-05-18T08:54:27Z</time>
      </trkpt>
      <trkpt lat="43.09009300544858" lon="-9.183216970413923">
        <ele>46</ele>
        <time>2018-05-18T08:54:34Z</time>
      </trkpt>
      <trkpt lat="43.090239018201828" lon="-9.183113034814596">
        <ele>43.5</ele>
        <time>2018-05-18T08:54:39Z</time>
      </trkpt>
      <trkpt lat="43.090355023741722" lon="-9.182978002354503">
        <ele>42</ele>
        <time>2018-05-18T08:54:44Z</time>
      </trkpt>
      <trkpt lat="43.090420989319682" lon="-9.182921005412936">
        <ele>40.899999999999999</ele>
        <time>2018-05-18T08:54:46Z</time>
      </trkpt>
      <trkpt lat="43.090536994859576" lon="-9.182855039834976">
        <ele>39.899999999999999</ele>
        <time>2018-05-18T08:54:50Z</time>
      </trkpt>
      <trkpt lat="43.090658029541373" lon="-9.182786978781223">
        <ele>38.799999999999997</ele>
        <time>2018-05-18T08:54:53Z</time>
      </trkpt>
      <trkpt lat="43.090820973739028" lon="-9.182639960199595">
        <ele>38.100000000000001</ele>
        <time>2018-05-18T08:54:59Z</time>
      </trkpt>
      <trkpt lat="43.091000011190772" lon="-9.182446002960205">
        <ele>37.399999999999999</ele>
        <time>2018-05-18T08:55:06Z</time>
      </trkpt>
      <trkpt lat="43.091179970651865" lon="-9.182240981608629">
        <ele>36.5</ele>
        <time>2018-05-18T08:55:13Z</time>
      </trkpt>
      <trkpt lat="43.091307040303946" lon="-9.182121036574245">
        <ele>35.799999999999997</ele>
        <time>2018-05-18T08:55:17Z</time>
      </trkpt>
      <trkpt lat="43.091588001698256" lon="-9.181912997737527">
        <ele>35.5</ele>
        <time>2018-05-18T08:55:27Z</time>
      </trkpt>
      <trkpt lat="43.09172697365284" lon="-9.181781988590956">
        <ele>35.899999999999999</ele>
        <time>2018-05-18T08:55:32Z</time>
      </trkpt>
      <trkpt lat="43.092026039958" lon="-9.181632958352566">
        <ele>34.399999999999999</ele>
        <time>2018-05-18T08:55:41Z</time>
      </trkpt>
      <trkpt lat="43.092182027176023" lon="-9.181538997218013">
        <ele>33</ele>
        <time>2018-05-18T08:55:46Z</time>
      </trkpt>
      <trkpt lat="43.092443039640784" lon="-9.181422991678119">
        <ele>29.899999999999999</ele>
        <time>2018-05-18T08:55:55Z</time>
      </trkpt>
      <trkpt lat="43.092704974114895" lon="-9.181337999179959">
        <ele>26.699999999999999</ele>
        <time>2018-05-18T08:56:03Z</time>
      </trkpt>
      <trkpt lat="43.092978978529572" lon="-9.181321989744902">
        <ele>22.699999999999999</ele>
        <time>2018-05-18T08:56:11Z</time>
      </trkpt>
      <trkpt lat="43.093283995985985" lon="-9.181349985301495">
        <ele>19.899999999999999</ele>
        <time>2018-05-18T08:56:20Z</time>
      </trkpt>
      <trkpt lat="43.093584990128875" lon="-9.181305980309844">
        <ele>18.899999999999999</ele>
        <time>2018-05-18T08:56:29Z</time>
      </trkpt>
      <trkpt lat="43.093711975961924" lon="-9.181233979761601">
        <ele>19.800000000000001</ele>
        <time>2018-05-18T08:56:33Z</time>
      </trkpt>
      <trkpt lat="43.093785988166928" lon="-9.181170025840402">
        <ele>21.600000000000001</ele>
        <time>2018-05-18T08:56:35Z</time>
      </trkpt>
      <trkpt lat="43.093822030350566" lon="-9.181121997535229">
        <ele>23.199999999999999</ele>
        <time>2018-05-18T08:56:37Z</time>
      </trkpt>
      <trkpt lat="43.094002995640039" lon="-9.180826032534242">
        <ele>31.600000000000001</ele>
        <time>2018-05-18T08:56:46Z</time>
      </trkpt>
      <trkpt lat="43.094066027551889" lon="-9.180574994534254">
        <ele>37.700000000000003</ele>
        <time>2018-05-18T08:56:52Z</time>
      </trkpt>
      <trkpt lat="43.09411003254354" lon="-9.180249022319913">
        <ele>41.700000000000003</ele>
        <time>2018-05-18T08:56:59Z</time>
      </trkpt>
      <trkpt lat="43.094194019213319" lon="-9.179575033485889">
        <ele>41.899999999999999</ele>
        <time>2018-05-18T08:57:14Z</time>
      </trkpt>
      <trkpt lat="43.09430499561131" lon="-9.17921100743115">
        <ele>38.600000000000001</ele>
        <time>2018-05-18T08:57:22Z</time>
      </trkpt>
      <trkpt lat="43.09434799477458" lon="-9.178993999958038">
        <ele>37.100000000000001</ele>
        <time>2018-05-18T08:57:27Z</time>
      </trkpt>
      <trkpt lat="43.094370039179921" lon="-9.17884798720479">
        <ele>36.299999999999997</ele>
        <time>2018-05-18T08:57:30Z</time>
      </trkpt>
      <trkpt lat="43.094407003372908" lon="-9.178638020530343">
        <ele>35.899999999999999</ele>
        <time>2018-05-18T08:57:35Z</time>
      </trkpt>
      <trkpt lat="43.094424018636346" lon="-9.178473986685276">
        <ele>36.5</ele>
        <time>2018-05-18T08:57:38Z</time>
      </trkpt>
      <trkpt lat="43.094467017799616" lon="-9.177955985069275">
        <ele>38.799999999999997</ele>
        <time>2018-05-18T08:57:50Z</time>
      </trkpt>
      <trkpt lat="43.094431981444359" lon="-9.177755992859602">
        <ele>41.799999999999997</ele>
        <time>2018-05-18T08:57:54Z</time>
      </trkpt>
      <trkpt lat="43.094427958130836" lon="-9.177544014528394">
        <ele>44.700000000000003</ele>
        <time>2018-05-18T08:57:59Z</time>
      </trkpt>
      <trkpt lat="43.094413038343191" lon="-9.177445024251938">
        <ele>46.299999999999997</ele>
        <time>2018-05-18T08:58:01Z</time>
      </trkpt>
      <trkpt lat="43.094410020858049" lon="-9.177449969574809">
        <ele>46.299999999999997</ele>
        <time>2018-05-18T08:58:01Z</time>
      </trkpt>
      <trkpt lat="43.094416977837682" lon="-9.177446030080319">
        <ele>46.200000000000003</ele>
        <time>2018-05-18T08:58:01Z</time>
      </trkpt>
      <trkpt lat="43.094426030293107" lon="-9.177439995110035">
        <ele>46.100000000000001</ele>
        <time>2018-05-18T08:58:02Z</time>
      </trkpt>
      <trkpt lat="43.094289992004633" lon="-9.177317032590509">
        <ele>50.200000000000003</ele>
        <time>2018-05-18T08:58:07Z</time>
      </trkpt>
      <trkpt lat="43.094246992841363" lon="-9.177310997620225">
        <ele>51</ele>
        <time>2018-05-18T08:58:08Z</time>
      </trkpt>
      <trkpt lat="43.094184966757894" lon="-9.177295994013548">
        <ele>52.399999999999999</ele>
        <time>2018-05-18T08:58:10Z</time>
      </trkpt>
      <trkpt lat="43.094082036986947" lon="-9.177314015105367">
        <ele>54</ele>
        <time>2018-05-18T08:58:13Z</time>
      </trkpt>
      <trkpt lat="43.094025962054729" lon="-9.17732197791338">
        <ele>54.899999999999999</ele>
        <time>2018-05-18T08:58:15Z</time>
      </trkpt>
      <trkpt lat="43.093803003430367" lon="-9.177344022318721">
        <ele>58.600000000000001</ele>
        <time>2018-05-18T08:58:21Z</time>
      </trkpt>
      <trkpt lat="43.093693032860756" lon="-9.177346033975482">
        <ele>61.299999999999997</ele>
        <time>2018-05-18T08:58:25Z</time>
      </trkpt>
      <trkpt lat="43.093613991513848" lon="-9.177331030368805">
        <ele>64</ele>
        <time>2018-05-18T08:58:27Z</time>
      </trkpt>
      <trkpt lat="43.093392038717866" lon="-9.177390960976481">
        <ele>70.200000000000003</ele>
        <time>2018-05-18T08:58:34Z</time>
      </trkpt>
      <trkpt lat="43.093120967969298" lon="-9.177590031176806">
        <ele>75.799999999999997</ele>
        <time>2018-05-18T08:58:43Z</time>
      </trkpt>
      <trkpt lat="43.09305801987648" lon="-9.177639987319708">
        <ele>77</ele>
        <time>2018-05-18T08:58:45Z</time>
      </trkpt>
      <trkpt lat="43.092879988253117" lon="-9.177717017009854">
        <ele>81</ele>
        <time>2018-05-18T08:58:51Z</time>
      </trkpt>
      <trkpt lat="43.092669015750289" lon="-9.177845008671284">
        <ele>84.299999999999997</ele>
        <time>2018-05-18T08:58:58Z</time>
      </trkpt>
      <trkpt lat="43.092612018808722" lon="-9.177894964814186">
        <ele>85</ele>
        <time>2018-05-18T08:59:00Z</time>
      </trkpt>
      <trkpt lat="43.092560973018408" lon="-9.177937963977456">
        <ele>85.900000000000006</ele>
        <time>2018-05-18T08:59:02Z</time>
      </trkpt>
      <trkpt lat="43.092448990792036" lon="-9.178085988387466">
        <ele>87.900000000000006</ele>
        <time>2018-05-18T08:59:06Z</time>
      </trkpt>
      <trkpt lat="43.092301972210407" lon="-9.178226971998811">
        <ele>90.799999999999997</ele>
        <time>2018-05-18T08:59:12Z</time>
      </trkpt>
      <trkpt lat="43.092110026627779" lon="-9.178356975317001">
        <ele>94.700000000000003</ele>
        <time>2018-05-18T08:59:18Z</time>
      </trkpt>
      <trkpt lat="43.09194297529757" lon="-9.178441967815161">
        <ele>96.299999999999997</ele>
        <time>2018-05-18T08:59:23Z</time>
      </trkpt>
      <trkpt lat="43.091909028589725" lon="-9.178471975028515">
        <ele>96.5</ele>
        <time>2018-05-18T08:59:25Z</time>
      </trkpt>
      <trkpt lat="43.091676011681557" lon="-9.178616981953383">
        <ele>97.900000000000006</ele>
        <time>2018-05-18T08:59:32Z</time>
      </trkpt>
      <trkpt lat="43.091561011970043" lon="-9.17869501747191">
        <ele>98.400000000000006</ele>
        <time>2018-05-18T08:59:36Z</time>
      </trkpt>
      <trkpt lat="43.091476019471884" lon="-9.178783027455211">
        <ele>98.5</ele>
        <time>2018-05-18T08:59:39Z</time>
      </trkpt>
      <trkpt lat="43.0912109836936" lon="-9.178900960832834">
        <ele>99.900000000000006</ele>
        <time>2018-05-18T08:59:47Z</time>
      </trkpt>
      <trkpt lat="43.091029012575746" lon="-9.178905989974737">
        <ele>101.2</ele>
        <time>2018-05-18T08:59:53Z</time>
      </trkpt>
      <trkpt lat="43.090805970132351" lon="-9.178881011903286">
        <ele>103.2</ele>
        <time>2018-05-18T08:59:59Z</time>
      </trkpt>
      <trkpt lat="43.090765988454223" lon="-9.178887968882918">
        <ele>103.40000000000001</ele>
        <time>2018-05-18T09:00:01Z</time>
      </trkpt>
      <trkpt lat="43.09054403565824" lon="-9.17897597886622">
        <ele>104.59999999999999</ele>
        <time>2018-05-18T09:00:07Z</time>
      </trkpt>
      <trkpt lat="43.090360974892974" lon="-9.178966004401445">
        <ele>106.59999999999999</ele>
        <time>2018-05-18T09:00:13Z</time>
      </trkpt>
      <trkpt lat="43.090052017942071" lon="-9.178827032446861">
        <ele>112</ele>
        <time>2018-05-18T09:00:23Z</time>
      </trkpt>
      <trkpt lat="43.089763009920716" lon="-9.178682025521994">
        <ele>116</ele>
        <time>2018-05-18T09:00:32Z</time>
      </trkpt>
      <trkpt lat="43.08955698274076" lon="-9.178537018597126">
        <ele>117.5</ele>
        <time>2018-05-18T09:00:39Z</time>
      </trkpt>
      <trkpt lat="43.089328994974494" lon="-9.178339038044214">
        <ele>118.40000000000001</ele>
        <time>2018-05-18T09:00:47Z</time>
      </trkpt>
      <trkpt lat="43.08927702717483" lon="-9.178292015567422">
        <ele>118.7</ele>
        <time>2018-05-18T09:00:48Z</time>
      </trkpt>
      <trkpt lat="43.089121039956808" lon="-9.178070984780788">
        <ele>118.7</ele>
        <time>2018-05-18T09:00:55Z</time>
      </trkpt>
      <trkpt lat="43.089010985568166" lon="-9.178006025031209">
        <ele>119.5</ele>
        <time>2018-05-18T09:00:59Z</time>
      </trkpt>
      <trkpt lat="43.088923981413245" lon="-9.177870992571116">
        <ele>119.59999999999999</ele>
        <time>2018-05-18T09:01:03Z</time>
      </trkpt>
      <trkpt lat="43.08867403306067" lon="-9.177502021193504">
        <ele>119.8</ele>
        <time>2018-05-18T09:01:13Z</time>
      </trkpt>
      <trkpt lat="43.08867503888905" lon="-9.177180994302034">
        <ele>117.09999999999999</ele>
        <time>2018-05-18T09:01:20Z</time>
      </trkpt>
      <trkpt lat="43.088659029453993" lon="-9.176930040121079">
        <ele>117.2</ele>
        <time>2018-05-18T09:01:26Z</time>
      </trkpt>
      <trkpt lat="43.088274970650673" lon="-9.176652012392879">
        <ele>122</ele>
        <time>2018-05-18T09:01:39Z</time>
      </trkpt>
      <trkpt lat="43.088131975382566" lon="-9.176372978836298">
        <ele>122.09999999999999</ele>
        <time>2018-05-18T09:01:46Z</time>
      </trkpt>
      <trkpt lat="43.088057963177562" lon="-9.176257979124785">
        <ele>121.7</ele>
        <time>2018-05-18T09:01:49Z</time>
      </trkpt>
      <trkpt lat="43.087830981239676" lon="-9.176084976643324">
        <ele>124</ele>
        <time>2018-05-18T09:01:57Z</time>
      </trkpt>
      <trkpt lat="43.087697038426995" lon="-9.175880961120129">
        <ele>126.40000000000001</ele>
        <time>2018-05-18T09:02:03Z</time>
      </trkpt>
      <trkpt lat="43.087533004581928" lon="-9.175705024972558">
        <ele>128.5</ele>
        <time>2018-05-18T09:02:09Z</time>
      </trkpt>
      <trkpt lat="43.087409036234021" lon="-9.175449041649699">
        <ele>131</ele>
        <time>2018-05-18T09:02:16Z</time>
      </trkpt>
      <trkpt lat="43.087336029857397" lon="-9.175220970064402">
        <ele>132</ele>
        <time>2018-05-18T09:02:21Z</time>
      </trkpt>
      <trkpt lat="43.087164033204317" lon="-9.174789972603321">
        <ele>133.5</ele>
        <time>2018-05-18T09:02:32Z</time>
      </trkpt>
      <trkpt lat="43.087142994627357" lon="-9.174729958176613">
        <ele>133.59999999999999</ele>
        <time>2018-05-18T09:02:33Z</time>
      </trkpt>
      <trkpt lat="43.086933027952909" lon="-9.17407700791955">
        <ele>134.5</ele>
        <time>2018-05-18T09:02:49Z</time>
      </trkpt>
      <trkpt lat="43.08680696412921" lon="-9.173840973526239">
        <ele>135.5</ele>
        <time>2018-05-18T09:02:55Z</time>
      </trkpt>
      <trkpt lat="43.086724989116192" lon="-9.173691021278501">
        <ele>136.30000000000001</ele>
        <time>2018-05-18T09:02:59Z</time>
      </trkpt>
      <trkpt lat="43.086551986634731" lon="-9.173523969948292">
        <ele>137.69999999999999</ele>
        <time>2018-05-18T09:03:05Z</time>
      </trkpt>
      <trkpt lat="43.086504964157939" lon="-9.1734320204705">
        <ele>138.09999999999999</ele>
        <time>2018-05-18T09:03:08Z</time>
      </trkpt>
      <trkpt lat="43.086425000801682" lon="-9.173328001052141">
        <ele>138.69999999999999</ele>
        <time>2018-05-18T09:03:11Z</time>
      </trkpt>
      <trkpt lat="43.086335984990001" lon="-9.173173019662499">
        <ele>139.30000000000001</ele>
        <time>2018-05-18T09:03:15Z</time>
      </trkpt>
      <trkpt lat="43.086273958906531" lon="-9.17309096083045">
        <ele>139.69999999999999</ele>
        <time>2018-05-18T09:03:18Z</time>
      </trkpt>
      <trkpt lat="43.086259961128235" lon="-9.173070006072521">
        <ele>139.80000000000001</ele>
        <time>2018-05-18T09:03:19Z</time>
      </trkpt>
      <trkpt lat="43.086167005822062" lon="-9.172947965562344">
        <ele>139.69999999999999</ele>
        <time>2018-05-18T09:03:22Z</time>
      </trkpt>
      <trkpt lat="43.086077990010381" lon="-9.172814022749662">
        <ele>138</ele>
        <time>2018-05-18T09:03:26Z</time>
      </trkpt>
      <trkpt lat="43.086043959483504" lon="-9.172735987231135">
        <ele>136.69999999999999</ele>
        <time>2018-05-18T09:03:28Z</time>
      </trkpt>
      <trkpt lat="43.086026022210717" lon="-9.172712014988065">
        <ele>136.30000000000001</ele>
        <time>2018-05-18T09:03:29Z</time>
      </trkpt>
      <trkpt lat="43.085974976420403" lon="-9.172592991963029">
        <ele>134.09999999999999</ele>
        <time>2018-05-18T09:03:32Z</time>
      </trkpt>
      <trkpt lat="43.085943963378668" lon="-9.172542029991746">
        <ele>133</ele>
        <time>2018-05-18T09:03:33Z</time>
      </trkpt>
      <trkpt lat="43.085909010842443" lon="-9.172495007514954">
        <ele>131.90000000000001</ele>
        <time>2018-05-18T09:03:35Z</time>
      </trkpt>
      <trkpt lat="43.085905993357301" lon="-9.172484027221799">
        <ele>131.69999999999999</ele>
        <time>2018-05-18T09:03:35Z</time>
      </trkpt>
      <trkpt lat="43.085857965052128" lon="-9.172414960339665">
        <ele>130.09999999999999</ele>
        <time>2018-05-18T09:03:37Z</time>
      </trkpt>
      <trkpt lat="43.085840027779341" lon="-9.172390988096595">
        <ele>129.40000000000001</ele>
        <time>2018-05-18T09:03:38Z</time>
      </trkpt>
      <trkpt lat="43.085819995030761" lon="-9.172331979498267">
        <ele>128.19999999999999</ele>
        <time>2018-05-18T09:03:40Z</time>
      </trkpt>
      <trkpt lat="43.085776995867491" lon="-9.172253021970391">
        <ele>126.2</ele>
        <time>2018-05-18T09:03:42Z</time>
      </trkpt>
      <trkpt lat="43.085724022239447" lon="-9.172139028087258">
        <ele>123.2</ele>
        <time>2018-05-18T09:03:45Z</time>
      </trkpt>
      <trkpt lat="43.085655961185694" lon="-9.17207901366055">
        <ele>120.90000000000001</ele>
        <time>2018-05-18T09:03:47Z</time>
      </trkpt>
      <trkpt lat="43.085608016699553" lon="-9.172045988962054">
        <ele>119.5</ele>
        <time>2018-05-18T09:03:49Z</time>
      </trkpt>
      <trkpt lat="43.08558002114296" lon="-9.171966025605798">
        <ele>117.59999999999999</ele>
        <time>2018-05-18T09:03:51Z</time>
      </trkpt>
      <trkpt lat="43.085534004494548" lon="-9.171930989250541">
        <ele>116.2</ele>
        <time>2018-05-18T09:03:52Z</time>
      </trkpt>
      <trkpt lat="43.085455968976021" lon="-9.17188698425889">
        <ele>114.09999999999999</ele>
        <time>2018-05-18T09:03:55Z</time>
      </trkpt>
      <trkpt lat="43.085354967042804" lon="-9.171868041157723">
        <ele>112.59999999999999</ele>
        <time>2018-05-18T09:03:58Z</time>
      </trkpt>
      <trkpt lat="43.085253965109587" lon="-9.171856977045536">
        <ele>111.59999999999999</ele>
        <time>2018-05-18T09:04:01Z</time>
      </trkpt>
      <trkpt lat="43.085234016180038" lon="-9.171866029500961">
        <ele>111.59999999999999</ele>
        <time>2018-05-18T09:04:02Z</time>
      </trkpt>
      <trkpt lat="43.085179030895233" lon="-9.171888995915651">
        <ele>111.5</ele>
        <time>2018-05-18T09:04:03Z</time>
      </trkpt>
      <trkpt lat="43.085114993155003" lon="-9.171939035877585">
        <ele>111.90000000000001</ele>
        <time>2018-05-18T09:04:06Z</time>
      </trkpt>
      <trkpt lat="43.085104012861848" lon="-9.171960996463895">
        <ele>112.2</ele>
        <time>2018-05-18T09:04:06Z</time>
      </trkpt>
      <trkpt lat="43.085049027577043" lon="-9.171940041705966">
        <ele>111.3</ele>
        <time>2018-05-18T09:04:08Z</time>
      </trkpt>
      <trkpt lat="43.085120022296906" lon="-9.171744994819164">
        <ele>108.40000000000001</ele>
        <time>2018-05-18T09:04:13Z</time>
      </trkpt>
      <trkpt lat="43.085192022845149" lon="-9.171509966254234">
        <ele>104.8</ele>
        <time>2018-05-18T09:04:18Z</time>
      </trkpt>
      <trkpt lat="43.085329988971353" lon="-9.171258006244898">
        <ele>101.40000000000001</ele>
        <time>2018-05-18T09:04:25Z</time>
      </trkpt>
      <trkpt lat="43.085450017824769" lon="-9.171061031520367">
        <ele>100.5</ele>
        <time>2018-05-18T09:04:31Z</time>
      </trkpt>
      <trkpt lat="43.085632994771004" lon="-9.17078803293407">
        <ele>100.09999999999999</ele>
        <time>2018-05-18T09:04:39Z</time>
      </trkpt>
      <trkpt lat="43.085782025009394" lon="-9.170524002984166">
        <ele>99.099999999999994</ele>
        <time>2018-05-18T09:04:46Z</time>
      </trkpt>
      <trkpt lat="43.085969025269151" lon="-9.170203981921077">
        <ele>97.5</ele>
        <time>2018-05-18T09:04:55Z</time>
      </trkpt>
      <trkpt lat="43.086155019700527" lon="-9.169916985556483">
        <ele>95.799999999999997</ele>
        <time>2018-05-18T09:05:03Z</time>
      </trkpt>
      <trkpt lat="43.086277982220054" lon="-9.169682040810585">
        <ele>94</ele>
        <time>2018-05-18T09:05:09Z</time>
      </trkpt>
      <trkpt lat="43.086363980546594" lon="-9.169368976727128">
        <ele>91.700000000000003</ele>
        <time>2018-05-18T09:05:16Z</time>
      </trkpt>
      <trkpt lat="43.086412008851767" lon="-9.168981984257698">
        <ele>88</ele>
        <time>2018-05-18T09:05:25Z</time>
      </trkpt>
      <trkpt lat="43.086492978036404" lon="-9.16859800927341">
        <ele>85.700000000000003</ele>
        <time>2018-05-18T09:05:34Z</time>
      </trkpt>
      <trkpt lat="43.08654704131186" lon="-9.168389970436692">
        <ele>84.900000000000006</ele>
        <time>2018-05-18T09:05:38Z</time>
      </trkpt>
      <trkpt lat="43.086575036868453" lon="-9.168344037607312">
        <ele>84.900000000000006</ele>
        <time>2018-05-18T09:05:40Z</time>
      </trkpt>
      <trkpt lat="43.086643014103174" lon="-9.168218979611993">
        <ele>85</ele>
        <time>2018-05-18T09:05:43Z</time>
      </trkpt>
      <trkpt lat="43.086797995492816" lon="-9.168072966858745">
        <ele>86.200000000000003</ele>
        <time>2018-05-18T09:05:49Z</time>
      </trkpt>
      <trkpt lat="43.086881982162595" lon="-9.167933994904161">
        <ele>86</ele>
        <time>2018-05-18T09:05:53Z</time>
      </trkpt>
      <trkpt lat="43.086949959397316" lon="-9.167794017121196">
        <ele>85.5</ele>
        <time>2018-05-18T09:05:56Z</time>
      </trkpt>
      <trkpt lat="43.086998993530869" lon="-9.167694021016359">
        <ele>85.099999999999994</ele>
        <time>2018-05-18T09:05:59Z</time>
      </trkpt>
      <trkpt lat="43.087016008794308" lon="-9.167562006041408">
        <ele>83.799999999999997</ele>
        <time>2018-05-18T09:06:02Z</time>
      </trkpt>
      <trkpt lat="43.087018020451069" lon="-9.167401995509863">
        <ele>82</ele>
        <time>2018-05-18T09:06:05Z</time>
      </trkpt>
      <trkpt lat="43.087035035714507" lon="-9.167198985815048">
        <ele>79.799999999999997</ele>
        <time>2018-05-18T09:06:10Z</time>
      </trkpt>
      <trkpt lat="43.087055990472436" lon="-9.167032018303871">
        <ele>78</ele>
        <time>2018-05-18T09:06:13Z</time>
      </trkpt>
      <trkpt lat="43.087109969928861" lon="-9.166862033307552">
        <ele>76.299999999999997</ele>
        <time>2018-05-18T09:06:17Z</time>
      </trkpt>
      <trkpt lat="43.08715196326375" lon="-9.166742004454136">
        <ele>75.099999999999994</ele>
        <time>2018-05-18T09:06:20Z</time>
      </trkpt>
      <trkpt lat="43.08719202876091" lon="-9.16664301417768">
        <ele>74</ele>
        <time>2018-05-18T09:06:23Z</time>
      </trkpt>
      <trkpt lat="43.087240979075432" lon="-9.166532037779689">
        <ele>72.799999999999997</ele>
        <time>2018-05-18T09:06:26Z</time>
      </trkpt>
      <trkpt lat="43.087363019585609" lon="-9.166415026411414">
        <ele>71.900000000000006</ele>
        <time>2018-05-18T09:06:30Z</time>
      </trkpt>
      <trkpt lat="43.087510038167238" lon="-9.166330033913255">
        <ele>71.400000000000006</ele>
        <time>2018-05-18T09:06:35Z</time>
      </trkpt>
      <trkpt lat="43.087530992925167" lon="-9.166303966194391">
        <ele>71</ele>
        <time>2018-05-18T09:06:35Z</time>
      </trkpt>
      <trkpt lat="43.087496962398291" lon="-9.166217967867851">
        <ele>69.700000000000003</ele>
        <time>2018-05-18T09:06:38Z</time>
      </trkpt>
      <trkpt lat="43.087282972410321" lon="-9.16621302254498">
        <ele>68.5</ele>
        <time>2018-05-18T09:06:44Z</time>
      </trkpt>
      <trkpt lat="43.087037969380617" lon="-9.166269013658166">
        <ele>67.799999999999997</ele>
        <time>2018-05-18T09:06:51Z</time>
      </trkpt>
      <trkpt lat="43.08678399771452" lon="-9.166401028633118">
        <ele>66.700000000000003</ele>
        <time>2018-05-18T09:06:59Z</time>
      </trkpt>
      <trkpt lat="43.086472023278475" lon="-9.166534971445799">
        <ele>64.900000000000006</ele>
        <time>2018-05-18T09:07:09Z</time>
      </trkpt>
      <trkpt lat="43.086310001090169" lon="-9.166589034721255">
        <ele>63.700000000000003</ele>
        <time>2018-05-18T09:07:14Z</time>
      </trkpt>
      <trkpt lat="43.086088970303535" lon="-9.166633039712906">
        <ele>62.799999999999997</ele>
        <time>2018-05-18T09:07:21Z</time>
      </trkpt>
      <trkpt lat="43.085898030549288" lon="-9.166618958115578">
        <ele>61.600000000000001</ele>
        <time>2018-05-18T09:07:26Z</time>
      </trkpt>
      <trkpt lat="43.085738020017743" lon="-9.166541006416082">
        <ele>60.200000000000003</ele>
        <time>2018-05-18T09:07:31Z</time>
      </trkpt>
      <trkpt lat="43.085600975900888" lon="-9.166400022804737">
        <ele>58.5</ele>
        <time>2018-05-18T09:07:36Z</time>
      </trkpt>
      <trkpt lat="43.085339041426778" lon="-9.166411003097892">
        <ele>58.299999999999997</ele>
        <time>2018-05-18T09:07:44Z</time>
      </trkpt>
      <trkpt lat="43.085132008418441" lon="-9.166343025863171">
        <ele>58.600000000000001</ele>
        <time>2018-05-18T09:07:50Z</time>
      </trkpt>
      <trkpt lat="43.085051961243153" lon="-9.166315030306578">
        <ele>58.700000000000003</ele>
        <time>2018-05-18T09:07:53Z</time>
      </trkpt>
      <trkpt lat="43.084969986230135" lon="-9.166313018649817">
        <ele>59</ele>
        <time>2018-05-18T09:07:55Z</time>
      </trkpt>
      <trkpt lat="43.084855992347002" lon="-9.166349982842803">
        <ele>59.700000000000003</ele>
        <time>2018-05-18T09:07:59Z</time>
      </trkpt>
      <trkpt lat="43.084729006513953" lon="-9.166380995884538">
        <ele>60.399999999999999</ele>
        <time>2018-05-18T09:08:03Z</time>
      </trkpt>
      <trkpt lat="43.084564972668886" lon="-9.166447967290878">
        <ele>61.399999999999999</ele>
        <time>2018-05-18T09:08:08Z</time>
      </trkpt>
      <trkpt lat="43.084499007090926" lon="-9.166540000587702">
        <ele>61.899999999999999</ele>
        <time>2018-05-18T09:08:10Z</time>
      </trkpt>
      <trkpt lat="43.084492972120643" lon="-9.166546035557985">
        <ele>61.899999999999999</ele>
        <time>2018-05-18T09:08:11Z</time>
      </trkpt>
      <trkpt lat="43.084505964070559" lon="-9.166478980332613">
        <ele>61.399999999999999</ele>
        <time>2018-05-18T09:08:12Z</time>
      </trkpt>
      <trkpt lat="43.084613000974059" lon="-9.166370015591383">
        <ele>60.799999999999997</ele>
        <time>2018-05-18T09:08:16Z</time>
      </trkpt>
      <trkpt lat="43.08476303704083" lon="-9.166347971186042">
        <ele>60</ele>
        <time>2018-05-18T09:08:21Z</time>
      </trkpt>
      <trkpt lat="43.084805030375719" lon="-9.166325004771352">
        <ele>59.700000000000003</ele>
        <time>2018-05-18T09:08:22Z</time>
      </trkpt>
      <trkpt lat="43.084927992895246" lon="-9.166293991729617">
        <ele>59.100000000000001</ele>
        <time>2018-05-18T09:08:26Z</time>
      </trkpt>
      <trkpt lat="43.085032012313604" lon="-9.166285023093224">
        <ele>58.600000000000001</ele>
        <time>2018-05-18T09:08:29Z</time>
      </trkpt>
      <trkpt lat="43.085048021748662" lon="-9.16625501587987">
        <ele>58.399999999999999</ele>
        <time>2018-05-18T09:08:29Z</time>
      </trkpt>
      <trkpt lat="43.085051039233804" lon="-9.166258033365011">
        <ele>58.399999999999999</ele>
        <time>2018-05-18T09:08:30Z</time>
      </trkpt>
      <trkpt lat="43.084993036463857" lon="-9.166111014783382">
        <ele>57.399999999999999</ele>
        <time>2018-05-18T09:08:33Z</time>
      </trkpt>
      <trkpt lat="43.084950037300587" lon="-9.166038008406758">
        <ele>56.799999999999997</ele>
        <time>2018-05-18T09:08:35Z</time>
      </trkpt>
      <trkpt lat="43.084955988451838" lon="-9.166018981486559">
        <ele>56.700000000000003</ele>
        <time>2018-05-18T09:08:36Z</time>
      </trkpt>
      <trkpt lat="43.084973003715277" lon="-9.165896018967032">
        <ele>55.600000000000001</ele>
        <time>2018-05-18T09:08:38Z</time>
      </trkpt>
      <trkpt lat="43.084970992058516" lon="-9.165841033682227">
        <ele>55.100000000000001</ele>
        <time>2018-05-18T09:08:40Z</time>
      </trkpt>
      <trkpt lat="43.084968980401754" lon="-9.165839022025466">
        <ele>55.100000000000001</ele>
        <time>2018-05-18T09:08:40Z</time>
      </trkpt>
      <trkpt lat="43.084962023422122" lon="-9.165845979005098">
        <ele>55.200000000000003</ele>
        <time>2018-05-18T09:08:40Z</time>
      </trkpt>
      <trkpt lat="43.08498096652329" lon="-9.165772972628474">
        <ele>54.5</ele>
        <time>2018-05-18T09:08:42Z</time>
      </trkpt>
      <trkpt lat="43.084970992058516" lon="-9.165717987343669">
        <ele>54</ele>
        <time>2018-05-18T09:08:43Z</time>
      </trkpt>
      <trkpt lat="43.084951965138316" lon="-9.165669959038496">
        <ele>53.600000000000001</ele>
        <time>2018-05-18T09:08:44Z</time>
      </trkpt>
      <trkpt lat="43.084878036752343" lon="-9.16561396792531">
        <ele>53.100000000000001</ele>
        <time>2018-05-18T09:08:47Z</time>
      </trkpt>
      <trkpt lat="43.084782985970378" lon="-9.165666019544005">
        <ele>53.600000000000001</ele>
        <time>2018-05-18T09:08:50Z</time>
      </trkpt>
      <trkpt lat="43.084706040099263" lon="-9.165752017870545">
        <ele>54.5</ele>
        <time>2018-05-18T09:08:52Z</time>
      </trkpt>
      <trkpt lat="43.084682989865541" lon="-9.165814965963364">
        <ele>55.200000000000003</ele>
        <time>2018-05-18T09:08:54Z</time>
      </trkpt>
      <trkpt lat="43.084663040935993" lon="-9.16582502424717">
        <ele>55.299999999999997</ele>
        <time>2018-05-18T09:08:55Z</time>
      </trkpt>
      <trkpt lat="43.084604032337666" lon="-9.16582603007555">
        <ele>55.399999999999999</ele>
        <time>2018-05-18T09:08:56Z</time>
      </trkpt>
      <trkpt lat="43.084496995434165" lon="-9.165856037288904">
        <ele>55.5</ele>
        <time>2018-05-18T09:09:00Z</time>
      </trkpt>
      <trkpt lat="43.084398005157709" lon="-9.165858970955014">
        <ele>55.200000000000003</ele>
        <time>2018-05-18T09:09:03Z</time>
      </trkpt>
      <trkpt lat="43.084396999329329" lon="-9.165856959298253">
        <ele>55.200000000000003</ele>
        <time>2018-05-18T09:09:03Z</time>
      </trkpt>
      <trkpt lat="43.084329022094607" lon="-9.165736008435488">
        <ele>53.700000000000003</ele>
        <time>2018-05-18T09:09:06Z</time>
      </trkpt>
      <trkpt lat="43.08431301265955" lon="-9.165678005665541">
        <ele>53.100000000000001</ele>
        <time>2018-05-18T09:09:07Z</time>
      </trkpt>
      <trkpt lat="43.084273030981421" lon="-9.165640035644174">
        <ele>52.600000000000001</ele>
        <time>2018-05-18T09:09:09Z</time>
      </trkpt>
      <trkpt lat="43.084220979362726" lon="-9.16556996293366">
        <ele>51.700000000000003</ele>
        <time>2018-05-18T09:09:11Z</time>
      </trkpt>
      <trkpt lat="43.084183009341359" lon="-9.165485976263881">
        <ele>50.700000000000003</ele>
        <time>2018-05-18T09:09:13Z</time>
      </trkpt>
      <trkpt lat="43.084159037098289" lon="-9.165458986535668">
        <ele>50.399999999999999</ele>
        <time>2018-05-18T09:09:14Z</time>
      </trkpt>
      <trkpt lat="43.084084019064903" lon="-9.165304005146027">
        <ele>49.5</ele>
        <time>2018-05-18T09:09:18Z</time>
      </trkpt>
      <trkpt lat="43.084044959396124" lon="-9.165175007656217">
        <ele>49.100000000000001</ele>
        <time>2018-05-18T09:09:21Z</time>
      </trkpt>
      <trkpt lat="43.084085024893284" lon="-9.164999993517995">
        <ele>48.600000000000001</ele>
        <time>2018-05-18T09:09:25Z</time>
      </trkpt>
      <trkpt lat="43.084192983806133" lon="-9.164802012965083">
        <ele>47.700000000000003</ele>
        <time>2018-05-18T09:09:30Z</time>
      </trkpt>
      <trkpt lat="43.084220979362726" lon="-9.164745016023517">
        <ele>47.399999999999999</ele>
        <time>2018-05-18T09:09:32Z</time>
      </trkpt>
      <trkpt lat="43.084223996847868" lon="-9.164735041558743">
        <ele>47.299999999999997</ele>
        <time>2018-05-18T09:09:32Z</time>
      </trkpt>
      <trkpt lat="43.084231959655881" lon="-9.164682989940047">
        <ele>47.100000000000001</ele>
        <time>2018-05-18T09:09:33Z</time>
      </trkpt>
      <trkpt lat="43.084305971860886" lon="-9.164361041039228">
        <ele>47</ele>
        <time>2018-05-18T09:09:40Z</time>
      </trkpt>
      <trkpt lat="43.084302032366395" lon="-9.16400003246963">
        <ele>48.200000000000003</ele>
        <time>2018-05-18T09:09:48Z</time>
      </trkpt>
      <trkpt lat="43.084146967157722" lon="-9.163514971733093">
        <ele>51.600000000000001</ele>
        <time>2018-05-18T09:10:00Z</time>
      </trkpt>
      <trkpt lat="43.084104973822832" lon="-9.163346998393536">
        <ele>52.600000000000001</ele>
        <time>2018-05-18T09:10:04Z</time>
      </trkpt>
      <trkpt lat="43.084082007408142" lon="-9.163204003125429">
        <ele>53.399999999999999</ele>
        <time>2018-05-18T09:10:07Z</time>
      </trkpt>
      <trkpt lat="43.084103967994452" lon="-9.162911977618933">
        <ele>54.200000000000003</ele>
        <time>2018-05-18T09:10:13Z</time>
      </trkpt>
      <trkpt lat="43.084220979362726" lon="-9.162554992362857">
        <ele>55</ele>
        <time>2018-05-18T09:10:22Z</time>
      </trkpt>
      <trkpt lat="43.084266996011138" lon="-9.162267995998263">
        <ele>56.100000000000001</ele>
        <time>2018-05-18T09:10:28Z</time>
      </trkpt>
      <trkpt lat="43.084269007667899" lon="-9.161873962730169">
        <ele>58.799999999999997</ele>
        <time>2018-05-18T09:10:36Z</time>
      </trkpt>
      <trkpt lat="43.084276970475912" lon="-9.161577997729182">
        <ele>61.100000000000001</ele>
        <time>2018-05-18T09:10:43Z</time>
      </trkpt>
      <trkpt lat="43.084257021546364" lon="-9.161219000816345">
        <ele>64.099999999999994</ele>
        <time>2018-05-18T09:10:51Z</time>
      </trkpt>
      <trkpt lat="43.084246041253209" lon="-9.16090602055192">
        <ele>64.799999999999997</ele>
        <time>2018-05-18T09:10:57Z</time>
      </trkpt>
      <trkpt lat="43.084073038771749" lon="-9.160612989217043">
        <ele>67.400000000000006</ele>
        <time>2018-05-18T09:11:06Z</time>
      </trkpt>
      <trkpt lat="43.083983017131686" lon="-9.160359017550945">
        <ele>68.700000000000003</ele>
        <time>2018-05-18T09:11:12Z</time>
      </trkpt>
      <trkpt lat="43.0839270260185" lon="-9.160161036998034">
        <ele>69.900000000000006</ele>
        <time>2018-05-18T09:11:16Z</time>
      </trkpt>
      <trkpt lat="43.083919985219836" lon="-9.160120971500874">
        <ele>70.099999999999994</ele>
        <time>2018-05-18T09:11:17Z</time>
      </trkpt>
      <trkpt lat="43.083977987989783" lon="-9.160007983446121">
        <ele>69.900000000000006</ele>
        <time>2018-05-18T09:11:20Z</time>
      </trkpt>
      <trkpt lat="43.084018975496292" lon="-9.160016030073166">
        <ele>69.5</ele>
        <time>2018-05-18T09:11:21Z</time>
      </trkpt>
      <trkpt lat="43.084304966032505" lon="-9.160050982609391">
        <ele>66.799999999999997</ele>
        <time>2018-05-18T09:11:30Z</time>
      </trkpt>
      <trkpt lat="43.084386019036174" lon="-9.160012006759644">
        <ele>66.200000000000003</ele>
        <time>2018-05-18T09:11:32Z</time>
      </trkpt>
      <trkpt lat="43.084521973505616" lon="-9.159894995391369">
        <ele>65.700000000000003</ele>
        <time>2018-05-18T09:11:37Z</time>
      </trkpt>
      <trkpt lat="43.084537982940674" lon="-9.15985400788486">
        <ele>65.799999999999997</ele>
        <time>2018-05-18T09:11:38Z</time>
      </trkpt>
      <trkpt lat="43.084478974342346" lon="-9.159588972106576">
        <ele>67.700000000000003</ele>
        <time>2018-05-18T09:11:44Z</time>
      </trkpt>
      <trkpt lat="43.084472017362714" lon="-9.159504985436797">
        <ele>68.200000000000003</ele>
        <time>2018-05-18T09:11:46Z</time>
      </trkpt>
      <trkpt lat="43.084561033174396" lon="-9.159103995189071">
        <ele>70</ele>
        <time>2018-05-18T09:11:55Z</time>
      </trkpt>
      <trkpt lat="43.084570001810789" lon="-9.15873896330595">
        <ele>72.099999999999994</ele>
        <time>2018-05-18T09:12:03Z</time>
      </trkpt>
      <trkpt lat="43.084650970995426" lon="-9.15817603468895">
        <ele>74.599999999999994</ele>
        <time>2018-05-18T09:12:15Z</time>
      </trkpt>
      <trkpt lat="43.08467703871429" lon="-9.157750988379121">
        <ele>76.400000000000006</ele>
        <time>2018-05-18T09:12:25Z</time>
      </trkpt>
      <trkpt lat="43.08470101095736" lon="-9.157013967633247">
        <ele>79.099999999999994</ele>
        <time>2018-05-18T09:12:41Z</time>
      </trkpt>
      <trkpt lat="43.084688019007444" lon="-9.156894022598863">
        <ele>79.299999999999997</ele>
        <time>2018-05-18T09:12:43Z</time>
      </trkpt>
      <trkpt lat="43.084601014852524" lon="-9.156350959092379">
        <ele>80.700000000000003</ele>
        <time>2018-05-18T09:12:55Z</time>
      </trkpt>
      <trkpt lat="43.084620963782072" lon="-9.155916022136807">
        <ele>79.900000000000006</ele>
        <time>2018-05-18T09:13:05Z</time>
      </trkpt>
      <trkpt lat="43.084661029279232" lon="-9.15553699247539">
        <ele>78.799999999999997</ele>
        <time>2018-05-18T09:13:13Z</time>
      </trkpt>
      <trkpt lat="43.084707967936993" lon="-9.155027959495783">
        <ele>77.799999999999997</ele>
        <time>2018-05-18T09:13:24Z</time>
      </trkpt>
      <trkpt lat="43.084672009572387" lon="-9.154786979779601">
        <ele>77.700000000000003</ele>
        <time>2018-05-18T09:13:29Z</time>
      </trkpt>
      <trkpt lat="43.084624987095594" lon="-9.154687989503145">
        <ele>77.900000000000006</ele>
        <time>2018-05-18T09:13:32Z</time>
      </trkpt>
      <trkpt lat="43.08457201346755" lon="-9.154536025598645">
        <ele>78.099999999999994</ele>
        <time>2018-05-18T09:13:35Z</time>
      </trkpt>
      <trkpt lat="43.084522979333997" lon="-9.154163030907512">
        <ele>78.900000000000006</ele>
        <time>2018-05-18T09:13:44Z</time>
      </trkpt>
      <trkpt lat="43.084517028182745" lon="-9.153991034254432">
        <ele>79.099999999999994</ele>
        <time>2018-05-18T09:13:47Z</time>
      </trkpt>
      <trkpt lat="43.084515016525984" lon="-9.153962032869458">
        <ele>79.200000000000003</ele>
        <time>2018-05-18T09:13:48Z</time>
      </trkpt>
      <trkpt lat="43.084515016525984" lon="-9.153834963217378">
        <ele>79.299999999999997</ele>
        <time>2018-05-18T09:13:51Z</time>
      </trkpt>
      <trkpt lat="43.084505964070559" lon="-9.15377302095294">
        <ele>79.400000000000006</ele>
        <time>2018-05-18T09:13:52Z</time>
      </trkpt>
      <trkpt lat="43.084407979622483" lon="-9.153355015441775">
        <ele>81.900000000000006</ele>
        <time>2018-05-18T09:14:02Z</time>
      </trkpt>
      <trkpt lat="43.084285017102957" lon="-9.153059972450137">
        <ele>84.099999999999994</ele>
        <time>2018-05-18T09:14:09Z</time>
      </trkpt>
      <trkpt lat="43.084231959655881" lon="-9.152800971642137">
        <ele>85.200000000000003</ele>
        <time>2018-05-18T09:14:15Z</time>
      </trkpt>
      <trkpt lat="43.084189966320992" lon="-9.152510035783052">
        <ele>85.799999999999997</ele>
        <time>2018-05-18T09:14:21Z</time>
      </trkpt>
      <trkpt lat="43.084189966320992" lon="-9.152389001101255">
        <ele>86</ele>
        <time>2018-05-18T09:14:24Z</time>
      </trkpt>
      <trkpt lat="43.084198012948036" lon="-9.152422025799751">
        <ele>85.900000000000006</ele>
        <time>2018-05-18T09:14:25Z</time>
      </trkpt>
      <trkpt lat="43.084174040704966" lon="-9.152407022193074">
        <ele>86.099999999999994</ele>
        <time>2018-05-18T09:14:25Z</time>
      </trkpt>
      <trkpt lat="43.083931971341372" lon="-9.152171993628144">
        <ele>87.799999999999997</ele>
        <time>2018-05-18T09:14:34Z</time>
      </trkpt>
      <trkpt lat="43.083726027980447" lon="-9.151907041668892">
        <ele>88.900000000000006</ele>
        <time>2018-05-18T09:14:43Z</time>
      </trkpt>
      <trkpt lat="43.08347700163722" lon="-9.151734039187431">
        <ele>89.599999999999994</ele>
        <time>2018-05-18T09:14:51Z</time>
      </trkpt>
      <trkpt lat="43.083440037444234" lon="-9.151748036965728">
        <ele>89.700000000000003</ele>
        <time>2018-05-18T09:14:52Z</time>
      </trkpt>
      <trkpt lat="43.08332503773272" lon="-9.151830011978746">
        <ele>90.200000000000003</ele>
        <time>2018-05-18T09:14:56Z</time>
      </trkpt>
      <trkpt lat="43.08324096724391" lon="-9.151896983385086">
        <ele>90.599999999999994</ele>
        <time>2018-05-18T09:14:59Z</time>
      </trkpt>
      <trkpt lat="43.083083974197507" lon="-9.151993962004781">
        <ele>91.299999999999997</ele>
        <time>2018-05-18T09:15:04Z</time>
      </trkpt>
      <trkpt lat="43.082969980314374" lon="-9.152078032493591">
        <ele>91.799999999999997</ele>
        <time>2018-05-18T09:15:08Z</time>
      </trkpt>
      <trkpt lat="43.082830002531409" lon="-9.152212981134653">
        <ele>92</ele>
        <time>2018-05-18T09:15:13Z</time>
      </trkpt>
      <trkpt lat="43.082602014765143" lon="-9.152319012209773">
        <ele>92.799999999999997</ele>
        <time>2018-05-18T09:15:20Z</time>
      </trkpt>
      <trkpt lat="43.082320969551802" lon="-9.152509029954672">
        <ele>93.900000000000006</ele>
        <time>2018-05-18T09:15:29Z</time>
      </trkpt>
      <trkpt lat="43.082146039232612" lon="-9.152637021616101">
        <ele>94.700000000000003</ele>
        <time>2018-05-18T09:15:35Z</time>
      </trkpt>
      <trkpt lat="43.081994997337461" lon="-9.152798959985375">
        <ele>96</ele>
        <time>2018-05-18T09:15:41Z</time>
      </trkpt>
      <trkpt lat="43.08184202760458" lon="-9.153125016018748">
        <ele>98.400000000000006</ele>
        <time>2018-05-18T09:15:49Z</time>
      </trkpt>
      <trkpt lat="43.081625020131469" lon="-9.153306987136602">
        <ele>101.40000000000001</ele>
        <time>2018-05-18T09:15:56Z</time>
      </trkpt>
      <trkpt lat="43.081397032365203" lon="-9.153370019048452">
        <ele>104.3</ele>
        <time>2018-05-18T09:16:03Z</time>
      </trkpt>
      <trkpt lat="43.081067036837339" lon="-9.153490969911218">
        <ele>107</ele>
        <time>2018-05-18T09:16:14Z</time>
      </trkpt>
      <trkpt lat="43.080879030749202" lon="-9.153526006266475">
        <ele>107.8</ele>
        <time>2018-05-18T09:16:19Z</time>
      </trkpt>
      <trkpt lat="43.080756990239024" lon="-9.153534974902868">
        <ele>108.3</ele>
        <time>2018-05-18T09:16:23Z</time>
      </trkpt>
      <trkpt lat="43.080699993297458" lon="-9.153532963246107">
        <ele>108.5</ele>
        <time>2018-05-18T09:16:24Z</time>
      </trkpt>
      <trkpt lat="43.080374021083117" lon="-9.153532041236758">
        <ele>109.40000000000001</ele>
        <time>2018-05-18T09:16:34Z</time>
      </trkpt>
      <trkpt lat="43.080027010291815" lon="-9.1535609588027">
        <ele>109.09999999999999</ele>
        <time>2018-05-18T09:16:44Z</time>
      </trkpt>
      <trkpt lat="43.0797169636935" lon="-9.153583003208041">
        <ele>108.8</ele>
        <time>2018-05-18T09:16:54Z</time>
      </trkpt>
      <trkpt lat="43.079452011734247" lon="-9.153546961024404">
        <ele>109.40000000000001</ele>
        <time>2018-05-18T09:17:01Z</time>
      </trkpt>
      <trkpt lat="43.079109024256468" lon="-9.153501028195024">
        <ele>111.59999999999999</ele>
        <time>2018-05-18T09:17:12Z</time>
      </trkpt>
      <trkpt lat="43.079043980687857" lon="-9.153485018759966">
        <ele>112</ele>
        <time>2018-05-18T09:17:14Z</time>
      </trkpt>
      <trkpt lat="43.078646007925272" lon="-9.1534089948982">
        <ele>114.5</ele>
        <time>2018-05-18T09:17:25Z</time>
      </trkpt>
      <trkpt lat="43.078128006309271" lon="-9.153359960764647">
        <ele>117.90000000000001</ele>
        <time>2018-05-18T09:17:41Z</time>
      </trkpt>
      <trkpt lat="43.077900018543005" lon="-9.153311010450125">
        <ele>118.90000000000001</ele>
        <time>2018-05-18T09:17:48Z</time>
      </trkpt>
      <trkpt lat="43.077628025785089" lon="-9.153273040428758">
        <ele>120.40000000000001</ele>
        <time>2018-05-18T09:17:56Z</time>
      </trkpt>
      <trkpt lat="43.077378999441862" lon="-9.153227023780346">
        <ele>121.3</ele>
        <time>2018-05-18T09:18:03Z</time>
      </trkpt>
      <trkpt lat="43.076936015859246" lon="-9.153143959119916">
        <ele>122.5</ele>
        <time>2018-05-18T09:18:16Z</time>
      </trkpt>
      <trkpt lat="43.076540976762772" lon="-9.153083022683859">
        <ele>123.40000000000001</ele>
        <time>2018-05-18T09:18:28Z</time>
      </trkpt>
      <trkpt lat="43.076273007318377" lon="-9.153026025742292">
        <ele>123.5</ele>
        <time>2018-05-18T09:18:36Z</time>
      </trkpt>
      <trkpt lat="43.075792975723743" lon="-9.152971962466836">
        <ele>122.8</ele>
        <time>2018-05-18T09:18:50Z</time>
      </trkpt>
      <trkpt lat="43.075372036546469" lon="-9.152904991060495">
        <ele>122.5</ele>
        <time>2018-05-18T09:19:03Z</time>
      </trkpt>
      <trkpt lat="43.074969034641981" lon="-9.152837013825774">
        <ele>127.09999999999999</ele>
        <time>2018-05-18T09:19:15Z</time>
      </trkpt>
      <trkpt lat="43.074696036055684" lon="-9.152790997177362">
        <ele>130</ele>
        <time>2018-05-18T09:19:23Z</time>
      </trkpt>
      <trkpt lat="43.074657982215285" lon="-9.152787979692221">
        <ele>130.5</ele>
        <time>2018-05-18T09:19:24Z</time>
      </trkpt>
      <trkpt lat="43.074504006654024" lon="-9.152704998850822">
        <ele>130</ele>
        <time>2018-05-18T09:19:29Z</time>
      </trkpt>
      <trkpt lat="43.074389006942511" lon="-9.152665017172694">
        <ele>129.5</ele>
        <time>2018-05-18T09:19:33Z</time>
      </trkpt>
      <trkpt lat="43.074184991419315" lon="-9.152539037168026">
        <ele>127.59999999999999</ele>
        <time>2018-05-18T09:19:39Z</time>
      </trkpt>
      <trkpt lat="43.074027998372912" lon="-9.152454966679215">
        <ele>126.59999999999999</ele>
        <time>2018-05-18T09:19:44Z</time>
      </trkpt>
      <trkpt lat="43.073960021138191" lon="-9.15243904106319">
        <ele>126.5</ele>
        <time>2018-05-18T09:19:46Z</time>
      </trkpt>
      <trkpt lat="43.073836974799633" lon="-9.152426971122623">
        <ele>126.7</ele>
        <time>2018-05-18T09:19:50Z</time>
      </trkpt>
      <trkpt lat="43.073813002556562" lon="-9.152432000264525">
        <ele>126.8</ele>
        <time>2018-05-18T09:19:51Z</time>
      </trkpt>
      <trkpt lat="43.073661960661411" lon="-9.152435017749667">
        <ele>126.7</ele>
        <time>2018-05-18T09:19:55Z</time>
      </trkpt>
      <trkpt lat="43.073620973154902" lon="-9.152439963072538">
        <ele>126.7</ele>
        <time>2018-05-18T09:19:56Z</time>
      </trkpt>
      <trkpt lat="43.073599012568593" lon="-9.152439963072538">
        <ele>126.59999999999999</ele>
        <time>2018-05-18T09:19:57Z</time>
      </trkpt>
      <trkpt lat="43.073401032015681" lon="-9.152461001649499">
        <ele>126.2</ele>
        <time>2018-05-18T09:20:03Z</time>
      </trkpt>
      <trkpt lat="43.073283014819026" lon="-9.152444992214441">
        <ele>125.5</ele>
        <time>2018-05-18T09:20:07Z</time>
      </trkpt>
      <trkpt lat="43.073053015395999" lon="-9.152293028309941">
        <ele>122.5</ele>
        <time>2018-05-18T09:20:14Z</time>
      </trkpt>
      <trkpt lat="43.073002975434065" lon="-9.152167970314622">
        <ele>120.5</ele>
        <time>2018-05-18T09:20:17Z</time>
      </trkpt>
      <trkpt lat="43.072931980714202" lon="-9.152021035552025">
        <ele>118.7</ele>
        <time>2018-05-18T09:20:21Z</time>
      </trkpt>
      <trkpt lat="43.072510035708547" lon="-9.152126982808113">
        <ele>123.90000000000001</ele>
        <time>2018-05-18T09:20:34Z</time>
      </trkpt>
      <trkpt lat="43.07239000685513" lon="-9.152297973632813">
        <ele>126.8</ele>
        <time>2018-05-18T09:20:39Z</time>
      </trkpt>
      <trkpt lat="43.072289004921913" lon="-9.152474999427795">
        <ele>129.30000000000001</ele>
        <time>2018-05-18T09:20:44Z</time>
      </trkpt>
      <trkpt lat="43.072250029072165" lon="-9.152519004419446">
        <ele>130</ele>
        <time>2018-05-18T09:20:45Z</time>
      </trkpt>
      <trkpt lat="43.0720220413059" lon="-9.152782028540969">
        <ele>133.59999999999999</ele>
        <time>2018-05-18T09:20:54Z</time>
      </trkpt>
      <trkpt lat="43.071883991360664" lon="-9.152841959148645">
        <ele>135</ele>
        <time>2018-05-18T09:20:59Z</time>
      </trkpt>
      <trkpt lat="43.071754993870854" lon="-9.152857968583703">
        <ele>136.09999999999999</ele>
        <time>2018-05-18T09:21:02Z</time>
      </trkpt>
      <trkpt lat="43.071596994996071" lon="-9.152882024645805">
        <ele>137.40000000000001</ele>
        <time>2018-05-18T09:21:07Z</time>
      </trkpt>
      <trkpt lat="43.071424998342991" lon="-9.152946984395385">
        <ele>139</ele>
        <time>2018-05-18T09:21:12Z</time>
      </trkpt>
      <trkpt lat="43.071346040815115" lon="-9.152972968295217">
        <ele>139.80000000000001</ele>
        <time>2018-05-18T09:21:15Z</time>
      </trkpt>
      <trkpt lat="43.071159040555358" lon="-9.15299903601408">
        <ele>140.90000000000001</ele>
        <time>2018-05-18T09:21:20Z</time>
      </trkpt>
      <trkpt lat="43.070986960083246" lon="-9.152944972738624">
        <ele>140.80000000000001</ele>
        <time>2018-05-18T09:21:26Z</time>
      </trkpt>
      <trkpt lat="43.07082200422883" lon="-9.152857968583703">
        <ele>141.30000000000001</ele>
        <time>2018-05-18T09:21:31Z</time>
      </trkpt>
      <trkpt lat="43.070510029792786" lon="-9.152654958888888">
        <ele>143.5</ele>
        <time>2018-05-18T09:21:41Z</time>
      </trkpt>
      <trkpt lat="43.070365022867918" lon="-9.152552029117942">
        <ele>144.90000000000001</ele>
        <time>2018-05-18T09:21:46Z</time>
      </trkpt>
      <trkpt lat="43.070295033976436" lon="-9.152498971670866">
        <ele>145.69999999999999</ele>
        <time>2018-05-18T09:21:48Z</time>
      </trkpt>
      <trkpt lat="43.070006025955081" lon="-9.152238965034485">
        <ele>148.59999999999999</ele>
        <time>2018-05-18T09:21:59Z</time>
      </trkpt>
      <trkpt lat="43.069721041247249" lon="-9.15201298892498">
        <ele>151.09999999999999</ele>
        <time>2018-05-18T09:22:08Z</time>
      </trkpt>
      <trkpt lat="43.069560024887323" lon="-9.151974013075233">
        <ele>152.30000000000001</ele>
        <time>2018-05-18T09:22:13Z</time>
      </trkpt>
      <trkpt lat="43.069447036832571" lon="-9.151959009468556">
        <ele>153.59999999999999</ele>
        <time>2018-05-18T09:22:16Z</time>
      </trkpt>
      <trkpt lat="43.069158028811216" lon="-9.151964960619807">
        <ele>156.69999999999999</ele>
        <time>2018-05-18T09:22:25Z</time>
      </trkpt>
      <trkpt lat="43.068844964727759" lon="-9.152023969218135">
        <ele>159.5</ele>
        <time>2018-05-18T09:22:34Z</time>
      </trkpt>
      <trkpt lat="43.068753015249968" lon="-9.152018018066883">
        <ele>160.5</ele>
        <time>2018-05-18T09:22:37Z</time>
      </trkpt>
      <trkpt lat="43.068654024973512" lon="-9.151991028338671">
        <ele>161.69999999999999</ele>
        <time>2018-05-18T09:22:40Z</time>
      </trkpt>
      <trkpt lat="43.068312965333462" lon="-9.151833029463887">
        <ele>165.90000000000001</ele>
        <time>2018-05-18T09:22:51Z</time>
      </trkpt>
      <trkpt lat="43.068252028897405" lon="-9.151800004765391">
        <ele>166.5</ele>
        <time>2018-05-18T09:22:53Z</time>
      </trkpt>
      <trkpt lat="43.067934019491076" lon="-9.151600012555718">
        <ele>169.5</ele>
        <time>2018-05-18T09:23:03Z</time>
      </trkpt>
      <trkpt lat="43.067796975374222" lon="-9.151443019509316">
        <ele>170.5</ele>
        <time>2018-05-18T09:23:09Z</time>
      </trkpt>
      <trkpt lat="43.067637970671058" lon="-9.151311004534364">
        <ele>171.59999999999999</ele>
        <time>2018-05-18T09:23:14Z</time>
      </trkpt>
      <trkpt lat="43.067597988992929" lon="-9.151278985664249">
        <ele>171.90000000000001</ele>
        <time>2018-05-18T09:23:15Z</time>
      </trkpt>
      <trkpt lat="43.067253995686769" lon="-9.151035994291306">
        <ele>173.30000000000001</ele>
        <time>2018-05-18T09:23:27Z</time>
      </trkpt>
      <trkpt lat="43.067157017067075" lon="-9.150994000956416">
        <ele>173.69999999999999</ele>
        <time>2018-05-18T09:23:30Z</time>
      </trkpt>
      <trkpt lat="43.066834984347224" lon="-9.150940021499991">
        <ele>175.30000000000001</ele>
        <time>2018-05-18T09:23:39Z</time>
      </trkpt>
      <trkpt lat="43.066681008785963" lon="-9.150947984308004">
        <ele>176.19999999999999</ele>
        <time>2018-05-18T09:23:44Z</time>
      </trkpt>
      <trkpt lat="43.066498031839728" lon="-9.150932980701327">
        <ele>177.19999999999999</ele>
        <time>2018-05-18T09:23:49Z</time>
      </trkpt>
      <trkpt lat="43.065954968333244" lon="-9.15087103843689">
        <ele>179.30000000000001</ele>
        <time>2018-05-18T09:24:06Z</time>
      </trkpt>
      <trkpt lat="43.065882967785001" lon="-9.150870032608509">
        <ele>179.40000000000001</ele>
        <time>2018-05-18T09:24:08Z</time>
      </trkpt>
      <trkpt lat="43.065720023587346" lon="-9.15085100568831">
        <ele>179.80000000000001</ele>
        <time>2018-05-18T09:24:13Z</time>
      </trkpt>
      <trkpt lat="43.065414000302553" lon="-9.150820998474956">
        <ele>180.5</ele>
        <time>2018-05-18T09:24:22Z</time>
      </trkpt>
      <trkpt lat="43.065113006159663" lon="-9.150771964341402">
        <ele>181.59999999999999</ele>
        <time>2018-05-18T09:24:31Z</time>
      </trkpt>
      <trkpt lat="43.064861968159676" lon="-9.150676997378469">
        <ele>182.80000000000001</ele>
        <time>2018-05-18T09:24:38Z</time>
      </trkpt>
      <trkpt lat="43.064492996782064" lon="-9.150575995445252">
        <ele>184.40000000000001</ele>
        <time>2018-05-18T09:24:49Z</time>
      </trkpt>
      <trkpt lat="43.064262997359037" lon="-9.150583036243916">
        <ele>184.30000000000001</ele>
        <time>2018-05-18T09:24:56Z</time>
      </trkpt>
      <trkpt lat="43.063948005437851" lon="-9.150598961859942">
        <ele>184.19999999999999</ele>
        <time>2018-05-18T09:25:06Z</time>
      </trkpt>
      <trkpt lat="43.06368900462985" lon="-9.150598039850593">
        <ele>184.19999999999999</ele>
        <time>2018-05-18T09:25:13Z</time>
      </trkpt>
      <trkpt lat="43.063637958839536" lon="-9.150596028193831">
        <ele>184.09999999999999</ele>
        <time>2018-05-18T09:25:15Z</time>
      </trkpt>
      <trkpt lat="43.063600994646549" lon="-9.150579012930393">
        <ele>184.09999999999999</ele>
        <time>2018-05-18T09:25:16Z</time>
      </trkpt>
      <trkpt lat="43.063478032127023" lon="-9.150553029030561">
        <ele>183.90000000000001</ele>
        <time>2018-05-18T09:25:20Z</time>
      </trkpt>
      <trkpt lat="43.063465962186456" lon="-9.15055001154542">
        <ele>183.90000000000001</ele>
        <time>2018-05-18T09:25:20Z</time>
      </trkpt>
      <trkpt lat="43.063349034637213" lon="-9.150540037080646">
        <ele>183.80000000000001</ele>
        <time>2018-05-18T09:25:23Z</time>
      </trkpt>
      <trkpt lat="43.063315004110336" lon="-9.150538025423884">
        <ele>183.80000000000001</ele>
        <time>2018-05-18T09:25:24Z</time>
      </trkpt>
      <trkpt lat="43.063163962215185" lon="-9.150512041524053">
        <ele>183.59999999999999</ele>
        <time>2018-05-18T09:25:29Z</time>
      </trkpt>
      <trkpt lat="43.063052985817194" lon="-9.150479016825557">
        <ele>183.40000000000001</ele>
        <time>2018-05-18T09:25:32Z</time>
      </trkpt>
      <trkpt lat="43.062902027741075" lon="-9.150467030704022">
        <ele>183.09999999999999</ele>
        <time>2018-05-18T09:25:37Z</time>
      </trkpt>
      <trkpt lat="43.062873026356101" lon="-9.150484967976809">
        <ele>183</ele>
        <time>2018-05-18T09:25:38Z</time>
      </trkpt>
      <trkpt lat="43.062834972515702" lon="-9.150522015988827">
        <ele>183</ele>
        <time>2018-05-18T09:25:39Z</time>
      </trkpt>
      <trkpt lat="43.062741011381149" lon="-9.150597034022212">
        <ele>182.80000000000001</ele>
        <time>2018-05-18T09:25:42Z</time>
      </trkpt>
      <trkpt lat="43.062645960599184" lon="-9.150632992386818">
        <ele>182.5</ele>
        <time>2018-05-18T09:25:45Z</time>
      </trkpt>
      <trkpt lat="43.062562979757786" lon="-9.150689989328384">
        <ele>182.30000000000001</ele>
        <time>2018-05-18T09:25:48Z</time>
      </trkpt>
      <trkpt lat="43.062419984489679" lon="-9.150775987654924">
        <ele>181.90000000000001</ele>
        <time>2018-05-18T09:25:52Z</time>
      </trkpt>
      <trkpt lat="43.062309008091688" lon="-9.150857040658593">
        <ele>181.69999999999999</ele>
        <time>2018-05-18T09:25:56Z</time>
      </trkpt>
      <trkpt lat="43.062230972573161" lon="-9.150912025943399">
        <ele>181.5</ele>
        <time>2018-05-18T09:25:59Z</time>
      </trkpt>
      <trkpt lat="43.06214002892375" lon="-9.150973968207836">
        <ele>181.30000000000001</ele>
        <time>2018-05-18T09:26:02Z</time>
      </trkpt>
      <trkpt lat="43.062028968706727" lon="-9.15104697458446">
        <ele>181</ele>
        <time>2018-05-18T09:26:05Z</time>
      </trkpt>
      <trkpt lat="43.061917992308736" lon="-9.151102965697646">
        <ele>180.5</ele>
        <time>2018-05-18T09:26:09Z</time>
      </trkpt>
      <trkpt lat="43.061840040609241" lon="-9.151191981509328">
        <ele>180.40000000000001</ele>
        <time>2018-05-18T09:26:12Z</time>
      </trkpt>
      <trkpt lat="43.061768962070346" lon="-9.1512590367347">
        <ele>180.19999999999999</ele>
        <time>2018-05-18T09:26:15Z</time>
      </trkpt>
      <trkpt lat="43.061700984835625" lon="-9.151271022856236">
        <ele>179.80000000000001</ele>
        <time>2018-05-18T09:26:17Z</time>
      </trkpt>
      <trkpt lat="43.061564024537802" lon="-9.151320978999138">
        <ele>179.30000000000001</ele>
        <time>2018-05-18T09:26:21Z</time>
      </trkpt>
      <trkpt lat="43.061490012332797" lon="-9.15139096789062">
        <ele>179.19999999999999</ele>
        <time>2018-05-18T09:26:23Z</time>
      </trkpt>
      <trkpt lat="43.061464028432965" lon="-9.151400020346046">
        <ele>179.09999999999999</ele>
        <time>2018-05-18T09:26:24Z</time>
      </trkpt>
      <trkpt lat="43.061400996521115" lon="-9.151446036994457">
        <ele>179</ele>
        <time>2018-05-18T09:26:26Z</time>
      </trkpt>
      <trkpt lat="43.061317009851336" lon="-9.151486018672586">
        <ele>178.80000000000001</ele>
        <time>2018-05-18T09:26:29Z</time>
      </trkpt>
      <trkpt lat="43.061236040666699" lon="-9.15153999812901">
        <ele>178.59999999999999</ele>
        <time>2018-05-18T09:26:32Z</time>
      </trkpt>
      <trkpt lat="43.061177032068372" lon="-9.151588026434183">
        <ele>178.40000000000001</ele>
        <time>2018-05-18T09:26:34Z</time>
      </trkpt>
      <trkpt lat="43.061149958521128" lon="-9.151627002283931">
        <ele>178.30000000000001</ele>
        <time>2018-05-18T09:26:35Z</time>
      </trkpt>
      <trkpt lat="43.061095979064703" lon="-9.151651980355382">
        <ele>178</ele>
        <time>2018-05-18T09:26:36Z</time>
      </trkpt>
      <trkpt lat="43.061074018478394" lon="-9.151680981740356">
        <ele>177.90000000000001</ele>
        <time>2018-05-18T09:26:37Z</time>
      </trkpt>
      <trkpt lat="43.060991959646344" lon="-9.151764968410134">
        <ele>177.40000000000001</ele>
        <time>2018-05-18T09:26:40Z</time>
      </trkpt>
      <trkpt lat="43.060944015160203" lon="-9.151815008372068">
        <ele>177.09999999999999</ele>
        <time>2018-05-18T09:26:42Z</time>
      </trkpt>
      <trkpt lat="43.060935968533158" lon="-9.151825988665223">
        <ele>177</ele>
        <time>2018-05-18T09:26:43Z</time>
      </trkpt>
      <trkpt lat="43.060813006013632" lon="-9.151972001418471">
        <ele>176</ele>
        <time>2018-05-18T09:26:47Z</time>
      </trkpt>
      <trkpt lat="43.060716027393937" lon="-9.152080966159701">
        <ele>174.90000000000001</ele>
        <time>2018-05-18T09:26:51Z</time>
      </trkpt>
      <trkpt lat="43.060629023239017" lon="-9.152191020548344">
        <ele>174.19999999999999</ele>
        <time>2018-05-18T09:26:55Z</time>
      </trkpt>
      <trkpt lat="43.060502959415317" lon="-9.152359999716282">
        <ele>173.30000000000001</ele>
        <time>2018-05-18T09:27:00Z</time>
      </trkpt>
      <trkpt lat="43.060360969975591" lon="-9.152558986097574">
        <ele>172.90000000000001</ele>
        <time>2018-05-18T09:27:06Z</time>
      </trkpt>
      <trkpt lat="43.06031302548945" lon="-9.152593016624451">
        <ele>172.80000000000001</ele>
        <time>2018-05-18T09:27:07Z</time>
      </trkpt>
      <trkpt lat="43.060300033539534" lon="-9.152640961110592">
        <ele>172.90000000000001</ele>
        <time>2018-05-18T09:27:09Z</time>
      </trkpt>
      <trkpt lat="43.060263991355896" lon="-9.152688989415765">
        <ele>172.90000000000001</ele>
        <time>2018-05-18T09:27:10Z</time>
      </trkpt>
      <trkpt lat="43.0602499935776" lon="-9.152725031599402">
        <ele>173</ele>
        <time>2018-05-18T09:27:11Z</time>
      </trkpt>
      <trkpt lat="43.060221998021007" lon="-9.152766019105911">
        <ele>173.09999999999999</ele>
        <time>2018-05-18T09:27:12Z</time>
      </trkpt>
      <trkpt lat="43.060132982209325" lon="-9.152870960533619">
        <ele>173.09999999999999</ele>
        <time>2018-05-18T09:27:16Z</time>
      </trkpt>
      <trkpt lat="43.060131976380944" lon="-9.152895016595721">
        <ele>173.19999999999999</ele>
        <time>2018-05-18T09:27:16Z</time>
      </trkpt>
      <trkpt lat="43.060074979439378" lon="-9.152928041294217">
        <ele>173</ele>
        <time>2018-05-18T09:27:18Z</time>
      </trkpt>
      <trkpt lat="43.059994010254741" lon="-9.153003981336951">
        <ele>173.19999999999999</ele>
        <time>2018-05-18T09:27:21Z</time>
      </trkpt>
      <trkpt lat="43.05988596752286" lon="-9.153056032955647">
        <ele>173</ele>
        <time>2018-05-18T09:27:24Z</time>
      </trkpt>
      <trkpt lat="43.059802986681461" lon="-9.153091991320252">
        <ele>172.90000000000001</ele>
        <time>2018-05-18T09:27:27Z</time>
      </trkpt>
      <trkpt lat="43.059697039425373" lon="-9.153174972161651">
        <ele>173.09999999999999</ele>
        <time>2018-05-18T09:27:30Z</time>
      </trkpt>
      <trkpt lat="43.059638030827045" lon="-9.153210008516908">
        <ele>173.09999999999999</ele>
        <time>2018-05-18T09:27:32Z</time>
      </trkpt>
      <trkpt lat="43.059572987258434" lon="-9.15325996465981">
        <ele>173.19999999999999</ele>
        <time>2018-05-18T09:27:34Z</time>
      </trkpt>
      <trkpt lat="43.059501992538571" lon="-9.153296006843448">
        <ele>172.90000000000001</ele>
        <time>2018-05-18T09:27:37Z</time>
      </trkpt>
      <trkpt lat="43.059452958405018" lon="-9.153328025713563">
        <ele>172.80000000000001</ele>
        <time>2018-05-18T09:27:38Z</time>
      </trkpt>
      <trkpt lat="43.059338964521885" lon="-9.153388040140271">
        <ele>172.30000000000001</ele>
        <time>2018-05-18T09:27:42Z</time>
      </trkpt>
      <trkpt lat="43.059320021420717" lon="-9.153402037918568">
        <ele>172.30000000000001</ele>
        <time>2018-05-18T09:27:43Z</time>
      </trkpt>
      <trkpt lat="43.05924098007381" lon="-9.153434978798032">
        <ele>171.80000000000001</ele>
        <time>2018-05-18T09:27:45Z</time>
      </trkpt>
      <trkpt lat="43.059162022545934" lon="-9.153503039851785">
        <ele>171.69999999999999</ele>
        <time>2018-05-18T09:27:48Z</time>
      </trkpt>
      <trkpt lat="43.059106031432748" lon="-9.153528017923236">
        <ele>171.40000000000001</ele>
        <time>2018-05-18T09:27:50Z</time>
      </trkpt>
      <trkpt lat="43.059096978977323" lon="-9.153534974902868">
        <ele>171.40000000000001</ele>
        <time>2018-05-18T09:27:50Z</time>
      </trkpt>
      <trkpt lat="43.059017015621066" lon="-9.153604041785002">
        <ele>171.30000000000001</ele>
        <time>2018-05-18T09:27:53Z</time>
      </trkpt>
      <trkpt lat="43.058972004801035" lon="-9.153635976836085">
        <ele>171.09999999999999</ele>
        <time>2018-05-18T09:27:54Z</time>
      </trkpt>
      <trkpt lat="43.058871002867818" lon="-9.153679981827736">
        <ele>170.59999999999999</ele>
        <time>2018-05-18T09:27:57Z</time>
      </trkpt>
      <trkpt lat="43.058807970955968" lon="-9.153736978769302">
        <ele>170.40000000000001</ele>
        <time>2018-05-18T09:28:00Z</time>
      </trkpt>
      <trkpt lat="43.058735970407724" lon="-9.15377302095294">
        <ele>170</ele>
        <time>2018-05-18T09:28:02Z</time>
      </trkpt>
      <trkpt lat="43.058706969022751" lon="-9.153806967660785">
        <ele>169.80000000000001</ele>
        <time>2018-05-18T09:28:03Z</time>
      </trkpt>
      <trkpt lat="43.058658018708229" lon="-9.153858013451099">
        <ele>169.59999999999999</ele>
        <time>2018-05-18T09:28:05Z</time>
      </trkpt>
      <trkpt lat="43.058550981804729" lon="-9.153915010392666">
        <ele>168.80000000000001</ele>
        <time>2018-05-18T09:28:08Z</time>
      </trkpt>
      <trkpt lat="43.058519968762994" lon="-9.153938982635737">
        <ele>168.59999999999999</ele>
        <time>2018-05-18T09:28:09Z</time>
      </trkpt>
      <trkpt lat="43.058438999578357" lon="-9.154006037861109">
        <ele>168</ele>
        <time>2018-05-18T09:28:12Z</time>
      </trkpt>
      <trkpt lat="43.05835803039372" lon="-9.154072003439069">
        <ele>167.40000000000001</ele>
        <time>2018-05-18T09:28:15Z</time>
      </trkpt>
      <trkpt lat="43.05822903290391" lon="-9.154148027300835">
        <ele>166.30000000000001</ele>
        <time>2018-05-18T09:28:19Z</time>
      </trkpt>
      <trkpt lat="43.058147979900241" lon="-9.154221033677459">
        <ele>165.59999999999999</ele>
        <time>2018-05-18T09:28:22Z</time>
      </trkpt>
      <trkpt lat="43.058128030970693" lon="-9.154242994263768">
        <ele>165.40000000000001</ele>
        <time>2018-05-18T09:28:23Z</time>
      </trkpt>
      <trkpt lat="43.058084025979042" lon="-9.154274007305503">
        <ele>165</ele>
        <time>2018-05-18T09:28:24Z</time>
      </trkpt>
      <trkpt lat="43.05806097574532" lon="-9.154280964285135">
        <ele>164.69999999999999</ele>
        <time>2018-05-18T09:28:25Z</time>
      </trkpt>
      <trkpt lat="43.05799400433898" lon="-9.154328992590308">
        <ele>164.09999999999999</ele>
        <time>2018-05-18T09:28:27Z</time>
      </trkpt>
      <trkpt lat="43.057920997962356" lon="-9.154413985088468">
        <ele>163.19999999999999</ele>
        <time>2018-05-18T09:28:30Z</time>
      </trkpt>
      <trkpt lat="43.057843968272209" lon="-9.154448015615344">
        <ele>162.59999999999999</ele>
        <time>2018-05-18T09:28:32Z</time>
      </trkpt>
      <trkpt lat="43.057828964665532" lon="-9.154444998130202">
        <ele>162.5</ele>
        <time>2018-05-18T09:28:33Z</time>
      </trkpt>
      <trkpt lat="43.057684041559696" lon="-9.154447009786964">
        <ele>161.30000000000001</ele>
        <time>2018-05-18T09:28:37Z</time>
      </trkpt>
      <trkpt lat="43.057605000212789" lon="-9.154433012008667">
        <ele>160.69999999999999</ele>
        <time>2018-05-18T09:28:39Z</time>
      </trkpt>
      <trkpt lat="43.057441972196102" lon="-9.154437035322189">
        <ele>159.40000000000001</ele>
        <time>2018-05-18T09:28:44Z</time>
      </trkpt>
      <trkpt lat="43.057340970262885" lon="-9.154443992301822">
        <ele>158.59999999999999</ele>
        <time>2018-05-18T09:28:47Z</time>
      </trkpt>
      <trkpt lat="43.057304006069899" lon="-9.154447009786964">
        <ele>158.30000000000001</ele>
        <time>2018-05-18T09:28:48Z</time>
      </trkpt>
      <trkpt lat="43.05715799331665" lon="-9.154434017837048">
        <ele>157.09999999999999</ele>
        <time>2018-05-18T09:28:53Z</time>
      </trkpt>
      <trkpt lat="43.05707199499011" lon="-9.154444998130202">
        <ele>156.40000000000001</ele>
        <time>2018-05-18T09:28:55Z</time>
      </trkpt>
      <trkpt lat="43.057031007483602" lon="-9.154441980645061">
        <ele>156</ele>
        <time>2018-05-18T09:28:56Z</time>
      </trkpt>
      <trkpt lat="43.056937968358397" lon="-9.154432006180286">
        <ele>155.09999999999999</ele>
        <time>2018-05-18T09:28:59Z</time>
      </trkpt>
      <trkpt lat="43.056846018880606" lon="-9.154444998130202">
        <ele>154.09999999999999</ele>
        <time>2018-05-18T09:29:02Z</time>
      </trkpt>
      <trkpt lat="43.056764965876937" lon="-9.154434017837048">
        <ele>153.30000000000001</ele>
        <time>2018-05-18T09:29:04Z</time>
      </trkpt>
      <trkpt lat="43.056688020005822" lon="-9.154453966766596">
        <ele>152.40000000000001</ele>
        <time>2018-05-18T09:29:07Z</time>
      </trkpt>
      <trkpt lat="43.056593975052238" lon="-9.154453966766596">
        <ele>151.5</ele>
        <time>2018-05-18T09:29:09Z</time>
      </trkpt>
      <trkpt lat="43.05649297311902" lon="-9.154447009786964">
        <ele>150.5</ele>
        <time>2018-05-18T09:29:12Z</time>
      </trkpt>
      <trkpt lat="43.056337991729379" lon="-9.154457990080118">
        <ele>148.80000000000001</ele>
        <time>2018-05-18T09:29:17Z</time>
      </trkpt>
      <trkpt lat="43.05623397231102" lon="-9.154468970373273">
        <ele>147.69999999999999</ele>
        <time>2018-05-18T09:29:20Z</time>
      </trkpt>
      <trkpt lat="43.056032974272966" lon="-9.154492020606995">
        <ele>145.80000000000001</ele>
        <time>2018-05-18T09:29:26Z</time>
      </trkpt>
      <trkpt lat="43.055888973176479" lon="-9.154508030042052">
        <ele>144.5</ele>
        <time>2018-05-18T09:29:30Z</time>
      </trkpt>
      <trkpt lat="43.055823007598519" lon="-9.154513981193304">
        <ele>143.90000000000001</ele>
        <time>2018-05-18T09:29:32Z</time>
      </trkpt>
      <trkpt lat="43.05569501593709" lon="-9.154522027820349">
        <ele>142.69999999999999</ele>
        <time>2018-05-18T09:29:36Z</time>
      </trkpt>
      <trkpt lat="43.055595019832253" lon="-9.154541976749897">
        <ele>141.80000000000001</ele>
        <time>2018-05-18T09:29:39Z</time>
      </trkpt>
      <trkpt lat="43.055499969050288" lon="-9.154546000063419">
        <ele>140.90000000000001</ele>
        <time>2018-05-18T09:29:42Z</time>
      </trkpt>
      <trkpt lat="43.055397961288691" lon="-9.154548011720181">
        <ele>140.09999999999999</ele>
        <time>2018-05-18T09:29:45Z</time>
      </trkpt>
      <trkpt lat="43.055307017639279" lon="-9.154538959264755">
        <ele>139.5</ele>
        <time>2018-05-18T09:29:48Z</time>
      </trkpt>
      <trkpt lat="43.055223030969501" lon="-9.154524961486459">
        <ele>139</ele>
        <time>2018-05-18T09:29:50Z</time>
      </trkpt>
      <trkpt lat="43.055132003501058" lon="-9.154538037255406">
        <ele>138.30000000000001</ele>
        <time>2018-05-18T09:29:53Z</time>
      </trkpt>
      <trkpt lat="43.055119011551142" lon="-9.154535019770265">
        <ele>138.19999999999999</ele>
        <time>2018-05-18T09:29:53Z</time>
      </trkpt>
      <trkpt lat="43.054989008232951" lon="-9.154552035033703">
        <ele>137.09999999999999</ele>
        <time>2018-05-18T09:29:57Z</time>
      </trkpt>
      <trkpt lat="43.054951960220933" lon="-9.154554968699813">
        <ele>136.90000000000001</ele>
        <time>2018-05-18T09:29:58Z</time>
      </trkpt>
      <trkpt lat="43.054883982986212" lon="-9.154563015326858">
        <ele>136.30000000000001</ele>
        <time>2018-05-18T09:30:00Z</time>
      </trkpt>
      <trkpt lat="43.05479496717453" lon="-9.154556980356574">
        <ele>135.69999999999999</ele>
        <time>2018-05-18T09:30:03Z</time>
      </trkpt>
      <trkpt lat="43.054738976061344" lon="-9.154558992013335">
        <ele>135.30000000000001</ele>
        <time>2018-05-18T09:30:05Z</time>
      </trkpt>
      <trkpt lat="43.054735036566854" lon="-9.154564021155238">
        <ele>135.19999999999999</ele>
        <time>2018-05-18T09:30:05Z</time>
      </trkpt>
      <trkpt lat="43.054589023813605" lon="-9.154544994235039">
        <ele>134.40000000000001</ele>
        <time>2018-05-18T09:30:09Z</time>
      </trkpt>
      <trkpt lat="43.054328011348844" lon="-9.154537031427026">
        <ele>134.09999999999999</ele>
        <time>2018-05-18T09:30:17Z</time>
      </trkpt>
      <trkpt lat="43.05410698056221" lon="-9.154516998678446">
        <ele>134</ele>
        <time>2018-05-18T09:30:23Z</time>
      </trkpt>
      <trkpt lat="43.053942024707794" lon="-9.154490008950234">
        <ele>134.09999999999999</ele>
        <time>2018-05-18T09:30:28Z</time>
      </trkpt>
      <trkpt lat="43.053732980042696" lon="-9.154452960938215">
        <ele>134.09999999999999</ele>
        <time>2018-05-18T09:30:35Z</time>
      </trkpt>
      <trkpt lat="43.053480014204979" lon="-9.15446100756526">
        <ele>132.5</ele>
        <time>2018-05-18T09:30:42Z</time>
      </trkpt>
      <trkpt lat="43.053313968703151" lon="-9.154463019222021">
        <ele>131.40000000000001</ele>
        <time>2018-05-18T09:30:47Z</time>
      </trkpt>
      <trkpt lat="43.053135015070438" lon="-9.154497971758246">
        <ele>130</ele>
        <time>2018-05-18T09:30:52Z</time>
      </trkpt>
      <trkpt lat="43.05292597040534" lon="-9.154527978971601">
        <ele>128.5</ele>
        <time>2018-05-18T09:30:59Z</time>
      </trkpt>
      <trkpt lat="43.052660012617707" lon="-9.154578018933535">
        <ele>127.7</ele>
        <time>2018-05-18T09:31:06Z</time>
      </trkpt>
      <trkpt lat="43.052377039566636" lon="-9.154571983963251">
        <ele>127.40000000000001</ele>
        <time>2018-05-18T09:31:15Z</time>
      </trkpt>
      <trkpt lat="43.052126001566648" lon="-9.15450400672853">
        <ele>127.3</ele>
        <time>2018-05-18T09:31:22Z</time>
      </trkpt>
      <trkpt lat="43.051811009645462" lon="-9.154727971181274">
        <ele>126</ele>
        <time>2018-05-18T09:31:33Z</time>
      </trkpt>
      <trkpt lat="43.051426028832793" lon="-9.15512703359127">
        <ele>125</ele>
        <time>2018-05-18T09:31:47Z</time>
      </trkpt>
      <trkpt lat="43.051102990284562" lon="-9.155484018847346">
        <ele>124.5</ele>
        <time>2018-05-18T09:31:59Z</time>
      </trkpt>
      <trkpt lat="43.051078012213111" lon="-9.155506985262036">
        <ele>124.40000000000001</ele>
        <time>2018-05-18T09:32:00Z</time>
      </trkpt>
      <trkpt lat="43.050962006673217" lon="-9.155488964170218">
        <ele>124</ele>
        <time>2018-05-18T09:32:04Z</time>
      </trkpt>
      <trkpt lat="43.050896963104606" lon="-9.155327025800943">
        <ele>123.5</ele>
        <time>2018-05-18T09:32:08Z</time>
      </trkpt>
      <trkpt lat="43.050812976434827" lon="-9.155161986127496">
        <ele>122.8</ele>
        <time>2018-05-18T09:32:12Z</time>
      </trkpt>
      <trkpt lat="43.050664030015469" lon="-9.154896028339863">
        <ele>121.40000000000001</ele>
        <time>2018-05-18T09:32:19Z</time>
      </trkpt>
      <trkpt lat="43.050404023379087" lon="-9.154398981481791">
        <ele>119</ele>
        <time>2018-05-18T09:32:33Z</time>
      </trkpt>
      <trkpt lat="43.050071010366082" lon="-9.153772015124559">
        <ele>119.40000000000001</ele>
        <time>2018-05-18T09:32:49Z</time>
      </trkpt>
      <trkpt lat="43.049869006499648" lon="-9.153401032090187">
        <ele>121.59999999999999</ele>
        <time>2018-05-18T09:32:59Z</time>
      </trkpt>
      <trkpt lat="43.049760963767767" lon="-9.153199028223753">
        <ele>123.2</ele>
        <time>2018-05-18T09:33:05Z</time>
      </trkpt>
      <trkpt lat="43.049689969047904" lon="-9.15306500159204">
        <ele>124.40000000000001</ele>
        <time>2018-05-18T09:33:08Z</time>
      </trkpt>
      <trkpt lat="43.049689969047904" lon="-9.153062989935279">
        <ele>124.40000000000001</ele>
        <time>2018-05-18T09:33:08Z</time>
      </trkpt>
      <trkpt lat="43.049691980704665" lon="-9.153049997985363">
        <ele>124.5</ele>
        <time>2018-05-18T09:33:09Z</time>
      </trkpt>
      <trkpt lat="43.049670020118356" lon="-9.153040023520589">
        <ele>124.7</ele>
        <time>2018-05-18T09:33:09Z</time>
      </trkpt>
      <trkpt lat="43.049587039276958" lon="-9.153113029897213">
        <ele>124.59999999999999</ele>
        <time>2018-05-18T09:33:12Z</time>
      </trkpt>
      <trkpt lat="43.049458963796496" lon="-9.153176983818412">
        <ele>124.59999999999999</ele>
        <time>2018-05-18T09:33:16Z</time>
      </trkpt>
      <trkpt lat="43.0492930021137" lon="-9.153319979086518">
        <ele>124.09999999999999</ele>
        <time>2018-05-18T09:33:22Z</time>
      </trkpt>
      <trkpt lat="43.049244973808527" lon="-9.153444031253457">
        <ele>123.40000000000001</ele>
        <time>2018-05-18T09:33:25Z</time>
      </trkpt>
      <trkpt lat="43.04922703653574" lon="-9.153540004044771">
        <ele>122.8</ele>
        <time>2018-05-18T09:33:27Z</time>
      </trkpt>
      <trkpt lat="43.049225024878979" lon="-9.153523994609714">
        <ele>122.90000000000001</ele>
        <time>2018-05-18T09:33:28Z</time>
      </trkpt>
      <trkpt lat="43.049159981310368" lon="-9.153649974614382">
        <ele>122.2</ele>
        <time>2018-05-18T09:33:31Z</time>
      </trkpt>
      <trkpt lat="43.04914397187531" lon="-9.153671013191342">
        <ele>122.09999999999999</ele>
        <time>2018-05-18T09:33:32Z</time>
      </trkpt>
      <trkpt lat="43.049098961055279" lon="-9.153729015961289">
        <ele>121.90000000000001</ele>
        <time>2018-05-18T09:33:33Z</time>
      </trkpt>
      <trkpt lat="43.049034001305699" lon="-9.153785007074475">
        <ele>121.8</ele>
        <time>2018-05-18T09:33:36Z</time>
      </trkpt>
      <trkpt lat="43.048828979954123" lon="-9.153891960158944">
        <ele>121.7</ele>
        <time>2018-05-18T09:33:42Z</time>
      </trkpt>
      <trkpt lat="43.048593029379845" lon="-9.153899000957608">
        <ele>122</ele>
        <time>2018-05-18T09:33:49Z</time>
      </trkpt>
      <trkpt lat="43.048446010798216" lon="-9.153909981250763">
        <ele>122.09999999999999</ele>
        <time>2018-05-18T09:33:54Z</time>
      </trkpt>
      <trkpt lat="43.048389013856649" lon="-9.153858013451099">
        <ele>122.40000000000001</ele>
        <time>2018-05-18T09:33:56Z</time>
      </trkpt>
      <trkpt lat="43.04834702052176" lon="-9.153805039823055">
        <ele>122.7</ele>
        <time>2018-05-18T09:33:57Z</time>
      </trkpt>
      <trkpt lat="43.048207964748144" lon="-9.153760029003024">
        <ele>123</ele>
        <time>2018-05-18T09:34:02Z</time>
      </trkpt>
      <trkpt lat="43.048030016943812" lon="-9.153719041496515">
        <ele>123.09999999999999</ele>
        <time>2018-05-18T09:34:07Z</time>
      </trkpt>
      <trkpt lat="43.047972014173865" lon="-9.153693979606032">
        <ele>123.2</ele>
        <time>2018-05-18T09:34:09Z</time>
      </trkpt>
      <trkpt lat="43.047908982262015" lon="-9.153691967949271">
        <ele>123.2</ele>
        <time>2018-05-18T09:34:11Z</time>
      </trkpt>
      <trkpt lat="43.047703038901091" lon="-9.153720969334245">
        <ele>123.59999999999999</ele>
        <time>2018-05-18T09:34:17Z</time>
      </trkpt>
      <trkpt lat="43.047143965959549" lon="-9.153785007074475">
        <ele>124.59999999999999</ele>
        <time>2018-05-18T09:34:33Z</time>
      </trkpt>
      <trkpt lat="43.046996025368571" lon="-9.153784001246095">
        <ele>124.7</ele>
        <time>2018-05-18T09:34:38Z</time>
      </trkpt>
      <trkpt lat="43.046860992908478" lon="-9.153723986819387">
        <ele>124.8</ele>
        <time>2018-05-18T09:34:42Z</time>
      </trkpt>
      <trkpt lat="43.046686984598637" lon="-9.153584009036422">
        <ele>125</ele>
        <time>2018-05-18T09:34:48Z</time>
      </trkpt>
      <trkpt lat="43.046466037631035" lon="-9.153297012671828">
        <ele>125.5</ele>
        <time>2018-05-18T09:34:57Z</time>
      </trkpt>
      <trkpt lat="43.046277025714517" lon="-9.152900967746973">
        <ele>126.09999999999999</ele>
        <time>2018-05-18T09:35:07Z</time>
      </trkpt>
      <trkpt lat="43.046105029061437" lon="-9.152425965294242">
        <ele>127.59999999999999</ele>
        <time>2018-05-18T09:35:18Z</time>
      </trkpt>
      <trkpt lat="43.04600796662271" lon="-9.152235025539994">
        <ele>128.30000000000001</ele>
        <time>2018-05-18T09:35:23Z</time>
      </trkpt>
      <trkpt lat="43.045889027416706" lon="-9.151976024731994">
        <ele>129.5</ele>
        <time>2018-05-18T09:35:30Z</time>
      </trkpt>
      <trkpt lat="43.045745026320219" lon="-9.151681987568736">
        <ele>131</ele>
        <time>2018-05-18T09:35:38Z</time>
      </trkpt>
      <trkpt lat="43.045715019106865" lon="-9.151606969535351">
        <ele>131.40000000000001</ele>
        <time>2018-05-18T09:35:40Z</time>
      </trkpt>
      <trkpt lat="43.045733040198684" lon="-9.151613004505634">
        <ele>131.40000000000001</ele>
        <time>2018-05-18T09:35:40Z</time>
      </trkpt>
      <trkpt lat="43.045594990253448" lon="-9.151349980384111">
        <ele>133</ele>
        <time>2018-05-18T09:35:47Z</time>
      </trkpt>
      <trkpt lat="43.045343030244112" lon="-9.150847988203168">
        <ele>136</ele>
        <time>2018-05-18T09:36:00Z</time>
      </trkpt>
      <trkpt lat="43.045024015009403" lon="-9.150449009612203">
        <ele>137.90000000000001</ele>
        <time>2018-05-18T09:36:13Z</time>
      </trkpt>
      <trkpt lat="43.04465202614665" lon="-9.150240970775485">
        <ele>139.30000000000001</ele>
        <time>2018-05-18T09:36:25Z</time>
      </trkpt>
      <trkpt lat="43.044240977615118" lon="-9.150008959695697">
        <ele>139.5</ele>
        <time>2018-05-18T09:36:38Z</time>
      </trkpt>
      <trkpt lat="43.043754994869232" lon="-9.1497359611094">
        <ele>139.09999999999999</ele>
        <time>2018-05-18T09:36:54Z</time>
      </trkpt>
      <trkpt lat="43.043230958282948" lon="-9.149448964744806">
        <ele>140.59999999999999</ele>
        <time>2018-05-18T09:37:10Z</time>
      </trkpt>
      <trkpt lat="43.042844971641898" lon="-9.149227011948824">
        <ele>140.5</ele>
        <time>2018-05-18T09:37:23Z</time>
      </trkpt>
      <trkpt lat="43.042400982230902" lon="-9.148928029462695">
        <ele>139.59999999999999</ele>
        <time>2018-05-18T09:37:37Z</time>
      </trkpt>
      <trkpt lat="43.042101999744773" lon="-9.148665005341172">
        <ele>139</ele>
        <time>2018-05-18T09:37:48Z</time>
      </trkpt>
      <trkpt lat="43.042081966996193" lon="-9.14863801561296">
        <ele>139</ele>
        <time>2018-05-18T09:37:49Z</time>
      </trkpt>
      <trkpt lat="43.041938971728086" lon="-9.148598033934832">
        <ele>138.30000000000001</ele>
        <time>2018-05-18T09:37:53Z</time>
      </trkpt>
      <trkpt lat="43.041870994493365" lon="-9.148675985634327">
        <ele>138</ele>
        <time>2018-05-18T09:37:56Z</time>
      </trkpt>
      <trkpt lat="43.041622973978519" lon="-9.148943033069372">
        <ele>137</ele>
        <time>2018-05-18T09:38:05Z</time>
      </trkpt>
      <trkpt lat="43.041363973170519" lon="-9.149125004187226">
        <ele>136</ele>
        <time>2018-05-18T09:38:14Z</time>
      </trkpt>
      <trkpt lat="43.041045963764191" lon="-9.149417029693723">
        <ele>135</ele>
        <time>2018-05-18T09:38:25Z</time>
      </trkpt>
      <trkpt lat="43.040840020403266" lon="-9.149578968062997">
        <ele>134.5</ele>
        <time>2018-05-18T09:38:32Z</time>
      </trkpt>
      <trkpt lat="43.040541959926486" lon="-9.149767979979515">
        <ele>133.30000000000001</ele>
        <time>2018-05-18T09:38:42Z</time>
      </trkpt>
      <trkpt lat="43.040215987712145" lon="-9.149941988289356">
        <ele>132.30000000000001</ele>
        <time>2018-05-18T09:38:52Z</time>
      </trkpt>
      <trkpt lat="43.039842993021011" lon="-9.150181962177157">
        <ele>131.90000000000001</ele>
        <time>2018-05-18T09:39:04Z</time>
      </trkpt>
      <trkpt lat="43.039468992501497" lon="-9.150371979922056">
        <ele>131.80000000000001</ele>
        <time>2018-05-18T09:39:16Z</time>
      </trkpt>
      <trkpt lat="43.038991978392005" lon="-9.150621006265283">
        <ele>131.59999999999999</ele>
        <time>2018-05-18T09:39:31Z</time>
      </trkpt>
      <trkpt lat="43.03859299980104" lon="-9.150818986818194">
        <ele>131.30000000000001</ele>
        <time>2018-05-18T09:39:44Z</time>
      </trkpt>
      <trkpt lat="43.038495015352964" lon="-9.150828961282969">
        <ele>130.90000000000001</ele>
        <time>2018-05-18T09:39:47Z</time>
      </trkpt>
      <trkpt lat="43.038193015381694" lon="-9.150909008458257">
        <ele>130.09999999999999</ele>
        <time>2018-05-18T09:39:56Z</time>
      </trkpt>
      <trkpt lat="43.037998974323273" lon="-9.151031970977783">
        <ele>130.40000000000001</ele>
        <time>2018-05-18T09:40:02Z</time>
      </trkpt>
      <trkpt lat="43.037652969360352" lon="-9.151313016191125">
        <ele>130.90000000000001</ele>
        <time>2018-05-18T09:40:14Z</time>
      </trkpt>
      <trkpt lat="43.037424981594086" lon="-9.151662038639188">
        <ele>133.30000000000001</ele>
        <time>2018-05-18T09:40:24Z</time>
      </trkpt>
      <trkpt lat="43.037380976602435" lon="-9.151759017258883">
        <ele>134.19999999999999</ele>
        <time>2018-05-18T09:40:27Z</time>
      </trkpt>
      <trkpt lat="43.037117030471563" lon="-9.1521190200001">
        <ele>138.09999999999999</ele>
        <time>2018-05-18T09:40:38Z</time>
      </trkpt>
      <trkpt lat="43.036963976919651" lon="-9.152215998619795">
        <ele>138.40000000000001</ele>
        <time>2018-05-18T09:40:43Z</time>
      </trkpt>
      <trkpt lat="43.03666197694838" lon="-9.152233013883233">
        <ele>137.80000000000001</ele>
        <time>2018-05-18T09:40:51Z</time>
      </trkpt>
      <trkpt lat="43.036029981449246" lon="-9.152282970026135">
        <ele>136.30000000000001</ele>
        <time>2018-05-18T09:41:10Z</time>
      </trkpt>
      <trkpt lat="43.035561013966799" lon="-9.152370980009437">
        <ele>135</ele>
        <time>2018-05-18T09:41:24Z</time>
      </trkpt>
      <trkpt lat="43.035352975130081" lon="-9.152421019971371">
        <ele>134.19999999999999</ele>
        <time>2018-05-18T09:41:30Z</time>
      </trkpt>
      <trkpt lat="43.035128004848957" lon="-9.152428982779384">
        <ele>132.90000000000001</ele>
        <time>2018-05-18T09:41:37Z</time>
      </trkpt>
      <trkpt lat="43.034856012091041" lon="-9.152504000812769">
        <ele>131.69999999999999</ele>
        <time>2018-05-18T09:41:45Z</time>
      </trkpt>
      <trkpt lat="43.034766996279359" lon="-9.152510035783052">
        <ele>131.19999999999999</ele>
        <time>2018-05-18T09:41:48Z</time>
      </trkpt>
      <trkpt lat="43.034571027383208" lon="-9.152564015239477">
        <ele>130.40000000000001</ele>
        <time>2018-05-18T09:41:54Z</time>
      </trkpt>
      <trkpt lat="43.034509001299739" lon="-9.15254800580442">
        <ele>130.19999999999999</ele>
        <time>2018-05-18T09:41:56Z</time>
      </trkpt>
      <trkpt lat="43.034445969387889" lon="-9.152491008862853">
        <ele>129.69999999999999</ele>
        <time>2018-05-18T09:41:58Z</time>
      </trkpt>
      <trkpt lat="43.034409005194902" lon="-9.152424959465861">
        <ele>129.19999999999999</ele>
        <time>2018-05-18T09:42:00Z</time>
      </trkpt>
      <trkpt lat="43.034298028796911" lon="-9.152137963101268">
        <ele>127</ele>
        <time>2018-05-18T09:42:07Z</time>
      </trkpt>
      <trkpt lat="43.034279001876712" lon="-9.152085995301604">
        <ele>126.7</ele>
        <time>2018-05-18T09:42:08Z</time>
      </trkpt>
      <trkpt lat="43.034169031307101" lon="-9.151959009468556">
        <ele>126</ele>
        <time>2018-05-18T09:42:12Z</time>
      </trkpt>
      <trkpt lat="43.034015977755189" lon="-9.151991028338671">
        <ele>126</ele>
        <time>2018-05-18T09:42:17Z</time>
      </trkpt>
      <trkpt lat="43.033750019967556" lon="-9.15218498557806">
        <ele>126.59999999999999</ele>
        <time>2018-05-18T09:42:26Z</time>
      </trkpt>
      <trkpt lat="43.033667961135507" lon="-9.15222798474133">
        <ele>127.3</ele>
        <time>2018-05-18T09:42:28Z</time>
      </trkpt>
      <trkpt lat="43.033505016937852" lon="-9.152089012786746">
        <ele>127.8</ele>
        <time>2018-05-18T09:42:34Z</time>
      </trkpt>
      <trkpt lat="43.033227995038033" lon="-9.151632031425834">
        <ele>131.40000000000001</ele>
        <time>2018-05-18T09:42:47Z</time>
      </trkpt>
      <trkpt lat="43.033057004213333" lon="-9.151446959003806">
        <ele>134.5</ele>
        <time>2018-05-18T09:42:53Z</time>
      </trkpt>
      <trkpt lat="43.032948961481452" lon="-9.151373030617833">
        <ele>136.59999999999999</ele>
        <time>2018-05-18T09:42:57Z</time>
      </trkpt>
      <trkpt lat="43.032615026459098" lon="-9.151042029261589">
        <ele>136.09999999999999</ele>
        <time>2018-05-18T09:43:09Z</time>
      </trkpt>
      <trkpt lat="43.032414028421044" lon="-9.150735000148416">
        <ele>133.80000000000001</ele>
        <time>2018-05-18T09:43:18Z</time>
      </trkpt>
      <trkpt lat="43.03232098929584" lon="-9.150565015152097">
        <ele>132.69999999999999</ele>
        <time>2018-05-18T09:43:23Z</time>
      </trkpt>
      <trkpt lat="43.032219987362623" lon="-9.150454960763454">
        <ele>132.09999999999999</ele>
        <time>2018-05-18T09:43:27Z</time>
      </trkpt>
      <trkpt lat="43.032037010416389" lon="-9.150244994089007">
        <ele>131.59999999999999</ele>
        <time>2018-05-18T09:43:34Z</time>
      </trkpt>
      <trkpt lat="43.031764011830091" lon="-9.149924973025918">
        <ele>130</ele>
        <time>2018-05-18T09:43:44Z</time>
      </trkpt>
      <trkpt lat="43.031614981591702" lon="-9.149695979431272">
        <ele>129.5</ele>
        <time>2018-05-18T09:43:51Z</time>
      </trkpt>
      <trkpt lat="43.03143803961575" lon="-9.1495649702847">
        <ele>129</ele>
        <time>2018-05-18T09:43:57Z</time>
      </trkpt>
      <trkpt lat="43.031056998297572" lon="-9.149506967514753">
        <ele>126.90000000000001</ele>
        <time>2018-05-18T09:44:08Z</time>
      </trkpt>
      <trkpt lat="43.030775031074882" lon="-9.14952096529305">
        <ele>124.90000000000001</ele>
        <time>2018-05-18T09:44:17Z</time>
      </trkpt>
      <trkpt lat="43.03057998418808" lon="-9.149494981393218">
        <ele>123.7</ele>
        <time>2018-05-18T09:44:22Z</time>
      </trkpt>
      <trkpt lat="43.030379991978407" lon="-9.149461034685373">
        <ele>122.59999999999999</ele>
        <time>2018-05-18T09:44:28Z</time>
      </trkpt>
      <trkpt lat="43.030246971175075" lon="-9.149404959753156">
        <ele>122.2</ele>
        <time>2018-05-18T09:44:33Z</time>
      </trkpt>
      <trkpt lat="43.030196009203792" lon="-9.149386016651988">
        <ele>122.09999999999999</ele>
        <time>2018-05-18T09:44:34Z</time>
      </trkpt>
      <trkpt lat="43.030116967856884" lon="-9.149318961426616">
        <ele>122</ele>
        <time>2018-05-18T09:44:37Z</time>
      </trkpt>
      <trkpt lat="43.029911024495959" lon="-9.149085022509098">
        <ele>122.2</ele>
        <time>2018-05-18T09:44:45Z</time>
      </trkpt>
      <trkpt lat="43.029657974839211" lon="-9.148920988664031">
        <ele>121.59999999999999</ele>
        <time>2018-05-18T09:44:53Z</time>
      </trkpt>
      <trkpt lat="43.029463011771441" lon="-9.148877989500761">
        <ele>120.8</ele>
        <time>2018-05-18T09:44:59Z</time>
      </trkpt>
      <trkpt lat="43.029213985428214" lon="-9.148848988115788">
        <ele>119.5</ele>
        <time>2018-05-18T09:45:06Z</time>
      </trkpt>
      <trkpt lat="43.028940986841917" lon="-9.148747986182571">
        <ele>118.09999999999999</ele>
        <time>2018-05-18T09:45:15Z</time>
      </trkpt>
      <trkpt lat="43.028736971318722" lon="-9.148564003407955">
        <ele>116.7</ele>
        <time>2018-05-18T09:45:22Z</time>
      </trkpt>
      <trkpt lat="43.028654996305704" lon="-9.148388989269733">
        <ele>115.90000000000001</ele>
        <time>2018-05-18T09:45:26Z</time>
      </trkpt>
      <trkpt lat="43.028517030179501" lon="-9.148238031193614">
        <ele>114.8</ele>
        <time>2018-05-18T09:45:32Z</time>
      </trkpt>
      <trkpt lat="43.028336986899376" lon="-9.148023035377264">
        <ele>113.5</ele>
        <time>2018-05-18T09:45:39Z</time>
      </trkpt>
      <trkpt lat="43.028158033266664" lon="-9.147816002368927">
        <ele>112.09999999999999</ele>
        <time>2018-05-18T09:45:46Z</time>
      </trkpt>
      <trkpt lat="43.027967009693384" lon="-9.147574016824365">
        <ele>110</ele>
        <time>2018-05-18T09:45:53Z</time>
      </trkpt>
      <trkpt lat="43.027799036353827" lon="-9.147381987422705">
        <ele>108.3</ele>
        <time>2018-05-18T09:46:00Z</time>
      </trkpt>
      <trkpt lat="43.027637014165521" lon="-9.147293977439404">
        <ele>107</ele>
        <time>2018-05-18T09:46:05Z</time>
      </trkpt>
      <trkpt lat="43.027608012780547" lon="-9.147144025191665">
        <ele>106.59999999999999</ele>
        <time>2018-05-18T09:46:08Z</time>
      </trkpt>
      <trkpt lat="43.027555039152503" lon="-9.146959958598018">
        <ele>106.09999999999999</ele>
        <time>2018-05-18T09:46:13Z</time>
      </trkpt>
      <trkpt lat="43.027368038892746" lon="-9.146322011947632">
        <ele>105.59999999999999</ele>
        <time>2018-05-18T09:46:27Z</time>
      </trkpt>
      <trkpt lat="43.027167040854692" lon="-9.14567300118506">
        <ele>107.40000000000001</ele>
        <time>2018-05-18T09:46:43Z</time>
      </trkpt>
      <trkpt lat="43.027133010327816" lon="-9.145564958453178">
        <ele>107.7</ele>
        <time>2018-05-18T09:46:45Z</time>
      </trkpt>
      <trkpt lat="43.026979034766555" lon="-9.145205961540341">
        <ele>109.2</ele>
        <time>2018-05-18T09:46:54Z</time>
      </trkpt>
      <trkpt lat="43.026804020628333" lon="-9.144862974062562">
        <ele>111.09999999999999</ele>
        <time>2018-05-18T09:47:03Z</time>
      </trkpt>
      <trkpt lat="43.026532027870417" lon="-9.143921015784144">
        <ele>115.3</ele>
        <time>2018-05-18T09:47:25Z</time>
      </trkpt>
      <trkpt lat="43.026493974030018" lon="-9.143619015812874">
        <ele>116.90000000000001</ele>
        <time>2018-05-18T09:47:32Z</time>
      </trkpt>
      <trkpt lat="43.02647796459496" lon="-9.143196986988187">
        <ele>119.8</ele>
        <time>2018-05-18T09:47:41Z</time>
      </trkpt>
      <trkpt lat="43.026309991255403" lon="-9.142756015062332">
        <ele>122.7</ele>
        <time>2018-05-18T09:47:52Z</time>
      </trkpt>
      <trkpt lat="43.026164984330535" lon="-9.142257962375879">
        <ele>125.5</ele>
        <time>2018-05-18T09:48:03Z</time>
      </trkpt>
      <trkpt lat="43.026146963238716" lon="-9.142169030383229">
        <ele>126.09999999999999</ele>
        <time>2018-05-18T09:48:05Z</time>
      </trkpt>
      <trkpt lat="43.026178982108831" lon="-9.141848003491759">
        <ele>128.09999999999999</ele>
        <time>2018-05-18T09:48:12Z</time>
      </trkpt>
      <trkpt lat="43.026250982657075" lon="-9.14163401350379">
        <ele>129.19999999999999</ele>
        <time>2018-05-18T09:48:18Z</time>
      </trkpt>
      <trkpt lat="43.026316026225686" lon="-9.141322961077094">
        <ele>130.80000000000001</ele>
        <time>2018-05-18T09:48:25Z</time>
      </trkpt>
      <trkpt lat="43.026264980435371" lon="-9.141055997461081">
        <ele>133.69999999999999</ele>
        <time>2018-05-18T09:48:31Z</time>
      </trkpt>
      <trkpt lat="43.026120979338884" lon="-9.140831027179956">
        <ele>137.09999999999999</ele>
        <time>2018-05-18T09:48:37Z</time>
      </trkpt>
      <trkpt lat="43.025929033756256" lon="-9.140741005539894">
        <ele>139.80000000000001</ele>
        <time>2018-05-18T09:48:43Z</time>
      </trkpt>
      <trkpt lat="43.025634996592999" lon="-9.140770006924868">
        <ele>142</ele>
        <time>2018-05-18T09:48:52Z</time>
      </trkpt>
      <trkpt lat="43.025475991889834" lon="-9.140833960846067">
        <ele>142.5</ele>
        <time>2018-05-18T09:48:57Z</time>
      </trkpt>
      <trkpt lat="43.025339031592011" lon="-9.140868997201324">
        <ele>142.69999999999999</ele>
        <time>2018-05-18T09:49:01Z</time>
      </trkpt>
      <trkpt lat="43.025043988600373" lon="-9.140976034104824">
        <ele>141.80000000000001</ele>
        <time>2018-05-18T09:49:10Z</time>
      </trkpt>
      <trkpt lat="43.02484299056232" lon="-9.141041999682784">
        <ele>141.19999999999999</ele>
        <time>2018-05-18T09:49:16Z</time>
      </trkpt>
      <trkpt lat="43.024673005566001" lon="-9.141238974407315">
        <ele>138.09999999999999</ele>
        <time>2018-05-18T09:49:23Z</time>
      </trkpt>
      <trkpt lat="43.024453986436129" lon="-9.141371995210648">
        <ele>137.5</ele>
        <time>2018-05-18T09:49:30Z</time>
      </trkpt>
      <trkpt lat="43.024098007008433" lon="-9.141536029055715">
        <ele>137.69999999999999</ele>
        <time>2018-05-18T09:49:41Z</time>
      </trkpt>
      <trkpt lat="43.024000022560358" lon="-9.141539968550205">
        <ele>138.19999999999999</ele>
        <time>2018-05-18T09:49:44Z</time>
      </trkpt>
      <trkpt lat="43.023939002305269" lon="-9.141452964395285">
        <ele>139</ele>
        <time>2018-05-18T09:49:46Z</time>
      </trkpt>
      <trkpt lat="43.023758959025145" lon="-9.141341987997294">
        <ele>140.40000000000001</ele>
        <time>2018-05-18T09:49:52Z</time>
      </trkpt>
      <trkpt lat="43.023608000949025" lon="-9.141184994950891">
        <ele>142.09999999999999</ele>
        <time>2018-05-18T09:49:58Z</time>
      </trkpt>
      <trkpt lat="43.023434998467565" lon="-9.140967987477779">
        <ele>144.90000000000001</ele>
        <time>2018-05-18T09:50:05Z</time>
      </trkpt>
      <trkpt lat="43.023319998756051" lon="-9.140856005251408">
        <ele>146.30000000000001</ele>
        <time>2018-05-18T09:50:09Z</time>
      </trkpt>
      <trkpt lat="43.023283034563065" lon="-9.140814011916518">
        <ele>146.80000000000001</ele>
        <time>2018-05-18T09:50:10Z</time>
      </trkpt>
      <trkpt lat="43.023228971287608" lon="-9.140735976397991">
        <ele>147.59999999999999</ele>
        <time>2018-05-18T09:50:13Z</time>
      </trkpt>
      <trkpt lat="43.023196030408144" lon="-9.140675039961934">
        <ele>148.30000000000001</ele>
        <time>2018-05-18T09:50:14Z</time>
      </trkpt>
      <trkpt lat="43.023183960467577" lon="-9.140643021091819">
        <ele>148.69999999999999</ele>
        <time>2018-05-18T09:50:15Z</time>
      </trkpt>
      <trkpt lat="43.023143978789449" lon="-9.14049600251019">
        <ele>150.19999999999999</ele>
        <time>2018-05-18T09:50:19Z</time>
      </trkpt>
      <trkpt lat="43.023191001266241" lon="-9.140282012522221">
        <ele>152.5</ele>
        <time>2018-05-18T09:50:23Z</time>
      </trkpt>
      <trkpt lat="43.023226959630847" lon="-9.139898959547281">
        <ele>156.80000000000001</ele>
        <time>2018-05-18T09:50:32Z</time>
      </trkpt>
      <trkpt lat="43.023215979337692" lon="-9.139610035344958">
        <ele>160.09999999999999</ele>
        <time>2018-05-18T09:50:38Z</time>
      </trkpt>
      <trkpt lat="43.023234000429511" lon="-9.139494029805064">
        <ele>161.30000000000001</ele>
        <time>2018-05-18T09:50:41Z</time>
      </trkpt>
      <trkpt lat="43.023241963237524" lon="-9.139458993449807">
        <ele>161.69999999999999</ele>
        <time>2018-05-18T09:50:42Z</time>
      </trkpt>
      <trkpt lat="43.023251015692949" lon="-9.139288002625108">
        <ele>163.40000000000001</ele>
        <time>2018-05-18T09:50:45Z</time>
      </trkpt>
      <trkpt lat="43.023217990994453" lon="-9.139159005135298">
        <ele>164.80000000000001</ele>
        <time>2018-05-18T09:50:48Z</time>
      </trkpt>
      <trkpt lat="43.023140961304307" lon="-9.139097984880209">
        <ele>165.40000000000001</ele>
        <time>2018-05-18T09:50:51Z</time>
      </trkpt>
      <trkpt lat="43.02308002486825" lon="-9.139080969616771">
        <ele>165.5</ele>
        <time>2018-05-18T09:50:53Z</time>
      </trkpt>
      <trkpt lat="43.022979022935033" lon="-9.139045011252165">
        <ele>165.80000000000001</ele>
        <time>2018-05-18T09:50:56Z</time>
      </trkpt>
      <trkpt lat="43.022682974115014" lon="-9.138933029025793">
        <ele>167.19999999999999</ele>
        <time>2018-05-18T09:51:05Z</time>
      </trkpt>
      <trkpt lat="43.022513994947076" lon="-9.138872008770704">
        <ele>168</ele>
        <time>2018-05-18T09:51:10Z</time>
      </trkpt>
      <trkpt lat="43.022378040477633" lon="-9.138929005712271">
        <ele>167.40000000000001</ele>
        <time>2018-05-18T09:51:14Z</time>
      </trkpt>
      <trkpt lat="43.022320037707686" lon="-9.138934034854174">
        <ele>167.40000000000001</ele>
        <time>2018-05-18T09:51:16Z</time>
      </trkpt>
      <trkpt lat="43.022234039381146" lon="-9.138788022100925">
        <ele>169.30000000000001</ele>
        <time>2018-05-18T09:51:20Z</time>
      </trkpt>
      <trkpt lat="43.022176958620548" lon="-9.138658018782735">
        <ele>171</ele>
        <time>2018-05-18T09:51:23Z</time>
      </trkpt>
      <trkpt lat="43.022148963063955" lon="-9.138594986870885">
        <ele>171.80000000000001</ele>
        <time>2018-05-18T09:51:25Z</time>
      </trkpt>
      <trkpt lat="43.022141000255942" lon="-9.138585012406111">
        <ele>171.90000000000001</ele>
        <time>2018-05-18T09:51:25Z</time>
      </trkpt>
      <trkpt lat="43.022076962515712" lon="-9.138431958854199">
        <ele>173.80000000000001</ele>
        <time>2018-05-18T09:51:29Z</time>
      </trkpt>
      <trkpt lat="43.022017031908035" lon="-9.138300027698278">
        <ele>175.59999999999999</ele>
        <time>2018-05-18T09:51:33Z</time>
      </trkpt>
      <trkpt lat="43.022005967795849" lon="-9.138278989121318">
        <ele>175.80000000000001</ele>
        <time>2018-05-18T09:51:33Z</time>
      </trkpt>
      <trkpt lat="43.02192198112607" lon="-9.138103974983096">
        <ele>178</ele>
        <time>2018-05-18T09:51:38Z</time>
      </trkpt>
      <trkpt lat="43.021866995841265" lon="-9.138026023283601">
        <ele>179</ele>
        <time>2018-05-18T09:51:40Z</time>
      </trkpt>
      <trkpt lat="43.021860960870981" lon="-9.13802401162684">
        <ele>179</ele>
        <time>2018-05-18T09:51:40Z</time>
      </trkpt>
      <trkpt lat="43.021811004728079" lon="-9.137887973338366">
        <ele>180.69999999999999</ele>
        <time>2018-05-18T09:51:44Z</time>
      </trkpt>
      <trkpt lat="43.021740010008216" lon="-9.137737015262246">
        <ele>182.59999999999999</ele>
        <time>2018-05-18T09:51:48Z</time>
      </trkpt>
      <trkpt lat="43.021654011681676" lon="-9.137563006952405">
        <ele>185</ele>
        <time>2018-05-18T09:51:52Z</time>
      </trkpt>
      <trkpt lat="43.021606989204884" lon="-9.137459993362427">
        <ele>186.40000000000001</ele>
        <time>2018-05-18T09:51:55Z</time>
      </trkpt>
      <trkpt lat="43.021587040275335" lon="-9.137391010299325">
        <ele>187.40000000000001</ele>
        <time>2018-05-18T09:51:56Z</time>
      </trkpt>
      <trkpt lat="43.021525014191866" lon="-9.13725103251636">
        <ele>189.5</ele>
        <time>2018-05-18T09:52:00Z</time>
      </trkpt>
      <trkpt lat="43.02140599116683" lon="-9.137109965085983">
        <ele>191.90000000000001</ele>
        <time>2018-05-18T09:52:05Z</time>
      </trkpt>
      <trkpt lat="43.021371960639954" lon="-9.137055985629559">
        <ele>192.69999999999999</ele>
        <time>2018-05-18T09:52:06Z</time>
      </trkpt>
      <trkpt lat="43.02125696092844" lon="-9.136897986754775">
        <ele>195</ele>
        <time>2018-05-18T09:52:11Z</time>
      </trkpt>
      <trkpt lat="43.021093010902405" lon="-9.136806959286332">
        <ele>196.80000000000001</ele>
        <time>2018-05-18T09:52:16Z</time>
      </trkpt>
      <trkpt lat="43.021046994253993" lon="-9.136806959286332">
        <ele>197</ele>
        <time>2018-05-18T09:52:18Z</time>
      </trkpt>
      <trkpt lat="43.020708030089736" lon="-9.136869991198182">
        <ele>198.40000000000001</ele>
        <time>2018-05-18T09:52:28Z</time>
      </trkpt>
      <trkpt lat="43.020349033176899" lon="-9.137068977579474">
        <ele>199.09999999999999</ele>
        <time>2018-05-18T09:52:39Z</time>
      </trkpt>
      <trkpt lat="43.020221963524818" lon="-9.137065960094333">
        <ele>199.30000000000001</ele>
        <time>2018-05-18T09:52:43Z</time>
      </trkpt>
      <trkpt lat="43.02020201459527" lon="-9.137022960931063">
        <ele>199.5</ele>
        <time>2018-05-18T09:52:44Z</time>
      </trkpt>
      <trkpt lat="43.02007301710546" lon="-9.136775024235249">
        <ele>200.69999999999999</ele>
        <time>2018-05-18T09:52:51Z</time>
      </trkpt>
      <trkpt lat="43.019902026280761" lon="-9.136438993737102">
        <ele>202.19999999999999</ele>
        <time>2018-05-18T09:53:00Z</time>
      </trkpt>
      <trkpt lat="43.0197290237993" lon="-9.136111009865999">
        <ele>203.30000000000001</ele>
        <time>2018-05-18T09:53:08Z</time>
      </trkpt>
      <trkpt lat="43.01955702714622" lon="-9.135823007673025">
        <ele>203.5</ele>
        <time>2018-05-18T09:53:16Z</time>
      </trkpt>
      <trkpt lat="43.019436998292804" lon="-9.135568030178547">
        <ele>203.90000000000001</ele>
        <time>2018-05-18T09:53:23Z</time>
      </trkpt>
      <trkpt lat="43.01929802633822" lon="-9.135261001065373">
        <ele>203.80000000000001</ele>
        <time>2018-05-18T09:53:31Z</time>
      </trkpt>
      <trkpt lat="43.01919300109148" lon="-9.135179026052356">
        <ele>203.69999999999999</ele>
        <time>2018-05-18T09:53:34Z</time>
      </trkpt>
      <trkpt lat="43.018969036638737" lon="-9.135337024927139">
        <ele>203.90000000000001</ele>
        <time>2018-05-18T09:53:42Z</time>
      </trkpt>
      <trkpt lat="43.018650021404028" lon="-9.135162010788918">
        <ele>203.90000000000001</ele>
        <time>2018-05-18T09:53:52Z</time>
      </trkpt>
      <trkpt lat="43.018326982855797" lon="-9.134928993880749">
        <ele>204.09999999999999</ele>
        <time>2018-05-18T09:54:03Z</time>
      </trkpt>
      <trkpt lat="43.018105030059814" lon="-9.134764960035682">
        <ele>204.19999999999999</ele>
        <time>2018-05-18T09:54:10Z</time>
      </trkpt>
      <trkpt lat="43.017890034243464" lon="-9.134620036929846">
        <ele>203.90000000000001</ele>
        <time>2018-05-18T09:54:17Z</time>
      </trkpt>
      <trkpt lat="43.017699010670185" lon="-9.134491961449385">
        <ele>201.90000000000001</ele>
        <time>2018-05-18T09:54:24Z</time>
      </trkpt>
      <trkpt lat="43.017552997916937" lon="-9.134429013356566">
        <ele>200.5</ele>
        <time>2018-05-18T09:54:28Z</time>
      </trkpt>
      <trkpt lat="43.017297014594078" lon="-9.134251987561584">
        <ele>197.69999999999999</ele>
        <time>2018-05-18T09:54:37Z</time>
      </trkpt>
      <trkpt lat="43.017154019325972" lon="-9.134158026427031">
        <ele>196.30000000000001</ele>
        <time>2018-05-18T09:54:41Z</time>
      </trkpt>
      <trkpt lat="43.017115965485573" lon="-9.134152997285128">
        <ele>196.09999999999999</ele>
        <time>2018-05-18T09:54:42Z</time>
      </trkpt>
      <trkpt lat="43.017000965774059" lon="-9.134102035313845">
        <ele>195.5</ele>
        <time>2018-05-18T09:54:46Z</time>
      </trkpt>
      <trkpt lat="43.016855958849192" lon="-9.134008996188641">
        <ele>195</ele>
        <time>2018-05-18T09:54:51Z</time>
      </trkpt>
      <trkpt lat="43.01672201603651" lon="-9.133873963728547">
        <ele>194.40000000000001</ele>
        <time>2018-05-18T09:54:56Z</time>
      </trkpt>
      <trkpt lat="43.016608022153378" lon="-9.133743960410357">
        <ele>194.09999999999999</ele>
        <time>2018-05-18T09:55:00Z</time>
      </trkpt>
      <trkpt lat="43.016542978584766" lon="-9.1336639970541">
        <ele>193.90000000000001</ele>
        <time>2018-05-18T09:55:03Z</time>
      </trkpt>
      <trkpt lat="43.016495034098625" lon="-9.133623009547591">
        <ele>193.90000000000001</ele>
        <time>2018-05-18T09:55:04Z</time>
      </trkpt>
      <trkpt lat="43.016404006630182" lon="-9.133502980694175">
        <ele>193.80000000000001</ele>
        <time>2018-05-18T09:55:08Z</time>
      </trkpt>
      <trkpt lat="43.016203008592129" lon="-9.133328972384334">
        <ele>194.19999999999999</ele>
        <time>2018-05-18T09:55:15Z</time>
      </trkpt>
      <trkpt lat="43.016049033030868" lon="-9.133229982107878">
        <ele>194.69999999999999</ele>
        <time>2018-05-18T09:55:20Z</time>
      </trkpt>
      <trkpt lat="43.015649970620871" lon="-9.133043987676501">
        <ele>195.69999999999999</ele>
        <time>2018-05-18T09:55:33Z</time>
      </trkpt>
      <trkpt lat="43.015507981181145" lon="-9.132968969643116">
        <ele>195.90000000000001</ele>
        <time>2018-05-18T09:55:37Z</time>
      </trkpt>
      <trkpt lat="43.015408990904689" lon="-9.132928987964988">
        <ele>196.09999999999999</ele>
        <time>2018-05-18T09:55:40Z</time>
      </trkpt>
      <trkpt lat="43.015376972034574" lon="-9.132864028215408">
        <ele>195.59999999999999</ele>
        <time>2018-05-18T09:55:42Z</time>
      </trkpt>
      <trkpt lat="43.015395998954773" lon="-9.13261198438704">
        <ele>193.80000000000001</ele>
        <time>2018-05-18T09:55:47Z</time>
      </trkpt>
      <trkpt lat="43.015421982854605" lon="-9.132366981357336">
        <ele>192</ele>
        <time>2018-05-18T09:55:53Z</time>
      </trkpt>
      <trkpt lat="43.015426006168127" lon="-9.132172018289566">
        <ele>190.69999999999999</ele>
        <time>2018-05-18T09:55:57Z</time>
      </trkpt>
      <trkpt lat="43.015423994511366" lon="-9.131975965574384">
        <ele>189.5</ele>
        <time>2018-05-18T09:56:01Z</time>
      </trkpt>
      <trkpt lat="43.015418965369463" lon="-9.131786031648517">
        <ele>188.59999999999999</ele>
        <time>2018-05-18T09:56:05Z</time>
      </trkpt>
      <trkpt lat="43.015403039753437" lon="-9.131632978096604">
        <ele>187.80000000000001</ele>
        <time>2018-05-18T09:56:09Z</time>
      </trkpt>
      <trkpt lat="43.015408990904689" lon="-9.131372971460223">
        <ele>186.59999999999999</ele>
        <time>2018-05-18T09:56:14Z</time>
      </trkpt>
      <trkpt lat="43.015414020046592" lon="-9.131188988685608">
        <ele>185.90000000000001</ele>
        <time>2018-05-18T09:56:18Z</time>
      </trkpt>
      <trkpt lat="43.01541100256145" lon="-9.130938034504652">
        <ele>185.59999999999999</ele>
        <time>2018-05-18T09:56:24Z</time>
      </trkpt>
      <trkpt lat="43.015416031703353" lon="-9.130747010931373">
        <ele>185.40000000000001</ele>
        <time>2018-05-18T09:56:28Z</time>
      </trkpt>
      <trkpt lat="43.015417037531734" lon="-9.130566967651248">
        <ele>185.19999999999999</ele>
        <time>2018-05-18T09:56:32Z</time>
      </trkpt>
      <trkpt lat="43.015417959541082" lon="-9.130336968228221">
        <ele>184.80000000000001</ele>
        <time>2018-05-18T09:56:37Z</time>
      </trkpt>
      <trkpt lat="43.015423994511366" lon="-9.130173018202186">
        <ele>184.40000000000001</ele>
        <time>2018-05-18T09:56:40Z</time>
      </trkpt>
      <trkpt lat="43.015426006168127" lon="-9.129930026829243">
        <ele>183.90000000000001</ele>
        <time>2018-05-18T09:56:45Z</time>
      </trkpt>
      <trkpt lat="43.015418965369463" lon="-9.129683012142777">
        <ele>183.19999999999999</ele>
        <time>2018-05-18T09:56:51Z</time>
      </trkpt>
      <trkpt lat="43.015409996733069" lon="-9.129589973017573">
        <ele>183</ele>
        <time>2018-05-18T09:56:53Z</time>
      </trkpt>
      <trkpt lat="43.015400022268295" lon="-9.129442032426596">
        <ele>182</ele>
        <time>2018-05-18T09:56:56Z</time>
      </trkpt>
      <trkpt lat="43.015403961762786" lon="-9.12919501774013">
        <ele>180.59999999999999</ele>
        <time>2018-05-18T09:57:01Z</time>
      </trkpt>
      <trkpt lat="43.015408990904689" lon="-9.128959989175201">
        <ele>179.19999999999999</ele>
        <time>2018-05-18T09:57:07Z</time>
      </trkpt>
      <trkpt lat="43.015401028096676" lon="-9.128885976970196">
        <ele>178.69999999999999</ele>
        <time>2018-05-18T09:57:08Z</time>
      </trkpt>
      <trkpt lat="43.015379989519715" lon="-9.128701994195581">
        <ele>177.30000000000001</ele>
        <time>2018-05-18T09:57:12Z</time>
      </trkpt>
      <trkpt lat="43.015361968427896" lon="-9.128483980894089">
        <ele>175.40000000000001</ele>
        <time>2018-05-18T09:57:17Z</time>
      </trkpt>
      <trkpt lat="43.015341013669968" lon="-9.128283988684416">
        <ele>173.59999999999999</ele>
        <time>2018-05-18T09:57:21Z</time>
      </trkpt>
      <trkpt lat="43.015312012284994" lon="-9.128028005361557">
        <ele>171.40000000000001</ele>
        <time>2018-05-18T09:57:27Z</time>
      </trkpt>
      <trkpt lat="43.015305977314711" lon="-9.12786397151649">
        <ele>169.90000000000001</ele>
        <time>2018-05-18T09:57:31Z</time>
      </trkpt>
      <trkpt lat="43.015274964272976" lon="-9.127674037590623">
        <ele>167.80000000000001</ele>
        <time>2018-05-18T09:57:35Z</time>
      </trkpt>
      <trkpt lat="43.015263983979821" lon="-9.127584015950561">
        <ele>166.90000000000001</ele>
        <time>2018-05-18T09:57:37Z</time>
      </trkpt>
      <trkpt lat="43.015242023393512" lon="-9.127447977662087">
        <ele>165.5</ele>
        <time>2018-05-18T09:57:40Z</time>
      </trkpt>
      <trkpt lat="43.015240011736751" lon="-9.127298025414348">
        <ele>163.90000000000001</ele>
        <time>2018-05-18T09:57:43Z</time>
      </trkpt>
      <trkpt lat="43.015229031443596" lon="-9.127249997109175">
        <ele>163.40000000000001</ele>
        <time>2018-05-18T09:57:44Z</time>
      </trkpt>
      <trkpt lat="43.015154013410211" lon="-9.127185037359595">
        <ele>162.69999999999999</ele>
        <time>2018-05-18T09:57:47Z</time>
      </trkpt>
      <trkpt lat="43.015139009803534" lon="-9.127099961042404">
        <ele>161.80000000000001</ele>
        <time>2018-05-18T09:57:49Z</time>
      </trkpt>
      <trkpt lat="43.01511000841856" lon="-9.127053022384644">
        <ele>161.5</ele>
        <time>2018-05-18T09:57:50Z</time>
      </trkpt>
      <trkpt lat="43.015096010640264" lon="-9.127032989636064">
        <ele>161.5</ele>
        <time>2018-05-18T09:57:51Z</time>
      </trkpt>
      <trkpt lat="43.015119982883334" lon="-9.126620013266802">
        <ele>160.09999999999999</ele>
        <time>2018-05-18T09:58:00Z</time>
      </trkpt>
      <trkpt lat="43.015142027288675" lon="-9.126263028010726">
        <ele>158.69999999999999</ele>
        <time>2018-05-18T09:58:07Z</time>
      </trkpt>
      <trkpt lat="43.015118977054954" lon="-9.125746032223105">
        <ele>158.5</ele>
        <time>2018-05-18T09:58:19Z</time>
      </trkpt>
      <trkpt lat="43.015141021460295" lon="-9.125587027519941">
        <ele>158.09999999999999</ele>
        <time>2018-05-18T09:58:22Z</time>
      </trkpt>
      <trkpt lat="43.01532500423491" lon="-9.124636016786099">
        <ele>157</ele>
        <time>2018-05-18T09:58:43Z</time>
      </trkpt>
      <trkpt lat="43.015344031155109" lon="-9.124462008476257">
        <ele>157</ele>
        <time>2018-05-18T09:58:47Z</time>
      </trkpt>
      <trkpt lat="43.015204975381494" lon="-9.12399597465992">
        <ele>158.30000000000001</ele>
        <time>2018-05-18T09:58:58Z</time>
      </trkpt>
      <trkpt lat="43.015056028962135" lon="-9.123743008822203">
        <ele>158.5</ele>
        <time>2018-05-18T09:59:05Z</time>
      </trkpt>
      <trkpt lat="43.014830974861979" lon="-9.123354004696012">
        <ele>160.40000000000001</ele>
        <time>2018-05-18T09:59:16Z</time>
      </trkpt>
      <trkpt lat="43.014786969870329" lon="-9.123276975005865">
        <ele>160.59999999999999</ele>
        <time>2018-05-18T09:59:18Z</time>
      </trkpt>
      <trkpt lat="43.014390002936125" lon="-9.122641962021589">
        <ele>163</ele>
        <time>2018-05-18T09:59:36Z</time>
      </trkpt>
      <trkpt lat="43.014113986864686" lon="-9.122183974832296">
        <ele>168</ele>
        <time>2018-05-18T09:59:49Z</time>
      </trkpt>
      <trkpt lat="43.013805029913783" lon="-9.121707966551185">
        <ele>171.59999999999999</ele>
        <time>2018-05-18T10:00:03Z</time>
      </trkpt>
      <trkpt lat="43.013595985248685" lon="-9.121293984353542">
        <ele>172.30000000000001</ele>
        <time>2018-05-18T10:00:14Z</time>
      </trkpt>
      <trkpt lat="43.013572013005614" lon="-9.121155012398958">
        <ele>172.59999999999999</ele>
        <time>2018-05-18T10:00:17Z</time>
      </trkpt>
      <trkpt lat="43.013562960550189" lon="-9.121084017679095">
        <ele>172.69999999999999</ele>
        <time>2018-05-18T10:00:18Z</time>
      </trkpt>
      <trkpt lat="43.013264983892441" lon="-9.120830968022347">
        <ele>173.19999999999999</ele>
        <time>2018-05-18T10:00:29Z</time>
      </trkpt>
      <trkpt lat="43.012995002791286" lon="-9.120369963347912">
        <ele>176</ele>
        <time>2018-05-18T10:00:41Z</time>
      </trkpt>
      <trkpt lat="43.012995002791286" lon="-9.120338028296828">
        <ele>176.19999999999999</ele>
        <time>2018-05-18T10:00:42Z</time>
      </trkpt>
      <trkpt lat="43.01261798478663" lon="-9.119745008647442">
        <ele>178.30000000000001</ele>
        <time>2018-05-18T10:00:59Z</time>
      </trkpt>
      <trkpt lat="43.012322019785643" lon="-9.119087029248476">
        <ele>180.09999999999999</ele>
        <time>2018-05-18T10:01:16Z</time>
      </trkpt>
      <trkpt lat="43.012286983430386" lon="-9.118479005992413">
        <ele>182.59999999999999</ele>
        <time>2018-05-18T10:01:29Z</time>
      </trkpt>
      <trkpt lat="43.012118004262447" lon="-9.118428966030479">
        <ele>182.59999999999999</ele>
        <time>2018-05-18T10:01:34Z</time>
      </trkpt>
      <trkpt lat="43.011851962655783" lon="-9.118376998230815">
        <ele>181.5</ele>
        <time>2018-05-18T10:01:42Z</time>
      </trkpt>
      <trkpt lat="43.011451978236437" lon="-9.11834598518908">
        <ele>179.5</ele>
        <time>2018-05-18T10:01:54Z</time>
      </trkpt>
      <trkpt lat="43.01094202324748" lon="-9.118294017389417">
        <ele>178.40000000000001</ele>
        <time>2018-05-18T10:02:09Z</time>
      </trkpt>
      <trkpt lat="43.010365013033152" lon="-9.118006015196443">
        <ele>180.19999999999999</ele>
        <time>2018-05-18T10:02:27Z</time>
      </trkpt>
      <trkpt lat="43.01016996614635" lon="-9.117803005501628">
        <ele>181.90000000000001</ele>
        <time>2018-05-18T10:02:34Z</time>
      </trkpt>
      <trkpt lat="43.010093020275235" lon="-9.117364967241883">
        <ele>184.40000000000001</ele>
        <time>2018-05-18T10:02:44Z</time>
      </trkpt>
      <trkpt lat="43.010100983083248" lon="-9.117296990007162">
        <ele>184.80000000000001</ele>
        <time>2018-05-18T10:02:46Z</time>
      </trkpt>
      <trkpt lat="43.010096037760377" lon="-9.116903962567449">
        <ele>186.80000000000001</ele>
        <time>2018-05-18T10:02:54Z</time>
      </trkpt>
      <trkpt lat="43.009966034442186" lon="-9.116584025323391">
        <ele>188.40000000000001</ele>
        <time>2018-05-18T10:03:02Z</time>
      </trkpt>
      <trkpt lat="43.009843993932009" lon="-9.116344973444939">
        <ele>189.90000000000001</ele>
        <time>2018-05-18T10:03:08Z</time>
      </trkpt>
      <trkpt lat="43.009630003944039" lon="-9.115922022610903">
        <ele>192.09999999999999</ele>
        <time>2018-05-18T10:03:20Z</time>
      </trkpt>
      <trkpt lat="43.009422970935702" lon="-9.115512985736132">
        <ele>193.09999999999999</ele>
        <time>2018-05-18T10:03:30Z</time>
      </trkpt>
      <trkpt lat="43.00911501981318" lon="-9.114952990785241">
        <ele>194.19999999999999</ele>
        <time>2018-05-18T10:03:45Z</time>
      </trkpt>
      <trkpt lat="43.008968001231551" lon="-9.114761967211962">
        <ele>194.30000000000001</ele>
        <time>2018-05-18T10:03:51Z</time>
      </trkpt>
      <trkpt lat="43.008700031787157" lon="-9.114439012482762">
        <ele>194.09999999999999</ele>
        <time>2018-05-18T10:04:02Z</time>
      </trkpt>
      <trkpt lat="43.008531974628568" lon="-9.113963004201651">
        <ele>194.59999999999999</ele>
        <time>2018-05-18T10:04:13Z</time>
      </trkpt>
      <trkpt lat="43.00842703320086" lon="-9.113692017272115">
        <ele>195.09999999999999</ele>
        <time>2018-05-18T10:04:20Z</time>
      </trkpt>
      <trkpt lat="43.008426027372479" lon="-9.113664021715522">
        <ele>195.19999999999999</ele>
        <time>2018-05-18T10:04:21Z</time>
      </trkpt>
      <trkpt lat="43.008432984352112" lon="-9.113583974540234">
        <ele>195.69999999999999</ele>
        <time>2018-05-18T10:04:22Z</time>
      </trkpt>
      <trkpt lat="43.008432984352112" lon="-9.113582968711853">
        <ele>195.69999999999999</ele>
        <time>2018-05-18T10:04:22Z</time>
      </trkpt>
      <trkpt lat="43.008431978523731" lon="-9.113584980368614">
        <ele>195.59999999999999</ele>
        <time>2018-05-18T10:04:23Z</time>
      </trkpt>
      <trkpt lat="43.008428961038589" lon="-9.113583974540234">
        <ele>195.59999999999999</ele>
        <time>2018-05-18T10:04:23Z</time>
      </trkpt>
      <trkpt lat="43.008395014330745" lon="-9.113825038075447">
        <ele>194.5</ele>
        <time>2018-05-18T10:04:28Z</time>
      </trkpt>
      <trkpt lat="43.008455028757453" lon="-9.113513985648751">
        <ele>196.09999999999999</ele>
        <time>2018-05-18T10:04:35Z</time>
      </trkpt>
      <trkpt lat="43.008455028757453" lon="-9.113512979820371">
        <ele>196.09999999999999</ele>
        <time>2018-05-18T10:04:35Z</time>
      </trkpt>
      <trkpt lat="43.008452011272311" lon="-9.11346604116261">
        <ele>196.30000000000001</ele>
        <time>2018-05-18T10:04:36Z</time>
      </trkpt>
      <trkpt lat="43.008442958816886" lon="-9.113448020070791">
        <ele>196.30000000000001</ele>
        <time>2018-05-18T10:04:36Z</time>
      </trkpt>
      <trkpt lat="43.00847003236413" lon="-9.113479033112526">
        <ele>196.30000000000001</ele>
        <time>2018-05-18T10:04:37Z</time>
      </trkpt>
      <trkpt lat="43.008482018485665" lon="-9.113560002297163">
        <ele>195.90000000000001</ele>
        <time>2018-05-18T10:04:39Z</time>
      </trkpt>
      <trkpt lat="43.008482018485665" lon="-9.113581040874124">
        <ele>195.80000000000001</ele>
        <time>2018-05-18T10:04:40Z</time>
      </trkpt>
      <trkpt lat="43.008502973243594" lon="-9.113621022552252">
        <ele>195.69999999999999</ele>
        <time>2018-05-18T10:04:41Z</time>
      </trkpt>
      <trkpt lat="43.008559970185161" lon="-9.11368003115058">
        <ele>195.69999999999999</ele>
        <time>2018-05-18T10:04:43Z</time>
      </trkpt>
      <trkpt lat="43.008526023477316" lon="-9.113666033372283">
        <ele>195.59999999999999</ele>
        <time>2018-05-18T10:04:44Z</time>
      </trkpt>
      <trkpt lat="43.008412029594183" lon="-9.113483978435397">
        <ele>196.09999999999999</ele>
        <time>2018-05-18T10:04:49Z</time>
      </trkpt>
      <trkpt lat="43.008383028209209" lon="-9.113442990928888">
        <ele>196.19999999999999</ele>
        <time>2018-05-18T10:04:50Z</time>
      </trkpt>
      <trkpt lat="43.008370958268642" lon="-9.11342597566545">
        <ele>196.19999999999999</ele>
        <time>2018-05-18T10:04:51Z</time>
      </trkpt>
      <trkpt lat="43.008226035162807" lon="-9.113204022869468">
        <ele>196.69999999999999</ele>
        <time>2018-05-18T10:04:57Z</time>
      </trkpt>
      <trkpt lat="43.008043980225921" lon="-9.113026997074485">
        <ele>196.90000000000001</ele>
        <time>2018-05-18T10:05:04Z</time>
      </trkpt>
      <trkpt lat="43.007810041308403" lon="-9.113010987639427">
        <ele>196.19999999999999</ele>
        <time>2018-05-18T10:05:11Z</time>
      </trkpt>
      <trkpt lat="43.007465964183211" lon="-9.11310201510787">
        <ele>194.5</ele>
        <time>2018-05-18T10:05:21Z</time>
      </trkpt>
      <trkpt lat="43.00728801637888" lon="-9.113063961267471">
        <ele>194</ele>
        <time>2018-05-18T10:05:27Z</time>
      </trkpt>
      <trkpt lat="43.007039995864034" lon="-9.113093968480825">
        <ele>192.80000000000001</ele>
        <time>2018-05-18T10:05:34Z</time>
      </trkpt>
      <trkpt lat="43.006832962855697" lon="-9.113178038969636">
        <ele>190.59999999999999</ele>
        <time>2018-05-18T10:05:40Z</time>
      </trkpt>
      <trkpt lat="43.006634982302785" lon="-9.113221038132906">
        <ele>188.80000000000001</ele>
        <time>2018-05-18T10:05:46Z</time>
      </trkpt>
      <trkpt lat="43.006481006741524" lon="-9.113047029823065">
        <ele>187.90000000000001</ele>
        <time>2018-05-18T10:05:52Z</time>
      </trkpt>
      <trkpt lat="43.006463991478086" lon="-9.112733965739608">
        <ele>188.09999999999999</ele>
        <time>2018-05-18T10:05:59Z</time>
      </trkpt>
      <trkpt lat="43.00647497177124" lon="-9.112421991303563">
        <ele>188.30000000000001</ele>
        <time>2018-05-18T10:06:06Z</time>
      </trkpt>
      <trkpt lat="43.00645200535655" lon="-9.112140024080873">
        <ele>188.19999999999999</ele>
        <time>2018-05-18T10:06:12Z</time>
      </trkpt>
      <trkpt lat="43.006223011761904" lon="-9.111809022724628">
        <ele>186.80000000000001</ele>
        <time>2018-05-18T10:06:22Z</time>
      </trkpt>
      <trkpt lat="43.006069036200643" lon="-9.111713971942663">
        <ele>187.80000000000001</ele>
        <time>2018-05-18T10:06:27Z</time>
      </trkpt>
      <trkpt lat="43.005848005414009" lon="-9.111947994679213">
        <ele>188</ele>
        <time>2018-05-18T10:06:35Z</time>
      </trkpt>
      <trkpt lat="43.005574000999331" lon="-9.11217799410224">
        <ele>188</ele>
        <time>2018-05-18T10:06:44Z</time>
      </trkpt>
      <trkpt lat="43.005166975781322" lon="-9.112491980195046">
        <ele>186.90000000000001</ele>
        <time>2018-05-18T10:06:58Z</time>
      </trkpt>
      <trkpt lat="43.004908980801702" lon="-9.112590970471501">
        <ele>186.40000000000001</ele>
        <time>2018-05-18T10:07:06Z</time>
      </trkpt>
      <trkpt lat="43.004789035767317" lon="-9.112579990178347">
        <ele>186.59999999999999</ele>
        <time>2018-05-18T10:07:10Z</time>
      </trkpt>
      <trkpt lat="43.004537997767329" lon="-9.112453004345298">
        <ele>188</ele>
        <time>2018-05-18T10:07:18Z</time>
      </trkpt>
      <trkpt lat="43.004214037209749" lon="-9.11217799410224">
        <ele>189.69999999999999</ele>
        <time>2018-05-18T10:07:29Z</time>
      </trkpt>
      <trkpt lat="43.004093002527952" lon="-9.112009014934301">
        <ele>190.09999999999999</ele>
        <time>2018-05-18T10:07:34Z</time>
      </trkpt>
      <trkpt lat="43.004042962566018" lon="-9.111903989687562">
        <ele>190.30000000000001</ele>
        <time>2018-05-18T10:07:37Z</time>
      </trkpt>
      <trkpt lat="43.003943972289562" lon="-9.111781027168036">
        <ele>190.40000000000001</ele>
        <time>2018-05-18T10:07:41Z</time>
      </trkpt>
      <trkpt lat="43.003757977858186" lon="-9.111541975289583">
        <ele>190.30000000000001</ele>
        <time>2018-05-18T10:07:48Z</time>
      </trkpt>
      <trkpt lat="43.003582963719964" lon="-9.111481960862875">
        <ele>192</ele>
        <time>2018-05-18T10:07:54Z</time>
      </trkpt>
      <trkpt lat="43.003398980945349" lon="-9.111403003334999">
        <ele>193.59999999999999</ele>
        <time>2018-05-18T10:07:59Z</time>
      </trkpt>
      <trkpt lat="43.003309965133667" lon="-9.111033026129007">
        <ele>194.30000000000001</ele>
        <time>2018-05-18T10:08:08Z</time>
      </trkpt>
      <trkpt lat="43.00335899926722" lon="-9.110474959015846">
        <ele>194.40000000000001</ele>
        <time>2018-05-18T10:08:20Z</time>
      </trkpt>
      <trkpt lat="43.003304013982415" lon="-9.11028703674674">
        <ele>194.69999999999999</ele>
        <time>2018-05-18T10:08:24Z</time>
      </trkpt>
      <trkpt lat="43.003153977915645" lon="-9.110272033140063">
        <ele>194.90000000000001</ele>
        <time>2018-05-18T10:08:29Z</time>
      </trkpt>
      <trkpt lat="43.002910986542702" lon="-9.110337998718023">
        <ele>195.09999999999999</ele>
        <time>2018-05-18T10:08:36Z</time>
      </trkpt>
      <trkpt lat="43.002768997102976" lon="-9.110388038679957">
        <ele>195.59999999999999</ele>
        <time>2018-05-18T10:08:40Z</time>
      </trkpt>
      <trkpt lat="43.002538997679949" lon="-9.110431037843227">
        <ele>196.40000000000001</ele>
        <time>2018-05-18T10:08:47Z</time>
      </trkpt>
      <trkpt lat="43.002200033515692" lon="-9.11056699231267">
        <ele>197.90000000000001</ele>
        <time>2018-05-18T10:08:58Z</time>
      </trkpt>
      <trkpt lat="43.001756966114044" lon="-9.110775031149387">
        <ele>197</ele>
        <time>2018-05-18T10:09:12Z</time>
      </trkpt>
      <trkpt lat="43.001505006104708" lon="-9.110794980078936">
        <ele>195.5</ele>
        <time>2018-05-18T10:09:19Z</time>
      </trkpt>
      <trkpt lat="43.001263020560145" lon="-9.110832028090954">
        <ele>194.09999999999999</ele>
        <time>2018-05-18T10:09:26Z</time>
      </trkpt>
      <trkpt lat="43.00105799920857" lon="-9.110872009769082">
        <ele>193</ele>
        <time>2018-05-18T10:09:32Z</time>
      </trkpt>
      <trkpt lat="43.000889020040631" lon="-9.110749969258905">
        <ele>192.09999999999999</ele>
        <time>2018-05-18T10:09:38Z</time>
      </trkpt>
      <trkpt lat="43.000803021714091" lon="-9.110526004806161">
        <ele>191.80000000000001</ele>
        <time>2018-05-18T10:09:44Z</time>
      </trkpt>
      <trkpt lat="43.000742001459002" lon="-9.11007204093039">
        <ele>191.90000000000001</ele>
        <time>2018-05-18T10:09:53Z</time>
      </trkpt>
      <trkpt lat="43.000663965940475" lon="-9.109885962679982">
        <ele>191.59999999999999</ele>
        <time>2018-05-18T10:09:58Z</time>
      </trkpt>
      <trkpt lat="43.000492975115776" lon="-9.109574994072318">
        <ele>190.59999999999999</ele>
        <time>2018-05-18T10:10:07Z</time>
      </trkpt>
      <trkpt lat="43.000159040093422" lon="-9.109166963025928">
        <ele>193.40000000000001</ele>
        <time>2018-05-18T10:10:20Z</time>
      </trkpt>
      <trkpt lat="42.999967010691762" lon="-9.10897602327168">
        <ele>194.30000000000001</ele>
        <time>2018-05-18T10:10:27Z</time>
      </trkpt>
      <trkpt lat="42.999354964122176" lon="-9.108694978058338">
        <ele>195</ele>
        <time>2018-05-18T10:10:46Z</time>
      </trkpt>
      <trkpt lat="42.999130999669433" lon="-9.108527004718781">
        <ele>197.90000000000001</ele>
        <time>2018-05-18T10:10:54Z</time>
      </trkpt>
      <trkpt lat="42.998933019116521" lon="-9.108467996120453">
        <ele>198.80000000000001</ele>
        <time>2018-05-18T10:10:59Z</time>
      </trkpt>
      <trkpt lat="42.998930001631379" lon="-9.108474031090736">
        <ele>198.69999999999999</ele>
        <time>2018-05-18T10:11:00Z</time>
      </trkpt>
      <trkpt lat="42.99893100745976" lon="-9.108452992513776">
        <ele>199.09999999999999</ele>
        <time>2018-05-18T10:11:00Z</time>
      </trkpt>
      <trkpt lat="42.998936036601663" lon="-9.108388032764196">
        <ele>200.19999999999999</ele>
        <time>2018-05-18T10:11:02Z</time>
      </trkpt>
      <trkpt lat="42.998990016058087" lon="-9.108232967555523">
        <ele>202.90000000000001</ele>
        <time>2018-05-18T10:11:05Z</time>
      </trkpt>
      <trkpt lat="42.999015999957919" lon="-9.108125008642674">
        <ele>204.69999999999999</ele>
        <time>2018-05-18T10:11:08Z</time>
      </trkpt>
      <trkpt lat="42.99895104020834" lon="-9.107897020876408">
        <ele>208.59999999999999</ele>
        <time>2018-05-18T10:11:13Z</time>
      </trkpt>
      <trkpt lat="42.998907035216689" lon="-9.107762994244695">
        <ele>211.40000000000001</ele>
        <time>2018-05-18T10:11:17Z</time>
      </trkpt>
      <trkpt lat="42.998865963891149" lon="-9.107684036716819">
        <ele>212.90000000000001</ele>
        <time>2018-05-18T10:11:19Z</time>
      </trkpt>
      <trkpt lat="42.998882979154587" lon="-9.107659980654717">
        <ele>213.40000000000001</ele>
        <time>2018-05-18T10:11:19Z</time>
      </trkpt>
      <trkpt lat="42.998876022174954" lon="-9.107694011181593">
        <ele>212.69999999999999</ele>
        <time>2018-05-18T10:11:20Z</time>
      </trkpt>
      <trkpt lat="42.998865963891149" lon="-9.107647994533181">
        <ele>213.69999999999999</ele>
        <time>2018-05-18T10:11:21Z</time>
      </trkpt>
      <trkpt lat="42.998817013576627" lon="-9.107487984001637">
        <ele>216.90000000000001</ele>
        <time>2018-05-18T10:11:25Z</time>
      </trkpt>
      <trkpt lat="42.998770996928215" lon="-9.10734498873353">
        <ele>219.69999999999999</ele>
        <time>2018-05-18T10:11:29Z</time>
      </trkpt>
      <trkpt lat="42.99876001663506" lon="-9.107269970700145">
        <ele>221.19999999999999</ele>
        <time>2018-05-18T10:11:30Z</time>
      </trkpt>
      <trkpt lat="42.998749036341906" lon="-9.107191013172269">
        <ele>222.80000000000001</ele>
        <time>2018-05-18T10:11:32Z</time>
      </trkpt>
      <trkpt lat="42.998763034120202" lon="-9.107025973498821">
        <ele>225.90000000000001</ele>
        <time>2018-05-18T10:11:36Z</time>
      </trkpt>
      <trkpt lat="42.998737972229719" lon="-9.106965959072113">
        <ele>226.69999999999999</ele>
        <time>2018-05-18T10:11:37Z</time>
      </trkpt>
      <trkpt lat="42.998723974451423" lon="-9.106933018192649">
        <ele>227.19999999999999</ele>
        <time>2018-05-18T10:11:38Z</time>
      </trkpt>
      <trkpt lat="42.998637976124883" lon="-9.106798991560936">
        <ele>229.09999999999999</ele>
        <time>2018-05-18T10:11:42Z</time>
      </trkpt>
      <trkpt lat="42.998521970584989" lon="-9.106711987406015">
        <ele>230.59999999999999</ele>
        <time>2018-05-18T10:11:46Z</time>
      </trkpt>
      <trkpt lat="42.998503027483821" lon="-9.106712993234396">
        <ele>230.59999999999999</ele>
        <time>2018-05-18T10:11:46Z</time>
      </trkpt>
      <trkpt lat="42.998514007776976" lon="-9.106692038476467">
        <ele>230.90000000000001</ele>
        <time>2018-05-18T10:11:47Z</time>
      </trkpt>
      <trkpt lat="42.998543009161949" lon="-9.106632024049759">
        <ele>231.80000000000001</ele>
        <time>2018-05-18T10:11:49Z</time>
      </trkpt>
      <trkpt lat="42.998575028032064" lon="-9.106565974652767">
        <ele>232.80000000000001</ele>
        <time>2018-05-18T10:11:50Z</time>
      </trkpt>
      <trkpt lat="42.998558012768626" lon="-9.10646396689117">
        <ele>234.40000000000001</ele>
        <time>2018-05-18T10:11:53Z</time>
      </trkpt>
      <trkpt lat="42.998556001111865" lon="-9.106459021568298">
        <ele>234.5</ele>
        <time>2018-05-18T10:11:53Z</time>
      </trkpt>
      <trkpt lat="42.998561030253768" lon="-9.106456004083157">
        <ele>234.5</ele>
        <time>2018-05-18T10:11:53Z</time>
      </trkpt>
      <trkpt lat="42.998607968911529" lon="-9.106409987434745">
        <ele>235.09999999999999</ele>
        <time>2018-05-18T10:11:55Z</time>
      </trkpt>
      <trkpt lat="42.998628001660109" lon="-9.106401018798351">
        <ele>235.19999999999999</ele>
        <time>2018-05-18T10:11:55Z</time>
      </trkpt>
      <trkpt lat="42.998828999698162" lon="-9.106400012969971">
        <ele>235.30000000000001</ele>
        <time>2018-05-18T10:12:01Z</time>
      </trkpt>
      <trkpt lat="42.998963026329875" lon="-9.106323989108205">
        <ele>237.09999999999999</ele>
        <time>2018-05-18T10:12:06Z</time>
      </trkpt>
      <trkpt lat="42.999148014932871" lon="-9.106251988559961">
        <ele>239.40000000000001</ele>
        <time>2018-05-18T10:12:11Z</time>
      </trkpt>
      <trkpt lat="42.99929796718061" lon="-9.10620597191155">
        <ele>240.80000000000001</ele>
        <time>2018-05-18T10:12:16Z</time>
      </trkpt>
      <trkpt lat="42.999364016577601" lon="-9.106159033253789">
        <ele>241.80000000000001</ele>
        <time>2018-05-18T10:12:18Z</time>
      </trkpt>
      <trkpt lat="42.999306013807654" lon="-9.105962980538607">
        <ele>243.80000000000001</ele>
        <time>2018-05-18T10:12:23Z</time>
      </trkpt>
      <trkpt lat="42.999264020472765" lon="-9.105918975546956">
        <ele>244.09999999999999</ele>
        <time>2018-05-18T10:12:24Z</time>
      </trkpt>
      <trkpt lat="42.999050030484796" lon="-9.105694005265832">
        <ele>245.5</ele>
        <time>2018-05-18T10:12:32Z</time>
      </trkpt>
      <trkpt lat="42.998678963631392" lon="-9.105312963947654">
        <ele>248.59999999999999</ele>
        <time>2018-05-18T10:12:46Z</time>
      </trkpt>
      <trkpt lat="42.998283002525568" lon="-9.104923037812114">
        <ele>256.30000000000001</ele>
        <time>2018-05-18T10:13:00Z</time>
      </trkpt>
      <trkpt lat="42.997920988127589" lon="-9.104603016749024">
        <ele>263.69999999999999</ele>
        <time>2018-05-18T10:13:13Z</time>
      </trkpt>
      <trkpt lat="42.997784027829766" lon="-9.104493968188763">
        <ele>265.10000000000002</ele>
        <time>2018-05-18T10:13:18Z</time>
      </trkpt>
      <trkpt lat="42.997676990926266" lon="-9.104364970698953">
        <ele>266.69999999999999</ele>
        <time>2018-05-18T10:13:22Z</time>
      </trkpt>
      <trkpt lat="42.997662993147969" lon="-9.104282995685935">
        <ele>267.60000000000002</ele>
        <time>2018-05-18T10:13:24Z</time>
      </trkpt>
      <trkpt lat="42.997647989541292" lon="-9.104188028723002">
        <ele>268.60000000000002</ele>
        <time>2018-05-18T10:13:26Z</time>
      </trkpt>
      <trkpt lat="42.997513962909579" lon="-9.103999016806483">
        <ele>271.19999999999999</ele>
        <time>2018-05-18T10:13:32Z</time>
      </trkpt>
      <trkpt lat="42.997368033975363" lon="-9.103807993233204">
        <ele>274.30000000000001</ele>
        <time>2018-05-18T10:13:38Z</time>
      </trkpt>
      <trkpt lat="42.997216992080212" lon="-9.103660974651575">
        <ele>276.69999999999999</ele>
        <time>2018-05-18T10:13:44Z</time>
      </trkpt>
      <trkpt lat="42.997101992368698" lon="-9.103528959676623">
        <ele>278.5</ele>
        <time>2018-05-18T10:13:48Z</time>
      </trkpt>
      <trkpt lat="42.997027980163693" lon="-9.10345503129065">
        <ele>278.60000000000002</ele>
        <time>2018-05-18T10:13:51Z</time>
      </trkpt>
      <trkpt lat="42.997026974335313" lon="-9.103429969400168">
        <ele>278.80000000000001</ele>
        <time>2018-05-18T10:13:51Z</time>
      </trkpt>
      <trkpt lat="42.996875010430813" lon="-9.103273982182145">
        <ele>278.69999999999999</ele>
        <time>2018-05-18T10:13:57Z</time>
      </trkpt>
      <trkpt lat="42.996803009882569" lon="-9.103142973035574">
        <ele>279.19999999999999</ele>
        <time>2018-05-18T10:14:00Z</time>
      </trkpt>
      <trkpt lat="42.996788006275892" lon="-9.1031139716506">
        <ele>279.30000000000001</ele>
        <time>2018-05-18T10:14:01Z</time>
      </trkpt>
      <trkpt lat="42.996721034869552" lon="-9.10294096916914">
        <ele>280.19999999999999</ele>
        <time>2018-05-18T10:14:05Z</time>
      </trkpt>
      <trkpt lat="42.996702007949352" lon="-9.102884978055954">
        <ele>280.60000000000002</ele>
        <time>2018-05-18T10:14:07Z</time>
      </trkpt>
      <trkpt lat="42.996635036543012" lon="-9.102612985298038">
        <ele>283.39999999999998</ele>
        <time>2018-05-18T10:14:13Z</time>
      </trkpt>
      <trkpt lat="42.996597988530993" lon="-9.102378040552139">
        <ele>286.10000000000002</ele>
        <time>2018-05-18T10:14:18Z</time>
      </trkpt>
      <trkpt lat="42.996596982702613" lon="-9.102369993925095">
        <ele>286.19999999999999</ele>
        <time>2018-05-18T10:14:18Z</time>
      </trkpt>
      <trkpt lat="42.9965890198946" lon="-9.102376028895378">
        <ele>286</ele>
        <time>2018-05-18T10:14:19Z</time>
      </trkpt>
      <trkpt lat="42.996587008237839" lon="-9.102349039167166">
        <ele>286.39999999999998</ele>
        <time>2018-05-18T10:14:19Z</time>
      </trkpt>
      <trkpt lat="42.996587008237839" lon="-9.102276032790542">
        <ele>287.30000000000001</ele>
        <time>2018-05-18T10:14:21Z</time>
      </trkpt>
      <trkpt lat="42.996454993262887" lon="-9.102093977853656">
        <ele>288.80000000000001</ele>
        <time>2018-05-18T10:14:26Z</time>
      </trkpt>
      <trkpt lat="42.99629095941782" lon="-9.101932961493731">
        <ele>291.80000000000001</ele>
        <time>2018-05-18T10:14:32Z</time>
      </trkpt>
      <trkpt lat="42.996263969689608" lon="-9.101914018392563">
        <ele>292.10000000000002</ele>
        <time>2018-05-18T10:14:33Z</time>
      </trkpt>
      <trkpt lat="42.996105970814824" lon="-9.101764988154173">
        <ele>297.19999999999999</ele>
        <time>2018-05-18T10:14:39Z</time>
      </trkpt>
      <trkpt lat="42.995965993031859" lon="-9.101659962907434">
        <ele>300.69999999999999</ele>
        <time>2018-05-18T10:14:44Z</time>
      </trkpt>
      <trkpt lat="42.995894998311996" lon="-9.101613024249673">
        <ele>302.10000000000002</ele>
        <time>2018-05-18T10:14:46Z</time>
      </trkpt>
      <trkpt lat="42.99566600471735" lon="-9.101445972919464">
        <ele>306.10000000000002</ele>
        <time>2018-05-18T10:14:54Z</time>
      </trkpt>
      <trkpt lat="42.995600961148739" lon="-9.101397022604942">
        <ele>307</ele>
        <time>2018-05-18T10:14:56Z</time>
      </trkpt>
      <trkpt lat="42.995480010285974" lon="-9.101238017901778">
        <ele>309</ele>
        <time>2018-05-18T10:15:01Z</time>
      </trkpt>
      <trkpt lat="42.995382025837898" lon="-9.100981028750539">
        <ele>310.89999999999998</ele>
        <time>2018-05-18T10:15:08Z</time>
      </trkpt>
      <trkpt lat="42.995296027511358" lon="-9.100666036829352">
        <ele>312.60000000000002</ele>
        <time>2018-05-18T10:15:15Z</time>
      </trkpt>
      <trkpt lat="42.995238024741411" lon="-9.100451041013002">
        <ele>313.80000000000001</ele>
        <time>2018-05-18T10:15:20Z</time>
      </trkpt>
      <trkpt lat="42.995240036398172" lon="-9.1004460118711">
        <ele>313.89999999999998</ele>
        <time>2018-05-18T10:15:20Z</time>
      </trkpt>
      <trkpt lat="42.995230983942747" lon="-9.100369988009334">
        <ele>314.39999999999998</ele>
        <time>2018-05-18T10:15:22Z</time>
      </trkpt>
      <trkpt lat="42.995175998657942" lon="-9.099988024681807">
        <ele>316.89999999999998</ele>
        <time>2018-05-18T10:15:30Z</time>
      </trkpt>
      <trkpt lat="42.995157977566123" lon="-9.099678983911872">
        <ele>319.30000000000001</ele>
        <time>2018-05-18T10:15:37Z</time>
      </trkpt>
      <trkpt lat="42.995162000879645" lon="-9.099440015852451">
        <ele>320.30000000000001</ele>
        <time>2018-05-18T10:15:42Z</time>
      </trkpt>
      <trkpt lat="42.995154960080981" lon="-9.099167017266154">
        <ele>320.39999999999998</ele>
        <time>2018-05-18T10:15:48Z</time>
      </trkpt>
      <trkpt lat="42.995144985616207" lon="-9.098883960396051">
        <ele>320.60000000000002</ele>
        <time>2018-05-18T10:15:54Z</time>
      </trkpt>
      <trkpt lat="42.995116990059614" lon="-9.098840039223433">
        <ele>320.5</ele>
        <time>2018-05-18T10:15:55Z</time>
      </trkpt>
      <trkpt lat="42.995128976181149" lon="-9.098751023411751">
        <ele>320.60000000000002</ele>
        <time>2018-05-18T10:15:57Z</time>
      </trkpt>
      <trkpt lat="42.995120007544756" lon="-9.098723027855158">
        <ele>320.60000000000002</ele>
        <time>2018-05-18T10:15:58Z</time>
      </trkpt>
      <trkpt lat="42.995041972026229" lon="-9.098419016227126">
        <ele>320.80000000000001</ele>
        <time>2018-05-18T10:16:05Z</time>
      </trkpt>
      <trkpt lat="42.995020011439919" lon="-9.098338969051838">
        <ele>320.80000000000001</ele>
        <time>2018-05-18T10:16:07Z</time>
      </trkpt>
      <trkpt lat="42.994923032820225" lon="-9.098141994327307">
        <ele>320.80000000000001</ele>
        <time>2018-05-18T10:16:12Z</time>
      </trkpt>
      <trkpt lat="42.994891013950109" lon="-9.098031017929316">
        <ele>320.89999999999998</ele>
        <time>2018-05-18T10:16:14Z</time>
      </trkpt>
      <trkpt lat="42.994883973151445" lon="-9.09780696965754">
        <ele>321.80000000000001</ele>
        <time>2018-05-18T10:16:19Z</time>
      </trkpt>
      <trkpt lat="42.994788000360131" lon="-9.097746033221483">
        <ele>321.80000000000001</ele>
        <time>2018-05-18T10:16:22Z</time>
      </trkpt>
      <trkpt lat="42.994663026183844" lon="-9.097775034606457">
        <ele>321.19999999999999</ele>
        <time>2018-05-18T10:16:26Z</time>
      </trkpt>
      <trkpt lat="42.994573004543781" lon="-9.0977399982512">
        <ele>321.10000000000002</ele>
        <time>2018-05-18T10:16:29Z</time>
      </trkpt>
      <trkpt lat="42.994403019547462" lon="-9.097669003531337">
        <ele>322.30000000000001</ele>
        <time>2018-05-18T10:16:34Z</time>
      </trkpt>
      <trkpt lat="42.994234962388873" lon="-9.09754503518343">
        <ele>323.60000000000002</ele>
        <time>2018-05-18T10:16:40Z</time>
      </trkpt>
      <trkpt lat="42.993989959359169" lon="-9.097382007166743">
        <ele>324.89999999999998</ele>
        <time>2018-05-18T10:16:48Z</time>
      </trkpt>
      <trkpt lat="42.993845958262682" lon="-9.096991997212172">
        <ele>326</ele>
        <time>2018-05-18T10:16:57Z</time>
      </trkpt>
      <trkpt lat="42.993716960772872" lon="-9.09666895866394">
        <ele>326.60000000000002</ele>
        <time>2018-05-18T10:17:05Z</time>
      </trkpt>
      <trkpt lat="42.993593998253345" lon="-9.096416998654604">
        <ele>327.10000000000002</ele>
        <time>2018-05-18T10:17:12Z</time>
      </trkpt>
      <trkpt lat="42.993527026847005" lon="-9.096066970378161">
        <ele>327.60000000000002</ele>
        <time>2018-05-18T10:17:20Z</time>
      </trkpt>
      <trkpt lat="42.993466006591916" lon="-9.095887010917068">
        <ele>327.89999999999998</ele>
        <time>2018-05-18T10:17:24Z</time>
      </trkpt>
      <trkpt lat="42.993383025750518" lon="-9.095485014840961">
        <ele>328.5</ele>
        <time>2018-05-18T10:17:33Z</time>
      </trkpt>
      <trkpt lat="42.993419989943504" lon="-9.095273958519101">
        <ele>327.89999999999998</ele>
        <time>2018-05-18T10:17:38Z</time>
      </trkpt>
      <trkpt lat="42.993572037667036" lon="-9.095037002116442">
        <ele>327.10000000000002</ele>
        <time>2018-05-18T10:17:45Z</time>
      </trkpt>
      <trkpt lat="42.993719978258014" lon="-9.094699965789914">
        <ele>326.30000000000001</ele>
        <time>2018-05-18T10:17:53Z</time>
      </trkpt>
      <trkpt lat="42.993729030713439" lon="-9.094569962471724">
        <ele>325.89999999999998</ele>
        <time>2018-05-18T10:17:56Z</time>
      </trkpt>
      <trkpt lat="42.993640014901757" lon="-9.094276009127498">
        <ele>325.39999999999998</ele>
        <time>2018-05-18T10:18:03Z</time>
      </trkpt>
      <trkpt lat="42.9936049785465" lon="-9.094177018851042">
        <ele>325.19999999999999</ele>
        <time>2018-05-18T10:18:05Z</time>
      </trkpt>
      <trkpt lat="42.993455026298761" lon="-9.093971997499466">
        <ele>324.30000000000001</ele>
        <time>2018-05-18T10:18:11Z</time>
      </trkpt>
      <trkpt lat="42.993310019373894" lon="-9.093833025544882">
        <ele>323.39999999999998</ele>
        <time>2018-05-18T10:18:17Z</time>
      </trkpt>
      <trkpt lat="42.993287974968553" lon="-9.093748033046722">
        <ele>323.19999999999999</ele>
        <time>2018-05-18T10:18:19Z</time>
      </trkpt>
      <trkpt lat="42.993299961090088" lon="-9.093688018620014">
        <ele>324</ele>
        <time>2018-05-18T10:18:20Z</time>
      </trkpt>
      <trkpt lat="42.993365004658699" lon="-9.093530019745231">
        <ele>326.10000000000002</ele>
        <time>2018-05-18T10:18:24Z</time>
      </trkpt>
      <trkpt lat="42.993382019922137" lon="-9.093444021418691">
        <ele>327.10000000000002</ele>
        <time>2018-05-18T10:18:26Z</time>
      </trkpt>
      <trkpt lat="42.993370033800602" lon="-9.093419965356588">
        <ele>327.30000000000001</ele>
        <time>2018-05-18T10:18:27Z</time>
      </trkpt>
      <trkpt lat="42.99332401715219" lon="-9.093347964808345">
        <ele>327.80000000000001</ele>
        <time>2018-05-18T10:18:29Z</time>
      </trkpt>
      <trkpt lat="42.993118995800614" lon="-9.0930550172925">
        <ele>329.30000000000001</ele>
        <time>2018-05-18T10:18:37Z</time>
      </trkpt>
      <trkpt lat="42.992800986394286" lon="-9.09267095848918">
        <ele>331.39999999999998</ele>
        <time>2018-05-18T10:18:50Z</time>
      </trkpt>
      <trkpt lat="42.992649022489786" lon="-9.092489993199706">
        <ele>332.69999999999999</ele>
        <time>2018-05-18T10:18:56Z</time>
      </trkpt>
      <trkpt lat="42.992276027798653" lon="-9.092052038758993">
        <ele>334.80000000000001</ele>
        <time>2018-05-18T10:19:10Z</time>
      </trkpt>
      <trkpt lat="42.991929017007351" lon="-9.091630009934306">
        <ele>338.10000000000002</ele>
        <time>2018-05-18T10:19:24Z</time>
      </trkpt>
      <trkpt lat="42.991617964580655" lon="-9.091217033565044">
        <ele>340.89999999999998</ele>
        <time>2018-05-18T10:19:37Z</time>
      </trkpt>
      <trkpt lat="42.991297021508217" lon="-9.090703977271915">
        <ele>344</ele>
        <time>2018-05-18T10:19:52Z</time>
      </trkpt>
      <trkpt lat="42.991030979901552" lon="-9.090255964547396">
        <ele>347</ele>
        <time>2018-05-18T10:20:04Z</time>
      </trkpt>
      <trkpt lat="42.990974988788366" lon="-9.090167032554746">
        <ele>347.60000000000002</ele>
        <time>2018-05-18T10:20:07Z</time>
      </trkpt>
      <trkpt lat="42.990667959675193" lon="-9.089655987918377">
        <ele>351.60000000000002</ele>
        <time>2018-05-18T10:20:21Z</time>
      </trkpt>
      <trkpt lat="42.990411976352334" lon="-9.089239994063973">
        <ele>354.69999999999999</ele>
        <time>2018-05-18T10:20:33Z</time>
      </trkpt>
      <trkpt lat="42.990134032443166" lon="-9.088770020753145">
        <ele>356.69999999999999</ele>
        <time>2018-05-18T10:20:46Z</time>
      </trkpt>
      <trkpt lat="42.990100001916289" lon="-9.088689973577857">
        <ele>357.19999999999999</ele>
        <time>2018-05-18T10:20:48Z</time>
      </trkpt>
      <trkpt lat="42.990039987489581" lon="-9.088281020522118">
        <ele>360.60000000000002</ele>
        <time>2018-05-18T10:20:57Z</time>
      </trkpt>
      <trkpt lat="42.990075023844838" lon="-9.08802998252213">
        <ele>363.39999999999998</ele>
        <time>2018-05-18T10:21:03Z</time>
      </trkpt>
      <trkpt lat="42.990161022171378" lon="-9.087409973144531">
        <ele>368.30000000000001</ele>
        <time>2018-05-18T10:21:16Z</time>
      </trkpt>
      <trkpt lat="42.99014501273632" lon="-9.087200006470084">
        <ele>369.60000000000002</ele>
        <time>2018-05-18T10:21:21Z</time>
      </trkpt>
      <trkpt lat="42.990103019401431" lon="-9.087068997323513">
        <ele>370.30000000000001</ele>
        <time>2018-05-18T10:21:24Z</time>
      </trkpt>
      <trkpt lat="42.989963041618466" lon="-9.086852995678783">
        <ele>371</ele>
        <time>2018-05-18T10:21:30Z</time>
      </trkpt>
      <trkpt lat="42.989745028316975" lon="-9.086662977933884">
        <ele>371.69999999999999</ele>
        <time>2018-05-18T10:21:38Z</time>
      </trkpt>
      <trkpt lat="42.989318976178765" lon="-9.086398025974631">
        <ele>371.30000000000001</ele>
        <time>2018-05-18T10:21:52Z</time>
      </trkpt>
      <trkpt lat="42.989073973149061" lon="-9.086230974644423">
        <ele>370.39999999999998</ele>
        <time>2018-05-18T10:22:00Z</time>
      </trkpt>
      <trkpt lat="42.988729979842901" lon="-9.086045986041427">
        <ele>369.39999999999998</ele>
        <time>2018-05-18T10:22:11Z</time>
      </trkpt>
      <trkpt lat="42.988337958231568" lon="-9.085964011028409">
        <ele>368.60000000000002</ele>
        <time>2018-05-18T10:22:22Z</time>
      </trkpt>
      <trkpt lat="42.987677967175841" lon="-9.0859230235219">
        <ele>367.19999999999999</ele>
        <time>2018-05-18T10:22:42Z</time>
      </trkpt>
      <trkpt lat="42.987632034346461" lon="-9.085919000208378">
        <ele>367.19999999999999</ele>
        <time>2018-05-18T10:22:43Z</time>
      </trkpt>
      <trkpt lat="42.987054018303752" lon="-9.085895027965307">
        <ele>367.10000000000002</ele>
        <time>2018-05-18T10:23:00Z</time>
      </trkpt>
      <trkpt lat="42.986732991412282" lon="-9.085860997438431">
        <ele>367.19999999999999</ele>
        <time>2018-05-18T10:23:10Z</time>
      </trkpt>
      <trkpt lat="42.986357985064387" lon="-9.085634015500546">
        <ele>367.60000000000002</ele>
        <time>2018-05-18T10:23:22Z</time>
      </trkpt>
      <trkpt lat="42.986211972311139" lon="-9.08560199663043">
        <ele>367.39999999999998</ele>
        <time>2018-05-18T10:23:26Z</time>
      </trkpt>
      <trkpt lat="42.985992031171918" lon="-9.085200000554323">
        <ele>366.60000000000002</ele>
        <time>2018-05-18T10:23:37Z</time>
      </trkpt>
      <trkpt lat="42.985695982351899" lon="-9.084674036130309">
        <ele>364.30000000000001</ele>
        <time>2018-05-18T10:23:52Z</time>
      </trkpt>
      <trkpt lat="42.985668992623687" lon="-9.084641011431813">
        <ele>364</ele>
        <time>2018-05-18T10:23:53Z</time>
      </trkpt>
      <trkpt lat="42.985211005434394" lon="-9.084114041179419">
        <ele>362.69999999999999</ele>
        <time>2018-05-18T10:24:10Z</time>
      </trkpt>
      <trkpt lat="42.985184015706182" lon="-9.084081016480923">
        <ele>362.69999999999999</ele>
        <time>2018-05-18T10:24:12Z</time>
      </trkpt>
      <trkpt lat="42.984374994412065" lon="-9.083522027358413">
        <ele>357.80000000000001</ele>
        <time>2018-05-18T10:24:38Z</time>
      </trkpt>
      <trkpt lat="42.98432101495564" lon="-9.083522027358413">
        <ele>357.60000000000002</ele>
        <time>2018-05-18T10:24:40Z</time>
      </trkpt>
      <trkpt lat="42.983917007222772" lon="-9.083061022683978">
        <ele>349.60000000000002</ele>
        <time>2018-05-18T10:24:56Z</time>
      </trkpt>
      <trkpt lat="42.983890017494559" lon="-9.083061022683978">
        <ele>349.19999999999999</ele>
        <time>2018-05-18T10:24:56Z</time>
      </trkpt>
      <trkpt lat="42.983486009761691" lon="-9.082337999716401">
        <ele>346.19999999999999</ele>
        <time>2018-05-18T10:25:16Z</time>
      </trkpt>
      <trkpt lat="42.983486009761691" lon="-9.082304975017905">
        <ele>346.30000000000001</ele>
        <time>2018-05-18T10:25:17Z</time>
      </trkpt>
      <trkpt lat="42.983028022572398" lon="-9.081252040341497">
        <ele>347.19999999999999</ele>
        <time>2018-05-18T10:25:43Z</time>
      </trkpt>
      <trkpt lat="42.982758041471243" lon="-9.080461962148547">
        <ele>346.30000000000001</ele>
        <time>2018-05-18T10:26:02Z</time>
      </trkpt>
      <trkpt lat="42.982354033738375" lon="-9.079902973026037">
        <ele>343.60000000000002</ele>
        <time>2018-05-18T10:26:19Z</time>
      </trkpt>
      <trkpt lat="42.982354033738375" lon="-9.079870032146573">
        <ele>343.69999999999999</ele>
        <time>2018-05-18T10:26:20Z</time>
      </trkpt>
      <trkpt lat="42.982354033738375" lon="-9.079278018325567">
        <ele>343.69999999999999</ele>
        <time>2018-05-18T10:26:33Z</time>
      </trkpt>
      <trkpt lat="42.982676988467574" lon="-9.078652979806066">
        <ele>345.30000000000001</ele>
        <time>2018-05-18T10:26:49Z</time>
      </trkpt>
      <trkpt lat="42.982730967923999" lon="-9.078587014228106">
        <ele>345.5</ele>
        <time>2018-05-18T10:26:51Z</time>
      </trkpt>
      <trkpt lat="42.982703978195786" lon="-9.078127015382052">
        <ele>343.19999999999999</ele>
        <time>2018-05-18T10:27:01Z</time>
      </trkpt>
      <trkpt lat="42.982703978195786" lon="-9.077896010130644">
        <ele>342.19999999999999</ele>
        <time>2018-05-18T10:27:06Z</time>
      </trkpt>
      <trkpt lat="42.982623009011149" lon="-9.077896010130644">
        <ele>341.89999999999998</ele>
        <time>2018-05-18T10:27:09Z</time>
      </trkpt>
      <trkpt lat="42.982381023466587" lon="-9.077961975708604">
        <ele>341.19999999999999</ele>
        <time>2018-05-18T10:27:16Z</time>
      </trkpt>
      <trkpt lat="42.982381023466587" lon="-9.07792903482914">
        <ele>341.10000000000002</ele>
        <time>2018-05-18T10:27:17Z</time>
      </trkpt>
      <trkpt lat="42.9821109585464" lon="-9.077500971034169">
        <ele>340.5</ele>
        <time>2018-05-18T10:27:29Z</time>
      </trkpt>
      <trkpt lat="42.982083968818188" lon="-9.077500971034169">
        <ele>340.5</ele>
        <time>2018-05-18T10:27:30Z</time>
      </trkpt>
      <trkpt lat="42.981625981628895" lon="-9.076810972765088">
        <ele>341.19999999999999</ele>
        <time>2018-05-18T10:27:50Z</time>
      </trkpt>
      <trkpt lat="42.981625981628895" lon="-9.076745007187128">
        <ele>341.30000000000001</ele>
        <time>2018-05-18T10:27:51Z</time>
      </trkpt>
      <trkpt lat="42.981330016627908" lon="-9.076152993366122">
        <ele>342</ele>
        <time>2018-05-18T10:28:07Z</time>
      </trkpt>
      <trkpt lat="42.981303026899695" lon="-9.076119968667626">
        <ele>342</ele>
        <time>2018-05-18T10:28:08Z</time>
      </trkpt>
      <trkpt lat="42.980845039710402" lon="-9.075461989268661">
        <ele>344.39999999999998</ele>
        <time>2018-05-18T10:28:28Z</time>
      </trkpt>
      <trkpt lat="42.980817966163158" lon="-9.075428964570165">
        <ele>344.69999999999999</ele>
        <time>2018-05-18T10:28:29Z</time>
      </trkpt>
      <trkpt lat="42.980520995333791" lon="-9.074573004618287">
        <ele>343.69999999999999</ele>
        <time>2018-05-18T10:28:49Z</time>
      </trkpt>
      <trkpt lat="42.980467015877366" lon="-9.074573004618287">
        <ele>344.80000000000001</ele>
        <time>2018-05-18T10:28:51Z</time>
      </trkpt>
      <trkpt lat="42.980198040604591" lon="-9.073717966675758">
        <ele>343.19999999999999</ele>
        <time>2018-05-18T10:29:11Z</time>
      </trkpt>
      <trkpt lat="42.980198040604591" lon="-9.073685025796294">
        <ele>342.80000000000001</ele>
        <time>2018-05-18T10:29:12Z</time>
      </trkpt>
      <trkpt lat="42.979712979868054" lon="-9.07279696315527">
        <ele>346.5</ele>
        <time>2018-05-18T10:29:36Z</time>
      </trkpt>
      <trkpt lat="42.979712979868054" lon="-9.072764022275806">
        <ele>346.19999999999999</ele>
        <time>2018-05-18T10:29:36Z</time>
      </trkpt>
      <trkpt lat="42.979389019310474" lon="-9.071776969358325">
        <ele>342.60000000000002</ele>
        <time>2018-05-18T10:30:00Z</time>
      </trkpt>
      <trkpt lat="42.979389019310474" lon="-9.071744028478861">
        <ele>342.10000000000002</ele>
        <time>2018-05-18T10:30:01Z</time>
      </trkpt>
      <trkpt lat="42.978849979117513" lon="-9.071152014657855">
        <ele>342.60000000000002</ele>
        <time>2018-05-18T10:30:21Z</time>
      </trkpt>
      <trkpt lat="42.978338012471795" lon="-9.070494035258889">
        <ele>331.89999999999998</ele>
        <time>2018-05-18T10:30:42Z</time>
      </trkpt>
      <trkpt lat="42.97785303555429" lon="-9.070427985861898">
        <ele>333.89999999999998</ele>
        <time>2018-05-18T10:30:56Z</time>
      </trkpt>
      <trkpt lat="42.977260015904903" lon="-9.070362020283938">
        <ele>338</ele>
        <time>2018-05-18T10:31:14Z</time>
      </trkpt>
      <trkpt lat="42.977233026176691" lon="-9.070362020283938">
        <ele>338.19999999999999</ele>
        <time>2018-05-18T10:31:15Z</time>
      </trkpt>
      <trkpt lat="42.976614022627473" lon="-9.069736981764436">
        <ele>329</ele>
        <time>2018-05-18T10:31:38Z</time>
      </trkpt>
      <trkpt lat="42.976021002978086" lon="-9.069474041461945">
        <ele>327.69999999999999</ele>
        <time>2018-05-18T10:31:56Z</time>
      </trkpt>
      <trkpt lat="42.975320024415851" lon="-9.068981017917395">
        <ele>319.30000000000001</ele>
        <time>2018-05-18T10:32:20Z</time>
      </trkpt>
      <trkpt lat="42.975293034687638" lon="-9.068947993218899">
        <ele>318.5</ele>
        <time>2018-05-18T10:32:21Z</time>
      </trkpt>
      <trkpt lat="42.974780984222889" lon="-9.068553037941456">
        <ele>313.39999999999998</ele>
        <time>2018-05-18T10:32:38Z</time>
      </trkpt>
      <trkpt lat="42.974753994494677" lon="-9.068553037941456">
        <ele>313.69999999999999</ele>
        <time>2018-05-18T10:32:39Z</time>
      </trkpt>
      <trkpt lat="42.974403966218233" lon="-9.068124974146485">
        <ele>307.19999999999999</ele>
        <time>2018-05-18T10:32:53Z</time>
      </trkpt>
      <trkpt lat="42.974403966218233" lon="-9.068092033267021">
        <ele>306.30000000000001</ele>
        <time>2018-05-18T10:32:54Z</time>
      </trkpt>
      <trkpt lat="42.973999958485365" lon="-9.067696994170547">
        <ele>303.10000000000002</ele>
        <time>2018-05-18T10:33:08Z</time>
      </trkpt>
      <trkpt lat="42.97362201847136" lon="-9.067565985023975">
        <ele>306.60000000000002</ele>
        <time>2018-05-18T10:33:20Z</time>
      </trkpt>
      <trkpt lat="42.973595028743148" lon="-9.067565985023975">
        <ele>307.10000000000002</ele>
        <time>2018-05-18T10:33:21Z</time>
      </trkpt>
      <trkpt lat="42.973028998821974" lon="-9.067203970625997">
        <ele>310.69999999999999</ele>
        <time>2018-05-18T10:33:39Z</time>
      </trkpt>
      <trkpt lat="42.972517032176256" lon="-9.066612040624023">
        <ele>311.69999999999999</ele>
        <time>2018-05-18T10:33:59Z</time>
      </trkpt>
      <trkpt lat="42.972517032176256" lon="-9.066579015925527">
        <ele>310.89999999999998</ele>
        <time>2018-05-18T10:34:00Z</time>
      </trkpt>
      <trkpt lat="42.971789985895157" lon="-9.066052967682481">
        <ele>315.60000000000002</ele>
        <time>2018-05-18T10:34:24Z</time>
      </trkpt>
      <trkpt lat="42.970926985144615" lon="-9.065658012405038">
        <ele>317.19999999999999</ele>
        <time>2018-05-18T10:34:51Z</time>
      </trkpt>
      <trkpt lat="42.970926985144615" lon="-9.065658012405038">
        <ele>317.19999999999999</ele>
        <time>2018-05-18T10:34:51Z</time>
      </trkpt>
      <trkpt lat="42.970118969678879" lon="-9.065295998007059">
        <ele>312.80000000000001</ele>
        <time>2018-05-18T10:35:16Z</time>
      </trkpt>
      <trkpt lat="42.970091979950666" lon="-9.065295998007059">
        <ele>312.89999999999998</ele>
        <time>2018-05-18T10:35:17Z</time>
      </trkpt>
      <trkpt lat="42.969444980844855" lon="-9.064900958910584">
        <ele>305.69999999999999</ele>
        <time>2018-05-18T10:35:38Z</time>
      </trkpt>
      <trkpt lat="42.969444980844855" lon="-9.06486801803112">
        <ele>304.89999999999998</ele>
        <time>2018-05-18T10:35:39Z</time>
      </trkpt>
      <trkpt lat="42.968933014199138" lon="-9.064571969211102">
        <ele>297.19999999999999</ele>
        <time>2018-05-18T10:35:55Z</time>
      </trkpt>
      <trkpt lat="42.968879034742713" lon="-9.064571969211102">
        <ele>297.10000000000002</ele>
        <time>2018-05-18T10:35:57Z</time>
      </trkpt>
      <trkpt lat="42.968475027009845" lon="-9.064670959487557">
        <ele>296.69999999999999</ele>
        <time>2018-05-18T10:36:09Z</time>
      </trkpt>
      <trkpt lat="42.967908997088671" lon="-9.064769027754664">
        <ele>294.89999999999998</ele>
        <time>2018-05-18T10:36:26Z</time>
      </trkpt>
      <trkpt lat="42.967466013506055" lon="-9.064790988340974">
        <ele>299.39999999999998</ele>
        <time>2018-05-18T10:36:39Z</time>
      </trkpt>
      <trkpt lat="42.967470036819577" lon="-9.064784031361342">
        <ele>299.30000000000001</ele>
        <time>2018-05-18T10:36:39Z</time>
      </trkpt>
      <trkpt lat="42.967483028769493" lon="-9.064741032198072">
        <ele>298.5</ele>
        <time>2018-05-18T10:36:40Z</time>
      </trkpt>
      <trkpt lat="42.967581013217568" lon="-9.064560988917947">
        <ele>294.80000000000001</ele>
        <time>2018-05-18T10:36:45Z</time>
      </trkpt>
      <trkpt lat="42.967655025422573" lon="-9.064367031678557">
        <ele>291.60000000000002</ele>
        <time>2018-05-18T10:36:50Z</time>
      </trkpt>
      <trkpt lat="42.967704981565475" lon="-9.064252031967044">
        <ele>289.5</ele>
        <time>2018-05-18T10:36:53Z</time>
      </trkpt>
      <trkpt lat="42.967758039012551" lon="-9.064125968143344">
        <ele>287.10000000000002</ele>
        <time>2018-05-18T10:36:56Z</time>
      </trkpt>
      <trkpt lat="42.96773498877883" lon="-9.064110964536667">
        <ele>287.19999999999999</ele>
        <time>2018-05-18T10:36:57Z</time>
      </trkpt>
      <trkpt lat="42.967781005427241" lon="-9.064024966210127">
        <ele>285.39999999999998</ele>
        <time>2018-05-18T10:36:59Z</time>
      </trkpt>
      <trkpt lat="42.967858035117388" lon="-9.063882976770401">
        <ele>282</ele>
        <time>2018-05-18T10:37:03Z</time>
      </trkpt>
      <trkpt lat="42.96795099042356" lon="-9.063739981502295">
        <ele>278.89999999999998</ele>
        <time>2018-05-18T10:37:08Z</time>
      </trkpt>
      <trkpt lat="42.968026008456945" lon="-9.0636430028826">
        <ele>277.60000000000002</ele>
        <time>2018-05-18T10:37:11Z</time>
      </trkpt>
      <trkpt lat="42.968112006783485" lon="-9.063573013991118">
        <ele>276.69999999999999</ele>
        <time>2018-05-18T10:37:14Z</time>
      </trkpt>
      <trkpt lat="42.968169003725052" lon="-9.063526997342706">
        <ele>276.10000000000002</ele>
        <time>2018-05-18T10:37:16Z</time>
      </trkpt>
      <trkpt lat="42.968247039243579" lon="-9.063453990966082">
        <ele>275.10000000000002</ele>
        <time>2018-05-18T10:37:18Z</time>
      </trkpt>
      <trkpt lat="42.968249972909689" lon="-9.063401017338038">
        <ele>274.39999999999998</ele>
        <time>2018-05-18T10:37:20Z</time>
      </trkpt>
      <trkpt lat="42.968276040628552" lon="-9.063338991254568">
        <ele>273.60000000000002</ele>
        <time>2018-05-18T10:37:21Z</time>
      </trkpt>
      <trkpt lat="42.968306969851255" lon="-9.063315019011498">
        <ele>273.30000000000001</ele>
        <time>2018-05-18T10:37:22Z</time>
      </trkpt>
      <trkpt lat="42.968529006466269" lon="-9.063279982656241">
        <ele>272.80000000000001</ele>
        <time>2018-05-18T10:37:29Z</time>
      </trkpt>
      <trkpt lat="42.968819020316005" lon="-9.063314013183117">
        <ele>273.5</ele>
        <time>2018-05-18T10:37:37Z</time>
      </trkpt>
      <trkpt lat="42.968910969793797" lon="-9.063267996534705">
        <ele>273.10000000000002</ele>
        <time>2018-05-18T10:37:40Z</time>
      </trkpt>
      <trkpt lat="42.968935025855899" lon="-9.063065992668271">
        <ele>270.60000000000002</ele>
        <time>2018-05-18T10:37:45Z</time>
      </trkpt>
      <trkpt lat="42.968949023634195" lon="-9.062932971864939">
        <ele>268.89999999999998</ele>
        <time>2018-05-18T10:37:48Z</time>
      </trkpt>
      <trkpt lat="42.968985987827182" lon="-9.062724011018872">
        <ele>268.69999999999999</ele>
        <time>2018-05-18T10:37:52Z</time>
      </trkpt>
      <trkpt lat="42.968975007534027" lon="-9.062430979683995">
        <ele>268.5</ele>
        <time>2018-05-18T10:37:59Z</time>
      </trkpt>
      <trkpt lat="42.969043990597129" lon="-9.062064019963145">
        <ele>268.69999999999999</ele>
        <time>2018-05-18T10:38:07Z</time>
      </trkpt>
      <trkpt lat="42.969169970601797" lon="-9.06177400611341">
        <ele>269.69999999999999</ele>
        <time>2018-05-18T10:38:14Z</time>
      </trkpt>
      <trkpt lat="42.969165025278926" lon="-9.061738969758153">
        <ele>269.69999999999999</ele>
        <time>2018-05-18T10:38:15Z</time>
      </trkpt>
      <trkpt lat="42.969062011688948" lon="-9.061517016962171">
        <ele>268.30000000000001</ele>
        <time>2018-05-18T10:38:21Z</time>
      </trkpt>
      <trkpt lat="42.969028986990452" lon="-9.061443004757166">
        <ele>267.69999999999999</ele>
        <time>2018-05-18T10:38:23Z</time>
      </trkpt>
      <trkpt lat="42.968938965350389" lon="-9.061153996735811">
        <ele>266.39999999999998</ele>
        <time>2018-05-18T10:38:29Z</time>
      </trkpt>
      <trkpt lat="42.968811979517341" lon="-9.060695003718138">
        <ele>266.89999999999998</ele>
        <time>2018-05-18T10:38:40Z</time>
      </trkpt>
      <trkpt lat="42.968646017834544" lon="-9.060403984040022">
        <ele>265.69999999999999</ele>
        <time>2018-05-18T10:38:48Z</time>
      </trkpt>
      <trkpt lat="42.968463962897658" lon="-9.060203991830349">
        <ele>266.39999999999998</ele>
        <time>2018-05-18T10:38:55Z</time>
      </trkpt>
      <trkpt lat="42.968106977641582" lon="-9.059829991310835">
        <ele>266.69999999999999</ele>
        <time>2018-05-18T10:39:08Z</time>
      </trkpt>
      <trkpt lat="42.968074958771467" lon="-9.059789003804326">
        <ele>266.69999999999999</ele>
        <time>2018-05-18T10:39:09Z</time>
      </trkpt>
      <trkpt lat="42.96788401901722" lon="-9.059483986347914">
        <ele>266.80000000000001</ele>
        <time>2018-05-18T10:39:18Z</time>
      </trkpt>
      <trkpt lat="42.967835990712047" lon="-9.059274019673467">
        <ele>266.69999999999999</ele>
        <time>2018-05-18T10:39:23Z</time>
      </trkpt>
      <trkpt lat="42.967831967398524" lon="-9.05917301774025">
        <ele>267.10000000000002</ele>
        <time>2018-05-18T10:39:25Z</time>
      </trkpt>
      <trkpt lat="42.967877984046936" lon="-9.058737996965647">
        <ele>270.80000000000001</ele>
        <time>2018-05-18T10:39:35Z</time>
      </trkpt>
      <trkpt lat="42.967872032895684" lon="-9.058449994772673">
        <ele>270.89999999999998</ele>
        <time>2018-05-18T10:39:41Z</time>
      </trkpt>
      <trkpt lat="42.967792991548777" lon="-9.058068031445146">
        <ele>268.69999999999999</ele>
        <time>2018-05-18T10:39:49Z</time>
      </trkpt>
      <trkpt lat="42.967671034857631" lon="-9.057636028155685">
        <ele>268.19999999999999</ele>
        <time>2018-05-18T10:39:59Z</time>
      </trkpt>
      <trkpt lat="42.967533990740776" lon="-9.057311983779073">
        <ele>267.10000000000002</ele>
        <time>2018-05-18T10:40:08Z</time>
      </trkpt>
      <trkpt lat="42.967423014342785" lon="-9.057043008506298">
        <ele>266.5</ele>
        <time>2018-05-18T10:40:14Z</time>
      </trkpt>
      <trkpt lat="42.967343972995877" lon="-9.056838992983103">
        <ele>267.69999999999999</ele>
        <time>2018-05-18T10:40:19Z</time>
      </trkpt>
      <trkpt lat="42.967345984652638" lon="-9.056834969669581">
        <ele>267.89999999999998</ele>
        <time>2018-05-18T10:40:19Z</time>
      </trkpt>
      <trkpt lat="42.967366017401218" lon="-9.0568339638412">
        <ele>268.60000000000002</ele>
        <time>2018-05-18T10:40:20Z</time>
      </trkpt>
      <trkpt lat="42.967346990481019" lon="-9.056819966062903">
        <ele>268.19999999999999</ele>
        <time>2018-05-18T10:40:21Z</time>
      </trkpt>
      <trkpt lat="42.967308014631271" lon="-9.056715024635196">
        <ele>269</ele>
        <time>2018-05-18T10:40:23Z</time>
      </trkpt>
      <trkpt lat="42.967290999367833" lon="-9.056631959974766">
        <ele>270.10000000000002</ele>
        <time>2018-05-18T10:40:25Z</time>
      </trkpt>
      <trkpt lat="42.967228973284364" lon="-9.056474966928363">
        <ele>271.19999999999999</ele>
        <time>2018-05-18T10:40:29Z</time>
      </trkpt>
      <trkpt lat="42.96711296774447" lon="-9.056163998320699">
        <ele>274</ele>
        <time>2018-05-18T10:40:37Z</time>
      </trkpt>
      <trkpt lat="42.96704700216651" lon="-9.055993007495999">
        <ele>276.19999999999999</ele>
        <time>2018-05-18T10:40:41Z</time>
      </trkpt>
      <trkpt lat="42.966921022161841" lon="-9.055657982826233">
        <ele>280.69999999999999</ele>
        <time>2018-05-18T10:40:49Z</time>
      </trkpt>
      <trkpt lat="42.96683301217854" lon="-9.055411973968148">
        <ele>284.19999999999999</ele>
        <time>2018-05-18T10:40:55Z</time>
      </trkpt>
      <trkpt lat="42.966713989153504" lon="-9.055209970101714">
        <ele>286</ele>
        <time>2018-05-18T10:41:01Z</time>
      </trkpt>
      <trkpt lat="42.966311993077397" lon="-9.054658021777868">
        <ele>292</ele>
        <time>2018-05-18T10:41:18Z</time>
      </trkpt>
      <trkpt lat="42.965926006436348" lon="-9.054209003224969">
        <ele>295.60000000000002</ele>
        <time>2018-05-18T10:41:33Z</time>
      </trkpt>
      <trkpt lat="42.965681003406644" lon="-9.053912032395601">
        <ele>298.39999999999998</ele>
        <time>2018-05-18T10:41:42Z</time>
      </trkpt>
      <trkpt lat="42.965515041723847" lon="-9.05361196026206">
        <ele>300.89999999999998</ele>
        <time>2018-05-18T10:41:50Z</time>
      </trkpt>
      <trkpt lat="42.965420996770263" lon="-9.053242988884449">
        <ele>302.89999999999998</ele>
        <time>2018-05-18T10:41:59Z</time>
      </trkpt>
      <trkpt lat="42.96539400704205" lon="-9.052947023883462">
        <ele>305.30000000000001</ele>
        <time>2018-05-18T10:42:05Z</time>
      </trkpt>
      <trkpt lat="42.965405993163586" lon="-9.052620967850089">
        <ele>304</ele>
        <time>2018-05-18T10:42:12Z</time>
      </trkpt>
      <trkpt lat="42.965560974553227" lon="-9.052172033116221">
        <ele>304.39999999999998</ele>
        <time>2018-05-18T10:42:23Z</time>
      </trkpt>
      <trkpt lat="42.965676980093122" lon="-9.051638022065163">
        <ele>301.39999999999998</ele>
        <time>2018-05-18T10:42:35Z</time>
      </trkpt>
      <trkpt lat="42.96575702726841" lon="-9.051152961328626">
        <ele>298.80000000000001</ele>
        <time>2018-05-18T10:42:46Z</time>
      </trkpt>
      <trkpt lat="42.965799020603299" lon="-9.050682988017798">
        <ele>297</ele>
        <time>2018-05-18T10:42:56Z</time>
      </trkpt>
      <trkpt lat="42.96580002643168" lon="-9.050222989171743">
        <ele>295.39999999999998</ele>
        <time>2018-05-18T10:43:06Z</time>
      </trkpt>
      <trkpt lat="42.965747974812984" lon="-9.049719991162419">
        <ele>293.89999999999998</ele>
        <time>2018-05-18T10:43:17Z</time>
      </trkpt>
      <trkpt lat="42.96573800034821" lon="-9.049666011705995">
        <ele>293.60000000000002</ele>
        <time>2018-05-18T10:43:18Z</time>
      </trkpt>
      <trkpt lat="42.965614032000303" lon="-9.049380021169782">
        <ele>292.10000000000002</ele>
        <time>2018-05-18T10:43:26Z</time>
      </trkpt>
      <trkpt lat="42.965338015928864" lon="-9.048924967646599">
        <ele>289.39999999999998</ele>
        <time>2018-05-18T10:43:38Z</time>
      </trkpt>
      <trkpt lat="42.965279007330537" lon="-9.04873201623559">
        <ele>289.5</ele>
        <time>2018-05-18T10:43:43Z</time>
      </trkpt>
      <trkpt lat="42.96526400372386" lon="-9.048660015687347">
        <ele>289.69999999999999</ele>
        <time>2018-05-18T10:43:45Z</time>
      </trkpt>
      <trkpt lat="42.965261992067099" lon="-9.04864601790905">
        <ele>289.69999999999999</ele>
        <time>2018-05-18T10:43:45Z</time>
      </trkpt>
      <trkpt lat="42.965170964598656" lon="-9.048295989632607">
        <ele>289.60000000000002</ele>
        <time>2018-05-18T10:43:53Z</time>
      </trkpt>
      <trkpt lat="42.96509200707078" lon="-9.047951996326447">
        <ele>289.60000000000002</ele>
        <time>2018-05-18T10:44:01Z</time>
      </trkpt>
      <trkpt lat="42.965098964050412" lon="-9.047640021890402">
        <ele>292.30000000000001</ele>
        <time>2018-05-18T10:44:08Z</time>
      </trkpt>
      <trkpt lat="42.965083038434386" lon="-9.047387978062034">
        <ele>293.60000000000002</ele>
        <time>2018-05-18T10:44:13Z</time>
      </trkpt>
      <trkpt lat="42.965074991807342" lon="-9.047237019985914">
        <ele>294.60000000000002</ele>
        <time>2018-05-18T10:44:16Z</time>
      </trkpt>
      <trkpt lat="42.965074991807342" lon="-9.047237019985914">
        <ele>294.60000000000002</ele>
        <time>2018-05-18T10:44:16Z</time>
      </trkpt>
      <trkpt lat="42.96507298015058" lon="-9.047239031642675">
        <ele>294.5</ele>
        <time>2018-05-18T10:44:16Z</time>
      </trkpt>
      <trkpt lat="42.965074991807342" lon="-9.047243976965547">
        <ele>294.5</ele>
        <time>2018-05-18T10:44:17Z</time>
      </trkpt>
      <trkpt lat="42.965082032606006" lon="-9.047256968915463">
        <ele>294.60000000000002</ele>
        <time>2018-05-18T10:44:17Z</time>
      </trkpt>
      <trkpt lat="42.965058982372284" lon="-9.047126965597272">
        <ele>294.89999999999998</ele>
        <time>2018-05-18T10:44:20Z</time>
      </trkpt>
      <trkpt lat="42.965034004300833" lon="-9.047086983919144">
        <ele>294.5</ele>
        <time>2018-05-18T10:44:21Z</time>
      </trkpt>
      <trkpt lat="42.964887991547585" lon="-9.046914987266064">
        <ele>291.39999999999998</ele>
        <time>2018-05-18T10:44:27Z</time>
      </trkpt>
      <trkpt lat="42.964730998501182" lon="-9.046709965914488">
        <ele>289.30000000000001</ele>
        <time>2018-05-18T10:44:33Z</time>
      </trkpt>
      <trkpt lat="42.964567970484495" lon="-9.046496981754899">
        <ele>288.30000000000001</ele>
        <time>2018-05-18T10:44:40Z</time>
      </trkpt>
      <trkpt lat="42.96445095911622" lon="-9.046334037557244">
        <ele>286.89999999999998</ele>
        <time>2018-05-18T10:44:45Z</time>
      </trkpt>
      <trkpt lat="42.964335037395358" lon="-9.04619699344039">
        <ele>284.5</ele>
        <time>2018-05-18T10:44:49Z</time>
      </trkpt>
      <trkpt lat="42.964225988835096" lon="-9.04606900177896">
        <ele>282</ele>
        <time>2018-05-18T10:44:54Z</time>
      </trkpt>
      <trkpt lat="42.964099003002048" lon="-9.045874960720539">
        <ele>280</ele>
        <time>2018-05-18T10:44:59Z</time>
      </trkpt>
      <trkpt lat="42.963958019390702" lon="-9.045678991824389">
        <ele>278.30000000000001</ele>
        <time>2018-05-18T10:45:05Z</time>
      </trkpt>
      <trkpt lat="42.963803960010409" lon="-9.045453015714884">
        <ele>277.60000000000002</ele>
        <time>2018-05-18T10:45:12Z</time>
      </trkpt>
      <trkpt lat="42.963686026632786" lon="-9.045269032940269">
        <ele>277</ele>
        <time>2018-05-18T10:45:17Z</time>
      </trkpt>
      <trkpt lat="42.963685020804405" lon="-9.045268027111888">
        <ele>277</ele>
        <time>2018-05-18T10:45:17Z</time>
      </trkpt>
      <trkpt lat="42.963662976399064" lon="-9.045215975493193">
        <ele>277</ele>
        <time>2018-05-18T10:45:19Z</time>
      </trkpt>
      <trkpt lat="42.963568009436131" lon="-9.045040039345622">
        <ele>276.60000000000002</ele>
        <time>2018-05-18T10:45:23Z</time>
      </trkpt>
      <trkpt lat="42.963419985026121" lon="-9.044781038537622">
        <ele>275.80000000000001</ele>
        <time>2018-05-18T10:45:30Z</time>
      </trkpt>
      <trkpt lat="42.963298028334975" lon="-9.044567970559001">
        <ele>275.30000000000001</ele>
        <time>2018-05-18T10:45:36Z</time>
      </trkpt>
      <trkpt lat="42.963195014744997" lon="-9.044440984725952">
        <ele>273.89999999999998</ele>
        <time>2018-05-18T10:45:40Z</time>
      </trkpt>
      <trkpt lat="42.963039027526975" lon="-9.044432016089559">
        <ele>270.60000000000002</ele>
        <time>2018-05-18T10:45:45Z</time>
      </trkpt>
      <trkpt lat="42.963038021698594" lon="-9.044431010261178">
        <ele>270.60000000000002</ele>
        <time>2018-05-18T10:45:45Z</time>
      </trkpt>
      <trkpt lat="42.963031986728311" lon="-9.044433021917939">
        <ele>270.5</ele>
        <time>2018-05-18T10:45:45Z</time>
      </trkpt>
      <trkpt lat="42.962935008108616" lon="-9.044302012771368">
        <ele>270.10000000000002</ele>
        <time>2018-05-18T10:45:49Z</time>
      </trkpt>
      <trkpt lat="42.962863007560372" lon="-9.044106965884566">
        <ele>271.5</ele>
        <time>2018-05-18T10:45:54Z</time>
      </trkpt>
      <trkpt lat="42.962915981188416" lon="-9.04396397061646">
        <ele>274.19999999999999</ele>
        <time>2018-05-18T10:45:58Z</time>
      </trkpt>
      <trkpt lat="42.963118990883231" lon="-9.043961958959699">
        <ele>277.10000000000002</ele>
        <time>2018-05-18T10:46:04Z</time>
      </trkpt>
      <trkpt lat="42.963274978101254" lon="-9.043933963403106">
        <ele>279.5</ele>
        <time>2018-05-18T10:46:08Z</time>
      </trkpt>
      <trkpt lat="42.963526016101241" lon="-9.043841008096933">
        <ele>283.30000000000001</ele>
        <time>2018-05-18T10:46:16Z</time>
      </trkpt>
      <trkpt lat="42.963766995817423" lon="-9.043836984783411">
        <ele>285.89999999999998</ele>
        <time>2018-05-18T10:46:23Z</time>
      </trkpt>
      <trkpt lat="42.964008981361985" lon="-9.043818963691592">
        <ele>284.30000000000001</ele>
        <time>2018-05-18T10:46:30Z</time>
      </trkpt>
      <trkpt lat="42.964367978274822" lon="-9.043682003393769">
        <ele>281.5</ele>
        <time>2018-05-18T10:46:42Z</time>
      </trkpt>
      <trkpt lat="42.964629996567965" lon="-9.043545965105295">
        <ele>279.5</ele>
        <time>2018-05-18T10:46:50Z</time>
      </trkpt>
      <trkpt lat="42.964914981275797" lon="-9.043376985937357">
        <ele>276.19999999999999</ele>
        <time>2018-05-18T10:46:59Z</time>
      </trkpt>
      <trkpt lat="42.965211030095816" lon="-9.043255029246211">
        <ele>272.89999999999998</ele>
        <time>2018-05-18T10:47:08Z</time>
      </trkpt>
      <trkpt lat="42.965445974841714" lon="-9.043185962364078">
        <ele>270.5</ele>
        <time>2018-05-18T10:47:15Z</time>
      </trkpt>
      <trkpt lat="42.965556029230356" lon="-9.043227033689618">
        <ele>270</ele>
        <time>2018-05-18T10:47:19Z</time>
      </trkpt>
      <trkpt lat="42.965577989816666" lon="-9.04321001842618">
        <ele>269.89999999999998</ele>
        <time>2018-05-18T10:47:19Z</time>
      </trkpt>
      <trkpt lat="42.965599028393626" lon="-9.043198032304645">
        <ele>269.80000000000001</ele>
        <time>2018-05-18T10:47:20Z</time>
      </trkpt>
      <trkpt lat="42.965676980093122" lon="-9.043084960430861">
        <ele>269.5</ele>
        <time>2018-05-18T10:47:24Z</time>
      </trkpt>
      <trkpt lat="42.965764990076423" lon="-9.042978007346392">
        <ele>269.30000000000001</ele>
        <time>2018-05-18T10:47:27Z</time>
      </trkpt>
      <trkpt lat="42.965875966474414" lon="-9.042891003191471">
        <ele>268.69999999999999</ele>
        <time>2018-05-18T10:47:31Z</time>
      </trkpt>
      <trkpt lat="42.965932041406631" lon="-9.042839035391808">
        <ele>268.30000000000001</ele>
        <time>2018-05-18T10:47:33Z</time>
      </trkpt>
      <trkpt lat="42.965960036963224" lon="-9.042793018743396">
        <ele>268.10000000000002</ele>
        <time>2018-05-18T10:47:34Z</time>
      </trkpt>
      <trkpt lat="42.96601502224803" lon="-9.042728981003165">
        <ele>267.69999999999999</ele>
        <time>2018-05-18T10:47:36Z</time>
      </trkpt>
      <trkpt lat="42.966082999482751" lon="-9.042662009596825">
        <ele>267.30000000000001</ele>
        <time>2018-05-18T10:47:39Z</time>
      </trkpt>
      <trkpt lat="42.966147037222981" lon="-9.042624961584806">
        <ele>267</ele>
        <time>2018-05-18T10:47:41Z</time>
      </trkpt>
      <trkpt lat="42.966151982545853" lon="-9.042619010433555">
        <ele>267</ele>
        <time>2018-05-18T10:47:41Z</time>
      </trkpt>
      <trkpt lat="42.966208979487419" lon="-9.042575005441904">
        <ele>266.69999999999999</ele>
        <time>2018-05-18T10:47:43Z</time>
      </trkpt>
      <trkpt lat="42.96633998863399" lon="-9.042512979358435">
        <ele>266.19999999999999</ele>
        <time>2018-05-18T10:47:47Z</time>
      </trkpt>
      <trkpt lat="42.966361027210951" lon="-9.042472997680306">
        <ele>266.10000000000002</ele>
        <time>2018-05-18T10:47:48Z</time>
      </trkpt>
      <trkpt lat="42.966449959203601" lon="-9.042365960776806">
        <ele>265.80000000000001</ele>
        <time>2018-05-18T10:47:52Z</time>
      </trkpt>
      <trkpt lat="42.966631008312106" lon="-9.04228700324893">
        <ele>265.19999999999999</ele>
        <time>2018-05-18T10:47:57Z</time>
      </trkpt>
      <trkpt lat="42.966835023835301" lon="-9.042251966893673">
        <ele>264.69999999999999</ele>
        <time>2018-05-18T10:48:03Z</time>
      </trkpt>
      <trkpt lat="42.966976007446647" lon="-9.04228700324893">
        <ele>264.30000000000001</ele>
        <time>2018-05-18T10:48:08Z</time>
      </trkpt>
      <trkpt lat="42.967119002714753" lon="-9.042271999642253">
        <ele>264.10000000000002</ele>
        <time>2018-05-18T10:48:12Z</time>
      </trkpt>
      <trkpt lat="42.967162001878023" lon="-9.042308041825891">
        <ele>264.19999999999999</ele>
        <time>2018-05-18T10:48:13Z</time>
      </trkpt>
      <trkpt lat="42.967162001878023" lon="-9.042308041825891">
        <ele>264.19999999999999</ele>
        <time>2018-05-18T10:48:13Z</time>
      </trkpt>
      <trkpt lat="42.967179017141461" lon="-9.042336037382484">
        <ele>264.30000000000001</ele>
        <time>2018-05-18T10:48:14Z</time>
      </trkpt>
      <trkpt lat="42.967194020748138" lon="-9.042336959391832">
        <ele>264.30000000000001</ele>
        <time>2018-05-18T10:48:14Z</time>
      </trkpt>
      <trkpt lat="42.967206006869674" lon="-9.042325979098678">
        <ele>264.39999999999998</ele>
        <time>2018-05-18T10:48:15Z</time>
      </trkpt>
      <trkpt lat="42.967207012698054" lon="-9.042290020734072">
        <ele>264.30000000000001</ele>
        <time>2018-05-18T10:48:16Z</time>
      </trkpt>
      <trkpt lat="42.967154961079359" lon="-9.042121963575482">
        <ele>264.10000000000002</ele>
        <time>2018-05-18T10:48:20Z</time>
      </trkpt>
      <trkpt lat="42.966821026057005" lon="-9.041334986686707">
        <ele>263.80000000000001</ele>
        <time>2018-05-18T10:48:39Z</time>
      </trkpt>
      <trkpt lat="42.966781966388226" lon="-9.041229039430618">
        <ele>263.80000000000001</ele>
        <time>2018-05-18T10:48:42Z</time>
      </trkpt>
      <trkpt lat="42.96670300886035" lon="-9.040925027802587">
        <ele>265.19999999999999</ele>
        <time>2018-05-18T10:48:49Z</time>
      </trkpt>
      <trkpt lat="42.966542998328805" lon="-9.040410965681076">
        <ele>266.80000000000001</ele>
        <time>2018-05-19T06:00:00Z</time>
      </trkpt>
      <trkpt lat="42.966699991375208" lon="-9.039328023791313">
        <ele>272.30000000000001</ele>
        <time>2018-05-19T06:00:23Z</time>
      </trkpt>
      <trkpt lat="42.966770986095071" lon="-9.038402996957302">
        <ele>272.39999999999998</ele>
        <time>2018-05-19T06:00:44Z</time>
      </trkpt>
      <trkpt lat="42.96676897443831" lon="-9.038332002237439">
        <ele>272.30000000000001</ele>
        <time>2018-05-19T06:00:45Z</time>
      </trkpt>
      <trkpt lat="42.966619022190571" lon="-9.037106987088919">
        <ele>271.19999999999999</ele>
        <time>2018-05-19T06:01:12Z</time>
      </trkpt>
      <trkpt lat="42.96657401137054" lon="-9.035893036052585">
        <ele>272.80000000000001</ele>
        <time>2018-05-19T06:01:38Z</time>
      </trkpt>
      <trkpt lat="42.96672597527504" lon="-9.035071022808552">
        <ele>274.89999999999998</ele>
        <time>2018-05-19T06:01:57Z</time>
      </trkpt>
      <trkpt lat="42.966291038319468" lon="-9.034019010141492">
        <ele>275.60000000000002</ele>
        <time>2018-05-19T06:02:23Z</time>
      </trkpt>
      <trkpt lat="42.96584595926106" lon="-9.033030029386282">
        <ele>276</ele>
        <time>2018-05-19T06:02:48Z</time>
      </trkpt>
      <trkpt lat="42.965583018958569" lon="-9.032428963109851">
        <ele>275.5</ele>
        <time>2018-05-19T06:03:03Z</time>
      </trkpt>
      <trkpt lat="42.965504983440042" lon="-9.032226959243417">
        <ele>275.19999999999999</ele>
        <time>2018-05-19T06:03:08Z</time>
      </trkpt>
      <trkpt lat="42.965418985113502" lon="-9.031852958723903">
        <ele>274.39999999999998</ele>
        <time>2018-05-19T06:03:17Z</time>
      </trkpt>
      <trkpt lat="42.96530800871551" lon="-9.031487004831433">
        <ele>273.10000000000002</ele>
        <time>2018-05-19T06:03:25Z</time>
      </trkpt>
      <trkpt lat="42.96520097181201" lon="-9.031091965734959">
        <ele>270.89999999999998</ele>
        <time>2018-05-19T06:03:34Z</time>
      </trkpt>
      <trkpt lat="42.965096030384302" lon="-9.030679995194078">
        <ele>267.89999999999998</ele>
        <time>2018-05-19T06:03:44Z</time>
      </trkpt>
      <trkpt lat="42.965078009292483" lon="-9.030597014352679">
        <ele>267.30000000000001</ele>
        <time>2018-05-19T06:03:46Z</time>
      </trkpt>
      <trkpt lat="42.964912969619036" lon="-9.029957978054881">
        <ele>263.39999999999998</ele>
        <time>2018-05-19T06:04:00Z</time>
      </trkpt>
      <trkpt lat="42.964648017659783" lon="-9.028316969051957">
        <ele>261.30000000000001</ele>
        <time>2018-05-19T06:04:37Z</time>
      </trkpt>
      <trkpt lat="42.964530000463128" lon="-9.027529992163181">
        <ele>264</ele>
        <time>2018-05-19T06:04:54Z</time>
      </trkpt>
      <trkpt lat="42.964559001848102" lon="-9.026659028604627">
        <ele>264.60000000000002</ele>
        <time>2018-05-19T06:05:13Z</time>
      </trkpt>
      <trkpt lat="42.964701997116208" lon="-9.02469196356833">
        <ele>262.89999999999998</ele>
        <time>2018-05-19T06:05:56Z</time>
      </trkpt>
      <trkpt lat="42.964824037626386" lon="-9.023065036162734">
        <ele>260.80000000000001</ele>
        <time>2018-05-19T06:06:31Z</time>
      </trkpt>
      <trkpt lat="42.964840969070792" lon="-9.021691996604204">
        <ele>260.10000000000002</ele>
        <time>2018-05-19T06:07:01Z</time>
      </trkpt>
      <trkpt lat="42.964651035144925" lon="-9.020670996978879">
        <ele>261.69999999999999</ele>
        <time>2018-05-19T06:07:24Z</time>
      </trkpt>
      <trkpt lat="42.964492030441761" lon="-9.01985895819962">
        <ele>263.5</ele>
        <time>2018-05-19T06:07:42Z</time>
      </trkpt>
      <trkpt lat="42.964479960501194" lon="-9.019822999835014">
        <ele>263.60000000000002</ele>
        <time>2018-05-19T06:07:43Z</time>
      </trkpt>
      <trkpt lat="42.964424975216389" lon="-9.019699031487107">
        <ele>263.69999999999999</ele>
        <time>2018-05-19T06:07:46Z</time>
      </trkpt>
      <trkpt lat="42.964370995759964" lon="-9.019600041210651">
        <ele>263.69999999999999</ele>
        <time>2018-05-19T06:07:49Z</time>
      </trkpt>
      <trkpt lat="42.964353980496526" lon="-9.019583025947213">
        <ele>263.60000000000002</ele>
        <time>2018-05-19T06:07:49Z</time>
      </trkpt>
      <trkpt lat="42.964145019650459" lon="-9.019398037344217">
        <ele>262.69999999999999</ele>
        <time>2018-05-19T06:07:57Z</time>
      </trkpt>
      <trkpt lat="42.963836984708905" lon="-9.019135013222694">
        <ele>260.69999999999999</ele>
        <time>2018-05-19T06:08:08Z</time>
      </trkpt>
      <trkpt lat="42.963233990594745" lon="-9.018597984686494">
        <ele>258.30000000000001</ele>
        <time>2018-05-19T06:08:29Z</time>
      </trkpt>
      <trkpt lat="42.963117985054851" lon="-9.018521960824728">
        <ele>257.89999999999998</ele>
        <time>2018-05-19T06:08:33Z</time>
      </trkpt>
      <trkpt lat="42.962759993970394" lon="-9.018473010510206">
        <ele>257</ele>
        <time>2018-05-19T06:08:43Z</time>
      </trkpt>
      <trkpt lat="42.962509961798787" lon="-9.01850201189518">
        <ele>256.30000000000001</ele>
        <time>2018-05-19T06:08:51Z</time>
      </trkpt>
      <trkpt lat="42.962507028132677" lon="-9.018500000238419">
        <ele>256.30000000000001</ele>
        <time>2018-05-19T06:08:51Z</time>
      </trkpt>
      <trkpt lat="42.962226988747716" lon="-9.018504023551941">
        <ele>255.59999999999999</ele>
        <time>2018-05-19T06:08:59Z</time>
      </trkpt>
      <trkpt lat="42.961918031796813" lon="-9.018182996660471">
        <ele>255.90000000000001</ele>
        <time>2018-05-19T06:09:11Z</time>
      </trkpt>
      <trkpt lat="42.96165500767529" lon="-9.017265010625124">
        <ele>260.10000000000002</ele>
        <time>2018-05-19T06:09:32Z</time>
      </trkpt>
      <trkpt lat="42.961471024900675" lon="-9.016711972653866">
        <ele>263.69999999999999</ele>
        <time>2018-05-19T06:09:45Z</time>
      </trkpt>
      <trkpt lat="42.961447974666953" lon="-9.016667967662215">
        <ele>264.10000000000002</ele>
        <time>2018-05-19T06:09:46Z</time>
      </trkpt>
      <trkpt lat="42.961574960500002" lon="-9.016046030446887">
        <ele>263.80000000000001</ele>
        <time>2018-05-19T06:10:00Z</time>
      </trkpt>
      <trkpt lat="42.961737988516688" lon="-9.014949006959796">
        <ele>261.39999999999998</ele>
        <time>2018-05-19T06:10:25Z</time>
      </trkpt>
      <trkpt lat="42.961744023486972" lon="-9.01386103592813">
        <ele>261.10000000000002</ele>
        <time>2018-05-19T06:10:48Z</time>
      </trkpt>
      <trkpt lat="42.961675962433219" lon="-9.012631997466087">
        <ele>259.30000000000001</ele>
        <time>2018-05-19T06:11:15Z</time>
      </trkpt>
      <trkpt lat="42.961641009896994" lon="-9.011669000610709">
        <ele>259.30000000000001</ele>
        <time>2018-05-19T06:11:36Z</time>
      </trkpt>
      <trkpt lat="42.961651990190148" lon="-9.010148020461202">
        <ele>259.69999999999999</ele>
        <time>2018-05-19T06:12:09Z</time>
      </trkpt>
      <trkpt lat="42.96169800683856" lon="-9.008670039474964">
        <ele>260.10000000000002</ele>
        <time>2018-05-19T06:12:41Z</time>
      </trkpt>
      <trkpt lat="42.961699012666941" lon="-9.008600972592831">
        <ele>260.10000000000002</ele>
        <time>2018-05-19T06:12:42Z</time>
      </trkpt>
      <trkpt lat="42.961732959374785" lon="-9.007904017344117">
        <ele>260.60000000000002</ele>
        <time>2018-05-19T06:12:57Z</time>
      </trkpt>
      <trkpt lat="42.961786016821861" lon="-9.006758965551853">
        <ele>264.39999999999998</ele>
        <time>2018-05-19T06:13:22Z</time>
      </trkpt>
      <trkpt lat="42.961810994893312" lon="-9.006263008341193">
        <ele>265.60000000000002</ele>
        <time>2018-05-19T06:13:33Z</time>
      </trkpt>
      <trkpt lat="42.961833039298654" lon="-9.00576202198863">
        <ele>266.89999999999998</ele>
        <time>2018-05-19T06:13:44Z</time>
      </trkpt>
      <trkpt lat="42.961839996278286" lon="-9.00563302449882">
        <ele>267.19999999999999</ele>
        <time>2018-05-19T06:13:47Z</time>
      </trkpt>
      <trkpt lat="42.961867991834879" lon="-9.004979990422726">
        <ele>269.30000000000001</ele>
        <time>2018-05-19T06:14:01Z</time>
      </trkpt>
      <trkpt lat="42.96189003624022" lon="-9.004605989903212">
        <ele>270.69999999999999</ele>
        <time>2018-05-19T06:14:09Z</time>
      </trkpt>
      <trkpt lat="42.961899004876614" lon="-9.004491996020079">
        <ele>271.5</ele>
        <time>2018-05-19T06:14:11Z</time>
      </trkpt>
      <trkpt lat="42.961903028190136" lon="-9.004384037107229">
        <ele>272.39999999999998</ele>
        <time>2018-05-19T06:14:14Z</time>
      </trkpt>
      <trkpt lat="42.961894981563091" lon="-9.004282029345632">
        <ele>273.30000000000001</ele>
        <time>2018-05-19T06:14:16Z</time>
      </trkpt>
      <trkpt lat="42.961867991834879" lon="-9.004187984392047">
        <ele>273.89999999999998</ele>
        <time>2018-05-19T06:14:18Z</time>
      </trkpt>
      <trkpt lat="42.961779981851578" lon="-9.004014981910586">
        <ele>274.80000000000001</ele>
        <time>2018-05-19T06:14:23Z</time>
      </trkpt>
      <trkpt lat="42.96159197576344" lon="-9.003690015524626">
        <ele>276.19999999999999</ele>
        <time>2018-05-19T06:14:32Z</time>
      </trkpt>
      <trkpt lat="42.961320988833904" lon="-9.003278966993094">
        <ele>278.30000000000001</ele>
        <time>2018-05-19T06:14:44Z</time>
      </trkpt>
      <trkpt lat="42.961120996624231" lon="-9.002986019477248">
        <ele>279.10000000000002</ele>
        <time>2018-05-19T06:14:52Z</time>
      </trkpt>
      <trkpt lat="42.960914969444275" lon="-9.002588968724012">
        <ele>282.30000000000001</ele>
        <time>2018-05-19T06:15:03Z</time>
      </trkpt>
      <trkpt lat="42.960642976686358" lon="-9.002112960442901">
        <ele>286.5</ele>
        <time>2018-05-19T06:15:16Z</time>
      </trkpt>
      <trkpt lat="42.960385987535119" lon="-9.001633012667298">
        <ele>289</ele>
        <time>2018-05-19T06:15:29Z</time>
      </trkpt>
      <trkpt lat="42.960135033354163" lon="-9.001154992729425">
        <ele>290.5</ele>
        <time>2018-05-19T06:15:42Z</time>
      </trkpt>
      <trkpt lat="42.959910985082388" lon="-9.000665992498398">
        <ele>291.5</ele>
        <time>2018-05-19T06:15:54Z</time>
      </trkpt>
      <trkpt lat="42.959652990102768" lon="-8.999956967309117">
        <ele>294.19999999999999</ele>
        <time>2018-05-19T06:16:11Z</time>
      </trkpt>
      <trkpt lat="42.959492979571223" lon="-8.999307034537196">
        <ele>299.69999999999999</ele>
        <time>2018-05-19T06:16:26Z</time>
      </trkpt>
      <trkpt lat="42.959359036758542" lon="-8.998766988515854">
        <ele>305.60000000000002</ele>
        <time>2018-05-19T06:16:39Z</time>
      </trkpt>
      <trkpt lat="42.959322994574904" lon="-8.998640002682805">
        <ele>306.69999999999999</ele>
        <time>2018-05-19T06:16:42Z</time>
      </trkpt>
      <trkpt lat="42.959287036210299" lon="-8.99852198548615">
        <ele>307.60000000000002</ele>
        <time>2018-05-19T06:16:45Z</time>
      </trkpt>
      <trkpt lat="42.959245964884758" lon="-8.99841302074492">
        <ele>308.39999999999998</ele>
        <time>2018-05-19T06:16:47Z</time>
      </trkpt>
      <trkpt lat="42.959199026226997" lon="-8.998315036296845">
        <ele>309</ele>
        <time>2018-05-19T06:16:50Z</time>
      </trkpt>
      <trkpt lat="42.959143035113811" lon="-8.998225014656782">
        <ele>309.39999999999998</ele>
        <time>2018-05-19T06:16:52Z</time>
      </trkpt>
      <trkpt lat="42.958747996017337" lon="-8.997786976397038">
        <ele>310.39999999999998</ele>
        <time>2018-05-19T06:17:07Z</time>
      </trkpt>
      <trkpt lat="42.958440966904163" lon="-8.997465027496219">
        <ele>313.10000000000002</ele>
        <time>2018-05-19T06:17:19Z</time>
      </trkpt>
      <trkpt lat="42.958386987447739" lon="-8.997405013069511">
        <ele>313.69999999999999</ele>
        <time>2018-05-19T06:17:21Z</time>
      </trkpt>
      <trkpt lat="42.958026984706521" lon="-8.997031012549996">
        <ele>316.69999999999999</ele>
        <time>2018-05-19T06:17:34Z</time>
      </trkpt>
      <trkpt lat="42.957823975011706" lon="-8.996818028390408">
        <ele>317.39999999999998</ele>
        <time>2018-05-19T06:17:42Z</time>
      </trkpt>
      <trkpt lat="42.957328017801046" lon="-8.996248980984092">
        <ele>316.60000000000002</ele>
        <time>2018-05-19T06:18:01Z</time>
      </trkpt>
      <trkpt lat="42.957301028072834" lon="-8.996203970164061">
        <ele>316.39999999999998</ele>
        <time>2018-05-19T06:18:02Z</time>
      </trkpt>
      <trkpt lat="42.957276972010732" lon="-8.996156025677919">
        <ele>316.30000000000001</ele>
        <time>2018-05-19T06:18:04Z</time>
      </trkpt>
      <trkpt lat="42.957265991717577" lon="-8.996098022907972">
        <ele>316.19999999999999</ele>
        <time>2018-05-19T06:18:05Z</time>
      </trkpt>
      <trkpt lat="42.957274038344622" lon="-8.995975982397795">
        <ele>316.5</ele>
        <time>2018-05-19T06:18:08Z</time>
      </trkpt>
      <trkpt lat="42.957286024466157" lon="-8.995915967971087">
        <ele>316.80000000000001</ele>
        <time>2018-05-19T06:18:09Z</time>
      </trkpt>
      <trkpt lat="42.957322988659143" lon="-8.995809014886618">
        <ele>317.39999999999998</ele>
        <time>2018-05-19T06:18:11Z</time>
      </trkpt>
      <trkpt lat="42.957651978358626" lon="-8.995158998295665">
        <ele>321.5</ele>
        <time>2018-05-19T06:18:29Z</time>
      </trkpt>
      <trkpt lat="42.958227982744575" lon="-8.994493978098035">
        <ele>325.19999999999999</ele>
        <time>2018-05-19T06:18:51Z</time>
      </trkpt>
      <trkpt lat="42.958951005712152" lon="-8.993971031159163">
        <ele>327</ele>
        <time>2018-05-19T06:19:15Z</time>
      </trkpt>
      <trkpt lat="42.959089977666736" lon="-8.993675988167524">
        <ele>325.80000000000001</ele>
        <time>2018-05-19T06:19:23Z</time>
      </trkpt>
      <trkpt lat="42.958752019330859" lon="-8.992604026570916">
        <ele>320</ele>
        <time>2018-05-19T06:19:48Z</time>
      </trkpt>
      <trkpt lat="42.958405008539557" lon="-8.991545978933573">
        <ele>319</ele>
        <time>2018-05-19T06:20:13Z</time>
      </trkpt>
      <trkpt lat="42.958188001066446" lon="-8.99093896150589">
        <ele>320.80000000000001</ele>
        <time>2018-05-19T06:20:28Z</time>
      </trkpt>
      <trkpt lat="42.95849503017962" lon="-8.990178974345326">
        <ele>321.80000000000001</ele>
        <time>2018-05-19T06:20:47Z</time>
      </trkpt>
      <trkpt lat="42.958836006000638" lon="-8.989604981616139">
        <ele>321.5</ele>
        <time>2018-05-19T06:21:03Z</time>
      </trkpt>
      <trkpt lat="42.959230039268732" lon="-8.988945996388793">
        <ele>320</ele>
        <time>2018-05-19T06:21:21Z</time>
      </trkpt>
      <trkpt lat="42.959436988458037" lon="-8.988516004756093">
        <ele>318.5</ele>
        <time>2018-05-19T06:21:32Z</time>
      </trkpt>
      <trkpt lat="42.959609990939498" lon="-8.987734979018569">
        <ele>316.39999999999998</ele>
        <time>2018-05-19T06:21:50Z</time>
      </trkpt>
      <trkpt lat="42.959634969010949" lon="-8.987651998177171">
        <ele>316.10000000000002</ele>
        <time>2018-05-19T06:21:52Z</time>
      </trkpt>
      <trkpt lat="42.959661958739161" lon="-8.987570023164153">
        <ele>315.80000000000001</ele>
        <time>2018-05-19T06:21:54Z</time>
      </trkpt>
      <trkpt lat="42.959692971780896" lon="-8.987492993474007">
        <ele>315.5</ele>
        <time>2018-05-19T06:21:56Z</time>
      </trkpt>
      <trkpt lat="42.959728008136153" lon="-8.987424010410905">
        <ele>315.19999999999999</ele>
        <time>2018-05-19T06:21:58Z</time>
      </trkpt>
      <trkpt lat="42.959763966500759" lon="-8.987361984327436">
        <ele>314.89999999999998</ele>
        <time>2018-05-19T06:21:59Z</time>
      </trkpt>
      <trkpt lat="42.959799002856016" lon="-8.98730599321425">
        <ele>314.60000000000002</ele>
        <time>2018-05-19T06:22:01Z</time>
      </trkpt>
      <trkpt lat="42.959963036701083" lon="-8.987141037359834">
        <ele>313.69999999999999</ele>
        <time>2018-05-19T06:22:07Z</time>
      </trkpt>
      <trkpt lat="42.960006035864353" lon="-8.987109018489718">
        <ele>313.5</ele>
        <time>2018-05-19T06:22:08Z</time>
      </trkpt>
      <trkpt lat="42.960574999451637" lon="-8.986857980489731">
        <ele>313</ele>
        <time>2018-05-19T06:22:26Z</time>
      </trkpt>
      <trkpt lat="42.960596960037947" lon="-8.986851023510099">
        <ele>313</ele>
        <time>2018-05-19T06:22:27Z</time>
      </trkpt>
      <trkpt lat="42.96062302775681" lon="-8.986842976883054">
        <ele>312.89999999999998</ele>
        <time>2018-05-19T06:22:27Z</time>
      </trkpt>
      <trkpt lat="42.960650017485023" lon="-8.986828979104757">
        <ele>313</ele>
        <time>2018-05-19T06:22:28Z</time>
      </trkpt>
      <trkpt lat="42.960682036355138" lon="-8.986814981326461">
        <ele>313</ele>
        <time>2018-05-19T06:22:29Z</time>
      </trkpt>
      <trkpt lat="42.960713971406221" lon="-8.986802995204926">
        <ele>313</ele>
        <time>2018-05-19T06:22:30Z</time>
      </trkpt>
      <trkpt lat="42.96075101941824" lon="-8.986797966063023">
        <ele>312.89999999999998</ele>
        <time>2018-05-19T06:22:31Z</time>
      </trkpt>
      <trkpt lat="42.960796030238271" lon="-8.986799977719784">
        <ele>312.80000000000001</ele>
        <time>2018-05-19T06:22:33Z</time>
      </trkpt>
      <trkpt lat="42.960841041058302" lon="-8.986807018518448">
        <ele>312.60000000000002</ele>
        <time>2018-05-19T06:22:34Z</time>
      </trkpt>
      <trkpt lat="42.960944976657629" lon="-8.986839959397912">
        <ele>312.19999999999999</ele>
        <time>2018-05-19T06:22:37Z</time>
      </trkpt>
      <trkpt lat="42.960999961942434" lon="-8.986862003803253">
        <ele>311.89999999999998</ele>
        <time>2018-05-19T06:22:39Z</time>
      </trkpt>
      <trkpt lat="42.961059976369143" lon="-8.986881030723453">
        <ele>311.69999999999999</ele>
        <time>2018-05-19T06:22:41Z</time>
      </trkpt>
      <trkpt lat="42.961125019937754" lon="-8.986886981874704">
        <ele>311.5</ele>
        <time>2018-05-19T06:22:43Z</time>
      </trkpt>
      <trkpt lat="42.961186962202191" lon="-8.986895028501749">
        <ele>311.30000000000001</ele>
        <time>2018-05-19T06:22:45Z</time>
      </trkpt>
      <trkpt lat="42.961252005770802" lon="-8.986891005188227">
        <ele>311.19999999999999</ele>
        <time>2018-05-19T06:22:46Z</time>
      </trkpt>
      <trkpt lat="42.961517963558435" lon="-8.986798971891403">
        <ele>311.30000000000001</ele>
        <time>2018-05-19T06:22:55Z</time>
      </trkpt>
      <trkpt lat="42.962489007040858" lon="-8.986212993040681">
        <ele>311.80000000000001</ele>
        <time>2018-05-19T06:23:26Z</time>
      </trkpt>
      <trkpt lat="42.962566958740354" lon="-8.986149039119482">
        <ele>312</ele>
        <time>2018-05-19T06:23:29Z</time>
      </trkpt>
      <trkpt lat="42.962641976773739" lon="-8.986077960580587">
        <ele>312.19999999999999</ele>
        <time>2018-05-19T06:23:31Z</time>
      </trkpt>
      <trkpt lat="42.962710037827492" lon="-8.986002020537853">
        <ele>312.5</ele>
        <time>2018-05-19T06:23:34Z</time>
      </trkpt>
      <trkpt lat="42.962770974263549" lon="-8.985921973362565">
        <ele>312.89999999999998</ele>
        <time>2018-05-19T06:23:37Z</time>
      </trkpt>
      <trkpt lat="42.962828977033496" lon="-8.985835975036025">
        <ele>313.30000000000001</ele>
        <time>2018-05-19T06:23:39Z</time>
      </trkpt>
      <trkpt lat="42.96287901699543" lon="-8.985746037214994">
        <ele>313.80000000000001</ele>
        <time>2018-05-19T06:23:41Z</time>
      </trkpt>
      <trkpt lat="42.962912963703275" lon="-8.98565299808979">
        <ele>314.30000000000001</ele>
        <time>2018-05-19T06:23:44Z</time>
      </trkpt>
      <trkpt lat="42.962935008108616" lon="-8.985560964792967">
        <ele>314.89999999999998</ele>
        <time>2018-05-19T06:23:46Z</time>
      </trkpt>
      <trkpt lat="42.962941965088248" lon="-8.985470021143556">
        <ele>315.5</ele>
        <time>2018-05-19T06:23:48Z</time>
      </trkpt>
      <trkpt lat="42.962936013936996" lon="-8.985384022817016">
        <ele>316.19999999999999</ele>
        <time>2018-05-19T06:23:50Z</time>
      </trkpt>
      <trkpt lat="42.962925033643842" lon="-8.985302969813347">
        <ele>316.89999999999998</ele>
        <time>2018-05-19T06:23:52Z</time>
      </trkpt>
      <trkpt lat="42.962909024208784" lon="-8.985225018113852">
        <ele>317.60000000000002</ele>
        <time>2018-05-19T06:23:53Z</time>
      </trkpt>
      <trkpt lat="42.962738033384085" lon="-8.984716990962625">
        <ele>322.30000000000001</ele>
        <time>2018-05-19T06:24:05Z</time>
      </trkpt>
      <trkpt lat="42.962726969271898" lon="-8.984709028154612">
        <ele>322.39999999999998</ele>
        <time>2018-05-19T06:24:06Z</time>
      </trkpt>
      <trkpt lat="42.962721018120646" lon="-8.984696036204696">
        <ele>322.60000000000002</ele>
        <time>2018-05-19T06:24:06Z</time>
      </trkpt>
      <trkpt lat="42.962740967050195" lon="-8.98464297875762">
        <ele>322.89999999999998</ele>
        <time>2018-05-19T06:24:07Z</time>
      </trkpt>
      <trkpt lat="42.962742978706956" lon="-8.984102010726929">
        <ele>326.5</ele>
        <time>2018-05-19T06:24:19Z</time>
      </trkpt>
      <trkpt lat="42.962730992585421" lon="-8.983986005187035">
        <ele>327.30000000000001</ele>
        <time>2018-05-19T06:24:22Z</time>
      </trkpt>
      <trkpt lat="42.962953029200435" lon="-8.983774026855826">
        <ele>327.60000000000002</ele>
        <time>2018-05-19T06:24:30Z</time>
      </trkpt>
      <trkpt lat="42.963343961164355" lon="-8.9833730366081">
        <ele>326.89999999999998</ele>
        <time>2018-05-19T06:24:44Z</time>
      </trkpt>
      <trkpt lat="42.963529033586383" lon="-8.983164997771382">
        <ele>326.30000000000001</ele>
        <time>2018-05-19T06:24:51Z</time>
      </trkpt>
      <trkpt lat="42.963692983612418" lon="-8.982974980026484">
        <ele>325.39999999999998</ele>
        <time>2018-05-19T06:24:58Z</time>
      </trkpt>
      <trkpt lat="42.963963970541954" lon="-8.982366034761071">
        <ele>325.39999999999998</ele>
        <time>2018-05-19T06:25:13Z</time>
      </trkpt>
      <trkpt lat="42.964324979111552" lon="-8.981316033750773">
        <ele>323.30000000000001</ele>
        <time>2018-05-19T06:25:38Z</time>
      </trkpt>
      <trkpt lat="42.964712977409363" lon="-8.98023602552712">
        <ele>322.30000000000001</ele>
        <time>2018-05-19T06:26:04Z</time>
      </trkpt>
      <trkpt lat="42.96506904065609" lon="-8.979606963694096">
        <ele>319</ele>
        <time>2018-05-19T06:26:22Z</time>
      </trkpt>
      <trkpt lat="42.965568015351892" lon="-8.979001035913825">
        <ele>315.69999999999999</ele>
        <time>2018-05-19T06:26:41Z</time>
      </trkpt>
      <trkpt lat="42.965604979544878" lon="-8.978935992345214">
        <ele>315.80000000000001</ele>
        <time>2018-05-19T06:26:43Z</time>
      </trkpt>
      <trkpt lat="42.965892981737852" lon="-8.978039966896176">
        <ele>316.10000000000002</ele>
        <time>2018-05-19T06:27:04Z</time>
      </trkpt>
      <trkpt lat="42.965913014486432" lon="-8.977934019640088">
        <ele>316.19999999999999</ele>
        <time>2018-05-19T06:27:07Z</time>
      </trkpt>
      <trkpt lat="42.96593296341598" lon="-8.977712988853455">
        <ele>316.69999999999999</ele>
        <time>2018-05-19T06:27:12Z</time>
      </trkpt>
      <trkpt lat="42.96597202308476" lon="-8.976948978379369">
        <ele>318.69999999999999</ele>
        <time>2018-05-19T06:27:28Z</time>
      </trkpt>
      <trkpt lat="42.965980991721153" lon="-8.976865997537971">
        <ele>318.89999999999998</ele>
        <time>2018-05-19T06:27:30Z</time>
      </trkpt>
      <trkpt lat="42.965987026691437" lon="-8.976783016696572">
        <ele>319.10000000000002</ele>
        <time>2018-05-19T06:27:32Z</time>
      </trkpt>
      <trkpt lat="42.965988032519817" lon="-8.976702969521284">
        <ele>319.39999999999998</ele>
        <time>2018-05-19T06:27:33Z</time>
      </trkpt>
      <trkpt lat="42.965983003377914" lon="-8.976622000336647">
        <ele>319.60000000000002</ele>
        <time>2018-05-19T06:27:35Z</time>
      </trkpt>
      <trkpt lat="42.965963976457715" lon="-8.97654396481812">
        <ele>319.89999999999998</ele>
        <time>2018-05-19T06:27:37Z</time>
      </trkpt>
      <trkpt lat="42.965907985344529" lon="-8.976393006742001">
        <ele>320.39999999999998</ele>
        <time>2018-05-19T06:27:41Z</time>
      </trkpt>
      <trkpt lat="42.965753003954887" lon="-8.97611296735704">
        <ele>321.69999999999999</ele>
        <time>2018-05-19T06:27:48Z</time>
      </trkpt>
      <trkpt lat="42.965642027556896" lon="-8.975893026217818">
        <ele>322.69999999999999</ele>
        <time>2018-05-19T06:27:54Z</time>
      </trkpt>
      <trkpt lat="42.965624006465077" lon="-8.975856984034181">
        <ele>322.80000000000001</ele>
        <time>2018-05-19T06:27:55Z</time>
      </trkpt>
      <trkpt lat="42.965615037828684" lon="-8.975824965164065">
        <ele>322.89999999999998</ele>
        <time>2018-05-19T06:27:56Z</time>
      </trkpt>
      <trkpt lat="42.965633980929852" lon="-8.975756987929344">
        <ele>323.10000000000002</ele>
        <time>2018-05-19T06:27:57Z</time>
      </trkpt>
      <trkpt lat="42.965642027556896" lon="-8.97574600763619">
        <ele>323.19999999999999</ele>
        <time>2018-05-19T06:27:58Z</time>
      </trkpt>
      <trkpt lat="42.96565200202167" lon="-8.975731004029512">
        <ele>323.19999999999999</ele>
        <time>2018-05-19T06:27:58Z</time>
      </trkpt>
      <trkpt lat="42.965658959001303" lon="-8.975716000422835">
        <ele>323.30000000000001</ele>
        <time>2018-05-19T06:27:58Z</time>
      </trkpt>
      <trkpt lat="42.965664993971586" lon="-8.975690016523004">
        <ele>323.30000000000001</ele>
        <time>2018-05-19T06:27:59Z</time>
      </trkpt>
      <trkpt lat="42.96567203477025" lon="-8.975657997652888">
        <ele>323.5</ele>
        <time>2018-05-19T06:28:00Z</time>
      </trkpt>
      <trkpt lat="42.965685026720166" lon="-8.975622039288282">
        <ele>323.60000000000002</ele>
        <time>2018-05-19T06:28:01Z</time>
      </trkpt>
      <trkpt lat="42.965711010619998" lon="-8.975579962134361">
        <ele>323.80000000000001</ele>
        <time>2018-05-19T06:28:02Z</time>
      </trkpt>
      <trkpt lat="42.965745963156223" lon="-8.975536040961742">
        <ele>323.89999999999998</ele>
        <time>2018-05-19T06:28:03Z</time>
      </trkpt>
      <trkpt lat="42.965793991461396" lon="-8.975496981292963">
        <ele>324.10000000000002</ele>
        <time>2018-05-19T06:28:05Z</time>
      </trkpt>
      <trkpt lat="42.96590899117291" lon="-8.975437972694635">
        <ele>324.5</ele>
        <time>2018-05-19T06:28:09Z</time>
      </trkpt>
      <trkpt lat="42.965966993942857" lon="-8.975407965481281">
        <ele>324.80000000000001</ele>
        <time>2018-05-19T06:28:10Z</time>
      </trkpt>
      <trkpt lat="42.966024996712804" lon="-8.975374018773437">
        <ele>325.30000000000001</ele>
        <time>2018-05-19T06:28:12Z</time>
      </trkpt>
      <trkpt lat="42.966179978102446" lon="-8.975232029333711">
        <ele>327.39999999999998</ele>
        <time>2018-05-19T06:28:18Z</time>
      </trkpt>
      <trkpt lat="42.966422969475389" lon="-8.974917959421873">
        <ele>331.19999999999999</ele>
        <time>2018-05-19T06:28:28Z</time>
      </trkpt>
      <trkpt lat="42.966700997203588" lon="-8.974584024399519">
        <ele>336</ele>
        <time>2018-05-19T06:28:39Z</time>
      </trkpt>
      <trkpt lat="42.966967038810253" lon="-8.974255034700036">
        <ele>339.5</ele>
        <time>2018-05-19T06:28:49Z</time>
      </trkpt>
      <trkpt lat="42.967055970802903" lon="-8.974111033603549">
        <ele>340.69999999999999</ele>
        <time>2018-05-19T06:28:54Z</time>
      </trkpt>
      <trkpt lat="42.967186979949474" lon="-8.973821019753814">
        <ele>342.69999999999999</ele>
        <time>2018-05-19T06:29:01Z</time>
      </trkpt>
      <trkpt lat="42.967213969677687" lon="-8.973750025033951">
        <ele>343.19999999999999</ele>
        <time>2018-05-19T06:29:03Z</time>
      </trkpt>
      <trkpt lat="42.96723903156817" lon="-8.973681963980198">
        <ele>344.10000000000002</ele>
        <time>2018-05-19T06:29:04Z</time>
      </trkpt>
      <trkpt lat="42.967257974669337" lon="-8.973614992573857">
        <ele>344.89999999999998</ele>
        <time>2018-05-19T06:29:06Z</time>
      </trkpt>
      <trkpt lat="42.967273984104395" lon="-8.973549026995897">
        <ele>345.80000000000001</ele>
        <time>2018-05-19T06:29:07Z</time>
      </trkpt>
      <trkpt lat="42.967257974669337" lon="-8.973240992054343">
        <ele>350.39999999999998</ele>
        <time>2018-05-19T06:29:14Z</time>
      </trkpt>
      <trkpt lat="42.967245988547802" lon="-8.97321199066937">
        <ele>350.89999999999998</ele>
        <time>2018-05-19T06:29:15Z</time>
      </trkpt>
      <trkpt lat="42.967143980786204" lon="-8.972915019840002">
        <ele>356.39999999999998</ele>
        <time>2018-05-19T06:29:22Z</time>
      </trkpt>
      <trkpt lat="42.96711296774447" lon="-8.97282600402832">
        <ele>358.10000000000002</ele>
        <time>2018-05-19T06:29:24Z</time>
      </trkpt>
      <trkpt lat="42.967087989673018" lon="-8.972731037065387">
        <ele>359.80000000000001</ele>
        <time>2018-05-19T06:29:27Z</time>
      </trkpt>
      <trkpt lat="42.967080026865005" lon="-8.972634980455041">
        <ele>361.39999999999998</ele>
        <time>2018-05-19T06:29:29Z</time>
      </trkpt>
      <trkpt lat="42.967099975794554" lon="-8.972540013492107">
        <ele>362.69999999999999</ele>
        <time>2018-05-19T06:29:31Z</time>
      </trkpt>
      <trkpt lat="42.967135012149811" lon="-8.972463989630342">
        <ele>363.39999999999998</ele>
        <time>2018-05-19T06:29:33Z</time>
      </trkpt>
      <trkpt lat="42.967183962464333" lon="-8.97239500656724">
        <ele>363.80000000000001</ele>
        <time>2018-05-19T06:29:35Z</time>
      </trkpt>
      <trkpt lat="42.967299968004227" lon="-8.97228897549212">
        <ele>363.89999999999998</ele>
        <time>2018-05-19T06:29:39Z</time>
      </trkpt>
      <trkpt lat="42.967364005744457" lon="-8.97224698215723">
        <ele>363.60000000000002</ele>
        <time>2018-05-19T06:29:41Z</time>
      </trkpt>
      <trkpt lat="42.967657959088683" lon="-8.972042966634035">
        <ele>362.39999999999998</ele>
        <time>2018-05-19T06:29:51Z</time>
      </trkpt>
      <trkpt lat="42.96782199293375" lon="-8.971930984407663">
        <ele>362</ele>
        <time>2018-05-19T06:29:56Z</time>
      </trkpt>
      <trkpt lat="42.968144025653601" lon="-8.971723029389978">
        <ele>363.5</ele>
        <time>2018-05-19T06:30:07Z</time>
      </trkpt>
      <trkpt lat="42.96818601898849" lon="-8.971698973327875">
        <ele>363.80000000000001</ele>
        <time>2018-05-19T06:30:08Z</time>
      </trkpt>
      <trkpt lat="42.968231029808521" lon="-8.971677012741566">
        <ele>364</ele>
        <time>2018-05-19T06:30:10Z</time>
      </trkpt>
      <trkpt lat="42.968309987336397" lon="-8.971610041335225">
        <ele>364.89999999999998</ele>
        <time>2018-05-19T06:30:12Z</time>
      </trkpt>
      <trkpt lat="42.968345023691654" lon="-8.971572993323207">
        <ele>365.39999999999998</ele>
        <time>2018-05-19T06:30:14Z</time>
      </trkpt>
      <trkpt lat="42.968405960127711" lon="-8.97145195864141">
        <ele>367.5</ele>
        <time>2018-05-19T06:30:17Z</time>
      </trkpt>
      <trkpt lat="42.968416018411517" lon="-8.971420023590326">
        <ele>368</ele>
        <time>2018-05-19T06:30:18Z</time>
      </trkpt>
      <trkpt lat="42.968424987047911" lon="-8.971400996670127">
        <ele>368.30000000000001</ele>
        <time>2018-05-19T06:30:18Z</time>
      </trkpt>
      <trkpt lat="42.968450970947742" lon="-8.971370989456773">
        <ele>368.80000000000001</ele>
        <time>2018-05-19T06:30:19Z</time>
      </trkpt>
      <trkpt lat="42.968451976776123" lon="-8.97136403247714">
        <ele>368.89999999999998</ele>
        <time>2018-05-19T06:30:19Z</time>
      </trkpt>
      <trkpt lat="42.968418030068278" lon="-8.971236040815711">
        <ele>371.39999999999998</ele>
        <time>2018-05-19T06:30:22Z</time>
      </trkpt>
      <trkpt lat="42.968323985114694" lon="-8.971009980887175">
        <ele>374.60000000000002</ele>
        <time>2018-05-19T06:30:28Z</time>
      </trkpt>
      <trkpt lat="42.9683150164783" lon="-8.971000006422401">
        <ele>374.80000000000001</ele>
        <time>2018-05-19T06:30:29Z</time>
      </trkpt>
      <trkpt lat="42.968302024528384" lon="-8.970989026129246">
        <ele>375</ele>
        <time>2018-05-19T06:30:29Z</time>
      </trkpt>
      <trkpt lat="42.968285009264946" lon="-8.970983996987343">
        <ele>375.19999999999999</ele>
        <time>2018-05-19T06:30:29Z</time>
      </trkpt>
      <trkpt lat="42.968258019536734" lon="-8.970969999209046">
        <ele>375.5</ele>
        <time>2018-05-19T06:30:30Z</time>
      </trkpt>
      <trkpt lat="42.968232035636902" lon="-8.970968993380666">
        <ele>375.69999999999999</ele>
        <time>2018-05-19T06:30:31Z</time>
      </trkpt>
      <trkpt lat="42.968224994838238" lon="-8.97095600143075">
        <ele>375.89999999999998</ele>
        <time>2018-05-19T06:30:31Z</time>
      </trkpt>
      <trkpt lat="42.96812198124826" lon="-8.970819041132927">
        <ele>378.60000000000002</ele>
        <time>2018-05-19T06:30:36Z</time>
      </trkpt>
      <trkpt lat="42.968105971813202" lon="-8.970800014212728">
        <ele>379</ele>
        <time>2018-05-19T06:30:36Z</time>
      </trkpt>
      <trkpt lat="42.968086022883654" lon="-8.970747962594032">
        <ele>380</ele>
        <time>2018-05-19T06:30:38Z</time>
      </trkpt>
      <trkpt lat="42.968011004850268" lon="-8.970636986196041">
        <ele>382.39999999999998</ele>
        <time>2018-05-19T06:30:41Z</time>
      </trkpt>
      <trkpt lat="42.967832973226905" lon="-8.970453003421426">
        <ele>387</ele>
        <time>2018-05-19T06:30:48Z</time>
      </trkpt>
      <trkpt lat="42.967518987134099" lon="-8.970153015106916">
        <ele>392</ele>
        <time>2018-05-19T06:30:59Z</time>
      </trkpt>
      <trkpt lat="42.967298040166497" lon="-8.969858977943659">
        <ele>396.80000000000001</ele>
        <time>2018-05-19T06:31:08Z</time>
      </trkpt>
      <trkpt lat="42.967255041003227" lon="-8.969793012365699">
        <ele>397.89999999999998</ele>
        <time>2018-05-19T06:31:10Z</time>
      </trkpt>
      <trkpt lat="42.967100981622934" lon="-8.969506016001105">
        <ele>402.19999999999999</ele>
        <time>2018-05-19T06:31:18Z</time>
      </trkpt>
      <trkpt lat="42.967068962752819" lon="-8.969447007402778">
        <ele>403.10000000000002</ele>
        <time>2018-05-19T06:31:20Z</time>
      </trkpt>
      <trkpt lat="42.96704700216651" lon="-8.969385987147689">
        <ele>403.80000000000001</ele>
        <time>2018-05-19T06:31:21Z</time>
      </trkpt>
      <trkpt lat="42.967001991346478" lon="-8.96915297023952">
        <ele>405.89999999999998</ele>
        <time>2018-05-19T06:31:26Z</time>
      </trkpt>
      <trkpt lat="42.966865031048656" lon="-8.968040021136403">
        <ele>412.39999999999998</ele>
        <time>2018-05-19T06:31:51Z</time>
      </trkpt>
      <trkpt lat="42.966740978881717" lon="-8.967740032821894">
        <ele>413.80000000000001</ele>
        <time>2018-05-19T06:31:58Z</time>
      </trkpt>
      <trkpt lat="42.966303024441004" lon="-8.966346038505435">
        <ele>414.39999999999998</ele>
        <time>2018-05-19T06:32:31Z</time>
      </trkpt>
      <trkpt lat="42.966127004474401" lon="-8.96565000526607">
        <ele>415.5</ele>
        <time>2018-05-19T06:32:47Z</time>
      </trkpt>
      <trkpt lat="42.96595199033618" lon="-8.965191012248397">
        <ele>418</ele>
        <time>2018-05-19T06:32:58Z</time>
      </trkpt>
      <trkpt lat="42.965907985344529" lon="-8.965093027800322">
        <ele>418.80000000000001</ele>
        <time>2018-05-19T06:33:01Z</time>
      </trkpt>
      <trkpt lat="42.965864986181259" lon="-8.964999988675118">
        <ele>419.5</ele>
        <time>2018-05-19T06:33:03Z</time>
      </trkpt>
      <trkpt lat="42.965831039473414" lon="-8.96489798091352">
        <ele>420.10000000000002</ele>
        <time>2018-05-19T06:33:06Z</time>
      </trkpt>
      <trkpt lat="42.96580396592617" lon="-8.964801002293825">
        <ele>420.60000000000002</ele>
        <time>2018-05-19T06:33:08Z</time>
      </trkpt>
      <trkpt lat="42.965787034481764" lon="-8.964695977047086">
        <ele>420.80000000000001</ele>
        <time>2018-05-19T06:33:10Z</time>
      </trkpt>
      <trkpt lat="42.965782005339861" lon="-8.964589023962617">
        <ele>420.69999999999999</ele>
        <time>2018-05-19T06:33:13Z</time>
      </trkpt>
      <trkpt lat="42.965785022825003" lon="-8.963860971853137">
        <ele>421.89999999999998</ele>
        <time>2018-05-19T06:33:28Z</time>
      </trkpt>
      <trkpt lat="42.965811006724834" lon="-8.963050022721291">
        <ele>421.80000000000001</ele>
        <time>2018-05-19T06:33:46Z</time>
      </trkpt>
      <trkpt lat="42.965853000059724" lon="-8.961807992309332">
        <ele>421.69999999999999</ele>
        <time>2018-05-19T06:34:13Z</time>
      </trkpt>
      <trkpt lat="42.965856017544866" lon="-8.961721993982792">
        <ele>421.80000000000001</ele>
        <time>2018-05-19T06:34:15Z</time>
      </trkpt>
      <trkpt lat="42.965857023373246" lon="-8.961637001484633">
        <ele>421.89999999999998</ele>
        <time>2018-05-19T06:34:17Z</time>
      </trkpt>
      <trkpt lat="42.965848976746202" lon="-8.961554020643234">
        <ele>422</ele>
        <time>2018-05-19T06:34:18Z</time>
      </trkpt>
      <trkpt lat="42.965841013938189" lon="-8.961470033973455">
        <ele>422.19999999999999</ele>
        <time>2018-05-19T06:34:20Z</time>
      </trkpt>
      <trkpt lat="42.965744035318494" lon="-8.961149007081986">
        <ele>423.19999999999999</ele>
        <time>2018-05-19T06:34:28Z</time>
      </trkpt>
      <trkpt lat="42.965574972331524" lon="-8.960747011005878">
        <ele>425</ele>
        <time>2018-05-19T06:34:38Z</time>
      </trkpt>
      <trkpt lat="42.965374980121851" lon="-8.960286006331444">
        <ele>426.30000000000001</ele>
        <time>2018-05-19T06:34:50Z</time>
      </trkpt>
      <trkpt lat="42.965318989008665" lon="-8.960099006071687">
        <ele>426.60000000000002</ele>
        <time>2018-05-19T06:34:54Z</time>
      </trkpt>
      <trkpt lat="42.965236008167267" lon="-8.959863977506757">
        <ele>426.89999999999998</ele>
        <time>2018-05-19T06:35:00Z</time>
      </trkpt>
      <trkpt lat="42.965141041204333" lon="-8.959582010284066">
        <ele>427</ele>
        <time>2018-05-19T06:35:06Z</time>
      </trkpt>
      <trkpt lat="42.965019000694156" lon="-8.959237011149526">
        <ele>424.80000000000001</ele>
        <time>2018-05-19T06:35:15Z</time>
      </trkpt>
      <trkpt lat="42.964952029287815" lon="-8.959016986191273">
        <ele>423.10000000000002</ele>
        <time>2018-05-19T06:35:20Z</time>
      </trkpt>
      <trkpt lat="42.964892014861107" lon="-8.958809031173587">
        <ele>421.5</ele>
        <time>2018-05-19T06:35:25Z</time>
      </trkpt>
      <trkpt lat="42.964779026806355" lon="-8.958557993173599">
        <ele>419</ele>
        <time>2018-05-19T06:35:31Z</time>
      </trkpt>
      <trkpt lat="42.96457702293992" lon="-8.958254987373948">
        <ele>415.10000000000002</ele>
        <time>2018-05-19T06:35:40Z</time>
      </trkpt>
      <trkpt lat="42.964355992153287" lon="-8.957930020987988">
        <ele>411.39999999999998</ele>
        <time>2018-05-19T06:35:50Z</time>
      </trkpt>
      <trkpt lat="42.964196987450123" lon="-8.957608994096518">
        <ele>409.30000000000001</ele>
        <time>2018-05-19T06:35:58Z</time>
      </trkpt>
      <trkpt lat="42.964042006060481" lon="-8.957359967753291">
        <ele>407.39999999999998</ele>
        <time>2018-05-19T06:36:05Z</time>
      </trkpt>
      <trkpt lat="42.963668005540967" lon="-8.956922013312578">
        <ele>403.89999999999998</ele>
        <time>2018-05-19T06:36:20Z</time>
      </trkpt>
      <trkpt lat="42.963639004155993" lon="-8.956903992220759">
        <ele>403.80000000000001</ele>
        <time>2018-05-19T06:36:21Z</time>
      </trkpt>
      <trkpt lat="42.963608996942639" lon="-8.956898041069508">
        <ele>403.69999999999999</ele>
        <time>2018-05-19T06:36:22Z</time>
      </trkpt>
      <trkpt lat="42.963066017255187" lon="-8.957241028547287">
        <ele>405.5</ele>
        <time>2018-05-19T06:36:39Z</time>
      </trkpt>
      <trkpt lat="42.962218020111322" lon="-8.957829019054771">
        <ele>417.30000000000001</ele>
        <time>2018-05-19T06:37:08Z</time>
      </trkpt>
      <trkpt lat="42.962176026776433" lon="-8.957859026268125">
        <ele>418.10000000000002</ele>
        <time>2018-05-19T06:37:09Z</time>
      </trkpt>
      <trkpt lat="42.962135961279273" lon="-8.957888027653098">
        <ele>419</ele>
        <time>2018-05-19T06:37:10Z</time>
      </trkpt>
      <trkpt lat="42.962089022621512" lon="-8.957906970754266">
        <ele>419.80000000000001</ele>
        <time>2018-05-19T06:37:12Z</time>
      </trkpt>
      <trkpt lat="42.962034037336707" lon="-8.957916023209691">
        <ele>420.5</ele>
        <time>2018-05-19T06:37:14Z</time>
      </trkpt>
      <trkpt lat="42.96174000017345" lon="-8.957908982411027">
        <ele>423.19999999999999</ele>
        <time>2018-05-19T06:37:22Z</time>
      </trkpt>
      <trkpt lat="42.961230967193842" lon="-8.957747966051102">
        <ele>424.39999999999998</ele>
        <time>2018-05-19T06:37:38Z</time>
      </trkpt>
      <trkpt lat="42.96062202192843" lon="-8.957659034058452">
        <ele>423.89999999999998</ele>
        <time>2018-05-19T06:37:56Z</time>
      </trkpt>
      <trkpt lat="42.960147019475698" lon="-8.957614023238421">
        <ele>425.39999999999998</ele>
        <time>2018-05-19T06:38:10Z</time>
      </trkpt>
      <trkpt lat="42.959564980119467" lon="-8.957652999088168">
        <ele>430.39999999999998</ele>
        <time>2018-05-19T06:38:27Z</time>
      </trkpt>
      <trkpt lat="42.958778003230691" lon="-8.957590973004699">
        <ele>433</ele>
        <time>2018-05-19T06:38:51Z</time>
      </trkpt>
      <trkpt lat="42.958378018811345" lon="-8.957380000501871">
        <ele>429.80000000000001</ele>
        <time>2018-05-19T06:39:03Z</time>
      </trkpt>
      <trkpt lat="42.958123963326216" lon="-8.957273969426751">
        <ele>427.89999999999998</ele>
        <time>2018-05-19T06:39:11Z</time>
      </trkpt>
      <trkpt lat="42.95793897472322" lon="-8.957187971100211">
        <ele>426.30000000000001</ele>
        <time>2018-05-19T06:39:17Z</time>
      </trkpt>
      <trkpt lat="42.957712998613715" lon="-8.957152012735605">
        <ele>425.60000000000002</ele>
        <time>2018-05-19T06:39:24Z</time>
      </trkpt>
      <trkpt lat="42.957462966442108" lon="-8.957159975543618">
        <ele>426</ele>
        <time>2018-05-19T06:39:31Z</time>
      </trkpt>
      <trkpt lat="42.957236990332603" lon="-8.957174979150295">
        <ele>426.39999999999998</ele>
        <time>2018-05-19T06:39:38Z</time>
      </trkpt>
      <trkpt lat="42.957011014223099" lon="-8.957252008840442">
        <ele>427.5</ele>
        <time>2018-05-19T06:39:45Z</time>
      </trkpt>
      <trkpt lat="42.956727035343647" lon="-8.95716299302876">
        <ele>424.89999999999998</ele>
        <time>2018-05-19T06:39:53Z</time>
      </trkpt>
      <trkpt lat="42.956713959574699" lon="-8.957160981371999">
        <ele>424.89999999999998</ele>
        <time>2018-05-19T06:39:54Z</time>
      </trkpt>
      <trkpt lat="42.956699039787054" lon="-8.957160981371999">
        <ele>424.80000000000001</ele>
        <time>2018-05-19T06:39:54Z</time>
      </trkpt>
      <trkpt lat="42.956682024523616" lon="-8.95716299302876">
        <ele>424.80000000000001</ele>
        <time>2018-05-19T06:39:55Z</time>
      </trkpt>
      <trkpt lat="42.9566690325737" lon="-8.957160981371999">
        <ele>424.69999999999999</ele>
        <time>2018-05-19T06:39:55Z</time>
      </trkpt>
      <trkpt lat="42.956656962633133" lon="-8.957155030220747">
        <ele>424.5</ele>
        <time>2018-05-19T06:39:55Z</time>
      </trkpt>
      <trkpt lat="42.956651011481881" lon="-8.957141032442451">
        <ele>424.30000000000001</ele>
        <time>2018-05-19T06:39:56Z</time>
      </trkpt>
      <trkpt lat="42.956653023138642" lon="-8.957115970551968">
        <ele>423.89999999999998</ele>
        <time>2018-05-19T06:39:56Z</time>
      </trkpt>
      <trkpt lat="42.956890985369682" lon="-8.956766026094556">
        <ele>419.60000000000002</ele>
        <time>2018-05-19T06:40:07Z</time>
      </trkpt>
      <trkpt lat="42.957266997545958" lon="-8.956491015851498">
        <ele>415.5</ele>
        <time>2018-05-19T06:40:19Z</time>
      </trkpt>
      <trkpt lat="42.957550976425409" lon="-8.956194967031479">
        <ele>410.89999999999998</ele>
        <time>2018-05-19T06:40:30Z</time>
      </trkpt>
      <trkpt lat="42.957696989178658" lon="-8.955948958173394">
        <ele>407.89999999999998</ele>
        <time>2018-05-19T06:40:37Z</time>
      </trkpt>
      <trkpt lat="42.957806037738919" lon="-8.955779979005456">
        <ele>405.69999999999999</ele>
        <time>2018-05-19T06:40:42Z</time>
      </trkpt>
      <trkpt lat="42.957934029400349" lon="-8.955556014552712">
        <ele>402.69999999999999</ele>
        <time>2018-05-19T06:40:48Z</time>
      </trkpt>
      <trkpt lat="42.958189006894827" lon="-8.955033989623189">
        <ele>398.89999999999998</ele>
        <time>2018-05-19T06:41:02Z</time>
      </trkpt>
      <trkpt lat="42.958290008828044" lon="-8.95460500381887">
        <ele>396.60000000000002</ele>
        <time>2018-05-19T06:41:12Z</time>
      </trkpt>
      <trkpt lat="42.958392016589642" lon="-8.954117009416223">
        <ele>395.5</ele>
        <time>2018-05-19T06:41:22Z</time>
      </trkpt>
      <trkpt lat="42.95849896967411" lon="-8.953532036393881">
        <ele>393.69999999999999</ele>
        <time>2018-05-19T06:41:36Z</time>
      </trkpt>
      <trkpt lat="42.958571976050735" lon="-8.953187959268689">
        <ele>392.10000000000002</ele>
        <time>2018-05-19T06:41:43Z</time>
      </trkpt>
      <trkpt lat="42.95860500074923" lon="-8.953086035326123">
        <ele>391.60000000000002</ele>
        <time>2018-05-19T06:41:46Z</time>
      </trkpt>
      <trkpt lat="42.958696028217673" lon="-8.952645985409617">
        <ele>389.39999999999998</ele>
        <time>2018-05-19T06:41:56Z</time>
      </trkpt>
      <trkpt lat="42.958701979368925" lon="-8.952627964317799">
        <ele>389.30000000000001</ele>
        <time>2018-05-19T06:41:56Z</time>
      </trkpt>
      <trkpt lat="42.958706002682447" lon="-8.952612960711122">
        <ele>389.19999999999999</ele>
        <time>2018-05-19T06:41:56Z</time>
      </trkpt>
      <trkpt lat="42.958709020167589" lon="-8.952595023438335">
        <ele>389.10000000000002</ele>
        <time>2018-05-19T06:41:57Z</time>
      </trkpt>
      <trkpt lat="42.958714971318841" lon="-8.952579014003277">
        <ele>389</ele>
        <time>2018-05-19T06:41:57Z</time>
      </trkpt>
      <trkpt lat="42.958720000460744" lon="-8.952566022053361">
        <ele>388.89999999999998</ele>
        <time>2018-05-19T06:41:58Z</time>
      </trkpt>
      <trkpt lat="42.958731986582279" lon="-8.952555041760206">
        <ele>388.80000000000001</ele>
        <time>2018-05-19T06:41:58Z</time>
      </trkpt>
      <trkpt lat="42.958739027380943" lon="-8.952507013455033">
        <ele>388.5</ele>
        <time>2018-05-19T06:41:59Z</time>
      </trkpt>
      <trkpt lat="42.958735004067421" lon="-8.952497038990259">
        <ele>388.5</ele>
        <time>2018-05-19T06:41:59Z</time>
      </trkpt>
      <trkpt lat="42.958851009607315" lon="-8.952076015993953">
        <ele>386.10000000000002</ele>
        <time>2018-05-19T06:42:09Z</time>
      </trkpt>
      <trkpt lat="42.959064999595284" lon="-8.951608976349235">
        <ele>385.69999999999999</ele>
        <time>2018-05-19T06:42:21Z</time>
      </trkpt>
      <trkpt lat="42.959417039528489" lon="-8.951136991381645">
        <ele>384.30000000000001</ele>
        <time>2018-05-19T06:42:36Z</time>
      </trkpt>
      <trkpt lat="42.959815012291074" lon="-8.950854018330574">
        <ele>382.39999999999998</ele>
        <time>2018-05-19T06:42:49Z</time>
      </trkpt>
      <trkpt lat="42.960084993392229" lon="-8.950484963133931">
        <ele>380.69999999999999</ele>
        <time>2018-05-19T06:43:00Z</time>
      </trkpt>
      <trkpt lat="42.960047023370862" lon="-8.950038040056825">
        <ele>380.60000000000002</ele>
        <time>2018-05-19T06:43:10Z</time>
      </trkpt>
      <trkpt lat="42.959868991747499" lon="-8.94953403621912">
        <ele>380.5</ele>
        <time>2018-05-19T06:43:22Z</time>
      </trkpt>
      <trkpt lat="42.959690038114786" lon="-8.949018968269229">
        <ele>378.30000000000001</ele>
        <time>2018-05-19T06:43:34Z</time>
      </trkpt>
      <trkpt lat="42.959470013156533" lon="-8.948342967778444">
        <ele>376.19999999999999</ele>
        <time>2018-05-19T06:43:50Z</time>
      </trkpt>
      <trkpt lat="42.959304973483086" lon="-8.947656992822886">
        <ele>373.89999999999998</ele>
        <time>2018-05-19T06:44:06Z</time>
      </trkpt>
      <trkpt lat="42.959357025101781" lon="-8.9471519831568">
        <ele>371.69999999999999</ele>
        <time>2018-05-19T06:44:17Z</time>
      </trkpt>
      <trkpt lat="42.959302039816976" lon="-8.94654898904264">
        <ele>368.80000000000001</ele>
        <time>2018-05-19T06:44:30Z</time>
      </trkpt>
      <trkpt lat="42.959059970453382" lon="-8.945519020780921">
        <ele>364.69999999999999</ele>
        <time>2018-05-19T06:44:54Z</time>
      </trkpt>
      <trkpt lat="42.959051001816988" lon="-8.945462023839355">
        <ele>364.5</ele>
        <time>2018-05-19T06:44:55Z</time>
      </trkpt>
      <trkpt lat="42.959058964625001" lon="-8.944835979491472">
        <ele>363.89999999999998</ele>
        <time>2018-05-19T06:45:09Z</time>
      </trkpt>
      <trkpt lat="42.95905795879662" lon="-8.944817958399653">
        <ele>363.89999999999998</ele>
        <time>2018-05-19T06:45:09Z</time>
      </trkpt>
      <trkpt lat="42.959056030958891" lon="-8.944791974499822">
        <ele>363.89999999999998</ele>
        <time>2018-05-19T06:45:10Z</time>
      </trkpt>
      <trkpt lat="42.959068017080426" lon="-8.944366006180644">
        <ele>363.10000000000002</ele>
        <time>2018-05-19T06:45:19Z</time>
      </trkpt>
      <trkpt lat="42.959006996825337" lon="-8.9438830409199">
        <ele>361.30000000000001</ele>
        <time>2018-05-19T06:45:29Z</time>
      </trkpt>
      <trkpt lat="42.958900965750217" lon="-8.943504011258483">
        <ele>358.89999999999998</ele>
        <time>2018-05-19T06:45:38Z</time>
      </trkpt>
      <trkpt lat="42.958801975473762" lon="-8.943114001303911">
        <ele>356.30000000000001</ele>
        <time>2018-05-19T06:45:47Z</time>
      </trkpt>
      <trkpt lat="42.958678007125854" lon="-8.942703036591411">
        <ele>353.69999999999999</ele>
        <time>2018-05-19T06:45:57Z</time>
      </trkpt>
      <trkpt lat="42.958563007414341" lon="-8.942284025251865">
        <ele>351.5</ele>
        <time>2018-05-19T06:46:07Z</time>
      </trkpt>
      <trkpt lat="42.958464017137885" lon="-8.941855039447546">
        <ele>349.80000000000001</ele>
        <time>2018-05-19T06:46:16Z</time>
      </trkpt>
      <trkpt lat="42.958365026861429" lon="-8.941523032262921">
        <ele>348.69999999999999</ele>
        <time>2018-05-19T06:46:24Z</time>
      </trkpt>
      <trkpt lat="42.958254972472787" lon="-8.941121958196163">
        <ele>347.19999999999999</ele>
        <time>2018-05-19T06:46:33Z</time>
      </trkpt>
      <trkpt lat="42.958034025505185" lon="-8.940348979085684">
        <ele>344</ele>
        <time>2018-05-19T06:46:51Z</time>
      </trkpt>
      <trkpt lat="42.957795979455113" lon="-8.93943702802062">
        <ele>340.89999999999998</ele>
        <time>2018-05-19T06:47:12Z</time>
      </trkpt>
      <trkpt lat="42.957535972818732" lon="-8.938504960387945">
        <ele>340</ele>
        <time>2018-05-19T06:47:34Z</time>
      </trkpt>
      <trkpt lat="42.957332041114569" lon="-8.937746984884143">
        <ele>338.39999999999998</ele>
        <time>2018-05-19T06:47:51Z</time>
      </trkpt>
      <trkpt lat="42.957161972299218" lon="-8.937047012150288">
        <ele>337.39999999999998</ele>
        <time>2018-05-19T06:48:07Z</time>
      </trkpt>
      <trkpt lat="42.956926021724939" lon="-8.936390038579702">
        <ele>337.60000000000002</ele>
        <time>2018-05-19T06:48:23Z</time>
      </trkpt>
      <trkpt lat="42.956868018954992" lon="-8.935888968408108">
        <ele>336.89999999999998</ele>
        <time>2018-05-19T06:48:34Z</time>
      </trkpt>
      <trkpt lat="42.956833988428116" lon="-8.93546199426055">
        <ele>336</ele>
        <time>2018-05-19T06:48:44Z</time>
      </trkpt>
      <trkpt lat="42.956768022850156" lon="-8.934636963531375">
        <ele>336</ele>
        <time>2018-05-19T06:49:02Z</time>
      </trkpt>
      <trkpt lat="42.956647993996739" lon="-8.93340197391808">
        <ele>338.89999999999998</ele>
        <time>2018-05-19T06:49:29Z</time>
      </trkpt>
      <trkpt lat="42.956719994544983" lon="-8.932448029518127">
        <ele>338.80000000000001</ele>
        <time>2018-05-19T06:49:49Z</time>
      </trkpt>
      <trkpt lat="42.956818984821439" lon="-8.931384030729532">
        <ele>337.69999999999999</ele>
        <time>2018-05-19T06:50:13Z</time>
      </trkpt>
      <trkpt lat="42.956874975934625" lon="-8.930668970569968">
        <ele>336</ele>
        <time>2018-05-19T06:50:28Z</time>
      </trkpt>
      <trkpt lat="42.956588985398412" lon="-8.930114004760981">
        <ele>335.19999999999999</ele>
        <time>2018-05-19T06:50:43Z</time>
      </trkpt>
      <trkpt lat="42.956181960180402" lon="-8.929777974262834">
        <ele>333.69999999999999</ele>
        <time>2018-05-19T06:50:57Z</time>
      </trkpt>
      <trkpt lat="42.955776024609804" lon="-8.929454013705254">
        <ele>330.80000000000001</ele>
        <time>2018-05-19T06:51:11Z</time>
      </trkpt>
      <trkpt lat="42.955752974376082" lon="-8.929430963471532">
        <ele>330.60000000000002</ele>
        <time>2018-05-19T06:51:12Z</time>
      </trkpt>
      <trkpt lat="42.955729002133012" lon="-8.929401962086558">
        <ele>330.39999999999998</ele>
        <time>2018-05-19T06:51:13Z</time>
      </trkpt>
      <trkpt lat="42.955708969384432" lon="-8.929359968751669">
        <ele>330.19999999999999</ele>
        <time>2018-05-19T06:51:14Z</time>
      </trkpt>
      <trkpt lat="42.955693965777755" lon="-8.929311018437147">
        <ele>330</ele>
        <time>2018-05-19T06:51:15Z</time>
      </trkpt>
      <trkpt lat="42.955684997141361" lon="-8.929257038980722">
        <ele>329.80000000000001</ele>
        <time>2018-05-19T06:51:16Z</time>
      </trkpt>
      <trkpt lat="42.955687008798122" lon="-8.929201969876885">
        <ele>329.60000000000002</ele>
        <time>2018-05-19T06:51:17Z</time>
      </trkpt>
      <trkpt lat="42.955707963556051" lon="-8.929148996248841">
        <ele>329.5</ele>
        <time>2018-05-19T06:51:19Z</time>
      </trkpt>
      <trkpt lat="42.95591801404953" lon="-8.928764015436173">
        <ele>328.10000000000002</ele>
        <time>2018-05-19T06:51:29Z</time>
      </trkpt>
      <trkpt lat="42.956526959314942" lon="-8.927540006116033">
        <ele>328.10000000000002</ele>
        <time>2018-05-19T06:52:01Z</time>
      </trkpt>
      <trkpt lat="42.956982012838125" lon="-8.926602993160486">
        <ele>327.5</ele>
        <time>2018-05-19T06:52:25Z</time>
      </trkpt>
      <trkpt lat="42.957001039758325" lon="-8.926550019532442">
        <ele>327.30000000000001</ele>
        <time>2018-05-19T06:52:27Z</time>
      </trkpt>
      <trkpt lat="42.957034986466169" lon="-8.926386991515756">
        <ele>326.60000000000002</ele>
        <time>2018-05-19T06:52:30Z</time>
      </trkpt>
      <trkpt lat="42.95744301751256" lon="-8.925458025187254">
        <ele>327.80000000000001</ele>
        <time>2018-05-19T06:52:54Z</time>
      </trkpt>
      <trkpt lat="42.957707969471812" lon="-8.924952009692788">
        <ele>328.19999999999999</ele>
        <time>2018-05-19T06:53:07Z</time>
      </trkpt>
      <trkpt lat="42.958006029948592" lon="-8.924344992265105">
        <ele>328.80000000000001</ele>
        <time>2018-05-19T06:53:23Z</time>
      </trkpt>
      <trkpt lat="42.957851970568299" lon="-8.923751972615719">
        <ele>328.80000000000001</ele>
        <time>2018-05-19T06:53:37Z</time>
      </trkpt>
      <trkpt lat="42.957520969212055" lon="-8.922674981877208">
        <ele>328</ele>
        <time>2018-05-19T06:54:02Z</time>
      </trkpt>
      <trkpt lat="42.957260040566325" lon="-8.92166999168694">
        <ele>328.80000000000001</ele>
        <time>2018-05-19T06:54:25Z</time>
      </trkpt>
      <trkpt lat="42.957092989236116" lon="-8.92068000510335">
        <ele>330.39999999999998</ele>
        <time>2018-05-19T06:54:47Z</time>
      </trkpt>
      <trkpt lat="42.957071028649807" lon="-8.920542960986495">
        <ele>330.80000000000001</ele>
        <time>2018-05-19T06:54:50Z</time>
      </trkpt>
      <trkpt lat="42.956912023946643" lon="-8.919470999389887">
        <ele>330.80000000000001</ele>
        <time>2018-05-19T06:55:14Z</time>
      </trkpt>
      <trkpt lat="42.956915041431785" lon="-8.919420959427953">
        <ele>330.80000000000001</ele>
        <time>2018-05-19T06:55:15Z</time>
      </trkpt>
      <trkpt lat="42.956921998411417" lon="-8.919375026598573">
        <ele>330.89999999999998</ele>
        <time>2018-05-19T06:55:16Z</time>
      </trkpt>
      <trkpt lat="42.957048984244466" lon="-8.919162964448333">
        <ele>331.39999999999998</ele>
        <time>2018-05-19T06:55:22Z</time>
      </trkpt>
      <trkpt lat="42.957568997517228" lon="-8.91924099996686">
        <ele>332.30000000000001</ele>
        <time>2018-05-19T06:55:37Z</time>
      </trkpt>
      <trkpt lat="42.958253966644406" lon="-8.919243011623621">
        <ele>333.10000000000002</ele>
        <time>2018-05-19T06:55:58Z</time>
      </trkpt>
      <trkpt lat="42.958744978532195" lon="-8.919287016615272">
        <ele>333.30000000000001</ele>
        <time>2018-05-19T06:56:12Z</time>
      </trkpt>
      <trkpt lat="42.958773979917169" lon="-8.919292967766523">
        <ele>333.30000000000001</ele>
        <time>2018-05-19T06:56:13Z</time>
      </trkpt>
      <trkpt lat="42.958799963817" lon="-8.919296991080046">
        <ele>333.39999999999998</ele>
        <time>2018-05-19T06:56:14Z</time>
      </trkpt>
      <trkpt lat="42.958824019879103" lon="-8.919295985251665">
        <ele>333.39999999999998</ele>
        <time>2018-05-19T06:56:15Z</time>
      </trkpt>
      <trkpt lat="42.958845980465412" lon="-8.919287016615272">
        <ele>333.39999999999998</ele>
        <time>2018-05-19T06:56:15Z</time>
      </trkpt>
      <trkpt lat="42.958867019042373" lon="-8.919274024665356">
        <ele>333.39999999999998</ele>
        <time>2018-05-19T06:56:16Z</time>
      </trkpt>
      <trkpt lat="42.959038009867072" lon="-8.918739007785916">
        <ele>332.69999999999999</ele>
        <time>2018-05-19T06:56:29Z</time>
      </trkpt>
      <trkpt lat="42.959362976253033" lon="-8.917663022875786">
        <ele>329.80000000000001</ele>
        <time>2018-05-19T06:56:54Z</time>
      </trkpt>
      <trkpt lat="42.959703030064702" lon="-8.916483018547297">
        <ele>325.89999999999998</ele>
        <time>2018-05-19T06:57:21Z</time>
      </trkpt>
      <trkpt lat="42.959995977580547" lon="-8.915452966466546">
        <ele>325.5</ele>
        <time>2018-05-19T06:57:45Z</time>
      </trkpt>
      <trkpt lat="42.960225977003574" lon="-8.914694990962744">
        <ele>325.39999999999998</ele>
        <time>2018-05-19T06:58:03Z</time>
      </trkpt>
      <trkpt lat="42.960535017773509" lon="-8.913995018228889">
        <ele>324.5</ele>
        <time>2018-05-19T06:58:21Z</time>
      </trkpt>
      <trkpt lat="42.960940031334758" lon="-8.913324968889356">
        <ele>323.10000000000002</ele>
        <time>2018-05-19T06:58:40Z</time>
      </trkpt>
      <trkpt lat="42.961417967453599" lon="-8.912790035828948">
        <ele>322.69999999999999</ele>
        <time>2018-05-19T06:58:58Z</time>
      </trkpt>
      <trkpt lat="42.961723990738392" lon="-8.912359960377216">
        <ele>322.10000000000002</ele>
        <time>2018-05-19T06:59:11Z</time>
      </trkpt>
      <trkpt lat="42.961873020976782" lon="-8.911767024546862">
        <ele>322</ele>
        <time>2018-05-19T06:59:24Z</time>
      </trkpt>
      <trkpt lat="42.961880983784795" lon="-8.911735005676746">
        <ele>322</ele>
        <time>2018-05-19T06:59:25Z</time>
      </trkpt>
      <trkpt lat="42.961889030411839" lon="-8.911706004291773">
        <ele>322</ele>
        <time>2018-05-19T06:59:26Z</time>
      </trkpt>
      <trkpt lat="42.961901016533375" lon="-8.911677002906799">
        <ele>322</ele>
        <time>2018-05-19T06:59:26Z</time>
      </trkpt>
      <trkpt lat="42.961918031796813" lon="-8.911659987643361">
        <ele>322</ele>
        <time>2018-05-19T06:59:27Z</time>
      </trkpt>
      <trkpt lat="42.962125986814499" lon="-8.911681026220322">
        <ele>322</ele>
        <time>2018-05-19T06:59:33Z</time>
      </trkpt>
      <trkpt lat="42.962548015639186" lon="-8.911515986546874">
        <ele>321.60000000000002</ele>
        <time>2018-05-19T06:59:46Z</time>
      </trkpt>
      <trkpt lat="42.962581962347031" lon="-8.91148597933352">
        <ele>321.60000000000002</ele>
        <time>2018-05-19T06:59:47Z</time>
      </trkpt>
      <trkpt lat="42.962619010359049" lon="-8.911456977948546">
        <ele>321.5</ele>
        <time>2018-05-19T06:59:49Z</time>
      </trkpt>
      <trkpt lat="42.962657986208797" lon="-8.911437029018998">
        <ele>321.5</ele>
        <time>2018-05-19T06:59:50Z</time>
      </trkpt>
      <trkpt lat="42.962696962058544" lon="-8.911425964906812">
        <ele>321.39999999999998</ele>
        <time>2018-05-19T06:59:51Z</time>
      </trkpt>
      <trkpt lat="42.963095018640161" lon="-8.911510035395622">
        <ele>321.10000000000002</ele>
        <time>2018-05-19T07:00:03Z</time>
      </trkpt>
      <trkpt lat="42.963521992787719" lon="-8.911568960174918">
        <ele>320.69999999999999</ele>
        <time>2018-05-19T07:00:16Z</time>
      </trkpt>
      <trkpt lat="42.963891969993711" lon="-8.910907041281462">
        <ele>319.19999999999999</ele>
        <time>2018-05-19T07:00:34Z</time>
      </trkpt>
      <trkpt lat="42.964109983295202" lon="-8.909972039982677">
        <ele>316.39999999999998</ele>
        <time>2018-05-19T07:00:55Z</time>
      </trkpt>
      <trkpt lat="42.964130016043782" lon="-8.909434005618095">
        <ele>314.60000000000002</ele>
        <time>2018-05-19T07:01:07Z</time>
      </trkpt>
      <trkpt lat="42.96389096416533" lon="-8.908847020938993">
        <ele>313.10000000000002</ele>
        <time>2018-05-19T07:01:21Z</time>
      </trkpt>
      <trkpt lat="42.963945027440786" lon="-8.908255007117987">
        <ele>312.30000000000001</ele>
        <time>2018-05-19T07:01:34Z</time>
      </trkpt>
      <trkpt lat="42.963962964713573" lon="-8.908173032104969">
        <ele>312.19999999999999</ele>
        <time>2018-05-19T07:01:36Z</time>
      </trkpt>
      <trkpt lat="42.963989032432437" lon="-8.908082004636526">
        <ele>312.10000000000002</ele>
        <time>2018-05-19T07:01:38Z</time>
      </trkpt>
      <trkpt lat="42.964134039357305" lon="-8.907700963318348">
        <ele>313.69999999999999</ele>
        <time>2018-05-19T07:01:48Z</time>
      </trkpt>
      <trkpt lat="42.964166980236769" lon="-8.907591998577118">
        <ele>314.5</ele>
        <time>2018-05-19T07:01:50Z</time>
      </trkpt>
      <trkpt lat="42.964216014370322" lon="-8.907369039952755">
        <ele>316.19999999999999</ele>
        <time>2018-05-19T07:01:55Z</time>
      </trkpt>
      <trkpt lat="42.964264964684844" lon="-8.906854977831245">
        <ele>320.10000000000002</ele>
        <time>2018-05-19T07:02:06Z</time>
      </trkpt>
      <trkpt lat="42.96427502296865" lon="-8.906756993383169">
        <ele>320.89999999999998</ele>
        <time>2018-05-19T07:02:09Z</time>
      </trkpt>
      <trkpt lat="42.964291032403708" lon="-8.906658003106713">
        <ele>321.69999999999999</ele>
        <time>2018-05-19T07:02:11Z</time>
      </trkpt>
      <trkpt lat="42.964312992990017" lon="-8.906561024487019">
        <ele>322.30000000000001</ele>
        <time>2018-05-19T07:02:13Z</time>
      </trkpt>
      <trkpt lat="42.96434199437499" lon="-8.906467985361815">
        <ele>322.89999999999998</ele>
        <time>2018-05-19T07:02:15Z</time>
      </trkpt>
      <trkpt lat="42.964437967166305" lon="-8.906253995373845">
        <ele>324</ele>
        <time>2018-05-19T07:02:21Z</time>
      </trkpt>
      <trkpt lat="42.964465962722898" lon="-8.906204039230943">
        <ele>324.10000000000002</ele>
        <time>2018-05-19T07:02:22Z</time>
      </trkpt>
      <trkpt lat="42.964524971321225" lon="-8.906004969030619">
        <ele>324.89999999999998</ele>
        <time>2018-05-19T07:02:27Z</time>
      </trkpt>
      <trkpt lat="42.964484989643097" lon="-8.905411027371883">
        <ele>328.60000000000002</ele>
        <time>2018-05-19T07:02:40Z</time>
      </trkpt>
      <trkpt lat="42.964441990479827" lon="-8.90478297136724">
        <ele>327.19999999999999</ele>
        <time>2018-05-19T07:02:53Z</time>
      </trkpt>
      <trkpt lat="42.964231017976999" lon="-8.903889041393995">
        <ele>326.19999999999999</ele>
        <time>2018-05-19T07:03:14Z</time>
      </trkpt>
      <trkpt lat="42.963978974148631" lon="-8.9028699696064">
        <ele>330.30000000000001</ele>
        <time>2018-05-19T07:03:37Z</time>
      </trkpt>
      <trkpt lat="42.963766995817423" lon="-8.902006968855858">
        <ele>328.5</ele>
        <time>2018-05-19T07:03:57Z</time>
      </trkpt>
      <trkpt lat="42.963544959202409" lon="-8.901053024455905">
        <ele>325.60000000000002</ele>
        <time>2018-05-19T07:04:18Z</time>
      </trkpt>
      <trkpt lat="42.963372962549329" lon="-8.900346010923386">
        <ele>323.19999999999999</ele>
        <time>2018-05-19T07:04:34Z</time>
      </trkpt>
      <trkpt lat="42.96322301030159" lon="-8.899451997131109">
        <ele>322.60000000000002</ele>
        <time>2018-05-19T07:04:54Z</time>
      </trkpt>
      <trkpt lat="42.963103987276554" lon="-8.898648004978895">
        <ele>325.10000000000002</ele>
        <time>2018-05-19T07:05:12Z</time>
      </trkpt>
      <trkpt lat="42.963097030296922" lon="-8.898588996380568">
        <ele>325.30000000000001</ele>
        <time>2018-05-19T07:05:13Z</time>
      </trkpt>
      <trkpt lat="42.963057970628142" lon="-8.898418005555868">
        <ele>325.89999999999998</ele>
        <time>2018-05-19T07:05:17Z</time>
      </trkpt>
      <trkpt lat="42.962940037250519" lon="-8.897650977596641">
        <ele>328.60000000000002</ele>
        <time>2018-05-19T07:05:34Z</time>
      </trkpt>
      <trkpt lat="42.962825037539005" lon="-8.896925020962954">
        <ele>331.5</ele>
        <time>2018-05-19T07:05:50Z</time>
      </trkpt>
      <trkpt lat="42.962794024497271" lon="-8.896756041795015">
        <ele>332.60000000000002</ele>
        <time>2018-05-19T07:05:54Z</time>
      </trkpt>
      <trkpt lat="42.962637031450868" lon="-8.895927993580699">
        <ele>337.19999999999999</ele>
        <time>2018-05-19T07:06:13Z</time>
      </trkpt>
      <trkpt lat="42.962615992873907" lon="-8.895751973614097">
        <ele>337.89999999999998</ele>
        <time>2018-05-19T07:06:17Z</time>
      </trkpt>
      <trkpt lat="42.962523037567735" lon="-8.895217040553689">
        <ele>340</ele>
        <time>2018-05-19T07:06:29Z</time>
      </trkpt>
      <trkpt lat="42.962504010647535" lon="-8.895087037235498">
        <ele>340.5</ele>
        <time>2018-05-19T07:06:31Z</time>
      </trkpt>
      <trkpt lat="42.962486995384097" lon="-8.894921997562051">
        <ele>341.10000000000002</ele>
        <time>2018-05-19T07:06:35Z</time>
      </trkpt>
      <trkpt lat="42.962271999567747" lon="-8.894376000389457">
        <ele>344.10000000000002</ele>
        <time>2018-05-19T07:06:48Z</time>
      </trkpt>
      <trkpt lat="42.962026996538043" lon="-8.894032007083297">
        <ele>347.69999999999999</ele>
        <time>2018-05-19T07:06:59Z</time>
      </trkpt>
      <trkpt lat="42.962006041780114" lon="-8.89399797655642">
        <ele>348.10000000000002</ele>
        <time>2018-05-19T07:07:00Z</time>
      </trkpt>
      <trkpt lat="42.961948961019516" lon="-8.89393100515008">
        <ele>348.89999999999998</ele>
        <time>2018-05-19T07:07:02Z</time>
      </trkpt>
      <trkpt lat="42.961852988228202" lon="-8.893767977133393">
        <ele>350.60000000000002</ele>
        <time>2018-05-19T07:07:07Z</time>
      </trkpt>
      <trkpt lat="42.961845025420189" lon="-8.893750961869955">
        <ele>350.69999999999999</ele>
        <time>2018-05-19T07:07:07Z</time>
      </trkpt>
      <trkpt lat="42.961607985198498" lon="-8.893425995483995">
        <ele>353.80000000000001</ele>
        <time>2018-05-19T07:07:17Z</time>
      </trkpt>
      <trkpt lat="42.961578983813524" lon="-8.893390037119389">
        <ele>354.10000000000002</ele>
        <time>2018-05-19T07:07:18Z</time>
      </trkpt>
      <trkpt lat="42.96154897660017" lon="-8.89335298910737">
        <ele>354.39999999999998</ele>
        <time>2018-05-19T07:07:19Z</time>
      </trkpt>
      <trkpt lat="42.961488962173462" lon="-8.893273025751114">
        <ele>355.19999999999999</ele>
        <time>2018-05-19T07:07:22Z</time>
      </trkpt>
      <trkpt lat="42.961315959692001" lon="-8.893020981922746">
        <ele>357.19999999999999</ele>
        <time>2018-05-19T07:07:29Z</time>
      </trkpt>
      <trkpt lat="42.960841963067651" lon="-8.892628960311413">
        <ele>359.39999999999998</ele>
        <time>2018-05-19T07:07:46Z</time>
      </trkpt>
      <trkpt lat="42.960824025794864" lon="-8.892614040523768">
        <ele>359.5</ele>
        <time>2018-05-19T07:07:46Z</time>
      </trkpt>
      <trkpt lat="42.960806004703045" lon="-8.892595013603568">
        <ele>359.60000000000002</ele>
        <time>2018-05-19T07:07:47Z</time>
      </trkpt>
      <trkpt lat="42.96079502440989" lon="-8.892569029703736">
        <ele>359.69999999999999</ele>
        <time>2018-05-19T07:07:48Z</time>
      </trkpt>
      <trkpt lat="42.960786977782845" lon="-8.892541034147143">
        <ele>359.89999999999998</ele>
        <time>2018-05-19T07:07:48Z</time>
      </trkpt>
      <trkpt lat="42.960783038288355" lon="-8.892511026933789">
        <ele>360</ele>
        <time>2018-05-19T07:07:49Z</time>
      </trkpt>
      <trkpt lat="42.960964003577828" lon="-8.892214978113771">
        <ele>361.10000000000002</ele>
        <time>2018-05-19T07:07:57Z</time>
      </trkpt>
      <trkpt lat="42.961201965808868" lon="-8.891908032819629">
        <ele>360.69999999999999</ele>
        <time>2018-05-19T07:08:07Z</time>
      </trkpt>
      <trkpt lat="42.961269021034241" lon="-8.891828991472721">
        <ele>360.19999999999999</ele>
        <time>2018-05-19T07:08:10Z</time>
      </trkpt>
      <trkpt lat="42.961296010762453" lon="-8.891796972602606">
        <ele>359.89999999999998</ele>
        <time>2018-05-19T07:08:11Z</time>
      </trkpt>
      <trkpt lat="42.961490973830223" lon="-8.891529003158212">
        <ele>357.80000000000001</ele>
        <time>2018-05-19T07:08:19Z</time>
      </trkpt>
      <trkpt lat="42.961541013792157" lon="-8.891462031751871">
        <ele>357.30000000000001</ele>
        <time>2018-05-19T07:08:21Z</time>
      </trkpt>
      <trkpt lat="42.961727008223534" lon="-8.891258016228676">
        <ele>355.60000000000002</ele>
        <time>2018-05-19T07:08:28Z</time>
      </trkpt>
      <trkpt lat="42.96195600181818" lon="-8.890952998772264">
        <ele>353.89999999999998</ele>
        <time>2018-05-19T07:08:38Z</time>
      </trkpt>
      <trkpt lat="42.962353974580765" lon="-8.890461986884475">
        <ele>349.69999999999999</ele>
        <time>2018-05-19T07:08:54Z</time>
      </trkpt>
      <trkpt lat="42.962386999279261" lon="-8.890426028519869">
        <ele>349.39999999999998</ele>
        <time>2018-05-19T07:08:55Z</time>
      </trkpt>
      <trkpt lat="42.962420023977757" lon="-8.890381017699838">
        <ele>349.10000000000002</ele>
        <time>2018-05-19T07:08:56Z</time>
      </trkpt>
      <trkpt lat="42.962443996220827" lon="-8.890327038243413">
        <ele>349</ele>
        <time>2018-05-19T07:08:58Z</time>
      </trkpt>
      <trkpt lat="42.962463023141026" lon="-8.890267023816705">
        <ele>349</ele>
        <time>2018-05-19T07:08:59Z</time>
      </trkpt>
      <trkpt lat="42.962472997605801" lon="-8.890207009389997">
        <ele>349.19999999999999</ele>
        <time>2018-05-19T07:09:00Z</time>
      </trkpt>
      <trkpt lat="42.962469980120659" lon="-8.890151018276811">
        <ele>349.39999999999998</ele>
        <time>2018-05-19T07:09:01Z</time>
      </trkpt>
      <trkpt lat="42.962417006492615" lon="-8.889686996117234">
        <ele>351.80000000000001</ele>
        <time>2018-05-19T07:09:12Z</time>
      </trkpt>
      <trkpt lat="42.962379958480597" lon="-8.889186009764671">
        <ele>354.60000000000002</ele>
        <time>2018-05-19T07:09:23Z</time>
      </trkpt>
      <trkpt lat="42.962288009002805" lon="-8.888261988759041">
        <ele>358.39999999999998</ele>
        <time>2018-05-19T07:09:43Z</time>
      </trkpt>
      <trkpt lat="42.962225982919335" lon="-8.887638039886951">
        <ele>358.39999999999998</ele>
        <time>2018-05-19T07:09:56Z</time>
      </trkpt>
      <trkpt lat="42.962208967655897" lon="-8.88750996440649">
        <ele>358</ele>
        <time>2018-05-19T07:09:59Z</time>
      </trkpt>
      <trkpt lat="42.962074019014835" lon="-8.886770009994507">
        <ele>356.30000000000001</ele>
        <time>2018-05-19T07:10:16Z</time>
      </trkpt>
      <trkpt lat="42.96204200014472" lon="-8.886488964781165">
        <ele>355.69999999999999</ele>
        <time>2018-05-19T07:10:22Z</time>
      </trkpt>
      <trkpt lat="42.961962036788464" lon="-8.885941961780191">
        <ele>355.80000000000001</ele>
        <time>2018-05-19T07:10:34Z</time>
      </trkpt>
      <trkpt lat="42.961930017918348" lon="-8.88568103313446">
        <ele>356.10000000000002</ele>
        <time>2018-05-19T07:10:40Z</time>
      </trkpt>
      <trkpt lat="42.961917025968432" lon="-8.885407028719783">
        <ele>356.30000000000001</ele>
        <time>2018-05-19T07:10:46Z</time>
      </trkpt>
      <trkpt lat="42.961886012926698" lon="-8.885179962962866">
        <ele>354.89999999999998</ele>
        <time>2018-05-19T07:10:51Z</time>
      </trkpt>
      <trkpt lat="42.961851982399821" lon="-8.885003020986915">
        <ele>353.69999999999999</ele>
        <time>2018-05-19T07:10:55Z</time>
      </trkpt>
      <trkpt lat="42.961795991286635" lon="-8.884747037664056">
        <ele>351.89999999999998</ele>
        <time>2018-05-19T07:11:01Z</time>
      </trkpt>
      <trkpt lat="42.961779981851578" lon="-8.884444031864405">
        <ele>350.19999999999999</ele>
        <time>2018-05-19T07:11:07Z</time>
      </trkpt>
      <trkpt lat="42.961745029315352" lon="-8.884166004136205">
        <ele>348.60000000000002</ele>
        <time>2018-05-19T07:11:13Z</time>
      </trkpt>
      <trkpt lat="42.961688032373786" lon="-8.883841959759593">
        <ele>346.60000000000002</ele>
        <time>2018-05-19T07:11:20Z</time>
      </trkpt>
      <trkpt lat="42.961663976311684" lon="-8.883605003356934">
        <ele>345.30000000000001</ele>
        <time>2018-05-19T07:11:26Z</time>
      </trkpt>
      <trkpt lat="42.961598010733724" lon="-8.883114997297525">
        <ele>342.89999999999998</ele>
        <time>2018-05-19T07:11:36Z</time>
      </trkpt>
      <trkpt lat="42.961560962721705" lon="-8.882734039798379">
        <ele>340.89999999999998</ele>
        <time>2018-05-19T07:11:45Z</time>
      </trkpt>
      <trkpt lat="42.96154897660017" lon="-8.882681988179684">
        <ele>340.60000000000002</ele>
        <time>2018-05-19T07:11:46Z</time>
      </trkpt>
      <trkpt lat="42.961560962721705" lon="-8.882355010136962">
        <ele>338.60000000000002</ele>
        <time>2018-05-19T07:11:53Z</time>
      </trkpt>
      <trkpt lat="42.96156800352037" lon="-8.881795015186071">
        <ele>335.80000000000001</ele>
        <time>2018-05-19T07:12:05Z</time>
      </trkpt>
      <trkpt lat="42.961594993248582" lon="-8.881060006096959">
        <ele>333</ele>
        <time>2018-05-19T07:12:21Z</time>
      </trkpt>
      <trkpt lat="42.96161100268364" lon="-8.880465980619192">
        <ele>331</ele>
        <time>2018-05-19T07:12:34Z</time>
      </trkpt>
      <trkpt lat="42.961602034047246" lon="-8.87994697317481">
        <ele>330.80000000000001</ele>
        <time>2018-05-19T07:12:45Z</time>
      </trkpt>
      <trkpt lat="42.961609996855259" lon="-8.879914032295346">
        <ele>330.80000000000001</ele>
        <time>2018-05-19T07:12:46Z</time>
      </trkpt>
      <trkpt lat="42.961620977148414" lon="-8.879786040633917">
        <ele>330.69999999999999</ele>
        <time>2018-05-19T07:12:49Z</time>
      </trkpt>
      <trkpt lat="42.961643021553755" lon="-8.879317995160818">
        <ele>331.60000000000002</ele>
        <time>2018-05-19T07:12:59Z</time>
      </trkpt>
      <trkpt lat="42.961678979918361" lon="-8.878103960305452">
        <ele>333.80000000000001</ele>
        <time>2018-05-19T07:13:25Z</time>
      </trkpt>
      <trkpt lat="42.961690966039896" lon="-8.877355037257075">
        <ele>334.19999999999999</ele>
        <time>2018-05-19T07:13:42Z</time>
      </trkpt>
      <trkpt lat="42.961727008223534" lon="-8.87659102678299">
        <ele>334.80000000000001</ele>
        <time>2018-05-19T07:13:58Z</time>
      </trkpt>
      <trkpt lat="42.961733965203166" lon="-8.875793991610408">
        <ele>335.89999999999998</ele>
        <time>2018-05-19T07:14:15Z</time>
      </trkpt>
      <trkpt lat="42.961742011830211" lon="-8.87556198053062">
        <ele>336.19999999999999</ele>
        <time>2018-05-19T07:14:20Z</time>
      </trkpt>
      <trkpt lat="42.961770007386804" lon="-8.874962003901601">
        <ele>337.89999999999998</ele>
        <time>2018-05-19T07:14:33Z</time>
      </trkpt>
      <trkpt lat="42.961772019043565" lon="-8.874856978654862">
        <ele>338.30000000000001</ele>
        <time>2018-05-19T07:14:36Z</time>
      </trkpt>
      <trkpt lat="42.961753997951746" lon="-8.874489013105631">
        <ele>339.5</ele>
        <time>2018-05-19T07:14:44Z</time>
      </trkpt>
      <trkpt lat="42.961765984073281" lon="-8.874116018414497">
        <ele>340.89999999999998</ele>
        <time>2018-05-19T07:14:52Z</time>
      </trkpt>
      <trkpt lat="42.961775036528707" lon="-8.873899010941386">
        <ele>341.69999999999999</ele>
        <time>2018-05-19T07:14:57Z</time>
      </trkpt>
      <trkpt lat="42.961821975186467" lon="-8.87309200130403">
        <ele>344</ele>
        <time>2018-05-19T07:15:14Z</time>
      </trkpt>
      <trkpt lat="42.961429031565785" lon="-8.87281103990972">
        <ele>343.80000000000001</ele>
        <time>2018-05-19T07:15:27Z</time>
      </trkpt>
      <trkpt lat="42.960553960874677" lon="-8.872781032696366">
        <ele>340.69999999999999</ele>
        <time>2018-05-19T07:15:53Z</time>
      </trkpt>
      <trkpt lat="42.959777964279056" lon="-8.87274700216949">
        <ele>339.89999999999998</ele>
        <time>2018-05-19T07:16:16Z</time>
      </trkpt>
      <trkpt lat="42.959672017022967" lon="-8.872737027704716">
        <ele>339.80000000000001</ele>
        <time>2018-05-19T07:16:19Z</time>
      </trkpt>
      <trkpt lat="42.959155021235347" lon="-8.872719006612897">
        <ele>339.39999999999998</ele>
        <time>2018-05-19T07:16:35Z</time>
      </trkpt>
      <trkpt lat="42.958770040422678" lon="-8.87270400300622">
        <ele>339</ele>
        <time>2018-05-19T07:16:46Z</time>
      </trkpt>
      <trkpt lat="42.957562040537596" lon="-8.872639965265989">
        <ele>339</ele>
        <time>2018-05-19T07:17:22Z</time>
      </trkpt>
      <trkpt lat="42.956564007326961" lon="-8.872633008286357">
        <ele>339.19999999999999</ele>
        <time>2018-05-19T07:17:51Z</time>
      </trkpt>
      <trkpt lat="42.956201992928982" lon="-8.872628984972835">
        <ele>339.39999999999998</ele>
        <time>2018-05-19T07:18:02Z</time>
      </trkpt>
      <trkpt lat="42.956190006807446" lon="-8.872621022164822">
        <ele>339.39999999999998</ele>
        <time>2018-05-19T07:18:02Z</time>
      </trkpt>
      <trkpt lat="42.956154970452189" lon="-8.872503004968166">
        <ele>339.60000000000002</ele>
        <time>2018-05-19T07:18:05Z</time>
      </trkpt>
      <trkpt lat="42.955882977694273" lon="-8.871468007564545">
        <ele>341.89999999999998</ele>
        <time>2018-05-19T07:18:29Z</time>
      </trkpt>
      <trkpt lat="42.955593969672918" lon="-8.87025598436594">
        <ele>346.5</ele>
        <time>2018-05-19T07:18:57Z</time>
      </trkpt>
      <trkpt lat="42.955226004123688" lon="-8.868839023634791">
        <ele>348.10000000000002</ele>
        <time>2018-05-19T07:19:29Z</time>
      </trkpt>
      <trkpt lat="42.955211000517011" lon="-8.868778003379703">
        <ele>348.19999999999999</ele>
        <time>2018-05-19T07:19:31Z</time>
      </trkpt>
      <trkpt lat="42.955198008567095" lon="-8.868712959811091">
        <ele>348.30000000000001</ele>
        <time>2018-05-19T07:19:32Z</time>
      </trkpt>
      <trkpt lat="42.954920986667275" lon="-8.86765499599278">
        <ele>350.10000000000002</ele>
        <time>2018-05-19T07:19:56Z</time>
      </trkpt>
      <trkpt lat="42.95473700389266" lon="-8.866942031309009">
        <ele>351.5</ele>
        <time>2018-05-19T07:20:13Z</time>
      </trkpt>
      <trkpt lat="42.954755024984479" lon="-8.866449007764459">
        <ele>350.5</ele>
        <time>2018-05-19T07:20:23Z</time>
      </trkpt>
      <trkpt lat="42.954919980838895" lon="-8.866075007244945">
        <ele>350.30000000000001</ele>
        <time>2018-05-19T07:20:33Z</time>
      </trkpt>
      <trkpt lat="42.955112010240555" lon="-8.865704024210572">
        <ele>350.69999999999999</ele>
        <time>2018-05-19T07:20:43Z</time>
      </trkpt>
      <trkpt lat="42.955283001065254" lon="-8.865387020632625">
        <ele>352</ele>
        <time>2018-05-19T07:20:51Z</time>
      </trkpt>
      <trkpt lat="42.955431025475264" lon="-8.865068005397916">
        <ele>351.19999999999999</ele>
        <time>2018-05-19T07:20:59Z</time>
      </trkpt>
      <trkpt lat="42.955581983551383" lon="-8.864780003204942">
        <ele>349.89999999999998</ele>
        <time>2018-05-19T07:21:07Z</time>
      </trkpt>
      <trkpt lat="42.955593969672918" lon="-8.864761982113123">
        <ele>349.89999999999998</ele>
        <time>2018-05-19T07:21:08Z</time>
      </trkpt>
      <trkpt lat="42.955605033785105" lon="-8.864748990163207">
        <ele>349.80000000000001</ele>
        <time>2018-05-19T07:21:08Z</time>
      </trkpt>
      <trkpt lat="42.95561701990664" lon="-8.864731974899769">
        <ele>349.80000000000001</ele>
        <time>2018-05-19T07:21:09Z</time>
      </trkpt>
      <trkpt lat="42.955625988543034" lon="-8.864706996828318">
        <ele>349.69999999999999</ele>
        <time>2018-05-19T07:21:09Z</time>
      </trkpt>
      <trkpt lat="42.955635040998459" lon="-8.864683024585247">
        <ele>349.60000000000002</ele>
        <time>2018-05-19T07:21:10Z</time>
      </trkpt>
      <trkpt lat="42.955817012116313" lon="-8.864297037944198">
        <ele>347.60000000000002</ele>
        <time>2018-05-19T07:21:20Z</time>
      </trkpt>
      <trkpt lat="42.955827992409468" lon="-8.864254960790277">
        <ele>347.30000000000001</ele>
        <time>2018-05-19T07:21:21Z</time>
      </trkpt>
      <trkpt lat="42.95583201572299" lon="-8.86398296803236">
        <ele>344.69999999999999</ele>
        <time>2018-05-19T07:21:27Z</time>
      </trkpt>
      <trkpt lat="42.955825980752707" lon="-8.86395899578929">
        <ele>344.5</ele>
        <time>2018-05-19T07:21:27Z</time>
      </trkpt>
      <trkpt lat="42.955799996852875" lon="-8.863907027989626">
        <ele>343.80000000000001</ele>
        <time>2018-05-19T07:21:29Z</time>
      </trkpt>
      <trkpt lat="42.955801002681255" lon="-8.863826980814338">
        <ele>343</ele>
        <time>2018-05-19T07:21:30Z</time>
      </trkpt>
      <trkpt lat="42.955790022388101" lon="-8.863808959722519">
        <ele>342.80000000000001</ele>
        <time>2018-05-19T07:21:31Z</time>
      </trkpt>
      <trkpt lat="42.955784993246198" lon="-8.86378800496459">
        <ele>342.60000000000002</ele>
        <time>2018-05-19T07:21:31Z</time>
      </trkpt>
      <trkpt lat="42.955776024609804" lon="-8.863770989701152">
        <ele>342.39999999999998</ele>
        <time>2018-05-19T07:21:32Z</time>
      </trkpt>
      <trkpt lat="42.955769989639521" lon="-8.863752968609333">
        <ele>342.10000000000002</ele>
        <time>2018-05-19T07:21:32Z</time>
      </trkpt>
      <trkpt lat="42.955729002133012" lon="-8.863587006926537">
        <ele>340.5</ele>
        <time>2018-05-19T07:21:36Z</time>
      </trkpt>
      <trkpt lat="42.955721961334348" lon="-8.863566974177957">
        <ele>340.30000000000001</ele>
        <time>2018-05-19T07:21:37Z</time>
      </trkpt>
      <trkpt lat="42.955730007961392" lon="-8.863395983353257">
        <ele>338.89999999999998</ele>
        <time>2018-05-19T07:21:40Z</time>
      </trkpt>
      <trkpt lat="42.955810977146029" lon="-8.863017959520221">
        <ele>336.89999999999998</ele>
        <time>2018-05-19T07:21:49Z</time>
      </trkpt>
      <trkpt lat="42.955925976857543" lon="-8.862577993422747">
        <ele>334.89999999999998</ele>
        <time>2018-05-19T07:21:59Z</time>
      </trkpt>
      <trkpt lat="42.955990014597774" lon="-8.86211397126317">
        <ele>332</ele>
        <time>2018-05-19T07:22:09Z</time>
      </trkpt>
      <trkpt lat="42.955997977405787" lon="-8.861638968810439">
        <ele>328</ele>
        <time>2018-05-19T07:22:20Z</time>
      </trkpt>
      <trkpt lat="42.955952966585755" lon="-8.861522963270545">
        <ele>326.30000000000001</ele>
        <time>2018-05-19T07:22:22Z</time>
      </trkpt>
      <trkpt lat="42.955948021262884" lon="-8.861506031826139">
        <ele>326.10000000000002</ele>
        <time>2018-05-19T07:22:23Z</time>
      </trkpt>
      <trkpt lat="42.955755991861224" lon="-8.861049972474575">
        <ele>320.89999999999998</ele>
        <time>2018-05-19T07:22:34Z</time>
      </trkpt>
      <trkpt lat="42.955604027956724" lon="-8.860697010532022">
        <ele>318.39999999999998</ele>
        <time>2018-05-19T07:22:43Z</time>
      </trkpt>
      <trkpt lat="42.955407975241542" lon="-8.860255032777786">
        <ele>315.69999999999999</ele>
        <time>2018-05-19T07:22:54Z</time>
      </trkpt>
      <trkpt lat="42.955203959718347" lon="-8.859773995354772">
        <ele>313.80000000000001</ele>
        <time>2018-05-19T07:23:06Z</time>
      </trkpt>
      <trkpt lat="42.954889973625541" lon="-8.859202014282346">
        <ele>313.10000000000002</ele>
        <time>2018-05-19T07:23:22Z</time>
      </trkpt>
      <trkpt lat="42.954570036381483" lon="-8.859095983207226">
        <ele>313</ele>
        <time>2018-05-19T07:23:32Z</time>
      </trkpt>
      <trkpt lat="42.954527037218213" lon="-8.859109980985522">
        <ele>313</ele>
        <time>2018-05-19T07:23:33Z</time>
      </trkpt>
      <trkpt lat="42.954066032543778" lon="-8.859376022592187">
        <ele>313</ele>
        <time>2018-05-19T07:23:48Z</time>
      </trkpt>
      <trkpt lat="42.953910967335105" lon="-8.859495967626572">
        <ele>312.89999999999998</ele>
        <time>2018-05-19T07:23:53Z</time>
      </trkpt>
      <trkpt lat="42.953893030062318" lon="-8.859499990940094">
        <ele>312.89999999999998</ele>
        <time>2018-05-19T07:23:54Z</time>
      </trkpt>
      <trkpt lat="42.953515006229281" lon="-8.859371999278665">
        <ele>314.89999999999998</ele>
        <time>2018-05-19T07:24:05Z</time>
      </trkpt>
      <trkpt lat="42.952810004353523" lon="-8.859172007068992">
        <ele>317.19999999999999</ele>
        <time>2018-05-19T07:24:26Z</time>
      </trkpt>
      <trkpt lat="42.95205102302134" lon="-8.858945025131106">
        <ele>315.39999999999998</ele>
        <time>2018-05-19T07:24:49Z</time>
      </trkpt>
      <trkpt lat="42.951483987271786" lon="-8.858784008771181">
        <ele>314.30000000000001</ele>
        <time>2018-05-19T07:25:07Z</time>
      </trkpt>
      <trkpt lat="42.951008984819055" lon="-8.85863003320992">
        <ele>313.80000000000001</ele>
        <time>2018-05-19T07:25:21Z</time>
      </trkpt>
      <trkpt lat="42.950471034273505" lon="-8.858464993536472">
        <ele>312.30000000000001</ele>
        <time>2018-05-19T07:25:37Z</time>
      </trkpt>
      <trkpt lat="42.950112959370017" lon="-8.858054028823972">
        <ele>312.30000000000001</ele>
        <time>2018-05-19T07:25:51Z</time>
      </trkpt>
      <trkpt lat="42.949892012402415" lon="-8.857467966154218">
        <ele>313.69999999999999</ele>
        <time>2018-05-19T07:26:05Z</time>
      </trkpt>
      <trkpt lat="42.949857981875539" lon="-8.857410969212651">
        <ele>313.69999999999999</ele>
        <time>2018-05-19T07:26:07Z</time>
      </trkpt>
      <trkpt lat="42.949824035167694" lon="-8.857352966442704">
        <ele>313.69999999999999</ele>
        <time>2018-05-19T07:26:09Z</time>
      </trkpt>
      <trkpt lat="42.949781036004424" lon="-8.857297981157899">
        <ele>313.60000000000002</ele>
        <time>2018-05-19T07:26:10Z</time>
      </trkpt>
      <trkpt lat="42.949738958850503" lon="-8.857250958681107">
        <ele>313.5</ele>
        <time>2018-05-19T07:26:12Z</time>
      </trkpt>
      <trkpt lat="42.949549024924636" lon="-8.857121039181948">
        <ele>312.80000000000001</ele>
        <time>2018-05-19T07:26:18Z</time>
      </trkpt>
      <trkpt lat="42.948826001957059" lon="-8.856721976771951">
        <ele>314.80000000000001</ele>
        <time>2018-05-19T07:26:41Z</time>
      </trkpt>
      <trkpt lat="42.948315041139722" lon="-8.856279999017716">
        <ele>315.30000000000001</ele>
        <time>2018-05-19T07:26:59Z</time>
      </trkpt>
      <trkpt lat="42.947697965428233" lon="-8.855890994891524">
        <ele>318.30000000000001</ele>
        <time>2018-05-19T07:27:19Z</time>
      </trkpt>
      <trkpt lat="42.947080973535776" lon="-8.855598969385028">
        <ele>327.69999999999999</ele>
        <time>2018-05-19T07:27:39Z</time>
      </trkpt>
      <trkpt lat="42.946541011333466" lon="-8.855355978012085">
        <ele>322</ele>
        <time>2018-05-19T07:27:56Z</time>
      </trkpt>
      <trkpt lat="42.946494994685054" lon="-8.855334017425776">
        <ele>321.5</ele>
        <time>2018-05-19T07:27:57Z</time>
      </trkpt>
      <trkpt lat="42.946450989693403" lon="-8.855310967192054">
        <ele>321</ele>
        <time>2018-05-19T07:27:59Z</time>
      </trkpt>
      <trkpt lat="42.946405978873372" lon="-8.855288000777364">
        <ele>320.5</ele>
        <time>2018-05-19T07:28:00Z</time>
      </trkpt>
      <trkpt lat="42.946365997195244" lon="-8.855249024927616">
        <ele>320.19999999999999</ele>
        <time>2018-05-19T07:28:02Z</time>
      </trkpt>
      <trkpt lat="42.946126023307443" lon="-8.854909976944327">
        <ele>320.10000000000002</ele>
        <time>2018-05-19T07:28:12Z</time>
      </trkpt>
      <trkpt lat="42.945622019469738" lon="-8.854113025590777">
        <ele>322.30000000000001</ele>
        <time>2018-05-19T07:28:35Z</time>
      </trkpt>
      <trkpt lat="42.945250030606985" lon="-8.853516988456249">
        <ele>325.39999999999998</ele>
        <time>2018-05-19T07:28:52Z</time>
      </trkpt>
      <trkpt lat="42.945128995925188" lon="-8.853315990418196">
        <ele>326.19999999999999</ele>
        <time>2018-05-19T07:28:57Z</time>
      </trkpt>
      <trkpt lat="42.944730017334223" lon="-8.852620040997863">
        <ele>328</ele>
        <time>2018-05-19T07:29:16Z</time>
      </trkpt>
      <trkpt lat="42.944392981007695" lon="-8.851915961131454">
        <ele>330.10000000000002</ele>
        <time>2018-05-19T07:29:35Z</time>
      </trkpt>
      <trkpt lat="42.944097016006708" lon="-8.851218000054359">
        <ele>332.39999999999998</ele>
        <time>2018-05-19T07:29:52Z</time>
      </trkpt>
      <trkpt lat="42.944043036550283" lon="-8.851062012836337">
        <ele>333.19999999999999</ele>
        <time>2018-05-19T07:29:56Z</time>
      </trkpt>
      <trkpt lat="42.94399400241673" lon="-8.850902002304792">
        <ele>334</ele>
        <time>2018-05-19T07:30:00Z</time>
      </trkpt>
      <trkpt lat="42.943939017131925" lon="-8.850370002910495">
        <ele>336.19999999999999</ele>
        <time>2018-05-19T07:30:11Z</time>
      </trkpt>
      <trkpt lat="42.94392803683877" lon="-8.849856024608016">
        <ele>340.10000000000002</ele>
        <time>2018-05-19T07:30:22Z</time>
      </trkpt>
      <trkpt lat="42.943941028788686" lon="-8.849229980260134">
        <ele>347.19999999999999</ele>
        <time>2018-05-19T07:30:36Z</time>
      </trkpt>
      <trkpt lat="42.943959971889853" lon="-8.848778028041124">
        <ele>353.60000000000002</ele>
        <time>2018-05-19T07:30:46Z</time>
      </trkpt>
      <trkpt lat="42.943969024345279" lon="-8.848620029166341">
        <ele>354.80000000000001</ele>
        <time>2018-05-19T07:30:50Z</time>
      </trkpt>
      <trkpt lat="42.943983022123575" lon="-8.848465969786048">
        <ele>355.69999999999999</ele>
        <time>2018-05-19T07:30:53Z</time>
      </trkpt>
      <trkpt lat="42.944012023508549" lon="-8.84831702336669">
        <ele>356.30000000000001</ele>
        <time>2018-05-19T07:30:56Z</time>
      </trkpt>
      <trkpt lat="42.944066002964973" lon="-8.848175033926964">
        <ele>356.19999999999999</ele>
        <time>2018-05-19T07:31:00Z</time>
      </trkpt>
      <trkpt lat="42.944221990182996" lon="-8.847937993705273">
        <ele>354.69999999999999</ele>
        <time>2018-05-19T07:31:07Z</time>
      </trkpt>
      <trkpt lat="42.944306982681155" lon="-8.847828023135662">
        <ele>354.19999999999999</ele>
        <time>2018-05-19T07:31:10Z</time>
      </trkpt>
      <trkpt lat="42.944372026249766" lon="-8.8477380014956">
        <ele>354.19999999999999</ele>
        <time>2018-05-19T07:31:13Z</time>
      </trkpt>
      <trkpt lat="42.944427011534572" lon="-8.847636999562383">
        <ele>354.80000000000001</ele>
        <time>2018-05-19T07:31:16Z</time>
      </trkpt>
      <trkpt lat="42.944446038454771" lon="-8.847526023164392">
        <ele>356.19999999999999</ele>
        <time>2018-05-19T07:31:18Z</time>
      </trkpt>
      <trkpt lat="42.944456012919545" lon="-8.847411023452878">
        <ele>357.89999999999998</ele>
        <time>2018-05-19T07:31:21Z</time>
      </trkpt>
      <trkpt lat="42.944432962685823" lon="-8.847284037619829">
        <ele>360.30000000000001</ele>
        <time>2018-05-19T07:31:24Z</time>
      </trkpt>
      <trkpt lat="42.944392981007695" lon="-8.847166020423174">
        <ele>362.60000000000002</ele>
        <time>2018-05-19T07:31:26Z</time>
      </trkpt>
      <trkpt lat="42.944333972409368" lon="-8.847058983519673">
        <ele>364.69999999999999</ele>
        <time>2018-05-19T07:31:29Z</time>
      </trkpt>
      <trkpt lat="42.944269012659788" lon="-8.846976002678275">
        <ele>366.30000000000001</ele>
        <time>2018-05-19T07:31:32Z</time>
      </trkpt>
      <trkpt lat="42.944199023768306" lon="-8.846925962716341">
        <ele>367.60000000000002</ele>
        <time>2018-05-19T07:31:34Z</time>
      </trkpt>
      <trkpt lat="42.944118976593018" lon="-8.84690199047327">
        <ele>368.60000000000002</ele>
        <time>2018-05-19T07:31:37Z</time>
      </trkpt>
      <trkpt lat="42.943850001320243" lon="-8.846942977979779">
        <ele>370.69999999999999</ele>
        <time>2018-05-19T07:31:45Z</time>
      </trkpt>
      <trkpt lat="42.943753022700548" lon="-8.846962004899979">
        <ele>371.39999999999998</ele>
        <time>2018-05-19T07:31:48Z</time>
      </trkpt>
      <trkpt lat="42.943324958905578" lon="-8.846978014335036">
        <ele>376.5</ele>
        <time>2018-05-19T07:32:01Z</time>
      </trkpt>
      <trkpt lat="42.942879041656852" lon="-8.846955969929695">
        <ele>381.89999999999998</ele>
        <time>2018-05-19T07:32:14Z</time>
      </trkpt>
      <trkpt lat="42.94244796037674" lon="-8.846924034878612">
        <ele>385.5</ele>
        <time>2018-05-19T07:32:27Z</time>
      </trkpt>
      <trkpt lat="42.942036995664239" lon="-8.846888998523355">
        <ele>388.60000000000002</ele>
        <time>2018-05-19T07:32:39Z</time>
      </trkpt>
      <trkpt lat="42.941478006541729" lon="-8.846717001870275">
        <ele>390</ele>
        <time>2018-05-19T07:32:56Z</time>
      </trkpt>
      <trkpt lat="42.940867971628904" lon="-8.846423970535398">
        <ele>392.30000000000001</ele>
        <time>2018-05-19T07:33:15Z</time>
      </trkpt>
      <trkpt lat="42.940487014129758" lon="-8.846241999417543">
        <ele>393.69999999999999</ele>
        <time>2018-05-19T07:33:27Z</time>
      </trkpt>
      <trkpt lat="42.940325997769833" lon="-8.8461699988693">
        <ele>394.80000000000001</ele>
        <time>2018-05-19T07:33:32Z</time>
      </trkpt>
      <trkpt lat="42.939701965078712" lon="-8.845884008333087">
        <ele>401.19999999999999</ele>
        <time>2018-05-19T07:33:51Z</time>
      </trkpt>
      <trkpt lat="42.939601968973875" lon="-8.845834974199534">
        <ele>402.30000000000001</ele>
        <time>2018-05-19T07:33:55Z</time>
      </trkpt>
      <trkpt lat="42.939499039202929" lon="-8.845775965601206">
        <ele>403.10000000000002</ele>
        <time>2018-05-19T07:33:58Z</time>
      </trkpt>
      <trkpt lat="42.939397031441331" lon="-8.845701031386852">
        <ele>403.89999999999998</ele>
        <time>2018-05-19T07:34:01Z</time>
      </trkpt>
      <trkpt lat="42.939301980659366" lon="-8.845612015575171">
        <ele>404.60000000000002</ele>
        <time>2018-05-19T07:34:05Z</time>
      </trkpt>
      <trkpt lat="42.939217993989587" lon="-8.845511013641954">
        <ele>405.19999999999999</ele>
        <time>2018-05-19T07:34:08Z</time>
      </trkpt>
      <trkpt lat="42.939020013436675" lon="-8.845168026164174">
        <ele>406.30000000000001</ele>
        <time>2018-05-19T07:34:18Z</time>
      </trkpt>
      <trkpt lat="42.938956981524825" lon="-8.845060989260674">
        <ele>406.80000000000001</ele>
        <time>2018-05-19T07:34:21Z</time>
      </trkpt>
      <trkpt lat="42.9386440012604" lon="-8.844734011217952">
        <ele>409.60000000000002</ele>
        <time>2018-05-19T07:34:32Z</time>
      </trkpt>
      <trkpt lat="42.938561020419002" lon="-8.844663016498089">
        <ele>410.10000000000002</ele>
        <time>2018-05-19T07:34:35Z</time>
      </trkpt>
      <trkpt lat="42.938233036547899" lon="-8.844378031790257">
        <ele>412</ele>
        <time>2018-05-19T07:34:47Z</time>
      </trkpt>
      <trkpt lat="42.9379359818995" lon="-8.844089023768902">
        <ele>414.39999999999998</ele>
        <time>2018-05-19T07:34:57Z</time>
      </trkpt>
      <trkpt lat="42.937873033806682" lon="-8.844005959108472">
        <ele>414.89999999999998</ele>
        <time>2018-05-19T07:35:00Z</time>
      </trkpt>
      <trkpt lat="42.937815031036735" lon="-8.843920966610313">
        <ele>415.30000000000001</ele>
        <time>2018-05-19T07:35:03Z</time>
      </trkpt>
      <trkpt lat="42.937584025785327" lon="-8.84344001300633">
        <ele>417</ele>
        <time>2018-05-19T07:35:15Z</time>
      </trkpt>
      <trkpt lat="42.937157973647118" lon="-8.842692011967301">
        <ele>419.10000000000002</ele>
        <time>2018-05-19T07:35:36Z</time>
      </trkpt>
      <trkpt lat="42.936922023072839" lon="-8.842267971485853">
        <ele>419.30000000000001</ele>
        <time>2018-05-19T07:35:47Z</time>
      </trkpt>
      <trkpt lat="42.936649024486542" lon="-8.841531034559012">
        <ele>416.10000000000002</ele>
        <time>2018-05-19T07:36:05Z</time>
      </trkpt>
      <trkpt lat="42.936421036720276" lon="-8.840631991624832">
        <ele>414.30000000000001</ele>
        <time>2018-05-19T07:36:26Z</time>
      </trkpt>
      <trkpt lat="42.936336966231465" lon="-8.840394029393792">
        <ele>414.10000000000002</ele>
        <time>2018-05-19T07:36:31Z</time>
      </trkpt>
      <trkpt lat="42.936082994565368" lon="-8.839679975062609">
        <ele>415.39999999999998</ele>
        <time>2018-05-19T07:36:49Z</time>
      </trkpt>
      <trkpt lat="42.935847966000438" lon="-8.839035993441939">
        <ele>419</ele>
        <time>2018-05-19T07:37:04Z</time>
      </trkpt>
      <trkpt lat="42.935608997941017" lon="-8.838376002386212">
        <ele>421.69999999999999</ele>
        <time>2018-05-19T07:37:20Z</time>
      </trkpt>
      <trkpt lat="42.935415040701628" lon="-8.83778901770711">
        <ele>423.5</ele>
        <time>2018-05-19T07:37:34Z</time>
      </trkpt>
      <trkpt lat="42.935064006596804" lon="-8.836970021948218">
        <ele>427.19999999999999</ele>
        <time>2018-05-19T07:37:55Z</time>
      </trkpt>
      <trkpt lat="42.934591015800834" lon="-8.835937036201358">
        <ele>431.89999999999998</ele>
        <time>2018-05-19T07:38:21Z</time>
      </trkpt>
      <trkpt lat="42.934301001951098" lon="-8.834993988275528">
        <ele>431.80000000000001</ele>
        <time>2018-05-19T07:38:43Z</time>
      </trkpt>
      <trkpt lat="42.934179967269301" lon="-8.83433198556304">
        <ele>431.39999999999998</ele>
        <time>2018-05-19T07:38:58Z</time>
      </trkpt>
      <trkpt lat="42.934100003913045" lon="-8.833935018628836">
        <ele>432.19999999999999</ele>
        <time>2018-05-19T07:39:07Z</time>
      </trkpt>
      <trkpt lat="42.934079971164465" lon="-8.833626983687282">
        <ele>431.5</ele>
        <time>2018-05-19T07:39:14Z</time>
      </trkpt>
      <trkpt lat="42.93400302529335" lon="-8.833265975117683">
        <ele>429.39999999999998</ele>
        <time>2018-05-19T07:39:22Z</time>
      </trkpt>
      <trkpt lat="42.933922978118062" lon="-8.832808993756771">
        <ele>427.10000000000002</ele>
        <time>2018-05-19T07:39:32Z</time>
      </trkpt>
      <trkpt lat="42.933937981724739" lon="-8.832389982417226">
        <ele>425.89999999999998</ele>
        <time>2018-05-19T07:39:41Z</time>
      </trkpt>
      <trkpt lat="42.934032026678324" lon="-8.831936018541455">
        <ele>422.69999999999999</ele>
        <time>2018-05-19T07:39:51Z</time>
      </trkpt>
      <trkpt lat="42.933924989774823" lon="-8.831494962796569">
        <ele>421.69999999999999</ele>
        <time>2018-05-19T07:40:01Z</time>
      </trkpt>
      <trkpt lat="42.933748969808221" lon="-8.831163961440325">
        <ele>422.10000000000002</ele>
        <time>2018-05-19T07:40:10Z</time>
      </trkpt>
      <trkpt lat="42.933670012280345" lon="-8.831051979213953">
        <ele>421.30000000000001</ele>
        <time>2018-05-19T07:40:14Z</time>
      </trkpt>
      <trkpt lat="42.933641010895371" lon="-8.830478992313147">
        <ele>415.30000000000001</ele>
        <time>2018-05-19T07:40:26Z</time>
      </trkpt>
      <trkpt lat="42.93340003117919" lon="-8.829931989312172">
        <ele>412.5</ele>
        <time>2018-05-19T07:40:40Z</time>
      </trkpt>
      <trkpt lat="42.933105994015932" lon="-8.829332012683153">
        <ele>410.89999999999998</ele>
        <time>2018-05-19T07:40:56Z</time>
      </trkpt>
      <trkpt lat="42.932836012914777" lon="-8.828848041594029">
        <ele>409.10000000000002</ele>
        <time>2018-05-19T07:41:09Z</time>
      </trkpt>
      <trkpt lat="42.932587992399931" lon="-8.828396005555987">
        <ele>407.69999999999999</ele>
        <time>2018-05-19T07:41:21Z</time>
      </trkpt>
      <trkpt lat="42.932366039603949" lon="-8.828084031119943">
        <ele>406.89999999999998</ele>
        <time>2018-05-19T07:41:31Z</time>
      </trkpt>
      <trkpt lat="42.93215699493885" lon="-8.827724028378725">
        <ele>405.5</ele>
        <time>2018-05-19T07:41:41Z</time>
      </trkpt>
      <trkpt lat="42.932035038247705" lon="-8.827257994562388">
        <ele>403.5</ele>
        <time>2018-05-19T07:41:51Z</time>
      </trkpt>
      <trkpt lat="42.932017017155886" lon="-8.827191023156047">
        <ele>403.30000000000001</ele>
        <time>2018-05-19T07:41:53Z</time>
      </trkpt>
      <trkpt lat="42.931995978578925" lon="-8.827125979587436">
        <ele>403.10000000000002</ele>
        <time>2018-05-19T07:41:54Z</time>
      </trkpt>
      <trkpt lat="42.931972006335855" lon="-8.827064959332347">
        <ele>402.89999999999998</ele>
        <time>2018-05-19T07:41:56Z</time>
      </trkpt>
      <trkpt lat="42.931943004950881" lon="-8.82700796239078">
        <ele>402.80000000000001</ele>
        <time>2018-05-19T07:41:57Z</time>
      </trkpt>
      <trkpt lat="42.931909980252385" lon="-8.826955994591117">
        <ele>402.69999999999999</ele>
        <time>2018-05-19T07:41:59Z</time>
      </trkpt>
      <trkpt lat="42.931873016059399" lon="-8.826906038448215">
        <ele>402.60000000000002</ele>
        <time>2018-05-19T07:42:00Z</time>
      </trkpt>
      <trkpt lat="42.931836973875761" lon="-8.826863961294293">
        <ele>402.60000000000002</ele>
        <time>2018-05-19T07:42:02Z</time>
      </trkpt>
      <trkpt lat="42.931369012221694" lon="-8.826489038765431">
        <ele>402.69999999999999</ele>
        <time>2018-05-19T07:42:18Z</time>
      </trkpt>
      <trkpt lat="42.930743973702192" lon="-8.825467033311725">
        <ele>403</ele>
        <time>2018-05-19T07:42:47Z</time>
      </trkpt>
      <trkpt lat="42.930610030889511" lon="-8.825219012796879">
        <ele>403.89999999999998</ele>
        <time>2018-05-19T07:42:53Z</time>
      </trkpt>
      <trkpt lat="42.93030702508986" lon="-8.824634039774537">
        <ele>404.89999999999998</ele>
        <time>2018-05-19T07:43:09Z</time>
      </trkpt>
      <trkpt lat="42.930155983194709" lon="-8.824249980971217">
        <ele>406</ele>
        <time>2018-05-19T07:43:18Z</time>
      </trkpt>
      <trkpt lat="42.930179033428431" lon="-8.823826024308801">
        <ele>406</ele>
        <time>2018-05-19T07:43:28Z</time>
      </trkpt>
      <trkpt lat="42.930333008989692" lon="-8.823424028232694">
        <ele>403.89999999999998</ele>
        <time>2018-05-19T07:43:37Z</time>
      </trkpt>
      <trkpt lat="42.930508023127913" lon="-8.82307299412787">
        <ele>402.60000000000002</ele>
        <time>2018-05-19T07:43:47Z</time>
      </trkpt>
      <trkpt lat="42.930675996467471" lon="-8.82277199998498">
        <ele>402.69999999999999</ele>
        <time>2018-05-19T07:43:55Z</time>
      </trkpt>
      <trkpt lat="42.930773980915546" lon="-8.822553986683488">
        <ele>402.69999999999999</ele>
        <time>2018-05-19T07:44:00Z</time>
      </trkpt>
      <trkpt lat="42.930785967037082" lon="-8.82253797724843">
        <ele>402.60000000000002</ele>
        <time>2018-05-19T07:44:01Z</time>
      </trkpt>
      <trkpt lat="42.930792002007365" lon="-8.822525991126895">
        <ele>402.60000000000002</ele>
        <time>2018-05-19T07:44:01Z</time>
      </trkpt>
      <trkpt lat="42.930809017270803" lon="-8.822488021105528">
        <ele>402.5</ele>
        <time>2018-05-19T07:44:02Z</time>
      </trkpt>
      <trkpt lat="42.930827960371971" lon="-8.822359023615718">
        <ele>402.39999999999998</ele>
        <time>2018-05-19T07:44:05Z</time>
      </trkpt>
      <trkpt lat="42.930830977857113" lon="-8.82234301418066">
        <ele>402.30000000000001</ele>
        <time>2018-05-19T07:44:05Z</time>
      </trkpt>
      <trkpt lat="42.930838018655777" lon="-8.822303032502532">
        <ele>402.19999999999999</ele>
        <time>2018-05-19T07:44:06Z</time>
      </trkpt>
      <trkpt lat="42.930898033082485" lon="-8.821917967870832">
        <ele>400.80000000000001</ele>
        <time>2018-05-19T07:44:15Z</time>
      </trkpt>
      <trkpt lat="42.930957041680813" lon="-8.821510020643473">
        <ele>398.19999999999999</ele>
        <time>2018-05-19T07:44:24Z</time>
      </trkpt>
      <trkpt lat="42.931054020300508" lon="-8.820760007947683">
        <ele>393.5</ele>
        <time>2018-05-19T07:44:40Z</time>
      </trkpt>
      <trkpt lat="42.931090984493494" lon="-8.820256004109979">
        <ele>391.30000000000001</ele>
        <time>2018-05-19T07:44:51Z</time>
      </trkpt>
      <trkpt lat="42.931439001113176" lon="-8.81965896114707">
        <ele>386.60000000000002</ele>
        <time>2018-05-19T07:45:08Z</time>
      </trkpt>
      <trkpt lat="42.931754998862743" lon="-8.819223018363118">
        <ele>385.39999999999998</ele>
        <time>2018-05-19T07:45:21Z</time>
      </trkpt>
      <trkpt lat="42.932164035737514" lon="-8.818662017583847">
        <ele>382.60000000000002</ele>
        <time>2018-05-19T07:45:38Z</time>
      </trkpt>
      <trkpt lat="42.932335026562214" lon="-8.818106967955828">
        <ele>383.69999999999999</ele>
        <time>2018-05-19T07:45:52Z</time>
      </trkpt>
      <trkpt lat="42.932203011587262" lon="-8.817456029355526">
        <ele>385.80000000000001</ele>
        <time>2018-05-19T07:46:06Z</time>
      </trkpt>
      <trkpt lat="42.932097986340523" lon="-8.816877007484436">
        <ele>386</ele>
        <time>2018-05-19T07:46:19Z</time>
      </trkpt>
      <trkpt lat="42.932076025754213" lon="-8.81619798950851">
        <ele>383.80000000000001</ele>
        <time>2018-05-19T07:46:34Z</time>
      </trkpt>
      <trkpt lat="42.932039983570576" lon="-8.815391985699534">
        <ele>379.30000000000001</ele>
        <time>2018-05-19T07:46:51Z</time>
      </trkpt>
      <trkpt lat="42.931902017444372" lon="-8.814679021015763">
        <ele>374.80000000000001</ele>
        <time>2018-05-19T07:47:07Z</time>
      </trkpt>
      <trkpt lat="42.931545032188296" lon="-8.81413796916604">
        <ele>373.80000000000001</ele>
        <time>2018-05-19T07:47:23Z</time>
      </trkpt>
      <trkpt lat="42.931307991966605" lon="-8.813723986968398">
        <ele>371.5</ele>
        <time>2018-05-19T07:47:35Z</time>
      </trkpt>
      <trkpt lat="42.931354008615017" lon="-8.812290010973811">
        <ele>368.10000000000002</ele>
        <time>2018-05-19T07:48:06Z</time>
      </trkpt>
      <trkpt lat="42.9312339797616" lon="-8.811411000788212">
        <ele>371.89999999999998</ele>
        <time>2018-05-19T07:48:25Z</time>
      </trkpt>
      <trkpt lat="42.930999035015702" lon="-8.810660988092423">
        <ele>375.89999999999998</ele>
        <time>2018-05-19T07:48:43Z</time>
      </trkpt>
      <trkpt lat="42.931114034727216" lon="-8.809823971241713">
        <ele>369.69999999999999</ele>
        <time>2018-05-19T07:49:01Z</time>
      </trkpt>
      <trkpt lat="42.930985959246755" lon="-8.809348968788981">
        <ele>371.30000000000001</ele>
        <time>2018-05-19T07:49:12Z</time>
      </trkpt>
      <trkpt lat="42.930498970672488" lon="-8.808930041268468">
        <ele>381.19999999999999</ele>
        <time>2018-05-19T07:49:30Z</time>
      </trkpt>
      <trkpt lat="42.930129999294877" lon="-8.808716973289847">
        <ele>382.5</ele>
        <time>2018-05-19T07:49:41Z</time>
      </trkpt>
      <trkpt lat="42.929783994331956" lon="-8.80861203186214">
        <ele>382.80000000000001</ele>
        <time>2018-05-19T07:49:52Z</time>
      </trkpt>
      <trkpt lat="42.929711993783712" lon="-8.808601973578334">
        <ele>383.30000000000001</ele>
        <time>2018-05-19T07:49:54Z</time>
      </trkpt>
      <trkpt lat="42.929499009624124" lon="-8.808499965816736">
        <ele>383.5</ele>
        <time>2018-05-19T07:50:01Z</time>
      </trkpt>
      <trkpt lat="42.929214024916291" lon="-8.80809998139739">
        <ele>380.60000000000002</ele>
        <time>2018-05-19T07:50:13Z</time>
      </trkpt>
      <trkpt lat="42.929155016317964" lon="-8.807481983676553">
        <ele>374.5</ele>
        <time>2018-05-19T07:50:26Z</time>
      </trkpt>
      <trkpt lat="42.929128026589751" lon="-8.807372013106942">
        <ele>374.39999999999998</ele>
        <time>2018-05-19T07:50:29Z</time>
      </trkpt>
      <trkpt lat="42.929044039919972" lon="-8.806908996775746">
        <ele>375.39999999999998</ele>
        <time>2018-05-19T07:50:39Z</time>
      </trkpt>
      <trkpt lat="42.928873971104622" lon="-8.806366017088294">
        <ele>383.89999999999998</ele>
        <time>2018-05-19T07:50:52Z</time>
      </trkpt>
      <trkpt lat="42.928668027743697" lon="-8.80590601824224">
        <ele>385.19999999999999</ele>
        <time>2018-05-19T07:51:04Z</time>
      </trkpt>
      <trkpt lat="42.928660986945033" lon="-8.805877016857266">
        <ele>384.80000000000001</ele>
        <time>2018-05-19T07:51:05Z</time>
      </trkpt>
      <trkpt lat="42.928543975576758" lon="-8.805525982752442">
        <ele>381.5</ele>
        <time>2018-05-19T07:51:13Z</time>
      </trkpt>
      <trkpt lat="42.928489996120334" lon="-8.805365972220898">
        <ele>380.19999999999999</ele>
        <time>2018-05-19T07:51:17Z</time>
      </trkpt>
      <trkpt lat="42.928250022232533" lon="-8.804798014461994">
        <ele>377.30000000000001</ele>
        <time>2018-05-19T07:51:31Z</time>
      </trkpt>
      <trkpt lat="42.928194031119347" lon="-8.804676979780197">
        <ele>376.69999999999999</ele>
        <time>2018-05-19T07:51:34Z</time>
      </trkpt>
      <trkpt lat="42.927979035302997" lon="-8.804175993427634">
        <ele>374.10000000000002</ele>
        <time>2018-05-19T07:51:47Z</time>
      </trkpt>
      <trkpt lat="42.927784994244576" lon="-8.803737033158541">
        <ele>369.10000000000002</ele>
        <time>2018-05-19T07:51:58Z</time>
      </trkpt>
      <trkpt lat="42.927496992051601" lon="-8.803582973778248">
        <ele>367.60000000000002</ele>
        <time>2018-05-19T07:52:07Z</time>
      </trkpt>
      <trkpt lat="42.927273027598858" lon="-8.803546009585261">
        <ele>368.60000000000002</ele>
        <time>2018-05-19T07:52:14Z</time>
      </trkpt>
      <trkpt lat="42.926990976557136" lon="-8.803511979058385">
        <ele>370.69999999999999</ele>
        <time>2018-05-19T07:52:22Z</time>
      </trkpt>
      <trkpt lat="42.926640026271343" lon="-8.803338976576924">
        <ele>371.89999999999998</ele>
        <time>2018-05-19T07:52:33Z</time>
      </trkpt>
      <trkpt lat="42.926276000216603" lon="-8.803018033504486">
        <ele>372.30000000000001</ele>
        <time>2018-05-19T07:52:46Z</time>
      </trkpt>
      <trkpt lat="42.926001995801926" lon="-8.802673034369946">
        <ele>368.10000000000002</ele>
        <time>2018-05-19T07:52:57Z</time>
      </trkpt>
      <trkpt lat="42.925681974738836" lon="-8.80236298777163">
        <ele>365.30000000000001</ele>
        <time>2018-05-19T07:53:09Z</time>
      </trkpt>
      <trkpt lat="42.925320966169238" lon="-8.802114967256784">
        <ele>365</ele>
        <time>2018-05-19T07:53:21Z</time>
      </trkpt>
      <trkpt lat="42.924971021711826" lon="-8.801635019481182">
        <ele>360.5</ele>
        <time>2018-05-19T07:53:35Z</time>
      </trkpt>
      <trkpt lat="42.924948977306485" lon="-8.801585985347629">
        <ele>360.10000000000002</ele>
        <time>2018-05-19T07:53:37Z</time>
      </trkpt>
      <trkpt lat="42.924861973151565" lon="-8.801234029233456">
        <ele>356.19999999999999</ele>
        <time>2018-05-19T07:53:45Z</time>
      </trkpt>
      <trkpt lat="42.924843030050397" lon="-8.801124980673194">
        <ele>356.10000000000002</ele>
        <time>2018-05-19T07:53:47Z</time>
      </trkpt>
      <trkpt lat="42.92474303394556" lon="-8.800285030156374">
        <ele>354.69999999999999</ele>
        <time>2018-05-19T07:54:06Z</time>
      </trkpt>
      <trkpt lat="42.924739010632038" lon="-8.800229961052537">
        <ele>354.5</ele>
        <time>2018-05-19T07:54:07Z</time>
      </trkpt>
      <trkpt lat="42.924682013690472" lon="-8.799519008025527">
        <ele>351.69999999999999</ele>
        <time>2018-05-19T07:54:22Z</time>
      </trkpt>
      <trkpt lat="42.924557039514184" lon="-8.798397006466985">
        <ele>338.80000000000001</ele>
        <time>2018-05-19T07:54:47Z</time>
      </trkpt>
      <trkpt lat="42.92454999871552" lon="-8.797128992155194">
        <ele>332.19999999999999</ele>
        <time>2018-05-19T07:55:15Z</time>
      </trkpt>
      <trkpt lat="42.92452996596694" lon="-8.796633034944534">
        <ele>332</ele>
        <time>2018-05-19T07:55:26Z</time>
      </trkpt>
      <trkpt lat="42.924382025375962" lon="-8.795835999771953">
        <ele>330.30000000000001</ele>
        <time>2018-05-19T07:55:43Z</time>
      </trkpt>
      <trkpt lat="42.924212962388992" lon="-8.79456396214664">
        <ele>326.19999999999999</ele>
        <time>2018-05-19T07:56:11Z</time>
      </trkpt>
      <trkpt lat="42.924149008467793" lon="-8.793342970311642">
        <ele>326.39999999999998</ele>
        <time>2018-05-19T07:56:38Z</time>
      </trkpt>
      <trkpt lat="42.923876009881496" lon="-8.792365975677967">
        <ele>327.39999999999998</ele>
        <time>2018-05-19T07:57:01Z</time>
      </trkpt>
      <trkpt lat="42.923671994358301" lon="-8.79174797795713">
        <ele>330.10000000000002</ele>
        <time>2018-05-19T07:57:15Z</time>
      </trkpt>
      <trkpt lat="42.923536039888859" lon="-8.790922025218606">
        <ele>333.10000000000002</ele>
        <time>2018-05-19T07:57:34Z</time>
      </trkpt>
      <trkpt lat="42.923294976353645" lon="-8.790271002799273">
        <ele>333</ele>
        <time>2018-05-19T07:57:49Z</time>
      </trkpt>
      <trkpt lat="42.922812011092901" lon="-8.789731040596962">
        <ele>332.60000000000002</ele>
        <time>2018-05-19T07:58:08Z</time>
      </trkpt>
      <trkpt lat="42.922383025288582" lon="-8.789237011224031">
        <ele>330.89999999999998</ele>
        <time>2018-05-19T07:58:25Z</time>
      </trkpt>
      <trkpt lat="42.922026962041855" lon="-8.78882797434926">
        <ele>328.80000000000001</ele>
        <time>2018-05-19T07:58:38Z</time>
      </trkpt>
      <trkpt lat="42.921655979007483" lon="-8.788235038518906">
        <ele>327.5</ele>
        <time>2018-05-19T07:58:55Z</time>
      </trkpt>
      <trkpt lat="42.921445006504655" lon="-8.787888027727604">
        <ele>326.60000000000002</ele>
        <time>2018-05-19T07:59:05Z</time>
      </trkpt>
      <trkpt lat="42.92119899764657" lon="-8.787460969761014">
        <ele>325</ele>
        <time>2018-05-19T07:59:17Z</time>
      </trkpt>
      <trkpt lat="42.920893980190158" lon="-8.786928970366716">
        <ele>324.69999999999999</ele>
        <time>2018-05-19T07:59:31Z</time>
      </trkpt>
      <trkpt lat="42.920580999925733" lon="-8.786435024812818">
        <ele>325.5</ele>
        <time>2018-05-19T07:59:46Z</time>
      </trkpt>
      <trkpt lat="42.920281011611223" lon="-8.785974020138383">
        <ele>325.19999999999999</ele>
        <time>2018-05-19T07:59:59Z</time>
      </trkpt>
      <trkpt lat="42.920147990807891" lon="-8.785636983811855">
        <ele>323.69999999999999</ele>
        <time>2018-05-19T08:00:07Z</time>
      </trkpt>
      <trkpt lat="42.919843979179859" lon="-8.785340012982488">
        <ele>321.69999999999999</ele>
        <time>2018-05-19T08:00:18Z</time>
      </trkpt>
      <trkpt lat="42.91954499669373" lon="-8.785063996911049">
        <ele>318.60000000000002</ele>
        <time>2018-05-19T08:00:29Z</time>
      </trkpt>
      <trkpt lat="42.919405018910766" lon="-8.784961989149451">
        <ele>317.39999999999998</ele>
        <time>2018-05-19T08:00:34Z</time>
      </trkpt>
      <trkpt lat="42.919102013111115" lon="-8.784778006374836">
        <ele>315.60000000000002</ele>
        <time>2018-05-19T08:00:44Z</time>
      </trkpt>
      <trkpt lat="42.918987013399601" lon="-8.7846589833498">
        <ele>314.60000000000002</ele>
        <time>2018-05-19T08:00:48Z</time>
      </trkpt>
      <trkpt lat="42.91866104118526" lon="-8.784432001411915">
        <ele>311.30000000000001</ele>
        <time>2018-05-19T08:00:59Z</time>
      </trkpt>
      <trkpt lat="42.918161982670426" lon="-8.784079039469361">
        <ele>304.60000000000002</ele>
        <time>2018-05-19T08:01:15Z</time>
      </trkpt>
      <trkpt lat="42.917645992711186" lon="-8.783730017021298">
        <ele>302.89999999999998</ele>
        <time>2018-05-19T08:01:33Z</time>
      </trkpt>
      <trkpt lat="42.917283978313208" lon="-8.783399015665054">
        <ele>303.69999999999999</ele>
        <time>2018-05-19T08:01:45Z</time>
      </trkpt>
      <trkpt lat="42.917247014120221" lon="-8.783346964046359">
        <ele>303.60000000000002</ele>
        <time>2018-05-19T08:01:47Z</time>
      </trkpt>
      <trkpt lat="42.917010979726911" lon="-8.783033983781934">
        <ele>302.60000000000002</ele>
        <time>2018-05-19T08:01:57Z</time>
      </trkpt>
      <trkpt lat="42.916877958923578" lon="-8.782663000747562">
        <ele>300.69999999999999</ele>
        <time>2018-05-19T08:02:06Z</time>
      </trkpt>
      <trkpt lat="42.916825991123915" lon="-8.782223034650087">
        <ele>296.69999999999999</ele>
        <time>2018-05-19T08:02:15Z</time>
      </trkpt>
      <trkpt lat="42.916713003069162" lon="-8.78156597726047">
        <ele>290.69999999999999</ele>
        <time>2018-05-19T08:02:30Z</time>
      </trkpt>
      <trkpt lat="42.916578976437449" lon="-8.780826022848487">
        <ele>285</ele>
        <time>2018-05-19T08:02:47Z</time>
      </trkpt>
      <trkpt lat="42.916405973955989" lon="-8.780138958245516">
        <ele>282.10000000000002</ele>
        <time>2018-05-19T08:03:02Z</time>
      </trkpt>
      <trkpt lat="42.91602099314332" lon="-8.779154000803828">
        <ele>279</ele>
        <time>2018-05-19T08:03:27Z</time>
      </trkpt>
      <trkpt lat="42.9154849704355" lon="-8.777798982337117">
        <ele>277.60000000000002</ele>
        <time>2018-05-19T08:04:00Z</time>
      </trkpt>
      <trkpt lat="42.915222030133009" lon="-8.777103032916784">
        <ele>280.39999999999998</ele>
        <time>2018-05-19T08:04:17Z</time>
      </trkpt>
      <trkpt lat="42.91470997966826" lon="-8.775807023048401">
        <ele>283</ele>
        <time>2018-05-19T08:04:49Z</time>
      </trkpt>
      <trkpt lat="42.914288034662604" lon="-8.774756016209722">
        <ele>282.89999999999998</ele>
        <time>2018-05-19T08:05:15Z</time>
      </trkpt>
      <trkpt lat="42.914074966683984" lon="-8.774218987673521">
        <ele>284.19999999999999</ele>
        <time>2018-05-19T08:05:28Z</time>
      </trkpt>
      <trkpt lat="42.913771960884333" lon="-8.773525971919298">
        <ele>286.10000000000002</ele>
        <time>2018-05-19T08:05:46Z</time>
      </trkpt>
      <trkpt lat="42.913110964000225" lon="-8.772436995059252">
        <ele>287.5</ele>
        <time>2018-05-19T08:06:16Z</time>
      </trkpt>
      <trkpt lat="42.912737969309092" lon="-8.771849004551768">
        <ele>288.5</ele>
        <time>2018-05-19T08:06:33Z</time>
      </trkpt>
      <trkpt lat="42.912376960739493" lon="-8.771237963810563">
        <ele>289.80000000000001</ele>
        <time>2018-05-19T08:06:50Z</time>
      </trkpt>
      <trkpt lat="42.912017041817307" lon="-8.770632036030293">
        <ele>290.10000000000002</ele>
        <time>2018-05-19T08:07:07Z</time>
      </trkpt>
      <trkpt lat="42.911778995767236" lon="-8.770260969176889">
        <ele>290</ele>
        <time>2018-05-19T08:07:18Z</time>
      </trkpt>
      <trkpt lat="42.911768015474081" lon="-8.770187040790916">
        <ele>289.80000000000001</ele>
        <time>2018-05-19T08:07:19Z</time>
      </trkpt>
      <trkpt lat="42.911747982725501" lon="-8.770188968628645">
        <ele>289.80000000000001</ele>
        <time>2018-05-19T08:07:20Z</time>
      </trkpt>
      <trkpt lat="42.911662990227342" lon="-8.770030969753861">
        <ele>289.30000000000001</ele>
        <time>2018-05-19T08:07:24Z</time>
      </trkpt>
      <trkpt lat="42.911519994959235" lon="-8.769773980602622">
        <ele>288.60000000000002</ele>
        <time>2018-05-19T08:07:31Z</time>
      </trkpt>
      <trkpt lat="42.911414969712496" lon="-8.769492013379931">
        <ele>288</ele>
        <time>2018-05-19T08:07:38Z</time>
      </trkpt>
      <trkpt lat="42.911326959729195" lon="-8.76916503533721">
        <ele>287.10000000000002</ele>
        <time>2018-05-19T08:07:46Z</time>
      </trkpt>
      <trkpt lat="42.911286978051066" lon="-8.768992032855749">
        <ele>286.69999999999999</ele>
        <time>2018-05-19T08:07:50Z</time>
      </trkpt>
      <trkpt lat="42.911255965009332" lon="-8.768787011504173">
        <ele>286.10000000000002</ele>
        <time>2018-05-19T08:07:54Z</time>
      </trkpt>
      <trkpt lat="42.911213971674442" lon="-8.768478976562619">
        <ele>285.60000000000002</ele>
        <time>2018-05-19T08:08:01Z</time>
      </trkpt>
      <trkpt lat="42.911197040230036" lon="-8.768297005444765">
        <ele>285.19999999999999</ele>
        <time>2018-05-19T08:08:05Z</time>
      </trkpt>
      <trkpt lat="42.911192011088133" lon="-8.768173959106207">
        <ele>285</ele>
        <time>2018-05-19T08:08:08Z</time>
      </trkpt>
      <trkpt lat="42.911142976954579" lon="-8.767986036837101">
        <ele>284.80000000000001</ele>
        <time>2018-05-19T08:08:12Z</time>
      </trkpt>
      <trkpt lat="42.911126967519522" lon="-8.767831977456808">
        <ele>284.39999999999998</ele>
        <time>2018-05-19T08:08:15Z</time>
      </trkpt>
      <trkpt lat="42.911120010539889" lon="-8.767797024920583">
        <ele>284.30000000000001</ele>
        <time>2018-05-19T08:08:16Z</time>
      </trkpt>
      <trkpt lat="42.911094026640058" lon="-8.767667021602392">
        <ele>283.89999999999998</ele>
        <time>2018-05-19T08:08:19Z</time>
      </trkpt>
      <trkpt lat="42.911059996113181" lon="-8.767535006627441">
        <ele>283.60000000000002</ele>
        <time>2018-05-19T08:08:22Z</time>
      </trkpt>
      <trkpt lat="42.911047004163265" lon="-8.767374996095896">
        <ele>283</ele>
        <time>2018-05-19T08:08:26Z</time>
      </trkpt>
      <trkpt lat="42.911018002778292" lon="-8.767119012773037">
        <ele>282</ele>
        <time>2018-05-19T08:08:31Z</time>
      </trkpt>
      <trkpt lat="42.911024959757924" lon="-8.766976017504931">
        <ele>280.80000000000001</ele>
        <time>2018-05-19T08:08:34Z</time>
      </trkpt>
      <trkpt lat="42.911043986678123" lon="-8.766905022785068">
        <ele>280</ele>
        <time>2018-05-19T08:08:36Z</time>
      </trkpt>
      <trkpt lat="42.911039041355252" lon="-8.766775019466877">
        <ele>278.80000000000001</ele>
        <time>2018-05-19T08:08:39Z</time>
      </trkpt>
      <trkpt lat="42.911061001941562" lon="-8.766548959538341">
        <ele>276.60000000000002</ele>
        <time>2018-05-19T08:08:44Z</time>
      </trkpt>
      <trkpt lat="42.911070976406336" lon="-8.766380986198783">
        <ele>275</ele>
        <time>2018-05-19T08:08:47Z</time>
      </trkpt>
      <trkpt lat="42.911082040518522" lon="-8.766174037009478">
        <ele>273.39999999999998</ele>
        <time>2018-05-19T08:08:52Z</time>
      </trkpt>
      <trkpt lat="42.911125961691141" lon="-8.765967004001141">
        <ele>272.39999999999998</ele>
        <time>2018-05-19T08:08:57Z</time>
      </trkpt>
      <trkpt lat="42.911129985004663" lon="-8.765800036489964">
        <ele>271.60000000000002</ele>
        <time>2018-05-19T08:09:00Z</time>
      </trkpt>
      <trkpt lat="42.911157980561256" lon="-8.765698028728366">
        <ele>271.19999999999999</ele>
        <time>2018-05-19T08:09:03Z</time>
      </trkpt>
      <trkpt lat="42.911154041066766" lon="-8.765456965193152">
        <ele>270</ele>
        <time>2018-05-19T08:09:08Z</time>
      </trkpt>
      <trkpt lat="42.911176001653075" lon="-8.765397034585476">
        <ele>269.80000000000001</ele>
        <time>2018-05-19T08:09:09Z</time>
      </trkpt>
      <trkpt lat="42.911196034401655" lon="-8.765264013782144">
        <ele>269.60000000000002</ele>
        <time>2018-05-19T08:09:12Z</time>
      </trkpt>
      <trkpt lat="42.911226963624358" lon="-8.765104003250599">
        <ele>269.19999999999999</ele>
        <time>2018-05-19T08:09:16Z</time>
      </trkpt>
      <trkpt lat="42.911242973059416" lon="-8.764880038797855">
        <ele>268.69999999999999</ele>
        <time>2018-05-19T08:09:21Z</time>
      </trkpt>
      <trkpt lat="42.911160998046398" lon="-8.764597987756133">
        <ele>268.19999999999999</ele>
        <time>2018-05-19T08:09:27Z</time>
      </trkpt>
      <trkpt lat="42.911061001941562" lon="-8.76439698971808">
        <ele>267.10000000000002</ele>
        <time>2018-05-19T08:09:33Z</time>
      </trkpt>
      <trkpt lat="42.910893028602004" lon="-8.76420202665031">
        <ele>266.39999999999998</ele>
        <time>2018-05-19T08:09:39Z</time>
      </trkpt>
      <trkpt lat="42.910881964489818" lon="-8.764133965596557">
        <ele>266.10000000000002</ele>
        <time>2018-05-19T08:09:41Z</time>
      </trkpt>
      <trkpt lat="42.910843994468451" lon="-8.764115022495389">
        <ele>266.10000000000002</ele>
        <time>2018-05-19T08:09:42Z</time>
      </trkpt>
      <trkpt lat="42.910790015012026" lon="-8.764034975320101">
        <ele>266</ele>
        <time>2018-05-19T08:09:44Z</time>
      </trkpt>
      <trkpt lat="42.910689013078809" lon="-8.76390497200191">
        <ele>265.80000000000001</ele>
        <time>2018-05-19T08:09:48Z</time>
      </trkpt>
      <trkpt lat="42.910622041672468" lon="-8.763776980340481">
        <ele>265.69999999999999</ele>
        <time>2018-05-19T08:09:52Z</time>
      </trkpt>
      <trkpt lat="42.910493966192007" lon="-8.763523008674383">
        <ele>263.5</ele>
        <time>2018-05-19T08:09:58Z</time>
      </trkpt>
      <trkpt lat="42.910482985898852" lon="-8.763513034209609">
        <ele>263.5</ele>
        <time>2018-05-19T08:09:59Z</time>
      </trkpt>
      <trkpt lat="42.91047602891922" lon="-8.763483026996255">
        <ele>263.10000000000002</ele>
        <time>2018-05-19T08:09:59Z</time>
      </trkpt>
      <trkpt lat="42.910406962037086" lon="-8.763195024803281">
        <ele>259.69999999999999</ele>
        <time>2018-05-19T08:10:06Z</time>
      </trkpt>
      <trkpt lat="42.910368992015719" lon="-8.762934012338519">
        <ele>256.19999999999999</ele>
        <time>2018-05-19T08:10:12Z</time>
      </trkpt>
      <trkpt lat="42.910353988409042" lon="-8.762618014588952">
        <ele>253</ele>
        <time>2018-05-19T08:10:19Z</time>
      </trkpt>
      <trkpt lat="42.910350970923901" lon="-8.762304028496146">
        <ele>249.90000000000001</ele>
        <time>2018-05-19T08:10:26Z</time>
      </trkpt>
      <trkpt lat="42.910377960652113" lon="-8.762042010203004">
        <ele>247.69999999999999</ele>
        <time>2018-05-19T08:10:32Z</time>
      </trkpt>
      <trkpt lat="42.910386007279158" lon="-8.761662980541587">
        <ele>246.30000000000001</ele>
        <time>2018-05-19T08:10:40Z</time>
      </trkpt>
      <trkpt lat="42.910401010885835" lon="-8.761065015569329">
        <ele>244</ele>
        <time>2018-05-19T08:10:53Z</time>
      </trkpt>
      <trkpt lat="42.910421965643764" lon="-8.760434025898576">
        <ele>241.09999999999999</ele>
        <time>2018-05-19T08:11:06Z</time>
      </trkpt>
      <trkpt lat="42.91043596342206" lon="-8.75997100956738">
        <ele>239.90000000000001</ele>
        <time>2018-05-19T08:11:16Z</time>
      </trkpt>
      <trkpt lat="42.910438980907202" lon="-8.759550992399454">
        <ele>238.90000000000001</ele>
        <time>2018-05-19T08:11:26Z</time>
      </trkpt>
      <trkpt lat="42.910458007827401" lon="-8.758892007172108">
        <ele>236.5</ele>
        <time>2018-05-19T08:11:40Z</time>
      </trkpt>
      <trkpt lat="42.91049899533391" lon="-8.758216006681323">
        <ele>234.30000000000001</ele>
        <time>2018-05-19T08:11:55Z</time>
      </trkpt>
      <trkpt lat="42.910496983677149" lon="-8.757793977856636">
        <ele>233.09999999999999</ele>
        <time>2018-05-19T08:12:04Z</time>
      </trkpt>
      <trkpt lat="42.910503018647432" lon="-8.757192995399237">
        <ele>231.69999999999999</ele>
        <time>2018-05-19T08:12:17Z</time>
      </trkpt>
      <trkpt lat="42.9105219617486" lon="-8.756740959361196">
        <ele>231.5</ele>
        <time>2018-05-19T08:12:27Z</time>
      </trkpt>
      <trkpt lat="42.910531014204025" lon="-8.756352961063385">
        <ele>231.40000000000001</ele>
        <time>2018-05-19T08:12:35Z</time>
      </trkpt>
      <trkpt lat="42.910538977012038" lon="-8.755883993580937">
        <ele>231.40000000000001</ele>
        <time>2018-05-19T08:12:45Z</time>
      </trkpt>
      <trkpt lat="42.910554986447096" lon="-8.755467999726534">
        <ele>231.30000000000001</ele>
        <time>2018-05-19T08:12:54Z</time>
      </trkpt>
      <trkpt lat="42.910587005317211" lon="-8.755326010286808">
        <ele>231.69999999999999</ele>
        <time>2018-05-19T08:12:57Z</time>
      </trkpt>
      <trkpt lat="42.910609971731901" lon="-8.755277981981635">
        <ele>231.90000000000001</ele>
        <time>2018-05-19T08:12:59Z</time>
      </trkpt>
      <trkpt lat="42.910721031948924" lon="-8.754958966746926">
        <ele>232.90000000000001</ele>
        <time>2018-05-19T08:13:06Z</time>
      </trkpt>
      <trkpt lat="42.910796971991658" lon="-8.754760986194015">
        <ele>233.30000000000001</ele>
        <time>2018-05-19T08:13:11Z</time>
      </trkpt>
      <trkpt lat="42.910858998075128" lon="-8.754559988155961">
        <ele>233.5</ele>
        <time>2018-05-19T08:13:16Z</time>
      </trkpt>
      <trkpt lat="42.910975003615022" lon="-8.754171989858151">
        <ele>233.5</ele>
        <time>2018-05-19T08:13:25Z</time>
      </trkpt>
      <trkpt lat="42.911061001941562" lon="-8.753870995715261">
        <ele>232.69999999999999</ele>
        <time>2018-05-19T08:13:32Z</time>
      </trkpt>
      <trkpt lat="42.911144988611341" lon="-8.753615012392402">
        <ele>231.80000000000001</ele>
        <time>2018-05-19T08:13:38Z</time>
      </trkpt>
      <trkpt lat="42.911172984167933" lon="-8.753516022115946">
        <ele>231.5</ele>
        <time>2018-05-19T08:13:40Z</time>
      </trkpt>
      <trkpt lat="42.911197962239385" lon="-8.753404039889574">
        <ele>231.30000000000001</ele>
        <time>2018-05-19T08:13:43Z</time>
      </trkpt>
      <trkpt lat="42.911271974444389" lon="-8.753193989396095">
        <ele>230.19999999999999</ele>
        <time>2018-05-19T08:13:48Z</time>
      </trkpt>
      <trkpt lat="42.911325031891465" lon="-8.753017969429493">
        <ele>229.30000000000001</ele>
        <time>2018-05-19T08:13:52Z</time>
      </trkpt>
      <trkpt lat="42.911369958892465" lon="-8.752798028290272">
        <ele>227.90000000000001</ele>
        <time>2018-05-19T08:13:57Z</time>
      </trkpt>
      <trkpt lat="42.911384040489793" lon="-8.752568028867245">
        <ele>226.59999999999999</ele>
        <time>2018-05-19T08:14:02Z</time>
      </trkpt>
      <trkpt lat="42.911324026063085" lon="-8.752360995858908">
        <ele>227.19999999999999</ele>
        <time>2018-05-19T08:14:07Z</time>
      </trkpt>
      <trkpt lat="42.911256970837712" lon="-8.752184975892305">
        <ele>228.19999999999999</ele>
        <time>2018-05-19T08:14:11Z</time>
      </trkpt>
      <trkpt lat="42.911213971674442" lon="-8.752112975344062">
        <ele>228.69999999999999</ele>
        <time>2018-05-19T08:14:13Z</time>
      </trkpt>
      <trkpt lat="42.911197040230036" lon="-8.752024965360761">
        <ele>228.09999999999999</ele>
        <time>2018-05-19T08:14:15Z</time>
      </trkpt>
      <trkpt lat="42.911068964749575" lon="-8.751712990924716">
        <ele>226.09999999999999</ele>
        <time>2018-05-19T08:14:23Z</time>
      </trkpt>
      <trkpt lat="42.911054966971278" lon="-8.751663034781814">
        <ele>225.59999999999999</ele>
        <time>2018-05-19T08:14:24Z</time>
      </trkpt>
      <trkpt lat="42.910893028602004" lon="-8.751454995945096">
        <ele>225.40000000000001</ele>
        <time>2018-05-19T08:14:31Z</time>
      </trkpt>
      <trkpt lat="42.910745004191995" lon="-8.75124704092741">
        <ele>224.80000000000001</ele>
        <time>2018-05-19T08:14:37Z</time>
      </trkpt>
      <trkpt lat="42.910578036680818" lon="-8.751043025404215">
        <ele>223.40000000000001</ele>
        <time>2018-05-19T08:14:44Z</time>
      </trkpt>
      <trkpt lat="42.910391036421061" lon="-8.750841021537781">
        <ele>221.90000000000001</ele>
        <time>2018-05-19T08:14:51Z</time>
      </trkpt>
      <trkpt lat="42.910219961777329" lon="-8.750643040984869">
        <ele>219.69999999999999</ele>
        <time>2018-05-19T08:14:57Z</time>
      </trkpt>
      <trkpt lat="42.910071015357971" lon="-8.750466015189886">
        <ele>217.69999999999999</ele>
        <time>2018-05-19T08:15:03Z</time>
      </trkpt>
      <trkpt lat="42.909794999286532" lon="-8.750126967206597">
        <ele>214.80000000000001</ele>
        <time>2018-05-19T08:15:14Z</time>
      </trkpt>
      <trkpt lat="42.909598024562001" lon="-8.74989596195519">
        <ele>213.09999999999999</ele>
        <time>2018-05-19T08:15:22Z</time>
      </trkpt>
      <trkpt lat="42.909414041787386" lon="-8.749653976410627">
        <ele>210.80000000000001</ele>
        <time>2018-05-19T08:15:30Z</time>
      </trkpt>
      <trkpt lat="42.90918898768723" lon="-8.749366980046034">
        <ele>208.5</ele>
        <time>2018-05-19T08:15:39Z</time>
      </trkpt>
      <trkpt lat="42.909003999084234" lon="-8.749046958982945">
        <ele>205.90000000000001</ele>
        <time>2018-05-19T08:15:48Z</time>
      </trkpt>
      <trkpt lat="42.90890702046454" lon="-8.748744037002325">
        <ele>202.80000000000001</ele>
        <time>2018-05-19T08:15:55Z</time>
      </trkpt>
      <trkpt lat="42.908841976895928" lon="-8.748509008437395">
        <ele>199.59999999999999</ele>
        <time>2018-05-19T08:16:00Z</time>
      </trkpt>
      <trkpt lat="42.908776011317968" lon="-8.748327037319541">
        <ele>197.5</ele>
        <time>2018-05-19T08:16:05Z</time>
      </trkpt>
      <trkpt lat="42.908622035756707" lon="-8.748103994876146">
        <ele>195.09999999999999</ele>
        <time>2018-05-19T08:16:11Z</time>
      </trkpt>
      <trkpt lat="42.908360017463565" lon="-8.747947001829743">
        <ele>194.69999999999999</ele>
        <time>2018-05-19T08:16:20Z</time>
      </trkpt>
      <trkpt lat="42.908127000555396" lon="-8.747848011553288">
        <ele>195.30000000000001</ele>
        <time>2018-05-19T08:16:27Z</time>
      </trkpt>
      <trkpt lat="42.90777001529932" lon="-8.747628992423415">
        <ele>196.59999999999999</ele>
        <time>2018-05-19T08:16:39Z</time>
      </trkpt>
      <trkpt lat="42.907600030303001" lon="-8.747484991326928">
        <ele>197.40000000000001</ele>
        <time>2018-05-19T08:16:45Z</time>
      </trkpt>
      <trkpt lat="42.907424010336399" lon="-8.747287010774016">
        <ele>197.80000000000001</ele>
        <time>2018-05-19T08:16:51Z</time>
      </trkpt>
      <trkpt lat="42.907266011461616" lon="-8.747099004685879">
        <ele>198.09999999999999</ele>
        <time>2018-05-19T08:16:58Z</time>
      </trkpt>
      <trkpt lat="42.907097032293677" lon="-8.746927008032799">
        <ele>198.5</ele>
        <time>2018-05-19T08:17:04Z</time>
      </trkpt>
      <trkpt lat="42.906920006498694" lon="-8.746732966974378">
        <ele>200.69999999999999</ele>
        <time>2018-05-19T08:17:11Z</time>
      </trkpt>
      <trkpt lat="42.90671800263226" lon="-8.746343962848187">
        <ele>201.30000000000001</ele>
        <time>2018-05-19T08:17:21Z</time>
      </trkpt>
      <trkpt lat="42.90661197155714" lon="-8.746042968705297">
        <ele>198.90000000000001</ele>
        <time>2018-05-19T08:17:28Z</time>
      </trkpt>
      <trkpt lat="42.906519016250968" lon="-8.745706016197801">
        <ele>194.80000000000001</ele>
        <time>2018-05-19T08:17:36Z</time>
      </trkpt>
      <trkpt lat="42.90650300681591" lon="-8.745359005406499">
        <ele>188.40000000000001</ele>
        <time>2018-05-19T08:17:44Z</time>
      </trkpt>
      <trkpt lat="42.906582970172167" lon="-8.74484402127564">
        <ele>177.30000000000001</ele>
        <time>2018-05-19T08:17:56Z</time>
      </trkpt>
      <trkpt lat="42.906571989879012" lon="-8.744375975802541">
        <ele>171</ele>
        <time>2018-05-19T08:18:06Z</time>
      </trkpt>
      <trkpt lat="42.906535025686026" lon="-8.743850011378527">
        <ele>166.5</ele>
        <time>2018-05-19T08:18:17Z</time>
      </trkpt>
      <trkpt lat="42.906448021531105" lon="-8.743397975340486">
        <ele>165.40000000000001</ele>
        <time>2018-05-19T08:18:27Z</time>
      </trkpt>
      <trkpt lat="42.906315000727773" lon="-8.743026992306113">
        <ele>165.69999999999999</ele>
        <time>2018-05-19T08:18:36Z</time>
      </trkpt>
      <trkpt lat="42.906282981857657" lon="-8.742691967636347">
        <ele>165.5</ele>
        <time>2018-05-19T08:18:44Z</time>
      </trkpt>
      <trkpt lat="42.906337967142463" lon="-8.742321990430355">
        <ele>164.59999999999999</ele>
        <time>2018-05-19T08:18:52Z</time>
      </trkpt>
      <trkpt lat="42.906385995447636" lon="-8.742008004337549">
        <ele>163.09999999999999</ele>
        <time>2018-05-19T08:18:59Z</time>
      </trkpt>
      <trkpt lat="42.906408961862326" lon="-8.741689994931221">
        <ele>160</ele>
        <time>2018-05-19T08:19:06Z</time>
      </trkpt>
      <trkpt lat="42.906409967690706" lon="-8.741369973868132">
        <ele>157.30000000000001</ele>
        <time>2018-05-19T08:19:13Z</time>
      </trkpt>
      <trkpt lat="42.906392030417919" lon="-8.741057999432087">
        <ele>156.19999999999999</ele>
        <time>2018-05-19T08:19:20Z</time>
      </trkpt>
      <trkpt lat="42.906351964920759" lon="-8.740746024996042">
        <ele>156.19999999999999</ele>
        <time>2018-05-19T08:19:27Z</time>
      </trkpt>
      <trkpt lat="42.906348025426269" lon="-8.740529017522931">
        <ele>156</ele>
        <time>2018-05-19T08:19:31Z</time>
      </trkpt>
      <trkpt lat="42.906346013769507" lon="-8.74052700586617">
        <ele>156</ele>
        <time>2018-05-19T08:19:31Z</time>
      </trkpt>
      <trkpt lat="42.906359005719423" lon="-8.740473026409745">
        <ele>155.80000000000001</ele>
        <time>2018-05-19T08:19:33Z</time>
      </trkpt>
      <trkpt lat="42.90647903457284" lon="-8.740271022543311">
        <ele>153.30000000000001</ele>
        <time>2018-05-19T08:19:38Z</time>
      </trkpt>
      <trkpt lat="42.906753038987517" lon="-8.740069018676877">
        <ele>149.59999999999999</ele>
        <time>2018-05-19T08:19:47Z</time>
      </trkpt>
      <trkpt lat="42.907008016481996" lon="-8.739828038960695">
        <ele>146.80000000000001</ele>
        <time>2018-05-19T08:19:57Z</time>
      </trkpt>
      <trkpt lat="42.907096026465297" lon="-8.739637015387416">
        <ele>146</ele>
        <time>2018-05-19T08:20:02Z</time>
      </trkpt>
      <trkpt lat="42.907256036996841" lon="-8.739406010136008">
        <ele>146</ele>
        <time>2018-05-19T08:20:08Z</time>
      </trkpt>
      <trkpt lat="42.907310016453266" lon="-8.73934498988092">
        <ele>146.09999999999999</ele>
        <time>2018-05-19T08:20:11Z</time>
      </trkpt>
      <trkpt lat="42.907353015616536" lon="-8.739325040951371">
        <ele>146.09999999999999</ele>
        <time>2018-05-19T08:20:12Z</time>
      </trkpt>
      <trkpt lat="42.90738302282989" lon="-8.73936896212399">
        <ele>146</ele>
        <time>2018-05-19T08:20:13Z</time>
      </trkpt>
      <trkpt lat="42.907384028658271" lon="-8.739339038729668">
        <ele>146</ele>
        <time>2018-05-19T08:20:14Z</time>
      </trkpt>
      <trkpt lat="42.907368019223213" lon="-8.739321017637849">
        <ele>146.09999999999999</ele>
        <time>2018-05-19T08:20:14Z</time>
      </trkpt>
      <trkpt lat="42.907410012558103" lon="-8.739244993776083">
        <ele>146.19999999999999</ele>
        <time>2018-05-19T08:20:17Z</time>
      </trkpt>
      <trkpt lat="42.907603969797492" lon="-8.738988004624844">
        <ele>146.5</ele>
        <time>2018-05-19T08:20:25Z</time>
      </trkpt>
      <trkpt lat="42.907670019194484" lon="-8.738853977993131">
        <ele>146.80000000000001</ele>
        <time>2018-05-19T08:20:28Z</time>
      </trkpt>
      <trkpt lat="42.907859031111002" lon="-8.738633031025529">
        <ele>147.40000000000001</ele>
        <time>2018-05-19T08:20:35Z</time>
      </trkpt>
      <trkpt lat="42.90791803970933" lon="-8.738621966913343">
        <ele>147.5</ele>
        <time>2018-05-19T08:20:37Z</time>
      </trkpt>
      <trkpt lat="42.907950980588794" lon="-8.738608974963427">
        <ele>147.59999999999999</ele>
        <time>2018-05-19T08:20:38Z</time>
      </trkpt>
      <trkpt lat="42.908076038584113" lon="-8.738461034372449">
        <ele>148.59999999999999</ele>
        <time>2018-05-19T08:20:43Z</time>
      </trkpt>
      <trkpt lat="42.908182991668582" lon="-8.738237991929054">
        <ele>149.80000000000001</ele>
        <time>2018-05-19T08:20:49Z</time>
      </trkpt>
      <trkpt lat="42.908541988581419" lon="-8.737808000296354">
        <ele>152.69999999999999</ele>
        <time>2018-05-19T08:21:03Z</time>
      </trkpt>
      <trkpt lat="42.908733012154698" lon="-8.737559979781508">
        <ele>155</ele>
        <time>2018-05-19T08:21:11Z</time>
      </trkpt>
      <trkpt lat="42.908854968845844" lon="-8.737424025312066">
        <ele>156.30000000000001</ele>
        <time>2018-05-19T08:21:15Z</time>
      </trkpt>
      <trkpt lat="42.909330977126956" lon="-8.736879033967853">
        <ele>160.19999999999999</ele>
        <time>2018-05-19T08:21:34Z</time>
      </trkpt>
      <trkpt lat="42.909558964893222" lon="-8.736607963219285">
        <ele>162.19999999999999</ele>
        <time>2018-05-19T08:21:43Z</time>
      </trkpt>
      <trkpt lat="42.909573968499899" lon="-8.736578961834312">
        <ele>162.40000000000001</ele>
        <time>2018-05-19T08:21:44Z</time>
      </trkpt>
      <trkpt lat="42.90959601290524" lon="-8.736561024561524">
        <ele>162.59999999999999</ele>
        <time>2018-05-19T08:21:44Z</time>
      </trkpt>
      <trkpt lat="42.909584026783705" lon="-8.736640987917781">
        <ele>162.09999999999999</ele>
        <time>2018-05-19T08:21:46Z</time>
      </trkpt>
      <trkpt lat="42.909543961286545" lon="-8.736630007624626">
        <ele>162</ele>
        <time>2018-05-19T08:21:47Z</time>
      </trkpt>
      <trkpt lat="42.909408006817102" lon="-8.736149976029992">
        <ele>163.30000000000001</ele>
        <time>2018-05-19T08:21:59Z</time>
      </trkpt>
      <trkpt lat="42.909371964633465" lon="-8.73610001988709">
        <ele>163.19999999999999</ele>
        <time>2018-05-19T08:22:00Z</time>
      </trkpt>
      <trkpt lat="42.909281020984054" lon="-8.735946966335177">
        <ele>163</ele>
        <time>2018-05-19T08:22:04Z</time>
      </trkpt>
      <trkpt lat="42.909267023205757" lon="-8.73584202490747">
        <ele>163.19999999999999</ele>
        <time>2018-05-19T08:22:07Z</time>
      </trkpt>
      <trkpt lat="42.909265011548996" lon="-8.735806988552213">
        <ele>163.19999999999999</ele>
        <time>2018-05-19T08:22:07Z</time>
      </trkpt>
      <trkpt lat="42.909342041239142" lon="-8.735620994120836">
        <ele>163.80000000000001</ele>
        <time>2018-05-19T08:22:12Z</time>
      </trkpt>
      <trkpt lat="42.90936098434031" lon="-8.735591992735863">
        <ele>163.90000000000001</ele>
        <time>2018-05-19T08:22:13Z</time>
      </trkpt>
      <trkpt lat="42.909385962411761" lon="-8.735642032697797">
        <ele>164</ele>
        <time>2018-05-19T08:22:14Z</time>
      </trkpt>
      <trkpt lat="42.909557037055492" lon="-8.735985020175576">
        <ele>164.19999999999999</ele>
        <time>2018-05-19T08:22:23Z</time>
      </trkpt>
      <trkpt lat="42.909576985985041" lon="-8.736002035439014">
        <ele>164.30000000000001</ele>
        <time>2018-05-19T08:22:24Z</time>
      </trkpt>
      <trkpt lat="42.909762980416417" lon="-8.735454026609659">
        <ele>165.19999999999999</ele>
        <time>2018-05-19T08:22:37Z</time>
      </trkpt>
      <trkpt lat="42.909547984600067" lon="-8.735063010826707">
        <ele>164.09999999999999</ele>
        <time>2018-05-19T08:22:48Z</time>
      </trkpt>
      <trkpt lat="42.909418987110257" lon="-8.735138028860092">
        <ele>163.90000000000001</ele>
        <time>2018-05-19T08:22:52Z</time>
      </trkpt>
      <trkpt lat="42.909353021532297" lon="-8.735254034399986">
        <ele>163.90000000000001</ele>
        <time>2018-05-19T08:22:55Z</time>
      </trkpt>
      <trkpt lat="42.909333994612098" lon="-8.735210029408336">
        <ele>163.80000000000001</ele>
        <time>2018-05-19T08:22:56Z</time>
      </trkpt>
      <trkpt lat="42.90936098434031" lon="-8.735212963074446">
        <ele>163.80000000000001</ele>
        <time>2018-05-19T08:22:57Z</time>
      </trkpt>
      <trkpt lat="42.909353021532297" lon="-8.735207011923194">
        <ele>163.80000000000001</ele>
        <time>2018-05-19T08:22:57Z</time>
      </trkpt>
      <trkpt lat="42.909341035410762" lon="-8.73519997112453">
        <ele>163.80000000000001</ele>
        <time>2018-05-19T08:22:57Z</time>
      </trkpt>
      <trkpt lat="42.909347992390394" lon="-8.735122019425035">
        <ele>163.59999999999999</ele>
        <time>2018-05-19T08:22:59Z</time>
      </trkpt>
      <trkpt lat="42.90942401625216" lon="-8.734983969479799">
        <ele>163.59999999999999</ele>
        <time>2018-05-19T08:23:03Z</time>
      </trkpt>
      <trkpt lat="42.909500962123275" lon="-8.734881961718202">
        <ele>163.5</ele>
        <time>2018-05-19T08:23:06Z</time>
      </trkpt>
      <trkpt lat="42.909506997093558" lon="-8.734838040545583">
        <ele>163.5</ele>
        <time>2018-05-19T08:23:07Z</time>
      </trkpt>
      <trkpt lat="42.909537004306912" lon="-8.734758999198675">
        <ele>163.30000000000001</ele>
        <time>2018-05-19T08:23:09Z</time>
      </trkpt>
      <trkpt lat="42.909560976549983" lon="-8.734656991437078">
        <ele>163.09999999999999</ele>
        <time>2018-05-19T08:23:11Z</time>
      </trkpt>
      <trkpt lat="42.909605987370014" lon="-8.734613992273808">
        <ele>163.09999999999999</ele>
        <time>2018-05-19T08:23:13Z</time>
      </trkpt>
      <trkpt lat="42.909642029553652" lon="-8.734525982290506">
        <ele>162.80000000000001</ele>
        <time>2018-05-19T08:23:15Z</time>
      </trkpt>
      <trkpt lat="42.909675976261497" lon="-8.734465967863798">
        <ele>162.5</ele>
        <time>2018-05-19T08:23:17Z</time>
      </trkpt>
      <trkpt lat="42.909692991524935" lon="-8.734378963708878">
        <ele>162</ele>
        <time>2018-05-19T08:23:19Z</time>
      </trkpt>
      <trkpt lat="42.909718975424767" lon="-8.734346022829413">
        <ele>161.90000000000001</ele>
        <time>2018-05-19T08:23:20Z</time>
      </trkpt>
      <trkpt lat="42.909752000123262" lon="-8.734180983155966">
        <ele>160.90000000000001</ele>
        <time>2018-05-19T08:23:23Z</time>
      </trkpt>
      <trkpt lat="42.909787036478519" lon="-8.734117029234767">
        <ele>160.59999999999999</ele>
        <time>2018-05-19T08:23:25Z</time>
      </trkpt>
      <trkpt lat="42.909794999286532" lon="-8.733983002603054">
        <ele>159.69999999999999</ele>
        <time>2018-05-19T08:23:28Z</time>
      </trkpt>
      <trkpt lat="42.909818971529603" lon="-8.733907984569669">
        <ele>159.30000000000001</ele>
        <time>2018-05-19T08:23:30Z</time>
      </trkpt>
      <trkpt lat="42.909845961257815" lon="-8.733863979578018">
        <ele>159</ele>
        <time>2018-05-19T08:23:31Z</time>
      </trkpt>
      <trkpt lat="42.909861970692873" lon="-8.733830032870174">
        <ele>158.80000000000001</ele>
        <time>2018-05-19T08:23:32Z</time>
      </trkpt>
      <trkpt lat="42.909844033420086" lon="-8.733733976259828">
        <ele>158.30000000000001</ele>
        <time>2018-05-19T08:23:34Z</time>
      </trkpt>
      <trkpt lat="42.909890972077847" lon="-8.733197031542659">
        <ele>157.19999999999999</ele>
        <time>2018-05-19T08:23:46Z</time>
      </trkpt>
      <trkpt lat="42.909864988178015" lon="-8.732929984107614">
        <ele>156.69999999999999</ele>
        <time>2018-05-19T08:23:52Z</time>
      </trkpt>
      <trkpt lat="42.909812014549971" lon="-8.732802998274565">
        <ele>157.40000000000001</ele>
        <time>2018-05-19T08:23:55Z</time>
      </trkpt>
      <trkpt lat="42.909753005951643" lon="-8.732691016048193">
        <ele>158.09999999999999</ele>
        <time>2018-05-19T08:23:58Z</time>
      </trkpt>
      <trkpt lat="42.909653009846807" lon="-8.732594959437847">
        <ele>159.09999999999999</ele>
        <time>2018-05-19T08:24:02Z</time>
      </trkpt>
      <trkpt lat="42.909529963508248" lon="-8.732482977211475">
        <ele>160.40000000000001</ele>
        <time>2018-05-19T08:24:06Z</time>
      </trkpt>
      <trkpt lat="42.909377999603748" lon="-8.732396978884935">
        <ele>161.59999999999999</ele>
        <time>2018-05-19T08:24:11Z</time>
      </trkpt>
      <trkpt lat="42.909211032092571" lon="-8.732178965583444">
        <ele>163.40000000000001</ele>
        <time>2018-05-19T08:24:18Z</time>
      </trkpt>
      <trkpt lat="42.909142971038818" lon="-8.731861962005496">
        <ele>164.90000000000001</ele>
        <time>2018-05-19T08:24:25Z</time>
      </trkpt>
      <trkpt lat="42.909141965210438" lon="-8.731588963419199">
        <ele>165.80000000000001</ele>
        <time>2018-05-19T08:24:31Z</time>
      </trkpt>
      <trkpt lat="42.909198962152004" lon="-8.730998961254954">
        <ele>167.80000000000001</ele>
        <time>2018-05-19T08:24:44Z</time>
      </trkpt>
      <trkpt lat="42.909221006557345" lon="-8.730525970458984">
        <ele>169.59999999999999</ele>
        <time>2018-05-19T08:24:54Z</time>
      </trkpt>
      <trkpt lat="42.909214971587062" lon="-8.730244003236294">
        <ele>171</ele>
        <time>2018-05-19T08:25:00Z</time>
      </trkpt>
      <trkpt lat="42.909172978252172" lon="-8.729930017143488">
        <ele>172.69999999999999</ele>
        <time>2018-05-19T08:25:07Z</time>
      </trkpt>
      <trkpt lat="42.909045992419124" lon="-8.729304978623986">
        <ele>174.90000000000001</ele>
        <time>2018-05-19T08:25:21Z</time>
      </trkpt>
      <trkpt lat="42.908883970230818" lon="-8.728565024212003">
        <ele>176.69999999999999</ele>
        <time>2018-05-19T08:25:38Z</time>
      </trkpt>
      <trkpt lat="42.908741980791092" lon="-8.727969992905855">
        <ele>176.90000000000001</ele>
        <time>2018-05-19T08:25:51Z</time>
      </trkpt>
      <trkpt lat="42.908599991351366" lon="-8.727283012121916">
        <ele>179.19999999999999</ele>
        <time>2018-05-19T08:26:07Z</time>
      </trkpt>
      <trkpt lat="42.908605020493269" lon="-8.726792000234127">
        <ele>184</ele>
        <time>2018-05-19T08:26:18Z</time>
      </trkpt>
      <trkpt lat="42.908592028543353" lon="-8.726373994722962">
        <ele>189</ele>
        <time>2018-05-19T08:26:27Z</time>
      </trkpt>
      <trkpt lat="42.908556992188096" lon="-8.726123962551355">
        <ele>191</ele>
        <time>2018-05-19T08:26:32Z</time>
      </trkpt>
      <trkpt lat="42.908562021329999" lon="-8.726118011400104">
        <ele>191.09999999999999</ele>
        <time>2018-05-19T08:26:33Z</time>
      </trkpt>
      <trkpt lat="42.908491026610136" lon="-8.725970992818475">
        <ele>191.5</ele>
        <time>2018-05-19T08:26:36Z</time>
      </trkpt>
      <trkpt lat="42.90839396417141" lon="-8.725780975073576">
        <ele>192.09999999999999</ele>
        <time>2018-05-19T08:26:41Z</time>
      </trkpt>
      <trkpt lat="42.908303020521998" lon="-8.725621970370412">
        <ele>192.69999999999999</ele>
        <time>2018-05-19T08:26:46Z</time>
      </trkpt>
      <trkpt lat="42.908204030245543" lon="-8.725467994809151">
        <ele>193.30000000000001</ele>
        <time>2018-05-19T08:26:50Z</time>
      </trkpt>
      <trkpt lat="42.908108979463577" lon="-8.725301027297974">
        <ele>193.40000000000001</ele>
        <time>2018-05-19T08:26:55Z</time>
      </trkpt>
      <trkpt lat="42.908000014722347" lon="-8.725171023979783">
        <ele>193.59999999999999</ele>
        <time>2018-05-19T08:26:59Z</time>
      </trkpt>
      <trkpt lat="42.907897001132369" lon="-8.725006990134716">
        <ele>194.40000000000001</ele>
        <time>2018-05-19T08:27:04Z</time>
      </trkpt>
      <trkpt lat="42.907821983098984" lon="-8.724900959059596">
        <ele>194.80000000000001</ele>
        <time>2018-05-19T08:27:07Z</time>
      </trkpt>
      <trkpt lat="42.907806979492307" lon="-8.724873969331384">
        <ele>194.90000000000001</ele>
        <time>2018-05-19T08:27:08Z</time>
      </trkpt>
      <trkpt lat="42.907745959237218" lon="-8.724828958511353">
        <ele>195</ele>
        <time>2018-05-19T08:27:10Z</time>
      </trkpt>
      <trkpt lat="42.907685022801161" lon="-8.72471303679049">
        <ele>195.59999999999999</ele>
        <time>2018-05-19T08:27:13Z</time>
      </trkpt>
      <trkpt lat="42.907583015039563" lon="-8.724531987681985">
        <ele>195.5</ele>
        <time>2018-05-19T08:27:18Z</time>
      </trkpt>
      <trkpt lat="42.907535992562771" lon="-8.724482031539083">
        <ele>194.69999999999999</ele>
        <time>2018-05-19T08:27:20Z</time>
      </trkpt>
      <trkpt lat="42.907521994784474" lon="-8.724489994347096">
        <ele>194.80000000000001</ele>
        <time>2018-05-19T08:27:20Z</time>
      </trkpt>
      <trkpt lat="42.907416969537735" lon="-8.724317997694016">
        <ele>192.5</ele>
        <time>2018-05-19T08:27:25Z</time>
      </trkpt>
      <trkpt lat="42.90738302282989" lon="-8.724240968003869">
        <ele>191.5</ele>
        <time>2018-05-19T08:27:27Z</time>
      </trkpt>
      <trkpt lat="42.907310016453266" lon="-8.724098978564143">
        <ele>189.90000000000001</ele>
        <time>2018-05-19T08:27:31Z</time>
      </trkpt>
      <trkpt lat="42.907256036996841" lon="-8.724019015207887">
        <ele>189.19999999999999</ele>
        <time>2018-05-19T08:27:33Z</time>
      </trkpt>
      <trkpt lat="42.907193005084991" lon="-8.723917007446289">
        <ele>188.19999999999999</ele>
        <time>2018-05-19T08:27:36Z</time>
      </trkpt>
      <trkpt lat="42.907154029235244" lon="-8.723818017169833">
        <ele>187.40000000000001</ele>
        <time>2018-05-19T08:27:38Z</time>
      </trkpt>
      <trkpt lat="42.907098960131407" lon="-8.723687008023262">
        <ele>186.09999999999999</ele>
        <time>2018-05-19T08:27:42Z</time>
      </trkpt>
      <trkpt lat="42.906993012875319" lon="-8.723453991115093">
        <ele>183.5</ele>
        <time>2018-05-19T08:27:48Z</time>
      </trkpt>
      <trkpt lat="42.906928975135088" lon="-8.723352989181876">
        <ele>182.59999999999999</ele>
        <time>2018-05-19T08:27:51Z</time>
      </trkpt>
      <trkpt lat="42.90684599429369" lon="-8.723175041377544">
        <ele>181.40000000000001</ele>
        <time>2018-05-19T08:27:55Z</time>
      </trkpt>
      <trkpt lat="42.906840965151787" lon="-8.72314402833581">
        <ele>181.09999999999999</ele>
        <time>2018-05-19T08:27:56Z</time>
      </trkpt>
      <trkpt lat="42.906758990138769" lon="-8.722944958135486">
        <ele>180.09999999999999</ele>
        <time>2018-05-19T08:28:01Z</time>
      </trkpt>
      <trkpt lat="42.906644996255636" lon="-8.722728034481406">
        <ele>179.80000000000001</ele>
        <time>2018-05-19T08:28:07Z</time>
      </trkpt>
      <trkpt lat="42.906531002372503" lon="-8.722494011744857">
        <ele>179.90000000000001</ele>
        <time>2018-05-19T08:28:13Z</time>
      </trkpt>
      <trkpt lat="42.90646000765264" lon="-8.722343975678086">
        <ele>180.19999999999999</ele>
        <time>2018-05-19T08:28:17Z</time>
      </trkpt>
      <trkpt lat="42.906367974355817" lon="-8.722123028710485">
        <ele>180.80000000000001</ele>
        <time>2018-05-19T08:28:22Z</time>
      </trkpt>
      <trkpt lat="42.906298991292715" lon="-8.721924964338541">
        <ele>180.09999999999999</ele>
        <time>2018-05-19T08:28:27Z</time>
      </trkpt>
      <trkpt lat="42.906231014057994" lon="-8.721796972677112">
        <ele>179.80000000000001</ele>
        <time>2018-05-19T08:28:30Z</time>
      </trkpt>
      <trkpt lat="42.906135963276029" lon="-8.721582982689142">
        <ele>178.5</ele>
        <time>2018-05-19T08:28:36Z</time>
      </trkpt>
      <trkpt lat="42.906109979376197" lon="-8.721554987132549">
        <ele>178.5</ele>
        <time>2018-05-19T08:28:37Z</time>
      </trkpt>
      <trkpt lat="42.906028004363179" lon="-8.721334040164948">
        <ele>177.09999999999999</ele>
        <time>2018-05-19T08:28:42Z</time>
      </trkpt>
      <trkpt lat="42.905951980501413" lon="-8.721078978851438">
        <ele>173</ele>
        <time>2018-05-19T08:28:48Z</time>
      </trkpt>
      <trkpt lat="42.905932031571865" lon="-8.720826013013721">
        <ele>166.90000000000001</ele>
        <time>2018-05-19T08:28:54Z</time>
      </trkpt>
      <trkpt lat="42.905929014086723" lon="-8.720615962520242">
        <ele>161.69999999999999</ele>
        <time>2018-05-19T08:28:59Z</time>
      </trkpt>
      <trkpt lat="42.9059440176934" lon="-8.720522001385689">
        <ele>159.19999999999999</ele>
        <time>2018-05-19T08:29:01Z</time>
      </trkpt>
      <trkpt lat="42.905942006036639" lon="-8.720458969473839">
        <ele>157.59999999999999</ele>
        <time>2018-05-19T08:29:02Z</time>
      </trkpt>
      <trkpt lat="42.905995985493064" lon="-8.719830997288227">
        <ele>147.69999999999999</ele>
        <time>2018-05-19T08:29:16Z</time>
      </trkpt>
      <trkpt lat="42.906044013798237" lon="-8.719162959605455">
        <ele>143.59999999999999</ele>
        <time>2018-05-19T08:29:31Z</time>
      </trkpt>
      <trkpt lat="42.906059017404914" lon="-8.718555020168424">
        <ele>142.90000000000001</ele>
        <time>2018-05-19T08:29:44Z</time>
      </trkpt>
      <trkpt lat="42.906049964949489" lon="-8.718306999653578">
        <ele>142.59999999999999</ele>
        <time>2018-05-19T08:29:49Z</time>
      </trkpt>
      <trkpt lat="42.906077038496733" lon="-8.71800902299583">
        <ele>142.5</ele>
        <time>2018-05-19T08:29:56Z</time>
      </trkpt>
      <trkpt lat="42.906046025454998" lon="-8.717747004702687">
        <ele>142.30000000000001</ele>
        <time>2018-05-19T08:30:02Z</time>
      </trkpt>
      <trkpt lat="42.905975030735135" lon="-8.717250963672996">
        <ele>142</ele>
        <time>2018-05-19T08:30:13Z</time>
      </trkpt>
      <trkpt lat="42.905893977731466" lon="-8.716546967625618">
        <ele>142</ele>
        <time>2018-05-19T08:30:28Z</time>
      </trkpt>
      <trkpt lat="42.905817031860352" lon="-8.715986972674727">
        <ele>142.40000000000001</ele>
        <time>2018-05-19T08:30:40Z</time>
      </trkpt>
      <trkpt lat="42.905717035755515" lon="-8.715588999912143">
        <ele>142.80000000000001</ele>
        <time>2018-05-19T08:30:49Z</time>
      </trkpt>
      <trkpt lat="42.90570798330009" lon="-8.71556201018393">
        <ele>142.80000000000001</ele>
        <time>2018-05-19T08:30:50Z</time>
      </trkpt>
      <trkpt lat="42.905663978308439" lon="-8.715588999912143">
        <ele>142.59999999999999</ele>
        <time>2018-05-19T08:30:52Z</time>
      </trkpt>
      <trkpt lat="42.905693985521793" lon="-8.715673992410302">
        <ele>142.59999999999999</ele>
        <time>2018-05-19T08:30:54Z</time>
      </trkpt>
      <trkpt lat="42.905765986070037" lon="-8.715941961854696">
        <ele>142.40000000000001</ele>
        <time>2018-05-19T08:31:00Z</time>
      </trkpt>
      <trkpt lat="42.905828012153506" lon="-8.716137008741498">
        <ele>142.19999999999999</ele>
        <time>2018-05-19T08:31:04Z</time>
      </trkpt>
      <trkpt lat="42.905859025195241" lon="-8.716091997921467">
        <ele>142.40000000000001</ele>
        <time>2018-05-19T08:31:06Z</time>
      </trkpt>
      <trkpt lat="42.905855001881719" lon="-8.716065008193255">
        <ele>142.40000000000001</ele>
        <time>2018-05-19T08:31:06Z</time>
      </trkpt>
      <trkpt lat="42.905767997726798" lon="-8.715731995180249">
        <ele>142.69999999999999</ele>
        <time>2018-05-19T08:31:14Z</time>
      </trkpt>
      <trkpt lat="42.905689962208271" lon="-8.715543989092112">
        <ele>142.80000000000001</ele>
        <time>2018-05-19T08:31:19Z</time>
      </trkpt>
      <trkpt lat="42.905355021357536" lon="-8.714879974722862">
        <ele>143.19999999999999</ele>
        <time>2018-05-19T08:31:36Z</time>
      </trkpt>
      <trkpt lat="42.905214037746191" lon="-8.714568000286818">
        <ele>143.59999999999999</ele>
        <time>2018-05-19T08:31:44Z</time>
      </trkpt>
      <trkpt lat="42.905035000294447" lon="-8.714242028072476">
        <ele>144.5</ele>
        <time>2018-05-19T08:31:53Z</time>
      </trkpt>
      <trkpt lat="42.904938021674752" lon="-8.713901974260807">
        <ele>144.80000000000001</ele>
        <time>2018-05-19T08:32:01Z</time>
      </trkpt>
      <trkpt lat="42.90476200170815" lon="-8.713189009577036">
        <ele>143.80000000000001</ele>
        <time>2018-05-19T08:32:17Z</time>
      </trkpt>
      <trkpt lat="42.904565026983619" lon="-8.712452994659543">
        <ele>142</ele>
        <time>2018-05-19T08:32:34Z</time>
      </trkpt>
      <trkpt lat="42.904395963996649" lon="-8.711727038025856">
        <ele>143.30000000000001</ele>
        <time>2018-05-19T08:32:51Z</time>
      </trkpt>
      <trkpt lat="42.904290016740561" lon="-8.711277013644576">
        <ele>144.80000000000001</ele>
        <time>2018-05-19T08:33:01Z</time>
      </trkpt>
      <trkpt lat="42.904206030070782" lon="-8.711194032803178">
        <ele>144.59999999999999</ele>
        <time>2018-05-19T08:33:04Z</time>
      </trkpt>
      <trkpt lat="42.904084995388985" lon="-8.710914999246597">
        <ele>145.09999999999999</ele>
        <time>2018-05-19T08:33:11Z</time>
      </trkpt>
      <trkpt lat="42.904047025367618" lon="-8.710885997861624">
        <ele>144.80000000000001</ele>
        <time>2018-05-19T08:33:12Z</time>
      </trkpt>
      <trkpt lat="42.90379598736763" lon="-8.710625991225243">
        <ele>142.40000000000001</ele>
        <time>2018-05-19T08:33:22Z</time>
      </trkpt>
      <trkpt lat="42.903525000438094" lon="-8.710431028157473">
        <ele>141.19999999999999</ele>
        <time>2018-05-19T08:33:31Z</time>
      </trkpt>
      <trkpt lat="42.903318973258138" lon="-8.710291972383857">
        <ele>141</ele>
        <time>2018-05-19T08:33:38Z</time>
      </trkpt>
      <trkpt lat="42.903166003525257" lon="-8.710072031244636">
        <ele>141.30000000000001</ele>
        <time>2018-05-19T08:33:44Z</time>
      </trkpt>
      <trkpt lat="42.902888981625438" lon="-8.709626030176878">
        <ele>141.80000000000001</ele>
        <time>2018-05-19T08:33:57Z</time>
      </trkpt>
      <trkpt lat="42.902643978595734" lon="-8.70926896110177">
        <ele>141.5</ele>
        <time>2018-05-19T08:34:07Z</time>
      </trkpt>
      <trkpt lat="42.902414985001087" lon="-8.708822038024664">
        <ele>140.90000000000001</ele>
        <time>2018-05-19T08:34:19Z</time>
      </trkpt>
      <trkpt lat="42.902307026088238" lon="-8.708448959514499">
        <ele>141.19999999999999</ele>
        <time>2018-05-19T08:34:28Z</time>
      </trkpt>
      <trkpt lat="42.902246005833149" lon="-8.70832197368145">
        <ele>141.09999999999999</ele>
        <time>2018-05-19T08:34:31Z</time>
      </trkpt>
      <trkpt lat="42.902051964774728" lon="-8.708131033927202">
        <ele>140.59999999999999</ele>
        <time>2018-05-19T08:34:38Z</time>
      </trkpt>
      <trkpt lat="42.901850966736674" lon="-8.707821993157268">
        <ele>141.59999999999999</ele>
        <time>2018-05-19T08:34:47Z</time>
      </trkpt>
      <trkpt lat="42.901762034744024" lon="-8.707589982077479">
        <ele>142.19999999999999</ele>
        <time>2018-05-19T08:34:53Z</time>
      </trkpt>
      <trkpt lat="42.90175398811698" lon="-8.707245988771319">
        <ele>143</ele>
        <time>2018-05-19T08:35:00Z</time>
      </trkpt>
      <trkpt lat="42.901773015037179" lon="-8.706838041543961">
        <ele>143.40000000000001</ele>
        <time>2018-05-19T08:35:09Z</time>
      </trkpt>
      <trkpt lat="42.901759017258883" lon="-8.706431016325951">
        <ele>143.09999999999999</ele>
        <time>2018-05-19T08:35:18Z</time>
      </trkpt>
      <trkpt lat="42.901786006987095" lon="-8.706176960840821">
        <ele>143.30000000000001</ele>
        <time>2018-05-19T08:35:24Z</time>
      </trkpt>
      <trkpt lat="42.901783995330334" lon="-8.706090040504932">
        <ele>143.5</ele>
        <time>2018-05-19T08:35:26Z</time>
      </trkpt>
      <trkpt lat="42.901780977845192" lon="-8.705588970333338">
        <ele>144.19999999999999</ele>
        <time>2018-05-19T08:35:36Z</time>
      </trkpt>
      <trkpt lat="42.901706965640187" lon="-8.705115979537368">
        <ele>144.80000000000001</ele>
        <time>2018-05-19T08:35:47Z</time>
      </trkpt>
      <trkpt lat="42.901662960648537" lon="-8.704997040331364">
        <ele>144.69999999999999</ele>
        <time>2018-05-19T08:35:50Z</time>
      </trkpt>
      <trkpt lat="42.901587020605803" lon="-8.704795958474279">
        <ele>144.5</ele>
        <time>2018-05-19T08:35:55Z</time>
      </trkpt>
      <trkpt lat="42.90160303004086" lon="-8.704628990963101">
        <ele>145.09999999999999</ele>
        <time>2018-05-19T08:35:58Z</time>
      </trkpt>
      <trkpt lat="42.901618033647537" lon="-8.704409971833229">
        <ele>145.5</ele>
        <time>2018-05-19T08:36:03Z</time>
      </trkpt>
      <trkpt lat="42.901561036705971" lon="-8.704263959079981">
        <ele>145</ele>
        <time>2018-05-19T08:36:07Z</time>
      </trkpt>
      <trkpt lat="42.901552990078926" lon="-8.704121969640255">
        <ele>145</ele>
        <time>2018-05-19T08:36:10Z</time>
      </trkpt>
      <trkpt lat="42.901573022827506" lon="-8.703953996300697">
        <ele>145.30000000000001</ele>
        <time>2018-05-19T08:36:13Z</time>
      </trkpt>
      <trkpt lat="42.901734039187431" lon="-8.703634981065989">
        <ele>146.59999999999999</ele>
        <time>2018-05-19T08:36:22Z</time>
      </trkpt>
      <trkpt lat="42.901814002543688" lon="-8.70357496663928">
        <ele>147.09999999999999</ele>
        <time>2018-05-19T08:36:25Z</time>
      </trkpt>
      <trkpt lat="42.901952974498272" lon="-8.703447980806232">
        <ele>147.59999999999999</ele>
        <time>2018-05-19T08:36:29Z</time>
      </trkpt>
      <trkpt lat="42.902152966707945" lon="-8.703340021893382">
        <ele>149.09999999999999</ele>
        <time>2018-05-19T08:36:36Z</time>
      </trkpt>
      <trkpt lat="42.902281964197755" lon="-8.703239019960165">
        <ele>150.40000000000001</ele>
        <time>2018-05-19T08:36:40Z</time>
      </trkpt>
      <trkpt lat="42.90252797305584" lon="-8.703053025528789">
        <ele>152.59999999999999</ele>
        <time>2018-05-19T08:36:49Z</time>
      </trkpt>
      <trkpt lat="42.902626963332295" lon="-8.703052019700408">
        <ele>154</ele>
        <time>2018-05-19T08:36:52Z</time>
      </trkpt>
      <trkpt lat="42.9027009755373" lon="-8.70310097001493">
        <ele>155.59999999999999</ele>
        <time>2018-05-19T08:36:54Z</time>
      </trkpt>
      <trkpt lat="42.902760989964008" lon="-8.703089989721775">
        <ele>156.30000000000001</ele>
        <time>2018-05-19T08:36:56Z</time>
      </trkpt>
      <trkpt lat="42.902818992733955" lon="-8.702995022758842">
        <ele>156.30000000000001</ele>
        <time>2018-05-19T08:36:59Z</time>
      </trkpt>
      <trkpt lat="42.903062989935279" lon="-8.702593026682735">
        <ele>155.69999999999999</ele>
        <time>2018-05-19T08:37:10Z</time>
      </trkpt>
      <trkpt lat="42.903319979086518" lon="-8.702170997858048">
        <ele>154.59999999999999</ele>
        <time>2018-05-19T08:37:22Z</time>
      </trkpt>
      <trkpt lat="42.903771009296179" lon="-8.701460966840386">
        <ele>149.30000000000001</ele>
        <time>2018-05-19T08:37:42Z</time>
      </trkpt>
      <trkpt lat="42.904177028685808" lon="-8.700840035453439">
        <ele>147.40000000000001</ele>
        <time>2018-05-19T08:38:00Z</time>
      </trkpt>
      <trkpt lat="42.904464025050402" lon="-8.700396968051791">
        <ele>146.40000000000001</ele>
        <time>2018-05-19T08:38:13Z</time>
      </trkpt>
      <trkpt lat="42.904757978394628" lon="-8.699908973649144">
        <ele>147.19999999999999</ele>
        <time>2018-05-19T08:38:27Z</time>
      </trkpt>
      <trkpt lat="42.90501999668777" lon="-8.699505971744657">
        <ele>147.40000000000001</ele>
        <time>2018-05-19T08:38:38Z</time>
      </trkpt>
      <trkpt lat="42.905266005545855" lon="-8.699097018688917">
        <ele>147.5</ele>
        <time>2018-05-19T08:38:50Z</time>
      </trkpt>
      <trkpt lat="42.905469015240669" lon="-8.698873976245523">
        <ele>147.80000000000001</ele>
        <time>2018-05-19T08:38:58Z</time>
      </trkpt>
      <trkpt lat="42.905620979145169" lon="-8.69882301427424">
        <ele>148.59999999999999</ele>
        <time>2018-05-19T08:39:02Z</time>
      </trkpt>
      <trkpt lat="42.905843015760183" lon="-8.698774985969067">
        <ele>149.69999999999999</ele>
        <time>2018-05-19T08:39:09Z</time>
      </trkpt>
      <trkpt lat="42.90590001270175" lon="-8.698794012889266">
        <ele>150.19999999999999</ele>
        <time>2018-05-19T08:39:11Z</time>
      </trkpt>
      <trkpt lat="42.905909987166524" lon="-8.698786972090602">
        <ele>150.19999999999999</ele>
        <time>2018-05-19T08:39:11Z</time>
      </trkpt>
      <trkpt lat="42.905890038236976" lon="-8.698731986805797">
        <ele>149.90000000000001</ele>
        <time>2018-05-19T08:39:12Z</time>
      </trkpt>
      <trkpt lat="42.905921973288059" lon="-8.698741961270571">
        <ele>150</ele>
        <time>2018-05-19T08:39:13Z</time>
      </trkpt>
      <trkpt lat="42.905996991321445" lon="-8.698708014562726">
        <ele>150.59999999999999</ele>
        <time>2018-05-19T08:39:16Z</time>
      </trkpt>
      <trkpt lat="42.906005037948489" lon="-8.698688987642527">
        <ele>150.69999999999999</ele>
        <time>2018-05-19T08:39:16Z</time>
      </trkpt>
      <trkpt lat="42.905991962179542" lon="-8.698680019006133">
        <ele>150.59999999999999</ele>
        <time>2018-05-19T08:39:17Z</time>
      </trkpt>
      <trkpt lat="42.906010989099741" lon="-8.698644982650876">
        <ele>150.80000000000001</ele>
        <time>2018-05-19T08:39:17Z</time>
      </trkpt>
      <trkpt lat="42.905988022685051" lon="-8.698319010436535">
        <ele>151.5</ele>
        <time>2018-05-19T08:39:25Z</time>
      </trkpt>
      <trkpt lat="42.905953992158175" lon="-8.698168974369764">
        <ele>151.59999999999999</ele>
        <time>2018-05-19T08:39:28Z</time>
      </trkpt>
      <trkpt lat="42.905902024358511" lon="-8.697866974398494">
        <ele>151.80000000000001</ele>
        <time>2018-05-19T08:39:35Z</time>
      </trkpt>
      <trkpt lat="42.905808985233307" lon="-8.697681985795498">
        <ele>151.30000000000001</ele>
        <time>2018-05-19T08:39:40Z</time>
      </trkpt>
      <trkpt lat="42.905785012990236" lon="-8.697639992460609">
        <ele>151.09999999999999</ele>
        <time>2018-05-19T08:39:41Z</time>
      </trkpt>
      <trkpt lat="42.905727010220289" lon="-8.697451986372471">
        <ele>150.69999999999999</ele>
        <time>2018-05-19T08:39:45Z</time>
      </trkpt>
      <trkpt lat="42.905652998015285" lon="-8.697264986112714">
        <ele>149.80000000000001</ele>
        <time>2018-05-19T08:39:50Z</time>
      </trkpt>
      <trkpt lat="42.905639000236988" lon="-8.697189968079329">
        <ele>149.69999999999999</ele>
        <time>2018-05-19T08:39:51Z</time>
      </trkpt>
      <trkpt lat="42.905633971095085" lon="-8.697185022756457">
        <ele>149.59999999999999</ele>
        <time>2018-05-19T08:39:52Z</time>
      </trkpt>
      <trkpt lat="42.905626008287072" lon="-8.697135988622904">
        <ele>149.5</ele>
        <time>2018-05-19T08:39:53Z</time>
      </trkpt>
      <trkpt lat="42.905628019943833" lon="-8.696915041655302">
        <ele>149.80000000000001</ele>
        <time>2018-05-19T08:39:58Z</time>
      </trkpt>
      <trkpt lat="42.905577979981899" lon="-8.696725023910403">
        <ele>149.09999999999999</ele>
        <time>2018-05-19T08:40:02Z</time>
      </trkpt>
      <trkpt lat="42.905531963333488" lon="-8.696522014215589">
        <ele>148.59999999999999</ele>
        <time>2018-05-19T08:40:07Z</time>
      </trkpt>
      <trkpt lat="42.905601030215621" lon="-8.696233006194234">
        <ele>150.09999999999999</ele>
        <time>2018-05-19T08:40:13Z</time>
      </trkpt>
      <trkpt lat="42.905714018270373" lon="-8.695955984294415">
        <ele>151</ele>
        <time>2018-05-19T08:40:20Z</time>
      </trkpt>
      <trkpt lat="42.905820971354842" lon="-8.695668987929821">
        <ele>151.09999999999999</ele>
        <time>2018-05-19T08:40:27Z</time>
      </trkpt>
      <trkpt lat="42.905700020492077" lon="-8.695424990728498">
        <ele>149.09999999999999</ele>
        <time>2018-05-19T08:40:33Z</time>
      </trkpt>
      <trkpt lat="42.905563982203603" lon="-8.695294987410307">
        <ele>147.80000000000001</ele>
        <time>2018-05-19T08:40:38Z</time>
      </trkpt>
      <trkpt lat="42.905456023290753" lon="-8.695186022669077">
        <ele>146.90000000000001</ele>
        <time>2018-05-19T08:40:42Z</time>
      </trkpt>
      <trkpt lat="42.905029971152544" lon="-8.693894958123565">
        <ele>153.69999999999999</ele>
        <time>2018-05-19T08:41:13Z</time>
      </trkpt>
      <trkpt lat="42.903732033446431" lon="-8.692759964615107">
        <ele>164.69999999999999</ele>
        <time>2018-05-19T08:41:59Z</time>
      </trkpt>
      <trkpt lat="42.903541009873152" lon="-8.692110031843185">
        <ele>159.30000000000001</ele>
        <time>2018-05-19T08:42:14Z</time>
      </trkpt>
      <trkpt lat="42.903847033157945" lon="-8.690772028639913">
        <ele>163</ele>
        <time>2018-05-19T08:42:44Z</time>
      </trkpt>
      <trkpt lat="42.903820965439081" lon="-8.689643992111087">
        <ele>179.90000000000001</ele>
        <time>2018-05-19T08:43:09Z</time>
      </trkpt>
      <trkpt lat="42.903647040948272" lon="-8.689110986888409">
        <ele>178.40000000000001</ele>
        <time>2018-05-19T08:43:22Z</time>
      </trkpt>
      <trkpt lat="42.903102971613407" lon="-8.689248031005263">
        <ele>184.90000000000001</ele>
        <time>2018-05-19T08:43:38Z</time>
      </trkpt>
      <trkpt lat="42.902249023318291" lon="-8.68922296911478">
        <ele>186.90000000000001</ele>
        <time>2018-05-19T08:44:04Z</time>
      </trkpt>
      <trkpt lat="42.896738005802035" lon="-8.687647003680468">
        <ele>203.5</ele>
        <time>2018-05-19T08:46:50Z</time>
      </trkpt>
      <trkpt lat="42.895285002887249" lon="-8.686086041852832">
        <ele>218</ele>
        <time>2018-05-19T08:47:45Z</time>
      </trkpt>
      <trkpt lat="42.894620988518" lon="-8.685515988618136">
        <ele>215.80000000000001</ele>
        <time>2018-05-19T08:48:08Z</time>
      </trkpt>
      <trkpt lat="42.894003996625543" lon="-8.683808008208871">
        <ele>214.19999999999999</ele>
        <time>2018-05-19T08:48:50Z</time>
      </trkpt>
      <trkpt lat="42.893454981967807" lon="-8.68331397883594">
        <ele>213.69999999999999</ele>
        <time>2018-05-19T08:49:09Z</time>
      </trkpt>
      <trkpt lat="42.893109982833266" lon="-8.682458018884063">
        <ele>218</ele>
        <time>2018-05-19T08:49:30Z</time>
      </trkpt>
      <trkpt lat="42.892270032316446" lon="-8.681050026789308">
        <ele>226.19999999999999</ele>
        <time>2018-05-19T08:50:10Z</time>
      </trkpt>
      <trkpt lat="42.892674040049314" lon="-8.678173022344708">
        <ele>236.90000000000001</ele>
        <time>2018-05-19T08:51:13Z</time>
      </trkpt>
      <trkpt lat="42.891988987103105" lon="-8.672802988439798">
        <ele>260.80000000000001</ele>
        <time>2018-05-19T08:53:12Z</time>
      </trkpt>
      <trkpt lat="42.89182897657156" lon="-8.67248103953898">
        <ele>261.5</ele>
        <time>2018-05-19T08:53:20Z</time>
      </trkpt>
      <trkpt lat="42.891466962173581" lon="-8.672293033450842">
        <ele>259.89999999999998</ele>
        <time>2018-05-19T08:53:32Z</time>
      </trkpt>
      <trkpt lat="42.891089022159576" lon="-8.671695990487933">
        <ele>265.80000000000001</ele>
        <time>2018-05-19T08:53:49Z</time>
      </trkpt>
      <trkpt lat="42.890809988602996" lon="-8.671188969165087">
        <ele>272.69999999999999</ele>
        <time>2018-05-19T08:54:03Z</time>
      </trkpt>
      <trkpt lat="42.890537995845079" lon="-8.670198982581496">
        <ele>282.10000000000002</ele>
        <time>2018-05-19T08:54:26Z</time>
      </trkpt>
      <trkpt lat="42.890526009723544" lon="-8.669271022081375">
        <ele>281.89999999999998</ele>
        <time>2018-05-19T08:54:46Z</time>
      </trkpt>
      <trkpt lat="42.890763971954584" lon="-8.668306013569236">
        <ele>278</ele>
        <time>2018-05-19T08:55:08Z</time>
      </trkpt>
      <trkpt lat="42.890681996941566" lon="-8.667824976146221">
        <ele>274.80000000000001</ele>
        <time>2018-05-19T08:55:19Z</time>
      </trkpt>
      <trkpt lat="42.890025023370981" lon="-8.66625202819705">
        <ele>264.60000000000002</ele>
        <time>2018-05-19T08:55:58Z</time>
      </trkpt>
      <trkpt lat="42.889362014830112" lon="-8.665126003324986">
        <ele>245.09999999999999</ele>
        <time>2018-05-19T08:56:30Z</time>
      </trkpt>
      <trkpt lat="42.888695988804102" lon="-8.664681008085609">
        <ele>237.5</ele>
        <time>2018-05-19T08:56:52Z</time>
      </trkpt>
      <trkpt lat="42.887688986957073" lon="-8.664351012557745">
        <ele>224.59999999999999</ele>
        <time>2018-05-19T08:57:23Z</time>
      </trkpt>
      <trkpt lat="42.887264024466276" lon="-8.664333997294307">
        <ele>222.69999999999999</ele>
        <time>2018-05-19T08:57:35Z</time>
      </trkpt>
      <trkpt lat="42.88684400729835" lon="-8.664528038352728">
        <ele>226.40000000000001</ele>
        <time>2018-05-19T08:57:48Z</time>
      </trkpt>
      <trkpt lat="42.88652298040688" lon="-8.663785988464952">
        <ele>208.19999999999999</ele>
        <time>2018-05-19T08:58:08Z</time>
      </trkpt>
      <trkpt lat="42.886314019560814" lon="-8.663590019568801">
        <ele>203.69999999999999</ele>
        <time>2018-05-19T08:58:15Z</time>
      </trkpt>
      <trkpt lat="42.886811988428235" lon="-8.663022983819246">
        <ele>196.69999999999999</ele>
        <time>2018-05-19T08:58:35Z</time>
      </trkpt>
      <trkpt lat="42.888040021061897" lon="-8.662272971123457">
        <ele>197.40000000000001</ele>
        <time>2018-05-19T08:59:14Z</time>
      </trkpt>
      <trkpt lat="42.888268008828163" lon="-8.662242963910103">
        <ele>196.30000000000001</ele>
        <time>2018-05-19T08:59:21Z</time>
      </trkpt>
      <trkpt lat="42.888171030208468" lon="-8.662308007478714">
        <ele>197.59999999999999</ele>
        <time>2018-05-19T08:59:24Z</time>
      </trkpt>
      <trkpt lat="42.888974016532302" lon="-8.661801991984248">
        <ele>186.59999999999999</ele>
        <time>2018-05-19T08:59:51Z</time>
      </trkpt>
      <trkpt lat="42.889371989294887" lon="-8.661724040284753">
        <ele>183.90000000000001</ele>
        <time>2018-05-19T09:00:03Z</time>
      </trkpt>
      <trkpt lat="42.889414988458157" lon="-8.661568975076079">
        <ele>180.59999999999999</ele>
        <time>2018-05-19T09:00:06Z</time>
      </trkpt>
      <trkpt lat="42.889166967943311" lon="-8.661206038668752">
        <ele>174.90000000000001</ele>
        <time>2018-05-19T09:00:17Z</time>
      </trkpt>
      <trkpt lat="42.888946020975709" lon="-8.661089027300477">
        <ele>174.5</ele>
        <time>2018-05-19T09:00:24Z</time>
      </trkpt>
      <trkpt lat="42.888725996017456" lon="-8.65946201607585">
        <ele>148</ele>
        <time>2018-05-19T09:01:01Z</time>
      </trkpt>
      <trkpt lat="42.889285990968347" lon="-8.658163994550705">
        <ele>134.40000000000001</ele>
        <time>2018-05-19T09:01:34Z</time>
      </trkpt>
      <trkpt lat="42.889247015118599" lon="-8.655775990337133">
        <ele>103.8</ele>
        <time>2018-05-19T09:02:26Z</time>
      </trkpt>
      <trkpt lat="42.888516029343009" lon="-8.650843994691968">
        <ele>63.299999999999997</ele>
        <time>2018-05-19T09:04:16Z</time>
      </trkpt>
      <trkpt lat="42.888579983264208" lon="-8.650743998587132">
        <ele>62.5</ele>
        <time>2018-05-19T09:04:19Z</time>
      </trkpt>
      <trkpt lat="42.889354974031448" lon="-8.650554986670613">
        <ele>61.299999999999997</ele>
        <time>2018-05-19T09:04:42Z</time>
      </trkpt>
      <trkpt lat="42.889568964019418" lon="-8.650317024439573">
        <ele>58.700000000000003</ele>
        <time>2018-05-19T09:04:50Z</time>
      </trkpt>
      <trkpt lat="42.889845985919237" lon="-8.650360023602843">
        <ele>58.100000000000001</ele>
        <time>2018-05-19T09:04:58Z</time>
      </trkpt>
      <trkpt lat="42.888974016532302" lon="-8.64607896655798">
        <ele>53</ele>
        <time>2018-05-19T09:06:35Z</time>
      </trkpt>
      <trkpt lat="42.888131970539689" lon="-8.636243976652622">
        <ele>94.5</ele>
        <time>2018-05-19T09:10:10Z</time>
      </trkpt>
      <trkpt lat="42.887696027755737" lon="-8.634695000946522">
        <ele>92.900000000000006</ele>
        <time>2018-05-19T09:10:46Z</time>
      </trkpt>
      <trkpt lat="42.88755202665925" lon="-8.634623000398278">
        <ele>92.900000000000006</ele>
        <time>2018-05-19T09:10:50Z</time>
      </trkpt>
      <trkpt lat="42.887244997546077" lon="-8.634842019528151">
        <ele>91.099999999999994</ele>
        <time>2018-05-19T09:11:00Z</time>
      </trkpt>
      <trkpt lat="42.886809976771474" lon="-8.634912008419633">
        <ele>89.299999999999997</ele>
        <time>2018-05-19T09:11:13Z</time>
      </trkpt>
      <trkpt lat="42.886515017598867" lon="-8.634693995118141">
        <ele>89.299999999999997</ele>
        <time>2018-05-19T09:11:23Z</time>
      </trkpt>
      <trkpt lat="42.88667100481689" lon="-8.634195020422339">
        <ele>92.099999999999994</ele>
        <time>2018-05-19T09:11:35Z</time>
      </trkpt>
      <trkpt lat="42.886354001238942" lon="-8.63381096161902">
        <ele>93</ele>
        <time>2018-05-19T09:11:48Z</time>
      </trkpt>
      <trkpt lat="42.886302033439279" lon="-8.633462022989988">
        <ele>95.200000000000003</ele>
        <time>2018-05-19T09:11:55Z</time>
      </trkpt>
      <trkpt lat="42.886179992929101" lon="-8.633373007178307">
        <ele>95.400000000000006</ele>
        <time>2018-05-19T09:12:00Z</time>
      </trkpt>
      <trkpt lat="42.886537984013557" lon="-8.632368016988039">
        <ele>104.3</ele>
        <time>2018-05-19T09:12:24Z</time>
      </trkpt>
      <trkpt lat="42.886422984302044" lon="-8.63170400261879">
        <ele>110.5</ele>
        <time>2018-05-19T09:12:39Z</time>
      </trkpt>
      <trkpt lat="42.886496996507049" lon="-8.630809988826513">
        <ele>118.2</ele>
        <time>2018-05-19T09:12:58Z</time>
      </trkpt>
      <trkpt lat="42.886143028736115" lon="-8.629674995318055">
        <ele>124.5</ele>
        <time>2018-05-19T09:13:25Z</time>
      </trkpt>
      <trkpt lat="42.885434003546834" lon="-8.628327017650008">
        <ele>126.7</ele>
        <time>2018-05-19T09:14:01Z</time>
      </trkpt>
      <trkpt lat="42.885130997747183" lon="-8.628049995750189">
        <ele>128.09999999999999</ele>
        <time>2018-05-19T09:14:12Z</time>
      </trkpt>
      <trkpt lat="42.884479975327849" lon="-8.626821041107178">
        <ele>137.90000000000001</ele>
        <time>2018-05-19T09:14:45Z</time>
      </trkpt>
      <trkpt lat="42.883831970393658" lon="-8.625910012051463">
        <ele>147</ele>
        <time>2018-05-19T09:15:13Z</time>
      </trkpt>
      <trkpt lat="42.883629966527224" lon="-8.625715970993042">
        <ele>149.5</ele>
        <time>2018-05-19T09:15:20Z</time>
      </trkpt>
      <trkpt lat="42.882665041834116" lon="-8.625766010954976">
        <ele>159.69999999999999</ele>
        <time>2018-05-19T09:15:49Z</time>
      </trkpt>
      <trkpt lat="42.881942018866539" lon="-8.625464010983706">
        <ele>166.90000000000001</ele>
        <time>2018-05-19T09:16:11Z</time>
      </trkpt>
      <trkpt lat="42.881071977317333" lon="-8.624105975031853">
        <ele>178.69999999999999</ele>
        <time>2018-05-19T09:16:50Z</time>
      </trkpt>
      <trkpt lat="42.882069004699588" lon="-8.623127974569798">
        <ele>175</ele>
        <time>2018-05-19T09:17:27Z</time>
      </trkpt>
      <trkpt lat="42.88185996003449" lon="-8.621848979964852">
        <ele>180.40000000000001</ele>
        <time>2018-05-19T09:17:55Z</time>
      </trkpt>
      <trkpt lat="42.881336007267237" lon="-8.621918968856335">
        <ele>174.90000000000001</ele>
        <time>2018-05-19T09:18:11Z</time>
      </trkpt>
      <trkpt lat="42.881201980635524" lon="-8.621595008298755">
        <ele>175.5</ele>
        <time>2018-05-19T09:18:19Z</time>
      </trkpt>
      <trkpt lat="42.881280016154051" lon="-8.621272975578904">
        <ele>178.09999999999999</ele>
        <time>2018-05-19T09:18:26Z</time>
      </trkpt>
      <trkpt lat="42.880894029513001" lon="-8.620951026678085">
        <ele>172.5</ele>
        <time>2018-05-19T09:18:40Z</time>
      </trkpt>
      <trkpt lat="42.881497023627162" lon="-8.618253981694579">
        <ele>171.90000000000001</ele>
        <time>2018-05-19T09:19:41Z</time>
      </trkpt>
      <trkpt lat="42.880808031186461" lon="-8.617144972085953">
        <ele>163.19999999999999</ele>
        <time>2018-05-19T09:20:12Z</time>
      </trkpt>
      <trkpt lat="42.881713025271893" lon="-8.61352801322937">
        <ele>155.80000000000001</ele>
        <time>2018-05-19T09:21:35Z</time>
      </trkpt>
      <trkpt lat="42.881698021665215" lon="-8.61223703250289">
        <ele>151</ele>
        <time>2018-05-19T09:22:03Z</time>
      </trkpt>
      <trkpt lat="42.88151303306222" lon="-8.610060000792146">
        <ele>145.59999999999999</ele>
        <time>2018-05-19T09:22:51Z</time>
      </trkpt>
      <trkpt lat="42.881569024175406" lon="-8.609728999435902">
        <ele>146</ele>
        <time>2018-05-19T09:22:58Z</time>
      </trkpt>
      <trkpt lat="42.883298965170979" lon="-8.607881041243672">
        <ele>151.40000000000001</ele>
        <time>2018-05-19T09:24:03Z</time>
      </trkpt>
      <trkpt lat="42.883294019848108" lon="-8.607728993520141">
        <ele>152.69999999999999</ele>
        <time>2018-05-19T09:24:07Z</time>
      </trkpt>
      <trkpt lat="42.88293301127851" lon="-8.607634026557207">
        <ele>154.69999999999999</ele>
        <time>2018-05-19T09:24:18Z</time>
      </trkpt>
      <trkpt lat="42.882751962170005" lon="-8.60725399106741">
        <ele>158.30000000000001</ele>
        <time>2018-05-19T09:24:27Z</time>
      </trkpt>
      <trkpt lat="42.88243898190558" lon="-8.60697596333921">
        <ele>161.09999999999999</ele>
        <time>2018-05-19T09:24:38Z</time>
      </trkpt>
      <trkpt lat="42.88256898522377" lon="-8.60682500526309">
        <ele>162.59999999999999</ele>
        <time>2018-05-19T09:24:44Z</time>
      </trkpt>
      <trkpt lat="42.882420038804412" lon="-8.606661977246404">
        <ele>164.30000000000001</ele>
        <time>2018-05-19T09:24:49Z</time>
      </trkpt>
      <trkpt lat="42.881638007238507" lon="-8.606282025575638">
        <ele>165.5</ele>
        <time>2018-05-19T09:25:14Z</time>
      </trkpt>
      <trkpt lat="42.881474979221821" lon="-8.606027970090509">
        <ele>166</ele>
        <time>2018-05-19T09:25:21Z</time>
      </trkpt>
      <trkpt lat="42.88142996840179" lon="-8.604319989681244">
        <ele>173.40000000000001</ele>
        <time>2018-05-19T09:25:58Z</time>
      </trkpt>
      <trkpt lat="42.881082035601139" lon="-8.603848004713655">
        <ele>173.90000000000001</ele>
        <time>2018-05-19T09:26:13Z</time>
      </trkpt>
      <trkpt lat="42.880929987877607" lon="-8.603351041674614">
        <ele>175.59999999999999</ele>
        <time>2018-05-19T09:26:24Z</time>
      </trkpt>
      <trkpt lat="42.880536038428545" lon="-8.603109978139401">
        <ele>172.19999999999999</ele>
        <time>2018-05-19T09:26:37Z</time>
      </trkpt>
      <trkpt lat="42.880133036524057" lon="-8.602605974301696">
        <ele>172.40000000000001</ele>
        <time>2018-05-19T09:26:53Z</time>
      </trkpt>
      <trkpt lat="42.8794090077281" lon="-8.601426975801587">
        <ele>183.40000000000001</ele>
        <time>2018-05-19T09:27:27Z</time>
      </trkpt>
      <trkpt lat="42.87919401191175" lon="-8.600647961720824">
        <ele>195.59999999999999</ele>
        <time>2018-05-19T09:27:45Z</time>
      </trkpt>
      <trkpt lat="42.879417976364493" lon="-8.60012199729681">
        <ele>204.09999999999999</ele>
        <time>2018-05-19T09:27:59Z</time>
      </trkpt>
      <trkpt lat="42.880341997370124" lon="-8.599051963537931">
        <ele>213.5</ele>
        <time>2018-05-19T09:28:35Z</time>
      </trkpt>
      <trkpt lat="42.880577025935054" lon="-8.598927995190024">
        <ele>215.90000000000001</ele>
        <time>2018-05-19T09:28:42Z</time>
      </trkpt>
      <trkpt lat="42.881423011422157" lon="-8.599108038470149">
        <ele>223</ele>
        <time>2018-05-19T09:29:07Z</time>
      </trkpt>
      <trkpt lat="42.881865995004773" lon="-8.599042994901538">
        <ele>223.19999999999999</ele>
        <time>2018-05-19T09:29:21Z</time>
      </trkpt>
      <trkpt lat="42.882130024954677" lon="-8.598911985754967">
        <ele>223.90000000000001</ele>
        <time>2018-05-19T09:29:29Z</time>
      </trkpt>
      <trkpt lat="42.8822479583323" lon="-8.598570004105568">
        <ele>223.59999999999999</ele>
        <time>2018-05-19T09:29:37Z</time>
      </trkpt>
      <trkpt lat="42.881824001669884" lon="-8.596262969076634">
        <ele>198.69999999999999</ele>
        <time>2018-05-19T09:30:29Z</time>
      </trkpt>
      <trkpt lat="42.881546979770064" lon="-8.594816001132131">
        <ele>186.5</ele>
        <time>2018-05-19T09:31:02Z</time>
      </trkpt>
      <trkpt lat="42.881552008911967" lon="-8.594721034169197">
        <ele>185.80000000000001</ele>
        <time>2018-05-19T09:31:04Z</time>
      </trkpt>
      <trkpt lat="42.881554020568728" lon="-8.594693038612604">
        <ele>185.59999999999999</ele>
        <time>2018-05-19T09:31:04Z</time>
      </trkpt>
      <trkpt lat="42.881572041660547" lon="-8.594695972278714">
        <ele>185.80000000000001</ele>
        <time>2018-05-19T09:31:05Z</time>
      </trkpt>
      <trkpt lat="42.881555026397109" lon="-8.594605028629303">
        <ele>184.80000000000001</ele>
        <time>2018-05-19T09:31:07Z</time>
      </trkpt>
      <trkpt lat="42.881491994485259" lon="-8.594478964805603">
        <ele>184</ele>
        <time>2018-05-19T09:31:10Z</time>
      </trkpt>
      <trkpt lat="42.881426028907299" lon="-8.594415010884404">
        <ele>183.30000000000001</ele>
        <time>2018-05-19T09:31:13Z</time>
      </trkpt>
      <trkpt lat="42.881358973681927" lon="-8.594373017549515">
        <ele>182.59999999999999</ele>
        <time>2018-05-19T09:31:15Z</time>
      </trkpt>
      <trkpt lat="42.881207009777427" lon="-8.594307973980904">
        <ele>181</ele>
        <time>2018-05-19T09:31:20Z</time>
      </trkpt>
      <trkpt lat="42.881112964823842" lon="-8.594280984252691">
        <ele>180.19999999999999</ele>
        <time>2018-05-19T09:31:23Z</time>
      </trkpt>
      <trkpt lat="42.881054040044546" lon="-8.594284001737833">
        <ele>179.80000000000001</ele>
        <time>2018-05-19T09:31:24Z</time>
      </trkpt>
      <trkpt lat="42.880992013961077" lon="-8.59427796676755">
        <ele>179.30000000000001</ele>
        <time>2018-05-19T09:31:26Z</time>
      </trkpt>
      <trkpt lat="42.880948008969426" lon="-8.594270003959537">
        <ele>178.90000000000001</ele>
        <time>2018-05-19T09:31:27Z</time>
      </trkpt>
      <trkpt lat="42.880909033119678" lon="-8.594257012009621">
        <ele>178.5</ele>
        <time>2018-05-19T09:31:29Z</time>
      </trkpt>
      <trkpt lat="42.880833009257913" lon="-8.594260029494762">
        <ele>177.90000000000001</ele>
        <time>2018-05-19T09:31:31Z</time>
      </trkpt>
      <trkpt lat="42.880776012316346" lon="-8.594250977039337">
        <ele>177.40000000000001</ele>
        <time>2018-05-19T09:31:33Z</time>
      </trkpt>
      <trkpt lat="42.880715997889638" lon="-8.594230022281408">
        <ele>176.90000000000001</ele>
        <time>2018-05-19T09:31:34Z</time>
      </trkpt>
      <trkpt lat="42.880594041198492" lon="-8.594165984541178">
        <ele>175.59999999999999</ele>
        <time>2018-05-19T09:31:38Z</time>
      </trkpt>
      <trkpt lat="42.880496978759766" lon="-8.593898015096784">
        <ele>173.59999999999999</ele>
        <time>2018-05-19T09:31:45Z</time>
      </trkpt>
      <trkpt lat="42.880421038717031" lon="-8.593600038439035">
        <ele>171.69999999999999</ele>
        <time>2018-05-19T09:31:52Z</time>
      </trkpt>
      <trkpt lat="42.880344009026885" lon="-8.593236012384296">
        <ele>170.30000000000001</ele>
        <time>2018-05-19T09:32:00Z</time>
      </trkpt>
      <trkpt lat="42.880219034850597" lon="-8.592924037948251">
        <ele>168.40000000000001</ele>
        <time>2018-05-19T09:32:08Z</time>
      </trkpt>
      <trkpt lat="42.880084002390504" lon="-8.592728991061449">
        <ele>166.59999999999999</ele>
        <time>2018-05-19T09:32:13Z</time>
      </trkpt>
      <trkpt lat="42.879835981875658" lon="-8.592424979433417">
        <ele>163.80000000000001</ele>
        <time>2018-05-19T09:32:23Z</time>
      </trkpt>
      <trkpt lat="42.879658034071326" lon="-8.592188023030758">
        <ele>161.80000000000001</ele>
        <time>2018-05-19T09:32:31Z</time>
      </trkpt>
      <trkpt lat="42.879545968025923" lon="-8.59204201027751">
        <ele>160.90000000000001</ele>
        <time>2018-05-19T09:32:35Z</time>
      </trkpt>
      <trkpt lat="42.879401966929436" lon="-8.591876970604062">
        <ele>160.69999999999999</ele>
        <time>2018-05-19T09:32:41Z</time>
      </trkpt>
      <trkpt lat="42.879312029108405" lon="-8.591701034456492">
        <ele>160.69999999999999</ele>
        <time>2018-05-19T09:32:46Z</time>
      </trkpt>
      <trkpt lat="42.879166016355157" lon="-8.591485032811761">
        <ele>160.59999999999999</ele>
        <time>2018-05-19T09:32:52Z</time>
      </trkpt>
      <trkpt lat="42.879071971401572" lon="-8.591381013393402">
        <ele>160.5</ele>
        <time>2018-05-19T09:32:56Z</time>
      </trkpt>
      <trkpt lat="42.878949008882046" lon="-8.5911859665066">
        <ele>159.80000000000001</ele>
        <time>2018-05-19T09:33:01Z</time>
      </trkpt>
      <trkpt lat="42.878919001668692" lon="-8.591086976230145">
        <ele>159</ele>
        <time>2018-05-19T09:33:03Z</time>
      </trkpt>
      <trkpt lat="42.878841971978545" lon="-8.590935012325645">
        <ele>157.5</ele>
        <time>2018-05-19T09:33:07Z</time>
      </trkpt>
      <trkpt lat="42.878685984760523" lon="-8.590735020115972">
        <ele>154.69999999999999</ele>
        <time>2018-05-19T09:33:14Z</time>
      </trkpt>
      <trkpt lat="42.878562016412616" lon="-8.590493034571409">
        <ele>152.09999999999999</ele>
        <time>2018-05-19T09:33:20Z</time>
      </trkpt>
      <trkpt lat="42.878578025847673" lon="-8.590330006554723">
        <ele>150.80000000000001</ele>
        <time>2018-05-19T09:33:24Z</time>
      </trkpt>
      <trkpt lat="42.878797966986895" lon="-8.590244008228183">
        <ele>151.40000000000001</ele>
        <time>2018-05-19T09:33:31Z</time>
      </trkpt>
      <trkpt lat="42.879176996648312" lon="-8.590042004361749">
        <ele>152.90000000000001</ele>
        <time>2018-05-19T09:33:43Z</time>
      </trkpt>
      <trkpt lat="42.879562983289361" lon="-8.589775962755084">
        <ele>153.30000000000001</ele>
        <time>2018-05-19T09:33:55Z</time>
      </trkpt>
      <trkpt lat="42.879958022385836" lon="-8.5893589630723">
        <ele>152.19999999999999</ele>
        <time>2018-05-19T09:34:10Z</time>
      </trkpt>
      <trkpt lat="42.880037985742092" lon="-8.589196018874645">
        <ele>151.09999999999999</ele>
        <time>2018-05-19T09:34:15Z</time>
      </trkpt>
      <trkpt lat="42.880100011825562" lon="-8.588990997523069">
        <ele>149.40000000000001</ele>
        <time>2018-05-19T09:34:19Z</time>
      </trkpt>
      <trkpt lat="42.880201013758779" lon="-8.588479030877352">
        <ele>146.69999999999999</ele>
        <time>2018-05-19T09:34:31Z</time>
      </trkpt>
      <trkpt lat="42.8802689909935" lon="-8.588083991780877">
        <ele>146</ele>
        <time>2018-05-19T09:34:40Z</time>
      </trkpt>
      <trkpt lat="42.88033302873373" lon="-8.587748967111111">
        <ele>146.69999999999999</ele>
        <time>2018-05-19T09:34:47Z</time>
      </trkpt>
      <trkpt lat="42.880336968228221" lon="-8.587584011256695">
        <ele>147.69999999999999</ele>
        <time>2018-05-19T09:34:51Z</time>
      </trkpt>
      <trkpt lat="42.880243007093668" lon="-8.58746599406004">
        <ele>148.09999999999999</ele>
        <time>2018-05-19T09:34:55Z</time>
      </trkpt>
      <trkpt lat="42.880154997110367" lon="-8.587206993252039">
        <ele>149.30000000000001</ele>
        <time>2018-05-19T09:35:01Z</time>
      </trkpt>
      <trkpt lat="42.880085008218884" lon="-8.587113032117486">
        <ele>149.59999999999999</ele>
        <time>2018-05-19T09:35:04Z</time>
      </trkpt>
      <trkpt lat="42.879894990473986" lon="-8.587082019075751">
        <ele>149.09999999999999</ele>
        <time>2018-05-19T09:35:09Z</time>
      </trkpt>
      <trkpt lat="42.879665996879339" lon="-8.586946986615658">
        <ele>149.59999999999999</ele>
        <time>2018-05-19T09:35:17Z</time>
      </trkpt>
      <trkpt lat="42.879639007151127" lon="-8.586913961917162">
        <ele>149.90000000000001</ele>
        <time>2018-05-19T09:35:18Z</time>
      </trkpt>
      <trkpt lat="42.879358967766166" lon="-8.586621014401317">
        <ele>151.30000000000001</ele>
        <time>2018-05-19T09:35:28Z</time>
      </trkpt>
      <trkpt lat="42.879157969728112" lon="-8.586313985288143">
        <ele>152.90000000000001</ele>
        <time>2018-05-19T09:35:37Z</time>
      </trkpt>
      <trkpt lat="42.87908798083663" lon="-8.586023971438408">
        <ele>154.40000000000001</ele>
        <time>2018-05-19T09:35:44Z</time>
      </trkpt>
      <trkpt lat="42.879071971401572" lon="-8.585634967312217">
        <ele>156.59999999999999</ele>
        <time>2018-05-19T09:35:52Z</time>
      </trkpt>
      <trkpt lat="42.879068031907082" lon="-8.585409997031093">
        <ele>157.90000000000001</ele>
        <time>2018-05-19T09:35:57Z</time>
      </trkpt>
      <trkpt lat="42.879030983895063" lon="-8.585083018988371">
        <ele>159.30000000000001</ele>
        <time>2018-05-19T09:36:04Z</time>
      </trkpt>
      <trkpt lat="42.878932999446988" lon="-8.585028033703566">
        <ele>159</ele>
        <time>2018-05-19T09:36:07Z</time>
      </trkpt>
      <trkpt lat="42.87878799252212" lon="-8.585051000118256">
        <ele>158</ele>
        <time>2018-05-19T09:36:12Z</time>
      </trkpt>
      <trkpt lat="42.878704005852342" lon="-8.585073966532946">
        <ele>157.30000000000001</ele>
        <time>2018-05-19T09:36:14Z</time>
      </trkpt>
      <trkpt lat="42.87850602529943" lon="-8.585066003724933">
        <ele>156.09999999999999</ele>
        <time>2018-05-19T09:36:20Z</time>
      </trkpt>
      <trkpt lat="42.878376021981239" lon="-8.585024010390043">
        <ele>155.40000000000001</ele>
        <time>2018-05-19T09:36:24Z</time>
      </trkpt>
      <trkpt lat="42.878174018114805" lon="-8.584358990192413">
        <ele>155.90000000000001</ele>
        <time>2018-05-19T09:36:40Z</time>
      </trkpt>
      <trkpt lat="42.878065975382924" lon="-8.58390100300312">
        <ele>155.19999999999999</ele>
        <time>2018-05-19T09:36:50Z</time>
      </trkpt>
      <trkpt lat="42.877933960407972" lon="-8.583283005282283">
        <ele>156.40000000000001</ele>
        <time>2018-05-19T09:37:04Z</time>
      </trkpt>
      <trkpt lat="42.877843016758561" lon="-8.582880003377795">
        <ele>157.59999999999999</ele>
        <time>2018-05-19T09:37:13Z</time>
      </trkpt>
      <trkpt lat="42.877736985683441" lon="-8.582463003695011">
        <ele>157.19999999999999</ele>
        <time>2018-05-19T09:37:23Z</time>
      </trkpt>
      <trkpt lat="42.877645036205649" lon="-8.582124039530754">
        <ele>156.69999999999999</ele>
        <time>2018-05-19T09:37:31Z</time>
      </trkpt>
      <trkpt lat="42.877625003457069" lon="-8.581923041492701">
        <ele>156.5</ele>
        <time>2018-05-19T09:37:35Z</time>
      </trkpt>
      <trkpt lat="42.877733968198299" lon="-8.581813992932439">
        <ele>157.69999999999999</ele>
        <time>2018-05-19T09:37:39Z</time>
      </trkpt>
      <trkpt lat="42.877996992319822" lon="-8.581612994894385">
        <ele>160.59999999999999</ele>
        <time>2018-05-19T09:37:48Z</time>
      </trkpt>
      <trkpt lat="42.878307960927486" lon="-8.581396993249655">
        <ele>162.69999999999999</ele>
        <time>2018-05-19T09:37:58Z</time>
      </trkpt>
      <trkpt lat="42.878473000600934" lon="-8.581269001588225">
        <ele>163.69999999999999</ele>
        <time>2018-05-19T09:38:04Z</time>
      </trkpt>
      <trkpt lat="42.878691013902426" lon="-8.5811079852283">
        <ele>163.5</ele>
        <time>2018-05-19T09:38:11Z</time>
      </trkpt>
      <trkpt lat="42.878924030810595" lon="-8.580918973311782">
        <ele>162.80000000000001</ele>
        <time>2018-05-19T09:38:19Z</time>
      </trkpt>
      <trkpt lat="42.879133997485042" lon="-8.58052896335721">
        <ele>159.30000000000001</ele>
        <time>2018-05-19T09:38:30Z</time>
      </trkpt>
      <trkpt lat="42.87936701439321" lon="-8.579948013648391">
        <ele>153.90000000000001</ele>
        <time>2018-05-19T09:38:44Z</time>
      </trkpt>
      <trkpt lat="42.879476984962821" lon="-8.579443003982306">
        <ele>151.09999999999999</ele>
        <time>2018-05-19T09:38:56Z</time>
      </trkpt>
      <trkpt lat="42.879478996619582" lon="-8.578986022621393">
        <ele>150.40000000000001</ele>
        <time>2018-05-19T09:39:06Z</time>
      </trkpt>
      <trkpt lat="42.879297025501728" lon="-8.57835603877902">
        <ele>154</ele>
        <time>2018-05-19T09:39:20Z</time>
      </trkpt>
      <trkpt lat="42.879170039668679" lon="-8.578115981072187">
        <ele>156.80000000000001</ele>
        <time>2018-05-19T09:39:27Z</time>
      </trkpt>
      <trkpt lat="42.8789790160954" lon="-8.578020008280873">
        <ele>158.69999999999999</ele>
        <time>2018-05-19T09:39:33Z</time>
      </trkpt>
      <trkpt lat="42.87876502610743" lon="-8.577997963875532">
        <ele>159.90000000000001</ele>
        <time>2018-05-19T09:39:39Z</time>
      </trkpt>
      <trkpt lat="42.878625970333815" lon="-8.578028976917267">
        <ele>160.30000000000001</ele>
        <time>2018-05-19T09:39:44Z</time>
      </trkpt>
      <trkpt lat="42.878612978383899" lon="-8.578023025766015">
        <ele>160.5</ele>
        <time>2018-05-19T09:39:44Z</time>
      </trkpt>
      <trkpt lat="42.878576014190912" lon="-8.577988995239139">
        <ele>161.19999999999999</ele>
        <time>2018-05-19T09:39:45Z</time>
      </trkpt>
      <trkpt lat="42.878619013354182" lon="-8.577853962779045">
        <ele>163.5</ele>
        <time>2018-05-19T09:39:49Z</time>
      </trkpt>
      <trkpt lat="42.878642985597253" lon="-8.577812975272536">
        <ele>164.40000000000001</ele>
        <time>2018-05-19T09:39:50Z</time>
      </trkpt>
      <trkpt lat="42.878673998638988" lon="-8.577757989987731">
        <ele>165.59999999999999</ele>
        <time>2018-05-19T09:39:51Z</time>
      </trkpt>
      <trkpt lat="42.878681961447001" lon="-8.577737035229802">
        <ele>166.09999999999999</ele>
        <time>2018-05-19T09:39:52Z</time>
      </trkpt>
      <trkpt lat="42.878780029714108" lon="-8.577646007761359">
        <ele>168</ele>
        <time>2018-05-19T09:39:55Z</time>
      </trkpt>
      <trkpt lat="42.878838032484055" lon="-8.577589010819793">
        <ele>169.09999999999999</ele>
        <time>2018-05-19T09:39:57Z</time>
      </trkpt>
      <trkpt lat="42.87885001860559" lon="-8.577493960037828">
        <ele>171.5</ele>
        <time>2018-05-19T09:40:00Z</time>
      </trkpt>
      <trkpt lat="42.878820011392236" lon="-8.577434029430151">
        <ele>173.30000000000001</ele>
        <time>2018-05-19T09:40:01Z</time>
      </trkpt>
      <trkpt lat="42.878810036927462" lon="-8.577431011945009">
        <ele>173.40000000000001</ele>
        <time>2018-05-19T09:40:02Z</time>
      </trkpt>
      <trkpt lat="42.878752034157515" lon="-8.577447021380067">
        <ele>173.40000000000001</ele>
        <time>2018-05-19T09:40:03Z</time>
      </trkpt>
      <trkpt lat="42.878683973103762" lon="-8.577474011108279">
        <ele>172.90000000000001</ele>
        <time>2018-05-19T09:40:05Z</time>
      </trkpt>
      <trkpt lat="42.878612978383899" lon="-8.57747501693666">
        <ele>173.19999999999999</ele>
        <time>2018-05-19T09:40:08Z</time>
      </trkpt>
      <trkpt lat="42.878509964793921" lon="-8.57745498418808">
        <ele>174.09999999999999</ele>
        <time>2018-05-19T09:40:11Z</time>
      </trkpt>
      <trkpt lat="42.878409968689084" lon="-8.577437968924642">
        <ele>174.90000000000001</ele>
        <time>2018-05-19T09:40:14Z</time>
      </trkpt>
      <trkpt lat="42.8782709967345" lon="-8.577395975589752">
        <ele>176.40000000000001</ele>
        <time>2018-05-19T09:40:18Z</time>
      </trkpt>
      <trkpt lat="42.878221040591598" lon="-8.577382983639836">
        <ele>176.90000000000001</ele>
        <time>2018-05-19T09:40:19Z</time>
      </trkpt>
      <trkpt lat="42.878165971487761" lon="-8.577315006405115">
        <ele>178.59999999999999</ele>
        <time>2018-05-19T09:40:22Z</time>
      </trkpt>
      <trkpt lat="42.878068992868066" lon="-8.577272007241845">
        <ele>179.80000000000001</ele>
        <time>2018-05-19T09:40:25Z</time>
      </trkpt>
      <trkpt lat="42.877987017855048" lon="-8.577199000865221">
        <ele>181.5</ele>
        <time>2018-05-19T09:40:28Z</time>
      </trkpt>
      <trkpt lat="42.877931026741862" lon="-8.577123982831836">
        <ele>183.09999999999999</ele>
        <time>2018-05-19T09:40:30Z</time>
      </trkpt>
      <trkpt lat="42.877838993445039" lon="-8.577048964798451">
        <ele>185</ele>
        <time>2018-05-19T09:40:33Z</time>
      </trkpt>
      <trkpt lat="42.877779984846711" lon="-8.576946035027504">
        <ele>187.59999999999999</ele>
        <time>2018-05-19T09:40:36Z</time>
      </trkpt>
      <trkpt lat="42.877754000946879" lon="-8.576856013387442">
        <ele>189.80000000000001</ele>
        <time>2018-05-19T09:40:38Z</time>
      </trkpt>
      <trkpt lat="42.877617962658405" lon="-8.576760040596128">
        <ele>192.59999999999999</ele>
        <time>2018-05-19T09:40:43Z</time>
      </trkpt>
      <trkpt lat="42.877535987645388" lon="-8.576716035604477">
        <ele>194.09999999999999</ele>
        <time>2018-05-19T09:40:45Z</time>
      </trkpt>
      <trkpt lat="42.877492988482118" lon="-8.576671024784446">
        <ele>195.40000000000001</ele>
        <time>2018-05-19T09:40:47Z</time>
      </trkpt>
      <trkpt lat="42.877441020682454" lon="-8.576635988429189">
        <ele>196.59999999999999</ele>
        <time>2018-05-19T09:40:49Z</time>
      </trkpt>
      <trkpt lat="42.877357034012675" lon="-8.576586032286286">
        <ele>198.30000000000001</ele>
        <time>2018-05-19T09:40:52Z</time>
      </trkpt>
      <trkpt lat="42.877274975180626" lon="-8.576562982052565">
        <ele>199.30000000000001</ele>
        <time>2018-05-19T09:40:54Z</time>
      </trkpt>
      <trkpt lat="42.877199035137892" lon="-8.576519982889295">
        <ele>200.90000000000001</ele>
        <time>2018-05-19T09:40:57Z</time>
      </trkpt>
      <trkpt lat="42.877162992954254" lon="-8.576497016474605">
        <ele>201.69999999999999</ele>
        <time>2018-05-19T09:40:58Z</time>
      </trkpt>
      <trkpt lat="42.877083029597998" lon="-8.576386040076613">
        <ele>205.19999999999999</ele>
        <time>2018-05-19T09:41:01Z</time>
      </trkpt>
      <trkpt lat="42.877035001292825" lon="-8.576345974579454">
        <ele>206.19999999999999</ele>
        <time>2018-05-19T09:41:03Z</time>
      </trkpt>
      <trkpt lat="42.876993007957935" lon="-8.576288977637887">
        <ele>207.5</ele>
        <time>2018-05-19T09:41:05Z</time>
      </trkpt>
      <trkpt lat="42.876953026279807" lon="-8.576255030930042">
        <ele>208.19999999999999</ele>
        <time>2018-05-19T09:41:06Z</time>
      </trkpt>
      <trkpt lat="42.876924024894834" lon="-8.576241033151746">
        <ele>208.40000000000001</ele>
        <time>2018-05-19T09:41:07Z</time>
      </trkpt>
      <trkpt lat="42.87683199159801" lon="-8.57629400677979">
        <ele>206.69999999999999</ele>
        <time>2018-05-19T09:41:10Z</time>
      </trkpt>
      <trkpt lat="42.876756973564625" lon="-8.576362989842892">
        <ele>204.69999999999999</ele>
        <time>2018-05-19T09:41:13Z</time>
      </trkpt>
      <trkpt lat="42.876688996329904" lon="-8.576417975127697">
        <ele>203.19999999999999</ele>
        <time>2018-05-19T09:41:15Z</time>
      </trkpt>
      <trkpt lat="42.876610038802028" lon="-8.576489975675941">
        <ele>201.40000000000001</ele>
        <time>2018-05-19T09:41:18Z</time>
      </trkpt>
      <trkpt lat="42.876535020768642" lon="-8.576563987880945">
        <ele>199.69999999999999</ele>
        <time>2018-05-19T09:41:21Z</time>
      </trkpt>
      <trkpt lat="42.876432007178664" lon="-8.576641017571092">
        <ele>198</ele>
        <time>2018-05-19T09:41:24Z</time>
      </trkpt>
      <trkpt lat="42.876346008852124" lon="-8.576682005077601">
        <ele>197.19999999999999</ele>
        <time>2018-05-19T09:41:27Z</time>
      </trkpt>
      <trkpt lat="42.876237966120243" lon="-8.576690973713994">
        <ele>197</ele>
        <time>2018-05-19T09:41:30Z</time>
      </trkpt>
      <trkpt lat="42.876105029135942" lon="-8.576699020341039">
        <ele>196.19999999999999</ele>
        <time>2018-05-19T09:41:34Z</time>
      </trkpt>
      <trkpt lat="42.876017019152641" lon="-8.576685022562742">
        <ele>196</ele>
        <time>2018-05-19T09:41:37Z</time>
      </trkpt>
      <trkpt lat="42.875939989462495" lon="-8.576663983985782">
        <ele>195.90000000000001</ele>
        <time>2018-05-19T09:41:39Z</time>
      </trkpt>
      <trkpt lat="42.875833036378026" lon="-8.576606987044215">
        <ele>196.09999999999999</ele>
        <time>2018-05-19T09:41:42Z</time>
      </trkpt>
      <trkpt lat="42.875789031386375" lon="-8.576516965404153">
        <ele>197</ele>
        <time>2018-05-19T09:41:45Z</time>
      </trkpt>
      <trkpt lat="42.875747960060835" lon="-8.576454017311335">
        <ele>197.5</ele>
        <time>2018-05-19T09:41:47Z</time>
      </trkpt>
      <trkpt lat="42.875721976161003" lon="-8.576369024813175">
        <ele>198.40000000000001</ele>
        <time>2018-05-19T09:41:49Z</time>
      </trkpt>
      <trkpt lat="42.875696998089552" lon="-8.576341029256582">
        <ele>198.59999999999999</ele>
        <time>2018-05-19T09:41:50Z</time>
      </trkpt>
      <trkpt lat="42.875635977834463" lon="-8.576197028160095">
        <ele>199.80000000000001</ele>
        <time>2018-05-19T09:41:53Z</time>
      </trkpt>
      <trkpt lat="42.875622985884547" lon="-8.576184958219528">
        <ele>199.80000000000001</ele>
        <time>2018-05-19T09:41:54Z</time>
      </trkpt>
      <trkpt lat="42.875589039176702" lon="-8.576117986813188">
        <ele>200.40000000000001</ele>
        <time>2018-05-19T09:41:55Z</time>
      </trkpt>
      <trkpt lat="42.875590967014432" lon="-8.576114969328046">
        <ele>200.5</ele>
        <time>2018-05-19T09:41:56Z</time>
      </trkpt>
      <trkpt lat="42.875583004206419" lon="-8.576121004298329">
        <ele>200.30000000000001</ele>
        <time>2018-05-19T09:41:56Z</time>
      </trkpt>
      <trkpt lat="42.875581998378038" lon="-8.576117986813188">
        <ele>200.30000000000001</ele>
        <time>2018-05-19T09:41:56Z</time>
      </trkpt>
      <trkpt lat="42.875589961186051" lon="-8.576124021783471">
        <ele>200.30000000000001</ele>
        <time>2018-05-19T09:41:56Z</time>
      </trkpt>
      <trkpt lat="42.875579986721277" lon="-8.576074987649918">
        <ele>200.90000000000001</ele>
        <time>2018-05-19T09:41:57Z</time>
      </trkpt>
      <trkpt lat="42.875565988942981" lon="-8.576027965173125">
        <ele>201.40000000000001</ele>
        <time>2018-05-19T09:41:58Z</time>
      </trkpt>
      <trkpt lat="42.875559031963348" lon="-8.576010027900338">
        <ele>201.5</ele>
        <time>2018-05-19T09:41:59Z</time>
      </trkpt>
      <trkpt lat="42.875587027519941" lon="-8.575826967135072">
        <ele>204.19999999999999</ele>
        <time>2018-05-19T09:42:03Z</time>
      </trkpt>
      <trkpt lat="42.875583004206419" lon="-8.575807018205524">
        <ele>204.40000000000001</ele>
        <time>2018-05-19T09:42:03Z</time>
      </trkpt>
      <trkpt lat="42.875613011419773" lon="-8.575738035142422">
        <ele>205.59999999999999</ele>
        <time>2018-05-19T09:42:05Z</time>
      </trkpt>
      <trkpt lat="42.87567000836134" lon="-8.575658993795514">
        <ele>207.19999999999999</ele>
        <time>2018-05-19T09:42:08Z</time>
      </trkpt>
      <trkpt lat="42.875642012804747" lon="-8.575470987707377">
        <ele>209.40000000000001</ele>
        <time>2018-05-19T09:42:12Z</time>
      </trkpt>
      <trkpt lat="42.875644024461508" lon="-8.575181979686022">
        <ele>210.59999999999999</ele>
        <time>2018-05-19T09:42:18Z</time>
      </trkpt>
      <trkpt lat="42.875657016411424" lon="-8.574828011915088">
        <ele>211.5</ele>
        <time>2018-05-19T09:42:26Z</time>
      </trkpt>
      <trkpt lat="42.875645030289888" lon="-8.574744025245309">
        <ele>211.5</ele>
        <time>2018-05-19T09:42:28Z</time>
      </trkpt>
      <trkpt lat="42.875646036118269" lon="-8.57459700666368">
        <ele>211.80000000000001</ele>
        <time>2018-05-19T09:42:31Z</time>
      </trkpt>
      <trkpt lat="42.875602031126618" lon="-8.574419980868697">
        <ele>211.69999999999999</ele>
        <time>2018-05-19T09:42:35Z</time>
      </trkpt>
      <trkpt lat="42.8755649831146" lon="-8.574127033352852">
        <ele>212.19999999999999</ele>
        <time>2018-05-19T09:42:41Z</time>
      </trkpt>
      <trkpt lat="42.875518966466188" lon="-8.573892004787922">
        <ele>212.30000000000001</ele>
        <time>2018-05-19T09:42:47Z</time>
      </trkpt>
      <trkpt lat="42.875432968139648" lon="-8.573602996766567">
        <ele>212.90000000000001</ele>
        <time>2018-05-19T09:42:53Z</time>
      </trkpt>
      <trkpt lat="42.875332972034812" lon="-8.573379032313824">
        <ele>214</ele>
        <time>2018-05-19T09:42:59Z</time>
      </trkpt>
      <trkpt lat="42.875325009226799" lon="-8.573323963209987">
        <ele>214.40000000000001</ele>
        <time>2018-05-19T09:43:00Z</time>
      </trkpt>
      <trkpt lat="42.875235993415117" lon="-8.573105027899146">
        <ele>215.5</ele>
        <time>2018-05-19T09:43:06Z</time>
      </trkpt>
      <trkpt lat="42.875217972323298" lon="-8.572828005999327">
        <ele>217.80000000000001</ele>
        <time>2018-05-19T09:43:12Z</time>
      </trkpt>
      <trkpt lat="42.875234987586737" lon="-8.572563976049423">
        <ele>219.80000000000001</ele>
        <time>2018-05-19T09:43:18Z</time>
      </trkpt>
      <trkpt lat="42.875204980373383" lon="-8.572417041286826">
        <ele>220.40000000000001</ele>
        <time>2018-05-19T09:43:21Z</time>
      </trkpt>
      <trkpt lat="42.875201962888241" lon="-8.572318973019719">
        <ele>221</ele>
        <time>2018-05-19T09:43:23Z</time>
      </trkpt>
      <trkpt lat="42.875201040878892" lon="-8.572289971634746">
        <ele>221.19999999999999</ele>
        <time>2018-05-19T09:43:24Z</time>
      </trkpt>
      <trkpt lat="42.875214032828808" lon="-8.572173966094852">
        <ele>222.19999999999999</ele>
        <time>2018-05-19T09:43:26Z</time>
      </trkpt>
      <trkpt lat="42.875204980373383" lon="-8.571924017742276">
        <ele>223.30000000000001</ele>
        <time>2018-05-19T09:43:32Z</time>
      </trkpt>
      <trkpt lat="42.875158963724971" lon="-8.571482039988041">
        <ele>224.5</ele>
        <time>2018-05-19T09:43:41Z</time>
      </trkpt>
      <trkpt lat="42.875192994251847" lon="-8.571352958679199">
        <ele>225.40000000000001</ele>
        <time>2018-05-19T09:43:44Z</time>
      </trkpt>
      <trkpt lat="42.875229036435485" lon="-8.571296967566013">
        <ele>226</ele>
        <time>2018-05-19T09:43:46Z</time>
      </trkpt>
      <trkpt lat="42.875291984528303" lon="-8.571249023079872">
        <ele>226.80000000000001</ele>
        <time>2018-05-19T09:43:48Z</time>
      </trkpt>
      <trkpt lat="42.875425005331635" lon="-8.57109404169023">
        <ele>228.69999999999999</ele>
        <time>2018-05-19T09:43:53Z</time>
      </trkpt>
      <trkpt lat="42.875516032800078" lon="-8.570993039757013">
        <ele>231</ele>
        <time>2018-05-19T09:43:57Z</time>
      </trkpt>
      <trkpt lat="42.875599013641477" lon="-8.570789024233818">
        <ele>232.90000000000001</ele>
        <time>2018-05-19T09:44:02Z</time>
      </trkpt>
      <trkpt lat="42.87577897310257" lon="-8.570567993447185">
        <ele>235.90000000000001</ele>
        <time>2018-05-19T09:44:09Z</time>
      </trkpt>
      <trkpt lat="42.875942001119256" lon="-8.570345034822822">
        <ele>237.40000000000001</ele>
        <time>2018-05-19T09:44:16Z</time>
      </trkpt>
      <trkpt lat="42.876035962253809" lon="-8.570184018462896">
        <ele>237.30000000000001</ele>
        <time>2018-05-19T09:44:20Z</time>
      </trkpt>
      <trkpt lat="42.876038979738951" lon="-8.570177983492613">
        <ele>237.30000000000001</ele>
        <time>2018-05-19T09:44:21Z</time>
      </trkpt>
      <trkpt lat="42.876134030520916" lon="-8.570119980722666">
        <ele>238</ele>
        <time>2018-05-19T09:44:24Z</time>
      </trkpt>
      <trkpt lat="42.87622899748385" lon="-8.570089973509312">
        <ele>239</ele>
        <time>2018-05-19T09:44:27Z</time>
      </trkpt>
      <trkpt lat="42.876329999417067" lon="-8.570040017366409">
        <ele>239.69999999999999</ele>
        <time>2018-05-19T09:44:30Z</time>
      </trkpt>
      <trkpt lat="42.876346008852124" lon="-8.570044040679932">
        <ele>239.90000000000001</ele>
        <time>2018-05-19T09:44:30Z</time>
      </trkpt>
      <trkpt lat="42.876380039379001" lon="-8.570028031244874">
        <ele>240.09999999999999</ele>
        <time>2018-05-19T09:44:31Z</time>
      </trkpt>
      <trkpt lat="42.876439969986677" lon="-8.569997018203139">
        <ele>240.40000000000001</ele>
        <time>2018-05-19T09:44:33Z</time>
      </trkpt>
      <trkpt lat="42.876513982191682" lon="-8.569991989061236">
        <ele>241.09999999999999</ele>
        <time>2018-05-19T09:44:35Z</time>
      </trkpt>
      <trkpt lat="42.876550024375319" lon="-8.569973967969418">
        <ele>241.30000000000001</ele>
        <time>2018-05-19T09:44:37Z</time>
      </trkpt>
      <trkpt lat="42.876645997166634" lon="-8.569962987676263">
        <ele>242.09999999999999</ele>
        <time>2018-05-19T09:44:39Z</time>
      </trkpt>
      <trkpt lat="42.876770971342921" lon="-8.569932980462909">
        <ele>243</ele>
        <time>2018-05-19T09:44:43Z</time>
      </trkpt>
      <trkpt lat="42.876840960234404" lon="-8.569923005998135">
        <ele>243.59999999999999</ele>
        <time>2018-05-19T09:44:45Z</time>
      </trkpt>
      <trkpt lat="42.876857975497842" lon="-8.569910014048219">
        <ele>243.59999999999999</ele>
        <time>2018-05-19T09:44:46Z</time>
      </trkpt>
      <trkpt lat="42.877026032656431" lon="-8.569846982136369">
        <ele>244.30000000000001</ele>
        <time>2018-05-19T09:44:51Z</time>
      </trkpt>
      <trkpt lat="42.877079006284475" lon="-8.569812029600143">
        <ele>244.30000000000001</ele>
        <time>2018-05-19T09:44:53Z</time>
      </trkpt>
      <trkpt lat="42.877146983519197" lon="-8.569771964102984">
        <ele>243.30000000000001</ele>
        <time>2018-05-19T09:44:55Z</time>
      </trkpt>
      <trkpt lat="42.877169027924538" lon="-8.569732988253236">
        <ele>242.59999999999999</ele>
        <time>2018-05-19T09:44:56Z</time>
      </trkpt>
      <trkpt lat="42.877166010439396" lon="-8.569693006575108">
        <ele>242</ele>
        <time>2018-05-19T09:44:57Z</time>
      </trkpt>
      <trkpt lat="42.877227030694485" lon="-8.569506006315351">
        <ele>238.80000000000001</ele>
        <time>2018-05-19T09:45:01Z</time>
      </trkpt>
      <trkpt lat="42.877287967130542" lon="-8.569233007729054">
        <ele>235</ele>
        <time>2018-05-19T09:45:08Z</time>
      </trkpt>
      <trkpt lat="42.87726198323071" lon="-8.568901000544429">
        <ele>230.80000000000001</ele>
        <time>2018-05-19T09:45:15Z</time>
      </trkpt>
      <trkpt lat="42.877262989059091" lon="-8.568644011393189">
        <ele>227.69999999999999</ele>
        <time>2018-05-19T09:45:21Z</time>
      </trkpt>
      <trkpt lat="42.877329038456082" lon="-8.568350980058312">
        <ele>225.30000000000001</ele>
        <time>2018-05-19T09:45:27Z</time>
      </trkpt>
      <trkpt lat="42.877340018749237" lon="-8.568242015317082">
        <ele>224.40000000000001</ele>
        <time>2018-05-19T09:45:30Z</time>
      </trkpt>
      <trkpt lat="42.877360973507166" lon="-8.567987037822604">
        <ele>222.30000000000001</ele>
        <time>2018-05-19T09:45:35Z</time>
      </trkpt>
      <trkpt lat="42.877381006255746" lon="-8.567731976509094">
        <ele>220.59999999999999</ele>
        <time>2018-05-19T09:45:41Z</time>
      </trkpt>
      <trkpt lat="42.877528024837375" lon="-8.567438023164868">
        <ele>220.40000000000001</ele>
        <time>2018-05-19T09:45:49Z</time>
      </trkpt>
      <trkpt lat="42.877619974315166" lon="-8.567387983202934">
        <ele>221.19999999999999</ele>
        <time>2018-05-19T09:45:52Z</time>
      </trkpt>
      <trkpt lat="42.877717036753893" lon="-8.567358981817961">
        <ele>222.30000000000001</ele>
        <time>2018-05-19T09:45:54Z</time>
      </trkpt>
      <trkpt lat="42.877852991223335" lon="-8.56739703565836">
        <ele>224.5</ele>
        <time>2018-05-19T09:45:59Z</time>
      </trkpt>
      <trkpt lat="42.877899007871747" lon="-8.567431988194585">
        <ele>225.5</ele>
        <time>2018-05-19T09:46:00Z</time>
      </trkpt>
      <trkpt lat="42.878182986751199" lon="-8.567644972354174">
        <ele>228.30000000000001</ele>
        <time>2018-05-19T09:46:10Z</time>
      </trkpt>
      <trkpt lat="42.878432013094425" lon="-8.567929035052657">
        <ele>231.59999999999999</ele>
        <time>2018-05-19T09:46:19Z</time>
      </trkpt>
      <trkpt lat="42.878611972555518" lon="-8.568238997831941">
        <ele>231.90000000000001</ele>
        <time>2018-05-19T09:46:28Z</time>
      </trkpt>
      <trkpt lat="42.878751028329134" lon="-8.568433960899711">
        <ele>232</ele>
        <time>2018-05-19T09:46:34Z</time>
      </trkpt>
      <trkpt lat="42.878973986953497" lon="-8.568571005016565">
        <ele>232.90000000000001</ele>
        <time>2018-05-19T09:46:41Z</time>
      </trkpt>
      <trkpt lat="42.879099966958165" lon="-8.56858097948134">
        <ele>233.40000000000001</ele>
        <time>2018-05-19T09:46:45Z</time>
      </trkpt>
      <trkpt lat="42.879129974171519" lon="-8.568572010844946">
        <ele>233.5</ele>
        <time>2018-05-19T09:46:46Z</time>
      </trkpt>
      <trkpt lat="42.879189988598228" lon="-8.568484000861645">
        <ele>233.59999999999999</ele>
        <time>2018-05-19T09:46:48Z</time>
      </trkpt>
      <trkpt lat="42.879285961389542" lon="-8.56826095841825">
        <ele>233.40000000000001</ele>
        <time>2018-05-19T09:46:54Z</time>
      </trkpt>
      <trkpt lat="42.879400961101055" lon="-8.568047974258661">
        <ele>233.19999999999999</ele>
        <time>2018-05-19T09:47:00Z</time>
      </trkpt>
      <trkpt lat="42.879418982192874" lon="-8.568013021722436">
        <ele>233.09999999999999</ele>
        <time>2018-05-19T09:47:01Z</time>
      </trkpt>
      <trkpt lat="42.87938604131341" lon="-8.568032970651984">
        <ele>233.09999999999999</ele>
        <time>2018-05-19T09:47:02Z</time>
      </trkpt>
      <trkpt lat="42.879433985799551" lon="-8.567933980375528">
        <ele>232.90000000000001</ele>
        <time>2018-05-19T09:47:04Z</time>
      </trkpt>
      <trkpt lat="42.879466004669666" lon="-8.56774396263063">
        <ele>231.5</ele>
        <time>2018-05-19T09:47:09Z</time>
      </trkpt>
      <trkpt lat="42.879440020769835" lon="-8.567639021202922">
        <ele>230.59999999999999</ele>
        <time>2018-05-19T09:47:11Z</time>
      </trkpt>
      <trkpt lat="42.879379000514746" lon="-8.567481022328138">
        <ele>229.09999999999999</ele>
        <time>2018-05-19T09:47:15Z</time>
      </trkpt>
      <trkpt lat="42.879337007179856" lon="-8.567306008189917">
        <ele>227.40000000000001</ele>
        <time>2018-05-19T09:47:19Z</time>
      </trkpt>
      <trkpt lat="42.879306999966502" lon="-8.567212969064713">
        <ele>226.5</ele>
        <time>2018-05-19T09:47:21Z</time>
      </trkpt>
      <trkpt lat="42.879241034388542" lon="-8.567085983231664">
        <ele>225</ele>
        <time>2018-05-19T09:47:25Z</time>
      </trkpt>
      <trkpt lat="42.879188982769847" lon="-8.566996967419982">
        <ele>223.59999999999999</ele>
        <time>2018-05-19T09:47:27Z</time>
      </trkpt>
      <trkpt lat="42.879156963899732" lon="-8.566900994628668">
        <ele>222.19999999999999</ele>
        <time>2018-05-19T09:47:29Z</time>
      </trkpt>
      <trkpt lat="42.879116982221603" lon="-8.566766967996955">
        <ele>220.30000000000001</ele>
        <time>2018-05-19T09:47:33Z</time>
      </trkpt>
      <trkpt lat="42.87906602025032" lon="-8.566664960235357">
        <ele>218.59999999999999</ele>
        <time>2018-05-19T09:47:35Z</time>
      </trkpt>
      <trkpt lat="42.879029978066683" lon="-8.566548032686114">
        <ele>216.80000000000001</ele>
        <time>2018-05-19T09:47:38Z</time>
      </trkpt>
      <trkpt lat="42.87900298833847" lon="-8.566444013267756">
        <ele>215.19999999999999</ele>
        <time>2018-05-19T09:47:40Z</time>
      </trkpt>
      <trkpt lat="42.879040958359838" lon="-8.56630302965641">
        <ele>213.80000000000001</ele>
        <time>2018-05-19T09:47:44Z</time>
      </trkpt>
      <trkpt lat="42.879035007208586" lon="-8.566258018836379">
        <ele>213.19999999999999</ele>
        <time>2018-05-19T09:47:45Z</time>
      </trkpt>
      <trkpt lat="42.878970969468355" lon="-8.566084010526538">
        <ele>210.69999999999999</ele>
        <time>2018-05-19T09:47:49Z</time>
      </trkpt>
      <trkpt lat="42.878928976133466" lon="-8.565893992781639">
        <ele>208.19999999999999</ele>
        <time>2018-05-19T09:47:53Z</time>
      </trkpt>
      <trkpt lat="42.878930987790227" lon="-8.565816963091493">
        <ele>207.40000000000001</ele>
        <time>2018-05-19T09:47:55Z</time>
      </trkpt>
      <trkpt lat="42.878952026367188" lon="-8.56574596837163">
        <ele>207</ele>
        <time>2018-05-19T09:47:57Z</time>
      </trkpt>
      <trkpt lat="42.878969963639975" lon="-8.565549999475479">
        <ele>205.30000000000001</ele>
        <time>2018-05-19T09:48:01Z</time>
      </trkpt>
      <trkpt lat="42.878993013873696" lon="-8.565318994224072">
        <ele>204.09999999999999</ele>
        <time>2018-05-19T09:48:06Z</time>
      </trkpt>
      <trkpt lat="42.878988990560174" lon="-8.565146997570992">
        <ele>203.69999999999999</ele>
        <time>2018-05-19T09:48:10Z</time>
      </trkpt>
      <trkpt lat="42.87891699001193" lon="-8.565019005909562">
        <ele>202.09999999999999</ele>
        <time>2018-05-19T09:48:13Z</time>
      </trkpt>
      <trkpt lat="42.878849012777209" lon="-8.564882967621088">
        <ele>200.5</ele>
        <time>2018-05-19T09:48:17Z</time>
      </trkpt>
      <trkpt lat="42.878825962543488" lon="-8.564746007323265">
        <ele>199.80000000000001</ele>
        <time>2018-05-19T09:48:20Z</time>
      </trkpt>
      <trkpt lat="42.878810036927462" lon="-8.564657997339964">
        <ele>199.30000000000001</ele>
        <time>2018-05-19T09:48:22Z</time>
      </trkpt>
      <trkpt lat="42.878805007785559" lon="-8.56443302705884">
        <ele>198.40000000000001</ele>
        <time>2018-05-19T09:48:27Z</time>
      </trkpt>
      <trkpt lat="42.878813976421952" lon="-8.564293971285224">
        <ele>198</ele>
        <time>2018-05-19T09:48:30Z</time>
      </trkpt>
      <trkpt lat="42.87881095893681" lon="-8.564256001263857">
        <ele>197.80000000000001</ele>
        <time>2018-05-19T09:48:31Z</time>
      </trkpt>
      <trkpt lat="42.878827974200249" lon="-8.564045028761029">
        <ele>197.19999999999999</ele>
        <time>2018-05-19T09:48:35Z</time>
      </trkpt>
      <trkpt lat="42.878837026655674" lon="-8.564034970477223">
        <ele>197.30000000000001</ele>
        <time>2018-05-19T09:48:36Z</time>
      </trkpt>
      <trkpt lat="42.878845995292068" lon="-8.563934974372387">
        <ele>196.90000000000001</ele>
        <time>2018-05-19T09:48:38Z</time>
      </trkpt>
      <trkpt lat="42.878888994455338" lon="-8.563839001581073">
        <ele>197.09999999999999</ele>
        <time>2018-05-19T09:48:40Z</time>
      </trkpt>
      <trkpt lat="42.879026960581541" lon="-8.563730036839843">
        <ele>198.09999999999999</ele>
        <time>2018-05-19T09:48:45Z</time>
      </trkpt>
      <trkpt lat="42.879069959744811" lon="-8.563701035454869">
        <ele>198.30000000000001</ele>
        <time>2018-05-19T09:48:46Z</time>
      </trkpt>
      <trkpt lat="42.879156041890383" lon="-8.563519986346364">
        <ele>197.30000000000001</ele>
        <time>2018-05-19T09:48:51Z</time>
      </trkpt>
      <trkpt lat="42.879184037446976" lon="-8.563441028818488">
        <ele>196.69999999999999</ele>
        <time>2018-05-19T09:48:53Z</time>
      </trkpt>
      <trkpt lat="42.879209015518427" lon="-8.563313959166408">
        <ele>195.5</ele>
        <time>2018-05-19T09:48:56Z</time>
      </trkpt>
      <trkpt lat="42.879186971113086" lon="-8.563206000253558">
        <ele>194</ele>
        <time>2018-05-19T09:48:58Z</time>
      </trkpt>
      <trkpt lat="42.879190994426608" lon="-8.563083959743381">
        <ele>192.69999999999999</ele>
        <time>2018-05-19T09:49:01Z</time>
      </trkpt>
      <trkpt lat="42.879192000254989" lon="-8.563000978901982">
        <ele>191.69999999999999</ele>
        <time>2018-05-19T09:49:03Z</time>
      </trkpt>
      <trkpt lat="42.879198035225272" lon="-8.562956973910332">
        <ele>191.30000000000001</ele>
        <time>2018-05-19T09:49:04Z</time>
      </trkpt>
      <trkpt lat="42.879207003861666" lon="-8.562842980027199">
        <ele>190.80000000000001</ele>
        <time>2018-05-19T09:49:06Z</time>
      </trkpt>
      <trkpt lat="42.879166016355157" lon="-8.562638964504004">
        <ele>190.19999999999999</ele>
        <time>2018-05-19T09:49:11Z</time>
      </trkpt>
      <trkpt lat="42.879100972786546" lon="-8.562462022528052">
        <ele>189.59999999999999</ele>
        <time>2018-05-19T09:49:15Z</time>
      </trkpt>
      <trkpt lat="42.879054034128785" lon="-8.562240991741419">
        <ele>189.30000000000001</ele>
        <time>2018-05-19T09:49:20Z</time>
      </trkpt>
      <trkpt lat="42.879034001380205" lon="-8.561982996761799">
        <ele>190.30000000000001</ele>
        <time>2018-05-19T09:49:26Z</time>
      </trkpt>
      <trkpt lat="42.879032995551825" lon="-8.561804965138435">
        <ele>191.90000000000001</ele>
        <time>2018-05-19T09:49:30Z</time>
      </trkpt>
      <trkpt lat="42.878989996388555" lon="-8.561377990990877">
        <ele>196.19999999999999</ele>
        <time>2018-05-19T09:49:39Z</time>
      </trkpt>
      <trkpt lat="42.879098039120436" lon="-8.561008013784885">
        <ele>198.5</ele>
        <time>2018-05-19T09:49:48Z</time>
      </trkpt>
      <trkpt lat="42.87913198582828" lon="-8.56067500077188">
        <ele>200.90000000000001</ele>
        <time>2018-05-19T09:49:55Z</time>
      </trkpt>
      <trkpt lat="42.879114970564842" lon="-8.560532005503774">
        <ele>202.5</ele>
        <time>2018-05-19T09:49:58Z</time>
      </trkpt>
      <trkpt lat="42.87906602025032" lon="-8.560513984411955">
        <ele>203.59999999999999</ele>
        <time>2018-05-19T09:50:00Z</time>
      </trkpt>
      <trkpt lat="42.878945991396904" lon="-8.560347016900778">
        <ele>207.69999999999999</ele>
        <time>2018-05-19T09:50:05Z</time>
      </trkpt>
      <trkpt lat="42.878912966698408" lon="-8.560059014707804">
        <ele>211.40000000000001</ele>
        <time>2018-05-19T09:50:11Z</time>
      </trkpt>
      <trkpt lat="42.878944985568523" lon="-8.559839995577931">
        <ele>212.80000000000001</ele>
        <time>2018-05-19T09:50:16Z</time>
      </trkpt>
      <trkpt lat="42.878985973075032" lon="-8.55960002169013">
        <ele>214</ele>
        <time>2018-05-19T09:50:22Z</time>
      </trkpt>
      <trkpt lat="42.879040036350489" lon="-8.5592130292207">
        <ele>214.40000000000001</ele>
        <time>2018-05-19T09:50:30Z</time>
      </trkpt>
      <trkpt lat="42.879051016643643" lon="-8.559066010639072">
        <ele>214.90000000000001</ele>
        <time>2018-05-19T09:50:33Z</time>
      </trkpt>
      <trkpt lat="42.879008017480373" lon="-8.558783959597349">
        <ele>217.30000000000001</ele>
        <time>2018-05-19T09:50:40Z</time>
      </trkpt>
      <trkpt lat="42.878902992233634" lon="-8.558516995981336">
        <ele>220.09999999999999</ele>
        <time>2018-05-19T09:50:46Z</time>
      </trkpt>
      <trkpt lat="42.87887399084866" lon="-8.558465028181672">
        <ele>220.80000000000001</ele>
        <time>2018-05-19T09:50:48Z</time>
      </trkpt>
      <trkpt lat="42.878899974748492" lon="-8.558200998231769">
        <ele>220.19999999999999</ele>
        <time>2018-05-19T09:50:53Z</time>
      </trkpt>
      <trkpt lat="42.878992008045316" lon="-8.558042999356985">
        <ele>218.90000000000001</ele>
        <time>2018-05-19T09:50:58Z</time>
      </trkpt>
      <trkpt lat="42.87908798083663" lon="-8.557820040732622">
        <ele>218.5</ele>
        <time>2018-05-19T09:51:03Z</time>
      </trkpt>
      <trkpt lat="42.879197029396892" lon="-8.557733036577702">
        <ele>217.90000000000001</ele>
        <time>2018-05-19T09:51:07Z</time>
      </trkpt>
      <trkpt lat="42.879253020510077" lon="-8.557526003569365">
        <ele>218.80000000000001</ele>
        <time>2018-05-19T09:51:12Z</time>
      </trkpt>
      <trkpt lat="42.879149001091719" lon="-8.557099029421806">
        <ele>222.5</ele>
        <time>2018-05-19T09:51:22Z</time>
      </trkpt>
      <trkpt lat="42.879121005535126" lon="-8.556912029162049">
        <ele>223.80000000000001</ele>
        <time>2018-05-19T09:51:26Z</time>
      </trkpt>
      <trkpt lat="42.878925036638975" lon="-8.556371983140707">
        <ele>228.19999999999999</ele>
        <time>2018-05-19T09:51:39Z</time>
      </trkpt>
      <trkpt lat="42.878715991973877" lon="-8.555905027315021">
        <ele>231</ele>
        <time>2018-05-19T09:51:51Z</time>
      </trkpt>
      <trkpt lat="42.878652038052678" lon="-8.555753985419869">
        <ele>231.80000000000001</ele>
        <time>2018-05-19T09:51:55Z</time>
      </trkpt>
      <trkpt lat="42.878595963120461" lon="-8.555418038740754">
        <ele>233.09999999999999</ele>
        <time>2018-05-19T09:52:02Z</time>
      </trkpt>
      <trkpt lat="42.878598980605602" lon="-8.555297004058957">
        <ele>233.30000000000001</ele>
        <time>2018-05-19T09:52:05Z</time>
      </trkpt>
      <trkpt lat="42.878655977547169" lon="-8.554613962769508">
        <ele>234.40000000000001</ele>
        <time>2018-05-19T09:52:20Z</time>
      </trkpt>
      <trkpt lat="42.878751028329134" lon="-8.554233005270362">
        <ele>233.59999999999999</ele>
        <time>2018-05-19T09:52:29Z</time>
      </trkpt>
      <trkpt lat="42.878887988626957" lon="-8.553922958672047">
        <ele>232.5</ele>
        <time>2018-05-19T09:52:36Z</time>
      </trkpt>
      <trkpt lat="42.879080018028617" lon="-8.55371399782598">
        <ele>231.5</ele>
        <time>2018-05-19T09:52:44Z</time>
      </trkpt>
      <trkpt lat="42.879231981933117" lon="-8.553459020331502">
        <ele>231</ele>
        <time>2018-05-19T09:52:51Z</time>
      </trkpt>
      <trkpt lat="42.87936701439321" lon="-8.553020982071757">
        <ele>230.90000000000001</ele>
        <time>2018-05-19T09:53:01Z</time>
      </trkpt>
      <trkpt lat="42.879471033811569" lon="-8.552745971828699">
        <ele>230.90000000000001</ele>
        <time>2018-05-19T09:53:08Z</time>
      </trkpt>
      <trkpt lat="42.8795609716326" lon="-8.552456041797996">
        <ele>230.69999999999999</ele>
        <time>2018-05-19T09:53:15Z</time>
      </trkpt>
      <trkpt lat="42.879696004092693" lon="-8.552164016291499">
        <ele>230.40000000000001</ele>
        <time>2018-05-19T09:53:22Z</time>
      </trkpt>
      <trkpt lat="42.87986196577549" lon="-8.551786998286843">
        <ele>231.59999999999999</ele>
        <time>2018-05-19T09:53:32Z</time>
      </trkpt>
      <trkpt lat="42.879999009892344" lon="-8.551598992198706">
        <ele>231.90000000000001</ele>
        <time>2018-05-19T09:53:37Z</time>
      </trkpt>
      <trkpt lat="42.880197996273637" lon="-8.55120001360774">
        <ele>232.90000000000001</ele>
        <time>2018-05-19T09:53:48Z</time>
      </trkpt>
      <trkpt lat="42.880236972123384" lon="-8.55109398253262">
        <ele>233.19999999999999</ele>
        <time>2018-05-19T09:53:50Z</time>
      </trkpt>
      <trkpt lat="42.880263961851597" lon="-8.55070598423481">
        <ele>235.19999999999999</ele>
        <time>2018-05-19T09:53:59Z</time>
      </trkpt>
      <trkpt lat="42.88033302873373" lon="-8.550335001200438">
        <ele>236.90000000000001</ele>
        <time>2018-05-19T09:54:07Z</time>
      </trkpt>
      <trkpt lat="42.88035599514842" lon="-8.550269035622478">
        <ele>237</ele>
        <time>2018-05-19T09:54:09Z</time>
      </trkpt>
      <trkpt lat="42.88041902706027" lon="-8.550279010087252">
        <ele>236.5</ele>
        <time>2018-05-19T09:54:11Z</time>
      </trkpt>
      <trkpt lat="42.880487004294991" lon="-8.549332022666931">
        <ele>237.59999999999999</ele>
        <time>2018-05-19T09:54:31Z</time>
      </trkpt>
      <trkpt lat="42.880410980433226" lon="-8.549295980483294">
        <ele>238.09999999999999</ele>
        <time>2018-05-19T09:54:34Z</time>
      </trkpt>
      <trkpt lat="42.880280977115035" lon="-8.549065981060267">
        <ele>239.30000000000001</ele>
        <time>2018-05-19T09:54:40Z</time>
      </trkpt>
      <trkpt lat="42.880265973508358" lon="-8.548875041306019">
        <ele>238.90000000000001</ele>
        <time>2018-05-19T09:54:44Z</time>
      </trkpt>
      <trkpt lat="42.880377033725381" lon="-8.548306999728084">
        <ele>234.90000000000001</ele>
        <time>2018-05-19T09:54:57Z</time>
      </trkpt>
      <trkpt lat="42.880516005679965" lon="-8.547925958409905">
        <ele>232.69999999999999</ele>
        <time>2018-05-19T09:55:06Z</time>
      </trkpt>
      <trkpt lat="42.880645003169775" lon="-8.547664023935795">
        <ele>233.40000000000001</ele>
        <time>2018-05-19T09:55:13Z</time>
      </trkpt>
      <trkpt lat="42.880681967362761" lon="-8.547508036717773">
        <ele>234.09999999999999</ele>
        <time>2018-05-19T09:55:17Z</time>
      </trkpt>
      <trkpt lat="42.880668975412846" lon="-8.547442993149161">
        <ele>234.5</ele>
        <time>2018-05-19T09:55:18Z</time>
      </trkpt>
      <trkpt lat="42.880749022588134" lon="-8.547240989282727">
        <ele>235.5</ele>
        <time>2018-05-19T09:55:23Z</time>
      </trkpt>
      <trkpt lat="42.880867961794138" lon="-8.547040997073054">
        <ele>237</ele>
        <time>2018-05-19T09:55:29Z</time>
      </trkpt>
      <trkpt lat="42.88089201785624" lon="-8.546933038160205">
        <ele>238.30000000000001</ele>
        <time>2018-05-19T09:55:31Z</time>
      </trkpt>
      <trkpt lat="42.880889000371099" lon="-8.546867994591594">
        <ele>239</ele>
        <time>2018-05-19T09:55:33Z</time>
      </trkpt>
      <trkpt lat="42.880899980664253" lon="-8.546642018482089">
        <ele>241.59999999999999</ele>
        <time>2018-05-19T09:55:38Z</time>
      </trkpt>
      <trkpt lat="42.880958989262581" lon="-8.546698009595275">
        <ele>241</ele>
        <time>2018-05-19T09:55:40Z</time>
      </trkpt>
      <trkpt lat="42.881017997860909" lon="-8.546656016260386">
        <ele>241.5</ele>
        <time>2018-05-19T09:55:42Z</time>
      </trkpt>
      <trkpt lat="42.880985978990793" lon="-8.546462981030345">
        <ele>243.59999999999999</ele>
        <time>2018-05-19T09:55:46Z</time>
      </trkpt>
      <trkpt lat="42.880907021462917" lon="-8.54634596966207">
        <ele>244.90000000000001</ele>
        <time>2018-05-19T09:55:49Z</time>
      </trkpt>
      <trkpt lat="42.880900986492634" lon="-8.546176990494132">
        <ele>246.69999999999999</ele>
        <time>2018-05-19T09:55:53Z</time>
      </trkpt>
      <trkpt lat="42.880930993705988" lon="-8.545943973585963">
        <ele>249.09999999999999</ele>
        <time>2018-05-19T09:55:58Z</time>
      </trkpt>
      <trkpt lat="42.88091397844255" lon="-8.54576300829649">
        <ele>250.90000000000001</ele>
        <time>2018-05-19T09:56:02Z</time>
      </trkpt>
      <trkpt lat="42.88080501370132" lon="-8.545526973903179">
        <ele>252.80000000000001</ele>
        <time>2018-05-19T09:56:08Z</time>
      </trkpt>
      <trkpt lat="42.881007017567754" lon="-8.545391019433737">
        <ele>255.09999999999999</ele>
        <time>2018-05-19T09:56:15Z</time>
      </trkpt>
      <trkpt lat="42.8811289742589" lon="-8.545394036918879">
        <ele>255.59999999999999</ele>
        <time>2018-05-19T09:56:19Z</time>
      </trkpt>
      <trkpt lat="42.881025038659573" lon="-8.545067980885506">
        <ele>258.19999999999999</ele>
        <time>2018-05-19T09:56:26Z</time>
      </trkpt>
      <trkpt lat="42.881031995639205" lon="-8.545007966458798">
        <ele>258.69999999999999</ele>
        <time>2018-05-19T09:56:28Z</time>
      </trkpt>
      <trkpt lat="42.881044987589121" lon="-8.544854996725917">
        <ele>260.19999999999999</ele>
        <time>2018-05-19T09:56:31Z</time>
      </trkpt>
      <trkpt lat="42.881102990359068" lon="-8.544629020616412">
        <ele>262.69999999999999</ele>
        <time>2018-05-19T09:56:36Z</time>
      </trkpt>
      <trkpt lat="42.881142972037196" lon="-8.544348981231451">
        <ele>264.19999999999999</ele>
        <time>2018-05-19T09:56:43Z</time>
      </trkpt>
      <trkpt lat="42.881153030321002" lon="-8.54430397041142">
        <ele>264.5</ele>
        <time>2018-05-19T09:56:44Z</time>
      </trkpt>
      <trkpt lat="42.881194017827511" lon="-8.544221995398402">
        <ele>265</ele>
        <time>2018-05-19T09:56:46Z</time>
      </trkpt>
      <trkpt lat="42.881241962313652" lon="-8.544001970440149">
        <ele>266.10000000000002</ele>
        <time>2018-05-19T09:56:51Z</time>
      </trkpt>
      <trkpt lat="42.881241040304303" lon="-8.543927036225796">
        <ele>266.30000000000001</ele>
        <time>2018-05-19T09:56:52Z</time>
      </trkpt>
      <trkpt lat="42.881239028647542" lon="-8.543932987377048">
        <ele>266.30000000000001</ele>
        <time>2018-05-19T09:56:52Z</time>
      </trkpt>
      <trkpt lat="42.88121203891933" lon="-8.543772976845503">
        <ele>266.69999999999999</ele>
        <time>2018-05-19T09:56:56Z</time>
      </trkpt>
      <trkpt lat="42.881225030869246" lon="-8.543632999062538">
        <ele>267.69999999999999</ele>
        <time>2018-05-19T09:56:59Z</time>
      </trkpt>
      <trkpt lat="42.881237016990781" lon="-8.543405011296272">
        <ele>269.39999999999998</ele>
        <time>2018-05-19T09:57:04Z</time>
      </trkpt>
      <trkpt lat="42.881255960091949" lon="-8.543079039081931">
        <ele>271.89999999999998</ele>
        <time>2018-05-19T09:57:11Z</time>
      </trkpt>
      <trkpt lat="42.881237016990781" lon="-8.542921962216497">
        <ele>272.89999999999998</ele>
        <time>2018-05-19T09:57:15Z</time>
      </trkpt>
      <trkpt lat="42.881231987848878" lon="-8.542839987203479">
        <ele>273.30000000000001</ele>
        <time>2018-05-19T09:57:16Z</time>
      </trkpt>
      <trkpt lat="42.881230982020497" lon="-8.542685005813837">
        <ele>274</ele>
        <time>2018-05-19T09:57:20Z</time>
      </trkpt>
      <trkpt lat="42.881240034475923" lon="-8.542562965303659">
        <ele>274.60000000000002</ele>
        <time>2018-05-19T09:57:22Z</time>
      </trkpt>
      <trkpt lat="42.881241040304303" lon="-8.542426005005837">
        <ele>275.30000000000001</ele>
        <time>2018-05-19T09:57:25Z</time>
      </trkpt>
      <trkpt lat="42.881324021145701" lon="-8.542258031666279">
        <ele>276.5</ele>
        <time>2018-05-19T09:57:30Z</time>
      </trkpt>
      <trkpt lat="42.881355034187436" lon="-8.542250990867615">
        <ele>276.69999999999999</ele>
        <time>2018-05-19T09:57:31Z</time>
      </trkpt>
      <trkpt lat="42.881468022242188" lon="-8.542163986712694">
        <ele>277.69999999999999</ele>
        <time>2018-05-19T09:57:35Z</time>
      </trkpt>
      <trkpt lat="42.881469028070569" lon="-8.541970029473305">
        <ele>277.69999999999999</ele>
        <time>2018-05-19T09:57:39Z</time>
      </trkpt>
      <trkpt lat="42.881510015577078" lon="-8.541882019490004">
        <ele>277.60000000000002</ele>
        <time>2018-05-19T09:57:41Z</time>
      </trkpt>
      <trkpt lat="42.881555026397109" lon="-8.541780011728406">
        <ele>277.5</ele>
        <time>2018-05-19T09:57:44Z</time>
      </trkpt>
      <trkpt lat="42.88175200112164" lon="-8.541342979297042">
        <ele>277.30000000000001</ele>
        <time>2018-05-19T09:57:55Z</time>
      </trkpt>
      <trkpt lat="42.881786031648517" lon="-8.541160002350807">
        <ele>276.69999999999999</ele>
        <time>2018-05-19T09:57:59Z</time>
      </trkpt>
      <trkpt lat="42.88190396502614" lon="-8.540798993781209">
        <ele>275</ele>
        <time>2018-05-19T09:58:07Z</time>
      </trkpt>
      <trkpt lat="42.881906982511282" lon="-8.540402026847005">
        <ele>272.5</ele>
        <time>2018-05-19T09:58:16Z</time>
      </trkpt>
      <trkpt lat="42.881911005824804" lon="-8.540254002436996">
        <ele>271.39999999999998</ele>
        <time>2018-05-19T09:58:19Z</time>
      </trkpt>
      <trkpt lat="42.881863983348012" lon="-8.540078988298774">
        <ele>270</ele>
        <time>2018-05-19T09:58:23Z</time>
      </trkpt>
      <trkpt lat="42.881854008883238" lon="-8.540082005783916">
        <ele>270</ele>
        <time>2018-05-19T09:58:24Z</time>
      </trkpt>
      <trkpt lat="42.88185803219676" lon="-8.540073959156871">
        <ele>270</ele>
        <time>2018-05-19T09:58:24Z</time>
      </trkpt>
      <trkpt lat="42.88190396502614" lon="-8.539942028000951">
        <ele>269.19999999999999</ele>
        <time>2018-05-19T09:58:27Z</time>
      </trkpt>
      <trkpt lat="42.881874041631818" lon="-8.539804983884096">
        <ele>268.10000000000002</ele>
        <time>2018-05-19T09:58:30Z</time>
      </trkpt>
      <trkpt lat="42.881872029975057" lon="-8.53976801969111">
        <ele>267.80000000000001</ele>
        <time>2018-05-19T09:58:31Z</time>
      </trkpt>
      <trkpt lat="42.881792988628149" lon="-8.539547994732857">
        <ele>266.30000000000001</ele>
        <time>2018-05-19T09:58:36Z</time>
      </trkpt>
      <trkpt lat="42.881764993071556" lon="-8.539443975314498">
        <ele>266.10000000000002</ele>
        <time>2018-05-19T09:58:39Z</time>
      </trkpt>
      <trkpt lat="42.881782008334994" lon="-8.5393419675529">
        <ele>266</ele>
        <time>2018-05-19T09:58:41Z</time>
      </trkpt>
      <trkpt lat="42.881777985021472" lon="-8.53929896838963">
        <ele>266</ele>
        <time>2018-05-19T09:58:42Z</time>
      </trkpt>
      <trkpt lat="42.881727023050189" lon="-8.53921196423471">
        <ele>265.60000000000002</ele>
        <time>2018-05-19T09:58:44Z</time>
      </trkpt>
      <trkpt lat="42.88164303638041" lon="-8.539036028087139">
        <ele>264.89999999999998</ele>
        <time>2018-05-19T09:58:49Z</time>
      </trkpt>
      <trkpt lat="42.881619986146688" lon="-8.539023036137223">
        <ele>264.69999999999999</ele>
        <time>2018-05-19T09:58:50Z</time>
      </trkpt>
      <trkpt lat="42.881522001698613" lon="-8.538875011727214">
        <ele>263.60000000000002</ele>
        <time>2018-05-19T09:58:54Z</time>
      </trkpt>
      <trkpt lat="42.881519990041852" lon="-8.538838969543576">
        <ele>263.5</ele>
        <time>2018-05-19T09:58:55Z</time>
      </trkpt>
      <trkpt lat="42.881512027233839" lon="-8.538784990087152">
        <ele>263.30000000000001</ele>
        <time>2018-05-19T09:58:56Z</time>
      </trkpt>
      <trkpt lat="42.881509009748697" lon="-8.53865004144609">
        <ele>263.5</ele>
        <time>2018-05-19T09:58:59Z</time>
      </trkpt>
      <trkpt lat="42.881500041112304" lon="-8.538602013140917">
        <ele>263.60000000000002</ele>
        <time>2018-05-19T09:59:00Z</time>
      </trkpt>
      <trkpt lat="42.881489982828498" lon="-8.538568988442421">
        <ele>263.60000000000002</ele>
        <time>2018-05-19T09:59:01Z</time>
      </trkpt>
      <trkpt lat="42.881437009200454" lon="-8.538476033136249">
        <ele>263.39999999999998</ele>
        <time>2018-05-19T09:59:03Z</time>
      </trkpt>
      <trkpt lat="42.881416976451874" lon="-8.538439990952611">
        <ele>263.39999999999998</ele>
        <time>2018-05-19T09:59:04Z</time>
      </trkpt>
      <trkpt lat="42.881329972296953" lon="-8.538248967379332">
        <ele>263</ele>
        <time>2018-05-19T09:59:09Z</time>
      </trkpt>
      <trkpt lat="42.881275992840528" lon="-8.538047969341278">
        <ele>263</ele>
        <time>2018-05-19T09:59:14Z</time>
      </trkpt>
      <trkpt lat="42.881268030032516" lon="-8.537931041792035">
        <ele>263.19999999999999</ele>
        <time>2018-05-19T09:59:16Z</time>
      </trkpt>
      <trkpt lat="42.881317986175418" lon="-8.537784023210406">
        <ele>264.60000000000002</ele>
        <time>2018-05-19T09:59:20Z</time>
      </trkpt>
      <trkpt lat="42.881338018923998" lon="-8.537755021825433">
        <ele>265</ele>
        <time>2018-05-19T09:59:21Z</time>
      </trkpt>
      <trkpt lat="42.88134497590363" lon="-8.537731971591711">
        <ele>265.19999999999999</ele>
        <time>2018-05-19T09:59:21Z</time>
      </trkpt>
      <trkpt lat="42.88149400614202" lon="-8.537073992192745">
        <ele>271</ele>
        <time>2018-05-19T09:59:36Z</time>
      </trkpt>
      <trkpt lat="42.881570030003786" lon="-8.536626985296607">
        <ele>273.60000000000002</ele>
        <time>2018-05-19T09:59:46Z</time>
      </trkpt>
      <trkpt lat="42.881677988916636" lon="-8.536051986739039">
        <ele>276.60000000000002</ele>
        <time>2018-05-19T09:59:59Z</time>
      </trkpt>
      <trkpt lat="42.881788965314627" lon="-8.535347990691662">
        <ele>278.60000000000002</ele>
        <time>2018-05-19T10:00:15Z</time>
      </trkpt>
      <trkpt lat="42.881870018318295" lon="-8.535159984603524">
        <ele>278.89999999999998</ele>
        <time>2018-05-19T10:00:20Z</time>
      </trkpt>
      <trkpt lat="42.881977977231145" lon="-8.534904001280665">
        <ele>279.10000000000002</ele>
        <time>2018-05-19T10:00:26Z</time>
      </trkpt>
      <trkpt lat="42.882270002737641" lon="-8.5346569865942">
        <ele>280.5</ele>
        <time>2018-05-19T10:00:36Z</time>
      </trkpt>
      <trkpt lat="42.882593041285872" lon="-8.534377031028271">
        <ele>280.19999999999999</ele>
        <time>2018-05-19T10:00:47Z</time>
      </trkpt>
      <trkpt lat="42.882866039872169" lon="-8.534291032701731">
        <ele>280.80000000000001</ele>
        <time>2018-05-19T10:00:56Z</time>
      </trkpt>
      <trkpt lat="42.883270969614387" lon="-8.534228000789881">
        <ele>281.60000000000002</ele>
        <time>2018-05-19T10:01:08Z</time>
      </trkpt>
      <trkpt lat="42.883673971518874" lon="-8.53416396304965">
        <ele>282.19999999999999</ele>
        <time>2018-05-19T10:01:20Z</time>
      </trkpt>
      <trkpt lat="42.883969014510512" lon="-8.534119036048651">
        <ele>283</ele>
        <time>2018-05-19T10:01:29Z</time>
      </trkpt>
      <trkpt lat="42.884376039728522" lon="-8.533941004425287">
        <ele>282.60000000000002</ele>
        <time>2018-05-19T10:01:41Z</time>
      </trkpt>
      <trkpt lat="42.884644009172916" lon="-8.533750986680389">
        <ele>281.5</ele>
        <time>2018-05-19T10:01:50Z</time>
      </trkpt>
      <trkpt lat="42.884772000834346" lon="-8.533702958375216">
        <ele>282</ele>
        <time>2018-05-19T10:01:54Z</time>
      </trkpt>
      <trkpt lat="42.884900998324156" lon="-8.53360396809876">
        <ele>281.69999999999999</ele>
        <time>2018-05-19T10:01:58Z</time>
      </trkpt>
      <trkpt lat="42.884982973337173" lon="-8.533415962010622">
        <ele>279.80000000000001</ele>
        <time>2018-05-19T10:02:03Z</time>
      </trkpt>
      <trkpt lat="42.884955983608961" lon="-8.533405987545848">
        <ele>279.39999999999998</ele>
        <time>2018-05-19T10:02:04Z</time>
      </trkpt>
      <trkpt lat="42.884947014972568" lon="-8.533407999202609">
        <ele>279.39999999999998</ele>
        <time>2018-05-19T10:02:04Z</time>
      </trkpt>
      <trkpt lat="42.885052962228656" lon="-8.533381009474397">
        <ele>279.80000000000001</ele>
        <time>2018-05-19T10:02:08Z</time>
      </trkpt>
      <trkpt lat="42.885238034650683" lon="-8.533112034201622">
        <ele>277.5</ele>
        <time>2018-05-19T10:02:16Z</time>
      </trkpt>
      <trkpt lat="42.885285979136825" lon="-8.53257299400866">
        <ele>273.5</ele>
        <time>2018-05-19T10:02:27Z</time>
      </trkpt>
      <trkpt lat="42.885150024667382" lon="-8.532089022919536">
        <ele>270.39999999999998</ele>
        <time>2018-05-19T10:02:39Z</time>
      </trkpt>
      <trkpt lat="42.885173996910453" lon="-8.531737988814712">
        <ele>270.39999999999998</ele>
        <time>2018-05-19T10:02:46Z</time>
      </trkpt>
      <trkpt lat="42.885399973019958" lon="-8.531208001077175">
        <ele>272.69999999999999</ele>
        <time>2018-05-19T10:03:00Z</time>
      </trkpt>
      <trkpt lat="42.885839017108083" lon="-8.530520014464855">
        <ele>273.80000000000001</ele>
        <time>2018-05-19T10:03:19Z</time>
      </trkpt>
      <trkpt lat="42.885958962142467" lon="-8.53025296702981">
        <ele>274.10000000000002</ele>
        <time>2018-05-19T10:03:26Z</time>
      </trkpt>
      <trkpt lat="42.886107992380857" lon="-8.52960797958076">
        <ele>274.30000000000001</ele>
        <time>2018-05-19T10:03:41Z</time>
      </trkpt>
      <trkpt lat="42.886206982657313" lon="-8.52861799299717">
        <ele>278.80000000000001</ele>
        <time>2018-05-19T10:04:03Z</time>
      </trkpt>
      <trkpt lat="42.886275965720415" lon="-8.527939980849624">
        <ele>279.30000000000001</ele>
        <time>2018-05-19T10:04:17Z</time>
      </trkpt>
      <trkpt lat="42.886335980147123" lon="-8.527634041383863">
        <ele>277.39999999999998</ele>
        <time>2018-05-19T10:04:24Z</time>
      </trkpt>
      <trkpt lat="42.886547958478332" lon="-8.527139006182551">
        <ele>277.39999999999998</ele>
        <time>2018-05-19T10:04:37Z</time>
      </trkpt>
      <trkpt lat="42.886753985658288" lon="-8.526673978194594">
        <ele>278</ele>
        <time>2018-05-19T10:04:49Z</time>
      </trkpt>
      <trkpt lat="42.887009968981147" lon="-8.526142984628677">
        <ele>279</ele>
        <time>2018-05-19T10:05:02Z</time>
      </trkpt>
      <trkpt lat="42.887073000892997" lon="-8.525818018242717">
        <ele>278.19999999999999</ele>
        <time>2018-05-19T10:05:10Z</time>
      </trkpt>
      <trkpt lat="42.887189006432891" lon="-8.525488022714853">
        <ele>278</ele>
        <time>2018-05-19T10:05:18Z</time>
      </trkpt>
      <trkpt lat="42.887266958132386" lon="-8.524887962266803">
        <ele>277.39999999999998</ele>
        <time>2018-05-19T10:05:31Z</time>
      </trkpt>
      <trkpt lat="42.887270981445909" lon="-8.524569030851126">
        <ele>276.69999999999999</ele>
        <time>2018-05-19T10:05:38Z</time>
      </trkpt>
      <trkpt lat="42.887264024466276" lon="-8.524099979549646">
        <ele>276.89999999999998</ele>
        <time>2018-05-19T10:05:48Z</time>
      </trkpt>
      <trkpt lat="42.88720996119082" lon="-8.523734025657177">
        <ele>276.19999999999999</ele>
        <time>2018-05-19T10:05:56Z</time>
      </trkpt>
      <trkpt lat="42.887166040018201" lon="-8.523704018443823">
        <ele>275.69999999999999</ele>
        <time>2018-05-19T10:05:57Z</time>
      </trkpt>
      <trkpt lat="42.887198980897665" lon="-8.523448035120964">
        <ele>278</ele>
        <time>2018-05-19T10:06:03Z</time>
      </trkpt>
      <trkpt lat="42.887196969240904" lon="-8.523352984338999">
        <ele>278.60000000000002</ele>
        <time>2018-05-19T10:06:05Z</time>
      </trkpt>
      <trkpt lat="42.887174002826214" lon="-8.522853003814817">
        <ele>281.30000000000001</ele>
        <time>2018-05-19T10:06:16Z</time>
      </trkpt>
      <trkpt lat="42.887171991169453" lon="-8.522744961082935">
        <ele>281.39999999999998</ele>
        <time>2018-05-19T10:06:18Z</time>
      </trkpt>
      <trkpt lat="42.887142989784479" lon="-8.522429969161749">
        <ele>281.30000000000001</ele>
        <time>2018-05-19T10:06:25Z</time>
      </trkpt>
      <trkpt lat="42.88712102919817" lon="-8.522294014692307">
        <ele>281.19999999999999</ele>
        <time>2018-05-19T10:06:28Z</time>
      </trkpt>
      <trkpt lat="42.88710200227797" lon="-8.5221510194242">
        <ele>281.10000000000002</ele>
        <time>2018-05-19T10:06:31Z</time>
      </trkpt>
      <trkpt lat="42.88699203170836" lon="-8.521552970632911">
        <ele>282.5</ele>
        <time>2018-05-19T10:06:45Z</time>
      </trkpt>
      <trkpt lat="42.886907961219549" lon="-8.521279972046614">
        <ele>283.39999999999998</ele>
        <time>2018-05-19T10:06:51Z</time>
      </trkpt>
      <trkpt lat="42.886888012290001" lon="-8.521050978451967">
        <ele>284.89999999999998</ele>
        <time>2018-05-19T10:06:56Z</time>
      </trkpt>
      <trkpt lat="42.886864962056279" lon="-8.520892979577184">
        <ele>286.10000000000002</ele>
        <time>2018-05-19T10:07:00Z</time>
      </trkpt>
      <trkpt lat="42.886792039498687" lon="-8.520424012094736">
        <ele>289.60000000000002</ele>
        <time>2018-05-19T10:07:10Z</time>
      </trkpt>
      <trkpt lat="42.886720038950443" lon="-8.520022016018629">
        <ele>291.39999999999998</ele>
        <time>2018-05-19T10:07:19Z</time>
      </trkpt>
      <trkpt lat="42.88669497705996" lon="-8.519624965265393">
        <ele>293.19999999999999</ele>
        <time>2018-05-19T10:07:28Z</time>
      </trkpt>
      <trkpt lat="42.886662036180496" lon="-8.519427990540862">
        <ele>293.80000000000001</ele>
        <time>2018-05-19T10:07:32Z</time>
      </trkpt>
      <trkpt lat="42.88662800565362" lon="-8.519124984741211">
        <ele>294.60000000000002</ele>
        <time>2018-05-19T10:07:39Z</time>
      </trkpt>
      <trkpt lat="42.886588023975492" lon="-8.518637996166945">
        <ele>295.39999999999998</ele>
        <time>2018-05-19T10:07:49Z</time>
      </trkpt>
      <trkpt lat="42.886580983176827" lon="-8.51849801838398">
        <ele>295</ele>
        <time>2018-05-19T10:07:53Z</time>
      </trkpt>
      <trkpt lat="42.886562962085009" lon="-8.518445966765285">
        <ele>294.89999999999998</ele>
        <time>2018-05-19T10:07:54Z</time>
      </trkpt>
      <trkpt lat="42.886552987620234" lon="-8.518373966217041">
        <ele>294.80000000000001</ele>
        <time>2018-05-19T10:07:55Z</time>
      </trkpt>
      <trkpt lat="42.886539995670319" lon="-8.518256032839418">
        <ele>294.5</ele>
        <time>2018-05-19T10:07:58Z</time>
      </trkpt>
      <trkpt lat="42.886495990678668" lon="-8.517936011776328">
        <ele>293.60000000000002</ele>
        <time>2018-05-19T10:08:05Z</time>
      </trkpt>
      <trkpt lat="42.88643698208034" lon="-8.517421027645469">
        <ele>292.39999999999998</ele>
        <time>2018-05-19T10:08:16Z</time>
      </trkpt>
      <trkpt lat="42.886292980983853" lon="-8.517121961340308">
        <ele>292</ele>
        <time>2018-05-19T10:08:24Z</time>
      </trkpt>
      <trkpt lat="42.886299015954137" lon="-8.51701601408422">
        <ele>291.60000000000002</ele>
        <time>2018-05-19T10:08:26Z</time>
      </trkpt>
      <trkpt lat="42.886256016790867" lon="-8.516907971352339">
        <ele>291.30000000000001</ele>
        <time>2018-05-19T10:08:29Z</time>
      </trkpt>
      <trkpt lat="42.886268002912402" lon="-8.516688030213118">
        <ele>290.5</ele>
        <time>2018-05-19T10:08:34Z</time>
      </trkpt>
      <trkpt lat="42.886269008740783" lon="-8.516237000003457">
        <ele>288.89999999999998</ele>
        <time>2018-05-19T10:08:44Z</time>
      </trkpt>
      <trkpt lat="42.886266997084022" lon="-8.515912033617497">
        <ele>287.69999999999999</ele>
        <time>2018-05-19T10:08:51Z</time>
      </trkpt>
      <trkpt lat="42.886257022619247" lon="-8.515735007822514">
        <ele>287.10000000000002</ele>
        <time>2018-05-19T10:08:55Z</time>
      </trkpt>
      <trkpt lat="42.886259034276009" lon="-8.51523301564157">
        <ele>285.80000000000001</ele>
        <time>2018-05-19T10:09:05Z</time>
      </trkpt>
      <trkpt lat="42.886289963498712" lon="-8.514632033184171">
        <ele>285</ele>
        <time>2018-05-19T10:09:18Z</time>
      </trkpt>
      <trkpt lat="42.88630798459053" lon="-8.51403197273612">
        <ele>283.5</ele>
        <time>2018-05-19T10:09:32Z</time>
      </trkpt>
      <trkpt lat="42.886333968490362" lon="-8.513460997492075">
        <ele>281.80000000000001</ele>
        <time>2018-05-19T10:09:44Z</time>
      </trkpt>
      <trkpt lat="42.886342015117407" lon="-8.513287995010614">
        <ele>281.10000000000002</ele>
        <time>2018-05-19T10:09:48Z</time>
      </trkpt>
      <trkpt lat="42.886313013732433" lon="-8.513135025277734">
        <ele>280.60000000000002</ele>
        <time>2018-05-19T10:09:51Z</time>
      </trkpt>
      <trkpt lat="42.886115033179522" lon="-8.51304299198091">
        <ele>281.5</ele>
        <time>2018-05-19T10:09:57Z</time>
      </trkpt>
      <trkpt lat="42.886053007096052" lon="-8.512990018352866">
        <ele>281.69999999999999</ele>
        <time>2018-05-19T10:09:59Z</time>
      </trkpt>
      <trkpt lat="42.886010007932782" lon="-8.512696987017989">
        <ele>281</ele>
        <time>2018-05-19T10:10:06Z</time>
      </trkpt>
      <trkpt lat="42.886124001815915" lon="-8.512620963156223">
        <ele>280</ele>
        <time>2018-05-19T10:10:10Z</time>
      </trkpt>
      <trkpt lat="42.886136993765831" lon="-8.512481991201639">
        <ele>279.60000000000002</ele>
        <time>2018-05-19T10:10:13Z</time>
      </trkpt>
      <trkpt lat="42.886159960180521" lon="-8.512141015380621">
        <ele>278.5</ele>
        <time>2018-05-19T10:10:20Z</time>
      </trkpt>
      <trkpt lat="42.886145040392876" lon="-8.511739019304514">
        <ele>277.89999999999998</ele>
        <time>2018-05-19T10:10:29Z</time>
      </trkpt>
      <trkpt lat="42.886150991544127" lon="-8.511362001299858">
        <ele>277.39999999999998</ele>
        <time>2018-05-19T10:10:37Z</time>
      </trkpt>
      <trkpt lat="42.886167000979185" lon="-8.510921029374003">
        <ele>276.39999999999998</ele>
        <time>2018-05-19T10:10:47Z</time>
      </trkpt>
      <trkpt lat="42.886197008192539" lon="-8.510544011369348">
        <ele>275.39999999999998</ele>
        <time>2018-05-19T10:10:55Z</time>
      </trkpt>
      <trkpt lat="42.886225003749132" lon="-8.510388024151325">
        <ele>275.19999999999999</ele>
        <time>2018-05-19T10:10:58Z</time>
      </trkpt>
      <trkpt lat="42.88634997792542" lon="-8.510122988373041">
        <ele>275.69999999999999</ele>
        <time>2018-05-19T10:11:05Z</time>
      </trkpt>
      <trkpt lat="42.886426001787186" lon="-8.509998014196754">
        <ele>275.80000000000001</ele>
        <time>2018-05-19T10:11:09Z</time>
      </trkpt>
      <trkpt lat="42.886504959315062" lon="-8.509955015033484">
        <ele>275.5</ele>
        <time>2018-05-19T10:11:11Z</time>
      </trkpt>
      <trkpt lat="42.88652298040688" lon="-8.509848983958364">
        <ele>275.69999999999999</ele>
        <time>2018-05-19T10:11:14Z</time>
      </trkpt>
      <trkpt lat="42.886524992063642" lon="-8.509273985400796">
        <ele>275.60000000000002</ele>
        <time>2018-05-19T10:11:26Z</time>
      </trkpt>
      <trkpt lat="42.886530021205544" lon="-8.509074999019504">
        <ele>275.10000000000002</ele>
        <time>2018-05-19T10:11:30Z</time>
      </trkpt>
      <trkpt lat="42.886507976800203" lon="-8.508869977667928">
        <ele>274.69999999999999</ele>
        <time>2018-05-19T10:11:35Z</time>
      </trkpt>
      <trkpt lat="42.886527003720403" lon="-8.508610976859927">
        <ele>273.5</ele>
        <time>2018-05-19T10:11:41Z</time>
      </trkpt>
      <trkpt lat="42.886544018983841" lon="-8.507615039125085">
        <ele>269.60000000000002</ele>
        <time>2018-05-19T10:12:02Z</time>
      </trkpt>
      <trkpt lat="42.886570002883673" lon="-8.50715302862227">
        <ele>270.10000000000002</ele>
        <time>2018-05-19T10:12:12Z</time>
      </trkpt>
      <trkpt lat="42.886609984561801" lon="-8.506678026169539">
        <ele>272.60000000000002</ele>
        <time>2018-05-19T10:12:23Z</time>
      </trkpt>
      <trkpt lat="42.886619959026575" lon="-8.506608037278056">
        <ele>273.10000000000002</ele>
        <time>2018-05-19T10:12:24Z</time>
      </trkpt>
      <trkpt lat="42.886661030352116" lon="-8.506289022043347">
        <ele>274.80000000000001</ele>
        <time>2018-05-19T10:12:31Z</time>
      </trkpt>
      <trkpt lat="42.886685002595186" lon="-8.50601501762867">
        <ele>278</ele>
        <time>2018-05-19T10:12:37Z</time>
      </trkpt>
      <trkpt lat="42.886761026456952" lon="-8.505464997142553">
        <ele>284.30000000000001</ele>
        <time>2018-05-19T10:12:49Z</time>
      </trkpt>
      <trkpt lat="42.886877031996846" lon="-8.505100971087813">
        <ele>288</ele>
        <time>2018-05-19T10:12:58Z</time>
      </trkpt>
      <trkpt lat="42.887022038921714" lon="-8.504742980003357">
        <ele>290.89999999999998</ele>
        <time>2018-05-19T10:13:07Z</time>
      </trkpt>
      <trkpt lat="42.887065038084984" lon="-8.504681037738919">
        <ele>291</ele>
        <time>2018-05-19T10:13:09Z</time>
      </trkpt>
      <trkpt lat="42.887075012549758" lon="-8.504652958363295">
        <ele>291.19999999999999</ele>
        <time>2018-05-19T10:13:10Z</time>
      </trkpt>
      <trkpt lat="42.887090016156435" lon="-8.504615994170308">
        <ele>291.5</ele>
        <time>2018-05-19T10:13:11Z</time>
      </trkpt>
      <trkpt lat="42.887097978964448" lon="-8.504590010270476">
        <ele>291.80000000000001</ele>
        <time>2018-05-19T10:13:11Z</time>
      </trkpt>
      <trkpt lat="42.88714500144124" lon="-8.504551034420729">
        <ele>291.89999999999998</ele>
        <time>2018-05-19T10:13:13Z</time>
      </trkpt>
      <trkpt lat="42.887249020859599" lon="-8.50446998141706">
        <ele>292.19999999999999</ele>
        <time>2018-05-19T10:13:16Z</time>
      </trkpt>
      <trkpt lat="42.887281961739063" lon="-8.504434023052454">
        <ele>292.39999999999998</ele>
        <time>2018-05-19T10:13:18Z</time>
      </trkpt>
      <trkpt lat="42.887297971174121" lon="-8.504413990303874">
        <ele>292.60000000000002</ele>
        <time>2018-05-19T10:13:18Z</time>
      </trkpt>
      <trkpt lat="42.88731699809432" lon="-8.504299996420741">
        <ele>294</ele>
        <time>2018-05-19T10:13:21Z</time>
      </trkpt>
      <trkpt lat="42.887377012521029" lon="-8.504048036411405">
        <ele>297</ele>
        <time>2018-05-19T10:13:27Z</time>
      </trkpt>
      <trkpt lat="42.887430991977453" lon="-8.503895988687873">
        <ele>298.60000000000002</ele>
        <time>2018-05-19T10:13:30Z</time>
      </trkpt>
      <trkpt lat="42.88753199391067" lon="-8.503505978733301">
        <ele>301.89999999999998</ele>
        <time>2018-05-19T10:13:39Z</time>
      </trkpt>
      <trkpt lat="42.887644981965423" lon="-8.503123009577394">
        <ele>304.39999999999998</ele>
        <time>2018-05-19T10:13:48Z</time>
      </trkpt>
      <trkpt lat="42.887898031622171" lon="-8.5021470207721">
        <ele>308</ele>
        <time>2018-05-19T10:14:11Z</time>
      </trkpt>
      <trkpt lat="42.887940024957061" lon="-8.501644022762775">
        <ele>311</ele>
        <time>2018-05-19T10:14:22Z</time>
      </trkpt>
      <trkpt lat="42.88785302080214" lon="-8.501284020021558">
        <ele>314.39999999999998</ele>
        <time>2018-05-19T10:14:30Z</time>
      </trkpt>
      <trkpt lat="42.887799041345716" lon="-8.500938015058637">
        <ele>317.10000000000002</ele>
        <time>2018-05-19T10:14:38Z</time>
      </trkpt>
      <trkpt lat="42.887749001383781" lon="-8.500530989840627">
        <ele>319.69999999999999</ele>
        <time>2018-05-19T10:14:47Z</time>
      </trkpt>
      <trkpt lat="42.887742966413498" lon="-8.500399980694056">
        <ele>320.60000000000002</ele>
        <time>2018-05-19T10:14:50Z</time>
      </trkpt>
      <trkpt lat="42.887826031073928" lon="-8.499809978529811">
        <ele>325.69999999999999</ele>
        <time>2018-05-19T10:15:03Z</time>
      </trkpt>
      <trkpt lat="42.887871963903308" lon="-8.499659020453692">
        <ele>327.19999999999999</ele>
        <time>2018-05-19T10:15:06Z</time>
      </trkpt>
      <trkpt lat="42.888001967221498" lon="-8.499214025214315">
        <ele>330.80000000000001</ele>
        <time>2018-05-19T10:15:17Z</time>
      </trkpt>
      <trkpt lat="42.888144040480256" lon="-8.49868998862803">
        <ele>335.30000000000001</ele>
        <time>2018-05-19T10:15:29Z</time>
      </trkpt>
      <trkpt lat="42.888256022706628" lon="-8.498272988945246">
        <ele>338.80000000000001</ele>
        <time>2018-05-19T10:15:38Z</time>
      </trkpt>
      <trkpt lat="42.888376973569393" lon="-8.497855989262462">
        <ele>342.80000000000001</ele>
        <time>2018-05-19T10:15:48Z</time>
      </trkpt>
      <trkpt lat="42.888521980494261" lon="-8.497390961274505">
        <ele>346.5</ele>
        <time>2018-05-19T10:15:59Z</time>
      </trkpt>
      <trkpt lat="42.888614013791084" lon="-8.497128020972014">
        <ele>348.5</ele>
        <time>2018-05-19T10:16:06Z</time>
      </trkpt>
      <trkpt lat="42.888750974088907" lon="-8.496782016009092">
        <ele>350.39999999999998</ele>
        <time>2018-05-19T10:16:14Z</time>
      </trkpt>
      <trkpt lat="42.888882989063859" lon="-8.496445985510945">
        <ele>352.10000000000002</ele>
        <time>2018-05-19T10:16:22Z</time>
      </trkpt>
      <trkpt lat="42.889078035950661" lon="-8.495925972238183">
        <ele>357</ele>
        <time>2018-05-19T10:16:35Z</time>
      </trkpt>
      <trkpt lat="42.889232011511922" lon="-8.495483994483948">
        <ele>361.19999999999999</ele>
        <time>2018-05-19T10:16:46Z</time>
      </trkpt>
      <trkpt lat="42.889424962922931" lon="-8.49495098926127">
        <ele>366.39999999999998</ele>
        <time>2018-05-19T10:16:59Z</time>
      </trkpt>
      <trkpt lat="42.889653034508228" lon="-8.49441597238183">
        <ele>370.30000000000001</ele>
        <time>2018-05-19T10:17:12Z</time>
      </trkpt>
      <trkpt lat="42.889660997316241" lon="-8.4941999707371">
        <ele>371</ele>
        <time>2018-05-19T10:17:17Z</time>
      </trkpt>
      <trkpt lat="42.889570975676179" lon="-8.494191002100706">
        <ele>371.30000000000001</ele>
        <time>2018-05-19T10:17:20Z</time>
      </trkpt>
      <trkpt lat="42.889524037018418" lon="-8.494269959628582">
        <ele>370.69999999999999</ele>
        <time>2018-05-19T10:17:22Z</time>
      </trkpt>
      <trkpt lat="42.889454970136285" lon="-8.494341960176826">
        <ele>369.89999999999998</ele>
        <time>2018-05-19T10:17:24Z</time>
      </trkpt>
      <trkpt lat="42.889453964307904" lon="-8.494341960176826">
        <ele>369.89999999999998</ele>
        <time>2018-05-19T10:17:24Z</time>
      </trkpt>
      <trkpt lat="42.889462010934949" lon="-8.49435000680387">
        <ele>369.89999999999998</ele>
        <time>2018-05-19T10:17:25Z</time>
      </trkpt>
      <trkpt lat="42.889458993449807" lon="-8.494351012632251">
        <ele>369.89999999999998</ele>
        <time>2018-05-19T10:17:25Z</time>
      </trkpt>
      <trkpt lat="42.889514984562993" lon="-8.494277000427246">
        <ele>370.60000000000002</ele>
        <time>2018-05-19T10:17:27Z</time>
      </trkpt>
      <trkpt lat="42.889540968462825" lon="-8.494253028184176">
        <ele>370.89999999999998</ele>
        <time>2018-05-19T10:17:28Z</time>
      </trkpt>
      <trkpt lat="42.889556977897882" lon="-8.494229977950454">
        <ele>371.10000000000002</ele>
        <time>2018-05-19T10:17:29Z</time>
      </trkpt>
      <trkpt lat="42.889563012868166" lon="-8.494213968515396">
        <ele>371.19999999999999</ele>
        <time>2018-05-19T10:17:29Z</time>
      </trkpt>
      <trkpt lat="42.88957198150456" lon="-8.494212962687016">
        <ele>371.19999999999999</ele>
        <time>2018-05-19T10:17:29Z</time>
      </trkpt>
      <trkpt lat="42.88957298733294" lon="-8.494223020970821">
        <ele>371.19999999999999</ele>
        <time>2018-05-19T10:17:30Z</time>
      </trkpt>
      <trkpt lat="42.889562007039785" lon="-8.494212962687016">
        <ele>371.19999999999999</ele>
        <time>2018-05-19T10:17:30Z</time>
      </trkpt>
      <trkpt lat="42.889555972069502" lon="-8.494201982393861">
        <ele>371.19999999999999</ele>
        <time>2018-05-19T10:17:30Z</time>
      </trkpt>
      <trkpt lat="42.889591008424759" lon="-8.494172981008887">
        <ele>371.39999999999998</ele>
        <time>2018-05-19T10:17:32Z</time>
      </trkpt>
      <trkpt lat="42.889496963471174" lon="-8.49417700432241">
        <ele>370.80000000000001</ele>
        <time>2018-05-19T10:17:34Z</time>
      </trkpt>
      <trkpt lat="42.889337036758661" lon="-8.493995033204556">
        <ele>370.5</ele>
        <time>2018-05-19T10:17:40Z</time>
      </trkpt>
      <trkpt lat="42.889241985976696" lon="-8.493887996301055">
        <ele>370.30000000000001</ele>
        <time>2018-05-19T10:17:44Z</time>
      </trkpt>
      <trkpt lat="42.889239974319935" lon="-8.493841979652643">
        <ele>370.5</ele>
        <time>2018-05-19T10:17:45Z</time>
      </trkpt>
      <trkpt lat="42.889250032603741" lon="-8.493818007409573">
        <ele>370.69999999999999</ele>
        <time>2018-05-19T10:17:46Z</time>
      </trkpt>
      <trkpt lat="42.889256989583373" lon="-8.493811972439289">
        <ele>370.80000000000001</ele>
        <time>2018-05-19T10:17:46Z</time>
      </trkpt>
      <trkpt lat="42.889240980148315" lon="-8.493821024894714">
        <ele>370.60000000000002</ele>
        <time>2018-05-19T10:17:46Z</time>
      </trkpt>
      <trkpt lat="42.889225976541638" lon="-8.493824964389205">
        <ele>370.5</ele>
        <time>2018-05-19T10:17:47Z</time>
      </trkpt>
      <trkpt lat="42.889235028997064" lon="-8.493819013237953">
        <ele>370.60000000000002</ele>
        <time>2018-05-19T10:17:47Z</time>
      </trkpt>
      <trkpt lat="42.889241985976696" lon="-8.493821024894714">
        <ele>370.60000000000002</ele>
        <time>2018-05-19T10:17:47Z</time>
      </trkpt>
      <trkpt lat="42.88924802094698" lon="-8.493818007409573">
        <ele>370.69999999999999</ele>
        <time>2018-05-19T10:17:48Z</time>
      </trkpt>
      <trkpt lat="42.889241985976696" lon="-8.493821024894714">
        <ele>370.60000000000002</ele>
        <time>2018-05-19T10:17:48Z</time>
      </trkpt>
      <trkpt lat="42.889231005683541" lon="-8.493823036551476">
        <ele>370.5</ele>
        <time>2018-05-19T10:17:48Z</time>
      </trkpt>
      <trkpt lat="42.889217007905245" lon="-8.493819013237953">
        <ele>370.5</ele>
        <time>2018-05-19T10:17:49Z</time>
      </trkpt>
      <trkpt lat="42.8892279881984" lon="-8.493804009631276">
        <ele>370.60000000000002</ele>
        <time>2018-05-19T10:17:49Z</time>
      </trkpt>
      <trkpt lat="42.889207033440471" lon="-8.493809038773179">
        <ele>370.5</ele>
        <time>2018-05-19T10:17:50Z</time>
      </trkpt>
      <trkpt lat="42.889199992641807" lon="-8.493808032944799">
        <ele>370.39999999999998</ele>
        <time>2018-05-19T10:17:50Z</time>
      </trkpt>
      <trkpt lat="42.889155987650156" lon="-8.493783976882696">
        <ele>370.30000000000001</ele>
        <time>2018-05-19T10:17:51Z</time>
      </trkpt>
      <trkpt lat="42.889136038720608" lon="-8.493763022124767">
        <ele>370.30000000000001</ele>
        <time>2018-05-19T10:17:52Z</time>
      </trkpt>
      <trkpt lat="42.889134027063847" lon="-8.493762016296387">
        <ele>370.19999999999999</ele>
        <time>2018-05-19T10:17:52Z</time>
      </trkpt>
      <trkpt lat="42.88918599486351" lon="-8.493763022124767">
        <ele>370.60000000000002</ele>
        <time>2018-05-19T10:17:54Z</time>
      </trkpt>
      <trkpt lat="42.889213990420103" lon="-8.493794035166502">
        <ele>370.60000000000002</ele>
        <time>2018-05-19T10:17:55Z</time>
      </trkpt>
      <trkpt lat="42.889179959893227" lon="-8.493788000196219">
        <ele>370.39999999999998</ele>
        <time>2018-05-19T10:17:56Z</time>
      </trkpt>
      <trkpt lat="42.889140984043479" lon="-8.49379001185298">
        <ele>370.19999999999999</ele>
        <time>2018-05-19T10:17:57Z</time>
      </trkpt>
      <trkpt lat="42.88914299570024" lon="-8.493782971054316">
        <ele>370.19999999999999</ele>
        <time>2018-05-19T10:17:57Z</time>
      </trkpt>
      <trkpt lat="42.889169985428452" lon="-8.493803003802896">
        <ele>370.30000000000001</ele>
        <time>2018-05-19T10:17:58Z</time>
      </trkpt>
      <trkpt lat="42.889219019562006" lon="-8.493766039609909">
        <ele>370.69999999999999</ele>
        <time>2018-05-19T10:18:00Z</time>
      </trkpt>
      <trkpt lat="42.889311974868178" lon="-8.493786994367838">
        <ele>371.19999999999999</ele>
        <time>2018-05-19T10:18:02Z</time>
      </trkpt>
      <trkpt lat="42.889318009838462" lon="-8.493674006313086">
        <ele>371.39999999999998</ele>
        <time>2018-05-19T10:18:05Z</time>
      </trkpt>
      <trkpt lat="42.889250032603741" lon="-8.493630001321435">
        <ele>371</ele>
        <time>2018-05-19T10:18:07Z</time>
      </trkpt>
      <trkpt lat="42.889220025390387" lon="-8.493689009919763">
        <ele>370.80000000000001</ele>
        <time>2018-05-19T10:18:09Z</time>
      </trkpt>
      <trkpt lat="42.889216002076864" lon="-8.493739971891046">
        <ele>370.80000000000001</ele>
        <time>2018-05-19T10:18:10Z</time>
      </trkpt>
      <trkpt lat="42.889281967654824" lon="-8.493807027116418">
        <ele>370.89999999999998</ele>
        <time>2018-05-19T10:18:12Z</time>
      </trkpt>
      <trkpt lat="42.889317004010081" lon="-8.493823036551476">
        <ele>371.10000000000002</ele>
        <time>2018-05-19T10:18:13Z</time>
      </trkpt>
      <trkpt lat="42.889424040913582" lon="-8.493894031271339">
        <ele>371.5</ele>
        <time>2018-05-19T10:18:17Z</time>
      </trkpt>
      <trkpt lat="42.889452958479524" lon="-8.493918003514409">
        <ele>371.5</ele>
        <time>2018-05-19T10:18:18Z</time>
      </trkpt>
      <trkpt lat="42.889585979282856" lon="-8.494074996560812">
        <ele>371.80000000000001</ele>
        <time>2018-05-19T10:18:23Z</time>
      </trkpt>
      <trkpt lat="42.889711037278175" lon="-8.494066027924418">
        <ele>371.19999999999999</ele>
        <time>2018-05-19T10:18:27Z</time>
      </trkpt>
      <trkpt lat="42.889797035604715" lon="-8.49383401684463">
        <ele>371.69999999999999</ele>
        <time>2018-05-19T10:18:32Z</time>
      </trkpt>
      <trkpt lat="42.890102975070477" lon="-8.492929022759199">
        <ele>370.89999999999998</ele>
        <time>2018-05-19T10:18:54Z</time>
      </trkpt>
      <trkpt lat="42.890264997258782" lon="-8.492559967562556">
        <ele>369.30000000000001</ele>
        <time>2018-05-19T10:19:03Z</time>
      </trkpt>
      <trkpt lat="42.890341021120548" lon="-8.492313958704472">
        <ele>368.89999999999998</ele>
        <time>2018-05-19T10:19:09Z</time>
      </trkpt>
      <trkpt lat="42.890374967828393" lon="-8.492228966206312">
        <ele>368.89999999999998</ele>
        <time>2018-05-19T10:19:11Z</time>
      </trkpt>
      <trkpt lat="42.890792973339558" lon="-8.491105036810041">
        <ele>364.10000000000002</ele>
        <time>2018-05-19T10:19:39Z</time>
      </trkpt>
      <trkpt lat="42.890853993594646" lon="-8.490837989374995">
        <ele>363.60000000000002</ele>
        <time>2018-05-19T10:19:45Z</time>
      </trkpt>
      <trkpt lat="42.890933034941554" lon="-8.490468012169004">
        <ele>363.19999999999999</ele>
        <time>2018-05-19T10:19:53Z</time>
      </trkpt>
      <trkpt lat="42.891100002452731" lon="-8.489662008360028">
        <ele>361.10000000000002</ele>
        <time>2018-05-19T10:20:11Z</time>
      </trkpt>
      <trkpt lat="42.891314998269081" lon="-8.489096984267235">
        <ele>360.30000000000001</ele>
        <time>2018-05-19T10:20:25Z</time>
      </trkpt>
      <trkpt lat="42.891477020457387" lon="-8.488079002127051">
        <ele>359.10000000000002</ele>
        <time>2018-05-19T10:20:48Z</time>
      </trkpt>
      <trkpt lat="42.891475008800626" lon="-8.487889990210533">
        <ele>359.10000000000002</ele>
        <time>2018-05-19T10:20:52Z</time>
      </trkpt>
      <trkpt lat="42.891176026314497" lon="-8.487484976649284">
        <ele>360.30000000000001</ele>
        <time>2018-05-19T10:21:04Z</time>
      </trkpt>
      <trkpt lat="42.890786016359925" lon="-8.487392021343112">
        <ele>359.19999999999999</ele>
        <time>2018-05-19T10:21:16Z</time>
      </trkpt>
      <trkpt lat="42.890732036903501" lon="-8.487256988883019">
        <ele>359.5</ele>
        <time>2018-05-19T10:21:19Z</time>
      </trkpt>
      <trkpt lat="42.890695994719863" lon="-8.487054985016584">
        <ele>360.19999999999999</ele>
        <time>2018-05-19T10:21:24Z</time>
      </trkpt>
      <trkpt lat="42.890634974464774" lon="-8.486552992835641">
        <ele>363.60000000000002</ele>
        <time>2018-05-19T10:21:35Z</time>
      </trkpt>
      <trkpt lat="42.890642015263438" lon="-8.486325005069375">
        <ele>365.30000000000001</ele>
        <time>2018-05-19T10:21:40Z</time>
      </trkpt>
      <trkpt lat="42.890679985284805" lon="-8.486123001202941">
        <ele>366.89999999999998</ele>
        <time>2018-05-19T10:21:44Z</time>
      </trkpt>
      <trkpt lat="42.890741005539894" lon="-8.485682029277086">
        <ele>370.10000000000002</ele>
        <time>2018-05-19T10:21:54Z</time>
      </trkpt>
      <trkpt lat="42.890713009983301" lon="-8.484571008011699">
        <ele>375.39999999999998</ele>
        <time>2018-05-19T10:22:18Z</time>
      </trkpt>
      <trkpt lat="42.890712004154921" lon="-8.484430024400353">
        <ele>375.5</ele>
        <time>2018-05-19T10:22:21Z</time>
      </trkpt>
      <trkpt lat="42.890703035518527" lon="-8.483561994507909">
        <ele>376.10000000000002</ele>
        <time>2018-05-19T10:22:40Z</time>
      </trkpt>
      <trkpt lat="42.890654001384974" lon="-8.482397999614477">
        <ele>376.19999999999999</ele>
        <time>2018-05-19T10:23:05Z</time>
      </trkpt>
      <trkpt lat="42.890629023313522" lon="-8.481266023591161">
        <ele>378.5</ele>
        <time>2018-05-19T10:23:30Z</time>
      </trkpt>
      <trkpt lat="42.890625" lon="-8.48079496063292">
        <ele>376.69999999999999</ele>
        <time>2018-05-19T10:23:40Z</time>
      </trkpt>
      <trkpt lat="42.890620976686478" lon="-8.480466976761818">
        <ele>375.39999999999998</ele>
        <time>2018-05-19T10:23:47Z</time>
      </trkpt>
      <trkpt lat="42.89053900167346" lon="-8.47896502353251">
        <ele>370.30000000000001</ele>
        <time>2018-05-19T10:24:20Z</time>
      </trkpt>
      <trkpt lat="42.890521986410022" lon="-8.478642990812659">
        <ele>369.89999999999998</ele>
        <time>2018-05-19T10:24:27Z</time>
      </trkpt>
      <trkpt lat="42.89047596976161" lon="-8.477445971220732">
        <ele>373.5</ele>
        <time>2018-05-19T10:24:53Z</time>
      </trkpt>
      <trkpt lat="42.890445962548256" lon="-8.476596968248487">
        <ele>377.39999999999998</ele>
        <time>2018-05-19T10:25:11Z</time>
      </trkpt>
      <trkpt lat="42.890449985861778" lon="-8.47649697214365">
        <ele>377.89999999999998</ele>
        <time>2018-05-19T10:25:14Z</time>
      </trkpt>
      <trkpt lat="42.890663975849748" lon="-8.476198995485902">
        <ele>379.60000000000002</ele>
        <time>2018-05-19T10:25:23Z</time>
      </trkpt>
      <trkpt lat="42.890724996104836" lon="-8.476218022406101">
        <ele>379.5</ele>
        <time>2018-05-19T10:25:24Z</time>
      </trkpt>
      <trkpt lat="42.89154801517725" lon="-8.476437963545322">
        <ele>379.5</ele>
        <time>2018-05-19T10:25:49Z</time>
      </trkpt>
      <trkpt lat="42.892287969589233" lon="-8.476663017645478">
        <ele>379</ele>
        <time>2018-05-19T10:26:12Z</time>
      </trkpt>
      <trkpt lat="42.892353013157845" lon="-8.476596968248487">
        <ele>379</ele>
        <time>2018-05-19T10:26:14Z</time>
      </trkpt>
      <trkpt lat="42.892117984592915" lon="-8.476248029619455">
        <ele>379</ele>
        <time>2018-05-19T10:26:24Z</time>
      </trkpt>
      <trkpt lat="42.891963003203273" lon="-8.475117981433868">
        <ele>380.5</ele>
        <time>2018-05-19T10:26:49Z</time>
      </trkpt>
      <trkpt lat="42.891760999336839" lon="-8.473407989367843">
        <ele>382.5</ele>
        <time>2018-05-19T10:27:27Z</time>
      </trkpt>
      <trkpt lat="42.891566036269069" lon="-8.47170302644372">
        <ele>385</ele>
        <time>2018-05-19T10:28:04Z</time>
      </trkpt>
      <trkpt lat="42.891528988257051" lon="-8.471336988732219">
        <ele>385.80000000000001</ele>
        <time>2018-05-19T10:28:12Z</time>
      </trkpt>
      <trkpt lat="42.891491018235683" lon="-8.470997018739581">
        <ele>386.5</ele>
        <time>2018-05-19T10:28:20Z</time>
      </trkpt>
      <trkpt lat="42.891296977177262" lon="-8.469647029414773">
        <ele>389.89999999999998</ele>
        <time>2018-05-19T10:28:50Z</time>
      </trkpt>
      <trkpt lat="42.891242997720838" lon="-8.469219971448183">
        <ele>389.10000000000002</ele>
        <time>2018-05-19T10:28:59Z</time>
      </trkpt>
      <trkpt lat="42.891063038259745" lon="-8.46800803206861">
        <ele>388</ele>
        <time>2018-05-19T10:29:26Z</time>
      </trkpt>
      <trkpt lat="42.890997994691133" lon="-8.467547027394176">
        <ele>388.30000000000001</ele>
        <time>2018-05-19T10:29:36Z</time>
      </trkpt>
      <trkpt lat="42.890976034104824" lon="-8.467372013255954">
        <ele>388.39999999999998</ele>
        <time>2018-05-19T10:29:40Z</time>
      </trkpt>
      <trkpt lat="42.890780987218022" lon="-8.465937031432986">
        <ele>389.60000000000002</ele>
        <time>2018-05-19T10:30:11Z</time>
      </trkpt>
      <trkpt lat="42.89058200083673" lon="-8.464675974100828">
        <ele>390.5</ele>
        <time>2018-05-19T10:30:39Z</time>
      </trkpt>
      <trkpt lat="42.8903469722718" lon="-8.463415000587702">
        <ele>388.69999999999999</ele>
        <time>2018-05-19T10:31:08Z</time>
      </trkpt>
      <trkpt lat="42.890326017513871" lon="-8.462217980995774">
        <ele>387</ele>
        <time>2018-05-19T10:31:34Z</time>
      </trkpt>
      <trkpt lat="42.890414027497172" lon="-8.461334025487304">
        <ele>385.19999999999999</ele>
        <time>2018-05-19T10:31:53Z</time>
      </trkpt>
      <trkpt lat="42.890519974753261" lon="-8.460687026381493">
        <ele>383.89999999999998</ele>
        <time>2018-05-19T10:32:07Z</time>
      </trkpt>
      <trkpt lat="42.890566997230053" lon="-8.46016600728035">
        <ele>383.10000000000002</ele>
        <time>2018-05-19T10:32:19Z</time>
      </trkpt>
      <trkpt lat="42.890560040250421" lon="-8.459594026207924">
        <ele>382.39999999999998</ele>
        <time>2018-05-19T10:32:31Z</time>
      </trkpt>
      <trkpt lat="42.89047596976161" lon="-8.459164034575224">
        <ele>381.19999999999999</ele>
        <time>2018-05-19T10:32:41Z</time>
      </trkpt>
      <trkpt lat="42.890387959778309" lon="-8.458497002720833">
        <ele>379.60000000000002</ele>
        <time>2018-05-19T10:32:55Z</time>
      </trkpt>
      <trkpt lat="42.890276983380318" lon="-8.45806198194623">
        <ele>378.19999999999999</ele>
        <time>2018-05-19T10:33:05Z</time>
      </trkpt>
      <trkpt lat="42.890153015032411" lon="-8.457580022513866">
        <ele>374.89999999999998</ele>
        <time>2018-05-19T10:33:17Z</time>
      </trkpt>
      <trkpt lat="42.890130970627069" lon="-8.457268970087171">
        <ele>373.10000000000002</ele>
        <time>2018-05-19T10:33:23Z</time>
      </trkpt>
      <trkpt lat="42.890133988112211" lon="-8.456860017031431">
        <ele>371.5</ele>
        <time>2018-05-19T10:33:32Z</time>
      </trkpt>
      <trkpt lat="42.890230966731906" lon="-8.456132970750332">
        <ele>369.69999999999999</ele>
        <time>2018-05-19T10:33:48Z</time>
      </trkpt>
      <trkpt lat="42.890572026371956" lon="-8.455262007191777">
        <ele>368.60000000000002</ele>
        <time>2018-05-19T10:34:10Z</time>
      </trkpt>
      <trkpt lat="42.890890035778284" lon="-8.454663036391139">
        <ele>367.69999999999999</ele>
        <time>2018-05-19T10:34:26Z</time>
      </trkpt>
      <trkpt lat="42.890896992757916" lon="-8.454561028629541">
        <ele>367.19999999999999</ele>
        <time>2018-05-19T10:34:28Z</time>
      </trkpt>
      <trkpt lat="42.890921970829368" lon="-8.453949987888336">
        <ele>365.10000000000002</ele>
        <time>2018-05-19T10:34:41Z</time>
      </trkpt>
      <trkpt lat="42.890981985256076" lon="-8.453241968527436">
        <ele>362.5</ele>
        <time>2018-05-19T10:34:57Z</time>
      </trkpt>
      <trkpt lat="42.891234029084444" lon="-8.452766966074705">
        <ele>361</ele>
        <time>2018-05-19T10:35:09Z</time>
      </trkpt>
      <trkpt lat="42.891503004357219" lon="-8.452445017173886">
        <ele>359.89999999999998</ele>
        <time>2018-05-19T10:35:20Z</time>
      </trkpt>
      <trkpt lat="42.89191598072648" lon="-8.452190961688757">
        <ele>358.80000000000001</ele>
        <time>2018-05-19T10:35:33Z</time>
      </trkpt>
      <trkpt lat="42.892026035115123" lon="-8.452075039967895">
        <ele>357.89999999999998</ele>
        <time>2018-05-19T10:35:38Z</time>
      </trkpt>
      <trkpt lat="42.892325017601252" lon="-8.451896002516151">
        <ele>355.69999999999999</ele>
        <time>2018-05-19T10:35:47Z</time>
      </trkpt>
      <trkpt lat="42.892329962924123" lon="-8.451825007796288">
        <ele>355.19999999999999</ele>
        <time>2018-05-19T10:35:49Z</time>
      </trkpt>
      <trkpt lat="42.892137011513114" lon="-8.451394010335207">
        <ele>352.80000000000001</ele>
        <time>2018-05-19T10:36:00Z</time>
      </trkpt>
      <trkpt lat="42.892073979601264" lon="-8.451048005372286">
        <ele>351.80000000000001</ele>
        <time>2018-05-19T10:36:08Z</time>
      </trkpt>
      <trkpt lat="42.892137011513114" lon="-8.450728990137577">
        <ele>351</ele>
        <time>2018-05-19T10:36:15Z</time>
      </trkpt>
      <trkpt lat="42.892165007069707" lon="-8.450472000986338">
        <ele>350.5</ele>
        <time>2018-05-19T10:36:20Z</time>
      </trkpt>
      <trkpt lat="42.892136005684733" lon="-8.449889961630106">
        <ele>352.39999999999998</ele>
        <time>2018-05-19T10:36:33Z</time>
      </trkpt>
      <trkpt lat="42.892291992902756" lon="-8.449588967487216">
        <ele>351.69999999999999</ele>
        <time>2018-05-19T10:36:41Z</time>
      </trkpt>
      <trkpt lat="42.892404980957508" lon="-8.449433986097574">
        <ele>350.80000000000001</ele>
        <time>2018-05-19T10:36:46Z</time>
      </trkpt>
      <trkpt lat="42.892636992037296" lon="-8.449040036648512">
        <ele>349.5</ele>
        <time>2018-05-19T10:36:57Z</time>
      </trkpt>
      <trkpt lat="42.893113000318408" lon="-8.448449028655887">
        <ele>347.39999999999998</ele>
        <time>2018-05-19T10:37:16Z</time>
      </trkpt>
      <trkpt lat="42.893489012494683" lon="-8.448102017864585">
        <ele>346.89999999999998</ele>
        <time>2018-05-19T10:37:29Z</time>
      </trkpt>
      <trkpt lat="42.893749019131064" lon="-8.44794100150466">
        <ele>346.89999999999998</ele>
        <time>2018-05-19T10:37:38Z</time>
      </trkpt>
      <trkpt lat="42.893843986093998" lon="-8.447894984856248">
        <ele>346.19999999999999</ele>
        <time>2018-05-19T10:37:41Z</time>
      </trkpt>
      <trkpt lat="42.894052024930716" lon="-8.447720976546407">
        <ele>344.39999999999998</ele>
        <time>2018-05-19T10:37:48Z</time>
      </trkpt>
      <trkpt lat="42.894064011052251" lon="-8.447698010131717">
        <ele>344.19999999999999</ele>
        <time>2018-05-19T10:37:48Z</time>
      </trkpt>
      <trkpt lat="42.894156966358423" lon="-8.447501035407186">
        <ele>343.10000000000002</ele>
        <time>2018-05-19T10:37:54Z</time>
      </trkpt>
      <trkpt lat="42.89416903629899" lon="-8.447473961859942">
        <ele>342.89999999999998</ele>
        <time>2018-05-19T10:37:54Z</time>
      </trkpt>
      <trkpt lat="42.894387971609831" lon="-8.447198029607534">
        <ele>339.89999999999998</ele>
        <time>2018-05-19T10:38:03Z</time>
      </trkpt>
      <trkpt lat="42.894686032086611" lon="-8.447119994089007">
        <ele>335.89999999999998</ele>
        <time>2018-05-19T10:38:12Z</time>
      </trkpt>
      <trkpt lat="42.894925000146031" lon="-8.447403972968459">
        <ele>334.69999999999999</ele>
        <time>2018-05-19T10:38:21Z</time>
      </trkpt>
      <trkpt lat="42.895004041492939" lon="-8.447530958801508">
        <ele>334.60000000000002</ele>
        <time>2018-05-19T10:38:25Z</time>
      </trkpt>
      <trkpt lat="42.895023990422487" lon="-8.447563983500004">
        <ele>334.69999999999999</ele>
        <time>2018-05-19T10:38:26Z</time>
      </trkpt>
      <trkpt lat="42.895360020920634" lon="-8.447804963216186">
        <ele>333.5</ele>
        <time>2018-05-19T10:38:37Z</time>
      </trkpt>
      <trkpt lat="42.895616004243493" lon="-8.447816027328372">
        <ele>333.80000000000001</ele>
        <time>2018-05-19T10:38:45Z</time>
      </trkpt>
      <trkpt lat="42.895726980641484" lon="-8.447798006236553">
        <ele>334</ele>
        <time>2018-05-19T10:38:48Z</time>
      </trkpt>
      <trkpt lat="42.895912975072861" lon="-8.447735980153084">
        <ele>334</ele>
        <time>2018-05-19T10:38:54Z</time>
      </trkpt>
      <trkpt lat="42.896062005311251" lon="-8.447634978219867">
        <ele>333.39999999999998</ele>
        <time>2018-05-19T10:38:59Z</time>
      </trkpt>
      <trkpt lat="42.896240036934614" lon="-8.447579992935062">
        <ele>333.30000000000001</ele>
        <time>2018-05-19T10:39:04Z</time>
      </trkpt>
      <trkpt lat="42.896575983613729" lon="-8.447607988491654">
        <ele>330.80000000000001</ele>
        <time>2018-05-19T10:39:14Z</time>
      </trkpt>
      <trkpt lat="42.896865997463465" lon="-8.447588039562106">
        <ele>328.10000000000002</ele>
        <time>2018-05-19T10:39:23Z</time>
      </trkpt>
      <trkpt lat="42.896932968869805" lon="-8.447565995156765">
        <ele>327.39999999999998</ele>
        <time>2018-05-19T10:39:25Z</time>
      </trkpt>
      <trkpt lat="42.896989965811372" lon="-8.447565995156765">
        <ele>326.89999999999998</ele>
        <time>2018-05-19T10:39:26Z</time>
      </trkpt>
      <trkpt lat="42.897140001878142" lon="-8.447522995993495">
        <ele>325.5</ele>
        <time>2018-05-19T10:39:31Z</time>
      </trkpt>
      <trkpt lat="42.897245027124882" lon="-8.447344964370132">
        <ele>323.69999999999999</ele>
        <time>2018-05-19T10:39:36Z</time>
      </trkpt>
      <trkpt lat="42.897270005196333" lon="-8.44710398465395">
        <ele>322.60000000000002</ele>
        <time>2018-05-19T10:39:41Z</time>
      </trkpt>
      <trkpt lat="42.897276962175965" lon="-8.447083029896021">
        <ele>322.39999999999998</ele>
        <time>2018-05-19T10:39:42Z</time>
      </trkpt>
      <trkpt lat="42.897319961339235" lon="-8.446851018816233">
        <ele>319.39999999999998</ele>
        <time>2018-05-19T10:39:47Z</time>
      </trkpt>
      <trkpt lat="42.897337982431054" lon="-8.446791004389525">
        <ele>318.60000000000002</ele>
        <time>2018-05-19T10:39:48Z</time>
      </trkpt>
      <trkpt lat="42.897391961887479" lon="-8.446541978046298">
        <ele>315.30000000000001</ele>
        <time>2018-05-19T10:39:54Z</time>
      </trkpt>
      <trkpt lat="42.897534035146236" lon="-8.446139981970191">
        <ele>309.60000000000002</ele>
        <time>2018-05-19T10:40:04Z</time>
      </trkpt>
      <trkpt lat="42.897683987393975" lon="-8.445739997550845">
        <ele>304.39999999999998</ele>
        <time>2018-05-19T10:40:14Z</time>
      </trkpt>
      <trkpt lat="42.897889008745551" lon="-8.445381000638008">
        <ele>300.10000000000002</ele>
        <time>2018-05-19T10:40:24Z</time>
      </trkpt>
      <trkpt lat="42.898121019825339" lon="-8.444914966821671">
        <ele>297.30000000000001</ele>
        <time>2018-05-19T10:40:36Z</time>
      </trkpt>
      <trkpt lat="42.898137029260397" lon="-8.444814970716834">
        <ele>297</ele>
        <time>2018-05-19T10:40:38Z</time>
      </trkpt>
      <trkpt lat="42.898228978738189" lon="-8.444466032087803">
        <ele>296.5</ele>
        <time>2018-05-19T10:40:46Z</time>
      </trkpt>
      <trkpt lat="42.8982749953866" lon="-8.44443803653121">
        <ele>296.5</ele>
        <time>2018-05-19T10:40:48Z</time>
      </trkpt>
      <trkpt lat="42.898282036185265" lon="-8.444420015439391">
        <ele>296.5</ele>
        <time>2018-05-19T10:40:48Z</time>
      </trkpt>
      <trkpt lat="42.898382032290101" lon="-8.444254975765944">
        <ele>296.69999999999999</ele>
        <time>2018-05-19T10:40:53Z</time>
      </trkpt>
      <trkpt lat="42.89840298704803" lon="-8.444282971322537">
        <ele>296.60000000000002</ele>
        <time>2018-05-19T10:40:54Z</time>
      </trkpt>
      <trkpt lat="42.898457972332835" lon="-8.444381961598992">
        <ele>296.19999999999999</ele>
        <time>2018-05-19T10:40:56Z</time>
      </trkpt>
      <trkpt lat="42.898541959002614" lon="-8.444534009322524">
        <ele>295.60000000000002</ele>
        <time>2018-05-19T10:41:01Z</time>
      </trkpt>
      <trkpt lat="42.898679003119469" lon="-8.444626964628696">
        <ele>295.10000000000002</ele>
        <time>2018-05-19T10:41:05Z</time>
      </trkpt>
      <trkpt lat="42.899083010852337" lon="-8.444730984047055">
        <ele>296.80000000000001</ele>
        <time>2018-05-19T10:41:17Z</time>
      </trkpt>
      <trkpt lat="42.899129027500749" lon="-8.444799967110157">
        <ele>296.89999999999998</ele>
        <time>2018-05-19T10:41:19Z</time>
      </trkpt>
      <trkpt lat="42.899193987250328" lon="-8.445456018671393">
        <ele>296</ele>
        <time>2018-05-19T10:41:34Z</time>
      </trkpt>
      <trkpt lat="42.899184012785554" lon="-8.44596303999424">
        <ele>294.69999999999999</ele>
        <time>2018-05-19T10:41:45Z</time>
      </trkpt>
      <trkpt lat="42.89921703748405" lon="-8.446441981941462">
        <ele>294.10000000000002</ele>
        <time>2018-05-19T10:41:55Z</time>
      </trkpt>
      <trkpt lat="42.899245033040643" lon="-8.446639040485025">
        <ele>294.10000000000002</ele>
        <time>2018-05-19T10:41:59Z</time>
      </trkpt>
      <trkpt lat="42.899361960589886" lon="-8.447129968553782">
        <ele>293.30000000000001</ele>
        <time>2018-05-19T10:42:11Z</time>
      </trkpt>
      <trkpt lat="42.899451982229948" lon="-8.447288973256946">
        <ele>292.5</ele>
        <time>2018-05-19T10:42:15Z</time>
      </trkpt>
      <trkpt lat="42.899517025798559" lon="-8.447238011285663">
        <ele>292.10000000000002</ele>
        <time>2018-05-19T10:42:17Z</time>
      </trkpt>
      <trkpt lat="42.899577040225267" lon="-8.447228958830237">
        <ele>291.69999999999999</ele>
        <time>2018-05-19T10:42:19Z</time>
      </trkpt>
      <trkpt lat="42.899596989154816" lon="-8.447150001302362">
        <ele>291.80000000000001</ele>
        <time>2018-05-19T10:42:21Z</time>
      </trkpt>
      <trkpt lat="42.89960402995348" lon="-8.447114964947105">
        <ele>291.89999999999998</ele>
        <time>2018-05-19T10:42:22Z</time>
      </trkpt>
      <trkpt lat="42.899672007188201" lon="-8.446922013536096">
        <ele>292.69999999999999</ele>
        <time>2018-05-19T10:42:26Z</time>
      </trkpt>
      <trkpt lat="42.899969983845949" lon="-8.446893012151122">
        <ele>293.10000000000002</ele>
        <time>2018-05-19T10:42:35Z</time>
      </trkpt>
      <trkpt lat="42.900045001879334" lon="-8.446891000494361">
        <ele>293.19999999999999</ele>
        <time>2018-05-19T10:42:37Z</time>
      </trkpt>
      <trkpt lat="42.900343984365463" lon="-8.446607021614909">
        <ele>295.80000000000001</ele>
        <time>2018-05-19T10:42:48Z</time>
      </trkpt>
      <trkpt lat="42.900528972968459" lon="-8.445910988375545">
        <ele>300</ele>
        <time>2018-05-19T10:43:04Z</time>
      </trkpt>
      <trkpt lat="42.900698035955429" lon="-8.444835003465414">
        <ele>302</ele>
        <time>2018-05-19T10:43:28Z</time>
      </trkpt>
      <trkpt lat="42.900711027905345" lon="-8.444763002917171">
        <ele>302.10000000000002</ele>
        <time>2018-05-19T10:43:30Z</time>
      </trkpt>
      <trkpt lat="42.901082010939717" lon="-8.443432040512562">
        <ele>301.10000000000002</ele>
        <time>2018-05-19T10:44:00Z</time>
      </trkpt>
      <trkpt lat="42.901186030358076" lon="-8.44321402721107">
        <ele>301</ele>
        <time>2018-05-19T10:44:06Z</time>
      </trkpt>
      <trkpt lat="42.901358027011156" lon="-8.442867016419768">
        <ele>301</ele>
        <time>2018-05-19T10:44:15Z</time>
      </trkpt>
      <trkpt lat="42.901487024500966" lon="-8.44246200285852">
        <ele>302.30000000000001</ele>
        <time>2018-05-19T10:44:25Z</time>
      </trkpt>
      <trkpt lat="42.901513008400798" lon="-8.442316995933652">
        <ele>302.80000000000001</ele>
        <time>2018-05-19T10:44:28Z</time>
      </trkpt>
      <trkpt lat="42.901609987020493" lon="-8.441630015149713">
        <ele>305.69999999999999</ele>
        <time>2018-05-19T10:44:43Z</time>
      </trkpt>
      <trkpt lat="42.901715012267232" lon="-8.440898023545742">
        <ele>308.5</ele>
        <time>2018-05-19T10:44:59Z</time>
      </trkpt>
      <trkpt lat="42.901760023087263" lon="-8.440500972792506">
        <ele>309.60000000000002</ele>
        <time>2018-05-19T10:45:08Z</time>
      </trkpt>
      <trkpt lat="42.901918021962047" lon="-8.43928299844265">
        <ele>312.80000000000001</ele>
        <time>2018-05-19T10:45:35Z</time>
      </trkpt>
      <trkpt lat="42.902020029723644" lon="-8.438379010185599">
        <ele>314.30000000000001</ele>
        <time>2018-05-19T10:45:55Z</time>
      </trkpt>
      <trkpt lat="42.902342984452844" lon="-8.437724970281124">
        <ele>316.10000000000002</ele>
        <time>2018-05-19T10:46:12Z</time>
      </trkpt>
      <trkpt lat="42.902491008862853" lon="-8.437510980293155">
        <ele>316.69999999999999</ele>
        <time>2018-05-19T10:46:18Z</time>
      </trkpt>
      <trkpt lat="42.902553034946322" lon="-8.43741400167346">
        <ele>316.89999999999998</ele>
        <time>2018-05-19T10:46:21Z</time>
      </trkpt>
      <trkpt lat="42.902556974440813" lon="-8.437397992238402">
        <ele>316.89999999999998</ele>
        <time>2018-05-19T10:46:21Z</time>
      </trkpt>
      <trkpt lat="42.902595028281212" lon="-8.437319034710527">
        <ele>317.10000000000002</ele>
        <time>2018-05-19T10:46:23Z</time>
      </trkpt>
      <trkpt lat="42.902769036591053" lon="-8.437028015032411">
        <ele>317.19999999999999</ele>
        <time>2018-05-19T10:46:32Z</time>
      </trkpt>
      <trkpt lat="42.903234986588359" lon="-8.4363810159266">
        <ele>318.19999999999999</ele>
        <time>2018-05-19T10:46:51Z</time>
      </trkpt>
      <trkpt lat="42.903862958773971" lon="-8.43547803349793">
        <ele>322.89999999999998</ele>
        <time>2018-05-19T10:47:18Z</time>
      </trkpt>
      <trkpt lat="42.904023975133896" lon="-8.435216015204787">
        <ele>324.19999999999999</ele>
        <time>2018-05-19T10:47:26Z</time>
      </trkpt>
      <trkpt lat="42.904077032580972" lon="-8.435148959979415">
        <ele>324.60000000000002</ele>
        <time>2018-05-19T10:47:28Z</time>
      </trkpt>
      <trkpt lat="42.904162025079131" lon="-8.434769008308649">
        <ele>326.19999999999999</ele>
        <time>2018-05-19T10:47:36Z</time>
      </trkpt>
      <trkpt lat="42.904164036735892" lon="-8.434602962806821">
        <ele>326.89999999999998</ele>
        <time>2018-05-19T10:47:40Z</time>
      </trkpt>
      <trkpt lat="42.904165964573622" lon="-8.434562981128693">
        <ele>327.10000000000002</ele>
        <time>2018-05-19T10:47:41Z</time>
      </trkpt>
      <trkpt lat="42.904253974556923" lon="-8.43425796367228">
        <ele>328.89999999999998</ele>
        <time>2018-05-19T10:47:48Z</time>
      </trkpt>
      <trkpt lat="42.904265038669109" lon="-8.434173977002502">
        <ele>329.39999999999998</ele>
        <time>2018-05-19T10:47:50Z</time>
      </trkpt>
      <trkpt lat="42.904300997033715" lon="-8.433902990072966">
        <ele>330.80000000000001</ele>
        <time>2018-05-19T10:47:56Z</time>
      </trkpt>
      <trkpt lat="42.904413985088468" lon="-8.433434022590518">
        <ele>333.80000000000001</ele>
        <time>2018-05-19T10:48:07Z</time>
      </trkpt>
      <trkpt lat="42.904553040862083" lon="-8.433060022071004">
        <ele>336.69999999999999</ele>
        <time>2018-05-19T10:48:16Z</time>
      </trkpt>
      <trkpt lat="42.904908014461398" lon="-8.432565992698073">
        <ele>336.60000000000002</ele>
        <time>2018-05-19T10:48:31Z</time>
      </trkpt>
      <trkpt lat="42.905027959495783" lon="-8.432366000488401">
        <ele>336.60000000000002</ele>
        <time>2018-05-19T10:48:36Z</time>
      </trkpt>
      <trkpt lat="42.905055033043027" lon="-8.432307997718453">
        <ele>336.69999999999999</ele>
        <time>2018-05-19T10:48:38Z</time>
      </trkpt>
      <trkpt lat="42.90508696809411" lon="-8.432238008826971">
        <ele>336.89999999999998</ele>
        <time>2018-05-19T10:48:40Z</time>
      </trkpt>
      <trkpt lat="42.905210014432669" lon="-8.431970961391926">
        <ele>337.39999999999998</ele>
        <time>2018-05-19T10:48:46Z</time>
      </trkpt>
      <trkpt lat="42.905362984165549" lon="-8.431529989466071">
        <ele>338.80000000000001</ele>
        <time>2018-05-19T10:48:57Z</time>
      </trkpt>
      <trkpt lat="42.905396008864045" lon="-8.431124975904822">
        <ele>340.19999999999999</ele>
        <time>2018-05-19T10:49:06Z</time>
      </trkpt>
      <trkpt lat="42.905444037169218" lon="-8.430893970653415">
        <ele>340.30000000000001</ele>
        <time>2018-05-19T10:49:11Z</time>
      </trkpt>
      <trkpt lat="42.905776966363192" lon="-8.430242026224732">
        <ele>340.30000000000001</ele>
        <time>2018-05-19T10:49:28Z</time>
      </trkpt>
      <trkpt lat="42.905935971066356" lon="-8.43008603900671">
        <ele>340.39999999999998</ele>
        <time>2018-05-19T10:49:34Z</time>
      </trkpt>
      <trkpt lat="42.906106961891055" lon="-8.42997900210321">
        <ele>340.39999999999998</ele>
        <time>2018-05-19T10:49:40Z</time>
      </trkpt>
      <trkpt lat="42.906355988234282" lon="-8.429655963554978">
        <ele>342.10000000000002</ele>
        <time>2018-05-19T10:49:50Z</time>
      </trkpt>
      <trkpt lat="42.906519016250968" lon="-8.42933401465416">
        <ele>344</ele>
        <time>2018-05-19T10:49:58Z</time>
      </trkpt>
      <trkpt lat="42.906590010970831" lon="-8.429196970537305">
        <ele>344.60000000000002</ele>
        <time>2018-05-19T10:50:02Z</time>
      </trkpt>
      <trkpt lat="42.906680032610893" lon="-8.428987003862858">
        <ele>345.5</ele>
        <time>2018-05-19T10:50:07Z</time>
      </trkpt>
      <trkpt lat="42.906923023983836" lon="-8.428486017510295">
        <ele>347.5</ele>
        <time>2018-05-19T10:50:20Z</time>
      </trkpt>
      <trkpt lat="42.907242039218545" lon="-8.428009003400803">
        <ele>348.80000000000001</ele>
        <time>2018-05-19T10:50:34Z</time>
      </trkpt>
      <trkpt lat="42.907538004219532" lon="-8.427722007036209">
        <ele>350</ele>
        <time>2018-05-19T10:50:45Z</time>
      </trkpt>
      <trkpt lat="42.907606987282634" lon="-8.427630979567766">
        <ele>350.19999999999999</ele>
        <time>2018-05-19T10:50:48Z</time>
      </trkpt>
      <trkpt lat="42.907645963132381" lon="-8.427588986232877">
        <ele>350.30000000000001</ele>
        <time>2018-05-19T10:50:49Z</time>
      </trkpt>
      <trkpt lat="42.90783204138279" lon="-8.427392011508346">
        <ele>350.10000000000002</ele>
        <time>2018-05-19T10:50:56Z</time>
      </trkpt>
      <trkpt lat="42.907958021387458" lon="-8.427320010960102">
        <ele>349.60000000000002</ele>
        <time>2018-05-19T10:51:00Z</time>
      </trkpt>
      <trkpt lat="42.908062040805817" lon="-8.427238035947084">
        <ele>349.19999999999999</ele>
        <time>2018-05-19T10:51:04Z</time>
      </trkpt>
      <trkpt lat="42.908172011375427" lon="-8.427108032628894">
        <ele>348.80000000000001</ele>
        <time>2018-05-19T10:51:08Z</time>
      </trkpt>
      <trkpt lat="42.908190032467246" lon="-8.427080037072301">
        <ele>348.69999999999999</ele>
        <time>2018-05-19T10:51:09Z</time>
      </trkpt>
      <trkpt lat="42.908202018588781" lon="-8.427066039294004">
        <ele>348.60000000000002</ele>
        <time>2018-05-19T10:51:10Z</time>
      </trkpt>
      <trkpt lat="42.908232025802135" lon="-8.427026979625225">
        <ele>348.19999999999999</ele>
        <time>2018-05-19T10:51:11Z</time>
      </trkpt>
      <trkpt lat="42.908279970288277" lon="-8.426937963813543">
        <ele>347.5</ele>
        <time>2018-05-19T10:51:13Z</time>
      </trkpt>
      <trkpt lat="42.908311989158392" lon="-8.426879961043596">
        <ele>347</ele>
        <time>2018-05-19T10:51:15Z</time>
      </trkpt>
      <trkpt lat="42.908335039392114" lon="-8.426835034042597">
        <ele>346.60000000000002</ele>
        <time>2018-05-19T10:51:16Z</time>
      </trkpt>
      <trkpt lat="42.908337973058224" lon="-8.426817012950778">
        <ele>346.5</ele>
        <time>2018-05-19T10:51:16Z</time>
      </trkpt>
      <trkpt lat="42.908361023291945" lon="-8.426740989089012">
        <ele>345.89999999999998</ele>
        <time>2018-05-19T10:51:18Z</time>
      </trkpt>
      <trkpt lat="42.90847996249795" lon="-8.426387021318078">
        <ele>342.5</ele>
        <time>2018-05-19T10:51:27Z</time>
      </trkpt>
      <trkpt lat="42.908744998276234" lon="-8.426217958331108">
        <ele>338.10000000000002</ele>
        <time>2018-05-19T10:51:35Z</time>
      </trkpt>
      <trkpt lat="42.908936021849513" lon="-8.426002962514758">
        <ele>336.39999999999998</ele>
        <time>2018-05-19T10:51:43Z</time>
      </trkpt>
      <trkpt lat="42.908969968557358" lon="-8.425349006429315">
        <ele>336.80000000000001</ele>
        <time>2018-05-19T10:51:57Z</time>
      </trkpt>
      <trkpt lat="42.908829990774393" lon="-8.424869980663061">
        <ele>336.60000000000002</ele>
        <time>2018-05-19T10:52:08Z</time>
      </trkpt>
      <trkpt lat="42.908733012154698" lon="-8.423890974372625">
        <ele>336</ele>
        <time>2018-05-19T10:52:30Z</time>
      </trkpt>
      <trkpt lat="42.908776011317968" lon="-8.423700034618378">
        <ele>336.19999999999999</ele>
        <time>2018-05-19T10:52:34Z</time>
      </trkpt>
      <trkpt lat="42.908805012702942" lon="-8.423682013526559">
        <ele>336.30000000000001</ele>
        <time>2018-05-19T10:52:35Z</time>
      </trkpt>
      <trkpt lat="42.909157974645495" lon="-8.423716966062784">
        <ele>336.19999999999999</ele>
        <time>2018-05-19T10:52:45Z</time>
      </trkpt>
      <trkpt lat="42.909476989880204" lon="-8.423853004351258">
        <ele>335.69999999999999</ele>
        <time>2018-05-19T10:52:55Z</time>
      </trkpt>
      <trkpt lat="42.909902958199382" lon="-8.423988958820701">
        <ele>335.80000000000001</ele>
        <time>2018-05-19T10:53:08Z</time>
      </trkpt>
      <trkpt lat="42.91019800119102" lon="-8.424133965745568">
        <ele>335.80000000000001</ele>
        <time>2018-05-19T10:53:17Z</time>
      </trkpt>
      <trkpt lat="42.91049899533391" lon="-8.424242008477449">
        <ele>336</ele>
        <time>2018-05-19T10:53:27Z</time>
      </trkpt>
      <trkpt lat="42.910767970606685" lon="-8.42435197904706">
        <ele>336.69999999999999</ele>
        <time>2018-05-19T10:53:35Z</time>
      </trkpt>
      <trkpt lat="42.910998975858092" lon="-8.424367988482118">
        <ele>337.80000000000001</ele>
        <time>2018-05-19T10:53:42Z</time>
      </trkpt>
      <trkpt lat="42.911193016916513" lon="-8.424150981009007">
        <ele>338.80000000000001</ele>
        <time>2018-05-19T10:53:49Z</time>
      </trkpt>
      <trkpt lat="42.911416981369257" lon="-8.424170007929206">
        <ele>338.80000000000001</ele>
        <time>2018-05-19T10:53:56Z</time>
      </trkpt>
      <trkpt lat="42.911698026582599" lon="-8.424150981009007">
        <ele>338.39999999999998</ele>
        <time>2018-05-19T10:54:04Z</time>
      </trkpt>
      <trkpt lat="42.91174303740263" lon="-8.42413698323071">
        <ele>338.30000000000001</ele>
        <time>2018-05-19T10:54:06Z</time>
      </trkpt>
      <trkpt lat="42.911904975771904" lon="-8.424069005995989">
        <ele>337.80000000000001</ele>
        <time>2018-05-19T10:54:11Z</time>
      </trkpt>
      <trkpt lat="42.912020981311798" lon="-8.423988958820701">
        <ele>337.30000000000001</ele>
        <time>2018-05-19T10:54:14Z</time>
      </trkpt>
      <trkpt lat="42.912080995738506" lon="-8.423936991021037">
        <ele>336.89999999999998</ele>
        <time>2018-05-19T10:54:16Z</time>
      </trkpt>
      <trkpt lat="42.912128018215299" lon="-8.423879994079471">
        <ele>336.39999999999998</ele>
        <time>2018-05-19T10:54:18Z</time>
      </trkpt>
      <trkpt lat="42.912276964634657" lon="-8.423762982711196">
        <ele>334.89999999999998</ele>
        <time>2018-05-19T10:54:23Z</time>
      </trkpt>
      <trkpt lat="42.912759007886052" lon="-8.423395017161965">
        <ele>331.39999999999998</ele>
        <time>2018-05-19T10:54:40Z</time>
      </trkpt>
      <trkpt lat="42.912888005375862" lon="-8.423235006630421">
        <ele>329.5</ele>
        <time>2018-05-19T10:54:45Z</time>
      </trkpt>
      <trkpt lat="42.913043992593884" lon="-8.423000983893871">
        <ele>328.19999999999999</ele>
        <time>2018-05-19T10:54:52Z</time>
      </trkpt>
      <trkpt lat="42.91309998370707" lon="-8.42289000749588">
        <ele>328.19999999999999</ele>
        <time>2018-05-19T10:54:55Z</time>
      </trkpt>
      <trkpt lat="42.913181036710739" lon="-8.422721028327942">
        <ele>329.30000000000001</ele>
        <time>2018-05-19T10:54:59Z</time>
      </trkpt>
      <trkpt lat="42.913237027823925" lon="-8.422622038051486">
        <ele>329.89999999999998</ele>
        <time>2018-05-19T10:55:02Z</time>
      </trkpt>
      <trkpt lat="42.913331994786859" lon="-8.42241601087153">
        <ele>331</ele>
        <time>2018-05-19T10:55:07Z</time>
      </trkpt>
      <trkpt lat="42.913368036970496" lon="-8.422306962311268">
        <ele>331.5</ele>
        <time>2018-05-19T10:55:10Z</time>
      </trkpt>
      <trkpt lat="42.913426039740443" lon="-8.422076962888241">
        <ele>332.60000000000002</ele>
        <time>2018-05-19T10:55:15Z</time>
      </trkpt>
      <trkpt lat="42.913454035297036" lon="-8.4217509906739">
        <ele>334.19999999999999</ele>
        <time>2018-05-19T10:55:22Z</time>
      </trkpt>
      <trkpt lat="42.913439031690359" lon="-8.421412026509643">
        <ele>336.19999999999999</ele>
        <time>2018-05-19T10:55:30Z</time>
      </trkpt>
      <trkpt lat="42.913469960913062" lon="-8.420987986028194">
        <ele>338.39999999999998</ele>
        <time>2018-05-19T10:55:39Z</time>
      </trkpt>
      <trkpt lat="42.913466021418571" lon="-8.420833004638553">
        <ele>339.39999999999998</ele>
        <time>2018-05-19T10:55:42Z</time>
      </trkpt>
      <trkpt lat="42.913451017811894" lon="-8.420583978295326">
        <ele>341.19999999999999</ele>
        <time>2018-05-19T10:55:48Z</time>
      </trkpt>
      <trkpt lat="42.913438025861979" lon="-8.420435031875968">
        <ele>342.30000000000001</ele>
        <time>2018-05-19T10:55:51Z</time>
      </trkpt>
      <trkpt lat="42.91346300393343" lon="-8.420166978612542">
        <ele>343.10000000000002</ele>
        <time>2018-05-19T10:55:57Z</time>
      </trkpt>
      <trkpt lat="42.913586972281337" lon="-8.41994795948267">
        <ele>342.80000000000001</ele>
        <time>2018-05-19T10:56:03Z</time>
      </trkpt>
      <trkpt lat="42.913638018071651" lon="-8.419427024200559">
        <ele>344.30000000000001</ele>
        <time>2018-05-19T10:56:14Z</time>
      </trkpt>
      <trkpt lat="42.913619996979833" lon="-8.419038020074368">
        <ele>345.19999999999999</ele>
        <time>2018-05-19T10:56:23Z</time>
      </trkpt>
      <trkpt lat="42.913598958402872" lon="-8.418547008186579">
        <ele>346.5</ele>
        <time>2018-05-19T10:56:33Z</time>
      </trkpt>
      <trkpt lat="42.913584960624576" lon="-8.418305022642016">
        <ele>347.19999999999999</ele>
        <time>2018-05-19T10:56:39Z</time>
      </trkpt>
      <trkpt lat="42.913691997528076" lon="-8.417978966608644">
        <ele>347.89999999999998</ele>
        <time>2018-05-19T10:56:46Z</time>
      </trkpt>
      <trkpt lat="42.913760980591178" lon="-8.417688030749559">
        <ele>349.10000000000002</ele>
        <time>2018-05-19T10:56:53Z</time>
      </trkpt>
      <trkpt lat="42.913751006126404" lon="-8.417461970821023">
        <ele>350.19999999999999</ele>
        <time>2018-05-19T10:56:58Z</time>
      </trkpt>
      <trkpt lat="42.913771038874984" lon="-8.416982023045421">
        <ele>352.5</ele>
        <time>2018-05-19T10:57:08Z</time>
      </trkpt>
      <trkpt lat="42.913797022774816" lon="-8.416644986718893">
        <ele>354</ele>
        <time>2018-05-19T10:57:16Z</time>
      </trkpt>
      <trkpt lat="42.91378797031939" lon="-8.41629495844245">
        <ele>355.69999999999999</ele>
        <time>2018-05-19T10:57:23Z</time>
      </trkpt>
      <trkpt lat="42.913801968097687" lon="-8.415965968742967">
        <ele>357.5</ele>
        <time>2018-05-19T10:57:30Z</time>
      </trkpt>
      <trkpt lat="42.913803979754448" lon="-8.415731023997068">
        <ele>358.80000000000001</ele>
        <time>2018-05-19T10:57:35Z</time>
      </trkpt>
      <trkpt lat="42.913801968097687" lon="-8.415710991248488">
        <ele>359</ele>
        <time>2018-05-19T10:57:36Z</time>
      </trkpt>
      <trkpt lat="42.913843961432576" lon="-8.415416032075882">
        <ele>360.39999999999998</ele>
        <time>2018-05-19T10:57:42Z</time>
      </trkpt>
      <trkpt lat="42.91385100223124" lon="-8.415142027661204">
        <ele>361.80000000000001</ele>
        <time>2018-05-19T10:57:48Z</time>
      </trkpt>
      <trkpt lat="42.913848990574479" lon="-8.415142027661204">
        <ele>361.80000000000001</ele>
        <time>2018-05-19T10:57:48Z</time>
      </trkpt>
      <trkpt lat="42.913845973089337" lon="-8.415138004347682">
        <ele>361.80000000000001</ele>
        <time>2018-05-19T10:57:49Z</time>
      </trkpt>
      <trkpt lat="42.913853013888001" lon="-8.415135992690921">
        <ele>361.80000000000001</ele>
        <time>2018-05-19T10:57:49Z</time>
      </trkpt>
      <trkpt lat="42.913844967260957" lon="-8.415162982419133">
        <ele>361.69999999999999</ele>
        <time>2018-05-19T10:57:49Z</time>
      </trkpt>
      <trkpt lat="42.913842033594847" lon="-8.415201958268881">
        <ele>361.5</ele>
        <time>2018-05-19T10:57:50Z</time>
      </trkpt>
      <trkpt lat="42.913841027766466" lon="-8.415199024602771">
        <ele>361.5</ele>
        <time>2018-05-19T10:57:50Z</time>
      </trkpt>
      <trkpt lat="42.913843961432576" lon="-8.415187038481236">
        <ele>361.60000000000002</ele>
        <time>2018-05-19T10:57:51Z</time>
      </trkpt>
      <trkpt lat="42.913846978917718" lon="-8.415174968540669">
        <ele>361.60000000000002</ele>
        <time>2018-05-19T10:57:51Z</time>
      </trkpt>
      <trkpt lat="42.913844967260957" lon="-8.415168011561036">
        <ele>361.69999999999999</ele>
        <time>2018-05-19T10:57:51Z</time>
      </trkpt>
      <trkpt lat="42.913854019716382" lon="-8.415150996297598">
        <ele>361.69999999999999</ele>
        <time>2018-05-19T10:57:51Z</time>
      </trkpt>
      <trkpt lat="42.913868017494678" lon="-8.415089976042509">
        <ele>361.89999999999998</ele>
        <time>2018-05-19T10:57:53Z</time>
      </trkpt>
      <trkpt lat="42.913791993632913" lon="-8.414565017446876">
        <ele>364.80000000000001</ele>
        <time>2018-05-19T10:58:05Z</time>
      </trkpt>
      <trkpt lat="42.913731979206204" lon="-8.414206020534039">
        <ele>364.60000000000002</ele>
        <time>2018-05-19T10:58:12Z</time>
      </trkpt>
      <trkpt lat="42.91374396532774" lon="-8.414110969752073">
        <ele>364.5</ele>
        <time>2018-05-19T10:58:15Z</time>
      </trkpt>
      <trkpt lat="42.913737008348107" lon="-8.41416503302753">
        <ele>364.5</ele>
        <time>2018-05-19T10:58:16Z</time>
      </trkpt>
      <trkpt lat="42.91374396532774" lon="-8.41416503302753">
        <ele>364.5</ele>
        <time>2018-05-19T10:58:16Z</time>
      </trkpt>
      <trkpt lat="42.913746982812881" lon="-8.414162015542388">
        <ele>364.5</ele>
        <time>2018-05-19T10:58:16Z</time>
      </trkpt>
      <trkpt lat="42.913729967549443" lon="-8.414123961701989">
        <ele>364.5</ele>
        <time>2018-05-19T10:58:17Z</time>
      </trkpt>
      <trkpt lat="42.913711024448276" lon="-8.414111975580454">
        <ele>364.60000000000002</ele>
        <time>2018-05-19T10:58:18Z</time>
      </trkpt>
      <trkpt lat="42.913481025025249" lon="-8.414067970588803">
        <ele>365.30000000000001</ele>
        <time>2018-05-19T10:58:25Z</time>
      </trkpt>
      <trkpt lat="42.913395026698709" lon="-8.41410300694406">
        <ele>365.60000000000002</ele>
        <time>2018-05-19T10:58:27Z</time>
      </trkpt>
      <trkpt lat="42.913253037258983" lon="-8.414109963923693">
        <ele>366</ele>
        <time>2018-05-19T10:58:31Z</time>
      </trkpt>
      <trkpt lat="42.913004010915756" lon="-8.414127985015512">
        <ele>366.80000000000001</ele>
        <time>2018-05-19T10:58:39Z</time>
      </trkpt>
      <trkpt lat="42.91268901899457" lon="-8.414150029420853">
        <ele>368.39999999999998</ele>
        <time>2018-05-19T10:58:48Z</time>
      </trkpt>
      <trkpt lat="42.912327004596591" lon="-8.41416603885591">
        <ele>370.5</ele>
        <time>2018-05-19T10:58:59Z</time>
      </trkpt>
      <trkpt lat="42.911959961056709" lon="-8.414229992777109">
        <ele>372.80000000000001</ele>
        <time>2018-05-19T10:59:10Z</time>
      </trkpt>
      <trkpt lat="42.911556959152222" lon="-8.414310039952397">
        <ele>375.69999999999999</ele>
        <time>2018-05-19T10:59:22Z</time>
      </trkpt>
      <trkpt lat="42.911020014435053" lon="-8.414409030228853">
        <ele>376.89999999999998</ele>
        <time>2018-05-19T10:59:38Z</time>
      </trkpt>
      <trkpt lat="42.910463036969304" lon="-8.414474995806813">
        <ele>372.30000000000001</ele>
        <time>2018-05-19T10:59:55Z</time>
      </trkpt>
      <trkpt lat="42.910223985090852" lon="-8.414511037990451">
        <ele>371.30000000000001</ele>
        <time>2018-05-19T11:00:02Z</time>
      </trkpt>
      <trkpt lat="42.909883009269834" lon="-8.414544984698296">
        <ele>370.19999999999999</ele>
        <time>2018-05-19T11:00:12Z</time>
      </trkpt>
      <trkpt lat="42.909586960449815" lon="-8.414631988853216">
        <ele>368.80000000000001</ele>
        <time>2018-05-19T11:00:21Z</time>
      </trkpt>
      <trkpt lat="42.909505991265178" lon="-8.414669036865234">
        <ele>368.89999999999998</ele>
        <time>2018-05-19T11:00:23Z</time>
      </trkpt>
      <trkpt lat="42.909307004883885" lon="-8.41470499522984">
        <ele>369.39999999999998</ele>
        <time>2018-05-19T11:00:29Z</time>
      </trkpt>
      <trkpt lat="42.908820016309619" lon="-8.414784036576748">
        <ele>370.60000000000002</ele>
        <time>2018-05-19T11:00:44Z</time>
      </trkpt>
      <trkpt lat="42.90860703215003" lon="-8.414793005213141">
        <ele>370.60000000000002</ele>
        <time>2018-05-19T11:00:50Z</time>
      </trkpt>
      <trkpt lat="42.908407961949706" lon="-8.414770038798451">
        <ele>370.39999999999998</ele>
        <time>2018-05-19T11:00:56Z</time>
      </trkpt>
      <trkpt lat="42.908193971961737" lon="-8.41421197168529">
        <ele>371.10000000000002</ele>
        <time>2018-05-19T11:01:10Z</time>
      </trkpt>
      <trkpt lat="42.90802801027894" lon="-8.413604032248259">
        <ele>371.10000000000002</ele>
        <time>2018-05-19T11:01:24Z</time>
      </trkpt>
      <trkpt lat="42.907905969768763" lon="-8.413158031180501">
        <ele>370.30000000000001</ele>
        <time>2018-05-19T11:01:34Z</time>
      </trkpt>
      <trkpt lat="42.90776900947094" lon="-8.412722004577518">
        <ele>368.30000000000001</ele>
        <time>2018-05-19T11:01:44Z</time>
      </trkpt>
      <trkpt lat="42.907702038064599" lon="-8.412259994074702">
        <ele>365.30000000000001</ele>
        <time>2018-05-19T11:01:55Z</time>
      </trkpt>
      <trkpt lat="42.907544039189816" lon="-8.411712991073728">
        <ele>361.5</ele>
        <time>2018-05-19T11:02:07Z</time>
      </trkpt>
      <trkpt lat="42.907369025051594" lon="-8.411177974194288">
        <ele>357.30000000000001</ele>
        <time>2018-05-19T11:02:20Z</time>
      </trkpt>
      <trkpt lat="42.906957976520061" lon="-8.41077103279531">
        <ele>354.39999999999998</ele>
        <time>2018-05-19T11:02:35Z</time>
      </trkpt>
      <trkpt lat="42.906598979607224" lon="-8.410596018657088">
        <ele>354.19999999999999</ele>
        <time>2018-05-19T11:02:46Z</time>
      </trkpt>
      <trkpt lat="42.906371997669339" lon="-8.410332994535565">
        <ele>353.19999999999999</ele>
        <time>2018-05-19T11:02:55Z</time>
      </trkpt>
      <trkpt lat="42.906209975481033" lon="-8.410111963748932">
        <ele>351.60000000000002</ele>
        <time>2018-05-19T11:03:02Z</time>
      </trkpt>
      <trkpt lat="42.906149961054325" lon="-8.409733017906547">
        <ele>348.60000000000002</ele>
        <time>2018-05-19T11:03:10Z</time>
      </trkpt>
      <trkpt lat="42.905975030735135" lon="-8.409343007951975">
        <ele>346.69999999999999</ele>
        <time>2018-05-19T11:03:20Z</time>
      </trkpt>
      <trkpt lat="42.905781995505095" lon="-8.408776978030801">
        <ele>344.30000000000001</ele>
        <time>2018-05-19T11:03:34Z</time>
      </trkpt>
      <trkpt lat="42.90577202104032" lon="-8.408240033313632">
        <ele>342.69999999999999</ele>
        <time>2018-05-19T11:03:46Z</time>
      </trkpt>
      <trkpt lat="42.905849972739816" lon="-8.407837031409144">
        <ele>341</ele>
        <time>2018-05-19T11:03:55Z</time>
      </trkpt>
      <trkpt lat="42.905861036852002" lon="-8.407752038910985">
        <ele>340.5</ele>
        <time>2018-05-19T11:03:56Z</time>
      </trkpt>
      <trkpt lat="42.905866988003254" lon="-8.40742195956409">
        <ele>338.69999999999999</ele>
        <time>2018-05-19T11:04:04Z</time>
      </trkpt>
      <trkpt lat="42.905845027416945" lon="-8.407030021771789">
        <ele>336.60000000000002</ele>
        <time>2018-05-19T11:04:12Z</time>
      </trkpt>
      <trkpt lat="42.905870005488396" lon="-8.40662500821054">
        <ele>333.69999999999999</ele>
        <time>2018-05-19T11:04:21Z</time>
      </trkpt>
      <trkpt lat="42.905886014923453" lon="-8.405689001083374">
        <ele>326.10000000000002</ele>
        <time>2018-05-19T11:04:41Z</time>
      </trkpt>
      <trkpt lat="42.905888026580215" lon="-8.405227996408939">
        <ele>322.30000000000001</ele>
        <time>2018-05-19T11:04:51Z</time>
      </trkpt>
      <trkpt lat="42.905905963853002" lon="-8.404642017558217">
        <ele>317.89999999999998</ele>
        <time>2018-05-19T11:05:04Z</time>
      </trkpt>
      <trkpt lat="42.905829017981887" lon="-8.404229963198304">
        <ele>315.80000000000001</ele>
        <time>2018-05-19T11:05:13Z</time>
      </trkpt>
      <trkpt lat="42.90575098246336" lon="-8.403823021799326">
        <ele>313.39999999999998</ele>
        <time>2018-05-19T11:05:23Z</time>
      </trkpt>
      <trkpt lat="42.905795993283391" lon="-8.403284987434745">
        <ele>311</ele>
        <time>2018-05-19T11:05:34Z</time>
      </trkpt>
      <trkpt lat="42.905861958861351" lon="-8.402920961380005">
        <ele>309.69999999999999</ele>
        <time>2018-05-19T11:05:43Z</time>
      </trkpt>
      <trkpt lat="42.906043007969856" lon="-8.402548972517252">
        <ele>309.19999999999999</ele>
        <time>2018-05-19T11:05:52Z</time>
      </trkpt>
      <trkpt lat="42.906108973547816" lon="-8.402469009160996">
        <ele>309.19999999999999</ele>
        <time>2018-05-19T11:05:55Z</time>
      </trkpt>
      <trkpt lat="42.906172005459666" lon="-8.402314027771354">
        <ele>308.80000000000001</ele>
        <time>2018-05-19T11:05:59Z</time>
      </trkpt>
      <trkpt lat="42.906184997409582" lon="-8.402215959504247">
        <ele>308.39999999999998</ele>
        <time>2018-05-19T11:06:01Z</time>
      </trkpt>
      <trkpt lat="42.906152978539467" lon="-8.401894010603428">
        <ele>306.10000000000002</ele>
        <time>2018-05-19T11:06:08Z</time>
      </trkpt>
      <trkpt lat="42.906112996861339" lon="-8.401837013661861">
        <ele>305.5</ele>
        <time>2018-05-19T11:06:10Z</time>
      </trkpt>
      <trkpt lat="42.906063962727785" lon="-8.401772975921631">
        <ele>304.80000000000001</ele>
        <time>2018-05-19T11:06:12Z</time>
      </trkpt>
      <trkpt lat="42.906049964949489" lon="-8.401432000100613">
        <ele>302</ele>
        <time>2018-05-19T11:06:19Z</time>
      </trkpt>
      <trkpt lat="42.906032027676702" lon="-8.40129503980279">
        <ele>300.80000000000001</ele>
        <time>2018-05-19T11:06:22Z</time>
      </trkpt>
      <trkpt lat="42.906063962727785" lon="-8.400961020961404">
        <ele>299.80000000000001</ele>
        <time>2018-05-19T11:06:29Z</time>
      </trkpt>
      <trkpt lat="42.906117020174861" lon="-8.400882985442877">
        <ele>299.69999999999999</ele>
        <time>2018-05-19T11:06:32Z</time>
      </trkpt>
      <trkpt lat="42.906139986589551" lon="-8.400829005986452">
        <ele>299.69999999999999</ele>
        <time>2018-05-19T11:06:33Z</time>
      </trkpt>
      <trkpt lat="42.906150966882706" lon="-8.400757005438209">
        <ele>299.5</ele>
        <time>2018-05-19T11:06:35Z</time>
      </trkpt>
      <trkpt lat="42.906211987137794" lon="-8.400400020182133">
        <ele>298.80000000000001</ele>
        <time>2018-05-19T11:06:43Z</time>
      </trkpt>
      <trkpt lat="42.90630997158587" lon="-8.399994000792503">
        <ele>298.39999999999998</ele>
        <time>2018-05-19T11:06:52Z</time>
      </trkpt>
      <trkpt lat="42.906321035698056" lon="-8.399875983595848">
        <ele>298.19999999999999</ele>
        <time>2018-05-19T11:06:54Z</time>
      </trkpt>
      <trkpt lat="42.906335033476353" lon="-8.39972703717649">
        <ele>298.10000000000002</ele>
        <time>2018-05-19T11:06:58Z</time>
      </trkpt>
      <trkpt lat="42.906344002112746" lon="-8.399628968909383">
        <ele>297.89999999999998</ele>
        <time>2018-05-19T11:07:00Z</time>
      </trkpt>
      <trkpt lat="42.906263032928109" lon="-8.399286987259984">
        <ele>297.60000000000002</ele>
        <time>2018-05-19T11:07:08Z</time>
      </trkpt>
      <trkpt lat="42.90622497908771" lon="-8.399083977565169">
        <ele>297.39999999999998</ele>
        <time>2018-05-19T11:07:12Z</time>
      </trkpt>
      <trkpt lat="42.906164964661002" lon="-8.398940982297063">
        <ele>297</ele>
        <time>2018-05-19T11:07:16Z</time>
      </trkpt>
      <trkpt lat="42.906064968556166" lon="-8.398663960397244">
        <ele>295.69999999999999</ele>
        <time>2018-05-19T11:07:22Z</time>
      </trkpt>
      <trkpt lat="42.905991040170193" lon="-8.398532029241324">
        <ele>294.10000000000002</ele>
        <time>2018-05-19T11:07:26Z</time>
      </trkpt>
      <trkpt lat="42.905948041006923" lon="-8.398385010659695">
        <ele>292.5</ele>
        <time>2018-05-19T11:07:30Z</time>
      </trkpt>
      <trkpt lat="42.90592297911644" lon="-8.398326002061367">
        <ele>291.80000000000001</ele>
        <time>2018-05-19T11:07:31Z</time>
      </trkpt>
      <trkpt lat="42.905800016596913" lon="-8.398092985153198">
        <ele>289.30000000000001</ele>
        <time>2018-05-19T11:07:37Z</time>
      </trkpt>
      <trkpt lat="42.905555013567209" lon="-8.397928029298782">
        <ele>287.30000000000001</ele>
        <time>2018-05-19T11:07:45Z</time>
      </trkpt>
      <trkpt lat="42.905517965555191" lon="-8.397843036800623">
        <ele>285.89999999999998</ele>
        <time>2018-05-19T11:07:48Z</time>
      </trkpt>
      <trkpt lat="42.905504973605275" lon="-8.397728959098458">
        <ele>284.10000000000002</ele>
        <time>2018-05-19T11:07:50Z</time>
      </trkpt>
      <trkpt lat="42.905506985262036" lon="-8.397681014612317">
        <ele>283.30000000000001</ele>
        <time>2018-05-19T11:07:51Z</time>
      </trkpt>
      <trkpt lat="42.905518971383572" lon="-8.397391000762582">
        <ele>278.69999999999999</ele>
        <time>2018-05-19T11:07:58Z</time>
      </trkpt>
      <trkpt lat="42.905545039102435" lon="-8.397281030192971">
        <ele>276.89999999999998</ele>
        <time>2018-05-19T11:08:00Z</time>
      </trkpt>
      <trkpt lat="42.905531041324139" lon="-8.39717298746109">
        <ele>275.19999999999999</ele>
        <time>2018-05-19T11:08:03Z</time>
      </trkpt>
      <trkpt lat="42.905543027445674" lon="-8.397052036598325">
        <ele>273.39999999999998</ele>
        <time>2018-05-19T11:08:05Z</time>
      </trkpt>
      <trkpt lat="42.905545039102435" lon="-8.396674012765288">
        <ele>270.39999999999998</ele>
        <time>2018-05-19T11:08:13Z</time>
      </trkpt>
      <trkpt lat="42.905607987195253" lon="-8.396304035559297">
        <ele>267.39999999999998</ele>
        <time>2018-05-19T11:08:22Z</time>
      </trkpt>
      <trkpt lat="42.905641011893749" lon="-8.395951995626092">
        <ele>264.80000000000001</ele>
        <time>2018-05-19T11:08:29Z</time>
      </trkpt>
      <trkpt lat="42.905697003006935" lon="-8.395459977909923">
        <ele>261.30000000000001</ele>
        <time>2018-05-19T11:08:40Z</time>
      </trkpt>
      <trkpt lat="42.905780989676714" lon="-8.395029986277223">
        <ele>259.19999999999999</ele>
        <time>2018-05-19T11:08:50Z</time>
      </trkpt>
      <trkpt lat="42.905807979404926" lon="-8.394880034029484">
        <ele>258.5</ele>
        <time>2018-05-19T11:08:53Z</time>
      </trkpt>
      <trkpt lat="42.905875034630299" lon="-8.394610974937677">
        <ele>257.30000000000001</ele>
        <time>2018-05-19T11:08:59Z</time>
      </trkpt>
      <trkpt lat="42.905945023521781" lon="-8.394266981631517">
        <ele>255</ele>
        <time>2018-05-19T11:09:07Z</time>
      </trkpt>
      <trkpt lat="42.905928008258343" lon="-8.3941659796983">
        <ele>254.09999999999999</ele>
        <time>2018-05-19T11:09:10Z</time>
      </trkpt>
      <trkpt lat="42.905905963853002" lon="-8.394018039107323">
        <ele>252.90000000000001</ele>
        <time>2018-05-19T11:09:13Z</time>
      </trkpt>
      <trkpt lat="42.905896995216608" lon="-8.39386498555541">
        <ele>251.59999999999999</ele>
        <time>2018-05-19T11:09:16Z</time>
      </trkpt>
      <trkpt lat="42.905882997438312" lon="-8.393679996952415">
        <ele>250.30000000000001</ele>
        <time>2018-05-19T11:09:20Z</time>
      </trkpt>
      <trkpt lat="42.905899006873369" lon="-8.393585029989481">
        <ele>249.90000000000001</ele>
        <time>2018-05-19T11:09:22Z</time>
      </trkpt>
      <trkpt lat="42.905937982723117" lon="-8.393474975600839">
        <ele>249.5</ele>
        <time>2018-05-19T11:09:25Z</time>
      </trkpt>
      <trkpt lat="42.905948041006923" lon="-8.393446980044246">
        <ele>249.40000000000001</ele>
        <time>2018-05-19T11:09:26Z</time>
      </trkpt>
      <trkpt lat="42.905946029350162" lon="-8.393441028892994">
        <ele>249.30000000000001</ele>
        <time>2018-05-19T11:09:26Z</time>
      </trkpt>
      <trkpt lat="42.905947035178542" lon="-8.393435999751091">
        <ele>249.30000000000001</ele>
        <time>2018-05-19T11:09:26Z</time>
      </trkpt>
      <trkpt lat="42.905941000208259" lon="-8.393425019457936">
        <ele>249.19999999999999</ele>
        <time>2018-05-19T11:09:26Z</time>
      </trkpt>
      <trkpt lat="42.905928008258343" lon="-8.393428958952427">
        <ele>249.19999999999999</ele>
        <time>2018-05-19T11:09:27Z</time>
      </trkpt>
      <trkpt lat="42.905924990773201" lon="-8.393423007801175">
        <ele>249.19999999999999</ele>
        <time>2018-05-19T11:09:27Z</time>
      </trkpt>
      <trkpt lat="42.905930019915104" lon="-8.393439017236233">
        <ele>249.30000000000001</ele>
        <time>2018-05-19T11:09:27Z</time>
      </trkpt>
      <trkpt lat="42.905936976894736" lon="-8.393437005579472">
        <ele>249.30000000000001</ele>
        <time>2018-05-19T11:09:27Z</time>
      </trkpt>
      <trkpt lat="42.905832035467029" lon="-8.393136011436582">
        <ele>247.59999999999999</ele>
        <time>2018-05-19T11:09:35Z</time>
      </trkpt>
      <trkpt lat="42.905468009412289" lon="-8.392048962414265">
        <ele>246.19999999999999</ele>
        <time>2018-05-19T11:10:00Z</time>
      </trkpt>
      <trkpt lat="42.905229041352868" lon="-8.391545964404941">
        <ele>247.90000000000001</ele>
        <time>2018-05-19T11:10:13Z</time>
      </trkpt>
      <trkpt lat="42.905054027214646" lon="-8.391376985237002">
        <ele>248.5</ele>
        <time>2018-05-19T11:10:20Z</time>
      </trkpt>
      <trkpt lat="42.904730988666415" lon="-8.391147991642356">
        <ele>249.40000000000001</ele>
        <time>2018-05-19T11:10:31Z</time>
      </trkpt>
      <trkpt lat="42.904593022540212" lon="-8.391136005520821">
        <ele>249.40000000000001</ele>
        <time>2018-05-19T11:10:35Z</time>
      </trkpt>
      <trkpt lat="42.904534013941884" lon="-8.391098035499454">
        <ele>249.59999999999999</ele>
        <time>2018-05-19T11:10:37Z</time>
      </trkpt>
      <trkpt lat="42.904386995360255" lon="-8.390656979754567">
        <ele>251</ele>
        <time>2018-05-19T11:10:47Z</time>
      </trkpt>
      <trkpt lat="42.904395963996649" lon="-8.390418011695147">
        <ele>251.80000000000001</ele>
        <time>2018-05-19T11:10:52Z</time>
      </trkpt>
      <trkpt lat="42.904322035610676" lon="-8.389805965125561">
        <ele>256.30000000000001</ele>
        <time>2018-05-19T11:11:06Z</time>
      </trkpt>
      <trkpt lat="42.904055994004011" lon="-8.389440011233091">
        <ele>259</ele>
        <time>2018-05-19T11:11:17Z</time>
      </trkpt>
      <trkpt lat="42.903751982375979" lon="-8.388951011002064">
        <ele>262.60000000000002</ele>
        <time>2018-05-19T11:11:31Z</time>
      </trkpt>
      <trkpt lat="42.903550984337926" lon="-8.388314992189407">
        <ele>264.80000000000001</ele>
        <time>2018-05-19T11:11:46Z</time>
      </trkpt>
      <trkpt lat="42.903260970488191" lon="-8.387317964807153">
        <ele>265.80000000000001</ele>
        <time>2018-05-19T11:12:09Z</time>
      </trkpt>
      <trkpt lat="42.903376976028085" lon="-8.38701001368463">
        <ele>267.10000000000002</ele>
        <time>2018-05-19T11:12:17Z</time>
      </trkpt>
      <trkpt lat="42.90353799238801" lon="-8.386947987601161">
        <ele>268.30000000000001</ele>
        <time>2018-05-19T11:12:22Z</time>
      </trkpt>
      <trkpt lat="42.903886009007692" lon="-8.386753024533391">
        <ele>271.5</ele>
        <time>2018-05-19T11:12:33Z</time>
      </trkpt>
      <trkpt lat="42.904036967083812" lon="-8.386670965701342">
        <ele>273</ele>
        <time>2018-05-19T11:12:38Z</time>
      </trkpt>
      <trkpt lat="42.904199995100498" lon="-8.386565018445253">
        <ele>274.89999999999998</ele>
        <time>2018-05-19T11:12:43Z</time>
      </trkpt>
      <trkpt lat="42.904492020606995" lon="-8.386335019022226">
        <ele>278.60000000000002</ele>
        <time>2018-05-19T11:12:53Z</time>
      </trkpt>
      <trkpt lat="42.904773987829685" lon="-8.386039976030588">
        <ele>285.30000000000001</ele>
        <time>2018-05-19T11:13:04Z</time>
      </trkpt>
      <trkpt lat="42.904850011691451" lon="-8.385520968586206">
        <ele>290.69999999999999</ele>
        <time>2018-05-19T11:13:15Z</time>
      </trkpt>
      <trkpt lat="42.904792008921504" lon="-8.385413009673357">
        <ele>290</ele>
        <time>2018-05-19T11:13:18Z</time>
      </trkpt>
      <trkpt lat="42.904641972854733" lon="-8.385189967229962">
        <ele>287.30000000000001</ele>
        <time>2018-05-19T11:13:25Z</time>
      </trkpt>
      <trkpt lat="42.904460001736879" lon="-8.384888973087072">
        <ele>285.19999999999999</ele>
        <time>2018-05-19T11:13:33Z</time>
      </trkpt>
      <trkpt lat="42.904305020347238" lon="-8.384535005316138">
        <ele>283.69999999999999</ele>
        <time>2018-05-19T11:13:42Z</time>
      </trkpt>
      <trkpt lat="42.90418297983706" lon="-8.384101996198297">
        <ele>282.30000000000001</ele>
        <time>2018-05-19T11:13:52Z</time>
      </trkpt>
      <trkpt lat="42.904078960418701" lon="-8.38352900929749">
        <ele>281.5</ele>
        <time>2018-05-19T11:14:05Z</time>
      </trkpt>
      <trkpt lat="42.903900006785989" lon="-8.382920986041427">
        <ele>279.80000000000001</ele>
        <time>2018-05-19T11:14:19Z</time>
      </trkpt>
      <trkpt lat="42.903832029551268" lon="-8.382684029638767">
        <ele>278.69999999999999</ele>
        <time>2018-05-19T11:14:25Z</time>
      </trkpt>
      <trkpt lat="42.903606975451112" lon="-8.381829997524619">
        <ele>277.39999999999998</ele>
        <time>2018-05-19T11:14:45Z</time>
      </trkpt>
      <trkpt lat="42.903564982116222" lon="-8.381712986156344">
        <ele>277.60000000000002</ele>
        <time>2018-05-19T11:14:47Z</time>
      </trkpt>
      <trkpt lat="42.903698002919555" lon="-8.381244018673897">
        <ele>280.60000000000002</ele>
        <time>2018-05-19T11:14:58Z</time>
      </trkpt>
      <trkpt lat="42.903705965727568" lon="-8.380749989300966">
        <ele>284.69999999999999</ele>
        <time>2018-05-19T11:15:09Z</time>
      </trkpt>
      <trkpt lat="42.903690040111542" lon="-8.380401972681284">
        <ele>287.30000000000001</ele>
        <time>2018-05-19T11:15:17Z</time>
      </trkpt>
      <trkpt lat="42.903622984886169" lon="-8.379827979952097">
        <ele>288.80000000000001</ele>
        <time>2018-05-19T11:15:29Z</time>
      </trkpt>
      <trkpt lat="42.903604963794351" lon="-8.379449034109712">
        <ele>289.19999999999999</ele>
        <time>2018-05-19T11:15:37Z</time>
      </trkpt>
      <trkpt lat="42.903616027906537" lon="-8.378927009180188">
        <ele>288.80000000000001</ele>
        <time>2018-05-19T11:15:49Z</time>
      </trkpt>
      <trkpt lat="42.90364402346313" lon="-8.378664990887046">
        <ele>288.89999999999998</ele>
        <time>2018-05-19T11:15:55Z</time>
      </trkpt>
      <trkpt lat="42.903692973777652" lon="-8.378282021731138">
        <ele>289.5</ele>
        <time>2018-05-19T11:16:03Z</time>
      </trkpt>
      <trkpt lat="42.903762962669134" lon="-8.377710040658712">
        <ele>289.30000000000001</ele>
        <time>2018-05-19T11:16:16Z</time>
      </trkpt>
      <trkpt lat="42.903885003179312" lon="-8.377065975219011">
        <ele>287.19999999999999</ele>
        <time>2018-05-19T11:16:30Z</time>
      </trkpt>
      <trkpt lat="42.904005032032728" lon="-8.37663003243506">
        <ele>285.10000000000002</ele>
        <time>2018-05-19T11:16:40Z</time>
      </trkpt>
      <trkpt lat="42.904119025915861" lon="-8.376340018585324">
        <ele>283.19999999999999</ele>
        <time>2018-05-19T11:16:47Z</time>
      </trkpt>
      <trkpt lat="42.904193960130215" lon="-8.376130973920226">
        <ele>282.19999999999999</ele>
        <time>2018-05-19T11:16:52Z</time>
      </trkpt>
      <trkpt lat="42.904286999255419" lon="-8.375943973660469">
        <ele>281.60000000000002</ele>
        <time>2018-05-19T11:16:57Z</time>
      </trkpt>
      <trkpt lat="42.904563015326858" lon="-8.375555975362659">
        <ele>280.19999999999999</ele>
        <time>2018-05-19T11:17:09Z</time>
      </trkpt>
      <trkpt lat="42.904813969507813" lon="-8.375227991491556">
        <ele>280.89999999999998</ele>
        <time>2018-05-19T11:17:19Z</time>
      </trkpt>
      <trkpt lat="42.905071964487433" lon="-8.374920962378383">
        <ele>282.10000000000002</ele>
        <time>2018-05-19T11:17:29Z</time>
      </trkpt>
      <trkpt lat="42.905505979433656" lon="-8.374485019594431">
        <ele>284</ele>
        <time>2018-05-19T11:17:45Z</time>
      </trkpt>
      <trkpt lat="42.905601030215621" lon="-8.37420498020947">
        <ele>283.5</ele>
        <time>2018-05-19T11:17:52Z</time>
      </trkpt>
      <trkpt lat="42.905691973865032" lon="-8.373996019363403">
        <ele>282.89999999999998</ele>
        <time>2018-05-19T11:17:57Z</time>
      </trkpt>
      <trkpt lat="42.905781995505095" lon="-8.373758979141712">
        <ele>282</ele>
        <time>2018-05-19T11:18:03Z</time>
      </trkpt>
      <trkpt lat="42.905831029638648" lon="-8.373636016622186">
        <ele>281</ele>
        <time>2018-05-19T11:18:06Z</time>
      </trkpt>
      <trkpt lat="42.905865982174873" lon="-8.373520011082292">
        <ele>280.10000000000002</ele>
        <time>2018-05-19T11:18:09Z</time>
      </trkpt>
      <trkpt lat="42.905942006036639" lon="-8.373314989730716">
        <ele>278.30000000000001</ele>
        <time>2018-05-19T11:18:14Z</time>
      </trkpt>
      <trkpt lat="42.905997997149825" lon="-8.373145004734397">
        <ele>276.89999999999998</ele>
        <time>2018-05-19T11:18:18Z</time>
      </trkpt>
      <trkpt lat="42.906082989647985" lon="-8.372584003955126">
        <ele>272</ele>
        <time>2018-05-19T11:18:30Z</time>
      </trkpt>
      <trkpt lat="42.906031021848321" lon="-8.372321985661984">
        <ele>269.39999999999998</ele>
        <time>2018-05-19T11:18:36Z</time>
      </trkpt>
      <trkpt lat="42.905820971354842" lon="-8.372103972360492">
        <ele>266.69999999999999</ele>
        <time>2018-05-19T11:18:44Z</time>
      </trkpt>
      <trkpt lat="42.905757017433643" lon="-8.372007999569178">
        <ele>266.10000000000002</ele>
        <time>2018-05-19T11:18:47Z</time>
      </trkpt>
      <trkpt lat="42.905978970229626" lon="-8.371656965464354">
        <ele>266.5</ele>
        <time>2018-05-19T11:18:57Z</time>
      </trkpt>
      <trkpt lat="42.906301002949476" lon="-8.371276007965207">
        <ele>267.19999999999999</ele>
        <time>2018-05-19T11:19:10Z</time>
      </trkpt>
      <trkpt lat="42.906468976289034" lon="-8.370983982458711">
        <ele>268.89999999999998</ele>
        <time>2018-05-19T11:19:18Z</time>
      </trkpt>
      <trkpt lat="42.906379038468003" lon="-8.37072397582233">
        <ele>269</ele>
        <time>2018-05-19T11:19:24Z</time>
      </trkpt>
      <trkpt lat="42.906355988234282" lon="-8.370374031364918">
        <ele>269.80000000000001</ele>
        <time>2018-05-19T11:19:32Z</time>
      </trkpt>
      <trkpt lat="42.906680032610893" lon="-8.36997002363205">
        <ele>276.89999999999998</ele>
        <time>2018-05-19T11:19:45Z</time>
      </trkpt>
      <trkpt lat="42.906886981800199" lon="-8.369516981765628">
        <ele>282.5</ele>
        <time>2018-05-19T11:19:56Z</time>
      </trkpt>
      <trkpt lat="42.906970968469977" lon="-8.369286982342601">
        <ele>284.60000000000002</ele>
        <time>2018-05-19T11:20:02Z</time>
      </trkpt>
      <trkpt lat="42.907116981223226" lon="-8.36904801428318">
        <ele>287.19999999999999</ele>
        <time>2018-05-19T11:20:09Z</time>
      </trkpt>
      <trkpt lat="42.907355027273297" lon="-8.368287021294236">
        <ele>293.39999999999998</ele>
        <time>2018-05-19T11:20:27Z</time>
      </trkpt>
      <trkpt lat="42.907453011721373" lon="-8.368009999394417">
        <ele>295.69999999999999</ele>
        <time>2018-05-19T11:20:33Z</time>
      </trkpt>
      <trkpt lat="42.907539010047913" lon="-8.367734989151359">
        <ele>297.10000000000002</ele>
        <time>2018-05-19T11:20:40Z</time>
      </trkpt>
      <trkpt lat="42.907837992534041" lon="-8.366999980062246">
        <ele>298.39999999999998</ele>
        <time>2018-05-19T11:20:58Z</time>
      </trkpt>
      <trkpt lat="42.908015018329024" lon="-8.366434033960104">
        <ele>296.30000000000001</ele>
        <time>2018-05-19T11:21:11Z</time>
      </trkpt>
      <trkpt lat="42.908104034140706" lon="-8.366076964884996">
        <ele>295.80000000000001</ele>
        <time>2018-05-19T11:21:20Z</time>
      </trkpt>
      <trkpt lat="42.90828600525856" lon="-8.365772031247616">
        <ele>296.60000000000002</ele>
        <time>2018-05-19T11:21:28Z</time>
      </trkpt>
      <trkpt lat="42.908289022743702" lon="-8.365612020716071">
        <ele>296.39999999999998</ele>
        <time>2018-05-19T11:21:32Z</time>
      </trkpt>
      <trkpt lat="42.908171005547047" lon="-8.365420997142792">
        <ele>295.10000000000002</ele>
        <time>2018-05-19T11:21:37Z</time>
      </trkpt>
      <trkpt lat="42.90807000361383" lon="-8.365190997719765">
        <ele>293.10000000000002</ele>
        <time>2018-05-19T11:21:43Z</time>
      </trkpt>
      <trkpt lat="42.907922985032201" lon="-8.364956974983215">
        <ele>290.80000000000001</ele>
        <time>2018-05-19T11:21:50Z</time>
      </trkpt>
      <trkpt lat="42.907328037545085" lon="-8.36412699893117">
        <ele>286</ele>
        <time>2018-05-19T11:22:15Z</time>
      </trkpt>
      <trkpt lat="42.90712402202189" lon="-8.364039994776249">
        <ele>285.39999999999998</ele>
        <time>2018-05-19T11:22:21Z</time>
      </trkpt>
      <trkpt lat="42.907054033130407" lon="-8.363953996449709">
        <ele>285.69999999999999</ele>
        <time>2018-05-19T11:22:24Z</time>
      </trkpt>
      <trkpt lat="42.906983960419893" lon="-8.363904962316155">
        <ele>285.69999999999999</ele>
        <time>2018-05-19T11:22:26Z</time>
      </trkpt>
      <trkpt lat="42.906894022598863" lon="-8.363856012001634">
        <ele>285.69999999999999</ele>
        <time>2018-05-19T11:22:29Z</time>
      </trkpt>
      <trkpt lat="42.906813975423574" lon="-8.3638059720397">
        <ele>285.69999999999999</ele>
        <time>2018-05-19T11:22:32Z</time>
      </trkpt>
      <trkpt lat="42.906713979318738" lon="-8.363757021725178">
        <ele>285.60000000000002</ele>
        <time>2018-05-19T11:22:35Z</time>
      </trkpt>
      <trkpt lat="42.906634015962481" lon="-8.363731959834695">
        <ele>285.5</ele>
        <time>2018-05-19T11:22:37Z</time>
      </trkpt>
      <trkpt lat="42.906551035121083" lon="-8.36371997371316">
        <ele>285.30000000000001</ele>
        <time>2018-05-19T11:22:40Z</time>
      </trkpt>
      <trkpt lat="42.906451039016247" lon="-8.363671023398638">
        <ele>285.30000000000001</ele>
        <time>2018-05-19T11:22:43Z</time>
      </trkpt>
      <trkpt lat="42.906364034861326" lon="-8.36363397538662">
        <ele>285.30000000000001</ele>
        <time>2018-05-19T11:22:46Z</time>
      </trkpt>
      <trkpt lat="42.906274013221264" lon="-8.363572033122182">
        <ele>285.39999999999998</ele>
        <time>2018-05-19T11:22:49Z</time>
      </trkpt>
      <trkpt lat="42.906204024329782" lon="-8.36354797706008">
        <ele>285.30000000000001</ele>
        <time>2018-05-19T11:22:51Z</time>
      </trkpt>
      <trkpt lat="42.906123977154493" lon="-8.363522998988628">
        <ele>285.30000000000001</ele>
        <time>2018-05-19T11:22:53Z</time>
      </trkpt>
      <trkpt lat="42.906014006584883" lon="-8.36346197873354">
        <ele>285.39999999999998</ele>
        <time>2018-05-19T11:22:57Z</time>
      </trkpt>
      <trkpt lat="42.905933959409595" lon="-8.363425014540553">
        <ele>285.39999999999998</ele>
        <time>2018-05-19T11:22:59Z</time>
      </trkpt>
      <trkpt lat="42.905833963304758" lon="-8.363326024264097">
        <ele>285.80000000000001</ele>
        <time>2018-05-19T11:23:03Z</time>
      </trkpt>
      <trkpt lat="42.905763974413276" lon="-8.363285036757588">
        <ele>285.89999999999998</ele>
        <time>2018-05-19T11:23:05Z</time>
      </trkpt>
      <trkpt lat="42.905693985521793" lon="-8.363236002624035">
        <ele>286</ele>
        <time>2018-05-19T11:23:07Z</time>
      </trkpt>
      <trkpt lat="42.905623996630311" lon="-8.363211024552584">
        <ele>285.89999999999998</ele>
        <time>2018-05-19T11:23:10Z</time>
      </trkpt>
      <trkpt lat="42.905530035495758" lon="-8.363173976540566">
        <ele>285.80000000000001</ele>
        <time>2018-05-19T11:23:12Z</time>
      </trkpt>
      <trkpt lat="42.90544998832047" lon="-8.363113040104508">
        <ele>285.89999999999998</ele>
        <time>2018-05-19T11:23:15Z</time>
      </trkpt>
      <trkpt lat="42.90536398999393" lon="-8.363055037334561">
        <ele>285.89999999999998</ele>
        <time>2018-05-19T11:23:18Z</time>
      </trkpt>
      <trkpt lat="42.905284026637673" lon="-8.362994017079473">
        <ele>285.80000000000001</ele>
        <time>2018-05-19T11:23:21Z</time>
      </trkpt>
      <trkpt lat="42.905203979462385" lon="-8.362943977117539">
        <ele>285.60000000000002</ele>
        <time>2018-05-19T11:23:23Z</time>
      </trkpt>
      <trkpt lat="42.905124016106129" lon="-8.362883040681481">
        <ele>285.30000000000001</ele>
        <time>2018-05-19T11:23:26Z</time>
      </trkpt>
      <trkpt lat="42.90504296310246" lon="-8.36284096352756">
        <ele>284.80000000000001</ele>
        <time>2018-05-19T11:23:29Z</time>
      </trkpt>
      <trkpt lat="42.904972974210978" lon="-8.362768040969968">
        <ele>284.30000000000001</ele>
        <time>2018-05-19T11:23:31Z</time>
      </trkpt>
      <trkpt lat="42.904880018904805" lon="-8.362701991572976">
        <ele>283.69999999999999</ele>
        <time>2018-05-19T11:23:34Z</time>
      </trkpt>
      <trkpt lat="42.904820004478097" lon="-8.36260300129652">
        <ele>283.30000000000001</ele>
        <time>2018-05-19T11:23:37Z</time>
      </trkpt>
      <trkpt lat="42.904780022799969" lon="-8.362505016848445">
        <ele>282.89999999999998</ele>
        <time>2018-05-19T11:23:40Z</time>
      </trkpt>
      <trkpt lat="42.904716990888119" lon="-8.36240996606648">
        <ele>282.39999999999998</ele>
        <time>2018-05-19T11:23:42Z</time>
      </trkpt>
      <trkpt lat="42.904726965352893" lon="-8.362298989668489">
        <ele>282.39999999999998</ele>
        <time>2018-05-19T11:23:45Z</time>
      </trkpt>
      <trkpt lat="42.904726965352893" lon="-8.362298989668489">
        <ele>282.39999999999998</ele>
        <time>2018-05-20T06:00:00Z</time>
      </trkpt>
      <trkpt lat="42.904767030850053" lon="-8.362201005220413">
        <ele>282.60000000000002</ele>
        <time>2018-05-20T06:00:02Z</time>
      </trkpt>
      <trkpt lat="42.904797038063407" lon="-8.362102014943957">
        <ele>282.80000000000001</ele>
        <time>2018-05-20T06:00:04Z</time>
      </trkpt>
      <trkpt lat="42.904846994206309" lon="-8.361987015232444">
        <ele>282.60000000000002</ele>
        <time>2018-05-20T06:00:07Z</time>
      </trkpt>
      <trkpt lat="42.904897034168243" lon="-8.361876960843802">
        <ele>282.39999999999998</ele>
        <time>2018-05-20T06:00:10Z</time>
      </trkpt>
      <trkpt lat="42.904945984482765" lon="-8.361790962517262">
        <ele>282.30000000000001</ele>
        <time>2018-05-20T06:00:12Z</time>
      </trkpt>
      <trkpt lat="42.904996024444699" lon="-8.36167998611927">
        <ele>282</ele>
        <time>2018-05-20T06:00:15Z</time>
      </trkpt>
      <trkpt lat="42.905036006122828" lon="-8.361580995842814">
        <ele>281.80000000000001</ele>
        <time>2018-05-20T06:00:18Z</time>
      </trkpt>
      <trkpt lat="42.90508596226573" lon="-8.361483011394739">
        <ele>281.60000000000002</ele>
        <time>2018-05-20T06:00:20Z</time>
      </trkpt>
      <trkpt lat="42.905145976692438" lon="-8.361408999189735">
        <ele>281.69999999999999</ele>
        <time>2018-05-20T06:00:23Z</time>
      </trkpt>
      <trkpt lat="42.905205991119146" lon="-8.361323000863195">
        <ele>281.69999999999999</ele>
        <time>2018-05-20T06:00:25Z</time>
      </trkpt>
      <trkpt lat="42.90525603108108" lon="-8.361237002536655">
        <ele>281.60000000000002</ele>
        <time>2018-05-20T06:00:28Z</time>
      </trkpt>
      <trkpt lat="42.905305987223983" lon="-8.361151004210115">
        <ele>281.69999999999999</ele>
        <time>2018-05-20T06:00:30Z</time>
      </trkpt>
      <trkpt lat="42.905375976115465" lon="-8.361064000055194">
        <ele>282</ele>
        <time>2018-05-20T06:00:33Z</time>
      </trkpt>
      <trkpt lat="42.905445965006948" lon="-8.360978001728654">
        <ele>282.30000000000001</ele>
        <time>2018-05-20T06:00:36Z</time>
      </trkpt>
      <trkpt lat="42.90553598664701" lon="-8.360880017280579">
        <ele>282.60000000000002</ele>
        <time>2018-05-20T06:00:39Z</time>
      </trkpt>
      <trkpt lat="42.905605975538492" lon="-8.360781027004123">
        <ele>282.80000000000001</ele>
        <time>2018-05-20T06:00:42Z</time>
      </trkpt>
      <trkpt lat="42.905695997178555" lon="-8.36067097261548">
        <ele>283</ele>
        <time>2018-05-20T06:00:45Z</time>
      </trkpt>
      <trkpt lat="42.905756011605263" lon="-8.360596960410476">
        <ele>283.19999999999999</ele>
        <time>2018-05-20T06:00:48Z</time>
      </trkpt>
      <trkpt lat="42.905805967748165" lon="-8.360523032024503">
        <ele>283.19999999999999</ele>
        <time>2018-05-20T06:00:50Z</time>
      </trkpt>
      <trkpt lat="42.905856007710099" lon="-8.360449019819498">
        <ele>283.30000000000001</ele>
        <time>2018-05-20T06:00:52Z</time>
      </trkpt>
      <trkpt lat="42.905935971066356" lon="-8.360363021492958">
        <ele>283.19999999999999</ele>
        <time>2018-05-20T06:00:55Z</time>
      </trkpt>
      <trkpt lat="42.906005959957838" lon="-8.360289009287953">
        <ele>283</ele>
        <time>2018-05-20T06:00:58Z</time>
      </trkpt>
      <trkpt lat="42.906086007133126" lon="-8.360214997082949">
        <ele>282.80000000000001</ele>
        <time>2018-05-20T06:01:01Z</time>
      </trkpt>
      <trkpt lat="42.906165970489383" lon="-8.36015397682786">
        <ele>282.69999999999999</ele>
        <time>2018-05-20T06:01:03Z</time>
      </trkpt>
      <trkpt lat="42.906235037371516" lon="-8.360128998756409">
        <ele>282.80000000000001</ele>
        <time>2018-05-20T06:01:06Z</time>
      </trkpt>
      <trkpt lat="42.906305026262999" lon="-8.360079964622855">
        <ele>282.80000000000001</ele>
        <time>2018-05-20T06:01:08Z</time>
      </trkpt>
      <trkpt lat="42.906384989619255" lon="-8.359993966296315">
        <ele>282.5</ele>
        <time>2018-05-20T06:01:11Z</time>
      </trkpt>
      <trkpt lat="42.906468976289034" lon="-8.359894976019859">
        <ele>282.10000000000002</ele>
        <time>2018-05-20T06:01:14Z</time>
      </trkpt>
      <trkpt lat="42.906541982665658" lon="-8.359817024320364">
        <ele>281.89999999999998</ele>
        <time>2018-05-20T06:01:17Z</time>
      </trkpt>
      <trkpt lat="42.90663200430572" lon="-8.359743012115359">
        <ele>281.80000000000001</ele>
        <time>2018-05-20T06:01:20Z</time>
      </trkpt>
      <trkpt lat="42.906711967661977" lon="-8.359657013788819">
        <ele>281.60000000000002</ele>
        <time>2018-05-20T06:01:23Z</time>
      </trkpt>
      <trkpt lat="42.906782040372491" lon="-8.359571015462279">
        <ele>281.30000000000001</ele>
        <time>2018-05-20T06:01:26Z</time>
      </trkpt>
      <trkpt lat="42.906849011778831" lon="-8.359521981328726">
        <ele>281.10000000000002</ele>
        <time>2018-05-20T06:01:28Z</time>
      </trkpt>
      <trkpt lat="42.90690902620554" lon="-8.359447969123721">
        <ele>280.5</ele>
        <time>2018-05-20T06:01:30Z</time>
      </trkpt>
      <trkpt lat="42.906979015097022" lon="-8.359386026859283">
        <ele>280.10000000000002</ele>
        <time>2018-05-20T06:01:33Z</time>
      </trkpt>
      <trkpt lat="42.907049003988504" lon="-8.359313020482659">
        <ele>279.5</ele>
        <time>2018-05-20T06:01:36Z</time>
      </trkpt>
      <trkpt lat="42.907118992879987" lon="-8.35927102714777">
        <ele>279.5</ele>
        <time>2018-05-20T06:01:38Z</time>
      </trkpt>
      <trkpt lat="42.907179007306695" lon="-8.359210006892681">
        <ele>279.19999999999999</ele>
        <time>2018-05-20T06:01:40Z</time>
      </trkpt>
      <trkpt lat="42.907245978713036" lon="-8.359144041314721">
        <ele>278.89999999999998</ele>
        <time>2018-05-20T06:01:42Z</time>
      </trkpt>
      <trkpt lat="42.907288977876306" lon="-8.359070029109716">
        <ele>278.19999999999999</ele>
        <time>2018-05-20T06:01:45Z</time>
      </trkpt>
      <trkpt lat="42.907402971759439" lon="-8.3589500002563">
        <ele>277.60000000000002</ele>
        <time>2018-05-20T06:01:49Z</time>
      </trkpt>
      <trkpt lat="42.907432978972793" lon="-8.359011020511389">
        <ele>278.80000000000001</ele>
        <time>2018-05-20T06:01:50Z</time>
      </trkpt>
      <trkpt lat="42.907513026148081" lon="-8.359053013846278">
        <ele>280.39999999999998</ele>
        <time>2018-05-20T06:01:53Z</time>
      </trkpt>
      <trkpt lat="42.90755401365459" lon="-8.359027029946446">
        <ele>280.39999999999998</ele>
        <time>2018-05-20T06:01:54Z</time>
      </trkpt>
      <trkpt lat="42.907721986994147" lon="-8.35897296667099">
        <ele>281.39999999999998</ele>
        <time>2018-05-20T06:01:59Z</time>
      </trkpt>
      <trkpt lat="42.907923990860581" lon="-8.358890991657972">
        <ele>282.19999999999999</ele>
        <time>2018-05-20T06:02:06Z</time>
      </trkpt>
      <trkpt lat="42.908088024705648" lon="-8.358822008594871">
        <ele>281</ele>
        <time>2018-05-20T06:02:11Z</time>
      </trkpt>
      <trkpt lat="42.908417014405131" lon="-8.358711032196879">
        <ele>278.69999999999999</ele>
        <time>2018-05-20T06:02:21Z</time>
      </trkpt>
      <trkpt lat="42.908794032409787" lon="-8.358616987243295">
        <ele>276.69999999999999</ele>
        <time>2018-05-20T06:02:32Z</time>
      </trkpt>
      <trkpt lat="42.909074993804097" lon="-8.358530988916755">
        <ele>274.30000000000001</ele>
        <time>2018-05-20T06:02:41Z</time>
      </trkpt>
      <trkpt lat="42.909350004047155" lon="-8.358448008075357">
        <ele>272.19999999999999</ele>
        <time>2018-05-20T06:02:49Z</time>
      </trkpt>
      <trkpt lat="42.909700032323599" lon="-8.358337031677365">
        <ele>269.69999999999999</ele>
        <time>2018-05-20T06:03:00Z</time>
      </trkpt>
      <trkpt lat="42.909980993717909" lon="-8.358266036957502">
        <ele>268</ele>
        <time>2018-05-20T06:03:08Z</time>
      </trkpt>
      <trkpt lat="42.910228008404374" lon="-8.358156988397241">
        <ele>265.80000000000001</ele>
        <time>2018-05-20T06:03:16Z</time>
      </trkpt>
      <trkpt lat="42.910511987283826" lon="-8.358065038919449">
        <ele>264.5</ele>
        <time>2018-05-20T06:03:25Z</time>
      </trkpt>
      <trkpt lat="42.910511987283826" lon="-8.358056992292404">
        <ele>264.39999999999998</ele>
        <time>2018-05-20T06:03:25Z</time>
      </trkpt>
      <trkpt lat="42.910733018070459" lon="-8.3579829800874">
        <ele>265</ele>
        <time>2018-05-20T06:03:31Z</time>
      </trkpt>
      <trkpt lat="42.910967040807009" lon="-8.357876027002931">
        <ele>265.60000000000002</ele>
        <time>2018-05-20T06:03:39Z</time>
      </trkpt>
      <trkpt lat="42.911177007481456" lon="-8.357766978442669">
        <ele>266.10000000000002</ele>
        <time>2018-05-20T06:03:45Z</time>
      </trkpt>
      <trkpt lat="42.911393009126186" lon="-8.357636975124478">
        <ele>265.39999999999998</ele>
        <time>2018-05-20T06:03:52Z</time>
      </trkpt>
      <trkpt lat="42.911691991612315" lon="-8.357538990676403">
        <ele>264.80000000000001</ele>
        <time>2018-05-20T06:04:02Z</time>
      </trkpt>
      <trkpt lat="42.911698026582599" lon="-8.357538990676403">
        <ele>264.80000000000001</ele>
        <time>2018-05-20T06:04:02Z</time>
      </trkpt>
      <trkpt lat="42.911844961345196" lon="-8.357496997341514">
        <ele>264.69999999999999</ele>
        <time>2018-05-20T06:04:06Z</time>
      </trkpt>
      <trkpt lat="42.911974964663386" lon="-8.357479982078075">
        <ele>264.80000000000001</ele>
        <time>2018-05-20T06:04:10Z</time>
      </trkpt>
      <trkpt lat="42.912126006558537" lon="-8.357432037591934">
        <ele>264.39999999999998</ele>
        <time>2018-05-20T06:04:15Z</time>
      </trkpt>
      <trkpt lat="42.912237988784909" lon="-8.357403036206961">
        <ele>263.69999999999999</ele>
        <time>2018-05-20T06:04:18Z</time>
      </trkpt>
      <trkpt lat="42.91226003319025" lon="-8.357367999851704">
        <ele>263.39999999999998</ele>
        <time>2018-05-20T06:04:19Z</time>
      </trkpt>
      <trkpt lat="42.912284005433321" lon="-8.357328018173575">
        <ele>263.10000000000002</ele>
        <time>2018-05-20T06:04:20Z</time>
      </trkpt>
      <trkpt lat="42.912304038181901" lon="-8.357299016788602">
        <ele>262.80000000000001</ele>
        <time>2018-05-20T06:04:21Z</time>
      </trkpt>
      <trkpt lat="42.912321975454688" lon="-8.357262974604964">
        <ele>262.60000000000002</ele>
        <time>2018-05-20T06:04:22Z</time>
      </trkpt>
      <trkpt lat="42.912343014031649" lon="-8.357225004583597">
        <ele>262.30000000000001</ele>
        <time>2018-05-20T06:04:23Z</time>
      </trkpt>
      <trkpt lat="42.912365980446339" lon="-8.35718996822834">
        <ele>262.10000000000002</ele>
        <time>2018-05-20T06:04:24Z</time>
      </trkpt>
      <trkpt lat="42.912381989881396" lon="-8.35714596323669">
        <ele>261.80000000000001</ele>
        <time>2018-05-20T06:04:25Z</time>
      </trkpt>
      <trkpt lat="42.912395987659693" lon="-8.357091983780265">
        <ele>261.5</ele>
        <time>2018-05-20T06:04:26Z</time>
      </trkpt>
      <trkpt lat="42.912405040115118" lon="-8.357041021808982">
        <ele>261.19999999999999</ele>
        <time>2018-05-20T06:04:27Z</time>
      </trkpt>
      <trkpt lat="42.912414008751512" lon="-8.35697203874588">
        <ele>260.69999999999999</ele>
        <time>2018-05-20T06:04:29Z</time>
      </trkpt>
      <trkpt lat="42.912423983216286" lon="-8.35688503459096">
        <ele>260.10000000000002</ele>
        <time>2018-05-20T06:04:31Z</time>
      </trkpt>
      <trkpt lat="42.912442004308105" lon="-8.356815967708826">
        <ele>259.69999999999999</ele>
        <time>2018-05-20T06:04:32Z</time>
      </trkpt>
      <trkpt lat="42.912452984601259" lon="-8.356755031272769">
        <ele>259.30000000000001</ele>
        <time>2018-05-20T06:04:34Z</time>
      </trkpt>
      <trkpt lat="42.912462959066033" lon="-8.356698034331203">
        <ele>259</ele>
        <time>2018-05-20T06:04:35Z</time>
      </trkpt>
      <trkpt lat="42.912472011521459" lon="-8.356633996590972">
        <ele>258.60000000000002</ele>
        <time>2018-05-20T06:04:36Z</time>
      </trkpt>
      <trkpt lat="42.912472011521459" lon="-8.356539029628038">
        <ele>258</ele>
        <time>2018-05-20T06:04:39Z</time>
      </trkpt>
      <trkpt lat="42.912472011521459" lon="-8.356344988569617">
        <ele>256.89999999999998</ele>
        <time>2018-05-20T06:04:43Z</time>
      </trkpt>
      <trkpt lat="42.912472011521459" lon="-8.356094034388661">
        <ele>256.69999999999999</ele>
        <time>2018-05-20T06:04:48Z</time>
      </trkpt>
      <trkpt lat="42.912480980157852" lon="-8.3558139950037">
        <ele>257.19999999999999</ele>
        <time>2018-05-20T06:04:54Z</time>
      </trkpt>
      <trkpt lat="42.912488020956516" lon="-8.355639986693859">
        <ele>257.60000000000002</ele>
        <time>2018-05-20T06:04:58Z</time>
      </trkpt>
      <trkpt lat="42.912488020956516" lon="-8.355634035542607">
        <ele>257.60000000000002</ele>
        <time>2018-05-20T06:04:58Z</time>
      </trkpt>
      <trkpt lat="42.91249698959291" lon="-8.355580978095532">
        <ele>257.69999999999999</ele>
        <time>2018-05-20T06:04:59Z</time>
      </trkpt>
      <trkpt lat="42.912502018734813" lon="-8.355522975325584">
        <ele>257.80000000000001</ele>
        <time>2018-05-20T06:05:01Z</time>
      </trkpt>
      <trkpt lat="42.912505958229303" lon="-8.355463966727257">
        <ele>257.89999999999998</ele>
        <time>2018-05-20T06:05:02Z</time>
      </trkpt>
      <trkpt lat="42.912510987371206" lon="-8.355411998927593">
        <ele>258.10000000000002</ele>
        <time>2018-05-20T06:05:03Z</time>
      </trkpt>
      <trkpt lat="42.912520039826632" lon="-8.355355001986027">
        <ele>258.5</ele>
        <time>2018-05-20T06:05:04Z</time>
      </trkpt>
      <trkpt lat="42.912530014291406" lon="-8.355303034186363">
        <ele>258.89999999999998</ele>
        <time>2018-05-20T06:05:05Z</time>
      </trkpt>
      <trkpt lat="42.912545017898083" lon="-8.355262968689203">
        <ele>259.19999999999999</ele>
        <time>2018-05-20T06:05:06Z</time>
      </trkpt>
      <trkpt lat="42.912595979869366" lon="-8.355079991742969">
        <ele>260.5</ele>
        <time>2018-05-20T06:05:11Z</time>
      </trkpt>
      <trkpt lat="42.912623975425959" lon="-8.354875976219773">
        <ele>261.80000000000001</ele>
        <time>2018-05-20T06:05:15Z</time>
      </trkpt>
      <trkpt lat="42.912703016772866" lon="-8.354628961533308">
        <ele>263.19999999999999</ele>
        <time>2018-05-20T06:05:21Z</time>
      </trkpt>
      <trkpt lat="42.91277501732111" lon="-8.354387981817126">
        <ele>264.69999999999999</ele>
        <time>2018-05-20T06:05:27Z</time>
      </trkpt>
      <trkpt lat="42.912817010655999" lon="-8.354207016527653">
        <ele>265.80000000000001</ele>
        <time>2018-05-20T06:05:31Z</time>
      </trkpt>
      <trkpt lat="42.912919018417597" lon="-8.353908034041524">
        <ele>267.89999999999998</ele>
        <time>2018-05-20T06:05:38Z</time>
      </trkpt>
      <trkpt lat="42.912989007309079" lon="-8.353721033781767">
        <ele>268.80000000000001</ele>
        <time>2018-05-20T06:05:43Z</time>
      </trkpt>
      <trkpt lat="42.912997975945473" lon="-8.353721033781767">
        <ele>268.80000000000001</ele>
        <time>2018-05-20T06:05:43Z</time>
      </trkpt>
      <trkpt lat="42.913025971502066" lon="-8.353678034618497">
        <ele>268.80000000000001</ele>
        <time>2018-05-20T06:05:44Z</time>
      </trkpt>
      <trkpt lat="42.913047010079026" lon="-8.353636041283608">
        <ele>268.80000000000001</ele>
        <time>2018-05-20T06:05:45Z</time>
      </trkpt>
      <trkpt lat="42.913069976493716" lon="-8.353590024635196">
        <ele>268.89999999999998</ele>
        <time>2018-05-20T06:05:46Z</time>
      </trkpt>
      <trkpt lat="42.913103001192212" lon="-8.353544007986784">
        <ele>268.89999999999998</ele>
        <time>2018-05-20T06:05:48Z</time>
      </trkpt>
      <trkpt lat="42.913128985092044" lon="-8.353516012430191">
        <ele>268.89999999999998</ele>
        <time>2018-05-20T06:05:49Z</time>
      </trkpt>
      <trkpt lat="42.91324800811708" lon="-8.35338500328362">
        <ele>268.89999999999998</ele>
        <time>2018-05-20T06:05:53Z</time>
      </trkpt>
      <trkpt lat="42.913395026698709" lon="-8.353219963610172">
        <ele>268.89999999999998</ele>
        <time>2018-05-20T06:05:59Z</time>
      </trkpt>
      <trkpt lat="42.91352896951139" lon="-8.353073028847575">
        <ele>269</ele>
        <time>2018-05-20T06:06:04Z</time>
      </trkpt>
      <trkpt lat="42.913626031950116" lon="-8.35293497890234">
        <ele>269.19999999999999</ele>
        <time>2018-05-20T06:06:08Z</time>
      </trkpt>
      <trkpt lat="42.913641035556793" lon="-8.352905977517366">
        <ele>269.30000000000001</ele>
        <time>2018-05-20T06:06:09Z</time>
      </trkpt>
      <trkpt lat="42.913673976436257" lon="-8.352888962253928">
        <ele>269.30000000000001</ele>
        <time>2018-05-20T06:06:10Z</time>
      </trkpt>
      <trkpt lat="42.913697026669979" lon="-8.352859960868955">
        <ele>269.30000000000001</ele>
        <time>2018-05-20T06:06:11Z</time>
      </trkpt>
      <trkpt lat="42.913705995306373" lon="-8.352802963927388">
        <ele>269.5</ele>
        <time>2018-05-20T06:06:12Z</time>
      </trkpt>
      <trkpt lat="42.913733990862966" lon="-8.352755019441247">
        <ele>269.60000000000002</ele>
        <time>2018-05-20T06:06:14Z</time>
      </trkpt>
      <trkpt lat="42.913795011118054" lon="-8.352580005303025">
        <ele>270.39999999999998</ele>
        <time>2018-05-20T06:06:18Z</time>
      </trkpt>
      <trkpt lat="42.91387103497982" lon="-8.352368026971817">
        <ele>271.30000000000001</ele>
        <time>2018-05-20T06:06:23Z</time>
      </trkpt>
      <trkpt lat="42.913961978629231" lon="-8.352143978700042">
        <ele>272.30000000000001</ele>
        <time>2018-05-20T06:06:28Z</time>
      </trkpt>
      <trkpt lat="42.913961978629231" lon="-8.352136015892029">
        <ele>272.30000000000001</ele>
        <time>2018-05-20T06:06:29Z</time>
      </trkpt>
      <trkpt lat="42.91408896446228" lon="-8.351761009544134">
        <ele>273.19999999999999</ele>
        <time>2018-05-20T06:06:38Z</time>
      </trkpt>
      <trkpt lat="42.914168005809188" lon="-8.351555988192558">
        <ele>273.60000000000002</ele>
        <time>2018-05-20T06:06:43Z</time>
      </trkpt>
      <trkpt lat="42.914247969165444" lon="-8.351333029568195">
        <ele>274.10000000000002</ele>
        <time>2018-05-20T06:06:48Z</time>
      </trkpt>
      <trkpt lat="42.914247969165444" lon="-8.351314002647996">
        <ele>274.10000000000002</ele>
        <time>2018-05-20T06:06:48Z</time>
      </trkpt>
      <trkpt lat="42.91432399302721" lon="-8.351103030145168">
        <ele>274.39999999999998</ele>
        <time>2018-05-20T06:06:53Z</time>
      </trkpt>
      <trkpt lat="42.914435975253582" lon="-8.350779991596937">
        <ele>274.60000000000002</ele>
        <time>2018-05-20T06:07:01Z</time>
      </trkpt>
      <trkpt lat="42.914486015215516" lon="-8.35050598718226">
        <ele>274.80000000000001</ele>
        <time>2018-05-20T06:07:07Z</time>
      </trkpt>
      <trkpt lat="42.91455801576376" lon="-8.350336002185941">
        <ele>275.39999999999998</ele>
        <time>2018-05-20T06:07:12Z</time>
      </trkpt>
      <trkpt lat="42.914643008261919" lon="-8.350165011361241">
        <ele>276.69999999999999</ele>
        <time>2018-05-20T06:07:16Z</time>
      </trkpt>
      <trkpt lat="42.914712997153401" lon="-8.349988991394639">
        <ele>277.89999999999998</ele>
        <time>2018-05-20T06:07:20Z</time>
      </trkpt>
      <trkpt lat="42.914712997153401" lon="-8.349983040243387">
        <ele>277.89999999999998</ele>
        <time>2018-05-20T06:07:21Z</time>
      </trkpt>
      <trkpt lat="42.914721965789795" lon="-8.349931994453073">
        <ele>278.19999999999999</ele>
        <time>2018-05-20T06:07:22Z</time>
      </trkpt>
      <trkpt lat="42.914729006588459" lon="-8.3498839661479">
        <ele>278.5</ele>
        <time>2018-05-20T06:07:23Z</time>
      </trkpt>
      <trkpt lat="42.914729006588459" lon="-8.349814983084798">
        <ele>279</ele>
        <time>2018-05-20T06:07:24Z</time>
      </trkpt>
      <trkpt lat="42.914729006588459" lon="-8.349761003628373">
        <ele>279.30000000000001</ele>
        <time>2018-05-20T06:07:25Z</time>
      </trkpt>
      <trkpt lat="42.914729006588459" lon="-8.34970903582871">
        <ele>279.60000000000002</ele>
        <time>2018-05-20T06:07:27Z</time>
      </trkpt>
      <trkpt lat="42.914729006588459" lon="-8.349653966724873">
        <ele>279.89999999999998</ele>
        <time>2018-05-20T06:07:28Z</time>
      </trkpt>
      <trkpt lat="42.914719032123685" lon="-8.349595963954926">
        <ele>280.19999999999999</ele>
        <time>2018-05-20T06:07:29Z</time>
      </trkpt>
      <trkpt lat="42.914705034345388" lon="-8.349538967013359">
        <ele>280.89999999999998</ele>
        <time>2018-05-20T06:07:30Z</time>
      </trkpt>
      <trkpt lat="42.91468701325357" lon="-8.349480964243412">
        <ele>281.60000000000002</ele>
        <time>2018-05-20T06:07:32Z</time>
      </trkpt>
      <trkpt lat="42.914656000211835" lon="-8.349436959251761">
        <ele>282.10000000000002</ele>
        <time>2018-05-20T06:07:33Z</time>
      </trkpt>
      <trkpt lat="42.914628004655242" lon="-8.349391026422381">
        <ele>282.69999999999999</ele>
        <time>2018-05-20T06:07:34Z</time>
      </trkpt>
      <trkpt lat="42.914608977735043" lon="-8.34934500977397">
        <ele>283.19999999999999</ele>
        <time>2018-05-20T06:07:36Z</time>
      </trkpt>
      <trkpt lat="42.914576036855578" lon="-8.349298993125558">
        <ele>283.69999999999999</ele>
        <time>2018-05-20T06:07:37Z</time>
      </trkpt>
      <trkpt lat="42.914544017985463" lon="-8.349276026710868">
        <ele>283.80000000000001</ele>
        <time>2018-05-20T06:07:38Z</time>
      </trkpt>
      <trkpt lat="42.914510993286967" lon="-8.349248031154275">
        <ele>283.89999999999998</ele>
        <time>2018-05-20T06:07:39Z</time>
      </trkpt>
      <trkpt lat="42.914482997730374" lon="-8.349202014505863">
        <ele>284.19999999999999</ele>
        <time>2018-05-20T06:07:40Z</time>
      </trkpt>
      <trkpt lat="42.914449973031878" lon="-8.34917301312089">
        <ele>284.30000000000001</ele>
        <time>2018-05-20T06:07:42Z</time>
      </trkpt>
      <trkpt lat="42.914421977475286" lon="-8.349137976765633">
        <ele>284.5</ele>
        <time>2018-05-20T06:07:43Z</time>
      </trkpt>
      <trkpt lat="42.914413008838892" lon="-8.349080979824066">
        <ele>285.10000000000002</ele>
        <time>2018-05-20T06:07:44Z</time>
      </trkpt>
      <trkpt lat="42.914399011060596" lon="-8.349019959568977">
        <ele>285.69999999999999</ele>
        <time>2018-05-20T06:07:45Z</time>
      </trkpt>
      <trkpt lat="42.914399011060596" lon="-8.348962040618062">
        <ele>286.30000000000001</ele>
        <time>2018-05-20T06:07:47Z</time>
      </trkpt>
      <trkpt lat="42.914399011060596" lon="-8.348888028413057">
        <ele>287.19999999999999</ele>
        <time>2018-05-20T06:07:48Z</time>
      </trkpt>
      <trkpt lat="42.914404040202498" lon="-8.348835976794362">
        <ele>287.80000000000001</ele>
        <time>2018-05-20T06:07:49Z</time>
      </trkpt>
      <trkpt lat="42.914404040202498" lon="-8.348777974024415">
        <ele>288.5</ele>
        <time>2018-05-20T06:07:51Z</time>
      </trkpt>
      <trkpt lat="42.914413008838892" lon="-8.348727012053132">
        <ele>289.10000000000002</ele>
        <time>2018-05-20T06:07:52Z</time>
      </trkpt>
      <trkpt lat="42.91442901827395" lon="-8.348666997626424">
        <ele>289.60000000000002</ele>
        <time>2018-05-20T06:07:53Z</time>
      </trkpt>
      <trkpt lat="42.914479980245233" lon="-8.348503969609737">
        <ele>291.19999999999999</ele>
        <time>2018-05-20T06:07:57Z</time>
      </trkpt>
      <trkpt lat="42.914479980245233" lon="-8.348497012630105">
        <ele>291.19999999999999</ele>
        <time>2018-05-20T06:07:57Z</time>
      </trkpt>
      <trkpt lat="42.91453798301518" lon="-8.348280005156994">
        <ele>293.19999999999999</ele>
        <time>2018-05-20T06:08:02Z</time>
      </trkpt>
      <trkpt lat="42.914579976350069" lon="-8.348125023767352">
        <ele>294.69999999999999</ele>
        <time>2018-05-20T06:08:06Z</time>
      </trkpt>
      <trkpt lat="42.914628004655242" lon="-8.34794900380075">
        <ele>296.30000000000001</ele>
        <time>2018-05-20T06:08:10Z</time>
      </trkpt>
      <trkpt lat="42.914706040173769" lon="-8.347731996327639">
        <ele>297.39999999999998</ele>
        <time>2018-05-20T06:08:15Z</time>
      </trkpt>
      <trkpt lat="42.914749039337039" lon="-8.347587995231152">
        <ele>298</ele>
        <time>2018-05-20T06:08:19Z</time>
      </trkpt>
      <trkpt lat="42.91475398465991" lon="-8.347570979967713">
        <ele>298.10000000000002</ele>
        <time>2018-05-20T06:08:19Z</time>
      </trkpt>
      <trkpt lat="42.914781980216503" lon="-8.34751901216805">
        <ele>298.60000000000002</ele>
        <time>2018-05-20T06:08:20Z</time>
      </trkpt>
      <trkpt lat="42.914815004914999" lon="-8.347491016611457">
        <ele>299.19999999999999</ele>
        <time>2018-05-20T06:08:22Z</time>
      </trkpt>
      <trkpt lat="42.914847023785114" lon="-8.347450029104948">
        <ele>299.80000000000001</ele>
        <time>2018-05-20T06:08:23Z</time>
      </trkpt>
      <trkpt lat="42.914883987978101" lon="-8.347409963607788">
        <ele>300.60000000000002</ele>
        <time>2018-05-20T06:08:24Z</time>
      </trkpt>
      <trkpt lat="42.914952971041203" lon="-8.347288006916642">
        <ele>302.30000000000001</ele>
        <time>2018-05-20T06:08:28Z</time>
      </trkpt>
      <trkpt lat="42.915014997124672" lon="-8.347164960578084">
        <ele>304</ele>
        <time>2018-05-20T06:08:31Z</time>
      </trkpt>
      <trkpt lat="42.915078029036522" lon="-8.347066976130009">
        <ele>305.80000000000001</ele>
        <time>2018-05-20T06:08:34Z</time>
      </trkpt>
      <trkpt lat="42.915078029036522" lon="-8.347059013321996">
        <ele>305.80000000000001</ele>
        <time>2018-05-20T06:08:34Z</time>
      </trkpt>
      <trkpt lat="42.915151035413146" lon="-8.346948036924005">
        <ele>307.19999999999999</ele>
        <time>2018-05-20T06:08:37Z</time>
      </trkpt>
      <trkpt lat="42.915210966020823" lon="-8.346823984757066">
        <ele>308.10000000000002</ele>
        <time>2018-05-20T06:08:40Z</time>
      </trkpt>
      <trkpt lat="42.915281038731337" lon="-8.346741003915668">
        <ele>309.39999999999998</ele>
        <time>2018-05-20T06:08:43Z</time>
      </trkpt>
      <trkpt lat="42.915400983765721" lon="-8.3465959969908">
        <ele>311.30000000000001</ele>
        <time>2018-05-20T06:08:48Z</time>
      </trkpt>
      <trkpt lat="42.915491005405784" lon="-8.346478985622525">
        <ele>311.19999999999999</ele>
        <time>2018-05-20T06:08:52Z</time>
      </trkpt>
      <trkpt lat="42.915496034547687" lon="-8.346461970359087">
        <ele>311.10000000000002</ele>
        <time>2018-05-20T06:08:52Z</time>
      </trkpt>
      <trkpt lat="42.91552403010428" lon="-8.346427017822862">
        <ele>311</ele>
        <time>2018-05-20T06:08:53Z</time>
      </trkpt>
      <trkpt lat="42.915542973205447" lon="-8.346392987295985">
        <ele>310.89999999999998</ele>
        <time>2018-05-20T06:08:54Z</time>
      </trkpt>
      <trkpt lat="42.915566023439169" lon="-8.346353005617857">
        <ele>310.89999999999998</ele>
        <time>2018-05-20T06:08:55Z</time>
      </trkpt>
      <trkpt lat="42.915588989853859" lon="-8.346312018111348">
        <ele>310.80000000000001</ele>
        <time>2018-05-20T06:08:56Z</time>
      </trkpt>
      <trkpt lat="42.91561296209693" lon="-8.346275975927711">
        <ele>310.80000000000001</ele>
        <time>2018-05-20T06:08:57Z</time>
      </trkpt>
      <trkpt lat="42.915636012330651" lon="-8.346235994249582">
        <ele>310.60000000000002</ele>
        <time>2018-05-20T06:08:59Z</time>
      </trkpt>
      <trkpt lat="42.915650010108948" lon="-8.346189977601171">
        <ele>310.19999999999999</ele>
        <time>2018-05-20T06:09:00Z</time>
      </trkpt>
      <trkpt lat="42.915669037029147" lon="-8.346143960952759">
        <ele>309.80000000000001</ele>
        <time>2018-05-20T06:09:01Z</time>
      </trkpt>
      <trkpt lat="42.915683034807444" lon="-8.346098028123379">
        <ele>309.39999999999998</ele>
        <time>2018-05-20T06:09:02Z</time>
      </trkpt>
      <trkpt lat="42.915711030364037" lon="-8.346052011474967">
        <ele>309.10000000000002</ele>
        <time>2018-05-20T06:09:03Z</time>
      </trkpt>
      <trkpt lat="42.915733996778727" lon="-8.346005994826555">
        <ele>308.80000000000001</ele>
        <time>2018-05-20T06:09:04Z</time>
      </trkpt>
      <trkpt lat="42.91576199233532" lon="-8.345966013148427">
        <ele>308.5</ele>
        <time>2018-05-20T06:09:06Z</time>
      </trkpt>
      <trkpt lat="42.915789987891912" lon="-8.345926031470299">
        <ele>308.30000000000001</ele>
        <time>2018-05-20T06:09:07Z</time>
      </trkpt>
      <trkpt lat="42.915809014812112" lon="-8.345873979851604">
        <ele>308</ele>
        <time>2018-05-20T06:09:08Z</time>
      </trkpt>
      <trkpt lat="42.915831981226802" lon="-8.345833998173475">
        <ele>307.69999999999999</ele>
        <time>2018-05-20T06:09:09Z</time>
      </trkpt>
      <trkpt lat="42.915846984833479" lon="-8.345792004838586">
        <ele>307.5</ele>
        <time>2018-05-20T06:09:10Z</time>
      </trkpt>
      <trkpt lat="42.915874980390072" lon="-8.345751017332077">
        <ele>307.30000000000001</ele>
        <time>2018-05-20T06:09:11Z</time>
      </trkpt>
      <trkpt lat="42.915904987603426" lon="-8.345694020390511">
        <ele>307</ele>
        <time>2018-05-20T06:09:13Z</time>
      </trkpt>
      <trkpt lat="42.915949998423457" lon="-8.345568962395191">
        <ele>306.39999999999998</ele>
        <time>2018-05-20T06:09:16Z</time>
      </trkpt>
      <trkpt lat="42.915988974273205" lon="-8.345455974340439">
        <ele>305.80000000000001</ele>
        <time>2018-05-20T06:09:19Z</time>
      </trkpt>
      <trkpt lat="42.915995009243488" lon="-8.345448011532426">
        <ele>305.80000000000001</ele>
        <time>2018-05-20T06:09:19Z</time>
      </trkpt>
      <trkpt lat="42.916058041155338" lon="-8.345266040414572">
        <ele>307.60000000000002</ele>
        <time>2018-05-20T06:09:23Z</time>
      </trkpt>
      <trkpt lat="42.916067009791732" lon="-8.345247013494372">
        <ele>307.89999999999998</ele>
        <time>2018-05-20T06:09:24Z</time>
      </trkpt>
      <trkpt lat="42.916097017005086" lon="-8.345132013782859">
        <ele>309.39999999999998</ele>
        <time>2018-05-20T06:09:26Z</time>
      </trkpt>
      <trkpt lat="42.916134987026453" lon="-8.345054984092712">
        <ele>310.60000000000002</ele>
        <time>2018-05-20T06:09:28Z</time>
      </trkpt>
      <trkpt lat="42.916218973696232" lon="-8.344804029911757">
        <ele>314.19999999999999</ele>
        <time>2018-05-20T06:09:34Z</time>
      </trkpt>
      <trkpt lat="42.916280999779701" lon="-8.344642007723451">
        <ele>316.39999999999998</ele>
        <time>2018-05-20T06:09:39Z</time>
      </trkpt>
      <trkpt lat="42.916294997557998" lon="-8.344608983024955">
        <ele>316.69999999999999</ele>
        <time>2018-05-20T06:09:39Z</time>
      </trkpt>
      <trkpt lat="42.916308995336294" lon="-8.344550980255008">
        <ele>317.39999999999998</ele>
        <time>2018-05-20T06:09:41Z</time>
      </trkpt>
      <trkpt lat="42.916328022256494" lon="-8.344504963606596">
        <ele>317.89999999999998</ele>
        <time>2018-05-20T06:09:42Z</time>
      </trkpt>
      <trkpt lat="42.916336990892887" lon="-8.344459030777216">
        <ele>318.39999999999998</ele>
        <time>2018-05-20T06:09:43Z</time>
      </trkpt>
      <trkpt lat="42.91634202003479" lon="-8.344407984986901">
        <ele>319</ele>
        <time>2018-05-20T06:09:44Z</time>
      </trkpt>
      <trkpt lat="42.916346965357661" lon="-8.344345036894083">
        <ele>319.69999999999999</ele>
        <time>2018-05-20T06:09:45Z</time>
      </trkpt>
      <trkpt lat="42.916350988671184" lon="-8.344280999153853">
        <ele>320.39999999999998</ele>
        <time>2018-05-20T06:09:47Z</time>
      </trkpt>
      <trkpt lat="42.916350988671184" lon="-8.344217967242003">
        <ele>321.10000000000002</ele>
        <time>2018-05-20T06:09:48Z</time>
      </trkpt>
      <trkpt lat="42.916350988671184" lon="-8.344160970300436">
        <ele>321.69999999999999</ele>
        <time>2018-05-20T06:09:49Z</time>
      </trkpt>
      <trkpt lat="42.91636498644948" lon="-8.344102967530489">
        <ele>322.30000000000001</ele>
        <time>2018-05-20T06:09:51Z</time>
      </trkpt>
      <trkpt lat="42.916374960914254" lon="-8.344062985852361">
        <ele>322.69999999999999</ele>
        <time>2018-05-20T06:09:52Z</time>
      </trkpt>
      <trkpt lat="42.916398011147976" lon="-8.344023004174233">
        <ele>323</ele>
        <time>2018-05-20T06:09:53Z</time>
      </trkpt>
      <trkpt lat="42.916426006704569" lon="-8.343986961990595">
        <ele>323.19999999999999</ele>
        <time>2018-05-20T06:09:54Z</time>
      </trkpt>
      <trkpt lat="42.916454002261162" lon="-8.343945974484086">
        <ele>323.5</ele>
        <time>2018-05-20T06:09:55Z</time>
      </trkpt>
      <trkpt lat="42.916481997817755" lon="-8.343917978927493">
        <ele>323.60000000000002</ele>
        <time>2018-05-20T06:09:56Z</time>
      </trkpt>
      <trkpt lat="42.916500018909574" lon="-8.343871962279081">
        <ele>324</ele>
        <time>2018-05-20T06:09:57Z</time>
      </trkpt>
      <trkpt lat="42.916528014466166" lon="-8.343837009742856">
        <ele>324.19999999999999</ele>
        <time>2018-05-20T06:09:58Z</time>
      </trkpt>
      <trkpt lat="42.916542012244463" lon="-8.343793004751205">
        <ele>324.5</ele>
        <time>2018-05-20T06:09:59Z</time>
      </trkpt>
      <trkpt lat="42.916542012244463" lon="-8.343733996152878">
        <ele>325</ele>
        <time>2018-05-20T06:10:01Z</time>
      </trkpt>
      <trkpt lat="42.916542012244463" lon="-8.343669958412647">
        <ele>325.5</ele>
        <time>2018-05-20T06:10:02Z</time>
      </trkpt>
      <trkpt lat="42.916537988930941" lon="-8.343618996441364">
        <ele>325.89999999999998</ele>
        <time>2018-05-20T06:10:03Z</time>
      </trkpt>
      <trkpt lat="42.916537988930941" lon="-8.343560993671417">
        <ele>326.30000000000001</ele>
        <time>2018-05-20T06:10:05Z</time>
      </trkpt>
      <trkpt lat="42.916537988930941" lon="-8.343497961759567">
        <ele>326.80000000000001</ele>
        <time>2018-05-20T06:10:06Z</time>
      </trkpt>
      <trkpt lat="42.916547041386366" lon="-8.343452028930187">
        <ele>327.10000000000002</ele>
        <time>2018-05-20T06:10:07Z</time>
      </trkpt>
      <trkpt lat="42.916556010022759" lon="-8.343399977311492">
        <ele>327.39999999999998</ele>
        <time>2018-05-20T06:10:08Z</time>
      </trkpt>
      <trkpt lat="42.91657998226583" lon="-8.343369970098138">
        <ele>327.60000000000002</ele>
        <time>2018-05-20T06:10:09Z</time>
      </trkpt>
      <trkpt lat="42.916614012792706" lon="-8.343347003683448">
        <ele>327.69999999999999</ele>
        <time>2018-05-20T06:10:10Z</time>
      </trkpt>
      <trkpt lat="42.916642008349299" lon="-8.343324037268758">
        <ele>327.89999999999998</ele>
        <time>2018-05-20T06:10:11Z</time>
      </trkpt>
      <trkpt lat="42.916676038876176" lon="-8.343311967328191">
        <ele>327.89999999999998</ele>
        <time>2018-05-20T06:10:12Z</time>
      </trkpt>
      <trkpt lat="42.916718032211065" lon="-8.343300987035036">
        <ele>328</ele>
        <time>2018-05-20T06:10:13Z</time>
      </trkpt>
      <trkpt lat="42.916760025545955" lon="-8.343300987035036">
        <ele>327.89999999999998</ele>
        <time>2018-05-20T06:10:15Z</time>
      </trkpt>
      <trkpt lat="42.916806964203715" lon="-8.343300987035036">
        <ele>327.80000000000001</ele>
        <time>2018-05-20T06:10:16Z</time>
      </trkpt>
      <trkpt lat="42.916849041357636" lon="-8.343300987035036">
        <ele>327.80000000000001</ele>
        <time>2018-05-20T06:10:17Z</time>
      </trkpt>
      <trkpt lat="42.916894974187016" lon="-8.343300987035036">
        <ele>327.69999999999999</ele>
        <time>2018-05-20T06:10:19Z</time>
      </trkpt>
      <trkpt lat="42.916933028027415" lon="-8.343295035883784">
        <ele>327.69999999999999</ele>
        <time>2018-05-20T06:10:20Z</time>
      </trkpt>
      <trkpt lat="42.916969992220402" lon="-8.343289000913501">
        <ele>327.80000000000001</ele>
        <time>2018-05-20T06:10:21Z</time>
      </trkpt>
      <trkpt lat="42.91700704023242" lon="-8.343254970386624">
        <ele>328.19999999999999</ele>
        <time>2018-05-20T06:10:22Z</time>
      </trkpt>
      <trkpt lat="42.917039981111884" lon="-8.343232003971934">
        <ele>328.5</ele>
        <time>2018-05-20T06:10:23Z</time>
      </trkpt>
      <trkpt lat="42.917067976668477" lon="-8.343185987323523">
        <ele>329.10000000000002</ele>
        <time>2018-05-20T06:10:25Z</time>
      </trkpt>
      <trkpt lat="42.917105024680495" lon="-8.343146005645394">
        <ele>329.69999999999999</ele>
        <time>2018-05-20T06:10:26Z</time>
      </trkpt>
      <trkpt lat="42.917128996923566" lon="-8.343106023967266">
        <ele>330.30000000000001</ele>
        <time>2018-05-20T06:10:27Z</time>
      </trkpt>
      <trkpt lat="42.917155986651778" lon="-8.343065036460757">
        <ele>331</ele>
        <time>2018-05-20T06:10:28Z</time>
      </trkpt>
      <trkpt lat="42.917179958894849" lon="-8.343019019812346">
        <ele>331.60000000000002</ele>
        <time>2018-05-20T06:10:30Z</time>
      </trkpt>
      <trkpt lat="42.917203009128571" lon="-8.342962022870779">
        <ele>332.39999999999998</ele>
        <time>2018-05-20T06:10:31Z</time>
      </trkpt>
      <trkpt lat="42.917227987200022" lon="-8.342913994565606">
        <ele>333</ele>
        <time>2018-05-20T06:10:32Z</time>
      </trkpt>
      <trkpt lat="42.917297976091504" lon="-8.342789020389319">
        <ele>334.19999999999999</ele>
        <time>2018-05-20T06:10:36Z</time>
      </trkpt>
      <trkpt lat="42.917362013831735" lon="-8.3426000084728">
        <ele>335.89999999999998</ele>
        <time>2018-05-20T06:10:40Z</time>
      </trkpt>
      <trkpt lat="42.917370982468128" lon="-8.342559020966291">
        <ele>336.30000000000001</ele>
        <time>2018-05-20T06:10:41Z</time>
      </trkpt>
      <trkpt lat="42.91739403270185" lon="-8.342507975175977">
        <ele>336.80000000000001</ele>
        <time>2018-05-20T06:10:43Z</time>
      </trkpt>
      <trkpt lat="42.917412975803018" lon="-8.342461958527565">
        <ele>337.30000000000001</ele>
        <time>2018-05-20T06:10:44Z</time>
      </trkpt>
      <trkpt lat="42.917432002723217" lon="-8.342409990727902">
        <ele>337.80000000000001</ele>
        <time>2018-05-20T06:10:45Z</time>
      </trkpt>
      <trkpt lat="42.917450023815036" lon="-8.34236397407949">
        <ele>338.19999999999999</ele>
        <time>2018-05-20T06:10:46Z</time>
      </trkpt>
      <trkpt lat="42.917464021593332" lon="-8.342312006279826">
        <ele>338.69999999999999</ele>
        <time>2018-05-20T06:10:47Z</time>
      </trkpt>
      <trkpt lat="42.917487993836403" lon="-8.342244029045105">
        <ele>339.39999999999998</ele>
        <time>2018-05-20T06:10:49Z</time>
      </trkpt>
      <trkpt lat="42.917506014928222" lon="-8.34219197742641">
        <ele>340</ele>
        <time>2018-05-20T06:10:50Z</time>
      </trkpt>
      <trkpt lat="42.917520012706518" lon="-8.342140009626746">
        <ele>340.5</ele>
        <time>2018-05-20T06:10:51Z</time>
      </trkpt>
      <trkpt lat="42.917529987171292" lon="-8.342088041827083">
        <ele>341</ele>
        <time>2018-05-20T06:10:53Z</time>
      </trkpt>
      <trkpt lat="42.917548008263111" lon="-8.342030961066485">
        <ele>341.39999999999998</ele>
        <time>2018-05-20T06:10:54Z</time>
      </trkpt>
      <trkpt lat="42.917562006041408" lon="-8.341978993266821">
        <ele>341.69999999999999</ele>
        <time>2018-05-20T06:10:55Z</time>
      </trkpt>
      <trkpt lat="42.917570974677801" lon="-8.341932976618409">
        <ele>342</ele>
        <time>2018-05-20T06:10:56Z</time>
      </trkpt>
      <trkpt lat="42.917598970234394" lon="-8.341886959969997">
        <ele>342.30000000000001</ele>
        <time>2018-05-20T06:10:57Z</time>
      </trkpt>
      <trkpt lat="42.917626965790987" lon="-8.341853013262153">
        <ele>342.69999999999999</ele>
        <time>2018-05-20T06:10:59Z</time>
      </trkpt>
      <trkpt lat="42.917645992711186" lon="-8.341824011877179">
        <ele>342.89999999999998</ele>
        <time>2018-05-20T06:10:59Z</time>
      </trkpt>
      <trkpt lat="42.917659990489483" lon="-8.341777995228767">
        <ele>343.30000000000001</ele>
        <time>2018-05-20T06:11:01Z</time>
      </trkpt>
      <trkpt lat="42.917673988267779" lon="-8.341714963316917">
        <ele>343.69999999999999</ele>
        <time>2018-05-20T06:11:02Z</time>
      </trkpt>
      <trkpt lat="42.917687986046076" lon="-8.341657966375351">
        <ele>344.19999999999999</ele>
        <time>2018-05-20T06:11:03Z</time>
      </trkpt>
      <trkpt lat="42.917707012966275" lon="-8.341605998575687">
        <ele>344.60000000000002</ele>
        <time>2018-05-20T06:11:05Z</time>
      </trkpt>
      <trkpt lat="42.917715981602669" lon="-8.34154799580574">
        <ele>345.10000000000002</ele>
        <time>2018-05-20T06:11:06Z</time>
      </trkpt>
      <trkpt lat="42.917735008522868" lon="-8.341508014127612">
        <ele>345.5</ele>
        <time>2018-05-20T06:11:07Z</time>
      </trkpt>
      <trkpt lat="42.917743977159262" lon="-8.341451017186046">
        <ele>346</ele>
        <time>2018-05-20T06:11:08Z</time>
      </trkpt>
      <trkpt lat="42.917757974937558" lon="-8.341387985274196">
        <ele>346.5</ele>
        <time>2018-05-20T06:11:10Z</time>
      </trkpt>
      <trkpt lat="42.917777001857758" lon="-8.341329982504249">
        <ele>347.10000000000002</ele>
        <time>2018-05-20T06:11:11Z</time>
      </trkpt>
      <trkpt lat="42.917785970494151" lon="-8.341279020532966">
        <ele>347.5</ele>
        <time>2018-05-20T06:11:12Z</time>
      </trkpt>
      <trkpt lat="42.917799968272448" lon="-8.34122696891427">
        <ele>347.89999999999998</ele>
        <time>2018-05-20T06:11:13Z</time>
      </trkpt>
      <trkpt lat="42.917818995192647" lon="-8.34118103608489">
        <ele>348.10000000000002</ele>
        <time>2018-05-20T06:11:14Z</time>
      </trkpt>
      <trkpt lat="42.917837016284466" lon="-8.34111800417304">
        <ele>348.30000000000001</ele>
        <time>2018-05-20T06:11:16Z</time>
      </trkpt>
      <trkpt lat="42.917851014062762" lon="-8.341066036373377">
        <ele>348.5</ele>
        <time>2018-05-20T06:11:17Z</time>
      </trkpt>
      <trkpt lat="42.917865011841059" lon="-8.341013984754682">
        <ele>348.69999999999999</ele>
        <time>2018-05-20T06:11:18Z</time>
      </trkpt>
      <trkpt lat="42.917884038761258" lon="-8.340956987813115">
        <ele>348.89999999999998</ele>
        <time>2018-05-20T06:11:20Z</time>
      </trkpt>
      <trkpt lat="42.917893007397652" lon="-8.340905020013452">
        <ele>349.10000000000002</ele>
        <time>2018-05-20T06:11:21Z</time>
      </trkpt>
      <trkpt lat="42.917902981862426" lon="-8.340853974223137">
        <ele>349.30000000000001</ele>
        <time>2018-05-20T06:11:22Z</time>
      </trkpt>
      <trkpt lat="42.917916979640722" lon="-8.34079597145319">
        <ele>349.5</ele>
        <time>2018-05-20T06:11:23Z</time>
      </trkpt>
      <trkpt lat="42.917926032096148" lon="-8.340733023360372">
        <ele>349.60000000000002</ele>
        <time>2018-05-20T06:11:25Z</time>
      </trkpt>
      <trkpt lat="42.917940029874444" lon="-8.340680971741676">
        <ele>349.69999999999999</ele>
        <time>2018-05-20T06:11:26Z</time>
      </trkpt>
      <trkpt lat="42.917958972975612" lon="-8.340635038912296">
        <ele>349.80000000000001</ele>
        <time>2018-05-20T06:11:27Z</time>
      </trkpt>
      <trkpt lat="42.917968025431037" lon="-8.340589022263885">
        <ele>349.89999999999998</ele>
        <time>2018-05-20T06:11:28Z</time>
      </trkpt>
      <trkpt lat="42.91797699406743" lon="-8.34053797647357">
        <ele>350</ele>
        <time>2018-05-20T06:11:29Z</time>
      </trkpt>
      <trkpt lat="42.917990991845727" lon="-8.340479973703623">
        <ele>350.10000000000002</ele>
        <time>2018-05-20T06:11:31Z</time>
      </trkpt>
      <trkpt lat="42.918000966310501" lon="-8.34042901173234">
        <ele>350.19999999999999</ele>
        <time>2018-05-20T06:11:32Z</time>
      </trkpt>
      <trkpt lat="42.918014964088798" lon="-8.340371008962393">
        <ele>350.10000000000002</ele>
        <time>2018-05-20T06:11:33Z</time>
      </trkpt>
      <trkpt lat="42.918024016544223" lon="-8.340302025899291">
        <ele>350</ele>
        <time>2018-05-20T06:11:34Z</time>
      </trkpt>
      <trkpt lat="42.918042037636042" lon="-8.340256009250879">
        <ele>349.89999999999998</ele>
        <time>2018-05-20T06:11:36Z</time>
      </trkpt>
      <trkpt lat="42.918056035414338" lon="-8.340209992602468">
        <ele>349.80000000000001</ele>
        <time>2018-05-20T06:11:37Z</time>
      </trkpt>
      <trkpt lat="42.918074978515506" lon="-8.340163975954056">
        <ele>349.80000000000001</ele>
        <time>2018-05-20T06:11:38Z</time>
      </trkpt>
      <trkpt lat="42.918094005435705" lon="-8.340113013982773">
        <ele>349.69999999999999</ele>
        <time>2018-05-20T06:11:39Z</time>
      </trkpt>
      <trkpt lat="42.918112026527524" lon="-8.340044030919671">
        <ele>349.60000000000002</ele>
        <time>2018-05-20T06:11:41Z</time>
      </trkpt>
      <trkpt lat="42.918122000992298" lon="-8.339998014271259">
        <ele>349.5</ele>
        <time>2018-05-20T06:11:42Z</time>
      </trkpt>
      <trkpt lat="42.918130969628692" lon="-8.339940011501312">
        <ele>349.39999999999998</ele>
        <time>2018-05-20T06:11:43Z</time>
      </trkpt>
      <trkpt lat="42.918154019862413" lon="-8.339854013174772">
        <ele>349.19999999999999</ele>
        <time>2018-05-20T06:11:45Z</time>
      </trkpt>
      <trkpt lat="42.918172962963581" lon="-8.339780000969768">
        <ele>349.10000000000002</ele>
        <time>2018-05-20T06:11:47Z</time>
      </trkpt>
      <trkpt lat="42.918196013197303" lon="-8.339733984321356">
        <ele>349</ele>
        <time>2018-05-20T06:11:48Z</time>
      </trkpt>
      <trkpt lat="42.918210010975599" lon="-8.339670030400157">
        <ele>348.89999999999998</ele>
        <time>2018-05-20T06:11:49Z</time>
      </trkpt>
      <trkpt lat="42.918224008753896" lon="-8.339625019580126">
        <ele>348.80000000000001</ele>
        <time>2018-05-20T06:11:50Z</time>
      </trkpt>
      <trkpt lat="42.918243035674095" lon="-8.339572967961431">
        <ele>348.69999999999999</ele>
        <time>2018-05-20T06:11:52Z</time>
      </trkpt>
      <trkpt lat="42.918257033452392" lon="-8.339521000161767">
        <ele>348.19999999999999</ele>
        <time>2018-05-20T06:11:53Z</time>
      </trkpt>
      <trkpt lat="42.918275976553559" lon="-8.339457968249917">
        <ele>347.60000000000002</ele>
        <time>2018-05-20T06:11:54Z</time>
      </trkpt>
      <trkpt lat="42.918279999867082" lon="-8.339400971308351">
        <ele>347.10000000000002</ele>
        <time>2018-05-20T06:11:56Z</time>
      </trkpt>
      <trkpt lat="42.918289974331856" lon="-8.339337017387152">
        <ele>346.5</ele>
        <time>2018-05-20T06:11:57Z</time>
      </trkpt>
      <trkpt lat="42.918313024565578" lon="-8.339271973818541">
        <ele>345.89999999999998</ele>
        <time>2018-05-20T06:11:59Z</time>
      </trkpt>
      <trkpt lat="42.918331967666745" lon="-8.339209025725722">
        <ele>345.39999999999998</ele>
        <time>2018-05-20T06:12:00Z</time>
      </trkpt>
      <trkpt lat="42.918349988758564" lon="-8.339163009077311">
        <ele>345</ele>
        <time>2018-05-20T06:12:01Z</time>
      </trkpt>
      <trkpt lat="42.918365998193622" lon="-8.339112969115377">
        <ele>344.69999999999999</ele>
        <time>2018-05-20T06:12:02Z</time>
      </trkpt>
      <trkpt lat="42.918379995971918" lon="-8.33905597217381">
        <ele>344.19999999999999</ele>
        <time>2018-05-20T06:12:04Z</time>
      </trkpt>
      <trkpt lat="42.918399022892118" lon="-8.338986989110708">
        <ele>343.69999999999999</ele>
        <time>2018-05-20T06:12:05Z</time>
      </trkpt>
      <trkpt lat="42.918413020670414" lon="-8.338935021311045">
        <ele>343.30000000000001</ele>
        <time>2018-05-20T06:12:07Z</time>
      </trkpt>
      <trkpt lat="42.918435987085104" lon="-8.338866038247943">
        <ele>342.80000000000001</ele>
        <time>2018-05-20T06:12:08Z</time>
      </trkpt>
      <trkpt lat="42.9184499848634" lon="-8.338809041306377">
        <ele>342.39999999999998</ele>
        <time>2018-05-20T06:12:09Z</time>
      </trkpt>
      <trkpt lat="42.918468005955219" lon="-8.338767969980836">
        <ele>342.10000000000002</ele>
        <time>2018-05-20T06:12:11Z</time>
      </trkpt>
      <trkpt lat="42.918468005955219" lon="-8.338705021888018">
        <ele>342</ele>
        <time>2018-05-20T06:12:12Z</time>
      </trkpt>
      <trkpt lat="42.918473035097122" lon="-8.338641989976168">
        <ele>342.19999999999999</ele>
        <time>2018-05-20T06:12:13Z</time>
      </trkpt>
      <trkpt lat="42.918473035097122" lon="-8.338590022176504">
        <ele>342.30000000000001</ele>
        <time>2018-05-20T06:12:14Z</time>
      </trkpt>
      <trkpt lat="42.918473035097122" lon="-8.338526990264654">
        <ele>342.39999999999998</ele>
        <time>2018-05-20T06:12:16Z</time>
      </trkpt>
      <trkpt lat="42.918477980419993" lon="-8.33847401663661">
        <ele>342.5</ele>
        <time>2018-05-20T06:12:17Z</time>
      </trkpt>
      <trkpt lat="42.918482003733516" lon="-8.338252985849977">
        <ele>342.80000000000001</ele>
        <time>2018-05-20T06:12:22Z</time>
      </trkpt>
      <trkpt lat="42.918489966541529" lon="-8.338024998083711">
        <ele>343.19999999999999</ele>
        <time>2018-05-20T06:12:27Z</time>
      </trkpt>
      <trkpt lat="42.918476974591613" lon="-8.338041007518768">
        <ele>343.10000000000002</ele>
        <time>2018-05-20T06:12:27Z</time>
      </trkpt>
      <trkpt lat="42.918473035097122" lon="-8.33780899643898">
        <ele>344</ele>
        <time>2018-05-20T06:12:32Z</time>
      </trkpt>
      <trkpt lat="42.918468005955219" lon="-8.337407000362873">
        <ele>346.60000000000002</ele>
        <time>2018-05-20T06:12:41Z</time>
      </trkpt>
      <trkpt lat="42.918420983478427" lon="-8.336925962939858">
        <ele>349.80000000000001</ele>
        <time>2018-05-20T06:12:51Z</time>
      </trkpt>
      <trkpt lat="42.918378990143538" lon="-8.336510974913836">
        <ele>352.60000000000002</ele>
        <time>2018-05-20T06:13:01Z</time>
      </trkpt>
      <trkpt lat="42.918350994586945" lon="-8.336138986051083">
        <ele>354.5</ele>
        <time>2018-05-20T06:13:09Z</time>
      </trkpt>
      <trkpt lat="42.918310007080436" lon="-8.335822988301516">
        <ele>354.80000000000001</ele>
        <time>2018-05-20T06:13:16Z</time>
      </trkpt>
      <trkpt lat="42.918310007080436" lon="-8.335807984694839">
        <ele>354.80000000000001</ele>
        <time>2018-05-20T06:13:16Z</time>
      </trkpt>
      <trkpt lat="42.918286034837365" lon="-8.335557030513883">
        <ele>354.89999999999998</ele>
        <time>2018-05-20T06:13:21Z</time>
      </trkpt>
      <trkpt lat="42.918248986825347" lon="-8.335312027484179">
        <ele>354.80000000000001</ele>
        <time>2018-05-20T06:13:27Z</time>
      </trkpt>
      <trkpt lat="42.918215040117502" lon="-8.335020001977682">
        <ele>354.19999999999999</ele>
        <time>2018-05-20T06:13:33Z</time>
      </trkpt>
      <trkpt lat="42.918215040117502" lon="-8.335004998371005">
        <ele>354.10000000000002</ele>
        <time>2018-05-20T06:13:34Z</time>
      </trkpt>
      <trkpt lat="42.918154019862413" lon="-8.334576012566686">
        <ele>352.60000000000002</ele>
        <time>2018-05-20T06:13:43Z</time>
      </trkpt>
      <trkpt lat="42.918138010427356" lon="-8.334396975114942">
        <ele>354.19999999999999</ele>
        <time>2018-05-20T06:13:47Z</time>
      </trkpt>
      <trkpt lat="42.918110014870763" lon="-8.334209974855185">
        <ele>355.60000000000002</ele>
        <time>2018-05-20T06:13:51Z</time>
      </trkpt>
      <trkpt lat="42.918058969080448" lon="-8.334040995687246">
        <ele>356.5</ele>
        <time>2018-05-20T06:13:55Z</time>
      </trkpt>
      <trkpt lat="42.917974982410669" lon="-8.333861036226153">
        <ele>356.89999999999998</ele>
        <time>2018-05-20T06:14:00Z</time>
      </trkpt>
      <trkpt lat="42.91791102848947" lon="-8.333731032907963">
        <ele>357.19999999999999</ele>
        <time>2018-05-20T06:14:03Z</time>
      </trkpt>
      <trkpt lat="42.917843973264098" lon="-8.333513019606471">
        <ele>358.89999999999998</ele>
        <time>2018-05-20T06:14:08Z</time>
      </trkpt>
      <trkpt lat="42.917751017957926" lon="-8.333315039053559">
        <ele>360.60000000000002</ele>
        <time>2018-05-20T06:14:13Z</time>
      </trkpt>
      <trkpt lat="42.917614979669452" lon="-8.333141030743718">
        <ele>362</ele>
        <time>2018-05-20T06:14:19Z</time>
      </trkpt>
      <trkpt lat="42.917515989392996" lon="-8.333007004112005">
        <ele>363.19999999999999</ele>
        <time>2018-05-20T06:14:23Z</time>
      </trkpt>
      <trkpt lat="42.917423034086823" lon="-8.33282302133739">
        <ele>364.39999999999998</ele>
        <time>2018-05-20T06:14:28Z</time>
      </trkpt>
      <trkpt lat="42.917423034086823" lon="-8.332814974710345">
        <ele>364.5</ele>
        <time>2018-05-20T06:14:28Z</time>
      </trkpt>
      <trkpt lat="42.917300993576646" lon="-8.332591010257602">
        <ele>365.80000000000001</ele>
        <time>2018-05-20T06:14:34Z</time>
      </trkpt>
      <trkpt lat="42.917300993576646" lon="-8.332583969458938">
        <ele>365.89999999999998</ele>
        <time>2018-05-20T06:14:34Z</time>
      </trkpt>
      <trkpt lat="42.917199991643429" lon="-8.332414990290999">
        <ele>367.19999999999999</ele>
        <time>2018-05-20T06:14:39Z</time>
      </trkpt>
      <trkpt lat="42.917067976668477" lon="-8.332194965332747">
        <ele>369.5</ele>
        <time>2018-05-20T06:14:45Z</time>
      </trkpt>
      <trkpt lat="42.917045010253787" lon="-8.332182979211211">
        <ele>370</ele>
        <time>2018-05-20T06:14:46Z</time>
      </trkpt>
      <trkpt lat="42.91700704023242" lon="-8.332125982269645">
        <ele>371.10000000000002</ele>
        <time>2018-05-20T06:14:48Z</time>
      </trkpt>
      <trkpt lat="42.916983989998698" lon="-8.332086000591517">
        <ele>371.89999999999998</ele>
        <time>2018-05-20T06:14:49Z</time>
      </trkpt>
      <trkpt lat="42.916961023584008" lon="-8.332039983943105">
        <ele>372.5</ele>
        <time>2018-05-20T06:14:50Z</time>
      </trkpt>
      <trkpt lat="42.916941996663809" lon="-8.331993967294693">
        <ele>373</ele>
        <time>2018-05-20T06:14:51Z</time>
      </trkpt>
      <trkpt lat="42.91692397557199" lon="-8.331931019201875">
        <ele>373.60000000000002</ele>
        <time>2018-05-20T06:14:53Z</time>
      </trkpt>
      <trkpt lat="42.916905032470822" lon="-8.331885002553463">
        <ele>374.10000000000002</ele>
        <time>2018-05-20T06:14:54Z</time>
      </trkpt>
      <trkpt lat="42.916881982237101" lon="-8.331833034753799">
        <ele>374.60000000000002</ele>
        <time>2018-05-20T06:14:55Z</time>
      </trkpt>
      <trkpt lat="42.91685800999403" lon="-8.331787018105388">
        <ele>375.19999999999999</ele>
        <time>2018-05-20T06:14:56Z</time>
      </trkpt>
      <trkpt lat="42.916844012215734" lon="-8.331734966486692">
        <ele>375.5</ele>
        <time>2018-05-20T06:14:58Z</time>
      </trkpt>
      <trkpt lat="42.916830014437437" lon="-8.331677969545126">
        <ele>375.89999999999998</ele>
        <time>2018-05-20T06:14:59Z</time>
      </trkpt>
      <trkpt lat="42.916825991123915" lon="-8.331626001745462">
        <ele>376.10000000000002</ele>
        <time>2018-05-20T06:15:00Z</time>
      </trkpt>
      <trkpt lat="42.916806964203715" lon="-8.331574033945799">
        <ele>376.5</ele>
        <time>2018-05-20T06:15:01Z</time>
      </trkpt>
      <trkpt lat="42.916802018880844" lon="-8.331522988155484">
        <ele>376.69999999999999</ele>
        <time>2018-05-20T06:15:02Z</time>
      </trkpt>
      <trkpt lat="42.916792966425419" lon="-8.33146900869906">
        <ele>377</ele>
        <time>2018-05-20T06:15:04Z</time>
      </trkpt>
      <trkpt lat="42.916792966425419" lon="-8.331412011757493">
        <ele>377.10000000000002</ele>
        <time>2018-05-20T06:15:05Z</time>
      </trkpt>
      <trkpt lat="42.916792966425419" lon="-8.331359960138798">
        <ele>377.19999999999999</ele>
        <time>2018-05-20T06:15:06Z</time>
      </trkpt>
      <trkpt lat="42.916792966425419" lon="-8.33129701204598">
        <ele>377.39999999999998</ele>
        <time>2018-05-20T06:15:07Z</time>
      </trkpt>
      <trkpt lat="42.916792966425419" lon="-8.331239009276032">
        <ele>377.60000000000002</ele>
        <time>2018-05-20T06:15:09Z</time>
      </trkpt>
      <trkpt lat="42.916797995567322" lon="-8.331182012334466">
        <ele>378.10000000000002</ele>
        <time>2018-05-20T06:15:10Z</time>
      </trkpt>
      <trkpt lat="42.916802018880844" lon="-8.331118980422616">
        <ele>378.60000000000002</ele>
        <time>2018-05-20T06:15:11Z</time>
      </trkpt>
      <trkpt lat="42.916811993345618" lon="-8.331060977652669">
        <ele>379.10000000000002</ele>
        <time>2018-05-20T06:15:13Z</time>
      </trkpt>
      <trkpt lat="42.916832026094198" lon="-8.330998029559851">
        <ele>379.30000000000001</ele>
        <time>2018-05-20T06:15:14Z</time>
      </trkpt>
      <trkpt lat="42.916850969195366" lon="-8.330956036224961">
        <ele>379.39999999999998</ele>
        <time>2018-05-20T06:15:15Z</time>
      </trkpt>
      <trkpt lat="42.916878964751959" lon="-8.330903984606266">
        <ele>379.39999999999998</ele>
        <time>2018-05-20T06:15:17Z</time>
      </trkpt>
      <trkpt lat="42.916906038299203" lon="-8.330870037898421">
        <ele>379.30000000000001</ele>
        <time>2018-05-20T06:15:18Z</time>
      </trkpt>
      <trkpt lat="42.91694400832057" lon="-8.330857967957854">
        <ele>378.69999999999999</ele>
        <time>2018-05-20T06:15:19Z</time>
      </trkpt>
      <trkpt lat="42.916980972513556" lon="-8.3308469876647">
        <ele>378.19999999999999</ele>
        <time>2018-05-20T06:15:20Z</time>
      </trkpt>
      <trkpt lat="42.917022965848446" lon="-8.330835001543164">
        <ele>377.5</ele>
        <time>2018-05-20T06:15:21Z</time>
      </trkpt>
      <trkpt lat="42.917055990546942" lon="-8.330812035128474">
        <ele>377.10000000000002</ele>
        <time>2018-05-20T06:15:22Z</time>
      </trkpt>
      <trkpt lat="42.917087003588676" lon="-8.330795019865036">
        <ele>376.69999999999999</ele>
        <time>2018-05-20T06:15:23Z</time>
      </trkpt>
      <trkpt lat="42.917120028287172" lon="-8.330766018480063">
        <ele>376.5</ele>
        <time>2018-05-20T06:15:24Z</time>
      </trkpt>
      <trkpt lat="42.917162021622062" lon="-8.330731987953186">
        <ele>376.30000000000001</ele>
        <time>2018-05-20T06:15:26Z</time>
      </trkpt>
      <trkpt lat="42.917194040492177" lon="-8.330697035416961">
        <ele>376.19999999999999</ele>
        <time>2018-05-20T06:15:27Z</time>
      </trkpt>
      <trkpt lat="42.917219018563628" lon="-8.330669039860368">
        <ele>376.10000000000002</ele>
        <time>2018-05-20T06:15:28Z</time>
      </trkpt>
      <trkpt lat="42.917247014120221" lon="-8.330645989626646">
        <ele>375.89999999999998</ele>
        <time>2018-05-20T06:15:29Z</time>
      </trkpt>
      <trkpt lat="42.917280038818717" lon="-8.330623023211956">
        <ele>375.69999999999999</ele>
        <time>2018-05-20T06:15:30Z</time>
      </trkpt>
      <trkpt lat="42.917317003011703" lon="-8.330587986856699">
        <ele>375.5</ele>
        <time>2018-05-20T06:15:31Z</time>
      </trkpt>
      <trkpt lat="42.917358996346593" lon="-8.330548005178571">
        <ele>375.30000000000001</ele>
        <time>2018-05-20T06:15:33Z</time>
      </trkpt>
      <trkpt lat="42.917392021045089" lon="-8.330525038763881">
        <ele>375.10000000000002</ele>
        <time>2018-05-20T06:15:34Z</time>
      </trkpt>
      <trkpt lat="42.917428985238075" lon="-8.330491008237004">
        <ele>374.89999999999998</ele>
        <time>2018-05-20T06:15:35Z</time>
      </trkpt>
      <trkpt lat="42.917467961087823" lon="-8.330477010458708">
        <ele>374.5</ele>
        <time>2018-05-20T06:15:37Z</time>
      </trkpt>
      <trkpt lat="42.917501991614699" lon="-8.330452032387257">
        <ele>374.30000000000001</ele>
        <time>2018-05-20T06:15:38Z</time>
      </trkpt>
      <trkpt lat="42.917526969686151" lon="-8.330410039052367">
        <ele>374.30000000000001</ele>
        <time>2018-05-20T06:15:39Z</time>
      </trkpt>
      <trkpt lat="42.917518001049757" lon="-8.330355975776911">
        <ele>374.80000000000001</ele>
        <time>2018-05-20T06:15:40Z</time>
      </trkpt>
      <trkpt lat="42.917504003271461" lon="-8.330305013805628">
        <ele>375.30000000000001</ele>
        <time>2018-05-20T06:15:41Z</time>
      </trkpt>
      <trkpt lat="42.917498974129558" lon="-8.330247011035681">
        <ele>375.80000000000001</ele>
        <time>2018-05-20T06:15:43Z</time>
      </trkpt>
      <trkpt lat="42.917490005493164" lon="-8.330198982730508">
        <ele>376.30000000000001</ele>
        <time>2018-05-20T06:15:44Z</time>
      </trkpt>
      <trkpt lat="42.917441977187991" lon="-8.330039978027344">
        <ele>378</ele>
        <time>2018-05-20T06:15:47Z</time>
      </trkpt>
      <trkpt lat="42.917355978861451" lon="-8.329725991934538">
        <ele>381</ele>
        <time>2018-05-20T06:15:55Z</time>
      </trkpt>
      <trkpt lat="42.917317003011703" lon="-8.329520970582962">
        <ele>382.5</ele>
        <time>2018-05-20T06:15:59Z</time>
      </trkpt>
      <trkpt lat="42.917254976928234" lon="-8.329274039715529">
        <ele>383.5</ele>
        <time>2018-05-20T06:16:05Z</time>
      </trkpt>
      <trkpt lat="42.917198985815048" lon="-8.328984025865793">
        <ele>384.19999999999999</ele>
        <time>2018-05-20T06:16:11Z</time>
      </trkpt>
      <trkpt lat="42.917156992480159" lon="-8.328790990635753">
        <ele>384.30000000000001</ele>
        <time>2018-05-20T06:16:16Z</time>
      </trkpt>
      <trkpt lat="42.917080968618393" lon="-8.328455965965986">
        <ele>385.80000000000001</ele>
        <time>2018-05-20T06:16:23Z</time>
      </trkpt>
      <trkpt lat="42.917034029960632" lon="-8.328185984864831">
        <ele>387.69999999999999</ele>
        <time>2018-05-20T06:16:29Z</time>
      </trkpt>
      <trkpt lat="42.917034029960632" lon="-8.328169975429773">
        <ele>387.69999999999999</ele>
        <time>2018-05-20T06:16:30Z</time>
      </trkpt>
      <trkpt lat="42.91696404106915" lon="-8.328021029010415">
        <ele>388.69999999999999</ele>
        <time>2018-05-20T06:16:34Z</time>
      </trkpt>
      <trkpt lat="42.916958006098866" lon="-8.328021029010415">
        <ele>388.69999999999999</ele>
        <time>2018-05-20T06:16:34Z</time>
      </trkpt>
      <trkpt lat="42.916855998337269" lon="-8.327801004052162">
        <ele>390.39999999999998</ele>
        <time>2018-05-20T06:16:40Z</time>
      </trkpt>
      <trkpt lat="42.916849041357636" lon="-8.327786000445485">
        <ele>390.5</ele>
        <time>2018-05-20T06:16:40Z</time>
      </trkpt>
      <trkpt lat="42.916787015274167" lon="-8.327531022951007">
        <ele>392.69999999999999</ele>
        <time>2018-05-20T06:16:46Z</time>
      </trkpt>
      <trkpt lat="42.916780980303884" lon="-8.327531022951007">
        <ele>392.60000000000002</ele>
        <time>2018-05-20T06:16:46Z</time>
      </trkpt>
      <trkpt lat="42.916691964492202" lon="-8.327382998540998">
        <ele>393.5</ele>
        <time>2018-05-20T06:16:50Z</time>
      </trkpt>
      <trkpt lat="42.916682995855808" lon="-8.327360032126308">
        <ele>393.60000000000002</ele>
        <time>2018-05-20T06:16:51Z</time>
      </trkpt>
      <trkpt lat="42.916663968935609" lon="-8.327306974679232">
        <ele>393.89999999999998</ele>
        <time>2018-05-20T06:16:52Z</time>
      </trkpt>
      <trkpt lat="42.916652988642454" lon="-8.32725903019309">
        <ele>394.10000000000002</ele>
        <time>2018-05-20T06:16:53Z</time>
      </trkpt>
      <trkpt lat="42.916648965328932" lon="-8.327201027423143">
        <ele>394.5</ele>
        <time>2018-05-20T06:16:54Z</time>
      </trkpt>
      <trkpt lat="42.916644020006061" lon="-8.327137995511293">
        <ele>394.89999999999998</ele>
        <time>2018-05-20T06:16:56Z</time>
      </trkpt>
      <trkpt lat="42.916634967550635" lon="-8.32708602771163">
        <ele>395.19999999999999</ele>
        <time>2018-05-20T06:16:57Z</time>
      </trkpt>
      <trkpt lat="42.916624993085861" lon="-8.327030958607793">
        <ele>395.89999999999998</ele>
        <time>2018-05-20T06:16:58Z</time>
      </trkpt>
      <trkpt lat="42.916624993085861" lon="-8.326976979151368">
        <ele>396.69999999999999</ele>
        <time>2018-05-20T06:16:59Z</time>
      </trkpt>
      <trkpt lat="42.916578976437449" lon="-8.326825015246868">
        <ele>398.5</ele>
        <time>2018-05-20T06:17:03Z</time>
      </trkpt>
      <trkpt lat="42.916555004194379" lon="-8.326604990288615">
        <ele>401.5</ele>
        <time>2018-05-20T06:17:08Z</time>
      </trkpt>
      <trkpt lat="42.916532037779689" lon="-8.326459983363748">
        <ele>403.39999999999998</ele>
        <time>2018-05-20T06:17:11Z</time>
      </trkpt>
      <trkpt lat="42.916532037779689" lon="-8.326440034434199">
        <ele>403.60000000000002</ele>
        <time>2018-05-20T06:17:11Z</time>
      </trkpt>
      <trkpt lat="42.916527008637786" lon="-8.326381025835872">
        <ele>404.39999999999998</ele>
        <time>2018-05-20T06:17:13Z</time>
      </trkpt>
      <trkpt lat="42.916527008637786" lon="-8.326328974217176">
        <ele>405.19999999999999</ele>
        <time>2018-05-20T06:17:14Z</time>
      </trkpt>
      <trkpt lat="42.916513010859489" lon="-8.326278012245894">
        <ele>405.80000000000001</ele>
        <time>2018-05-20T06:17:15Z</time>
      </trkpt>
      <trkpt lat="42.916508987545967" lon="-8.326213974505663">
        <ele>406.39999999999998</ele>
        <time>2018-05-20T06:17:16Z</time>
      </trkpt>
      <trkpt lat="42.916508987545967" lon="-8.326139962300658">
        <ele>407.10000000000002</ele>
        <time>2018-05-20T06:17:18Z</time>
      </trkpt>
      <trkpt lat="42.916499013081193" lon="-8.326081959530711">
        <ele>407.39999999999998</ele>
        <time>2018-05-20T06:17:19Z</time>
      </trkpt>
      <trkpt lat="42.916480991989374" lon="-8.326012976467609">
        <ele>407.80000000000001</ele>
        <time>2018-05-20T06:17:21Z</time>
      </trkpt>
      <trkpt lat="42.916466994211078" lon="-8.325933013111353">
        <ele>408.30000000000001</ele>
        <time>2018-05-20T06:17:23Z</time>
      </trkpt>
      <trkpt lat="42.916461965069175" lon="-8.325875010341406">
        <ele>408.69999999999999</ele>
        <time>2018-05-20T06:17:24Z</time>
      </trkpt>
      <trkpt lat="42.916452996432781" lon="-8.325806027278304">
        <ele>409.19999999999999</ele>
        <time>2018-05-20T06:17:26Z</time>
      </trkpt>
      <trkpt lat="42.916438998654485" lon="-8.325742995366454">
        <ele>409.5</ele>
        <time>2018-05-20T06:17:27Z</time>
      </trkpt>
      <trkpt lat="42.916425000876188" lon="-8.325691027566791">
        <ele>409.69999999999999</ele>
        <time>2018-05-20T06:17:28Z</time>
      </trkpt>
      <trkpt lat="42.916415026411414" lon="-8.325639981776476">
        <ele>410</ele>
        <time>2018-05-20T06:17:29Z</time>
      </trkpt>
      <trkpt lat="42.916405973955989" lon="-8.325581979006529">
        <ele>410.30000000000001</ele>
        <time>2018-05-20T06:17:31Z</time>
      </trkpt>
      <trkpt lat="42.916401028633118" lon="-8.325507966801524">
        <ele>410.80000000000001</ele>
        <time>2018-05-20T06:17:32Z</time>
      </trkpt>
      <trkpt lat="42.916397005319595" lon="-8.325451975688338">
        <ele>411.19999999999999</ele>
        <time>2018-05-20T06:17:33Z</time>
      </trkpt>
      <trkpt lat="42.916397005319595" lon="-8.325382992625237">
        <ele>411.5</ele>
        <time>2018-05-20T06:17:35Z</time>
      </trkpt>
      <trkpt lat="42.916397005319595" lon="-8.32532599568367">
        <ele>411.5</ele>
        <time>2018-05-20T06:17:36Z</time>
      </trkpt>
      <trkpt lat="42.916397005319595" lon="-8.325267992913723">
        <ele>411.60000000000002</ele>
        <time>2018-05-20T06:17:37Z</time>
      </trkpt>
      <trkpt lat="42.916397005319595" lon="-8.325199009850621">
        <ele>411.60000000000002</ele>
        <time>2018-05-20T06:17:39Z</time>
      </trkpt>
      <trkpt lat="42.916397005319595" lon="-8.325147964060307">
        <ele>411.60000000000002</ele>
        <time>2018-05-20T06:17:40Z</time>
      </trkpt>
      <trkpt lat="42.916397005319595" lon="-8.32508996129036">
        <ele>411.69999999999999</ele>
        <time>2018-05-20T06:17:41Z</time>
      </trkpt>
      <trkpt lat="42.916401028633118" lon="-8.325009997934103">
        <ele>411.80000000000001</ele>
        <time>2018-05-20T06:17:43Z</time>
      </trkpt>
      <trkpt lat="42.916401028633118" lon="-8.324946966022253">
        <ele>411.80000000000001</ele>
        <time>2018-05-20T06:17:44Z</time>
      </trkpt>
      <trkpt lat="42.916401028633118" lon="-8.324877982959151">
        <ele>411.89999999999998</ele>
        <time>2018-05-20T06:17:46Z</time>
      </trkpt>
      <trkpt lat="42.916405973955989" lon="-8.32480899989605">
        <ele>412</ele>
        <time>2018-05-20T06:17:47Z</time>
      </trkpt>
      <trkpt lat="42.916405973955989" lon="-8.324740016832948">
        <ele>412.10000000000002</ele>
        <time>2018-05-20T06:17:49Z</time>
      </trkpt>
      <trkpt lat="42.916405973955989" lon="-8.324671033769846">
        <ele>412.10000000000002</ele>
        <time>2018-05-20T06:17:50Z</time>
      </trkpt>
      <trkpt lat="42.916417038068175" lon="-8.324591992422938">
        <ele>412.39999999999998</ele>
        <time>2018-05-20T06:17:52Z</time>
      </trkpt>
      <trkpt lat="42.916435981169343" lon="-8.324388982728124">
        <ele>412.69999999999999</ele>
        <time>2018-05-20T06:17:57Z</time>
      </trkpt>
      <trkpt lat="42.916489038616419" lon="-8.324136016890407">
        <ele>413.60000000000002</ele>
        <time>2018-05-20T06:18:02Z</time>
      </trkpt>
      <trkpt lat="42.916512005031109" lon="-8.323966031894088">
        <ele>413.89999999999998</ele>
        <time>2018-05-20T06:18:06Z</time>
      </trkpt>
      <trkpt lat="42.916517034173012" lon="-8.323751036077738">
        <ele>413.80000000000001</ele>
        <time>2018-05-20T06:18:11Z</time>
      </trkpt>
      <trkpt lat="42.916526002809405" lon="-8.323531011119485">
        <ele>413.30000000000001</ele>
        <time>2018-05-20T06:18:15Z</time>
      </trkpt>
      <trkpt lat="42.916519967839122" lon="-8.323409976437688">
        <ele>412.80000000000001</ele>
        <time>2018-05-20T06:18:18Z</time>
      </trkpt>
      <trkpt lat="42.916487026959658" lon="-8.323398996144533">
        <ele>412.19999999999999</ele>
        <time>2018-05-20T06:18:19Z</time>
      </trkpt>
      <trkpt lat="42.916446039453149" lon="-8.323384998366237">
        <ele>411.39999999999998</ele>
        <time>2018-05-20T06:18:20Z</time>
      </trkpt>
      <trkpt lat="42.916403962299228" lon="-8.323378963395953">
        <ele>410.69999999999999</ele>
        <time>2018-05-20T06:18:22Z</time>
      </trkpt>
      <trkpt lat="42.916366998106241" lon="-8.323374018073082">
        <ele>410.10000000000002</ele>
        <time>2018-05-20T06:18:23Z</time>
      </trkpt>
      <trkpt lat="42.916325004771352" lon="-8.323374018073082">
        <ele>409.39999999999998</ele>
        <time>2018-05-20T06:18:24Z</time>
      </trkpt>
      <trkpt lat="42.916273958981037" lon="-8.323367983102799">
        <ele>408.5</ele>
        <time>2018-05-20T06:18:26Z</time>
      </trkpt>
      <trkpt lat="42.916227020323277" lon="-8.323367983102799">
        <ele>408.10000000000002</ele>
        <time>2018-05-20T06:18:27Z</time>
      </trkpt>
      <trkpt lat="42.916184021160007" lon="-8.323374018073082">
        <ele>408.10000000000002</ele>
        <time>2018-05-20T06:18:28Z</time>
      </trkpt>
      <trkpt lat="42.916131969541311" lon="-8.323378963395953">
        <ele>408</ele>
        <time>2018-05-20T06:18:30Z</time>
      </trkpt>
      <trkpt lat="42.916089976206422" lon="-8.323384998366237">
        <ele>408</ele>
        <time>2018-05-20T06:18:31Z</time>
      </trkpt>
      <trkpt lat="42.916053012013435" lon="-8.323407964780927">
        <ele>408</ele>
        <time>2018-05-20T06:18:32Z</time>
      </trkpt>
      <trkpt lat="42.916015964001417" lon="-8.32341399975121">
        <ele>408</ele>
        <time>2018-05-20T06:18:33Z</time>
      </trkpt>
      <trkpt lat="42.915973970666528" lon="-8.323424980044365">
        <ele>408</ele>
        <time>2018-05-20T06:18:35Z</time>
      </trkpt>
      <trkpt lat="42.915937006473541" lon="-8.3234369661659">
        <ele>408</ele>
        <time>2018-05-20T06:18:36Z</time>
      </trkpt>
      <trkpt lat="42.915899036452174" lon="-8.323451969772577">
        <ele>408</ele>
        <time>2018-05-20T06:18:37Z</time>
      </trkpt>
      <trkpt lat="42.915859976783395" lon="-8.323468985036016">
        <ele>408</ele>
        <time>2018-05-20T06:18:38Z</time>
      </trkpt>
      <trkpt lat="42.915827035903931" lon="-8.323497986420989">
        <ele>408</ele>
        <time>2018-05-20T06:18:39Z</time>
      </trkpt>
      <trkpt lat="42.915789987891912" lon="-8.323515001684427">
        <ele>408</ele>
        <time>2018-05-20T06:18:40Z</time>
      </trkpt>
      <trkpt lat="42.915753023698926" lon="-8.323537968099117">
        <ele>408</ele>
        <time>2018-05-20T06:18:42Z</time>
      </trkpt>
      <trkpt lat="42.915725028142333" lon="-8.323566969484091">
        <ele>408.10000000000002</ele>
        <time>2018-05-20T06:18:43Z</time>
      </trkpt>
      <trkpt lat="42.915687980130315" lon="-8.323583984747529">
        <ele>408.10000000000002</ele>
        <time>2018-05-20T06:18:44Z</time>
      </trkpt>
      <trkpt lat="42.915659984573722" lon="-8.323607034981251">
        <ele>408.10000000000002</ele>
        <time>2018-05-20T06:18:45Z</time>
      </trkpt>
      <trkpt lat="42.915626959875226" lon="-8.323641987517476">
        <ele>408.10000000000002</ele>
        <time>2018-05-20T06:18:46Z</time>
      </trkpt>
      <trkpt lat="42.915594018995762" lon="-8.323676018044353">
        <ele>408.10000000000002</ele>
        <time>2018-05-20T06:18:47Z</time>
      </trkpt>
      <trkpt lat="42.915552025660872" lon="-8.323698984459043">
        <ele>408.10000000000002</ele>
        <time>2018-05-20T06:18:49Z</time>
      </trkpt>
      <trkpt lat="42.915506009012461" lon="-8.323705019429326">
        <ele>408</ele>
        <time>2018-05-20T06:18:50Z</time>
      </trkpt>
      <trkpt lat="42.915467033162713" lon="-8.323705019429326">
        <ele>408</ele>
        <time>2018-05-20T06:18:51Z</time>
      </trkpt>
      <trkpt lat="42.915428979322314" lon="-8.323669983074069">
        <ele>407.89999999999998</ele>
        <time>2018-05-20T06:18:52Z</time>
      </trkpt>
      <trkpt lat="42.915399977937341" lon="-8.323610974475741">
        <ele>408</ele>
        <time>2018-05-20T06:18:54Z</time>
      </trkpt>
      <trkpt lat="42.915371982380748" lon="-8.323570992797613">
        <ele>408.19999999999999</ele>
        <time>2018-05-20T06:18:55Z</time>
      </trkpt>
      <trkpt lat="42.915343986824155" lon="-8.323507960885763">
        <ele>408.39999999999998</ele>
        <time>2018-05-20T06:18:57Z</time>
      </trkpt>
      <trkpt lat="42.915321020409465" lon="-8.323439983651042">
        <ele>408.39999999999998</ele>
        <time>2018-05-20T06:18:58Z</time>
      </trkpt>
      <trkpt lat="42.915310962125659" lon="-8.323389021679759">
        <ele>408.39999999999998</ele>
        <time>2018-05-20T06:19:00Z</time>
      </trkpt>
      <trkpt lat="42.915307022631168" lon="-8.323331018909812">
        <ele>408.39999999999998</ele>
        <time>2018-05-20T06:19:01Z</time>
      </trkpt>
      <trkpt lat="42.915296964347363" lon="-8.32326203584671">
        <ele>408.30000000000001</ele>
        <time>2018-05-20T06:19:02Z</time>
      </trkpt>
      <trkpt lat="42.915287995710969" lon="-8.323210990056396">
        <ele>408.19999999999999</ele>
        <time>2018-05-20T06:19:04Z</time>
      </trkpt>
      <trkpt lat="42.915279027074575" lon="-8.323146030306816">
        <ele>408.19999999999999</ele>
        <time>2018-05-20T06:19:05Z</time>
      </trkpt>
      <trkpt lat="42.915273997932673" lon="-8.323081992566586">
        <ele>408.10000000000002</ele>
        <time>2018-05-20T06:19:06Z</time>
      </trkpt>
      <trkpt lat="42.915273997932673" lon="-8.323007980361581">
        <ele>407.89999999999998</ele>
        <time>2018-05-20T06:19:08Z</time>
      </trkpt>
      <trkpt lat="42.91526896879077" lon="-8.322949977591634">
        <ele>407.80000000000001</ele>
        <time>2018-05-20T06:19:09Z</time>
      </trkpt>
      <trkpt lat="42.91526896879077" lon="-8.322892980650067">
        <ele>407.5</ele>
        <time>2018-05-20T06:19:10Z</time>
      </trkpt>
      <trkpt lat="42.91526896879077" lon="-8.32283497788012">
        <ele>407.10000000000002</ele>
        <time>2018-05-20T06:19:12Z</time>
      </trkpt>
      <trkpt lat="42.91526896879077" lon="-8.32274897955358">
        <ele>406.60000000000002</ele>
        <time>2018-05-20T06:19:14Z</time>
      </trkpt>
      <trkpt lat="42.91526896879077" lon="-8.322691982612014">
        <ele>406.19999999999999</ele>
        <time>2018-05-20T06:19:15Z</time>
      </trkpt>
      <trkpt lat="42.91526896879077" lon="-8.322633979842067">
        <ele>405.80000000000001</ele>
        <time>2018-05-20T06:19:16Z</time>
      </trkpt>
      <trkpt lat="42.915305010974407" lon="-8.322433987632394">
        <ele>404.30000000000001</ele>
        <time>2018-05-20T06:19:21Z</time>
      </trkpt>
      <trkpt lat="42.91531004011631" lon="-8.322240030393004">
        <ele>403</ele>
        <time>2018-05-20T06:19:25Z</time>
      </trkpt>
      <trkpt lat="42.915324037894607" lon="-8.32208102568984">
        <ele>402</ele>
        <time>2018-05-20T06:19:28Z</time>
      </trkpt>
      <trkpt lat="42.91537499986589" lon="-8.321624966338277">
        <ele>400.19999999999999</ele>
        <time>2018-05-20T06:19:38Z</time>
      </trkpt>
      <trkpt lat="42.915416993200779" lon="-8.321345010772348">
        <ele>399.30000000000001</ele>
        <time>2018-05-20T06:19:44Z</time>
      </trkpt>
      <trkpt lat="42.915416993200779" lon="-8.321298994123936">
        <ele>399.19999999999999</ele>
        <time>2018-05-20T06:19:45Z</time>
      </trkpt>
      <trkpt lat="42.915425961837173" lon="-8.321252977475524">
        <ele>399.10000000000002</ele>
        <time>2018-05-20T06:19:46Z</time>
      </trkpt>
      <trkpt lat="42.915436020120978" lon="-8.321195980533958">
        <ele>399.10000000000002</ele>
        <time>2018-05-20T06:19:48Z</time>
      </trkpt>
      <trkpt lat="42.915439959615469" lon="-8.321133032441139">
        <ele>399.10000000000002</ele>
        <time>2018-05-20T06:19:49Z</time>
      </trkpt>
      <trkpt lat="42.915439959615469" lon="-8.321063965559006">
        <ele>399</ele>
        <time>2018-05-20T06:19:51Z</time>
      </trkpt>
      <trkpt lat="42.915444988757372" lon="-8.321011997759342">
        <ele>399</ele>
        <time>2018-05-20T06:19:52Z</time>
      </trkpt>
      <trkpt lat="42.915454041212797" lon="-8.320955000817776">
        <ele>399</ele>
        <time>2018-05-20T06:19:53Z</time>
      </trkpt>
      <trkpt lat="42.915472984313965" lon="-8.320886017754674">
        <ele>399.10000000000002</ele>
        <time>2018-05-20T06:19:55Z</time>
      </trkpt>
      <trkpt lat="42.915501985698938" lon="-8.320820974186063">
        <ele>399.30000000000001</ele>
        <time>2018-05-20T06:19:56Z</time>
      </trkpt>
      <trkpt lat="42.915521012619138" lon="-8.320769006386399">
        <ele>399.39999999999998</ele>
        <time>2018-05-20T06:19:58Z</time>
      </trkpt>
      <trkpt lat="42.915529981255531" lon="-8.320717038586736">
        <ele>399.39999999999998</ele>
        <time>2018-05-20T06:19:59Z</time>
      </trkpt>
      <trkpt lat="42.915549008175731" lon="-8.320660041645169">
        <ele>399.5</ele>
        <time>2018-05-20T06:20:00Z</time>
      </trkpt>
      <trkpt lat="42.91556803509593" lon="-8.320607990026474">
        <ele>399.60000000000002</ele>
        <time>2018-05-20T06:20:01Z</time>
      </trkpt>
      <trkpt lat="42.91559100151062" lon="-8.320528026670218">
        <ele>399.80000000000001</ele>
        <time>2018-05-20T06:20:03Z</time>
      </trkpt>
      <trkpt lat="42.915599970147014" lon="-8.320470023900271">
        <ele>399.80000000000001</ele>
        <time>2018-05-20T06:20:04Z</time>
      </trkpt>
      <trkpt lat="42.9156110342592" lon="-8.320421995595098">
        <ele>399.89999999999998</ele>
        <time>2018-05-20T06:20:06Z</time>
      </trkpt>
      <trkpt lat="42.915635006502271" lon="-8.320364998653531">
        <ele>399.80000000000001</ele>
        <time>2018-05-20T06:20:07Z</time>
      </trkpt>
      <trkpt lat="42.915643975138664" lon="-8.320306995883584">
        <ele>399.60000000000002</ele>
        <time>2018-05-20T06:20:08Z</time>
      </trkpt>
      <trkpt lat="42.915649004280567" lon="-8.320239018648863">
        <ele>399.30000000000001</ele>
        <time>2018-05-20T06:20:10Z</time>
      </trkpt>
      <trkpt lat="42.915657972916961" lon="-8.320186967030168">
        <ele>399.10000000000002</ele>
        <time>2018-05-20T06:20:11Z</time>
      </trkpt>
      <trkpt lat="42.915681023150682" lon="-8.320112032815814">
        <ele>399</ele>
        <time>2018-05-20T06:20:13Z</time>
      </trkpt>
      <trkpt lat="42.91569703258574" lon="-8.320070039480925">
        <ele>398.89999999999998</ele>
        <time>2018-05-20T06:20:14Z</time>
      </trkpt>
      <trkpt lat="42.915765009820461" lon="-8.319929977878928">
        <ele>398.80000000000001</ele>
        <time>2018-05-20T06:20:17Z</time>
      </trkpt>
      <trkpt lat="42.915868023410439" lon="-8.319655973464251">
        <ele>398.19999999999999</ele>
        <time>2018-05-20T06:20:24Z</time>
      </trkpt>
      <trkpt lat="42.915948992595077" lon="-8.319432009011507">
        <ele>397.19999999999999</ele>
        <time>2018-05-20T06:20:29Z</time>
      </trkpt>
      <trkpt lat="42.916075978428125" lon="-8.319094972684979">
        <ele>395.19999999999999</ele>
        <time>2018-05-20T06:20:38Z</time>
      </trkpt>
      <trkpt lat="42.916173040866852" lon="-8.318886011838913">
        <ele>393.89999999999998</ele>
        <time>2018-05-20T06:20:43Z</time>
      </trkpt>
      <trkpt lat="42.91623598895967" lon="-8.318688031286001">
        <ele>392.60000000000002</ele>
        <time>2018-05-20T06:20:48Z</time>
      </trkpt>
      <trkpt lat="42.916302960366011" lon="-8.318458031862974">
        <ele>391.39999999999998</ele>
        <time>2018-05-20T06:20:53Z</time>
      </trkpt>
      <trkpt lat="42.916346965357661" lon="-8.318280000239611">
        <ele>390.30000000000001</ele>
        <time>2018-05-20T06:20:57Z</time>
      </trkpt>
      <trkpt lat="42.916403040289879" lon="-8.318042038008571">
        <ele>389</ele>
        <time>2018-05-20T06:21:03Z</time>
      </trkpt>
      <trkpt lat="42.916442016139627" lon="-8.317793011665344">
        <ele>387.69999999999999</ele>
        <time>2018-05-20T06:21:08Z</time>
      </trkpt>
      <trkpt lat="42.916484009474516" lon="-8.31754800863564">
        <ele>386.69999999999999</ele>
        <time>2018-05-20T06:21:14Z</time>
      </trkpt>
      <trkpt lat="42.916513010859489" lon="-8.317280961200595">
        <ele>385.5</ele>
        <time>2018-05-20T06:21:19Z</time>
      </trkpt>
      <trkpt lat="42.916564978659153" lon="-8.31705498509109">
        <ele>384.5</ele>
        <time>2018-05-20T06:21:25Z</time>
      </trkpt>
      <trkpt lat="42.916616024449468" lon="-8.316791038960218">
        <ele>383.30000000000001</ele>
        <time>2018-05-20T06:21:31Z</time>
      </trkpt>
      <trkpt lat="42.916647959500551" lon="-8.31651502288878">
        <ele>382.10000000000002</ele>
        <time>2018-05-20T06:21:37Z</time>
      </trkpt>
      <trkpt lat="42.916690036654472" lon="-8.316276976838708">
        <ele>381.10000000000002</ele>
        <time>2018-05-20T06:21:42Z</time>
      </trkpt>
      <trkpt lat="42.916731024160981" lon="-8.31600297242403">
        <ele>380.30000000000001</ele>
        <time>2018-05-20T06:21:48Z</time>
      </trkpt>
      <trkpt lat="42.916777962818742" lon="-8.315770961344242">
        <ele>379.80000000000001</ele>
        <time>2018-05-20T06:21:53Z</time>
      </trkpt>
      <trkpt lat="42.916781986132264" lon="-8.315726034343243">
        <ele>379.69999999999999</ele>
        <time>2018-05-20T06:21:54Z</time>
      </trkpt>
      <trkpt lat="42.916787015274167" lon="-8.315671971067786">
        <ele>379.60000000000002</ele>
        <time>2018-05-20T06:21:55Z</time>
      </trkpt>
      <trkpt lat="42.916801013052464" lon="-8.315631989389658">
        <ele>379.5</ele>
        <time>2018-05-20T06:21:56Z</time>
      </trkpt>
      <trkpt lat="42.916820039972663" lon="-8.315597036853433">
        <ele>379.5</ele>
        <time>2018-05-20T06:21:57Z</time>
      </trkpt>
      <trkpt lat="42.916843006387353" lon="-8.315563006326556">
        <ele>379.5</ele>
        <time>2018-05-20T06:21:58Z</time>
      </trkpt>
      <trkpt lat="42.916874019429088" lon="-8.315538028255105">
        <ele>379.5</ele>
        <time>2018-05-20T06:21:59Z</time>
      </trkpt>
      <trkpt lat="42.916910983622074" lon="-8.315514978021383">
        <ele>379.60000000000002</ele>
        <time>2018-05-20T06:22:01Z</time>
      </trkpt>
      <trkpt lat="42.916938979178667" lon="-8.315474996343255">
        <ele>379.60000000000002</ele>
        <time>2018-05-20T06:22:02Z</time>
      </trkpt>
      <trkpt lat="42.916972003877163" lon="-8.315439959987998">
        <ele>379.60000000000002</ele>
        <time>2018-05-20T06:22:03Z</time>
      </trkpt>
      <trkpt lat="42.916994970291853" lon="-8.315387992188335">
        <ele>379.60000000000002</ele>
        <time>2018-05-20T06:22:04Z</time>
      </trkpt>
      <trkpt lat="42.917012991383672" lon="-8.315343987196684">
        <ele>379.69999999999999</ele>
        <time>2018-05-20T06:22:05Z</time>
      </trkpt>
      <trkpt lat="42.917012991383672" lon="-8.315284978598356">
        <ele>379.60000000000002</ele>
        <time>2018-05-20T06:22:07Z</time>
      </trkpt>
      <trkpt lat="42.917012991383672" lon="-8.315230999141932">
        <ele>379.5</ele>
        <time>2018-05-20T06:22:08Z</time>
      </trkpt>
      <trkpt lat="42.917012991383672" lon="-8.315167967230082">
        <ele>379.39999999999998</ele>
        <time>2018-05-20T06:22:09Z</time>
      </trkpt>
      <trkpt lat="42.917012991383672" lon="-8.315109964460135">
        <ele>379.39999999999998</ele>
        <time>2018-05-20T06:22:10Z</time>
      </trkpt>
      <trkpt lat="42.917017014697194" lon="-8.315059002488852">
        <ele>379.30000000000001</ele>
        <time>2018-05-20T06:22:12Z</time>
      </trkpt>
      <trkpt lat="42.917017014697194" lon="-8.314996976405382">
        <ele>379.30000000000001</ele>
        <time>2018-05-20T06:22:13Z</time>
      </trkpt>
      <trkpt lat="42.917021960020065" lon="-8.314939979463816">
        <ele>379.19999999999999</ele>
        <time>2018-05-20T06:22:14Z</time>
      </trkpt>
      <trkpt lat="42.917040986940265" lon="-8.314897986128926">
        <ele>379.19999999999999</ele>
        <time>2018-05-20T06:22:15Z</time>
      </trkpt>
      <trkpt lat="42.91705003939569" lon="-8.314824979752302">
        <ele>379.19999999999999</ele>
        <time>2018-05-20T06:22:17Z</time>
      </trkpt>
      <trkpt lat="42.917087003588676" lon="-8.314521973952651">
        <ele>378.80000000000001</ele>
        <time>2018-05-20T06:22:23Z</time>
      </trkpt>
      <trkpt lat="42.917111981660128" lon="-8.314313013106585">
        <ele>378.10000000000002</ele>
        <time>2018-05-20T06:22:28Z</time>
      </trkpt>
      <trkpt lat="42.917125979438424" lon="-8.314050994813442">
        <ele>377.19999999999999</ele>
        <time>2018-05-20T06:22:34Z</time>
      </trkpt>
      <trkpt lat="42.917125979438424" lon="-8.314043032005429">
        <ele>377.19999999999999</ele>
        <time>2018-05-20T06:22:34Z</time>
      </trkpt>
      <trkpt lat="42.917189011350274" lon="-8.313603987917304">
        <ele>376.19999999999999</ele>
        <time>2018-05-20T06:22:44Z</time>
      </trkpt>
      <trkpt lat="42.917235027998686" lon="-8.313211966305971">
        <ele>376.10000000000002</ele>
        <time>2018-05-20T06:22:52Z</time>
      </trkpt>
      <trkpt lat="42.917266041040421" lon="-8.312765965238214">
        <ele>376</ele>
        <time>2018-05-20T06:23:02Z</time>
      </trkpt>
      <trkpt lat="42.91730803437531" lon="-8.312464971095324">
        <ele>376.10000000000002</ele>
        <time>2018-05-20T06:23:09Z</time>
      </trkpt>
      <trkpt lat="42.91730803437531" lon="-8.312458014115691">
        <ele>376.10000000000002</ele>
        <time>2018-05-20T06:23:09Z</time>
      </trkpt>
      <trkpt lat="42.917340975254774" lon="-8.312070015817881">
        <ele>375.89999999999998</ele>
        <time>2018-05-20T06:23:17Z</time>
      </trkpt>
      <trkpt lat="42.917383974418044" lon="-8.311655027791858">
        <ele>374.39999999999998</ele>
        <time>2018-05-20T06:23:26Z</time>
      </trkpt>
      <trkpt lat="42.917444994673133" lon="-8.311082040891051">
        <ele>372.10000000000002</ele>
        <time>2018-05-20T06:23:39Z</time>
      </trkpt>
      <trkpt lat="42.917493022978306" lon="-8.310700999572873">
        <ele>370.39999999999998</ele>
        <time>2018-05-20T06:23:47Z</time>
      </trkpt>
      <trkpt lat="42.917542979121208" lon="-8.310497989878058">
        <ele>369.39999999999998</ele>
        <time>2018-05-20T06:23:52Z</time>
      </trkpt>
      <trkpt lat="42.917608022689819" lon="-8.310504024848342">
        <ele>369.39999999999998</ele>
        <time>2018-05-20T06:23:54Z</time>
      </trkpt>
      <trkpt lat="42.917812038213015" lon="-8.31054400652647">
        <ele>369.69999999999999</ele>
        <time>2018-05-20T06:24:00Z</time>
      </trkpt>
      <trkpt lat="42.917969031259418" lon="-8.31058599986136">
        <ele>370.19999999999999</ele>
        <time>2018-05-20T06:24:05Z</time>
      </trkpt>
      <trkpt lat="42.91812501847744" lon="-8.310621036216617">
        <ele>371.10000000000002</ele>
        <time>2018-05-20T06:24:09Z</time>
      </trkpt>
      <trkpt lat="42.918242029845715" lon="-8.31064903177321">
        <ele>371.69999999999999</ele>
        <time>2018-05-20T06:24:13Z</time>
      </trkpt>
      <trkpt lat="42.918264996260405" lon="-8.31064903177321">
        <ele>371.80000000000001</ele>
        <time>2018-05-20T06:24:14Z</time>
      </trkpt>
      <trkpt lat="42.918299026787281" lon="-8.310637967661023">
        <ele>371.89999999999998</ele>
        <time>2018-05-20T06:24:15Z</time>
      </trkpt>
      <trkpt lat="42.918324004858732" lon="-8.310615001246333">
        <ele>371.89999999999998</ele>
        <time>2018-05-20T06:24:15Z</time>
      </trkpt>
      <trkpt lat="42.918343031778932" lon="-8.310575019568205">
        <ele>371.80000000000001</ele>
        <time>2018-05-20T06:24:16Z</time>
      </trkpt>
      <trkpt lat="42.918364992365241" lon="-8.310515005141497">
        <ele>371.60000000000002</ele>
        <time>2018-05-20T06:24:18Z</time>
      </trkpt>
      <trkpt lat="42.918373961001635" lon="-8.310468988493085">
        <ele>371.39999999999998</ele>
        <time>2018-05-20T06:24:19Z</time>
      </trkpt>
      <trkpt lat="42.918373961001635" lon="-8.310411991551518">
        <ele>371.19999999999999</ele>
        <time>2018-05-20T06:24:20Z</time>
      </trkpt>
      <trkpt lat="42.918373961001635" lon="-8.310336973518133">
        <ele>371</ele>
        <time>2018-05-20T06:24:22Z</time>
      </trkpt>
      <trkpt lat="42.918387958779931" lon="-8.310247035697103">
        <ele>370.89999999999998</ele>
        <time>2018-05-20T06:24:24Z</time>
      </trkpt>
      <trkpt lat="42.918398017063737" lon="-8.310104962438345">
        <ele>370.69999999999999</ele>
        <time>2018-05-20T06:24:27Z</time>
      </trkpt>
      <trkpt lat="42.918398017063737" lon="-8.309951992705464">
        <ele>370.30000000000001</ele>
        <time>2018-05-20T06:24:30Z</time>
      </trkpt>
      <trkpt lat="42.918392987921834" lon="-8.309794999659061">
        <ele>370</ele>
        <time>2018-05-20T06:24:34Z</time>
      </trkpt>
      <trkpt lat="42.918392987921834" lon="-8.309587966650724">
        <ele>369.60000000000002</ele>
        <time>2018-05-20T06:24:38Z</time>
      </trkpt>
      <trkpt lat="42.918392987921834" lon="-8.309379005804658">
        <ele>368.69999999999999</ele>
        <time>2018-05-20T06:24:43Z</time>
      </trkpt>
      <trkpt lat="42.918392987921834" lon="-8.30921396613121">
        <ele>368.10000000000002</ele>
        <time>2018-05-20T06:24:46Z</time>
      </trkpt>
      <trkpt lat="42.918392987921834" lon="-8.309197034686804">
        <ele>368</ele>
        <time>2018-05-20T06:24:47Z</time>
      </trkpt>
      <trkpt lat="42.918398017063737" lon="-8.309134002774954">
        <ele>367.69999999999999</ele>
        <time>2018-05-20T06:24:48Z</time>
      </trkpt>
      <trkpt lat="42.918398017063737" lon="-8.30908203497529">
        <ele>367.5</ele>
        <time>2018-05-20T06:24:49Z</time>
      </trkpt>
      <trkpt lat="42.91840698570013" lon="-8.309030989184976">
        <ele>367.30000000000001</ele>
        <time>2018-05-20T06:24:50Z</time>
      </trkpt>
      <trkpt lat="42.918430035933852" lon="-8.308982960879803">
        <ele>367.19999999999999</ele>
        <time>2018-05-20T06:24:52Z</time>
      </trkpt>
      <trkpt lat="42.918458031490445" lon="-8.308948008343577">
        <ele>367.10000000000002</ele>
        <time>2018-05-20T06:24:53Z</time>
      </trkpt>
      <trkpt lat="42.918476974591613" lon="-8.308873996138573">
        <ele>366.80000000000001</ele>
        <time>2018-05-20T06:24:54Z</time>
      </trkpt>
      <trkpt lat="42.918488038703799" lon="-8.308820016682148">
        <ele>366.69999999999999</ele>
        <time>2018-05-20T06:24:56Z</time>
      </trkpt>
      <trkpt lat="42.918493989855051" lon="-8.308771988376975">
        <ele>366.5</ele>
        <time>2018-05-20T06:24:57Z</time>
      </trkpt>
      <trkpt lat="42.918485021218657" lon="-8.308709040284157">
        <ele>366.30000000000001</ele>
        <time>2018-05-20T06:24:58Z</time>
      </trkpt>
      <trkpt lat="42.918465994298458" lon="-8.308663023635745">
        <ele>366.10000000000002</ele>
        <time>2018-05-20T06:24:59Z</time>
      </trkpt>
      <trkpt lat="42.918447973206639" lon="-8.308599991723895">
        <ele>365.89999999999998</ele>
        <time>2018-05-20T06:25:01Z</time>
      </trkpt>
      <trkpt lat="42.918437998741865" lon="-8.308541988953948">
        <ele>365.80000000000001</ele>
        <time>2018-05-20T06:25:02Z</time>
      </trkpt>
      <trkpt lat="42.918447973206639" lon="-8.30847904086113">
        <ele>365.60000000000002</ele>
        <time>2018-05-20T06:25:03Z</time>
      </trkpt>
      <trkpt lat="42.918447973206639" lon="-8.308421960100532">
        <ele>365.5</ele>
        <time>2018-05-20T06:25:05Z</time>
      </trkpt>
      <trkpt lat="42.918447973206639" lon="-8.308345014229417">
        <ele>365.30000000000001</ele>
        <time>2018-05-20T06:25:06Z</time>
      </trkpt>
      <trkpt lat="42.918457025662065" lon="-8.308148039504886">
        <ele>364.89999999999998</ele>
        <time>2018-05-20T06:25:10Z</time>
      </trkpt>
      <trkpt lat="42.918473035097122" lon="-8.307912005111575">
        <ele>364.30000000000001</ele>
        <time>2018-05-20T06:25:16Z</time>
      </trkpt>
      <trkpt lat="42.918515028432012" lon="-8.307821983471513">
        <ele>364.19999999999999</ele>
        <time>2018-05-20T06:25:18Z</time>
      </trkpt>
      <trkpt lat="42.918523997068405" lon="-8.30777202732861">
        <ele>364.10000000000002</ele>
        <time>2018-05-20T06:25:19Z</time>
      </trkpt>
      <trkpt lat="42.918543023988605" lon="-8.307726010680199">
        <ele>364</ele>
        <time>2018-05-20T06:25:20Z</time>
      </trkpt>
      <trkpt lat="42.918558027595282" lon="-8.307667002081871">
        <ele>363.89999999999998</ele>
        <time>2018-05-20T06:25:22Z</time>
      </trkpt>
      <trkpt lat="42.918624999001622" lon="-8.307574968785048">
        <ele>363.89999999999998</ele>
        <time>2018-05-20T06:25:24Z</time>
      </trkpt>
      <trkpt lat="42.918718038126826" lon="-8.307415964081883">
        <ele>363.69999999999999</ele>
        <time>2018-05-20T06:25:29Z</time>
      </trkpt>
      <trkpt lat="42.918839994817972" lon="-8.307217983528972">
        <ele>363.89999999999998</ele>
        <time>2018-05-20T06:25:34Z</time>
      </trkpt>
      <trkpt lat="42.91891903616488" lon="-8.307072976604104">
        <ele>364.19999999999999</ele>
        <time>2018-05-20T06:25:38Z</time>
      </trkpt>
      <trkpt lat="42.918991958722472" lon="-8.306930987164378">
        <ele>365</ele>
        <time>2018-05-20T06:25:42Z</time>
      </trkpt>
      <trkpt lat="42.918996987864375" lon="-8.306919001042843">
        <ele>365.10000000000002</ele>
        <time>2018-05-20T06:25:42Z</time>
      </trkpt>
      <trkpt lat="42.919015008956194" lon="-8.306872984394431">
        <ele>365.30000000000001</ele>
        <time>2018-05-20T06:25:43Z</time>
      </trkpt>
      <trkpt lat="42.919034035876393" lon="-8.306839037686586">
        <ele>365.39999999999998</ele>
        <time>2018-05-20T06:25:44Z</time>
      </trkpt>
      <trkpt lat="42.919038981199265" lon="-8.30678497441113">
        <ele>365.5</ele>
        <time>2018-05-20T06:25:46Z</time>
      </trkpt>
      <trkpt lat="42.919038981199265" lon="-8.306733006611466">
        <ele>365.60000000000002</ele>
        <time>2018-05-20T06:25:47Z</time>
      </trkpt>
      <trkpt lat="42.919038981199265" lon="-8.306681960821152">
        <ele>365.69999999999999</ele>
        <time>2018-05-20T06:25:48Z</time>
      </trkpt>
      <trkpt lat="42.91902900673449" lon="-8.306600991636515">
        <ele>365.80000000000001</ele>
        <time>2018-05-20T06:25:50Z</time>
      </trkpt>
      <trkpt lat="42.91902900673449" lon="-8.306543994694948">
        <ele>365.89999999999998</ele>
        <time>2018-05-20T06:25:51Z</time>
      </trkpt>
      <trkpt lat="42.919024983420968" lon="-8.306485991925001">
        <ele>365.89999999999998</ele>
        <time>2018-05-20T06:25:52Z</time>
      </trkpt>
      <trkpt lat="42.919020038098097" lon="-8.306411979719997">
        <ele>366</ele>
        <time>2018-05-20T06:25:54Z</time>
      </trkpt>
      <trkpt lat="42.919010985642672" lon="-8.306360011920333">
        <ele>366.10000000000002</ele>
        <time>2018-05-20T06:25:55Z</time>
      </trkpt>
      <trkpt lat="42.9190060403198" lon="-8.306279964745045">
        <ele>366.19999999999999</ele>
        <time>2018-05-20T06:25:57Z</time>
      </trkpt>
      <trkpt lat="42.9190060403198" lon="-8.306217016652226">
        <ele>366.39999999999998</ele>
        <time>2018-05-20T06:25:58Z</time>
      </trkpt>
      <trkpt lat="42.9190060403198" lon="-8.306159013882279">
        <ele>366.69999999999999</ele>
        <time>2018-05-20T06:25:59Z</time>
      </trkpt>
      <trkpt lat="42.9190060403198" lon="-8.306102016940713">
        <ele>367</ele>
        <time>2018-05-20T06:26:00Z</time>
      </trkpt>
      <trkpt lat="42.9190060403198" lon="-8.306026998907328">
        <ele>367.39999999999998</ele>
        <time>2018-05-20T06:26:02Z</time>
      </trkpt>
      <trkpt lat="42.9190060403198" lon="-8.305970001965761">
        <ele>367.69999999999999</ele>
        <time>2018-05-20T06:26:03Z</time>
      </trkpt>
      <trkpt lat="42.9190060403198" lon="-8.305905964225531">
        <ele>368</ele>
        <time>2018-05-20T06:26:05Z</time>
      </trkpt>
      <trkpt lat="42.9190060403198" lon="-8.305855002254248">
        <ele>368.30000000000001</ele>
        <time>2018-05-20T06:26:06Z</time>
      </trkpt>
      <trkpt lat="42.9190060403198" lon="-8.305792976170778">
        <ele>368.60000000000002</ele>
        <time>2018-05-20T06:26:07Z</time>
      </trkpt>
      <trkpt lat="42.918991958722472" lon="-8.305742014199495">
        <ele>368.89999999999998</ele>
        <time>2018-05-20T06:26:08Z</time>
      </trkpt>
      <trkpt lat="42.918959017843008" lon="-8.305699015036225">
        <ele>369</ele>
        <time>2018-05-20T06:26:10Z</time>
      </trkpt>
      <trkpt lat="42.918916018679738" lon="-8.305664984509349">
        <ele>369</ele>
        <time>2018-05-20T06:26:11Z</time>
      </trkpt>
      <trkpt lat="42.918877964839339" lon="-8.305633971467614">
        <ele>369.10000000000002</ele>
        <time>2018-05-20T06:26:13Z</time>
      </trkpt>
      <trkpt lat="42.918849969282746" lon="-8.305586026981473">
        <ele>369.30000000000001</ele>
        <time>2018-05-20T06:26:14Z</time>
      </trkpt>
      <trkpt lat="42.918827002868056" lon="-8.305551996454597">
        <ele>369.39999999999998</ele>
        <time>2018-05-20T06:26:15Z</time>
      </trkpt>
      <trkpt lat="42.918799007311463" lon="-8.30549399368465">
        <ele>369.69999999999999</ele>
        <time>2018-05-20T06:26:16Z</time>
      </trkpt>
      <trkpt lat="42.918799007311463" lon="-8.305442025884986">
        <ele>370</ele>
        <time>2018-05-20T06:26:17Z</time>
      </trkpt>
      <trkpt lat="42.91881300508976" lon="-8.305383017286658">
        <ele>370.30000000000001</ele>
        <time>2018-05-20T06:26:19Z</time>
      </trkpt>
      <trkpt lat="42.918845023959875" lon="-8.305337000638247">
        <ele>370.60000000000002</ele>
        <time>2018-05-20T06:26:20Z</time>
      </trkpt>
      <trkpt lat="42.918873019516468" lon="-8.305290983989835">
        <ele>370.89999999999998</ele>
        <time>2018-05-20T06:26:21Z</time>
      </trkpt>
      <trkpt lat="42.918896991759539" lon="-8.305244967341423">
        <ele>371.19999999999999</ele>
        <time>2018-05-20T06:26:23Z</time>
      </trkpt>
      <trkpt lat="42.918924987316132" lon="-8.30521596595645">
        <ele>371.5</ele>
        <time>2018-05-20T06:26:24Z</time>
      </trkpt>
      <trkpt lat="42.918938985094428" lon="-8.305175984278321">
        <ele>371.69999999999999</ele>
        <time>2018-05-20T06:26:25Z</time>
      </trkpt>
      <trkpt lat="42.918966980651021" lon="-8.30512996762991">
        <ele>372.10000000000002</ele>
        <time>2018-05-20T06:26:26Z</time>
      </trkpt>
      <trkpt lat="42.918994976207614" lon="-8.305104989558458">
        <ele>372.30000000000001</ele>
        <time>2018-05-20T06:26:27Z</time>
      </trkpt>
      <trkpt lat="42.919026995077729" lon="-8.305082023143768">
        <ele>372.5</ele>
        <time>2018-05-20T06:26:28Z</time>
      </trkpt>
      <trkpt lat="42.919064965099096" lon="-8.30506500788033">
        <ele>372.80000000000001</ele>
        <time>2018-05-20T06:26:29Z</time>
      </trkpt>
      <trkpt lat="42.919106958433986" lon="-8.305054027587175">
        <ele>373</ele>
        <time>2018-05-20T06:26:31Z</time>
      </trkpt>
      <trkpt lat="42.919126991182566" lon="-8.30502100288868">
        <ele>373.19999999999999</ele>
        <time>2018-05-20T06:26:31Z</time>
      </trkpt>
      <trkpt lat="42.919126991182566" lon="-8.304964005947113">
        <ele>373.60000000000002</ele>
        <time>2018-05-20T06:26:33Z</time>
      </trkpt>
      <trkpt lat="42.919132020324469" lon="-8.304906003177166">
        <ele>373.89999999999998</ele>
        <time>2018-05-20T06:26:34Z</time>
      </trkpt>
      <trkpt lat="42.919132020324469" lon="-8.304854035377502">
        <ele>374.19999999999999</ele>
        <time>2018-05-20T06:26:35Z</time>
      </trkpt>
      <trkpt lat="42.919135959818959" lon="-8.304802989587188">
        <ele>374.60000000000002</ele>
        <time>2018-05-20T06:26:36Z</time>
      </trkpt>
      <trkpt lat="42.919147023931146" lon="-8.304749010130763">
        <ele>374.89999999999998</ele>
        <time>2018-05-20T06:26:37Z</time>
      </trkpt>
      <trkpt lat="42.919169990345836" lon="-8.304541977122426">
        <ele>376.10000000000002</ele>
        <time>2018-05-20T06:26:42Z</time>
      </trkpt>
      <trkpt lat="42.919169990345836" lon="-8.304534014314413">
        <ele>376.10000000000002</ele>
        <time>2018-05-20T06:26:42Z</time>
      </trkpt>
      <trkpt lat="42.919197985902429" lon="-8.304340979084373">
        <ele>376.60000000000002</ele>
        <time>2018-05-20T06:26:46Z</time>
      </trkpt>
      <trkpt lat="42.919260011985898" lon="-8.304006038233638">
        <ele>377.60000000000002</ele>
        <time>2018-05-20T06:26:54Z</time>
      </trkpt>
      <trkpt lat="42.9193099681288" lon="-8.303824989125133">
        <ele>378.19999999999999</ele>
        <time>2018-05-20T06:26:58Z</time>
      </trkpt>
      <trkpt lat="42.9193099681288" lon="-8.303807973861694">
        <ele>378.19999999999999</ele>
        <time>2018-05-20T06:26:58Z</time>
      </trkpt>
      <trkpt lat="42.919320026412606" lon="-8.303757011890411">
        <ele>378.39999999999998</ele>
        <time>2018-05-20T06:27:00Z</time>
      </trkpt>
      <trkpt lat="42.919323965907097" lon="-8.30368802882731">
        <ele>378.39999999999998</ele>
        <time>2018-05-20T06:27:01Z</time>
      </trkpt>
      <trkpt lat="42.919323965907097" lon="-8.303633965551853">
        <ele>378.39999999999998</ele>
        <time>2018-05-20T06:27:02Z</time>
      </trkpt>
      <trkpt lat="42.919323965907097" lon="-8.303571017459035">
        <ele>378.39999999999998</ele>
        <time>2018-05-20T06:27:04Z</time>
      </trkpt>
      <trkpt lat="42.919314997270703" lon="-8.303507985547185">
        <ele>378.30000000000001</ele>
        <time>2018-05-20T06:27:05Z</time>
      </trkpt>
      <trkpt lat="42.919314997270703" lon="-8.30345400609076">
        <ele>378.30000000000001</ele>
        <time>2018-05-20T06:27:06Z</time>
      </trkpt>
      <trkpt lat="42.91930602863431" lon="-8.303402038291097">
        <ele>378.19999999999999</ele>
        <time>2018-05-20T06:27:07Z</time>
      </trkpt>
      <trkpt lat="42.91930602863431" lon="-8.303348980844021">
        <ele>378.19999999999999</ele>
        <time>2018-05-20T06:27:09Z</time>
      </trkpt>
      <trkpt lat="42.919295970350504" lon="-8.303297013044357">
        <ele>378.10000000000002</ele>
        <time>2018-05-20T06:27:10Z</time>
      </trkpt>
      <trkpt lat="42.919295970350504" lon="-8.30323901027441">
        <ele>378.10000000000002</ele>
        <time>2018-05-20T06:27:11Z</time>
      </trkpt>
      <trkpt lat="42.919292030856013" lon="-8.303187964484096">
        <ele>378</ele>
        <time>2018-05-20T06:27:12Z</time>
      </trkpt>
      <trkpt lat="42.919281972572207" lon="-8.303135996684432">
        <ele>378</ele>
        <time>2018-05-20T06:27:13Z</time>
      </trkpt>
      <trkpt lat="42.919281972572207" lon="-8.303078999742866">
        <ele>378</ele>
        <time>2018-05-20T06:27:14Z</time>
      </trkpt>
      <trkpt lat="42.919281972572207" lon="-8.303027031943202">
        <ele>378</ele>
        <time>2018-05-20T06:27:16Z</time>
      </trkpt>
      <trkpt lat="42.919273003935814" lon="-8.302961988374591">
        <ele>377.89999999999998</ele>
        <time>2018-05-20T06:27:17Z</time>
      </trkpt>
      <trkpt lat="42.919259006157517" lon="-8.302793009206653">
        <ele>377.60000000000002</ele>
        <time>2018-05-20T06:27:21Z</time>
      </trkpt>
      <trkpt lat="42.919221958145499" lon="-8.302643978968263">
        <ele>377.19999999999999</ele>
        <time>2018-05-20T06:27:24Z</time>
      </trkpt>
      <trkpt lat="42.919217012822628" lon="-8.302580025047064">
        <ele>377.10000000000002</ele>
        <time>2018-05-20T06:27:26Z</time>
      </trkpt>
      <trkpt lat="42.919207960367203" lon="-8.30251095816493">
        <ele>376.89999999999998</ele>
        <time>2018-05-20T06:27:27Z</time>
      </trkpt>
      <trkpt lat="42.919193962588906" lon="-8.302448010072112">
        <ele>376.80000000000001</ele>
        <time>2018-05-20T06:27:28Z</time>
      </trkpt>
      <trkpt lat="42.919175019487739" lon="-8.302367962896824">
        <ele>376.5</ele>
        <time>2018-05-20T06:27:30Z</time>
      </trkpt>
      <trkpt lat="42.919165967032313" lon="-8.302327981218696">
        <ele>376.39999999999998</ele>
        <time>2018-05-20T06:27:31Z</time>
      </trkpt>
      <trkpt lat="42.919151969254017" lon="-8.30222999677062">
        <ele>376.19999999999999</ele>
        <time>2018-05-20T06:27:33Z</time>
      </trkpt>
      <trkpt lat="42.919141994789243" lon="-8.302178028970957">
        <ele>376.10000000000002</ele>
        <time>2018-05-20T06:27:35Z</time>
      </trkpt>
      <trkpt lat="42.919127997010946" lon="-8.302097981795669">
        <ele>375.80000000000001</ele>
        <time>2018-05-20T06:27:36Z</time>
      </trkpt>
      <trkpt lat="42.919123973697424" lon="-8.302022963762283">
        <ele>375.80000000000001</ele>
        <time>2018-05-20T06:27:38Z</time>
      </trkpt>
      <trkpt lat="42.919105030596256" lon="-8.301953980699182">
        <ele>375.60000000000002</ele>
        <time>2018-05-20T06:27:40Z</time>
      </trkpt>
      <trkpt lat="42.919105030596256" lon="-8.301891032606363">
        <ele>375.60000000000002</ele>
        <time>2018-05-20T06:27:41Z</time>
      </trkpt>
      <trkpt lat="42.919101007282734" lon="-8.30182196572423">
        <ele>375.5</ele>
        <time>2018-05-20T06:27:42Z</time>
      </trkpt>
      <trkpt lat="42.919095978140831" lon="-8.301771003752947">
        <ele>375.39999999999998</ele>
        <time>2018-05-20T06:27:44Z</time>
      </trkpt>
      <trkpt lat="42.919087009504437" lon="-8.301719035953283">
        <ele>375.39999999999998</ele>
        <time>2018-05-20T06:27:45Z</time>
      </trkpt>
      <trkpt lat="42.919067982584238" lon="-8.301644017919898">
        <ele>375.19999999999999</ele>
        <time>2018-05-20T06:27:46Z</time>
      </trkpt>
      <trkpt lat="42.919045016169548" lon="-8.30160403624177">
        <ele>375</ele>
        <time>2018-05-20T06:27:48Z</time>
      </trkpt>
      <trkpt lat="42.919020960107446" lon="-8.301547039300203">
        <ele>374.89999999999998</ele>
        <time>2018-05-20T06:27:49Z</time>
      </trkpt>
      <trkpt lat="42.918992964550853" lon="-8.301494987681508">
        <ele>374.69999999999999</ele>
        <time>2018-05-20T06:27:50Z</time>
      </trkpt>
      <trkpt lat="42.918978966772556" lon="-8.301443019881845">
        <ele>374.5</ele>
        <time>2018-05-20T06:27:52Z</time>
      </trkpt>
      <trkpt lat="42.918956000357866" lon="-8.301372025161982">
        <ele>374.30000000000001</ele>
        <time>2018-05-20T06:27:53Z</time>
      </trkpt>
      <trkpt lat="42.91894200257957" lon="-8.30132600851357">
        <ele>374.19999999999999</ele>
        <time>2018-05-20T06:27:54Z</time>
      </trkpt>
      <trkpt lat="42.91892297565937" lon="-8.301274962723255">
        <ele>374.10000000000002</ele>
        <time>2018-05-20T06:27:56Z</time>
      </trkpt>
      <trkpt lat="42.918894980102777" lon="-8.301222994923592">
        <ele>373.80000000000001</ele>
        <time>2018-05-20T06:27:57Z</time>
      </trkpt>
      <trkpt lat="42.918872013688087" lon="-8.301165997982025">
        <ele>373.60000000000002</ele>
        <time>2018-05-20T06:27:58Z</time>
      </trkpt>
      <trkpt lat="42.918866984546185" lon="-8.301117969676852">
        <ele>373.5</ele>
        <time>2018-05-20T06:27:59Z</time>
      </trkpt>
      <trkpt lat="42.918882993981242" lon="-8.301081005483866">
        <ele>373.60000000000002</ele>
        <time>2018-05-20T06:28:00Z</time>
      </trkpt>
      <trkpt lat="42.918905960395932" lon="-8.301052004098892">
        <ele>373.69999999999999</ele>
        <time>2018-05-20T06:28:01Z</time>
      </trkpt>
      <trkpt lat="42.918930016458035" lon="-8.301005987450481">
        <ele>373.69999999999999</ele>
        <time>2018-05-20T06:28:02Z</time>
      </trkpt>
      <trkpt lat="42.918953988701105" lon="-8.300958964973688">
        <ele>373.80000000000001</ele>
        <time>2018-05-20T06:28:04Z</time>
      </trkpt>
      <trkpt lat="42.918973015621305" lon="-8.300917977467179">
        <ele>373.80000000000001</ele>
        <time>2018-05-20T06:28:05Z</time>
      </trkpt>
      <trkpt lat="42.919003022834659" lon="-8.300895011052489">
        <ele>374</ele>
        <time>2018-05-20T06:28:06Z</time>
      </trkpt>
      <trkpt lat="42.919081980362535" lon="-8.300816975533962">
        <ele>374.30000000000001</ele>
        <time>2018-05-20T06:28:09Z</time>
      </trkpt>
      <trkpt lat="42.919106958433986" lon="-8.300761990249157">
        <ele>374.30000000000001</ele>
        <time>2018-05-20T06:28:10Z</time>
      </trkpt>
      <trkpt lat="42.919150963425636" lon="-8.300636010244489">
        <ele>374.30000000000001</ele>
        <time>2018-05-20T06:28:13Z</time>
      </trkpt>
      <trkpt lat="42.919170996174216" lon="-8.300636010244489">
        <ele>374.39999999999998</ele>
        <time>2018-05-20T06:28:14Z</time>
      </trkpt>
      <trkpt lat="42.919213995337486" lon="-8.300474993884563">
        <ele>374.30000000000001</ele>
        <time>2018-05-20T06:28:17Z</time>
      </trkpt>
      <trkpt lat="42.919255988672376" lon="-8.300227979198098">
        <ele>373.80000000000001</ele>
        <time>2018-05-20T06:28:23Z</time>
      </trkpt>
      <trkpt lat="42.919279960915446" lon="-8.300065035000444">
        <ele>373.39999999999998</ele>
        <time>2018-05-20T06:28:27Z</time>
      </trkpt>
      <trkpt lat="42.91928599588573" lon="-8.300065035000444">
        <ele>373.5</ele>
        <time>2018-05-20T06:28:27Z</time>
      </trkpt>
      <trkpt lat="42.919316003099084" lon="-8.299946011975408">
        <ele>373.19999999999999</ele>
        <time>2018-05-20T06:28:29Z</time>
      </trkpt>
      <trkpt lat="42.919376017525792" lon="-8.299845010042191">
        <ele>373.10000000000002</ele>
        <time>2018-05-20T06:28:32Z</time>
      </trkpt>
      <trkpt lat="42.919466039165854" lon="-8.299727998673916">
        <ele>373.10000000000002</ele>
        <time>2018-05-20T06:28:36Z</time>
      </trkpt>
      <trkpt lat="42.919554971158504" lon="-8.299634037539363">
        <ele>373.10000000000002</ele>
        <time>2018-05-20T06:28:39Z</time>
      </trkpt>
      <trkpt lat="42.919566035270691" lon="-8.299610987305641">
        <ele>373</ele>
        <time>2018-05-20T06:28:40Z</time>
      </trkpt>
      <trkpt lat="42.919598976150155" lon="-8.29958600923419">
        <ele>373.10000000000002</ele>
        <time>2018-05-20T06:28:41Z</time>
      </trkpt>
      <trkpt lat="42.919636024162173" lon="-8.299539992585778">
        <ele>373.19999999999999</ele>
        <time>2018-05-20T06:28:42Z</time>
      </trkpt>
      <trkpt lat="42.919666031375527" lon="-8.299504034221172">
        <ele>373.30000000000001</ele>
        <time>2018-05-20T06:28:44Z</time>
      </trkpt>
      <trkpt lat="42.919705007225275" lon="-8.299490036442876">
        <ele>373.5</ele>
        <time>2018-05-20T06:28:45Z</time>
      </trkpt>
      <trkpt lat="42.919741971418262" lon="-8.299473021179438">
        <ele>373.60000000000002</ele>
        <time>2018-05-20T06:28:46Z</time>
      </trkpt>
      <trkpt lat="42.919781031087041" lon="-8.299449970945716">
        <ele>373.80000000000001</ele>
        <time>2018-05-20T06:28:47Z</time>
      </trkpt>
      <trkpt lat="42.91982302442193" lon="-8.299427004531026">
        <ele>373.89999999999998</ele>
        <time>2018-05-20T06:28:49Z</time>
      </trkpt>
      <trkpt lat="42.91984599083662" lon="-8.299392974004149">
        <ele>374</ele>
        <time>2018-05-20T06:28:50Z</time>
      </trkpt>
      <trkpt lat="42.919873986393213" lon="-8.299363972619176">
        <ele>374</ele>
        <time>2018-05-20T06:28:51Z</time>
      </trkpt>
      <trkpt lat="42.919901981949806" lon="-8.299330025911331">
        <ele>374.10000000000002</ele>
        <time>2018-05-20T06:28:52Z</time>
      </trkpt>
      <trkpt lat="42.919935006648302" lon="-8.299294989556074">
        <ele>374.19999999999999</ele>
        <time>2018-05-20T06:28:53Z</time>
      </trkpt>
      <trkpt lat="42.919957973062992" lon="-8.299265988171101">
        <ele>374.19999999999999</ele>
        <time>2018-05-20T06:28:54Z</time>
      </trkpt>
      <trkpt lat="42.919990997761488" lon="-8.299243021756411">
        <ele>374.30000000000001</ele>
        <time>2018-05-20T06:28:55Z</time>
      </trkpt>
      <trkpt lat="42.920014970004559" lon="-8.299208991229534">
        <ele>374.39999999999998</ele>
        <time>2018-05-20T06:28:56Z</time>
      </trkpt>
      <trkpt lat="42.920042965561152" lon="-8.299179989844561">
        <ele>374.5</ele>
        <time>2018-05-20T06:28:57Z</time>
      </trkpt>
      <trkpt lat="42.920067021623254" lon="-8.299145959317684">
        <ele>374.5</ele>
        <time>2018-05-20T06:28:58Z</time>
      </trkpt>
      <trkpt lat="42.92008101940155" lon="-8.299105977639556">
        <ele>374.5</ele>
        <time>2018-05-20T06:28:59Z</time>
      </trkpt>
      <trkpt lat="42.92010398581624" lon="-8.299071025103331">
        <ele>374.5</ele>
        <time>2018-05-20T06:29:00Z</time>
      </trkpt>
      <trkpt lat="42.920127036049962" lon="-8.299030959606171">
        <ele>374.5</ele>
        <time>2018-05-20T06:29:01Z</time>
      </trkpt>
      <trkpt lat="42.920151008293033" lon="-8.299000030383468">
        <ele>374.5</ele>
        <time>2018-05-20T06:29:02Z</time>
      </trkpt>
      <trkpt lat="42.920179003849626" lon="-8.298959964886308">
        <ele>374.60000000000002</ele>
        <time>2018-05-20T06:29:03Z</time>
      </trkpt>
      <trkpt lat="42.920206999406219" lon="-8.298917971551418">
        <ele>374.60000000000002</ele>
        <time>2018-05-20T06:29:05Z</time>
      </trkpt>
      <trkpt lat="42.920222003012896" lon="-8.298866003751755">
        <ele>374.5</ele>
        <time>2018-05-20T06:29:06Z</time>
      </trkpt>
      <trkpt lat="42.92023197747767" lon="-8.29879098571837">
        <ele>374.39999999999998</ele>
        <time>2018-05-20T06:29:07Z</time>
      </trkpt>
      <trkpt lat="42.920246981084347" lon="-8.298715967684984">
        <ele>374.5</ele>
        <time>2018-05-20T06:29:09Z</time>
      </trkpt>
      <trkpt lat="42.920257039368153" lon="-8.298668023198843">
        <ele>374.69999999999999</ele>
        <time>2018-05-20T06:29:10Z</time>
      </trkpt>
      <trkpt lat="42.920257039368153" lon="-8.298616977408528">
        <ele>374.89999999999998</ele>
        <time>2018-05-20T06:29:11Z</time>
      </trkpt>
      <trkpt lat="42.920257039368153" lon="-8.298558974638581">
        <ele>375.10000000000002</ele>
        <time>2018-05-20T06:29:13Z</time>
      </trkpt>
      <trkpt lat="42.920257039368153" lon="-8.298508012667298">
        <ele>375.30000000000001</ele>
        <time>2018-05-20T06:29:14Z</time>
      </trkpt>
      <trkpt lat="42.920257039368153" lon="-8.298454033210874">
        <ele>375.5</ele>
        <time>2018-05-20T06:29:15Z</time>
      </trkpt>
      <trkpt lat="42.920257039368153" lon="-8.298325035721064">
        <ele>376</ele>
        <time>2018-05-20T06:29:18Z</time>
      </trkpt>
      <trkpt lat="42.920257039368153" lon="-8.298178017139435">
        <ele>376.5</ele>
        <time>2018-05-20T06:29:21Z</time>
      </trkpt>
      <trkpt lat="42.92027497664094" lon="-8.298069974407554">
        <ele>376.89999999999998</ele>
        <time>2018-05-20T06:29:23Z</time>
      </trkpt>
      <trkpt lat="42.92031898163259" lon="-8.297914993017912">
        <ele>377.69999999999999</ele>
        <time>2018-05-20T06:29:27Z</time>
      </trkpt>
      <trkpt lat="42.920370027422905" lon="-8.297765962779522">
        <ele>380</ele>
        <time>2018-05-20T06:29:30Z</time>
      </trkpt>
      <trkpt lat="42.920384025201201" lon="-8.297735033556819">
        <ele>380.5</ele>
        <time>2018-05-20T06:29:31Z</time>
      </trkpt>
      <trkpt lat="42.920388970524073" lon="-8.297682981938124">
        <ele>381.30000000000001</ele>
        <time>2018-05-20T06:29:32Z</time>
      </trkpt>
      <trkpt lat="42.920393999665976" lon="-8.297615004703403">
        <ele>382.30000000000001</ele>
        <time>2018-05-20T06:29:34Z</time>
      </trkpt>
      <trkpt lat="42.920398022979498" lon="-8.297563036903739">
        <ele>383</ele>
        <time>2018-05-20T06:29:35Z</time>
      </trkpt>
      <trkpt lat="42.920407997444272" lon="-8.297517020255327">
        <ele>383.69999999999999</ele>
        <time>2018-05-20T06:29:36Z</time>
      </trkpt>
      <trkpt lat="42.920416966080666" lon="-8.297464968636632">
        <ele>384.5</ele>
        <time>2018-05-20T06:29:37Z</time>
      </trkpt>
      <trkpt lat="42.920426018536091" lon="-8.297402020543814">
        <ele>385.39999999999998</ele>
        <time>2018-05-20T06:29:39Z</time>
      </trkpt>
      <trkpt lat="42.920440016314387" lon="-8.297362038865686">
        <ele>385.89999999999998</ele>
        <time>2018-05-20T06:29:40Z</time>
      </trkpt>
      <trkpt lat="42.920454014092684" lon="-8.297316022217274">
        <ele>386.5</ele>
        <time>2018-05-20T06:29:41Z</time>
      </trkpt>
      <trkpt lat="42.920463988557458" lon="-8.297270005568862">
        <ele>387.10000000000002</ele>
        <time>2018-05-20T06:29:42Z</time>
      </trkpt>
      <trkpt lat="42.920482009649277" lon="-8.29722398892045">
        <ele>387.69999999999999</ele>
        <time>2018-05-20T06:29:43Z</time>
      </trkpt>
      <trkpt lat="42.920501036569476" lon="-8.297177972272039">
        <ele>388.30000000000001</ele>
        <time>2018-05-20T06:29:44Z</time>
      </trkpt>
      <trkpt lat="42.920524002984166" lon="-8.297144025564194">
        <ele>388.60000000000002</ele>
        <time>2018-05-20T06:29:45Z</time>
      </trkpt>
      <trkpt lat="42.920546969398856" lon="-8.297113012522459">
        <ele>389</ele>
        <time>2018-05-20T06:29:46Z</time>
      </trkpt>
      <trkpt lat="42.920571025460958" lon="-8.297077976167202">
        <ele>389.30000000000001</ele>
        <time>2018-05-20T06:29:47Z</time>
      </trkpt>
      <trkpt lat="42.920593991875648" lon="-8.297044029459357">
        <ele>389.30000000000001</ele>
        <time>2018-05-20T06:29:48Z</time>
      </trkpt>
      <trkpt lat="42.920616958290339" lon="-8.297003963962197">
        <ele>389.39999999999998</ele>
        <time>2018-05-20T06:29:49Z</time>
      </trkpt>
      <trkpt lat="42.920637996867299" lon="-8.296966999769211">
        <ele>389.5</ele>
        <time>2018-05-20T06:29:50Z</time>
      </trkpt>
      <trkpt lat="42.920660963281989" lon="-8.296939004212618">
        <ele>389.60000000000002</ele>
        <time>2018-05-20T06:29:51Z</time>
      </trkpt>
      <trkpt lat="42.920698011294007" lon="-8.296903967857361">
        <ele>389.60000000000002</ele>
        <time>2018-05-20T06:29:52Z</time>
      </trkpt>
      <trkpt lat="42.920731035992503" lon="-8.296863986179233">
        <ele>389.60000000000002</ele>
        <time>2018-05-20T06:29:54Z</time>
      </trkpt>
      <trkpt lat="42.920754002407193" lon="-8.296824004501104">
        <ele>389.80000000000001</ele>
        <time>2018-05-20T06:29:55Z</time>
      </trkpt>
      <trkpt lat="42.920787027105689" lon="-8.296783016994596">
        <ele>389.80000000000001</ele>
        <time>2018-05-20T06:29:56Z</time>
      </trkpt>
      <trkpt lat="42.920809993520379" lon="-8.296743035316467">
        <ele>389.89999999999998</ele>
        <time>2018-05-20T06:29:57Z</time>
      </trkpt>
      <trkpt lat="42.92083396576345" lon="-8.296702969819307">
        <ele>390.10000000000002</ele>
        <time>2018-05-20T06:29:58Z</time>
      </trkpt>
      <trkpt lat="42.920860033482313" lon="-8.296667011454701">
        <ele>390.10000000000002</ele>
        <time>2018-05-20T06:30:00Z</time>
      </trkpt>
      <trkpt lat="42.9208969976753" lon="-8.29662099480629">
        <ele>390.19999999999999</ele>
        <time>2018-05-20T06:30:01Z</time>
      </trkpt>
      <trkpt lat="42.920930022373796" lon="-8.296580007299781">
        <ele>390.30000000000001</ele>
        <time>2018-05-20T06:30:02Z</time>
      </trkpt>
      <trkpt lat="42.920957012102008" lon="-8.296552011743188">
        <ele>390.39999999999998</ele>
        <time>2018-05-20T06:30:03Z</time>
      </trkpt>
      <trkpt lat="42.920985007658601" lon="-8.296516975387931">
        <ele>390.5</ele>
        <time>2018-05-20T06:30:04Z</time>
      </trkpt>
      <trkpt lat="42.921017026528716" lon="-8.296483028680086">
        <ele>390.5</ele>
        <time>2018-05-20T06:30:06Z</time>
      </trkpt>
      <trkpt lat="42.92104996740818" lon="-8.296442963182926">
        <ele>390.60000000000002</ele>
        <time>2018-05-20T06:30:07Z</time>
      </trkpt>
      <trkpt lat="42.921082992106676" lon="-8.296397030353546">
        <ele>390.80000000000001</ele>
        <time>2018-05-20T06:30:08Z</time>
      </trkpt>
      <trkpt lat="42.921105958521366" lon="-8.296361993998289">
        <ele>390.89999999999998</ele>
        <time>2018-05-20T06:30:09Z</time>
      </trkpt>
      <trkpt lat="42.921129008755088" lon="-8.296326035633683">
        <ele>391</ele>
        <time>2018-05-20T06:30:10Z</time>
      </trkpt>
      <trkpt lat="42.921165972948074" lon="-8.296280018985272">
        <ele>391.10000000000002</ele>
        <time>2018-05-20T06:30:12Z</time>
      </trkpt>
      <trkpt lat="42.921195980161428" lon="-8.296238025650382">
        <ele>391.30000000000001</ele>
        <time>2018-05-20T06:30:13Z</time>
      </trkpt>
      <trkpt lat="42.921215007081628" lon="-8.296202989295125">
        <ele>391.5</ele>
        <time>2018-05-20T06:30:14Z</time>
      </trkpt>
      <trkpt lat="42.921235039830208" lon="-8.296168958768249">
        <ele>391.60000000000002</ele>
        <time>2018-05-20T06:30:15Z</time>
      </trkpt>
      <trkpt lat="42.921250965446234" lon="-8.296125959604979">
        <ele>391.89999999999998</ele>
        <time>2018-05-20T06:30:16Z</time>
      </trkpt>
      <trkpt lat="42.921278961002827" lon="-8.296092012897134">
        <ele>392.10000000000002</ele>
        <time>2018-05-20T06:30:17Z</time>
      </trkpt>
      <trkpt lat="42.921307040378451" lon="-8.296045996248722">
        <ele>392.39999999999998</ele>
        <time>2018-05-20T06:30:19Z</time>
      </trkpt>
      <trkpt lat="42.921341992914677" lon="-8.296028980985284">
        <ele>392.39999999999998</ele>
        <time>2018-05-20T06:30:20Z</time>
      </trkpt>
      <trkpt lat="42.921422040089965" lon="-8.295853966847062">
        <ele>393.39999999999998</ele>
        <time>2018-05-20T06:30:24Z</time>
      </trkpt>
      <trkpt lat="42.921422040089965" lon="-8.29584700986743">
        <ele>393.5</ele>
        <time>2018-05-20T06:30:24Z</time>
      </trkpt>
      <trkpt lat="42.921567969024181" lon="-8.29554601572454">
        <ele>395</ele>
        <time>2018-05-20T06:30:32Z</time>
      </trkpt>
      <trkpt lat="42.921684980392456" lon="-8.295234041288495">
        <ele>396.69999999999999</ele>
        <time>2018-05-20T06:30:40Z</time>
      </trkpt>
      <trkpt lat="42.921773996204138" lon="-8.295129016041756">
        <ele>397.19999999999999</ele>
        <time>2018-05-20T06:30:43Z</time>
      </trkpt>
      <trkpt lat="42.921940963715315" lon="-8.294863980263472">
        <ele>399.30000000000001</ele>
        <time>2018-05-20T06:30:51Z</time>
      </trkpt>
      <trkpt lat="42.922022016718984" lon="-8.294673962518573">
        <ele>401</ele>
        <time>2018-05-20T06:30:56Z</time>
      </trkpt>
      <trkpt lat="42.922163000330329" lon="-8.294415967538953">
        <ele>402.5</ele>
        <time>2018-05-20T06:31:03Z</time>
      </trkpt>
      <trkpt lat="42.922255033627152" lon="-8.294184040278196">
        <ele>403.39999999999998</ele>
        <time>2018-05-20T06:31:08Z</time>
      </trkpt>
      <trkpt lat="42.922395011410117" lon="-8.293943982571363">
        <ele>404</ele>
        <time>2018-05-20T06:31:15Z</time>
      </trkpt>
      <trkpt lat="42.922512022778392" lon="-8.293747007846832">
        <ele>404.39999999999998</ele>
        <time>2018-05-20T06:31:20Z</time>
      </trkpt>
      <trkpt lat="42.922544041648507" lon="-8.293581968173385">
        <ele>404.10000000000002</ele>
        <time>2018-05-20T06:31:24Z</time>
      </trkpt>
      <trkpt lat="42.922613024711609" lon="-8.293362027034164">
        <ele>403.5</ele>
        <time>2018-05-20T06:31:29Z</time>
      </trkpt>
      <trkpt lat="42.922649988904595" lon="-8.293150970712304">
        <ele>403.30000000000001</ele>
        <time>2018-05-20T06:31:34Z</time>
      </trkpt>
      <trkpt lat="42.922735987231135" lon="-8.292978974059224">
        <ele>402.80000000000001</ele>
        <time>2018-05-20T06:31:39Z</time>
      </trkpt>
      <trkpt lat="42.922808993607759" lon="-8.292838996276259">
        <ele>402.39999999999998</ele>
        <time>2018-05-20T06:31:42Z</time>
      </trkpt>
      <trkpt lat="42.922808993607759" lon="-8.292827010154724">
        <ele>402.30000000000001</ele>
        <time>2018-05-20T06:31:43Z</time>
      </trkpt>
      <trkpt lat="42.922831960022449" lon="-8.292780993506312">
        <ele>402.10000000000002</ele>
        <time>2018-05-20T06:31:44Z</time>
      </trkpt>
      <trkpt lat="42.922855010256171" lon="-8.292745035141707">
        <ele>401.89999999999998</ele>
        <time>2018-05-20T06:31:45Z</time>
      </trkpt>
      <trkpt lat="42.922874037176371" lon="-8.292692983523011">
        <ele>401.69999999999999</ele>
        <time>2018-05-20T06:31:46Z</time>
      </trkpt>
      <trkpt lat="42.922888034954667" lon="-8.292655013501644">
        <ele>401.5</ele>
        <time>2018-05-20T06:31:47Z</time>
      </trkpt>
      <trkpt lat="42.92291603051126" lon="-8.292626012116671">
        <ele>401.30000000000001</ele>
        <time>2018-05-20T06:31:48Z</time>
      </trkpt>
      <trkpt lat="42.922948971390724" lon="-8.292586030438542">
        <ele>401.30000000000001</ele>
        <time>2018-05-20T06:31:49Z</time>
      </trkpt>
      <trkpt lat="42.922976966947317" lon="-8.292540013790131">
        <ele>401.39999999999998</ele>
        <time>2018-05-20T06:31:51Z</time>
      </trkpt>
      <trkpt lat="42.922986019402742" lon="-8.29249600879848">
        <ele>401.30000000000001</ele>
        <time>2018-05-20T06:31:52Z</time>
      </trkpt>
      <trkpt lat="42.922996999695897" lon="-8.292447980493307">
        <ele>401.30000000000001</ele>
        <time>2018-05-20T06:31:53Z</time>
      </trkpt>
      <trkpt lat="42.923033963888884" lon="-8.292401963844895">
        <ele>401.39999999999998</ele>
        <time>2018-05-20T06:31:54Z</time>
      </trkpt>
      <trkpt lat="42.923081992194057" lon="-8.292361982166767">
        <ele>401.69999999999999</ele>
        <time>2018-05-20T06:31:56Z</time>
      </trkpt>
      <trkpt lat="42.923109987750649" lon="-8.292183028534055">
        <ele>401.69999999999999</ele>
        <time>2018-05-20T06:32:00Z</time>
      </trkpt>
      <trkpt lat="42.9231539927423" lon="-8.29195898026228">
        <ele>401.5</ele>
        <time>2018-05-20T06:32:05Z</time>
      </trkpt>
      <trkpt lat="42.923216018825769" lon="-8.291759993880987">
        <ele>401.10000000000002</ele>
        <time>2018-05-20T06:32:09Z</time>
      </trkpt>
      <trkpt lat="42.923292964696884" lon="-8.2916159927845">
        <ele>401</ele>
        <time>2018-05-20T06:32:13Z</time>
      </trkpt>
      <trkpt lat="42.923372006043792" lon="-8.291478026658297">
        <ele>400.89999999999998</ele>
        <time>2018-05-20T06:32:17Z</time>
      </trkpt>
      <trkpt lat="42.923464961349964" lon="-8.291361015290022">
        <ele>400.89999999999998</ele>
        <time>2018-05-20T06:32:21Z</time>
      </trkpt>
      <trkpt lat="42.923549031838775" lon="-8.291253978386521">
        <ele>400.80000000000001</ele>
        <time>2018-05-20T06:32:24Z</time>
      </trkpt>
      <trkpt lat="42.923595970496535" lon="-8.291114000603557">
        <ele>398.89999999999998</ele>
        <time>2018-05-20T06:32:28Z</time>
      </trkpt>
      <trkpt lat="42.923635030165315" lon="-8.290985003113747">
        <ele>396.89999999999998</ele>
        <time>2018-05-20T06:32:31Z</time>
      </trkpt>
      <trkpt lat="42.923652967438102" lon="-8.290962036699057">
        <ele>396.60000000000002</ele>
        <time>2018-05-20T06:32:31Z</time>
      </trkpt>
      <trkpt lat="42.923671994358301" lon="-8.2909270003438">
        <ele>396</ele>
        <time>2018-05-20T06:32:32Z</time>
      </trkpt>
      <trkpt lat="42.923694960772991" lon="-8.290892969816923">
        <ele>395.5</ele>
        <time>2018-05-20T06:32:33Z</time>
      </trkpt>
      <trkpt lat="42.923713987693191" lon="-8.290852988138795">
        <ele>394.80000000000001</ele>
        <time>2018-05-20T06:32:34Z</time>
      </trkpt>
      <trkpt lat="42.923741983249784" lon="-8.29081803560257">
        <ele>394.19999999999999</ele>
        <time>2018-05-20T06:32:36Z</time>
      </trkpt>
      <trkpt lat="42.923769978806376" lon="-8.290779981762171">
        <ele>393.69999999999999</ele>
        <time>2018-05-20T06:32:37Z</time>
      </trkpt>
      <trkpt lat="42.923797974362969" lon="-8.290750980377197">
        <ele>393.39999999999998</ele>
        <time>2018-05-20T06:32:38Z</time>
      </trkpt>
      <trkpt lat="42.923835022374988" lon="-8.290704963728786">
        <ele>392.80000000000001</ele>
        <time>2018-05-20T06:32:39Z</time>
      </trkpt>
      <trkpt lat="42.923863017931581" lon="-8.290675962343812">
        <ele>392.5</ele>
        <time>2018-05-20T06:32:40Z</time>
      </trkpt>
      <trkpt lat="42.923891013488173" lon="-8.290647966787219">
        <ele>392.19999999999999</ele>
        <time>2018-05-20T06:32:41Z</time>
      </trkpt>
      <trkpt lat="42.923909034579992" lon="-8.29060697928071">
        <ele>391.5</ele>
        <time>2018-05-20T06:32:42Z</time>
      </trkpt>
      <trkpt lat="42.923932000994682" lon="-8.290585018694401">
        <ele>391.30000000000001</ele>
        <time>2018-05-20T06:32:43Z</time>
      </trkpt>
      <trkpt lat="42.923961002379656" lon="-8.290566997602582">
        <ele>391.10000000000002</ele>
        <time>2018-05-20T06:32:44Z</time>
      </trkpt>
      <trkpt lat="42.923982962965965" lon="-8.290539002045989">
        <ele>390.69999999999999</ele>
        <time>2018-05-20T06:32:45Z</time>
      </trkpt>
      <trkpt lat="42.924005007371306" lon="-8.290507989004254">
        <ele>390.30000000000001</ele>
        <time>2018-05-20T06:32:46Z</time>
      </trkpt>
      <trkpt lat="42.924026967957616" lon="-8.290480999276042">
        <ele>389.89999999999998</ele>
        <time>2018-05-20T06:32:47Z</time>
      </trkpt>
      <trkpt lat="42.92405404150486" lon="-8.290449986234307">
        <ele>389.5</ele>
        <time>2018-05-20T06:32:48Z</time>
      </trkpt>
      <trkpt lat="42.92407700791955" lon="-8.290420984849334">
        <ele>389</ele>
        <time>2018-05-20T06:32:49Z</time>
      </trkpt>
      <trkpt lat="42.924108020961285" lon="-8.290393995121121">
        <ele>389</ele>
        <time>2018-05-20T06:32:50Z</time>
      </trkpt>
      <trkpt lat="42.924131993204355" lon="-8.290354013442993">
        <ele>388.89999999999998</ele>
        <time>2018-05-20T06:32:51Z</time>
      </trkpt>
      <trkpt lat="42.92416300624609" lon="-8.290332974866033">
        <ele>389</ele>
        <time>2018-05-20T06:32:52Z</time>
      </trkpt>
      <trkpt lat="42.924177004024386" lon="-8.290292993187904">
        <ele>388.80000000000001</ele>
        <time>2018-05-20T06:32:53Z</time>
      </trkpt>
      <trkpt lat="42.924208017066121" lon="-8.290276983752847">
        <ele>388.89999999999998</ele>
        <time>2018-05-20T06:32:54Z</time>
      </trkpt>
      <trkpt lat="42.924230983480811" lon="-8.290243037045002">
        <ele>388.80000000000001</ele>
        <time>2018-05-20T06:32:55Z</time>
      </trkpt>
      <trkpt lat="42.924252022057772" lon="-8.290200959891081">
        <ele>388.69999999999999</ele>
        <time>2018-05-20T06:32:56Z</time>
      </trkpt>
      <trkpt lat="42.924267025664449" lon="-8.290156032890081">
        <ele>388.5</ele>
        <time>2018-05-20T06:32:57Z</time>
      </trkpt>
      <trkpt lat="42.924281023442745" lon="-8.290102975443006">
        <ele>388.30000000000001</ele>
        <time>2018-05-20T06:32:59Z</time>
      </trkpt>
      <trkpt lat="42.924299966543913" lon="-8.290040027350187">
        <ele>388</ele>
        <time>2018-05-20T06:33:00Z</time>
      </trkpt>
      <trkpt lat="42.924317987635732" lon="-8.289980012923479">
        <ele>387.80000000000001</ele>
        <time>2018-05-20T06:33:01Z</time>
      </trkpt>
      <trkpt lat="42.924370961263776" lon="-8.289803992956877">
        <ele>387.10000000000002</ele>
        <time>2018-05-20T06:33:06Z</time>
      </trkpt>
      <trkpt lat="42.924417983740568" lon="-8.289539040997624">
        <ele>385.80000000000001</ele>
        <time>2018-05-20T06:33:11Z</time>
      </trkpt>
      <trkpt lat="42.92448503896594" lon="-8.28929596580565">
        <ele>385.10000000000002</ele>
        <time>2018-05-20T06:33:17Z</time>
      </trkpt>
      <trkpt lat="42.924489984288812" lon="-8.289259001612663">
        <ele>385</ele>
        <time>2018-05-20T06:33:18Z</time>
      </trkpt>
      <trkpt lat="42.924494007602334" lon="-8.28920803964138">
        <ele>384.80000000000001</ele>
        <time>2018-05-20T06:33:19Z</time>
      </trkpt>
      <trkpt lat="42.924513034522533" lon="-8.289173003286123">
        <ele>384.69999999999999</ele>
        <time>2018-05-20T06:33:20Z</time>
      </trkpt>
      <trkpt lat="42.924531977623701" lon="-8.289138972759247">
        <ele>384.60000000000002</ele>
        <time>2018-05-20T06:33:21Z</time>
      </trkpt>
      <trkpt lat="42.92454999871552" lon="-8.289093039929867">
        <ele>384.5</ele>
        <time>2018-05-20T06:33:22Z</time>
      </trkpt>
      <trkpt lat="42.924569025635719" lon="-8.289030008018017">
        <ele>384.30000000000001</ele>
        <time>2018-05-20T06:33:23Z</time>
      </trkpt>
      <trkpt lat="42.924587968736887" lon="-8.288966976106167">
        <ele>384.10000000000002</ele>
        <time>2018-05-20T06:33:25Z</time>
      </trkpt>
      <trkpt lat="42.924601966515183" lon="-8.288915008306503">
        <ele>383.89999999999998</ele>
        <time>2018-05-20T06:33:26Z</time>
      </trkpt>
      <trkpt lat="42.924611018970609" lon="-8.288857005536556">
        <ele>383.60000000000002</ele>
        <time>2018-05-20T06:33:27Z</time>
      </trkpt>
      <trkpt lat="42.924619987607002" lon="-8.288813000544906">
        <ele>383.5</ele>
        <time>2018-05-20T06:33:28Z</time>
      </trkpt>
      <trkpt lat="42.924647983163595" lon="-8.288790034130216">
        <ele>383.5</ele>
        <time>2018-05-20T06:33:29Z</time>
      </trkpt>
      <trkpt lat="42.924675978720188" lon="-8.288749968633056">
        <ele>383.39999999999998</ele>
        <time>2018-05-20T06:33:31Z</time>
      </trkpt>
      <trkpt lat="42.924709003418684" lon="-8.288716021925211">
        <ele>383.5</ele>
        <time>2018-05-20T06:33:32Z</time>
      </trkpt>
      <trkpt lat="42.924741022288799" lon="-8.288675034418702">
        <ele>383.60000000000002</ele>
        <time>2018-05-20T06:33:33Z</time>
      </trkpt>
      <trkpt lat="42.924773041158915" lon="-8.288631029427052">
        <ele>383.60000000000002</ele>
        <time>2018-05-20T06:33:34Z</time>
      </trkpt>
      <trkpt lat="42.924787038937211" lon="-8.28858501277864">
        <ele>383.60000000000002</ele>
        <time>2018-05-20T06:33:36Z</time>
      </trkpt>
      <trkpt lat="42.924810005351901" lon="-8.288538996130228">
        <ele>383.60000000000002</ele>
        <time>2018-05-20T06:33:37Z</time>
      </trkpt>
      <trkpt lat="42.924840012565255" lon="-8.288492979481816">
        <ele>383.60000000000002</ele>
        <time>2018-05-20T06:33:38Z</time>
      </trkpt>
      <trkpt lat="42.924859961494803" lon="-8.288369011133909">
        <ele>383.39999999999998</ele>
        <time>2018-05-20T06:33:41Z</time>
      </trkpt>
      <trkpt lat="42.924955012276769" lon="-8.288029963150621">
        <ele>383.10000000000002</ele>
        <time>2018-05-20T06:33:49Z</time>
      </trkpt>
      <trkpt lat="42.925021983683109" lon="-8.287772973999381">
        <ele>382.89999999999998</ele>
        <time>2018-05-20T06:33:55Z</time>
      </trkpt>
      <trkpt lat="42.925090966746211" lon="-8.287454964593053">
        <ele>382.89999999999998</ele>
        <time>2018-05-20T06:34:02Z</time>
      </trkpt>
      <trkpt lat="42.925166990607977" lon="-8.287195041775703">
        <ele>382.89999999999998</ele>
        <time>2018-05-20T06:34:08Z</time>
      </trkpt>
      <trkpt lat="42.925212001428008" lon="-8.287022039294243">
        <ele>383.10000000000002</ele>
        <time>2018-05-20T06:34:12Z</time>
      </trkpt>
      <trkpt lat="42.925212001428008" lon="-8.286976022645831">
        <ele>383.19999999999999</ele>
        <time>2018-05-20T06:34:13Z</time>
      </trkpt>
      <trkpt lat="42.925212001428008" lon="-8.286912990733981">
        <ele>383.30000000000001</ele>
        <time>2018-05-20T06:34:14Z</time>
      </trkpt>
      <trkpt lat="42.925212001428008" lon="-8.286854987964034">
        <ele>383.39999999999998</ele>
        <time>2018-05-20T06:34:15Z</time>
      </trkpt>
      <trkpt lat="42.925212001428008" lon="-8.286797991022468">
        <ele>383.39999999999998</ele>
        <time>2018-05-20T06:34:17Z</time>
      </trkpt>
      <trkpt lat="42.925206972286105" lon="-8.286722972989082">
        <ele>383.5</ele>
        <time>2018-05-20T06:34:18Z</time>
      </trkpt>
      <trkpt lat="42.925206972286105" lon="-8.286660024896264">
        <ele>383.60000000000002</ele>
        <time>2018-05-20T06:34:20Z</time>
      </trkpt>
      <trkpt lat="42.925203032791615" lon="-8.286596992984414">
        <ele>383.69999999999999</ele>
        <time>2018-05-20T06:34:21Z</time>
      </trkpt>
      <trkpt lat="42.925192974507809" lon="-8.286538990214467">
        <ele>383.69999999999999</ele>
        <time>2018-05-20T06:34:22Z</time>
      </trkpt>
      <trkpt lat="42.925192974507809" lon="-8.286488028243184">
        <ele>383.80000000000001</ele>
        <time>2018-05-20T06:34:23Z</time>
      </trkpt>
      <trkpt lat="42.925184005871415" lon="-8.286426002159715">
        <ele>383.80000000000001</ele>
        <time>2018-05-20T06:34:25Z</time>
      </trkpt>
      <trkpt lat="42.925184005871415" lon="-8.286357019096613">
        <ele>383.89999999999998</ele>
        <time>2018-05-20T06:34:26Z</time>
      </trkpt>
      <trkpt lat="42.925184005871415" lon="-8.286304967477918">
        <ele>384</ele>
        <time>2018-05-20T06:34:27Z</time>
      </trkpt>
      <trkpt lat="42.925184005871415" lon="-8.286236990243197">
        <ele>384.10000000000002</ele>
        <time>2018-05-20T06:34:29Z</time>
      </trkpt>
      <trkpt lat="42.925192974507809" lon="-8.286185022443533">
        <ele>384.30000000000001</ele>
        <time>2018-05-20T06:34:30Z</time>
      </trkpt>
      <trkpt lat="42.925192974507809" lon="-8.286132970824838">
        <ele>384.5</ele>
        <time>2018-05-20T06:34:31Z</time>
      </trkpt>
      <trkpt lat="42.925192974507809" lon="-8.286082008853555">
        <ele>384.69999999999999</ele>
        <time>2018-05-20T06:34:32Z</time>
      </trkpt>
      <trkpt lat="42.925200015306473" lon="-8.286021994426847">
        <ele>384.89999999999998</ele>
        <time>2018-05-20T06:34:34Z</time>
      </trkpt>
      <trkpt lat="42.925200015306473" lon="-8.28596499748528">
        <ele>385.10000000000002</ele>
        <time>2018-05-20T06:34:35Z</time>
      </trkpt>
      <trkpt lat="42.925200015306473" lon="-8.285906994715333">
        <ele>385.30000000000001</ele>
        <time>2018-05-20T06:34:36Z</time>
      </trkpt>
      <trkpt lat="42.925200015306473" lon="-8.28585603274405">
        <ele>385.5</ele>
        <time>2018-05-20T06:34:37Z</time>
      </trkpt>
      <trkpt lat="42.925204038619995" lon="-8.285803981125355">
        <ele>385.69999999999999</ele>
        <time>2018-05-20T06:34:38Z</time>
      </trkpt>
      <trkpt lat="42.925218036398292" lon="-8.285757964476943">
        <ele>386</ele>
        <time>2018-05-20T06:34:39Z</time>
      </trkpt>
      <trkpt lat="42.925243014469743" lon="-8.285698033869267">
        <ele>386.39999999999998</ele>
        <time>2018-05-20T06:34:41Z</time>
      </trkpt>
      <trkpt lat="42.925266986712813" lon="-8.285580016672611">
        <ele>387</ele>
        <time>2018-05-20T06:34:44Z</time>
      </trkpt>
      <trkpt lat="42.925327001139522" lon="-8.285368960350752">
        <ele>387.80000000000001</ele>
        <time>2018-05-20T06:34:49Z</time>
      </trkpt>
      <trkpt lat="42.925374023616314" lon="-8.28512697480619">
        <ele>386.60000000000002</ele>
        <time>2018-05-20T06:34:54Z</time>
      </trkpt>
      <trkpt lat="42.925440995022655" lon="-8.284850958734751">
        <ele>385.10000000000002</ele>
        <time>2018-05-20T06:35:00Z</time>
      </trkpt>
      <trkpt lat="42.925454992800951" lon="-8.284682985395193">
        <ele>384</ele>
        <time>2018-05-20T06:35:04Z</time>
      </trkpt>
      <trkpt lat="42.925468990579247" lon="-8.284648032858968">
        <ele>383.80000000000001</ele>
        <time>2018-05-20T06:35:05Z</time>
      </trkpt>
      <trkpt lat="42.925477959215641" lon="-8.284602016210556">
        <ele>383.5</ele>
        <time>2018-05-20T06:35:06Z</time>
      </trkpt>
      <trkpt lat="42.925488017499447" lon="-8.284550970420241">
        <ele>383.10000000000002</ele>
        <time>2018-05-20T06:35:07Z</time>
      </trkpt>
      <trkpt lat="42.925488017499447" lon="-8.284494979307056">
        <ele>382.60000000000002</ele>
        <time>2018-05-20T06:35:08Z</time>
      </trkpt>
      <trkpt lat="42.925477959215641" lon="-8.284437982365489">
        <ele>381.89999999999998</ele>
        <time>2018-05-20T06:35:09Z</time>
      </trkpt>
      <trkpt lat="42.925477959215641" lon="-8.284368999302387">
        <ele>381.30000000000001</ele>
        <time>2018-05-20T06:35:11Z</time>
      </trkpt>
      <trkpt lat="42.925477959215641" lon="-8.284317031502724">
        <ele>380.80000000000001</ele>
        <time>2018-05-20T06:35:12Z</time>
      </trkpt>
      <trkpt lat="42.92547401972115" lon="-8.284260034561157">
        <ele>380.19999999999999</ele>
        <time>2018-05-20T06:35:13Z</time>
      </trkpt>
      <trkpt lat="42.925463961437345" lon="-8.284190967679024">
        <ele>379.5</ele>
        <time>2018-05-20T06:35:15Z</time>
      </trkpt>
      <trkpt lat="42.925449963659048" lon="-8.284109998494387">
        <ele>378.60000000000002</ele>
        <time>2018-05-20T06:35:17Z</time>
      </trkpt>
      <trkpt lat="42.925440995022655" lon="-8.284055013209581">
        <ele>378</ele>
        <time>2018-05-20T06:35:18Z</time>
      </trkpt>
      <trkpt lat="42.925426997244358" lon="-8.283990975469351">
        <ele>377.39999999999998</ele>
        <time>2018-05-20T06:35:19Z</time>
      </trkpt>
      <trkpt lat="42.925407970324159" lon="-8.283916963264346">
        <ele>376.60000000000002</ele>
        <time>2018-05-20T06:35:21Z</time>
      </trkpt>
      <trkpt lat="42.925407970324159" lon="-8.283864995464683">
        <ele>376.10000000000002</ele>
        <time>2018-05-20T06:35:22Z</time>
      </trkpt>
      <trkpt lat="42.925407970324159" lon="-8.283781008794904">
        <ele>375.30000000000001</ele>
        <time>2018-05-20T06:35:24Z</time>
      </trkpt>
      <trkpt lat="42.925418028607965" lon="-8.283723006024957">
        <ele>374.89999999999998</ele>
        <time>2018-05-20T06:35:25Z</time>
      </trkpt>
      <trkpt lat="42.925418028607965" lon="-8.283671038225293">
        <ele>374.60000000000002</ele>
        <time>2018-05-20T06:35:27Z</time>
      </trkpt>
      <trkpt lat="42.925432026386261" lon="-8.283617980778217">
        <ele>374.39999999999998</ele>
        <time>2018-05-20T06:35:28Z</time>
      </trkpt>
      <trkpt lat="42.92551601305604" lon="-8.283292008563876">
        <ele>373</ele>
        <time>2018-05-20T06:35:35Z</time>
      </trkpt>
      <trkpt lat="42.925610980018973" lon="-8.282938962802291">
        <ele>371.39999999999998</ele>
        <time>2018-05-20T06:35:43Z</time>
      </trkpt>
      <trkpt lat="42.925610980018973" lon="-8.282930999994278">
        <ele>371.30000000000001</ele>
        <time>2018-05-20T06:35:44Z</time>
      </trkpt>
      <trkpt lat="42.925664037466049" lon="-8.282718015834689">
        <ele>370.10000000000002</ele>
        <time>2018-05-20T06:35:48Z</time>
      </trkpt>
      <trkpt lat="42.925664037466049" lon="-8.282671999186277">
        <ele>369.80000000000001</ele>
        <time>2018-05-20T06:35:49Z</time>
      </trkpt>
      <trkpt lat="42.92566797696054" lon="-8.282608967274427">
        <ele>369.5</ele>
        <time>2018-05-20T06:35:51Z</time>
      </trkpt>
      <trkpt lat="42.925683986395597" lon="-8.28257099725306">
        <ele>369.19999999999999</ele>
        <time>2018-05-20T06:35:52Z</time>
      </trkpt>
      <trkpt lat="42.925703013315797" lon="-8.282530009746552">
        <ele>369</ele>
        <time>2018-05-20T06:35:53Z</time>
      </trkpt>
      <trkpt lat="42.925725979730487" lon="-8.282495979219675">
        <ele>368.80000000000001</ele>
        <time>2018-05-20T06:35:54Z</time>
      </trkpt>
      <trkpt lat="42.92575498111546" lon="-8.282453985884786">
        <ele>368.60000000000002</ele>
        <time>2018-05-20T06:35:55Z</time>
      </trkpt>
      <trkpt lat="42.925781970843673" lon="-8.282417021691799">
        <ele>368.39999999999998</ele>
        <time>2018-05-20T06:35:56Z</time>
      </trkpt>
      <trkpt lat="42.925807032734156" lon="-8.282386008650065">
        <ele>368.30000000000001</ele>
        <time>2018-05-20T06:35:57Z</time>
      </trkpt>
      <trkpt lat="42.925825975835323" lon="-8.282339992001653">
        <ele>368</ele>
        <time>2018-05-20T06:35:58Z</time>
      </trkpt>
      <trkpt lat="42.925843996927142" lon="-8.28228903003037">
        <ele>367.69999999999999</ele>
        <time>2018-05-20T06:36:00Z</time>
      </trkpt>
      <trkpt lat="42.9258600063622" lon="-8.282229015603662">
        <ele>367.39999999999998</ele>
        <time>2018-05-20T06:36:01Z</time>
      </trkpt>
      <trkpt lat="42.92588297277689" lon="-8.282189033925533">
        <ele>367.19999999999999</ele>
        <time>2018-05-20T06:36:02Z</time>
      </trkpt>
      <trkpt lat="42.925912979990244" lon="-8.282138993963599">
        <ele>366.89999999999998</ele>
        <time>2018-05-20T06:36:04Z</time>
      </trkpt>
      <trkpt lat="42.92592697776854" lon="-8.282090965658426">
        <ele>366.69999999999999</ele>
        <time>2018-05-20T06:36:05Z</time>
      </trkpt>
      <trkpt lat="42.925954973325133" lon="-8.28203396871686">
        <ele>366.39999999999998</ele>
        <time>2018-05-20T06:36:06Z</time>
      </trkpt>
      <trkpt lat="42.925982968881726" lon="-8.281986024230719">
        <ele>366.10000000000002</ele>
        <time>2018-05-20T06:36:07Z</time>
      </trkpt>
      <trkpt lat="42.926036026328802" lon="-8.281825007870793">
        <ele>365.19999999999999</ele>
        <time>2018-05-20T06:36:11Z</time>
      </trkpt>
      <trkpt lat="42.926113978028297" lon="-8.281652005389333">
        <ele>364.30000000000001</ele>
        <time>2018-05-20T06:36:16Z</time>
      </trkpt>
      <trkpt lat="42.926113978028297" lon="-8.281643958762288">
        <ele>364.19999999999999</ele>
        <time>2018-05-20T06:36:16Z</time>
      </trkpt>
      <trkpt lat="42.926179021596909" lon="-8.281456036493182">
        <ele>363.19999999999999</ele>
        <time>2018-05-20T06:36:20Z</time>
      </trkpt>
      <trkpt lat="42.926252027973533" lon="-8.281233999878168">
        <ele>361.89999999999998</ele>
        <time>2018-05-20T06:36:26Z</time>
      </trkpt>
      <trkpt lat="42.926314976066351" lon="-8.281052028760314">
        <ele>361.39999999999998</ele>
        <time>2018-05-20T06:36:30Z</time>
      </trkpt>
      <trkpt lat="42.926352024078369" lon="-8.280878020450473">
        <ele>360.89999999999998</ele>
        <time>2018-05-20T06:36:34Z</time>
      </trkpt>
      <trkpt lat="42.926374990493059" lon="-8.280680039897561">
        <ele>360.39999999999998</ele>
        <time>2018-05-20T06:36:38Z</time>
      </trkpt>
      <trkpt lat="42.926409021019936" lon="-8.280473006889224">
        <ele>359.89999999999998</ele>
        <time>2018-05-20T06:36:43Z</time>
      </trkpt>
      <trkpt lat="42.926423018798232" lon="-8.280318025499582">
        <ele>359.69999999999999</ele>
        <time>2018-05-20T06:36:46Z</time>
      </trkpt>
      <trkpt lat="42.926423018798232" lon="-8.280309978872538">
        <ele>359.69999999999999</ele>
        <time>2018-05-20T06:36:46Z</time>
      </trkpt>
      <trkpt lat="42.926446991041303" lon="-8.28016497194767">
        <ele>359.60000000000002</ele>
        <time>2018-05-20T06:36:50Z</time>
      </trkpt>
      <trkpt lat="42.926446991041303" lon="-8.280037986114621">
        <ele>359.39999999999998</ele>
        <time>2018-05-20T06:36:52Z</time>
      </trkpt>
      <trkpt lat="42.9264419618994" lon="-8.279832964763045">
        <ele>359.10000000000002</ele>
        <time>2018-05-20T06:36:57Z</time>
      </trkpt>
      <trkpt lat="42.926437016576529" lon="-8.279630038887262">
        <ele>358.69999999999999</ele>
        <time>2018-05-20T06:37:01Z</time>
      </trkpt>
      <trkpt lat="42.926437016576529" lon="-8.279478996992111">
        <ele>358.80000000000001</ele>
        <time>2018-05-20T06:37:05Z</time>
      </trkpt>
      <trkpt lat="42.926427964121103" lon="-8.279418982565403">
        <ele>358.80000000000001</ele>
        <time>2018-05-20T06:37:06Z</time>
      </trkpt>
      <trkpt lat="42.926427964121103" lon="-8.279406996443868">
        <ele>358.80000000000001</ele>
        <time>2018-05-20T06:37:06Z</time>
      </trkpt>
      <trkpt lat="42.92641899548471" lon="-8.279345976188779">
        <ele>358.80000000000001</ele>
        <time>2018-05-20T06:37:07Z</time>
      </trkpt>
      <trkpt lat="42.926395023241639" lon="-8.279179008677602">
        <ele>358.89999999999998</ele>
        <time>2018-05-20T06:37:11Z</time>
      </trkpt>
      <trkpt lat="42.926371973007917" lon="-8.278841972351074">
        <ele>359.19999999999999</ele>
        <time>2018-05-20T06:37:19Z</time>
      </trkpt>
      <trkpt lat="42.926343977451324" lon="-8.278576014563441">
        <ele>359.39999999999998</ele>
        <time>2018-05-20T06:37:24Z</time>
      </trkpt>
      <trkpt lat="42.926303995773196" lon="-8.278278959915042">
        <ele>359.69999999999999</ele>
        <time>2018-05-20T06:37:31Z</time>
      </trkpt>
      <trkpt lat="42.926266025751829" lon="-8.277944019064307">
        <ele>360</ele>
        <time>2018-05-20T06:37:38Z</time>
      </trkpt>
      <trkpt lat="42.92624800466001" lon="-8.277665991336107">
        <ele>360.60000000000002</ele>
        <time>2018-05-20T06:37:44Z</time>
      </trkpt>
      <trkpt lat="42.926266025751829" lon="-8.277630032971501">
        <ele>360.69999999999999</ele>
        <time>2018-05-20T06:37:45Z</time>
      </trkpt>
      <trkpt lat="42.926317993551493" lon="-8.27756398357451">
        <ele>361</ele>
        <time>2018-05-20T06:37:47Z</time>
      </trkpt>
      <trkpt lat="42.926371973007917" lon="-8.277447978034616">
        <ele>361.39999999999998</ele>
        <time>2018-05-20T06:37:50Z</time>
      </trkpt>
      <trkpt lat="42.9263970348984" lon="-8.277398021891713">
        <ele>361.60000000000002</ele>
        <time>2018-05-20T06:37:52Z</time>
      </trkpt>
      <trkpt lat="42.926433999091387" lon="-8.277223007753491">
        <ele>362.10000000000002</ele>
        <time>2018-05-20T06:37:56Z</time>
      </trkpt>
      <trkpt lat="42.926453026011586" lon="-8.277056962251663">
        <ele>362.5</ele>
        <time>2018-05-20T06:37:59Z</time>
      </trkpt>
      <trkpt lat="42.926458977162838" lon="-8.27704899944365">
        <ele>362.60000000000002</ele>
        <time>2018-05-20T06:37:59Z</time>
      </trkpt>
      <trkpt lat="42.926478004083037" lon="-8.276944980025291">
        <ele>362.80000000000001</ele>
        <time>2018-05-20T06:38:02Z</time>
      </trkpt>
      <trkpt lat="42.926478004083037" lon="-8.276911033317447">
        <ele>362.89999999999998</ele>
        <time>2018-05-20T06:38:03Z</time>
      </trkpt>
      <trkpt lat="42.926486972719431" lon="-8.276865016669035">
        <ele>363</ele>
        <time>2018-05-20T06:38:04Z</time>
      </trkpt>
      <trkpt lat="42.926497031003237" lon="-8.276808019727469">
        <ele>363.10000000000002</ele>
        <time>2018-05-20T06:38:05Z</time>
      </trkpt>
      <trkpt lat="42.926497031003237" lon="-8.276737025007606">
        <ele>363.30000000000001</ele>
        <time>2018-05-20T06:38:06Z</time>
      </trkpt>
      <trkpt lat="42.926497031003237" lon="-8.276628982275724">
        <ele>363.5</ele>
        <time>2018-05-20T06:38:09Z</time>
      </trkpt>
      <trkpt lat="42.926469035446644" lon="-8.276437958702445">
        <ele>363.69999999999999</ele>
        <time>2018-05-20T06:38:13Z</time>
      </trkpt>
      <trkpt lat="42.926455037668347" lon="-8.276202008128166">
        <ele>364.10000000000002</ele>
        <time>2018-05-20T06:38:18Z</time>
      </trkpt>
      <trkpt lat="42.926455037668347" lon="-8.276194967329502">
        <ele>364.10000000000002</ele>
        <time>2018-05-20T06:38:18Z</time>
      </trkpt>
      <trkpt lat="42.926455037668347" lon="-8.275963962078095">
        <ele>364.80000000000001</ele>
        <time>2018-05-20T06:38:23Z</time>
      </trkpt>
      <trkpt lat="42.926460988819599" lon="-8.275751983746886">
        <ele>365.39999999999998</ele>
        <time>2018-05-20T06:38:28Z</time>
      </trkpt>
      <trkpt lat="42.926435004919767" lon="-8.27563296072185">
        <ele>365.5</ele>
        <time>2018-05-20T06:38:31Z</time>
      </trkpt>
      <trkpt lat="42.926425030454993" lon="-8.27547999098897">
        <ele>365.89999999999998</ele>
        <time>2018-05-20T06:38:34Z</time>
      </trkpt>
      <trkpt lat="42.926425030454993" lon="-8.275386029854417">
        <ele>366.10000000000002</ele>
        <time>2018-05-20T06:38:36Z</time>
      </trkpt>
      <trkpt lat="42.926373984664679" lon="-8.27522300183773">
        <ele>366.39999999999998</ele>
        <time>2018-05-20T06:38:40Z</time>
      </trkpt>
      <trkpt lat="42.926351018249989" lon="-8.275042958557606">
        <ele>366.80000000000001</ele>
        <time>2018-05-20T06:38:44Z</time>
      </trkpt>
      <trkpt lat="42.92626996524632" lon="-8.274796027690172">
        <ele>367.30000000000001</ele>
        <time>2018-05-20T06:38:50Z</time>
      </trkpt>
      <trkpt lat="42.92620500549674" lon="-8.274593017995358">
        <ele>367.60000000000002</ele>
        <time>2018-05-20T06:38:54Z</time>
      </trkpt>
      <trkpt lat="42.926195031031966" lon="-8.274552030488849">
        <ele>367.69999999999999</ele>
        <time>2018-05-20T06:38:55Z</time>
      </trkpt>
      <trkpt lat="42.926177009940147" lon="-8.274506013840437">
        <ele>367.69999999999999</ele>
        <time>2018-05-20T06:38:56Z</time>
      </trkpt>
      <trkpt lat="42.926153037697077" lon="-8.274454968050122">
        <ele>367.60000000000002</ele>
        <time>2018-05-20T06:38:58Z</time>
      </trkpt>
      <trkpt lat="42.92613903991878" lon="-8.274392019957304">
        <ele>367.69999999999999</ele>
        <time>2018-05-20T06:38:59Z</time>
      </trkpt>
      <trkpt lat="42.926115989685059" lon="-8.274346003308892">
        <ele>367.69999999999999</ele>
        <time>2018-05-20T06:39:00Z</time>
      </trkpt>
      <trkpt lat="42.926093023270369" lon="-8.274299986660481">
        <ele>367.60000000000002</ele>
        <time>2018-05-20T06:39:02Z</time>
      </trkpt>
      <trkpt lat="42.926059998571873" lon="-8.274265034124255">
        <ele>367.5</ele>
        <time>2018-05-20T06:39:03Z</time>
      </trkpt>
      <trkpt lat="42.92603200301528" lon="-8.274208037182689">
        <ele>367.39999999999998</ele>
        <time>2018-05-20T06:39:04Z</time>
      </trkpt>
      <trkpt lat="42.926001995801926" lon="-8.274170989170671">
        <ele>367.39999999999998</ele>
        <time>2018-05-20T06:39:05Z</time>
      </trkpt>
      <trkpt lat="42.92596997693181" lon="-8.274124972522259">
        <ele>367.30000000000001</ele>
        <time>2018-05-20T06:39:07Z</time>
      </trkpt>
      <trkpt lat="42.925944998860359" lon="-8.274084990844131">
        <ele>367.19999999999999</ele>
        <time>2018-05-20T06:39:08Z</time>
      </trkpt>
      <trkpt lat="42.925914991647005" lon="-8.274049032479525">
        <ele>367.10000000000002</ele>
        <time>2018-05-20T06:39:09Z</time>
      </trkpt>
      <trkpt lat="42.925878027454019" lon="-8.273991029709578">
        <ele>367.10000000000002</ele>
        <time>2018-05-20T06:39:11Z</time>
      </trkpt>
      <trkpt lat="42.925845002755523" lon="-8.273934032768011">
        <ele>367</ele>
        <time>2018-05-20T06:39:12Z</time>
      </trkpt>
      <trkpt lat="42.925816001370549" lon="-8.273872006684542">
        <ele>367</ele>
        <time>2018-05-20T06:39:14Z</time>
      </trkpt>
      <trkpt lat="42.92579697445035" lon="-8.273820960894227">
        <ele>367.10000000000002</ele>
        <time>2018-05-20T06:39:15Z</time>
      </trkpt>
      <trkpt lat="42.92577400803566" lon="-8.273758012801409">
        <ele>367.10000000000002</ele>
        <time>2018-05-20T06:39:17Z</time>
      </trkpt>
      <trkpt lat="42.92575498111546" lon="-8.273710990324616">
        <ele>367.19999999999999</ele>
        <time>2018-05-20T06:39:18Z</time>
      </trkpt>
      <trkpt lat="42.92573201470077" lon="-8.273660028353334">
        <ele>367.30000000000001</ele>
        <time>2018-05-20T06:39:19Z</time>
      </trkpt>
      <trkpt lat="42.925718016922474" lon="-8.2735909614712">
        <ele>367.5</ele>
        <time>2018-05-20T06:39:21Z</time>
      </trkpt>
      <trkpt lat="42.925707958638668" lon="-8.273538993671536">
        <ele>367.69999999999999</ele>
        <time>2018-05-20T06:39:22Z</time>
      </trkpt>
      <trkpt lat="42.925704019144177" lon="-8.273488031700254">
        <ele>367.89999999999998</ele>
        <time>2018-05-20T06:39:23Z</time>
      </trkpt>
      <trkpt lat="42.925693960860372" lon="-8.273435980081558">
        <ele>368</ele>
        <time>2018-05-20T06:39:24Z</time>
      </trkpt>
      <trkpt lat="42.925690021365881" lon="-8.273384012281895">
        <ele>368.30000000000001</ele>
        <time>2018-05-20T06:39:25Z</time>
      </trkpt>
      <trkpt lat="42.925690021365881" lon="-8.273320980370045">
        <ele>368.5</ele>
        <time>2018-05-20T06:39:27Z</time>
      </trkpt>
      <trkpt lat="42.925676023587584" lon="-8.273251997306943">
        <ele>368.80000000000001</ele>
        <time>2018-05-20T06:39:28Z</time>
      </trkpt>
      <trkpt lat="42.925665965303779" lon="-8.273200029507279">
        <ele>368.89999999999998</ele>
        <time>2018-05-20T06:39:29Z</time>
      </trkpt>
      <trkpt lat="42.925656996667385" lon="-8.273134985938668">
        <ele>369.19999999999999</ele>
        <time>2018-05-20T06:39:31Z</time>
      </trkpt>
      <trkpt lat="42.925648028030992" lon="-8.273082012310624">
        <ele>369.39999999999998</ele>
        <time>2018-05-20T06:39:32Z</time>
      </trkpt>
      <trkpt lat="42.925601005554199" lon="-8.272867016494274">
        <ele>369.89999999999998</ele>
        <time>2018-05-20T06:39:37Z</time>
      </trkpt>
      <trkpt lat="42.925581978634" lon="-8.272743970155716">
        <ele>370</ele>
        <time>2018-05-20T06:39:40Z</time>
      </trkpt>
      <trkpt lat="42.925534034147859" lon="-8.272495027631521">
        <ele>369.80000000000001</ele>
        <time>2018-05-20T06:39:45Z</time>
      </trkpt>
      <trkpt lat="42.925490029156208" lon="-8.27227701433003">
        <ele>369.60000000000002</ele>
        <time>2018-05-20T06:39:50Z</time>
      </trkpt>
      <trkpt lat="42.925422973930836" lon="-8.271947018802166">
        <ele>369.39999999999998</ele>
        <time>2018-05-20T06:39:58Z</time>
      </trkpt>
      <trkpt lat="42.925417022779584" lon="-8.271963028237224">
        <ele>369.30000000000001</ele>
        <time>2018-05-20T06:39:58Z</time>
      </trkpt>
      <trkpt lat="42.925361031666398" lon="-8.271668991073966">
        <ele>369.5</ele>
        <time>2018-05-20T06:40:05Z</time>
      </trkpt>
      <trkpt lat="42.925309985876083" lon="-8.271304965019226">
        <ele>370</ele>
        <time>2018-05-20T06:40:13Z</time>
      </trkpt>
      <trkpt lat="42.925267992541194" lon="-8.271087035536766">
        <ele>369.80000000000001</ele>
        <time>2018-05-20T06:40:17Z</time>
      </trkpt>
      <trkpt lat="42.92525801807642" lon="-8.271036995574832">
        <ele>369.69999999999999</ele>
        <time>2018-05-20T06:40:19Z</time>
      </trkpt>
      <trkpt lat="42.925212001428008" lon="-8.270767014473677">
        <ele>369.39999999999998</ele>
        <time>2018-05-20T06:40:25Z</time>
      </trkpt>
      <trkpt lat="42.925212001428008" lon="-8.270761985331774">
        <ele>369.39999999999998</ele>
        <time>2018-05-20T06:40:25Z</time>
      </trkpt>
      <trkpt lat="42.925146035850048" lon="-8.270412962883711">
        <ele>369.10000000000002</ele>
        <time>2018-05-20T06:40:33Z</time>
      </trkpt>
      <trkpt lat="42.925098007544875" lon="-8.270124038681388">
        <ele>369.60000000000002</ele>
        <time>2018-05-20T06:40:39Z</time>
      </trkpt>
      <trkpt lat="42.925036987289786" lon="-8.269684994593263">
        <ele>370.19999999999999</ele>
        <time>2018-05-20T06:40:49Z</time>
      </trkpt>
      <trkpt lat="42.925018966197968" lon="-8.26946304179728">
        <ele>371.10000000000002</ele>
        <time>2018-05-20T06:40:53Z</time>
      </trkpt>
      <trkpt lat="42.92496096342802" lon="-8.269234970211983">
        <ele>372</ele>
        <time>2018-05-20T06:40:59Z</time>
      </trkpt>
      <trkpt lat="42.92489399202168" lon="-8.269023997709155">
        <ele>372.39999999999998</ele>
        <time>2018-05-20T06:41:04Z</time>
      </trkpt>
      <trkpt lat="42.924841018393636" lon="-8.268815958872438">
        <ele>372.89999999999998</ele>
        <time>2018-05-20T06:41:08Z</time>
      </trkpt>
      <trkpt lat="42.924841018393636" lon="-8.268803972750902">
        <ele>373</ele>
        <time>2018-05-20T06:41:09Z</time>
      </trkpt>
      <trkpt lat="42.924822997301817" lon="-8.268758039921522">
        <ele>373</ele>
        <time>2018-05-20T06:41:10Z</time>
      </trkpt>
      <trkpt lat="42.924795001745224" lon="-8.268695008009672">
        <ele>372.80000000000001</ele>
        <time>2018-05-20T06:41:11Z</time>
      </trkpt>
      <trkpt lat="42.924758037552238" lon="-8.268672041594982">
        <ele>372.19999999999999</ele>
        <time>2018-05-20T06:41:13Z</time>
      </trkpt>
      <trkpt lat="42.924715960398316" lon="-8.268614960834384">
        <ele>371.69999999999999</ele>
        <time>2018-05-20T06:41:14Z</time>
      </trkpt>
      <trkpt lat="42.924669021740556" lon="-8.268580008298159">
        <ele>371.10000000000002</ele>
        <time>2018-05-20T06:41:16Z</time>
      </trkpt>
      <trkpt lat="42.92463599704206" lon="-8.268557041883469">
        <ele>370.60000000000002</ele>
        <time>2018-05-20T06:41:17Z</time>
      </trkpt>
      <trkpt lat="42.924599032849073" lon="-8.268533991649747">
        <ele>370</ele>
        <time>2018-05-20T06:41:18Z</time>
      </trkpt>
      <trkpt lat="42.924566008150578" lon="-8.268511025235057">
        <ele>369.69999999999999</ele>
        <time>2018-05-20T06:41:19Z</time>
      </trkpt>
      <trkpt lat="42.924528960138559" lon="-8.268482023850083">
        <ele>369.5</ele>
        <time>2018-05-20T06:41:21Z</time>
      </trkpt>
      <trkpt lat="42.92448696680367" lon="-8.268458973616362">
        <ele>369.19999999999999</ele>
        <time>2018-05-20T06:41:22Z</time>
      </trkpt>
      <trkpt lat="42.924454025924206" lon="-8.268430978059769">
        <ele>369.10000000000002</ele>
        <time>2018-05-20T06:41:23Z</time>
      </trkpt>
      <trkpt lat="42.924416977912188" lon="-8.268401976674795">
        <ele>368.89999999999998</ele>
        <time>2018-05-20T06:41:24Z</time>
      </trkpt>
      <trkpt lat="42.924374984577298" lon="-8.268361994996667">
        <ele>368.60000000000002</ele>
        <time>2018-05-20T06:41:26Z</time>
      </trkpt>
      <trkpt lat="42.924328967928886" lon="-8.26832695864141">
        <ele>368.39999999999998</ele>
        <time>2018-05-20T06:41:28Z</time>
      </trkpt>
      <trkpt lat="42.924290997907519" lon="-8.268286976963282">
        <ele>368.19999999999999</ele>
        <time>2018-05-20T06:41:29Z</time>
      </trkpt>
      <trkpt lat="42.924256967380643" lon="-8.268269961699843">
        <ele>368</ele>
        <time>2018-05-20T06:41:30Z</time>
      </trkpt>
      <trkpt lat="42.924220003187656" lon="-8.268229980021715">
        <ele>367.80000000000001</ele>
        <time>2018-05-20T06:41:31Z</time>
      </trkpt>
      <trkpt lat="42.924186978489161" lon="-8.26819502748549">
        <ele>367.69999999999999</ele>
        <time>2018-05-20T06:41:33Z</time>
      </trkpt>
      <trkpt lat="42.924154037609696" lon="-8.268167031928897">
        <ele>367.5</ele>
        <time>2018-05-20T06:41:34Z</time>
      </trkpt>
      <trkpt lat="42.924130987375975" lon="-8.268136018887162">
        <ele>367.39999999999998</ele>
        <time>2018-05-20T06:41:35Z</time>
      </trkpt>
      <trkpt lat="42.924094023182988" lon="-8.268098970875144">
        <ele>367.19999999999999</ele>
        <time>2018-05-20T06:41:36Z</time>
      </trkpt>
      <trkpt lat="42.924055969342589" lon="-8.268058989197016">
        <ele>367.10000000000002</ele>
        <time>2018-05-20T06:41:38Z</time>
      </trkpt>
      <trkpt lat="42.924024034291506" lon="-8.268019007518888">
        <ele>366.89999999999998</ele>
        <time>2018-05-20T06:41:39Z</time>
      </trkpt>
      <trkpt lat="42.923996038734913" lon="-8.267972990870476">
        <ele>366.89999999999998</ele>
        <time>2018-05-20T06:41:40Z</time>
      </trkpt>
      <trkpt lat="42.923963014036417" lon="-8.267933009192348">
        <ele>366.69999999999999</ele>
        <time>2018-05-20T06:41:41Z</time>
      </trkpt>
      <trkpt lat="42.923925966024399" lon="-8.267881041392684">
        <ele>366.5</ele>
        <time>2018-05-20T06:41:43Z</time>
      </trkpt>
      <trkpt lat="42.923889001831412" lon="-8.267840975895524">
        <ele>366.19999999999999</ele>
        <time>2018-05-20T06:41:44Z</time>
      </trkpt>
      <trkpt lat="42.923865029588342" lon="-8.267794959247112">
        <ele>366</ele>
        <time>2018-05-20T06:41:46Z</time>
      </trkpt>
      <trkpt lat="42.923837034031749" lon="-8.267749026417732">
        <ele>365.80000000000001</ele>
        <time>2018-05-20T06:41:47Z</time>
      </trkpt>
      <trkpt lat="42.923799986019731" lon="-8.267692029476166">
        <ele>365.5</ele>
        <time>2018-05-20T06:41:49Z</time>
      </trkpt>
      <trkpt lat="42.923766961321235" lon="-8.267639977857471">
        <ele>365.19999999999999</ele>
        <time>2018-05-20T06:41:50Z</time>
      </trkpt>
      <trkpt lat="42.923737959936261" lon="-8.267592033371329">
        <ele>364.89999999999998</ele>
        <time>2018-05-20T06:41:51Z</time>
      </trkpt>
      <trkpt lat="42.923723962157965" lon="-8.267546016722918">
        <ele>364.80000000000001</ele>
        <time>2018-05-20T06:41:52Z</time>
      </trkpt>
      <trkpt lat="42.923695966601372" lon="-8.267460018396378">
        <ele>364.5</ele>
        <time>2018-05-20T06:41:55Z</time>
      </trkpt>
      <trkpt lat="42.923677023500204" lon="-8.267385000362992">
        <ele>364.30000000000001</ele>
        <time>2018-05-20T06:41:56Z</time>
      </trkpt>
      <trkpt lat="42.923653973266482" lon="-8.267328003421426">
        <ele>364.10000000000002</ele>
        <time>2018-05-20T06:41:58Z</time>
      </trkpt>
      <trkpt lat="42.923631006851792" lon="-8.267259020358324">
        <ele>363.89999999999998</ele>
        <time>2018-05-20T06:41:59Z</time>
      </trkpt>
      <trkpt lat="42.923607034608722" lon="-8.267195988446474">
        <ele>363.69999999999999</ele>
        <time>2018-05-20T06:42:01Z</time>
      </trkpt>
      <trkpt lat="42.923583984375" lon="-8.267161035910249">
        <ele>363.39999999999998</ele>
        <time>2018-05-20T06:42:02Z</time>
      </trkpt>
      <trkpt lat="42.923569986596704" lon="-8.267104038968682">
        <ele>363.30000000000001</ele>
        <time>2018-05-20T06:42:03Z</time>
      </trkpt>
      <trkpt lat="42.923527993261814" lon="-8.266994990408421">
        <ele>362.80000000000001</ele>
        <time>2018-05-20T06:42:06Z</time>
      </trkpt>
      <trkpt lat="42.923527993261814" lon="-8.266943022608757">
        <ele>362.80000000000001</ele>
        <time>2018-05-20T06:42:07Z</time>
      </trkpt>
      <trkpt lat="42.923519024625421" lon="-8.266890970990062">
        <ele>362.69999999999999</ele>
        <time>2018-05-20T06:42:08Z</time>
      </trkpt>
      <trkpt lat="42.923505026847124" lon="-8.266833974048495">
        <ele>362.60000000000002</ele>
        <time>2018-05-20T06:42:09Z</time>
      </trkpt>
      <trkpt lat="42.923494968563318" lon="-8.266771025955677">
        <ele>362.39999999999998</ele>
        <time>2018-05-20T06:42:11Z</time>
      </trkpt>
      <trkpt lat="42.923494968563318" lon="-8.266689972952008">
        <ele>362.39999999999998</ele>
        <time>2018-05-20T06:42:13Z</time>
      </trkpt>
      <trkpt lat="42.923494968563318" lon="-8.266610009595752">
        <ele>362.39999999999998</ele>
        <time>2018-05-20T06:42:14Z</time>
      </trkpt>
      <trkpt lat="42.923494968563318" lon="-8.266558041796088">
        <ele>362.39999999999998</ele>
        <time>2018-05-20T06:42:15Z</time>
      </trkpt>
      <trkpt lat="42.923505026847124" lon="-8.266483023762703">
        <ele>362.39999999999998</ele>
        <time>2018-05-20T06:42:17Z</time>
      </trkpt>
      <trkpt lat="42.923484994098544" lon="-8.266375986859202">
        <ele>362.19999999999999</ele>
        <time>2018-05-20T06:42:19Z</time>
      </trkpt>
      <trkpt lat="42.923513995483518" lon="-8.266179012134671">
        <ele>362.5</ele>
        <time>2018-05-20T06:42:24Z</time>
      </trkpt>
      <trkpt lat="42.923552971333265" lon="-8.266011960804462">
        <ele>362.89999999999998</ele>
        <time>2018-05-20T06:42:28Z</time>
      </trkpt>
      <trkpt lat="42.923590019345284" lon="-8.265756983309984">
        <ele>363.39999999999998</ele>
        <time>2018-05-20T06:42:33Z</time>
      </trkpt>
      <trkpt lat="42.923590019345284" lon="-8.26570300385356">
        <ele>363.39999999999998</ele>
        <time>2018-05-20T06:42:34Z</time>
      </trkpt>
      <trkpt lat="42.923590019345284" lon="-8.265628991648555">
        <ele>363.39999999999998</ele>
        <time>2018-05-20T06:42:36Z</time>
      </trkpt>
      <trkpt lat="42.923594964668155" lon="-8.26555397361517">
        <ele>363.5</ele>
        <time>2018-05-20T06:42:38Z</time>
      </trkpt>
      <trkpt lat="42.923594964668155" lon="-8.265502005815506">
        <ele>363.5</ele>
        <time>2018-05-20T06:42:39Z</time>
      </trkpt>
      <trkpt lat="42.92360401712358" lon="-8.265430005267263">
        <ele>363.60000000000002</ele>
        <time>2018-05-20T06:42:40Z</time>
      </trkpt>
      <trkpt lat="42.923599993810058" lon="-8.265361022204161">
        <ele>363.60000000000002</ele>
        <time>2018-05-20T06:42:42Z</time>
      </trkpt>
      <trkpt lat="42.923599993810058" lon="-8.265292961150408">
        <ele>363.60000000000002</ele>
        <time>2018-05-20T06:42:43Z</time>
      </trkpt>
      <trkpt lat="42.923585996031761" lon="-8.265203023329377">
        <ele>363.39999999999998</ele>
        <time>2018-05-20T06:42:45Z</time>
      </trkpt>
      <trkpt lat="42.923576021566987" lon="-8.265151977539063">
        <ele>363.30000000000001</ele>
        <time>2018-05-20T06:42:47Z</time>
      </trkpt>
      <trkpt lat="42.923566969111562" lon="-8.265105960890651">
        <ele>363.19999999999999</ele>
        <time>2018-05-20T06:42:48Z</time>
      </trkpt>
      <trkpt lat="42.923548026010394" lon="-8.265042006969452">
        <ele>363.10000000000002</ele>
        <time>2018-05-20T06:42:49Z</time>
      </trkpt>
      <trkpt lat="42.923530004918575" lon="-8.264990961179137">
        <ele>362.89999999999998</ele>
        <time>2018-05-20T06:42:50Z</time>
      </trkpt>
      <trkpt lat="42.923510977998376" lon="-8.26493295840919">
        <ele>362.69999999999999</ele>
        <time>2018-05-20T06:42:52Z</time>
      </trkpt>
      <trkpt lat="42.923506032675505" lon="-8.264879984781146">
        <ele>362.69999999999999</ele>
        <time>2018-05-20T06:42:53Z</time>
      </trkpt>
      <trkpt lat="42.923450963571668" lon="-8.264713017269969">
        <ele>362.10000000000002</ele>
        <time>2018-05-20T06:42:57Z</time>
      </trkpt>
      <trkpt lat="42.923446018248796" lon="-8.264706982299686">
        <ele>362.10000000000002</ele>
        <time>2018-05-20T06:42:57Z</time>
      </trkpt>
      <trkpt lat="42.92334602214396" lon="-8.264406993985176">
        <ele>360.89999999999998</ele>
        <time>2018-05-20T06:43:04Z</time>
      </trkpt>
      <trkpt lat="42.923269998282194" lon="-8.264108011499047">
        <ele>359.80000000000001</ele>
        <time>2018-05-20T06:43:11Z</time>
      </trkpt>
      <trkpt lat="42.923228004947305" lon="-8.263846999034286">
        <ele>359.10000000000002</ele>
        <time>2018-05-20T06:43:17Z</time>
      </trkpt>
      <trkpt lat="42.923165978863835" lon="-8.263606019318104">
        <ele>358.69999999999999</ele>
        <time>2018-05-20T06:43:22Z</time>
      </trkpt>
      <trkpt lat="42.923121973872185" lon="-8.263376019895077">
        <ele>358.80000000000001</ele>
        <time>2018-05-20T06:43:27Z</time>
      </trkpt>
      <trkpt lat="42.923081992194057" lon="-8.26319295912981">
        <ele>358.80000000000001</ele>
        <time>2018-05-20T06:43:32Z</time>
      </trkpt>
      <trkpt lat="42.922991970553994" lon="-8.262816024944186">
        <ele>359.19999999999999</ele>
        <time>2018-05-20T06:43:40Z</time>
      </trkpt>
      <trkpt lat="42.922833971679211" lon="-8.262346973642707">
        <ele>361</ele>
        <time>2018-05-20T06:43:51Z</time>
      </trkpt>
      <trkpt lat="42.922754008322954" lon="-8.262085961177945">
        <ele>362</ele>
        <time>2018-05-20T06:43:58Z</time>
      </trkpt>
      <trkpt lat="42.922740010544658" lon="-8.262033993378282">
        <ele>362.30000000000001</ele>
        <time>2018-05-20T06:43:59Z</time>
      </trkpt>
      <trkpt lat="42.922720983624458" lon="-8.261983031406999">
        <ele>362.60000000000002</ele>
        <time>2018-05-20T06:44:00Z</time>
      </trkpt>
      <trkpt lat="42.922712014988065" lon="-8.261919999495149">
        <ele>363</ele>
        <time>2018-05-20T06:44:01Z</time>
      </trkpt>
      <trkpt lat="42.922687958925962" lon="-8.26188001781702">
        <ele>363.10000000000002</ele>
        <time>2018-05-20T06:44:02Z</time>
      </trkpt>
      <trkpt lat="42.922648983076215" lon="-8.261826038360596">
        <ele>363.30000000000001</ele>
        <time>2018-05-20T06:44:04Z</time>
      </trkpt>
      <trkpt lat="42.922620987519622" lon="-8.261785972863436">
        <ele>363.30000000000001</ele>
        <time>2018-05-20T06:44:05Z</time>
      </trkpt>
      <trkpt lat="42.922588968649507" lon="-8.261740040034056">
        <ele>363.39999999999998</ele>
        <time>2018-05-20T06:44:07Z</time>
      </trkpt>
      <trkpt lat="42.922556027770042" lon="-8.261716989800334">
        <ele>363.30000000000001</ele>
        <time>2018-05-20T06:44:08Z</time>
      </trkpt>
      <trkpt lat="42.922537000849843" lon="-8.261670973151922">
        <ele>363.5</ele>
        <time>2018-05-20T06:44:09Z</time>
      </trkpt>
      <trkpt lat="42.922512022778392" lon="-8.261623028665781">
        <ele>363.60000000000002</ele>
        <time>2018-05-20T06:44:10Z</time>
      </trkpt>
      <trkpt lat="42.922495007514954" lon="-8.261568965390325">
        <ele>363.89999999999998</ele>
        <time>2018-05-20T06:44:11Z</time>
      </trkpt>
      <trkpt lat="42.922476986423135" lon="-8.261523032560945">
        <ele>364</ele>
        <time>2018-05-20T06:44:13Z</time>
      </trkpt>
      <trkpt lat="42.922457959502935" lon="-8.261448014527559">
        <ele>364.30000000000001</ele>
        <time>2018-05-20T06:44:14Z</time>
      </trkpt>
      <trkpt lat="42.922443961724639" lon="-8.261396968737245">
        <ele>364.5</ele>
        <time>2018-05-20T06:44:16Z</time>
      </trkpt>
      <trkpt lat="42.922443961724639" lon="-8.261345000937581">
        <ele>364.89999999999998</ele>
        <time>2018-05-20T06:44:17Z</time>
      </trkpt>
      <trkpt lat="42.922443961724639" lon="-8.261288003996015">
        <ele>365.19999999999999</ele>
        <time>2018-05-20T06:44:18Z</time>
      </trkpt>
      <trkpt lat="42.922443961724639" lon="-8.261236036196351">
        <ele>365.60000000000002</ele>
        <time>2018-05-20T06:44:19Z</time>
      </trkpt>
      <trkpt lat="42.922443961724639" lon="-8.261179039254785">
        <ele>365.89999999999998</ele>
        <time>2018-05-20T06:44:20Z</time>
      </trkpt>
      <trkpt lat="42.922443961724639" lon="-8.261109972372651">
        <ele>366.39999999999998</ele>
        <time>2018-05-20T06:44:22Z</time>
      </trkpt>
      <trkpt lat="42.922443961724639" lon="-8.261022968217731">
        <ele>367</ele>
        <time>2018-05-20T06:44:24Z</time>
      </trkpt>
      <trkpt lat="42.922443961724639" lon="-8.260953985154629">
        <ele>367.39999999999998</ele>
        <time>2018-05-20T06:44:25Z</time>
      </trkpt>
      <trkpt lat="42.922439016401768" lon="-8.260891037061811">
        <ele>367.80000000000001</ele>
        <time>2018-05-20T06:44:27Z</time>
      </trkpt>
      <trkpt lat="42.922429963946342" lon="-8.260810989886522">
        <ele>368.30000000000001</ele>
        <time>2018-05-20T06:44:28Z</time>
      </trkpt>
      <trkpt lat="42.922425018623471" lon="-8.260752987116575">
        <ele>368.60000000000002</ele>
        <time>2018-05-20T06:44:30Z</time>
      </trkpt>
      <trkpt lat="42.922415966168046" lon="-8.260702025145292">
        <ele>368.89999999999998</ele>
        <time>2018-05-20T06:44:31Z</time>
      </trkpt>
      <trkpt lat="42.92240196838975" lon="-8.260620972141624">
        <ele>369.30000000000001</ele>
        <time>2018-05-20T06:44:33Z</time>
      </trkpt>
      <trkpt lat="42.922387970611453" lon="-8.260558024048805">
        <ele>369.60000000000002</ele>
        <time>2018-05-20T06:44:34Z</time>
      </trkpt>
      <trkpt lat="42.92237900197506" lon="-8.260484011843801">
        <ele>370</ele>
        <time>2018-05-20T06:44:36Z</time>
      </trkpt>
      <trkpt lat="42.922365004196763" lon="-8.260437995195389">
        <ele>370.19999999999999</ele>
        <time>2018-05-20T06:44:37Z</time>
      </trkpt>
      <trkpt lat="42.922345977276564" lon="-8.260379992425442">
        <ele>370.39999999999998</ele>
        <time>2018-05-20T06:44:38Z</time>
      </trkpt>
      <trkpt lat="42.922341031953692" lon="-8.26031100936234">
        <ele>370.80000000000001</ele>
        <time>2018-05-20T06:44:40Z</time>
      </trkpt>
      <trkpt lat="42.922323010861874" lon="-8.2602250110358">
        <ele>371.19999999999999</ele>
        <time>2018-05-20T06:44:41Z</time>
      </trkpt>
      <trkpt lat="42.922309013083577" lon="-8.260168014094234">
        <ele>371.39999999999998</ele>
        <time>2018-05-20T06:44:43Z</time>
      </trkpt>
      <trkpt lat="42.922309013083577" lon="-8.260103976354003">
        <ele>371.80000000000001</ele>
        <time>2018-05-20T06:44:44Z</time>
      </trkpt>
      <trkpt lat="42.922309013083577" lon="-8.260046979412437">
        <ele>372.19999999999999</ele>
        <time>2018-05-20T06:44:45Z</time>
      </trkpt>
      <trkpt lat="42.922309013083577" lon="-8.259987970814109">
        <ele>372.60000000000002</ele>
        <time>2018-05-20T06:44:47Z</time>
      </trkpt>
      <trkpt lat="42.922309013083577" lon="-8.259836006909609">
        <ele>373.5</ele>
        <time>2018-05-20T06:44:50Z</time>
      </trkpt>
      <trkpt lat="42.922309013083577" lon="-8.259639032185078">
        <ele>374.69999999999999</ele>
        <time>2018-05-20T06:44:54Z</time>
      </trkpt>
      <trkpt lat="42.922317981719971" lon="-8.259348012506962">
        <ele>375.39999999999998</ele>
        <time>2018-05-20T06:45:01Z</time>
      </trkpt>
      <trkpt lat="42.922323010861874" lon="-8.25915003195405">
        <ele>375.69999999999999</ele>
        <time>2018-05-20T06:45:05Z</time>
      </trkpt>
      <trkpt lat="42.922323010861874" lon="-8.259098986163735">
        <ele>375.69999999999999</ele>
        <time>2018-05-20T06:45:06Z</time>
      </trkpt>
      <trkpt lat="42.922323010861874" lon="-8.259047018364072">
        <ele>375.80000000000001</ele>
        <time>2018-05-20T06:45:07Z</time>
      </trkpt>
      <trkpt lat="42.922323010861874" lon="-8.258990021422505">
        <ele>375.89999999999998</ele>
        <time>2018-05-20T06:45:08Z</time>
      </trkpt>
      <trkpt lat="42.922327034175396" lon="-8.258925983682275">
        <ele>376</ele>
        <time>2018-05-20T06:45:10Z</time>
      </trkpt>
      <trkpt lat="42.922347988933325" lon="-8.258883990347385">
        <ele>376.10000000000002</ele>
        <time>2018-05-20T06:45:11Z</time>
      </trkpt>
      <trkpt lat="42.922371039167047" lon="-8.258844008669257">
        <ele>376.30000000000001</ele>
        <time>2018-05-20T06:45:12Z</time>
      </trkpt>
      <trkpt lat="42.922396017238498" lon="-8.258806960657239">
        <ele>376.39999999999998</ele>
        <time>2018-05-20T06:45:13Z</time>
      </trkpt>
      <trkpt lat="42.922417977824807" lon="-8.258779970929027">
        <ele>376.60000000000002</ele>
        <time>2018-05-20T06:45:14Z</time>
      </trkpt>
      <trkpt lat="42.9224459733814" lon="-8.258687015622854">
        <ele>376.60000000000002</ele>
        <time>2018-05-20T06:45:16Z</time>
      </trkpt>
      <trkpt lat="42.922441028058529" lon="-8.258496997877955">
        <ele>376.30000000000001</ele>
        <time>2018-05-20T06:45:20Z</time>
      </trkpt>
      <trkpt lat="42.922431975603104" lon="-8.258333969861269">
        <ele>376</ele>
        <time>2018-05-20T06:45:24Z</time>
      </trkpt>
      <trkpt lat="42.922431975603104" lon="-8.25814001262188">
        <ele>375.69999999999999</ele>
        <time>2018-05-20T06:45:28Z</time>
      </trkpt>
      <trkpt lat="42.922431975603104" lon="-8.257930967956781">
        <ele>375.39999999999998</ele>
        <time>2018-05-20T06:45:32Z</time>
      </trkpt>
      <trkpt lat="42.922390988096595" lon="-8.257755031809211">
        <ele>374.60000000000002</ele>
        <time>2018-05-20T06:45:36Z</time>
      </trkpt>
      <trkpt lat="42.922390988096595" lon="-8.257698034867644">
        <ele>374.39999999999998</ele>
        <time>2018-05-20T06:45:38Z</time>
      </trkpt>
      <trkpt lat="42.922390988096595" lon="-8.257612036541104">
        <ele>374.19999999999999</ele>
        <time>2018-05-20T06:45:40Z</time>
      </trkpt>
      <trkpt lat="42.922390988096595" lon="-8.257542969658971">
        <ele>374.10000000000002</ele>
        <time>2018-05-20T06:45:41Z</time>
      </trkpt>
      <trkpt lat="42.922390988096595" lon="-8.257473986595869">
        <ele>373.89999999999998</ele>
        <time>2018-05-20T06:45:43Z</time>
      </trkpt>
      <trkpt lat="42.922382019460201" lon="-8.257416989654303">
        <ele>373.69999999999999</ele>
        <time>2018-05-20T06:45:44Z</time>
      </trkpt>
      <trkpt lat="42.922371961176395" lon="-8.257358986884356">
        <ele>373.39999999999998</ele>
        <time>2018-05-20T06:45:45Z</time>
      </trkpt>
      <trkpt lat="42.922357963398099" lon="-8.257279023528099">
        <ele>373.10000000000002</ele>
        <time>2018-05-20T06:45:47Z</time>
      </trkpt>
      <trkpt lat="42.922348994761705" lon="-8.257204005494714">
        <ele>372.80000000000001</ele>
        <time>2018-05-20T06:45:49Z</time>
      </trkpt>
      <trkpt lat="42.922334996983409" lon="-8.257118007168174">
        <ele>372.5</ele>
        <time>2018-05-20T06:45:50Z</time>
      </trkpt>
      <trkpt lat="42.922320999205112" lon="-8.257060004398227">
        <ele>372.39999999999998</ele>
        <time>2018-05-20T06:45:52Z</time>
      </trkpt>
      <trkpt lat="42.922320999205112" lon="-8.256996972486377">
        <ele>372.60000000000002</ele>
        <time>2018-05-20T06:45:53Z</time>
      </trkpt>
      <trkpt lat="42.922312030568719" lon="-8.256934024393559">
        <ele>372.80000000000001</ele>
        <time>2018-05-20T06:45:55Z</time>
      </trkpt>
      <trkpt lat="42.922287974506617" lon="-8.256881972774863">
        <ele>372.80000000000001</ele>
        <time>2018-05-20T06:45:56Z</time>
      </trkpt>
      <trkpt lat="42.922259978950024" lon="-8.256807960569859">
        <ele>372.80000000000001</ele>
        <time>2018-05-20T06:45:58Z</time>
      </trkpt>
      <trkpt lat="42.922242041677237" lon="-8.256762027740479">
        <ele>372.80000000000001</ele>
        <time>2018-05-20T06:45:59Z</time>
      </trkpt>
      <trkpt lat="42.922209016978741" lon="-8.256692960858345">
        <ele>372.89999999999998</ele>
        <time>2018-05-20T06:46:01Z</time>
      </trkpt>
      <trkpt lat="42.922171968966722" lon="-8.256647028028965">
        <ele>372.80000000000001</ele>
        <time>2018-05-20T06:46:02Z</time>
      </trkpt>
      <trkpt lat="42.922147996723652" lon="-8.256601011380553">
        <ele>372.80000000000001</ele>
        <time>2018-05-20T06:46:03Z</time>
      </trkpt>
      <trkpt lat="42.922111032530665" lon="-8.256513001397252">
        <ele>372.89999999999998</ele>
        <time>2018-05-20T06:46:06Z</time>
      </trkpt>
      <trkpt lat="42.922029979526997" lon="-8.25633798725903">
        <ele>373.5</ele>
        <time>2018-05-20T06:46:10Z</time>
      </trkpt>
      <trkpt lat="42.921942975372076" lon="-8.256198009476066">
        <ele>374.30000000000001</ele>
        <time>2018-05-20T06:46:14Z</time>
      </trkpt>
      <trkpt lat="42.921829987317324" lon="-8.255953006446362">
        <ele>375.89999999999998</ele>
        <time>2018-05-20T06:46:20Z</time>
      </trkpt>
      <trkpt lat="42.921724962070584" lon="-8.255718983709812">
        <ele>377.5</ele>
        <time>2018-05-20T06:46:26Z</time>
      </trkpt>
      <trkpt lat="42.921609040349722" lon="-8.255355963483453">
        <ele>379.69999999999999</ele>
        <time>2018-05-20T06:46:35Z</time>
      </trkpt>
      <trkpt lat="42.921496974304318" lon="-8.255100985988975">
        <ele>380.30000000000001</ele>
        <time>2018-05-20T06:46:41Z</time>
      </trkpt>
      <trkpt lat="42.921416005119681" lon="-8.254837039858103">
        <ele>381.10000000000002</ele>
        <time>2018-05-20T06:46:48Z</time>
      </trkpt>
      <trkpt lat="42.921319026499987" lon="-8.254616009071469">
        <ele>381.80000000000001</ele>
        <time>2018-05-20T06:46:53Z</time>
      </trkpt>
      <trkpt lat="42.921188017353415" lon="-8.254322977736592">
        <ele>381.39999999999998</ele>
        <time>2018-05-20T06:47:01Z</time>
      </trkpt>
      <trkpt lat="42.921118028461933" lon="-8.254094989970326">
        <ele>380.89999999999998</ele>
        <time>2018-05-20T06:47:06Z</time>
      </trkpt>
      <trkpt lat="42.921100007370114" lon="-8.254072023555636">
        <ele>380.89999999999998</ele>
        <time>2018-05-20T06:47:07Z</time>
      </trkpt>
      <trkpt lat="42.921058014035225" lon="-8.254014020785689">
        <ele>380.89999999999998</ele>
        <time>2018-05-20T06:47:08Z</time>
      </trkpt>
      <trkpt lat="42.921034041792154" lon="-8.253962974995375">
        <ele>380.80000000000001</ele>
        <time>2018-05-20T06:47:10Z</time>
      </trkpt>
      <trkpt lat="42.921016020700336" lon="-8.253916958346963">
        <ele>380.69999999999999</ele>
        <time>2018-05-20T06:47:11Z</time>
      </trkpt>
      <trkpt lat="42.920991964638233" lon="-8.253875970840454">
        <ele>380.69999999999999</ele>
        <time>2018-05-20T06:47:12Z</time>
      </trkpt>
      <trkpt lat="42.92096002958715" lon="-8.253835989162326">
        <ele>380.69999999999999</ele>
        <time>2018-05-20T06:47:13Z</time>
      </trkpt>
      <trkpt lat="42.920921975746751" lon="-8.253796007484198">
        <ele>380.69999999999999</ele>
        <time>2018-05-20T06:47:15Z</time>
      </trkpt>
      <trkpt lat="42.920890040695667" lon="-8.253767006099224">
        <ele>380.80000000000001</ele>
        <time>2018-05-20T06:47:16Z</time>
      </trkpt>
      <trkpt lat="42.920843018218875" lon="-8.253739010542631">
        <ele>380.89999999999998</ele>
        <time>2018-05-20T06:47:17Z</time>
      </trkpt>
      <trkpt lat="42.920801024883986" lon="-8.253703974187374">
        <ele>380.89999999999998</ele>
        <time>2018-05-20T06:47:19Z</time>
      </trkpt>
      <trkpt lat="42.920763976871967" lon="-8.253646977245808">
        <ele>380.69999999999999</ele>
        <time>2018-05-20T06:47:20Z</time>
      </trkpt>
      <trkpt lat="42.920741010457277" lon="-8.253600960597396">
        <ele>380.5</ele>
        <time>2018-05-20T06:47:22Z</time>
      </trkpt>
      <trkpt lat="42.920721983537078" lon="-8.253555027768016">
        <ele>380.39999999999998</ele>
        <time>2018-05-20T06:47:23Z</time>
      </trkpt>
      <trkpt lat="42.920688036829233" lon="-8.253524014726281">
        <ele>380.30000000000001</ele>
        <time>2018-05-20T06:47:24Z</time>
      </trkpt>
      <trkpt lat="42.920649982988834" lon="-8.253489984199405">
        <ele>380.30000000000001</ele>
        <time>2018-05-20T06:47:25Z</time>
      </trkpt>
      <trkpt lat="42.920617964118719" lon="-8.253455031663179">
        <ele>380.30000000000001</ele>
        <time>2018-05-20T06:47:27Z</time>
      </trkpt>
      <trkpt lat="42.920585023239255" lon="-8.253421001136303">
        <ele>380.19999999999999</ele>
        <time>2018-05-20T06:47:28Z</time>
      </trkpt>
      <trkpt lat="42.920538000762463" lon="-8.253374984487891">
        <ele>380.19999999999999</ele>
        <time>2018-05-20T06:47:29Z</time>
      </trkpt>
      <trkpt lat="42.920491984114051" lon="-8.253328967839479">
        <ele>380.10000000000002</ele>
        <time>2018-05-20T06:47:31Z</time>
      </trkpt>
      <trkpt lat="42.920469017699361" lon="-8.253283035010099">
        <ele>379.89999999999998</ele>
        <time>2018-05-20T06:47:32Z</time>
      </trkpt>
      <trkpt lat="42.920430963858962" lon="-8.253230983391404">
        <ele>379.80000000000001</ele>
        <time>2018-05-20T06:47:34Z</time>
      </trkpt>
      <trkpt lat="42.920393999665976" lon="-8.253208016976714">
        <ele>379.69999999999999</ele>
        <time>2018-05-20T06:47:35Z</time>
      </trkpt>
      <trkpt lat="42.920357035472989" lon="-8.253197036683559">
        <ele>379.5</ele>
        <time>2018-05-20T06:47:36Z</time>
      </trkpt>
      <trkpt lat="42.92031898163259" lon="-8.253180021420121">
        <ele>379.19999999999999</ele>
        <time>2018-05-20T06:47:37Z</time>
      </trkpt>
      <trkpt lat="42.920282017439604" lon="-8.253168035298586">
        <ele>379</ele>
        <time>2018-05-20T06:47:39Z</time>
      </trkpt>
      <trkpt lat="42.920240024104714" lon="-8.253139033913612">
        <ele>378.69999999999999</ele>
        <time>2018-05-20T06:47:40Z</time>
      </trkpt>
      <trkpt lat="42.920193001627922" lon="-8.253105003386736">
        <ele>378.30000000000001</ele>
        <time>2018-05-20T06:47:42Z</time>
      </trkpt>
      <trkpt lat="42.920160982757807" lon="-8.253082036972046">
        <ele>378.10000000000002</ele>
        <time>2018-05-20T06:47:43Z</time>
      </trkpt>
      <trkpt lat="42.920122006908059" lon="-8.253069967031479">
        <ele>377.89999999999998</ele>
        <time>2018-05-20T06:47:44Z</time>
      </trkpt>
      <trkpt lat="42.92008001357317" lon="-8.253053035587072">
        <ele>377.60000000000002</ele>
        <time>2018-05-20T06:47:45Z</time>
      </trkpt>
      <trkpt lat="42.920042965561152" lon="-8.253029985353351">
        <ele>377.30000000000001</ele>
        <time>2018-05-20T06:47:46Z</time>
      </trkpt>
      <trkpt lat="42.920004995539784" lon="-8.253012970089912">
        <ele>377.10000000000002</ele>
        <time>2018-05-20T06:47:48Z</time>
      </trkpt>
      <trkpt lat="42.919968031346798" lon="-8.253007018938661">
        <ele>376.89999999999998</ele>
        <time>2018-05-20T06:47:49Z</time>
      </trkpt>
      <trkpt lat="42.91993098333478" lon="-8.252972988411784">
        <ele>376.60000000000002</ele>
        <time>2018-05-20T06:47:50Z</time>
      </trkpt>
      <trkpt lat="42.919884966686368" lon="-8.252948010340333">
        <ele>376.30000000000001</ele>
        <time>2018-05-20T06:47:51Z</time>
      </trkpt>
      <trkpt lat="42.919834004715085" lon="-8.252895958721638">
        <ele>375.69999999999999</ele>
        <time>2018-05-20T06:47:53Z</time>
      </trkpt>
      <trkpt lat="42.919800980016589" lon="-8.252862012013793">
        <ele>375.39999999999998</ele>
        <time>2018-05-20T06:47:55Z</time>
      </trkpt>
      <trkpt lat="42.919768961146474" lon="-8.252826975658536">
        <ele>375</ele>
        <time>2018-05-20T06:47:56Z</time>
      </trkpt>
      <trkpt lat="42.919730991125107" lon="-8.252804009243846">
        <ele>374.80000000000001</ele>
        <time>2018-05-20T06:47:57Z</time>
      </trkpt>
      <trkpt lat="42.919702995568514" lon="-8.252776013687253">
        <ele>374.5</ele>
        <time>2018-05-20T06:47:58Z</time>
      </trkpt>
      <trkpt lat="42.919670976698399" lon="-8.252735026180744">
        <ele>374.10000000000002</ele>
        <time>2018-05-20T06:47:59Z</time>
      </trkpt>
      <trkpt lat="42.919642981141806" lon="-8.252689009532332">
        <ele>373.80000000000001</ele>
        <time>2018-05-20T06:48:01Z</time>
      </trkpt>
      <trkpt lat="42.919610040262341" lon="-8.252642992883921">
        <ele>373.39999999999998</ele>
        <time>2018-05-20T06:48:02Z</time>
      </trkpt>
      <trkpt lat="42.91958699002862" lon="-8.252596976235509">
        <ele>373.10000000000002</ele>
        <time>2018-05-20T06:48:03Z</time>
      </trkpt>
      <trkpt lat="42.91956402361393" lon="-8.252551965415478">
        <ele>372.80000000000001</ele>
        <time>2018-05-20T06:48:04Z</time>
      </trkpt>
      <trkpt lat="42.919537033885717" lon="-8.252507038414478">
        <ele>372.5</ele>
        <time>2018-05-20T06:48:06Z</time>
      </trkpt>
      <trkpt lat="42.919495040550828" lon="-8.252433026209474">
        <ele>372.10000000000002</ele>
        <time>2018-05-20T06:48:08Z</time>
      </trkpt>
      <trkpt lat="42.919466961175203" lon="-8.252380974590778">
        <ele>371.80000000000001</ele>
        <time>2018-05-20T06:48:09Z</time>
      </trkpt>
      <trkpt lat="42.91943896561861" lon="-8.25231802649796">
        <ele>371.39999999999998</ele>
        <time>2018-05-20T06:48:11Z</time>
      </trkpt>
      <trkpt lat="42.919402001425624" lon="-8.25225499458611">
        <ele>371.10000000000002</ele>
        <time>2018-05-20T06:48:12Z</time>
      </trkpt>
      <trkpt lat="42.919365037232637" lon="-8.252110993489623">
        <ele>370.39999999999998</ele>
        <time>2018-05-20T06:48:16Z</time>
      </trkpt>
      <trkpt lat="42.919340981170535" lon="-8.25205902568996">
        <ele>370.19999999999999</ele>
        <time>2018-05-20T06:48:17Z</time>
      </trkpt>
      <trkpt lat="42.919318014755845" lon="-8.2520189601928">
        <ele>370.10000000000002</ele>
        <time>2018-05-20T06:48:18Z</time>
      </trkpt>
      <trkpt lat="42.919290019199252" lon="-8.25197302736342">
        <ele>370</ele>
        <time>2018-05-20T06:48:20Z</time>
      </trkpt>
      <trkpt lat="42.919265041127801" lon="-8.251919969916344">
        <ele>369.89999999999998</ele>
        <time>2018-05-20T06:48:21Z</time>
      </trkpt>
      <trkpt lat="42.919164039194584" lon="-8.251713020727038">
        <ele>369.39999999999998</ele>
        <time>2018-05-20T06:48:26Z</time>
      </trkpt>
      <trkpt lat="42.919065970927477" lon="-8.251540018245578">
        <ele>369.10000000000002</ele>
        <time>2018-05-20T06:48:31Z</time>
      </trkpt>
      <trkpt lat="42.918937979266047" lon="-8.251290991902351">
        <ele>368.69999999999999</ele>
        <time>2018-05-20T06:48:38Z</time>
      </trkpt>
      <trkpt lat="42.918833959847689" lon="-8.251117989420891">
        <ele>367.60000000000002</ele>
        <time>2018-05-20T06:48:42Z</time>
      </trkpt>
      <trkpt lat="42.918777968734503" lon="-8.250972982496023">
        <ele>366.30000000000001</ele>
        <time>2018-05-20T06:48:46Z</time>
      </trkpt>
      <trkpt lat="42.918718960136175" lon="-8.25077198445797">
        <ele>364.39999999999998</ele>
        <time>2018-05-20T06:48:51Z</time>
      </trkpt>
      <trkpt lat="42.918676966801286" lon="-8.250592024996877">
        <ele>362.69999999999999</ele>
        <time>2018-05-20T06:48:55Z</time>
      </trkpt>
      <trkpt lat="42.918626004830003" lon="-8.250227998942137">
        <ele>360.30000000000001</ele>
        <time>2018-05-20T06:49:03Z</time>
      </trkpt>
      <trkpt lat="42.918536989018321" lon="-8.249718965962529">
        <ele>358.10000000000002</ele>
        <time>2018-05-20T06:49:14Z</time>
      </trkpt>
      <trkpt lat="42.918456019833684" lon="-8.249209010973573">
        <ele>355</ele>
        <time>2018-05-20T06:49:26Z</time>
      </trkpt>
      <trkpt lat="42.918386030942202" lon="-8.248835010454059">
        <ele>352.5</ele>
        <time>2018-05-20T06:49:34Z</time>
      </trkpt>
      <trkpt lat="42.918330039829016" lon="-8.248585984110832">
        <ele>351.39999999999998</ele>
        <time>2018-05-20T06:49:40Z</time>
      </trkpt>
      <trkpt lat="42.91827798821032" lon="-8.248320026323199">
        <ele>350.60000000000002</ele>
        <time>2018-05-20T06:49:46Z</time>
      </trkpt>
      <trkpt lat="42.918219985440373" lon="-8.248104024678469">
        <ele>349.89999999999998</ele>
        <time>2018-05-20T06:49:51Z</time>
      </trkpt>
      <trkpt lat="42.918177992105484" lon="-8.247814010828733">
        <ele>349</ele>
        <time>2018-05-20T06:49:57Z</time>
      </trkpt>
      <trkpt lat="42.918122000992298" lon="-8.247370021417737">
        <ele>347.5</ele>
        <time>2018-05-20T06:50:07Z</time>
      </trkpt>
      <trkpt lat="42.918060980737209" lon="-8.247057963162661">
        <ele>346.5</ele>
        <time>2018-05-20T06:50:14Z</time>
      </trkpt>
      <trkpt lat="42.918007001280785" lon="-8.246721010655165">
        <ele>345.10000000000002</ele>
        <time>2018-05-20T06:50:21Z</time>
      </trkpt>
      <trkpt lat="42.917941035702825" lon="-8.24643099680543">
        <ele>343.80000000000001</ele>
        <time>2018-05-20T06:50:28Z</time>
      </trkpt>
      <trkpt lat="42.917917985469103" lon="-8.24619404040277">
        <ele>342.89999999999998</ele>
        <time>2018-05-20T06:50:33Z</time>
      </trkpt>
      <trkpt lat="42.917909016832709" lon="-8.246160009875894">
        <ele>342.80000000000001</ele>
        <time>2018-05-20T06:50:34Z</time>
      </trkpt>
      <trkpt lat="42.91788998991251" lon="-8.246091026812792">
        <ele>342.60000000000002</ele>
        <time>2018-05-20T06:50:35Z</time>
      </trkpt>
      <trkpt lat="42.917870040982962" lon="-8.246042998507619">
        <ele>342.5</ele>
        <time>2018-05-20T06:50:37Z</time>
      </trkpt>
      <trkpt lat="42.917845984920859" lon="-8.246003016829491">
        <ele>342.5</ele>
        <time>2018-05-20T06:50:38Z</time>
      </trkpt>
      <trkpt lat="42.917823018506169" lon="-8.245955994352698">
        <ele>342.39999999999998</ele>
        <time>2018-05-20T06:50:39Z</time>
      </trkpt>
      <trkpt lat="42.917788987979293" lon="-8.245891034603119">
        <ele>342.19999999999999</ele>
        <time>2018-05-20T06:50:41Z</time>
      </trkpt>
      <trkpt lat="42.917788987979293" lon="-8.245834037661552">
        <ele>342.10000000000002</ele>
        <time>2018-05-20T06:50:42Z</time>
      </trkpt>
      <trkpt lat="42.917788987979293" lon="-8.245779974386096">
        <ele>341.89999999999998</ele>
        <time>2018-05-20T06:50:43Z</time>
      </trkpt>
      <trkpt lat="42.917788987979293" lon="-8.245720965787768">
        <ele>341.80000000000001</ele>
        <time>2018-05-20T06:50:44Z</time>
      </trkpt>
      <trkpt lat="42.917798040434718" lon="-8.245678972452879">
        <ele>341.69999999999999</ele>
        <time>2018-05-20T06:50:45Z</time>
      </trkpt>
      <trkpt lat="42.917798040434718" lon="-8.245620969682932">
        <ele>341.5</ele>
        <time>2018-05-20T06:50:47Z</time>
      </trkpt>
      <trkpt lat="42.917798040434718" lon="-8.245564978569746">
        <ele>341.39999999999998</ele>
        <time>2018-05-20T06:50:48Z</time>
      </trkpt>
      <trkpt lat="42.917802985757589" lon="-8.24550798162818">
        <ele>341.19999999999999</ele>
        <time>2018-05-20T06:50:49Z</time>
      </trkpt>
      <trkpt lat="42.917802985757589" lon="-8.245445033535361">
        <ele>341.10000000000002</ele>
        <time>2018-05-20T06:50:50Z</time>
      </trkpt>
      <trkpt lat="42.917802985757589" lon="-8.245392981916666">
        <ele>340.89999999999998</ele>
        <time>2018-05-20T06:50:52Z</time>
      </trkpt>
      <trkpt lat="42.917802985757589" lon="-8.245341014117003">
        <ele>340.80000000000001</ele>
        <time>2018-05-20T06:50:53Z</time>
      </trkpt>
      <trkpt lat="42.917802985757589" lon="-8.245273036882281">
        <ele>340.60000000000002</ele>
        <time>2018-05-20T06:50:54Z</time>
      </trkpt>
      <trkpt lat="42.917812038213015" lon="-8.24522702023387">
        <ele>340.5</ele>
        <time>2018-05-20T06:50:55Z</time>
      </trkpt>
      <trkpt lat="42.917812038213015" lon="-8.245158037170768">
        <ele>340.30000000000001</ele>
        <time>2018-05-20T06:50:57Z</time>
      </trkpt>
      <trkpt lat="42.917812038213015" lon="-8.245105985552073">
        <ele>340.19999999999999</ele>
        <time>2018-05-20T06:50:58Z</time>
      </trkpt>
      <trkpt lat="42.917812038213015" lon="-8.245054017752409">
        <ele>340.10000000000002</ele>
        <time>2018-05-20T06:50:59Z</time>
      </trkpt>
      <trkpt lat="42.917812038213015" lon="-8.244997020810843">
        <ele>339.89999999999998</ele>
        <time>2018-05-20T06:51:00Z</time>
      </trkpt>
      <trkpt lat="42.917812038213015" lon="-8.244933988898993">
        <ele>339.80000000000001</ele>
        <time>2018-05-20T06:51:02Z</time>
      </trkpt>
      <trkpt lat="42.917802985757589" lon="-8.244875986129046">
        <ele>339.60000000000002</ele>
        <time>2018-05-20T06:51:03Z</time>
      </trkpt>
      <trkpt lat="42.917788987979293" lon="-8.244825024157763">
        <ele>339.5</ele>
        <time>2018-05-20T06:51:04Z</time>
      </trkpt>
      <trkpt lat="42.917774990200996" lon="-8.244772972539067">
        <ele>339.30000000000001</ele>
        <time>2018-05-20T06:51:05Z</time>
      </trkpt>
      <trkpt lat="42.917732996866107" lon="-8.244718993082643">
        <ele>339.10000000000002</ele>
        <time>2018-05-20T06:51:07Z</time>
      </trkpt>
      <trkpt lat="42.917705001309514" lon="-8.244696026667953">
        <ele>339.10000000000002</ele>
        <time>2018-05-20T06:51:08Z</time>
      </trkpt>
      <trkpt lat="42.917668037116528" lon="-8.24466803111136">
        <ele>338.89999999999998</ele>
        <time>2018-05-20T06:51:09Z</time>
      </trkpt>
      <trkpt lat="42.917633000761271" lon="-8.244644980877638">
        <ele>338.80000000000001</ele>
        <time>2018-05-20T06:51:10Z</time>
      </trkpt>
      <trkpt lat="42.917610034346581" lon="-8.244610028341413">
        <ele>338.69999999999999</ele>
        <time>2018-05-20T06:51:11Z</time>
      </trkpt>
      <trkpt lat="42.917600981891155" lon="-8.244557976722717">
        <ele>338.5</ele>
        <time>2018-05-20T06:51:12Z</time>
      </trkpt>
      <trkpt lat="42.917600981891155" lon="-8.244507014751434">
        <ele>338.30000000000001</ele>
        <time>2018-05-20T06:51:14Z</time>
      </trkpt>
      <trkpt lat="42.917600981891155" lon="-8.244454963132739">
        <ele>338.10000000000002</ele>
        <time>2018-05-20T06:51:15Z</time>
      </trkpt>
      <trkpt lat="42.917605005204678" lon="-8.244402995333076">
        <ele>337.89999999999998</ele>
        <time>2018-05-20T06:51:16Z</time>
      </trkpt>
      <trkpt lat="42.917614979669452" lon="-8.244353039190173">
        <ele>337.69999999999999</ele>
        <time>2018-05-20T06:51:17Z</time>
      </trkpt>
      <trkpt lat="42.917619002982974" lon="-8.244294030591846">
        <ele>337.5</ele>
        <time>2018-05-20T06:51:18Z</time>
      </trkpt>
      <trkpt lat="42.917642975226045" lon="-8.24424197897315">
        <ele>337.30000000000001</ele>
        <time>2018-05-20T06:51:20Z</time>
      </trkpt>
      <trkpt lat="42.91765202768147" lon="-8.244179030880332">
        <ele>337.10000000000002</ele>
        <time>2018-05-20T06:51:21Z</time>
      </trkpt>
      <trkpt lat="42.917660996317863" lon="-8.244122033938766">
        <ele>336.89999999999998</ele>
        <time>2018-05-20T06:51:22Z</time>
      </trkpt>
      <trkpt lat="42.917666025459766" lon="-8.244064031168819">
        <ele>336.60000000000002</ele>
        <time>2018-05-20T06:51:24Z</time>
      </trkpt>
      <trkpt lat="42.917666025459766" lon="-8.244007034227252">
        <ele>336.39999999999998</ele>
        <time>2018-05-20T06:51:25Z</time>
      </trkpt>
      <trkpt lat="42.917666025459766" lon="-8.24393997900188">
        <ele>336.19999999999999</ele>
        <time>2018-05-20T06:51:26Z</time>
      </trkpt>
      <trkpt lat="42.917666025459766" lon="-8.243876025080681">
        <ele>335.89999999999998</ele>
        <time>2018-05-20T06:51:28Z</time>
      </trkpt>
      <trkpt lat="42.917666025459766" lon="-8.243812993168831">
        <ele>335.60000000000002</ele>
        <time>2018-05-20T06:51:29Z</time>
      </trkpt>
      <trkpt lat="42.91767499409616" lon="-8.243762031197548">
        <ele>335.5</ele>
        <time>2018-05-20T06:51:30Z</time>
      </trkpt>
      <trkpt lat="42.917698966339231" lon="-8.243707967922092">
        <ele>335.60000000000002</ele>
        <time>2018-05-20T06:51:31Z</time>
      </trkpt>
      <trkpt lat="42.917726961895823" lon="-8.243678966537118">
        <ele>335.80000000000001</ele>
        <time>2018-05-20T06:51:33Z</time>
      </trkpt>
      <trkpt lat="42.9177609924227" lon="-8.243662035092711">
        <ele>335.89999999999998</ele>
        <time>2018-05-20T06:51:34Z</time>
      </trkpt>
      <trkpt lat="42.917798040434718" lon="-8.243645019829273">
        <ele>336.10000000000002</ele>
        <time>2018-05-20T06:51:35Z</time>
      </trkpt>
      <trkpt lat="42.917832992970943" lon="-8.243626998737454">
        <ele>336.19999999999999</ele>
        <time>2018-05-20T06:51:36Z</time>
      </trkpt>
      <trkpt lat="42.917859982699156" lon="-8.243604032322764">
        <ele>336.39999999999998</ele>
        <time>2018-05-20T06:51:37Z</time>
      </trkpt>
      <trkpt lat="42.917893007397652" lon="-8.243576036766172">
        <ele>336.60000000000002</ele>
        <time>2018-05-20T06:51:38Z</time>
      </trkpt>
      <trkpt lat="42.917915973812342" lon="-8.24353002011776">
        <ele>336.80000000000001</ele>
        <time>2018-05-20T06:51:39Z</time>
      </trkpt>
      <trkpt lat="42.917926032096148" lon="-8.243477968499064">
        <ele>337</ele>
        <time>2018-05-20T06:51:40Z</time>
      </trkpt>
      <trkpt lat="42.91795402765274" lon="-8.243447039276362">
        <ele>337.19999999999999</ele>
        <time>2018-05-20T06:51:41Z</time>
      </trkpt>
      <trkpt lat="42.917993003502488" lon="-8.243439998477697">
        <ele>337.30000000000001</ele>
        <time>2018-05-20T06:51:43Z</time>
      </trkpt>
      <trkpt lat="42.9180390201509" lon="-8.243433963507414">
        <ele>337.39999999999998</ele>
        <time>2018-05-20T06:51:44Z</time>
      </trkpt>
      <trkpt lat="42.918069027364254" lon="-8.243410997092724">
        <ele>337.60000000000002</ele>
        <time>2018-05-20T06:51:45Z</time>
      </trkpt>
      <trkpt lat="42.918102974072099" lon="-8.243393981829286">
        <ele>337.69999999999999</ele>
        <time>2018-05-20T06:51:46Z</time>
      </trkpt>
      <trkpt lat="42.918135998770595" lon="-8.243364980444312">
        <ele>337.89999999999998</ele>
        <time>2018-05-20T06:51:47Z</time>
      </trkpt>
      <trkpt lat="42.918170029297471" lon="-8.243352994322777">
        <ele>338</ele>
        <time>2018-05-20T06:51:48Z</time>
      </trkpt>
      <trkpt lat="42.918205987662077" lon="-8.243342014029622">
        <ele>338.19999999999999</ele>
        <time>2018-05-20T06:51:49Z</time>
      </trkpt>
      <trkpt lat="42.918240018188953" lon="-8.243320975452662">
        <ele>338.30000000000001</ele>
        <time>2018-05-20T06:51:50Z</time>
      </trkpt>
      <trkpt lat="42.918250998482108" lon="-8.24327495880425">
        <ele>338.5</ele>
        <time>2018-05-20T06:51:51Z</time>
      </trkpt>
      <trkpt lat="42.918235994875431" lon="-8.243215028196573">
        <ele>338.69999999999999</ele>
        <time>2018-05-20T06:51:53Z</time>
      </trkpt>
      <trkpt lat="42.918197019025683" lon="-8.24314403347671">
        <ele>338.89999999999998</ele>
        <time>2018-05-20T06:51:55Z</time>
      </trkpt>
      <trkpt lat="42.918183021247387" lon="-8.243028027936816">
        <ele>339.19999999999999</ele>
        <time>2018-05-20T06:51:57Z</time>
      </trkpt>
      <trkpt lat="42.918090987950563" lon="-8.242824012413621">
        <ele>340.10000000000002</ele>
        <time>2018-05-20T06:52:03Z</time>
      </trkpt>
      <trkpt lat="42.918034996837378" lon="-8.242696020752192">
        <ele>341</ele>
        <time>2018-05-20T06:52:06Z</time>
      </trkpt>
      <trkpt lat="42.917966013774276" lon="-8.242520000785589">
        <ele>342.30000000000001</ele>
        <time>2018-05-20T06:52:10Z</time>
      </trkpt>
      <trkpt lat="42.917909016832709" lon="-8.242360996082425">
        <ele>343.60000000000002</ele>
        <time>2018-05-20T06:52:14Z</time>
      </trkpt>
      <trkpt lat="42.917909016832709" lon="-8.242340963333845">
        <ele>343.80000000000001</ele>
        <time>2018-05-20T06:52:14Z</time>
      </trkpt>
      <trkpt lat="42.91788998991251" lon="-8.242290001362562">
        <ele>344.19999999999999</ele>
        <time>2018-05-20T06:52:16Z</time>
      </trkpt>
      <trkpt lat="42.917884960770607" lon="-8.242238033562899">
        <ele>344.60000000000002</ele>
        <time>2018-05-20T06:52:17Z</time>
      </trkpt>
      <trkpt lat="42.917881021276116" lon="-8.242192016914487">
        <ele>345</ele>
        <time>2018-05-20T06:52:18Z</time>
      </trkpt>
      <trkpt lat="42.917871968820691" lon="-8.242128985002637">
        <ele>345.5</ele>
        <time>2018-05-20T06:52:19Z</time>
      </trkpt>
      <trkpt lat="42.91786702349782" lon="-8.242077017202973">
        <ele>345.89999999999998</ele>
        <time>2018-05-20T06:52:20Z</time>
      </trkpt>
      <trkpt lat="42.917847996577621" lon="-8.242031000554562">
        <ele>346</ele>
        <time>2018-05-20T06:52:21Z</time>
      </trkpt>
      <trkpt lat="42.917833998799324" lon="-8.24198498390615">
        <ele>346.19999999999999</ele>
        <time>2018-05-20T06:52:23Z</time>
      </trkpt>
      <trkpt lat="42.917811032384634" lon="-8.241938967257738">
        <ele>346.30000000000001</ele>
        <time>2018-05-20T06:52:24Z</time>
      </trkpt>
      <trkpt lat="42.917773984372616" lon="-8.241851041093469">
        <ele>346.5</ele>
        <time>2018-05-20T06:52:26Z</time>
      </trkpt>
      <trkpt lat="42.917769039049745" lon="-8.241798989474773">
        <ele>346.69999999999999</ele>
        <time>2018-05-20T06:52:27Z</time>
      </trkpt>
      <trkpt lat="42.917769039049745" lon="-8.24174802750349">
        <ele>346.89999999999998</ele>
        <time>2018-05-20T06:52:28Z</time>
      </trkpt>
      <trkpt lat="42.917769039049745" lon="-8.241695975884795">
        <ele>347.10000000000002</ele>
        <time>2018-05-20T06:52:29Z</time>
      </trkpt>
      <trkpt lat="42.917773984372616" lon="-8.241639984771609">
        <ele>347.30000000000001</ele>
        <time>2018-05-20T06:52:31Z</time>
      </trkpt>
      <trkpt lat="42.917783036828041" lon="-8.241589022800326">
        <ele>347.60000000000002</ele>
        <time>2018-05-20T06:52:32Z</time>
      </trkpt>
      <trkpt lat="42.917801979929209" lon="-8.241536971181631">
        <ele>347.80000000000001</ele>
        <time>2018-05-20T06:52:33Z</time>
      </trkpt>
      <trkpt lat="42.91782503016293" lon="-8.241474023088813">
        <ele>348.10000000000002</ele>
        <time>2018-05-20T06:52:34Z</time>
      </trkpt>
      <trkpt lat="42.917839027941227" lon="-8.241399005055428">
        <ele>348.39999999999998</ele>
        <time>2018-05-20T06:52:36Z</time>
      </trkpt>
      <trkpt lat="42.917861994355917" lon="-8.241352988407016">
        <ele>348.60000000000002</ele>
        <time>2018-05-20T06:52:37Z</time>
      </trkpt>
      <trkpt lat="42.91788998991251" lon="-8.241302026435733">
        <ele>348.80000000000001</ele>
        <time>2018-05-20T06:52:39Z</time>
      </trkpt>
      <trkpt lat="42.917909016832709" lon="-8.241256009787321">
        <ele>349</ele>
        <time>2018-05-20T06:52:40Z</time>
      </trkpt>
      <trkpt lat="42.917931983247399" lon="-8.241209993138909">
        <ele>349.10000000000002</ele>
        <time>2018-05-20T06:52:41Z</time>
      </trkpt>
      <trkpt lat="42.917951010167599" lon="-8.241158025339246">
        <ele>349.30000000000001</ele>
        <time>2018-05-20T06:52:42Z</time>
      </trkpt>
      <trkpt lat="42.917973976582289" lon="-8.241117959842086">
        <ele>349.39999999999998</ele>
        <time>2018-05-20T06:52:43Z</time>
      </trkpt>
      <trkpt lat="42.918007001280785" lon="-8.241065992042422">
        <ele>349.5</ele>
        <time>2018-05-20T06:52:45Z</time>
      </trkpt>
      <trkpt lat="42.918034996837378" lon="-8.241008995100856">
        <ele>349.80000000000001</ele>
        <time>2018-05-20T06:52:46Z</time>
      </trkpt>
      <trkpt lat="42.918053017929196" lon="-8.240955015644431">
        <ele>350</ele>
        <time>2018-05-20T06:52:48Z</time>
      </trkpt>
      <trkpt lat="42.918063998222351" lon="-8.240901036188006">
        <ele>350.30000000000001</ele>
        <time>2018-05-20T06:52:49Z</time>
      </trkpt>
      <trkpt lat="42.918063998222351" lon="-8.240838004276156">
        <ele>350.60000000000002</ele>
        <time>2018-05-20T06:52:50Z</time>
      </trkpt>
      <trkpt lat="42.918069027364254" lon="-8.24078100733459">
        <ele>350.89999999999998</ele>
        <time>2018-05-20T06:52:52Z</time>
      </trkpt>
      <trkpt lat="42.918077996000648" lon="-8.240723004564643">
        <ele>351.19999999999999</ele>
        <time>2018-05-20T06:52:53Z</time>
      </trkpt>
      <trkpt lat="42.918101968243718" lon="-8.240666007623076">
        <ele>351.5</ele>
        <time>2018-05-20T06:52:54Z</time>
      </trkpt>
      <trkpt lat="42.918119989335537" lon="-8.240619990974665">
        <ele>351.80000000000001</ele>
        <time>2018-05-20T06:52:55Z</time>
      </trkpt>
      <trkpt lat="42.91814798489213" lon="-8.240568023175001">
        <ele>352.10000000000002</ele>
        <time>2018-05-20T06:52:57Z</time>
      </trkpt>
      <trkpt lat="42.918172040954232" lon="-8.240522006526589">
        <ele>352.30000000000001</ele>
        <time>2018-05-20T06:52:58Z</time>
      </trkpt>
      <trkpt lat="42.918209005147219" lon="-8.240465009585023">
        <ele>352.69999999999999</ele>
        <time>2018-05-20T06:53:00Z</time>
      </trkpt>
      <trkpt lat="42.918242029845715" lon="-8.240429973229766">
        <ele>352.89999999999998</ele>
        <time>2018-05-20T06:53:01Z</time>
      </trkpt>
      <trkpt lat="42.918285029008985" lon="-8.240387979894877">
        <ele>353.30000000000001</ele>
        <time>2018-05-20T06:53:02Z</time>
      </trkpt>
      <trkpt lat="42.918359963223338" lon="-8.240328971296549">
        <ele>353.89999999999998</ele>
        <time>2018-05-20T06:53:05Z</time>
      </trkpt>
      <trkpt lat="42.918435987085104" lon="-8.240316985175014">
        <ele>354</ele>
        <time>2018-05-20T06:53:07Z</time>
      </trkpt>
      <trkpt lat="42.918473035097122" lon="-8.240250013768673">
        <ele>354.69999999999999</ele>
        <time>2018-05-20T06:53:09Z</time>
      </trkpt>
      <trkpt lat="42.918568002060056" lon="-8.240133002400398">
        <ele>356.10000000000002</ele>
        <time>2018-05-20T06:53:13Z</time>
      </trkpt>
      <trkpt lat="42.918683001771569" lon="-8.239983972162008">
        <ele>358</ele>
        <time>2018-05-20T06:53:18Z</time>
      </trkpt>
      <trkpt lat="42.918772017583251" lon="-8.239895040169358">
        <ele>359.19999999999999</ele>
        <time>2018-05-20T06:53:21Z</time>
      </trkpt>
      <trkpt lat="42.918772017583251" lon="-8.239890011027455">
        <ele>359.30000000000001</ele>
        <time>2018-05-20T06:53:21Z</time>
      </trkpt>
      <trkpt lat="42.918874025344849" lon="-8.239783979952335">
        <ele>360.39999999999998</ele>
        <time>2018-05-20T06:53:25Z</time>
      </trkpt>
      <trkpt lat="42.918932028114796" lon="-8.239699993282557">
        <ele>361.19999999999999</ele>
        <time>2018-05-20T06:53:27Z</time>
      </trkpt>
      <trkpt lat="42.919004028663039" lon="-8.239589016884565">
        <ele>362.30000000000001</ele>
        <time>2018-05-20T06:53:31Z</time>
      </trkpt>
      <trkpt lat="42.919102013111115" lon="-8.23938399553299">
        <ele>363</ele>
        <time>2018-05-20T06:53:36Z</time>
      </trkpt>
      <trkpt lat="42.91919999755919" lon="-8.239186014980078">
        <ele>363.89999999999998</ele>
        <time>2018-05-20T06:53:41Z</time>
      </trkpt>
      <trkpt lat="42.919283984228969" lon="-8.23895500972867">
        <ele>365.19999999999999</ele>
        <time>2018-05-20T06:53:47Z</time>
      </trkpt>
      <trkpt lat="42.919365037232637" lon="-8.238767003640533">
        <ele>366.39999999999998</ele>
        <time>2018-05-20T06:53:51Z</time>
      </trkpt>
      <trkpt lat="42.919469978660345" lon="-8.238488975912333">
        <ele>366.60000000000002</ele>
        <time>2018-05-20T06:53:58Z</time>
      </trkpt>
      <trkpt lat="42.919612973928452" lon="-8.23824598453939">
        <ele>367</ele>
        <time>2018-05-20T06:54:05Z</time>
      </trkpt>
      <trkpt lat="42.919680029153824" lon="-8.237994024530053">
        <ele>367.10000000000002</ele>
        <time>2018-05-20T06:54:11Z</time>
      </trkpt>
      <trkpt lat="42.919774996116757" lon="-8.237767964601517">
        <ele>367.5</ele>
        <time>2018-05-20T06:54:16Z</time>
      </trkpt>
      <trkpt lat="42.919827969744802" lon="-8.23764399625361">
        <ele>367.89999999999998</ele>
        <time>2018-05-20T06:54:20Z</time>
      </trkpt>
      <trkpt lat="42.919880021363497" lon="-8.237575013190508">
        <ele>368.19999999999999</ele>
        <time>2018-05-20T06:54:22Z</time>
      </trkpt>
      <trkpt lat="42.920044977217913" lon="-8.237460013478994">
        <ele>369</ele>
        <time>2018-05-20T06:54:27Z</time>
      </trkpt>
      <trkpt lat="42.920202976092696" lon="-8.23736596852541">
        <ele>369.89999999999998</ele>
        <time>2018-05-20T06:54:32Z</time>
      </trkpt>
      <trkpt lat="42.920230971649289" lon="-8.237331015989184">
        <ele>370.10000000000002</ele>
        <time>2018-05-20T06:54:33Z</time>
      </trkpt>
      <trkpt lat="42.920254021883011" lon="-8.23727997019887">
        <ele>370.39999999999998</ele>
        <time>2018-05-20T06:54:35Z</time>
      </trkpt>
      <trkpt lat="42.92027497664094" lon="-8.237245017662644">
        <ele>370.60000000000002</ele>
        <time>2018-05-20T06:54:36Z</time>
      </trkpt>
      <trkpt lat="42.920302972197533" lon="-8.237199001014233">
        <ele>371</ele>
        <time>2018-05-20T06:54:37Z</time>
      </trkpt>
      <trkpt lat="42.920330967754126" lon="-8.237167987972498">
        <ele>371.19999999999999</ele>
        <time>2018-05-20T06:54:38Z</time>
      </trkpt>
      <trkpt lat="42.920359969139099" lon="-8.237137980759144">
        <ele>371.5</ele>
        <time>2018-05-20T06:54:39Z</time>
      </trkpt>
      <trkpt lat="42.920378996059299" lon="-8.237096993252635">
        <ele>371.80000000000001</ele>
        <time>2018-05-20T06:54:40Z</time>
      </trkpt>
      <trkpt lat="42.920398022979498" lon="-8.237051982432604">
        <ele>372.19999999999999</ele>
        <time>2018-05-20T06:54:41Z</time>
      </trkpt>
      <trkpt lat="42.920412020757794" lon="-8.237005965784192">
        <ele>372.80000000000001</ele>
        <time>2018-05-20T06:54:42Z</time>
      </trkpt>
      <trkpt lat="42.920415960252285" lon="-8.236953997984529">
        <ele>373.39999999999998</ele>
        <time>2018-05-20T06:54:44Z</time>
      </trkpt>
      <trkpt lat="42.920415960252285" lon="-8.236902030184865">
        <ele>374</ele>
        <time>2018-05-20T06:54:45Z</time>
      </trkpt>
      <trkpt lat="42.920415960252285" lon="-8.236848972737789">
        <ele>374.5</ele>
        <time>2018-05-20T06:54:46Z</time>
      </trkpt>
      <trkpt lat="42.920412020757794" lon="-8.236719975247979">
        <ele>375.89999999999998</ele>
        <time>2018-05-20T06:54:49Z</time>
      </trkpt>
      <trkpt lat="42.920420989394188" lon="-8.236283026635647">
        <ele>380.69999999999999</ele>
        <time>2018-05-20T06:54:58Z</time>
      </trkpt>
      <trkpt lat="42.920412020757794" lon="-8.235914977267385">
        <ele>383.39999999999998</ele>
        <time>2018-05-20T06:55:06Z</time>
      </trkpt>
      <trkpt lat="42.920415960252285" lon="-8.23571003973484">
        <ele>384.89999999999998</ele>
        <time>2018-05-20T06:55:11Z</time>
      </trkpt>
      <trkpt lat="42.920415960252285" lon="-8.235686989501119">
        <ele>385</ele>
        <time>2018-05-20T06:55:11Z</time>
      </trkpt>
      <trkpt lat="42.920415960252285" lon="-8.235636027529836">
        <ele>385.39999999999998</ele>
        <time>2018-05-20T06:55:12Z</time>
      </trkpt>
      <trkpt lat="42.920426018536091" lon="-8.235578024759889">
        <ele>385.89999999999998</ele>
        <time>2018-05-20T06:55:14Z</time>
      </trkpt>
      <trkpt lat="42.920455019921064" lon="-8.235524967312813">
        <ele>386.39999999999998</ele>
        <time>2018-05-20T06:55:15Z</time>
      </trkpt>
      <trkpt lat="42.920478992164135" lon="-8.235470987856388">
        <ele>386.80000000000001</ele>
        <time>2018-05-20T06:55:16Z</time>
      </trkpt>
      <trkpt lat="42.920506987720728" lon="-8.235424971207976">
        <ele>387.30000000000001</ele>
        <time>2018-05-20T06:55:18Z</time>
      </trkpt>
      <trkpt lat="42.920531965792179" lon="-8.235377026721835">
        <ele>387.30000000000001</ele>
        <time>2018-05-20T06:55:19Z</time>
      </trkpt>
      <trkpt lat="42.920549986883998" lon="-8.235331010073423">
        <ele>387.30000000000001</ele>
        <time>2018-05-20T06:55:20Z</time>
      </trkpt>
      <trkpt lat="42.920579994097352" lon="-8.235289016738534">
        <ele>387.30000000000001</ele>
        <time>2018-05-20T06:55:21Z</time>
      </trkpt>
      <trkpt lat="42.920608995482326" lon="-8.235231013968587">
        <ele>387.30000000000001</ele>
        <time>2018-05-20T06:55:23Z</time>
      </trkpt>
      <trkpt lat="42.920632967725396" lon="-8.235184997320175">
        <ele>387.30000000000001</ele>
        <time>2018-05-20T06:55:24Z</time>
      </trkpt>
      <trkpt lat="42.920656017959118" lon="-8.235128000378609">
        <ele>387.30000000000001</ele>
        <time>2018-05-20T06:55:26Z</time>
      </trkpt>
      <trkpt lat="42.920678984373808" lon="-8.235088018700481">
        <ele>387.39999999999998</ele>
        <time>2018-05-20T06:55:27Z</time>
      </trkpt>
      <trkpt lat="42.920692982152104" lon="-8.235042002052069">
        <ele>387.39999999999998</ele>
        <time>2018-05-20T06:55:28Z</time>
      </trkpt>
      <trkpt lat="42.920706979930401" lon="-8.234973018988967">
        <ele>387.39999999999998</ele>
        <time>2018-05-20T06:55:29Z</time>
      </trkpt>
      <trkpt lat="42.920722989365458" lon="-8.234900012612343">
        <ele>387.39999999999998</ele>
        <time>2018-05-20T06:55:31Z</time>
      </trkpt>
      <trkpt lat="42.920742016285658" lon="-8.234860030934215">
        <ele>387.5</ele>
        <time>2018-05-20T06:55:32Z</time>
      </trkpt>
      <trkpt lat="42.920760037377477" lon="-8.234814014285803">
        <ele>387.60000000000002</ele>
        <time>2018-05-20T06:55:33Z</time>
      </trkpt>
      <trkpt lat="42.920780992135406" lon="-8.234772020950913">
        <ele>387.69999999999999</ele>
        <time>2018-05-20T06:55:34Z</time>
      </trkpt>
      <trkpt lat="42.920803958550096" lon="-8.234663978219032">
        <ele>387.80000000000001</ele>
        <time>2018-05-20T06:55:37Z</time>
      </trkpt>
      <trkpt lat="42.920830026268959" lon="-8.234524000436068">
        <ele>387.60000000000002</ele>
        <time>2018-05-20T06:55:40Z</time>
      </trkpt>
      <trkpt lat="42.920863972976804" lon="-8.234298024326563">
        <ele>386.5</ele>
        <time>2018-05-20T06:55:45Z</time>
      </trkpt>
      <trkpt lat="42.92087403126061" lon="-8.234245972707868">
        <ele>386.30000000000001</ele>
        <time>2018-05-20T06:55:46Z</time>
      </trkpt>
      <trkpt lat="42.9208779707551" lon="-8.234194004908204">
        <ele>386</ele>
        <time>2018-05-20T06:55:47Z</time>
      </trkpt>
      <trkpt lat="42.920888029038906" lon="-8.234137007966638">
        <ele>385.80000000000001</ele>
        <time>2018-05-20T06:55:48Z</time>
      </trkpt>
      <trkpt lat="42.9208969976753" lon="-8.234080011025071">
        <ele>385.5</ele>
        <time>2018-05-20T06:55:50Z</time>
      </trkpt>
      <trkpt lat="42.920902026817203" lon="-8.234027959406376">
        <ele>385.30000000000001</ele>
        <time>2018-05-20T06:55:51Z</time>
      </trkpt>
      <trkpt lat="42.920905966311693" lon="-8.233975991606712">
        <ele>385</ele>
        <time>2018-05-20T06:55:52Z</time>
      </trkpt>
      <trkpt lat="42.920916024595499" lon="-8.233925029635429">
        <ele>384.80000000000001</ele>
        <time>2018-05-20T06:55:53Z</time>
      </trkpt>
      <trkpt lat="42.920930022373796" lon="-8.233860991895199">
        <ele>384.69999999999999</ele>
        <time>2018-05-20T06:55:54Z</time>
      </trkpt>
      <trkpt lat="42.920944020152092" lon="-8.233814975246787">
        <ele>384.60000000000002</ele>
        <time>2018-05-20T06:55:56Z</time>
      </trkpt>
      <trkpt lat="42.920966986566782" lon="-8.233774993568659">
        <ele>384.69999999999999</ele>
        <time>2018-05-20T06:55:57Z</time>
      </trkpt>
      <trkpt lat="42.920990036800504" lon="-8.233728976920247">
        <ele>384.89999999999998</ele>
        <time>2018-05-20T06:55:58Z</time>
      </trkpt>
      <trkpt lat="42.921008979901671" lon="-8.233688995242119">
        <ele>385.10000000000002</ele>
        <time>2018-05-20T06:55:59Z</time>
      </trkpt>
      <trkpt lat="42.921022977679968" lon="-8.233637027442455">
        <ele>385.10000000000002</ele>
        <time>2018-05-20T06:56:00Z</time>
      </trkpt>
      <trkpt lat="42.921050973236561" lon="-8.233585981652141">
        <ele>385.30000000000001</ele>
        <time>2018-05-20T06:56:01Z</time>
      </trkpt>
      <trkpt lat="42.92107000015676" lon="-8.233539965003729">
        <ele>385.5</ele>
        <time>2018-05-20T06:56:03Z</time>
      </trkpt>
      <trkpt lat="42.921104030683637" lon="-8.23349897749722">
        <ele>385.80000000000001</ele>
        <time>2018-05-20T06:56:04Z</time>
      </trkpt>
      <trkpt lat="42.921172007918358" lon="-8.23336897417903">
        <ele>386.19999999999999</ele>
        <time>2018-05-20T06:56:07Z</time>
      </trkpt>
      <trkpt lat="42.921286001801491" lon="-8.233065968379378">
        <ele>386.30000000000001</ele>
        <time>2018-05-20T06:56:15Z</time>
      </trkpt>
      <trkpt lat="42.921422962099314" lon="-8.232805961742997">
        <ele>387.39999999999998</ele>
        <time>2018-05-20T06:56:22Z</time>
      </trkpt>
      <trkpt lat="42.92158498428762" lon="-8.23253002949059">
        <ele>388.30000000000001</ele>
        <time>2018-05-20T06:56:29Z</time>
      </trkpt>
      <trkpt lat="42.921710964292288" lon="-8.232150999829173">
        <ele>387.39999999999998</ele>
        <time>2018-05-20T06:56:38Z</time>
      </trkpt>
      <trkpt lat="42.921852031722665" lon="-8.231856962665916">
        <ele>388.39999999999998</ele>
        <time>2018-05-20T06:56:46Z</time>
      </trkpt>
      <trkpt lat="42.921921014785767" lon="-8.231703992933035">
        <ele>389</ele>
        <time>2018-05-20T06:56:50Z</time>
      </trkpt>
      <trkpt lat="42.921921014785767" lon="-8.231696030125022">
        <ele>389</ele>
        <time>2018-05-20T06:56:50Z</time>
      </trkpt>
      <trkpt lat="42.922034002840519" lon="-8.231498971581459">
        <ele>389.80000000000001</ele>
        <time>2018-05-20T06:56:56Z</time>
      </trkpt>
      <trkpt lat="42.922075996175408" lon="-8.231324963271618">
        <ele>390</ele>
        <time>2018-05-20T06:57:00Z</time>
      </trkpt>
      <trkpt lat="42.922085970640182" lon="-8.231301996856928">
        <ele>390.10000000000002</ele>
        <time>2018-05-20T06:57:00Z</time>
      </trkpt>
      <trkpt lat="42.922099968418479" lon="-8.23124198243022">
        <ele>390.19999999999999</ele>
        <time>2018-05-20T06:57:01Z</time>
      </trkpt>
      <trkpt lat="42.922117989510298" lon="-8.231191020458937">
        <ele>390.5</ele>
        <time>2018-05-20T06:57:03Z</time>
      </trkpt>
      <trkpt lat="42.922137016430497" lon="-8.231145003810525">
        <ele>390.89999999999998</ele>
        <time>2018-05-20T06:57:04Z</time>
      </trkpt>
      <trkpt lat="42.922151014208794" lon="-8.231093036010861">
        <ele>391.19999999999999</ele>
        <time>2018-05-20T06:57:05Z</time>
      </trkpt>
      <trkpt lat="42.92216501198709" lon="-8.231040984392166">
        <ele>391.5</ele>
        <time>2018-05-20T06:57:06Z</time>
      </trkpt>
      <trkpt lat="42.922173980623484" lon="-8.2309839874506">
        <ele>391.80000000000001</ele>
        <time>2018-05-20T06:57:08Z</time>
      </trkpt>
      <trkpt lat="42.92218403890729" lon="-8.230937970802188">
        <ele>392</ele>
        <time>2018-05-20T06:57:09Z</time>
      </trkpt>
      <trkpt lat="42.92218797840178" lon="-8.230886003002524">
        <ele>392.30000000000001</ele>
        <time>2018-05-20T06:57:10Z</time>
      </trkpt>
      <trkpt lat="42.922193007543683" lon="-8.230834035202861">
        <ele>392.5</ele>
        <time>2018-05-20T06:57:11Z</time>
      </trkpt>
      <trkpt lat="42.922212034463882" lon="-8.230780977755785">
        <ele>392.80000000000001</ele>
        <time>2018-05-20T06:57:12Z</time>
      </trkpt>
      <trkpt lat="42.922259978950024" lon="-8.230651980265975">
        <ele>393.69999999999999</ele>
        <time>2018-05-20T06:57:15Z</time>
      </trkpt>
      <trkpt lat="42.922319993376732" lon="-8.23046900331974">
        <ele>394.80000000000001</ele>
        <time>2018-05-20T06:57:20Z</time>
      </trkpt>
      <trkpt lat="42.922319993376732" lon="-8.230461040511727">
        <ele>394.80000000000001</ele>
        <time>2018-05-20T06:57:20Z</time>
      </trkpt>
      <trkpt lat="42.922408003360033" lon="-8.230212014168501">
        <ele>395.80000000000001</ele>
        <time>2018-05-20T06:57:26Z</time>
      </trkpt>
      <trkpt lat="42.922500958666205" lon="-8.229960976168513">
        <ele>396.5</ele>
        <time>2018-05-20T06:57:32Z</time>
      </trkpt>
      <trkpt lat="42.922505987808108" lon="-8.229955025017262">
        <ele>396.5</ele>
        <time>2018-05-20T06:57:32Z</time>
      </trkpt>
      <trkpt lat="42.922519985586405" lon="-8.229902973398566">
        <ele>396.60000000000002</ele>
        <time>2018-05-20T06:57:33Z</time>
      </trkpt>
      <trkpt lat="42.922538006678224" lon="-8.229852011427283">
        <ele>396.69999999999999</ele>
        <time>2018-05-20T06:57:35Z</time>
      </trkpt>
      <trkpt lat="42.922557033598423" lon="-8.229805994778872">
        <ele>396.80000000000001</ele>
        <time>2018-05-20T06:57:36Z</time>
      </trkpt>
      <trkpt lat="42.922571031376719" lon="-8.22975997813046">
        <ele>396.80000000000001</ele>
        <time>2018-05-20T06:57:37Z</time>
      </trkpt>
      <trkpt lat="42.922580000013113" lon="-8.229708010330796">
        <ele>396.80000000000001</ele>
        <time>2018-05-20T06:57:38Z</time>
      </trkpt>
      <trkpt lat="42.922589974477887" lon="-8.22965101338923">
        <ele>396.89999999999998</ele>
        <time>2018-05-20T06:57:39Z</time>
      </trkpt>
      <trkpt lat="42.922603972256184" lon="-8.229598961770535">
        <ele>396.89999999999998</ele>
        <time>2018-05-20T06:57:40Z</time>
      </trkpt>
      <trkpt lat="42.92261797003448" lon="-8.229553028941155">
        <ele>397</ele>
        <time>2018-05-20T06:57:41Z</time>
      </trkpt>
      <trkpt lat="42.922635991126299" lon="-8.229500977322459">
        <ele>397.19999999999999</ele>
        <time>2018-05-20T06:57:43Z</time>
      </trkpt>
      <trkpt lat="42.922655018046498" lon="-8.229467030614615">
        <ele>397.30000000000001</ele>
        <time>2018-05-20T06:57:44Z</time>
      </trkpt>
      <trkpt lat="42.922669015824795" lon="-8.229421013966203">
        <ele>397.39999999999998</ele>
        <time>2018-05-20T06:57:45Z</time>
      </trkpt>
      <trkpt lat="42.922691982239485" lon="-8.229381032288075">
        <ele>397.60000000000002</ele>
        <time>2018-05-20T06:57:46Z</time>
      </trkpt>
      <trkpt lat="42.922705980017781" lon="-8.229335015639663">
        <ele>397.80000000000001</ele>
        <time>2018-05-20T06:57:47Z</time>
      </trkpt>
      <trkpt lat="42.922725006937981" lon="-8.229282964020968">
        <ele>397.89999999999998</ele>
        <time>2018-05-20T06:57:48Z</time>
      </trkpt>
      <trkpt lat="42.922739004716277" lon="-8.229242982342839">
        <ele>398.10000000000002</ele>
        <time>2018-05-20T06:57:49Z</time>
      </trkpt>
      <trkpt lat="42.922761971130967" lon="-8.229191014543176">
        <ele>398.30000000000001</ele>
        <time>2018-05-20T06:57:50Z</time>
      </trkpt>
      <trkpt lat="42.92278996668756" lon="-8.229149021208286">
        <ele>398.5</ele>
        <time>2018-05-20T06:57:52Z</time>
      </trkpt>
      <trkpt lat="42.922815028578043" lon="-8.229111973196268">
        <ele>398.69999999999999</ele>
        <time>2018-05-20T06:57:53Z</time>
      </trkpt>
      <trkpt lat="42.922837994992733" lon="-8.229078026488423">
        <ele>398.89999999999998</ele>
        <time>2018-05-20T06:57:54Z</time>
      </trkpt>
      <trkpt lat="42.922857021912932" lon="-8.229032009840012">
        <ele>399.10000000000002</ele>
        <time>2018-05-20T06:57:55Z</time>
      </trkpt>
      <trkpt lat="42.922878982499242" lon="-8.228992028161883">
        <ele>399.30000000000001</ele>
        <time>2018-05-20T06:57:56Z</time>
      </trkpt>
      <trkpt lat="42.922899015247822" lon="-8.22894399985671">
        <ele>399.5</ele>
        <time>2018-05-20T06:57:57Z</time>
      </trkpt>
      <trkpt lat="42.922917958348989" lon="-8.228908963501453">
        <ele>399.60000000000002</ele>
        <time>2018-05-20T06:57:58Z</time>
      </trkpt>
      <trkpt lat="42.922941008582711" lon="-8.228875016793609">
        <ele>399.60000000000002</ele>
        <time>2018-05-20T06:57:59Z</time>
      </trkpt>
      <trkpt lat="42.922969004139304" lon="-8.22883503511548">
        <ele>399.5</ele>
        <time>2018-05-20T06:58:00Z</time>
      </trkpt>
      <trkpt lat="42.922988031059504" lon="-8.228789018467069">
        <ele>399.5</ele>
        <time>2018-05-20T06:58:01Z</time>
      </trkpt>
      <trkpt lat="42.923016026616096" lon="-8.22874803096056">
        <ele>399.39999999999998</ele>
        <time>2018-05-20T06:58:03Z</time>
      </trkpt>
      <trkpt lat="42.92304796166718" lon="-8.2287079654634">
        <ele>399</ele>
        <time>2018-05-20T06:58:04Z</time>
      </trkpt>
      <trkpt lat="42.923086015507579" lon="-8.228667983785272">
        <ele>398.60000000000002</ele>
        <time>2018-05-20T06:58:05Z</time>
      </trkpt>
      <trkpt lat="42.92311099357903" lon="-8.22862003929913">
        <ele>398.10000000000002</ele>
        <time>2018-05-20T06:58:07Z</time>
      </trkpt>
      <trkpt lat="42.92313395999372" lon="-8.228586008772254">
        <ele>397.80000000000001</ele>
        <time>2018-05-20T06:58:08Z</time>
      </trkpt>
      <trkpt lat="42.923152986913919" lon="-8.22853404097259">
        <ele>397.39999999999998</ele>
        <time>2018-05-20T06:58:09Z</time>
      </trkpt>
      <trkpt lat="42.923171008005738" lon="-8.228488024324179">
        <ele>397</ele>
        <time>2018-05-20T06:58:10Z</time>
      </trkpt>
      <trkpt lat="42.923190034925938" lon="-8.228452987968922">
        <ele>396.69999999999999</ele>
        <time>2018-05-20T06:58:11Z</time>
      </trkpt>
      <trkpt lat="42.923208978027105" lon="-8.228417029604316">
        <ele>396.39999999999998</ele>
        <time>2018-05-20T06:58:12Z</time>
      </trkpt>
      <trkpt lat="42.923240996897221" lon="-8.228403031826019">
        <ele>396.10000000000002</ele>
        <time>2018-05-20T06:58:13Z</time>
      </trkpt>
      <trkpt lat="42.923274021595716" lon="-8.228369001299143">
        <ele>395.60000000000002</ele>
        <time>2018-05-20T06:58:14Z</time>
      </trkpt>
      <trkpt lat="42.923296988010406" lon="-8.228342011570931">
        <ele>395.30000000000001</ele>
        <time>2018-05-20T06:58:15Z</time>
      </trkpt>
      <trkpt lat="42.923324983566999" lon="-8.228307981044054">
        <ele>394.89999999999998</ele>
        <time>2018-05-20T06:58:16Z</time>
      </trkpt>
      <trkpt lat="42.923349039629102" lon="-8.228256013244391">
        <ele>394.39999999999998</ele>
        <time>2018-05-20T06:58:18Z</time>
      </trkpt>
      <trkpt lat="42.923378041014075" lon="-8.228225000202656">
        <ele>394</ele>
        <time>2018-05-20T06:58:19Z</time>
      </trkpt>
      <trkpt lat="42.923401007428765" lon="-8.228190969675779">
        <ele>393.60000000000002</ele>
        <time>2018-05-20T06:58:20Z</time>
      </trkpt>
      <trkpt lat="42.923424979671836" lon="-8.228139001876116">
        <ele>393.10000000000002</ele>
        <time>2018-05-20T06:58:21Z</time>
      </trkpt>
      <trkpt lat="42.923445012420416" lon="-8.228097008541226">
        <ele>392.69999999999999</ele>
        <time>2018-05-20T06:58:22Z</time>
      </trkpt>
      <trkpt lat="42.923467978835106" lon="-8.228050991892815">
        <ele>392.19999999999999</ele>
        <time>2018-05-20T06:58:23Z</time>
      </trkpt>
      <trkpt lat="42.923492034897208" lon="-8.228011010214686">
        <ele>391.80000000000001</ele>
        <time>2018-05-20T06:58:24Z</time>
      </trkpt>
      <trkpt lat="42.923509972169995" lon="-8.227953007444739">
        <ele>391.30000000000001</ele>
        <time>2018-05-20T06:58:26Z</time>
      </trkpt>
      <trkpt lat="42.923534028232098" lon="-8.227906990796328">
        <ele>390.80000000000001</ele>
        <time>2018-05-20T06:58:27Z</time>
      </trkpt>
      <trkpt lat="42.923549031838775" lon="-8.227858962491155">
        <ele>390.30000000000001</ele>
        <time>2018-05-20T06:58:28Z</time>
      </trkpt>
      <trkpt lat="42.923568980768323" lon="-8.227816969156265">
        <ele>389.89999999999998</ele>
        <time>2018-05-20T06:58:29Z</time>
      </trkpt>
      <trkpt lat="42.923616003245115" lon="-8.227740023285151">
        <ele>389.10000000000002</ele>
        <time>2018-05-20T06:58:31Z</time>
      </trkpt>
      <trkpt lat="42.923703007400036" lon="-8.227599039673805">
        <ele>387.80000000000001</ele>
        <time>2018-05-20T06:58:35Z</time>
      </trkpt>
      <trkpt lat="42.923777019605041" lon="-8.227431988343597">
        <ele>386.60000000000002</ele>
        <time>2018-05-20T06:58:40Z</time>
      </trkpt>
      <trkpt lat="42.923867041245103" lon="-8.227285975590348">
        <ele>385.69999999999999</ele>
        <time>2018-05-20T06:58:44Z</time>
      </trkpt>
      <trkpt lat="42.923924038186669" lon="-8.227135017514229">
        <ele>384.80000000000001</ele>
        <time>2018-05-20T06:58:48Z</time>
      </trkpt>
      <trkpt lat="42.924017999321222" lon="-8.226917004212737">
        <ele>383.80000000000001</ele>
        <time>2018-05-20T06:58:53Z</time>
      </trkpt>
      <trkpt lat="42.924139034003019" lon="-8.226812984794378">
        <ele>383.39999999999998</ele>
        <time>2018-05-20T06:58:57Z</time>
      </trkpt>
      <trkpt lat="42.924295021221042" lon="-8.226658003404737">
        <ele>383</ele>
        <time>2018-05-20T06:59:03Z</time>
      </trkpt>
      <trkpt lat="42.924426030367613" lon="-8.226516013965011">
        <ele>382.89999999999998</ele>
        <time>2018-05-20T06:59:08Z</time>
      </trkpt>
      <trkpt lat="42.924513034522533" lon="-8.22640797123313">
        <ele>382.89999999999998</ele>
        <time>2018-05-20T06:59:11Z</time>
      </trkpt>
      <trkpt lat="42.924518985673785" lon="-8.226401014253497">
        <ele>382.89999999999998</ele>
        <time>2018-05-20T06:59:12Z</time>
      </trkpt>
      <trkpt lat="42.924581011757255" lon="-8.226255001500249">
        <ele>383</ele>
        <time>2018-05-20T06:59:15Z</time>
      </trkpt>
      <trkpt lat="42.924663992598653" lon="-8.226086022332311">
        <ele>383.5</ele>
        <time>2018-05-20T06:59:20Z</time>
      </trkpt>
      <trkpt lat="42.92474303394556" lon="-8.225947972387075">
        <ele>384</ele>
        <time>2018-05-20T06:59:24Z</time>
      </trkpt>
      <trkpt lat="42.924748985096812" lon="-8.225941015407443">
        <ele>384</ele>
        <time>2018-05-20T06:59:24Z</time>
      </trkpt>
      <trkpt lat="42.924812017008662" lon="-8.225787039846182">
        <ele>384.39999999999998</ele>
        <time>2018-05-20T06:59:28Z</time>
      </trkpt>
      <trkpt lat="42.9248739592731" lon="-8.225613031536341">
        <ele>384.69999999999999</ele>
        <time>2018-05-20T06:59:32Z</time>
      </trkpt>
      <trkpt lat="42.92495802976191" lon="-8.225370040163398">
        <ele>385.19999999999999</ele>
        <time>2018-05-20T06:59:38Z</time>
      </trkpt>
      <trkpt lat="42.924972027540207" lon="-8.22533399797976">
        <ele>385.30000000000001</ele>
        <time>2018-05-20T06:59:38Z</time>
      </trkpt>
      <trkpt lat="42.924994993954897" lon="-8.225300973281264">
        <ele>385.39999999999998</ele>
        <time>2018-05-20T06:59:39Z</time>
      </trkpt>
      <trkpt lat="42.92500396259129" lon="-8.225255040451884">
        <ele>385.39999999999998</ele>
        <time>2018-05-20T06:59:41Z</time>
      </trkpt>
      <trkpt lat="42.925017960369587" lon="-8.225209023803473">
        <ele>385.5</ele>
        <time>2018-05-20T06:59:42Z</time>
      </trkpt>
      <trkpt lat="42.925028018653393" lon="-8.225150015205145">
        <ele>385.5</ele>
        <time>2018-05-20T06:59:43Z</time>
      </trkpt>
      <trkpt lat="42.925042016431689" lon="-8.225110033527017">
        <ele>385.5</ele>
        <time>2018-05-20T06:59:44Z</time>
      </trkpt>
      <trkpt lat="42.925064982846379" lon="-8.225064016878605">
        <ele>385.60000000000002</ele>
        <time>2018-05-20T06:59:45Z</time>
      </trkpt>
      <trkpt lat="42.925088033080101" lon="-8.225023029372096">
        <ele>385.60000000000002</ele>
        <time>2018-05-20T06:59:46Z</time>
      </trkpt>
      <trkpt lat="42.925110999494791" lon="-8.224982963874936">
        <ele>385.69999999999999</ele>
        <time>2018-05-20T06:59:47Z</time>
      </trkpt>
      <trkpt lat="42.92513002641499" lon="-8.224942982196808">
        <ele>385.69999999999999</ele>
        <time>2018-05-20T06:59:48Z</time>
      </trkpt>
      <trkpt lat="42.925144024193287" lon="-8.224884979426861">
        <ele>385.69999999999999</ele>
        <time>2018-05-20T06:59:50Z</time>
      </trkpt>
      <trkpt lat="42.925162967294455" lon="-8.22483996860683">
        <ele>385.69999999999999</ele>
        <time>2018-05-20T06:59:51Z</time>
      </trkpt>
      <trkpt lat="42.925176965072751" lon="-8.224798981100321">
        <ele>385.69999999999999</ele>
        <time>2018-05-20T06:59:52Z</time>
      </trkpt>
      <trkpt lat="42.925190962851048" lon="-8.224752964451909">
        <ele>385.69999999999999</ele>
        <time>2018-05-20T06:59:53Z</time>
      </trkpt>
      <trkpt lat="42.925214013084769" lon="-8.224712982773781">
        <ele>385.69999999999999</ele>
        <time>2018-05-20T06:59:54Z</time>
      </trkpt>
      <trkpt lat="42.925247037783265" lon="-8.224666966125369">
        <ele>385.69999999999999</ele>
        <time>2018-05-20T06:59:55Z</time>
      </trkpt>
      <trkpt lat="42.925273021683097" lon="-8.224631007760763">
        <ele>385.69999999999999</ele>
        <time>2018-05-20T06:59:56Z</time>
      </trkpt>
      <trkpt lat="42.925304034724832" lon="-8.224604018032551">
        <ele>385.80000000000001</ele>
        <time>2018-05-20T06:59:58Z</time>
      </trkpt>
      <trkpt lat="42.92532498948276" lon="-8.2245600130409">
        <ele>385.80000000000001</ele>
        <time>2018-05-20T06:59:59Z</time>
      </trkpt>
      <trkpt lat="42.925339993089437" lon="-8.224522965028882">
        <ele>385.89999999999998</ele>
        <time>2018-05-20T07:00:00Z</time>
      </trkpt>
      <trkpt lat="42.925353990867734" lon="-8.224477032199502">
        <ele>386</ele>
        <time>2018-05-20T07:00:01Z</time>
      </trkpt>
      <trkpt lat="42.925383998081088" lon="-8.224420035257936">
        <ele>386.10000000000002</ele>
        <time>2018-05-20T07:00:02Z</time>
      </trkpt>
      <trkpt lat="42.925403025001287" lon="-8.224372006952763">
        <ele>386.19999999999999</ele>
        <time>2018-05-20T07:00:03Z</time>
      </trkpt>
      <trkpt lat="42.925417022779584" lon="-8.224325990304351">
        <ele>386.30000000000001</ele>
        <time>2018-05-20T07:00:04Z</time>
      </trkpt>
      <trkpt lat="42.925432026386261" lon="-8.224286008626223">
        <ele>386.39999999999998</ele>
        <time>2018-05-20T07:00:05Z</time>
      </trkpt>
      <trkpt lat="42.925471002236009" lon="-8.224221970885992">
        <ele>386.69999999999999</ele>
        <time>2018-05-20T07:00:07Z</time>
      </trkpt>
      <trkpt lat="42.925530010834336" lon="-8.224110994488001">
        <ele>387</ele>
        <time>2018-05-20T07:00:10Z</time>
      </trkpt>
      <trkpt lat="42.925581978634" lon="-8.223938997834921">
        <ele>387.39999999999998</ele>
        <time>2018-05-20T07:00:14Z</time>
      </trkpt>
      <trkpt lat="42.925675017759204" lon="-8.223660970106721">
        <ele>387.69999999999999</ele>
        <time>2018-05-20T07:00:21Z</time>
      </trkpt>
      <trkpt lat="42.925739977508783" lon="-8.223419990390539">
        <ele>387.5</ele>
        <time>2018-05-20T07:00:26Z</time>
      </trkpt>
      <trkpt lat="42.925750035792589" lon="-8.223390989005566">
        <ele>387.5</ele>
        <time>2018-05-20T07:00:27Z</time>
      </trkpt>
      <trkpt lat="42.925767973065376" lon="-8.223339021205902">
        <ele>387.5</ele>
        <time>2018-05-20T07:00:28Z</time>
      </trkpt>
      <trkpt lat="42.925777025520802" lon="-8.223287975415587">
        <ele>387.39999999999998</ele>
        <time>2018-05-20T07:00:29Z</time>
      </trkpt>
      <trkpt lat="42.925800997763872" lon="-8.223246987909079">
        <ele>387.5</ele>
        <time>2018-05-20T07:00:31Z</time>
      </trkpt>
      <trkpt lat="42.925819018855691" lon="-8.223196025937796">
        <ele>387.39999999999998</ele>
        <time>2018-05-20T07:00:32Z</time>
      </trkpt>
      <trkpt lat="42.925851959735155" lon="-8.223138023167849">
        <ele>387.5</ele>
        <time>2018-05-20T07:00:33Z</time>
      </trkpt>
      <trkpt lat="42.925866041332483" lon="-8.223089994862676">
        <ele>387.5</ele>
        <time>2018-05-20T07:00:35Z</time>
      </trkpt>
      <trkpt lat="42.925875009968877" lon="-8.223032997921109">
        <ele>387.39999999999998</ele>
        <time>2018-05-20T07:00:36Z</time>
      </trkpt>
      <trkpt lat="42.925898982211947" lon="-8.222969966009259">
        <ele>387.39999999999998</ele>
        <time>2018-05-20T07:00:37Z</time>
      </trkpt>
      <trkpt lat="42.925908034667373" lon="-8.22292897850275">
        <ele>387.39999999999998</ele>
        <time>2018-05-20T07:00:38Z</time>
      </trkpt>
      <trkpt lat="42.925919014960527" lon="-8.222881034016609">
        <ele>387.30000000000001</ele>
        <time>2018-05-20T07:00:39Z</time>
      </trkpt>
      <trkpt lat="42.925923960283399" lon="-8.222829988226295">
        <ele>387.10000000000002</ele>
        <time>2018-05-20T07:00:40Z</time>
      </trkpt>
      <trkpt lat="42.925927983596921" lon="-8.222771985456348">
        <ele>387</ele>
        <time>2018-05-20T07:00:42Z</time>
      </trkpt>
      <trkpt lat="42.925927983596921" lon="-8.222721023485065">
        <ele>386.80000000000001</ele>
        <time>2018-05-20T07:00:43Z</time>
      </trkpt>
      <trkpt lat="42.925927983596921" lon="-8.222668971866369">
        <ele>386.60000000000002</ele>
        <time>2018-05-20T07:00:44Z</time>
      </trkpt>
      <trkpt lat="42.925927983596921" lon="-8.222606023773551">
        <ele>386.39999999999998</ele>
        <time>2018-05-20T07:00:45Z</time>
      </trkpt>
      <trkpt lat="42.925927983596921" lon="-8.222553972154856">
        <ele>386.19999999999999</ele>
        <time>2018-05-20T07:00:46Z</time>
      </trkpt>
      <trkpt lat="42.925923960283399" lon="-8.222502004355192">
        <ele>386</ele>
        <time>2018-05-20T07:00:48Z</time>
      </trkpt>
      <trkpt lat="42.925923960283399" lon="-8.222450958564878">
        <ele>385.89999999999998</ele>
        <time>2018-05-20T07:00:49Z</time>
      </trkpt>
      <trkpt lat="42.925923960283399" lon="-8.222398990765214">
        <ele>385.69999999999999</ele>
        <time>2018-05-20T07:00:50Z</time>
      </trkpt>
      <trkpt lat="42.925923960283399" lon="-8.22234702296555">
        <ele>385.5</ele>
        <time>2018-05-20T07:00:51Z</time>
      </trkpt>
      <trkpt lat="42.925933012738824" lon="-8.222298994660378">
        <ele>385.39999999999998</ele>
        <time>2018-05-20T07:00:52Z</time>
      </trkpt>
      <trkpt lat="42.925933012738824" lon="-8.222241997718811">
        <ele>385.19999999999999</ele>
        <time>2018-05-20T07:00:53Z</time>
      </trkpt>
      <trkpt lat="42.925938041880727" lon="-8.222149964421988">
        <ele>384.89999999999998</ele>
        <time>2018-05-20T07:00:55Z</time>
      </trkpt>
      <trkpt lat="42.925938041880727" lon="-8.222092967480421">
        <ele>384.69999999999999</ele>
        <time>2018-05-20T07:00:57Z</time>
      </trkpt>
      <trkpt lat="42.925938041880727" lon="-8.222018033266068">
        <ele>384.5</ele>
        <time>2018-05-20T07:00:58Z</time>
      </trkpt>
      <trkpt lat="42.925941981375217" lon="-8.221965981647372">
        <ele>384.39999999999998</ele>
        <time>2018-05-20T07:00:59Z</time>
      </trkpt>
      <trkpt lat="42.92594701051712" lon="-8.221896998584271">
        <ele>384.30000000000001</ele>
        <time>2018-05-20T07:01:01Z</time>
      </trkpt>
      <trkpt lat="42.925955979153514" lon="-8.221840001642704">
        <ele>384.10000000000002</ele>
        <time>2018-05-20T07:01:02Z</time>
      </trkpt>
      <trkpt lat="42.925991015508771" lon="-8.221771018579602">
        <ele>384.10000000000002</ele>
        <time>2018-05-20T07:01:04Z</time>
      </trkpt>
      <trkpt lat="42.926034014672041" lon="-8.221616037189961">
        <ele>383.89999999999998</ele>
        <time>2018-05-20T07:01:07Z</time>
      </trkpt>
      <trkpt lat="42.92611800134182" lon="-8.22135703638196">
        <ele>383.69999999999999</ele>
        <time>2018-05-20T07:01:14Z</time>
      </trkpt>
      <trkpt lat="42.926211040467024" lon="-8.220984041690826">
        <ele>383.19999999999999</ele>
        <time>2018-05-20T07:01:22Z</time>
      </trkpt>
      <trkpt lat="42.92633400298655" lon="-8.220537034794688">
        <ele>382.69999999999999</ele>
        <time>2018-05-20T07:01:32Z</time>
      </trkpt>
      <trkpt lat="42.926497031003237" lon="-8.220011992380023">
        <ele>382</ele>
        <time>2018-05-20T07:01:45Z</time>
      </trkpt>
      <trkpt lat="42.92661102488637" lon="-8.219580994918943">
        <ele>381.60000000000002</ele>
        <time>2018-05-20T07:01:55Z</time>
      </trkpt>
      <trkpt lat="42.926730969920754" lon="-8.219093000516295">
        <ele>381.80000000000001</ele>
        <time>2018-05-20T07:02:06Z</time>
      </trkpt>
      <trkpt lat="42.926883017644286" lon="-8.218594025820494">
        <ele>383</ele>
        <time>2018-05-20T07:02:18Z</time>
      </trkpt>
      <trkpt lat="42.926948983222246" lon="-8.218283979222179">
        <ele>385</ele>
        <time>2018-05-20T07:02:25Z</time>
      </trkpt>
      <trkpt lat="42.927019977942109" lon="-8.218095973134041">
        <ele>386.10000000000002</ele>
        <time>2018-05-20T07:02:29Z</time>
      </trkpt>
      <trkpt lat="42.927026012912393" lon="-8.218088010326028">
        <ele>386.10000000000002</ele>
        <time>2018-05-20T07:02:29Z</time>
      </trkpt>
      <trkpt lat="42.927050990983844" lon="-8.218064960092306">
        <ele>386.30000000000001</ele>
        <time>2018-05-20T07:02:30Z</time>
      </trkpt>
      <trkpt lat="42.927075969055295" lon="-8.218031013384461">
        <ele>386.39999999999998</ele>
        <time>2018-05-20T07:02:31Z</time>
      </trkpt>
      <trkpt lat="42.927103964611888" lon="-8.217995977029204">
        <ele>386.69999999999999</ele>
        <time>2018-05-20T07:02:33Z</time>
      </trkpt>
      <trkpt lat="42.927142018452287" lon="-8.217950966209173">
        <ele>387</ele>
        <time>2018-05-20T07:02:34Z</time>
      </trkpt>
      <trkpt lat="42.92717001400888" lon="-8.217905033379793">
        <ele>387.39999999999998</ele>
        <time>2018-05-20T07:02:35Z</time>
      </trkpt>
      <trkpt lat="42.92719298042357" lon="-8.217869997024536">
        <ele>387.89999999999998</ele>
        <time>2018-05-20T07:02:36Z</time>
      </trkpt>
      <trkpt lat="42.927230028435588" lon="-8.217823980376124">
        <ele>388.5</ele>
        <time>2018-05-20T07:02:38Z</time>
      </trkpt>
      <trkpt lat="42.927252994850278" lon="-8.217777963727713">
        <ele>389.10000000000002</ele>
        <time>2018-05-20T07:02:39Z</time>
      </trkpt>
      <trkpt lat="42.927275039255619" lon="-8.217733958736062">
        <ele>389.69999999999999</ele>
        <time>2018-05-20T07:02:40Z</time>
      </trkpt>
      <trkpt lat="42.927285013720393" lon="-8.217688025906682">
        <ele>390.19999999999999</ele>
        <time>2018-05-20T07:02:41Z</time>
      </trkpt>
      <trkpt lat="42.927303034812212" lon="-8.217618959024549">
        <ele>391</ele>
        <time>2018-05-20T07:02:43Z</time>
      </trkpt>
      <trkpt lat="42.927318960428238" lon="-8.217576965689659">
        <ele>391.5</ele>
        <time>2018-05-20T07:02:44Z</time>
      </trkpt>
      <trkpt lat="42.927328012883663" lon="-8.217519968748093">
        <ele>392.19999999999999</ele>
        <time>2018-05-20T07:02:45Z</time>
      </trkpt>
      <trkpt lat="42.927351985126734" lon="-8.217474035918713">
        <ele>392.69999999999999</ele>
        <time>2018-05-20T07:02:46Z</time>
      </trkpt>
      <trkpt lat="42.92736598290503" lon="-8.217428019270301">
        <ele>393.30000000000001</ele>
        <time>2018-05-20T07:02:48Z</time>
      </trkpt>
      <trkpt lat="42.927389033138752" lon="-8.21736398153007">
        <ele>394.10000000000002</ele>
        <time>2018-05-20T07:02:49Z</time>
      </trkpt>
      <trkpt lat="42.927417028695345" lon="-8.217313019558787">
        <ele>394.69999999999999</ele>
        <time>2018-05-20T07:02:50Z</time>
      </trkpt>
      <trkpt lat="42.927439995110035" lon="-8.217267002910376">
        <ele>395.30000000000001</ele>
        <time>2018-05-20T07:02:52Z</time>
      </trkpt>
      <trkpt lat="42.927463967353106" lon="-8.217215035110712">
        <ele>395.89999999999998</ele>
        <time>2018-05-20T07:02:53Z</time>
      </trkpt>
      <trkpt lat="42.927492968738079" lon="-8.217160971835256">
        <ele>396.60000000000002</ele>
        <time>2018-05-20T07:02:55Z</time>
      </trkpt>
      <trkpt lat="42.927553988993168" lon="-8.217003978788853">
        <ele>398</ele>
        <time>2018-05-20T07:02:58Z</time>
      </trkpt>
      <trkpt lat="42.927638981491327" lon="-8.21678202599287">
        <ele>399.10000000000002</ele>
        <time>2018-05-20T07:03:04Z</time>
      </trkpt>
      <trkpt lat="42.927731014788151" lon="-8.216586979106069">
        <ele>400.10000000000002</ele>
        <time>2018-05-20T07:03:09Z</time>
      </trkpt>
      <trkpt lat="42.927789017558098" lon="-8.216368965804577">
        <ele>401.10000000000002</ele>
        <time>2018-05-20T07:03:14Z</time>
      </trkpt>
      <trkpt lat="42.92779496870935" lon="-8.216361002996564">
        <ele>401.19999999999999</ele>
        <time>2018-05-20T07:03:14Z</time>
      </trkpt>
      <trkpt lat="42.927867975085974" lon="-8.216192023828626">
        <ele>401.80000000000001</ele>
        <time>2018-05-20T07:03:18Z</time>
      </trkpt>
      <trkpt lat="42.92794399894774" lon="-8.215981973335147">
        <ele>402.10000000000002</ele>
        <time>2018-05-20T07:03:23Z</time>
      </trkpt>
      <trkpt lat="42.928077019751072" lon="-8.215647032484412">
        <ele>402.89999999999998</ele>
        <time>2018-05-20T07:03:32Z</time>
      </trkpt>
      <trkpt lat="42.92820299975574" lon="-8.215408986434341">
        <ele>403.69999999999999</ele>
        <time>2018-05-20T07:03:38Z</time>
      </trkpt>
      <trkpt lat="42.928356975317001" lon="-8.215073961764574">
        <ele>402.60000000000002</ele>
        <time>2018-05-20T07:03:47Z</time>
      </trkpt>
      <trkpt lat="42.928366027772427" lon="-8.215039009228349">
        <ele>402.39999999999998</ele>
        <time>2018-05-20T07:03:47Z</time>
      </trkpt>
      <trkpt lat="42.92837499640882" lon="-8.214964997023344">
        <ele>402</ele>
        <time>2018-05-20T07:03:49Z</time>
      </trkpt>
      <trkpt lat="42.928384970873594" lon="-8.214918980374932">
        <ele>401.80000000000001</ele>
        <time>2018-05-20T07:03:50Z</time>
      </trkpt>
      <trkpt lat="42.928388994187117" lon="-8.214860977604985">
        <ele>401.39999999999998</ele>
        <time>2018-05-20T07:03:51Z</time>
      </trkpt>
      <trkpt lat="42.928412966430187" lon="-8.214798029512167">
        <ele>401.10000000000002</ele>
        <time>2018-05-20T07:03:53Z</time>
      </trkpt>
      <trkpt lat="42.928430987522006" lon="-8.214752012863755">
        <ele>400.89999999999998</ele>
        <time>2018-05-20T07:03:54Z</time>
      </trkpt>
      <trkpt lat="42.928469041362405" lon="-8.214700967073441">
        <ele>400.69999999999999</ele>
        <time>2018-05-20T07:03:56Z</time>
      </trkpt>
      <trkpt lat="42.928492007777095" lon="-8.214655034244061">
        <ele>400.5</ele>
        <time>2018-05-20T07:03:57Z</time>
      </trkpt>
      <trkpt lat="42.928525032475591" lon="-8.21461396291852">
        <ele>400.39999999999998</ele>
        <time>2018-05-20T07:03:58Z</time>
      </trkpt>
      <trkpt lat="42.928552022203803" lon="-8.214585967361927">
        <ele>400.30000000000001</ele>
        <time>2018-05-20T07:03:59Z</time>
      </trkpt>
      <trkpt lat="42.928580017760396" lon="-8.214545985683799">
        <ele>400.10000000000002</ele>
        <time>2018-05-20T07:04:00Z</time>
      </trkpt>
      <trkpt lat="42.928598960861564" lon="-8.214499969035387">
        <ele>399.89999999999998</ele>
        <time>2018-05-20T07:04:02Z</time>
      </trkpt>
      <trkpt lat="42.928622011095285" lon="-8.214456969872117">
        <ele>399.69999999999999</ele>
        <time>2018-05-20T07:04:03Z</time>
      </trkpt>
      <trkpt lat="42.928650006651878" lon="-8.214416988193989">
        <ele>399.5</ele>
        <time>2018-05-20T07:04:04Z</time>
      </trkpt>
      <trkpt lat="42.928670961409807" lon="-8.214374994859099">
        <ele>399.30000000000001</ele>
        <time>2018-05-20T07:04:05Z</time>
      </trkpt>
      <trkpt lat="42.928684959188104" lon="-8.214323027059436">
        <ele>398.89999999999998</ele>
        <time>2018-05-20T07:04:06Z</time>
      </trkpt>
      <trkpt lat="42.928708009421825" lon="-8.214282961562276">
        <ele>398.69999999999999</ele>
        <time>2018-05-20T07:04:07Z</time>
      </trkpt>
      <trkpt lat="42.928730975836515" lon="-8.214237028732896">
        <ele>398.5</ele>
        <time>2018-05-20T07:04:09Z</time>
      </trkpt>
      <trkpt lat="42.928758971393108" lon="-8.214191012084484">
        <ele>398.30000000000001</ele>
        <time>2018-05-20T07:04:10Z</time>
      </trkpt>
      <trkpt lat="42.928788978606462" lon="-8.214149018749595">
        <ele>398.19999999999999</ele>
        <time>2018-05-20T07:04:11Z</time>
      </trkpt>
      <trkpt lat="42.928808005526662" lon="-8.214103002101183">
        <ele>398</ele>
        <time>2018-05-20T07:04:12Z</time>
      </trkpt>
      <trkpt lat="42.928812028840184" lon="-8.214051034301519">
        <ele>397.69999999999999</ele>
        <time>2018-05-20T07:04:13Z</time>
      </trkpt>
      <trkpt lat="42.928816974163055" lon="-8.213959001004696">
        <ele>397.10000000000002</ele>
        <time>2018-05-20T07:04:15Z</time>
      </trkpt>
      <trkpt lat="42.928822003304958" lon="-8.213884988799691">
        <ele>396.60000000000002</ele>
        <time>2018-05-20T07:04:17Z</time>
      </trkpt>
      <trkpt lat="42.928822003304958" lon="-8.213833021000028">
        <ele>396.30000000000001</ele>
        <time>2018-05-20T07:04:18Z</time>
      </trkpt>
      <trkpt lat="42.928822003304958" lon="-8.213776024058461">
        <ele>395.89999999999998</ele>
        <time>2018-05-20T07:04:19Z</time>
      </trkpt>
      <trkpt lat="42.928822003304958" lon="-8.213723972439766">
        <ele>395.69999999999999</ele>
        <time>2018-05-20T07:04:20Z</time>
      </trkpt>
      <trkpt lat="42.928822003304958" lon="-8.213661024346948">
        <ele>395.60000000000002</ele>
        <time>2018-05-20T07:04:22Z</time>
      </trkpt>
      <trkpt lat="42.928812028840184" lon="-8.213608972728252">
        <ele>395.5</ele>
        <time>2018-05-20T07:04:23Z</time>
      </trkpt>
      <trkpt lat="42.928808005526662" lon="-8.213529009371996">
        <ele>395.30000000000001</ele>
        <time>2018-05-20T07:04:25Z</time>
      </trkpt>
      <trkpt lat="42.928798031061888" lon="-8.213477041572332">
        <ele>395.19999999999999</ele>
        <time>2018-05-20T07:04:26Z</time>
      </trkpt>
      <trkpt lat="42.928794007748365" lon="-8.213424989953637">
        <ele>395.10000000000002</ele>
        <time>2018-05-20T07:04:27Z</time>
      </trkpt>
      <trkpt lat="42.928788978606462" lon="-8.213362041860819">
        <ele>395</ele>
        <time>2018-05-20T07:04:28Z</time>
      </trkpt>
      <trkpt lat="42.928788978606462" lon="-8.213304961100221">
        <ele>394.89999999999998</ele>
        <time>2018-05-20T07:04:30Z</time>
      </trkpt>
      <trkpt lat="42.928788978606462" lon="-8.213246958330274">
        <ele>394.89999999999998</ele>
        <time>2018-05-20T07:04:31Z</time>
      </trkpt>
      <trkpt lat="42.928784033283591" lon="-8.213195996358991">
        <ele>394.69999999999999</ele>
        <time>2018-05-20T07:04:32Z</time>
      </trkpt>
      <trkpt lat="42.928784033283591" lon="-8.213144028559327">
        <ele>394.69999999999999</ele>
        <time>2018-05-20T07:04:33Z</time>
      </trkpt>
      <trkpt lat="42.928784033283591" lon="-8.213091976940632">
        <ele>394.60000000000002</ele>
        <time>2018-05-20T07:04:34Z</time>
      </trkpt>
      <trkpt lat="42.928784033283591" lon="-8.21302299387753">
        <ele>394.60000000000002</ele>
        <time>2018-05-20T07:04:36Z</time>
      </trkpt>
      <trkpt lat="42.928784033283591" lon="-8.212965996935964">
        <ele>394.5</ele>
        <time>2018-05-20T07:04:37Z</time>
      </trkpt>
      <trkpt lat="42.928784033283591" lon="-8.2129140291363">
        <ele>394.39999999999998</ele>
        <time>2018-05-20T07:04:38Z</time>
      </trkpt>
      <trkpt lat="42.928784033283591" lon="-8.21285099722445">
        <ele>394.5</ele>
        <time>2018-05-20T07:04:39Z</time>
      </trkpt>
      <trkpt lat="42.928784033283591" lon="-8.212799029424787">
        <ele>394.5</ele>
        <time>2018-05-20T07:04:41Z</time>
      </trkpt>
      <trkpt lat="42.928784033283591" lon="-8.212735997512937">
        <ele>394.5</ele>
        <time>2018-05-20T07:04:42Z</time>
      </trkpt>
      <trkpt lat="42.928766012191772" lon="-8.21250599808991">
        <ele>394.19999999999999</ele>
        <time>2018-05-20T07:04:47Z</time>
      </trkpt>
      <trkpt lat="42.928766012191772" lon="-8.212499963119626">
        <ele>394.19999999999999</ele>
        <time>2018-05-20T07:04:47Z</time>
      </trkpt>
      <trkpt lat="42.92873801663518" lon="-8.212168961763382">
        <ele>393.89999999999998</ele>
        <time>2018-05-20T07:04:54Z</time>
      </trkpt>
      <trkpt lat="42.928710021078587" lon="-8.211903003975749">
        <ele>394.60000000000002</ele>
        <time>2018-05-20T07:05:00Z</time>
      </trkpt>
      <trkpt lat="42.92869602330029" lon="-8.211622964590788">
        <ele>395.80000000000001</ele>
        <time>2018-05-20T07:05:06Z</time>
      </trkpt>
      <trkpt lat="42.928668027743697" lon="-8.211314007639885">
        <ele>397.10000000000002</ele>
        <time>2018-05-20T07:05:13Z</time>
      </trkpt>
      <trkpt lat="42.928649000823498" lon="-8.210923997685313">
        <ele>398.39999999999998</ele>
        <time>2018-05-20T07:05:21Z</time>
      </trkpt>
      <trkpt lat="42.928640032187104" lon="-8.210749989375472">
        <ele>398.80000000000001</ele>
        <time>2018-05-20T07:05:25Z</time>
      </trkpt>
      <trkpt lat="42.928612036630511" lon="-8.210525019094348">
        <ele>399.30000000000001</ele>
        <time>2018-05-20T07:05:30Z</time>
      </trkpt>
      <trkpt lat="42.92854598723352" lon="-8.210322009399533">
        <ele>399.19999999999999</ele>
        <time>2018-05-20T07:05:35Z</time>
      </trkpt>
      <trkpt lat="42.92850399389863" lon="-8.210182031616569">
        <ele>399</ele>
        <time>2018-05-20T07:05:38Z</time>
      </trkpt>
      <trkpt lat="42.928432999178767" lon="-8.209900986403227">
        <ele>398.80000000000001</ele>
        <time>2018-05-20T07:05:45Z</time>
      </trkpt>
      <trkpt lat="42.928349012508988" lon="-8.209663024172187">
        <ele>398.5</ele>
        <time>2018-05-20T07:05:50Z</time>
      </trkpt>
      <trkpt lat="42.928253961727023" lon="-8.209462026134133">
        <ele>397.89999999999998</ele>
        <time>2018-05-20T07:05:56Z</time>
      </trkpt>
      <trkpt lat="42.928178021684289" lon="-8.20919799618423">
        <ele>397.39999999999998</ele>
        <time>2018-05-20T07:06:02Z</time>
      </trkpt>
      <trkpt lat="42.92809403501451" lon="-8.209004960954189">
        <ele>396.89999999999998</ele>
        <time>2018-05-20T07:06:07Z</time>
      </trkpt>
      <trkpt lat="42.92788197286427" lon="-8.208578992635012">
        <ele>395.80000000000001</ele>
        <time>2018-05-20T07:06:18Z</time>
      </trkpt>
      <trkpt lat="42.927819024771452" lon="-8.208448989316821">
        <ele>395.5</ele>
        <time>2018-05-20T07:06:21Z</time>
      </trkpt>
      <trkpt lat="42.927697990089655" lon="-8.208142966032028">
        <ele>394.89999999999998</ele>
        <time>2018-05-20T07:06:29Z</time>
      </trkpt>
      <trkpt lat="42.927697990089655" lon="-8.208135003224015">
        <ele>394.89999999999998</ele>
        <time>2018-05-20T07:06:29Z</time>
      </trkpt>
      <trkpt lat="42.927598999813199" lon="-8.207912966609001">
        <ele>394.5</ele>
        <time>2018-05-20T07:06:35Z</time>
      </trkpt>
      <trkpt lat="42.927598999813199" lon="-8.207723032683134">
        <ele>394.60000000000002</ele>
        <time>2018-05-20T07:06:39Z</time>
      </trkpt>
      <trkpt lat="42.927589025348425" lon="-8.207474006339908">
        <ele>394.60000000000002</ele>
        <time>2018-05-20T07:06:44Z</time>
      </trkpt>
      <trkpt lat="42.927575027570128" lon="-8.207325981929898">
        <ele>394.69999999999999</ele>
        <time>2018-05-20T07:06:47Z</time>
      </trkpt>
      <trkpt lat="42.927575027570128" lon="-8.207089025527239">
        <ele>394.80000000000001</ele>
        <time>2018-05-20T07:06:52Z</time>
      </trkpt>
      <trkpt lat="42.927565975114703" lon="-8.206923985853791">
        <ele>394.39999999999998</ele>
        <time>2018-05-20T07:06:56Z</time>
      </trkpt>
      <trkpt lat="42.92755700647831" lon="-8.20672701112926">
        <ele>394</ele>
        <time>2018-05-20T07:07:00Z</time>
      </trkpt>
      <trkpt lat="42.927509984001517" lon="-8.206585021689534">
        <ele>393.60000000000002</ele>
        <time>2018-05-20T07:07:04Z</time>
      </trkpt>
      <trkpt lat="42.927509984001517" lon="-8.206429034471512">
        <ele>393.30000000000001</ele>
        <time>2018-05-20T07:07:07Z</time>
      </trkpt>
      <trkpt lat="42.92751501314342" lon="-8.206127034500241">
        <ele>393</ele>
        <time>2018-05-20T07:07:14Z</time>
      </trkpt>
      <trkpt lat="42.92749104090035" lon="-8.206001976504922">
        <ele>393</ele>
        <time>2018-05-20T07:07:16Z</time>
      </trkpt>
      <trkpt lat="42.9274280089885" lon="-8.205714980140328">
        <ele>392.89999999999998</ele>
        <time>2018-05-20T07:07:23Z</time>
      </trkpt>
      <trkpt lat="42.927422979846597" lon="-8.205535020679236">
        <ele>392.80000000000001</ele>
        <time>2018-05-20T07:07:27Z</time>
      </trkpt>
      <trkpt lat="42.927422979846597" lon="-8.205526974052191">
        <ele>392.80000000000001</ele>
        <time>2018-05-20T07:07:27Z</time>
      </trkpt>
      <trkpt lat="42.927422979846597" lon="-8.205268979072571">
        <ele>392.30000000000001</ele>
        <time>2018-05-20T07:07:33Z</time>
      </trkpt>
      <trkpt lat="42.927422979846597" lon="-8.205045014619827">
        <ele>391.5</ele>
        <time>2018-05-20T07:07:37Z</time>
      </trkpt>
      <trkpt lat="42.927422979846597" lon="-8.20502900518477">
        <ele>391.39999999999998</ele>
        <time>2018-05-20T07:07:38Z</time>
      </trkpt>
      <trkpt lat="42.927422979846597" lon="-8.20485700853169">
        <ele>390.80000000000001</ele>
        <time>2018-05-20T07:07:42Z</time>
      </trkpt>
      <trkpt lat="42.927422979846597" lon="-8.204840999096632">
        <ele>390.69999999999999</ele>
        <time>2018-05-20T07:07:42Z</time>
      </trkpt>
      <trkpt lat="42.927422979846597" lon="-8.204637989401817">
        <ele>390</ele>
        <time>2018-05-20T07:07:46Z</time>
      </trkpt>
      <trkpt lat="42.927474025636911" lon="-8.204397009685636">
        <ele>388.69999999999999</ele>
        <time>2018-05-20T07:07:52Z</time>
      </trkpt>
      <trkpt lat="42.927502021193504" lon="-8.204175978899002">
        <ele>387.30000000000001</ele>
        <time>2018-05-20T07:07:57Z</time>
      </trkpt>
      <trkpt lat="42.927524987608194" lon="-8.203994007781148">
        <ele>386.19999999999999</ele>
        <time>2018-05-20T07:08:01Z</time>
      </trkpt>
      <trkpt lat="42.927565975114703" lon="-8.203778006136417">
        <ele>384.89999999999998</ele>
        <time>2018-05-20T07:08:05Z</time>
      </trkpt>
      <trkpt lat="42.927612997591496" lon="-8.203530991449952">
        <ele>383.39999999999998</ele>
        <time>2018-05-20T07:08:11Z</time>
      </trkpt>
      <trkpt lat="42.927612997591496" lon="-8.203523028641939">
        <ele>383.30000000000001</ele>
        <time>2018-05-20T07:08:11Z</time>
      </trkpt>
      <trkpt lat="42.927661025896668" lon="-8.203328987583518">
        <ele>382</ele>
        <time>2018-05-20T07:08:16Z</time>
      </trkpt>
      <trkpt lat="42.927669994533062" lon="-8.203132012858987">
        <ele>380.60000000000002</ele>
        <time>2018-05-20T07:08:20Z</time>
      </trkpt>
      <trkpt lat="42.927669994533062" lon="-8.20311700925231">
        <ele>380.5</ele>
        <time>2018-05-20T07:08:20Z</time>
      </trkpt>
      <trkpt lat="42.927725985646248" lon="-8.202875023707748">
        <ele>378.80000000000001</ele>
        <time>2018-05-20T07:08:26Z</time>
      </trkpt>
      <trkpt lat="42.927746018394828" lon="-8.202657010406256">
        <ele>377.60000000000002</ele>
        <time>2018-05-20T07:08:31Z</time>
      </trkpt>
      <trkpt lat="42.927755992859602" lon="-8.20264502428472">
        <ele>377.5</ele>
        <time>2018-05-20T07:08:31Z</time>
      </trkpt>
      <trkpt lat="42.927760016173124" lon="-8.202592972666025">
        <ele>377.19999999999999</ele>
        <time>2018-05-20T07:08:32Z</time>
      </trkpt>
      <trkpt lat="42.927764961495996" lon="-8.202542010694742">
        <ele>376.89999999999998</ele>
        <time>2018-05-20T07:08:33Z</time>
      </trkpt>
      <trkpt lat="42.927769990637898" lon="-8.202484007924795">
        <ele>376.60000000000002</ele>
        <time>2018-05-20T07:08:34Z</time>
      </trkpt>
      <trkpt lat="42.927778959274292" lon="-8.202432962134481">
        <ele>376.30000000000001</ele>
        <time>2018-05-20T07:08:36Z</time>
      </trkpt>
      <trkpt lat="42.927783988416195" lon="-8.202374959364533">
        <ele>376</ele>
        <time>2018-05-20T07:08:37Z</time>
      </trkpt>
      <trkpt lat="42.927783988416195" lon="-8.202323997393251">
        <ele>375.69999999999999</ele>
        <time>2018-05-20T07:08:38Z</time>
      </trkpt>
      <trkpt lat="42.927802009508014" lon="-8.202272029593587">
        <ele>375.30000000000001</ele>
        <time>2018-05-20T07:08:39Z</time>
      </trkpt>
      <trkpt lat="42.927811983972788" lon="-8.202226012945175">
        <ele>375.10000000000002</ele>
        <time>2018-05-20T07:08:40Z</time>
      </trkpt>
      <trkpt lat="42.927811983972788" lon="-8.20217396132648">
        <ele>374.80000000000001</ele>
        <time>2018-05-20T07:08:41Z</time>
      </trkpt>
      <trkpt lat="42.927811983972788" lon="-8.202122999355197">
        <ele>374.5</ele>
        <time>2018-05-20T07:08:42Z</time>
      </trkpt>
      <trkpt lat="42.927811983972788" lon="-8.202058961614966">
        <ele>374</ele>
        <time>2018-05-20T07:08:44Z</time>
      </trkpt>
      <trkpt lat="42.927811983972788" lon="-8.201989978551865">
        <ele>373.39999999999998</ele>
        <time>2018-05-20T07:08:45Z</time>
      </trkpt>
      <trkpt lat="42.927807038649917" lon="-8.201930969953537">
        <ele>372.80000000000001</ele>
        <time>2018-05-20T07:08:47Z</time>
      </trkpt>
      <trkpt lat="42.927797986194491" lon="-8.201879002153873">
        <ele>372.39999999999998</ele>
        <time>2018-05-20T07:08:48Z</time>
      </trkpt>
      <trkpt lat="42.927788011729717" lon="-8.201822005212307">
        <ele>371.80000000000001</ele>
        <time>2018-05-20T07:08:49Z</time>
      </trkpt>
      <trkpt lat="42.927774013951421" lon="-8.201758973300457">
        <ele>371.30000000000001</ele>
        <time>2018-05-20T07:08:51Z</time>
      </trkpt>
      <trkpt lat="42.927759010344744" lon="-8.201667023822665">
        <ele>370.5</ele>
        <time>2018-05-20T07:08:53Z</time>
      </trkpt>
      <trkpt lat="42.927745012566447" lon="-8.201621007174254">
        <ele>370.10000000000002</ele>
        <time>2018-05-20T07:08:54Z</time>
      </trkpt>
      <trkpt lat="42.927731014788151" lon="-8.201556969434023">
        <ele>369.5</ele>
        <time>2018-05-20T07:08:55Z</time>
      </trkpt>
      <trkpt lat="42.927703019231558" lon="-8.20152897387743">
        <ele>369.39999999999998</ele>
        <time>2018-05-20T07:08:56Z</time>
      </trkpt>
      <trkpt lat="42.927689021453261" lon="-8.20148304104805">
        <ele>369</ele>
        <time>2018-05-20T07:08:57Z</time>
      </trkpt>
      <trkpt lat="42.927675023674965" lon="-8.201430989429355">
        <ele>368.5</ele>
        <time>2018-05-20T07:08:58Z</time>
      </trkpt>
      <trkpt lat="42.927675023674965" lon="-8.201373992487788">
        <ele>368</ele>
        <time>2018-05-20T07:09:00Z</time>
      </trkpt>
      <trkpt lat="42.927675023674965" lon="-8.201305009424686">
        <ele>367.39999999999998</ele>
        <time>2018-05-20T07:09:01Z</time>
      </trkpt>
      <trkpt lat="42.927675023674965" lon="-8.201253041625023">
        <ele>366.89999999999998</ele>
        <time>2018-05-20T07:09:02Z</time>
      </trkpt>
      <trkpt lat="42.927683992311358" lon="-8.201190009713173">
        <ele>366.19999999999999</ele>
        <time>2018-05-20T07:09:04Z</time>
      </trkpt>
      <trkpt lat="42.927683992311358" lon="-8.201136030256748">
        <ele>365.60000000000002</ele>
        <time>2018-05-20T07:09:05Z</time>
      </trkpt>
      <trkpt lat="42.927689021453261" lon="-8.201062018051744">
        <ele>364.80000000000001</ele>
        <time>2018-05-20T07:09:07Z</time>
      </trkpt>
      <trkpt lat="42.927689021453261" lon="-8.200984988361597">
        <ele>364</ele>
        <time>2018-05-20T07:09:08Z</time>
      </trkpt>
      <trkpt lat="42.927689021453261" lon="-8.200922040268779">
        <ele>363.39999999999998</ele>
        <time>2018-05-20T07:09:10Z</time>
      </trkpt>
      <trkpt lat="42.927683992311358" lon="-8.200864037498832">
        <ele>362.69999999999999</ele>
        <time>2018-05-20T07:09:11Z</time>
      </trkpt>
      <trkpt lat="42.927678963169456" lon="-8.200794970616698">
        <ele>362</ele>
        <time>2018-05-20T07:09:12Z</time>
      </trkpt>
      <trkpt lat="42.92766597121954" lon="-8.200749037787318">
        <ele>361.60000000000002</ele>
        <time>2018-05-20T07:09:13Z</time>
      </trkpt>
      <trkpt lat="42.927641998976469" lon="-8.200706960633397">
        <ele>361.10000000000002</ele>
        <time>2018-05-20T07:09:15Z</time>
      </trkpt>
      <trkpt lat="42.927619032561779" lon="-8.200661027804017">
        <ele>360.69999999999999</ele>
        <time>2018-05-20T07:09:16Z</time>
      </trkpt>
      <trkpt lat="42.927595982328057" lon="-8.200619034469128">
        <ele>360.19999999999999</ele>
        <time>2018-05-20T07:09:17Z</time>
      </trkpt>
      <trkpt lat="42.927575027570128" lon="-8.200571006163955">
        <ele>359.69999999999999</ele>
        <time>2018-05-20T07:09:18Z</time>
      </trkpt>
      <trkpt lat="42.927533034235239" lon="-8.200418036431074">
        <ele>358</ele>
        <time>2018-05-20T07:09:22Z</time>
      </trkpt>
      <trkpt lat="42.927442006766796" lon="-8.20019599981606">
        <ele>357.10000000000002</ele>
        <time>2018-05-20T07:09:27Z</time>
      </trkpt>
      <trkpt lat="42.927323989570141" lon="-8.199903974309564">
        <ele>355.39999999999998</ele>
        <time>2018-05-20T07:09:35Z</time>
      </trkpt>
      <trkpt lat="42.927314015105367" lon="-8.199892994016409">
        <ele>355.30000000000001</ele>
        <time>2018-05-20T07:09:35Z</time>
      </trkpt>
      <trkpt lat="42.927304962649941" lon="-8.199841026216745">
        <ele>355</ele>
        <time>2018-05-20T07:09:36Z</time>
      </trkpt>
      <trkpt lat="42.927281996235251" lon="-8.19978604093194">
        <ele>354.5</ele>
        <time>2018-05-20T07:09:37Z</time>
      </trkpt>
      <trkpt lat="42.927262969315052" lon="-8.199740024283528">
        <ele>354.19999999999999</ele>
        <time>2018-05-20T07:09:39Z</time>
      </trkpt>
      <trkpt lat="42.927230028435588" lon="-8.19965897127986">
        <ele>353.5</ele>
        <time>2018-05-20T07:09:41Z</time>
      </trkpt>
      <trkpt lat="42.927188035100698" lon="-8.199589988216758">
        <ele>352.80000000000001</ele>
        <time>2018-05-20T07:09:43Z</time>
      </trkpt>
      <trkpt lat="42.92717001400888" lon="-8.199539026245475">
        <ele>353.10000000000002</ele>
        <time>2018-05-20T07:09:44Z</time>
      </trkpt>
      <trkpt lat="42.927140006795526" lon="-8.199496027082205">
        <ele>353.39999999999998</ele>
        <time>2018-05-20T07:09:45Z</time>
      </trkpt>
      <trkpt lat="42.927073035389185" lon="-8.199380021542311">
        <ele>354.19999999999999</ele>
        <time>2018-05-20T07:09:48Z</time>
      </trkpt>
      <trkpt lat="42.927045039832592" lon="-8.199339034035802">
        <ele>354.80000000000001</ele>
        <time>2018-05-20T07:09:50Z</time>
      </trkpt>
      <trkpt lat="42.92699902318418" lon="-8.199282037094235">
        <ele>355.60000000000002</ele>
        <time>2018-05-20T07:09:51Z</time>
      </trkpt>
      <trkpt lat="42.926963986828923" lon="-8.199236020445824">
        <ele>356.19999999999999</ele>
        <time>2018-05-20T07:09:53Z</time>
      </trkpt>
      <trkpt lat="42.926918976008892" lon="-8.199150022119284">
        <ele>357.39999999999998</ele>
        <time>2018-05-20T07:09:55Z</time>
      </trkpt>
      <trkpt lat="42.926771035417914" lon="-8.198997974395752">
        <ele>359.89999999999998</ele>
        <time>2018-05-20T07:10:01Z</time>
      </trkpt>
      <trkpt lat="42.926632985472679" lon="-8.198854979127646">
        <ele>362.39999999999998</ele>
        <time>2018-05-20T07:10:06Z</time>
      </trkpt>
      <trkpt lat="42.926529971882701" lon="-8.198761017993093">
        <ele>364.19999999999999</ele>
        <time>2018-05-20T07:10:10Z</time>
      </trkpt>
      <trkpt lat="42.926344983279705" lon="-8.198502017185092">
        <ele>369.30000000000001</ele>
        <time>2018-05-20T07:10:17Z</time>
      </trkpt>
      <trkpt lat="42.926220009103417" lon="-8.198343012481928">
        <ele>372</ele>
        <time>2018-05-20T07:10:23Z</time>
      </trkpt>
      <trkpt lat="42.9261190071702" lon="-8.19821803830564">
        <ele>372.89999999999998</ele>
        <time>2018-05-20T07:10:27Z</time>
      </trkpt>
      <trkpt lat="42.926021022722125" lon="-8.19811100140214">
        <ele>373.5</ele>
        <time>2018-05-20T07:10:30Z</time>
      </trkpt>
      <trkpt lat="42.92592597194016" lon="-8.198007987812161">
        <ele>374.10000000000002</ele>
        <time>2018-05-20T07:10:34Z</time>
      </trkpt>
      <trkpt lat="42.925907028838992" lon="-8.19798300974071">
        <ele>374.30000000000001</ele>
        <time>2018-05-20T07:10:35Z</time>
      </trkpt>
      <trkpt lat="42.925881966948509" lon="-8.197944033890963">
        <ele>374.60000000000002</ele>
        <time>2018-05-20T07:10:36Z</time>
      </trkpt>
      <trkpt lat="42.925866963341832" lon="-8.197902040556073">
        <ele>375</ele>
        <time>2018-05-20T07:10:37Z</time>
      </trkpt>
      <trkpt lat="42.925866963341832" lon="-8.197844037786126">
        <ele>375.60000000000002</ele>
        <time>2018-05-20T07:10:38Z</time>
      </trkpt>
      <trkpt lat="42.925876015797257" lon="-8.197781005874276">
        <ele>376.30000000000001</ele>
        <time>2018-05-20T07:10:40Z</time>
      </trkpt>
      <trkpt lat="42.925884984433651" lon="-8.197730965912342">
        <ele>376.89999999999998</ele>
        <time>2018-05-20T07:10:41Z</time>
      </trkpt>
      <trkpt lat="42.925890013575554" lon="-8.197673968970776">
        <ele>377.60000000000002</ele>
        <time>2018-05-20T07:10:42Z</time>
      </trkpt>
      <trkpt lat="42.925898982211947" lon="-8.197622001171112">
        <ele>378.19999999999999</ele>
        <time>2018-05-20T07:10:43Z</time>
      </trkpt>
      <trkpt lat="42.925918009132147" lon="-8.197573972865939">
        <ele>378.89999999999998</ele>
        <time>2018-05-20T07:10:44Z</time>
      </trkpt>
      <trkpt lat="42.925932006910443" lon="-8.197528040036559">
        <ele>379.5</ele>
        <time>2018-05-20T07:10:45Z</time>
      </trkpt>
      <trkpt lat="42.92594600468874" lon="-8.197482023388147">
        <ele>380.10000000000002</ele>
        <time>2018-05-20T07:10:46Z</time>
      </trkpt>
      <trkpt lat="42.925965031608939" lon="-8.197425026446581">
        <ele>380.80000000000001</ele>
        <time>2018-05-20T07:10:48Z</time>
      </trkpt>
      <trkpt lat="42.925987998023629" lon="-8.197350008413196">
        <ele>381.80000000000001</ele>
        <time>2018-05-20T07:10:50Z</time>
      </trkpt>
      <trkpt lat="42.926008030772209" lon="-8.197308015078306">
        <ele>382.39999999999998</ele>
        <time>2018-05-20T07:10:51Z</time>
      </trkpt>
      <trkpt lat="42.926026973873377" lon="-8.197197038680315">
        <ele>383.69999999999999</ele>
        <time>2018-05-20T07:10:53Z</time>
      </trkpt>
      <trkpt lat="42.926115989685059" lon="-8.196968967095017">
        <ele>385.89999999999998</ele>
        <time>2018-05-20T07:10:59Z</time>
      </trkpt>
      <trkpt lat="42.926115989685059" lon="-8.196961004287005">
        <ele>385.89999999999998</ele>
        <time>2018-05-20T07:10:59Z</time>
      </trkpt>
      <trkpt lat="42.926193019375205" lon="-8.196750031784177">
        <ele>386.89999999999998</ele>
        <time>2018-05-20T07:11:04Z</time>
      </trkpt>
      <trkpt lat="42.926240041851997" lon="-8.196674007922411">
        <ele>387.39999999999998</ele>
        <time>2018-05-20T07:11:06Z</time>
      </trkpt>
      <trkpt lat="42.926240041851997" lon="-8.196665961295366">
        <ele>387.39999999999998</ele>
        <time>2018-05-20T07:11:06Z</time>
      </trkpt>
      <trkpt lat="42.926284968852997" lon="-8.196579962968826">
        <ele>387.60000000000002</ele>
        <time>2018-05-20T07:11:09Z</time>
      </trkpt>
      <trkpt lat="42.926406003534794" lon="-8.19637100212276">
        <ele>388.10000000000002</ele>
        <time>2018-05-20T07:11:15Z</time>
      </trkpt>
      <trkpt lat="42.926509017124772" lon="-8.196224989369512">
        <ele>388.5</ele>
        <time>2018-05-20T07:11:19Z</time>
      </trkpt>
      <trkpt lat="42.926564002409577" lon="-8.196131028234959">
        <ele>388.19999999999999</ele>
        <time>2018-05-20T07:11:22Z</time>
      </trkpt>
      <trkpt lat="42.9265680257231" lon="-8.196105966344476">
        <ele>388.10000000000002</ele>
        <time>2018-05-20T07:11:22Z</time>
      </trkpt>
      <trkpt lat="42.926572971045971" lon="-8.196055004373193">
        <ele>387.89999999999998</ele>
        <time>2018-05-20T07:11:23Z</time>
      </trkpt>
      <trkpt lat="42.92659199796617" lon="-8.196003036573529">
        <ele>387.69999999999999</ele>
        <time>2018-05-20T07:11:24Z</time>
      </trkpt>
      <trkpt lat="42.926610019057989" lon="-8.195974035188556">
        <ele>387.69999999999999</ele>
        <time>2018-05-20T07:11:25Z</time>
      </trkpt>
      <trkpt lat="42.926610019057989" lon="-8.195915026590228">
        <ele>387.39999999999998</ele>
        <time>2018-05-20T07:11:27Z</time>
      </trkpt>
      <trkpt lat="42.926610019057989" lon="-8.195857023820281">
        <ele>387.19999999999999</ele>
        <time>2018-05-20T07:11:28Z</time>
      </trkpt>
      <trkpt lat="42.926605995744467" lon="-8.195796003565192">
        <ele>386.89999999999998</ele>
        <time>2018-05-20T07:11:29Z</time>
      </trkpt>
      <trkpt lat="42.926605995744467" lon="-8.195739006623626">
        <ele>386.69999999999999</ele>
        <time>2018-05-20T07:11:30Z</time>
      </trkpt>
      <trkpt lat="42.926605995744467" lon="-8.195687038823962">
        <ele>386.39999999999998</ele>
        <time>2018-05-20T07:11:32Z</time>
      </trkpt>
      <trkpt lat="42.92661496438086" lon="-8.195629036054015">
        <ele>386.30000000000001</ele>
        <time>2018-05-20T07:11:33Z</time>
      </trkpt>
      <trkpt lat="42.92663399130106" lon="-8.195588970556855">
        <ele>386.30000000000001</ele>
        <time>2018-05-20T07:11:34Z</time>
      </trkpt>
      <trkpt lat="42.926642959937453" lon="-8.195526022464037">
        <ele>386.10000000000002</ele>
        <time>2018-05-20T07:11:35Z</time>
      </trkpt>
      <trkpt lat="42.926661986857653" lon="-8.195473970845342">
        <ele>386.19999999999999</ele>
        <time>2018-05-20T07:11:37Z</time>
      </trkpt>
      <trkpt lat="42.926671039313078" lon="-8.195416973903775">
        <ele>386.10000000000002</ele>
        <time>2018-05-20T07:11:38Z</time>
      </trkpt>
      <trkpt lat="42.926680007949471" lon="-8.195358971133828">
        <ele>386</ele>
        <time>2018-05-20T07:11:39Z</time>
      </trkpt>
      <trkpt lat="42.926690988242626" lon="-8.19529602304101">
        <ele>385.89999999999998</ele>
        <time>2018-05-20T07:11:40Z</time>
      </trkpt>
      <trkpt lat="42.926704986020923" lon="-8.195239026099443">
        <ele>385.80000000000001</ele>
        <time>2018-05-20T07:11:42Z</time>
      </trkpt>
      <trkpt lat="42.926704986020923" lon="-8.195186974480748">
        <ele>385.60000000000002</ele>
        <time>2018-05-20T07:11:43Z</time>
      </trkpt>
      <trkpt lat="42.926704986020923" lon="-8.19512402638793">
        <ele>385.39999999999998</ele>
        <time>2018-05-20T07:11:44Z</time>
      </trkpt>
      <trkpt lat="42.9267009627074" lon="-8.195041967555881">
        <ele>385.10000000000002</ele>
        <time>2018-05-20T07:11:46Z</time>
      </trkpt>
      <trkpt lat="42.926690988242626" lon="-8.194989999756217">
        <ele>384.80000000000001</ele>
        <time>2018-05-20T07:11:47Z</time>
      </trkpt>
      <trkpt lat="42.926682019606233" lon="-8.194921016693115">
        <ele>384.39999999999998</ele>
        <time>2018-05-20T07:11:49Z</time>
      </trkpt>
      <trkpt lat="42.926661986857653" lon="-8.194872988387942">
        <ele>384</ele>
        <time>2018-05-20T07:11:50Z</time>
      </trkpt>
      <trkpt lat="42.92663399130106" lon="-8.194833006709814">
        <ele>383.5</ele>
        <time>2018-05-20T07:11:51Z</time>
      </trkpt>
      <trkpt lat="42.926613036543131" lon="-8.194791013374925">
        <ele>383.10000000000002</ele>
        <time>2018-05-20T07:11:52Z</time>
      </trkpt>
      <trkpt lat="42.926595015451312" lon="-8.194748014211655">
        <ele>382.69999999999999</ele>
        <time>2018-05-20T07:11:53Z</time>
      </trkpt>
      <trkpt lat="42.926581017673016" lon="-8.19467400200665">
        <ele>382.30000000000001</ele>
        <time>2018-05-20T07:11:55Z</time>
      </trkpt>
      <trkpt lat="42.926561990752816" lon="-8.194576017558575">
        <ele>381.69999999999999</ele>
        <time>2018-05-20T07:11:57Z</time>
      </trkpt>
      <trkpt lat="42.926553022116423" lon="-8.194523965939879">
        <ele>381.69999999999999</ele>
        <time>2018-05-20T07:11:58Z</time>
      </trkpt>
      <trkpt lat="42.926539024338126" lon="-8.194450037553906">
        <ele>381.60000000000002</ele>
        <time>2018-05-20T07:12:00Z</time>
      </trkpt>
      <trkpt lat="42.92652896605432" lon="-8.194387005642057">
        <ele>381.5</ele>
        <time>2018-05-20T07:12:01Z</time>
      </trkpt>
      <trkpt lat="42.92652502655983" lon="-8.194335037842393">
        <ele>381.5</ele>
        <time>2018-05-20T07:12:03Z</time>
      </trkpt>
      <trkpt lat="42.926511028781533" lon="-8.194272005930543">
        <ele>381.39999999999998</ele>
        <time>2018-05-20T07:12:04Z</time>
      </trkpt>
      <trkpt lat="42.926500970497727" lon="-8.194214003160596">
        <ele>381.39999999999998</ele>
        <time>2018-05-20T07:12:05Z</time>
      </trkpt>
      <trkpt lat="42.926489990204573" lon="-8.194163041189313">
        <ele>381.30000000000001</ele>
        <time>2018-05-20T07:12:06Z</time>
      </trkpt>
      <trkpt lat="42.926435004919767" lon="-8.193942010402679">
        <ele>381.10000000000002</ele>
        <time>2018-05-20T07:12:11Z</time>
      </trkpt>
      <trkpt lat="42.926326040178537" lon="-8.193552000448108">
        <ele>381</ele>
        <time>2018-05-20T07:12:20Z</time>
      </trkpt>
      <trkpt lat="42.926258984953165" lon="-8.193275984376669">
        <ele>381.19999999999999</ele>
        <time>2018-05-20T07:12:27Z</time>
      </trkpt>
      <trkpt lat="42.92620399966836" lon="-8.193073980510235">
        <ele>381.39999999999998</ele>
        <time>2018-05-20T07:12:31Z</time>
      </trkpt>
      <trkpt lat="42.926180027425289" lon="-8.192855967208743">
        <ele>381.5</ele>
        <time>2018-05-20T07:12:36Z</time>
      </trkpt>
      <trkpt lat="42.926172986626625" lon="-8.19287097081542">
        <ele>381.5</ele>
        <time>2018-05-20T07:12:37Z</time>
      </trkpt>
      <trkpt lat="42.926172986626625" lon="-8.192651029676199">
        <ele>380.69999999999999</ele>
        <time>2018-05-20T07:12:41Z</time>
      </trkpt>
      <trkpt lat="42.926168963313103" lon="-8.192318016663194">
        <ele>379.60000000000002</ele>
        <time>2018-05-20T07:12:49Z</time>
      </trkpt>
      <trkpt lat="42.926168963313103" lon="-8.192302007228136">
        <ele>379.5</ele>
        <time>2018-05-20T07:12:49Z</time>
      </trkpt>
      <trkpt lat="42.92618396691978" lon="-8.191973017528653">
        <ele>378.5</ele>
        <time>2018-05-20T07:12:56Z</time>
      </trkpt>
      <trkpt lat="42.926193019375205" lon="-8.191604968160391">
        <ele>377.19999999999999</ele>
        <time>2018-05-20T07:13:04Z</time>
      </trkpt>
      <trkpt lat="42.926187990233302" lon="-8.19119299761951">
        <ele>375.69999999999999</ele>
        <time>2018-05-20T07:13:13Z</time>
      </trkpt>
      <trkpt lat="42.92618396691978" lon="-8.190925028175116">
        <ele>374.5</ele>
        <time>2018-05-20T07:13:19Z</time>
      </trkpt>
      <trkpt lat="42.92618396691978" lon="-8.190916981548071">
        <ele>374.5</ele>
        <time>2018-05-20T07:13:19Z</time>
      </trkpt>
      <trkpt lat="42.92618103325367" lon="-8.190627973526716">
        <ele>373.10000000000002</ele>
        <time>2018-05-20T07:13:25Z</time>
      </trkpt>
      <trkpt lat="42.92618103325367" lon="-8.190620010718703">
        <ele>373.10000000000002</ele>
        <time>2018-05-20T07:13:25Z</time>
      </trkpt>
      <trkpt lat="42.92616200633347" lon="-8.190350029617548">
        <ele>371.80000000000001</ele>
        <time>2018-05-20T07:13:31Z</time>
      </trkpt>
      <trkpt lat="42.92616200633347" lon="-8.190341982990503">
        <ele>371.80000000000001</ele>
        <time>2018-05-20T07:13:32Z</time>
      </trkpt>
      <trkpt lat="42.92616200633347" lon="-8.190279034897685">
        <ele>371.39999999999998</ele>
        <time>2018-05-20T07:13:33Z</time>
      </trkpt>
      <trkpt lat="42.926156977191567" lon="-8.190222037956119">
        <ele>371.10000000000002</ele>
        <time>2018-05-20T07:13:34Z</time>
      </trkpt>
      <trkpt lat="42.926142979413271" lon="-8.190159006044269">
        <ele>370.69999999999999</ele>
        <time>2018-05-20T07:13:36Z</time>
      </trkpt>
      <trkpt lat="42.926110960543156" lon="-8.190112989395857">
        <ele>370.5</ele>
        <time>2018-05-20T07:13:37Z</time>
      </trkpt>
      <trkpt lat="42.926078019663692" lon="-8.19005498662591">
        <ele>370.19999999999999</ele>
        <time>2018-05-20T07:13:39Z</time>
      </trkpt>
      <trkpt lat="42.926041977480054" lon="-8.190017016604543">
        <ele>370.10000000000002</ele>
        <time>2018-05-20T07:13:40Z</time>
      </trkpt>
      <trkpt lat="42.926008030772209" lon="-8.189981980249286">
        <ele>370</ele>
        <time>2018-05-20T07:13:41Z</time>
      </trkpt>
      <trkpt lat="42.925970982760191" lon="-8.189931018278003">
        <ele>369.80000000000001</ele>
        <time>2018-05-20T07:13:43Z</time>
      </trkpt>
      <trkpt lat="42.925929995253682" lon="-8.189888019114733">
        <ele>369.60000000000002</ele>
        <time>2018-05-20T07:13:44Z</time>
      </trkpt>
      <trkpt lat="42.925835028290749" lon="-8.189846025779843">
        <ele>369.60000000000002</ele>
        <time>2018-05-20T07:13:47Z</time>
      </trkpt>
      <trkpt lat="42.92564501054585" lon="-8.189756004139781">
        <ele>369.5</ele>
        <time>2018-05-20T07:13:53Z</time>
      </trkpt>
      <trkpt lat="42.92540998198092" lon="-8.189621977508068">
        <ele>369.19999999999999</ele>
        <time>2018-05-20T07:14:01Z</time>
      </trkpt>
      <trkpt lat="42.925217030569911" lon="-8.189567998051643">
        <ele>369.10000000000002</ele>
        <time>2018-05-20T07:14:07Z</time>
      </trkpt>
      <trkpt lat="42.924997005611658" lon="-8.189450986683369">
        <ele>368.60000000000002</ele>
        <time>2018-05-20T07:14:14Z</time>
      </trkpt>
      <trkpt lat="42.924827020615339" lon="-8.18941100500524">
        <ele>368.5</ele>
        <time>2018-05-20T07:14:19Z</time>
      </trkpt>
      <trkpt lat="42.924626022577286" lon="-8.189293993636966">
        <ele>367.89999999999998</ele>
        <time>2018-05-20T07:14:25Z</time>
      </trkpt>
      <trkpt lat="42.924431981518865" lon="-8.189234985038638">
        <ele>367.60000000000002</ele>
        <time>2018-05-20T07:14:31Z</time>
      </trkpt>
      <trkpt lat="42.924237018451095" lon="-8.189146975055337">
        <ele>367.10000000000002</ele>
        <time>2018-05-20T07:14:37Z</time>
      </trkpt>
      <trkpt lat="42.924070972949266" lon="-8.189075980335474">
        <ele>366.69999999999999</ele>
        <time>2018-05-20T07:14:42Z</time>
      </trkpt>
      <trkpt lat="42.923847008496523" lon="-8.188965003937483">
        <ele>366.19999999999999</ele>
        <time>2018-05-20T07:14:49Z</time>
      </trkpt>
      <trkpt lat="42.923390027135611" lon="-8.188739027827978">
        <ele>364</ele>
        <time>2018-05-20T07:15:04Z</time>
      </trkpt>
      <trkpt lat="42.923100013285875" lon="-8.188558984547854">
        <ele>361.69999999999999</ele>
        <time>2018-05-20T07:15:13Z</time>
      </trkpt>
      <trkpt lat="42.923124991357327" lon="-8.188462005928159">
        <ele>360.80000000000001</ele>
        <time>2018-05-20T07:15:15Z</time>
      </trkpt>
      <trkpt lat="42.923121973872185" lon="-8.188329990953207">
        <ele>359.60000000000002</ele>
        <time>2018-05-20T07:15:18Z</time>
      </trkpt>
      <trkpt lat="42.923104036599398" lon="-8.188250027596951">
        <ele>358.80000000000001</ele>
        <time>2018-05-20T07:15:20Z</time>
      </trkpt>
      <trkpt lat="42.923104036599398" lon="-8.188232006505132">
        <ele>358.60000000000002</ele>
        <time>2018-05-20T07:15:20Z</time>
      </trkpt>
      <trkpt lat="42.923090038821101" lon="-8.188180960714817">
        <ele>358.10000000000002</ele>
        <time>2018-05-20T07:15:22Z</time>
      </trkpt>
      <trkpt lat="42.923076041042805" lon="-8.188135027885437">
        <ele>357.60000000000002</ele>
        <time>2018-05-20T07:15:23Z</time>
      </trkpt>
      <trkpt lat="42.923057014122605" lon="-8.188089011237025">
        <ele>357.10000000000002</ele>
        <time>2018-05-20T07:15:24Z</time>
      </trkpt>
      <trkpt lat="42.923036981374025" lon="-8.188040982931852">
        <ele>356.60000000000002</ele>
        <time>2018-05-20T07:15:25Z</time>
      </trkpt>
      <trkpt lat="42.923013009130955" lon="-8.187982980161905">
        <ele>356</ele>
        <time>2018-05-20T07:15:27Z</time>
      </trkpt>
      <trkpt lat="42.922980990260839" lon="-8.187949033454061">
        <ele>355.5</ele>
        <time>2018-05-20T07:15:28Z</time>
      </trkpt>
      <trkpt lat="42.922947965562344" lon="-8.187915002927184">
        <ele>355.10000000000002</ele>
        <time>2018-05-20T07:15:29Z</time>
      </trkpt>
      <trkpt lat="42.922911001369357" lon="-8.187896981835365">
        <ele>354.89999999999998</ele>
        <time>2018-05-20T07:15:30Z</time>
      </trkpt>
      <trkpt lat="42.922874037176371" lon="-8.187886001542211">
        <ele>354.89999999999998</ele>
        <time>2018-05-20T07:15:31Z</time>
      </trkpt>
      <trkpt lat="42.922846041619778" lon="-8.187846019864082">
        <ele>354.69999999999999</ele>
        <time>2018-05-20T07:15:32Z</time>
      </trkpt>
      <trkpt lat="42.922821985557675" lon="-8.187817018479109">
        <ele>354.5</ele>
        <time>2018-05-20T07:15:33Z</time>
      </trkpt>
      <trkpt lat="42.922803964465857" lon="-8.187760021537542">
        <ele>354.10000000000002</ele>
        <time>2018-05-20T07:15:35Z</time>
      </trkpt>
      <trkpt lat="42.92278996668756" lon="-8.187691038474441">
        <ele>353.60000000000002</ele>
        <time>2018-05-20T07:15:36Z</time>
      </trkpt>
      <trkpt lat="42.922785021364689" lon="-8.187633035704494">
        <ele>353.10000000000002</ele>
        <time>2018-05-20T07:15:38Z</time>
      </trkpt>
      <trkpt lat="42.922785021364689" lon="-8.187576038762927">
        <ele>352.69999999999999</ele>
        <time>2018-05-20T07:15:39Z</time>
      </trkpt>
      <trkpt lat="42.922785021364689" lon="-8.187513006851077">
        <ele>352.19999999999999</ele>
        <time>2018-05-20T07:15:40Z</time>
      </trkpt>
      <trkpt lat="42.922785021364689" lon="-8.187461039051414">
        <ele>351.69999999999999</ele>
        <time>2018-05-20T07:15:41Z</time>
      </trkpt>
      <trkpt lat="42.922785021364689" lon="-8.187403036281467">
        <ele>351.30000000000001</ele>
        <time>2018-05-20T07:15:43Z</time>
      </trkpt>
      <trkpt lat="42.922785021364689" lon="-8.187340004369617">
        <ele>350.69999999999999</ele>
        <time>2018-05-20T07:15:44Z</time>
      </trkpt>
      <trkpt lat="42.922785021364689" lon="-8.187288958579302">
        <ele>350.30000000000001</ele>
        <time>2018-05-20T07:15:45Z</time>
      </trkpt>
      <trkpt lat="42.922771023586392" lon="-8.187236990779638">
        <ele>350</ele>
        <time>2018-05-20T07:15:46Z</time>
      </trkpt>
      <trkpt lat="42.922737998887897" lon="-8.187161972746253">
        <ele>349.5</ele>
        <time>2018-05-20T07:15:48Z</time>
      </trkpt>
      <trkpt lat="42.922713020816445" lon="-8.187126014381647">
        <ele>349.30000000000001</ele>
        <time>2018-05-20T07:15:49Z</time>
      </trkpt>
      <trkpt lat="42.922671027481556" lon="-8.187062982469797">
        <ele>349</ele>
        <time>2018-05-20T07:15:51Z</time>
      </trkpt>
      <trkpt lat="42.922639008611441" lon="-8.18700497969985">
        <ele>348.69999999999999</ele>
        <time>2018-05-20T07:15:53Z</time>
      </trkpt>
      <trkpt lat="42.922625010833144" lon="-8.186957035213709">
        <ele>348.39999999999998</ele>
        <time>2018-05-20T07:15:54Z</time>
      </trkpt>
      <trkpt lat="42.922619981691241" lon="-8.186900038272142">
        <ele>347.89999999999998</ele>
        <time>2018-05-20T07:15:55Z</time>
      </trkpt>
      <trkpt lat="42.92261503636837" lon="-8.186837006360292">
        <ele>347.5</ele>
        <time>2018-05-20T07:15:56Z</time>
      </trkpt>
      <trkpt lat="42.922611013054848" lon="-8.186768023297191">
        <ele>346.89999999999998</ele>
        <time>2018-05-20T07:15:58Z</time>
      </trkpt>
      <trkpt lat="42.922611013054848" lon="-8.18668101914227">
        <ele>346.19999999999999</ele>
        <time>2018-05-20T07:16:00Z</time>
      </trkpt>
      <trkpt lat="42.922611013054848" lon="-8.18661798723042">
        <ele>345.69999999999999</ele>
        <time>2018-05-20T07:16:01Z</time>
      </trkpt>
      <trkpt lat="42.92261503636837" lon="-8.186567025259137">
        <ele>345.30000000000001</ele>
        <time>2018-05-20T07:16:02Z</time>
      </trkpt>
      <trkpt lat="42.922619981691241" lon="-8.18650902248919">
        <ele>344.80000000000001</ele>
        <time>2018-05-20T07:16:04Z</time>
      </trkpt>
      <trkpt lat="42.922629034146667" lon="-8.18644599057734">
        <ele>344.30000000000001</ele>
        <time>2018-05-20T07:16:05Z</time>
      </trkpt>
      <trkpt lat="42.922647977247834" lon="-8.18638295866549">
        <ele>343.69999999999999</ele>
        <time>2018-05-20T07:16:06Z</time>
      </trkpt>
      <trkpt lat="42.922671027481556" lon="-8.186330990865827">
        <ele>343.19999999999999</ele>
        <time>2018-05-20T07:16:08Z</time>
      </trkpt>
      <trkpt lat="42.922685025259852" lon="-8.18627399392426">
        <ele>342.69999999999999</ele>
        <time>2018-05-20T07:16:09Z</time>
      </trkpt>
      <trkpt lat="42.92270396836102" lon="-8.186209034174681">
        <ele>342.19999999999999</ele>
        <time>2018-05-20T07:16:11Z</time>
      </trkpt>
      <trkpt lat="42.92270396836102" lon="-8.18614499643445">
        <ele>341.69999999999999</ele>
        <time>2018-05-20T07:16:12Z</time>
      </trkpt>
      <trkpt lat="42.92270396836102" lon="-8.1860819645226">
        <ele>341.19999999999999</ele>
        <time>2018-05-20T07:16:13Z</time>
      </trkpt>
      <trkpt lat="42.922699023038149" lon="-8.186019016429782">
        <ele>340.69999999999999</ele>
        <time>2018-05-20T07:16:15Z</time>
      </trkpt>
      <trkpt lat="42.922699023038149" lon="-8.185957996174693">
        <ele>340.19999999999999</ele>
        <time>2018-05-20T07:16:16Z</time>
      </trkpt>
      <trkpt lat="42.922694999724627" lon="-8.18590602837503">
        <ele>339.80000000000001</ele>
        <time>2018-05-20T07:16:17Z</time>
      </trkpt>
      <trkpt lat="42.922673961147666" lon="-8.185850037261844">
        <ele>339.39999999999998</ele>
        <time>2018-05-20T07:16:19Z</time>
      </trkpt>
      <trkpt lat="42.922656023874879" lon="-8.185787005349994">
        <ele>338.89999999999998</ele>
        <time>2018-05-20T07:16:20Z</time>
      </trkpt>
      <trkpt lat="42.922656023874879" lon="-8.185733025893569">
        <ele>338.5</ele>
        <time>2018-05-20T07:16:21Z</time>
      </trkpt>
      <trkpt lat="42.922656023874879" lon="-8.185678040608764">
        <ele>338</ele>
        <time>2018-05-20T07:16:22Z</time>
      </trkpt>
      <trkpt lat="42.922664992511272" lon="-8.185606962069869">
        <ele>337.39999999999998</ele>
        <time>2018-05-20T07:16:24Z</time>
      </trkpt>
      <trkpt lat="42.922664992511272" lon="-8.185554994270206">
        <ele>337</ele>
        <time>2018-05-20T07:16:25Z</time>
      </trkpt>
      <trkpt lat="42.922673961147666" lon="-8.185503026470542">
        <ele>336.60000000000002</ele>
        <time>2018-05-20T07:16:26Z</time>
      </trkpt>
      <trkpt lat="42.922692988067865" lon="-8.185451980680227">
        <ele>336.10000000000002</ele>
        <time>2018-05-20T07:16:28Z</time>
      </trkpt>
      <trkpt lat="42.922720983624458" lon="-8.185410993173719">
        <ele>335.69999999999999</ele>
        <time>2018-05-20T07:16:29Z</time>
      </trkpt>
      <trkpt lat="42.922734981402755" lon="-8.185364976525307">
        <ele>335.5</ele>
        <time>2018-05-20T07:16:30Z</time>
      </trkpt>
      <trkpt lat="42.922762976959348" lon="-8.185324994847179">
        <ele>335.19999999999999</ele>
        <time>2018-05-20T07:16:31Z</time>
      </trkpt>
      <trkpt lat="42.922782003879547" lon="-8.18528501316905">
        <ele>335</ele>
        <time>2018-05-20T07:16:32Z</time>
      </trkpt>
      <trkpt lat="42.922818968072534" lon="-8.185238996520639">
        <ele>334.80000000000001</ele>
        <time>2018-05-20T07:16:34Z</time>
      </trkpt>
      <trkpt lat="42.922846963629127" lon="-8.185192979872227">
        <ele>334.60000000000002</ele>
        <time>2018-05-20T07:16:35Z</time>
      </trkpt>
      <trkpt lat="42.922879988327622" lon="-8.185152998194099">
        <ele>334.39999999999998</ele>
        <time>2018-05-20T07:16:36Z</time>
      </trkpt>
      <trkpt lat="42.922908989712596" lon="-8.185121985152364">
        <ele>334.30000000000001</ele>
        <time>2018-05-20T07:16:37Z</time>
      </trkpt>
      <trkpt lat="42.922932961955667" lon="-8.185082003474236">
        <ele>334.10000000000002</ele>
        <time>2018-05-20T07:16:38Z</time>
      </trkpt>
      <trkpt lat="42.922978978604078" lon="-8.185042021796107">
        <ele>333.89999999999998</ele>
        <time>2018-05-20T07:16:40Z</time>
      </trkpt>
      <trkpt lat="42.923012003302574" lon="-8.185013020411134">
        <ele>333.69999999999999</ele>
        <time>2018-05-20T07:16:41Z</time>
      </trkpt>
      <trkpt lat="42.923039998859167" lon="-8.184989970177412">
        <ele>333.60000000000002</ele>
        <time>2018-05-20T07:16:42Z</time>
      </trkpt>
      <trkpt lat="42.923076963052154" lon="-8.184973038733006">
        <ele>333.5</ele>
        <time>2018-05-20T07:16:43Z</time>
      </trkpt>
      <trkpt lat="42.923114011064172" lon="-8.184960968792439">
        <ele>333.30000000000001</ele>
        <time>2018-05-20T07:16:44Z</time>
      </trkpt>
      <trkpt lat="42.923156004399061" lon="-8.184956023469567">
        <ele>333.19999999999999</ele>
        <time>2018-05-20T07:16:46Z</time>
      </trkpt>
      <trkpt lat="42.923197997733951" lon="-8.184938002377749">
        <ele>333</ele>
        <time>2018-05-20T07:16:47Z</time>
      </trkpt>
      <trkpt lat="42.923249965533614" lon="-8.184915035963059">
        <ele>332.80000000000001</ele>
        <time>2018-05-20T07:16:49Z</time>
      </trkpt>
      <trkpt lat="42.923291958868504" lon="-8.184910006821156">
        <ele>332.69999999999999</ele>
        <time>2018-05-20T07:16:50Z</time>
      </trkpt>
      <trkpt lat="42.923329006880522" lon="-8.18489802069962">
        <ele>332.60000000000002</ele>
        <time>2018-05-20T07:16:51Z</time>
      </trkpt>
      <trkpt lat="42.923371000215411" lon="-8.184891985729337">
        <ele>332.39999999999998</ele>
        <time>2018-05-20T07:16:52Z</time>
      </trkpt>
      <trkpt lat="42.923407964408398" lon="-8.184887040406466">
        <ele>332.30000000000001</ele>
        <time>2018-05-20T07:16:53Z</time>
      </trkpt>
      <trkpt lat="42.923446018248796" lon="-8.184881005436182">
        <ele>332.19999999999999</ele>
        <time>2018-05-20T07:16:54Z</time>
      </trkpt>
      <trkpt lat="42.923482982441783" lon="-8.184870025143027">
        <ele>332.10000000000002</ele>
        <time>2018-05-20T07:16:56Z</time>
      </trkpt>
      <trkpt lat="42.923524975776672" lon="-8.184863990172744">
        <ele>332</ele>
        <time>2018-05-20T07:16:57Z</time>
      </trkpt>
      <trkpt lat="42.923562023788691" lon="-8.184858039021492">
        <ele>331.89999999999998</ele>
        <time>2018-05-20T07:16:58Z</time>
      </trkpt>
      <trkpt lat="42.92360401712358" lon="-8.184841023758054">
        <ele>331.69999999999999</ele>
        <time>2018-05-20T07:16:59Z</time>
      </trkpt>
      <trkpt lat="42.923646010458469" lon="-8.18483498878777">
        <ele>331.60000000000002</ele>
        <time>2018-05-20T07:17:00Z</time>
      </trkpt>
      <trkpt lat="42.923679035156965" lon="-8.184824008494616">
        <ele>331.5</ele>
        <time>2018-05-20T07:17:01Z</time>
      </trkpt>
      <trkpt lat="42.923715999349952" lon="-8.18481202237308">
        <ele>331.39999999999998</ele>
        <time>2018-05-20T07:17:03Z</time>
      </trkpt>
      <trkpt lat="42.923752963542938" lon="-8.184788972139359">
        <ele>331.19999999999999</ele>
        <time>2018-05-20T07:17:04Z</time>
      </trkpt>
      <trkpt lat="42.923791017383337" lon="-8.184766005724669">
        <ele>331.19999999999999</ele>
        <time>2018-05-20T07:17:05Z</time>
      </trkpt>
      <trkpt lat="42.923833010718226" lon="-8.184743039309979">
        <ele>331.10000000000002</ele>
        <time>2018-05-20T07:17:06Z</time>
      </trkpt>
      <trkpt lat="42.9238620121032" lon="-8.184719989076257">
        <ele>331</ele>
        <time>2018-05-20T07:17:07Z</time>
      </trkpt>
      <trkpt lat="42.923895036801696" lon="-8.184690987691283">
        <ele>330.89999999999998</ele>
        <time>2018-05-20T07:17:08Z</time>
      </trkpt>
      <trkpt lat="42.923932000994682" lon="-8.184680007398129">
        <ele>330.89999999999998</ele>
        <time>2018-05-20T07:17:10Z</time>
      </trkpt>
      <trkpt lat="42.923965025693178" lon="-8.184657040983439">
        <ele>330.80000000000001</ele>
        <time>2018-05-20T07:17:11Z</time>
      </trkpt>
      <trkpt lat="42.924000984057784" lon="-8.184631979092956">
        <ele>330.69999999999999</ele>
        <time>2018-05-20T07:17:12Z</time>
      </trkpt>
      <trkpt lat="42.924025962129235" lon="-8.184600966051221">
        <ele>330.69999999999999</ele>
        <time>2018-05-20T07:17:13Z</time>
      </trkpt>
      <trkpt lat="42.92405404150486" lon="-8.184538017958403">
        <ele>330.80000000000001</ele>
        <time>2018-05-20T07:17:15Z</time>
      </trkpt>
      <trkpt lat="42.924085976555943" lon="-8.184492001309991">
        <ele>331</ele>
        <time>2018-05-20T07:17:16Z</time>
      </trkpt>
      <trkpt lat="42.924105003476143" lon="-8.184443973004818">
        <ele>331.19999999999999</ele>
        <time>2018-05-20T07:17:17Z</time>
      </trkpt>
      <trkpt lat="42.924168035387993" lon="-8.18434196524322">
        <ele>331.69999999999999</ele>
        <time>2018-05-20T07:17:20Z</time>
      </trkpt>
      <trkpt lat="42.924178009852767" lon="-8.184337019920349">
        <ele>331.69999999999999</ele>
        <time>2018-05-20T07:17:20Z</time>
      </trkpt>
      <trkpt lat="42.924200976267457" lon="-8.184284968301654">
        <ele>331.89999999999998</ele>
        <time>2018-05-20T07:17:22Z</time>
      </trkpt>
      <trkpt lat="42.924220003187656" lon="-8.184239035472274">
        <ele>332.10000000000002</ele>
        <time>2018-05-20T07:17:23Z</time>
      </trkpt>
      <trkpt lat="42.924230983480811" lon="-8.184196958318353">
        <ele>332.30000000000001</ele>
        <time>2018-05-20T07:17:24Z</time>
      </trkpt>
      <trkpt lat="42.924235006794333" lon="-8.184144990518689">
        <ele>332.60000000000002</ele>
        <time>2018-05-20T07:17:25Z</time>
      </trkpt>
      <trkpt lat="42.924235006794333" lon="-8.184093022719026">
        <ele>332.89999999999998</ele>
        <time>2018-05-20T07:17:26Z</time>
      </trkpt>
      <trkpt lat="42.924235006794333" lon="-8.184036025777459">
        <ele>333.19999999999999</ele>
        <time>2018-05-20T07:17:27Z</time>
      </trkpt>
      <trkpt lat="42.924235006794333" lon="-8.183979028835893">
        <ele>333.39999999999998</ele>
        <time>2018-05-20T07:17:28Z</time>
      </trkpt>
      <trkpt lat="42.924235006794333" lon="-8.183924965560436">
        <ele>333.69999999999999</ele>
        <time>2018-05-20T07:17:30Z</time>
      </trkpt>
      <trkpt lat="42.924235006794333" lon="-8.18386796861887">
        <ele>334</ele>
        <time>2018-05-20T07:17:31Z</time>
      </trkpt>
      <trkpt lat="42.92422603815794" lon="-8.18382203578949">
        <ele>334.19999999999999</ele>
        <time>2018-05-20T07:17:32Z</time>
      </trkpt>
      <trkpt lat="42.92422603815794" lon="-8.183764033019543">
        <ele>334.5</ele>
        <time>2018-05-20T07:17:33Z</time>
      </trkpt>
      <trkpt lat="42.92422603815794" lon="-8.183711981400847">
        <ele>334.19999999999999</ele>
        <time>2018-05-20T07:17:34Z</time>
      </trkpt>
      <trkpt lat="42.92422603815794" lon="-8.183649033308029">
        <ele>333.60000000000002</ele>
        <time>2018-05-20T07:17:36Z</time>
      </trkpt>
      <trkpt lat="42.92422603815794" lon="-8.183592036366463">
        <ele>333</ele>
        <time>2018-05-20T07:17:37Z</time>
      </trkpt>
      <trkpt lat="42.92422603815794" lon="-8.183534033596516">
        <ele>332.5</ele>
        <time>2018-05-20T07:17:38Z</time>
      </trkpt>
      <trkpt lat="42.92422603815794" lon="-8.183482987806201">
        <ele>332</ele>
        <time>2018-05-20T07:17:39Z</time>
      </trkpt>
      <trkpt lat="42.924230983480811" lon="-8.183414004743099">
        <ele>331.30000000000001</ele>
        <time>2018-05-20T07:17:41Z</time>
      </trkpt>
      <trkpt lat="42.924240035936236" lon="-8.183338986709714">
        <ele>330.60000000000002</ele>
        <time>2018-05-20T07:17:42Z</time>
      </trkpt>
      <trkpt lat="42.924258979037404" lon="-8.18328701891005">
        <ele>330</ele>
        <time>2018-05-20T07:17:44Z</time>
      </trkpt>
      <trkpt lat="42.924277000129223" lon="-8.183241002261639">
        <ele>329.60000000000002</ele>
        <time>2018-05-20T07:17:45Z</time>
      </trkpt>
      <trkpt lat="42.924304995685816" lon="-8.183190040290356">
        <ele>329.10000000000002</ele>
        <time>2018-05-20T07:17:46Z</time>
      </trkpt>
      <trkpt lat="42.924332991242409" lon="-8.183120973408222">
        <ele>328.39999999999998</ele>
        <time>2018-05-20T07:17:48Z</time>
      </trkpt>
      <trkpt lat="42.92435604147613" lon="-8.183080991730094">
        <ele>327.89999999999998</ele>
        <time>2018-05-20T07:17:49Z</time>
      </trkpt>
      <trkpt lat="42.924380013719201" lon="-8.183034975081682">
        <ele>327.5</ele>
        <time>2018-05-20T07:17:50Z</time>
      </trkpt>
      <trkpt lat="42.924408009275794" lon="-8.182988958433271">
        <ele>327</ele>
        <time>2018-05-20T07:17:52Z</time>
      </trkpt>
      <trkpt lat="42.924444973468781" lon="-8.18294302560389">
        <ele>326.39999999999998</ele>
        <time>2018-05-20T07:17:53Z</time>
      </trkpt>
      <trkpt lat="42.924468023702502" lon="-8.182902960106731">
        <ele>326</ele>
        <time>2018-05-20T07:17:54Z</time>
      </trkpt>
      <trkpt lat="42.924496019259095" lon="-8.182850992307067">
        <ele>325.5</ele>
        <time>2018-05-20T07:17:56Z</time>
      </trkpt>
      <trkpt lat="42.924505993723869" lon="-8.18279298953712">
        <ele>324.89999999999998</ele>
        <time>2018-05-20T07:17:57Z</time>
      </trkpt>
      <trkpt lat="42.924519991502166" lon="-8.182750996202231">
        <ele>324.39999999999998</ele>
        <time>2018-05-20T07:17:58Z</time>
      </trkpt>
      <trkpt lat="42.924543041735888" lon="-8.182711014524102">
        <ele>324</ele>
        <time>2018-05-20T07:17:59Z</time>
      </trkpt>
      <trkpt lat="42.924561984837055" lon="-8.182664997875691">
        <ele>323.60000000000002</ele>
        <time>2018-05-20T07:18:00Z</time>
      </trkpt>
      <trkpt lat="42.92457296513021" lon="-8.182615041732788">
        <ele>323.10000000000002</ele>
        <time>2018-05-20T07:18:01Z</time>
      </trkpt>
      <trkpt lat="42.924582017585635" lon="-8.182562990114093">
        <ele>322.60000000000002</ele>
        <time>2018-05-20T07:18:02Z</time>
      </trkpt>
      <trkpt lat="42.924590986222029" lon="-8.182517979294062">
        <ele>322.19999999999999</ele>
        <time>2018-05-20T07:18:03Z</time>
      </trkpt>
      <trkpt lat="42.924604984000325" lon="-8.182454025372863">
        <ele>321.5</ele>
        <time>2018-05-20T07:18:05Z</time>
      </trkpt>
      <trkpt lat="42.924620993435383" lon="-8.182178009301424">
        <ele>318.80000000000001</ele>
        <time>2018-05-20T07:18:11Z</time>
      </trkpt>
      <trkpt lat="42.924662986770272" lon="-8.181926971301436">
        <ele>316.69999999999999</ele>
        <time>2018-05-20T07:18:17Z</time>
      </trkpt>
      <trkpt lat="42.924687964841723" lon="-8.181646009907126">
        <ele>314.60000000000002</ele>
        <time>2018-05-20T07:18:23Z</time>
      </trkpt>
      <trkpt lat="42.924716966226697" lon="-8.181424979120493">
        <ele>312.89999999999998</ele>
        <time>2018-05-20T07:18:28Z</time>
      </trkpt>
      <trkpt lat="42.924730964004993" lon="-8.18118198774755">
        <ele>311.60000000000002</ele>
        <time>2018-05-20T07:18:33Z</time>
      </trkpt>
      <trkpt lat="42.92474496178329" lon="-8.180936984717846">
        <ele>311.5</ele>
        <time>2018-05-20T07:18:38Z</time>
      </trkpt>
      <trkpt lat="42.924769017845392" lon="-8.180797006934881">
        <ele>311.39999999999998</ele>
        <time>2018-05-20T07:18:41Z</time>
      </trkpt>
      <trkpt lat="42.924769017845392" lon="-8.180788960307837">
        <ele>311.39999999999998</ele>
        <time>2018-05-20T07:18:42Z</time>
      </trkpt>
      <trkpt lat="42.924791984260082" lon="-8.180737998336554">
        <ele>311.30000000000001</ele>
        <time>2018-05-20T07:18:43Z</time>
      </trkpt>
      <trkpt lat="42.924815034493804" lon="-8.180679995566607">
        <ele>311.30000000000001</ele>
        <time>2018-05-20T07:18:44Z</time>
      </trkpt>
      <trkpt lat="42.924839006736875" lon="-8.18062299862504">
        <ele>311.30000000000001</ele>
        <time>2018-05-20T07:18:46Z</time>
      </trkpt>
      <trkpt lat="42.924873037263751" lon="-8.180591985583305">
        <ele>311.30000000000001</ele>
        <time>2018-05-20T07:18:47Z</time>
      </trkpt>
      <trkpt lat="42.924910001456738" lon="-8.180569019168615">
        <ele>311.39999999999998</ele>
        <time>2018-05-20T07:18:48Z</time>
      </trkpt>
      <trkpt lat="42.924943026155233" lon="-8.180545968934894">
        <ele>311.39999999999998</ele>
        <time>2018-05-20T07:18:49Z</time>
      </trkpt>
      <trkpt lat="42.92497999034822" lon="-8.180534988641739">
        <ele>311.39999999999998</ele>
        <time>2018-05-20T07:18:50Z</time>
      </trkpt>
      <trkpt lat="42.925017038360238" lon="-8.180505987256765">
        <ele>311.5</ele>
        <time>2018-05-20T07:18:52Z</time>
      </trkpt>
      <trkpt lat="42.925055008381605" lon="-8.180488971993327">
        <ele>311.5</ele>
        <time>2018-05-20T07:18:53Z</time>
      </trkpt>
      <trkpt lat="42.925093984231353" lon="-8.180488971993327">
        <ele>311.5</ele>
        <time>2018-05-20T07:18:54Z</time>
      </trkpt>
      <trkpt lat="42.925135977566242" lon="-8.180472040548921">
        <ele>311.60000000000002</ele>
        <time>2018-05-20T07:18:55Z</time>
      </trkpt>
      <trkpt lat="42.925177970901132" lon="-8.180466005578637">
        <ele>311.60000000000002</ele>
        <time>2018-05-20T07:18:56Z</time>
      </trkpt>
      <trkpt lat="42.925219964236021" lon="-8.180454019457102">
        <ele>311.69999999999999</ele>
        <time>2018-05-20T07:18:58Z</time>
      </trkpt>
      <trkpt lat="42.925262041389942" lon="-8.180443039163947">
        <ele>311.80000000000001</ele>
        <time>2018-05-20T07:18:59Z</time>
      </trkpt>
      <trkpt lat="42.925307974219322" lon="-8.180443039163947">
        <ele>311.80000000000001</ele>
        <time>2018-05-20T07:19:00Z</time>
      </trkpt>
      <trkpt lat="42.925360025838017" lon="-8.180437004193664">
        <ele>311.89999999999998</ele>
        <time>2018-05-20T07:19:02Z</time>
      </trkpt>
      <trkpt lat="42.925396990031004" lon="-8.180426023900509">
        <ele>312</ele>
        <time>2018-05-20T07:19:03Z</time>
      </trkpt>
      <trkpt lat="42.925434038043022" lon="-8.18040800280869">
        <ele>312.10000000000002</ele>
        <time>2018-05-20T07:19:04Z</time>
      </trkpt>
      <trkpt lat="42.925471002236009" lon="-8.180390987545252">
        <ele>312.30000000000001</ele>
        <time>2018-05-20T07:19:05Z</time>
      </trkpt>
      <trkpt lat="42.925506038591266" lon="-8.180373972281814">
        <ele>312.5</ele>
        <time>2018-05-20T07:19:06Z</time>
      </trkpt>
      <trkpt lat="42.925543002784252" lon="-8.180351005867124">
        <ele>312.69999999999999</ele>
        <time>2018-05-20T07:19:08Z</time>
      </trkpt>
      <trkpt lat="42.925573009997606" lon="-8.180319992825389">
        <ele>313.10000000000002</ele>
        <time>2018-05-20T07:19:09Z</time>
      </trkpt>
      <trkpt lat="42.925595976412296" lon="-8.180280011147261">
        <ele>313.39999999999998</ele>
        <time>2018-05-20T07:19:10Z</time>
      </trkpt>
      <trkpt lat="42.925601005554199" lon="-8.180211028084159">
        <ele>314</ele>
        <time>2018-05-20T07:19:11Z</time>
      </trkpt>
      <trkpt lat="42.925601005554199" lon="-8.180145984515548">
        <ele>314.60000000000002</ele>
        <time>2018-05-20T07:19:13Z</time>
      </trkpt>
      <trkpt lat="42.925601005554199" lon="-8.180088987573981">
        <ele>315.10000000000002</ele>
        <time>2018-05-20T07:19:14Z</time>
      </trkpt>
      <trkpt lat="42.925587007775903" lon="-8.180037019774318">
        <ele>315.60000000000002</ele>
        <time>2018-05-20T07:19:15Z</time>
      </trkpt>
      <trkpt lat="42.925573009997606" lon="-8.179991003125906">
        <ele>316</ele>
        <time>2018-05-20T07:19:16Z</time>
      </trkpt>
      <trkpt lat="42.925549037754536" lon="-8.17993400618434">
        <ele>316.5</ele>
        <time>2018-05-20T07:19:18Z</time>
      </trkpt>
      <trkpt lat="42.925525987520814" lon="-8.179858988150954">
        <ele>317.19999999999999</ele>
        <time>2018-05-20T07:19:20Z</time>
      </trkpt>
      <trkpt lat="42.925503021106124" lon="-8.179790005087853">
        <ele>317.89999999999998</ele>
        <time>2018-05-20T07:19:21Z</time>
      </trkpt>
      <trkpt lat="42.925478965044022" lon="-8.179732002317905">
        <ele>318.5</ele>
        <time>2018-05-20T07:19:23Z</time>
      </trkpt>
      <trkpt lat="42.925455998629332" lon="-8.179681040346623">
        <ele>319</ele>
        <time>2018-05-20T07:19:24Z</time>
      </trkpt>
      <trkpt lat="42.925436971709132" lon="-8.179640974849463">
        <ele>319.39999999999998</ele>
        <time>2018-05-20T07:19:25Z</time>
      </trkpt>
      <trkpt lat="42.925428003072739" lon="-8.179589007049799">
        <ele>319.89999999999998</ele>
        <time>2018-05-20T07:19:26Z</time>
      </trkpt>
      <trkpt lat="42.925405036658049" lon="-8.179513989016414">
        <ele>320.60000000000002</ele>
        <time>2018-05-20T07:19:28Z</time>
      </trkpt>
      <trkpt lat="42.925386009737849" lon="-8.179467972368002">
        <ele>320.89999999999998</ele>
        <time>2018-05-20T07:19:29Z</time>
      </trkpt>
      <trkpt lat="42.925377041101456" lon="-8.179407035931945">
        <ele>321.39999999999998</ele>
        <time>2018-05-20T07:19:30Z</time>
      </trkpt>
      <trkpt lat="42.925358014181256" lon="-8.179361019283533">
        <ele>321.80000000000001</ele>
        <time>2018-05-20T07:19:32Z</time>
      </trkpt>
      <trkpt lat="42.92534401640296" lon="-8.179279966279864">
        <ele>322.39999999999998</ele>
        <time>2018-05-20T07:19:33Z</time>
      </trkpt>
      <trkpt lat="42.925334963947535" lon="-8.179217018187046">
        <ele>323</ele>
        <time>2018-05-20T07:19:35Z</time>
      </trkpt>
      <trkpt lat="42.925330018624663" lon="-8.179165972396731">
        <ele>323.39999999999998</ele>
        <time>2018-05-20T07:19:36Z</time>
      </trkpt>
      <trkpt lat="42.925320966169238" lon="-8.179111992940307">
        <ele>323.89999999999998</ele>
        <time>2018-05-20T07:19:37Z</time>
      </trkpt>
      <trkpt lat="42.925316020846367" lon="-8.179036974906921">
        <ele>324.60000000000002</ele>
        <time>2018-05-20T07:19:39Z</time>
      </trkpt>
      <trkpt lat="42.925306968390942" lon="-8.178979977965355">
        <ele>325</ele>
        <time>2018-05-20T07:19:40Z</time>
      </trkpt>
      <trkpt lat="42.92530202306807" lon="-8.178917029872537">
        <ele>325.60000000000002</ele>
        <time>2018-05-20T07:19:41Z</time>
      </trkpt>
      <trkpt lat="42.925292970612645" lon="-8.178864978253841">
        <ele>326</ele>
        <time>2018-05-20T07:19:43Z</time>
      </trkpt>
      <trkpt lat="42.925292970612645" lon="-8.17879599519074">
        <ele>326.69999999999999</ele>
        <time>2018-05-20T07:19:44Z</time>
      </trkpt>
      <trkpt lat="42.925292970612645" lon="-8.178722988814116">
        <ele>327.19999999999999</ele>
        <time>2018-05-20T07:19:46Z</time>
      </trkpt>
      <trkpt lat="42.92530202306807" lon="-8.178401039913297">
        <ele>328.5</ele>
        <time>2018-05-20T07:19:53Z</time>
      </trkpt>
      <trkpt lat="42.925300011411309" lon="-8.178162993863225">
        <ele>329.5</ele>
        <time>2018-05-20T07:19:58Z</time>
      </trkpt>
      <trkpt lat="42.925300011411309" lon="-8.17815201357007">
        <ele>329.5</ele>
        <time>2018-05-20T07:19:58Z</time>
      </trkpt>
      <trkpt lat="42.925300011411309" lon="-8.178099961951375">
        <ele>329.69999999999999</ele>
        <time>2018-05-20T07:19:59Z</time>
      </trkpt>
      <trkpt lat="42.925300011411309" lon="-8.178047994151712">
        <ele>329.89999999999998</ele>
        <time>2018-05-20T07:20:00Z</time>
      </trkpt>
      <trkpt lat="42.925300011411309" lon="-8.177990997210145">
        <ele>330.10000000000002</ele>
        <time>2018-05-20T07:20:02Z</time>
      </trkpt>
      <trkpt lat="42.925300011411309" lon="-8.177934000268579">
        <ele>330.39999999999998</ele>
        <time>2018-05-20T07:20:03Z</time>
      </trkpt>
      <trkpt lat="42.925305040553212" lon="-8.177865017205477">
        <ele>330.80000000000001</ele>
        <time>2018-05-20T07:20:04Z</time>
      </trkpt>
      <trkpt lat="42.925305040553212" lon="-8.177812965586782">
        <ele>331.19999999999999</ele>
        <time>2018-05-20T07:20:05Z</time>
      </trkpt>
      <trkpt lat="42.925314009189606" lon="-8.177760997787118">
        <ele>331.60000000000002</ele>
        <time>2018-05-20T07:20:07Z</time>
      </trkpt>
      <trkpt lat="42.925314009189606" lon="-8.177697965875268">
        <ele>332.10000000000002</ele>
        <time>2018-05-20T07:20:08Z</time>
      </trkpt>
      <trkpt lat="42.925314009189606" lon="-8.177647003903985">
        <ele>332.39999999999998</ele>
        <time>2018-05-20T07:20:09Z</time>
      </trkpt>
      <trkpt lat="42.925314009189606" lon="-8.177578020840883">
        <ele>332.89999999999998</ele>
        <time>2018-05-20T07:20:11Z</time>
      </trkpt>
      <trkpt lat="42.925319038331509" lon="-8.177520018070936">
        <ele>333.39999999999998</ele>
        <time>2018-05-20T07:20:12Z</time>
      </trkpt>
      <trkpt lat="42.925319038331509" lon="-8.177451035007834">
        <ele>333.89999999999998</ele>
        <time>2018-05-20T07:20:13Z</time>
      </trkpt>
      <trkpt lat="42.925328006967902" lon="-8.177394038066268">
        <ele>334.30000000000001</ele>
        <time>2018-05-20T07:20:15Z</time>
      </trkpt>
      <trkpt lat="42.92534401640296" lon="-8.177351960912347">
        <ele>334.69999999999999</ele>
        <time>2018-05-20T07:20:16Z</time>
      </trkpt>
      <trkpt lat="42.925392966717482" lon="-8.177136965095997">
        <ele>336.5</ele>
        <time>2018-05-20T07:20:21Z</time>
      </trkpt>
      <trkpt lat="42.925392966717482" lon="-8.177129002287984">
        <ele>336.60000000000002</ele>
        <time>2018-05-20T07:20:21Z</time>
      </trkpt>
      <trkpt lat="42.925531016662717" lon="-8.176747960969806">
        <ele>338.39999999999998</ele>
        <time>2018-05-20T07:20:30Z</time>
      </trkpt>
      <trkpt lat="42.925665965303779" lon="-8.176331967115402">
        <ele>340.80000000000001</ele>
        <time>2018-05-20T07:20:40Z</time>
      </trkpt>
      <trkpt lat="42.92577501386404" lon="-8.175984034314752">
        <ele>343.19999999999999</ele>
        <time>2018-05-20T07:20:48Z</time>
      </trkpt>
      <trkpt lat="42.925938963890076" lon="-8.175591006875038">
        <ele>345.89999999999998</ele>
        <time>2018-05-20T07:20:58Z</time>
      </trkpt>
      <trkpt lat="42.92607500217855" lon="-8.175195967778564">
        <ele>347.89999999999998</ele>
        <time>2018-05-20T07:21:07Z</time>
      </trkpt>
      <trkpt lat="42.926173992455006" lon="-8.174935961142182">
        <ele>349.19999999999999</ele>
        <time>2018-05-20T07:21:14Z</time>
      </trkpt>
      <trkpt lat="42.926293015480042" lon="-8.174638990312815">
        <ele>350.60000000000002</ele>
        <time>2018-05-20T07:21:21Z</time>
      </trkpt>
      <trkpt lat="42.926383037120104" lon="-8.174464982002974">
        <ele>350.80000000000001</ele>
        <time>2018-05-20T07:21:26Z</time>
      </trkpt>
      <trkpt lat="42.926457971334457" lon="-8.174328021705151">
        <ele>351</ele>
        <time>2018-05-20T07:21:29Z</time>
      </trkpt>
      <trkpt lat="42.926481021568179" lon="-8.17430698312819">
        <ele>351</ele>
        <time>2018-05-20T07:21:30Z</time>
      </trkpt>
      <trkpt lat="42.926503987982869" lon="-8.174273036420345">
        <ele>351.10000000000002</ele>
        <time>2018-05-20T07:21:31Z</time>
      </trkpt>
      <trkpt lat="42.926531983539462" lon="-8.174232970923185">
        <ele>351.10000000000002</ele>
        <time>2018-05-20T07:21:32Z</time>
      </trkpt>
      <trkpt lat="42.926555033773184" lon="-8.17419801838696">
        <ele>351.19999999999999</ele>
        <time>2018-05-20T07:21:33Z</time>
      </trkpt>
      <trkpt lat="42.926593003794551" lon="-8.174174968153238">
        <ele>351.10000000000002</ele>
        <time>2018-05-20T07:21:35Z</time>
      </trkpt>
      <trkpt lat="42.926629967987537" lon="-8.174158036708832">
        <ele>351.10000000000002</ele>
        <time>2018-05-20T07:21:36Z</time>
      </trkpt>
      <trkpt lat="42.926671961322427" lon="-8.174152001738548">
        <ele>351</ele>
        <time>2018-05-20T07:21:37Z</time>
      </trkpt>
      <trkpt lat="42.926709009334445" lon="-8.174145966768265">
        <ele>351</ele>
        <time>2018-05-20T07:21:38Z</time>
      </trkpt>
      <trkpt lat="42.926751002669334" lon="-8.174141021445394">
        <ele>350.89999999999998</ele>
        <time>2018-05-20T07:21:39Z</time>
      </trkpt>
      <trkpt lat="42.926792996004224" lon="-8.174129035323858">
        <ele>350.80000000000001</ele>
        <time>2018-05-20T07:21:41Z</time>
      </trkpt>
      <trkpt lat="42.926834989339113" lon="-8.174123000353575">
        <ele>350.80000000000001</ele>
        <time>2018-05-20T07:21:42Z</time>
      </trkpt>
      <trkpt lat="42.926876982674003" lon="-8.174105985090137">
        <ele>350.80000000000001</ele>
        <time>2018-05-20T07:21:43Z</time>
      </trkpt>
      <trkpt lat="42.926915036514401" lon="-8.174100033938885">
        <ele>350.69999999999999</ele>
        <time>2018-05-20T07:21:44Z</time>
      </trkpt>
      <trkpt lat="42.926952000707388" lon="-8.174095004796982">
        <ele>350.60000000000002</ele>
        <time>2018-05-20T07:21:45Z</time>
      </trkpt>
      <trkpt lat="42.927012015134096" lon="-8.174083018675447">
        <ele>350.60000000000002</ele>
        <time>2018-05-20T07:21:47Z</time>
      </trkpt>
      <trkpt lat="42.927054008468986" lon="-8.174066003412008">
        <ele>350.5</ele>
        <time>2018-05-20T07:21:49Z</time>
      </trkpt>
      <trkpt lat="42.927091978490353" lon="-8.174059968441725">
        <ele>350.5</ele>
        <time>2018-05-20T07:21:50Z</time>
      </trkpt>
      <trkpt lat="42.927133971825242" lon="-8.17404898814857">
        <ele>350.60000000000002</ele>
        <time>2018-05-20T07:21:51Z</time>
      </trkpt>
      <trkpt lat="42.927175965160131" lon="-8.174031972885132">
        <ele>350.60000000000002</ele>
        <time>2018-05-20T07:21:52Z</time>
      </trkpt>
      <trkpt lat="42.927203960716724" lon="-8.174009006470442">
        <ele>350.80000000000001</ele>
        <time>2018-05-20T07:21:53Z</time>
      </trkpt>
      <trkpt lat="42.927241008728743" lon="-8.173986040055752">
        <ele>350.89999999999998</ele>
        <time>2018-05-20T07:21:54Z</time>
      </trkpt>
      <trkpt lat="42.927269004285336" lon="-8.173957038670778">
        <ele>351</ele>
        <time>2018-05-20T07:21:55Z</time>
      </trkpt>
      <trkpt lat="42.927305968478322" lon="-8.173916973173618">
        <ele>351.19999999999999</ele>
        <time>2018-05-20T07:21:57Z</time>
      </trkpt>
      <trkpt lat="42.927345028147101" lon="-8.173873974010348">
        <ele>351.39999999999998</ele>
        <time>2018-05-20T07:21:58Z</time>
      </trkpt>
      <trkpt lat="42.927367994561791" lon="-8.17383399233222">
        <ele>351.60000000000002</ele>
        <time>2018-05-20T07:21:59Z</time>
      </trkpt>
      <trkpt lat="42.927395990118384" lon="-8.173794010654092">
        <ele>351.80000000000001</ele>
        <time>2018-05-20T07:22:01Z</time>
      </trkpt>
      <trkpt lat="42.927423985674977" lon="-8.173730978742242">
        <ele>352</ele>
        <time>2018-05-20T07:22:02Z</time>
      </trkpt>
      <trkpt lat="42.927437983453274" lon="-8.173696026206017">
        <ele>352</ele>
        <time>2018-05-20T07:22:03Z</time>
      </trkpt>
      <trkpt lat="42.92744804173708" lon="-8.173644980415702">
        <ele>352.10000000000002</ele>
        <time>2018-05-20T07:22:04Z</time>
      </trkpt>
      <trkpt lat="42.927465979009867" lon="-8.173604998737574">
        <ele>352.10000000000002</ele>
        <time>2018-05-20T07:22:05Z</time>
      </trkpt>
      <trkpt lat="42.927487017586827" lon="-8.173511037603021">
        <ele>352.30000000000001</ele>
        <time>2018-05-20T07:22:07Z</time>
      </trkpt>
      <trkpt lat="42.927487017586827" lon="-8.173508020117879">
        <ele>352.30000000000001</ele>
        <time>2018-05-20T07:22:07Z</time>
      </trkpt>
      <trkpt lat="42.92749104090035" lon="-8.173481030389667">
        <ele>352.30000000000001</ele>
        <time>2018-05-20T07:22:08Z</time>
      </trkpt>
      <trkpt lat="42.92749498039484" lon="-8.173443982377648">
        <ele>352.39999999999998</ele>
        <time>2018-05-20T07:22:09Z</time>
      </trkpt>
      <trkpt lat="42.927499003708363" lon="-8.173420010134578">
        <ele>352.39999999999998</ele>
        <time>2018-05-20T07:22:09Z</time>
      </trkpt>
      <trkpt lat="42.927501015365124" lon="-8.173396959900856">
        <ele>352.39999999999998</ele>
        <time>2018-05-20T07:22:10Z</time>
      </trkpt>
      <trkpt lat="42.927501015365124" lon="-8.173374999314547">
        <ele>352.5</ele>
        <time>2018-05-20T07:22:10Z</time>
      </trkpt>
      <trkpt lat="42.927505038678646" lon="-8.173345997929573">
        <ele>352.5</ele>
        <time>2018-05-20T07:22:11Z</time>
      </trkpt>
      <trkpt lat="42.927505038678646" lon="-8.173324037343264">
        <ele>352.5</ele>
        <time>2018-05-20T07:22:11Z</time>
      </trkpt>
      <trkpt lat="42.927505038678646" lon="-8.173298975452781">
        <ele>352.60000000000002</ele>
        <time>2018-05-20T07:22:12Z</time>
      </trkpt>
      <trkpt lat="42.927503027021885" lon="-8.173277014866471">
        <ele>352.60000000000002</ele>
        <time>2018-05-20T07:22:13Z</time>
      </trkpt>
      <trkpt lat="42.927501015365124" lon="-8.173240972682834">
        <ele>352.60000000000002</ele>
        <time>2018-05-20T07:22:13Z</time>
      </trkpt>
      <trkpt lat="42.927496992051601" lon="-8.173221023753285">
        <ele>352.60000000000002</ele>
        <time>2018-05-20T07:22:14Z</time>
      </trkpt>
      <trkpt lat="42.92749104090035" lon="-8.173198979347944">
        <ele>352.60000000000002</ele>
        <time>2018-05-20T07:22:14Z</time>
      </trkpt>
      <trkpt lat="42.927482994273305" lon="-8.173174001276493">
        <ele>352.60000000000002</ele>
        <time>2018-05-20T07:22:15Z</time>
      </trkpt>
      <trkpt lat="42.927473019808531" lon="-8.173139970749617">
        <ele>352.60000000000002</ele>
        <time>2018-05-20T07:22:16Z</time>
      </trkpt>
      <trkpt lat="42.927464973181486" lon="-8.173115998506546">
        <ele>352.60000000000002</ele>
        <time>2018-05-20T07:22:16Z</time>
      </trkpt>
      <trkpt lat="42.927454998716712" lon="-8.173089008778334">
        <ele>352.60000000000002</ele>
        <time>2018-05-20T07:22:17Z</time>
      </trkpt>
      <trkpt lat="42.927443012595177" lon="-8.173066964372993">
        <ele>352.60000000000002</ele>
        <time>2018-05-20T07:22:17Z</time>
      </trkpt>
      <trkpt lat="42.927433038130403" lon="-8.17303997464478">
        <ele>352.60000000000002</ele>
        <time>2018-05-20T07:22:18Z</time>
      </trkpt>
      <trkpt lat="42.927422979846597" lon="-8.17301700823009">
        <ele>352.60000000000002</ele>
        <time>2018-05-20T07:22:19Z</time>
      </trkpt>
      <trkpt lat="42.927417028695345" lon="-8.172997981309891">
        <ele>352.5</ele>
        <time>2018-05-20T07:22:19Z</time>
      </trkpt>
      <trkpt lat="42.927406970411539" lon="-8.172970991581678">
        <ele>352.5</ele>
        <time>2018-05-20T07:22:20Z</time>
      </trkpt>
      <trkpt lat="42.927401019260287" lon="-8.172948025166988">
        <ele>352.5</ele>
        <time>2018-05-20T07:22:20Z</time>
      </trkpt>
      <trkpt lat="42.927390960976481" lon="-8.172925980761647">
        <ele>352.5</ele>
        <time>2018-05-20T07:22:21Z</time>
      </trkpt>
      <trkpt lat="42.92738500982523" lon="-8.172902008518577">
        <ele>352.39999999999998</ele>
        <time>2018-05-20T07:22:21Z</time>
      </trkpt>
      <trkpt lat="42.927376963198185" lon="-8.172881975769997">
        <ele>352.30000000000001</ele>
        <time>2018-05-20T07:22:22Z</time>
      </trkpt>
      <trkpt lat="42.927369000390172" lon="-8.172854986041784">
        <ele>352.19999999999999</ele>
        <time>2018-05-20T07:22:23Z</time>
      </trkpt>
      <trkpt lat="42.927361037582159" lon="-8.172833025455475">
        <ele>352.10000000000002</ele>
        <time>2018-05-20T07:22:23Z</time>
      </trkpt>
      <trkpt lat="42.927352990955114" lon="-8.172795977443457">
        <ele>352</ele>
        <time>2018-05-20T07:22:24Z</time>
      </trkpt>
      <trkpt lat="42.927345028147101" lon="-8.172768987715244">
        <ele>351.89999999999998</ele>
        <time>2018-05-20T07:22:25Z</time>
      </trkpt>
      <trkpt lat="42.927341004833579" lon="-8.172740992158651">
        <ele>351.80000000000001</ele>
        <time>2018-05-20T07:22:25Z</time>
      </trkpt>
      <trkpt lat="42.927308985963464" lon="-8.172618029639125">
        <ele>351.19999999999999</ele>
        <time>2018-05-20T07:22:28Z</time>
      </trkpt>
      <trkpt lat="42.927306974306703" lon="-8.172614006325603">
        <ele>351.19999999999999</ele>
        <time>2018-05-20T07:22:28Z</time>
      </trkpt>
      <trkpt lat="42.92727897875011" lon="-8.17250101827085">
        <ele>350.60000000000002</ele>
        <time>2018-05-20T07:22:31Z</time>
      </trkpt>
      <trkpt lat="42.927255006507039" lon="-8.172353999689221">
        <ele>350</ele>
        <time>2018-05-20T07:22:34Z</time>
      </trkpt>
      <trkpt lat="42.927202032878995" lon="-8.172197006642819">
        <ele>348.89999999999998</ele>
        <time>2018-05-20T07:22:38Z</time>
      </trkpt>
      <trkpt lat="42.927160039544106" lon="-8.172090975567699">
        <ele>348</ele>
        <time>2018-05-20T07:22:40Z</time>
      </trkpt>
      <trkpt lat="42.927158027887344" lon="-8.172087036073208">
        <ele>347.89999999999998</ele>
        <time>2018-05-20T07:22:40Z</time>
      </trkpt>
      <trkpt lat="42.927126009017229" lon="-8.171958038583398">
        <ele>346.80000000000001</ele>
        <time>2018-05-20T07:22:43Z</time>
      </trkpt>
      <trkpt lat="42.927096001803875" lon="-8.171829963102937">
        <ele>345.60000000000002</ele>
        <time>2018-05-20T07:22:46Z</time>
      </trkpt>
      <trkpt lat="42.927091978490353" lon="-8.17181202583015">
        <ele>345.5</ele>
        <time>2018-05-20T07:22:47Z</time>
      </trkpt>
      <trkpt lat="42.927072029560804" lon="-8.171670036390424">
        <ele>344.39999999999998</ele>
        <time>2018-05-20T07:22:50Z</time>
      </trkpt>
      <trkpt lat="42.927068006247282" lon="-8.171660983934999">
        <ele>344.39999999999998</ele>
        <time>2018-05-20T07:22:50Z</time>
      </trkpt>
      <trkpt lat="42.927056020125747" lon="-8.17151103168726">
        <ele>343.39999999999998</ele>
        <time>2018-05-20T07:22:53Z</time>
      </trkpt>
      <trkpt lat="42.92704202234745" lon="-8.171349009498954">
        <ele>342.30000000000001</ele>
        <time>2018-05-20T07:22:57Z</time>
      </trkpt>
      <trkpt lat="42.927035987377167" lon="-8.171193022280932">
        <ele>341.30000000000001</ele>
        <time>2018-05-20T07:23:00Z</time>
      </trkpt>
      <trkpt lat="42.927035987377167" lon="-8.171173995360732">
        <ele>341.19999999999999</ele>
        <time>2018-05-20T07:23:01Z</time>
      </trkpt>
      <trkpt lat="42.927033975720406" lon="-8.170988000929356">
        <ele>340.10000000000002</ele>
        <time>2018-05-20T07:23:05Z</time>
      </trkpt>
      <trkpt lat="42.927033975720406" lon="-8.170812986791134">
        <ele>339.10000000000002</ele>
        <time>2018-05-20T07:23:09Z</time>
      </trkpt>
      <trkpt lat="42.927049985155463" lon="-8.170689018443227">
        <ele>338.39999999999998</ele>
        <time>2018-05-20T07:23:11Z</time>
      </trkpt>
      <trkpt lat="42.927049985155463" lon="-8.170666974037886">
        <ele>338.30000000000001</ele>
        <time>2018-05-20T07:23:12Z</time>
      </trkpt>
      <trkpt lat="42.927053002640605" lon="-8.170639984309673">
        <ele>338.19999999999999</ele>
        <time>2018-05-20T07:23:12Z</time>
      </trkpt>
      <trkpt lat="42.927055014297366" lon="-8.170612994581461">
        <ele>338</ele>
        <time>2018-05-20T07:23:13Z</time>
      </trkpt>
      <trkpt lat="42.927057025954127" lon="-8.170590028166771">
        <ele>337.89999999999998</ele>
        <time>2018-05-20T07:23:14Z</time>
      </trkpt>
      <trkpt lat="42.927059037610888" lon="-8.17056798376143">
        <ele>337.80000000000001</ele>
        <time>2018-05-20T07:23:14Z</time>
      </trkpt>
      <trkpt lat="42.927060965448618" lon="-8.170538982376456">
        <ele>337.60000000000002</ele>
        <time>2018-05-20T07:23:15Z</time>
      </trkpt>
      <trkpt lat="42.927067000418901" lon="-8.170508975163102">
        <ele>337.5</ele>
        <time>2018-05-20T07:23:15Z</time>
      </trkpt>
      <trkpt lat="42.927069012075663" lon="-8.170487014576793">
        <ele>337.30000000000001</ele>
        <time>2018-05-20T07:23:16Z</time>
      </trkpt>
      <trkpt lat="42.927073035389185" lon="-8.170462036505342">
        <ele>337.19999999999999</ele>
        <time>2018-05-20T07:23:16Z</time>
      </trkpt>
      <trkpt lat="42.927080998197198" lon="-8.170434962958098">
        <ele>337.10000000000002</ele>
        <time>2018-05-20T07:23:17Z</time>
      </trkpt>
      <trkpt lat="42.927087033167481" lon="-8.170405961573124">
        <ele>337</ele>
        <time>2018-05-20T07:23:18Z</time>
      </trkpt>
      <trkpt lat="42.927099019289017" lon="-8.170391041785479">
        <ele>337.10000000000002</ele>
        <time>2018-05-20T07:23:18Z</time>
      </trkpt>
      <trkpt lat="42.92710698209703" lon="-8.170368997380137">
        <ele>337.19999999999999</ele>
        <time>2018-05-20T07:23:19Z</time>
      </trkpt>
      <trkpt lat="42.927118968218565" lon="-8.170347036793828">
        <ele>337.30000000000001</ele>
        <time>2018-05-20T07:23:19Z</time>
      </trkpt>
      <trkpt lat="42.927132965996861" lon="-8.170315017923713">
        <ele>337.39999999999998</ele>
        <time>2018-05-20T07:23:20Z</time>
      </trkpt>
      <trkpt lat="42.927143024280667" lon="-8.170285010710359">
        <ele>337.5</ele>
        <time>2018-05-20T07:23:21Z</time>
      </trkpt>
      <trkpt lat="42.92715098708868" lon="-8.170252991840243">
        <ele>337.60000000000002</ele>
        <time>2018-05-20T07:23:21Z</time>
      </trkpt>
      <trkpt lat="42.927159033715725" lon="-8.170226002112031">
        <ele>337.60000000000002</ele>
        <time>2018-05-20T07:23:22Z</time>
      </trkpt>
      <trkpt lat="42.927160961553454" lon="-8.17020202986896">
        <ele>337.69999999999999</ele>
        <time>2018-05-20T07:23:23Z</time>
      </trkpt>
      <trkpt lat="42.927162973210216" lon="-8.170174034312367">
        <ele>337.69999999999999</ele>
        <time>2018-05-20T07:23:23Z</time>
      </trkpt>
      <trkpt lat="42.927164984866977" lon="-8.170146960765123">
        <ele>337.69999999999999</ele>
        <time>2018-05-20T07:23:24Z</time>
      </trkpt>
      <trkpt lat="42.927164984866977" lon="-8.17011795938015">
        <ele>337.69999999999999</ele>
        <time>2018-05-20T07:23:24Z</time>
      </trkpt>
      <trkpt lat="42.927164984866977" lon="-8.170080995187163">
        <ele>337.80000000000001</ele>
        <time>2018-05-20T07:23:25Z</time>
      </trkpt>
      <trkpt lat="42.927164984866977" lon="-8.170054005458951">
        <ele>337.80000000000001</ele>
        <time>2018-05-20T07:23:26Z</time>
      </trkpt>
      <trkpt lat="42.927164984866977" lon="-8.17003196105361">
        <ele>337.80000000000001</ele>
        <time>2018-05-20T07:23:26Z</time>
      </trkpt>
      <trkpt lat="42.927164984866977" lon="-8.1700100004673">
        <ele>337.80000000000001</ele>
        <time>2018-05-20T07:23:27Z</time>
      </trkpt>
      <trkpt lat="42.927164984866977" lon="-8.169983010739088">
        <ele>337.89999999999998</ele>
        <time>2018-05-20T07:23:27Z</time>
      </trkpt>
      <trkpt lat="42.927164984866977" lon="-8.169958032667637">
        <ele>337.89999999999998</ele>
        <time>2018-05-20T07:23:28Z</time>
      </trkpt>
      <trkpt lat="42.927164984866977" lon="-8.169935988262296">
        <ele>337.89999999999998</ele>
        <time>2018-05-20T07:23:28Z</time>
      </trkpt>
      <trkpt lat="42.927164984866977" lon="-8.169911010190845">
        <ele>337.89999999999998</ele>
        <time>2018-05-20T07:23:29Z</time>
      </trkpt>
      <trkpt lat="42.927164984866977" lon="-8.169882008805871">
        <ele>337.89999999999998</ele>
        <time>2018-05-20T07:23:30Z</time>
      </trkpt>
      <trkpt lat="42.927164984866977" lon="-8.16985703073442">
        <ele>338</ele>
        <time>2018-05-20T07:23:30Z</time>
      </trkpt>
      <trkpt lat="42.927162973210216" lon="-8.169831968843937">
        <ele>338</ele>
        <time>2018-05-20T07:23:31Z</time>
      </trkpt>
      <trkpt lat="42.927162973210216" lon="-8.169804979115725">
        <ele>338</ele>
        <time>2018-05-20T07:23:31Z</time>
      </trkpt>
      <trkpt lat="42.927162973210216" lon="-8.169782012701035">
        <ele>338</ele>
        <time>2018-05-20T07:23:32Z</time>
      </trkpt>
      <trkpt lat="42.927139000967145" lon="-8.169678999111056">
        <ele>338</ele>
        <time>2018-05-20T07:23:34Z</time>
      </trkpt>
      <trkpt lat="42.927088038995862" lon="-8.169437013566494">
        <ele>339.10000000000002</ele>
        <time>2018-05-20T07:23:40Z</time>
      </trkpt>
      <trkpt lat="42.927040010690689" lon="-8.169215982779861">
        <ele>340.60000000000002</ele>
        <time>2018-05-20T07:23:45Z</time>
      </trkpt>
      <trkpt lat="42.927001034840941" lon="-8.169013978913426">
        <ele>342.19999999999999</ele>
        <time>2018-05-20T07:23:49Z</time>
      </trkpt>
      <trkpt lat="42.926943032070994" lon="-8.168722959235311">
        <ele>344.5</ele>
        <time>2018-05-20T07:23:56Z</time>
      </trkpt>
      <trkpt lat="42.92689299210906" lon="-8.16846395842731">
        <ele>346.19999999999999</ele>
        <time>2018-05-20T07:24:02Z</time>
      </trkpt>
      <trkpt lat="42.926844963803887" lon="-8.168261032551527">
        <ele>347.5</ele>
        <time>2018-05-20T07:24:06Z</time>
      </trkpt>
      <trkpt lat="42.926844963803887" lon="-8.168258015066385">
        <ele>347.5</ele>
        <time>2018-05-20T07:24:06Z</time>
      </trkpt>
      <trkpt lat="42.926802970468998" lon="-8.168036984279752">
        <ele>349</ele>
        <time>2018-05-20T07:24:11Z</time>
      </trkpt>
      <trkpt lat="42.92678696103394" lon="-8.167914021760225">
        <ele>349.69999999999999</ele>
        <time>2018-05-20T07:24:14Z</time>
      </trkpt>
      <trkpt lat="42.926785033196211" lon="-8.167738001793623">
        <ele>351.5</ele>
        <time>2018-05-20T07:24:18Z</time>
      </trkpt>
      <trkpt lat="42.926772963255644" lon="-8.167572962120175">
        <ele>353.19999999999999</ele>
        <time>2018-05-20T07:24:21Z</time>
      </trkpt>
      <trkpt lat="42.926772963255644" lon="-8.167553013190627">
        <ele>353.39999999999998</ele>
        <time>2018-05-20T07:24:22Z</time>
      </trkpt>
      <trkpt lat="42.926772963255644" lon="-8.167526023462415">
        <ele>353.69999999999999</ele>
        <time>2018-05-20T07:24:22Z</time>
      </trkpt>
      <trkpt lat="42.926772963255644" lon="-8.167503979057074">
        <ele>353.89999999999998</ele>
        <time>2018-05-20T07:24:23Z</time>
      </trkpt>
      <trkpt lat="42.926772963255644" lon="-8.167482018470764">
        <ele>354.10000000000002</ele>
        <time>2018-05-20T07:24:23Z</time>
      </trkpt>
      <trkpt lat="42.926772963255644" lon="-8.167449999600649">
        <ele>354.39999999999998</ele>
        <time>2018-05-20T07:24:24Z</time>
      </trkpt>
      <trkpt lat="42.926772963255644" lon="-8.167425021529198">
        <ele>354.69999999999999</ele>
        <time>2018-05-20T07:24:25Z</time>
      </trkpt>
      <trkpt lat="42.926774974912405" lon="-8.167390991002321">
        <ele>355</ele>
        <time>2018-05-20T07:24:25Z</time>
      </trkpt>
      <trkpt lat="42.926774974912405" lon="-8.16736601293087">
        <ele>355.30000000000001</ele>
        <time>2018-05-20T07:24:26Z</time>
      </trkpt>
      <trkpt lat="42.926778998225927" lon="-8.167343968525529">
        <ele>355.5</ele>
        <time>2018-05-20T07:24:26Z</time>
      </trkpt>
      <trkpt lat="42.92678302153945" lon="-8.167314967140555">
        <ele>355.80000000000001</ele>
        <time>2018-05-20T07:24:27Z</time>
      </trkpt>
      <trkpt lat="42.92678696103394" lon="-8.167289989069104">
        <ele>356</ele>
        <time>2018-05-20T07:24:28Z</time>
      </trkpt>
      <trkpt lat="42.92678696103394" lon="-8.167265010997653">
        <ele>356.19999999999999</ele>
        <time>2018-05-20T07:24:28Z</time>
      </trkpt>
      <trkpt lat="42.92678696103394" lon="-8.167238021269441">
        <ele>356.5</ele>
        <time>2018-05-20T07:24:29Z</time>
      </trkpt>
      <trkpt lat="42.92678696103394" lon="-8.167213965207338">
        <ele>356.80000000000001</ele>
        <time>2018-05-20T07:24:29Z</time>
      </trkpt>
      <trkpt lat="42.926788972690701" lon="-8.167184041813016">
        <ele>357</ele>
        <time>2018-05-20T07:24:30Z</time>
      </trkpt>
      <trkpt lat="42.926788972690701" lon="-8.167155040428042">
        <ele>357.30000000000001</ele>
        <time>2018-05-20T07:24:31Z</time>
      </trkpt>
      <trkpt lat="42.926788972690701" lon="-8.167123021557927">
        <ele>357.69999999999999</ele>
        <time>2018-05-20T07:24:31Z</time>
      </trkpt>
      <trkpt lat="42.926790984347463" lon="-8.16708798520267">
        <ele>358</ele>
        <time>2018-05-20T07:24:32Z</time>
      </trkpt>
      <trkpt lat="42.926795007660985" lon="-8.167069964110851">
        <ele>358.19999999999999</ele>
        <time>2018-05-20T07:24:32Z</time>
      </trkpt>
      <trkpt lat="42.926795007660985" lon="-8.166956976056099">
        <ele>359.10000000000002</ele>
        <time>2018-05-20T07:24:35Z</time>
      </trkpt>
      <trkpt lat="42.926795007660985" lon="-8.166947001591325">
        <ele>359.19999999999999</ele>
        <time>2018-05-20T07:24:35Z</time>
      </trkpt>
      <trkpt lat="42.926761982962489" lon="-8.166799983009696">
        <ele>360.60000000000002</ele>
        <time>2018-05-20T07:24:38Z</time>
      </trkpt>
      <trkpt lat="42.926744967699051" lon="-8.16669998690486">
        <ele>361.39999999999998</ele>
        <time>2018-05-20T07:24:41Z</time>
      </trkpt>
      <trkpt lat="42.926702974364161" lon="-8.166610971093178">
        <ele>362.19999999999999</ele>
        <time>2018-05-20T07:24:43Z</time>
      </trkpt>
      <trkpt lat="42.926685037091374" lon="-8.166493959724903">
        <ele>363.10000000000002</ele>
        <time>2018-05-20T07:24:46Z</time>
      </trkpt>
      <trkpt lat="42.926651006564498" lon="-8.166361022740603">
        <ele>364.10000000000002</ele>
        <time>2018-05-20T07:24:49Z</time>
      </trkpt>
      <trkpt lat="42.926623011007905" lon="-8.166233031079173">
        <ele>365</ele>
        <time>2018-05-20T07:24:52Z</time>
      </trkpt>
      <trkpt lat="42.926623011007905" lon="-8.166224984452128">
        <ele>365.10000000000002</ele>
        <time>2018-05-20T07:24:52Z</time>
      </trkpt>
      <trkpt lat="42.926587974652648" lon="-8.16614200361073">
        <ele>365.5</ele>
        <time>2018-05-20T07:24:54Z</time>
      </trkpt>
      <trkpt lat="42.926537012681365" lon="-8.166017029434443">
        <ele>366.19999999999999</ele>
        <time>2018-05-20T07:24:57Z</time>
      </trkpt>
      <trkpt lat="42.92648496106267" lon="-8.165930025279522">
        <ele>366.60000000000002</ele>
        <time>2018-05-20T07:24:59Z</time>
      </trkpt>
      <trkpt lat="42.926450008526444" lon="-8.165849978104234">
        <ele>367</ele>
        <time>2018-05-20T07:25:01Z</time>
      </trkpt>
      <trkpt lat="42.926450008526444" lon="-8.165843021124601">
        <ele>367</ele>
        <time>2018-05-20T07:25:02Z</time>
      </trkpt>
      <trkpt lat="42.92644003406167" lon="-8.16582097671926">
        <ele>367.10000000000002</ele>
        <time>2018-05-20T07:25:02Z</time>
      </trkpt>
      <trkpt lat="42.926431987434626" lon="-8.165801027789712">
        <ele>367.19999999999999</ele>
        <time>2018-05-20T07:25:03Z</time>
      </trkpt>
      <trkpt lat="42.926424024626613" lon="-8.165782000869513">
        <ele>367.30000000000001</ele>
        <time>2018-05-20T07:25:03Z</time>
      </trkpt>
      <trkpt lat="42.926412038505077" lon="-8.165757022798061">
        <ele>367.5</ele>
        <time>2018-05-20T07:25:04Z</time>
      </trkpt>
      <trkpt lat="42.92639602907002" lon="-8.165717963129282">
        <ele>367.69999999999999</ele>
        <time>2018-05-20T07:25:05Z</time>
      </trkpt>
      <trkpt lat="42.926390999928117" lon="-8.16568803973496">
        <ele>367.80000000000001</ele>
        <time>2018-05-20T07:25:05Z</time>
      </trkpt>
      <trkpt lat="42.926379013806581" lon="-8.165654009208083">
        <ele>368</ele>
        <time>2018-05-20T07:25:06Z</time>
      </trkpt>
      <trkpt lat="42.926372978836298" lon="-8.165630958974361">
        <ele>368.10000000000002</ele>
        <time>2018-05-20T07:25:07Z</time>
      </trkpt>
      <trkpt lat="42.926369039341807" lon="-8.165608998388052">
        <ele>368.19999999999999</ele>
        <time>2018-05-20T07:25:07Z</time>
      </trkpt>
      <trkpt lat="42.926360992714763" lon="-8.165585026144981">
        <ele>368.39999999999998</ele>
        <time>2018-05-20T07:25:08Z</time>
      </trkpt>
      <trkpt lat="42.926346994936466" lon="-8.165538003668189">
        <ele>368.60000000000002</ele>
        <time>2018-05-20T07:25:09Z</time>
      </trkpt>
      <trkpt lat="42.926342971622944" lon="-8.165515959262848">
        <ele>368.69999999999999</ele>
        <time>2018-05-20T07:25:09Z</time>
      </trkpt>
      <trkpt lat="42.926337020471692" lon="-8.165492992848158">
        <ele>368.80000000000001</ele>
        <time>2018-05-20T07:25:10Z</time>
      </trkpt>
      <trkpt lat="42.92633299715817" lon="-8.165466003119946">
        <ele>369</ele>
        <time>2018-05-20T07:25:10Z</time>
      </trkpt>
      <trkpt lat="42.926330985501409" lon="-8.165443958714604">
        <ele>369.10000000000002</ele>
        <time>2018-05-20T07:25:11Z</time>
      </trkpt>
      <trkpt lat="42.926325034350157" lon="-8.165419986471534">
        <ele>369.19999999999999</ele>
        <time>2018-05-20T07:25:11Z</time>
      </trkpt>
      <trkpt lat="42.926316987723112" lon="-8.165395008400083">
        <ele>369.5</ele>
        <time>2018-05-20T07:25:12Z</time>
      </trkpt>
      <trkpt lat="42.926316987723112" lon="-8.165372963994741">
        <ele>369.69999999999999</ele>
        <time>2018-05-20T07:25:13Z</time>
      </trkpt>
      <trkpt lat="42.926316987723112" lon="-8.16534798592329">
        <ele>370</ele>
        <time>2018-05-20T07:25:13Z</time>
      </trkpt>
      <trkpt lat="42.926316987723112" lon="-8.165326025336981">
        <ele>370.19999999999999</ele>
        <time>2018-05-20T07:25:14Z</time>
      </trkpt>
      <trkpt lat="42.926316987723112" lon="-8.165297023952007">
        <ele>370.5</ele>
        <time>2018-05-20T07:25:14Z</time>
      </trkpt>
      <trkpt lat="42.926316987723112" lon="-8.165269028395414">
        <ele>370.80000000000001</ele>
        <time>2018-05-20T07:25:15Z</time>
      </trkpt>
      <trkpt lat="42.926316987723112" lon="-8.165240027010441">
        <ele>371.10000000000002</ele>
        <time>2018-05-20T07:25:15Z</time>
      </trkpt>
      <trkpt lat="42.926316987723112" lon="-8.165208008140326">
        <ele>371.39999999999998</ele>
        <time>2018-05-20T07:25:16Z</time>
      </trkpt>
      <trkpt lat="42.926316987723112" lon="-8.165181018412113">
        <ele>371.69999999999999</ele>
        <time>2018-05-20T07:25:17Z</time>
      </trkpt>
      <trkpt lat="42.926316987723112" lon="-8.165145982056856">
        <ele>372.10000000000002</ele>
        <time>2018-05-20T07:25:18Z</time>
      </trkpt>
      <trkpt lat="42.926316987723112" lon="-8.165113963186741">
        <ele>372.39999999999998</ele>
        <time>2018-05-20T07:25:18Z</time>
      </trkpt>
      <trkpt lat="42.926316987723112" lon="-8.165086973458529">
        <ele>372.69999999999999</ele>
        <time>2018-05-20T07:25:19Z</time>
      </trkpt>
      <trkpt lat="42.926316987723112" lon="-8.165057972073555">
        <ele>373</ele>
        <time>2018-05-20T07:25:19Z</time>
      </trkpt>
      <trkpt lat="42.926316987723112" lon="-8.165026037022471">
        <ele>373.30000000000001</ele>
        <time>2018-05-20T07:25:20Z</time>
      </trkpt>
      <trkpt lat="42.926316987723112" lon="-8.164996029809117">
        <ele>373.69999999999999</ele>
        <time>2018-05-20T07:25:21Z</time>
      </trkpt>
      <trkpt lat="42.926316987723112" lon="-8.164969040080905">
        <ele>373.89999999999998</ele>
        <time>2018-05-20T07:25:21Z</time>
      </trkpt>
      <trkpt lat="42.926316987723112" lon="-8.164946995675564">
        <ele>374.19999999999999</ele>
        <time>2018-05-20T07:25:22Z</time>
      </trkpt>
      <trkpt lat="42.926316987723112" lon="-8.164901984855533">
        <ele>374.60000000000002</ele>
        <time>2018-05-20T07:25:23Z</time>
      </trkpt>
      <trkpt lat="42.926314976066351" lon="-8.16487499512732">
        <ele>374.89999999999998</ele>
        <time>2018-05-20T07:25:23Z</time>
      </trkpt>
      <trkpt lat="42.92631103657186" lon="-8.164838030934334">
        <ele>375.30000000000001</ele>
        <time>2018-05-20T07:25:24Z</time>
      </trkpt>
      <trkpt lat="42.926305001601577" lon="-8.164811041206121">
        <ele>375.60000000000002</ele>
        <time>2018-05-20T07:25:25Z</time>
      </trkpt>
      <trkpt lat="42.926300978288054" lon="-8.164785979315639">
        <ele>375.89999999999998</ele>
        <time>2018-05-20T07:25:25Z</time>
      </trkpt>
      <trkpt lat="42.926298966631293" lon="-8.164762007072568">
        <ele>376.10000000000002</ele>
        <time>2018-05-20T07:25:26Z</time>
      </trkpt>
      <trkpt lat="42.926293015480042" lon="-8.164731999859214">
        <ele>376.39999999999998</ele>
        <time>2018-05-20T07:25:27Z</time>
      </trkpt>
      <trkpt lat="42.926288992166519" lon="-8.164710039272904">
        <ele>376.69999999999999</ele>
        <time>2018-05-20T07:25:27Z</time>
      </trkpt>
      <trkpt lat="42.926278011873364" lon="-8.164690006524324">
        <ele>376.89999999999998</ele>
        <time>2018-05-20T07:25:28Z</time>
      </trkpt>
      <trkpt lat="42.92626703158021" lon="-8.164669973775744">
        <ele>377.10000000000002</ele>
        <time>2018-05-20T07:25:28Z</time>
      </trkpt>
      <trkpt lat="42.926256973296404" lon="-8.164651030674577">
        <ele>377.30000000000001</ele>
        <time>2018-05-20T07:25:29Z</time>
      </trkpt>
      <trkpt lat="42.926250016316772" lon="-8.164628986269236">
        <ele>377.5</ele>
        <time>2018-05-20T07:25:29Z</time>
      </trkpt>
      <trkpt lat="42.926241969689727" lon="-8.164609037339687">
        <ele>377.69999999999999</ele>
        <time>2018-05-20T07:25:30Z</time>
      </trkpt>
      <trkpt lat="42.926234006881714" lon="-8.164589004591107">
        <ele>377.89999999999998</ele>
        <time>2018-05-20T07:25:30Z</time>
      </trkpt>
      <trkpt lat="42.92622797191143" lon="-8.164566960185766">
        <ele>378.10000000000002</ele>
        <time>2018-05-20T07:25:31Z</time>
      </trkpt>
      <trkpt lat="42.926225960254669" lon="-8.164539970457554">
        <ele>378.30000000000001</ele>
        <time>2018-05-20T07:25:31Z</time>
      </trkpt>
      <trkpt lat="42.92622403241694" lon="-8.164514992386103">
        <ele>378.39999999999998</ele>
        <time>2018-05-20T07:25:32Z</time>
      </trkpt>
      <trkpt lat="42.92622403241694" lon="-8.16448800265789">
        <ele>378.60000000000002</ele>
        <time>2018-05-20T07:25:32Z</time>
      </trkpt>
      <trkpt lat="42.926222020760179" lon="-8.164465958252549">
        <ele>378.69999999999999</ele>
        <time>2018-05-20T07:25:33Z</time>
      </trkpt>
      <trkpt lat="42.926220009103417" lon="-8.164438968524337">
        <ele>378.89999999999998</ele>
        <time>2018-05-20T07:25:34Z</time>
      </trkpt>
      <trkpt lat="42.926220009103417" lon="-8.164413990452886">
        <ele>379</ele>
        <time>2018-05-20T07:25:34Z</time>
      </trkpt>
      <trkpt lat="42.926220009103417" lon="-8.164361016824842">
        <ele>379.30000000000001</ele>
        <time>2018-05-20T07:25:35Z</time>
      </trkpt>
      <trkpt lat="42.926217997446656" lon="-8.164299996569753">
        <ele>379.69999999999999</ele>
        <time>2018-05-20T07:25:37Z</time>
      </trkpt>
      <trkpt lat="42.926222020760179" lon="-8.164220033213496">
        <ele>380.10000000000002</ele>
        <time>2018-05-20T07:25:38Z</time>
      </trkpt>
      <trkpt lat="42.926222020760179" lon="-8.164192037656903">
        <ele>380.30000000000001</ele>
        <time>2018-05-20T07:25:39Z</time>
      </trkpt>
      <trkpt lat="42.926222020760179" lon="-8.16410101018846">
        <ele>380.89999999999998</ele>
        <time>2018-05-20T07:25:41Z</time>
      </trkpt>
      <trkpt lat="42.926222020760179" lon="-8.164093969389796">
        <ele>380.89999999999998</ele>
        <time>2018-05-20T07:25:41Z</time>
      </trkpt>
      <trkpt lat="42.926220009103417" lon="-8.164010988548398">
        <ele>381.39999999999998</ele>
        <time>2018-05-20T07:25:43Z</time>
      </trkpt>
      <trkpt lat="42.926217997446656" lon="-8.163861958310008">
        <ele>382.30000000000001</ele>
        <time>2018-05-20T07:25:46Z</time>
      </trkpt>
      <trkpt lat="42.926217997446656" lon="-8.163847038522363">
        <ele>382.30000000000001</ele>
        <time>2018-05-20T07:25:46Z</time>
      </trkpt>
      <trkpt lat="42.926217997446656" lon="-8.16382298246026">
        <ele>382.5</ele>
        <time>2018-05-20T07:25:47Z</time>
      </trkpt>
      <trkpt lat="42.926215985789895" lon="-8.163801021873951">
        <ele>382.60000000000002</ele>
        <time>2018-05-20T07:25:47Z</time>
      </trkpt>
      <trkpt lat="42.926215985789895" lon="-8.163777971640229">
        <ele>382.80000000000001</ele>
        <time>2018-05-20T07:25:48Z</time>
      </trkpt>
      <trkpt lat="42.926215985789895" lon="-8.163753999397159">
        <ele>382.89999999999998</ele>
        <time>2018-05-20T07:25:48Z</time>
      </trkpt>
      <trkpt lat="42.926215985789895" lon="-8.163721980527043">
        <ele>383</ele>
        <time>2018-05-20T07:25:49Z</time>
      </trkpt>
      <trkpt lat="42.926211962476373" lon="-8.163687027990818">
        <ele>383.10000000000002</ele>
        <time>2018-05-20T07:25:50Z</time>
      </trkpt>
      <trkpt lat="42.926211962476373" lon="-8.163664983585477">
        <ele>383.10000000000002</ele>
        <time>2018-05-20T07:25:50Z</time>
      </trkpt>
      <trkpt lat="42.926211962476373" lon="-8.16362801939249">
        <ele>383.19999999999999</ele>
        <time>2018-05-20T07:25:51Z</time>
      </trkpt>
      <trkpt lat="42.926211962476373" lon="-8.163599018007517">
        <ele>383.30000000000001</ele>
        <time>2018-05-20T07:25:52Z</time>
      </trkpt>
      <trkpt lat="42.926211962476373" lon="-8.163569010794163">
        <ele>383.30000000000001</ele>
        <time>2018-05-20T07:25:52Z</time>
      </trkpt>
      <trkpt lat="42.926211962476373" lon="-8.163545038551092">
        <ele>383.39999999999998</ele>
        <time>2018-05-20T07:25:53Z</time>
      </trkpt>
      <trkpt lat="42.926211962476373" lon="-8.163519976660609">
        <ele>383.39999999999998</ele>
        <time>2018-05-20T07:25:54Z</time>
      </trkpt>
      <trkpt lat="42.926211962476373" lon="-8.163489969447255">
        <ele>383.5</ele>
        <time>2018-05-20T07:25:54Z</time>
      </trkpt>
      <trkpt lat="42.926211962476373" lon="-8.163465997204185">
        <ele>383.60000000000002</ele>
        <time>2018-05-20T07:25:55Z</time>
      </trkpt>
      <trkpt lat="42.926211962476373" lon="-8.163441019132733">
        <ele>383.60000000000002</ele>
        <time>2018-05-20T07:25:55Z</time>
      </trkpt>
      <trkpt lat="42.926211962476373" lon="-8.163401959463954">
        <ele>383.69999999999999</ele>
        <time>2018-05-20T07:25:56Z</time>
      </trkpt>
      <trkpt lat="42.926213974133134" lon="-8.163379998877645">
        <ele>383.80000000000001</ele>
        <time>2018-05-20T07:25:57Z</time>
      </trkpt>
      <trkpt lat="42.926213974133134" lon="-8.16334999166429">
        <ele>383.89999999999998</ele>
        <time>2018-05-20T07:25:57Z</time>
      </trkpt>
      <trkpt lat="42.926213974133134" lon="-8.16332601942122">
        <ele>383.89999999999998</ele>
        <time>2018-05-20T07:25:58Z</time>
      </trkpt>
      <trkpt lat="42.926215985789895" lon="-8.163288971409202">
        <ele>384</ele>
        <time>2018-05-20T07:25:59Z</time>
      </trkpt>
      <trkpt lat="42.926215985789895" lon="-8.163248989731073">
        <ele>384.10000000000002</ele>
        <time>2018-05-20T07:25:59Z</time>
      </trkpt>
      <trkpt lat="42.926220009103417" lon="-8.163225017488003">
        <ele>384.19999999999999</ele>
        <time>2018-05-20T07:26:00Z</time>
      </trkpt>
      <trkpt lat="42.92622403241694" lon="-8.163195010274649">
        <ele>384.19999999999999</ele>
        <time>2018-05-20T07:26:01Z</time>
      </trkpt>
      <trkpt lat="42.92622797191143" lon="-8.163166008889675">
        <ele>384.30000000000001</ele>
        <time>2018-05-20T07:26:01Z</time>
      </trkpt>
      <trkpt lat="42.926231995224953" lon="-8.163141030818224">
        <ele>384.39999999999998</ele>
        <time>2018-05-20T07:26:02Z</time>
      </trkpt>
      <trkpt lat="42.926240041851997" lon="-8.163099037483335">
        <ele>384.5</ele>
        <time>2018-05-20T07:26:03Z</time>
      </trkpt>
      <trkpt lat="42.926245993003249" lon="-8.163067018613219">
        <ele>384.60000000000002</ele>
        <time>2018-05-20T07:26:03Z</time>
      </trkpt>
      <trkpt lat="42.92624800466001" lon="-8.163040028885007">
        <ele>384.69999999999999</ele>
        <time>2018-05-20T07:26:04Z</time>
      </trkpt>
      <trkpt lat="42.926254039630294" lon="-8.163017984479666">
        <ele>384.80000000000001</ele>
        <time>2018-05-20T07:26:05Z</time>
      </trkpt>
      <trkpt lat="42.926259990781546" lon="-8.162990994751453">
        <ele>384.89999999999998</ele>
        <time>2018-05-20T07:26:05Z</time>
      </trkpt>
      <trkpt lat="42.92626803740859" lon="-8.162969034165144">
        <ele>384.89999999999998</ele>
        <time>2018-05-20T07:26:06Z</time>
      </trkpt>
      <trkpt lat="42.926273988559842" lon="-8.162937015295029">
        <ele>385</ele>
        <time>2018-05-20T07:26:06Z</time>
      </trkpt>
      <trkpt lat="42.926282035186887" lon="-8.162904996424913">
        <ele>385.10000000000002</ele>
        <time>2018-05-20T07:26:07Z</time>
      </trkpt>
      <trkpt lat="42.926285974681377" lon="-8.162880018353462">
        <ele>385</ele>
        <time>2018-05-20T07:26:08Z</time>
      </trkpt>
      <trkpt lat="42.9262899979949" lon="-8.16285302862525">
        <ele>385</ele>
        <time>2018-05-20T07:26:08Z</time>
      </trkpt>
      <trkpt lat="42.926294021308422" lon="-8.162823021411896">
        <ele>385</ele>
        <time>2018-05-20T07:26:09Z</time>
      </trkpt>
      <trkpt lat="42.926296032965183" lon="-8.162799971178174">
        <ele>384.89999999999998</ele>
        <time>2018-05-20T07:26:09Z</time>
      </trkpt>
      <trkpt lat="42.926299972459674" lon="-8.16276996396482">
        <ele>384.89999999999998</ele>
        <time>2018-05-20T07:26:10Z</time>
      </trkpt>
      <trkpt lat="42.926299972459674" lon="-8.162740040570498">
        <ele>384.80000000000001</ele>
        <time>2018-05-20T07:26:11Z</time>
      </trkpt>
      <trkpt lat="42.926296032965183" lon="-8.162708021700382">
        <ele>384.69999999999999</ele>
        <time>2018-05-20T07:26:11Z</time>
      </trkpt>
      <trkpt lat="42.926294021308422" lon="-8.162668962031603">
        <ele>384.60000000000002</ele>
        <time>2018-05-20T07:26:12Z</time>
      </trkpt>
      <trkpt lat="42.926287986338139" lon="-8.162639038637281">
        <ele>384.5</ele>
        <time>2018-05-20T07:26:13Z</time>
      </trkpt>
      <trkpt lat="42.926276000216603" lon="-8.162619005888701">
        <ele>384.39999999999998</ele>
        <time>2018-05-20T07:26:14Z</time>
      </trkpt>
      <trkpt lat="42.926268959417939" lon="-8.162598973140121">
        <ele>384.30000000000001</ele>
        <time>2018-05-20T07:26:14Z</time>
      </trkpt>
      <trkpt lat="42.926256973296404" lon="-8.162582963705063">
        <ele>384.19999999999999</ele>
        <time>2018-05-20T07:26:15Z</time>
      </trkpt>
      <trkpt lat="42.926249010488391" lon="-8.16255496814847">
        <ele>384.10000000000002</ele>
        <time>2018-05-20T07:26:15Z</time>
      </trkpt>
      <trkpt lat="42.926309024915099" lon="-8.162525966763496">
        <ele>384.39999999999998</ele>
        <time>2018-05-20T07:26:17Z</time>
      </trkpt>
      <trkpt lat="42.926395023241639" lon="-8.162259003147483">
        <ele>384.5</ele>
        <time>2018-05-20T07:26:23Z</time>
      </trkpt>
      <trkpt lat="42.926454031839967" lon="-8.162046018987894">
        <ele>384.5</ele>
        <time>2018-05-20T07:26:28Z</time>
      </trkpt>
      <trkpt lat="42.926498036831617" lon="-8.161860024556518">
        <ele>384</ele>
        <time>2018-05-20T07:26:33Z</time>
      </trkpt>
      <trkpt lat="42.926598032936454" lon="-8.161630025133491">
        <ele>383.89999999999998</ele>
        <time>2018-05-20T07:26:38Z</time>
      </trkpt>
      <trkpt lat="42.92665502987802" lon="-8.161417040973902">
        <ele>383.60000000000002</ele>
        <time>2018-05-20T07:26:43Z</time>
      </trkpt>
      <trkpt lat="42.926752008497715" lon="-8.161231968551874">
        <ele>384</ele>
        <time>2018-05-20T07:26:48Z</time>
      </trkpt>
      <trkpt lat="42.926831971853971" lon="-8.161062989383936">
        <ele>384.5</ele>
        <time>2018-05-20T07:26:53Z</time>
      </trkpt>
      <trkpt lat="42.926964992657304" lon="-8.16085402853787">
        <ele>385.60000000000002</ele>
        <time>2018-05-20T07:26:59Z</time>
      </trkpt>
      <trkpt lat="42.927102036774158" lon="-8.160557979717851">
        <ele>386.5</ele>
        <time>2018-05-20T07:27:06Z</time>
      </trkpt>
      <trkpt lat="42.927202032878995" lon="-8.16029797308147">
        <ele>386.30000000000001</ele>
        <time>2018-05-20T07:27:13Z</time>
      </trkpt>
      <trkpt lat="42.927326001226902" lon="-8.1603810377419">
        <ele>387.60000000000002</ele>
        <time>2018-05-20T07:27:17Z</time>
      </trkpt>
      <trkpt lat="42.927405964583158" lon="-8.160117007791996">
        <ele>387.30000000000001</ele>
        <time>2018-05-20T07:27:23Z</time>
      </trkpt>
      <trkpt lat="42.927517024800181" lon="-8.159777959808707">
        <ele>387.30000000000001</ele>
        <time>2018-05-20T07:27:31Z</time>
      </trkpt>
      <trkpt lat="42.927661025896668" lon="-8.159302035346627">
        <ele>387.89999999999998</ele>
        <time>2018-05-20T07:27:42Z</time>
      </trkpt>
      <trkpt lat="42.92766697704792" lon="-8.15928602591157">
        <ele>388</ele>
        <time>2018-05-20T07:27:42Z</time>
      </trkpt>
      <trkpt lat="42.927850959822536" lon="-8.158871037885547">
        <ele>390.10000000000002</ele>
        <time>2018-05-20T07:27:53Z</time>
      </trkpt>
      <trkpt lat="42.92798800393939" lon="-8.158424030989409">
        <ele>390.89999999999998</ele>
        <time>2018-05-20T07:28:03Z</time>
      </trkpt>
      <trkpt lat="42.928142985329032" lon="-8.157951040193439">
        <ele>391.30000000000001</ele>
        <time>2018-05-20T07:28:15Z</time>
      </trkpt>
      <trkpt lat="42.928280029445887" lon="-8.157645016908646">
        <ele>391.30000000000001</ele>
        <time>2018-05-20T07:28:22Z</time>
      </trkpt>
      <trkpt lat="42.928434005007148" lon="-8.157251989468932">
        <ele>391.30000000000001</ele>
        <time>2018-05-20T07:28:32Z</time>
      </trkpt>
      <trkpt lat="42.928440039977431" lon="-8.157251989468932">
        <ele>391.30000000000001</ele>
        <time>2018-05-20T07:28:32Z</time>
      </trkpt>
      <trkpt lat="42.92858898639679" lon="-8.156859967857599">
        <ele>391.80000000000001</ele>
        <time>2018-05-20T07:28:42Z</time>
      </trkpt>
      <trkpt lat="42.92858898639679" lon="-8.156852005049586">
        <ele>391.80000000000001</ele>
        <time>2018-05-20T07:28:42Z</time>
      </trkpt>
      <trkpt lat="42.92878101579845" lon="-8.156308019533753">
        <ele>392.30000000000001</ele>
        <time>2018-05-20T07:28:55Z</time>
      </trkpt>
      <trkpt lat="42.928967010229826" lon="-8.155752969905734">
        <ele>393.89999999999998</ele>
        <time>2018-05-20T07:29:08Z</time>
      </trkpt>
      <trkpt lat="42.929140012711287" lon="-8.155336976051331">
        <ele>395</ele>
        <time>2018-05-20T07:29:19Z</time>
      </trkpt>
      <trkpt lat="42.929156022146344" lon="-8.155331024900079">
        <ele>395.10000000000002</ele>
        <time>2018-05-20T07:29:19Z</time>
      </trkpt>
      <trkpt lat="42.929174965247512" lon="-8.155285008251667">
        <ele>395.10000000000002</ele>
        <time>2018-05-20T07:29:20Z</time>
      </trkpt>
      <trkpt lat="42.929198015481234" lon="-8.155245026573539">
        <ele>395.10000000000002</ele>
        <time>2018-05-20T07:29:21Z</time>
      </trkpt>
      <trkpt lat="42.929220981895924" lon="-8.155204961076379">
        <ele>395.10000000000002</ele>
        <time>2018-05-20T07:29:23Z</time>
      </trkpt>
      <trkpt lat="42.929245037958026" lon="-8.155159028246999">
        <ele>395.10000000000002</ele>
        <time>2018-05-20T07:29:24Z</time>
      </trkpt>
      <trkpt lat="42.929254006594419" lon="-8.155113011598587">
        <ele>395</ele>
        <time>2018-05-20T07:29:25Z</time>
      </trkpt>
      <trkpt lat="42.929276973009109" lon="-8.15505500882864">
        <ele>395</ele>
        <time>2018-05-20T07:29:26Z</time>
      </trkpt>
      <trkpt lat="42.929295999929309" lon="-8.154974961653352">
        <ele>394.89999999999998</ele>
        <time>2018-05-20T07:29:28Z</time>
      </trkpt>
      <trkpt lat="42.929314021021128" lon="-8.154916958883405">
        <ele>394.80000000000001</ele>
        <time>2018-05-20T07:29:29Z</time>
      </trkpt>
      <trkpt lat="42.929332964122295" lon="-8.154871026054025">
        <ele>394.80000000000001</ele>
        <time>2018-05-20T07:29:31Z</time>
      </trkpt>
      <trkpt lat="42.929346961900592" lon="-8.15481998026371">
        <ele>394.69999999999999</ele>
        <time>2018-05-20T07:29:32Z</time>
      </trkpt>
      <trkpt lat="42.929360959678888" lon="-8.154778992757201">
        <ele>394.69999999999999</ele>
        <time>2018-05-20T07:29:33Z</time>
      </trkpt>
      <trkpt lat="42.929379986599088" lon="-8.154732976108789">
        <ele>394.69999999999999</ele>
        <time>2018-05-20T07:29:34Z</time>
      </trkpt>
      <trkpt lat="42.929403036832809" lon="-8.154682014137507">
        <ele>394.80000000000001</ele>
        <time>2018-05-20T07:29:35Z</time>
      </trkpt>
      <trkpt lat="42.929426003247499" lon="-8.154635997489095">
        <ele>394.80000000000001</ele>
        <time>2018-05-20T07:29:36Z</time>
      </trkpt>
      <trkpt lat="42.929445030167699" lon="-8.154584029689431">
        <ele>394.80000000000001</ele>
        <time>2018-05-20T07:29:38Z</time>
      </trkpt>
      <trkpt lat="42.929463973268867" lon="-8.154531978070736">
        <ele>394.60000000000002</ele>
        <time>2018-05-20T07:29:39Z</time>
      </trkpt>
      <trkpt lat="42.929481994360685" lon="-8.154485961422324">
        <ele>394.5</ele>
        <time>2018-05-20T07:29:40Z</time>
      </trkpt>
      <trkpt lat="42.929505966603756" lon="-8.154440028592944">
        <ele>394.39999999999998</ele>
        <time>2018-05-20T07:29:41Z</time>
      </trkpt>
      <trkpt lat="42.929523987695575" lon="-8.154394011944532">
        <ele>394.19999999999999</ele>
        <time>2018-05-20T07:29:42Z</time>
      </trkpt>
      <trkpt lat="42.929547959938645" lon="-8.154337015002966">
        <ele>394</ele>
        <time>2018-05-20T07:29:44Z</time>
      </trkpt>
      <trkpt lat="42.929562041535974" lon="-8.154273983091116">
        <ele>393.60000000000002</ele>
        <time>2018-05-20T07:29:45Z</time>
      </trkpt>
      <trkpt lat="42.929565981030464" lon="-8.154215980321169">
        <ele>393.19999999999999</ele>
        <time>2018-05-20T07:29:47Z</time>
      </trkpt>
      <trkpt lat="42.929579978808761" lon="-8.154158983379602">
        <ele>392.89999999999998</ele>
        <time>2018-05-20T07:29:48Z</time>
      </trkpt>
      <trkpt lat="42.92959900572896" lon="-8.154112966731191">
        <ele>392.69999999999999</ele>
        <time>2018-05-20T07:29:49Z</time>
      </trkpt>
      <trkpt lat="42.929613003507257" lon="-8.154060998931527">
        <ele>392.39999999999998</ele>
        <time>2018-05-20T07:29:50Z</time>
      </trkpt>
      <trkpt lat="42.929627001285553" lon="-8.154014982283115">
        <ele>392.19999999999999</ele>
        <time>2018-05-20T07:29:51Z</time>
      </trkpt>
      <trkpt lat="42.929649967700243" lon="-8.153968965634704">
        <ele>392</ele>
        <time>2018-05-20T07:29:52Z</time>
      </trkpt>
      <trkpt lat="42.929663965478539" lon="-8.153924038633704">
        <ele>391.80000000000001</ele>
        <time>2018-05-20T07:29:54Z</time>
      </trkpt>
      <trkpt lat="42.929674023762345" lon="-8.153871987015009">
        <ele>391.5</ele>
        <time>2018-05-20T07:29:55Z</time>
      </trkpt>
      <trkpt lat="42.929691961035132" lon="-8.153820019215345">
        <ele>391.30000000000001</ele>
        <time>2018-05-20T07:29:56Z</time>
      </trkpt>
      <trkpt lat="42.929710987955332" lon="-8.153763022273779">
        <ele>391</ele>
        <time>2018-05-20T07:29:57Z</time>
      </trkpt>
      <trkpt lat="42.929734038189054" lon="-8.153710970655084">
        <ele>390.89999999999998</ele>
        <time>2018-05-20T07:29:59Z</time>
      </trkpt>
      <trkpt lat="42.929757004603744" lon="-8.153641987591982">
        <ele>390.69999999999999</ele>
        <time>2018-05-20T07:30:00Z</time>
      </trkpt>
      <trkpt lat="42.929780976846814" lon="-8.153590019792318">
        <ele>390.60000000000002</ele>
        <time>2018-05-20T07:30:02Z</time>
      </trkpt>
      <trkpt lat="42.929794974625111" lon="-8.153538974002004">
        <ele>390.39999999999998</ele>
        <time>2018-05-20T07:30:03Z</time>
      </trkpt>
      <trkpt lat="42.929808972403407" lon="-8.15348700620234">
        <ele>390.19999999999999</ele>
        <time>2018-05-20T07:30:04Z</time>
      </trkpt>
      <trkpt lat="42.929812995716929" lon="-8.153430009260774">
        <ele>389.89999999999998</ele>
        <time>2018-05-20T07:30:05Z</time>
      </trkpt>
      <trkpt lat="42.929832022637129" lon="-8.153365971520543">
        <ele>389.80000000000001</ele>
        <time>2018-05-20T07:30:07Z</time>
      </trkpt>
      <trkpt lat="42.92983696796" lon="-8.15331500954926">
        <ele>389.5</ele>
        <time>2018-05-20T07:30:08Z</time>
      </trkpt>
      <trkpt lat="42.929860018193722" lon="-8.153246026486158">
        <ele>389.39999999999998</ele>
        <time>2018-05-20T07:30:09Z</time>
      </trkpt>
      <trkpt lat="42.929874015972018" lon="-8.153182994574308">
        <ele>389.19999999999999</ele>
        <time>2018-05-20T07:30:11Z</time>
      </trkpt>
      <trkpt lat="42.929892959073186" lon="-8.153136977925897">
        <ele>389.10000000000002</ele>
        <time>2018-05-20T07:30:12Z</time>
      </trkpt>
      <trkpt lat="42.929907040670514" lon="-8.153085010126233">
        <ele>389</ele>
        <time>2018-05-20T07:30:13Z</time>
      </trkpt>
      <trkpt lat="42.929924977943301" lon="-8.153028013184667">
        <ele>388.80000000000001</ele>
        <time>2018-05-20T07:30:15Z</time>
      </trkpt>
      <trkpt lat="42.929935036227107" lon="-8.152963975444436">
        <ele>388.60000000000002</ele>
        <time>2018-05-20T07:30:16Z</time>
      </trkpt>
      <trkpt lat="42.929949034005404" lon="-8.152923993766308">
        <ele>388.5</ele>
        <time>2018-05-20T07:30:17Z</time>
      </trkpt>
      <trkpt lat="42.929958002641797" lon="-8.152866996824741">
        <ele>388.39999999999998</ele>
        <time>2018-05-20T07:30:18Z</time>
      </trkpt>
      <trkpt lat="42.929977029561996" lon="-8.152815029025078">
        <ele>388.39999999999998</ele>
        <time>2018-05-20T07:30:19Z</time>
      </trkpt>
      <trkpt lat="42.929991027340293" lon="-8.152758032083511">
        <ele>388.30000000000001</ele>
        <time>2018-05-20T07:30:21Z</time>
      </trkpt>
      <trkpt lat="42.929999995976686" lon="-8.1527120154351">
        <ele>388.30000000000001</ele>
        <time>2018-05-20T07:30:22Z</time>
      </trkpt>
      <trkpt lat="42.93000896461308" lon="-8.152665998786688">
        <ele>388.19999999999999</ele>
        <time>2018-05-20T07:30:23Z</time>
      </trkpt>
      <trkpt lat="42.930013993754983" lon="-8.152602966874838">
        <ele>388</ele>
        <time>2018-05-20T07:30:24Z</time>
      </trkpt>
      <trkpt lat="42.930019022896886" lon="-8.152550999075174">
        <ele>387.89999999999998</ele>
        <time>2018-05-20T07:30:25Z</time>
      </trkpt>
      <trkpt lat="42.930022962391376" lon="-8.152487967163324">
        <ele>387.69999999999999</ele>
        <time>2018-05-20T07:30:27Z</time>
      </trkpt>
      <trkpt lat="42.930027991533279" lon="-8.152372967451811">
        <ele>387.30000000000001</ele>
        <time>2018-05-20T07:30:29Z</time>
      </trkpt>
      <trkpt lat="42.930033020675182" lon="-8.152286969125271">
        <ele>387.10000000000002</ele>
        <time>2018-05-20T07:30:31Z</time>
      </trkpt>
      <trkpt lat="42.930047018453479" lon="-8.152227038517594">
        <ele>387</ele>
        <time>2018-05-20T07:30:32Z</time>
      </trkpt>
      <trkpt lat="42.930047018453479" lon="-8.152157971635461">
        <ele>386.69999999999999</ele>
        <time>2018-05-20T07:30:34Z</time>
      </trkpt>
      <trkpt lat="42.930055987089872" lon="-8.152014976367354">
        <ele>386.10000000000002</ele>
        <time>2018-05-20T07:30:37Z</time>
      </trkpt>
      <trkpt lat="42.930069984868169" lon="-8.151923026889563">
        <ele>385.69999999999999</ele>
        <time>2018-05-20T07:30:39Z</time>
      </trkpt>
      <trkpt lat="42.930075014010072" lon="-8.151830993592739">
        <ele>385.30000000000001</ele>
        <time>2018-05-20T07:30:41Z</time>
      </trkpt>
      <trkpt lat="42.930075014010072" lon="-8.151772990822792">
        <ele>384.89999999999998</ele>
        <time>2018-05-20T07:30:42Z</time>
      </trkpt>
      <trkpt lat="42.930079037323594" lon="-8.151722028851509">
        <ele>384.69999999999999</ele>
        <time>2018-05-20T07:30:43Z</time>
      </trkpt>
      <trkpt lat="42.930083982646465" lon="-8.151669977232814">
        <ele>384.39999999999998</ele>
        <time>2018-05-20T07:30:45Z</time>
      </trkpt>
      <trkpt lat="42.930083982646465" lon="-8.151612980291247">
        <ele>384.10000000000002</ele>
        <time>2018-05-20T07:30:46Z</time>
      </trkpt>
      <trkpt lat="42.930083982646465" lon="-8.151549026370049">
        <ele>383.69999999999999</ele>
        <time>2018-05-20T07:30:47Z</time>
      </trkpt>
      <trkpt lat="42.930083982646465" lon="-8.151492029428482">
        <ele>383.39999999999998</ele>
        <time>2018-05-20T07:30:48Z</time>
      </trkpt>
      <trkpt lat="42.930083982646465" lon="-8.151435032486916">
        <ele>383.10000000000002</ele>
        <time>2018-05-20T07:30:50Z</time>
      </trkpt>
      <trkpt lat="42.930083982646465" lon="-8.151348028331995">
        <ele>382.60000000000002</ele>
        <time>2018-05-20T07:30:52Z</time>
      </trkpt>
      <trkpt lat="42.930083982646465" lon="-8.151279967278242">
        <ele>382.19999999999999</ele>
        <time>2018-05-20T07:30:53Z</time>
      </trkpt>
      <trkpt lat="42.930090017616749" lon="-8.151186006143689">
        <ele>381.80000000000001</ele>
        <time>2018-05-20T07:30:55Z</time>
      </trkpt>
      <trkpt lat="42.930084988474846" lon="-8.150708992034197">
        <ele>379.89999999999998</ele>
        <time>2018-05-20T07:31:05Z</time>
      </trkpt>
      <trkpt lat="42.930063027888536" lon="-8.150273971259594">
        <ele>378.80000000000001</ele>
        <time>2018-05-20T07:31:15Z</time>
      </trkpt>
      <trkpt lat="42.930044000968337" lon="-8.149773990735412">
        <ele>379.19999999999999</ele>
        <time>2018-05-20T07:31:26Z</time>
      </trkpt>
      <trkpt lat="42.930030003190041" lon="-8.149433014914393">
        <ele>379.89999999999998</ele>
        <time>2018-05-20T07:31:33Z</time>
      </trkpt>
      <trkpt lat="42.930030003190041" lon="-8.149424968287349">
        <ele>379.89999999999998</ele>
        <time>2018-05-20T07:31:33Z</time>
      </trkpt>
      <trkpt lat="42.930025979876518" lon="-8.149034036323428">
        <ele>381.5</ele>
        <time>2018-05-20T07:31:42Z</time>
      </trkpt>
      <trkpt lat="42.930011982098222" lon="-8.148474963381887">
        <ele>383.39999999999998</ele>
        <time>2018-05-20T07:31:54Z</time>
      </trkpt>
      <trkpt lat="42.929988009855151" lon="-8.147952016443014">
        <ele>384.80000000000001</ele>
        <time>2018-05-20T07:32:05Z</time>
      </trkpt>
      <trkpt lat="42.929979041218758" lon="-8.147548008710146">
        <ele>384.5</ele>
        <time>2018-05-20T07:32:14Z</time>
      </trkpt>
      <trkpt lat="42.929979041218758" lon="-8.147096978500485">
        <ele>383.89999999999998</ele>
        <time>2018-05-20T07:32:24Z</time>
      </trkpt>
      <trkpt lat="42.929974012076855" lon="-8.146506976336241">
        <ele>382.80000000000001</ele>
        <time>2018-05-20T07:32:37Z</time>
      </trkpt>
      <trkpt lat="42.929983986541629" lon="-8.14590398222208">
        <ele>380.89999999999998</ele>
        <time>2018-05-20T07:32:50Z</time>
      </trkpt>
      <trkpt lat="42.929983986541629" lon="-8.145227981731296">
        <ele>378.80000000000001</ele>
        <time>2018-05-20T07:33:04Z</time>
      </trkpt>
      <trkpt lat="42.929988009855151" lon="-8.14467997290194">
        <ele>378.89999999999998</ele>
        <time>2018-05-20T07:33:16Z</time>
      </trkpt>
      <trkpt lat="42.929974012076855" lon="-8.143985029309988">
        <ele>379.19999999999999</ele>
        <time>2018-05-20T07:33:31Z</time>
      </trkpt>
      <trkpt lat="42.929955990985036" lon="-8.14345302991569">
        <ele>379.39999999999998</ele>
        <time>2018-05-20T07:33:43Z</time>
      </trkpt>
      <trkpt lat="42.929955990985036" lon="-8.14345302991569">
        <ele>379.39999999999998</ele>
        <time>2018-05-20T07:33:43Z</time>
      </trkpt>
      <trkpt lat="42.929962025955319" lon="-8.142951037734747">
        <ele>379.5</ele>
        <time>2018-05-20T07:33:54Z</time>
      </trkpt>
      <trkpt lat="42.929956996813416" lon="-8.142675021663308">
        <ele>379.39999999999998</ele>
        <time>2018-05-20T07:34:00Z</time>
      </trkpt>
      <trkpt lat="42.929956996813416" lon="-8.142666975036264">
        <ele>379.39999999999998</ele>
        <time>2018-05-20T07:34:00Z</time>
      </trkpt>
      <trkpt lat="42.930022962391376" lon="-8.141729040071368">
        <ele>378.60000000000002</ele>
        <time>2018-05-20T07:34:20Z</time>
      </trkpt>
      <trkpt lat="42.930084988474846" lon="-8.14158302731812">
        <ele>378.10000000000002</ele>
        <time>2018-05-20T07:34:24Z</time>
      </trkpt>
      <trkpt lat="42.930140979588032" lon="-8.141373982653022">
        <ele>377.5</ele>
        <time>2018-05-20T07:34:29Z</time>
      </trkpt>
      <trkpt lat="42.930147014558315" lon="-8.141366019845009">
        <ele>377.39999999999998</ele>
        <time>2018-05-20T07:34:29Z</time>
      </trkpt>
      <trkpt lat="42.930198982357979" lon="-8.141236016526818">
        <ele>376.80000000000001</ele>
        <time>2018-05-20T07:34:32Z</time>
      </trkpt>
      <trkpt lat="42.930263020098209" lon="-8.141055973246694">
        <ele>375.69999999999999</ele>
        <time>2018-05-20T07:34:37Z</time>
      </trkpt>
      <trkpt lat="42.930334014818072" lon="-8.140911972150207">
        <ele>374.80000000000001</ele>
        <time>2018-05-20T07:34:40Z</time>
      </trkpt>
      <trkpt lat="42.930334014818072" lon="-8.140906020998955">
        <ele>374.80000000000001</ele>
        <time>2018-05-20T07:34:41Z</time>
      </trkpt>
      <trkpt lat="42.930356981232762" lon="-8.140866039320827">
        <ele>374.5</ele>
        <time>2018-05-20T07:34:42Z</time>
      </trkpt>
      <trkpt lat="42.930381037294865" lon="-8.140820022672415">
        <ele>374.19999999999999</ele>
        <time>2018-05-20T07:34:43Z</time>
      </trkpt>
      <trkpt lat="42.930404003709555" lon="-8.1407689768821">
        <ele>373.89999999999998</ele>
        <time>2018-05-20T07:34:44Z</time>
      </trkpt>
      <trkpt lat="42.930423030629754" lon="-8.140717009082437">
        <ele>373.69999999999999</ele>
        <time>2018-05-20T07:34:45Z</time>
      </trkpt>
      <trkpt lat="42.930451026186347" lon="-8.140665041282773">
        <ele>373.19999999999999</ele>
        <time>2018-05-20T07:34:47Z</time>
      </trkpt>
      <trkpt lat="42.93047902174294" lon="-8.140624975785613">
        <ele>372.80000000000001</ele>
        <time>2018-05-20T07:34:48Z</time>
      </trkpt>
      <trkpt lat="42.930511040613055" lon="-8.140591029077768">
        <ele>372.39999999999998</ele>
        <time>2018-05-20T07:34:49Z</time>
      </trkpt>
      <trkpt lat="42.930543981492519" lon="-8.140545012429357">
        <ele>371.89999999999998</ele>
        <time>2018-05-20T07:34:51Z</time>
      </trkpt>
      <trkpt lat="42.930571977049112" lon="-8.140516011044383">
        <ele>371.5</ele>
        <time>2018-05-20T07:34:52Z</time>
      </trkpt>
      <trkpt lat="42.930591003969312" lon="-8.140469994395971">
        <ele>371.10000000000002</ele>
        <time>2018-05-20T07:34:53Z</time>
      </trkpt>
      <trkpt lat="42.930599972605705" lon="-8.140418026596308">
        <ele>370.80000000000001</ele>
        <time>2018-05-20T07:34:54Z</time>
      </trkpt>
      <trkpt lat="42.930609025061131" lon="-8.140361029654741">
        <ele>370.60000000000002</ele>
        <time>2018-05-20T07:34:55Z</time>
      </trkpt>
      <trkpt lat="42.930623022839427" lon="-8.140308978036046">
        <ele>370.30000000000001</ele>
        <time>2018-05-20T07:34:56Z</time>
      </trkpt>
      <trkpt lat="42.930632997304201" lon="-8.140257010236383">
        <ele>370</ele>
        <time>2018-05-20T07:34:58Z</time>
      </trkpt>
      <trkpt lat="42.930648000910878" lon="-8.140217028558254">
        <ele>369.80000000000001</ele>
        <time>2018-05-20T07:34:59Z</time>
      </trkpt>
      <trkpt lat="42.930671973153949" lon="-8.140176963061094">
        <ele>369.39999999999998</ele>
        <time>2018-05-20T07:35:00Z</time>
      </trkpt>
      <trkpt lat="42.930698962882161" lon="-8.140124995261431">
        <ele>369</ele>
        <time>2018-05-20T07:35:01Z</time>
      </trkpt>
      <trkpt lat="42.930723018944263" lon="-8.140085013583303">
        <ele>368.69999999999999</ele>
        <time>2018-05-20T07:35:02Z</time>
      </trkpt>
      <trkpt lat="42.930741040036082" lon="-8.140038996934891">
        <ele>368.5</ele>
        <time>2018-05-20T07:35:03Z</time>
      </trkpt>
      <trkpt lat="42.93075998313725" lon="-8.139992980286479">
        <ele>368.19999999999999</ele>
        <time>2018-05-20T07:35:05Z</time>
      </trkpt>
      <trkpt lat="42.930779010057449" lon="-8.139941012486816">
        <ele>367.89999999999998</ele>
        <time>2018-05-20T07:35:06Z</time>
      </trkpt>
      <trkpt lat="42.930787978693843" lon="-8.139889966696501">
        <ele>367.80000000000001</ele>
        <time>2018-05-20T07:35:07Z</time>
      </trkpt>
      <trkpt lat="42.930797031149268" lon="-8.139837998896837">
        <ele>367.60000000000002</ele>
        <time>2018-05-20T07:35:08Z</time>
      </trkpt>
      <trkpt lat="42.930807005614042" lon="-8.139769015833736">
        <ele>367.39999999999998</ele>
        <time>2018-05-20T07:35:10Z</time>
      </trkpt>
      <trkpt lat="42.930811028927565" lon="-8.139700032770634">
        <ele>367.30000000000001</ele>
        <time>2018-05-20T07:35:11Z</time>
      </trkpt>
      <trkpt lat="42.930815974250436" lon="-8.139643035829067">
        <ele>367.19999999999999</ele>
        <time>2018-05-20T07:35:12Z</time>
      </trkpt>
      <trkpt lat="42.930836006999016" lon="-8.13958503305912">
        <ele>367</ele>
        <time>2018-05-20T07:35:14Z</time>
      </trkpt>
      <trkpt lat="42.930836006999016" lon="-8.139532981440425">
        <ele>367</ele>
        <time>2018-05-20T07:35:15Z</time>
      </trkpt>
      <trkpt lat="42.930836006999016" lon="-8.139470033347607">
        <ele>367.10000000000002</ele>
        <time>2018-05-20T07:35:16Z</time>
      </trkpt>
      <trkpt lat="42.93084598146379" lon="-8.139417981728911">
        <ele>367.10000000000002</ele>
        <time>2018-05-20T07:35:17Z</time>
      </trkpt>
      <trkpt lat="42.93084598146379" lon="-8.139367019757628">
        <ele>367.19999999999999</ele>
        <time>2018-05-20T07:35:18Z</time>
      </trkpt>
      <trkpt lat="42.930850004777312" lon="-8.139281021431088">
        <ele>367.19999999999999</ele>
        <time>2018-05-20T07:35:20Z</time>
      </trkpt>
      <trkpt lat="42.930855033919215" lon="-8.139216983690858">
        <ele>367.30000000000001</ele>
        <time>2018-05-20T07:35:22Z</time>
      </trkpt>
      <trkpt lat="42.930855033919215" lon="-8.139149006456137">
        <ele>367.39999999999998</ele>
        <time>2018-05-20T07:35:23Z</time>
      </trkpt>
      <trkpt lat="42.930864002555609" lon="-8.13909100368619">
        <ele>367.39999999999998</ele>
        <time>2018-05-20T07:35:25Z</time>
      </trkpt>
      <trkpt lat="42.930864002555609" lon="-8.139022020623088">
        <ele>367.5</ele>
        <time>2018-05-20T07:35:26Z</time>
      </trkpt>
      <trkpt lat="42.930869031697512" lon="-8.138958988711238">
        <ele>367.5</ele>
        <time>2018-05-20T07:35:27Z</time>
      </trkpt>
      <trkpt lat="42.930878000333905" lon="-8.138879025354981">
        <ele>367.5</ele>
        <time>2018-05-20T07:35:29Z</time>
      </trkpt>
      <trkpt lat="42.930883029475808" lon="-8.138804007321596">
        <ele>367.60000000000002</ele>
        <time>2018-05-20T07:35:31Z</time>
      </trkpt>
      <trkpt lat="42.930887974798679" lon="-8.138740975409746">
        <ele>367.60000000000002</ele>
        <time>2018-05-20T07:35:32Z</time>
      </trkpt>
      <trkpt lat="42.930887974798679" lon="-8.138678027316928">
        <ele>367.5</ele>
        <time>2018-05-20T07:35:33Z</time>
      </trkpt>
      <trkpt lat="42.930887974798679" lon="-8.138625975698233">
        <ele>367.5</ele>
        <time>2018-05-20T07:35:35Z</time>
      </trkpt>
      <trkpt lat="42.930891998112202" lon="-8.138556992635131">
        <ele>367.39999999999998</ele>
        <time>2018-05-20T07:35:36Z</time>
      </trkpt>
      <trkpt lat="42.930891998112202" lon="-8.138493960723281">
        <ele>367.30000000000001</ele>
        <time>2018-05-20T07:35:37Z</time>
      </trkpt>
      <trkpt lat="42.930901972576976" lon="-8.138441992923617">
        <ele>367.19999999999999</ele>
        <time>2018-05-20T07:35:39Z</time>
      </trkpt>
      <trkpt lat="42.930911025032401" lon="-8.138378961011767">
        <ele>367.10000000000002</ele>
        <time>2018-05-20T07:35:40Z</time>
      </trkpt>
      <trkpt lat="42.930915970355272" lon="-8.138316012918949">
        <ele>367</ele>
        <time>2018-05-20T07:35:41Z</time>
      </trkpt>
      <trkpt lat="42.930915970355272" lon="-8.138251975178719">
        <ele>366.89999999999998</ele>
        <time>2018-05-20T07:35:43Z</time>
      </trkpt>
      <trkpt lat="42.930915970355272" lon="-8.138137981295586">
        <ele>366.80000000000001</ele>
        <time>2018-05-20T07:35:45Z</time>
      </trkpt>
      <trkpt lat="42.930911025032401" lon="-8.138068998232484">
        <ele>366.80000000000001</ele>
        <time>2018-05-20T07:35:47Z</time>
      </trkpt>
      <trkpt lat="42.930911025032401" lon="-8.137988029047847">
        <ele>366.69999999999999</ele>
        <time>2018-05-20T07:35:49Z</time>
      </trkpt>
      <trkpt lat="42.930911025032401" lon="-8.137936983257532">
        <ele>366.60000000000002</ele>
        <time>2018-05-20T07:35:50Z</time>
      </trkpt>
      <trkpt lat="42.930911025032401" lon="-8.137878980487585">
        <ele>366.30000000000001</ele>
        <time>2018-05-20T07:35:51Z</time>
      </trkpt>
      <trkpt lat="42.930911025032401" lon="-8.137792982161045">
        <ele>365.60000000000002</ele>
        <time>2018-05-20T07:35:53Z</time>
      </trkpt>
      <trkpt lat="42.930911025032401" lon="-8.137735985219479">
        <ele>365.10000000000002</ele>
        <time>2018-05-20T07:35:54Z</time>
      </trkpt>
      <trkpt lat="42.930905995890498" lon="-8.137660967186093">
        <ele>364.5</ele>
        <time>2018-05-20T07:35:56Z</time>
      </trkpt>
      <trkpt lat="42.930905995890498" lon="-8.137591984122992">
        <ele>363.89999999999998</ele>
        <time>2018-05-20T07:35:57Z</time>
      </trkpt>
      <trkpt lat="42.930905995890498" lon="-8.137540016323328">
        <ele>363.39999999999998</ele>
        <time>2018-05-20T07:35:58Z</time>
      </trkpt>
      <trkpt lat="42.930901972576976" lon="-8.137476984411478">
        <ele>362.89999999999998</ele>
        <time>2018-05-20T07:36:00Z</time>
      </trkpt>
      <trkpt lat="42.930891998112202" lon="-8.137357039377093">
        <ele>361.89999999999998</ele>
        <time>2018-05-20T07:36:02Z</time>
      </trkpt>
      <trkpt lat="42.930887974798679" lon="-8.137293001636863">
        <ele>361.39999999999998</ele>
        <time>2018-05-20T07:36:04Z</time>
      </trkpt>
      <trkpt lat="42.930878000333905" lon="-8.137236004695296">
        <ele>361</ele>
        <time>2018-05-20T07:36:05Z</time>
      </trkpt>
      <trkpt lat="42.930869031697512" lon="-8.137184036895633">
        <ele>360.60000000000002</ele>
        <time>2018-05-20T07:36:06Z</time>
      </trkpt>
      <trkpt lat="42.930864002555609" lon="-8.137127039954066">
        <ele>360.19999999999999</ele>
        <time>2018-05-20T07:36:07Z</time>
      </trkpt>
      <trkpt lat="42.930855033919215" lon="-8.137074988335371">
        <ele>359.80000000000001</ele>
        <time>2018-05-20T07:36:09Z</time>
      </trkpt>
      <trkpt lat="42.930841036140919" lon="-8.136988990008831">
        <ele>359</ele>
        <time>2018-05-20T07:36:10Z</time>
      </trkpt>
      <trkpt lat="42.930822009220719" lon="-8.136925958096981">
        <ele>358.60000000000002</ele>
        <time>2018-05-20T07:36:12Z</time>
      </trkpt>
      <trkpt lat="42.930803988128901" lon="-8.136839959770441">
        <ele>357.80000000000001</ele>
        <time>2018-05-20T07:36:14Z</time>
      </trkpt>
      <trkpt lat="42.930784961208701" lon="-8.136765025556088">
        <ele>357.19999999999999</ele>
        <time>2018-05-20T07:36:16Z</time>
      </trkpt>
      <trkpt lat="42.930770963430405" lon="-8.136695958673954">
        <ele>356.60000000000002</ele>
        <time>2018-05-20T07:36:17Z</time>
      </trkpt>
      <trkpt lat="42.930747997015715" lon="-8.136626975610852">
        <ele>356</ele>
        <time>2018-05-20T07:36:19Z</time>
      </trkpt>
      <trkpt lat="42.930710026994348" lon="-8.136528991162777">
        <ele>355.19999999999999</ele>
        <time>2018-05-20T07:36:21Z</time>
      </trkpt>
      <trkpt lat="42.930692005902529" lon="-8.136478029191494">
        <ele>354.69999999999999</ele>
        <time>2018-05-20T07:36:22Z</time>
      </trkpt>
      <trkpt lat="42.930664010345936" lon="-8.136420026421547">
        <ele>354.19999999999999</ele>
        <time>2018-05-20T07:36:24Z</time>
      </trkpt>
      <trkpt lat="42.93063098564744" lon="-8.136385995894671">
        <ele>354</ele>
        <time>2018-05-20T07:36:25Z</time>
      </trkpt>
      <trkpt lat="42.930574994534254" lon="-8.136327993124723">
        <ele>353.5</ele>
        <time>2018-05-20T07:36:27Z</time>
      </trkpt>
      <trkpt lat="42.930505005642772" lon="-8.13627895899117">
        <ele>353.10000000000002</ele>
        <time>2018-05-20T07:36:30Z</time>
      </trkpt>
      <trkpt lat="42.930468041449785" lon="-8.13625599257648">
        <ele>352.89999999999998</ele>
        <time>2018-05-20T07:36:31Z</time>
      </trkpt>
      <trkpt lat="42.930410038679838" lon="-8.136237971484661">
        <ele>352.89999999999998</ele>
        <time>2018-05-20T07:36:33Z</time>
      </trkpt>
      <trkpt lat="42.930367961525917" lon="-8.136215005069971">
        <ele>352.39999999999998</ele>
        <time>2018-05-20T07:36:34Z</time>
      </trkpt>
      <trkpt lat="42.930336026474833" lon="-8.136204024776816">
        <ele>352.10000000000002</ele>
        <time>2018-05-20T07:36:35Z</time>
      </trkpt>
      <trkpt lat="42.930297972634435" lon="-8.136192038655281">
        <ele>351.80000000000001</ele>
        <time>2018-05-20T07:36:36Z</time>
      </trkpt>
      <trkpt lat="42.930252039805055" lon="-8.136180974543095">
        <ele>351.39999999999998</ele>
        <time>2018-05-20T07:36:37Z</time>
      </trkpt>
      <trkpt lat="42.930209040641785" lon="-8.136180974543095">
        <ele>351.10000000000002</ele>
        <time>2018-05-20T07:36:39Z</time>
      </trkpt>
      <trkpt lat="42.930166041478515" lon="-8.136180974543095">
        <ele>350.89999999999998</ele>
        <time>2018-05-20T07:36:40Z</time>
      </trkpt>
      <trkpt lat="42.930051041767001" lon="-8.136158008128405">
        <ele>349.89999999999998</ele>
        <time>2018-05-20T07:36:43Z</time>
      </trkpt>
      <trkpt lat="42.930026985704899" lon="-8.136158008128405">
        <ele>349.80000000000001</ele>
        <time>2018-05-20T07:36:44Z</time>
      </trkpt>
      <trkpt lat="42.929976023733616" lon="-8.136158008128405">
        <ele>349.5</ele>
        <time>2018-05-20T07:36:46Z</time>
      </trkpt>
      <trkpt lat="42.92994299903512" lon="-8.13616999424994">
        <ele>349.39999999999998</ele>
        <time>2018-05-20T07:36:47Z</time>
      </trkpt>
      <trkpt lat="42.929908968508244" lon="-8.13619296066463">
        <ele>349.39999999999998</ele>
        <time>2018-05-20T07:36:48Z</time>
      </trkpt>
      <trkpt lat="42.929868986830115" lon="-8.136211987584829">
        <ele>349.30000000000001</ele>
        <time>2018-05-20T07:36:49Z</time>
      </trkpt>
      <trkpt lat="42.929821964353323" lon="-8.136218022555113">
        <ele>349.10000000000002</ele>
        <time>2018-05-20T07:36:50Z</time>
      </trkpt>
      <trkpt lat="42.929785000160336" lon="-8.136229002848268">
        <ele>349</ele>
        <time>2018-05-20T07:36:52Z</time>
      </trkpt>
      <trkpt lat="42.929743006825447" lon="-8.136235037818551">
        <ele>348.80000000000001</ele>
        <time>2018-05-20T07:36:53Z</time>
      </trkpt>
      <trkpt lat="42.929681986570358" lon="-8.136240988969803">
        <ele>348.5</ele>
        <time>2018-05-20T07:36:55Z</time>
      </trkpt>
      <trkpt lat="42.929639993235469" lon="-8.136240988969803">
        <ele>348.19999999999999</ele>
        <time>2018-05-20T07:36:56Z</time>
      </trkpt>
      <trkpt lat="42.929589031264186" lon="-8.136246018111706">
        <ele>348</ele>
        <time>2018-05-20T07:36:57Z</time>
      </trkpt>
      <trkpt lat="42.929542008787394" lon="-8.136246018111706">
        <ele>347.60000000000002</ele>
        <time>2018-05-20T07:36:59Z</time>
      </trkpt>
      <trkpt lat="42.929504960775375" lon="-8.136258004233241">
        <ele>347.39999999999998</ele>
        <time>2018-05-20T07:37:00Z</time>
      </trkpt>
      <trkpt lat="42.929467996582389" lon="-8.136280970647931">
        <ele>347.30000000000001</ele>
        <time>2018-05-20T07:37:01Z</time>
      </trkpt>
      <trkpt lat="42.929430026561022" lon="-8.136287005618215">
        <ele>347</ele>
        <time>2018-05-20T07:37:02Z</time>
      </trkpt>
      <trkpt lat="42.92938400991261" lon="-8.136292034760118">
        <ele>346.60000000000002</ele>
        <time>2018-05-20T07:37:04Z</time>
      </trkpt>
      <trkpt lat="42.929346039891243" lon="-8.136304020881653">
        <ele>346.39999999999998</ele>
        <time>2018-05-20T07:37:05Z</time>
      </trkpt>
      <trkpt lat="42.929303962737322" lon="-8.136315001174808">
        <ele>346.10000000000002</ele>
        <time>2018-05-20T07:37:06Z</time>
      </trkpt>
      <trkpt lat="42.929261969402432" lon="-8.136321036145091">
        <ele>345.69999999999999</ele>
        <time>2018-05-20T07:37:07Z</time>
      </trkpt>
      <trkpt lat="42.929211007431149" lon="-8.136321036145091">
        <ele>345.19999999999999</ele>
        <time>2018-05-20T07:37:09Z</time>
      </trkpt>
      <trkpt lat="42.929163984954357" lon="-8.136326987296343">
        <ele>344.80000000000001</ele>
        <time>2018-05-20T07:37:10Z</time>
      </trkpt>
      <trkpt lat="42.929127020761371" lon="-8.136344002559781">
        <ele>344.60000000000002</ele>
        <time>2018-05-20T07:37:11Z</time>
      </trkpt>
      <trkpt lat="42.929089972749352" lon="-8.136350037530065">
        <ele>344.30000000000001</ele>
        <time>2018-05-20T07:37:12Z</time>
      </trkpt>
      <trkpt lat="42.929043034091592" lon="-8.136366968974471">
        <ele>344</ele>
        <time>2018-05-20T07:37:14Z</time>
      </trkpt>
      <trkpt lat="42.929001040756702" lon="-8.136383984237909">
        <ele>343.69999999999999</ele>
        <time>2018-05-20T07:37:15Z</time>
      </trkpt>
      <trkpt lat="42.928958041593432" lon="-8.136383984237909">
        <ele>343.30000000000001</ele>
        <time>2018-05-20T07:37:17Z</time>
      </trkpt>
      <trkpt lat="42.928914036601782" lon="-8.136383984237909">
        <ele>342.80000000000001</ele>
        <time>2018-05-20T07:37:18Z</time>
      </trkpt>
      <trkpt lat="42.928900038823485" lon="-8.136361017823219">
        <ele>342.5</ele>
        <time>2018-05-20T07:37:18Z</time>
      </trkpt>
      <trkpt lat="42.928928034380078" lon="-8.136321036145091">
        <ele>342.39999999999998</ele>
        <time>2018-05-20T07:37:20Z</time>
      </trkpt>
      <trkpt lat="42.928960975259542" lon="-8.136275019496679">
        <ele>342.30000000000001</ele>
        <time>2018-05-20T07:37:21Z</time>
      </trkpt>
      <trkpt lat="42.928984025493264" lon="-8.136235037818551">
        <ele>342.10000000000002</ele>
        <time>2018-05-20T07:37:22Z</time>
      </trkpt>
      <trkpt lat="42.929016966372728" lon="-8.136194972321391">
        <ele>342</ele>
        <time>2018-05-20T07:37:23Z</time>
      </trkpt>
      <trkpt lat="42.929054014384747" lon="-8.136149039492011">
        <ele>341.89999999999998</ele>
        <time>2018-05-20T07:37:25Z</time>
      </trkpt>
      <trkpt lat="42.929073041304946" lon="-8.136107968166471">
        <ele>341.69999999999999</ele>
        <time>2018-05-20T07:37:26Z</time>
      </trkpt>
      <trkpt lat="42.929096007719636" lon="-8.136067986488342">
        <ele>341.5</ele>
        <time>2018-05-20T07:37:27Z</time>
      </trkpt>
      <trkpt lat="42.929130038246512" lon="-8.136034039780498">
        <ele>341.5</ele>
        <time>2018-05-20T07:37:28Z</time>
      </trkpt>
      <trkpt lat="42.929177982732654" lon="-8.13599799759686">
        <ele>341.5</ele>
        <time>2018-05-20T07:37:30Z</time>
      </trkpt>
      <trkpt lat="42.929205978289247" lon="-8.13597503118217">
        <ele>341.60000000000002</ele>
        <time>2018-05-20T07:37:31Z</time>
      </trkpt>
      <trkpt lat="42.929239002987742" lon="-8.135946029797196">
        <ele>341.60000000000002</ele>
        <time>2018-05-20T07:37:32Z</time>
      </trkpt>
      <trkpt lat="42.929272027686238" lon="-8.135900013148785">
        <ele>341.39999999999998</ele>
        <time>2018-05-20T07:37:33Z</time>
      </trkpt>
      <trkpt lat="42.929289964959025" lon="-8.135865982621908">
        <ele>341.19999999999999</ele>
        <time>2018-05-20T07:37:34Z</time>
      </trkpt>
      <trkpt lat="42.929280996322632" lon="-8.135812003165484">
        <ele>340.60000000000002</ele>
        <time>2018-05-20T07:37:36Z</time>
      </trkpt>
      <trkpt lat="42.929261969402432" lon="-8.135748971253634">
        <ele>339.69999999999999</ele>
        <time>2018-05-20T07:37:37Z</time>
      </trkpt>
      <trkpt lat="42.929272027686238" lon="-8.135690968483686">
        <ele>339.19999999999999</ele>
        <time>2018-05-20T07:37:38Z</time>
      </trkpt>
      <trkpt lat="42.929297005757689" lon="-8.135621985420585">
        <ele>338.69999999999999</ele>
        <time>2018-05-20T07:37:40Z</time>
      </trkpt>
      <trkpt lat="42.929317038506269" lon="-8.135597007349134">
        <ele>338.60000000000002</ele>
        <time>2018-05-20T07:37:41Z</time>
      </trkpt>
      <trkpt lat="42.929352996870875" lon="-8.135559037327766">
        <ele>338.60000000000002</ele>
        <time>2018-05-20T07:37:42Z</time>
      </trkpt>
      <trkpt lat="42.929394990205765" lon="-8.135513020679355">
        <ele>338.39999999999998</ele>
        <time>2018-05-20T07:37:44Z</time>
      </trkpt>
      <trkpt lat="42.92942700907588" lon="-8.135489970445633">
        <ele>338.5</ele>
        <time>2018-05-20T07:37:45Z</time>
      </trkpt>
      <trkpt lat="42.929457016289234" lon="-8.135467004030943">
        <ele>338.5</ele>
        <time>2018-05-20T07:37:46Z</time>
      </trkpt>
      <trkpt lat="42.92949004098773" lon="-8.135427022352815">
        <ele>338.30000000000001</ele>
        <time>2018-05-20T07:37:47Z</time>
      </trkpt>
      <trkpt lat="42.929532034322619" lon="-8.135410007089376">
        <ele>338.5</ele>
        <time>2018-05-20T07:37:49Z</time>
      </trkpt>
      <trkpt lat="42.929574027657509" lon="-8.135381005704403">
        <ele>338.60000000000002</ele>
        <time>2018-05-20T07:37:50Z</time>
      </trkpt>
      <trkpt lat="42.929605962708592" lon="-8.135358039289713">
        <ele>338.60000000000002</ele>
        <time>2018-05-20T07:37:51Z</time>
      </trkpt>
      <trkpt lat="42.929652985185385" lon="-8.135329037904739">
        <ele>338.69999999999999</ele>
        <time>2018-05-20T07:37:53Z</time>
      </trkpt>
      <trkpt lat="42.929686009883881" lon="-8.135312022641301">
        <ele>338.80000000000001</ele>
        <time>2018-05-20T07:37:54Z</time>
      </trkpt>
      <trkpt lat="42.929718028753996" lon="-8.135300958529115">
        <ele>339</ele>
        <time>2018-05-20T07:37:55Z</time>
      </trkpt>
      <trkpt lat="42.929754992946982" lon="-8.135283021256328">
        <ele>339.10000000000002</ele>
        <time>2018-05-20T07:37:56Z</time>
      </trkpt>
      <trkpt lat="42.929792962968349" lon="-8.135277992114425">
        <ele>339.30000000000001</ele>
        <time>2018-05-20T07:37:57Z</time>
      </trkpt>
      <trkpt lat="42.929835040122271" lon="-8.135277992114425">
        <ele>339.69999999999999</ele>
        <time>2018-05-20T07:37:58Z</time>
      </trkpt>
      <trkpt lat="42.929872004315257" lon="-8.135272040963173">
        <ele>339.89999999999998</ele>
        <time>2018-05-20T07:37:59Z</time>
      </trkpt>
      <trkpt lat="42.929913997650146" lon="-8.135272040963173">
        <ele>340.30000000000001</ele>
        <time>2018-05-20T07:38:00Z</time>
      </trkpt>
      <trkpt lat="42.929955990985036" lon="-8.135259971022606">
        <ele>340.5</ele>
        <time>2018-05-20T07:38:02Z</time>
      </trkpt>
      <trkpt lat="42.930003013461828" lon="-8.135259971022606">
        <ele>340.80000000000001</ele>
        <time>2018-05-20T07:38:03Z</time>
      </trkpt>
      <trkpt lat="42.930053975433111" lon="-8.135259971022606">
        <ele>341.19999999999999</ele>
        <time>2018-05-20T07:38:05Z</time>
      </trkpt>
      <trkpt lat="42.930095968768001" lon="-8.135255025699735">
        <ele>341.5</ele>
        <time>2018-05-20T07:38:06Z</time>
      </trkpt>
      <trkpt lat="42.930142991244793" lon="-8.135255025699735">
        <ele>341.89999999999998</ele>
        <time>2018-05-20T07:38:07Z</time>
      </trkpt>
      <trkpt lat="42.930189007893205" lon="-8.135255025699735">
        <ele>342.30000000000001</ele>
        <time>2018-05-20T07:38:09Z</time>
      </trkpt>
      <trkpt lat="42.930231001228094" lon="-8.135243039578199">
        <ele>342.5</ele>
        <time>2018-05-20T07:38:10Z</time>
      </trkpt>
      <trkpt lat="42.930278023704886" lon="-8.135243039578199">
        <ele>342.80000000000001</ele>
        <time>2018-05-20T07:38:11Z</time>
      </trkpt>
      <trkpt lat="42.930320017039776" lon="-8.135243039578199">
        <ele>343.19999999999999</ele>
        <time>2018-05-20T07:38:13Z</time>
      </trkpt>
      <trkpt lat="42.930352035909891" lon="-8.135231975466013">
        <ele>343.30000000000001</ele>
        <time>2018-05-20T07:38:13Z</time>
      </trkpt>
      <trkpt lat="42.930390005931258" lon="-8.135226024314761">
        <ele>343.5</ele>
        <time>2018-05-20T07:38:15Z</time>
      </trkpt>
      <trkpt lat="42.930426970124245" lon="-8.135214038193226">
        <ele>343.5</ele>
        <time>2018-05-20T07:38:16Z</time>
      </trkpt>
      <trkpt lat="42.930473992601037" lon="-8.135214038193226">
        <ele>343.5</ele>
        <time>2018-05-20T07:38:17Z</time>
      </trkpt>
      <trkpt lat="42.930520009249449" lon="-8.135214038193226">
        <ele>343.39999999999998</ele>
        <time>2018-05-20T07:38:19Z</time>
      </trkpt>
      <trkpt lat="42.930569965392351" lon="-8.135202974081039">
        <ele>343.19999999999999</ele>
        <time>2018-05-20T07:38:20Z</time>
      </trkpt>
      <trkpt lat="42.930597960948944" lon="-8.135162992402911">
        <ele>342.69999999999999</ele>
        <time>2018-05-20T07:38:21Z</time>
      </trkpt>
      <trkpt lat="42.930622017011046" lon="-8.135116975754499">
        <ele>342.10000000000002</ele>
        <time>2018-05-20T07:38:22Z</time>
      </trkpt>
      <trkpt lat="42.930646995082498" lon="-8.13507498241961">
        <ele>341.60000000000002</ele>
        <time>2018-05-20T07:38:24Z</time>
      </trkpt>
      <trkpt lat="42.930675996467471" lon="-8.13503198325634">
        <ele>341</ele>
        <time>2018-05-20T07:38:25Z</time>
      </trkpt>
      <trkpt lat="42.930703992024064" lon="-8.134985966607928">
        <ele>340.5</ele>
        <time>2018-05-20T07:38:26Z</time>
      </trkpt>
      <trkpt lat="42.93073701672256" lon="-8.134952019900084">
        <ele>340.10000000000002</ele>
        <time>2018-05-20T07:38:27Z</time>
      </trkpt>
      <trkpt lat="42.930765012279153" lon="-8.134916983544827">
        <ele>339.69999999999999</ele>
        <time>2018-05-20T07:38:29Z</time>
      </trkpt>
      <trkpt lat="42.930797031149268" lon="-8.134866021573544">
        <ele>339.10000000000002</ele>
        <time>2018-05-20T07:38:30Z</time>
      </trkpt>
      <trkpt lat="42.930821003392339" lon="-8.134826039895415">
        <ele>338.60000000000002</ele>
        <time>2018-05-20T07:38:31Z</time>
      </trkpt>
      <trkpt lat="42.930857967585325" lon="-8.134784968569875">
        <ele>338.19999999999999</ele>
        <time>2018-05-20T07:38:33Z</time>
      </trkpt>
      <trkpt lat="42.930885963141918" lon="-8.134744986891747">
        <ele>337.69999999999999</ele>
        <time>2018-05-20T07:38:34Z</time>
      </trkpt>
      <trkpt lat="42.930923011153936" lon="-8.134705005213618">
        <ele>337.30000000000001</ele>
        <time>2018-05-20T07:38:35Z</time>
      </trkpt>
      <trkpt lat="42.930946983397007" lon="-8.13466502353549">
        <ele>336.89999999999998</ele>
        <time>2018-05-20T07:38:36Z</time>
      </trkpt>
      <trkpt lat="42.930969027802348" lon="-8.13462101854384">
        <ele>336.39999999999998</ele>
        <time>2018-05-20T07:38:37Z</time>
      </trkpt>
      <trkpt lat="42.930969027802348" lon="-8.134568966925144">
        <ele>335.80000000000001</ele>
        <time>2018-05-20T07:38:39Z</time>
      </trkpt>
      <trkpt lat="42.930969027802348" lon="-8.134510964155197">
        <ele>335.10000000000002</ele>
        <time>2018-05-20T07:38:40Z</time>
      </trkpt>
      <trkpt lat="42.930958969518542" lon="-8.134441981092095">
        <ele>334.19999999999999</ele>
        <time>2018-05-20T07:38:41Z</time>
      </trkpt>
      <trkpt lat="42.930941032245755" lon="-8.134374003857374">
        <ele>333.39999999999998</ele>
        <time>2018-05-20T07:38:43Z</time>
      </trkpt>
      <trkpt lat="42.930916976183653" lon="-8.134281970560551">
        <ele>332.19999999999999</ele>
        <time>2018-05-20T07:38:45Z</time>
      </trkpt>
      <trkpt lat="42.930902978405356" lon="-8.134230002760887">
        <ele>331.60000000000002</ele>
        <time>2018-05-20T07:38:46Z</time>
      </trkpt>
      <trkpt lat="42.930894009768963" lon="-8.134173005819321">
        <ele>330.89999999999998</ele>
        <time>2018-05-20T07:38:48Z</time>
      </trkpt>
      <trkpt lat="42.930887974798679" lon="-8.134122965857387">
        <ele>330.19999999999999</ele>
        <time>2018-05-20T07:38:49Z</time>
      </trkpt>
      <trkpt lat="42.930872971192002" lon="-8.133962033316493">
        <ele>328.19999999999999</ele>
        <time>2018-05-20T07:38:52Z</time>
      </trkpt>
      <trkpt lat="42.930822009220719" lon="-8.133644023910165">
        <ele>324.60000000000002</ele>
        <time>2018-05-20T07:38:59Z</time>
      </trkpt>
      <trkpt lat="42.930822009220719" lon="-8.13363597728312">
        <ele>324.5</ele>
        <time>2018-05-20T07:39:00Z</time>
      </trkpt>
      <trkpt lat="42.930742967873812" lon="-8.133226018399">
        <ele>320.89999999999998</ele>
        <time>2018-05-20T07:39:09Z</time>
      </trkpt>
      <trkpt lat="42.930742967873812" lon="-8.133217971771956">
        <ele>320.80000000000001</ele>
        <time>2018-05-20T07:39:09Z</time>
      </trkpt>
      <trkpt lat="42.930692005902529" lon="-8.132857969030738">
        <ele>317.69999999999999</ele>
        <time>2018-05-20T07:39:17Z</time>
      </trkpt>
      <trkpt lat="42.930606007575989" lon="-8.132512969896197">
        <ele>315.39999999999998</ele>
        <time>2018-05-20T07:39:25Z</time>
      </trkpt>
      <trkpt lat="42.930530989542603" lon="-8.132183980196714">
        <ele>313.10000000000002</ele>
        <time>2018-05-20T07:39:32Z</time>
      </trkpt>
      <trkpt lat="42.930487990379333" lon="-8.131892960518599">
        <ele>311</ele>
        <time>2018-05-20T07:39:39Z</time>
      </trkpt>
      <trkpt lat="42.930487990379333" lon="-8.131876029074192">
        <ele>310.89999999999998</ele>
        <time>2018-05-20T07:39:39Z</time>
      </trkpt>
      <trkpt lat="42.930487990379333" lon="-8.131811991333962">
        <ele>310.39999999999998</ele>
        <time>2018-05-20T07:39:41Z</time>
      </trkpt>
      <trkpt lat="42.930482961237431" lon="-8.131754994392395">
        <ele>310</ele>
        <time>2018-05-20T07:39:42Z</time>
      </trkpt>
      <trkpt lat="42.930482961237431" lon="-8.131686011329293">
        <ele>309.5</ele>
        <time>2018-05-20T07:39:43Z</time>
      </trkpt>
      <trkpt lat="42.930482961237431" lon="-8.131633959710598">
        <ele>309.10000000000002</ele>
        <time>2018-05-20T07:39:44Z</time>
      </trkpt>
      <trkpt lat="42.930482961237431" lon="-8.13157101161778">
        <ele>308.60000000000002</ele>
        <time>2018-05-20T07:39:46Z</time>
      </trkpt>
      <trkpt lat="42.930487990379333" lon="-8.131514014676213">
        <ele>308.19999999999999</ele>
        <time>2018-05-20T07:39:47Z</time>
      </trkpt>
      <trkpt lat="42.930487990379333" lon="-8.131432961672545">
        <ele>307.69999999999999</ele>
        <time>2018-05-20T07:39:49Z</time>
      </trkpt>
      <trkpt lat="42.930493019521236" lon="-8.131381999701262">
        <ele>307.30000000000001</ele>
        <time>2018-05-20T07:39:50Z</time>
      </trkpt>
      <trkpt lat="42.930496959015727" lon="-8.131323996931315">
        <ele>306.89999999999998</ele>
        <time>2018-05-20T07:39:51Z</time>
      </trkpt>
      <trkpt lat="42.930525038391352" lon="-8.131277980282903">
        <ele>306.69999999999999</ele>
        <time>2018-05-20T07:39:53Z</time>
      </trkpt>
      <trkpt lat="42.930539036169648" lon="-8.13122701831162">
        <ele>306.5</ele>
        <time>2018-05-20T07:39:54Z</time>
      </trkpt>
      <trkpt lat="42.930553033947945" lon="-8.131174966692925">
        <ele>306.39999999999998</ele>
        <time>2018-05-20T07:39:55Z</time>
      </trkpt>
      <trkpt lat="42.930562002584338" lon="-8.131112018600106">
        <ele>306.10000000000002</ele>
        <time>2018-05-20T07:39:56Z</time>
      </trkpt>
      <trkpt lat="42.930576000362635" lon="-8.131048986688256">
        <ele>306</ele>
        <time>2018-05-20T07:39:58Z</time>
      </trkpt>
      <trkpt lat="42.930595027282834" lon="-8.130990983918309">
        <ele>305.80000000000001</ele>
        <time>2018-05-20T07:39:59Z</time>
      </trkpt>
      <trkpt lat="42.930613970384002" lon="-8.130944967269898">
        <ele>305.69999999999999</ele>
        <time>2018-05-20T07:40:00Z</time>
      </trkpt>
      <trkpt lat="42.930623022839427" lon="-8.130894005298615">
        <ele>305.5</ele>
        <time>2018-05-20T07:40:01Z</time>
      </trkpt>
      <trkpt lat="42.930627968162298" lon="-8.130842037498951">
        <ele>305.30000000000001</ele>
        <time>2018-05-20T07:40:03Z</time>
      </trkpt>
      <trkpt lat="42.930641965940595" lon="-8.130794009193778">
        <ele>305.10000000000002</ele>
        <time>2018-05-20T07:40:04Z</time>
      </trkpt>
      <trkpt lat="42.93065101839602" lon="-8.130736006423831">
        <ele>304.89999999999998</ele>
        <time>2018-05-20T07:40:05Z</time>
      </trkpt>
      <trkpt lat="42.930679013952613" lon="-8.130679009482265">
        <ele>304.80000000000001</ele>
        <time>2018-05-20T07:40:06Z</time>
      </trkpt>
      <trkpt lat="42.930698040872812" lon="-8.130622012540698">
        <ele>304.60000000000002</ele>
        <time>2018-05-20T07:40:08Z</time>
      </trkpt>
      <trkpt lat="42.930726036429405" lon="-8.130557974800468">
        <ele>304.39999999999998</ele>
        <time>2018-05-20T07:40:09Z</time>
      </trkpt>
      <trkpt lat="42.930749002844095" lon="-8.130511958152056">
        <ele>304.19999999999999</ele>
        <time>2018-05-20T07:40:11Z</time>
      </trkpt>
      <trkpt lat="42.930768029764295" lon="-8.130467031151056">
        <ele>304.10000000000002</ele>
        <time>2018-05-20T07:40:12Z</time>
      </trkpt>
      <trkpt lat="42.930785967037082" lon="-8.130421014502645">
        <ele>303.89999999999998</ele>
        <time>2018-05-20T07:40:13Z</time>
      </trkpt>
      <trkpt lat="42.930804993957281" lon="-8.130374997854233">
        <ele>303.89999999999998</ele>
        <time>2018-05-20T07:40:14Z</time>
      </trkpt>
      <trkpt lat="42.930824020877481" lon="-8.130328981205821">
        <ele>304</ele>
        <time>2018-05-20T07:40:15Z</time>
      </trkpt>
      <trkpt lat="42.930852016434073" lon="-8.130282964557409">
        <ele>304</ele>
        <time>2018-05-20T07:40:16Z</time>
      </trkpt>
      <trkpt lat="42.930880011990666" lon="-8.130237031728029">
        <ele>304.10000000000002</ele>
        <time>2018-05-20T07:40:18Z</time>
      </trkpt>
      <trkpt lat="42.930912030860782" lon="-8.13019503839314">
        <ele>304.19999999999999</ele>
        <time>2018-05-20T07:40:19Z</time>
      </trkpt>
      <trkpt lat="42.930926028639078" lon="-8.130142986774445">
        <ele>304.19999999999999</ele>
        <time>2018-05-20T07:40:20Z</time>
      </trkpt>
      <trkpt lat="42.930940026417375" lon="-8.130096970126033">
        <ele>304.30000000000001</ele>
        <time>2018-05-20T07:40:21Z</time>
      </trkpt>
      <trkpt lat="42.930954024195671" lon="-8.130051037296653">
        <ele>304.30000000000001</ele>
        <time>2018-05-20T07:40:22Z</time>
      </trkpt>
      <trkpt lat="42.930979002267122" lon="-8.130007032305002">
        <ele>304.30000000000001</ele>
        <time>2018-05-20T07:40:24Z</time>
      </trkpt>
      <trkpt lat="42.931003980338573" lon="-8.12996000982821">
        <ele>304.39999999999998</ele>
        <time>2018-05-20T07:40:25Z</time>
      </trkpt>
      <trkpt lat="42.931031975895166" lon="-8.12989697791636">
        <ele>304.5</ele>
        <time>2018-05-20T07:40:26Z</time>
      </trkpt>
      <trkpt lat="42.931042034178972" lon="-8.129839980974793">
        <ele>304.5</ele>
        <time>2018-05-20T07:40:28Z</time>
      </trkpt>
      <trkpt lat="42.931042034178972" lon="-8.129770997911692">
        <ele>304.5</ele>
        <time>2018-05-20T07:40:29Z</time>
      </trkpt>
      <trkpt lat="42.931037005037069" lon="-8.129719030112028">
        <ele>304.5</ele>
        <time>2018-05-20T07:40:30Z</time>
      </trkpt>
      <trkpt lat="42.931037005037069" lon="-8.129662033170462">
        <ele>304.5</ele>
        <time>2018-05-20T07:40:32Z</time>
      </trkpt>
      <trkpt lat="42.931037005037069" lon="-8.129589026793838">
        <ele>304.5</ele>
        <time>2018-05-20T07:40:33Z</time>
      </trkpt>
      <trkpt lat="42.931031975895166" lon="-8.129525994881988">
        <ele>304.60000000000002</ele>
        <time>2018-05-20T07:40:35Z</time>
      </trkpt>
      <trkpt lat="42.931028036400676" lon="-8.129447037354112">
        <ele>304.89999999999998</ele>
        <time>2018-05-20T07:40:36Z</time>
      </trkpt>
      <trkpt lat="42.931023007258773" lon="-8.129389034584165">
        <ele>305</ele>
        <time>2018-05-20T07:40:38Z</time>
      </trkpt>
      <trkpt lat="42.93101797811687" lon="-8.129332037642598">
        <ele>305.19999999999999</ele>
        <time>2018-05-20T07:40:39Z</time>
      </trkpt>
      <trkpt lat="42.931009009480476" lon="-8.129269005730748">
        <ele>305.39999999999998</ele>
        <time>2018-05-20T07:40:40Z</time>
      </trkpt>
      <trkpt lat="42.93099501170218" lon="-8.129200022667646">
        <ele>305.60000000000002</ele>
        <time>2018-05-20T07:40:42Z</time>
      </trkpt>
      <trkpt lat="42.930985959246755" lon="-8.129147971048951">
        <ele>305.69999999999999</ele>
        <time>2018-05-20T07:40:43Z</time>
      </trkpt>
      <trkpt lat="42.930975984781981" lon="-8.129102038219571">
        <ele>305.89999999999998</ele>
        <time>2018-05-20T07:40:44Z</time>
      </trkpt>
      <trkpt lat="42.930971961468458" lon="-8.129045041278005">
        <ele>306.10000000000002</ele>
        <time>2018-05-20T07:40:45Z</time>
      </trkpt>
      <trkpt lat="42.930961987003684" lon="-8.128992989659309">
        <ele>306.19999999999999</ele>
        <time>2018-05-20T07:40:46Z</time>
      </trkpt>
      <trkpt lat="42.930957963690162" lon="-8.128941021859646">
        <ele>306.39999999999998</ele>
        <time>2018-05-20T07:40:48Z</time>
      </trkpt>
      <trkpt lat="42.930957963690162" lon="-8.128889976069331">
        <ele>306.5</ele>
        <time>2018-05-20T07:40:49Z</time>
      </trkpt>
      <trkpt lat="42.930957963690162" lon="-8.128820993006229">
        <ele>306.80000000000001</ele>
        <time>2018-05-20T07:40:50Z</time>
      </trkpt>
      <trkpt lat="42.930957963690162" lon="-8.128767013549805">
        <ele>306.89999999999998</ele>
        <time>2018-05-20T07:40:51Z</time>
      </trkpt>
      <trkpt lat="42.930957963690162" lon="-8.128710016608238">
        <ele>307.39999999999998</ele>
        <time>2018-05-20T07:40:53Z</time>
      </trkpt>
      <trkpt lat="42.930967016145587" lon="-8.128646984696388">
        <ele>307.89999999999998</ele>
        <time>2018-05-20T07:40:54Z</time>
      </trkpt>
      <trkpt lat="42.930967016145587" lon="-8.128593005239964">
        <ele>308.39999999999998</ele>
        <time>2018-05-20T07:40:55Z</time>
      </trkpt>
      <trkpt lat="42.930975984781981" lon="-8.128524022176862">
        <ele>309.10000000000002</ele>
        <time>2018-05-20T07:40:57Z</time>
      </trkpt>
      <trkpt lat="42.930975984781981" lon="-8.128471970558167">
        <ele>309.60000000000002</ele>
        <time>2018-05-20T07:40:58Z</time>
      </trkpt>
      <trkpt lat="42.930975984781981" lon="-8.128421008586884">
        <ele>310</ele>
        <time>2018-05-20T07:40:59Z</time>
      </trkpt>
      <trkpt lat="42.930975984781981" lon="-8.128356970846653">
        <ele>310.60000000000002</ele>
        <time>2018-05-20T07:41:00Z</time>
      </trkpt>
      <trkpt lat="42.930981013923883" lon="-8.128294022753835">
        <ele>311.19999999999999</ele>
        <time>2018-05-20T07:41:02Z</time>
      </trkpt>
      <trkpt lat="42.930985959246755" lon="-8.128230990841985">
        <ele>311.80000000000001</ele>
        <time>2018-05-20T07:41:03Z</time>
      </trkpt>
      <trkpt lat="42.931000040844083" lon="-8.128167958930135">
        <ele>312.39999999999998</ele>
        <time>2018-05-20T07:41:04Z</time>
      </trkpt>
      <trkpt lat="42.931014038622379" lon="-8.128110039979219">
        <ele>313</ele>
        <time>2018-05-20T07:41:06Z</time>
      </trkpt>
      <trkpt lat="42.93101797811687" lon="-8.128058994188905">
        <ele>313.5</ele>
        <time>2018-05-20T07:41:07Z</time>
      </trkpt>
      <trkpt lat="42.931023007258773" lon="-8.127972995862365">
        <ele>314.39999999999998</ele>
        <time>2018-05-20T07:41:09Z</time>
      </trkpt>
      <trkpt lat="42.931031975895166" lon="-8.127921028062701">
        <ele>314.89999999999998</ele>
        <time>2018-05-20T07:41:10Z</time>
      </trkpt>
      <trkpt lat="42.931031975895166" lon="-8.127822959795594">
        <ele>316</ele>
        <time>2018-05-20T07:41:12Z</time>
      </trkpt>
      <trkpt lat="42.93103901669383" lon="-8.127765962854028">
        <ele>316.69999999999999</ele>
        <time>2018-05-20T07:41:13Z</time>
      </trkpt>
      <trkpt lat="42.93103901669383" lon="-8.127713995054364">
        <ele>317.30000000000001</ele>
        <time>2018-05-20T07:41:15Z</time>
      </trkpt>
      <trkpt lat="42.93103901669383" lon="-8.127655992284417">
        <ele>318</ele>
        <time>2018-05-20T07:41:16Z</time>
      </trkpt>
      <trkpt lat="42.93103901669383" lon="-8.127602012827992">
        <ele>318.60000000000002</ele>
        <time>2018-05-20T07:41:17Z</time>
      </trkpt>
      <trkpt lat="42.931025018915534" lon="-8.127371007576585">
        <ele>321.10000000000002</ele>
        <time>2018-05-20T07:41:22Z</time>
      </trkpt>
      <trkpt lat="42.931000040844083" lon="-8.126946967095137">
        <ele>325.69999999999999</ele>
        <time>2018-05-20T07:41:31Z</time>
      </trkpt>
      <trkpt lat="42.930946983397007" lon="-8.126627029851079">
        <ele>328.89999999999998</ele>
        <time>2018-05-20T07:41:38Z</time>
      </trkpt>
      <trkpt lat="42.93088898062706" lon="-8.126375991851091">
        <ele>331.19999999999999</ele>
        <time>2018-05-20T07:41:44Z</time>
      </trkpt>
      <trkpt lat="42.930813040584326" lon="-8.12620198354125">
        <ele>332.30000000000001</ele>
        <time>2018-05-20T07:41:49Z</time>
      </trkpt>
      <trkpt lat="42.930733999237418" lon="-8.126015989109874">
        <ele>333.39999999999998</ele>
        <time>2018-05-20T07:41:53Z</time>
      </trkpt>
      <trkpt lat="42.930648000910878" lon="-8.125863019376993">
        <ele>334.10000000000002</ele>
        <time>2018-05-20T07:41:57Z</time>
      </trkpt>
      <trkpt lat="42.930513974279165" lon="-8.125582979992032">
        <ele>336</ele>
        <time>2018-05-20T07:42:05Z</time>
      </trkpt>
      <trkpt lat="42.930377013981342" lon="-8.125363038852811">
        <ele>337.39999999999998</ele>
        <time>2018-05-20T07:42:11Z</time>
      </trkpt>
      <trkpt lat="42.930377013981342" lon="-8.125350968912244">
        <ele>337.5</ele>
        <time>2018-05-20T07:42:11Z</time>
      </trkpt>
      <trkpt lat="42.930344995111227" lon="-8.125305036082864">
        <ele>337.89999999999998</ele>
        <time>2018-05-20T07:42:13Z</time>
      </trkpt>
      <trkpt lat="42.930316999554634" lon="-8.125259019434452">
        <ele>338.30000000000001</ele>
        <time>2018-05-20T07:42:14Z</time>
      </trkpt>
      <trkpt lat="42.930297972634435" lon="-8.12521300278604">
        <ele>338.69999999999999</ele>
        <time>2018-05-20T07:42:15Z</time>
      </trkpt>
      <trkpt lat="42.930269977077842" lon="-8.125162040814757">
        <ele>339.10000000000002</ele>
        <time>2018-05-20T07:42:16Z</time>
      </trkpt>
      <trkpt lat="42.930261008441448" lon="-8.125109989196062">
        <ele>339.69999999999999</ele>
        <time>2018-05-20T07:42:18Z</time>
      </trkpt>
      <trkpt lat="42.930241981521249" lon="-8.124994989484549">
        <ele>340.89999999999998</ele>
        <time>2018-05-20T07:42:20Z</time>
      </trkpt>
      <trkpt lat="42.930227983742952" lon="-8.124926006421447">
        <ele>341.60000000000002</ele>
        <time>2018-05-20T07:42:22Z</time>
      </trkpt>
      <trkpt lat="42.930227983742952" lon="-8.124862974509597">
        <ele>342.39999999999998</ele>
        <time>2018-05-20T07:42:23Z</time>
      </trkpt>
      <trkpt lat="42.930219015106559" lon="-8.124771025031805">
        <ele>343.39999999999998</ele>
        <time>2018-05-20T07:42:25Z</time>
      </trkpt>
      <trkpt lat="42.930213985964656" lon="-8.124715033918619">
        <ele>344</ele>
        <time>2018-05-20T07:42:26Z</time>
      </trkpt>
      <trkpt lat="42.930171992629766" lon="-8.124486962333322">
        <ele>346.30000000000001</ele>
        <time>2018-05-20T07:42:32Z</time>
      </trkpt>
      <trkpt lat="42.930143997073174" lon="-8.124230979010463">
        <ele>349</ele>
        <time>2018-05-20T07:42:37Z</time>
      </trkpt>
      <trkpt lat="42.930125975981355" lon="-8.12405101954937">
        <ele>350.80000000000001</ele>
        <time>2018-05-20T07:42:41Z</time>
      </trkpt>
      <trkpt lat="42.930121030658484" lon="-8.12398798763752">
        <ele>351.5</ele>
        <time>2018-05-20T07:42:43Z</time>
      </trkpt>
      <trkpt lat="42.930121030658484" lon="-8.123919004574418">
        <ele>352.30000000000001</ele>
        <time>2018-05-20T07:42:44Z</time>
      </trkpt>
      <trkpt lat="42.930121030658484" lon="-8.123826971277595">
        <ele>353.30000000000001</ele>
        <time>2018-05-20T07:42:46Z</time>
      </trkpt>
      <trkpt lat="42.930121030658484" lon="-8.12377299182117">
        <ele>353.89999999999998</ele>
        <time>2018-05-20T07:42:47Z</time>
      </trkpt>
      <trkpt lat="42.930121030658484" lon="-8.123704008758068">
        <ele>354.69999999999999</ele>
        <time>2018-05-20T07:42:49Z</time>
      </trkpt>
      <trkpt lat="42.930121030658484" lon="-8.123640976846218">
        <ele>355.5</ele>
        <time>2018-05-20T07:42:50Z</time>
      </trkpt>
      <trkpt lat="42.930129999294877" lon="-8.123594960197806">
        <ele>356.19999999999999</ele>
        <time>2018-05-20T07:42:51Z</time>
      </trkpt>
      <trkpt lat="42.930129999294877" lon="-8.123532012104988">
        <ele>356.89999999999998</ele>
        <time>2018-05-20T07:42:53Z</time>
      </trkpt>
      <trkpt lat="42.930129999294877" lon="-8.123456994071603">
        <ele>357.89999999999998</ele>
        <time>2018-05-20T07:42:54Z</time>
      </trkpt>
      <trkpt lat="42.930129999294877" lon="-8.123381976038218">
        <ele>358.80000000000001</ele>
        <time>2018-05-20T07:42:56Z</time>
      </trkpt>
      <trkpt lat="42.930129999294877" lon="-8.123291032388806">
        <ele>359.89999999999998</ele>
        <time>2018-05-20T07:42:58Z</time>
      </trkpt>
      <trkpt lat="42.930139973759651" lon="-8.123221965506673">
        <ele>360.89999999999998</ele>
        <time>2018-05-20T07:42:59Z</time>
      </trkpt>
      <trkpt lat="42.930139973759651" lon="-8.123147031292319">
        <ele>361.80000000000001</ele>
        <time>2018-05-20T07:43:01Z</time>
      </trkpt>
      <trkpt lat="42.930139973759651" lon="-8.123054997995496">
        <ele>363</ele>
        <time>2018-05-20T07:43:03Z</time>
      </trkpt>
      <trkpt lat="42.930139973759651" lon="-8.122986014932394">
        <ele>363.80000000000001</ele>
        <time>2018-05-20T07:43:05Z</time>
      </trkpt>
      <trkpt lat="42.93013502843678" lon="-8.122900016605854">
        <ele>364.80000000000001</ele>
        <time>2018-05-20T07:43:06Z</time>
      </trkpt>
      <trkpt lat="42.930129999294877" lon="-8.122843019664288">
        <ele>365.60000000000002</ele>
        <time>2018-05-20T07:43:08Z</time>
      </trkpt>
      <trkpt lat="42.930121030658484" lon="-8.122774036601186">
        <ele>366.39999999999998</ele>
        <time>2018-05-20T07:43:09Z</time>
      </trkpt>
      <trkpt lat="42.930116001516581" lon="-8.122721984982491">
        <ele>367</ele>
        <time>2018-05-20T07:43:10Z</time>
      </trkpt>
      <trkpt lat="42.930111978203058" lon="-8.122642021626234">
        <ele>368.10000000000002</ele>
        <time>2018-05-20T07:43:12Z</time>
      </trkpt>
      <trkpt lat="42.930102003738284" lon="-8.122577983886004">
        <ele>368.80000000000001</ele>
        <time>2018-05-20T07:43:14Z</time>
      </trkpt>
      <trkpt lat="42.930079037323594" lon="-8.122527021914721">
        <ele>369.19999999999999</ele>
        <time>2018-05-20T07:43:15Z</time>
      </trkpt>
      <trkpt lat="42.930041989311576" lon="-8.122498020529747">
        <ele>369.10000000000002</ele>
        <time>2018-05-20T07:43:16Z</time>
      </trkpt>
      <trkpt lat="42.930001001805067" lon="-8.122452003881335">
        <ele>369.10000000000002</ele>
        <time>2018-05-20T07:43:18Z</time>
      </trkpt>
      <trkpt lat="42.929981974884868" lon="-8.122391989454627">
        <ele>369.69999999999999</ele>
        <time>2018-05-20T07:43:19Z</time>
      </trkpt>
      <trkpt lat="42.929964037612081" lon="-8.122345972806215">
        <ele>370</ele>
        <time>2018-05-20T07:43:20Z</time>
      </trkpt>
      <trkpt lat="42.929948028177023" lon="-8.122299034148455">
        <ele>370.39999999999998</ele>
        <time>2018-05-20T07:43:21Z</time>
      </trkpt>
      <trkpt lat="42.92994299903512" lon="-8.122241031378508">
        <ele>371.10000000000002</ele>
        <time>2018-05-20T07:43:23Z</time>
      </trkpt>
      <trkpt lat="42.92994299903512" lon="-8.122184034436941">
        <ele>371.89999999999998</ele>
        <time>2018-05-20T07:43:24Z</time>
      </trkpt>
      <trkpt lat="42.92994299903512" lon="-8.122131982818246">
        <ele>372.5</ele>
        <time>2018-05-20T07:43:25Z</time>
      </trkpt>
      <trkpt lat="42.929938975721598" lon="-8.122052019461989">
        <ele>373.5</ele>
        <time>2018-05-20T07:43:27Z</time>
      </trkpt>
      <trkpt lat="42.929927995428443" lon="-8.121977001428604">
        <ele>374.30000000000001</ele>
        <time>2018-05-20T07:43:29Z</time>
      </trkpt>
      <trkpt lat="42.929913997650146" lon="-8.121806010603905">
        <ele>376.30000000000001</ele>
        <time>2018-05-20T07:43:32Z</time>
      </trkpt>
      <trkpt lat="42.929852977395058" lon="-8.121536029502749">
        <ele>378.89999999999998</ele>
        <time>2018-05-20T07:43:38Z</time>
      </trkpt>
      <trkpt lat="42.929852977395058" lon="-8.121528988704085">
        <ele>379</ele>
        <time>2018-05-20T07:43:39Z</time>
      </trkpt>
      <trkpt lat="42.929780976846814" lon="-8.121232017874718">
        <ele>381.69999999999999</ele>
        <time>2018-05-20T07:43:45Z</time>
      </trkpt>
      <trkpt lat="42.929775025695562" lon="-8.121207961812615">
        <ele>381.89999999999998</ele>
        <time>2018-05-20T07:43:46Z</time>
      </trkpt>
      <trkpt lat="42.929704030975699" lon="-8.120975028723478">
        <ele>382.80000000000001</ele>
        <time>2018-05-20T07:43:51Z</time>
      </trkpt>
      <trkpt lat="42.929654996842146" lon="-8.120714016258717">
        <ele>384.30000000000001</ele>
        <time>2018-05-20T07:43:57Z</time>
      </trkpt>
      <trkpt lat="42.929654996842146" lon="-8.120703035965562">
        <ele>384.39999999999998</ele>
        <time>2018-05-20T07:43:58Z</time>
      </trkpt>
      <trkpt lat="42.929650973528624" lon="-8.120650984346867">
        <ele>384.80000000000001</ele>
        <time>2018-05-20T07:43:59Z</time>
      </trkpt>
      <trkpt lat="42.929632030427456" lon="-8.120588036254048">
        <ele>385.10000000000002</ele>
        <time>2018-05-20T07:44:00Z</time>
      </trkpt>
      <trkpt lat="42.929627001285553" lon="-8.120530033484101">
        <ele>385.5</ele>
        <time>2018-05-20T07:44:01Z</time>
      </trkpt>
      <trkpt lat="42.92959900572896" lon="-8.120489967986941">
        <ele>385.60000000000002</ele>
        <time>2018-05-20T07:44:03Z</time>
      </trkpt>
      <trkpt lat="42.929571010172367" lon="-8.120460966601968">
        <ele>385.60000000000002</ele>
        <time>2018-05-20T07:44:04Z</time>
      </trkpt>
      <trkpt lat="42.929533962160349" lon="-8.120432971045375">
        <ele>385.80000000000001</ele>
        <time>2018-05-20T07:44:05Z</time>
      </trkpt>
      <trkpt lat="42.929496997967362" lon="-8.120403969660401">
        <ele>385.89999999999998</ele>
        <time>2018-05-20T07:44:06Z</time>
      </trkpt>
      <trkpt lat="42.929473025724292" lon="-8.120363987982273">
        <ele>386</ele>
        <time>2018-05-20T07:44:07Z</time>
      </trkpt>
      <trkpt lat="42.929438995197415" lon="-8.120256029069424">
        <ele>386.30000000000001</ele>
        <time>2018-05-20T07:44:10Z</time>
      </trkpt>
      <trkpt lat="42.929458022117615" lon="-8.120214035734534">
        <ele>386.39999999999998</ele>
        <time>2018-05-20T07:44:11Z</time>
      </trkpt>
      <trkpt lat="42.929480988532305" lon="-8.120168019086123">
        <ele>386.5</ele>
        <time>2018-05-20T07:44:12Z</time>
      </trkpt>
      <trkpt lat="42.929490962997079" lon="-8.120122002437711">
        <ele>386.60000000000002</ele>
        <time>2018-05-20T07:44:13Z</time>
      </trkpt>
      <trkpt lat="42.929514013230801" lon="-8.120070034638047">
        <ele>386.60000000000002</ele>
        <time>2018-05-20T07:44:14Z</time>
      </trkpt>
      <trkpt lat="42.929532034322619" lon="-8.120018988847733">
        <ele>386.69999999999999</ele>
        <time>2018-05-20T07:44:16Z</time>
      </trkpt>
      <trkpt lat="42.929542008787394" lon="-8.119972972199321">
        <ele>386.69999999999999</ele>
        <time>2018-05-20T07:44:17Z</time>
      </trkpt>
      <trkpt lat="42.929542008787394" lon="-8.119898037984967">
        <ele>386.80000000000001</ele>
        <time>2018-05-20T07:44:18Z</time>
      </trkpt>
      <trkpt lat="42.929542008787394" lon="-8.119841041043401">
        <ele>386.89999999999998</ele>
        <time>2018-05-20T07:44:20Z</time>
      </trkpt>
      <trkpt lat="42.929532034322619" lon="-8.11979703605175">
        <ele>387</ele>
        <time>2018-05-20T07:44:21Z</time>
      </trkpt>
      <trkpt lat="42.929528011009097" lon="-8.119722018018365">
        <ele>387.19999999999999</ele>
        <time>2018-05-20T07:44:22Z</time>
      </trkpt>
      <trkpt lat="42.929528011009097" lon="-8.11966996639967">
        <ele>387.30000000000001</ele>
        <time>2018-05-20T07:44:23Z</time>
      </trkpt>
      <trkpt lat="42.929522981867194" lon="-8.119611041620374">
        <ele>387.5</ele>
        <time>2018-05-20T07:44:25Z</time>
      </trkpt>
      <trkpt lat="42.929518036544323" lon="-8.119553038850427">
        <ele>387.69999999999999</ele>
        <time>2018-05-20T07:44:26Z</time>
      </trkpt>
      <trkpt lat="42.929508984088898" lon="-8.119480032473803">
        <ele>388.30000000000001</ele>
        <time>2018-05-20T07:44:28Z</time>
      </trkpt>
      <trkpt lat="42.929508984088898" lon="-8.11939001083374">
        <ele>388.80000000000001</ele>
        <time>2018-05-20T07:44:29Z</time>
      </trkpt>
      <trkpt lat="42.929490962997079" lon="-8.119162023067474">
        <ele>390.39999999999998</ele>
        <time>2018-05-20T07:44:34Z</time>
      </trkpt>
      <trkpt lat="42.929490962997079" lon="-8.118998995050788">
        <ele>391.39999999999998</ele>
        <time>2018-05-20T07:44:38Z</time>
      </trkpt>
      <trkpt lat="42.929472019895911" lon="-8.118733037263155">
        <ele>393.19999999999999</ele>
        <time>2018-05-20T07:44:44Z</time>
      </trkpt>
      <trkpt lat="42.929472019895911" lon="-8.11872499063611">
        <ele>393.30000000000001</ele>
        <time>2018-05-20T07:44:44Z</time>
      </trkpt>
      <trkpt lat="42.929451987147331" lon="-8.118534972891212">
        <ele>393.89999999999998</ele>
        <time>2018-05-20T07:44:48Z</time>
      </trkpt>
      <trkpt lat="42.929391972720623" lon="-8.118154015392065">
        <ele>395.30000000000001</ele>
        <time>2018-05-20T07:44:57Z</time>
      </trkpt>
      <trkpt lat="42.929312009364367" lon="-8.117710025981069">
        <ele>397</ele>
        <time>2018-05-20T07:45:07Z</time>
      </trkpt>
      <trkpt lat="42.929265992715955" lon="-8.117378018796444">
        <ele>398.10000000000002</ele>
        <time>2018-05-20T07:45:14Z</time>
      </trkpt>
      <trkpt lat="42.929171025753021" lon="-8.116934029385448">
        <ele>400.30000000000001</ele>
        <time>2018-05-20T07:45:24Z</time>
      </trkpt>
      <trkpt lat="42.929081004112959" lon="-8.116441005840898">
        <ele>403.80000000000001</ele>
        <time>2018-05-20T07:45:35Z</time>
      </trkpt>
      <trkpt lat="42.929001040756702" lon="-8.115968015044928">
        <ele>408.5</ele>
        <time>2018-05-20T07:45:46Z</time>
      </trkpt>
      <trkpt lat="42.928902972489595" lon="-8.115471974015236">
        <ele>414.80000000000001</ele>
        <time>2018-05-20T07:45:57Z</time>
      </trkpt>
      <trkpt lat="42.928808005526662" lon="-8.114981967955828">
        <ele>418</ele>
        <time>2018-05-20T07:46:08Z</time>
      </trkpt>
      <trkpt lat="42.928742961958051" lon="-8.114592963829637">
        <ele>420</ele>
        <time>2018-05-20T07:46:16Z</time>
      </trkpt>
      <trkpt lat="42.928660986945033" lon="-8.114256011322141">
        <ele>422.10000000000002</ele>
        <time>2018-05-20T07:46:24Z</time>
      </trkpt>
      <trkpt lat="42.928660986945033" lon="-8.114247964695096">
        <ele>422.10000000000002</ele>
        <time>2018-05-20T07:46:24Z</time>
      </trkpt>
      <trkpt lat="42.928604995831847" lon="-8.114004973322153">
        <ele>423.60000000000002</ele>
        <time>2018-05-20T07:46:30Z</time>
      </trkpt>
      <trkpt lat="42.928595021367073" lon="-8.11395401135087">
        <ele>424</ele>
        <time>2018-05-20T07:46:31Z</time>
      </trkpt>
      <trkpt lat="42.928577000275254" lon="-8.113885028287768">
        <ele>424.39999999999998</ele>
        <time>2018-05-20T07:46:33Z</time>
      </trkpt>
      <trkpt lat="42.928557973355055" lon="-8.113832976669073">
        <ele>424.80000000000001</ele>
        <time>2018-05-20T07:46:34Z</time>
      </trkpt>
      <trkpt lat="42.928539030253887" lon="-8.113757958635688">
        <ele>425.19999999999999</ele>
        <time>2018-05-20T07:46:36Z</time>
      </trkpt>
      <trkpt lat="42.928515980020165" lon="-8.113712025806308">
        <ele>425.69999999999999</ele>
        <time>2018-05-20T07:46:37Z</time>
      </trkpt>
      <trkpt lat="42.928487984463573" lon="-8.113655028864741">
        <ele>426.39999999999998</ele>
        <time>2018-05-20T07:46:38Z</time>
      </trkpt>
      <trkpt lat="42.928454959765077" lon="-8.113614041358233">
        <ele>426.89999999999998</ele>
        <time>2018-05-20T07:46:40Z</time>
      </trkpt>
      <trkpt lat="42.928257985040545" lon="-8.113447995856404">
        <ele>429.19999999999999</ele>
        <time>2018-05-20T07:46:47Z</time>
      </trkpt>
      <trkpt lat="42.928099986165762" lon="-8.113297037780285">
        <ele>431</ele>
        <time>2018-05-20T07:46:52Z</time>
      </trkpt>
      <trkpt lat="42.927977023646235" lon="-8.113198969513178">
        <ele>432.10000000000002</ele>
        <time>2018-05-20T07:46:56Z</time>
      </trkpt>
      <trkpt lat="42.927959002554417" lon="-8.113169968128204">
        <ele>432.30000000000001</ele>
        <time>2018-05-20T07:46:57Z</time>
      </trkpt>
      <trkpt lat="42.92792103253305" lon="-8.113112971186638">
        <ele>432.80000000000001</ele>
        <time>2018-05-20T07:46:59Z</time>
      </trkpt>
      <trkpt lat="42.927883984521031" lon="-8.11307298950851">
        <ele>433.30000000000001</ele>
        <time>2018-05-20T07:47:00Z</time>
      </trkpt>
      <trkpt lat="42.927847020328045" lon="-8.113055974245071">
        <ele>433.60000000000002</ele>
        <time>2018-05-20T07:47:02Z</time>
      </trkpt>
      <trkpt lat="42.927799997851253" lon="-8.113043988123536">
        <ele>433.89999999999998</ele>
        <time>2018-05-20T07:47:03Z</time>
      </trkpt>
      <trkpt lat="42.92775297537446" lon="-8.113043988123536">
        <ele>434.10000000000002</ele>
        <time>2018-05-20T07:47:04Z</time>
      </trkpt>
      <trkpt lat="42.927711987867951" lon="-8.11305002309382">
        <ele>434.30000000000001</ele>
        <time>2018-05-20T07:47:06Z</time>
      </trkpt>
      <trkpt lat="42.927669994533062" lon="-8.11305002309382">
        <ele>434.60000000000002</ele>
        <time>2018-05-20T07:47:07Z</time>
      </trkpt>
      <trkpt lat="42.927618026733398" lon="-8.11305002309382">
        <ele>434.80000000000001</ele>
        <time>2018-05-20T07:47:08Z</time>
      </trkpt>
      <trkpt lat="42.927576033398509" lon="-8.11305002309382">
        <ele>435.10000000000002</ele>
        <time>2018-05-20T07:47:10Z</time>
      </trkpt>
      <trkpt lat="42.92753404006362" lon="-8.113026972860098">
        <ele>435.30000000000001</ele>
        <time>2018-05-20T07:47:11Z</time>
      </trkpt>
      <trkpt lat="42.927488023415208" lon="-8.11298699118197">
        <ele>435.60000000000002</ele>
        <time>2018-05-20T07:47:13Z</time>
      </trkpt>
      <trkpt lat="42.927446030080318" lon="-8.112952038645744">
        <ele>435.69999999999999</ele>
        <time>2018-05-20T07:47:14Z</time>
      </trkpt>
      <trkpt lat="42.927413005381823" lon="-8.11292395927012">
        <ele>435.80000000000001</ele>
        <time>2018-05-20T07:47:15Z</time>
      </trkpt>
      <trkpt lat="42.92738500982523" lon="-8.112895041704178">
        <ele>435.69999999999999</ele>
        <time>2018-05-20T07:47:16Z</time>
      </trkpt>
      <trkpt lat="42.927347961813211" lon="-8.112842990085483">
        <ele>435.30000000000001</ele>
        <time>2018-05-20T07:47:18Z</time>
      </trkpt>
      <trkpt lat="42.927295994013548" lon="-8.112803008407354">
        <ele>435</ele>
        <time>2018-05-20T07:47:20Z</time>
      </trkpt>
      <trkpt lat="42.927259029820561" lon="-8.112756991758943">
        <ele>434.5</ele>
        <time>2018-05-20T07:47:21Z</time>
      </trkpt>
      <trkpt lat="42.927207984030247" lon="-8.112710975110531">
        <ele>434.10000000000002</ele>
        <time>2018-05-20T07:47:23Z</time>
      </trkpt>
      <trkpt lat="42.927189040929079" lon="-8.112653978168964">
        <ele>433.39999999999998</ele>
        <time>2018-05-20T07:47:24Z</time>
      </trkpt>
      <trkpt lat="42.927137995138764" lon="-8.112573008984327">
        <ele>432.5</ele>
        <time>2018-05-20T07:47:27Z</time>
      </trkpt>
      <trkpt lat="42.927137995138764" lon="-8.112516012042761">
        <ele>431.69999999999999</ele>
        <time>2018-05-20T07:47:28Z</time>
      </trkpt>
      <trkpt lat="42.927151992917061" lon="-8.112469995394349">
        <ele>431.19999999999999</ele>
        <time>2018-05-20T07:47:29Z</time>
      </trkpt>
      <trkpt lat="42.927185017615557" lon="-8.112423978745937">
        <ele>430.60000000000002</ele>
        <time>2018-05-20T07:47:30Z</time>
      </trkpt>
      <trkpt lat="42.927203038707376" lon="-8.112377962097526">
        <ele>430.10000000000002</ele>
        <time>2018-05-20T07:47:31Z</time>
      </trkpt>
      <trkpt lat="42.927227010950446" lon="-8.112337980419397">
        <ele>429.69999999999999</ele>
        <time>2018-05-20T07:47:33Z</time>
      </trkpt>
      <trkpt lat="42.927249977365136" lon="-8.112291963770986">
        <ele>429.19999999999999</ele>
        <time>2018-05-20T07:47:34Z</time>
      </trkpt>
      <trkpt lat="42.927277972921729" lon="-8.112246030941606">
        <ele>428.80000000000001</ele>
        <time>2018-05-20T07:47:35Z</time>
      </trkpt>
      <trkpt lat="42.927309991791844" lon="-8.112205965444446">
        <ele>428.39999999999998</ele>
        <time>2018-05-20T07:47:36Z</time>
      </trkpt>
      <trkpt lat="42.92734301649034" lon="-8.112158020958304">
        <ele>428</ele>
        <time>2018-05-20T07:47:38Z</time>
      </trkpt>
      <trkpt lat="42.927384003996849" lon="-8.112115021795034">
        <ele>427.80000000000001</ele>
        <time>2018-05-20T07:47:39Z</time>
      </trkpt>
      <trkpt lat="42.927464973181486" lon="-8.112000022083521">
        <ele>426.60000000000002</ele>
        <time>2018-05-20T07:47:43Z</time>
      </trkpt>
      <trkpt lat="42.927630012854934" lon="-8.111779997125268">
        <ele>424.5</ele>
        <time>2018-05-20T07:47:50Z</time>
      </trkpt>
      <trkpt lat="42.927755992859602" lon="-8.111554021015763">
        <ele>422.39999999999998</ele>
        <time>2018-05-20T07:47:56Z</time>
      </trkpt>
      <trkpt lat="42.927910974249244" lon="-8.111302983015776">
        <ele>420.60000000000002</ele>
        <time>2018-05-20T07:48:03Z</time>
      </trkpt>
      <trkpt lat="42.927916003391147" lon="-8.11129099689424">
        <ele>420.5</ele>
        <time>2018-05-20T07:48:03Z</time>
      </trkpt>
      <trkpt lat="42.927938969805837" lon="-8.111244980245829">
        <ele>420.10000000000002</ele>
        <time>2018-05-20T07:48:04Z</time>
      </trkpt>
      <trkpt lat="42.927957996726036" lon="-8.111194018274546">
        <ele>419.39999999999998</ele>
        <time>2018-05-20T07:48:06Z</time>
      </trkpt>
      <trkpt lat="42.927977023646235" lon="-8.11114196665585">
        <ele>418.60000000000002</ele>
        <time>2018-05-20T07:48:07Z</time>
      </trkpt>
      <trkpt lat="42.927991021424532" lon="-8.111089998856187">
        <ele>417.89999999999998</ele>
        <time>2018-05-20T07:48:08Z</time>
      </trkpt>
      <trkpt lat="42.928019016981125" lon="-8.111050017178059">
        <ele>417.39999999999998</ele>
        <time>2018-05-20T07:48:09Z</time>
      </trkpt>
      <trkpt lat="42.928047012537718" lon="-8.111004000529647">
        <ele>416.89999999999998</ele>
        <time>2018-05-20T07:48:11Z</time>
      </trkpt>
      <trkpt lat="42.928069978952408" lon="-8.110962007194758">
        <ele>416.30000000000001</ele>
        <time>2018-05-20T07:48:12Z</time>
      </trkpt>
      <trkpt lat="42.928108032792807" lon="-8.110815994441509">
        <ele>414.19999999999999</ele>
        <time>2018-05-20T07:48:15Z</time>
      </trkpt>
      <trkpt lat="42.928112978115678" lon="-8.110793028026819">
        <ele>413.89999999999998</ele>
        <time>2018-05-20T07:48:16Z</time>
      </trkpt>
      <trkpt lat="42.928122030571103" lon="-8.110729996114969">
        <ele>412.89999999999998</ele>
        <time>2018-05-20T07:48:17Z</time>
      </trkpt>
      <trkpt lat="42.928132005035877" lon="-8.110654978081584">
        <ele>411.69999999999999</ele>
        <time>2018-05-20T07:48:19Z</time>
      </trkpt>
      <trkpt lat="42.928132005035877" lon="-8.110597981140018">
        <ele>410.80000000000001</ele>
        <time>2018-05-20T07:48:20Z</time>
      </trkpt>
      <trkpt lat="42.928132005035877" lon="-8.110528998076916">
        <ele>409.69999999999999</ele>
        <time>2018-05-20T07:48:22Z</time>
      </trkpt>
      <trkpt lat="42.928132005035877" lon="-8.110472001135349">
        <ele>408.69999999999999</ele>
        <time>2018-05-20T07:48:23Z</time>
      </trkpt>
      <trkpt lat="42.928132005035877" lon="-8.110408969223499">
        <ele>407.80000000000001</ele>
        <time>2018-05-20T07:48:24Z</time>
      </trkpt>
      <trkpt lat="42.928132005035877" lon="-8.110334035009146">
        <ele>407.19999999999999</ele>
        <time>2018-05-20T07:48:26Z</time>
      </trkpt>
      <trkpt lat="42.928132005035877" lon="-8.110276032239199">
        <ele>406.80000000000001</ele>
        <time>2018-05-20T07:48:27Z</time>
      </trkpt>
      <trkpt lat="42.928132005035877" lon="-8.110213000327349">
        <ele>406.30000000000001</ele>
        <time>2018-05-20T07:48:29Z</time>
      </trkpt>
      <trkpt lat="42.9281360283494" lon="-8.110156003385782">
        <ele>406</ele>
        <time>2018-05-20T07:48:30Z</time>
      </trkpt>
      <trkpt lat="42.9281360283494" lon="-8.110087020322681">
        <ele>405.39999999999998</ele>
        <time>2018-05-20T07:48:31Z</time>
      </trkpt>
      <trkpt lat="42.928146002814174" lon="-8.110034968703985">
        <ele>405.10000000000002</ele>
        <time>2018-05-20T07:48:32Z</time>
      </trkpt>
      <trkpt lat="42.928146002814174" lon="-8.109977971762419">
        <ele>404.69999999999999</ele>
        <time>2018-05-20T07:48:34Z</time>
      </trkpt>
      <trkpt lat="42.928146002814174" lon="-8.109926003962755">
        <ele>404.30000000000001</ele>
        <time>2018-05-20T07:48:35Z</time>
      </trkpt>
      <trkpt lat="42.928146002814174" lon="-8.109869007021189">
        <ele>403.89999999999998</ele>
        <time>2018-05-20T07:48:36Z</time>
      </trkpt>
      <trkpt lat="42.92813896201551" lon="-8.109806980937719">
        <ele>403.39999999999998</ele>
        <time>2018-05-20T07:48:37Z</time>
      </trkpt>
      <trkpt lat="42.928133010864258" lon="-8.109750989824534">
        <ele>403</ele>
        <time>2018-05-20T07:48:39Z</time>
      </trkpt>
      <trkpt lat="42.928133010864258" lon="-8.109693992882967">
        <ele>402.60000000000002</ele>
        <time>2018-05-20T07:48:40Z</time>
      </trkpt>
      <trkpt lat="42.928127981722355" lon="-8.109630038961768">
        <ele>402.10000000000002</ele>
        <time>2018-05-20T07:48:41Z</time>
      </trkpt>
      <trkpt lat="42.928119013085961" lon="-8.10957295820117">
        <ele>401.69999999999999</ele>
        <time>2018-05-20T07:48:43Z</time>
      </trkpt>
      <trkpt lat="42.928105015307665" lon="-8.10946399345994">
        <ele>401.10000000000002</ele>
        <time>2018-05-20T07:48:45Z</time>
      </trkpt>
      <trkpt lat="42.92809596285224" lon="-8.109412025660276">
        <ele>400.80000000000001</ele>
        <time>2018-05-20T07:48:46Z</time>
      </trkpt>
      <trkpt lat="42.92807400226593" lon="-8.109346982091665">
        <ele>400.39999999999998</ele>
        <time>2018-05-20T07:48:48Z</time>
      </trkpt>
      <trkpt lat="42.928063021972775" lon="-8.109293002635241">
        <ele>400.10000000000002</ele>
        <time>2018-05-20T07:48:49Z</time>
      </trkpt>
      <trkpt lat="42.927974006161094" lon="-8.108981028199196">
        <ele>398.30000000000001</ele>
        <time>2018-05-20T07:48:56Z</time>
      </trkpt>
      <trkpt lat="42.92787803336978" lon="-8.108619013801217">
        <ele>396.10000000000002</ele>
        <time>2018-05-20T07:49:05Z</time>
      </trkpt>
      <trkpt lat="42.927754987031221" lon="-8.108194973319769">
        <ele>393.39999999999998</ele>
        <time>2018-05-20T07:49:14Z</time>
      </trkpt>
      <trkpt lat="42.927654990926385" lon="-8.107818039134145">
        <ele>391.60000000000002</ele>
        <time>2018-05-20T07:49:23Z</time>
      </trkpt>
      <trkpt lat="42.927538985386491" lon="-8.107368014752865">
        <ele>390.5</ele>
        <time>2018-05-20T07:49:34Z</time>
      </trkpt>
      <trkpt lat="42.927435971796513" lon="-8.106981022283435">
        <ele>389.5</ele>
        <time>2018-05-20T07:49:42Z</time>
      </trkpt>
      <trkpt lat="42.927285013720393" lon="-8.106501996517181">
        <ele>387.89999999999998</ele>
        <time>2018-05-20T07:49:54Z</time>
      </trkpt>
      <trkpt lat="42.927156016230583" lon="-8.106029005721211">
        <ele>386.39999999999998</ele>
        <time>2018-05-20T07:50:05Z</time>
      </trkpt>
      <trkpt lat="42.927062977105379" lon="-8.105669002979994">
        <ele>384.80000000000001</ele>
        <time>2018-05-20T07:50:13Z</time>
      </trkpt>
      <trkpt lat="42.926889974623919" lon="-8.105151001363993">
        <ele>382.69999999999999</ele>
        <time>2018-05-20T07:50:25Z</time>
      </trkpt>
      <trkpt lat="42.926889974623919" lon="-8.10514303855598">
        <ele>382.60000000000002</ele>
        <time>2018-05-20T07:50:26Z</time>
      </trkpt>
      <trkpt lat="42.926772041246295" lon="-8.104750011116266">
        <ele>381.19999999999999</ele>
        <time>2018-05-20T07:50:35Z</time>
      </trkpt>
      <trkpt lat="42.926696017384529" lon="-8.104507019743323">
        <ele>380.60000000000002</ele>
        <time>2018-05-20T07:50:40Z</time>
      </trkpt>
      <trkpt lat="42.926686964929104" lon="-8.104496039450169">
        <ele>380.60000000000002</ele>
        <time>2018-05-20T07:50:41Z</time>
      </trkpt>
      <trkpt lat="42.926658969372511" lon="-8.104438036680222">
        <ele>380.60000000000002</ele>
        <time>2018-05-20T07:50:42Z</time>
      </trkpt>
      <trkpt lat="42.92661203071475" lon="-8.104352038353682">
        <ele>380.60000000000002</ele>
        <time>2018-05-20T07:50:45Z</time>
      </trkpt>
      <trkpt lat="42.926570037379861" lon="-8.104295041412115">
        <ele>380.60000000000002</ele>
        <time>2018-05-20T07:50:46Z</time>
      </trkpt>
      <trkpt lat="42.926542041823268" lon="-8.104266040027142">
        <ele>380.60000000000002</ele>
        <time>2018-05-20T07:50:47Z</time>
      </trkpt>
      <trkpt lat="42.926509017124772" lon="-8.10424298979342">
        <ele>380.60000000000002</ele>
        <time>2018-05-20T07:50:49Z</time>
      </trkpt>
      <trkpt lat="42.926471969112754" lon="-8.104237038642168">
        <ele>380.60000000000002</ele>
        <time>2018-05-20T07:50:50Z</time>
      </trkpt>
      <trkpt lat="42.926429975777864" lon="-8.104232009500265">
        <ele>380.5</ele>
        <time>2018-05-20T07:50:51Z</time>
      </trkpt>
      <trkpt lat="42.926387982442975" lon="-8.104225974529982">
        <ele>380.5</ele>
        <time>2018-05-20T07:50:52Z</time>
      </trkpt>
      <trkpt lat="42.926351018249989" lon="-8.10422002337873">
        <ele>380.5</ele>
        <time>2018-05-20T07:50:53Z</time>
      </trkpt>
      <trkpt lat="42.92631397023797" lon="-8.104208959266543">
        <ele>380.5</ele>
        <time>2018-05-20T07:50:54Z</time>
      </trkpt>
      <trkpt lat="42.92626703158021" lon="-8.104185992851853">
        <ele>380.5</ele>
        <time>2018-05-20T07:50:56Z</time>
      </trkpt>
      <trkpt lat="42.926215985789895" lon="-8.104185992851853">
        <ele>380.39999999999998</ele>
        <time>2018-05-20T07:50:57Z</time>
      </trkpt>
      <trkpt lat="42.926178015768528" lon="-8.104174006730318">
        <ele>380.39999999999998</ele>
        <time>2018-05-20T07:50:58Z</time>
      </trkpt>
      <trkpt lat="42.926131999120116" lon="-8.104163026437163">
        <ele>380.39999999999998</ele>
        <time>2018-05-20T07:51:00Z</time>
      </trkpt>
      <trkpt lat="42.926084976643324" lon="-8.10415699146688">
        <ele>380.30000000000001</ele>
        <time>2018-05-20T07:51:01Z</time>
      </trkpt>
      <trkpt lat="42.926042983308434" lon="-8.10415699146688">
        <ele>380.30000000000001</ele>
        <time>2018-05-20T07:51:03Z</time>
      </trkpt>
      <trkpt lat="42.926006019115448" lon="-8.104145005345345">
        <ele>380.19999999999999</ele>
        <time>2018-05-20T07:51:04Z</time>
      </trkpt>
      <trkpt lat="42.92596897110343" lon="-8.10413402505219">
        <ele>380.19999999999999</ele>
        <time>2018-05-20T07:51:05Z</time>
      </trkpt>
      <trkpt lat="42.925931001082063" lon="-8.104122038930655">
        <ele>380.19999999999999</ele>
        <time>2018-05-20T07:51:06Z</time>
      </trkpt>
      <trkpt lat="42.925894036889076" lon="-8.104110974818468">
        <ele>380.19999999999999</ele>
        <time>2018-05-20T07:51:07Z</time>
      </trkpt>
      <trkpt lat="42.925847014412284" lon="-8.10409395955503">
        <ele>380.19999999999999</ele>
        <time>2018-05-20T07:51:08Z</time>
      </trkpt>
      <trkpt lat="42.925809966400266" lon="-8.104076022282243">
        <ele>380.19999999999999</ele>
        <time>2018-05-20T07:51:10Z</time>
      </trkpt>
      <trkpt lat="42.925776019692421" lon="-8.104063030332327">
        <ele>380.19999999999999</ele>
        <time>2018-05-20T07:51:11Z</time>
      </trkpt>
      <trkpt lat="42.925742994993925" lon="-8.104039980098605">
        <ele>380.19999999999999</ele>
        <time>2018-05-20T07:51:12Z</time>
      </trkpt>
      <trkpt lat="42.925709970295429" lon="-8.104017013683915">
        <ele>380.30000000000001</ele>
        <time>2018-05-20T07:51:13Z</time>
      </trkpt>
      <trkpt lat="42.925673006102443" lon="-8.103999998420477">
        <ele>380.30000000000001</ele>
        <time>2018-05-20T07:51:14Z</time>
      </trkpt>
      <trkpt lat="42.925636041909456" lon="-8.103960016742349">
        <ele>380.39999999999998</ele>
        <time>2018-05-20T07:51:15Z</time>
      </trkpt>
      <trkpt lat="42.925606034696102" lon="-8.103911988437176">
        <ele>380.5</ele>
        <time>2018-05-20T07:51:17Z</time>
      </trkpt>
      <trkpt lat="42.925574015825987" lon="-8.103889022022486">
        <ele>380.60000000000002</ele>
        <time>2018-05-20T07:51:18Z</time>
      </trkpt>
      <trkpt lat="42.925532022491097" lon="-8.103860020637512">
        <ele>380.60000000000002</ele>
        <time>2018-05-20T07:51:19Z</time>
      </trkpt>
      <trkpt lat="42.925493968650699" lon="-8.103848034515977">
        <ele>380.69999999999999</ele>
        <time>2018-05-20T07:51:20Z</time>
      </trkpt>
      <trkpt lat="42.925457004457712" lon="-8.103803023695946">
        <ele>380.80000000000001</ele>
        <time>2018-05-20T07:51:22Z</time>
      </trkpt>
      <trkpt lat="42.925405958667397" lon="-8.103738985955715">
        <ele>381.19999999999999</ele>
        <time>2018-05-20T07:51:24Z</time>
      </trkpt>
      <trkpt lat="42.92538701556623" lon="-8.103676037862897">
        <ele>382.39999999999998</ele>
        <time>2018-05-20T07:51:25Z</time>
      </trkpt>
      <trkpt lat="42.92536798864603" lon="-8.103630021214485">
        <ele>383.19999999999999</ele>
        <time>2018-05-20T07:51:27Z</time>
      </trkpt>
      <trkpt lat="42.925349967554212" lon="-8.103595990687609">
        <ele>383.89999999999998</ele>
        <time>2018-05-20T07:51:28Z</time>
      </trkpt>
      <trkpt lat="42.925335969775915" lon="-8.103544022887945">
        <ele>384.80000000000001</ele>
        <time>2018-05-20T07:51:29Z</time>
      </trkpt>
      <trkpt lat="42.925307974219322" lon="-8.103504041209817">
        <ele>385.60000000000002</ele>
        <time>2018-05-20T07:51:30Z</time>
      </trkpt>
      <trkpt lat="42.925274027511477" lon="-8.10346900485456">
        <ele>386.39999999999998</ele>
        <time>2018-05-20T07:51:31Z</time>
      </trkpt>
      <trkpt lat="42.925191968679428" lon="-8.103303965181112">
        <ele>389.60000000000002</ele>
        <time>2018-05-20T07:51:36Z</time>
      </trkpt>
      <trkpt lat="42.925191968679428" lon="-8.103310000151396">
        <ele>389.5</ele>
        <time>2018-05-20T07:51:36Z</time>
      </trkpt>
      <trkpt lat="42.925102030858397" lon="-8.103043958544731">
        <ele>394.30000000000001</ele>
        <time>2018-05-20T07:51:42Z</time>
      </trkpt>
      <trkpt lat="42.924992982298136" lon="-8.102719997987151">
        <ele>398.10000000000002</ele>
        <time>2018-05-20T07:51:50Z</time>
      </trkpt>
      <trkpt lat="42.924879994243383" lon="-8.102397965267301">
        <ele>400.80000000000001</ele>
        <time>2018-05-20T07:51:58Z</time>
      </trkpt>
      <trkpt lat="42.924739010632038" lon="-8.101850040256977">
        <ele>404</ele>
        <time>2018-05-20T07:52:10Z</time>
      </trkpt>
      <trkpt lat="42.924728030338883" lon="-8.101844005286694">
        <ele>404.10000000000002</ele>
        <time>2018-05-20T07:52:11Z</time>
      </trkpt>
      <trkpt lat="42.924672039225698" lon="-8.101625991985202">
        <ele>404.89999999999998</ele>
        <time>2018-05-20T07:52:16Z</time>
      </trkpt>
      <trkpt lat="42.924672039225698" lon="-8.10162004083395">
        <ele>404.89999999999998</ele>
        <time>2018-05-20T07:52:16Z</time>
      </trkpt>
      <trkpt lat="42.924661980941892" lon="-8.101451983675361">
        <ele>405.19999999999999</ele>
        <time>2018-05-20T07:52:20Z</time>
      </trkpt>
      <trkpt lat="42.924661980941892" lon="-8.101232964545488">
        <ele>405.39999999999998</ele>
        <time>2018-05-20T07:52:24Z</time>
      </trkpt>
      <trkpt lat="42.924661980941892" lon="-8.100801967084408">
        <ele>405</ele>
        <time>2018-05-20T07:52:34Z</time>
      </trkpt>
      <trkpt lat="42.924667010083795" lon="-8.100555036216974">
        <ele>404.69999999999999</ele>
        <time>2018-05-20T07:52:39Z</time>
      </trkpt>
      <trkpt lat="42.924672961235046" lon="-8.10054799541831">
        <ele>404.69999999999999</ele>
        <time>2018-05-20T07:52:39Z</time>
      </trkpt>
      <trkpt lat="42.924677990376949" lon="-8.100346997380257">
        <ele>404.80000000000001</ele>
        <time>2018-05-20T07:52:44Z</time>
      </trkpt>
      <trkpt lat="42.924684025347233" lon="-8.10028899461031">
        <ele>405</ele>
        <time>2018-05-20T07:52:45Z</time>
      </trkpt>
      <trkpt lat="42.924684025347233" lon="-8.100043991580606">
        <ele>405.89999999999998</ele>
        <time>2018-05-20T07:52:50Z</time>
      </trkpt>
      <trkpt lat="42.924684025347233" lon="-8.099818015471101">
        <ele>406.69999999999999</ele>
        <time>2018-05-20T07:52:55Z</time>
      </trkpt>
      <trkpt lat="42.924703974276781" lon="-8.099480979144573">
        <ele>407.60000000000002</ele>
        <time>2018-05-20T07:53:02Z</time>
      </trkpt>
      <trkpt lat="42.924703974276781" lon="-8.099468993023038">
        <ele>407.60000000000002</ele>
        <time>2018-05-20T07:53:03Z</time>
      </trkpt>
      <trkpt lat="42.924703974276781" lon="-8.099411996081471">
        <ele>407.69999999999999</ele>
        <time>2018-05-20T07:53:04Z</time>
      </trkpt>
      <trkpt lat="42.924703974276781" lon="-8.099360028281808">
        <ele>407.80000000000001</ele>
        <time>2018-05-20T07:53:05Z</time>
      </trkpt>
      <trkpt lat="42.924703974276781" lon="-8.099290961399674">
        <ele>408</ele>
        <time>2018-05-20T07:53:07Z</time>
      </trkpt>
      <trkpt lat="42.924703974276781" lon="-8.099221978336573">
        <ele>408.10000000000002</ele>
        <time>2018-05-20T07:53:08Z</time>
      </trkpt>
      <trkpt lat="42.924703974276781" lon="-8.099118964746594">
        <ele>408.30000000000001</ele>
        <time>2018-05-20T07:53:10Z</time>
      </trkpt>
      <trkpt lat="42.924703974276781" lon="-8.099044030532241">
        <ele>408.39999999999998</ele>
        <time>2018-05-20T07:53:12Z</time>
      </trkpt>
      <trkpt lat="42.92470003478229" lon="-8.098991978913546">
        <ele>408.5</ele>
        <time>2018-05-20T07:53:13Z</time>
      </trkpt>
      <trkpt lat="42.924686037003994" lon="-8.098912015557289">
        <ele>408.69999999999999</ele>
        <time>2018-05-20T07:53:15Z</time>
      </trkpt>
      <trkpt lat="42.924675978720188" lon="-8.098848983645439">
        <ele>408.80000000000001</ele>
        <time>2018-05-20T07:53:16Z</time>
      </trkpt>
      <trkpt lat="42.924653012305498" lon="-8.098780000582337">
        <ele>409</ele>
        <time>2018-05-20T07:53:18Z</time>
      </trkpt>
      <trkpt lat="42.924625016748905" lon="-8.098711017519236">
        <ele>409.10000000000002</ele>
        <time>2018-05-20T07:53:20Z</time>
      </trkpt>
      <trkpt lat="42.924611018970609" lon="-8.098642034456134">
        <ele>409.30000000000001</ele>
        <time>2018-05-20T07:53:21Z</time>
      </trkpt>
      <trkpt lat="42.924611018970609" lon="-8.09855000115931">
        <ele>409.5</ele>
        <time>2018-05-20T07:53:23Z</time>
      </trkpt>
      <trkpt lat="42.924611018970609" lon="-8.098474983125925">
        <ele>409.69999999999999</ele>
        <time>2018-05-20T07:53:25Z</time>
      </trkpt>
      <trkpt lat="42.924611018970609" lon="-8.09840097092092">
        <ele>409.89999999999998</ele>
        <time>2018-05-20T07:53:26Z</time>
      </trkpt>
      <trkpt lat="42.924611018970609" lon="-8.098342968150973">
        <ele>410</ele>
        <time>2018-05-20T07:53:28Z</time>
      </trkpt>
      <trkpt lat="42.924611018970609" lon="-8.098285971209407">
        <ele>410.19999999999999</ele>
        <time>2018-05-20T07:53:29Z</time>
      </trkpt>
      <trkpt lat="42.924611018970609" lon="-8.098216988146305">
        <ele>410.30000000000001</ele>
        <time>2018-05-20T07:53:30Z</time>
      </trkpt>
      <trkpt lat="42.924611018970609" lon="-8.098165020346642">
        <ele>410.5</ele>
        <time>2018-05-20T07:53:31Z</time>
      </trkpt>
      <trkpt lat="42.92461596429348" lon="-8.098108023405075">
        <ele>410.60000000000002</ele>
        <time>2018-05-20T07:53:33Z</time>
      </trkpt>
      <trkpt lat="42.924620993435383" lon="-8.09803300537169">
        <ele>410.80000000000001</ele>
        <time>2018-05-20T07:53:34Z</time>
      </trkpt>
      <trkpt lat="42.924625016748905" lon="-8.097981959581375">
        <ele>411</ele>
        <time>2018-05-20T07:53:35Z</time>
      </trkpt>
      <trkpt lat="42.924633985385299" lon="-8.097936026751995">
        <ele>411.10000000000002</ele>
        <time>2018-05-20T07:53:36Z</time>
      </trkpt>
      <trkpt lat="42.924643959850073" lon="-8.0978839751333">
        <ele>411.19999999999999</ele>
        <time>2018-05-20T07:53:38Z</time>
      </trkpt>
      <trkpt lat="42.924647983163595" lon="-8.097832007333636">
        <ele>411.10000000000002</ele>
        <time>2018-05-20T07:53:39Z</time>
      </trkpt>
      <trkpt lat="42.924653012305498" lon="-8.097763024270535">
        <ele>410.89999999999998</ele>
        <time>2018-05-20T07:53:40Z</time>
      </trkpt>
      <trkpt lat="42.924667010083795" lon="-8.097706027328968">
        <ele>410.89999999999998</ele>
        <time>2018-05-20T07:53:42Z</time>
      </trkpt>
      <trkpt lat="42.924681007862091" lon="-8.097648024559021">
        <ele>410.89999999999998</ele>
        <time>2018-05-20T07:53:43Z</time>
      </trkpt>
      <trkpt lat="42.924695005640388" lon="-8.097596978768706">
        <ele>410.80000000000001</ele>
        <time>2018-05-20T07:53:44Z</time>
      </trkpt>
      <trkpt lat="42.924717972055078" lon="-8.097527995705605">
        <ele>410.89999999999998</ele>
        <time>2018-05-20T07:53:46Z</time>
      </trkpt>
      <trkpt lat="42.924731969833374" lon="-8.097481979057193">
        <ele>410.89999999999998</ele>
        <time>2018-05-20T07:53:47Z</time>
      </trkpt>
      <trkpt lat="42.92474596761167" lon="-8.097419030964375">
        <ele>410.89999999999998</ele>
        <time>2018-05-20T07:53:48Z</time>
      </trkpt>
      <trkpt lat="42.924756025895476" lon="-8.097368991002441">
        <ele>410.89999999999998</ele>
        <time>2018-05-20T07:53:49Z</time>
      </trkpt>
      <trkpt lat="42.924756025895476" lon="-8.097293972969055">
        <ele>410.69999999999999</ele>
        <time>2018-05-20T07:53:51Z</time>
      </trkpt>
      <trkpt lat="42.924750996753573" lon="-8.097207974642515">
        <ele>410.60000000000002</ele>
        <time>2018-05-20T07:53:53Z</time>
      </trkpt>
      <trkpt lat="42.924750996753573" lon="-8.097138991579413">
        <ele>410.5</ele>
        <time>2018-05-20T07:53:54Z</time>
      </trkpt>
      <trkpt lat="42.92474596761167" lon="-8.097070008516312">
        <ele>410.39999999999998</ele>
        <time>2018-05-20T07:53:56Z</time>
      </trkpt>
      <trkpt lat="42.924728030338883" lon="-8.097018040716648">
        <ele>410.19999999999999</ele>
        <time>2018-05-20T07:53:57Z</time>
      </trkpt>
      <trkpt lat="42.92470003478229" lon="-8.096944028511643">
        <ele>410</ele>
        <time>2018-05-20T07:53:59Z</time>
      </trkpt>
      <trkpt lat="42.924681007862091" lon="-8.096898011863232">
        <ele>409.80000000000001</ele>
        <time>2018-05-20T07:54:00Z</time>
      </trkpt>
      <trkpt lat="42.924633985385299" lon="-8.096759961917996">
        <ele>409.39999999999998</ele>
        <time>2018-05-20T07:54:03Z</time>
      </trkpt>
      <trkpt lat="42.924620993435383" lon="-8.09670296497643">
        <ele>409.30000000000001</ele>
        <time>2018-05-20T07:54:05Z</time>
      </trkpt>
      <trkpt lat="42.924597021192312" lon="-8.096644962206483">
        <ele>409.10000000000002</ele>
        <time>2018-05-20T07:54:06Z</time>
      </trkpt>
      <trkpt lat="42.924583023414016" lon="-8.096592994406819">
        <ele>409</ele>
        <time>2018-05-20T07:54:07Z</time>
      </trkpt>
      <trkpt lat="42.924565002322197" lon="-8.096535997465253">
        <ele>408.89999999999998</ele>
        <time>2018-05-20T07:54:09Z</time>
      </trkpt>
      <trkpt lat="42.924545975401998" lon="-8.096467014402151">
        <ele>408.69999999999999</ele>
        <time>2018-05-20T07:54:10Z</time>
      </trkpt>
      <trkpt lat="42.92452703230083" lon="-8.096420997753739">
        <ele>408.60000000000002</ele>
        <time>2018-05-20T07:54:11Z</time>
      </trkpt>
      <trkpt lat="42.924509011209011" lon="-8.096364000812173">
        <ele>408.5</ele>
        <time>2018-05-20T07:54:13Z</time>
      </trkpt>
      <trkpt lat="42.92448503896594" lon="-8.096283031627536">
        <ele>408.30000000000001</ele>
        <time>2018-05-20T07:54:15Z</time>
      </trkpt>
      <trkpt lat="42.924471041187644" lon="-8.096231985837221">
        <ele>408.19999999999999</ele>
        <time>2018-05-20T07:54:16Z</time>
      </trkpt>
      <trkpt lat="42.924453020095825" lon="-8.096163002774119">
        <ele>408.10000000000002</ele>
        <time>2018-05-20T07:54:17Z</time>
      </trkpt>
      <trkpt lat="42.924442961812019" lon="-8.096111034974456">
        <ele>408</ele>
        <time>2018-05-20T07:54:19Z</time>
      </trkpt>
      <trkpt lat="42.924433993175626" lon="-8.096041968092322">
        <ele>407.89999999999998</ele>
        <time>2018-05-20T07:54:20Z</time>
      </trkpt>
      <trkpt lat="42.924414966255426" lon="-8.095984971150756">
        <ele>407.80000000000001</ele>
        <time>2018-05-20T07:54:21Z</time>
      </trkpt>
      <trkpt lat="42.924397028982639" lon="-8.095915988087654">
        <ele>407.69999999999999</ele>
        <time>2018-05-20T07:54:23Z</time>
      </trkpt>
      <trkpt lat="42.924386970698833" lon="-8.095857985317707">
        <ele>407.60000000000002</ele>
        <time>2018-05-20T07:54:24Z</time>
      </trkpt>
      <trkpt lat="42.924372972920537" lon="-8.095807023346424">
        <ele>407.5</ele>
        <time>2018-05-20T07:54:25Z</time>
      </trkpt>
      <trkpt lat="42.924350006505847" lon="-8.095720019191504">
        <ele>407.30000000000001</ele>
        <time>2018-05-20T07:54:28Z</time>
      </trkpt>
      <trkpt lat="42.924322010949254" lon="-8.095646006986499">
        <ele>407.10000000000002</ele>
        <time>2018-05-20T07:54:29Z</time>
      </trkpt>
      <trkpt lat="42.924308013170958" lon="-8.095588004216552">
        <ele>407</ele>
        <time>2018-05-20T07:54:31Z</time>
      </trkpt>
      <trkpt lat="42.924284962937236" lon="-8.095495970919728">
        <ele>406.89999999999998</ele>
        <time>2018-05-20T07:54:33Z</time>
      </trkpt>
      <trkpt lat="42.924270965158939" lon="-8.095445008948445">
        <ele>406.80000000000001</ele>
        <time>2018-05-20T07:54:34Z</time>
      </trkpt>
      <trkpt lat="42.924242969602346" lon="-8.095376025885344">
        <ele>406.60000000000002</ele>
        <time>2018-05-20T07:54:36Z</time>
      </trkpt>
      <trkpt lat="42.924214974045753" lon="-8.095318023115397">
        <ele>406.30000000000001</ele>
        <time>2018-05-20T07:54:37Z</time>
      </trkpt>
      <trkpt lat="42.924196030944586" lon="-8.095272006466985">
        <ele>406.19999999999999</ele>
        <time>2018-05-20T07:54:38Z</time>
      </trkpt>
      <trkpt lat="42.924172980710864" lon="-8.095225989818573">
        <ele>406</ele>
        <time>2018-05-20T07:54:39Z</time>
      </trkpt>
      <trkpt lat="42.924130987375975" lon="-8.095151977613568">
        <ele>405.69999999999999</ele>
        <time>2018-05-20T07:54:42Z</time>
      </trkpt>
      <trkpt lat="42.924108020961285" lon="-8.09511199593544">
        <ele>405.60000000000002</ele>
        <time>2018-05-20T07:54:43Z</time>
      </trkpt>
      <trkpt lat="42.924074996262789" lon="-8.095071008428931">
        <ele>405.30000000000001</ele>
        <time>2018-05-20T07:54:44Z</time>
      </trkpt>
      <trkpt lat="42.924038032069802" lon="-8.095031026750803">
        <ele>405.10000000000002</ele>
        <time>2018-05-20T07:54:45Z</time>
      </trkpt>
      <trkpt lat="42.924005007371306" lon="-8.094978975132108">
        <ele>404.80000000000001</ele>
        <time>2018-05-20T07:54:47Z</time>
      </trkpt>
      <trkpt lat="42.923977011814713" lon="-8.09493899345398">
        <ele>404.60000000000002</ele>
        <time>2018-05-20T07:54:48Z</time>
      </trkpt>
      <trkpt lat="42.923949016258121" lon="-8.094899011775851">
        <ele>404.39999999999998</ele>
        <time>2018-05-20T07:54:49Z</time>
      </trkpt>
      <trkpt lat="42.923921020701528" lon="-8.094835979864001">
        <ele>404.19999999999999</ele>
        <time>2018-05-20T07:54:51Z</time>
      </trkpt>
      <trkpt lat="42.923887996003032" lon="-8.09478996321559">
        <ele>404</ele>
        <time>2018-05-20T07:54:52Z</time>
      </trkpt>
      <trkpt lat="42.923860000446439" lon="-8.094749981537461">
        <ele>403.80000000000001</ele>
        <time>2018-05-20T07:54:53Z</time>
      </trkpt>
      <trkpt lat="42.923827981576324" lon="-8.09470396488905">
        <ele>403.60000000000002</ele>
        <time>2018-05-20T07:54:55Z</time>
      </trkpt>
      <trkpt lat="42.923805015161633" lon="-8.09465803205967">
        <ele>403.39999999999998</ele>
        <time>2018-05-20T07:54:56Z</time>
      </trkpt>
      <trkpt lat="42.923771990463138" lon="-8.094612015411258">
        <ele>403.19999999999999</ele>
        <time>2018-05-20T07:54:57Z</time>
      </trkpt>
      <trkpt lat="42.923750029876828" lon="-8.094565998762846">
        <ele>403</ele>
        <time>2018-05-20T07:54:59Z</time>
      </trkpt>
      <trkpt lat="42.923492034897208" lon="-8.094333987683058">
        <ele>402.10000000000002</ele>
        <time>2018-05-20T07:55:08Z</time>
      </trkpt>
      <trkpt lat="42.923264969140291" lon="-8.094128966331482">
        <ele>401.5</ele>
        <time>2018-05-20T07:55:16Z</time>
      </trkpt>
      <trkpt lat="42.922992976382375" lon="-8.093940038233995">
        <ele>400.69999999999999</ele>
        <time>2018-05-20T07:55:25Z</time>
      </trkpt>
      <trkpt lat="42.922710003331304" lon="-8.093697968870401">
        <ele>401.39999999999998</ele>
        <time>2018-05-20T07:55:35Z</time>
      </trkpt>
      <trkpt lat="42.922441028058529" lon="-8.093451038002968">
        <ele>402.19999999999999</ele>
        <time>2018-05-20T07:55:44Z</time>
      </trkpt>
      <trkpt lat="42.922434993088245" lon="-8.093451038002968">
        <ele>402.19999999999999</ele>
        <time>2018-05-20T07:55:44Z</time>
      </trkpt>
      <trkpt lat="42.922265008091927" lon="-8.09334802441299">
        <ele>402.5</ele>
        <time>2018-05-20T07:55:50Z</time>
      </trkpt>
      <trkpt lat="42.922008018940687" lon="-8.093180973082781">
        <ele>402.39999999999998</ele>
        <time>2018-05-20T07:55:58Z</time>
      </trkpt>
      <trkpt lat="42.921782964840531" lon="-8.09305096976459">
        <ele>402</ele>
        <time>2018-05-20T07:56:06Z</time>
      </trkpt>
      <trkpt lat="42.921538967639208" lon="-8.092959020286799">
        <ele>401.60000000000002</ele>
        <time>2018-05-20T07:56:13Z</time>
      </trkpt>
      <trkpt lat="42.921203020960093" lon="-8.092780988663435">
        <ele>400.19999999999999</ele>
        <time>2018-05-20T07:56:24Z</time>
      </trkpt>
      <trkpt lat="42.921203020960093" lon="-8.092774031683803">
        <ele>400.10000000000002</ele>
        <time>2018-05-20T07:56:24Z</time>
      </trkpt>
      <trkpt lat="42.921165972948074" lon="-8.092767996713519">
        <ele>400</ele>
        <time>2018-05-20T07:56:25Z</time>
      </trkpt>
      <trkpt lat="42.921129008755088" lon="-8.092750981450081">
        <ele>399.80000000000001</ele>
        <time>2018-05-20T07:56:26Z</time>
      </trkpt>
      <trkpt lat="42.921091038733721" lon="-8.092745030298829">
        <ele>399.60000000000002</ele>
        <time>2018-05-20T07:56:27Z</time>
      </trkpt>
      <trkpt lat="42.9210489615798" lon="-8.092721980065107">
        <ele>399.39999999999998</ele>
        <time>2018-05-20T07:56:29Z</time>
      </trkpt>
      <trkpt lat="42.92100302875042" lon="-8.092699013650417">
        <ele>399.19999999999999</ele>
        <time>2018-05-20T07:56:30Z</time>
      </trkpt>
      <trkpt lat="42.92096103541553" lon="-8.092692978680134">
        <ele>399</ele>
        <time>2018-05-20T07:56:31Z</time>
      </trkpt>
      <trkpt lat="42.920922981575131" lon="-8.092670012265444">
        <ele>398.80000000000001</ele>
        <time>2018-05-20T07:56:33Z</time>
      </trkpt>
      <trkpt lat="42.920872019603848" lon="-8.092652997002006">
        <ele>398.60000000000002</ele>
        <time>2018-05-20T07:56:34Z</time>
      </trkpt>
      <trkpt lat="42.920830026268959" lon="-8.092623995617032">
        <ele>398.5</ele>
        <time>2018-05-20T07:56:36Z</time>
      </trkpt>
      <trkpt lat="42.920778980478644" lon="-8.092589965090156">
        <ele>398.30000000000001</ele>
        <time>2018-05-20T07:56:37Z</time>
      </trkpt>
      <trkpt lat="42.92074603959918" lon="-8.092560963705182">
        <ele>398.19999999999999</ele>
        <time>2018-05-20T07:56:38Z</time>
      </trkpt>
      <trkpt lat="42.920694993808866" lon="-8.092520982027054">
        <ele>398</ele>
        <time>2018-05-20T07:56:40Z</time>
      </trkpt>
      <trkpt lat="42.920658029615879" lon="-8.092486029490829">
        <ele>397.89999999999998</ele>
        <time>2018-05-20T07:56:41Z</time>
      </trkpt>
      <trkpt lat="42.92061997577548" lon="-8.092462979257107">
        <ele>397.89999999999998</ele>
        <time>2018-05-20T07:56:43Z</time>
      </trkpt>
      <trkpt lat="42.920583011582494" lon="-8.092422997578979">
        <ele>397.80000000000001</ele>
        <time>2018-05-20T07:56:44Z</time>
      </trkpt>
      <trkpt lat="42.920545963570476" lon="-8.092376980930567">
        <ele>397.80000000000001</ele>
        <time>2018-05-20T07:56:46Z</time>
      </trkpt>
      <trkpt lat="42.920513022691011" lon="-8.092330964282155">
        <ele>397.80000000000001</ele>
        <time>2018-05-20T07:56:47Z</time>
      </trkpt>
      <trkpt lat="42.920479997992516" lon="-8.092285031452775">
        <ele>397.80000000000001</ele>
        <time>2018-05-20T07:56:48Z</time>
      </trkpt>
      <trkpt lat="42.920443033799529" lon="-8.09223398566246">
        <ele>397.80000000000001</ele>
        <time>2018-05-20T07:56:50Z</time>
      </trkpt>
      <trkpt lat="42.920413026586175" lon="-8.09219098649919">
        <ele>397.89999999999998</ele>
        <time>2018-05-20T07:56:51Z</time>
      </trkpt>
      <trkpt lat="42.920389976352453" lon="-8.092157039791346">
        <ele>397.80000000000001</ele>
        <time>2018-05-20T07:56:52Z</time>
      </trkpt>
      <trkpt lat="42.920357035472989" lon="-8.09210498817265">
        <ele>397.69999999999999</ele>
        <time>2018-05-20T07:56:54Z</time>
      </trkpt>
      <trkpt lat="42.920333985239267" lon="-8.092058971524239">
        <ele>397.39999999999998</ele>
        <time>2018-05-20T07:56:55Z</time>
      </trkpt>
      <trkpt lat="42.920297021046281" lon="-8.092001974582672">
        <ele>396.80000000000001</ele>
        <time>2018-05-20T07:56:57Z</time>
      </trkpt>
      <trkpt lat="42.920263996347785" lon="-8.091950006783009">
        <ele>396.30000000000001</ele>
        <time>2018-05-20T07:56:58Z</time>
      </trkpt>
      <trkpt lat="42.920236000791192" lon="-8.09191002510488">
        <ele>395.89999999999998</ele>
        <time>2018-05-20T07:56:59Z</time>
      </trkpt>
      <trkpt lat="42.920213034376502" lon="-8.091864008456469">
        <ele>395.39999999999998</ele>
        <time>2018-05-20T07:57:01Z</time>
      </trkpt>
      <trkpt lat="42.920180009678006" lon="-8.09182402677834">
        <ele>395</ele>
        <time>2018-05-20T07:57:02Z</time>
      </trkpt>
      <trkpt lat="42.920142961665988" lon="-8.091788990423083">
        <ele>394.60000000000002</ele>
        <time>2018-05-20T07:57:03Z</time>
      </trkpt>
      <trkpt lat="42.920100968331099" lon="-8.091749008744955">
        <ele>394.10000000000002</ele>
        <time>2018-05-20T07:57:05Z</time>
      </trkpt>
      <trkpt lat="42.920068027451634" lon="-8.091721013188362">
        <ele>393.69999999999999</ele>
        <time>2018-05-20T07:57:06Z</time>
      </trkpt>
      <trkpt lat="42.920030979439616" lon="-8.091692011803389">
        <ele>393.30000000000001</ele>
        <time>2018-05-20T07:57:07Z</time>
      </trkpt>
      <trkpt lat="42.919998038560152" lon="-8.091645995154977">
        <ele>392.80000000000001</ele>
        <time>2018-05-20T07:57:08Z</time>
      </trkpt>
      <trkpt lat="42.919966019690037" lon="-8.09158799238503">
        <ele>392.30000000000001</ele>
        <time>2018-05-20T07:57:10Z</time>
      </trkpt>
      <trkpt lat="42.919938024133444" lon="-8.091548010706902">
        <ele>391.80000000000001</ele>
        <time>2018-05-20T07:57:11Z</time>
      </trkpt>
      <trkpt lat="42.919899970293045" lon="-8.091491013765335">
        <ele>391.30000000000001</ele>
        <time>2018-05-20T07:57:13Z</time>
      </trkpt>
      <trkpt lat="42.919871974736452" lon="-8.091455977410078">
        <ele>390.89999999999998</ele>
        <time>2018-05-20T07:57:14Z</time>
      </trkpt>
      <trkpt lat="42.919840039685369" lon="-8.09141599573195">
        <ele>390.39999999999998</ele>
        <time>2018-05-20T07:57:15Z</time>
      </trkpt>
      <trkpt lat="42.919807014986873" lon="-8.091386994346976">
        <ele>390.10000000000002</ele>
        <time>2018-05-20T07:57:17Z</time>
      </trkpt>
      <trkpt lat="42.919783964753151" lon="-8.091340977698565">
        <ele>389.60000000000002</ele>
        <time>2018-05-20T07:57:18Z</time>
      </trkpt>
      <trkpt lat="42.919755969196558" lon="-8.091300996020436">
        <ele>389.19999999999999</ele>
        <time>2018-05-20T07:57:19Z</time>
      </trkpt>
      <trkpt lat="42.919727973639965" lon="-8.091254979372025">
        <ele>388.69999999999999</ele>
        <time>2018-05-20T07:57:20Z</time>
      </trkpt>
      <trkpt lat="42.919695032760501" lon="-8.091197982430458">
        <ele>387.80000000000001</ele>
        <time>2018-05-20T07:57:22Z</time>
      </trkpt>
      <trkpt lat="42.919663013890386" lon="-8.091163029894233">
        <ele>387.10000000000002</ele>
        <time>2018-05-20T07:57:23Z</time>
      </trkpt>
      <trkpt lat="42.919627977535129" lon="-8.091133022680879">
        <ele>386.5</ele>
        <time>2018-05-20T07:57:24Z</time>
      </trkpt>
      <trkpt lat="42.919610040262341" lon="-8.091087006032467">
        <ele>385.60000000000002</ele>
        <time>2018-05-20T07:57:25Z</time>
      </trkpt>
      <trkpt lat="42.919591013342142" lon="-8.091040989384055">
        <ele>384.80000000000001</ele>
        <time>2018-05-20T07:57:27Z</time>
      </trkpt>
      <trkpt lat="42.919563017785549" lon="-8.090982986614108">
        <ele>384</ele>
        <time>2018-05-20T07:57:28Z</time>
      </trkpt>
      <trkpt lat="42.919539967551827" lon="-8.09094300493598">
        <ele>383.5</ele>
        <time>2018-05-20T07:57:29Z</time>
      </trkpt>
      <trkpt lat="42.91952102445066" lon="-8.090891959145665">
        <ele>382.89999999999998</ele>
        <time>2018-05-20T07:57:31Z</time>
      </trkpt>
      <trkpt lat="42.919507026672363" lon="-8.090828005224466">
        <ele>382</ele>
        <time>2018-05-20T07:57:32Z</time>
      </trkpt>
      <trkpt lat="42.919497974216938" lon="-8.090759022161365">
        <ele>381.10000000000002</ele>
        <time>2018-05-20T07:57:34Z</time>
      </trkpt>
      <trkpt lat="42.919489005580544" lon="-8.09070797637105">
        <ele>380.39999999999998</ele>
        <time>2018-05-20T07:57:35Z</time>
      </trkpt>
      <trkpt lat="42.919489005580544" lon="-8.090649973601103">
        <ele>379.5</ele>
        <time>2018-05-20T07:57:36Z</time>
      </trkpt>
      <trkpt lat="42.919483976438642" lon="-8.090580990538001">
        <ele>378.5</ele>
        <time>2018-05-20T07:57:37Z</time>
      </trkpt>
      <trkpt lat="42.91947903111577" lon="-8.090477976948023">
        <ele>377</ele>
        <time>2018-05-20T07:57:40Z</time>
      </trkpt>
      <trkpt lat="42.91947903111577" lon="-8.090420980006456">
        <ele>376.19999999999999</ele>
        <time>2018-05-20T07:57:41Z</time>
      </trkpt>
      <trkpt lat="42.919469978660345" lon="-8.090316960588098">
        <ele>375.10000000000002</ele>
        <time>2018-05-20T07:57:43Z</time>
      </trkpt>
      <trkpt lat="42.919469978660345" lon="-8.090256024152041">
        <ele>374.30000000000001</ele>
        <time>2018-05-20T07:57:45Z</time>
      </trkpt>
      <trkpt lat="42.919424967840314" lon="-8.090002974495292">
        <ele>371.5</ele>
        <time>2018-05-20T07:57:50Z</time>
      </trkpt>
      <trkpt lat="42.919424967840314" lon="-8.089974978938699">
        <ele>371.19999999999999</ele>
        <time>2018-05-20T07:57:51Z</time>
      </trkpt>
      <trkpt lat="42.919424967840314" lon="-8.089883029460907">
        <ele>370</ele>
        <time>2018-05-20T07:57:53Z</time>
      </trkpt>
      <trkpt lat="42.91941499337554" lon="-8.089837012812495">
        <ele>369.39999999999998</ele>
        <time>2018-05-20T07:57:54Z</time>
      </trkpt>
      <trkpt lat="42.919410970062017" lon="-8.089779010042548">
        <ele>368.69999999999999</ele>
        <time>2018-05-20T07:57:55Z</time>
      </trkpt>
      <trkpt lat="42.919396972283721" lon="-8.089704997837544">
        <ele>367.69999999999999</ele>
        <time>2018-05-20T07:57:57Z</time>
      </trkpt>
      <trkpt lat="42.919378029182553" lon="-8.089640960097313">
        <ele>366.80000000000001</ele>
        <time>2018-05-20T07:57:58Z</time>
      </trkpt>
      <trkpt lat="42.919368976727128" lon="-8.08958999812603">
        <ele>366.10000000000002</ele>
        <time>2018-05-20T07:58:00Z</time>
      </trkpt>
      <trkpt lat="42.91935003362596" lon="-8.089531995356083">
        <ele>365.30000000000001</ele>
        <time>2018-05-20T07:58:01Z</time>
      </trkpt>
      <trkpt lat="42.919322038069367" lon="-8.089439962059259">
        <ele>364.10000000000002</ele>
        <time>2018-05-20T07:58:03Z</time>
      </trkpt>
      <trkpt lat="42.919304016977549" lon="-8.089370978996158">
        <ele>363.10000000000002</ele>
        <time>2018-05-20T07:58:05Z</time>
      </trkpt>
      <trkpt lat="42.919270992279053" lon="-8.089308030903339">
        <ele>362.10000000000002</ele>
        <time>2018-05-20T07:58:07Z</time>
      </trkpt>
      <trkpt lat="42.919248025864363" lon="-8.089251033961773">
        <ele>361.19999999999999</ele>
        <time>2018-05-20T07:58:08Z</time>
      </trkpt>
      <trkpt lat="42.91922003030777" lon="-8.089188002049923">
        <ele>360.10000000000002</ele>
        <time>2018-05-20T07:58:10Z</time>
      </trkpt>
      <trkpt lat="42.919192034751177" lon="-8.089112984016538">
        <ele>358.80000000000001</ele>
        <time>2018-05-20T07:58:11Z</time>
      </trkpt>
      <trkpt lat="42.919176025316119" lon="-8.089063027873635">
        <ele>357.89999999999998</ele>
        <time>2018-05-20T07:58:13Z</time>
      </trkpt>
      <trkpt lat="42.919152975082397" lon="-8.089022962376475">
        <ele>357.10000000000002</ele>
        <time>2018-05-20T07:58:14Z</time>
      </trkpt>
      <trkpt lat="42.919125985354185" lon="-8.08896697126329">
        <ele>356</ele>
        <time>2018-05-20T07:58:15Z</time>
      </trkpt>
      <trkpt lat="42.91909203864634" lon="-8.088937969878316">
        <ele>355.10000000000002</ele>
        <time>2018-05-20T07:58:16Z</time>
      </trkpt>
      <trkpt lat="42.919054990634322" lon="-8.088944004848599">
        <ele>354.69999999999999</ele>
        <time>2018-05-20T07:58:18Z</time>
      </trkpt>
      <trkpt lat="42.919021965935826" lon="-8.08896697126329">
        <ele>354.60000000000002</ele>
        <time>2018-05-20T07:58:19Z</time>
      </trkpt>
      <trkpt lat="42.918975027278066" lon="-8.089002007618547">
        <ele>354.60000000000002</ele>
        <time>2018-05-20T07:58:20Z</time>
      </trkpt>
      <trkpt lat="42.918937979266047" lon="-8.089041989296675">
        <ele>354.80000000000001</ele>
        <time>2018-05-20T07:58:22Z</time>
      </trkpt>
      <trkpt lat="42.918905038386583" lon="-8.089065039530397">
        <ele>354.80000000000001</ele>
        <time>2018-05-20T07:58:23Z</time>
      </trkpt>
      <trkpt lat="42.918867990374565" lon="-8.089105021208525">
        <ele>355.10000000000002</ele>
        <time>2018-05-20T07:58:24Z</time>
      </trkpt>
      <trkpt lat="42.918811999261379" lon="-8.089151037856937">
        <ele>355.30000000000001</ele>
        <time>2018-05-20T07:58:26Z</time>
      </trkpt>
      <trkpt lat="42.918775035068393" lon="-8.089191019535065">
        <ele>355.69999999999999</ele>
        <time>2018-05-20T07:58:27Z</time>
      </trkpt>
      <trkpt lat="42.918742010369897" lon="-8.089213985949755">
        <ele>355.89999999999998</ele>
        <time>2018-05-20T07:58:29Z</time>
      </trkpt>
      <trkpt lat="42.918709991499782" lon="-8.089242987334728">
        <ele>356.39999999999998</ele>
        <time>2018-05-20T07:58:30Z</time>
      </trkpt>
      <trkpt lat="42.918672021478415" lon="-8.089253967627883">
        <ele>356.60000000000002</ele>
        <time>2018-05-20T07:58:31Z</time>
      </trkpt>
      <trkpt lat="42.918634973466396" lon="-8.08926603756845">
        <ele>356.80000000000001</ele>
        <time>2018-05-20T07:58:32Z</time>
      </trkpt>
      <trkpt lat="42.918588034808636" lon="-8.08926603756845">
        <ele>356.69999999999999</ele>
        <time>2018-05-20T07:58:33Z</time>
      </trkpt>
      <trkpt lat="42.918550986796618" lon="-8.089242987334728">
        <ele>356.19999999999999</ele>
        <time>2018-05-20T07:58:35Z</time>
      </trkpt>
      <trkpt lat="42.918519973754883" lon="-8.089208034798503">
        <ele>355.39999999999998</ele>
        <time>2018-05-20T07:58:36Z</time>
      </trkpt>
      <trkpt lat="42.918519973754883" lon="-8.089149026200175">
        <ele>354.10000000000002</ele>
        <time>2018-05-20T07:58:37Z</time>
      </trkpt>
      <trkpt lat="42.918519973754883" lon="-8.089094962924719">
        <ele>352.89999999999998</ele>
        <time>2018-05-20T07:58:38Z</time>
      </trkpt>
      <trkpt lat="42.918523997068405" lon="-8.089032014831901">
        <ele>351.5</ele>
        <time>2018-05-20T07:58:40Z</time>
      </trkpt>
      <trkpt lat="42.918529026210308" lon="-8.088975017890334">
        <ele>350.30000000000001</ele>
        <time>2018-05-20T07:58:41Z</time>
      </trkpt>
      <trkpt lat="42.918537994846702" lon="-8.088917015120387">
        <ele>349.10000000000002</ele>
        <time>2018-05-20T07:58:42Z</time>
      </trkpt>
      <trkpt lat="42.918551992624998" lon="-8.088848032057285">
        <ele>347.69999999999999</ele>
        <time>2018-05-20T07:58:44Z</time>
      </trkpt>
      <trkpt lat="42.918557021766901" lon="-8.088796986266971">
        <ele>346.60000000000002</ele>
        <time>2018-05-20T07:58:45Z</time>
      </trkpt>
      <trkpt lat="42.918561967089772" lon="-8.088745018467307">
        <ele>345.60000000000002</ele>
        <time>2018-05-20T07:58:46Z</time>
      </trkpt>
      <trkpt lat="42.918561967089772" lon="-8.088672012090683">
        <ele>345</ele>
        <time>2018-05-20T07:58:48Z</time>
      </trkpt>
      <trkpt lat="42.918551992624998" lon="-8.088566986843944">
        <ele>344.10000000000002</ele>
        <time>2018-05-20T07:58:50Z</time>
      </trkpt>
      <trkpt lat="42.918551992624998" lon="-8.088395996019244">
        <ele>342.69999999999999</ele>
        <time>2018-05-20T07:58:54Z</time>
      </trkpt>
      <trkpt lat="42.918551992624998" lon="-8.088354002684355">
        <ele>342.39999999999998</ele>
        <time>2018-05-20T07:58:55Z</time>
      </trkpt>
      <trkpt lat="42.918551992624998" lon="-8.088290970772505">
        <ele>341.89999999999998</ele>
        <time>2018-05-20T07:58:56Z</time>
      </trkpt>
      <trkpt lat="42.918551992624998" lon="-8.088239002972841">
        <ele>341.39999999999998</ele>
        <time>2018-05-20T07:58:57Z</time>
      </trkpt>
      <trkpt lat="42.918559033423662" lon="-8.088186029344797">
        <ele>341</ele>
        <time>2018-05-20T07:58:58Z</time>
      </trkpt>
      <trkpt lat="42.918568002060056" lon="-8.088121991604567">
        <ele>340.60000000000002</ele>
        <time>2018-05-20T07:59:00Z</time>
      </trkpt>
      <trkpt lat="42.918587028980255" lon="-8.088058959692717">
        <ele>340.19999999999999</ele>
        <time>2018-05-20T07:59:01Z</time>
      </trkpt>
      <trkpt lat="42.918612007051706" lon="-8.088018978014588">
        <ele>340</ele>
        <time>2018-05-20T07:59:03Z</time>
      </trkpt>
      <trkpt lat="42.918626004830003" lon="-8.087967010214925">
        <ele>339.69999999999999</ele>
        <time>2018-05-20T07:59:04Z</time>
      </trkpt>
      <trkpt lat="42.918648971244693" lon="-8.087927028536797">
        <ele>339.5</ele>
        <time>2018-05-20T07:59:05Z</time>
      </trkpt>
      <trkpt lat="42.918667998164892" lon="-8.08787003159523">
        <ele>339.30000000000001</ele>
        <time>2018-05-20T07:59:06Z</time>
      </trkpt>
      <trkpt lat="42.918686019256711" lon="-8.087812028825283">
        <ele>339.10000000000002</ele>
        <time>2018-05-20T07:59:08Z</time>
      </trkpt>
      <trkpt lat="42.918690964579582" lon="-8.087760983034968">
        <ele>338.89999999999998</ele>
        <time>2018-05-20T07:59:09Z</time>
      </trkpt>
      <trkpt lat="42.918690964579582" lon="-8.087693005800247">
        <ele>338.60000000000002</ele>
        <time>2018-05-20T07:59:10Z</time>
      </trkpt>
      <trkpt lat="42.918690964579582" lon="-8.087641960009933">
        <ele>338.39999999999998</ele>
        <time>2018-05-20T07:59:11Z</time>
      </trkpt>
      <trkpt lat="42.918690964579582" lon="-8.087572976946831">
        <ele>338.10000000000002</ele>
        <time>2018-05-20T07:59:13Z</time>
      </trkpt>
      <trkpt lat="42.918690964579582" lon="-8.087514974176884">
        <ele>337.80000000000001</ele>
        <time>2018-05-20T07:59:14Z</time>
      </trkpt>
      <trkpt lat="42.918690964579582" lon="-8.087445991113782">
        <ele>337.5</ele>
        <time>2018-05-20T07:59:15Z</time>
      </trkpt>
      <trkpt lat="42.918686019256711" lon="-8.087388994172216">
        <ele>337.19999999999999</ele>
        <time>2018-05-20T07:59:17Z</time>
      </trkpt>
      <trkpt lat="42.918676966801286" lon="-8.087256979197264">
        <ele>336.5</ele>
        <time>2018-05-20T07:59:20Z</time>
      </trkpt>
      <trkpt lat="42.918676966801286" lon="-8.0872050113976">
        <ele>336.30000000000001</ele>
        <time>2018-05-20T07:59:21Z</time>
      </trkpt>
      <trkpt lat="42.918667998164892" lon="-8.087152037769556">
        <ele>336</ele>
        <time>2018-05-20T07:59:22Z</time>
      </trkpt>
      <trkpt lat="42.918654000386596" lon="-8.087094034999609">
        <ele>335.69999999999999</ele>
        <time>2018-05-20T07:59:23Z</time>
      </trkpt>
      <trkpt lat="42.918644025921822" lon="-8.087028991430998">
        <ele>335.60000000000002</ele>
        <time>2018-05-20T07:59:25Z</time>
      </trkpt>
      <trkpt lat="42.918626004830003" lon="-8.086936958134174">
        <ele>335.5</ele>
        <time>2018-05-20T07:59:27Z</time>
      </trkpt>
      <trkpt lat="42.918616030365229" lon="-8.086879961192608">
        <ele>335.39999999999998</ele>
        <time>2018-05-20T07:59:28Z</time>
      </trkpt>
      <trkpt lat="42.918602032586932" lon="-8.086827993392944">
        <ele>335.39999999999998</ele>
        <time>2018-05-20T07:59:29Z</time>
      </trkpt>
      <trkpt lat="42.918595997616649" lon="-8.086752975359559">
        <ele>335.30000000000001</ele>
        <time>2018-05-20T07:59:31Z</time>
      </trkpt>
      <trkpt lat="42.918581999838352" lon="-8.086683992296457">
        <ele>335.30000000000001</ele>
        <time>2018-05-20T07:59:32Z</time>
      </trkpt>
      <trkpt lat="42.918573031201959" lon="-8.086637975648046">
        <ele>335.30000000000001</ele>
        <time>2018-05-20T07:59:33Z</time>
      </trkpt>
      <trkpt lat="42.918568002060056" lon="-8.086586007848382">
        <ele>335.30000000000001</ele>
        <time>2018-05-20T07:59:35Z</time>
      </trkpt>
      <trkpt lat="42.918562972918153" lon="-8.086511995643377">
        <ele>335.30000000000001</ele>
        <time>2018-05-20T07:59:36Z</time>
      </trkpt>
      <trkpt lat="42.918548975139856" lon="-8.086448963731527">
        <ele>335.19999999999999</ele>
        <time>2018-05-20T07:59:38Z</time>
      </trkpt>
      <trkpt lat="42.918531037867069" lon="-8.086361959576607">
        <ele>335.30000000000001</ele>
        <time>2018-05-20T07:59:40Z</time>
      </trkpt>
      <trkpt lat="42.918526008725166" lon="-8.086286019533873">
        <ele>335.30000000000001</ele>
        <time>2018-05-20T07:59:41Z</time>
      </trkpt>
      <trkpt lat="42.91851201094687" lon="-8.086211001500487">
        <ele>335.5</ele>
        <time>2018-05-20T07:59:43Z</time>
      </trkpt>
      <trkpt lat="42.918506981804967" lon="-8.086159033700824">
        <ele>335.89999999999998</ele>
        <time>2018-05-20T07:59:44Z</time>
      </trkpt>
      <trkpt lat="42.91849298402667" lon="-8.086073035374284">
        <ele>336.5</ele>
        <time>2018-05-20T07:59:46Z</time>
      </trkpt>
      <trkpt lat="42.918484015390277" lon="-8.086010003462434">
        <ele>336.89999999999998</ele>
        <time>2018-05-20T07:59:47Z</time>
      </trkpt>
      <trkpt lat="42.918464988470078" lon="-8.085946971550584">
        <ele>337.39999999999998</ele>
        <time>2018-05-20T07:59:49Z</time>
      </trkpt>
      <trkpt lat="42.918436992913485" lon="-8.08591797016561">
        <ele>337.80000000000001</ele>
        <time>2018-05-20T07:59:50Z</time>
      </trkpt>
      <trkpt lat="42.918413020670414" lon="-8.085863990709186">
        <ele>338.39999999999998</ele>
        <time>2018-05-20T07:59:51Z</time>
      </trkpt>
      <trkpt lat="42.918393993750215" lon="-8.085813028737903">
        <ele>338.89999999999998</ele>
        <time>2018-05-20T07:59:53Z</time>
      </trkpt>
      <trkpt lat="42.918360969051719" lon="-8.085743961855769">
        <ele>339.80000000000001</ele>
        <time>2018-05-20T07:59:54Z</time>
      </trkpt>
      <trkpt lat="42.918343031778932" lon="-8.085698029026389">
        <ele>340.39999999999998</ele>
        <time>2018-05-20T07:59:55Z</time>
      </trkpt>
      <trkpt lat="42.918317969888449" lon="-8.0856560356915">
        <ele>341</ele>
        <time>2018-05-20T07:59:57Z</time>
      </trkpt>
      <trkpt lat="42.918293997645378" lon="-8.085614964365959">
        <ele>341.69999999999999</ele>
        <time>2018-05-20T07:59:58Z</time>
      </trkpt>
      <trkpt lat="42.918271031230688" lon="-8.085564002394676">
        <ele>342.39999999999998</ele>
        <time>2018-05-20T07:59:59Z</time>
      </trkpt>
      <trkpt lat="42.918261978775263" lon="-8.085512034595013">
        <ele>343.10000000000002</ele>
        <time>2018-05-20T08:00:00Z</time>
      </trkpt>
      <trkpt lat="42.918252004310489" lon="-8.085455037653446">
        <ele>343.80000000000001</ele>
        <time>2018-05-20T08:00:02Z</time>
      </trkpt>
      <trkpt lat="42.918237000703812" lon="-8.085386976599693">
        <ele>344.60000000000002</ele>
        <time>2018-05-20T08:00:03Z</time>
      </trkpt>
      <trkpt lat="42.918227026239038" lon="-8.085329979658127">
        <ele>345.19999999999999</ele>
        <time>2018-05-20T08:00:04Z</time>
      </trkpt>
      <trkpt lat="42.918209005147219" lon="-8.08525001630187">
        <ele>346.19999999999999</ele>
        <time>2018-05-20T08:00:06Z</time>
      </trkpt>
      <trkpt lat="42.918189978227019" lon="-8.08516401797533">
        <ele>347.19999999999999</ele>
        <time>2018-05-20T08:00:08Z</time>
      </trkpt>
      <trkpt lat="42.918181009590626" lon="-8.085113978013396">
        <ele>347.80000000000001</ele>
        <time>2018-05-20T08:00:09Z</time>
      </trkpt>
      <trkpt lat="42.918167011812329" lon="-8.085050024092197">
        <ele>348.5</ele>
        <time>2018-05-20T08:00:11Z</time>
      </trkpt>
      <trkpt lat="42.91814798489213" lon="-8.084969976916909">
        <ele>349.5</ele>
        <time>2018-05-20T08:00:13Z</time>
      </trkpt>
      <trkpt lat="42.918133987113833" lon="-8.084907028824091">
        <ele>350.30000000000001</ele>
        <time>2018-05-20T08:00:14Z</time>
      </trkpt>
      <trkpt lat="42.918115966022015" lon="-8.084861012175679">
        <ele>351</ele>
        <time>2018-05-20T08:00:15Z</time>
      </trkpt>
      <trkpt lat="42.918080007657409" lon="-8.084748024120927">
        <ele>352.60000000000002</ele>
        <time>2018-05-20T08:00:18Z</time>
      </trkpt>
      <trkpt lat="42.918066009879112" lon="-8.08469002135098">
        <ele>353.39999999999998</ele>
        <time>2018-05-20T08:00:19Z</time>
      </trkpt>
      <trkpt lat="42.918046982958913" lon="-8.084621038287878">
        <ele>354.30000000000001</ele>
        <time>2018-05-20T08:00:21Z</time>
      </trkpt>
      <trkpt lat="42.918028039857745" lon="-8.084551971405745">
        <ele>355.30000000000001</ele>
        <time>2018-05-20T08:00:22Z</time>
      </trkpt>
      <trkpt lat="42.918013958260417" lon="-8.084494974464178">
        <ele>356.10000000000002</ele>
        <time>2018-05-20T08:00:24Z</time>
      </trkpt>
      <trkpt lat="42.918010018765926" lon="-8.084437977522612">
        <ele>356.69999999999999</ele>
        <time>2018-05-20T08:00:25Z</time>
      </trkpt>
      <trkpt lat="42.917999960482121" lon="-8.08434602804482">
        <ele>357.69999999999999</ele>
        <time>2018-05-20T08:00:27Z</time>
      </trkpt>
      <trkpt lat="42.917990991845727" lon="-8.084293976426125">
        <ele>358.30000000000001</ele>
        <time>2018-05-20T08:00:28Z</time>
      </trkpt>
      <trkpt lat="42.917990991845727" lon="-8.084214013069868">
        <ele>359.10000000000002</ele>
        <time>2018-05-20T08:00:30Z</time>
      </trkpt>
      <trkpt lat="42.917999960482121" lon="-8.084156010299921">
        <ele>359.39999999999998</ele>
        <time>2018-05-20T08:00:31Z</time>
      </trkpt>
      <trkpt lat="42.918004989624023" lon="-8.084103958681226">
        <ele>359.80000000000001</ele>
        <time>2018-05-20T08:00:32Z</time>
      </trkpt>
      <trkpt lat="42.918028039857745" lon="-8.084013015031815">
        <ele>360.19999999999999</ele>
        <time>2018-05-20T08:00:35Z</time>
      </trkpt>
      <trkpt lat="42.918048994615674" lon="-8.083974039182067">
        <ele>360.10000000000002</ele>
        <time>2018-05-20T08:00:36Z</time>
      </trkpt>
      <trkpt lat="42.918071961030364" lon="-8.083928022533655">
        <ele>360.10000000000002</ele>
        <time>2018-05-20T08:00:37Z</time>
      </trkpt>
      <trkpt lat="42.918095011264086" lon="-8.08387597091496">
        <ele>360</ele>
        <time>2018-05-20T08:00:38Z</time>
      </trkpt>
      <trkpt lat="42.918118983507156" lon="-8.083818973973393">
        <ele>360</ele>
        <time>2018-05-20T08:00:40Z</time>
      </trkpt>
      <trkpt lat="42.918151002377272" lon="-8.083778992295265">
        <ele>359.69999999999999</ele>
        <time>2018-05-20T08:00:41Z</time>
      </trkpt>
      <trkpt lat="42.918178997933865" lon="-8.083739010617137">
        <ele>359.39999999999998</ele>
        <time>2018-05-20T08:00:42Z</time>
      </trkpt>
      <trkpt lat="42.918198024854064" lon="-8.083692993968725">
        <ele>359.19999999999999</ele>
        <time>2018-05-20T08:00:43Z</time>
      </trkpt>
      <trkpt lat="42.918220991268754" lon="-8.083641026169062">
        <ele>358.89999999999998</ele>
        <time>2018-05-20T08:00:44Z</time>
      </trkpt>
      <trkpt lat="42.918244041502476" lon="-8.083600960671902">
        <ele>358.69999999999999</ele>
        <time>2018-05-20T08:00:46Z</time>
      </trkpt>
      <trkpt lat="42.918272037059069" lon="-8.083548992872238">
        <ele>358.39999999999998</ele>
        <time>2018-05-20T08:00:47Z</time>
      </trkpt>
      <trkpt lat="42.918290980160236" lon="-8.08350901119411">
        <ele>358.19999999999999</ele>
        <time>2018-05-20T08:00:48Z</time>
      </trkpt>
      <trkpt lat="42.918324004858732" lon="-8.083469029515982">
        <ele>357.89999999999998</ele>
        <time>2018-05-20T08:00:49Z</time>
      </trkpt>
      <trkpt lat="42.918346971273422" lon="-8.083427958190441">
        <ele>357.69999999999999</ele>
        <time>2018-05-20T08:00:50Z</time>
      </trkpt>
      <trkpt lat="42.918365998193622" lon="-8.083376996219158">
        <ele>357.69999999999999</ele>
        <time>2018-05-20T08:00:52Z</time>
      </trkpt>
      <trkpt lat="42.918388964608312" lon="-8.083313964307308">
        <ele>357.69999999999999</ele>
        <time>2018-05-20T08:00:53Z</time>
      </trkpt>
      <trkpt lat="42.918412014842033" lon="-8.083266019821167">
        <ele>357.60000000000002</ele>
        <time>2018-05-20T08:00:54Z</time>
      </trkpt>
      <trkpt lat="42.91842601262033" lon="-8.08320801705122">
        <ele>357.80000000000001</ele>
        <time>2018-05-20T08:00:56Z</time>
      </trkpt>
      <trkpt lat="42.918440010398626" lon="-8.083168035373092">
        <ele>357.89999999999998</ele>
        <time>2018-05-20T08:00:57Z</time>
      </trkpt>
      <trkpt lat="42.9184499848634" lon="-8.08312201872468">
        <ele>358.10000000000002</ele>
        <time>2018-05-20T08:00:58Z</time>
      </trkpt>
      <trkpt lat="42.918459037318826" lon="-8.083063010126352">
        <ele>358.39999999999998</ele>
        <time>2018-05-20T08:00:59Z</time>
      </trkpt>
      <trkpt lat="42.918420983478427" lon="-8.08288699015975">
        <ele>360.19999999999999</ele>
        <time>2018-05-20T08:01:03Z</time>
      </trkpt>
      <trkpt lat="42.918420983478427" lon="-8.082840973511338">
        <ele>360.5</ele>
        <time>2018-05-20T08:01:04Z</time>
      </trkpt>
      <trkpt lat="42.91840698570013" lon="-8.082749024033546">
        <ele>361.30000000000001</ele>
        <time>2018-05-20T08:01:06Z</time>
      </trkpt>
      <trkpt lat="42.918402962386608" lon="-8.082696972414851">
        <ele>361.69999999999999</ele>
        <time>2018-05-20T08:01:07Z</time>
      </trkpt>
      <trkpt lat="42.918388964608312" lon="-8.082645004615188">
        <ele>362.19999999999999</ele>
        <time>2018-05-20T08:01:08Z</time>
      </trkpt>
      <trkpt lat="42.918378990143538" lon="-8.082593958824873">
        <ele>362.69999999999999</ele>
        <time>2018-05-20T08:01:10Z</time>
      </trkpt>
      <trkpt lat="42.918370021507144" lon="-8.082541991025209">
        <ele>363.19999999999999</ele>
        <time>2018-05-20T08:01:11Z</time>
      </trkpt>
      <trkpt lat="42.918360969051719" lon="-8.082490023225546">
        <ele>363.69999999999999</ele>
        <time>2018-05-20T08:01:12Z</time>
      </trkpt>
      <trkpt lat="42.918342025950551" lon="-8.082397989928722">
        <ele>364.60000000000002</ele>
        <time>2018-05-20T08:01:14Z</time>
      </trkpt>
      <trkpt lat="42.918332973495126" lon="-8.082340992987156">
        <ele>365.10000000000002</ele>
        <time>2018-05-20T08:01:15Z</time>
      </trkpt>
      <trkpt lat="42.918332973495126" lon="-8.082261029630899">
        <ele>365.69999999999999</ele>
        <time>2018-05-20T08:01:17Z</time>
      </trkpt>
      <trkpt lat="42.918332973495126" lon="-8.082175031304359">
        <ele>366.30000000000001</ele>
        <time>2018-05-20T08:01:19Z</time>
      </trkpt>
      <trkpt lat="42.918332973495126" lon="-8.082117028534412">
        <ele>366.80000000000001</ele>
        <time>2018-05-20T08:01:20Z</time>
      </trkpt>
      <trkpt lat="42.918350994586945" lon="-8.082053996622562">
        <ele>367.10000000000002</ele>
        <time>2018-05-20T08:01:22Z</time>
      </trkpt>
      <trkpt lat="42.918364992365241" lon="-8.082012003287673">
        <ele>367.39999999999998</ele>
        <time>2018-05-20T08:01:23Z</time>
      </trkpt>
      <trkpt lat="42.918370021507144" lon="-8.081943020224571">
        <ele>368.19999999999999</ele>
        <time>2018-05-20T08:01:24Z</time>
      </trkpt>
      <trkpt lat="42.918386030942202" lon="-8.081887029111385">
        <ele>368.69999999999999</ele>
        <time>2018-05-20T08:01:26Z</time>
      </trkpt>
      <trkpt lat="42.918386030942202" lon="-8.08183497749269">
        <ele>369.30000000000001</ele>
        <time>2018-05-20T08:01:27Z</time>
      </trkpt>
      <trkpt lat="42.918386030942202" lon="-8.081784015521407">
        <ele>369.89999999999998</ele>
        <time>2018-05-20T08:01:28Z</time>
      </trkpt>
      <trkpt lat="42.918386030942202" lon="-8.08172601275146">
        <ele>370.69999999999999</ele>
        <time>2018-05-20T08:01:29Z</time>
      </trkpt>
      <trkpt lat="42.918370021507144" lon="-8.081686031073332">
        <ele>371.39999999999998</ele>
        <time>2018-05-20T08:01:30Z</time>
      </trkpt>
      <trkpt lat="42.918335990980268" lon="-8.081708997488022">
        <ele>371.69999999999999</ele>
        <time>2018-05-20T08:01:31Z</time>
      </trkpt>
      <trkpt lat="42.918313024565578" lon="-8.081691982224584">
        <ele>372.30000000000001</ele>
        <time>2018-05-20T08:01:32Z</time>
      </trkpt>
      <trkpt lat="42.918313024565578" lon="-8.081616964191198">
        <ele>373.19999999999999</ele>
        <time>2018-05-20T08:01:34Z</time>
      </trkpt>
      <trkpt lat="42.918313024565578" lon="-8.08155401609838">
        <ele>374</ele>
        <time>2018-05-20T08:01:35Z</time>
      </trkpt>
      <trkpt lat="42.918313024565578" lon="-8.081501964479685">
        <ele>374.69999999999999</ele>
        <time>2018-05-20T08:01:36Z</time>
      </trkpt>
      <trkpt lat="42.918321993201971" lon="-8.081451002508402">
        <ele>375.19999999999999</ele>
        <time>2018-05-20T08:01:37Z</time>
      </trkpt>
      <trkpt lat="42.918321993201971" lon="-8.081392999738455">
        <ele>375.89999999999998</ele>
        <time>2018-05-20T08:01:39Z</time>
      </trkpt>
      <trkpt lat="42.918321993201971" lon="-8.081329967826605">
        <ele>376.69999999999999</ele>
        <time>2018-05-20T08:01:40Z</time>
      </trkpt>
      <trkpt lat="42.918321993201971" lon="-8.081278000026941">
        <ele>377.30000000000001</ele>
        <time>2018-05-20T08:01:41Z</time>
      </trkpt>
      <trkpt lat="42.918321993201971" lon="-8.081192001700401">
        <ele>377.89999999999998</ele>
        <time>2018-05-20T08:01:43Z</time>
      </trkpt>
      <trkpt lat="42.918321993201971" lon="-8.081138022243977">
        <ele>378</ele>
        <time>2018-05-20T08:01:44Z</time>
      </trkpt>
      <trkpt lat="42.918307995423675" lon="-8.080983040854335">
        <ele>378.69999999999999</ele>
        <time>2018-05-20T08:01:47Z</time>
      </trkpt>
      <trkpt lat="42.918257033452392" lon="-8.080772990360856">
        <ele>380.30000000000001</ele>
        <time>2018-05-20T08:01:52Z</time>
      </trkpt>
      <trkpt lat="42.918210010975599" lon="-8.080580960959196">
        <ele>381.60000000000002</ele>
        <time>2018-05-20T08:01:57Z</time>
      </trkpt>
      <trkpt lat="42.918112026527524" lon="-8.080160021781921">
        <ele>382.69999999999999</ele>
        <time>2018-05-20T08:02:06Z</time>
      </trkpt>
      <trkpt lat="42.918056035414338" lon="-8.079823991283774">
        <ele>382.19999999999999</ele>
        <time>2018-05-20T08:02:14Z</time>
      </trkpt>
      <trkpt lat="42.918051006272435" lon="-8.079806976020336">
        <ele>382.19999999999999</ele>
        <time>2018-05-20T08:02:14Z</time>
      </trkpt>
      <trkpt lat="42.918028039857745" lon="-8.079715026542544">
        <ele>382.10000000000002</ele>
        <time>2018-05-20T08:02:16Z</time>
      </trkpt>
      <trkpt lat="42.918010018765926" lon="-8.079634979367256">
        <ele>382</ele>
        <time>2018-05-20T08:02:18Z</time>
      </trkpt>
      <trkpt lat="42.917971964925528" lon="-8.079546969383955">
        <ele>382.5</ele>
        <time>2018-05-20T08:02:20Z</time>
      </trkpt>
      <trkpt lat="42.91795402765274" lon="-8.079484021291137">
        <ele>383.10000000000002</ele>
        <time>2018-05-20T08:02:22Z</time>
      </trkpt>
      <trkpt lat="42.917943969368935" lon="-8.079428030177951">
        <ele>383.5</ele>
        <time>2018-05-20T08:02:23Z</time>
      </trkpt>
      <trkpt lat="42.917907005175948" lon="-8.079382013529539">
        <ele>384.30000000000001</ele>
        <time>2018-05-20T08:02:25Z</time>
      </trkpt>
      <trkpt lat="42.917870040982962" lon="-8.079346977174282">
        <ele>384.60000000000002</ele>
        <time>2018-05-20T08:02:26Z</time>
      </trkpt>
      <trkpt lat="42.917831987142563" lon="-8.079306995496154">
        <ele>385</ele>
        <time>2018-05-20T08:02:27Z</time>
      </trkpt>
      <trkpt lat="42.917799968272448" lon="-8.079260978847742">
        <ele>385.39999999999998</ele>
        <time>2018-05-20T08:02:29Z</time>
      </trkpt>
      <trkpt lat="42.917767027392983" lon="-8.079227032139897">
        <ele>385.80000000000001</ele>
        <time>2018-05-20T08:02:30Z</time>
      </trkpt>
      <trkpt lat="42.917734002694488" lon="-8.079198030754924">
        <ele>386.10000000000002</ele>
        <time>2018-05-20T08:02:31Z</time>
      </trkpt>
      <trkpt lat="42.917692009359598" lon="-8.079164000228047">
        <ele>386.5</ele>
        <time>2018-05-20T08:02:32Z</time>
      </trkpt>
      <trkpt lat="42.917659990489483" lon="-8.079134998843074">
        <ele>386.80000000000001</ele>
        <time>2018-05-20T08:02:34Z</time>
      </trkpt>
      <trkpt lat="42.917626965790987" lon="-8.079112032428384">
        <ele>387</ele>
        <time>2018-05-20T08:02:35Z</time>
      </trkpt>
      <trkpt lat="42.917595030739903" lon="-8.079088982194662">
        <ele>387.30000000000001</ele>
        <time>2018-05-20T08:02:36Z</time>
      </trkpt>
      <trkpt lat="42.917556976899505" lon="-8.079055035486817">
        <ele>387.60000000000002</ele>
        <time>2018-05-20T08:02:37Z</time>
      </trkpt>
      <trkpt lat="42.917520012706518" lon="-8.07904296554625">
        <ele>387.80000000000001</ele>
        <time>2018-05-20T08:02:38Z</time>
      </trkpt>
      <trkpt lat="42.917478019371629" lon="-8.079037014394999">
        <ele>388</ele>
        <time>2018-05-20T08:02:40Z</time>
      </trkpt>
      <trkpt lat="42.917430996894836" lon="-8.079031985253096">
        <ele>388.30000000000001</ele>
        <time>2018-05-20T08:02:41Z</time>
      </trkpt>
      <trkpt lat="42.917389003559947" lon="-8.079026034101844">
        <ele>388.5</ele>
        <time>2018-05-20T08:02:42Z</time>
      </trkpt>
      <trkpt lat="42.917347010225058" lon="-8.079026034101844">
        <ele>388.60000000000002</ele>
        <time>2018-05-20T08:02:43Z</time>
      </trkpt>
      <trkpt lat="42.917305016890168" lon="-8.079026034101844">
        <ele>388.80000000000001</ele>
        <time>2018-05-20T08:02:45Z</time>
      </trkpt>
      <trkpt lat="42.917259000241756" lon="-8.079026034101844">
        <ele>389</ele>
        <time>2018-05-20T08:02:46Z</time>
      </trkpt>
      <trkpt lat="42.917221030220389" lon="-8.07901999913156">
        <ele>389.19999999999999</ele>
        <time>2018-05-20T08:02:47Z</time>
      </trkpt>
      <trkpt lat="42.9171790368855" lon="-8.07901999913156">
        <ele>389.30000000000001</ele>
        <time>2018-05-20T08:02:48Z</time>
      </trkpt>
      <trkpt lat="42.917147018015385" lon="-8.079009018838406">
        <ele>389.5</ele>
        <time>2018-05-20T08:02:49Z</time>
      </trkpt>
      <trkpt lat="42.917105024680495" lon="-8.079009018838406">
        <ele>389.69999999999999</ele>
        <time>2018-05-20T08:02:51Z</time>
      </trkpt>
      <trkpt lat="42.917063031345606" lon="-8.079009018838406">
        <ele>389.69999999999999</ele>
        <time>2018-05-20T08:02:52Z</time>
      </trkpt>
      <trkpt lat="42.917021038010716" lon="-8.079009018838406">
        <ele>389.60000000000002</ele>
        <time>2018-05-20T08:02:53Z</time>
      </trkpt>
      <trkpt lat="42.916974015533924" lon="-8.079009018838406">
        <ele>389.5</ele>
        <time>2018-05-20T08:02:54Z</time>
      </trkpt>
      <trkpt lat="42.916926993057132" lon="-8.079009018838406">
        <ele>389.39999999999998</ele>
        <time>2018-05-20T08:02:56Z</time>
      </trkpt>
      <trkpt lat="42.916886005550623" lon="-8.078980017453432">
        <ele>389.5</ele>
        <time>2018-05-20T08:02:57Z</time>
      </trkpt>
      <trkpt lat="42.916838983073831" lon="-8.07895696721971">
        <ele>389.5</ele>
        <time>2018-05-20T08:02:59Z</time>
      </trkpt>
      <trkpt lat="42.916805958375335" lon="-8.07891103439033">
        <ele>389.60000000000002</ele>
        <time>2018-05-20T08:03:00Z</time>
      </trkpt>
      <trkpt lat="42.916774023324251" lon="-8.078882033005357">
        <ele>389.69999999999999</ele>
        <time>2018-05-20T08:03:01Z</time>
      </trkpt>
      <trkpt lat="42.916749967262149" lon="-8.078830987215042">
        <ele>389.89999999999998</ele>
        <time>2018-05-20T08:03:03Z</time>
      </trkpt>
      <trkpt lat="42.916718032211065" lon="-8.078755969181657">
        <ele>390.10000000000002</ele>
        <time>2018-05-20T08:03:04Z</time>
      </trkpt>
      <trkpt lat="42.916682995855808" lon="-8.078701989725232">
        <ele>390.30000000000001</ele>
        <time>2018-05-20T08:03:06Z</time>
      </trkpt>
      <trkpt lat="42.916664974763989" lon="-8.078651027753949">
        <ele>390.5</ele>
        <time>2018-05-20T08:03:07Z</time>
      </trkpt>
      <trkpt lat="42.916641002520919" lon="-8.078593024984002">
        <ele>390.80000000000001</ele>
        <time>2018-05-20T08:03:09Z</time>
      </trkpt>
      <trkpt lat="42.916613006964326" lon="-8.078466961160302">
        <ele>391.39999999999998</ele>
        <time>2018-05-20T08:03:12Z</time>
      </trkpt>
      <trkpt lat="42.916599009186029" lon="-8.078414993360639">
        <ele>391.69999999999999</ele>
        <time>2018-05-20T08:03:13Z</time>
      </trkpt>
      <trkpt lat="42.916571013629436" lon="-8.078346010297537">
        <ele>392</ele>
        <time>2018-05-20T08:03:14Z</time>
      </trkpt>
      <trkpt lat="42.916522985324264" lon="-8.078235033899546">
        <ele>392.5</ele>
        <time>2018-05-20T08:03:17Z</time>
      </trkpt>
      <trkpt lat="42.916490966454148" lon="-8.07818298228085">
        <ele>392.80000000000001</ele>
        <time>2018-05-20T08:03:19Z</time>
      </trkpt>
      <trkpt lat="42.916458025574684" lon="-8.07816001586616">
        <ele>392.89999999999998</ele>
        <time>2018-05-20T08:03:20Z</time>
      </trkpt>
      <trkpt lat="42.916434975340962" lon="-8.078103018924594">
        <ele>393.19999999999999</ele>
        <time>2018-05-20T08:03:21Z</time>
      </trkpt>
      <trkpt lat="42.916402034461498" lon="-8.07807401753962">
        <ele>393.30000000000001</ele>
        <time>2018-05-20T08:03:22Z</time>
      </trkpt>
      <trkpt lat="42.916360041126609" lon="-8.078045016154647">
        <ele>393.39999999999998</ele>
        <time>2018-05-20T08:03:24Z</time>
      </trkpt>
      <trkpt lat="42.916327016428113" lon="-8.078028000891209">
        <ele>393.39999999999998</ele>
        <time>2018-05-20T08:03:25Z</time>
      </trkpt>
      <trkpt lat="42.916289968416095" lon="-8.077993970364332">
        <ele>393.60000000000002</ele>
        <time>2018-05-20T08:03:26Z</time>
      </trkpt>
      <trkpt lat="42.916253004223108" lon="-8.077977038919926">
        <ele>393.60000000000002</ele>
        <time>2018-05-20T08:03:27Z</time>
      </trkpt>
      <trkpt lat="42.916215034201741" lon="-8.077948037534952">
        <ele>393.69999999999999</ele>
        <time>2018-05-20T08:03:29Z</time>
      </trkpt>
      <trkpt lat="42.916175974532962" lon="-8.077939990907908">
        <ele>393.69999999999999</ele>
        <time>2018-05-20T08:03:30Z</time>
      </trkpt>
      <trkpt lat="42.916158037260175" lon="-8.077893974259496">
        <ele>393.89999999999998</ele>
        <time>2018-05-20T08:03:31Z</time>
      </trkpt>
      <trkpt lat="42.916146973147988" lon="-8.077844018116593">
        <ele>394.10000000000002</ele>
        <time>2018-05-20T08:03:32Z</time>
      </trkpt>
      <trkpt lat="42.916146973147988" lon="-8.077778974547982">
        <ele>394.39999999999998</ele>
        <time>2018-05-20T08:03:33Z</time>
      </trkpt>
      <trkpt lat="42.916146973147988" lon="-8.077721977606416">
        <ele>394.69999999999999</ele>
        <time>2018-05-20T08:03:35Z</time>
      </trkpt>
      <trkpt lat="42.916146973147988" lon="-8.077652994543314">
        <ele>395.10000000000002</ele>
        <time>2018-05-20T08:03:36Z</time>
      </trkpt>
      <trkpt lat="42.916146973147988" lon="-8.077594991773367">
        <ele>395.30000000000001</ele>
        <time>2018-05-20T08:03:37Z</time>
      </trkpt>
      <trkpt lat="42.916150996461511" lon="-8.077537994831801">
        <ele>395.60000000000002</ele>
        <time>2018-05-20T08:03:39Z</time>
      </trkpt>
      <trkpt lat="42.916150996461511" lon="-8.077464988455176">
        <ele>396</ele>
        <time>2018-05-20T08:03:40Z</time>
      </trkpt>
      <trkpt lat="42.916150996461511" lon="-8.077406985685229">
        <ele>396.30000000000001</ele>
        <time>2018-05-20T08:03:42Z</time>
      </trkpt>
      <trkpt lat="42.916150996461511" lon="-8.077349988743663">
        <ele>396.60000000000002</ele>
        <time>2018-05-20T08:03:43Z</time>
      </trkpt>
      <trkpt lat="42.916150996461511" lon="-8.077258039265871">
        <ele>397</ele>
        <time>2018-05-20T08:03:45Z</time>
      </trkpt>
      <trkpt lat="42.916150996461511" lon="-8.077200958505273">
        <ele>397.30000000000001</ele>
        <time>2018-05-20T08:03:46Z</time>
      </trkpt>
      <trkpt lat="42.916150996461511" lon="-8.077143039554358">
        <ele>397.60000000000002</ele>
        <time>2018-05-20T08:03:47Z</time>
      </trkpt>
      <trkpt lat="42.916150996461511" lon="-8.077040025964379">
        <ele>398</ele>
        <time>2018-05-20T08:03:50Z</time>
      </trkpt>
      <trkpt lat="42.916150996461511" lon="-8.076970959082246">
        <ele>398.30000000000001</ele>
        <time>2018-05-20T08:03:51Z</time>
      </trkpt>
      <trkpt lat="42.916150996461511" lon="-8.076918991282582">
        <ele>398.5</ele>
        <time>2018-05-20T08:03:52Z</time>
      </trkpt>
      <trkpt lat="42.916150996461511" lon="-8.076868029311299">
        <ele>398.69999999999999</ele>
        <time>2018-05-20T08:03:53Z</time>
      </trkpt>
      <trkpt lat="42.916150996461511" lon="-8.076810026541352">
        <ele>398.89999999999998</ele>
        <time>2018-05-20T08:03:54Z</time>
      </trkpt>
      <trkpt lat="42.916150996461511" lon="-8.076746994629502">
        <ele>399.19999999999999</ele>
        <time>2018-05-20T08:03:56Z</time>
      </trkpt>
      <trkpt lat="42.916150996461511" lon="-8.076695026829839">
        <ele>399.39999999999998</ele>
        <time>2018-05-20T08:03:57Z</time>
      </trkpt>
      <trkpt lat="42.916146973147988" lon="-8.07663400657475">
        <ele>399.60000000000002</ele>
        <time>2018-05-20T08:03:58Z</time>
      </trkpt>
      <trkpt lat="42.916138004511595" lon="-8.076576003804803">
        <ele>399.89999999999998</ele>
        <time>2018-05-20T08:04:00Z</time>
      </trkpt>
      <trkpt lat="42.916124006733298" lon="-8.076501991599798">
        <ele>400.19999999999999</ele>
        <time>2018-05-20T08:04:01Z</time>
      </trkpt>
      <trkpt lat="42.916118977591395" lon="-8.076415993273258">
        <ele>400.5</ele>
        <time>2018-05-20T08:04:03Z</time>
      </trkpt>
      <trkpt lat="42.916110008955002" lon="-8.076346004381776">
        <ele>400.80000000000001</ele>
        <time>2018-05-20T08:04:05Z</time>
      </trkpt>
      <trkpt lat="42.916082013398409" lon="-8.076155986636877">
        <ele>401.60000000000002</ele>
        <time>2018-05-20T08:04:09Z</time>
      </trkpt>
      <trkpt lat="42.916072038933635" lon="-8.076098989695311">
        <ele>401.89999999999998</ele>
        <time>2018-05-20T08:04:10Z</time>
      </trkpt>
      <trkpt lat="42.916062986478209" lon="-8.076040986925364">
        <ele>402.10000000000002</ele>
        <time>2018-05-20T08:04:11Z</time>
      </trkpt>
      <trkpt lat="42.916054017841816" lon="-8.075949959456921">
        <ele>402.5</ele>
        <time>2018-05-20T08:04:13Z</time>
      </trkpt>
      <trkpt lat="42.91604395955801" lon="-8.075868990272284">
        <ele>402.80000000000001</ele>
        <time>2018-05-20T08:04:15Z</time>
      </trkpt>
      <trkpt lat="42.916040020063519" lon="-8.075811993330717">
        <ele>403.10000000000002</ele>
        <time>2018-05-20T08:04:16Z</time>
      </trkpt>
      <trkpt lat="42.916030967608094" lon="-8.07575399056077">
        <ele>403.30000000000001</ele>
        <time>2018-05-20T08:04:18Z</time>
      </trkpt>
      <trkpt lat="42.916026022285223" lon="-8.075702022761107">
        <ele>403.5</ele>
        <time>2018-05-20T08:04:19Z</time>
      </trkpt>
      <trkpt lat="42.916026022285223" lon="-8.075605966150761">
        <ele>403.89999999999998</ele>
        <time>2018-05-20T08:04:21Z</time>
      </trkpt>
      <trkpt lat="42.916012024506927" lon="-8.075406979769468">
        <ele>404.69999999999999</ele>
        <time>2018-05-20T08:04:25Z</time>
      </trkpt>
      <trkpt lat="42.915992997586727" lon="-8.0751290358603">
        <ele>405.60000000000002</ele>
        <time>2018-05-20T08:04:31Z</time>
      </trkpt>
      <trkpt lat="42.915988974273205" lon="-8.074796022847295">
        <ele>406.60000000000002</ele>
        <time>2018-05-20T08:04:39Z</time>
      </trkpt>
      <trkpt lat="42.915960978716612" lon="-8.074436020106077">
        <ele>408.10000000000002</ele>
        <time>2018-05-20T08:04:46Z</time>
      </trkpt>
      <trkpt lat="42.9159339889884" lon="-8.07424801401794">
        <ele>409.10000000000002</ele>
        <time>2018-05-20T08:04:51Z</time>
      </trkpt>
      <trkpt lat="42.915925020352006" lon="-8.074237033724785">
        <ele>409.10000000000002</ele>
        <time>2018-05-20T08:04:51Z</time>
      </trkpt>
      <trkpt lat="42.915897024795413" lon="-8.074167966842651">
        <ele>409.5</ele>
        <time>2018-05-20T08:04:53Z</time>
      </trkpt>
      <trkpt lat="42.91587196290493" lon="-8.074118010699749">
        <ele>409.69999999999999</ele>
        <time>2018-05-20T08:04:54Z</time>
      </trkpt>
      <trkpt lat="42.915843967348337" lon="-8.074066964909434">
        <ele>410</ele>
        <time>2018-05-20T08:04:55Z</time>
      </trkpt>
      <trkpt lat="42.915815971791744" lon="-8.074022037908435">
        <ele>410.19999999999999</ele>
        <time>2018-05-20T08:04:57Z</time>
      </trkpt>
      <trkpt lat="42.915787976235151" lon="-8.073964035138488">
        <ele>410.39999999999998</ele>
        <time>2018-05-20T08:04:58Z</time>
      </trkpt>
      <trkpt lat="42.915755035355687" lon="-8.073923969641328">
        <ele>410.60000000000002</ele>
        <time>2018-05-20T08:04:59Z</time>
      </trkpt>
      <trkpt lat="42.915708012878895" lon="-8.073865966871381">
        <ele>410.80000000000001</ele>
        <time>2018-05-20T08:05:01Z</time>
      </trkpt>
      <trkpt lat="42.915671970695257" lon="-8.073817016556859">
        <ele>411</ele>
        <time>2018-05-20T08:05:03Z</time>
      </trkpt>
      <trkpt lat="42.915629977360368" lon="-8.073759013786912">
        <ele>411.19999999999999</ele>
        <time>2018-05-20T08:05:05Z</time>
      </trkpt>
      <trkpt lat="42.915601981803775" lon="-8.073724983260036">
        <ele>411.39999999999998</ele>
        <time>2018-05-20T08:05:06Z</time>
      </trkpt>
      <trkpt lat="42.915579015389085" lon="-8.073681984096766">
        <ele>411.60000000000002</ele>
        <time>2018-05-20T08:05:07Z</time>
      </trkpt>
      <trkpt lat="42.915559988468885" lon="-8.073648037388921">
        <ele>411.80000000000001</ele>
        <time>2018-05-20T08:05:08Z</time>
      </trkpt>
      <trkpt lat="42.915541967377067" lon="-8.073573019355536">
        <ele>412.19999999999999</ele>
        <time>2018-05-20T08:05:10Z</time>
      </trkpt>
      <trkpt lat="42.915537022054195" lon="-8.073521973565221">
        <ele>412.5</ele>
        <time>2018-05-20T08:05:11Z</time>
      </trkpt>
      <trkpt lat="42.915537022054195" lon="-8.073456007987261">
        <ele>412.89999999999998</ele>
        <time>2018-05-20T08:05:12Z</time>
      </trkpt>
      <trkpt lat="42.91554699651897" lon="-8.073409991338849">
        <ele>413.10000000000002</ele>
        <time>2018-05-20T08:05:13Z</time>
      </trkpt>
      <trkpt lat="42.91556702926755" lon="-8.073365986347199">
        <ele>413.39999999999998</ele>
        <time>2018-05-20T08:05:14Z</time>
      </trkpt>
      <trkpt lat="42.915584966540337" lon="-8.073315024375916">
        <ele>413.69999999999999</ele>
        <time>2018-05-20T08:05:15Z</time>
      </trkpt>
      <trkpt lat="42.915603993460536" lon="-8.073257021605969">
        <ele>414</ele>
        <time>2018-05-20T08:05:17Z</time>
      </trkpt>
      <trkpt lat="42.915626959875226" lon="-8.073204969987273">
        <ele>414.39999999999998</ele>
        <time>2018-05-20T08:05:18Z</time>
      </trkpt>
      <trkpt lat="42.915641041472554" lon="-8.07315400801599">
        <ele>414.69999999999999</ele>
        <time>2018-05-20T08:05:19Z</time>
      </trkpt>
      <trkpt lat="42.915655039250851" lon="-8.073102040216327">
        <ele>415</ele>
        <time>2018-05-20T08:05:21Z</time>
      </trkpt>
      <trkpt lat="42.915679011493921" lon="-8.073049988597632">
        <ele>415.19999999999999</ele>
        <time>2018-05-20T08:05:22Z</time>
      </trkpt>
      <trkpt lat="42.915693009272218" lon="-8.07300397194922">
        <ele>415.5</ele>
        <time>2018-05-20T08:05:23Z</time>
      </trkpt>
      <trkpt lat="42.915711030364037" lon="-8.072953009977937">
        <ele>415.80000000000001</ele>
        <time>2018-05-20T08:05:24Z</time>
      </trkpt>
      <trkpt lat="42.915729973465204" lon="-8.072906993329525">
        <ele>416</ele>
        <time>2018-05-20T08:05:25Z</time>
      </trkpt>
      <trkpt lat="42.915743971243501" lon="-8.072860976681113">
        <ele>416.19999999999999</ele>
        <time>2018-05-20T08:05:26Z</time>
      </trkpt>
      <trkpt lat="42.915753023698926" lon="-8.072806997224689">
        <ele>416.39999999999998</ele>
        <time>2018-05-20T08:05:28Z</time>
      </trkpt>
      <trkpt lat="42.915771966800094" lon="-8.072760980576277">
        <ele>416.60000000000002</ele>
        <time>2018-05-20T08:05:29Z</time>
      </trkpt>
      <trkpt lat="42.915799962356687" lon="-8.072710018604994">
        <ele>416.69999999999999</ele>
        <time>2018-05-20T08:05:30Z</time>
      </trkpt>
      <trkpt lat="42.915813960134983" lon="-8.072664001956582">
        <ele>416.89999999999998</ele>
        <time>2018-05-20T08:05:31Z</time>
      </trkpt>
      <trkpt lat="42.915837010368705" lon="-8.072628965601325">
        <ele>417</ele>
        <time>2018-05-20T08:05:32Z</time>
      </trkpt>
      <trkpt lat="42.915856037288904" lon="-8.072576997801662">
        <ele>417.19999999999999</ele>
        <time>2018-05-20T08:05:34Z</time>
      </trkpt>
      <trkpt lat="42.915874980390072" lon="-8.072526035830379">
        <ele>417.39999999999998</ele>
        <time>2018-05-20T08:05:35Z</time>
      </trkpt>
      <trkpt lat="42.915898030623794" lon="-8.072468033060432">
        <ele>417.60000000000002</ele>
        <time>2018-05-20T08:05:36Z</time>
      </trkpt>
      <trkpt lat="42.91591202840209" lon="-8.072416987270117">
        <ele>417.80000000000001</ele>
        <time>2018-05-20T08:05:37Z</time>
      </trkpt>
      <trkpt lat="42.915930971503258" lon="-8.072365019470453">
        <ele>418</ele>
        <time>2018-05-20T08:05:39Z</time>
      </trkpt>
      <trkpt lat="42.915948992595077" lon="-8.072319002822042">
        <ele>418.19999999999999</ele>
        <time>2018-05-20T08:05:40Z</time>
      </trkpt>
      <trkpt lat="42.915948992595077" lon="-8.072267035022378">
        <ele>418.30000000000001</ele>
        <time>2018-05-20T08:05:41Z</time>
      </trkpt>
      <trkpt lat="42.915948992595077" lon="-8.072215989232063">
        <ele>418.5</ele>
        <time>2018-05-20T08:05:42Z</time>
      </trkpt>
      <trkpt lat="42.915948992595077" lon="-8.072155974805355">
        <ele>418.69999999999999</ele>
        <time>2018-05-20T08:05:43Z</time>
      </trkpt>
      <trkpt lat="42.915916973724961" lon="-8.072003005072475">
        <ele>419.30000000000001</ele>
        <time>2018-05-20T08:05:47Z</time>
      </trkpt>
      <trkpt lat="42.915861988440156" lon="-8.071874007582665">
        <ele>419.60000000000002</ele>
        <time>2018-05-20T08:05:50Z</time>
      </trkpt>
      <trkpt lat="42.915811026468873" lon="-8.071719026193023">
        <ele>420.10000000000002</ele>
        <time>2018-05-20T08:05:54Z</time>
      </trkpt>
      <trkpt lat="42.915811026468873" lon="-8.071678960695863">
        <ele>420.19999999999999</ele>
        <time>2018-05-20T08:05:55Z</time>
      </trkpt>
      <trkpt lat="42.915811026468873" lon="-8.071609977632761">
        <ele>420.39999999999998</ele>
        <time>2018-05-20T08:05:56Z</time>
      </trkpt>
      <trkpt lat="42.915811026468873" lon="-8.071559015661478">
        <ele>420.60000000000002</ele>
        <time>2018-05-20T08:05:57Z</time>
      </trkpt>
      <trkpt lat="42.915811026468873" lon="-8.071501012891531">
        <ele>420.69999999999999</ele>
        <time>2018-05-20T08:05:58Z</time>
      </trkpt>
      <trkpt lat="42.915811026468873" lon="-8.071437980979681">
        <ele>420.89999999999998</ele>
        <time>2018-05-20T08:06:00Z</time>
      </trkpt>
      <trkpt lat="42.915811026468873" lon="-8.071375032886863">
        <ele>421.10000000000002</ele>
        <time>2018-05-20T08:06:01Z</time>
      </trkpt>
      <trkpt lat="42.915811026468873" lon="-8.071317030116916">
        <ele>421.30000000000001</ele>
        <time>2018-05-20T08:06:02Z</time>
      </trkpt>
      <trkpt lat="42.915811026468873" lon="-8.071260033175349">
        <ele>421.39999999999998</ele>
        <time>2018-05-20T08:06:04Z</time>
      </trkpt>
      <trkpt lat="42.915814965963364" lon="-8.071178980171681">
        <ele>421.60000000000002</ele>
        <time>2018-05-20T08:06:05Z</time>
      </trkpt>
      <trkpt lat="42.915819995105267" lon="-8.071104967966676">
        <ele>421.69999999999999</ele>
        <time>2018-05-20T08:06:07Z</time>
      </trkpt>
      <trkpt lat="42.915825024247169" lon="-8.071035984903574">
        <ele>421.89999999999998</ele>
        <time>2018-05-20T08:06:08Z</time>
      </trkpt>
      <trkpt lat="42.915825024247169" lon="-8.070967001840472">
        <ele>422</ele>
        <time>2018-05-20T08:06:10Z</time>
      </trkpt>
      <trkpt lat="42.915825024247169" lon="-8.070910004898906">
        <ele>422.10000000000002</ele>
        <time>2018-05-20T08:06:11Z</time>
      </trkpt>
      <trkpt lat="42.915825024247169" lon="-8.070829035714269">
        <ele>422.19999999999999</ele>
        <time>2018-05-20T08:06:13Z</time>
      </trkpt>
      <trkpt lat="42.915825024247169" lon="-8.070761980488896">
        <ele>422.39999999999998</ele>
        <time>2018-05-20T08:06:14Z</time>
      </trkpt>
      <trkpt lat="42.915819995105267" lon="-8.07070498354733">
        <ele>422.5</ele>
        <time>2018-05-20T08:06:16Z</time>
      </trkpt>
      <trkpt lat="42.915819995105267" lon="-8.070636000484228">
        <ele>422.60000000000002</ele>
        <time>2018-05-20T08:06:17Z</time>
      </trkpt>
      <trkpt lat="42.91580599732697" lon="-8.070584032684565">
        <ele>422.60000000000002</ele>
        <time>2018-05-20T08:06:18Z</time>
      </trkpt>
      <trkpt lat="42.915797028690577" lon="-8.070526029914618">
        <ele>422.69999999999999</ele>
        <time>2018-05-20T08:06:20Z</time>
      </trkpt>
      <trkpt lat="42.915769033133984" lon="-8.070435002446175">
        <ele>422.80000000000001</ele>
        <time>2018-05-20T08:06:22Z</time>
      </trkpt>
      <trkpt lat="42.915757969021797" lon="-8.070383034646511">
        <ele>422.80000000000001</ele>
        <time>2018-05-20T08:06:23Z</time>
      </trkpt>
      <trkpt lat="42.915757969021797" lon="-8.070318996906281">
        <ele>422.80000000000001</ele>
        <time>2018-05-20T08:06:24Z</time>
      </trkpt>
      <trkpt lat="42.915757969021797" lon="-8.070266023278236">
        <ele>422.80000000000001</ele>
        <time>2018-05-20T08:06:26Z</time>
      </trkpt>
      <trkpt lat="42.91576199233532" lon="-8.070213971659541">
        <ele>422.80000000000001</ele>
        <time>2018-05-20T08:06:27Z</time>
      </trkpt>
      <trkpt lat="42.91576199233532" lon="-8.070134008303285">
        <ele>422.80000000000001</ele>
        <time>2018-05-20T08:06:28Z</time>
      </trkpt>
      <trkpt lat="42.915775990113616" lon="-8.070065025240183">
        <ele>422.89999999999998</ele>
        <time>2018-05-20T08:06:30Z</time>
      </trkpt>
      <trkpt lat="42.915775990113616" lon="-8.070007022470236">
        <ele>422.89999999999998</ele>
        <time>2018-05-20T08:06:31Z</time>
      </trkpt>
      <trkpt lat="42.91578596457839" lon="-8.069936027750373">
        <ele>422.89999999999998</ele>
        <time>2018-05-20T08:06:33Z</time>
      </trkpt>
      <trkpt lat="42.91578596457839" lon="-8.069884981960058">
        <ele>422.89999999999998</ele>
        <time>2018-05-20T08:06:34Z</time>
      </trkpt>
      <trkpt lat="42.915795017033815" lon="-8.069815998896956">
        <ele>422.89999999999998</ele>
        <time>2018-05-20T08:06:35Z</time>
      </trkpt>
      <trkpt lat="42.915803985670209" lon="-8.069747015833855">
        <ele>422.89999999999998</ele>
        <time>2018-05-20T08:06:37Z</time>
      </trkpt>
      <trkpt lat="42.915809014812112" lon="-8.069665962830186">
        <ele>422.89999999999998</ele>
        <time>2018-05-20T08:06:39Z</time>
      </trkpt>
      <trkpt lat="42.915817983448505" lon="-8.069615000858903">
        <ele>423</ele>
        <time>2018-05-20T08:06:40Z</time>
      </trkpt>
      <trkpt lat="42.915837010368705" lon="-8.069563033059239">
        <ele>423</ele>
        <time>2018-05-20T08:06:41Z</time>
      </trkpt>
      <trkpt lat="42.915865005925298" lon="-8.069510981440544">
        <ele>422.89999999999998</ele>
        <time>2018-05-20T08:06:42Z</time>
      </trkpt>
      <trkpt lat="42.915884032845497" lon="-8.069453984498978">
        <ele>422.89999999999998</ele>
        <time>2018-05-20T08:06:44Z</time>
      </trkpt>
      <trkpt lat="42.915901970118284" lon="-8.069407967850566">
        <ele>422.80000000000001</ele>
        <time>2018-05-20T08:06:45Z</time>
      </trkpt>
      <trkpt lat="42.915920997038484" lon="-8.069356000050902">
        <ele>422.80000000000001</ele>
        <time>2018-05-20T08:06:46Z</time>
      </trkpt>
      <trkpt lat="42.91593499481678" lon="-8.069309983402491">
        <ele>422.69999999999999</ele>
        <time>2018-05-20T08:06:47Z</time>
      </trkpt>
      <trkpt lat="42.915943963453174" lon="-8.069252986460924">
        <ele>422.60000000000002</ele>
        <time>2018-05-20T08:06:49Z</time>
      </trkpt>
      <trkpt lat="42.91595796123147" lon="-8.069201018661261">
        <ele>422.5</ele>
        <time>2018-05-20T08:06:50Z</time>
      </trkpt>
      <trkpt lat="42.915968019515276" lon="-8.069149972870946">
        <ele>422.5</ele>
        <time>2018-05-20T08:06:51Z</time>
      </trkpt>
      <trkpt lat="42.915982017293572" lon="-8.069104040041566">
        <ele>422.39999999999998</ele>
        <time>2018-05-20T08:06:52Z</time>
      </trkpt>
      <trkpt lat="42.915990985929966" lon="-8.069051988422871">
        <ele>422.30000000000001</ele>
        <time>2018-05-20T08:06:53Z</time>
      </trkpt>
      <trkpt lat="42.916018981486559" lon="-8.069000020623207">
        <ele>422.19999999999999</ele>
        <time>2018-05-20T08:06:55Z</time>
      </trkpt>
      <trkpt lat="42.916032979264855" lon="-8.068948974832892">
        <ele>422.19999999999999</ele>
        <time>2018-05-20T08:06:56Z</time>
      </trkpt>
      <trkpt lat="42.916046977043152" lon="-8.068879991769791">
        <ele>422</ele>
        <time>2018-05-20T08:06:57Z</time>
      </trkpt>
      <trkpt lat="42.916066003963351" lon="-8.068833975121379">
        <ele>422</ele>
        <time>2018-05-20T08:06:58Z</time>
      </trkpt>
      <trkpt lat="42.916080001741648" lon="-8.068775972351432">
        <ele>421.89999999999998</ele>
        <time>2018-05-20T08:07:00Z</time>
      </trkpt>
      <trkpt lat="42.916088970378041" lon="-8.068701960146427">
        <ele>421.60000000000002</ele>
        <time>2018-05-20T08:07:01Z</time>
      </trkpt>
      <trkpt lat="42.916098022833467" lon="-8.068649992346764">
        <ele>421.39999999999998</ele>
        <time>2018-05-20T08:07:03Z</time>
      </trkpt>
      <trkpt lat="42.91610699146986" lon="-8.0685980245471">
        <ele>421.30000000000001</ele>
        <time>2018-05-20T08:07:04Z</time>
      </trkpt>
      <trkpt lat="42.916120989248157" lon="-8.068545972928405">
        <ele>421.10000000000002</ele>
        <time>2018-05-20T08:07:05Z</time>
      </trkpt>
      <trkpt lat="42.916134987026453" lon="-8.068500962108374">
        <ele>420.89999999999998</ele>
        <time>2018-05-20T08:07:06Z</time>
      </trkpt>
      <trkpt lat="42.916148984804749" lon="-8.06844899430871">
        <ele>420.80000000000001</ele>
        <time>2018-05-20T08:07:07Z</time>
      </trkpt>
      <trkpt lat="42.916158959269524" lon="-8.068400966003537">
        <ele>420.60000000000002</ele>
        <time>2018-05-20T08:07:08Z</time>
      </trkpt>
      <trkpt lat="42.916158959269524" lon="-8.068326031789184">
        <ele>420.30000000000001</ele>
        <time>2018-05-20T08:07:10Z</time>
      </trkpt>
      <trkpt lat="42.916158959269524" lon="-8.068274985998869">
        <ele>420.10000000000002</ele>
        <time>2018-05-20T08:07:11Z</time>
      </trkpt>
      <trkpt lat="42.916158959269524" lon="-8.068216983228922">
        <ele>419.89999999999998</ele>
        <time>2018-05-20T08:07:12Z</time>
      </trkpt>
      <trkpt lat="42.916162982583046" lon="-8.068165015429258">
        <ele>419.69999999999999</ele>
        <time>2018-05-20T08:07:13Z</time>
      </trkpt>
      <trkpt lat="42.916168011724949" lon="-8.068108018487692">
        <ele>419.5</ele>
        <time>2018-05-20T08:07:15Z</time>
      </trkpt>
      <trkpt lat="42.916168011724949" lon="-8.068055966868997">
        <ele>419.30000000000001</ele>
        <time>2018-05-20T08:07:16Z</time>
      </trkpt>
      <trkpt lat="42.916182009503245" lon="-8.067991007119417">
        <ele>419.10000000000002</ele>
        <time>2018-05-20T08:07:17Z</time>
      </trkpt>
      <trkpt lat="42.916201036423445" lon="-8.067753966897726">
        <ele>418.69999999999999</ele>
        <time>2018-05-20T08:07:22Z</time>
      </trkpt>
      <trkpt lat="42.916201036423445" lon="-8.06773703545332">
        <ele>418.60000000000002</ele>
        <time>2018-05-20T08:07:23Z</time>
      </trkpt>
      <trkpt lat="42.916205981746316" lon="-8.06767400354147">
        <ele>418.60000000000002</ele>
        <time>2018-05-20T08:07:24Z</time>
      </trkpt>
      <trkpt lat="42.916215034201741" lon="-8.067627986893058">
        <ele>418.5</ele>
        <time>2018-05-20T08:07:25Z</time>
      </trkpt>
      <trkpt lat="42.916229031980038" lon="-8.067547017708421">
        <ele>418.5</ele>
        <time>2018-05-20T08:07:27Z</time>
      </trkpt>
      <trkpt lat="42.916233977302909" lon="-8.067483985796571">
        <ele>418.39999999999998</ele>
        <time>2018-05-20T08:07:28Z</time>
      </trkpt>
      <trkpt lat="42.916243029758334" lon="-8.067432017996907">
        <ele>418.39999999999998</ele>
        <time>2018-05-20T08:07:29Z</time>
      </trkpt>
      <trkpt lat="42.916247975081205" lon="-8.067375021055341">
        <ele>418.30000000000001</ele>
        <time>2018-05-20T08:07:31Z</time>
      </trkpt>
      <trkpt lat="42.916257027536631" lon="-8.067306037992239">
        <ele>418.30000000000001</ele>
        <time>2018-05-20T08:07:32Z</time>
      </trkpt>
      <trkpt lat="42.916261972859502" lon="-8.067220039665699">
        <ele>418.19999999999999</ele>
        <time>2018-05-20T08:07:34Z</time>
      </trkpt>
      <trkpt lat="42.916265996173024" lon="-8.06715901941061">
        <ele>418.10000000000002</ele>
        <time>2018-05-20T08:07:35Z</time>
      </trkpt>
      <trkpt lat="42.916282005608082" lon="-8.067106967791915">
        <ele>418.10000000000002</ele>
        <time>2018-05-20T08:07:37Z</time>
      </trkpt>
      <trkpt lat="42.916304972022772" lon="-8.067061034962535">
        <ele>418.10000000000002</ele>
        <time>2018-05-20T08:07:38Z</time>
      </trkpt>
      <trkpt lat="42.916329028084874" lon="-8.067015018314123">
        <ele>418.10000000000002</ele>
        <time>2018-05-20T08:07:39Z</time>
      </trkpt>
      <trkpt lat="42.916351994499564" lon="-8.066975036635995">
        <ele>418.10000000000002</ele>
        <time>2018-05-20T08:07:40Z</time>
      </trkpt>
      <trkpt lat="42.916371021419764" lon="-8.066929019987583">
        <ele>418.10000000000002</ele>
        <time>2018-05-20T08:07:41Z</time>
      </trkpt>
      <trkpt lat="42.91638501919806" lon="-8.066865988075733">
        <ele>418.10000000000002</ele>
        <time>2018-05-20T08:07:43Z</time>
      </trkpt>
      <trkpt lat="42.916403040289879" lon="-8.066797005012631">
        <ele>418</ele>
        <time>2018-05-20T08:07:44Z</time>
      </trkpt>
      <trkpt lat="42.91642801836133" lon="-8.066746965050697">
        <ele>418</ele>
        <time>2018-05-20T08:07:46Z</time>
      </trkpt>
      <trkpt lat="42.916449978947639" lon="-8.066544961184263">
        <ele>417.80000000000001</ele>
        <time>2018-05-20T08:07:50Z</time>
      </trkpt>
      <trkpt lat="42.916479986160994" lon="-8.066352009773254">
        <ele>417.69999999999999</ele>
        <time>2018-05-20T08:07:54Z</time>
      </trkpt>
      <trkpt lat="42.916526002809405" lon="-8.066181018948555">
        <ele>417.60000000000002</ele>
        <time>2018-05-20T08:07:58Z</time>
      </trkpt>
      <trkpt lat="42.916559027507901" lon="-8.065996030345559">
        <ele>417.60000000000002</ele>
        <time>2018-05-20T08:08:02Z</time>
      </trkpt>
      <trkpt lat="42.916618958115578" lon="-8.065819004550576">
        <ele>417.69999999999999</ele>
        <time>2018-05-20T08:08:07Z</time>
      </trkpt>
      <trkpt lat="42.916639996692538" lon="-8.065770976245403">
        <ele>417.69999999999999</ele>
        <time>2018-05-20T08:08:08Z</time>
      </trkpt>
      <trkpt lat="42.916662963107228" lon="-8.065713979303837">
        <ele>417.69999999999999</ele>
        <time>2018-05-20T08:08:09Z</time>
      </trkpt>
      <trkpt lat="42.91668601334095" lon="-8.065627980977297">
        <ele>417.69999999999999</ele>
        <time>2018-05-20T08:08:11Z</time>
      </trkpt>
      <trkpt lat="42.916695987805724" lon="-8.065558997914195">
        <ele>417.60000000000002</ele>
        <time>2018-05-20T08:08:13Z</time>
      </trkpt>
      <trkpt lat="42.916709985584021" lon="-8.065512981265783">
        <ele>417.60000000000002</ele>
        <time>2018-05-20T08:08:14Z</time>
      </trkpt>
      <trkpt lat="42.916719038039446" lon="-8.065466964617372">
        <ele>417.60000000000002</ele>
        <time>2018-05-20T08:08:15Z</time>
      </trkpt>
      <trkpt lat="42.916733035817742" lon="-8.065414996817708">
        <ele>417.60000000000002</ele>
        <time>2018-05-20T08:08:16Z</time>
      </trkpt>
      <trkpt lat="42.916761031374335" lon="-8.065351964905858">
        <ele>417.69999999999999</ele>
        <time>2018-05-20T08:08:18Z</time>
      </trkpt>
      <trkpt lat="42.916779974475503" lon="-8.065282981842756">
        <ele>417.80000000000001</ele>
        <time>2018-05-20T08:08:19Z</time>
      </trkpt>
      <trkpt lat="42.916797995567322" lon="-8.065213998779655">
        <ele>417.80000000000001</ele>
        <time>2018-05-20T08:08:21Z</time>
      </trkpt>
      <trkpt lat="42.916817022487521" lon="-8.065167982131243">
        <ele>417.89999999999998</ele>
        <time>2018-05-20T08:08:22Z</time>
      </trkpt>
      <trkpt lat="42.916835965588689" lon="-8.065110985189676">
        <ele>417.89999999999998</ele>
        <time>2018-05-20T08:08:23Z</time>
      </trkpt>
      <trkpt lat="42.916859015822411" lon="-8.065052982419729">
        <ele>417.89999999999998</ele>
        <time>2018-05-20T08:08:25Z</time>
      </trkpt>
      <trkpt lat="42.916877958923578" lon="-8.065006965771318">
        <ele>417.89999999999998</ele>
        <time>2018-05-20T08:08:26Z</time>
      </trkpt>
      <trkpt lat="42.916906038299203" lon="-8.064944017678499">
        <ele>417.80000000000001</ele>
        <time>2018-05-20T08:08:28Z</time>
      </trkpt>
      <trkpt lat="42.916929004713893" lon="-8.064875034615398">
        <ele>417.80000000000001</ele>
        <time>2018-05-20T08:08:29Z</time>
      </trkpt>
      <trkpt lat="42.916948031634092" lon="-8.064829017966986">
        <ele>417.69999999999999</ele>
        <time>2018-05-20T08:08:30Z</time>
      </trkpt>
      <trkpt lat="42.916965968906879" lon="-8.064784007146955">
        <ele>417.60000000000002</ele>
        <time>2018-05-20T08:08:31Z</time>
      </trkpt>
      <trkpt lat="42.916984995827079" lon="-8.064726004377008">
        <ele>417.5</ele>
        <time>2018-05-20T08:08:33Z</time>
      </trkpt>
      <trkpt lat="42.916998993605375" lon="-8.064674036577344">
        <ele>417.5</ele>
        <time>2018-05-20T08:08:34Z</time>
      </trkpt>
      <trkpt lat="42.917012991383672" lon="-8.064603041857481">
        <ele>417.39999999999998</ele>
        <time>2018-05-20T08:08:36Z</time>
      </trkpt>
      <trkpt lat="42.917012991383672" lon="-8.064545961096883">
        <ele>417.80000000000001</ele>
        <time>2018-05-20T08:08:37Z</time>
      </trkpt>
      <trkpt lat="42.917012991383672" lon="-8.064454011619091">
        <ele>418.89999999999998</ele>
        <time>2018-05-20T08:08:39Z</time>
      </trkpt>
      <trkpt lat="42.917012991383672" lon="-8.064378993585706">
        <ele>419.89999999999998</ele>
        <time>2018-05-20T08:08:41Z</time>
      </trkpt>
      <trkpt lat="42.917012991383672" lon="-8.064321996644139">
        <ele>420.60000000000002</ele>
        <time>2018-05-20T08:08:42Z</time>
      </trkpt>
      <trkpt lat="42.917012991383672" lon="-8.064253013581038">
        <ele>421.39999999999998</ele>
        <time>2018-05-20T08:08:43Z</time>
      </trkpt>
      <trkpt lat="42.917007962241769" lon="-8.064196016639471">
        <ele>422.19999999999999</ele>
        <time>2018-05-20T08:08:45Z</time>
      </trkpt>
      <trkpt lat="42.916990024968982" lon="-8.064149999991059">
        <ele>422.89999999999998</ele>
        <time>2018-05-20T08:08:46Z</time>
      </trkpt>
      <trkpt lat="42.916957000270486" lon="-8.064110018312931">
        <ele>423.60000000000002</ele>
        <time>2018-05-20T08:08:47Z</time>
      </trkpt>
      <trkpt lat="42.91692397557199" lon="-8.064069030806422">
        <ele>424.39999999999998</ele>
        <time>2018-05-20T08:08:48Z</time>
      </trkpt>
      <trkpt lat="42.916881982237101" lon="-8.064028965309262">
        <ele>425.30000000000001</ele>
        <time>2018-05-20T08:08:50Z</time>
      </trkpt>
      <trkpt lat="42.916845018044114" lon="-8.064012033864856">
        <ele>425.80000000000001</ele>
        <time>2018-05-20T08:08:51Z</time>
      </trkpt>
      <trkpt lat="42.916803024709225" lon="-8.063988983631134">
        <ele>426.39999999999998</ele>
        <time>2018-05-20T08:08:52Z</time>
      </trkpt>
      <trkpt lat="42.916765976697206" lon="-8.063976997509599">
        <ele>426.89999999999998</ele>
        <time>2018-05-20T08:08:54Z</time>
      </trkpt>
      <trkpt lat="42.916737981140614" lon="-8.063937015831471">
        <ele>427.69999999999999</ele>
        <time>2018-05-20T08:08:55Z</time>
      </trkpt>
      <trkpt lat="42.916700011119246" lon="-8.063880018889904">
        <ele>428.80000000000001</ele>
        <time>2018-05-20T08:08:56Z</time>
      </trkpt>
      <trkpt lat="42.916667992249131" lon="-8.063827967271209">
        <ele>429.89999999999998</ele>
        <time>2018-05-20T08:08:58Z</time>
      </trkpt>
      <trkpt lat="42.916639996692538" lon="-8.063765019178391">
        <ele>431</ele>
        <time>2018-05-20T08:09:00Z</time>
      </trkpt>
      <trkpt lat="42.916616024449468" lon="-8.063725037500262">
        <ele>431.80000000000001</ele>
        <time>2018-05-20T08:09:01Z</time>
      </trkpt>
      <trkpt lat="42.916578976437449" lon="-8.063662005588412">
        <ele>433</ele>
        <time>2018-05-20T08:09:02Z</time>
      </trkpt>
      <trkpt lat="42.916553998365998" lon="-8.063613977283239">
        <ele>433.89999999999998</ele>
        <time>2018-05-20T08:09:04Z</time>
      </trkpt>
      <trkpt lat="42.91651401668787" lon="-8.063533008098602">
        <ele>435.39999999999998</ele>
        <time>2018-05-20T08:09:06Z</time>
      </trkpt>
      <trkpt lat="42.916494989767671" lon="-8.063464025035501">
        <ele>436.5</ele>
        <time>2018-05-20T08:09:08Z</time>
      </trkpt>
      <trkpt lat="42.916486021131277" lon="-8.063398981466889">
        <ele>437.5</ele>
        <time>2018-05-20T08:09:09Z</time>
      </trkpt>
      <trkpt lat="42.916466994211078" lon="-8.063340978696942">
        <ele>438.39999999999998</ele>
        <time>2018-05-20T08:09:10Z</time>
      </trkpt>
      <trkpt lat="42.916456013917923" lon="-8.063294962048531">
        <ele>439.19999999999999</ele>
        <time>2018-05-20T08:09:11Z</time>
      </trkpt>
      <trkpt lat="42.91642801836133" lon="-8.063121037557721">
        <ele>441.80000000000001</ele>
        <time>2018-05-20T08:09:15Z</time>
      </trkpt>
      <trkpt lat="42.91642801836133" lon="-8.063115002587438">
        <ele>441.80000000000001</ele>
        <time>2018-05-20T08:09:16Z</time>
      </trkpt>
      <trkpt lat="42.916366998106241" lon="-8.062750976532698">
        <ele>445.69999999999999</ele>
        <time>2018-05-20T08:09:24Z</time>
      </trkpt>
      <trkpt lat="42.916279993951321" lon="-8.062396002933383">
        <ele>447.69999999999999</ele>
        <time>2018-05-20T08:09:32Z</time>
      </trkpt>
      <trkpt lat="42.916218973696232" lon="-8.061963999643922">
        <ele>449.5</ele>
        <time>2018-05-20T08:09:41Z</time>
      </trkpt>
      <trkpt lat="42.916133981198072" lon="-8.061817986890674">
        <ele>450.19999999999999</ele>
        <time>2018-05-20T08:09:45Z</time>
      </trkpt>
      <trkpt lat="42.915986040607095" lon="-8.061481034383178">
        <ele>451.80000000000001</ele>
        <time>2018-05-20T08:09:54Z</time>
      </trkpt>
      <trkpt lat="42.915876992046833" lon="-8.061266038566828">
        <ele>452.80000000000001</ele>
        <time>2018-05-20T08:10:00Z</time>
      </trkpt>
      <trkpt lat="42.915758974850178" lon="-8.060967978090048">
        <ele>455.19999999999999</ele>
        <time>2018-05-20T08:10:07Z</time>
      </trkpt>
      <trkpt lat="42.915672976523638" lon="-8.060642005875707">
        <ele>457.80000000000001</ele>
        <time>2018-05-20T08:10:15Z</time>
      </trkpt>
      <trkpt lat="42.91561002843082" lon="-8.060416029766202">
        <ele>459.5</ele>
        <time>2018-05-20T08:10:20Z</time>
      </trkpt>
      <trkpt lat="42.915540039539337" lon="-8.060052003711462">
        <ele>461.5</ele>
        <time>2018-05-20T08:10:28Z</time>
      </trkpt>
      <trkpt lat="42.915472984313965" lon="-8.059777999296784">
        <ele>463</ele>
        <time>2018-05-20T08:10:34Z</time>
      </trkpt>
      <trkpt lat="42.915455969050527" lon="-8.059393018484116">
        <ele>463.89999999999998</ele>
        <time>2018-05-20T08:10:43Z</time>
      </trkpt>
      <trkpt lat="42.915451023727655" lon="-8.059398969635367">
        <ele>463.89999999999998</ele>
        <time>2018-05-20T08:10:43Z</time>
      </trkpt>
      <trkpt lat="42.91544197127223" lon="-8.059253040701151">
        <ele>464</ele>
        <time>2018-05-20T08:10:46Z</time>
      </trkpt>
      <trkpt lat="42.915423028171062" lon="-8.058880968019366">
        <ele>464</ele>
        <time>2018-05-20T08:10:54Z</time>
      </trkpt>
      <trkpt lat="42.915423028171062" lon="-8.058533035218716">
        <ele>463.19999999999999</ele>
        <time>2018-05-20T08:11:02Z</time>
      </trkpt>
      <trkpt lat="42.915391009300947" lon="-8.058096002787352">
        <ele>461.5</ele>
        <time>2018-05-20T08:11:11Z</time>
      </trkpt>
      <trkpt lat="42.915391009300947" lon="-8.058088039979339">
        <ele>461.5</ele>
        <time>2018-05-20T08:11:11Z</time>
      </trkpt>
      <trkpt lat="42.915391009300947" lon="-8.057738011702895">
        <ele>460.19999999999999</ele>
        <time>2018-05-20T08:11:19Z</time>
      </trkpt>
      <trkpt lat="42.915391009300947" lon="-8.05772602558136">
        <ele>460.19999999999999</ele>
        <time>2018-05-20T08:11:19Z</time>
      </trkpt>
      <trkpt lat="42.915391009300947" lon="-8.05766299366951">
        <ele>459.89999999999998</ele>
        <time>2018-05-20T08:11:21Z</time>
      </trkpt>
      <trkpt lat="42.915391009300947" lon="-8.057594010606408">
        <ele>459.69999999999999</ele>
        <time>2018-05-20T08:11:22Z</time>
      </trkpt>
      <trkpt lat="42.915391009300947" lon="-8.057537013664842">
        <ele>459.5</ele>
        <time>2018-05-20T08:11:23Z</time>
      </trkpt>
      <trkpt lat="42.915399977937341" lon="-8.057484962046146">
        <ele>459.39999999999998</ele>
        <time>2018-05-20T08:11:24Z</time>
      </trkpt>
      <trkpt lat="42.915405007079244" lon="-8.05742796510458">
        <ele>459.19999999999999</ele>
        <time>2018-05-20T08:11:26Z</time>
      </trkpt>
      <trkpt lat="42.915405007079244" lon="-8.057375997304916">
        <ele>459</ele>
        <time>2018-05-20T08:11:27Z</time>
      </trkpt>
      <trkpt lat="42.915405007079244" lon="-8.057324029505253">
        <ele>458.80000000000001</ele>
        <time>2018-05-20T08:11:28Z</time>
      </trkpt>
      <trkpt lat="42.915409030392766" lon="-8.057267032563686">
        <ele>458.60000000000002</ele>
        <time>2018-05-20T08:11:29Z</time>
      </trkpt>
      <trkpt lat="42.91541900485754" lon="-8.057209029793739">
        <ele>458.39999999999998</ele>
        <time>2018-05-20T08:11:30Z</time>
      </trkpt>
      <trkpt lat="42.915437025949359" lon="-8.057145997881889">
        <ele>458.19999999999999</ele>
        <time>2018-05-20T08:11:32Z</time>
      </trkpt>
      <trkpt lat="42.915451023727655" lon="-8.057082965970039">
        <ele>457.89999999999998</ele>
        <time>2018-05-20T08:11:33Z</time>
      </trkpt>
      <trkpt lat="42.915465021505952" lon="-8.057030998170376">
        <ele>457.80000000000001</ele>
        <time>2018-05-20T08:11:35Z</time>
      </trkpt>
      <trkpt lat="42.91548396460712" lon="-8.056991016492248">
        <ele>457.80000000000001</ele>
        <time>2018-05-20T08:11:36Z</time>
      </trkpt>
      <trkpt lat="42.915497962385416" lon="-8.056934019550681">
        <ele>457.69999999999999</ele>
        <time>2018-05-20T08:11:37Z</time>
      </trkpt>
      <trkpt lat="42.915511960163713" lon="-8.056881967931986">
        <ele>457.60000000000002</ele>
        <time>2018-05-20T08:11:38Z</time>
      </trkpt>
      <trkpt lat="42.915529981255531" lon="-8.056819019839168">
        <ele>457.60000000000002</ele>
        <time>2018-05-20T08:11:40Z</time>
      </trkpt>
      <trkpt lat="42.915549008175731" lon="-8.056744001805782">
        <ele>457.5</ele>
        <time>2018-05-20T08:11:41Z</time>
      </trkpt>
      <trkpt lat="42.915563005954027" lon="-8.056664038449526">
        <ele>457.5</ele>
        <time>2018-05-20T08:11:43Z</time>
      </trkpt>
      <trkpt lat="42.915577003732324" lon="-8.056606035679579">
        <ele>457.5</ele>
        <time>2018-05-20T08:11:44Z</time>
      </trkpt>
      <trkpt lat="42.91559100151062" lon="-8.056549038738012">
        <ele>457.5</ele>
        <time>2018-05-20T08:11:46Z</time>
      </trkpt>
      <trkpt lat="42.915604999288917" lon="-8.056486006826162">
        <ele>457.5</ele>
        <time>2018-05-20T08:11:47Z</time>
      </trkpt>
      <trkpt lat="42.915625032037497" lon="-8.056420963257551">
        <ele>457.5</ele>
        <time>2018-05-20T08:11:49Z</time>
      </trkpt>
      <trkpt lat="42.915625032037497" lon="-8.056357009336352">
        <ele>457.5</ele>
        <time>2018-05-20T08:11:50Z</time>
      </trkpt>
      <trkpt lat="42.915625032037497" lon="-8.056260030716658">
        <ele>457.5</ele>
        <time>2018-05-20T08:11:52Z</time>
      </trkpt>
      <trkpt lat="42.915615979582071" lon="-8.056190963834524">
        <ele>457.5</ele>
        <time>2018-05-20T08:11:54Z</time>
      </trkpt>
      <trkpt lat="42.915615979582071" lon="-8.056109994649887">
        <ele>457.60000000000002</ele>
        <time>2018-05-20T08:11:55Z</time>
      </trkpt>
      <trkpt lat="42.915615979582071" lon="-8.056052997708321">
        <ele>457.69999999999999</ele>
        <time>2018-05-20T08:11:57Z</time>
      </trkpt>
      <trkpt lat="42.915615979582071" lon="-8.055984014645219">
        <ele>457.80000000000001</ele>
        <time>2018-05-20T08:11:58Z</time>
      </trkpt>
      <trkpt lat="42.915625032037497" lon="-8.055944032967091">
        <ele>457.89999999999998</ele>
        <time>2018-05-20T08:11:59Z</time>
      </trkpt>
      <trkpt lat="42.915635006502271" lon="-8.055891981348395">
        <ele>458</ele>
        <time>2018-05-20T08:12:00Z</time>
      </trkpt>
      <trkpt lat="42.915643975138664" lon="-8.055833978578448">
        <ele>458</ele>
        <time>2018-05-20T08:12:01Z</time>
      </trkpt>
      <trkpt lat="42.915663002058864" lon="-8.05577103048563">
        <ele>458.19999999999999</ele>
        <time>2018-05-20T08:12:03Z</time>
      </trkpt>
      <trkpt lat="42.915671970695257" lon="-8.055719984695315">
        <ele>458.19999999999999</ele>
        <time>2018-05-20T08:12:04Z</time>
      </trkpt>
      <trkpt lat="42.915685968473554" lon="-8.055656030774117">
        <ele>458.39999999999998</ele>
        <time>2018-05-20T08:12:06Z</time>
      </trkpt>
      <trkpt lat="42.91569996625185" lon="-8.055592998862267">
        <ele>458.5</ele>
        <time>2018-05-20T08:12:07Z</time>
      </trkpt>
      <trkpt lat="42.915725028142333" lon="-8.055509012192488">
        <ele>458.60000000000002</ele>
        <time>2018-05-20T08:12:09Z</time>
      </trkpt>
      <trkpt lat="42.915800968185067" lon="-8.055243976414204">
        <ele>459.60000000000002</ele>
        <time>2018-05-20T08:12:15Z</time>
      </trkpt>
      <trkpt lat="42.915872968733311" lon="-8.055080026388168">
        <ele>460.60000000000002</ele>
        <time>2018-05-20T08:12:19Z</time>
      </trkpt>
      <trkpt lat="42.915886966511607" lon="-8.055049013346434">
        <ele>460.80000000000001</ele>
        <time>2018-05-20T08:12:20Z</time>
      </trkpt>
      <trkpt lat="42.915896018967032" lon="-8.055000985041261">
        <ele>461.10000000000002</ele>
        <time>2018-05-20T08:12:21Z</time>
      </trkpt>
      <trkpt lat="42.915910016745329" lon="-8.054938036948443">
        <ele>461.5</ele>
        <time>2018-05-20T08:12:23Z</time>
      </trkpt>
      <trkpt lat="42.915924014523625" lon="-8.054875005036593">
        <ele>461.80000000000001</ele>
        <time>2018-05-20T08:12:24Z</time>
      </trkpt>
      <trkpt lat="42.9159339889884" lon="-8.054818008095026">
        <ele>462.19999999999999</ele>
        <time>2018-05-20T08:12:25Z</time>
      </trkpt>
      <trkpt lat="42.915952010080218" lon="-8.054760005325079">
        <ele>462.60000000000002</ele>
        <time>2018-05-20T08:12:27Z</time>
      </trkpt>
      <trkpt lat="42.915971037000418" lon="-8.054703008383513">
        <ele>463</ele>
        <time>2018-05-20T08:12:28Z</time>
      </trkpt>
      <trkpt lat="42.916003977879882" lon="-8.054634025320411">
        <ele>463.69999999999999</ele>
        <time>2018-05-20T08:12:30Z</time>
      </trkpt>
      <trkpt lat="42.916030967608094" lon="-8.054570993408561">
        <ele>464.10000000000002</ele>
        <time>2018-05-20T08:12:31Z</time>
      </trkpt>
      <trkpt lat="42.916058963164687" lon="-8.054519025608897">
        <ele>464.19999999999999</ele>
        <time>2018-05-20T08:12:33Z</time>
      </trkpt>
      <trkpt lat="42.916077990084887" lon="-8.054473008960486">
        <ele>464.19999999999999</ele>
        <time>2018-05-20T08:12:34Z</time>
      </trkpt>
      <trkpt lat="42.916097017005086" lon="-8.054416012018919">
        <ele>464.19999999999999</ele>
        <time>2018-05-20T08:12:35Z</time>
      </trkpt>
      <trkpt lat="42.916105985641479" lon="-8.054363960400224">
        <ele>464.10000000000002</ele>
        <time>2018-05-20T08:12:36Z</time>
      </trkpt>
      <trkpt lat="42.916119983419776" lon="-8.054316015914083">
        <ele>464</ele>
        <time>2018-05-20T08:12:38Z</time>
      </trkpt>
      <trkpt lat="42.916139010339975" lon="-8.054263964295387">
        <ele>464</ele>
        <time>2018-05-20T08:12:39Z</time>
      </trkpt>
      <trkpt lat="42.916157031431794" lon="-8.054218031466007">
        <ele>464</ele>
        <time>2018-05-20T08:12:40Z</time>
      </trkpt>
      <trkpt lat="42.916175974532962" lon="-8.054166985675693">
        <ele>464</ele>
        <time>2018-05-20T08:12:41Z</time>
      </trkpt>
      <trkpt lat="42.916199024766684" lon="-8.054098002612591">
        <ele>463.89999999999998</ele>
        <time>2018-05-20T08:12:43Z</time>
      </trkpt>
      <trkpt lat="42.91621302254498" lon="-8.054039999842644">
        <ele>463.80000000000001</ele>
        <time>2018-05-20T08:12:44Z</time>
      </trkpt>
      <trkpt lat="42.916227020323277" lon="-8.053993983194232">
        <ele>463.69999999999999</ele>
        <time>2018-05-20T08:12:45Z</time>
      </trkpt>
      <trkpt lat="42.916245963424444" lon="-8.05394796654582">
        <ele>463.69999999999999</ele>
        <time>2018-05-20T08:12:46Z</time>
      </trkpt>
      <trkpt lat="42.916269013658166" lon="-8.053874038159847">
        <ele>463.5</ele>
        <time>2018-05-20T08:12:48Z</time>
      </trkpt>
      <trkpt lat="42.916288040578365" lon="-8.0538160353899">
        <ele>463.39999999999998</ele>
        <time>2018-05-20T08:12:49Z</time>
      </trkpt>
      <trkpt lat="42.916306983679533" lon="-8.053770018741489">
        <ele>463.30000000000001</ele>
        <time>2018-05-20T08:12:51Z</time>
      </trkpt>
      <trkpt lat="42.916334979236126" lon="-8.053706986829639">
        <ele>463.19999999999999</ele>
        <time>2018-05-20T08:12:52Z</time>
      </trkpt>
      <trkpt lat="42.916358029469848" lon="-8.053660970181227">
        <ele>463</ele>
        <time>2018-05-20T08:12:53Z</time>
      </trkpt>
      <trkpt lat="42.916376972571015" lon="-8.053610008209944">
        <ele>462.80000000000001</ele>
        <time>2018-05-20T08:12:55Z</time>
      </trkpt>
      <trkpt lat="42.916390970349312" lon="-8.053563991561532">
        <ele>462.69999999999999</ele>
        <time>2018-05-20T08:12:56Z</time>
      </trkpt>
      <trkpt lat="42.916414020583034" lon="-8.053512023761869">
        <ele>462.5</ele>
        <time>2018-05-20T08:12:57Z</time>
      </trkpt>
      <trkpt lat="42.916432963684201" lon="-8.053466007113457">
        <ele>462.39999999999998</ele>
        <time>2018-05-20T08:12:58Z</time>
      </trkpt>
      <trkpt lat="42.91645098477602" lon="-8.053414039313793">
        <ele>462.19999999999999</ele>
        <time>2018-05-20T08:12:59Z</time>
      </trkpt>
      <trkpt lat="42.916470011696219" lon="-8.053362993523479">
        <ele>462.10000000000002</ele>
        <time>2018-05-20T08:13:01Z</time>
      </trkpt>
      <trkpt lat="42.916492978110909" lon="-8.053316976875067">
        <ele>462</ele>
        <time>2018-05-20T08:13:02Z</time>
      </trkpt>
      <trkpt lat="42.916516028344631" lon="-8.053265009075403">
        <ele>461.89999999999998</ele>
        <time>2018-05-20T08:13:03Z</time>
      </trkpt>
      <trkpt lat="42.916544023901224" lon="-8.05321304127574">
        <ele>461.89999999999998</ele>
        <time>2018-05-20T08:13:05Z</time>
      </trkpt>
      <trkpt lat="42.916562967002392" lon="-8.053161995485425">
        <ele>461.80000000000001</ele>
        <time>2018-05-20T08:13:06Z</time>
      </trkpt>
      <trkpt lat="42.916590962558985" lon="-8.053121007978916">
        <ele>461.80000000000001</ele>
        <time>2018-05-20T08:13:07Z</time>
      </trkpt>
      <trkpt lat="42.916609989479184" lon="-8.05306401103735">
        <ele>461.69999999999999</ele>
        <time>2018-05-20T08:13:08Z</time>
      </trkpt>
      <trkpt lat="42.916642008349299" lon="-8.053011959418654">
        <ele>461.69999999999999</ele>
        <time>2018-05-20T08:13:10Z</time>
      </trkpt>
      <trkpt lat="42.91666598059237" lon="-8.052949011325836">
        <ele>461.60000000000002</ele>
        <time>2018-05-20T08:13:11Z</time>
      </trkpt>
      <trkpt lat="42.916684001684189" lon="-8.052902994677424">
        <ele>461.60000000000002</ele>
        <time>2018-05-20T08:13:13Z</time>
      </trkpt>
      <trkpt lat="42.916707973927259" lon="-8.052845997735858">
        <ele>461.60000000000002</ele>
        <time>2018-05-20T08:13:14Z</time>
      </trkpt>
      <trkpt lat="42.916735969483852" lon="-8.052765028551221">
        <ele>461.5</ele>
        <time>2018-05-20T08:13:16Z</time>
      </trkpt>
      <trkpt lat="42.916759019717574" lon="-8.052719011902809">
        <ele>461.5</ele>
        <time>2018-05-20T08:13:17Z</time>
      </trkpt>
      <trkpt lat="42.916773017495871" lon="-8.052667966112495">
        <ele>461.39999999999998</ele>
        <time>2018-05-20T08:13:18Z</time>
      </trkpt>
      <trkpt lat="42.916781986132264" lon="-8.052615998312831">
        <ele>461.30000000000001</ele>
        <time>2018-05-20T08:13:19Z</time>
      </trkpt>
      <trkpt lat="42.916795983910561" lon="-8.052564030513167">
        <ele>461.19999999999999</ele>
        <time>2018-05-20T08:13:21Z</time>
      </trkpt>
      <trkpt lat="42.916805958375335" lon="-8.052512984722853">
        <ele>461.10000000000002</ele>
        <time>2018-05-20T08:13:22Z</time>
      </trkpt>
      <trkpt lat="42.916829008609056" lon="-8.052461016923189">
        <ele>461</ele>
        <time>2018-05-20T08:13:23Z</time>
      </trkpt>
      <trkpt lat="42.916851975023746" lon="-8.052408965304494">
        <ele>461</ele>
        <time>2018-05-20T08:13:24Z</time>
      </trkpt>
      <trkpt lat="42.916871001943946" lon="-8.052368983626366">
        <ele>460.89999999999998</ele>
        <time>2018-05-20T08:13:26Z</time>
      </trkpt>
      <trkpt lat="42.916884999722242" lon="-8.052317015826702">
        <ele>460.80000000000001</ele>
        <time>2018-05-20T08:13:27Z</time>
      </trkpt>
      <trkpt lat="42.916898997500539" lon="-8.052260018885136">
        <ele>460.60000000000002</ele>
        <time>2018-05-20T08:13:28Z</time>
      </trkpt>
      <trkpt lat="42.916918024420738" lon="-8.05220796726644">
        <ele>460.5</ele>
        <time>2018-05-20T08:13:29Z</time>
      </trkpt>
      <trkpt lat="42.916940990835428" lon="-8.05216203443706">
        <ele>460.5</ele>
        <time>2018-05-20T08:13:30Z</time>
      </trkpt>
      <trkpt lat="42.91696404106915" lon="-8.0521219689399">
        <ele>460.5</ele>
        <time>2018-05-20T08:13:32Z</time>
      </trkpt>
      <trkpt lat="42.916996981948614" lon="-8.05207603611052">
        <ele>460.5</ele>
        <time>2018-05-20T08:13:33Z</time>
      </trkpt>
      <trkpt lat="42.917029000818729" lon="-8.052047034725547">
        <ele>460.60000000000002</ele>
        <time>2018-05-20T08:13:34Z</time>
      </trkpt>
      <trkpt lat="42.917066970840096" lon="-8.052030019462109">
        <ele>460.80000000000001</ele>
        <time>2018-05-20T08:13:35Z</time>
      </trkpt>
      <trkpt lat="42.917104018852115" lon="-8.052001018077135">
        <ele>460.89999999999998</ele>
        <time>2018-05-20T08:13:37Z</time>
      </trkpt>
      <trkpt lat="42.917140983045101" lon="-8.051977967843413">
        <ele>461</ele>
        <time>2018-05-20T08:13:38Z</time>
      </trkpt>
      <trkpt lat="42.917174007743597" lon="-8.05194997228682">
        <ele>461</ele>
        <time>2018-05-20T08:13:39Z</time>
      </trkpt>
      <trkpt lat="42.917221030220389" lon="-8.051920970901847">
        <ele>461.10000000000002</ele>
        <time>2018-05-20T08:13:40Z</time>
      </trkpt>
      <trkpt lat="42.917257994413376" lon="-8.051908984780312">
        <ele>461.30000000000001</ele>
        <time>2018-05-20T08:13:42Z</time>
      </trkpt>
      <trkpt lat="42.917294958606362" lon="-8.051875038072467">
        <ele>461.30000000000001</ele>
        <time>2018-05-20T08:13:43Z</time>
      </trkpt>
      <trkpt lat="42.917333012446761" lon="-8.051851987838745">
        <ele>461.39999999999998</ele>
        <time>2018-05-20T08:13:44Z</time>
      </trkpt>
      <trkpt lat="42.917370982468128" lon="-8.051829021424055">
        <ele>461.5</ele>
        <time>2018-05-20T08:13:45Z</time>
      </trkpt>
      <trkpt lat="42.917409036308527" lon="-8.051822986453772">
        <ele>461.69999999999999</ele>
        <time>2018-05-20T08:13:46Z</time>
      </trkpt>
      <trkpt lat="42.917446000501513" lon="-8.051805971190333">
        <ele>461.80000000000001</ele>
        <time>2018-05-20T08:13:48Z</time>
      </trkpt>
      <trkpt lat="42.9174829646945" lon="-8.051772024482489">
        <ele>461.89999999999998</ele>
        <time>2018-05-20T08:13:49Z</time>
      </trkpt>
      <trkpt lat="42.917515989392996" lon="-8.051743023097515">
        <ele>462</ele>
        <time>2018-05-20T08:13:50Z</time>
      </trkpt>
      <trkpt lat="42.917543984949589" lon="-8.051697006449103">
        <ele>462</ele>
        <time>2018-05-20T08:13:51Z</time>
      </trkpt>
      <trkpt lat="42.917563011869788" lon="-8.051650989800692">
        <ele>462</ele>
        <time>2018-05-20T08:13:53Z</time>
      </trkpt>
      <trkpt lat="42.917567035183311" lon="-8.051599022001028">
        <ele>461.89999999999998</ele>
        <time>2018-05-20T08:13:54Z</time>
      </trkpt>
      <trkpt lat="42.917567035183311" lon="-8.051535990089178">
        <ele>461.80000000000001</ele>
        <time>2018-05-20T08:13:55Z</time>
      </trkpt>
      <trkpt lat="42.917567035183311" lon="-8.051471030339599">
        <ele>461.69999999999999</ele>
        <time>2018-05-20T08:13:56Z</time>
      </trkpt>
      <trkpt lat="42.917569968849421" lon="-8.051247987896204">
        <ele>461.30000000000001</ele>
        <time>2018-05-20T08:14:01Z</time>
      </trkpt>
      <trkpt lat="42.917547002434731" lon="-8.050966020673513">
        <ele>460.39999999999998</ele>
        <time>2018-05-20T08:14:07Z</time>
      </trkpt>
      <trkpt lat="42.917461004108191" lon="-8.050451036542654">
        <ele>458.5</ele>
        <time>2018-05-20T08:14:19Z</time>
      </trkpt>
      <trkpt lat="42.917412975803018" lon="-8.050006963312626">
        <ele>456.80000000000001</ele>
        <time>2018-05-20T08:14:29Z</time>
      </trkpt>
      <trkpt lat="42.917362013831735" lon="-8.049830021336675">
        <ele>456.10000000000002</ele>
        <time>2018-05-20T08:14:33Z</time>
      </trkpt>
      <trkpt lat="42.917306022718549" lon="-8.049656013026834">
        <ele>455.5</ele>
        <time>2018-05-20T08:14:37Z</time>
      </trkpt>
      <trkpt lat="42.917295964434743" lon="-8.049632040783763">
        <ele>455.39999999999998</ele>
        <time>2018-05-20T08:14:37Z</time>
      </trkpt>
      <trkpt lat="42.917264029383659" lon="-8.049608990550041">
        <ele>455.30000000000001</ele>
        <time>2018-05-20T08:14:39Z</time>
      </trkpt>
      <trkpt lat="42.917231004685163" lon="-8.049569008871913">
        <ele>455.10000000000002</ele>
        <time>2018-05-20T08:14:40Z</time>
      </trkpt>
      <trkpt lat="42.917161015793681" lon="-8.049459960311651">
        <ele>454.80000000000001</ele>
        <time>2018-05-20T08:14:43Z</time>
      </trkpt>
      <trkpt lat="42.917113993316889" lon="-8.049397012218833">
        <ele>454.60000000000002</ele>
        <time>2018-05-20T08:14:45Z</time>
      </trkpt>
      <trkpt lat="42.917085997760296" lon="-8.049357030540705">
        <ele>454.5</ele>
        <time>2018-05-20T08:14:46Z</time>
      </trkpt>
      <trkpt lat="42.917053978890181" lon="-8.049321994185448">
        <ele>454.19999999999999</ele>
        <time>2018-05-20T08:14:47Z</time>
      </trkpt>
      <trkpt lat="42.917021038010716" lon="-8.049293998628855">
        <ele>454</ele>
        <time>2018-05-20T08:14:49Z</time>
      </trkpt>
      <trkpt lat="42.916992958635092" lon="-8.049258962273598">
        <ele>453.80000000000001</ele>
        <time>2018-05-20T08:14:50Z</time>
      </trkpt>
      <trkpt lat="42.916955994442105" lon="-8.049225015565753">
        <ele>453.5</ele>
        <time>2018-05-20T08:14:51Z</time>
      </trkpt>
      <trkpt lat="42.916927998885512" lon="-8.049185033887625">
        <ele>453.30000000000001</ele>
        <time>2018-05-20T08:14:52Z</time>
      </trkpt>
      <trkpt lat="42.916891034692526" lon="-8.049149997532368">
        <ele>453</ele>
        <time>2018-05-20T08:14:53Z</time>
      </trkpt>
      <trkpt lat="42.91685800999403" lon="-8.049103980883956">
        <ele>452.80000000000001</ele>
        <time>2018-05-20T08:14:55Z</time>
      </trkpt>
      <trkpt lat="42.916824985295534" lon="-8.049057964235544">
        <ele>452.60000000000002</ele>
        <time>2018-05-20T08:14:56Z</time>
      </trkpt>
      <trkpt lat="42.916796989738941" lon="-8.049012031406164">
        <ele>452.39999999999998</ele>
        <time>2018-05-20T08:14:58Z</time>
      </trkpt>
      <trkpt lat="42.916761031374335" lon="-8.049000967293978">
        <ele>452.19999999999999</ele>
        <time>2018-05-20T08:14:59Z</time>
      </trkpt>
      <trkpt lat="42.916723983362317" lon="-8.048978000879288">
        <ele>452</ele>
        <time>2018-05-20T08:15:00Z</time>
      </trkpt>
      <trkpt lat="42.916679978370667" lon="-8.04893801920116">
        <ele>451.80000000000001</ele>
        <time>2018-05-20T08:15:01Z</time>
      </trkpt>
      <trkpt lat="42.916637985035777" lon="-8.048919998109341">
        <ele>451.60000000000002</ele>
        <time>2018-05-20T08:15:03Z</time>
      </trkpt>
      <trkpt lat="42.916619963943958" lon="-8.048873981460929">
        <ele>451.5</ele>
        <time>2018-05-20T08:15:04Z</time>
      </trkpt>
      <trkpt lat="42.916601020842791" lon="-8.048787983134389">
        <ele>451.30000000000001</ele>
        <time>2018-05-20T08:15:06Z</time>
      </trkpt>
      <trkpt lat="42.916601020842791" lon="-8.048737021163106">
        <ele>451.30000000000001</ele>
        <time>2018-05-20T08:15:07Z</time>
      </trkpt>
      <trkpt lat="42.916609989479184" lon="-8.048670971766114">
        <ele>451.19999999999999</ele>
        <time>2018-05-20T08:15:08Z</time>
      </trkpt>
      <trkpt lat="42.916619963943958" lon="-8.048613974824548">
        <ele>451.19999999999999</ele>
        <time>2018-05-20T08:15:10Z</time>
      </trkpt>
      <trkpt lat="42.916637985035777" lon="-8.048567958176136">
        <ele>451.30000000000001</ele>
        <time>2018-05-20T08:15:11Z</time>
      </trkpt>
      <trkpt lat="42.91666598059237" lon="-8.048515990376473">
        <ele>451.39999999999998</ele>
        <time>2018-05-20T08:15:12Z</time>
      </trkpt>
      <trkpt lat="42.916679978370667" lon="-8.048458993434906">
        <ele>451.39999999999998</ele>
        <time>2018-05-20T08:15:13Z</time>
      </trkpt>
      <trkpt lat="42.916704034432769" lon="-8.048407025635243">
        <ele>451.39999999999998</ele>
        <time>2018-05-20T08:15:15Z</time>
      </trkpt>
      <trkpt lat="42.916713003069162" lon="-8.048354974016547">
        <ele>451.5</ele>
        <time>2018-05-20T08:15:16Z</time>
      </trkpt>
      <trkpt lat="42.916727000847459" lon="-8.048309963196516">
        <ele>451.5</ele>
        <time>2018-05-20T08:15:17Z</time>
      </trkpt>
      <trkpt lat="42.916740998625755" lon="-8.048246009275317">
        <ele>451.5</ele>
        <time>2018-05-20T08:15:18Z</time>
      </trkpt>
      <trkpt lat="42.916746027767658" lon="-8.048189012333751">
        <ele>451.5</ele>
        <time>2018-05-20T08:15:20Z</time>
      </trkpt>
      <trkpt lat="42.916746027767658" lon="-8.048136960715056">
        <ele>451.5</ele>
        <time>2018-05-20T08:15:21Z</time>
      </trkpt>
      <trkpt lat="42.916746027767658" lon="-8.048084992915392">
        <ele>451.5</ele>
        <time>2018-05-20T08:15:22Z</time>
      </trkpt>
      <trkpt lat="42.916735969483852" lon="-8.048021961003542">
        <ele>451.39999999999998</ele>
        <time>2018-05-20T08:15:23Z</time>
      </trkpt>
      <trkpt lat="42.916735969483852" lon="-8.04795297794044">
        <ele>451.39999999999998</ele>
        <time>2018-05-20T08:15:25Z</time>
      </trkpt>
      <trkpt lat="42.916727000847459" lon="-8.047897992655635">
        <ele>451.19999999999999</ele>
        <time>2018-05-20T08:15:26Z</time>
      </trkpt>
      <trkpt lat="42.916718032211065" lon="-8.047834960743785">
        <ele>451</ele>
        <time>2018-05-20T08:15:27Z</time>
      </trkpt>
      <trkpt lat="42.916707973927259" lon="-8.047765977680683">
        <ele>450.69999999999999</ele>
        <time>2018-05-20T08:15:29Z</time>
      </trkpt>
      <trkpt lat="42.916690036654472" lon="-8.047702023759484">
        <ele>450.39999999999998</ele>
        <time>2018-05-20T08:15:31Z</time>
      </trkpt>
      <trkpt lat="42.91666598059237" lon="-8.047633962705731">
        <ele>450.10000000000002</ele>
        <time>2018-05-20T08:15:32Z</time>
      </trkpt>
      <trkpt lat="42.916647959500551" lon="-8.047581994906068">
        <ele>449.89999999999998</ele>
        <time>2018-05-20T08:15:33Z</time>
      </trkpt>
      <trkpt lat="42.916615018621087" lon="-8.047530027106404">
        <ele>449.69999999999999</ele>
        <time>2018-05-20T08:15:35Z</time>
      </trkpt>
      <trkpt lat="42.916587023064494" lon="-8.047477975487709">
        <ele>449.5</ele>
        <time>2018-05-20T08:15:36Z</time>
      </trkpt>
      <trkpt lat="42.916555004194379" lon="-8.047403963282704">
        <ele>449.19999999999999</ele>
        <time>2018-05-20T08:15:38Z</time>
      </trkpt>
      <trkpt lat="42.916504964232445" lon="-8.047347972169519">
        <ele>448.89999999999998</ele>
        <time>2018-05-20T08:15:40Z</time>
      </trkpt>
      <trkpt lat="42.916480991989374" lon="-8.047302039340138">
        <ele>448.80000000000001</ele>
        <time>2018-05-20T08:15:41Z</time>
      </trkpt>
      <trkpt lat="42.916452996432781" lon="-8.047256022691727">
        <ele>448.60000000000002</ele>
        <time>2018-05-20T08:15:43Z</time>
      </trkpt>
      <trkpt lat="42.916425000876188" lon="-8.047216041013598">
        <ele>448.5</ele>
        <time>2018-05-20T08:15:44Z</time>
      </trkpt>
      <trkpt lat="42.916392982006073" lon="-8.047175975516439">
        <ele>448.30000000000001</ele>
        <time>2018-05-20T08:15:45Z</time>
      </trkpt>
      <trkpt lat="42.916360041126609" lon="-8.047117972746491">
        <ele>448.19999999999999</ele>
        <time>2018-05-20T08:15:47Z</time>
      </trkpt>
      <trkpt lat="42.916328022256494" lon="-8.047067010775209">
        <ele>448.10000000000002</ele>
        <time>2018-05-20T08:15:48Z</time>
      </trkpt>
      <trkpt lat="42.916274964809418" lon="-8.046976989135146">
        <ele>448.10000000000002</ele>
        <time>2018-05-20T08:15:51Z</time>
      </trkpt>
      <trkpt lat="42.916250992566347" lon="-8.046930972486734">
        <ele>448.19999999999999</ele>
        <time>2018-05-20T08:15:52Z</time>
      </trkpt>
      <trkpt lat="42.916218973696232" lon="-8.046879004687071">
        <ele>448.19999999999999</ele>
        <time>2018-05-20T08:15:53Z</time>
      </trkpt>
      <trkpt lat="42.916195001453161" lon="-8.046821001917124">
        <ele>448.30000000000001</ele>
        <time>2018-05-20T08:15:55Z</time>
      </trkpt>
      <trkpt lat="42.916172035038471" lon="-8.046775991097093">
        <ele>448.30000000000001</ele>
        <time>2018-05-20T08:15:56Z</time>
      </trkpt>
      <trkpt lat="42.916148984804749" lon="-8.046724023297429">
        <ele>448.39999999999998</ele>
        <time>2018-05-20T08:15:57Z</time>
      </trkpt>
      <trkpt lat="42.916120989248157" lon="-8.046671971678734">
        <ele>448.39999999999998</ele>
        <time>2018-05-20T08:15:59Z</time>
      </trkpt>
      <trkpt lat="42.916101962327957" lon="-8.046631990000606">
        <ele>448.5</ele>
        <time>2018-05-20T08:16:00Z</time>
      </trkpt>
      <trkpt lat="42.916078995913267" lon="-8.046563006937504">
        <ele>448.5</ele>
        <time>2018-05-20T08:16:01Z</time>
      </trkpt>
      <trkpt lat="42.9160410258919" lon="-8.046487988904119">
        <ele>448.60000000000002</ele>
        <time>2018-05-20T08:16:03Z</time>
      </trkpt>
      <trkpt lat="42.916023004800081" lon="-8.046430991962552">
        <ele>448.69999999999999</ele>
        <time>2018-05-20T08:16:05Z</time>
      </trkpt>
      <trkpt lat="42.915999032557011" lon="-8.04636200889945">
        <ele>448.80000000000001</ele>
        <time>2018-05-20T08:16:06Z</time>
      </trkpt>
      <trkpt lat="42.915999032557011" lon="-8.0462989769876">
        <ele>448.89999999999998</ele>
        <time>2018-05-20T08:16:08Z</time>
      </trkpt>
      <trkpt lat="42.915999032557011" lon="-8.046213984489441">
        <ele>449.10000000000002</ele>
        <time>2018-05-20T08:16:10Z</time>
      </trkpt>
      <trkpt lat="42.915999032557011" lon="-8.046139972284436">
        <ele>449.19999999999999</ele>
        <time>2018-05-20T08:16:11Z</time>
      </trkpt>
      <trkpt lat="42.916009007021785" lon="-8.046065038070083">
        <ele>449.39999999999998</ele>
        <time>2018-05-20T08:16:13Z</time>
      </trkpt>
      <trkpt lat="42.916017975658178" lon="-8.046019021421671">
        <ele>449.5</ele>
        <time>2018-05-20T08:16:14Z</time>
      </trkpt>
      <trkpt lat="42.916027028113604" lon="-8.045973004773259">
        <ele>449.60000000000002</ele>
        <time>2018-05-20T08:16:15Z</time>
      </trkpt>
      <trkpt lat="42.916037002578378" lon="-8.045926988124847">
        <ele>449.69999999999999</ele>
        <time>2018-05-20T08:16:16Z</time>
      </trkpt>
      <trkpt lat="42.916064998134971" lon="-8.045887006446719">
        <ele>449.80000000000001</ele>
        <time>2018-05-20T08:16:17Z</time>
      </trkpt>
      <trkpt lat="42.916087964549661" lon="-8.045847024768591">
        <ele>449.89999999999998</ele>
        <time>2018-05-20T08:16:18Z</time>
      </trkpt>
      <trkpt lat="42.916111014783382" lon="-8.045801008120179">
        <ele>450</ele>
        <time>2018-05-20T08:16:19Z</time>
      </trkpt>
      <trkpt lat="42.916134987026453" lon="-8.045749040320516">
        <ele>450.10000000000002</ele>
        <time>2018-05-20T08:16:21Z</time>
      </trkpt>
      <trkpt lat="42.916153008118272" lon="-8.045703023672104">
        <ele>450.19999999999999</ele>
        <time>2018-05-20T08:16:22Z</time>
      </trkpt>
      <trkpt lat="42.916181003674865" lon="-8.045668993145227">
        <ele>450.30000000000001</ele>
        <time>2018-05-20T08:16:23Z</time>
      </trkpt>
      <trkpt lat="42.916204975917935" lon="-8.045617025345564">
        <ele>450.5</ele>
        <time>2018-05-20T08:16:24Z</time>
      </trkpt>
      <trkpt lat="42.916208999231458" lon="-8.045564973726869">
        <ele>450.60000000000002</ele>
        <time>2018-05-20T08:16:25Z</time>
      </trkpt>
      <trkpt lat="42.916228026151657" lon="-8.04550202563405">
        <ele>450.80000000000001</ele>
        <time>2018-05-20T08:16:27Z</time>
      </trkpt>
      <trkpt lat="42.916241018101573" lon="-8.045447962358594">
        <ele>450.89999999999998</ele>
        <time>2018-05-20T08:16:28Z</time>
      </trkpt>
      <trkpt lat="42.916255015879869" lon="-8.04539599455893">
        <ele>450.89999999999998</ele>
        <time>2018-05-20T08:16:29Z</time>
      </trkpt>
      <trkpt lat="42.916259039193392" lon="-8.045338997617364">
        <ele>450.69999999999999</ele>
        <time>2018-05-20T08:16:31Z</time>
      </trkpt>
      <trkpt lat="42.916263984516263" lon="-8.0452870298177">
        <ele>450.60000000000002</ele>
        <time>2018-05-20T08:16:32Z</time>
      </trkpt>
      <trkpt lat="42.916273036971688" lon="-8.045241013169289">
        <ele>450.39999999999998</ele>
        <time>2018-05-20T08:16:33Z</time>
      </trkpt>
      <trkpt lat="42.916287034749985" lon="-8.045184016227722">
        <ele>450.19999999999999</ele>
        <time>2018-05-20T08:16:34Z</time>
      </trkpt>
      <trkpt lat="42.916305977851152" lon="-8.045126013457775">
        <ele>449.89999999999998</ele>
        <time>2018-05-20T08:16:35Z</time>
      </trkpt>
      <trkpt lat="42.916319975629449" lon="-8.045077985152602">
        <ele>449.69999999999999</ele>
        <time>2018-05-20T08:16:37Z</time>
      </trkpt>
      <trkpt lat="42.916334979236126" lon="-8.04494303651154">
        <ele>449.30000000000001</ele>
        <time>2018-05-20T08:16:40Z</time>
      </trkpt>
      <trkpt lat="42.91634202003479" lon="-8.044905988499522">
        <ele>449.19999999999999</ele>
        <time>2018-05-20T08:16:40Z</time>
      </trkpt>
      <trkpt lat="42.91634202003479" lon="-8.044848991557956">
        <ele>449.10000000000002</ele>
        <time>2018-05-20T08:16:42Z</time>
      </trkpt>
      <trkpt lat="42.91634202003479" lon="-8.044756958261132">
        <ele>448.89999999999998</ele>
        <time>2018-05-20T08:16:44Z</time>
      </trkpt>
      <trkpt lat="42.91634202003479" lon="-8.044694010168314">
        <ele>448.80000000000001</ele>
        <time>2018-05-20T08:16:45Z</time>
      </trkpt>
      <trkpt lat="42.91634202003479" lon="-8.044637013226748">
        <ele>448.69999999999999</ele>
        <time>2018-05-20T08:16:46Z</time>
      </trkpt>
      <trkpt lat="42.916350988671184" lon="-8.044568030163646">
        <ele>448.39999999999998</ele>
        <time>2018-05-20T08:16:48Z</time>
      </trkpt>
      <trkpt lat="42.916356017813087" lon="-8.044515978544951">
        <ele>448.10000000000002</ele>
        <time>2018-05-20T08:16:49Z</time>
      </trkpt>
      <trkpt lat="42.916356017813087" lon="-8.044446995481849">
        <ele>447.80000000000001</ele>
        <time>2018-05-20T08:16:50Z</time>
      </trkpt>
      <trkpt lat="42.916356017813087" lon="-8.044360997155309">
        <ele>447.30000000000001</ele>
        <time>2018-05-20T08:16:52Z</time>
      </trkpt>
      <trkpt lat="42.916356017813087" lon="-8.044309029355645">
        <ele>447</ele>
        <time>2018-05-20T08:16:53Z</time>
      </trkpt>
      <trkpt lat="42.916356017813087" lon="-8.044252032414079">
        <ele>446.69999999999999</ele>
        <time>2018-05-20T08:16:55Z</time>
      </trkpt>
      <trkpt lat="42.916350988671184" lon="-8.044189000502229">
        <ele>446.39999999999998</ele>
        <time>2018-05-20T08:16:56Z</time>
      </trkpt>
      <trkpt lat="42.916350988671184" lon="-8.044096967205405">
        <ele>445.89999999999998</ele>
        <time>2018-05-20T08:16:58Z</time>
      </trkpt>
      <trkpt lat="42.916350988671184" lon="-8.044015998020768">
        <ele>445.39999999999998</ele>
        <time>2018-05-20T08:17:00Z</time>
      </trkpt>
      <trkpt lat="42.916350988671184" lon="-8.043956989422441">
        <ele>445.10000000000002</ele>
        <time>2018-05-20T08:17:01Z</time>
      </trkpt>
      <trkpt lat="42.916350988671184" lon="-8.043888006359339">
        <ele>444.69999999999999</ele>
        <time>2018-05-20T08:17:02Z</time>
      </trkpt>
      <trkpt lat="42.916350988671184" lon="-8.043836038559675">
        <ele>444.5</ele>
        <time>2018-05-20T08:17:04Z</time>
      </trkpt>
      <trkpt lat="42.916350988671184" lon="-8.043773006647825">
        <ele>444.10000000000002</ele>
        <time>2018-05-20T08:17:05Z</time>
      </trkpt>
      <trkpt lat="42.91634202003479" lon="-8.043716009706259">
        <ele>443.60000000000002</ele>
        <time>2018-05-20T08:17:06Z</time>
      </trkpt>
      <trkpt lat="42.91634202003479" lon="-8.043664041906595">
        <ele>443</ele>
        <time>2018-05-20T08:17:07Z</time>
      </trkpt>
      <trkpt lat="42.916331961750984" lon="-8.043606039136648">
        <ele>442.30000000000001</ele>
        <time>2018-05-20T08:17:09Z</time>
      </trkpt>
      <trkpt lat="42.916314024478197" lon="-8.043496990576387">
        <ele>441</ele>
        <time>2018-05-20T08:17:11Z</time>
      </trkpt>
      <trkpt lat="42.916303966194391" lon="-8.043446028605104">
        <ele>440.39999999999998</ele>
        <time>2018-05-20T08:17:12Z</time>
      </trkpt>
      <trkpt lat="42.916289968416095" lon="-8.043381990864873">
        <ele>439.60000000000002</ele>
        <time>2018-05-20T08:17:14Z</time>
      </trkpt>
      <trkpt lat="42.916280999779701" lon="-8.043314013630152">
        <ele>438.80000000000001</ele>
        <time>2018-05-20T08:17:15Z</time>
      </trkpt>
      <trkpt lat="42.916258033365011" lon="-8.043199013918638">
        <ele>437.39999999999998</ele>
        <time>2018-05-20T08:17:18Z</time>
      </trkpt>
      <trkpt lat="42.916258033365011" lon="-8.043135982006788">
        <ele>436.60000000000002</ele>
        <time>2018-05-20T08:17:19Z</time>
      </trkpt>
      <trkpt lat="42.916261972859502" lon="-8.043084014207125">
        <ele>436</ele>
        <time>2018-05-20T08:17:20Z</time>
      </trkpt>
      <trkpt lat="42.916272031143308" lon="-8.043020982295275">
        <ele>435.30000000000001</ele>
        <time>2018-05-20T08:17:22Z</time>
      </trkpt>
      <trkpt lat="42.916272031143308" lon="-8.042929032817483">
        <ele>434.19999999999999</ele>
        <time>2018-05-20T08:17:24Z</time>
      </trkpt>
      <trkpt lat="42.916272031143308" lon="-8.042871030047536">
        <ele>433.60000000000002</ele>
        <time>2018-05-20T08:17:25Z</time>
      </trkpt>
      <trkpt lat="42.916267002001405" lon="-8.042819984257221">
        <ele>433.10000000000002</ele>
        <time>2018-05-20T08:17:26Z</time>
      </trkpt>
      <trkpt lat="42.916261972859502" lon="-8.042768016457558">
        <ele>432.60000000000002</ele>
        <time>2018-05-20T08:17:27Z</time>
      </trkpt>
      <trkpt lat="42.916244035586715" lon="-8.042692998424172">
        <ele>431.89999999999998</ele>
        <time>2018-05-20T08:17:29Z</time>
      </trkpt>
      <trkpt lat="42.916230037808418" lon="-8.042636001482606">
        <ele>431.30000000000001</ele>
        <time>2018-05-20T08:17:30Z</time>
      </trkpt>
      <trkpt lat="42.916201958432794" lon="-8.042596019804478">
        <ele>431</ele>
        <time>2018-05-20T08:17:32Z</time>
      </trkpt>
      <trkpt lat="42.916173962876201" lon="-8.042550003156066">
        <ele>430.60000000000002</ele>
        <time>2018-05-20T08:17:33Z</time>
      </trkpt>
      <trkpt lat="42.916131969541311" lon="-8.042498035356402">
        <ele>430.10000000000002</ele>
        <time>2018-05-20T08:17:35Z</time>
      </trkpt>
      <trkpt lat="42.916085030883551" lon="-8.042452018707991">
        <ele>429.80000000000001</ele>
        <time>2018-05-20T08:17:36Z</time>
      </trkpt>
      <trkpt lat="42.916053012013435" lon="-8.042412037029862">
        <ele>429.39999999999998</ele>
        <time>2018-05-20T08:17:38Z</time>
      </trkpt>
      <trkpt lat="42.916011018678546" lon="-8.042388986796141">
        <ele>429.30000000000001</ele>
        <time>2018-05-20T08:17:39Z</time>
      </trkpt>
      <trkpt lat="42.915887972339988" lon="-8.0423220153898">
        <ele>428.89999999999998</ele>
        <time>2018-05-20T08:17:43Z</time>
      </trkpt>
      <trkpt lat="42.91569602675736" lon="-8.042191006243229">
        <ele>428.19999999999999</ele>
        <time>2018-05-20T08:17:49Z</time>
      </trkpt>
      <trkpt lat="42.915499974042177" lon="-8.042014986276627">
        <ele>427.30000000000001</ele>
        <time>2018-05-20T08:17:56Z</time>
      </trkpt>
      <trkpt lat="42.915463009849191" lon="-8.041997971013188">
        <ele>427.30000000000001</ele>
        <time>2018-05-20T08:17:57Z</time>
      </trkpt>
      <trkpt lat="42.915426967665553" lon="-8.041941979900003">
        <ele>427</ele>
        <time>2018-05-20T08:17:59Z</time>
      </trkpt>
      <trkpt lat="42.915394026786089" lon="-8.041908033192158">
        <ele>426.60000000000002</ele>
        <time>2018-05-20T08:18:00Z</time>
      </trkpt>
      <trkpt lat="42.915370976552367" lon="-8.041855981573463">
        <ele>426.10000000000002</ele>
        <time>2018-05-20T08:18:01Z</time>
      </trkpt>
      <trkpt lat="42.9153520334512" lon="-8.041776018217206">
        <ele>425.5</ele>
        <time>2018-05-20T08:18:03Z</time>
      </trkpt>
      <trkpt lat="42.915334012359381" lon="-8.041718015447259">
        <ele>425</ele>
        <time>2018-05-20T08:18:05Z</time>
      </trkpt>
      <trkpt lat="42.915334012359381" lon="-8.041666969656944">
        <ele>424.60000000000002</ele>
        <time>2018-05-20T08:18:06Z</time>
      </trkpt>
      <trkpt lat="42.915334012359381" lon="-8.041604021564126">
        <ele>424.19999999999999</ele>
        <time>2018-05-20T08:18:07Z</time>
      </trkpt>
      <trkpt lat="42.915334012359381" lon="-8.041551969945431">
        <ele>423.80000000000001</ele>
        <time>2018-05-20T08:18:08Z</time>
      </trkpt>
      <trkpt lat="42.915334012359381" lon="-8.041493967175484">
        <ele>423.39999999999998</ele>
        <time>2018-05-20T08:18:10Z</time>
      </trkpt>
      <trkpt lat="42.915324037894607" lon="-8.041424984112382">
        <ele>422.80000000000001</ele>
        <time>2018-05-20T08:18:11Z</time>
      </trkpt>
      <trkpt lat="42.915324037894607" lon="-8.041357006877661">
        <ele>422.30000000000001</ele>
        <time>2018-05-20T08:18:13Z</time>
      </trkpt>
      <trkpt lat="42.91531004011631" lon="-8.041310990229249">
        <ele>421.89999999999998</ele>
        <time>2018-05-20T08:18:14Z</time>
      </trkpt>
      <trkpt lat="42.915286989882588" lon="-8.041264973580837">
        <ele>421.5</ele>
        <time>2018-05-20T08:18:15Z</time>
      </trkpt>
      <trkpt lat="42.915258994325995" lon="-8.041223986074328">
        <ele>421.19999999999999</ele>
        <time>2018-05-20T08:18:16Z</time>
      </trkpt>
      <trkpt lat="42.915222030133009" lon="-8.0411840043962">
        <ele>421</ele>
        <time>2018-05-20T08:18:17Z</time>
      </trkpt>
      <trkpt lat="42.91518397629261" lon="-8.041132958605886">
        <ele>420.89999999999998</ele>
        <time>2018-05-20T08:18:19Z</time>
      </trkpt>
      <trkpt lat="42.915147012099624" lon="-8.041091971099377">
        <ele>420.69999999999999</ele>
        <time>2018-05-20T08:18:20Z</time>
      </trkpt>
      <trkpt lat="42.915099989622831" lon="-8.041041009128094">
        <ele>420.5</ele>
        <time>2018-05-20T08:18:22Z</time>
      </trkpt>
      <trkpt lat="42.915067970752716" lon="-8.041000021621585">
        <ele>420.39999999999998</ele>
        <time>2018-05-20T08:18:24Z</time>
      </trkpt>
      <trkpt lat="42.915035029873252" lon="-8.04094897583127">
        <ele>420.30000000000001</ele>
        <time>2018-05-20T08:18:25Z</time>
      </trkpt>
      <trkpt lat="42.915003011003137" lon="-8.040908994153142">
        <ele>420.19999999999999</ele>
        <time>2018-05-20T08:18:26Z</time>
      </trkpt>
      <trkpt lat="42.914979038760066" lon="-8.04086297750473">
        <ele>420.19999999999999</ele>
        <time>2018-05-20T08:18:28Z</time>
      </trkpt>
      <trkpt lat="42.914950959384441" lon="-8.040821989998221">
        <ele>420.10000000000002</ele>
        <time>2018-05-20T08:18:29Z</time>
      </trkpt>
      <trkpt lat="42.914913995191455" lon="-8.040782008320093">
        <ele>420</ele>
        <time>2018-05-20T08:18:30Z</time>
      </trkpt>
      <trkpt lat="42.914877030998468" lon="-8.040735991671681">
        <ele>420</ele>
        <time>2018-05-20T08:18:32Z</time>
      </trkpt>
      <trkpt lat="42.914844006299973" lon="-8.04068997502327">
        <ele>420</ele>
        <time>2018-05-20T08:18:33Z</time>
      </trkpt>
      <trkpt lat="42.914810981601477" lon="-8.040661979466677">
        <ele>419.89999999999998</ele>
        <time>2018-05-20T08:18:34Z</time>
      </trkpt>
      <trkpt lat="42.91477401740849" lon="-8.04060397669673">
        <ele>419.89999999999998</ele>
        <time>2018-05-20T08:18:36Z</time>
      </trkpt>
      <trkpt lat="42.914736969396472" lon="-8.040546979755163">
        <ele>420</ele>
        <time>2018-05-20T08:18:37Z</time>
      </trkpt>
      <trkpt lat="42.914704028517008" lon="-8.04051797837019">
        <ele>420</ele>
        <time>2018-05-20T08:18:39Z</time>
      </trkpt>
      <trkpt lat="42.914676032960415" lon="-8.040477996692061">
        <ele>420</ele>
        <time>2018-05-20T08:18:40Z</time>
      </trkpt>
      <trkpt lat="42.914634039625525" lon="-8.040442960336804">
        <ele>420</ele>
        <time>2018-05-20T08:18:41Z</time>
      </trkpt>
      <trkpt lat="42.914605960249901" lon="-8.040385963395238">
        <ele>420.39999999999998</ele>
        <time>2018-05-20T08:18:43Z</time>
      </trkpt>
      <trkpt lat="42.914574025198817" lon="-8.040340030565858">
        <ele>421</ele>
        <time>2018-05-20T08:18:44Z</time>
      </trkpt>
      <trkpt lat="42.914541000500321" lon="-8.040287978947163">
        <ele>421.5</ele>
        <time>2018-05-20T08:18:46Z</time>
      </trkpt>
      <trkpt lat="42.914507975801826" lon="-8.040230982005596">
        <ele>422.10000000000002</ele>
        <time>2018-05-20T08:18:47Z</time>
      </trkpt>
      <trkpt lat="42.914479980245233" lon="-8.040184965357184">
        <ele>422.5</ele>
        <time>2018-05-20T08:18:49Z</time>
      </trkpt>
      <trkpt lat="42.914457013830543" lon="-8.040139032527804">
        <ele>423</ele>
        <time>2018-05-20T08:18:50Z</time>
      </trkpt>
      <trkpt lat="42.914415020495653" lon="-8.040086980909109">
        <ele>423.39999999999998</ele>
        <time>2018-05-20T08:18:51Z</time>
      </trkpt>
      <trkpt lat="42.914377972483635" lon="-8.040053034201264">
        <ele>423.60000000000002</ele>
        <time>2018-05-20T08:18:53Z</time>
      </trkpt>
      <trkpt lat="42.914345031604171" lon="-8.040012968704104">
        <ele>423.89999999999998</ele>
        <time>2018-05-20T08:18:54Z</time>
      </trkpt>
      <trkpt lat="42.914312006905675" lon="-8.039978016167879">
        <ele>424.10000000000002</ele>
        <time>2018-05-20T08:18:55Z</time>
      </trkpt>
      <trkpt lat="42.914270013570786" lon="-8.039931999519467">
        <ele>424.39999999999998</ele>
        <time>2018-05-20T08:18:57Z</time>
      </trkpt>
      <trkpt lat="42.914232965558767" lon="-8.039897968992591">
        <ele>424.5</ele>
        <time>2018-05-20T08:18:58Z</time>
      </trkpt>
      <trkpt lat="42.914201030507684" lon="-8.039868967607617">
        <ele>424.60000000000002</ele>
        <time>2018-05-20T08:18:59Z</time>
      </trkpt>
      <trkpt lat="42.914168005809188" lon="-8.039839966222644">
        <ele>424.69999999999999</ele>
        <time>2018-05-20T08:19:01Z</time>
      </trkpt>
      <trkpt lat="42.914134981110692" lon="-8.039799984544516">
        <ele>424.89999999999998</ele>
        <time>2018-05-20T08:19:02Z</time>
      </trkpt>
      <trkpt lat="42.914098016917706" lon="-8.039770983159542">
        <ele>425</ele>
        <time>2018-05-20T08:19:03Z</time>
      </trkpt>
      <trkpt lat="42.914074966683984" lon="-8.03972496651113">
        <ele>425.30000000000001</ele>
        <time>2018-05-20T08:19:04Z</time>
      </trkpt>
      <trkpt lat="42.914046971127391" lon="-8.03967903368175">
        <ele>425.5</ele>
        <time>2018-05-20T08:19:06Z</time>
      </trkpt>
      <trkpt lat="42.914016963914037" lon="-8.039627987891436">
        <ele>425.80000000000001</ele>
        <time>2018-05-20T08:19:07Z</time>
      </trkpt>
      <trkpt lat="42.91397999972105" lon="-8.039588006213307">
        <ele>425.89999999999998</ele>
        <time>2018-05-20T08:19:08Z</time>
      </trkpt>
      <trkpt lat="42.913942029699683" lon="-8.039547018706799">
        <ele>425.89999999999998</ele>
        <time>2018-05-20T08:19:10Z</time>
      </trkpt>
      <trkpt lat="42.913910010829568" lon="-8.039523968473077">
        <ele>425.89999999999998</ele>
        <time>2018-05-20T08:19:11Z</time>
      </trkpt>
      <trkpt lat="42.913868017494678" lon="-8.039483986794949">
        <ele>425.89999999999998</ele>
        <time>2018-05-20T08:19:12Z</time>
      </trkpt>
      <trkpt lat="42.913832981139421" lon="-8.039452973753214">
        <ele>425.89999999999998</ele>
        <time>2018-05-20T08:19:14Z</time>
      </trkpt>
      <trkpt lat="42.913796016946435" lon="-8.039419027045369">
        <ele>425.89999999999998</ele>
        <time>2018-05-20T08:19:15Z</time>
      </trkpt>
      <trkpt lat="42.913758968934417" lon="-8.039402011781931">
        <ele>425.80000000000001</ele>
        <time>2018-05-20T08:19:16Z</time>
      </trkpt>
      <trkpt lat="42.913712030276656" lon="-8.039362030103803">
        <ele>426</ele>
        <time>2018-05-20T08:19:18Z</time>
      </trkpt>
      <trkpt lat="42.913684034720063" lon="-8.039326993748546">
        <ele>426.30000000000001</ele>
        <time>2018-05-20T08:19:19Z</time>
      </trkpt>
      <trkpt lat="42.913660984486341" lon="-8.039287012070417">
        <ele>426.60000000000002</ele>
        <time>2018-05-20T08:19:20Z</time>
      </trkpt>
      <trkpt lat="42.913624020293355" lon="-8.03925197571516">
        <ele>426.89999999999998</ele>
        <time>2018-05-20T08:19:21Z</time>
      </trkpt>
      <trkpt lat="42.913590995594859" lon="-8.039218029007316">
        <ele>427.10000000000002</ele>
        <time>2018-05-20T08:19:23Z</time>
      </trkpt>
      <trkpt lat="42.913563000038266" lon="-8.039177963510156">
        <ele>427.39999999999998</ele>
        <time>2018-05-20T08:19:24Z</time>
      </trkpt>
      <trkpt lat="42.91352997533977" lon="-8.039132030680776">
        <ele>427.80000000000001</ele>
        <time>2018-05-20T08:19:25Z</time>
      </trkpt>
      <trkpt lat="42.91350700892508" lon="-8.039074027910829">
        <ele>428.30000000000001</ele>
        <time>2018-05-20T08:19:27Z</time>
      </trkpt>
      <trkpt lat="42.913479013368487" lon="-8.039029017090797">
        <ele>428.69999999999999</ele>
        <time>2018-05-20T08:19:28Z</time>
      </trkpt>
      <trkpt lat="42.913459986448288" lon="-8.038983000442386">
        <ele>429.10000000000002</ele>
        <time>2018-05-20T08:19:29Z</time>
      </trkpt>
      <trkpt lat="42.913441965356469" lon="-8.038924997672439">
        <ele>429.60000000000002</ele>
        <time>2018-05-20T08:19:30Z</time>
      </trkpt>
      <trkpt lat="42.913431990891695" lon="-8.038868000730872">
        <ele>430.10000000000002</ele>
        <time>2018-05-20T08:19:32Z</time>
      </trkpt>
      <trkpt lat="42.913403995335102" lon="-8.038770016282797">
        <ele>431</ele>
        <time>2018-05-20T08:19:34Z</time>
      </trkpt>
      <trkpt lat="42.913391003385186" lon="-8.038717964664102">
        <ele>431.10000000000002</ele>
        <time>2018-05-20T08:19:35Z</time>
      </trkpt>
      <trkpt lat="42.913367031142116" lon="-8.038667002692819">
        <ele>431</ele>
        <time>2018-05-20T08:19:36Z</time>
      </trkpt>
      <trkpt lat="42.913349010050297" lon="-8.038608999922872">
        <ele>431</ele>
        <time>2018-05-20T08:19:38Z</time>
      </trkpt>
      <trkpt lat="42.913321014493704" lon="-8.03856298327446">
        <ele>430.80000000000001</ele>
        <time>2018-05-20T08:19:39Z</time>
      </trkpt>
      <trkpt lat="42.913282960653305" lon="-8.038516966626048">
        <ele>430.69999999999999</ele>
        <time>2018-05-20T08:19:41Z</time>
      </trkpt>
      <trkpt lat="42.913254965096712" lon="-8.038466004654765">
        <ele>430.5</ele>
        <time>2018-05-20T08:19:42Z</time>
      </trkpt>
      <trkpt lat="42.913226969540119" lon="-8.038425017148256">
        <ele>430.39999999999998</ele>
        <time>2018-05-20T08:19:43Z</time>
      </trkpt>
      <trkpt lat="42.91318497620523" lon="-8.03836802020669">
        <ele>430.19999999999999</ele>
        <time>2018-05-20T08:19:45Z</time>
      </trkpt>
      <trkpt lat="42.913153041154146" lon="-8.038315968587995">
        <ele>430</ele>
        <time>2018-05-20T08:19:46Z</time>
      </trkpt>
      <trkpt lat="42.91312001645565" lon="-8.03828202188015">
        <ele>429.80000000000001</ele>
        <time>2018-05-20T08:19:48Z</time>
      </trkpt>
      <trkpt lat="42.913092020899057" lon="-8.038213038817048">
        <ele>429.5</ele>
        <time>2018-05-20T08:19:49Z</time>
      </trkpt>
      <trkpt lat="42.913078023120761" lon="-8.038160987198353">
        <ele>429.39999999999998</ele>
        <time>2018-05-20T08:19:51Z</time>
      </trkpt>
      <trkpt lat="42.913046004250646" lon="-8.038092004135251">
        <ele>429.10000000000002</ele>
        <time>2018-05-20T08:19:52Z</time>
      </trkpt>
      <trkpt lat="42.913026977330446" lon="-8.038035007193685">
        <ele>428.89999999999998</ele>
        <time>2018-05-20T08:19:54Z</time>
      </trkpt>
      <trkpt lat="42.912998981773853" lon="-8.037983039394021">
        <ele>428.60000000000002</ele>
        <time>2018-05-20T08:19:55Z</time>
      </trkpt>
      <trkpt lat="42.912980038672686" lon="-8.037920007482171">
        <ele>428.39999999999998</ele>
        <time>2018-05-20T08:19:57Z</time>
      </trkpt>
      <trkpt lat="42.912962017580867" lon="-8.037834009155631">
        <ele>427.80000000000001</ele>
        <time>2018-05-20T08:19:59Z</time>
      </trkpt>
      <trkpt lat="42.91294801980257" lon="-8.037782041355968">
        <ele>427.39999999999998</ele>
        <time>2018-05-20T08:20:00Z</time>
      </trkpt>
      <trkpt lat="42.912923963740468" lon="-8.037729989737272">
        <ele>426.89999999999998</ele>
        <time>2018-05-20T08:20:01Z</time>
      </trkpt>
      <trkpt lat="42.912900997325778" lon="-8.037655977532268">
        <ele>426.30000000000001</ele>
        <time>2018-05-20T08:20:03Z</time>
      </trkpt>
      <trkpt lat="42.912878030911088" lon="-8.037609960883856">
        <ele>425.80000000000001</ele>
        <time>2018-05-20T08:20:04Z</time>
      </trkpt>
      <trkpt lat="42.912850035354495" lon="-8.037564028054476">
        <ele>425.30000000000001</ele>
        <time>2018-05-20T08:20:05Z</time>
      </trkpt>
      <trkpt lat="42.912825979292393" lon="-8.037506025284529">
        <ele>424.69999999999999</ele>
        <time>2018-05-20T08:20:07Z</time>
      </trkpt>
      <trkpt lat="42.912793960422277" lon="-8.037442993372679">
        <ele>424.10000000000002</ele>
        <time>2018-05-20T08:20:09Z</time>
      </trkpt>
      <trkpt lat="42.912769988179207" lon="-8.037379961460829">
        <ele>423.60000000000002</ele>
        <time>2018-05-20T08:20:10Z</time>
      </trkpt>
      <trkpt lat="42.91275498457253" lon="-8.037323970347643">
        <ele>423.19999999999999</ele>
        <time>2018-05-20T08:20:11Z</time>
      </trkpt>
      <trkpt lat="42.912740986794233" lon="-8.037259010598064">
        <ele>422.80000000000001</ele>
        <time>2018-05-20T08:20:13Z</time>
      </trkpt>
      <trkpt lat="42.9126460198313" lon="-8.036950975656509">
        <ele>421.60000000000002</ele>
        <time>2018-05-20T08:20:20Z</time>
      </trkpt>
      <trkpt lat="42.91260402649641" lon="-8.036682000383735">
        <ele>422</ele>
        <time>2018-05-20T08:20:26Z</time>
      </trkpt>
      <trkpt lat="42.912598997354507" lon="-8.036676971241832">
        <ele>422</ele>
        <time>2018-05-20T08:20:26Z</time>
      </trkpt>
      <trkpt lat="42.912598997354507" lon="-8.036618968471885">
        <ele>422.10000000000002</ele>
        <time>2018-05-20T08:20:27Z</time>
      </trkpt>
      <trkpt lat="42.912593968212605" lon="-8.036567000672221">
        <ele>422.19999999999999</ele>
        <time>2018-05-20T08:20:29Z</time>
      </trkpt>
      <trkpt lat="42.912584999576211" lon="-8.036510003730655">
        <ele>422.19999999999999</ele>
        <time>2018-05-20T08:20:30Z</time>
      </trkpt>
      <trkpt lat="42.912565972656012" lon="-8.036412019282579">
        <ele>422.39999999999998</ele>
        <time>2018-05-20T08:20:32Z</time>
      </trkpt>
      <trkpt lat="42.912562033161521" lon="-8.036359967663884">
        <ele>422.5</ele>
        <time>2018-05-20T08:20:33Z</time>
      </trkpt>
      <trkpt lat="42.912562033161521" lon="-8.036302970722318">
        <ele>422.60000000000002</ele>
        <time>2018-05-20T08:20:34Z</time>
      </trkpt>
      <trkpt lat="42.912551974877715" lon="-8.036240022629499">
        <ele>422.69999999999999</ele>
        <time>2018-05-20T08:20:36Z</time>
      </trkpt>
      <trkpt lat="42.912551974877715" lon="-8.03617699071765">
        <ele>422.80000000000001</ele>
        <time>2018-05-20T08:20:37Z</time>
      </trkpt>
      <trkpt lat="42.912548035383224" lon="-8.036113036796451">
        <ele>422.89999999999998</ele>
        <time>2018-05-20T08:20:39Z</time>
      </trkpt>
      <trkpt lat="42.912548035383224" lon="-8.036056039854884">
        <ele>423.10000000000002</ele>
        <time>2018-05-20T08:20:40Z</time>
      </trkpt>
      <trkpt lat="42.912543006241322" lon="-8.035970041528344">
        <ele>423.19999999999999</ele>
        <time>2018-05-20T08:20:42Z</time>
      </trkpt>
      <trkpt lat="42.912537977099419" lon="-8.035907009616494">
        <ele>423.30000000000001</ele>
        <time>2018-05-20T08:20:43Z</time>
      </trkpt>
      <trkpt lat="42.912523979321122" lon="-8.035809025168419">
        <ele>423.39999999999998</ele>
        <time>2018-05-20T08:20:45Z</time>
      </trkpt>
      <trkpt lat="42.912515010684729" lon="-8.035745993256569">
        <ele>423.5</ele>
        <time>2018-05-20T08:20:47Z</time>
      </trkpt>
      <trkpt lat="42.912501012906432" lon="-8.035659994930029">
        <ele>423.60000000000002</ele>
        <time>2018-05-20T08:20:49Z</time>
      </trkpt>
      <trkpt lat="42.912487015128136" lon="-8.035613978281617">
        <ele>423.60000000000002</ele>
        <time>2018-05-20T08:20:50Z</time>
      </trkpt>
      <trkpt lat="42.912473017349839" lon="-8.035551030188799">
        <ele>423.60000000000002</ele>
        <time>2018-05-20T08:20:51Z</time>
      </trkpt>
      <trkpt lat="42.91245399042964" lon="-8.035493027418852">
        <ele>423.5</ele>
        <time>2018-05-20T08:20:52Z</time>
      </trkpt>
      <trkpt lat="42.912435969337821" lon="-8.03544701077044">
        <ele>423.5</ele>
        <time>2018-05-20T08:20:54Z</time>
      </trkpt>
      <trkpt lat="42.912417026236653" lon="-8.035400994122028">
        <ele>423.39999999999998</ele>
        <time>2018-05-20T08:20:55Z</time>
      </trkpt>
      <trkpt lat="42.912349971011281" lon="-8.035191027447581">
        <ele>422.80000000000001</ele>
        <time>2018-05-20T08:21:00Z</time>
      </trkpt>
      <trkpt lat="42.912292974069715" lon="-8.034852985292673">
        <ele>422.30000000000001</ele>
        <time>2018-05-20T08:21:07Z</time>
      </trkpt>
      <trkpt lat="42.912167999893427" lon="-8.0343749653548">
        <ele>421.60000000000002</ele>
        <time>2018-05-20T08:21:18Z</time>
      </trkpt>
      <trkpt lat="42.912126006558537" lon="-8.03415603004396">
        <ele>421.39999999999998</ele>
        <time>2018-05-20T08:21:23Z</time>
      </trkpt>
      <trkpt lat="42.912126006558537" lon="-8.034151000902057">
        <ele>421.39999999999998</ele>
        <time>2018-05-20T08:21:23Z</time>
      </trkpt>
      <trkpt lat="42.912084013223648" lon="-8.033852018415928">
        <ele>421</ele>
        <time>2018-05-20T08:21:30Z</time>
      </trkpt>
      <trkpt lat="42.912084013223648" lon="-8.033841038122773">
        <ele>421</ele>
        <time>2018-05-20T08:21:30Z</time>
      </trkpt>
      <trkpt lat="42.912042019888759" lon="-8.033587988466024">
        <ele>420.60000000000002</ele>
        <time>2018-05-20T08:21:36Z</time>
      </trkpt>
      <trkpt lat="42.912042019888759" lon="-8.033576002344489">
        <ele>420.60000000000002</ele>
        <time>2018-05-20T08:21:36Z</time>
      </trkpt>
      <trkpt lat="42.912036990746856" lon="-8.033519005402923">
        <ele>420.5</ele>
        <time>2018-05-20T08:21:37Z</time>
      </trkpt>
      <trkpt lat="42.912022992968559" lon="-8.033397970721126">
        <ele>420.30000000000001</ele>
        <time>2018-05-20T08:21:40Z</time>
      </trkpt>
      <trkpt lat="42.912022992968559" lon="-8.033346002921462">
        <ele>420.19999999999999</ele>
        <time>2018-05-20T08:21:41Z</time>
      </trkpt>
      <trkpt lat="42.912022992968559" lon="-8.033289005979896">
        <ele>420.19999999999999</ele>
        <time>2018-05-20T08:21:42Z</time>
      </trkpt>
      <trkpt lat="42.912022992968559" lon="-8.033237038180232">
        <ele>420.10000000000002</ele>
        <time>2018-05-20T08:21:43Z</time>
      </trkpt>
      <trkpt lat="42.912022992968559" lon="-8.033180041238666">
        <ele>420</ele>
        <time>2018-05-20T08:21:45Z</time>
      </trkpt>
      <trkpt lat="42.912022992968559" lon="-8.03312798961997">
        <ele>420</ele>
        <time>2018-05-20T08:21:46Z</time>
      </trkpt>
      <trkpt lat="42.912022992968559" lon="-8.033069986850023">
        <ele>419.89999999999998</ele>
        <time>2018-05-20T08:21:47Z</time>
      </trkpt>
      <trkpt lat="42.912022992968559" lon="-8.033002009615302">
        <ele>419.80000000000001</ele>
        <time>2018-05-20T08:21:48Z</time>
      </trkpt>
      <trkpt lat="42.912022992968559" lon="-8.032944006845355">
        <ele>419.69999999999999</ele>
        <time>2018-05-20T08:21:50Z</time>
      </trkpt>
      <trkpt lat="42.912022992968559" lon="-8.032873012125492">
        <ele>419.60000000000002</ele>
        <time>2018-05-20T08:21:51Z</time>
      </trkpt>
      <trkpt lat="42.912022992968559" lon="-8.032820960506797">
        <ele>419.39999999999998</ele>
        <time>2018-05-20T08:21:52Z</time>
      </trkpt>
      <trkpt lat="42.912022992968559" lon="-8.032752983272076">
        <ele>419.19999999999999</ele>
        <time>2018-05-20T08:21:54Z</time>
      </trkpt>
      <trkpt lat="42.912028022110462" lon="-8.032701015472412">
        <ele>419</ele>
        <time>2018-05-20T08:21:55Z</time>
      </trkpt>
      <trkpt lat="42.912036990746856" lon="-8.032615017145872">
        <ele>418.80000000000001</ele>
        <time>2018-05-20T08:21:57Z</time>
      </trkpt>
      <trkpt lat="42.912050988525152" lon="-8.032537987455726">
        <ele>418.60000000000002</ele>
        <time>2018-05-20T08:21:59Z</time>
      </trkpt>
      <trkpt lat="42.912050988525152" lon="-8.03246296942234">
        <ele>418.30000000000001</ele>
        <time>2018-05-20T08:22:00Z</time>
      </trkpt>
      <trkpt lat="42.912050988525152" lon="-8.032412007451057">
        <ele>418.10000000000002</ele>
        <time>2018-05-20T08:22:01Z</time>
      </trkpt>
      <trkpt lat="42.91204696521163" lon="-8.03235400468111">
        <ele>417.89999999999998</ele>
        <time>2018-05-20T08:22:03Z</time>
      </trkpt>
      <trkpt lat="42.91204696521163" lon="-8.032285021618009">
        <ele>417.69999999999999</ele>
        <time>2018-05-20T08:22:04Z</time>
      </trkpt>
      <trkpt lat="42.912036990746856" lon="-8.032233975827694">
        <ele>417.5</ele>
        <time>2018-05-20T08:22:05Z</time>
      </trkpt>
      <trkpt lat="42.912022992968559" lon="-8.032170021906495">
        <ele>417.30000000000001</ele>
        <time>2018-05-20T08:22:07Z</time>
      </trkpt>
      <trkpt lat="42.91200497187674" lon="-8.032089974731207">
        <ele>417</ele>
        <time>2018-05-20T08:22:08Z</time>
      </trkpt>
      <trkpt lat="42.912000026553869" lon="-8.032018980011344">
        <ele>416.80000000000001</ele>
        <time>2018-05-20T08:22:10Z</time>
      </trkpt>
      <trkpt lat="42.911996003240347" lon="-8.03196701221168">
        <ele>416.60000000000002</ele>
        <time>2018-05-20T08:22:11Z</time>
      </trkpt>
      <trkpt lat="42.911986028775573" lon="-8.031910015270114">
        <ele>416.39999999999998</ele>
        <time>2018-05-20T08:22:12Z</time>
      </trkpt>
      <trkpt lat="42.911986028775573" lon="-8.031853018328548">
        <ele>416.19999999999999</ele>
        <time>2018-05-20T08:22:14Z</time>
      </trkpt>
      <trkpt lat="42.911986028775573" lon="-8.0317950155586">
        <ele>416</ele>
        <time>2018-05-20T08:22:15Z</time>
      </trkpt>
      <trkpt lat="42.911990974098444" lon="-8.031738018617034">
        <ele>415.80000000000001</ele>
        <time>2018-05-20T08:22:16Z</time>
      </trkpt>
      <trkpt lat="42.912000026553869" lon="-8.031685966998339">
        <ele>415.60000000000002</ele>
        <time>2018-05-20T08:22:17Z</time>
      </trkpt>
      <trkpt lat="42.912008995190263" lon="-8.031628970056772">
        <ele>415.39999999999998</ele>
        <time>2018-05-20T08:22:19Z</time>
      </trkpt>
      <trkpt lat="42.912022992968559" lon="-8.031541965901852">
        <ele>415.10000000000002</ele>
        <time>2018-05-20T08:22:21Z</time>
      </trkpt>
      <trkpt lat="42.912032967433333" lon="-8.031491003930569">
        <ele>414.89999999999998</ele>
        <time>2018-05-20T08:22:22Z</time>
      </trkpt>
      <trkpt lat="42.912036990746856" lon="-8.031427972018719">
        <ele>414.60000000000002</ele>
        <time>2018-05-20T08:22:23Z</time>
      </trkpt>
      <trkpt lat="42.91204696521163" lon="-8.03136401809752">
        <ele>414.39999999999998</ele>
        <time>2018-05-20T08:22:24Z</time>
      </trkpt>
      <trkpt lat="42.912060962989926" lon="-8.031318001449108">
        <ele>414.19999999999999</ele>
        <time>2018-05-20T08:22:26Z</time>
      </trkpt>
      <trkpt lat="42.912078984081745" lon="-8.031261004507542">
        <ele>414</ele>
        <time>2018-05-20T08:22:27Z</time>
      </trkpt>
      <trkpt lat="42.912098011001945" lon="-8.03121498785913">
        <ele>414.19999999999999</ele>
        <time>2018-05-20T08:22:28Z</time>
      </trkpt>
      <trkpt lat="42.912120977416635" lon="-8.031157990917563">
        <ele>414.39999999999998</ele>
        <time>2018-05-20T08:22:29Z</time>
      </trkpt>
      <trkpt lat="42.912134975194931" lon="-8.031117003411055">
        <ele>414.60000000000002</ele>
        <time>2018-05-20T08:22:30Z</time>
      </trkpt>
      <trkpt lat="42.912159031257033" lon="-8.031066041439772">
        <ele>414.80000000000001</ele>
        <time>2018-05-20T08:22:32Z</time>
      </trkpt>
      <trkpt lat="42.912159031257033" lon="-8.031013989821076">
        <ele>414.89999999999998</ele>
        <time>2018-05-20T08:22:33Z</time>
      </trkpt>
      <trkpt lat="42.91217302903533" lon="-8.030940983444452">
        <ele>415.10000000000002</ele>
        <time>2018-05-20T08:22:34Z</time>
      </trkpt>
      <trkpt lat="42.91217696852982" lon="-8.030883986502886">
        <ele>415.30000000000001</ele>
        <time>2018-05-20T08:22:36Z</time>
      </trkpt>
      <trkpt lat="42.912187026813626" lon="-8.030837969854474">
        <ele>415.39999999999998</ele>
        <time>2018-05-20T08:22:37Z</time>
      </trkpt>
      <trkpt lat="42.912187026813626" lon="-8.030763035640121">
        <ele>415.60000000000002</ele>
        <time>2018-05-20T08:22:38Z</time>
      </trkpt>
      <trkpt lat="42.912187026813626" lon="-8.030693968757987">
        <ele>415.69999999999999</ele>
        <time>2018-05-20T08:22:40Z</time>
      </trkpt>
      <trkpt lat="42.912190966308117" lon="-8.030611993744969">
        <ele>415.89999999999998</ele>
        <time>2018-05-20T08:22:42Z</time>
      </trkpt>
      <trkpt lat="42.912190966308117" lon="-8.030519960448146">
        <ele>416.19999999999999</ele>
        <time>2018-05-20T08:22:44Z</time>
      </trkpt>
      <trkpt lat="42.91219599545002" lon="-8.030428010970354">
        <ele>416.39999999999998</ele>
        <time>2018-05-20T08:22:46Z</time>
      </trkpt>
      <trkpt lat="42.91219599545002" lon="-8.030371014028788">
        <ele>416.5</ele>
        <time>2018-05-20T08:22:47Z</time>
      </trkpt>
      <trkpt lat="42.91219599545002" lon="-8.030295995995402">
        <ele>416.60000000000002</ele>
        <time>2018-05-20T08:22:49Z</time>
      </trkpt>
      <trkpt lat="42.912204964086413" lon="-8.030242016538978">
        <ele>416.60000000000002</ele>
        <time>2018-05-20T08:22:50Z</time>
      </trkpt>
      <trkpt lat="42.912204964086413" lon="-8.030161969363689">
        <ele>416.69999999999999</ele>
        <time>2018-05-20T08:22:51Z</time>
      </trkpt>
      <trkpt lat="42.912204964086413" lon="-8.030100027099252">
        <ele>416.80000000000001</ele>
        <time>2018-05-20T08:22:53Z</time>
      </trkpt>
      <trkpt lat="42.912204964086413" lon="-8.030048981308937">
        <ele>416.89999999999998</ele>
        <time>2018-05-20T08:22:54Z</time>
      </trkpt>
      <trkpt lat="42.912204964086413" lon="-8.02999097853899">
        <ele>416.89999999999998</ele>
        <time>2018-05-20T08:22:55Z</time>
      </trkpt>
      <trkpt lat="42.912204964086413" lon="-8.029933981597424">
        <ele>417</ele>
        <time>2018-05-20T08:22:56Z</time>
      </trkpt>
      <trkpt lat="42.912204964086413" lon="-8.029858963564038">
        <ele>417.10000000000002</ele>
        <time>2018-05-20T08:22:58Z</time>
      </trkpt>
      <trkpt lat="42.912204964086413" lon="-8.029801966622472">
        <ele>417.19999999999999</ele>
        <time>2018-05-20T08:22:59Z</time>
      </trkpt>
      <trkpt lat="42.91219599545002" lon="-8.02971001714468">
        <ele>417.30000000000001</ele>
        <time>2018-05-20T08:23:01Z</time>
      </trkpt>
      <trkpt lat="42.91219599545002" lon="-8.029610021039844">
        <ele>417.39999999999998</ele>
        <time>2018-05-20T08:23:03Z</time>
      </trkpt>
      <trkpt lat="42.912190966308117" lon="-8.029541037976742">
        <ele>417.30000000000001</ele>
        <time>2018-05-20T08:23:05Z</time>
      </trkpt>
      <trkpt lat="42.912190966308117" lon="-8.029414974153042">
        <ele>417</ele>
        <time>2018-05-20T08:23:08Z</time>
      </trkpt>
      <trkpt lat="42.912181997671723" lon="-8.02934599108994">
        <ele>416.80000000000001</ele>
        <time>2018-05-20T08:23:09Z</time>
      </trkpt>
      <trkpt lat="42.912181997671723" lon="-8.029287988319993">
        <ele>416.60000000000002</ele>
        <time>2018-05-20T08:23:10Z</time>
      </trkpt>
      <trkpt lat="42.91217696852982" lon="-8.02923702634871">
        <ele>416.5</ele>
        <time>2018-05-20T08:23:12Z</time>
      </trkpt>
      <trkpt lat="42.91217696852982" lon="-8.029155973345041">
        <ele>416.30000000000001</ele>
        <time>2018-05-20T08:23:13Z</time>
      </trkpt>
      <trkpt lat="42.91217302903533" lon="-8.029093025252223">
        <ele>416.10000000000002</ele>
        <time>2018-05-20T08:23:15Z</time>
      </trkpt>
      <trkpt lat="42.912167999893427" lon="-8.028972996398807">
        <ele>415.80000000000001</ele>
        <time>2018-05-20T08:23:17Z</time>
      </trkpt>
      <trkpt lat="42.912167999893427" lon="-8.02891499362886">
        <ele>415.69999999999999</ele>
        <time>2018-05-20T08:23:19Z</time>
      </trkpt>
      <trkpt lat="42.912162970751524" lon="-8.028863025829196">
        <ele>415.60000000000002</ele>
        <time>2018-05-20T08:23:20Z</time>
      </trkpt>
      <trkpt lat="42.91215400211513" lon="-8.02880602888763">
        <ele>415.39999999999998</ele>
        <time>2018-05-20T08:23:21Z</time>
      </trkpt>
      <trkpt lat="42.912145033478737" lon="-8.02874299697578">
        <ele>415.19999999999999</ele>
        <time>2018-05-20T08:23:22Z</time>
      </trkpt>
      <trkpt lat="42.912140004336834" lon="-8.028691029176116">
        <ele>415.30000000000001</ele>
        <time>2018-05-20T08:23:23Z</time>
      </trkpt>
      <trkpt lat="42.912134975194931" lon="-8.028638977557421">
        <ele>415.30000000000001</ele>
        <time>2018-05-20T08:23:25Z</time>
      </trkpt>
      <trkpt lat="42.912126006558537" lon="-8.0285710003227">
        <ele>415.39999999999998</ele>
        <time>2018-05-20T08:23:26Z</time>
      </trkpt>
      <trkpt lat="42.91208703070879" lon="-8.028391962870956">
        <ele>415.39999999999998</ele>
        <time>2018-05-20T08:23:30Z</time>
      </trkpt>
      <trkpt lat="42.912040008231997" lon="-8.028022991493344">
        <ele>415.80000000000001</ele>
        <time>2018-05-20T08:23:38Z</time>
      </trkpt>
      <trkpt lat="42.912033973261714" lon="-8.02799197845161">
        <ele>415.80000000000001</ele>
        <time>2018-05-20T08:23:39Z</time>
      </trkpt>
      <trkpt lat="42.912029027938843" lon="-8.027934981510043">
        <ele>415.80000000000001</ele>
        <time>2018-05-20T08:23:40Z</time>
      </trkpt>
      <trkpt lat="42.91202399879694" lon="-8.02788301371038">
        <ele>415.89999999999998</ele>
        <time>2018-05-20T08:23:41Z</time>
      </trkpt>
      <trkpt lat="42.912019975483418" lon="-8.027807995676994">
        <ele>415.89999999999998</ele>
        <time>2018-05-20T08:23:43Z</time>
      </trkpt>
      <trkpt lat="42.912010001018643" lon="-8.027728032320738">
        <ele>415.80000000000001</ele>
        <time>2018-05-20T08:23:45Z</time>
      </trkpt>
      <trkpt lat="42.912010001018643" lon="-8.027670029550791">
        <ele>415.89999999999998</ele>
        <time>2018-05-20T08:23:46Z</time>
      </trkpt>
      <trkpt lat="42.912005977705121" lon="-8.027589982375503">
        <ele>415.89999999999998</ele>
        <time>2018-05-20T08:23:48Z</time>
      </trkpt>
      <trkpt lat="42.912005977705121" lon="-8.027532985433936">
        <ele>415.89999999999998</ele>
        <time>2018-05-20T08:23:49Z</time>
      </trkpt>
      <trkpt lat="42.91200103238225" lon="-8.027481017634273">
        <ele>415.89999999999998</ele>
        <time>2018-05-20T08:23:50Z</time>
      </trkpt>
      <trkpt lat="42.911991979926825" lon="-8.027417985722423">
        <ele>415.80000000000001</ele>
        <time>2018-05-20T08:23:52Z</time>
      </trkpt>
      <trkpt lat="42.911987034603953" lon="-8.027342967689037">
        <ele>415.80000000000001</ele>
        <time>2018-05-20T08:23:53Z</time>
      </trkpt>
      <trkpt lat="42.911987034603953" lon="-8.027290999889374">
        <ele>415.89999999999998</ele>
        <time>2018-05-20T08:23:54Z</time>
      </trkpt>
      <trkpt lat="42.911977982148528" lon="-8.027240037918091">
        <ele>415.80000000000001</ele>
        <time>2018-05-20T08:23:55Z</time>
      </trkpt>
      <trkpt lat="42.911973036825657" lon="-8.027177006006241">
        <ele>415.89999999999998</ele>
        <time>2018-05-20T08:23:57Z</time>
      </trkpt>
      <trkpt lat="42.91195903904736" lon="-8.02711296826601">
        <ele>415.80000000000001</ele>
        <time>2018-05-20T08:23:58Z</time>
      </trkpt>
      <trkpt lat="42.911945041269064" lon="-8.027062006294727">
        <ele>415.89999999999998</ele>
        <time>2018-05-20T08:23:59Z</time>
      </trkpt>
      <trkpt lat="42.911921991035342" lon="-8.027008026838303">
        <ele>415.89999999999998</ele>
        <time>2018-05-20T08:24:01Z</time>
      </trkpt>
      <trkpt lat="42.911865999922156" lon="-8.026880035176873">
        <ele>416</ele>
        <time>2018-05-20T08:24:04Z</time>
      </trkpt>
      <trkpt lat="42.911787964403629" lon="-8.026717007160187">
        <ele>416.19999999999999</ele>
        <time>2018-05-20T08:24:08Z</time>
      </trkpt>
      <trkpt lat="42.911727027967572" lon="-8.026455994695425">
        <ele>416.60000000000002</ele>
        <time>2018-05-20T08:24:14Z</time>
      </trkpt>
      <trkpt lat="42.91165703907609" lon="-8.026257008314133">
        <ele>417</ele>
        <time>2018-05-20T08:24:19Z</time>
      </trkpt>
      <trkpt lat="42.911628959700465" lon="-8.026045029982925">
        <ele>417.89999999999998</ele>
        <time>2018-05-20T08:24:24Z</time>
      </trkpt>
      <trkpt lat="42.911569029092789" lon="-8.025791980326176">
        <ele>419</ele>
        <time>2018-05-20T08:24:29Z</time>
      </trkpt>
      <trkpt lat="42.911451011896133" lon="-8.025441030040383">
        <ele>420.60000000000002</ele>
        <time>2018-05-20T08:24:38Z</time>
      </trkpt>
      <trkpt lat="42.911451011896133" lon="-8.025429965928197">
        <ele>420.69999999999999</ele>
        <time>2018-05-20T08:24:38Z</time>
      </trkpt>
      <trkpt lat="42.911431984975934" lon="-8.025384033098817">
        <ele>420.89999999999998</ele>
        <time>2018-05-20T08:24:39Z</time>
      </trkpt>
      <trkpt lat="42.91140197776258" lon="-8.025316977873445">
        <ele>421.19999999999999</ele>
        <time>2018-05-20T08:24:41Z</time>
      </trkpt>
      <trkpt lat="42.911387979984283" lon="-8.025265010073781">
        <ele>421.30000000000001</ele>
        <time>2018-05-20T08:24:42Z</time>
      </trkpt>
      <trkpt lat="42.911369958892465" lon="-8.025207007303834">
        <ele>421.60000000000002</ele>
        <time>2018-05-20T08:24:43Z</time>
      </trkpt>
      <trkpt lat="42.911355961114168" lon="-8.025126960128546">
        <ele>421.89999999999998</ele>
        <time>2018-05-20T08:24:45Z</time>
      </trkpt>
      <trkpt lat="42.911341963335872" lon="-8.025074992328882">
        <ele>422.10000000000002</ele>
        <time>2018-05-20T08:24:46Z</time>
      </trkpt>
      <trkpt lat="42.911323020234704" lon="-8.025017995387316">
        <ele>422.30000000000001</ele>
        <time>2018-05-20T08:24:48Z</time>
      </trkpt>
      <trkpt lat="42.911303993314505" lon="-8.024971978738904">
        <ele>422.5</ele>
        <time>2018-05-20T08:24:49Z</time>
      </trkpt>
      <trkpt lat="42.911285972222686" lon="-8.024931997060776">
        <ele>422.69999999999999</ele>
        <time>2018-05-20T08:24:50Z</time>
      </trkpt>
      <trkpt lat="42.911263005807996" lon="-8.024880029261112">
        <ele>422.89999999999998</ele>
        <time>2018-05-20T08:24:51Z</time>
      </trkpt>
      <trkpt lat="42.911241967231035" lon="-8.024834012612701">
        <ele>423.10000000000002</ele>
        <time>2018-05-20T08:24:52Z</time>
      </trkpt>
      <trkpt lat="42.911224029958248" lon="-8.024777015671134">
        <ele>423.30000000000001</ele>
        <time>2018-05-20T08:24:54Z</time>
      </trkpt>
      <trkpt lat="42.911210032179952" lon="-8.024724964052439">
        <ele>423.5</ele>
        <time>2018-05-20T08:24:55Z</time>
      </trkpt>
      <trkpt lat="42.911199973896146" lon="-8.024672996252775">
        <ele>423.60000000000002</ele>
        <time>2018-05-20T08:24:56Z</time>
      </trkpt>
      <trkpt lat="42.911180024966598" lon="-8.024624967947602">
        <ele>423.80000000000001</ele>
        <time>2018-05-20T08:24:57Z</time>
      </trkpt>
      <trkpt lat="42.911180024966598" lon="-8.024565959349275">
        <ele>424</ele>
        <time>2018-05-20T08:24:59Z</time>
      </trkpt>
      <trkpt lat="42.911180024966598" lon="-8.024503011256456">
        <ele>424.10000000000002</ele>
        <time>2018-05-20T08:25:00Z</time>
      </trkpt>
      <trkpt lat="42.911180024966598" lon="-8.024440985172987">
        <ele>424.19999999999999</ele>
        <time>2018-05-20T08:25:01Z</time>
      </trkpt>
      <trkpt lat="42.911184970289469" lon="-8.024383988231421">
        <ele>424.39999999999998</ele>
        <time>2018-05-20T08:25:03Z</time>
      </trkpt>
      <trkpt lat="42.911188993602991" lon="-8.024321040138602">
        <ele>424.5</ele>
        <time>2018-05-20T08:25:04Z</time>
      </trkpt>
      <trkpt lat="42.911205003038049" lon="-8.024266976863146">
        <ele>424.69999999999999</ele>
        <time>2018-05-20T08:25:05Z</time>
      </trkpt>
      <trkpt lat="42.911224029958248" lon="-8.024220960214734">
        <ele>424.80000000000001</ele>
        <time>2018-05-20T08:25:06Z</time>
      </trkpt>
      <trkpt lat="42.911252025514841" lon="-8.024187013506889">
        <ele>424.89999999999998</ele>
        <time>2018-05-20T08:25:07Z</time>
      </trkpt>
      <trkpt lat="42.911285972222686" lon="-8.024144014343619">
        <ele>425</ele>
        <time>2018-05-20T08:25:09Z</time>
      </trkpt>
      <trkpt lat="42.911309022456408" lon="-8.024104032665491">
        <ele>425</ele>
        <time>2018-05-20T08:25:10Z</time>
      </trkpt>
      <trkpt lat="42.911334000527859" lon="-8.024050975218415">
        <ele>425.10000000000002</ele>
        <time>2018-05-20T08:25:11Z</time>
      </trkpt>
      <trkpt lat="42.911356966942549" lon="-8.024009987711906">
        <ele>425.19999999999999</ele>
        <time>2018-05-20T08:25:12Z</time>
      </trkpt>
      <trkpt lat="42.911392003297806" lon="-8.023961959406734">
        <ele>425.30000000000001</ele>
        <time>2018-05-20T08:25:14Z</time>
      </trkpt>
      <trkpt lat="42.91153198108077" lon="-8.023744029924274">
        <ele>425.69999999999999</ele>
        <time>2018-05-20T08:25:20Z</time>
      </trkpt>
      <trkpt lat="42.91172401048243" lon="-8.023450998589397">
        <ele>425.80000000000001</ele>
        <time>2018-05-20T08:25:29Z</time>
      </trkpt>
      <trkpt lat="42.911932971328497" lon="-8.023132989183068">
        <ele>425.89999999999998</ele>
        <time>2018-05-20T08:25:38Z</time>
      </trkpt>
      <trkpt lat="42.912137992680073" lon="-8.02281497977674">
        <ele>426.10000000000002</ele>
        <time>2018-05-20T08:25:47Z</time>
      </trkpt>
      <trkpt lat="42.912289034575224" lon="-8.0225770175457">
        <ele>426.5</ele>
        <time>2018-05-20T08:25:54Z</time>
      </trkpt>
      <trkpt lat="42.91241199709475" lon="-8.022359004244208">
        <ele>427.10000000000002</ele>
        <time>2018-05-20T08:26:00Z</time>
      </trkpt>
      <trkpt lat="42.912420965731144" lon="-8.022330002859235">
        <ele>427.19999999999999</ele>
        <time>2018-05-20T08:26:01Z</time>
      </trkpt>
      <trkpt lat="42.912439992651343" lon="-8.022283986210823">
        <ele>427.30000000000001</ele>
        <time>2018-05-20T08:26:02Z</time>
      </trkpt>
      <trkpt lat="42.912459019571543" lon="-8.022241992875934">
        <ele>427.5</ele>
        <time>2018-05-20T08:26:03Z</time>
      </trkpt>
      <trkpt lat="42.912473017349839" lon="-8.022206034511328">
        <ele>427.60000000000002</ele>
        <time>2018-05-20T08:26:04Z</time>
      </trkpt>
      <trkpt lat="42.912491038441658" lon="-8.022160017862916">
        <ele>427.80000000000001</ele>
        <time>2018-05-20T08:26:05Z</time>
      </trkpt>
      <trkpt lat="42.912514004856348" lon="-8.022107966244221">
        <ele>428</ele>
        <time>2018-05-20T08:26:06Z</time>
      </trkpt>
      <trkpt lat="42.912542000412941" lon="-8.022055998444557">
        <ele>428.30000000000001</ele>
        <time>2018-05-20T08:26:08Z</time>
      </trkpt>
      <trkpt lat="42.912565972656012" lon="-8.022016016766429">
        <ele>428.60000000000002</ele>
        <time>2018-05-20T08:26:09Z</time>
      </trkpt>
      <trkpt lat="42.912579970434308" lon="-8.021970000118017">
        <ele>428.89999999999998</ele>
        <time>2018-05-20T08:26:10Z</time>
      </trkpt>
      <trkpt lat="42.912597991526127" lon="-8.021923983469605">
        <ele>429.19999999999999</ele>
        <time>2018-05-20T08:26:11Z</time>
      </trkpt>
      <trkpt lat="42.912611989304423" lon="-8.021877966821194">
        <ele>429.5</ele>
        <time>2018-05-20T08:26:12Z</time>
      </trkpt>
      <trkpt lat="42.912621963769197" lon="-8.021827004849911">
        <ele>429.89999999999998</ele>
        <time>2018-05-20T08:26:13Z</time>
      </trkpt>
      <trkpt lat="42.912635961547494" lon="-8.021758021786809">
        <ele>430.39999999999998</ele>
        <time>2018-05-20T08:26:15Z</time>
      </trkpt>
      <trkpt lat="42.91264995932579" lon="-8.021712005138397">
        <ele>430.80000000000001</ele>
        <time>2018-05-20T08:26:16Z</time>
      </trkpt>
      <trkpt lat="42.912659011781216" lon="-8.021665988489986">
        <ele>431.10000000000002</ele>
        <time>2018-05-20T08:26:17Z</time>
      </trkpt>
      <trkpt lat="42.912673009559512" lon="-8.021607985720038">
        <ele>431.60000000000002</ele>
        <time>2018-05-20T08:26:18Z</time>
      </trkpt>
      <trkpt lat="42.912683989852667" lon="-8.021555012091994">
        <ele>432</ele>
        <time>2018-05-20T08:26:19Z</time>
      </trkpt>
      <trkpt lat="42.912697987630963" lon="-8.021508995443583">
        <ele>432.39999999999998</ele>
        <time>2018-05-20T08:26:20Z</time>
      </trkpt>
      <trkpt lat="42.912721037864685" lon="-8.021450992673636">
        <ele>433</ele>
        <time>2018-05-20T08:26:22Z</time>
      </trkpt>
      <trkpt lat="42.912749033421278" lon="-8.021376980468631">
        <ele>433.69999999999999</ele>
        <time>2018-05-20T08:26:24Z</time>
      </trkpt>
      <trkpt lat="42.912795972079039" lon="-8.021305985748768">
        <ele>434.60000000000002</ele>
        <time>2018-05-20T08:26:26Z</time>
      </trkpt>
      <trkpt lat="42.912813993170857" lon="-8.021259969100356">
        <ele>435.10000000000002</ele>
        <time>2018-05-20T08:26:27Z</time>
      </trkpt>
      <trkpt lat="42.912827990949154" lon="-8.021208001300693">
        <ele>435.5</ele>
        <time>2018-05-20T08:26:28Z</time>
      </trkpt>
      <trkpt lat="42.912851963192225" lon="-8.021144969388843">
        <ele>436.19999999999999</ele>
        <time>2018-05-20T08:26:30Z</time>
      </trkpt>
      <trkpt lat="42.912889011204243" lon="-8.021086966618896">
        <ele>436.89999999999998</ele>
        <time>2018-05-20T08:26:31Z</time>
      </trkpt>
      <trkpt lat="42.912933016195893" lon="-8.021024018526077">
        <ele>437.69999999999999</ele>
        <time>2018-05-20T08:26:33Z</time>
      </trkpt>
      <trkpt lat="42.913041980937123" lon="-8.020769963040948">
        <ele>439.89999999999998</ele>
        <time>2018-05-20T08:26:40Z</time>
      </trkpt>
      <trkpt lat="42.913168966770172" lon="-8.020481960847974">
        <ele>442.69999999999999</ele>
        <time>2018-05-20T08:26:47Z</time>
      </trkpt>
      <trkpt lat="42.91329100728035" lon="-8.020182978361845">
        <ele>445.5</ele>
        <time>2018-05-20T08:26:54Z</time>
      </trkpt>
      <trkpt lat="42.91329100728035" lon="-8.020175015553832">
        <ele>445.60000000000002</ele>
        <time>2018-05-20T08:26:55Z</time>
      </trkpt>
      <trkpt lat="42.913451017811894" lon="-8.019949039444327">
        <ele>448.80000000000001</ele>
        <time>2018-05-20T08:27:01Z</time>
      </trkpt>
      <trkpt lat="42.913627037778497" lon="-8.019648967310786">
        <ele>453.69999999999999</ele>
        <time>2018-05-20T08:27:10Z</time>
      </trkpt>
      <trkpt lat="42.913725022226572" lon="-8.01935400813818">
        <ele>455.89999999999998</ele>
        <time>2018-05-20T08:27:17Z</time>
      </trkpt>
      <trkpt lat="42.913753017783165" lon="-8.019220987334848">
        <ele>456.39999999999998</ele>
        <time>2018-05-20T08:27:20Z</time>
      </trkpt>
      <trkpt lat="42.913785958662629" lon="-8.018894009292126">
        <ele>456.69999999999999</ele>
        <time>2018-05-20T08:27:27Z</time>
      </trkpt>
      <trkpt lat="42.91387002915144" lon="-8.018578011542559">
        <ele>456.5</ele>
        <time>2018-05-20T08:27:34Z</time>
      </trkpt>
      <trkpt lat="42.91389299556613" lon="-8.018263019621372">
        <ele>455.80000000000001</ele>
        <time>2018-05-20T08:27:41Z</time>
      </trkpt>
      <trkpt lat="42.913948986679316" lon="-8.017974011600018">
        <ele>455.10000000000002</ele>
        <time>2018-05-20T08:27:48Z</time>
      </trkpt>
      <trkpt lat="42.913996009156108" lon="-8.017658013850451">
        <ele>454.5</ele>
        <time>2018-05-20T08:27:55Z</time>
      </trkpt>
      <trkpt lat="42.914098016917706" lon="-8.017116039991379">
        <ele>453.5</ele>
        <time>2018-05-20T08:28:07Z</time>
      </trkpt>
      <trkpt lat="42.914159037172794" lon="-8.016801970079541">
        <ele>453.69999999999999</ele>
        <time>2018-05-20T08:28:14Z</time>
      </trkpt>
      <trkpt lat="42.914163982495666" lon="-8.016750002279878">
        <ele>453.69999999999999</ele>
        <time>2018-05-20T08:28:15Z</time>
      </trkpt>
      <trkpt lat="42.914168005809188" lon="-8.016697028651834">
        <ele>453.69999999999999</ele>
        <time>2018-05-20T08:28:16Z</time>
      </trkpt>
      <trkpt lat="42.914173034951091" lon="-8.0166279617697">
        <ele>453.80000000000001</ele>
        <time>2018-05-20T08:28:18Z</time>
      </trkpt>
      <trkpt lat="42.914182003587484" lon="-8.016558978706598">
        <ele>453.80000000000001</ele>
        <time>2018-05-20T08:28:19Z</time>
      </trkpt>
      <trkpt lat="42.914187032729387" lon="-8.01649603061378">
        <ele>453.89999999999998</ele>
        <time>2018-05-20T08:28:21Z</time>
      </trkpt>
      <trkpt lat="42.914187032729387" lon="-8.016443978995085">
        <ele>453.89999999999998</ele>
        <time>2018-05-20T08:28:22Z</time>
      </trkpt>
      <trkpt lat="42.914196001365781" lon="-8.016392011195421">
        <ele>454</ele>
        <time>2018-05-20T08:28:23Z</time>
      </trkpt>
      <trkpt lat="42.914205975830555" lon="-8.01632302813232">
        <ele>454</ele>
        <time>2018-05-20T08:28:24Z</time>
      </trkpt>
      <trkpt lat="42.914219973608851" lon="-8.016278017312288">
        <ele>454.10000000000002</ele>
        <time>2018-05-20T08:28:25Z</time>
      </trkpt>
      <trkpt lat="42.914233971387148" lon="-8.016220014542341">
        <ele>454.19999999999999</ele>
        <time>2018-05-20T08:28:27Z</time>
      </trkpt>
      <trkpt lat="42.91423799470067" lon="-8.01615103147924">
        <ele>454.39999999999998</ele>
        <time>2018-05-20T08:28:28Z</time>
      </trkpt>
      <trkpt lat="42.914247969165444" lon="-8.01608799956739">
        <ele>454.60000000000002</ele>
        <time>2018-05-20T08:28:30Z</time>
      </trkpt>
      <trkpt lat="42.91425702162087" lon="-8.016036031767726">
        <ele>454.69999999999999</ele>
        <time>2018-05-20T08:28:31Z</time>
      </trkpt>
      <trkpt lat="42.914261966943741" lon="-8.01597903482616">
        <ele>454.89999999999998</ele>
        <time>2018-05-20T08:28:32Z</time>
      </trkpt>
      <trkpt lat="42.914275964722037" lon="-8.015926983207464">
        <ele>455</ele>
        <time>2018-05-20T08:28:33Z</time>
      </trkpt>
      <trkpt lat="42.914285017177463" lon="-8.015869986265898">
        <ele>455.19999999999999</ele>
        <time>2018-05-20T08:28:35Z</time>
      </trkpt>
      <trkpt lat="42.914299014955759" lon="-8.015823969617486">
        <ele>455.30000000000001</ele>
        <time>2018-05-20T08:28:36Z</time>
      </trkpt>
      <trkpt lat="42.914313012734056" lon="-8.015765966847539">
        <ele>455.5</ele>
        <time>2018-05-20T08:28:37Z</time>
      </trkpt>
      <trkpt lat="42.914318041875958" lon="-8.015708969905973">
        <ele>455.69999999999999</ele>
        <time>2018-05-20T08:28:38Z</time>
      </trkpt>
      <trkpt lat="42.914321981370449" lon="-8.015650967136025">
        <ele>455.80000000000001</ele>
        <time>2018-05-20T08:28:39Z</time>
      </trkpt>
      <trkpt lat="42.914327010512352" lon="-8.015593970194459">
        <ele>456</ele>
        <time>2018-05-20T08:28:41Z</time>
      </trkpt>
      <trkpt lat="42.914335979148746" lon="-8.015542002394795">
        <ele>456.10000000000002</ele>
        <time>2018-05-20T08:28:42Z</time>
      </trkpt>
      <trkpt lat="42.914335979148746" lon="-8.015485005453229">
        <ele>456.19999999999999</ele>
        <time>2018-05-20T08:28:43Z</time>
      </trkpt>
      <trkpt lat="42.914335979148746" lon="-8.015416022390127">
        <ele>456.39999999999998</ele>
        <time>2018-05-20T08:28:45Z</time>
      </trkpt>
      <trkpt lat="42.914335979148746" lon="-8.0153570137918">
        <ele>456.39999999999998</ele>
        <time>2018-05-20T08:28:46Z</time>
      </trkpt>
      <trkpt lat="42.914335979148746" lon="-8.015292976051569">
        <ele>456.39999999999998</ele>
        <time>2018-05-20T08:28:47Z</time>
      </trkpt>
      <trkpt lat="42.914346037432551" lon="-8.015223992988467">
        <ele>456.39999999999998</ele>
        <time>2018-05-20T08:28:49Z</time>
      </trkpt>
      <trkpt lat="42.914346037432551" lon="-8.015173031017184">
        <ele>456.39999999999998</ele>
        <time>2018-05-20T08:28:50Z</time>
      </trkpt>
      <trkpt lat="42.914346037432551" lon="-8.015115028247237">
        <ele>456.39999999999998</ele>
        <time>2018-05-20T08:28:51Z</time>
      </trkpt>
      <trkpt lat="42.914346037432551" lon="-8.015058031305671">
        <ele>456.39999999999998</ele>
        <time>2018-05-20T08:28:52Z</time>
      </trkpt>
      <trkpt lat="42.914346037432551" lon="-8.014998016878963">
        <ele>456.39999999999998</ele>
        <time>2018-05-20T08:28:54Z</time>
      </trkpt>
      <trkpt lat="42.914324998855591" lon="-8.014956023544073">
        <ele>456.39999999999998</ele>
        <time>2018-05-20T08:28:55Z</time>
      </trkpt>
      <trkpt lat="42.914285017177463" lon="-8.014926016330719">
        <ele>456.30000000000001</ele>
        <time>2018-05-20T08:28:56Z</time>
      </trkpt>
      <trkpt lat="42.914254004135728" lon="-8.014905983582139">
        <ele>456.19999999999999</ele>
        <time>2018-05-20T08:28:57Z</time>
      </trkpt>
      <trkpt lat="42.914216034114361" lon="-8.014883017167449">
        <ele>456.10000000000002</ele>
        <time>2018-05-20T08:28:58Z</time>
      </trkpt>
      <trkpt lat="42.914188038557768" lon="-8.014855021610856">
        <ele>456.10000000000002</ele>
        <time>2018-05-20T08:28:59Z</time>
      </trkpt>
      <trkpt lat="42.91415199637413" lon="-8.014837000519037">
        <ele>456</ele>
        <time>2018-05-20T08:29:01Z</time>
      </trkpt>
      <trkpt lat="42.914116038009524" lon="-8.014817973598838">
        <ele>455.89999999999998</ele>
        <time>2018-05-20T08:29:02Z</time>
      </trkpt>
      <trkpt lat="42.914087036624551" lon="-8.014792995527387">
        <ele>455.80000000000001</ele>
        <time>2018-05-20T08:29:03Z</time>
      </trkpt>
      <trkpt lat="42.914071027189493" lon="-8.014748990535736">
        <ele>455.80000000000001</ele>
        <time>2018-05-20T08:29:04Z</time>
      </trkpt>
      <trkpt lat="42.914061974734068" lon="-8.014680007472634">
        <ele>455.69999999999999</ele>
        <time>2018-05-20T08:29:05Z</time>
      </trkpt>
      <trkpt lat="42.914039008319378" lon="-8.014604989439249">
        <ele>455.69999999999999</ele>
        <time>2018-05-20T08:29:07Z</time>
      </trkpt>
      <trkpt lat="42.914019981399179" lon="-8.014558972790837">
        <ele>455.60000000000002</ele>
        <time>2018-05-20T08:29:08Z</time>
      </trkpt>
      <trkpt lat="42.913984023034573" lon="-8.014531983062625">
        <ele>455.5</ele>
        <time>2018-05-20T08:29:09Z</time>
      </trkpt>
      <trkpt lat="42.913891989737749" lon="-8.014490995556116">
        <ele>455.30000000000001</ele>
        <time>2018-05-20T08:29:12Z</time>
      </trkpt>
      <trkpt lat="42.913816971704364" lon="-8.014265019446611">
        <ele>455.10000000000002</ele>
        <time>2018-05-20T08:29:18Z</time>
      </trkpt>
      <trkpt lat="42.913752011954784" lon="-8.013808960095048">
        <ele>455</ele>
        <time>2018-05-20T08:29:28Z</time>
      </trkpt>
      <trkpt lat="42.913694009184837" lon="-8.013432025909424">
        <ele>454.60000000000002</ele>
        <time>2018-05-20T08:29:36Z</time>
      </trkpt>
      <trkpt lat="42.913625026121736" lon="-8.012945037335157">
        <ele>454</ele>
        <time>2018-05-20T08:29:47Z</time>
      </trkpt>
      <trkpt lat="42.91355000808835" lon="-8.012519991025329">
        <ele>453.69999999999999</ele>
        <time>2018-05-20T08:29:56Z</time>
      </trkpt>
      <trkpt lat="42.913431990891695" lon="-8.011916996911168">
        <ele>452.5</ele>
        <time>2018-05-20T08:30:10Z</time>
      </trkpt>
      <trkpt lat="42.913370970636606" lon="-8.011622037738562">
        <ele>451.5</ele>
        <time>2018-05-20T08:30:16Z</time>
      </trkpt>
      <trkpt lat="42.913320008665323" lon="-8.011359013617039">
        <ele>450.69999999999999</ele>
        <time>2018-05-20T08:30:22Z</time>
      </trkpt>
      <trkpt lat="42.913300981745124" lon="-8.011359013617039">
        <ele>450.60000000000002</ele>
        <time>2018-05-20T08:30:23Z</time>
      </trkpt>
      <trkpt lat="42.913262005895376" lon="-8.011359013617039">
        <ele>450.5</ele>
        <time>2018-05-20T08:30:24Z</time>
      </trkpt>
      <trkpt lat="42.913220012560487" lon="-8.011359013617039">
        <ele>450.39999999999998</ele>
        <time>2018-05-20T08:30:25Z</time>
      </trkpt>
      <trkpt lat="42.913178019225597" lon="-8.011359013617039">
        <ele>450.19999999999999</ele>
        <time>2018-05-20T08:30:27Z</time>
      </trkpt>
      <trkpt lat="42.913136025890708" lon="-8.011359013617039">
        <ele>450.10000000000002</ele>
        <time>2018-05-20T08:30:28Z</time>
      </trkpt>
      <trkpt lat="42.913094032555819" lon="-8.011359013617039">
        <ele>449.89999999999998</ele>
        <time>2018-05-20T08:30:29Z</time>
      </trkpt>
      <trkpt lat="42.9130569845438" lon="-8.011348033323884">
        <ele>449.69999999999999</ele>
        <time>2018-05-20T08:30:30Z</time>
      </trkpt>
      <trkpt lat="42.913014991208911" lon="-8.011312996968627">
        <ele>449.5</ele>
        <time>2018-05-20T08:30:32Z</time>
      </trkpt>
      <trkpt lat="42.912978027015924" lon="-8.011278966441751">
        <ele>449.30000000000001</ele>
        <time>2018-05-20T08:30:33Z</time>
      </trkpt>
      <trkpt lat="42.912942990660667" lon="-8.011256000027061">
        <ele>449.10000000000002</ele>
        <time>2018-05-20T08:30:34Z</time>
      </trkpt>
      <trkpt lat="42.912914995104074" lon="-8.011220963671804">
        <ele>448.89999999999998</ele>
        <time>2018-05-20T08:30:35Z</time>
      </trkpt>
      <trkpt lat="42.912875013425946" lon="-8.011207971721888">
        <ele>448.60000000000002</ele>
        <time>2018-05-20T08:30:36Z</time>
      </trkpt>
      <trkpt lat="42.912793960422277" lon="-8.011138988658786">
        <ele>447.89999999999998</ele>
        <time>2018-05-20T08:30:39Z</time>
      </trkpt>
      <trkpt lat="42.912705028429627" lon="-8.011012002825737">
        <ele>447</ele>
        <time>2018-05-20T08:30:43Z</time>
      </trkpt>
      <trkpt lat="42.912657000124454" lon="-8.010923992842436">
        <ele>446.5</ele>
        <time>2018-05-20T08:30:45Z</time>
      </trkpt>
      <trkpt lat="42.91251702234149" lon="-8.010630961507559">
        <ele>445.10000000000002</ele>
        <time>2018-05-20T08:30:53Z</time>
      </trkpt>
      <trkpt lat="42.912387019023299" lon="-8.010287974029779">
        <ele>443.80000000000001</ele>
        <time>2018-05-20T08:31:01Z</time>
      </trkpt>
      <trkpt lat="42.912245029583573" lon="-8.009951021522284">
        <ele>442.5</ele>
        <time>2018-05-20T08:31:10Z</time>
      </trkpt>
      <trkpt lat="42.91213396936655" lon="-8.009704006835818">
        <ele>441.5</ele>
        <time>2018-05-20T08:31:16Z</time>
      </trkpt>
      <trkpt lat="42.912078984081745" lon="-8.009507032111287">
        <ele>441</ele>
        <time>2018-05-20T08:31:21Z</time>
      </trkpt>
      <trkpt lat="42.912036990746856" lon="-8.009246019646525">
        <ele>440.80000000000001</ele>
        <time>2018-05-20T08:31:27Z</time>
      </trkpt>
      <trkpt lat="42.911989968270063" lon="-8.009057007730007">
        <ele>440.60000000000002</ele>
        <time>2018-05-20T08:31:31Z</time>
      </trkpt>
      <trkpt lat="42.911989968270063" lon="-8.009045021608472">
        <ele>440.60000000000002</ele>
        <time>2018-05-20T08:31:31Z</time>
      </trkpt>
      <trkpt lat="42.911975970491767" lon="-8.008988024666905">
        <ele>440.60000000000002</ele>
        <time>2018-05-20T08:31:32Z</time>
      </trkpt>
      <trkpt lat="42.911971025168896" lon="-8.008919041603804">
        <ele>440.5</ele>
        <time>2018-05-20T08:31:34Z</time>
      </trkpt>
      <trkpt lat="42.911967001855373" lon="-8.00884997472167">
        <ele>440.5</ele>
        <time>2018-05-20T08:31:35Z</time>
      </trkpt>
      <trkpt lat="42.911957027390599" lon="-8.00876397639513">
        <ele>440.39999999999998</ele>
        <time>2018-05-20T08:31:37Z</time>
      </trkpt>
      <trkpt lat="42.911953004077077" lon="-8.008688958361745">
        <ele>440.19999999999999</ele>
        <time>2018-05-20T08:31:39Z</time>
      </trkpt>
      <trkpt lat="42.911943029612303" lon="-8.008631961420178">
        <ele>440</ele>
        <time>2018-05-20T08:31:40Z</time>
      </trkpt>
      <trkpt lat="42.91193900629878" lon="-8.00856901332736">
        <ele>439.69999999999999</ele>
        <time>2018-05-20T08:31:42Z</time>
      </trkpt>
      <trkpt lat="42.911929031834006" lon="-8.008500030264258">
        <ele>439.5</ele>
        <time>2018-05-20T08:31:43Z</time>
      </trkpt>
      <trkpt lat="42.911919979378581" lon="-8.008430963382125">
        <ele>439.19999999999999</ele>
        <time>2018-05-20T08:31:45Z</time>
      </trkpt>
      <trkpt lat="42.911911010742188" lon="-8.008378995582461">
        <ele>439</ele>
        <time>2018-05-20T08:31:46Z</time>
      </trkpt>
      <trkpt lat="42.911887038499117" lon="-8.00831001251936">
        <ele>438.69999999999999</ele>
        <time>2018-05-20T08:31:47Z</time>
      </trkpt>
      <trkpt lat="42.911863988265395" lon="-8.008253015577793">
        <ele>438.5</ele>
        <time>2018-05-20T08:31:49Z</time>
      </trkpt>
      <trkpt lat="42.911841021850705" lon="-8.008213033899665">
        <ele>438.30000000000001</ele>
        <time>2018-05-20T08:31:50Z</time>
      </trkpt>
      <trkpt lat="42.911827024072409" lon="-8.008167017251253">
        <ele>438.10000000000002</ele>
        <time>2018-05-20T08:31:51Z</time>
      </trkpt>
      <trkpt lat="42.911813026294112" lon="-8.008121000602841">
        <ele>437.89999999999998</ele>
        <time>2018-05-20T08:31:52Z</time>
      </trkpt>
      <trkpt lat="42.911793999373913" lon="-8.008069032803178">
        <ele>437.69999999999999</ele>
        <time>2018-05-20T08:31:53Z</time>
      </trkpt>
      <trkpt lat="42.911774972453713" lon="-8.008023016154766">
        <ele>437.5</ele>
        <time>2018-05-20T08:31:55Z</time>
      </trkpt>
      <trkpt lat="42.911760974675417" lon="-8.0079660192132">
        <ele>437.39999999999998</ele>
        <time>2018-05-20T08:31:56Z</time>
      </trkpt>
      <trkpt lat="42.91174303740263" lon="-8.007912039756775">
        <ele>437.19999999999999</ele>
        <time>2018-05-20T08:31:57Z</time>
      </trkpt>
      <trkpt lat="42.911565005779266" lon="-8.007510965690017">
        <ele>435.30000000000001</ele>
        <time>2018-05-20T08:32:07Z</time>
      </trkpt>
      <trkpt lat="42.911456041038036" lon="-8.007217012345791">
        <ele>434</ele>
        <time>2018-05-20T08:32:14Z</time>
      </trkpt>
      <trkpt lat="42.911345986649394" lon="-8.006779979914427">
        <ele>432.80000000000001</ele>
        <time>2018-05-20T08:32:24Z</time>
      </trkpt>
      <trkpt lat="42.911240961402655" lon="-8.006491977721453">
        <ele>432.30000000000001</ele>
        <time>2018-05-20T08:32:31Z</time>
      </trkpt>
      <trkpt lat="42.911137025803328" lon="-8.006159970536828">
        <ele>431.10000000000002</ele>
        <time>2018-05-20T08:32:39Z</time>
      </trkpt>
      <trkpt lat="42.910994030535221" lon="-8.005821006372571">
        <ele>429.39999999999998</ele>
        <time>2018-05-20T08:32:48Z</time>
      </trkpt>
      <trkpt lat="42.910846006125212" lon="-8.00543200224638">
        <ele>427.60000000000002</ele>
        <time>2018-05-20T08:32:57Z</time>
      </trkpt>
      <trkpt lat="42.910675015300512" lon="-8.005058001726866">
        <ele>424.89999999999998</ele>
        <time>2018-05-20T08:33:07Z</time>
      </trkpt>
      <trkpt lat="42.9105219617486" lon="-8.004638990387321">
        <ele>421.80000000000001</ele>
        <time>2018-05-20T08:33:17Z</time>
      </trkpt>
      <trkpt lat="42.910387013107538" lon="-8.004344031214714">
        <ele>420.10000000000002</ele>
        <time>2018-05-20T08:33:25Z</time>
      </trkpt>
      <trkpt lat="42.910204958170652" lon="-8.003982016816735">
        <ele>418.39999999999998</ele>
        <time>2018-05-20T08:33:34Z</time>
      </trkpt>
      <trkpt lat="42.910015024244785" lon="-8.003581026569009">
        <ele>416.60000000000002</ele>
        <time>2018-05-20T08:33:44Z</time>
      </trkpt>
      <trkpt lat="42.909832969307899" lon="-8.003308027982712">
        <ele>415.10000000000002</ele>
        <time>2018-05-20T08:33:52Z</time>
      </trkpt>
      <trkpt lat="42.909681005403399" lon="-8.003113986924291">
        <ele>413.5</ele>
        <time>2018-05-20T08:33:59Z</time>
      </trkpt>
      <trkpt lat="42.909475984051824" lon="-8.002890022471547">
        <ele>411.89999999999998</ele>
        <time>2018-05-20T08:34:06Z</time>
      </trkpt>
      <trkpt lat="42.909452011808753" lon="-8.002850040793419">
        <ele>411.80000000000001</ele>
        <time>2018-05-20T08:34:08Z</time>
      </trkpt>
      <trkpt lat="42.909419992938638" lon="-8.002804024145007">
        <ele>411.69999999999999</ele>
        <time>2018-05-20T08:34:09Z</time>
      </trkpt>
      <trkpt lat="42.909396020695567" lon="-8.00276898778975">
        <ele>411.60000000000002</ele>
        <time>2018-05-20T08:34:10Z</time>
      </trkpt>
      <trkpt lat="42.909350004047155" lon="-8.002723976969719">
        <ele>411.39999999999998</ele>
        <time>2018-05-20T08:34:12Z</time>
      </trkpt>
      <trkpt lat="42.909312034025788" lon="-8.002689024433494">
        <ele>411.30000000000001</ele>
        <time>2018-05-20T08:34:13Z</time>
      </trkpt>
      <trkpt lat="42.909280015155673" lon="-8.002648958936334">
        <ele>411.10000000000002</ele>
        <time>2018-05-20T08:34:14Z</time>
      </trkpt>
      <trkpt lat="42.909246990457177" lon="-8.002608977258205">
        <ele>411</ele>
        <time>2018-05-20T08:34:16Z</time>
      </trkpt>
      <trkpt lat="42.909214971587062" lon="-8.002579975873232">
        <ele>410.80000000000001</ele>
        <time>2018-05-20T08:34:17Z</time>
      </trkpt>
      <trkpt lat="42.909189993515611" lon="-8.002539994195104">
        <ele>410.69999999999999</ele>
        <time>2018-05-20T08:34:18Z</time>
      </trkpt>
      <trkpt lat="42.90916602127254" lon="-8.00248802639544">
        <ele>410.5</ele>
        <time>2018-05-20T08:34:19Z</time>
      </trkpt>
      <trkpt lat="42.909152023494244" lon="-8.002435974776745">
        <ele>410.19999999999999</ele>
        <time>2018-05-20T08:34:20Z</time>
      </trkpt>
      <trkpt lat="42.909134002402425" lon="-8.002366991713643">
        <ele>410</ele>
        <time>2018-05-20T08:34:22Z</time>
      </trkpt>
      <trkpt lat="42.909114975482225" lon="-8.002309994772077">
        <ele>409.69999999999999</ele>
        <time>2018-05-20T08:34:23Z</time>
      </trkpt>
      <trkpt lat="42.909096032381058" lon="-8.002258026972413">
        <ele>409.5</ele>
        <time>2018-05-20T08:34:25Z</time>
      </trkpt>
      <trkpt lat="42.909086979925632" lon="-8.002194995060563">
        <ele>409.19999999999999</ele>
        <time>2018-05-20T08:34:26Z</time>
      </trkpt>
      <trkpt lat="42.909086979925632" lon="-8.002137998118997">
        <ele>409</ele>
        <time>2018-05-20T08:34:27Z</time>
      </trkpt>
      <trkpt lat="42.909086979925632" lon="-8.002086030319333">
        <ele>408.80000000000001</ele>
        <time>2018-05-20T08:34:28Z</time>
      </trkpt>
      <trkpt lat="42.909086979925632" lon="-8.002033978700638">
        <ele>408.80000000000001</ele>
        <time>2018-05-20T08:34:30Z</time>
      </trkpt>
      <trkpt lat="42.909092009067535" lon="-8.001976981759071">
        <ele>408.80000000000001</ele>
        <time>2018-05-20T08:34:31Z</time>
      </trkpt>
      <trkpt lat="42.909100977703929" lon="-8.001918978989124">
        <ele>408.80000000000001</ele>
        <time>2018-05-20T08:34:32Z</time>
      </trkpt>
      <trkpt lat="42.909114975482225" lon="-8.001856030896306">
        <ele>408.89999999999998</ele>
        <time>2018-05-20T08:34:33Z</time>
      </trkpt>
      <trkpt lat="42.909124027937651" lon="-8.001804985105991">
        <ele>408.89999999999998</ele>
        <time>2018-05-20T08:34:35Z</time>
      </trkpt>
      <trkpt lat="42.909138025715947" lon="-8.00175896845758">
        <ele>408.89999999999998</ele>
        <time>2018-05-20T08:34:36Z</time>
      </trkpt>
      <trkpt lat="42.909156968817115" lon="-8.001717980951071">
        <ele>409</ele>
        <time>2018-05-20T08:34:37Z</time>
      </trkpt>
      <trkpt lat="42.909175995737314" lon="-8.001658972352743">
        <ele>409</ele>
        <time>2018-05-20T08:34:38Z</time>
      </trkpt>
      <trkpt lat="42.909194016829133" lon="-8.001613039523363">
        <ele>409.10000000000002</ele>
        <time>2018-05-20T08:34:39Z</time>
      </trkpt>
      <trkpt lat="42.909212959930301" lon="-8.001555958762765">
        <ele>409.10000000000002</ele>
        <time>2018-05-20T08:34:41Z</time>
      </trkpt>
      <trkpt lat="42.9092319868505" lon="-8.001514971256256">
        <ele>409.19999999999999</ele>
        <time>2018-05-20T08:34:42Z</time>
      </trkpt>
      <trkpt lat="42.909236010164022" lon="-8.00145797431469">
        <ele>409.19999999999999</ele>
        <time>2018-05-20T08:34:43Z</time>
      </trkpt>
      <trkpt lat="42.909241039305925" lon="-8.001406006515026">
        <ele>409.19999999999999</ele>
        <time>2018-05-20T08:34:44Z</time>
      </trkpt>
      <trkpt lat="42.909241039305925" lon="-8.001354960724711">
        <ele>409.19999999999999</ele>
        <time>2018-05-20T08:34:45Z</time>
      </trkpt>
      <trkpt lat="42.909241039305925" lon="-8.001302992925048">
        <ele>409.19999999999999</ele>
        <time>2018-05-20T08:34:46Z</time>
      </trkpt>
      <trkpt lat="42.909241039305925" lon="-8.001251025125384">
        <ele>409.19999999999999</ele>
        <time>2018-05-20T08:34:47Z</time>
      </trkpt>
      <trkpt lat="42.909241039305925" lon="-8.001194028183818">
        <ele>409.10000000000002</ele>
        <time>2018-05-20T08:34:49Z</time>
      </trkpt>
      <trkpt lat="42.909236010164022" lon="-8.001139964908361">
        <ele>409</ele>
        <time>2018-05-20T08:34:50Z</time>
      </trkpt>
      <trkpt lat="42.909236010164022" lon="-8.001089002937079">
        <ele>408.89999999999998</ele>
        <time>2018-05-20T08:34:51Z</time>
      </trkpt>
      <trkpt lat="42.909236010164022" lon="-8.001001998782158">
        <ele>408.69999999999999</ele>
        <time>2018-05-20T08:34:53Z</time>
      </trkpt>
      <trkpt lat="42.909236010164022" lon="-8.000945001840591">
        <ele>408.60000000000002</ele>
        <time>2018-05-20T08:34:54Z</time>
      </trkpt>
      <trkpt lat="42.909236010164022" lon="-8.000886999070644">
        <ele>408.5</ele>
        <time>2018-05-20T08:34:55Z</time>
      </trkpt>
      <trkpt lat="42.909236010164022" lon="-8.000697987154126">
        <ele>408.10000000000002</ele>
        <time>2018-05-20T08:34:59Z</time>
      </trkpt>
      <trkpt lat="42.909236010164022" lon="-8.000646019354463">
        <ele>408</ele>
        <time>2018-05-20T08:35:01Z</time>
      </trkpt>
      <trkpt lat="42.909236010164022" lon="-8.000553986057639">
        <ele>407.80000000000001</ele>
        <time>2018-05-20T08:35:03Z</time>
      </trkpt>
      <trkpt lat="42.909236010164022" lon="-8.000491037964821">
        <ele>407.69999999999999</ele>
        <time>2018-05-20T08:35:04Z</time>
      </trkpt>
      <trkpt lat="42.909236010164022" lon="-8.000421971082687">
        <ele>407.60000000000002</ele>
        <time>2018-05-20T08:35:05Z</time>
      </trkpt>
      <trkpt lat="42.909236010164022" lon="-8.000352988019586">
        <ele>407.60000000000002</ele>
        <time>2018-05-20T08:35:07Z</time>
      </trkpt>
      <trkpt lat="42.909236010164022" lon="-8.000295991078019">
        <ele>407.60000000000002</ele>
        <time>2018-05-20T08:35:08Z</time>
      </trkpt>
      <trkpt lat="42.909236010164022" lon="-8.000244023278356">
        <ele>407.60000000000002</ele>
        <time>2018-05-20T08:35:09Z</time>
      </trkpt>
      <trkpt lat="42.909236010164022" lon="-8.00019197165966">
        <ele>407.60000000000002</ele>
        <time>2018-05-20T08:35:10Z</time>
      </trkpt>
      <trkpt lat="42.909236010164022" lon="-8.000129023566842">
        <ele>407.60000000000002</ele>
        <time>2018-05-20T08:35:12Z</time>
      </trkpt>
      <trkpt lat="42.909236010164022" lon="-8.000077977776527">
        <ele>407.60000000000002</ele>
        <time>2018-05-20T08:35:13Z</time>
      </trkpt>
      <trkpt lat="42.909236010164022" lon="-8.000002959743142">
        <ele>407.60000000000002</ele>
        <time>2018-05-20T08:35:14Z</time>
      </trkpt>
      <trkpt lat="42.909236010164022" lon="-7.999928025528789">
        <ele>407.60000000000002</ele>
        <time>2018-05-20T08:35:16Z</time>
      </trkpt>
      <trkpt lat="42.909236010164022" lon="-7.999864993616939">
        <ele>407.60000000000002</ele>
        <time>2018-05-20T08:35:17Z</time>
      </trkpt>
      <trkpt lat="42.909236010164022" lon="-7.999813025817275">
        <ele>407.60000000000002</ele>
        <time>2018-05-20T08:35:19Z</time>
      </trkpt>
      <trkpt lat="42.909236010164022" lon="-7.999747982248664">
        <ele>407.60000000000002</ele>
        <time>2018-05-20T08:35:20Z</time>
      </trkpt>
      <trkpt lat="42.909198040142655" lon="-7.999656032770872">
        <ele>407.5</ele>
        <time>2018-05-20T08:35:22Z</time>
      </trkpt>
      <trkpt lat="42.909183958545327" lon="-7.999627031385899">
        <ele>407.5</ele>
        <time>2018-05-20T08:35:23Z</time>
      </trkpt>
      <trkpt lat="42.90916501544416" lon="-7.999575985595584">
        <ele>407.5</ele>
        <time>2018-05-20T08:35:24Z</time>
      </trkpt>
      <trkpt lat="42.90914598852396" lon="-7.999517982825637">
        <ele>407.60000000000002</ele>
        <time>2018-05-20T08:35:26Z</time>
      </trkpt>
      <trkpt lat="42.90912201628089" lon="-7.999458974227309">
        <ele>407.69999999999999</ele>
        <time>2018-05-20T08:35:27Z</time>
      </trkpt>
      <trkpt lat="42.909111035987735" lon="-7.999418992549181">
        <ele>407.80000000000001</ele>
        <time>2018-05-20T08:35:28Z</time>
      </trkpt>
      <trkpt lat="42.909086979925632" lon="-7.999360989779234">
        <ele>407.89999999999998</ele>
        <time>2018-05-20T08:35:29Z</time>
      </trkpt>
      <trkpt lat="42.90905898436904" lon="-7.999298041686416">
        <ele>408.10000000000002</ele>
        <time>2018-05-20T08:35:31Z</time>
      </trkpt>
      <trkpt lat="42.909026965498924" lon="-7.999274991452694">
        <ele>408.10000000000002</ele>
        <time>2018-05-20T08:35:32Z</time>
      </trkpt>
      <trkpt lat="42.908980026841164" lon="-7.999240960925818">
        <ele>408.10000000000002</ele>
        <time>2018-05-20T08:35:34Z</time>
      </trkpt>
      <trkpt lat="42.908945996314287" lon="-7.999211959540844">
        <ele>408.10000000000002</ele>
        <time>2018-05-20T08:35:35Z</time>
      </trkpt>
      <trkpt lat="42.908922024071217" lon="-7.999154040589929">
        <ele>408.19999999999999</ele>
        <time>2018-05-20T08:35:36Z</time>
      </trkpt>
      <trkpt lat="42.908896040171385" lon="-7.999091008678079">
        <ele>408.39999999999998</ele>
        <time>2018-05-20T08:35:38Z</time>
      </trkpt>
      <trkpt lat="42.908871984109282" lon="-7.999015990644693">
        <ele>408.5</ele>
        <time>2018-05-20T08:35:40Z</time>
      </trkpt>
      <trkpt lat="42.908849017694592" lon="-7.998947007581592">
        <ele>408.60000000000002</ele>
        <time>2018-05-20T08:35:41Z</time>
      </trkpt>
      <trkpt lat="42.908830996602774" lon="-7.998895961791277">
        <ele>408.69999999999999</ele>
        <time>2018-05-20T08:35:43Z</time>
      </trkpt>
      <trkpt lat="42.908811969682574" lon="-7.998850028961897">
        <ele>408.80000000000001</ele>
        <time>2018-05-20T08:35:44Z</time>
      </trkpt>
      <trkpt lat="42.90877802297473" lon="-7.998777022585273">
        <ele>409</ele>
        <time>2018-05-20T08:35:46Z</time>
      </trkpt>
      <trkpt lat="42.9086500313133" lon="-7.998724970966578">
        <ele>411.10000000000002</ele>
        <time>2018-05-20T08:35:50Z</time>
      </trkpt>
      <trkpt lat="42.908484991639853" lon="-7.998753972351551">
        <ele>414.39999999999998</ele>
        <time>2018-05-20T08:35:55Z</time>
      </trkpt>
      <trkpt lat="42.90848096832633" lon="-7.998753972351551">
        <ele>414.5</ele>
        <time>2018-05-20T08:35:55Z</time>
      </trkpt>
      <trkpt lat="42.908359011635184" lon="-7.998765036463738">
        <ele>416.89999999999998</ele>
        <time>2018-05-20T08:35:58Z</time>
      </trkpt>
      <trkpt lat="42.908340990543365" lon="-7.998772999271751">
        <ele>417.19999999999999</ele>
        <time>2018-05-20T08:35:59Z</time>
      </trkpt>
      <trkpt lat="42.908216016367078" lon="-7.998755984008312">
        <ele>419.80000000000001</ele>
        <time>2018-05-20T08:36:03Z</time>
      </trkpt>
      <trkpt lat="42.908209981396794" lon="-7.998755984008312">
        <ele>420</ele>
        <time>2018-05-20T08:36:03Z</time>
      </trkpt>
      <trkpt lat="42.908188020810485" lon="-7.998651964589953">
        <ele>420.89999999999998</ele>
        <time>2018-05-20T08:36:05Z</time>
      </trkpt>
      <trkpt lat="42.908188020810485" lon="-7.998618017882109">
        <ele>421.10000000000002</ele>
        <time>2018-05-20T08:36:06Z</time>
      </trkpt>
      <trkpt lat="42.908188020810485" lon="-7.998565966263413">
        <ele>421.39999999999998</ele>
        <time>2018-05-20T08:36:07Z</time>
      </trkpt>
      <trkpt lat="42.908188020810485" lon="-7.998515004292131">
        <ele>421.60000000000002</ele>
        <time>2018-05-20T08:36:08Z</time>
      </trkpt>
      <trkpt lat="42.908188020810485" lon="-7.998457001522183">
        <ele>421.89999999999998</ele>
        <time>2018-05-20T08:36:10Z</time>
      </trkpt>
      <trkpt lat="42.908188020810485" lon="-7.99840503372252">
        <ele>422.10000000000002</ele>
        <time>2018-05-20T08:36:11Z</time>
      </trkpt>
      <trkpt lat="42.908188020810485" lon="-7.998348036780953">
        <ele>422.39999999999998</ele>
        <time>2018-05-20T08:36:12Z</time>
      </trkpt>
      <trkpt lat="42.908188020810485" lon="-7.998285004869103">
        <ele>422.69999999999999</ele>
        <time>2018-05-20T08:36:13Z</time>
      </trkpt>
      <trkpt lat="42.908188020810485" lon="-7.998221972957254">
        <ele>423</ele>
        <time>2018-05-20T08:36:15Z</time>
      </trkpt>
      <trkpt lat="42.908188020810485" lon="-7.9981470387429">
        <ele>423.39999999999998</ele>
        <time>2018-05-20T08:36:16Z</time>
      </trkpt>
      <trkpt lat="42.908182991668582" lon="-7.99806104041636">
        <ele>423.89999999999998</ele>
        <time>2018-05-20T08:36:18Z</time>
      </trkpt>
      <trkpt lat="42.908160025253892" lon="-7.99799800850451">
        <ele>424.89999999999998</ele>
        <time>2018-05-20T08:36:20Z</time>
      </trkpt>
      <trkpt lat="42.90813697502017" lon="-7.997940005734563">
        <ele>425.80000000000001</ele>
        <time>2018-05-20T08:36:21Z</time>
      </trkpt>
      <trkpt lat="42.9081130027771" lon="-7.997893989086151">
        <ele>426.69999999999999</ele>
        <time>2018-05-20T08:36:22Z</time>
      </trkpt>
      <trkpt lat="42.90807100944221" lon="-7.997807990759611">
        <ele>428.10000000000002</ele>
        <time>2018-05-20T08:36:25Z</time>
      </trkpt>
      <trkpt lat="42.908044019713998" lon="-7.997761974111199">
        <ele>429</ele>
        <time>2018-05-20T08:36:26Z</time>
      </trkpt>
      <trkpt lat="42.908019963651896" lon="-7.997728027403355">
        <ele>429.80000000000001</ele>
        <time>2018-05-20T08:36:27Z</time>
      </trkpt>
      <trkpt lat="42.907991968095303" lon="-7.997687961906195">
        <ele>430.69999999999999</ele>
        <time>2018-05-20T08:36:28Z</time>
      </trkpt>
      <trkpt lat="42.907974030822515" lon="-7.997646974399686">
        <ele>431.39999999999998</ele>
        <time>2018-05-20T08:36:29Z</time>
      </trkpt>
      <trkpt lat="42.907938994467258" lon="-7.997604981064796">
        <ele>432.5</ele>
        <time>2018-05-20T08:36:31Z</time>
      </trkpt>
      <trkpt lat="42.907910998910666" lon="-7.997553013265133">
        <ele>433.39999999999998</ele>
        <time>2018-05-20T08:36:32Z</time>
      </trkpt>
      <trkpt lat="42.90787898004055" lon="-7.997518982738257">
        <ele>433.89999999999998</ele>
        <time>2018-05-20T08:36:33Z</time>
      </trkpt>
      <trkpt lat="42.907846039161086" lon="-7.997472966089845">
        <ele>434.5</ele>
        <time>2018-05-20T08:36:35Z</time>
      </trkpt>
      <trkpt lat="42.907806979492307" lon="-7.997425021603704">
        <ele>435.10000000000002</ele>
        <time>2018-05-20T08:36:36Z</time>
      </trkpt>
      <trkpt lat="42.907784013077617" lon="-7.997390991076827">
        <ele>435.5</ele>
        <time>2018-05-20T08:36:37Z</time>
      </trkpt>
      <trkpt lat="42.907745959237218" lon="-7.997344974428415">
        <ele>436.10000000000002</ele>
        <time>2018-05-20T08:36:39Z</time>
      </trkpt>
      <trkpt lat="42.907714024186134" lon="-7.997299041599035">
        <ele>436.60000000000002</ele>
        <time>2018-05-20T08:36:40Z</time>
      </trkpt>
      <trkpt lat="42.907680999487638" lon="-7.997253024950624">
        <ele>437.10000000000002</ele>
        <time>2018-05-20T08:36:42Z</time>
      </trkpt>
      <trkpt lat="42.907634982839227" lon="-7.997207008302212">
        <ele>437.69999999999999</ele>
        <time>2018-05-20T08:36:43Z</time>
      </trkpt>
      <trkpt lat="42.907601958140731" lon="-7.997167026624084">
        <ele>438.19999999999999</ele>
        <time>2018-05-20T08:36:45Z</time>
      </trkpt>
      <trkpt lat="42.907559964805841" lon="-7.99713802523911">
        <ele>438.69999999999999</ele>
        <time>2018-05-20T08:36:46Z</time>
      </trkpt>
      <trkpt lat="42.907475978136063" lon="-7.997092008590698">
        <ele>439.69999999999999</ele>
        <time>2018-05-20T08:36:49Z</time>
      </trkpt>
      <trkpt lat="42.907433984801173" lon="-7.997068958356977">
        <ele>440.10000000000002</ele>
        <time>2018-05-20T08:36:50Z</time>
      </trkpt>
      <trkpt lat="42.907397020608187" lon="-7.99705202691257">
        <ele>440.39999999999998</ele>
        <time>2018-05-20T08:36:51Z</time>
      </trkpt>
      <trkpt lat="42.907358966767788" lon="-7.997028976678848">
        <ele>440.60000000000002</ele>
        <time>2018-05-20T08:36:52Z</time>
      </trkpt>
      <trkpt lat="42.907322002574801" lon="-7.997016990557313">
        <ele>440.89999999999998</ele>
        <time>2018-05-20T08:36:54Z</time>
      </trkpt>
      <trkpt lat="42.907285038381815" lon="-7.997006010264158">
        <ele>441.19999999999999</ele>
        <time>2018-05-20T08:36:55Z</time>
      </trkpt>
      <trkpt lat="42.907238015905023" lon="-7.996982960030437">
        <ele>441.60000000000002</ele>
        <time>2018-05-20T08:36:56Z</time>
      </trkpt>
      <trkpt lat="42.907196022570133" lon="-7.996959993615747">
        <ele>441.89999999999998</ele>
        <time>2018-05-20T08:36:57Z</time>
      </trkpt>
      <trkpt lat="42.907150005921721" lon="-7.996930992230773">
        <ele>442.30000000000001</ele>
        <time>2018-05-20T08:36:59Z</time>
      </trkpt>
      <trkpt lat="42.907102983444929" lon="-7.996908025816083">
        <ele>442.69999999999999</ele>
        <time>2018-05-20T08:37:00Z</time>
      </trkpt>
      <trkpt lat="42.907066019251943" lon="-7.996873995289207">
        <ele>442.89999999999998</ele>
        <time>2018-05-20T08:37:02Z</time>
      </trkpt>
      <trkpt lat="42.907024025917053" lon="-7.996851028874517">
        <ele>443.10000000000002</ele>
        <time>2018-05-20T08:37:03Z</time>
      </trkpt>
      <trkpt lat="42.906991001218557" lon="-7.996822027489543">
        <ele>443.19999999999999</ele>
        <time>2018-05-20T08:37:04Z</time>
      </trkpt>
      <trkpt lat="42.906940039247274" lon="-7.996805012226105">
        <ele>443.5</ele>
        <time>2018-05-20T08:37:06Z</time>
      </trkpt>
      <trkpt lat="42.906893016770482" lon="-7.996781961992383">
        <ele>443.80000000000001</ele>
        <time>2018-05-20T08:37:07Z</time>
      </trkpt>
      <trkpt lat="42.906851023435593" lon="-7.996765030547977">
        <ele>444.10000000000002</ele>
        <time>2018-05-20T08:37:09Z</time>
      </trkpt>
      <trkpt lat="42.906809030100703" lon="-7.996758995577693">
        <ele>444.39999999999998</ele>
        <time>2018-05-20T08:37:10Z</time>
      </trkpt>
      <trkpt lat="42.906771982088685" lon="-7.996747009456158">
        <ele>444.69999999999999</ele>
        <time>2018-05-20T08:37:11Z</time>
      </trkpt>
      <trkpt lat="42.906729988753796" lon="-7.996747009456158">
        <ele>445</ele>
        <time>2018-05-20T08:37:12Z</time>
      </trkpt>
      <trkpt lat="42.906687995418906" lon="-7.996741980314255">
        <ele>445.39999999999998</ele>
        <time>2018-05-20T08:37:13Z</time>
      </trkpt>
      <trkpt lat="42.90665103122592" lon="-7.996723959222436">
        <ele>445.60000000000002</ele>
        <time>2018-05-20T08:37:15Z</time>
      </trkpt>
      <trkpt lat="42.90660903789103" lon="-7.996719013899565">
        <ele>446</ele>
        <time>2018-05-20T08:37:16Z</time>
      </trkpt>
      <trkpt lat="42.906562015414238" lon="-7.996700992807746">
        <ele>446.30000000000001</ele>
        <time>2018-05-20T08:37:17Z</time>
      </trkpt>
      <trkpt lat="42.90652496740222" lon="-7.996683977544308">
        <ele>446.60000000000002</ele>
        <time>2018-05-20T08:37:18Z</time>
      </trkpt>
      <trkpt lat="42.906486997380853" lon="-7.99666696228087">
        <ele>446.89999999999998</ele>
        <time>2018-05-20T08:37:20Z</time>
      </trkpt>
      <trkpt lat="42.906450033187866" lon="-7.99664399586618">
        <ele>447.10000000000002</ele>
        <time>2018-05-20T08:37:21Z</time>
      </trkpt>
      <trkpt lat="42.906412985175848" lon="-7.996626980602741">
        <ele>447.39999999999998</ele>
        <time>2018-05-20T08:37:22Z</time>
      </trkpt>
      <trkpt lat="42.906376020982862" lon="-7.996609965339303">
        <ele>447.69999999999999</ele>
        <time>2018-05-20T08:37:23Z</time>
      </trkpt>
      <trkpt lat="42.906337967142463" lon="-7.996597979217768">
        <ele>448</ele>
        <time>2018-05-20T08:37:24Z</time>
      </trkpt>
      <trkpt lat="42.906301002949476" lon="-7.996564032509923">
        <ele>448.30000000000001</ele>
        <time>2018-05-20T08:37:26Z</time>
      </trkpt>
      <trkpt lat="42.90626403875649" lon="-7.996540982276201">
        <ele>448.60000000000002</ele>
        <time>2018-05-20T08:37:27Z</time>
      </trkpt>
      <trkpt lat="42.906217016279697" lon="-7.996511980891228">
        <ele>448.89999999999998</ele>
        <time>2018-05-20T08:37:28Z</time>
      </trkpt>
      <trkpt lat="42.906175022944808" lon="-7.996482979506254">
        <ele>449.19999999999999</ele>
        <time>2018-05-20T08:37:30Z</time>
      </trkpt>
      <trkpt lat="42.906133029609919" lon="-7.996460013091564">
        <ele>449.5</ele>
        <time>2018-05-20T08:37:31Z</time>
      </trkpt>
      <trkpt lat="42.906091036275029" lon="-7.996442997828126">
        <ele>449.80000000000001</ele>
        <time>2018-05-20T08:37:32Z</time>
      </trkpt>
      <trkpt lat="42.906044013798237" lon="-7.996420031413436">
        <ele>450.10000000000002</ele>
        <time>2018-05-20T08:37:34Z</time>
      </trkpt>
      <trkpt lat="42.906006965786219" lon="-7.99640896730125">
        <ele>450.39999999999998</ele>
        <time>2018-05-20T08:37:35Z</time>
      </trkpt>
      <trkpt lat="42.905964972451329" lon="-7.99638600088656">
        <ele>450.69999999999999</ele>
        <time>2018-05-20T08:37:36Z</time>
      </trkpt>
      <trkpt lat="42.90592297911644" lon="-7.99636303447187">
        <ele>451</ele>
        <time>2018-05-20T08:37:38Z</time>
      </trkpt>
      <trkpt lat="42.90588098578155" lon="-7.996356999501586">
        <ele>451.39999999999998</ele>
        <time>2018-05-20T08:37:39Z</time>
      </trkpt>
      <trkpt lat="42.905841004103422" lon="-7.996345013380051">
        <ele>451.69999999999999</ele>
        <time>2018-05-20T08:37:40Z</time>
      </trkpt>
      <trkpt lat="42.905668001621962" lon="-7.996188020333648">
        <ele>452.5</ele>
        <time>2018-05-20T08:37:46Z</time>
      </trkpt>
      <trkpt lat="42.905386034399271" lon="-7.995974030345678">
        <ele>453.69999999999999</ele>
        <time>2018-05-20T08:37:56Z</time>
      </trkpt>
      <trkpt lat="42.905153017491102" lon="-7.995747970417142">
        <ele>455</ele>
        <time>2018-05-20T08:38:04Z</time>
      </trkpt>
      <trkpt lat="42.90482796728611" lon="-7.995444964617491">
        <ele>456.60000000000002</ele>
        <time>2018-05-20T08:38:16Z</time>
      </trkpt>
      <trkpt lat="42.904489003121853" lon="-7.995081022381783">
        <ele>456.10000000000002</ele>
        <time>2018-05-20T08:38:29Z</time>
      </trkpt>
      <trkpt lat="42.904285993427038" lon="-7.994796959683299">
        <ele>454.30000000000001</ele>
        <time>2018-05-20T08:38:37Z</time>
      </trkpt>
      <trkpt lat="42.904192032292485" lon="-7.994641978293657">
        <ele>453.39999999999998</ele>
        <time>2018-05-20T08:38:42Z</time>
      </trkpt>
      <trkpt lat="42.904192032292485" lon="-7.994630998000503">
        <ele>453.30000000000001</ele>
        <time>2018-05-20T08:38:42Z</time>
      </trkpt>
      <trkpt lat="42.904178034514189" lon="-7.994562014937401">
        <ele>452.89999999999998</ele>
        <time>2018-05-20T08:38:44Z</time>
      </trkpt>
      <trkpt lat="42.904164036735892" lon="-7.994509963318706">
        <ele>452.89999999999998</ele>
        <time>2018-05-20T08:38:45Z</time>
      </trkpt>
      <trkpt lat="42.904150038957596" lon="-7.994447015225887">
        <ele>452.80000000000001</ele>
        <time>2018-05-20T08:38:46Z</time>
      </trkpt>
      <trkpt lat="42.904136041179299" lon="-7.994371997192502">
        <ele>452.80000000000001</ele>
        <time>2018-05-20T08:38:48Z</time>
      </trkpt>
      <trkpt lat="42.904125982895494" lon="-7.994321035221219">
        <ele>452.80000000000001</ele>
        <time>2018-05-20T08:38:49Z</time>
      </trkpt>
      <trkpt lat="42.904097987338901" lon="-7.994263032451272">
        <ele>452.80000000000001</ele>
        <time>2018-05-20T08:38:51Z</time>
      </trkpt>
      <trkpt lat="42.904075020924211" lon="-7.994189020246267">
        <ele>452.89999999999998</ele>
        <time>2018-05-20T08:38:52Z</time>
      </trkpt>
      <trkpt lat="42.904055994004011" lon="-7.994129005819559">
        <ele>452.89999999999998</ele>
        <time>2018-05-20T08:38:54Z</time>
      </trkpt>
      <trkpt lat="42.904033027589321" lon="-7.994072008877993">
        <ele>453</ele>
        <time>2018-05-20T08:38:55Z</time>
      </trkpt>
      <trkpt lat="42.904009977355599" lon="-7.994025992229581">
        <ele>453.10000000000002</ele>
        <time>2018-05-20T08:38:56Z</time>
      </trkpt>
      <trkpt lat="42.903991034254432" lon="-7.993957009166479">
        <ele>453.19999999999999</ele>
        <time>2018-05-20T08:38:58Z</time>
      </trkpt>
      <trkpt lat="42.903972007334232" lon="-7.993910992518067">
        <ele>453.30000000000001</ele>
        <time>2018-05-20T08:38:59Z</time>
      </trkpt>
      <trkpt lat="42.903953986242414" lon="-7.993859024718404">
        <ele>453.39999999999998</ele>
        <time>2018-05-20T08:39:00Z</time>
      </trkpt>
      <trkpt lat="42.903944011777639" lon="-7.993804961442947">
        <ele>453.39999999999998</ele>
        <time>2018-05-20T08:39:02Z</time>
      </trkpt>
      <trkpt lat="42.903934959322214" lon="-7.993714017793536">
        <ele>453.19999999999999</ele>
        <time>2018-05-20T08:39:03Z</time>
      </trkpt>
      <trkpt lat="42.903930013999343" lon="-7.993668001145124">
        <ele>452.80000000000001</ele>
        <time>2018-05-20T08:39:05Z</time>
      </trkpt>
      <trkpt lat="42.90390201844275" lon="-7.993599018082023">
        <ele>452.5</ele>
        <time>2018-05-20T08:39:06Z</time>
      </trkpt>
      <trkpt lat="42.903861030936241" lon="-7.993517965078354">
        <ele>452.19999999999999</ele>
        <time>2018-05-20T08:39:08Z</time>
      </trkpt>
      <trkpt lat="42.9038389865309" lon="-7.993475971743465">
        <ele>452</ele>
        <time>2018-05-20T08:39:09Z</time>
      </trkpt>
      <trkpt lat="42.903824988752604" lon="-7.993418974801898">
        <ele>451.69999999999999</ele>
        <time>2018-05-20T08:39:11Z</time>
      </trkpt>
      <trkpt lat="42.903796993196011" lon="-7.993344040587544">
        <ele>451.30000000000001</ele>
        <time>2018-05-20T08:39:13Z</time>
      </trkpt>
      <trkpt lat="42.903768997639418" lon="-7.993298023939133">
        <ele>451.10000000000002</ele>
        <time>2018-05-20T08:39:14Z</time>
      </trkpt>
      <trkpt lat="42.903745025396347" lon="-7.993234992027283">
        <ele>450.60000000000002</ele>
        <time>2018-05-20T08:39:15Z</time>
      </trkpt>
      <trkpt lat="42.903716024011374" lon="-7.993172965943813">
        <ele>450</ele>
        <time>2018-05-20T08:39:17Z</time>
      </trkpt>
      <trkpt lat="42.903691967949271" lon="-7.993127033114433">
        <ele>449.39999999999998</ele>
        <time>2018-05-20T08:39:18Z</time>
      </trkpt>
      <trkpt lat="42.903674030676484" lon="-7.993082022294402">
        <ele>449</ele>
        <time>2018-05-20T08:39:19Z</time>
      </trkpt>
      <trkpt lat="42.90364402346313" lon="-7.993013961240649">
        <ele>448.30000000000001</ele>
        <time>2018-05-20T08:39:21Z</time>
      </trkpt>
      <trkpt lat="42.903624996542931" lon="-7.992962999269366">
        <ele>447.80000000000001</ele>
        <time>2018-05-20T08:39:22Z</time>
      </trkpt>
      <trkpt lat="42.903590966016054" lon="-7.992916982620955">
        <ele>447.19999999999999</ele>
        <time>2018-05-20T08:39:24Z</time>
      </trkpt>
      <trkpt lat="42.903478983789682" lon="-7.992728976532817">
        <ele>445.30000000000001</ele>
        <time>2018-05-20T08:39:29Z</time>
      </trkpt>
      <trkpt lat="42.903333976864815" lon="-7.992478022351861">
        <ele>443.10000000000002</ele>
        <time>2018-05-20T08:39:36Z</time>
      </trkpt>
      <trkpt lat="42.903241021558642" lon="-7.992299990728498">
        <ele>441.69999999999999</ele>
        <time>2018-05-20T08:39:41Z</time>
      </trkpt>
      <trkpt lat="42.903226017951965" lon="-7.992280963808298">
        <ele>441.60000000000002</ele>
        <time>2018-05-20T08:39:41Z</time>
      </trkpt>
      <trkpt lat="42.903067013248801" lon="-7.992012994363904">
        <ele>440.19999999999999</ele>
        <time>2018-05-20T08:39:49Z</time>
      </trkpt>
      <trkpt lat="42.902971962466836" lon="-7.991791963577271">
        <ele>440</ele>
        <time>2018-05-20T08:39:54Z</time>
      </trkpt>
      <trkpt lat="42.902836007997394" lon="-7.991463979706168">
        <ele>439.80000000000001</ele>
        <time>2018-05-20T08:40:03Z</time>
      </trkpt>
      <trkpt lat="42.902831984683871" lon="-7.991452999413014">
        <ele>439.80000000000001</ele>
        <time>2018-05-20T08:40:03Z</time>
      </trkpt>
      <trkpt lat="42.902808012440801" lon="-7.991406982764602">
        <ele>439.69999999999999</ele>
        <time>2018-05-20T08:40:04Z</time>
      </trkpt>
      <trkpt lat="42.902789991348982" lon="-7.99136096611619">
        <ele>439.69999999999999</ele>
        <time>2018-05-20T08:40:05Z</time>
      </trkpt>
      <trkpt lat="42.902761995792389" lon="-7.991298018023372">
        <ele>439.60000000000002</ele>
        <time>2018-05-20T08:40:07Z</time>
      </trkpt>
      <trkpt lat="42.902745986357331" lon="-7.991244038566947">
        <ele>439.60000000000002</ele>
        <time>2018-05-20T08:40:08Z</time>
      </trkpt>
      <trkpt lat="42.902737017720938" lon="-7.991181006655097">
        <ele>439.60000000000002</ele>
        <time>2018-05-20T08:40:09Z</time>
      </trkpt>
      <trkpt lat="42.902737017720938" lon="-7.991112023591995">
        <ele>439.60000000000002</ele>
        <time>2018-05-20T08:40:11Z</time>
      </trkpt>
      <trkpt lat="42.902737017720938" lon="-7.991057960316539">
        <ele>439.60000000000002</ele>
        <time>2018-05-20T08:40:12Z</time>
      </trkpt>
      <trkpt lat="42.902751015499234" lon="-7.991017978638411">
        <ele>439.69999999999999</ele>
        <time>2018-05-20T08:40:13Z</time>
      </trkpt>
      <trkpt lat="42.902773981913924" lon="-7.990971961989999">
        <ele>439.69999999999999</ele>
        <time>2018-05-20T08:40:14Z</time>
      </trkpt>
      <trkpt lat="42.902779011055827" lon="-7.990917982533574">
        <ele>439.69999999999999</ele>
        <time>2018-05-20T08:40:15Z</time>
      </trkpt>
      <trkpt lat="42.902779011055827" lon="-7.99086500890553">
        <ele>439.69999999999999</ele>
        <time>2018-05-20T08:40:17Z</time>
      </trkpt>
      <trkpt lat="42.902779011055827" lon="-7.99080197699368">
        <ele>439.80000000000001</ele>
        <time>2018-05-20T08:40:18Z</time>
      </trkpt>
      <trkpt lat="42.902779011055827" lon="-7.990741962566972">
        <ele>439.80000000000001</ele>
        <time>2018-05-20T08:40:19Z</time>
      </trkpt>
      <trkpt lat="42.902769036591053" lon="-7.990696029737592">
        <ele>439.80000000000001</ele>
        <time>2018-05-20T08:40:20Z</time>
      </trkpt>
      <trkpt lat="42.902765013277531" lon="-7.990632997825742">
        <ele>439.80000000000001</ele>
        <time>2018-05-20T08:40:22Z</time>
      </trkpt>
      <trkpt lat="42.902751015499234" lon="-7.990579018369317">
        <ele>439.80000000000001</ele>
        <time>2018-05-20T08:40:23Z</time>
      </trkpt>
      <trkpt lat="42.902737017720938" lon="-7.990524033084512">
        <ele>439.80000000000001</ele>
        <time>2018-05-20T08:40:24Z</time>
      </trkpt>
      <trkpt lat="42.902731988579035" lon="-7.990459995344281">
        <ele>439.80000000000001</ele>
        <time>2018-05-20T08:40:26Z</time>
      </trkpt>
      <trkpt lat="42.902713967487216" lon="-7.990402998402715">
        <ele>439.80000000000001</ele>
        <time>2018-05-20T08:40:27Z</time>
      </trkpt>
      <trkpt lat="42.902703993022442" lon="-7.990347007289529">
        <ele>439.89999999999998</ele>
        <time>2018-05-20T08:40:28Z</time>
      </trkpt>
      <trkpt lat="42.902681026607752" lon="-7.990283975377679">
        <ele>440.10000000000002</ele>
        <time>2018-05-20T08:40:30Z</time>
      </trkpt>
      <trkpt lat="42.902660993859172" lon="-7.990237958729267">
        <ele>440.19999999999999</ele>
        <time>2018-05-20T08:40:31Z</time>
      </trkpt>
      <trkpt lat="42.902554040774703" lon="-7.990016005933285">
        <ele>440.69999999999999</ele>
        <time>2018-05-20T08:40:37Z</time>
      </trkpt>
      <trkpt lat="42.90239604189992" lon="-7.989734960719943">
        <ele>441.5</ele>
        <time>2018-05-20T08:40:44Z</time>
      </trkpt>
      <trkpt lat="42.902236031368375" lon="-7.98940303735435">
        <ele>442.80000000000001</ele>
        <time>2018-05-20T08:40:53Z</time>
      </trkpt>
      <trkpt lat="42.902069985866547" lon="-7.989112017676234">
        <ele>444.30000000000001</ele>
        <time>2018-05-20T08:41:01Z</time>
      </trkpt>
      <trkpt lat="42.901874016970396" lon="-7.988670961931348">
        <ele>446.19999999999999</ele>
        <time>2018-05-20T08:41:12Z</time>
      </trkpt>
      <trkpt lat="42.901637982577085" lon="-7.988213980570436">
        <ele>447.69999999999999</ele>
        <time>2018-05-20T08:41:24Z</time>
      </trkpt>
      <trkpt lat="42.901357021182775" lon="-7.987740989774466">
        <ele>449.89999999999998</ele>
        <time>2018-05-20T08:41:37Z</time>
      </trkpt>
      <trkpt lat="42.901357021182775" lon="-7.987735960632563">
        <ele>449.89999999999998</ele>
        <time>2018-05-20T08:41:38Z</time>
      </trkpt>
      <trkpt lat="42.901200028136373" lon="-7.987414011731744">
        <ele>450.5</ele>
        <time>2018-05-20T08:41:46Z</time>
      </trkpt>
      <trkpt lat="42.901010010391474" lon="-7.987029030919075">
        <ele>450.5</ele>
        <time>2018-05-20T08:41:56Z</time>
      </trkpt>
      <trkpt lat="42.900752015411854" lon="-7.986581018194556">
        <ele>450.39999999999998</ele>
        <time>2018-05-20T08:42:08Z</time>
      </trkpt>
      <trkpt lat="42.900643972679973" lon="-7.986382031813264">
        <ele>450.39999999999998</ele>
        <time>2018-05-20T08:42:14Z</time>
      </trkpt>
      <trkpt lat="42.900629974901676" lon="-7.986364010721445">
        <ele>450.39999999999998</ele>
        <time>2018-05-20T08:42:14Z</time>
      </trkpt>
      <trkpt lat="42.900598039850593" lon="-7.986324029043317">
        <ele>450.30000000000001</ele>
        <time>2018-05-20T08:42:16Z</time>
      </trkpt>
      <trkpt lat="42.900559986010194" lon="-7.98626703210175">
        <ele>450.30000000000001</ele>
        <time>2018-05-20T08:42:17Z</time>
      </trkpt>
      <trkpt lat="42.900516986846924" lon="-7.986229984089732">
        <ele>450.19999999999999</ele>
        <time>2018-05-20T08:42:19Z</time>
      </trkpt>
      <trkpt lat="42.900488991290331" lon="-7.986196037381887">
        <ele>450.19999999999999</ele>
        <time>2018-05-20T08:42:20Z</time>
      </trkpt>
      <trkpt lat="42.900452027097344" lon="-7.98616100102663">
        <ele>450.10000000000002</ele>
        <time>2018-05-20T08:42:21Z</time>
      </trkpt>
      <trkpt lat="42.900420008227229" lon="-7.986123031005263">
        <ele>450</ele>
        <time>2018-05-20T08:42:23Z</time>
      </trkpt>
      <trkpt lat="42.900373991578817" lon="-7.986083971336484">
        <ele>449.80000000000001</ele>
        <time>2018-05-20T08:42:24Z</time>
      </trkpt>
      <trkpt lat="42.900252034887671" lon="-7.985926978290081">
        <ele>449.39999999999998</ele>
        <time>2018-05-20T08:42:29Z</time>
      </trkpt>
      <trkpt lat="42.900127982720733" lon="-7.985676024109125">
        <ele>449</ele>
        <time>2018-05-20T08:42:36Z</time>
      </trkpt>
      <trkpt lat="42.899960009381175" lon="-7.985333036631346">
        <ele>448.5</ele>
        <time>2018-05-20T08:42:45Z</time>
      </trkpt>
      <trkpt lat="42.899770997464657" lon="-7.985017038881779">
        <ele>448.19999999999999</ele>
        <time>2018-05-20T08:42:53Z</time>
      </trkpt>
      <trkpt lat="42.899567987769842" lon="-7.984638009220362">
        <ele>447.89999999999998</ele>
        <time>2018-05-20T08:43:04Z</time>
      </trkpt>
      <trkpt lat="42.899378975853324" lon="-7.984278006479144">
        <ele>447.5</ele>
        <time>2018-05-20T08:43:13Z</time>
      </trkpt>
      <trkpt lat="42.899195998907089" lon="-7.983955973759294">
        <ele>447.10000000000002</ele>
        <time>2018-05-20T08:43:22Z</time>
      </trkpt>
      <trkpt lat="42.899019978940487" lon="-7.983595971018076">
        <ele>446.60000000000002</ele>
        <time>2018-05-20T08:43:31Z</time>
      </trkpt>
      <trkpt lat="42.898883018642664" lon="-7.983352979645133">
        <ele>446.30000000000001</ele>
        <time>2018-05-20T08:43:38Z</time>
      </trkpt>
      <trkpt lat="42.898730970919132" lon="-7.983110994100571">
        <ele>446</ele>
        <time>2018-05-20T08:43:45Z</time>
      </trkpt>
      <trkpt lat="42.898656036704779" lon="-7.982907984405756">
        <ele>446</ele>
        <time>2018-05-20T08:43:50Z</time>
      </trkpt>
      <trkpt lat="42.898473981767893" lon="-7.982556028291583">
        <ele>446</ele>
        <time>2018-05-20T08:43:59Z</time>
      </trkpt>
      <trkpt lat="42.898389995098114" lon="-7.982359975576401">
        <ele>446</ele>
        <time>2018-05-20T08:44:04Z</time>
      </trkpt>
      <trkpt lat="42.898271977901459" lon="-7.98205403611064">
        <ele>446</ele>
        <time>2018-05-20T08:44:12Z</time>
      </trkpt>
      <trkpt lat="42.89814499206841" lon="-7.981785982847214">
        <ele>446.10000000000002</ele>
        <time>2018-05-20T08:44:19Z</time>
      </trkpt>
      <trkpt lat="42.898138035088778" lon="-7.981785982847214">
        <ele>446.10000000000002</ele>
        <time>2018-05-20T08:44:19Z</time>
      </trkpt>
      <trkpt lat="42.89803602732718" lon="-7.981602000072599">
        <ele>446.10000000000002</ele>
        <time>2018-05-20T08:44:24Z</time>
      </trkpt>
      <trkpt lat="42.897908035665751" lon="-7.981320032849908">
        <ele>446</ele>
        <time>2018-05-20T08:44:31Z</time>
      </trkpt>
      <trkpt lat="42.897736961022019" lon="-7.981009986251593">
        <ele>446.30000000000001</ele>
        <time>2018-05-20T08:44:39Z</time>
      </trkpt>
      <trkpt lat="42.897718017920852" lon="-7.980998000130057">
        <ele>446.30000000000001</ele>
        <time>2018-05-20T08:44:40Z</time>
      </trkpt>
      <trkpt lat="42.897680969908834" lon="-7.980923987925053">
        <ele>446.39999999999998</ele>
        <time>2018-05-20T08:44:42Z</time>
      </trkpt>
      <trkpt lat="42.897658003494143" lon="-7.980872020125389">
        <ele>446.5</ele>
        <time>2018-05-20T08:44:43Z</time>
      </trkpt>
      <trkpt lat="42.897616010159254" lon="-7.980791972950101">
        <ele>446.5</ele>
        <time>2018-05-20T08:44:45Z</time>
      </trkpt>
      <trkpt lat="42.897582985460758" lon="-7.980750985443592">
        <ele>446.60000000000002</ele>
        <time>2018-05-20T08:44:47Z</time>
      </trkpt>
      <trkpt lat="42.897554989904165" lon="-7.980700023472309">
        <ele>446.69999999999999</ele>
        <time>2018-05-20T08:44:48Z</time>
      </trkpt>
      <trkpt lat="42.897510984912515" lon="-7.980660041794181">
        <ele>446.69999999999999</ele>
        <time>2018-05-20T08:44:50Z</time>
      </trkpt>
      <trkpt lat="42.897381987422705" lon="-7.980514029040933">
        <ele>446.89999999999998</ele>
        <time>2018-05-20T08:44:55Z</time>
      </trkpt>
      <trkpt lat="42.897202027961612" lon="-7.980304984375835">
        <ele>447.10000000000002</ele>
        <time>2018-05-20T08:45:02Z</time>
      </trkpt>
      <trkpt lat="42.897057021036744" lon="-7.980181016027927">
        <ele>447.30000000000001</ele>
        <time>2018-05-20T08:45:07Z</time>
      </trkpt>
      <trkpt lat="42.896816041320562" lon="-7.979926038533449">
        <ele>447.89999999999998</ele>
        <time>2018-05-20T08:45:16Z</time>
      </trkpt>
      <trkpt lat="42.896730965003371" lon="-7.979853032156825">
        <ele>448.10000000000002</ele>
        <time>2018-05-20T08:45:19Z</time>
      </trkpt>
      <trkpt lat="42.896603979170322" lon="-7.979675000533462">
        <ele>448.5</ele>
        <time>2018-05-20T08:45:24Z</time>
      </trkpt>
      <trkpt lat="42.896451009437442" lon="-7.97947802580893">
        <ele>449</ele>
        <time>2018-05-20T08:45:30Z</time>
      </trkpt>
      <trkpt lat="42.8962960280478" lon="-7.97926302999258">
        <ele>449.69999999999999</ele>
        <time>2018-05-20T08:45:37Z</time>
      </trkpt>
      <trkpt lat="42.896158983930945" lon="-7.979082986712456">
        <ele>450.39999999999998</ele>
        <time>2018-05-20T08:45:42Z</time>
      </trkpt>
      <trkpt lat="42.896052030846477" lon="-7.97896103002131">
        <ele>450.80000000000001</ele>
        <time>2018-05-20T08:45:47Z</time>
      </trkpt>
      <trkpt lat="42.895890008658171" lon="-7.978762965649366">
        <ele>451.39999999999998</ele>
        <time>2018-05-20T08:45:53Z</time>
      </trkpt>
      <trkpt lat="42.895660009235144" lon="-7.978528020903468">
        <ele>452.10000000000002</ele>
        <time>2018-05-20T08:46:02Z</time>
      </trkpt>
      <trkpt lat="42.895493041723967" lon="-7.978346971794963">
        <ele>452.39999999999998</ele>
        <time>2018-05-20T08:46:08Z</time>
      </trkpt>
      <trkpt lat="42.895362032577395" lon="-7.978213028982282">
        <ele>452.69999999999999</ele>
        <time>2018-05-20T08:46:13Z</time>
      </trkpt>
      <trkpt lat="42.895170003175735" lon="-7.978005995973945">
        <ele>453.19999999999999</ele>
        <time>2018-05-20T08:46:20Z</time>
      </trkpt>
      <trkpt lat="42.894882000982761" lon="-7.977720005437732">
        <ele>454</ele>
        <time>2018-05-20T08:46:30Z</time>
      </trkpt>
      <trkpt lat="42.894676979631186" lon="-7.977496040984988">
        <ele>454.39999999999998</ele>
        <time>2018-05-20T08:46:38Z</time>
      </trkpt>
      <trkpt lat="42.894676979631186" lon="-7.977492017671466">
        <ele>454.5</ele>
        <time>2018-05-20T08:46:38Z</time>
      </trkpt>
      <trkpt lat="42.894502971321344" lon="-7.977270986884832">
        <ele>454.80000000000001</ele>
        <time>2018-05-20T08:46:45Z</time>
      </trkpt>
      <trkpt lat="42.894289987161756" lon="-7.976979967206717">
        <ele>455.19999999999999</ele>
        <time>2018-05-20T08:46:54Z</time>
      </trkpt>
      <trkpt lat="42.894024029374123" lon="-7.976655000820756">
        <ele>455.89999999999998</ele>
        <time>2018-05-20T08:47:05Z</time>
      </trkpt>
      <trkpt lat="42.893839962780476" lon="-7.976466994732618">
        <ele>456.39999999999998</ele>
        <time>2018-05-20T08:47:12Z</time>
      </trkpt>
      <trkpt lat="42.893672995269299" lon="-7.976281000301242">
        <ele>457</ele>
        <time>2018-05-20T08:47:18Z</time>
      </trkpt>
      <trkpt lat="42.893666960299015" lon="-7.976269014179707">
        <ele>457.10000000000002</ele>
        <time>2018-05-20T08:47:18Z</time>
      </trkpt>
      <trkpt lat="42.893634019419551" lon="-7.976235989481211">
        <ele>457.19999999999999</ele>
        <time>2018-05-20T08:47:20Z</time>
      </trkpt>
      <trkpt lat="42.893609963357449" lon="-7.976215034723282">
        <ele>457.19999999999999</ele>
        <time>2018-05-20T08:47:20Z</time>
      </trkpt>
      <trkpt lat="42.893596971407533" lon="-7.976177986711264">
        <ele>457.30000000000001</ele>
        <time>2018-05-20T08:47:21Z</time>
      </trkpt>
      <trkpt lat="42.893585991114378" lon="-7.976144040003419">
        <ele>457.30000000000001</ele>
        <time>2018-05-20T08:47:22Z</time>
      </trkpt>
      <trkpt lat="42.893576016649604" lon="-7.976111015304923">
        <ele>457.39999999999998</ele>
        <time>2018-05-20T08:47:23Z</time>
      </trkpt>
      <trkpt lat="42.893576016649604" lon="-7.976072039455175">
        <ele>457.39999999999998</ele>
        <time>2018-05-20T08:47:24Z</time>
      </trkpt>
      <trkpt lat="42.893576016649604" lon="-7.976034991443157">
        <ele>457.5</ele>
        <time>2018-05-20T08:47:25Z</time>
      </trkpt>
      <trkpt lat="42.893576016649604" lon="-7.975994003936648">
        <ele>457.5</ele>
        <time>2018-05-20T08:47:25Z</time>
      </trkpt>
      <trkpt lat="42.893576016649604" lon="-7.97595301643014">
        <ele>457.60000000000002</ele>
        <time>2018-05-20T08:47:26Z</time>
      </trkpt>
      <trkpt lat="42.893581967800856" lon="-7.975919991731644">
        <ele>457.60000000000002</ele>
        <time>2018-05-20T08:47:27Z</time>
      </trkpt>
      <trkpt lat="42.89358900859952" lon="-7.975885961204767">
        <ele>457.60000000000002</ele>
        <time>2018-05-20T08:47:28Z</time>
      </trkpt>
      <trkpt lat="42.893595965579152" lon="-7.975844973698258">
        <ele>457.69999999999999</ele>
        <time>2018-05-20T08:47:29Z</time>
      </trkpt>
      <trkpt lat="42.8936090413481" lon="-7.975812032818794">
        <ele>457.69999999999999</ele>
        <time>2018-05-20T08:47:30Z</time>
      </trkpt>
      <trkpt lat="42.893622033298016" lon="-7.975779008120298">
        <ele>457.69999999999999</ele>
        <time>2018-05-20T08:47:30Z</time>
      </trkpt>
      <trkpt lat="42.893636031076312" lon="-7.97574196010828">
        <ele>457.69999999999999</ele>
        <time>2018-05-20T08:47:31Z</time>
      </trkpt>
      <trkpt lat="42.89365598000586" lon="-7.975697033107281">
        <ele>457.80000000000001</ele>
        <time>2018-05-20T08:47:32Z</time>
      </trkpt>
      <trkpt lat="42.89367601275444" lon="-7.975664008408785">
        <ele>457.80000000000001</ele>
        <time>2018-05-20T08:47:33Z</time>
      </trkpt>
      <trkpt lat="42.893692022189498" lon="-7.975626960396767">
        <ele>457.80000000000001</ele>
        <time>2018-05-20T08:47:34Z</time>
      </trkpt>
      <trkpt lat="42.893709037452936" lon="-7.975594019517303">
        <ele>457.80000000000001</ele>
        <time>2018-05-20T08:47:35Z</time>
      </trkpt>
      <trkpt lat="42.893728986382484" lon="-7.97556602396071">
        <ele>457.80000000000001</ele>
        <time>2018-05-20T08:47:36Z</time>
      </trkpt>
      <trkpt lat="42.8937419783324" lon="-7.975525036454201">
        <ele>457.89999999999998</ele>
        <time>2018-05-20T08:47:37Z</time>
      </trkpt>
      <trkpt lat="42.893755976110697" lon="-7.975492011755705">
        <ele>457.89999999999998</ele>
        <time>2018-05-20T08:47:38Z</time>
      </trkpt>
      <trkpt lat="42.89376201108098" lon="-7.975454963743687">
        <ele>458</ele>
        <time>2018-05-20T08:47:39Z</time>
      </trkpt>
      <trkpt lat="42.893776008859277" lon="-7.975413976237178">
        <ele>458</ele>
        <time>2018-05-20T08:47:40Z</time>
      </trkpt>
      <trkpt lat="42.893789000809193" lon="-7.975372988730669">
        <ele>458</ele>
        <time>2018-05-20T08:47:41Z</time>
      </trkpt>
      <trkpt lat="42.893806016072631" lon="-7.97533200122416">
        <ele>458.10000000000002</ele>
        <time>2018-05-20T08:47:42Z</time>
      </trkpt>
      <trkpt lat="42.893815990537405" lon="-7.975295037031174">
        <ele>458.10000000000002</ele>
        <time>2018-05-20T08:47:42Z</time>
      </trkpt>
      <trkpt lat="42.893831999972463" lon="-7.975262012332678">
        <ele>458.19999999999999</ele>
        <time>2018-05-20T08:47:43Z</time>
      </trkpt>
      <trkpt lat="42.893849015235901" lon="-7.975233010947704">
        <ele>458.19999999999999</ele>
        <time>2018-05-20T08:47:44Z</time>
      </trkpt>
      <trkpt lat="42.893866030499339" lon="-7.975192023441196">
        <ele>458.19999999999999</ele>
        <time>2018-05-20T08:47:45Z</time>
      </trkpt>
      <trkpt lat="42.893884973600507" lon="-7.975154975429177">
        <ele>458.30000000000001</ele>
        <time>2018-05-20T08:47:46Z</time>
      </trkpt>
      <trkpt lat="42.893905006349087" lon="-7.975113987922669">
        <ele>458.30000000000001</ele>
        <time>2018-05-20T08:47:47Z</time>
      </trkpt>
      <trkpt lat="42.893925039097667" lon="-7.975085992366076">
        <ele>458.30000000000001</ele>
        <time>2018-05-20T08:47:48Z</time>
      </trkpt>
      <trkpt lat="42.893944988027215" lon="-7.975056990981102">
        <ele>458.30000000000001</ele>
        <time>2018-05-20T08:47:49Z</time>
      </trkpt>
      <trkpt lat="42.893962003290653" lon="-7.975032012909651">
        <ele>458.30000000000001</ele>
        <time>2018-05-20T08:47:50Z</time>
      </trkpt>
      <trkpt lat="42.893984969705343" lon="-7.974998988211155">
        <ele>458.39999999999998</ele>
        <time>2018-05-20T08:47:51Z</time>
      </trkpt>
      <trkpt lat="42.894011959433556" lon="-7.97496696934104">
        <ele>458.39999999999998</ele>
        <time>2018-05-20T08:47:52Z</time>
      </trkpt>
      <trkpt lat="42.894031992182136" lon="-7.974934028461576">
        <ele>458.39999999999998</ele>
        <time>2018-05-20T08:47:53Z</time>
      </trkpt>
      <trkpt lat="42.894049007445574" lon="-7.97490100376308">
        <ele>458.39999999999998</ele>
        <time>2018-05-20T08:47:53Z</time>
      </trkpt>
      <trkpt lat="42.894069040194154" lon="-7.974864039570093">
        <ele>458.39999999999998</ele>
        <time>2018-05-20T08:47:54Z</time>
      </trkpt>
      <trkpt lat="42.894092006608844" lon="-7.974831014871597">
        <ele>458.39999999999998</ele>
        <time>2018-05-20T08:47:55Z</time>
      </trkpt>
      <trkpt lat="42.894112039357424" lon="-7.974793966859579">
        <ele>458.39999999999998</ele>
        <time>2018-05-20T08:47:56Z</time>
      </trkpt>
      <trkpt lat="42.89412897080183" lon="-7.974757002666593">
        <ele>458.39999999999998</ele>
        <time>2018-05-20T08:47:57Z</time>
      </trkpt>
      <trkpt lat="42.89414900355041" lon="-7.974716015160084">
        <ele>458.39999999999998</ele>
        <time>2018-05-20T08:47:58Z</time>
      </trkpt>
      <trkpt lat="42.89416903629899" lon="-7.974678967148066">
        <ele>458.39999999999998</ele>
        <time>2018-05-20T08:47:59Z</time>
      </trkpt>
      <trkpt lat="42.894184961915016" lon="-7.97464300878346">
        <ele>458.39999999999998</ele>
        <time>2018-05-20T08:48:00Z</time>
      </trkpt>
      <trkpt lat="42.894198959693313" lon="-7.974609984084964">
        <ele>458.39999999999998</ele>
        <time>2018-05-20T08:48:01Z</time>
      </trkpt>
      <trkpt lat="42.89421496912837" lon="-7.974573019891977">
        <ele>458.5</ele>
        <time>2018-05-20T08:48:02Z</time>
      </trkpt>
      <trkpt lat="42.894228966906667" lon="-7.974535971879959">
        <ele>458.5</ele>
        <time>2018-05-20T08:48:03Z</time>
      </trkpt>
      <trkpt lat="42.894244976341724" lon="-7.974492972716689">
        <ele>458.5</ele>
        <time>2018-05-20T08:48:04Z</time>
      </trkpt>
      <trkpt lat="42.894247993826866" lon="-7.974457014352083">
        <ele>458.60000000000002</ele>
        <time>2018-05-20T08:48:05Z</time>
      </trkpt>
      <trkpt lat="42.894247993826866" lon="-7.974403034895659">
        <ele>458.60000000000002</ele>
        <time>2018-05-20T08:48:06Z</time>
      </trkpt>
      <trkpt lat="42.894247993826866" lon="-7.97436598688364">
        <ele>458.69999999999999</ele>
        <time>2018-05-20T08:48:07Z</time>
      </trkpt>
      <trkpt lat="42.894244976341724" lon="-7.974329022690654">
        <ele>458.69999999999999</ele>
        <time>2018-05-20T08:48:08Z</time>
      </trkpt>
      <trkpt lat="42.894241958856583" lon="-7.974287029355764">
        <ele>458.80000000000001</ele>
        <time>2018-05-20T08:48:09Z</time>
      </trkpt>
      <trkpt lat="42.894239025190473" lon="-7.974239001050592">
        <ele>458.80000000000001</ele>
        <time>2018-05-20T08:48:10Z</time>
      </trkpt>
      <trkpt lat="42.894228966906667" lon="-7.974198013544083">
        <ele>458.89999999999998</ele>
        <time>2018-05-20T08:48:11Z</time>
      </trkpt>
      <trkpt lat="42.89421203546226" lon="-7.974157026037574">
        <ele>459</ele>
        <time>2018-05-20T08:48:12Z</time>
      </trkpt>
      <trkpt lat="42.894204994663596" lon="-7.974117966368794">
        <ele>459</ele>
        <time>2018-05-20T08:48:12Z</time>
      </trkpt>
      <trkpt lat="42.894195020198822" lon="-7.974082008004189">
        <ele>459.10000000000002</ele>
        <time>2018-05-20T08:48:13Z</time>
      </trkpt>
      <trkpt lat="42.894184961915016" lon="-7.97404102049768">
        <ele>459.10000000000002</ele>
        <time>2018-05-20T08:48:14Z</time>
      </trkpt>
      <trkpt lat="42.894165012985468" lon="-7.974007995799184">
        <ele>459.19999999999999</ele>
        <time>2018-05-20T08:48:15Z</time>
      </trkpt>
      <trkpt lat="42.894135005772114" lon="-7.973954016342759">
        <ele>459.30000000000001</ele>
        <time>2018-05-20T08:48:17Z</time>
      </trkpt>
      <trkpt lat="42.894118996337056" lon="-7.97391302883625">
        <ele>459.39999999999998</ele>
        <time>2018-05-20T08:48:18Z</time>
      </trkpt>
      <trkpt lat="42.894098963588476" lon="-7.973881009966135">
        <ele>459.39999999999998</ele>
        <time>2018-05-20T08:48:19Z</time>
      </trkpt>
      <trkpt lat="42.894079014658928" lon="-7.973840022459626">
        <ele>459.5</ele>
        <time>2018-05-20T08:48:20Z</time>
      </trkpt>
      <trkpt lat="42.894054036587477" lon="-7.973800962790847">
        <ele>459.60000000000002</ele>
        <time>2018-05-20T08:48:21Z</time>
      </trkpt>
      <trkpt lat="42.894034003838897" lon="-7.973747989162803">
        <ele>459.69999999999999</ele>
        <time>2018-05-20T08:48:22Z</time>
      </trkpt>
      <trkpt lat="42.894021011888981" lon="-7.973714964464307">
        <ele>459.69999999999999</ele>
        <time>2018-05-20T08:48:23Z</time>
      </trkpt>
      <trkpt lat="42.894003996625543" lon="-7.97367699444294">
        <ele>459.69999999999999</ele>
        <time>2018-05-20T08:48:24Z</time>
      </trkpt>
      <trkpt lat="42.893987987190485" lon="-7.973647993057966">
        <ele>459.69999999999999</ele>
        <time>2018-05-20T08:48:25Z</time>
      </trkpt>
      <trkpt lat="42.893963009119034" lon="-7.973617985844612">
        <ele>459.80000000000001</ele>
        <time>2018-05-20T08:48:26Z</time>
      </trkpt>
      <trkpt lat="42.893942976370454" lon="-7.973584961146116">
        <ele>459.80000000000001</ele>
        <time>2018-05-20T08:48:26Z</time>
      </trkpt>
      <trkpt lat="42.8939129691571" lon="-7.973531987518072">
        <ele>459.89999999999998</ele>
        <time>2018-05-20T08:48:28Z</time>
      </trkpt>
      <trkpt lat="42.893882961943746" lon="-7.97348496504128">
        <ele>459.89999999999998</ele>
        <time>2018-05-20T08:48:29Z</time>
      </trkpt>
      <trkpt lat="42.893855972215533" lon="-7.973455963656306">
        <ele>459.89999999999998</ele>
        <time>2018-05-20T08:48:30Z</time>
      </trkpt>
      <trkpt lat="42.893833005800843" lon="-7.973436014726758">
        <ele>459.89999999999998</ele>
        <time>2018-05-20T08:48:31Z</time>
      </trkpt>
      <trkpt lat="42.893793024122715" lon="-7.973392009735107">
        <ele>460</ele>
        <time>2018-05-20T08:48:33Z</time>
      </trkpt>
      <trkpt lat="42.893766034394503" lon="-7.973387986421585">
        <ele>460</ele>
        <time>2018-05-20T08:48:33Z</time>
      </trkpt>
      <trkpt lat="42.893739966675639" lon="-7.973370971158147">
        <ele>460</ele>
        <time>2018-05-20T08:48:34Z</time>
      </trkpt>
      <trkpt lat="42.893706019967794" lon="-7.973354961723089">
        <ele>460</ele>
        <time>2018-05-20T08:48:35Z</time>
      </trkpt>
      <trkpt lat="42.893672995269299" lon="-7.973335012793541">
        <ele>460</ele>
        <time>2018-05-20T08:48:36Z</time>
      </trkpt>
      <trkpt lat="42.893647011369467" lon="-7.97331397421658">
        <ele>460</ele>
        <time>2018-05-20T08:48:37Z</time>
      </trkpt>
      <trkpt lat="42.893617004156113" lon="-7.973294025287032">
        <ele>460</ele>
        <time>2018-05-20T08:48:38Z</time>
      </trkpt>
      <trkpt lat="42.893588002771139" lon="-7.973276004195213">
        <ele>460</ele>
        <time>2018-05-20T08:48:39Z</time>
      </trkpt>
      <trkpt lat="42.893564030528069" lon="-7.973258988931775">
        <ele>460</ele>
        <time>2018-05-20T08:48:40Z</time>
      </trkpt>
      <trkpt lat="42.893541986122727" lon="-7.973236022517085">
        <ele>460</ele>
        <time>2018-05-20T08:48:41Z</time>
      </trkpt>
      <trkpt lat="42.893428998067975" lon="-7.973083974793553">
        <ele>460</ele>
        <time>2018-05-20T08:48:46Z</time>
      </trkpt>
      <trkpt lat="42.8933119866997" lon="-7.972877025604248">
        <ele>459.89999999999998</ele>
        <time>2018-05-20T08:48:51Z</time>
      </trkpt>
      <trkpt lat="42.893168991431594" lon="-7.972670998424292">
        <ele>459.60000000000002</ele>
        <time>2018-05-20T08:48:57Z</time>
      </trkpt>
      <trkpt lat="42.893028007820249" lon="-7.972440999001265">
        <ele>459</ele>
        <time>2018-05-20T08:49:04Z</time>
      </trkpt>
      <trkpt lat="42.893016021698713" lon="-7.972423983737826">
        <ele>459</ele>
        <time>2018-05-20T08:49:04Z</time>
      </trkpt>
      <trkpt lat="42.892874032258987" lon="-7.972224997356534">
        <ele>458.10000000000002</ele>
        <time>2018-05-20T08:49:10Z</time>
      </trkpt>
      <trkpt lat="42.89277303032577" lon="-7.972079990431666">
        <ele>457.30000000000001</ele>
        <time>2018-05-20T08:49:15Z</time>
      </trkpt>
      <trkpt lat="42.89275299757719" lon="-7.972055012360215">
        <ele>457.10000000000002</ele>
        <time>2018-05-20T08:49:16Z</time>
      </trkpt>
      <trkpt lat="42.8927300311625" lon="-7.972017964348197">
        <ele>456.80000000000001</ele>
        <time>2018-05-20T08:49:17Z</time>
      </trkpt>
      <trkpt lat="42.892703041434288" lon="-7.971981000155211">
        <ele>456.5</ele>
        <time>2018-05-20T08:49:18Z</time>
      </trkpt>
      <trkpt lat="42.89268703199923" lon="-7.971953004598618">
        <ele>456.30000000000001</ele>
        <time>2018-05-20T08:49:19Z</time>
      </trkpt>
      <trkpt lat="42.892670016735792" lon="-7.971919979900122">
        <ele>456.10000000000002</ele>
        <time>2018-05-20T08:49:19Z</time>
      </trkpt>
      <trkpt lat="42.89264696650207" lon="-7.971895001828671">
        <ele>455.89999999999998</ele>
        <time>2018-05-20T08:49:20Z</time>
      </trkpt>
      <trkpt lat="42.892627017572522" lon="-7.971861977130175">
        <ele>455.60000000000002</ele>
        <time>2018-05-20T08:49:21Z</time>
      </trkpt>
      <trkpt lat="42.892587035894394" lon="-7.971825012937188">
        <ele>455.30000000000001</ele>
        <time>2018-05-20T08:49:23Z</time>
      </trkpt>
      <trkpt lat="42.892562979832292" lon="-7.97178796492517">
        <ele>455</ele>
        <time>2018-05-20T08:49:24Z</time>
      </trkpt>
      <trkpt lat="42.89253699593246" lon="-7.971746977418661">
        <ele>454.69999999999999</ele>
        <time>2018-05-20T08:49:25Z</time>
      </trkpt>
      <trkpt lat="42.892513023689389" lon="-7.971723005175591">
        <ele>454.5</ele>
        <time>2018-05-20T08:49:26Z</time>
      </trkpt>
      <trkpt lat="42.892479998990893" lon="-7.971689980477095">
        <ele>454.30000000000001</ele>
        <time>2018-05-20T08:49:27Z</time>
      </trkpt>
      <trkpt lat="42.892446974292397" lon="-7.971653016284108">
        <ele>454</ele>
        <time>2018-05-20T08:49:28Z</time>
      </trkpt>
      <trkpt lat="42.892427025362849" lon="-7.971619991585612">
        <ele>453.80000000000001</ele>
        <time>2018-05-20T08:49:29Z</time>
      </trkpt>
      <trkpt lat="42.892402969300747" lon="-7.971586966887116">
        <ele>453.5</ele>
        <time>2018-05-20T08:49:30Z</time>
      </trkpt>
      <trkpt lat="42.892372962087393" lon="-7.971555031836033">
        <ele>453.30000000000001</ele>
        <time>2018-05-20T08:49:31Z</time>
      </trkpt>
      <trkpt lat="42.892346978187561" lon="-7.971533993259072">
        <ele>453.10000000000002</ele>
        <time>2018-05-20T08:49:32Z</time>
      </trkpt>
      <trkpt lat="42.89232300594449" lon="-7.971513960510492">
        <ele>452.89999999999998</ele>
        <time>2018-05-20T08:49:33Z</time>
      </trkpt>
      <trkpt lat="42.892294004559517" lon="-7.971493005752564">
        <ele>452.69999999999999</ele>
        <time>2018-05-20T08:49:34Z</time>
      </trkpt>
      <trkpt lat="42.892267014831305" lon="-7.971476996317506">
        <ele>452.5</ele>
        <time>2018-05-20T08:49:35Z</time>
      </trkpt>
      <trkpt lat="42.892243964597583" lon="-7.971456041559577">
        <ele>452.39999999999998</ele>
        <time>2018-05-20T08:49:36Z</time>
      </trkpt>
      <trkpt lat="42.892224015668035" lon="-7.971436008810997">
        <ele>452.19999999999999</ele>
        <time>2018-05-20T08:49:36Z</time>
      </trkpt>
      <trkpt lat="42.892189985141158" lon="-7.971407007426024">
        <ele>452</ele>
        <time>2018-05-20T08:49:38Z</time>
      </trkpt>
      <trkpt lat="42.89217003621161" lon="-7.971384963020682">
        <ele>451.80000000000001</ele>
        <time>2018-05-20T08:49:38Z</time>
      </trkpt>
      <trkpt lat="42.892082026228309" lon="-7.971260994672775">
        <ele>451</ele>
        <time>2018-05-20T08:49:42Z</time>
      </trkpt>
      <trkpt lat="42.891975995153189" lon="-7.971100984141231">
        <ele>450.5</ele>
        <time>2018-05-20T08:49:47Z</time>
      </trkpt>
      <trkpt lat="42.89187298156321" lon="-7.971015991643071">
        <ele>450.30000000000001</ele>
        <time>2018-05-20T08:49:50Z</time>
      </trkpt>
      <trkpt lat="42.89187298156321" lon="-7.971010962501168">
        <ele>450.19999999999999</ele>
        <time>2018-05-20T08:49:50Z</time>
      </trkpt>
      <trkpt lat="42.891835011541843" lon="-7.970955977216363">
        <ele>450.10000000000002</ele>
        <time>2018-05-20T08:49:52Z</time>
      </trkpt>
      <trkpt lat="42.89172001183033" lon="-7.970795966684818">
        <ele>449.69999999999999</ele>
        <time>2018-05-20T08:49:57Z</time>
      </trkpt>
      <trkpt lat="42.891510967165232" lon="-7.970527997240424">
        <ele>449.19999999999999</ele>
        <time>2018-05-20T08:50:05Z</time>
      </trkpt>
      <trkpt lat="42.891382975503802" lon="-7.970291040837765">
        <ele>448.60000000000002</ele>
        <time>2018-05-20T08:50:12Z</time>
      </trkpt>
      <trkpt lat="42.891254983842373" lon="-7.970164977014065">
        <ele>448.10000000000002</ele>
        <time>2018-05-20T08:50:17Z</time>
      </trkpt>
      <trkpt lat="42.891144007444382" lon="-7.970014018937945">
        <ele>446.89999999999998</ele>
        <time>2018-05-20T08:50:21Z</time>
      </trkpt>
      <trkpt lat="42.891033031046391" lon="-7.969844033941627">
        <ele>445.69999999999999</ele>
        <time>2018-05-20T08:50:26Z</time>
      </trkpt>
      <trkpt lat="42.891029007732868" lon="-7.969844033941627">
        <ele>445.69999999999999</ele>
        <time>2018-05-20T08:50:26Z</time>
      </trkpt>
      <trkpt lat="42.891002018004656" lon="-7.96983196400106">
        <ele>445.5</ele>
        <time>2018-05-20T08:50:27Z</time>
      </trkpt>
      <trkpt lat="42.890962036326528" lon="-7.969806985929608">
        <ele>445.19999999999999</ele>
        <time>2018-05-20T08:50:28Z</time>
      </trkpt>
      <trkpt lat="42.890929011628032" lon="-7.969758035615087">
        <ele>444.89999999999998</ele>
        <time>2018-05-20T08:50:30Z</time>
      </trkpt>
      <trkpt lat="42.890908978879452" lon="-7.969732973724604">
        <ele>444.80000000000001</ele>
        <time>2018-05-20T08:50:31Z</time>
      </trkpt>
      <trkpt lat="42.890891963616014" lon="-7.969709001481533">
        <ele>444.60000000000002</ele>
        <time>2018-05-20T08:50:31Z</time>
      </trkpt>
      <trkpt lat="42.890868997201324" lon="-7.969687962904573">
        <ele>444.39999999999998</ele>
        <time>2018-05-20T08:50:32Z</time>
      </trkpt>
      <trkpt lat="42.890844019129872" lon="-7.969675976783037">
        <ele>444.30000000000001</ele>
        <time>2018-05-20T08:50:33Z</time>
      </trkpt>
      <trkpt lat="42.890820968896151" lon="-7.969655022025108">
        <ele>444.10000000000002</ele>
        <time>2018-05-20T08:50:34Z</time>
      </trkpt>
      <trkpt lat="42.890801019966602" lon="-7.969627026468515">
        <ele>443.89999999999998</ele>
        <time>2018-05-20T08:50:35Z</time>
      </trkpt>
      <trkpt lat="42.890775036066771" lon="-7.969604982063174">
        <ele>443.80000000000001</ele>
        <time>2018-05-20T08:50:36Z</time>
      </trkpt>
      <trkpt lat="42.890743017196655" lon="-7.969587966799736">
        <ele>443.60000000000002</ele>
        <time>2018-05-20T08:50:37Z</time>
      </trkpt>
      <trkpt lat="42.890713009983301" lon="-7.969575980678201">
        <ele>443.39999999999998</ele>
        <time>2018-05-20T08:50:37Z</time>
      </trkpt>
      <trkpt lat="42.890673028305173" lon="-7.969539016485214">
        <ele>443.10000000000002</ele>
        <time>2018-05-20T08:50:39Z</time>
      </trkpt>
      <trkpt lat="42.890640003606677" lon="-7.969514038413763">
        <ele>442.89999999999998</ele>
        <time>2018-05-20T08:50:40Z</time>
      </trkpt>
      <trkpt lat="42.890611002221704" lon="-7.969501968473196">
        <ele>442.69999999999999</ele>
        <time>2018-05-20T08:50:41Z</time>
      </trkpt>
      <trkpt lat="42.890590969473124" lon="-7.969472967088223">
        <ele>442.60000000000002</ele>
        <time>2018-05-20T08:50:42Z</time>
      </trkpt>
      <trkpt lat="42.890550987794995" lon="-7.969428040087223">
        <ele>442.30000000000001</ele>
        <time>2018-05-20T08:50:43Z</time>
      </trkpt>
      <trkpt lat="42.890517041087151" lon="-7.969389986246824">
        <ele>442</ele>
        <time>2018-05-20T08:50:45Z</time>
      </trkpt>
      <trkpt lat="42.890483010560274" lon="-7.969352016225457">
        <ele>441.80000000000001</ele>
        <time>2018-05-20T08:50:46Z</time>
      </trkpt>
      <trkpt lat="42.890459960326552" lon="-7.969323014840484">
        <ele>441.60000000000002</ele>
        <time>2018-05-20T08:50:47Z</time>
      </trkpt>
      <trkpt lat="42.890434982255101" lon="-7.96929300762713">
        <ele>441.39999999999998</ele>
        <time>2018-05-20T08:50:48Z</time>
      </trkpt>
      <trkpt lat="42.890323000028729" lon="-7.969169961288571">
        <ele>440.69999999999999</ele>
        <time>2018-05-20T08:50:52Z</time>
      </trkpt>
      <trkpt lat="42.890177993103862" lon="-7.969019003212452">
        <ele>440</ele>
        <time>2018-05-20T08:50:58Z</time>
      </trkpt>
      <trkpt lat="42.890093000605702" lon="-7.968892017379403">
        <ele>439.5</ele>
        <time>2018-05-20T08:51:01Z</time>
      </trkpt>
      <trkpt lat="42.890075985342264" lon="-7.968858992680907">
        <ele>439.39999999999998</ele>
        <time>2018-05-20T08:51:02Z</time>
      </trkpt>
      <trkpt lat="42.890053018927574" lon="-7.968806019052863">
        <ele>439.19999999999999</ele>
        <time>2018-05-20T08:51:03Z</time>
      </trkpt>
      <trkpt lat="42.890042960643768" lon="-7.968765031546354">
        <ele>439.10000000000002</ele>
        <time>2018-05-20T08:51:04Z</time>
      </trkpt>
      <trkpt lat="42.89002301171422" lon="-7.968698982149363">
        <ele>439</ele>
        <time>2018-05-20T08:51:06Z</time>
      </trkpt>
      <trkpt lat="42.890013037249446" lon="-7.968662017956376">
        <ele>439</ele>
        <time>2018-05-20T08:51:07Z</time>
      </trkpt>
      <trkpt lat="42.89000297896564" lon="-7.9686089605093">
        <ele>438.89999999999998</ele>
        <time>2018-05-20T08:51:08Z</time>
      </trkpt>
      <trkpt lat="42.889996021986008" lon="-7.968567973002791">
        <ele>438.89999999999998</ele>
        <time>2018-05-20T08:51:09Z</time>
      </trkpt>
      <trkpt lat="42.889988981187344" lon="-7.968513993546367">
        <ele>438.80000000000001</ele>
        <time>2018-05-20T08:51:10Z</time>
      </trkpt>
      <trkpt lat="42.889988981187344" lon="-7.968478035181761">
        <ele>438.80000000000001</ele>
        <time>2018-05-20T08:51:11Z</time>
      </trkpt>
      <trkpt lat="42.889988981187344" lon="-7.968440987169743">
        <ele>438.80000000000001</ele>
        <time>2018-05-20T08:51:12Z</time>
      </trkpt>
      <trkpt lat="42.889988981187344" lon="-7.968399999663234">
        <ele>438.80000000000001</ele>
        <time>2018-05-20T08:51:13Z</time>
      </trkpt>
      <trkpt lat="42.889988981187344" lon="-7.968361023813486">
        <ele>438.69999999999999</ele>
        <time>2018-05-20T08:51:13Z</time>
      </trkpt>
      <trkpt lat="42.889969032257795" lon="-7.968233032152057">
        <ele>438.60000000000002</ele>
        <time>2018-05-20T08:51:16Z</time>
      </trkpt>
      <trkpt lat="42.889958973973989" lon="-7.96809196472168">
        <ele>438.5</ele>
        <time>2018-05-20T08:51:19Z</time>
      </trkpt>
      <trkpt lat="42.889901977032423" lon="-7.967856014147401">
        <ele>438.39999999999998</ele>
        <time>2018-05-20T08:51:25Z</time>
      </trkpt>
      <trkpt lat="42.889871969819069" lon="-7.967670019716024">
        <ele>438.5</ele>
        <time>2018-05-20T08:51:29Z</time>
      </trkpt>
      <trkpt lat="42.889868030324578" lon="-7.967636995017529">
        <ele>438.60000000000002</ele>
        <time>2018-05-20T08:51:30Z</time>
      </trkpt>
      <trkpt lat="42.889857972040772" lon="-7.967600030824542">
        <ele>438.60000000000002</ele>
        <time>2018-05-20T08:51:30Z</time>
      </trkpt>
      <trkpt lat="42.889838023111224" lon="-7.967555020004511">
        <ele>438.60000000000002</ele>
        <time>2018-05-20T08:51:32Z</time>
      </trkpt>
      <trkpt lat="42.889822013676167" lon="-7.967517971992493">
        <ele>438.60000000000002</ele>
        <time>2018-05-20T08:51:32Z</time>
      </trkpt>
      <trkpt lat="42.889812039211392" lon="-7.967472961172462">
        <ele>438.69999999999999</ele>
        <time>2018-05-20T08:51:34Z</time>
      </trkpt>
      <trkpt lat="42.889798041433096" lon="-7.967435996979475">
        <ele>438.69999999999999</ele>
        <time>2018-05-20T08:51:34Z</time>
      </trkpt>
      <trkpt lat="42.88978798314929" lon="-7.967395009472966">
        <ele>438.69999999999999</ele>
        <time>2018-05-20T08:51:35Z</time>
      </trkpt>
      <trkpt lat="42.889771973714232" lon="-7.967362990602851">
        <ele>438.69999999999999</ele>
        <time>2018-05-20T08:51:36Z</time>
      </trkpt>
      <trkpt lat="42.889757975935936" lon="-7.967331977561116">
        <ele>438.80000000000001</ele>
        <time>2018-05-20T08:51:37Z</time>
      </trkpt>
      <trkpt lat="42.88965898565948" lon="-7.96718898229301">
        <ele>438.89999999999998</ele>
        <time>2018-05-20T08:51:41Z</time>
      </trkpt>
      <trkpt lat="42.889582039788365" lon="-7.967092003673315">
        <ele>439</ele>
        <time>2018-05-20T08:51:44Z</time>
      </trkpt>
      <trkpt lat="42.889453964307904" lon="-7.966983038932085">
        <ele>439.19999999999999</ele>
        <time>2018-05-20T08:51:49Z</time>
      </trkpt>
      <trkpt lat="42.889299988746643" lon="-7.96688798815012">
        <ele>439.39999999999998</ele>
        <time>2018-05-20T08:51:54Z</time>
      </trkpt>
      <trkpt lat="42.889299988746643" lon="-7.966882036998868">
        <ele>439.39999999999998</ele>
        <time>2018-05-20T08:51:54Z</time>
      </trkpt>
      <trkpt lat="42.889211978763342" lon="-7.966825040057302">
        <ele>439.60000000000002</ele>
        <time>2018-05-20T08:51:57Z</time>
      </trkpt>
      <trkpt lat="42.88901399821043" lon="-7.966756979003549">
        <ele>439.89999999999998</ele>
        <time>2018-05-20T08:52:03Z</time>
      </trkpt>
      <trkpt lat="42.888824986293912" lon="-7.96665002591908">
        <ele>440.5</ele>
        <time>2018-05-20T08:52:09Z</time>
      </trkpt>
      <trkpt lat="42.888566991314292" lon="-7.966531002894044">
        <ele>440.89999999999998</ele>
        <time>2018-05-20T08:52:17Z</time>
      </trkpt>
      <trkpt lat="42.888404969125986" lon="-7.966450033709407">
        <ele>441.19999999999999</ele>
        <time>2018-05-20T08:52:22Z</time>
      </trkpt>
      <trkpt lat="42.888256022706628" lon="-7.966340985149145">
        <ele>441.60000000000002</ele>
        <time>2018-05-20T08:52:27Z</time>
      </trkpt>
      <trkpt lat="42.888245964422822" lon="-7.966327993199229">
        <ele>441.69999999999999</ele>
        <time>2018-05-20T08:52:27Z</time>
      </trkpt>
      <trkpt lat="42.8882160410285" lon="-7.966292034834623">
        <ele>441.80000000000001</ele>
        <time>2018-05-20T08:52:29Z</time>
      </trkpt>
      <trkpt lat="42.888190979138017" lon="-7.966261021792889">
        <ele>442</ele>
        <time>2018-05-20T08:52:30Z</time>
      </trkpt>
      <trkpt lat="42.888172036036849" lon="-7.966233026236296">
        <ele>442.10000000000002</ele>
        <time>2018-05-20T08:52:31Z</time>
      </trkpt>
      <trkpt lat="42.888147979974747" lon="-7.966188015416265">
        <ele>442.30000000000001</ele>
        <time>2018-05-20T08:52:32Z</time>
      </trkpt>
      <trkpt lat="42.888120990246534" lon="-7.966143004596233">
        <ele>442.5</ele>
        <time>2018-05-20T08:52:33Z</time>
      </trkpt>
      <trkpt lat="42.888104980811477" lon="-7.966109979897738">
        <ele>442.60000000000002</ele>
        <time>2018-05-20T08:52:34Z</time>
      </trkpt>
      <trkpt lat="42.888085031881928" lon="-7.966080978512764">
        <ele>442.80000000000001</ele>
        <time>2018-05-20T08:52:35Z</time>
      </trkpt>
      <trkpt lat="42.888070028275251" lon="-7.966048959642649">
        <ele>442.89999999999998</ele>
        <time>2018-05-20T08:52:36Z</time>
      </trkpt>
      <trkpt lat="42.888057036325336" lon="-7.966011995449662">
        <ele>443.10000000000002</ele>
        <time>2018-05-20T08:52:36Z</time>
      </trkpt>
      <trkpt lat="42.888043960556388" lon="-7.965976037085056">
        <ele>443.30000000000001</ele>
        <time>2018-05-20T08:52:37Z</time>
      </trkpt>
      <trkpt lat="42.888033986091614" lon="-7.965938989073038">
        <ele>443.39999999999998</ele>
        <time>2018-05-20T08:52:38Z</time>
      </trkpt>
      <trkpt lat="42.888029962778091" lon="-7.965898001566529">
        <ele>443.60000000000002</ele>
        <time>2018-05-20T08:52:39Z</time>
      </trkpt>
      <trkpt lat="42.888027029111981" lon="-7.965855002403259">
        <ele>443.80000000000001</ele>
        <time>2018-05-20T08:52:40Z</time>
      </trkpt>
      <trkpt lat="42.888008002191782" lon="-7.965843016281724">
        <ele>443.89999999999998</ele>
        <time>2018-05-20T08:52:41Z</time>
      </trkpt>
      <trkpt lat="42.887984029948711" lon="-7.965859025716782">
        <ele>443.80000000000001</ele>
        <time>2018-05-20T08:52:41Z</time>
      </trkpt>
      <trkpt lat="42.887956034392118" lon="-7.965859025716782">
        <ele>443.89999999999998</ele>
        <time>2018-05-20T08:52:42Z</time>
      </trkpt>
      <trkpt lat="42.887926027178764" lon="-7.965850979089737">
        <ele>443.89999999999998</ele>
        <time>2018-05-20T08:52:43Z</time>
      </trkpt>
      <trkpt lat="42.887905994430184" lon="-7.965831030160189">
        <ele>444</ele>
        <time>2018-05-20T08:52:44Z</time>
      </trkpt>
      <trkpt lat="42.887885961681604" lon="-7.965805968269706">
        <ele>444.10000000000002</ele>
        <time>2018-05-20T08:52:45Z</time>
      </trkpt>
      <trkpt lat="42.887864001095295" lon="-7.965777972713113">
        <ele>444.30000000000001</ele>
        <time>2018-05-20T08:52:46Z</time>
      </trkpt>
      <trkpt lat="42.88774598389864" lon="-7.965665990486741">
        <ele>444.89999999999998</ele>
        <time>2018-05-20T08:52:50Z</time>
      </trkpt>
      <trkpt lat="42.887640036642551" lon="-7.965499022975564">
        <ele>445.60000000000002</ele>
        <time>2018-05-20T08:52:55Z</time>
      </trkpt>
      <trkpt lat="42.887536017224193" lon="-7.965349992737174">
        <ele>446.10000000000002</ele>
        <time>2018-05-20T08:52:59Z</time>
      </trkpt>
      <trkpt lat="42.88746896199882" lon="-7.965185036882758">
        <ele>446.39999999999998</ele>
        <time>2018-05-20T08:53:03Z</time>
      </trkpt>
      <trkpt lat="42.887452030554414" lon="-7.96516802161932">
        <ele>446.39999999999998</ele>
        <time>2018-05-20T08:53:04Z</time>
      </trkpt>
      <trkpt lat="42.887425040826201" lon="-7.965129967778921">
        <ele>446.5</ele>
        <time>2018-05-20T08:53:05Z</time>
      </trkpt>
      <trkpt lat="42.887408025562763" lon="-7.965100966393948">
        <ele>446.5</ele>
        <time>2018-05-20T08:53:06Z</time>
      </trkpt>
      <trkpt lat="42.887378018349409" lon="-7.965071965008974">
        <ele>446.60000000000002</ele>
        <time>2018-05-20T08:53:07Z</time>
      </trkpt>
      <trkpt lat="42.887354968115687" lon="-7.965043969452381">
        <ele>446.60000000000002</ele>
        <time>2018-05-20T08:53:08Z</time>
      </trkpt>
      <trkpt lat="42.887327978387475" lon="-7.965007005259395">
        <ele>446.60000000000002</ele>
        <time>2018-05-20T08:53:09Z</time>
      </trkpt>
      <trkpt lat="42.887308029457927" lon="-7.964985966682434">
        <ele>446.69999999999999</ele>
        <time>2018-05-20T08:53:10Z</time>
      </trkpt>
      <trkpt lat="42.887284979224205" lon="-7.964961994439364">
        <ele>446.69999999999999</ele>
        <time>2018-05-20T08:53:10Z</time>
      </trkpt>
      <trkpt lat="42.887260001152754" lon="-7.964947996661067">
        <ele>446.69999999999999</ele>
        <time>2018-05-20T08:53:11Z</time>
      </trkpt>
      <trkpt lat="42.887234017252922" lon="-7.964936010539532">
        <ele>446.69999999999999</ele>
        <time>2018-05-20T08:53:12Z</time>
      </trkpt>
      <trkpt lat="42.88720996119082" lon="-7.964918995276094">
        <ele>446.69999999999999</ele>
        <time>2018-05-20T08:53:13Z</time>
      </trkpt>
      <trkpt lat="42.88718699477613" lon="-7.964885970577598">
        <ele>446.69999999999999</ele>
        <time>2018-05-20T08:53:14Z</time>
      </trkpt>
      <trkpt lat="42.88716402836144" lon="-7.964859986677766">
        <ele>446.69999999999999</ele>
        <time>2018-05-20T08:53:15Z</time>
      </trkpt>
      <trkpt lat="42.887085992842913" lon="-7.964754039421678">
        <ele>446.80000000000001</ele>
        <time>2018-05-20T08:53:18Z</time>
      </trkpt>
      <trkpt lat="42.886999994516373" lon="-7.964612971991301">
        <ele>447</ele>
        <time>2018-05-20T08:53:22Z</time>
      </trkpt>
      <trkpt lat="42.886927993968129" lon="-7.964530996978283">
        <ele>447.19999999999999</ele>
        <time>2018-05-20T08:53:25Z</time>
      </trkpt>
      <trkpt lat="42.88684400729835" lon="-7.964393030852079">
        <ele>447.69999999999999</ele>
        <time>2018-05-20T08:53:29Z</time>
      </trkpt>
      <trkpt lat="42.886762032285333" lon="-7.964235031977296">
        <ele>448.30000000000001</ele>
        <time>2018-05-20T08:53:33Z</time>
      </trkpt>
      <trkpt lat="42.886705035343766" lon="-7.964117014780641">
        <ele>448.69999999999999</ele>
        <time>2018-05-20T08:53:36Z</time>
      </trkpt>
      <trkpt lat="42.886629011482" lon="-7.963935965672135">
        <ele>449.30000000000001</ele>
        <time>2018-05-20T08:53:40Z</time>
      </trkpt>
      <trkpt lat="42.88660897873342" lon="-7.963767992332578">
        <ele>449.89999999999998</ele>
        <time>2018-05-20T08:53:44Z</time>
      </trkpt>
      <trkpt lat="42.886581989005208" lon="-7.963710995391011">
        <ele>450.30000000000001</ele>
        <time>2018-05-20T08:53:46Z</time>
      </trkpt>
      <trkpt lat="42.886581989005208" lon="-7.963629020377994">
        <ele>450.80000000000001</ele>
        <time>2018-05-20T08:53:47Z</time>
      </trkpt>
      <trkpt lat="42.886575032025576" lon="-7.963546961545944">
        <ele>451.30000000000001</ele>
        <time>2018-05-20T08:53:49Z</time>
      </trkpt>
      <trkpt lat="42.886568997055292" lon="-7.963473033159971">
        <ele>451.80000000000001</ele>
        <time>2018-05-20T08:53:51Z</time>
      </trkpt>
      <trkpt lat="42.886556005105376" lon="-7.963402038440108">
        <ele>452.19999999999999</ele>
        <time>2018-05-20T08:53:52Z</time>
      </trkpt>
      <trkpt lat="42.8865219745785" lon="-7.963335989043117">
        <ele>452.60000000000002</ele>
        <time>2018-05-20T08:53:54Z</time>
      </trkpt>
      <trkpt lat="42.886481992900372" lon="-7.963284021243453">
        <ele>453</ele>
        <time>2018-05-20T08:53:56Z</time>
      </trkpt>
      <trkpt lat="42.886437987908721" lon="-7.963240016251802">
        <ele>453.19999999999999</ele>
        <time>2018-05-20T08:53:57Z</time>
      </trkpt>
      <trkpt lat="42.886299015954137" lon="-7.962936004623771">
        <ele>454.89999999999998</ele>
        <time>2018-05-20T08:54:05Z</time>
      </trkpt>
      <trkpt lat="42.886101035401225" lon="-7.962466031312943">
        <ele>458.30000000000001</ele>
        <time>2018-05-20T08:54:17Z</time>
      </trkpt>
      <trkpt lat="42.885991986840963" lon="-7.962125977501273">
        <ele>461</ele>
        <time>2018-05-20T08:54:25Z</time>
      </trkpt>
      <trkpt lat="42.885905988514423" lon="-7.961845016106963">
        <ele>463.30000000000001</ele>
        <time>2018-05-20T08:54:32Z</time>
      </trkpt>
      <trkpt lat="42.885760981589556" lon="-7.961417958140373">
        <ele>466.69999999999999</ele>
        <time>2018-05-20T08:54:42Z</time>
      </trkpt>
      <trkpt lat="42.885681018233299" lon="-7.961176978424192">
        <ele>468.5</ele>
        <time>2018-05-20T08:54:48Z</time>
      </trkpt>
      <trkpt lat="42.885472979396582" lon="-7.960746986791492">
        <ele>470.60000000000002</ele>
        <time>2018-05-20T08:54:59Z</time>
      </trkpt>
      <trkpt lat="42.885306011885405" lon="-7.960369968786836">
        <ele>472.39999999999998</ele>
        <time>2018-05-20T08:55:08Z</time>
      </trkpt>
      <trkpt lat="42.88519000634551" lon="-7.960114991292357">
        <ele>474.39999999999998</ele>
        <time>2018-05-20T08:55:15Z</time>
      </trkpt>
      <trkpt lat="42.88519000634551" lon="-7.960104010999203">
        <ele>474.5</ele>
        <time>2018-05-20T08:55:15Z</time>
      </trkpt>
      <trkpt lat="42.885067965835333" lon="-7.959858002141118">
        <ele>476</ele>
        <time>2018-05-20T08:55:22Z</time>
      </trkpt>
      <trkpt lat="42.884979033842683" lon="-7.959545021876693">
        <ele>477.39999999999998</ele>
        <time>2018-05-20T08:55:29Z</time>
      </trkpt>
      <trkpt lat="42.884937040507793" lon="-7.959285015240312">
        <ele>477.30000000000001</ele>
        <time>2018-05-20T08:55:35Z</time>
      </trkpt>
      <trkpt lat="42.884896975010633" lon="-7.959090974181891">
        <ele>477.30000000000001</ele>
        <time>2018-05-20T08:55:39Z</time>
      </trkpt>
      <trkpt lat="42.884822962805629" lon="-7.958846976980567">
        <ele>477.10000000000002</ele>
        <time>2018-05-20T08:55:45Z</time>
      </trkpt>
      <trkpt lat="42.884754985570908" lon="-7.958584036678076">
        <ele>476.60000000000002</ele>
        <time>2018-05-20T08:55:51Z</time>
      </trkpt>
      <trkpt lat="42.884711986407638" lon="-7.958416985347867">
        <ele>476.19999999999999</ele>
        <time>2018-05-20T08:55:55Z</time>
      </trkpt>
      <trkpt lat="42.884534038603306" lon="-7.957995962351561">
        <ele>475</ele>
        <time>2018-05-20T08:56:05Z</time>
      </trkpt>
      <trkpt lat="42.884320970624685" lon="-7.957602012902498">
        <ele>474.69999999999999</ele>
        <time>2018-05-20T08:56:16Z</time>
      </trkpt>
      <trkpt lat="42.884219968691468" lon="-7.95730696991086">
        <ele>474.89999999999998</ele>
        <time>2018-05-20T08:56:23Z</time>
      </trkpt>
      <trkpt lat="42.884219968691468" lon="-7.957299007102847">
        <ele>474.89999999999998</ele>
        <time>2018-05-20T08:56:23Z</time>
      </trkpt>
      <trkpt lat="42.884037997573614" lon="-7.957032965496182">
        <ele>474.80000000000001</ele>
        <time>2018-05-20T08:56:31Z</time>
      </trkpt>
      <trkpt lat="42.883905982598662" lon="-7.956855017691851">
        <ele>474.80000000000001</ele>
        <time>2018-05-20T08:56:36Z</time>
      </trkpt>
      <trkpt lat="42.883781008422375" lon="-7.956671034917235">
        <ele>475</ele>
        <time>2018-05-20T08:56:42Z</time>
      </trkpt>
      <trkpt lat="42.883603982627392" lon="-7.956441035494208">
        <ele>475.19999999999999</ele>
        <time>2018-05-20T08:56:49Z</time>
      </trkpt>
      <trkpt lat="42.883504992350936" lon="-7.956327963620424">
        <ele>475.19999999999999</ele>
        <time>2018-05-20T08:56:53Z</time>
      </trkpt>
      <trkpt lat="42.88325596600771" lon="-7.956044990569353">
        <ele>474.89999999999998</ele>
        <time>2018-05-20T08:57:03Z</time>
      </trkpt>
      <trkpt lat="42.883093021810055" lon="-7.955794036388397">
        <ele>474.5</ele>
        <time>2018-05-20T08:57:10Z</time>
      </trkpt>
      <trkpt lat="42.882936028763652" lon="-7.955541992560029">
        <ele>474.10000000000002</ele>
        <time>2018-05-20T08:57:17Z</time>
      </trkpt>
      <trkpt lat="42.882878025993705" lon="-7.955462029203773">
        <ele>473.89999999999998</ele>
        <time>2018-05-20T08:57:19Z</time>
      </trkpt>
      <trkpt lat="42.882768977433443" lon="-7.955180983990431">
        <ele>473.10000000000002</ele>
        <time>2018-05-20T08:57:26Z</time>
      </trkpt>
      <trkpt lat="42.882683984935284" lon="-7.954933969303966">
        <ele>472.39999999999998</ele>
        <time>2018-05-20T08:57:32Z</time>
      </trkpt>
      <trkpt lat="42.882621958851814" lon="-7.954750992357731">
        <ele>471.89999999999998</ele>
        <time>2018-05-20T08:57:37Z</time>
      </trkpt>
      <trkpt lat="42.882484998553991" lon="-7.95444899238646">
        <ele>471</ele>
        <time>2018-05-20T08:57:44Z</time>
      </trkpt>
      <trkpt lat="42.88237301632762" lon="-7.95418999157846">
        <ele>470.69999999999999</ele>
        <time>2018-05-20T08:57:51Z</time>
      </trkpt>
      <trkpt lat="42.882306966930628" lon="-7.95403903350234">
        <ele>470.60000000000002</ele>
        <time>2018-05-20T08:57:55Z</time>
      </trkpt>
      <trkpt lat="42.882253993302584" lon="-7.953947000205517">
        <ele>470.39999999999998</ele>
        <time>2018-05-20T08:57:57Z</time>
      </trkpt>
      <trkpt lat="42.882113009691238" lon="-7.953772991895676">
        <ele>470.10000000000002</ele>
        <time>2018-05-20T08:58:03Z</time>
      </trkpt>
      <trkpt lat="42.881994992494583" lon="-7.953580962494016">
        <ele>470.10000000000002</ele>
        <time>2018-05-20T08:58:08Z</time>
      </trkpt>
      <trkpt lat="42.881892984732985" lon="-7.953423969447613">
        <ele>470</ele>
        <time>2018-05-20T08:58:13Z</time>
      </trkpt>
      <trkpt lat="42.881767004728317" lon="-7.95326697640121">
        <ele>469.80000000000001</ele>
        <time>2018-05-20T08:58:18Z</time>
      </trkpt>
      <trkpt lat="42.881609005853534" lon="-7.953036976978183">
        <ele>469.30000000000001</ele>
        <time>2018-05-20T08:58:25Z</time>
      </trkpt>
      <trkpt lat="42.881570030003786" lon="-7.952888030558825">
        <ele>469.10000000000002</ele>
        <time>2018-05-20T08:58:28Z</time>
      </trkpt>
      <trkpt lat="42.881573969498277" lon="-7.952691977843642">
        <ele>468.80000000000001</ele>
        <time>2018-05-20T08:58:32Z</time>
      </trkpt>
      <trkpt lat="42.881573969498277" lon="-7.95268602669239">
        <ele>468.80000000000001</ele>
        <time>2018-05-20T08:58:33Z</time>
      </trkpt>
      <trkpt lat="42.881570030003786" lon="-7.952392995357513">
        <ele>468.30000000000001</ele>
        <time>2018-05-20T08:58:39Z</time>
      </trkpt>
      <trkpt lat="42.881570030003786" lon="-7.952170958742499">
        <ele>467.89999999999998</ele>
        <time>2018-05-20T08:58:44Z</time>
      </trkpt>
      <trkpt lat="42.881549997255206" lon="-7.951881028711796">
        <ele>466.80000000000001</ele>
        <time>2018-05-20T08:58:50Z</time>
      </trkpt>
      <trkpt lat="42.881526025012136" lon="-7.951423963531852">
        <ele>464.80000000000001</ele>
        <time>2018-05-20T08:59:00Z</time>
      </trkpt>
      <trkpt lat="42.881512027233839" lon="-7.950981985777617">
        <ele>462.60000000000002</ele>
        <time>2018-05-20T08:59:10Z</time>
      </trkpt>
      <trkpt lat="42.881512027233839" lon="-7.950974022969604">
        <ele>462.60000000000002</ele>
        <time>2018-05-20T08:59:10Z</time>
      </trkpt>
      <trkpt lat="42.88149400614202" lon="-7.950635980814695">
        <ele>460.80000000000001</ele>
        <time>2018-05-20T08:59:17Z</time>
      </trkpt>
      <trkpt lat="42.881484031677246" lon="-7.950260974466801">
        <ele>459.19999999999999</ele>
        <time>2018-05-20T08:59:25Z</time>
      </trkpt>
      <trkpt lat="42.881484031677246" lon="-7.949976995587349">
        <ele>458.10000000000002</ele>
        <time>2018-05-20T08:59:31Z</time>
      </trkpt>
      <trkpt lat="42.881484031677246" lon="-7.949970038607717">
        <ele>458.10000000000002</ele>
        <time>2018-05-20T08:59:32Z</time>
      </trkpt>
      <trkpt lat="42.881495011970401" lon="-7.94991597533226">
        <ele>457.89999999999998</ele>
        <time>2018-05-20T08:59:33Z</time>
      </trkpt>
      <trkpt lat="42.8815140388906" lon="-7.949858978390694">
        <ele>457.69999999999999</ele>
        <time>2018-05-20T08:59:34Z</time>
      </trkpt>
      <trkpt lat="42.88153700530529" lon="-7.949795024469495">
        <ele>457.39999999999998</ele>
        <time>2018-05-20T08:59:36Z</time>
      </trkpt>
      <trkpt lat="42.88155603222549" lon="-7.949749007821083">
        <ele>457.19999999999999</ele>
        <time>2018-05-20T08:59:37Z</time>
      </trkpt>
      <trkpt lat="42.881581010296941" lon="-7.949696034193039">
        <ele>457</ele>
        <time>2018-05-20T08:59:38Z</time>
      </trkpt>
      <trkpt lat="42.881586039438844" lon="-7.949643982574344">
        <ele>456.80000000000001</ele>
        <time>2018-05-20T08:59:39Z</time>
      </trkpt>
      <trkpt lat="42.881595008075237" lon="-7.949586985632777">
        <ele>456.60000000000002</ele>
        <time>2018-05-20T08:59:41Z</time>
      </trkpt>
      <trkpt lat="42.881611017510295" lon="-7.949545998126268">
        <ele>456.30000000000001</ele>
        <time>2018-05-20T08:59:42Z</time>
      </trkpt>
      <trkpt lat="42.881639013066888" lon="-7.949511967599392">
        <ele>456</ele>
        <time>2018-05-20T08:59:43Z</time>
      </trkpt>
      <trkpt lat="42.881668014451861" lon="-7.949486989527941">
        <ele>455.80000000000001</ele>
        <time>2018-05-20T08:59:44Z</time>
      </trkpt>
      <trkpt lat="42.881692992523313" lon="-7.949451031163335">
        <ele>455.5</ele>
        <time>2018-05-20T08:59:45Z</time>
      </trkpt>
      <trkpt lat="42.881701961159706" lon="-7.949401997029781">
        <ele>455.10000000000002</ele>
        <time>2018-05-20T08:59:46Z</time>
      </trkpt>
      <trkpt lat="42.881701961159706" lon="-7.949349023401737">
        <ele>454.69999999999999</ele>
        <time>2018-05-20T08:59:47Z</time>
      </trkpt>
      <trkpt lat="42.881701961159706" lon="-7.949280040338635">
        <ele>454.19999999999999</ele>
        <time>2018-05-20T08:59:49Z</time>
      </trkpt>
      <trkpt lat="42.881701961159706" lon="-7.949221031740308">
        <ele>453.80000000000001</ele>
        <time>2018-05-20T08:59:50Z</time>
      </trkpt>
      <trkpt lat="42.881706990301609" lon="-7.9491610173136">
        <ele>453.39999999999998</ele>
        <time>2018-05-20T08:59:51Z</time>
      </trkpt>
      <trkpt lat="42.881734985858202" lon="-7.949130004271865">
        <ele>453.10000000000002</ele>
        <time>2018-05-20T08:59:52Z</time>
      </trkpt>
      <trkpt lat="42.881762981414795" lon="-7.949083987623453">
        <ele>452.69999999999999</ele>
        <time>2018-05-20T08:59:54Z</time>
      </trkpt>
      <trkpt lat="42.881782008334994" lon="-7.949037970975041">
        <ele>452.30000000000001</ele>
        <time>2018-05-20T08:59:55Z</time>
      </trkpt>
      <trkpt lat="42.881799023598433" lon="-7.948995977640152">
        <ele>451.89999999999998</ele>
        <time>2018-05-20T08:59:56Z</time>
      </trkpt>
      <trkpt lat="42.881807992234826" lon="-7.948945015668869">
        <ele>451.5</ele>
        <time>2018-05-20T08:59:57Z</time>
      </trkpt>
      <trkpt lat="42.881827019155025" lon="-7.948887012898922">
        <ele>451</ele>
        <time>2018-05-20T08:59:58Z</time>
      </trkpt>
      <trkpt lat="42.881835987791419" lon="-7.948830015957356">
        <ele>450.5</ele>
        <time>2018-05-20T09:00:00Z</time>
      </trkpt>
      <trkpt lat="42.881845962256193" lon="-7.94877796433866">
        <ele>450.10000000000002</ele>
        <time>2018-05-20T09:00:01Z</time>
      </trkpt>
      <trkpt lat="42.881849985569715" lon="-7.948725996538997">
        <ele>449.80000000000001</ele>
        <time>2018-05-20T09:00:02Z</time>
      </trkpt>
      <trkpt lat="42.881849985569715" lon="-7.948673022910953">
        <ele>449.60000000000002</ele>
        <time>2018-05-20T09:00:03Z</time>
      </trkpt>
      <trkpt lat="42.881855014711618" lon="-7.948575038462877">
        <ele>449.19999999999999</ele>
        <time>2018-05-20T09:00:05Z</time>
      </trkpt>
      <trkpt lat="42.881855014711618" lon="-7.948503959923983">
        <ele>449</ele>
        <time>2018-05-20T09:00:07Z</time>
      </trkpt>
      <trkpt lat="42.881855014711618" lon="-7.948439000174403">
        <ele>448.80000000000001</ele>
        <time>2018-05-20T09:00:08Z</time>
      </trkpt>
      <trkpt lat="42.881855014711618" lon="-7.948353001847863">
        <ele>448.5</ele>
        <time>2018-05-20T09:00:10Z</time>
      </trkpt>
      <trkpt lat="42.881849985569715" lon="-7.9483010340482">
        <ele>448.30000000000001</ele>
        <time>2018-05-20T09:00:11Z</time>
      </trkpt>
      <trkpt lat="42.881841016933322" lon="-7.948240013793111">
        <ele>448.10000000000002</ele>
        <time>2018-05-20T09:00:12Z</time>
      </trkpt>
      <trkpt lat="42.881841016933322" lon="-7.948187962174416">
        <ele>447.89999999999998</ele>
        <time>2018-05-20T09:00:14Z</time>
      </trkpt>
      <trkpt lat="42.881835987791419" lon="-7.948129959404469">
        <ele>447.69999999999999</ele>
        <time>2018-05-20T09:00:15Z</time>
      </trkpt>
      <trkpt lat="42.881831964477897" lon="-7.948078997433186">
        <ele>447.60000000000002</ele>
        <time>2018-05-20T09:00:16Z</time>
      </trkpt>
      <trkpt lat="42.881827019155025" lon="-7.948027029633522">
        <ele>447.39999999999998</ele>
        <time>2018-05-20T09:00:17Z</time>
      </trkpt>
      <trkpt lat="42.881821990013123" lon="-7.947970032691956">
        <ele>447.19999999999999</ele>
        <time>2018-05-20T09:00:18Z</time>
      </trkpt>
      <trkpt lat="42.881821990013123" lon="-7.94791798107326">
        <ele>447</ele>
        <time>2018-05-20T09:00:19Z</time>
      </trkpt>
      <trkpt lat="42.881807992234826" lon="-7.947848998010159">
        <ele>446.60000000000002</ele>
        <time>2018-05-20T09:00:21Z</time>
      </trkpt>
      <trkpt lat="42.881807992234826" lon="-7.947769034653902">
        <ele>446.10000000000002</ele>
        <time>2018-05-20T09:00:23Z</time>
      </trkpt>
      <trkpt lat="42.881803968921304" lon="-7.947704996913672">
        <ele>445.60000000000002</ele>
        <time>2018-05-20T09:00:24Z</time>
      </trkpt>
      <trkpt lat="42.881799023598433" lon="-7.947647999972105">
        <ele>445.30000000000001</ele>
        <time>2018-05-20T09:00:25Z</time>
      </trkpt>
      <trkpt lat="42.881799023598433" lon="-7.947591003030539">
        <ele>444.89999999999998</ele>
        <time>2018-05-20T09:00:27Z</time>
      </trkpt>
      <trkpt lat="42.881799023598433" lon="-7.947498969733715">
        <ele>444.30000000000001</ele>
        <time>2018-05-20T09:00:29Z</time>
      </trkpt>
      <trkpt lat="42.881799023598433" lon="-7.94744499027729">
        <ele>444</ele>
        <time>2018-05-20T09:00:30Z</time>
      </trkpt>
      <trkpt lat="42.881799023598433" lon="-7.947387993335724">
        <ele>443.60000000000002</ele>
        <time>2018-05-20T09:00:31Z</time>
      </trkpt>
      <trkpt lat="42.881803968921304" lon="-7.947324039414525">
        <ele>443.19999999999999</ele>
        <time>2018-05-20T09:00:32Z</time>
      </trkpt>
      <trkpt lat="42.881803968921304" lon="-7.94727299362421">
        <ele>442.89999999999998</ele>
        <time>2018-05-20T09:00:34Z</time>
      </trkpt>
      <trkpt lat="42.881799023598433" lon="-7.947221025824547">
        <ele>442.5</ele>
        <time>2018-05-20T09:00:35Z</time>
      </trkpt>
      <trkpt lat="42.881799023598433" lon="-7.947114994749427">
        <ele>441.89999999999998</ele>
        <time>2018-05-20T09:00:37Z</time>
      </trkpt>
      <trkpt lat="42.881785025820136" lon="-7.94705699197948">
        <ele>441.60000000000002</ele>
        <time>2018-05-20T09:00:38Z</time>
      </trkpt>
      <trkpt lat="42.881775973364711" lon="-7.947004018351436">
        <ele>441.39999999999998</ele>
        <time>2018-05-20T09:00:40Z</time>
      </trkpt>
      <trkpt lat="42.881765998899937" lon="-7.946940986439586">
        <ele>441.19999999999999</ele>
        <time>2018-05-20T09:00:41Z</time>
      </trkpt>
      <trkpt lat="42.88175200112164" lon="-7.9468659684062">
        <ele>441</ele>
        <time>2018-05-20T09:00:43Z</time>
      </trkpt>
      <trkpt lat="42.881743032485247" lon="-7.946807965636253">
        <ele>440.80000000000001</ele>
        <time>2018-05-20T09:00:44Z</time>
      </trkpt>
      <trkpt lat="42.881743032485247" lon="-7.946754992008209">
        <ele>440.60000000000002</ele>
        <time>2018-05-20T09:00:45Z</time>
      </trkpt>
      <trkpt lat="42.881743032485247" lon="-7.946683997288346">
        <ele>440.39999999999998</ele>
        <time>2018-05-20T09:00:47Z</time>
      </trkpt>
      <trkpt lat="42.881668014451861" lon="-7.94638903811574">
        <ele>439.39999999999998</ele>
        <time>2018-05-20T09:00:53Z</time>
      </trkpt>
      <trkpt lat="42.881524013355374" lon="-7.946237996220589">
        <ele>438.60000000000002</ele>
        <time>2018-05-20T09:00:59Z</time>
      </trkpt>
      <trkpt lat="42.881399961188436" lon="-7.946015959605575">
        <ele>437.5</ele>
        <time>2018-05-20T09:01:05Z</time>
      </trkpt>
      <trkpt lat="42.88132100366056" lon="-7.945910012349486">
        <ele>436.89999999999998</ele>
        <time>2018-05-20T09:01:08Z</time>
      </trkpt>
      <trkpt lat="42.881195023655891" lon="-7.945804987102747">
        <ele>436.10000000000002</ele>
        <time>2018-05-20T09:01:12Z</time>
      </trkpt>
      <trkpt lat="42.881011040881276" lon="-7.945632990449667">
        <ele>434.60000000000002</ele>
        <time>2018-05-20T09:01:19Z</time>
      </trkpt>
      <trkpt lat="42.880936022847891" lon="-7.945513967424631">
        <ele>433.80000000000001</ele>
        <time>2018-05-20T09:01:22Z</time>
      </trkpt>
      <trkpt lat="42.880835020914674" lon="-7.945312969386578">
        <ele>432.39999999999998</ele>
        <time>2018-05-20T09:01:28Z</time>
      </trkpt>
      <trkpt lat="42.880764026194811" lon="-7.945155976340175">
        <ele>431.30000000000001</ele>
        <time>2018-05-20T09:01:32Z</time>
      </trkpt>
      <trkpt lat="42.880764026194811" lon="-7.945143990218639">
        <ele>431.30000000000001</ele>
        <time>2018-05-20T09:01:32Z</time>
      </trkpt>
      <trkpt lat="42.880731001496315" lon="-7.945104008540511">
        <ele>431</ele>
        <time>2018-05-20T09:01:33Z</time>
      </trkpt>
      <trkpt lat="42.880708035081625" lon="-7.945068972185254">
        <ele>430.69999999999999</ele>
        <time>2018-05-20T09:01:34Z</time>
      </trkpt>
      <trkpt lat="42.880683979019523" lon="-7.945023961365223">
        <ele>430.39999999999998</ele>
        <time>2018-05-20T09:01:36Z</time>
      </trkpt>
      <trkpt lat="42.880661012604833" lon="-7.944982973858714">
        <ele>430.19999999999999</ele>
        <time>2018-05-20T09:01:37Z</time>
      </trkpt>
      <trkpt lat="42.88063301704824" lon="-7.944942992180586">
        <ele>429.89999999999998</ele>
        <time>2018-05-20T09:01:38Z</time>
      </trkpt>
      <trkpt lat="42.880609966814518" lon="-7.944891024380922">
        <ele>429.60000000000002</ele>
        <time>2018-05-20T09:01:39Z</time>
      </trkpt>
      <trkpt lat="42.880585994571447" lon="-7.944845007732511">
        <ele>429.30000000000001</ele>
        <time>2018-05-20T09:01:40Z</time>
      </trkpt>
      <trkpt lat="42.880577025935054" lon="-7.944792034104466">
        <ele>429.10000000000002</ele>
        <time>2018-05-20T09:01:42Z</time>
      </trkpt>
      <trkpt lat="42.880577025935054" lon="-7.944734031334519">
        <ele>428.80000000000001</ele>
        <time>2018-05-20T09:01:43Z</time>
      </trkpt>
      <trkpt lat="42.880577025935054" lon="-7.944670999422669">
        <ele>428.60000000000002</ele>
        <time>2018-05-20T09:01:44Z</time>
      </trkpt>
      <trkpt lat="42.880581971257925" lon="-7.944617019966245">
        <ele>428.30000000000001</ele>
        <time>2018-05-20T09:01:45Z</time>
      </trkpt>
      <trkpt lat="42.88061399012804" lon="-7.944572009146214">
        <ele>428.19999999999999</ele>
        <time>2018-05-20T09:01:47Z</time>
      </trkpt>
      <trkpt lat="42.880623964592814" lon="-7.94452004134655">
        <ele>428.19999999999999</ele>
        <time>2018-05-20T09:01:48Z</time>
      </trkpt>
      <trkpt lat="42.88063301704824" lon="-7.944462038576603">
        <ele>428.10000000000002</ele>
        <time>2018-05-20T09:01:49Z</time>
      </trkpt>
      <trkpt lat="42.880651960149407" lon="-7.944399006664753">
        <ele>428</ele>
        <time>2018-05-20T09:01:51Z</time>
      </trkpt>
      <trkpt lat="42.880651960149407" lon="-7.944346033036709">
        <ele>427.89999999999998</ele>
        <time>2018-05-20T09:01:52Z</time>
      </trkpt>
      <trkpt lat="42.880651960149407" lon="-7.944293981418014">
        <ele>427.80000000000001</ele>
        <time>2018-05-20T09:01:53Z</time>
      </trkpt>
      <trkpt lat="42.880647014826536" lon="-7.944217035546899">
        <ele>427.69999999999999</ele>
        <time>2018-05-20T09:01:55Z</time>
      </trkpt>
      <trkpt lat="42.880641985684633" lon="-7.944154003635049">
        <ele>427.60000000000002</ele>
        <time>2018-05-20T09:01:56Z</time>
      </trkpt>
      <trkpt lat="42.880627987906337" lon="-7.944102035835385">
        <ele>427.5</ele>
        <time>2018-05-20T09:01:57Z</time>
      </trkpt>
      <trkpt lat="42.880609966814518" lon="-7.944054007530212">
        <ele>427.39999999999998</ele>
        <time>2018-05-20T09:01:58Z</time>
      </trkpt>
      <trkpt lat="42.88055095821619" lon="-7.943930961191654">
        <ele>427.30000000000001</ele>
        <time>2018-05-20T09:02:02Z</time>
      </trkpt>
      <trkpt lat="42.880488010123372" lon="-7.943728035315871">
        <ele>427</ele>
        <time>2018-05-20T09:02:06Z</time>
      </trkpt>
      <trkpt lat="42.880439981818199" lon="-7.943540029227734">
        <ele>427.30000000000001</ele>
        <time>2018-05-20T09:02:11Z</time>
      </trkpt>
      <trkpt lat="42.880360018461943" lon="-7.943289997056127">
        <ele>427.80000000000001</ele>
        <time>2018-05-20T09:02:17Z</time>
      </trkpt>
      <trkpt lat="42.880346020683646" lon="-7.943243980407715">
        <ele>428</ele>
        <time>2018-05-20T09:02:18Z</time>
      </trkpt>
      <trkpt lat="42.88033202290535" lon="-7.943181032314897">
        <ele>428.19999999999999</ele>
        <time>2018-05-20T09:02:19Z</time>
      </trkpt>
      <trkpt lat="42.880307966843247" lon="-7.943140966817737">
        <ele>428.39999999999998</ele>
        <time>2018-05-20T09:02:20Z</time>
      </trkpt>
      <trkpt lat="42.880285000428557" lon="-7.943106014281511">
        <ele>428.60000000000002</ele>
        <time>2018-05-20T09:02:21Z</time>
      </trkpt>
      <trkpt lat="42.880265973508358" lon="-7.943053962662816">
        <ele>428.80000000000001</ele>
        <time>2018-05-20T09:02:23Z</time>
      </trkpt>
      <trkpt lat="42.880237977951765" lon="-7.942991014569998">
        <ele>429.10000000000002</ele>
        <time>2018-05-20T09:02:24Z</time>
      </trkpt>
      <trkpt lat="42.880218029022217" lon="-7.942929994314909">
        <ele>429.39999999999998</ele>
        <time>2018-05-20T09:02:26Z</time>
      </trkpt>
      <trkpt lat="42.88020595908165" lon="-7.94286604039371">
        <ele>430</ele>
        <time>2018-05-20T09:02:27Z</time>
      </trkpt>
      <trkpt lat="42.880217023193836" lon="-7.942810971289873">
        <ele>430.5</ele>
        <time>2018-05-20T09:02:28Z</time>
      </trkpt>
      <trkpt lat="42.880253987386823" lon="-7.942769983783364">
        <ele>430.69999999999999</ele>
        <time>2018-05-20T09:02:30Z</time>
      </trkpt>
      <trkpt lat="42.880288017913699" lon="-7.942734025418758">
        <ele>430.89999999999998</ele>
        <time>2018-05-20T09:02:31Z</time>
      </trkpt>
      <trkpt lat="42.880320958793163" lon="-7.942710975185037">
        <ele>430.89999999999998</ele>
        <time>2018-05-20T09:02:32Z</time>
      </trkpt>
      <trkpt lat="42.880349038168788" lon="-7.942677028477192">
        <ele>431.10000000000002</ele>
        <time>2018-05-20T09:02:33Z</time>
      </trkpt>
      <trkpt lat="42.88035498932004" lon="-7.942629000172019">
        <ele>431.5</ele>
        <time>2018-05-20T09:02:34Z</time>
      </trkpt>
      <trkpt lat="42.880360018461943" lon="-7.942570997402072">
        <ele>432.10000000000002</ele>
        <time>2018-05-20T09:02:36Z</time>
      </trkpt>
      <trkpt lat="42.880374016240239" lon="-7.94252498075366">
        <ele>432.5</ele>
        <time>2018-05-20T09:02:37Z</time>
      </trkpt>
      <trkpt lat="42.880384996533394" lon="-7.942482987418771">
        <ele>432.89999999999998</ele>
        <time>2018-05-20T09:02:38Z</time>
      </trkpt>
      <trkpt lat="42.880463032051921" lon="-7.942336974665523">
        <ele>434.10000000000002</ele>
        <time>2018-05-20T09:02:42Z</time>
      </trkpt>
      <trkpt lat="42.880564033985138" lon="-7.942080991342664">
        <ele>436.5</ele>
        <time>2018-05-20T09:02:48Z</time>
      </trkpt>
      <trkpt lat="42.880622958764434" lon="-7.94177396222949">
        <ele>440.19999999999999</ele>
        <time>2018-05-20T09:02:55Z</time>
      </trkpt>
      <trkpt lat="42.880622958764434" lon="-7.941767005249858">
        <ele>440.19999999999999</ele>
        <time>2018-05-20T09:02:55Z</time>
      </trkpt>
      <trkpt lat="42.880710968747735" lon="-7.941368026658893">
        <ele>444.80000000000001</ele>
        <time>2018-05-20T09:03:04Z</time>
      </trkpt>
      <trkpt lat="42.880854969844222" lon="-7.94086997397244">
        <ele>448.80000000000001</ele>
        <time>2018-05-20T09:03:16Z</time>
      </trkpt>
      <trkpt lat="42.880942979827523" lon="-7.940513994544745">
        <ele>451.80000000000001</ele>
        <time>2018-05-20T09:03:24Z</time>
      </trkpt>
      <trkpt lat="42.880984973162413" lon="-7.940239990130067">
        <ele>453.80000000000001</ele>
        <time>2018-05-20T09:03:30Z</time>
      </trkpt>
      <trkpt lat="42.881014980375767" lon="-7.939927009865642">
        <ele>456</ele>
        <time>2018-05-20T09:03:37Z</time>
      </trkpt>
      <trkpt lat="42.881060997024179" lon="-7.939618974924088">
        <ele>458.30000000000001</ele>
        <time>2018-05-20T09:03:44Z</time>
      </trkpt>
      <trkpt lat="42.881068037822843" lon="-7.939587961882353">
        <ele>458.5</ele>
        <time>2018-05-20T09:03:44Z</time>
      </trkpt>
      <trkpt lat="42.881105002015829" lon="-7.939337007701397">
        <ele>459.80000000000001</ele>
        <time>2018-05-20T09:03:50Z</time>
      </trkpt>
      <trkpt lat="42.881111036986113" lon="-7.939337007701397">
        <ele>459.80000000000001</ele>
        <time>2018-05-20T09:03:50Z</time>
      </trkpt>
      <trkpt lat="42.881164010614157" lon="-7.938997959718108">
        <ele>461.5</ele>
        <time>2018-05-20T09:03:58Z</time>
      </trkpt>
      <trkpt lat="42.88116903975606" lon="-7.938928976655006">
        <ele>461.89999999999998</ele>
        <time>2018-05-20T09:03:59Z</time>
      </trkpt>
      <trkpt lat="42.881178008392453" lon="-7.938847001641989">
        <ele>462.30000000000001</ele>
        <time>2018-05-20T09:04:01Z</time>
      </trkpt>
      <trkpt lat="42.881178008392453" lon="-7.938795033842325">
        <ele>462.5</ele>
        <time>2018-05-20T09:04:02Z</time>
      </trkpt>
      <trkpt lat="42.881183037534356" lon="-7.938740970566869">
        <ele>462.80000000000001</ele>
        <time>2018-05-20T09:04:03Z</time>
      </trkpt>
      <trkpt lat="42.881187982857227" lon="-7.938671987503767">
        <ele>462.89999999999998</ele>
        <time>2018-05-20T09:04:05Z</time>
      </trkpt>
      <trkpt lat="42.881194017827511" lon="-7.938594035804272">
        <ele>463</ele>
        <time>2018-05-20T09:04:07Z</time>
      </trkpt>
      <trkpt lat="42.881194017827511" lon="-7.938536033034325">
        <ele>463.10000000000002</ele>
        <time>2018-05-20T09:04:08Z</time>
      </trkpt>
      <trkpt lat="42.881184965372086" lon="-7.938465038314462">
        <ele>463.10000000000002</ele>
        <time>2018-05-20T09:04:09Z</time>
      </trkpt>
      <trkpt lat="42.881184965372086" lon="-7.938408041372895">
        <ele>463.19999999999999</ele>
        <time>2018-05-20T09:04:11Z</time>
      </trkpt>
      <trkpt lat="42.881160993129015" lon="-7.9383559897542">
        <ele>463.19999999999999</ele>
        <time>2018-05-20T09:04:12Z</time>
      </trkpt>
      <trkpt lat="42.8811289742589" lon="-7.938287006691098">
        <ele>463.19999999999999</ele>
        <time>2018-05-20T09:04:14Z</time>
      </trkpt>
      <trkpt lat="42.881110031157732" lon="-7.938240990042687">
        <ele>463.19999999999999</ele>
        <time>2018-05-20T09:04:15Z</time>
      </trkpt>
      <trkpt lat="42.881084969267249" lon="-7.938191033899784">
        <ele>463.19999999999999</ele>
        <time>2018-05-20T09:04:16Z</time>
      </trkpt>
      <trkpt lat="42.880997965112329" lon="-7.938013002276421">
        <ele>463.19999999999999</ele>
        <time>2018-05-20T09:04:21Z</time>
      </trkpt>
      <trkpt lat="42.88084801286459" lon="-7.937785014510155">
        <ele>463.60000000000002</ele>
        <time>2018-05-20T09:04:27Z</time>
      </trkpt>
      <trkpt lat="42.880690013989806" lon="-7.937484020367265">
        <ele>464.69999999999999</ele>
        <time>2018-05-20T09:04:35Z</time>
      </trkpt>
      <trkpt lat="42.880552969872952" lon="-7.937244968488812">
        <ele>466</ele>
        <time>2018-05-20T09:04:42Z</time>
      </trkpt>
      <trkpt lat="42.880528997629881" lon="-7.937211021780968">
        <ele>466.19999999999999</ele>
        <time>2018-05-20T09:04:43Z</time>
      </trkpt>
      <trkpt lat="42.880510976538062" lon="-7.937165005132556">
        <ele>466.39999999999998</ele>
        <time>2018-05-20T09:04:44Z</time>
      </trkpt>
      <trkpt lat="42.880482980981469" lon="-7.937129968777299">
        <ele>466.69999999999999</ele>
        <time>2018-05-20T09:04:45Z</time>
      </trkpt>
      <trkpt lat="42.880451967939734" lon="-7.937080012634397">
        <ele>467</ele>
        <time>2018-05-20T09:04:47Z</time>
      </trkpt>
      <trkpt lat="42.880447022616863" lon="-7.937016980722547">
        <ele>467.60000000000002</ele>
        <time>2018-05-20T09:04:48Z</time>
      </trkpt>
      <trkpt lat="42.880447022616863" lon="-7.936954032629728">
        <ele>468.19999999999999</ele>
        <time>2018-05-20T09:04:50Z</time>
      </trkpt>
      <trkpt lat="42.880458002910018" lon="-7.936898041516542">
        <ele>468.69999999999999</ele>
        <time>2018-05-20T09:04:51Z</time>
      </trkpt>
      <trkpt lat="42.880508964881301" lon="-7.936752028763294">
        <ele>470.10000000000002</ele>
        <time>2018-05-20T09:04:54Z</time>
      </trkpt>
      <trkpt lat="42.880565039813519" lon="-7.936612972989678">
        <ele>471.30000000000001</ele>
        <time>2018-05-20T09:04:58Z</time>
      </trkpt>
      <trkpt lat="42.88056998513639" lon="-7.936590006574988">
        <ele>471.60000000000002</ele>
        <time>2018-05-20T09:04:58Z</time>
      </trkpt>
      <trkpt lat="42.880589012056589" lon="-7.936543989926577">
        <ele>472</ele>
        <time>2018-05-20T09:04:59Z</time>
      </trkpt>
      <trkpt lat="42.880603009834886" lon="-7.93648598715663">
        <ele>472.5</ele>
        <time>2018-05-20T09:05:01Z</time>
      </trkpt>
      <trkpt lat="42.880621030926704" lon="-7.936446005478501">
        <ele>472.89999999999998</ele>
        <time>2018-05-20T09:05:02Z</time>
      </trkpt>
      <trkpt lat="42.880629999563098" lon="-7.936394037678838">
        <ele>473.39999999999998</ele>
        <time>2018-05-20T09:05:03Z</time>
      </trkpt>
      <trkpt lat="42.880653971806169" lon="-7.936331005766988">
        <ele>473.89999999999998</ele>
        <time>2018-05-20T09:05:05Z</time>
      </trkpt>
      <trkpt lat="42.880663024261594" lon="-7.936278032138944">
        <ele>474.39999999999998</ele>
        <time>2018-05-20T09:05:06Z</time>
      </trkpt>
      <trkpt lat="42.880671992897987" lon="-7.936220029368997">
        <ele>474.89999999999998</ele>
        <time>2018-05-20T09:05:07Z</time>
      </trkpt>
      <trkpt lat="42.88067702203989" lon="-7.936154985800386">
        <ele>475.39999999999998</ele>
        <time>2018-05-20T09:05:08Z</time>
      </trkpt>
      <trkpt lat="42.88067702203989" lon="-7.936103018000722">
        <ele>475.80000000000001</ele>
        <time>2018-05-20T09:05:10Z</time>
      </trkpt>
      <trkpt lat="42.880685990676284" lon="-7.936046021059156">
        <ele>476.19999999999999</ele>
        <time>2018-05-20T09:05:11Z</time>
      </trkpt>
      <trkpt lat="42.880691019818187" lon="-7.935988018289208">
        <ele>476.69999999999999</ele>
        <time>2018-05-20T09:05:12Z</time>
      </trkpt>
      <trkpt lat="42.880695965141058" lon="-7.935936972498894">
        <ele>477</ele>
        <time>2018-05-20T09:05:13Z</time>
      </trkpt>
      <trkpt lat="42.88069998845458" lon="-7.93588500469923">
        <ele>477.39999999999998</ele>
        <time>2018-05-20T09:05:14Z</time>
      </trkpt>
      <trkpt lat="42.880709962919354" lon="-7.935816021636128">
        <ele>478</ele>
        <time>2018-05-20T09:05:16Z</time>
      </trkpt>
      <trkpt lat="42.880709962919354" lon="-7.935759024694562">
        <ele>478.39999999999998</ele>
        <time>2018-05-20T09:05:17Z</time>
      </trkpt>
      <trkpt lat="42.880713986232877" lon="-7.935701021924615">
        <ele>478.80000000000001</ele>
        <time>2018-05-20T09:05:18Z</time>
      </trkpt>
      <trkpt lat="42.880713986232877" lon="-7.935632038861513">
        <ele>479.39999999999998</ele>
        <time>2018-05-20T09:05:20Z</time>
      </trkpt>
      <trkpt lat="42.880713986232877" lon="-7.93556297197938">
        <ele>479.89999999999998</ele>
        <time>2018-05-20T09:05:21Z</time>
      </trkpt>
      <trkpt lat="42.88071901537478" lon="-7.935500023886561">
        <ele>480.39999999999998</ele>
        <time>2018-05-20T09:05:23Z</time>
      </trkpt>
      <trkpt lat="42.880733013153076" lon="-7.935443026944995">
        <ele>480.80000000000001</ele>
        <time>2018-05-20T09:05:24Z</time>
      </trkpt>
      <trkpt lat="42.88074198178947" lon="-7.935385024175048">
        <ele>481.30000000000001</ele>
        <time>2018-05-20T09:05:25Z</time>
      </trkpt>
      <trkpt lat="42.880747010931373" lon="-7.935333978384733">
        <ele>481.69999999999999</ele>
        <time>2018-05-20T09:05:26Z</time>
      </trkpt>
      <trkpt lat="42.880752040073276" lon="-7.935270024463534">
        <ele>482.19999999999999</ele>
        <time>2018-05-20T09:05:28Z</time>
      </trkpt>
      <trkpt lat="42.880761008709669" lon="-7.935213027521968">
        <ele>482.69999999999999</ele>
        <time>2018-05-20T09:05:29Z</time>
      </trkpt>
      <trkpt lat="42.880775006487966" lon="-7.935160975903273">
        <ele>483.10000000000002</ele>
        <time>2018-05-20T09:05:30Z</time>
      </trkpt>
      <trkpt lat="42.880775006487966" lon="-7.93511001393199">
        <ele>483.60000000000002</ele>
        <time>2018-05-20T09:05:31Z</time>
      </trkpt>
      <trkpt lat="42.880780035629869" lon="-7.935057962313294">
        <ele>484</ele>
        <time>2018-05-20T09:05:33Z</time>
      </trkpt>
      <trkpt lat="42.880780035629869" lon="-7.935000965371728">
        <ele>484.5</ele>
        <time>2018-05-20T09:05:34Z</time>
      </trkpt>
      <trkpt lat="42.880789004266262" lon="-7.934946985915303">
        <ele>484.89999999999998</ele>
        <time>2018-05-20T09:05:35Z</time>
      </trkpt>
      <trkpt lat="42.880794033408165" lon="-7.934888983145356">
        <ele>485.39999999999998</ele>
        <time>2018-05-20T09:05:36Z</time>
      </trkpt>
      <trkpt lat="42.880794033408165" lon="-7.93483198620379">
        <ele>485.89999999999998</ele>
        <time>2018-05-20T09:05:38Z</time>
      </trkpt>
      <trkpt lat="42.880783975124359" lon="-7.934785969555378">
        <ele>486.30000000000001</ele>
        <time>2018-05-20T09:05:39Z</time>
      </trkpt>
      <trkpt lat="42.880769977346063" lon="-7.934630988165736">
        <ele>487.60000000000002</ele>
        <time>2018-05-20T09:05:42Z</time>
      </trkpt>
      <trkpt lat="42.880761008709669" lon="-7.934555970132351">
        <ele>488.19999999999999</ele>
        <time>2018-05-20T09:05:44Z</time>
      </trkpt>
      <trkpt lat="42.880747010931373" lon="-7.934505008161068">
        <ele>488.5</ele>
        <time>2018-05-20T09:05:45Z</time>
      </trkpt>
      <trkpt lat="42.880727984011173" lon="-7.934436025097966">
        <ele>488.80000000000001</ele>
        <time>2018-05-20T09:05:46Z</time>
      </trkpt>
      <trkpt lat="42.88071901537478" lon="-7.934371987357736">
        <ele>489.19999999999999</ele>
        <time>2018-05-20T09:05:48Z</time>
      </trkpt>
      <trkpt lat="42.880709962919354" lon="-7.934321025386453">
        <ele>489.5</ele>
        <time>2018-05-20T09:05:49Z</time>
      </trkpt>
      <trkpt lat="42.880685990676284" lon="-7.934228992089629">
        <ele>490</ele>
        <time>2018-05-20T09:05:51Z</time>
      </trkpt>
      <trkpt lat="42.880667969584465" lon="-7.934170989319682">
        <ele>490.30000000000001</ele>
        <time>2018-05-20T09:05:53Z</time>
      </trkpt>
      <trkpt lat="42.880642991513014" lon="-7.934082979336381">
        <ele>490.69999999999999</ele>
        <time>2018-05-20T09:05:55Z</time>
      </trkpt>
      <trkpt lat="42.880581971257925" lon="-7.93386697769165">
        <ele>491.80000000000001</ele>
        <time>2018-05-20T09:06:00Z</time>
      </trkpt>
      <trkpt lat="42.880485998466611" lon="-7.933507980778813">
        <ele>492.69999999999999</ele>
        <time>2018-05-20T09:06:08Z</time>
      </trkpt>
      <trkpt lat="42.880430007353425" lon="-7.933196006342769">
        <ele>493.39999999999998</ele>
        <time>2018-05-20T09:06:15Z</time>
      </trkpt>
      <trkpt lat="42.88033596239984" lon="-7.932858970016241">
        <ele>494.10000000000002</ele>
        <time>2018-05-20T09:06:23Z</time>
      </trkpt>
      <trkpt lat="42.880222974345088" lon="-7.932560993358493">
        <ele>495.10000000000002</ele>
        <time>2018-05-20T09:06:30Z</time>
      </trkpt>
      <trkpt lat="42.880166983231902" lon="-7.93216603808105">
        <ele>496.69999999999999</ele>
        <time>2018-05-20T09:06:39Z</time>
      </trkpt>
      <trkpt lat="42.880038991570473" lon="-7.931949030607939">
        <ele>497.60000000000002</ele>
        <time>2018-05-20T09:06:45Z</time>
      </trkpt>
      <trkpt lat="42.879915023222566" lon="-7.931795977056027">
        <ele>498.10000000000002</ele>
        <time>2018-05-20T09:06:50Z</time>
      </trkpt>
      <trkpt lat="42.879789965227246" lon="-7.931688018143177">
        <ele>498.30000000000001</ele>
        <time>2018-05-20T09:06:54Z</time>
      </trkpt>
      <trkpt lat="42.879621991887689" lon="-7.931494982913137">
        <ele>498.5</ele>
        <time>2018-05-20T09:07:01Z</time>
      </trkpt>
      <trkpt lat="42.879489976912737" lon="-7.931375959888101">
        <ele>498.39999999999998</ele>
        <time>2018-05-20T09:07:05Z</time>
      </trkpt>
      <trkpt lat="42.879398027434945" lon="-7.931270012632012">
        <ele>498.30000000000001</ele>
        <time>2018-05-20T09:07:09Z</time>
      </trkpt>
      <trkpt lat="42.879392998293042" lon="-7.931270012632012">
        <ele>498.30000000000001</ele>
        <time>2018-05-20T09:07:09Z</time>
      </trkpt>
      <trkpt lat="42.879365002736449" lon="-7.931218966841698">
        <ele>498.19999999999999</ele>
        <time>2018-05-20T09:07:10Z</time>
      </trkpt>
      <trkpt lat="42.879316974431276" lon="-7.931159036234021">
        <ele>498</ele>
        <time>2018-05-20T09:07:12Z</time>
      </trkpt>
      <trkpt lat="42.879284033551812" lon="-7.931131040677428">
        <ele>497.89999999999998</ele>
        <time>2018-05-20T09:07:13Z</time>
      </trkpt>
      <trkpt lat="42.879252014681697" lon="-7.931089969351888">
        <ele>497.69999999999999</ele>
        <time>2018-05-20T09:07:15Z</time>
      </trkpt>
      <trkpt lat="42.879204992204905" lon="-7.931020986288786">
        <ele>497.5</ele>
        <time>2018-05-20T09:07:17Z</time>
      </trkpt>
      <trkpt lat="42.879182025790215" lon="-7.930981004610658">
        <ele>497.39999999999998</ele>
        <time>2018-05-20T09:07:18Z</time>
      </trkpt>
      <trkpt lat="42.879154030233622" lon="-7.930917972698808">
        <ele>497.19999999999999</ele>
        <time>2018-05-20T09:07:19Z</time>
      </trkpt>
      <trkpt lat="42.879140032455325" lon="-7.93085502460599">
        <ele>497.19999999999999</ele>
        <time>2018-05-20T09:07:21Z</time>
      </trkpt>
      <trkpt lat="42.879135003313422" lon="-7.93079199269414">
        <ele>497.10000000000002</ele>
        <time>2018-05-20T09:07:22Z</time>
      </trkpt>
      <trkpt lat="42.879135003313422" lon="-7.930723009631038">
        <ele>497</ele>
        <time>2018-05-20T09:07:24Z</time>
      </trkpt>
      <trkpt lat="42.879135003313422" lon="-7.930654026567936">
        <ele>497</ele>
        <time>2018-05-20T09:07:25Z</time>
      </trkpt>
      <trkpt lat="42.879135003313422" lon="-7.930561993271112">
        <ele>496.89999999999998</ele>
        <time>2018-05-20T09:07:27Z</time>
      </trkpt>
      <trkpt lat="42.879140032455325" lon="-7.930478006601334">
        <ele>496.89999999999998</ele>
        <time>2018-05-20T09:07:29Z</time>
      </trkpt>
      <trkpt lat="42.879143971949816" lon="-7.930420003831387">
        <ele>496.89999999999998</ele>
        <time>2018-05-20T09:07:30Z</time>
      </trkpt>
      <trkpt lat="42.879140032455325" lon="-7.930368036031723">
        <ele>496.60000000000002</ele>
        <time>2018-05-20T09:07:31Z</time>
      </trkpt>
      <trkpt lat="42.879140032455325" lon="-7.930300980806351">
        <ele>496.30000000000001</ele>
        <time>2018-05-20T09:07:33Z</time>
      </trkpt>
      <trkpt lat="42.879135003313422" lon="-7.930250018835068">
        <ele>496</ele>
        <time>2018-05-20T09:07:34Z</time>
      </trkpt>
      <trkpt lat="42.879126034677029" lon="-7.930175000801683">
        <ele>495.5</ele>
        <time>2018-05-20T09:07:36Z</time>
      </trkpt>
      <trkpt lat="42.879121005535126" lon="-7.930123033002019">
        <ele>495.19999999999999</ele>
        <time>2018-05-20T09:07:37Z</time>
      </trkpt>
      <trkpt lat="42.879102984443307" lon="-7.930077016353607">
        <ele>494.89999999999998</ele>
        <time>2018-05-20T09:07:38Z</time>
      </trkpt>
      <trkpt lat="42.87908898666501" lon="-7.930025970563293">
        <ele>494.60000000000002</ele>
        <time>2018-05-20T09:07:39Z</time>
      </trkpt>
      <trkpt lat="42.879074988886714" lon="-7.929945001378655">
        <ele>494.10000000000002</ele>
        <time>2018-05-20T09:07:41Z</time>
      </trkpt>
      <trkpt lat="42.879060991108418" lon="-7.929859003052115">
        <ele>493.60000000000002</ele>
        <time>2018-05-20T09:07:43Z</time>
      </trkpt>
      <trkpt lat="42.879051016643643" lon="-7.929795971140266">
        <ele>493.19999999999999</ele>
        <time>2018-05-20T09:07:44Z</time>
      </trkpt>
      <trkpt lat="42.879032995551825" lon="-7.929737968370318">
        <ele>492.80000000000001</ele>
        <time>2018-05-20T09:07:46Z</time>
      </trkpt>
      <trkpt lat="42.87902302108705" lon="-7.929669991135597">
        <ele>492.39999999999998</ele>
        <time>2018-05-20T09:07:47Z</time>
      </trkpt>
      <trkpt lat="42.878999970853329" lon="-7.929582986980677">
        <ele>491.89999999999998</ele>
        <time>2018-05-20T09:07:49Z</time>
      </trkpt>
      <trkpt lat="42.878985973075032" lon="-7.92952599003911">
        <ele>491.60000000000002</ele>
        <time>2018-05-20T09:07:50Z</time>
      </trkpt>
      <trkpt lat="42.878967029973865" lon="-7.929434040561318">
        <ele>491.10000000000002</ele>
        <time>2018-05-20T09:07:53Z</time>
      </trkpt>
      <trkpt lat="42.878953032195568" lon="-7.92935298755765">
        <ele>490.69999999999999</ele>
        <time>2018-05-20T09:07:54Z</time>
      </trkpt>
      <trkpt lat="42.878929981961846" lon="-7.929319040849805">
        <ele>490.5</ele>
        <time>2018-05-20T09:07:55Z</time>
      </trkpt>
      <trkpt lat="42.878907015547156" lon="-7.929249973967671">
        <ele>490.10000000000002</ele>
        <time>2018-05-20T09:07:57Z</time>
      </trkpt>
      <trkpt lat="42.878882959485054" lon="-7.929204041138291">
        <ele>489.89999999999998</ele>
        <time>2018-05-20T09:07:58Z</time>
      </trkpt>
      <trkpt lat="42.878865022212267" lon="-7.92915802448988">
        <ele>489.69999999999999</ele>
        <time>2018-05-20T09:07:59Z</time>
      </trkpt>
      <trkpt lat="42.87885102443397" lon="-7.929105972871184">
        <ele>489.39999999999998</ele>
        <time>2018-05-20T09:08:01Z</time>
      </trkpt>
      <trkpt lat="42.878823028877378" lon="-7.929055010899901">
        <ele>489.19999999999999</ele>
        <time>2018-05-20T09:08:02Z</time>
      </trkpt>
      <trkpt lat="42.878812970593572" lon="-7.929002959281206">
        <ele>489</ele>
        <time>2018-05-20T09:08:03Z</time>
      </trkpt>
      <trkpt lat="42.878795033320785" lon="-7.928930036723614">
        <ele>488.69999999999999</ele>
        <time>2018-05-20T09:08:05Z</time>
      </trkpt>
      <trkpt lat="42.878790004178882" lon="-7.92873096652329">
        <ele>487.89999999999998</ele>
        <time>2018-05-20T09:08:09Z</time>
      </trkpt>
      <trkpt lat="42.878770977258682" lon="-7.92851597070694">
        <ele>486.30000000000001</ele>
        <time>2018-05-20T09:08:14Z</time>
      </trkpt>
      <trkpt lat="42.878767037764192" lon="-7.928326958790422">
        <ele>485</ele>
        <time>2018-05-20T09:08:18Z</time>
      </trkpt>
      <trkpt lat="42.878763014450669" lon="-7.927996963262558">
        <ele>482.60000000000002</ele>
        <time>2018-05-20T09:08:25Z</time>
      </trkpt>
      <trkpt lat="42.878763014450669" lon="-7.927757995203137">
        <ele>481.39999999999998</ele>
        <time>2018-05-20T09:08:30Z</time>
      </trkpt>
      <trkpt lat="42.878781035542488" lon="-7.927513998001814">
        <ele>480.5</ele>
        <time>2018-05-20T09:08:36Z</time>
      </trkpt>
      <trkpt lat="42.878781035542488" lon="-7.927463036030531">
        <ele>480.30000000000001</ele>
        <time>2018-05-20T09:08:37Z</time>
      </trkpt>
      <trkpt lat="42.878785980865359" lon="-7.927410984411836">
        <ele>480.10000000000002</ele>
        <time>2018-05-20T09:08:38Z</time>
      </trkpt>
      <trkpt lat="42.878791010007262" lon="-7.927342001348734">
        <ele>479.80000000000001</ele>
        <time>2018-05-20T09:08:39Z</time>
      </trkpt>
      <trkpt lat="42.878795033320785" lon="-7.927285004407167">
        <ele>479.60000000000002</ele>
        <time>2018-05-20T09:08:41Z</time>
      </trkpt>
      <trkpt lat="42.878799978643656" lon="-7.927233036607504">
        <ele>479.30000000000001</ele>
        <time>2018-05-20T09:08:42Z</time>
      </trkpt>
      <trkpt lat="42.878809031099081" lon="-7.927180984988809">
        <ele>479.10000000000002</ele>
        <time>2018-05-20T09:08:43Z</time>
      </trkpt>
      <trkpt lat="42.878813976421952" lon="-7.927130023017526">
        <ele>478.89999999999998</ele>
        <time>2018-05-20T09:08:44Z</time>
      </trkpt>
      <trkpt lat="42.878823028877378" lon="-7.927067996934056">
        <ele>478.60000000000002</ele>
        <time>2018-05-20T09:08:45Z</time>
      </trkpt>
      <trkpt lat="42.878827974200249" lon="-7.927016029134393">
        <ele>478.19999999999999</ele>
        <time>2018-05-20T09:08:47Z</time>
      </trkpt>
      <trkpt lat="42.878837026655674" lon="-7.926964983344078">
        <ele>477.89999999999998</ele>
        <time>2018-05-20T09:08:48Z</time>
      </trkpt>
      <trkpt lat="42.878841971978545" lon="-7.926913015544415">
        <ele>477.60000000000002</ele>
        <time>2018-05-20T09:08:49Z</time>
      </trkpt>
      <trkpt lat="42.878855969756842" lon="-7.926856018602848">
        <ele>477.19999999999999</ele>
        <time>2018-05-20T09:08:50Z</time>
      </trkpt>
      <trkpt lat="42.878874996677041" lon="-7.926803966984153">
        <ele>476.89999999999998</ele>
        <time>2018-05-20T09:08:51Z</time>
      </trkpt>
      <trkpt lat="42.878902992233634" lon="-7.926746970042586">
        <ele>476.5</ele>
        <time>2018-05-20T09:08:53Z</time>
      </trkpt>
      <trkpt lat="42.878925958648324" lon="-7.926688967272639">
        <ele>476.10000000000002</ele>
        <time>2018-05-20T09:08:54Z</time>
      </trkpt>
      <trkpt lat="42.878954038023949" lon="-7.926648985594511">
        <ele>475.80000000000001</ele>
        <time>2018-05-20T09:08:56Z</time>
      </trkpt>
      <trkpt lat="42.878972981125116" lon="-7.926597017794848">
        <ele>475.5</ele>
        <time>2018-05-20T09:08:57Z</time>
      </trkpt>
      <trkpt lat="42.879000976681709" lon="-7.926533985882998">
        <ele>475.10000000000002</ele>
        <time>2018-05-20T09:08:58Z</time>
      </trkpt>
      <trkpt lat="42.879018997773528" lon="-7.926476988941431">
        <ele>474.80000000000001</ele>
        <time>2018-05-20T09:09:00Z</time>
      </trkpt>
      <trkpt lat="42.879038024693727" lon="-7.926430972293019">
        <ele>474.5</ele>
        <time>2018-05-20T09:09:01Z</time>
      </trkpt>
      <trkpt lat="42.879052022472024" lon="-7.926372969523072">
        <ele>474.19999999999999</ele>
        <time>2018-05-20T09:09:02Z</time>
      </trkpt>
      <trkpt lat="42.879074988886714" lon="-7.926315972581506">
        <ele>473.89999999999998</ele>
        <time>2018-05-20T09:09:04Z</time>
      </trkpt>
      <trkpt lat="42.879098961129785" lon="-7.926241038367152">
        <ele>473.60000000000002</ele>
        <time>2018-05-20T09:09:05Z</time>
      </trkpt>
      <trkpt lat="42.879112958908081" lon="-7.926188986748457">
        <ele>473.39999999999998</ele>
        <time>2018-05-20T09:09:07Z</time>
      </trkpt>
      <trkpt lat="42.8791309799999" lon="-7.926138024777174">
        <ele>473.19999999999999</ele>
        <time>2018-05-20T09:09:08Z</time>
      </trkpt>
      <trkpt lat="42.879150006920099" lon="-7.926092008128762">
        <ele>473</ele>
        <time>2018-05-20T09:09:09Z</time>
      </trkpt>
      <trkpt lat="42.879172973334789" lon="-7.926040040329099">
        <ele>472.89999999999998</ele>
        <time>2018-05-20T09:09:10Z</time>
      </trkpt>
      <trkpt lat="42.879205998033285" lon="-7.925970973446965">
        <ele>472.69999999999999</ele>
        <time>2018-05-20T09:09:12Z</time>
      </trkpt>
      <trkpt lat="42.879233993589878" lon="-7.925896961241961">
        <ele>472.5</ele>
        <time>2018-05-20T09:09:14Z</time>
      </trkpt>
      <trkpt lat="42.879252014681697" lon="-7.925862008705735">
        <ele>472.39999999999998</ele>
        <time>2018-05-20T09:09:15Z</time>
      </trkpt>
      <trkpt lat="42.879271041601896" lon="-7.925815992057324">
        <ele>472.30000000000001</ele>
        <time>2018-05-20T09:09:16Z</time>
      </trkpt>
      <trkpt lat="42.87928001023829" lon="-7.925758995115757">
        <ele>472.10000000000002</ele>
        <time>2018-05-20T09:09:17Z</time>
      </trkpt>
      <trkpt lat="42.87928001023829" lon="-7.925690012052655">
        <ele>472</ele>
        <time>2018-05-20T09:09:19Z</time>
      </trkpt>
      <trkpt lat="42.879289984703064" lon="-7.92561499401927">
        <ele>471.80000000000001</ele>
        <time>2018-05-20T09:09:20Z</time>
      </trkpt>
      <trkpt lat="42.879294008016586" lon="-7.92555196210742">
        <ele>471.60000000000002</ele>
        <time>2018-05-20T09:09:22Z</time>
      </trkpt>
      <trkpt lat="42.879294008016586" lon="-7.925497982650995">
        <ele>471.5</ele>
        <time>2018-05-20T09:09:23Z</time>
      </trkpt>
      <trkpt lat="42.87930398248136" lon="-7.925373008474708">
        <ele>471.39999999999998</ele>
        <time>2018-05-20T09:09:26Z</time>
      </trkpt>
      <trkpt lat="42.87930398248136" lon="-7.925106966868043">
        <ele>471.69999999999999</ele>
        <time>2018-05-20T09:09:31Z</time>
      </trkpt>
      <trkpt lat="42.87930398248136" lon="-7.924905968829989">
        <ele>471.89999999999998</ele>
        <time>2018-05-20T09:09:36Z</time>
      </trkpt>
      <trkpt lat="42.879332983866334" lon="-7.924684016034007">
        <ele>472.39999999999998</ele>
        <time>2018-05-20T09:09:41Z</time>
      </trkpt>
      <trkpt lat="42.879371037706733" lon="-7.924395008012652">
        <ele>473.10000000000002</ele>
        <time>2018-05-20T09:09:47Z</time>
      </trkpt>
      <trkpt lat="42.879396015778184" lon="-7.924138018861413">
        <ele>473.89999999999998</ele>
        <time>2018-05-20T09:09:53Z</time>
      </trkpt>
      <trkpt lat="42.879418982192874" lon="-7.923871977254748">
        <ele>474.69999999999999</ele>
        <time>2018-05-20T09:09:59Z</time>
      </trkpt>
      <trkpt lat="42.879456030204892" lon="-7.923670979216695">
        <ele>475</ele>
        <time>2018-05-20T09:10:03Z</time>
      </trkpt>
      <trkpt lat="42.879456030204892" lon="-7.923663016408682">
        <ele>475</ele>
        <time>2018-05-20T09:10:03Z</time>
      </trkpt>
      <trkpt lat="42.879503974691033" lon="-7.923561008647084">
        <ele>475</ele>
        <time>2018-05-20T09:10:06Z</time>
      </trkpt>
      <trkpt lat="42.879553008824587" lon="-7.923377025872469">
        <ele>474.39999999999998</ele>
        <time>2018-05-20T09:10:10Z</time>
      </trkpt>
      <trkpt lat="42.879589973017573" lon="-7.923194970935583">
        <ele>473.60000000000002</ele>
        <time>2018-05-20T09:10:14Z</time>
      </trkpt>
      <trkpt lat="42.879617968574166" lon="-7.922997996211052">
        <ele>472.19999999999999</ele>
        <time>2018-05-20T09:10:19Z</time>
      </trkpt>
      <trkpt lat="42.879617968574166" lon="-7.922991961240768">
        <ele>472.19999999999999</ele>
        <time>2018-05-20T09:10:19Z</time>
      </trkpt>
      <trkpt lat="42.879665996879339" lon="-7.922875033691526">
        <ele>471</ele>
        <time>2018-05-20T09:10:22Z</time>
      </trkpt>
      <trkpt lat="42.879721987992525" lon="-7.922728015109897">
        <ele>469.19999999999999</ele>
        <time>2018-05-20T09:10:25Z</time>
      </trkpt>
      <trkpt lat="42.879784014075994" lon="-7.922588037326932">
        <ele>467.60000000000002</ele>
        <time>2018-05-20T09:10:29Z</time>
      </trkpt>
      <trkpt lat="42.879842016845942" lon="-7.922462979331613">
        <ele>466.30000000000001</ele>
        <time>2018-05-20T09:10:32Z</time>
      </trkpt>
      <trkpt lat="42.879886021837592" lon="-7.922312021255493">
        <ele>464.89999999999998</ele>
        <time>2018-05-20T09:10:36Z</time>
      </trkpt>
      <trkpt lat="42.879922986030579" lon="-7.922208001837134">
        <ele>464</ele>
        <time>2018-05-20T09:10:38Z</time>
      </trkpt>
      <trkpt lat="42.879922986030579" lon="-7.92220096103847">
        <ele>463.89999999999998</ele>
        <time>2018-05-20T09:10:38Z</time>
      </trkpt>
      <trkpt lat="42.879978977143764" lon="-7.922011027112603">
        <ele>462.69999999999999</ele>
        <time>2018-05-20T09:10:43Z</time>
      </trkpt>
      <trkpt lat="42.879985012114048" lon="-7.922011027112603">
        <ele>462.69999999999999</ele>
        <time>2018-05-20T09:10:43Z</time>
      </trkpt>
      <trkpt lat="42.880009990185499" lon="-7.921779016032815">
        <ele>461.69999999999999</ele>
        <time>2018-05-20T09:10:48Z</time>
      </trkpt>
      <trkpt lat="42.880001021549106" lon="-7.921627974137664">
        <ele>461.10000000000002</ele>
        <time>2018-05-20T09:10:51Z</time>
      </trkpt>
      <trkpt lat="42.8799909632653" lon="-7.921388000249863">
        <ele>460.10000000000002</ele>
        <time>2018-05-20T09:10:56Z</time>
      </trkpt>
      <trkpt lat="42.87998802959919" lon="-7.921006958931685">
        <ele>458</ele>
        <time>2018-05-20T09:11:05Z</time>
      </trkpt>
      <trkpt lat="42.87998802959919" lon="-7.921030009165406">
        <ele>458.19999999999999</ele>
        <time>2018-05-20T09:11:05Z</time>
      </trkpt>
      <trkpt lat="42.879998004063964" lon="-7.920663971453905">
        <ele>456</ele>
        <time>2018-05-20T09:11:13Z</time>
      </trkpt>
      <trkpt lat="42.879998004063964" lon="-7.920656008645892">
        <ele>455.89999999999998</ele>
        <time>2018-05-20T09:11:13Z</time>
      </trkpt>
      <trkpt lat="42.880004039034247" lon="-7.920205984264612">
        <ele>453.19999999999999</ele>
        <time>2018-05-20T09:11:23Z</time>
      </trkpt>
      <trkpt lat="42.879966991022229" lon="-7.91977004148066">
        <ele>450.69999999999999</ele>
        <time>2018-05-20T09:11:33Z</time>
      </trkpt>
      <trkpt lat="42.879918040707707" lon="-7.919396040961146">
        <ele>447.89999999999998</ele>
        <time>2018-05-20T09:11:41Z</time>
      </trkpt>
      <trkpt lat="42.879900019615889" lon="-7.919050035998225">
        <ele>444.80000000000001</ele>
        <time>2018-05-20T09:11:49Z</time>
      </trkpt>
      <trkpt lat="42.879834976047277" lon="-7.918721968308091">
        <ele>441.80000000000001</ele>
        <time>2018-05-20T09:11:56Z</time>
      </trkpt>
      <trkpt lat="42.879788037389517" lon="-7.918436983600259">
        <ele>440.69999999999999</ele>
        <time>2018-05-20T09:12:02Z</time>
      </trkpt>
      <trkpt lat="42.879734979942441" lon="-7.918120985850692">
        <ele>439.39999999999998</ele>
        <time>2018-05-20T09:12:09Z</time>
      </trkpt>
      <trkpt lat="42.879662979394197" lon="-7.917954018339515">
        <ele>438.5</ele>
        <time>2018-05-20T09:12:14Z</time>
      </trkpt>
      <trkpt lat="42.879589973017573" lon="-7.917742962017655">
        <ele>437.39999999999998</ele>
        <time>2018-05-20T09:12:19Z</time>
      </trkpt>
      <trkpt lat="42.879516966640949" lon="-7.917485972866416">
        <ele>436.19999999999999</ele>
        <time>2018-05-20T09:12:25Z</time>
      </trkpt>
      <trkpt lat="42.879408001899719" lon="-7.917185984551907">
        <ele>434.80000000000001</ele>
        <time>2018-05-20T09:12:32Z</time>
      </trkpt>
      <trkpt lat="42.879300964996219" lon="-7.916840985417366">
        <ele>433.60000000000002</ele>
        <time>2018-05-20T09:12:40Z</time>
      </trkpt>
      <trkpt lat="42.879214966669679" lon="-7.916519036516547">
        <ele>432.69999999999999</ele>
        <time>2018-05-20T09:12:47Z</time>
      </trkpt>
      <trkpt lat="42.879150006920099" lon="-7.916232040151954">
        <ele>431.89999999999998</ele>
        <time>2018-05-20T09:12:54Z</time>
      </trkpt>
      <trkpt lat="42.879116982221603" lon="-7.916044034063816">
        <ele>431.89999999999998</ele>
        <time>2018-05-20T09:12:58Z</time>
      </trkpt>
      <trkpt lat="42.879116982221603" lon="-7.915993994101882">
        <ele>431.89999999999998</ele>
        <time>2018-05-20T09:12:59Z</time>
      </trkpt>
      <trkpt lat="42.879116982221603" lon="-7.915918976068497">
        <ele>431.89999999999998</ele>
        <time>2018-05-20T09:13:01Z</time>
      </trkpt>
      <trkpt lat="42.879116982221603" lon="-7.91586197912693">
        <ele>432</ele>
        <time>2018-05-20T09:13:02Z</time>
      </trkpt>
      <trkpt lat="42.879116982221603" lon="-7.915799031034112">
        <ele>432</ele>
        <time>2018-05-20T09:13:03Z</time>
      </trkpt>
      <trkpt lat="42.879127040505409" lon="-7.915729964151979">
        <ele>432.10000000000002</ele>
        <time>2018-05-20T09:13:05Z</time>
      </trkpt>
      <trkpt lat="42.879127040505409" lon="-7.91566701605916">
        <ele>432.10000000000002</ele>
        <time>2018-05-20T09:13:06Z</time>
      </trkpt>
      <trkpt lat="42.879127040505409" lon="-7.91560297831893">
        <ele>432.19999999999999</ele>
        <time>2018-05-20T09:13:08Z</time>
      </trkpt>
      <trkpt lat="42.879127040505409" lon="-7.915552016347647">
        <ele>432.19999999999999</ele>
        <time>2018-05-20T09:13:09Z</time>
      </trkpt>
      <trkpt lat="42.879127040505409" lon="-7.915476998314261">
        <ele>432.19999999999999</ele>
        <time>2018-05-20T09:13:10Z</time>
      </trkpt>
      <trkpt lat="42.879127040505409" lon="-7.915425030514598">
        <ele>432.30000000000001</ele>
        <time>2018-05-20T09:13:12Z</time>
      </trkpt>
      <trkpt lat="42.879122011363506" lon="-7.915373984724283">
        <ele>432</ele>
        <time>2018-05-20T09:13:13Z</time>
      </trkpt>
      <trkpt lat="42.879116982221603" lon="-7.91532201692462">
        <ele>431.69999999999999</ele>
        <time>2018-05-20T09:13:14Z</time>
      </trkpt>
      <trkpt lat="42.87910801358521" lon="-7.915269965305924">
        <ele>431.39999999999998</ele>
        <time>2018-05-20T09:13:15Z</time>
      </trkpt>
      <trkpt lat="42.879084963351488" lon="-7.915212968364358">
        <ele>431</ele>
        <time>2018-05-20T09:13:16Z</time>
      </trkpt>
      <trkpt lat="42.879060991108418" lon="-7.915167035534978">
        <ele>430.60000000000002</ele>
        <time>2018-05-20T09:13:18Z</time>
      </trkpt>
      <trkpt lat="42.879038024693727" lon="-7.915121018886566">
        <ele>430.19999999999999</ele>
        <time>2018-05-20T09:13:19Z</time>
      </trkpt>
      <trkpt lat="42.879010029137135" lon="-7.915057986974716">
        <ele>429.69999999999999</ele>
        <time>2018-05-20T09:13:20Z</time>
      </trkpt>
      <trkpt lat="42.878982033580542" lon="-7.914995038881898">
        <ele>429.10000000000002</ele>
        <time>2018-05-20T09:13:22Z</time>
      </trkpt>
      <trkpt lat="42.878964012488723" lon="-7.914942987263203">
        <ele>428.69999999999999</ele>
        <time>2018-05-20T09:13:23Z</time>
      </trkpt>
      <trkpt lat="42.878940040245652" lon="-7.914880039170384">
        <ele>428.19999999999999</ele>
        <time>2018-05-20T09:13:25Z</time>
      </trkpt>
      <trkpt lat="42.878922019153833" lon="-7.914834022521973">
        <ele>427.80000000000001</ele>
        <time>2018-05-20T09:13:26Z</time>
      </trkpt>
      <trkpt lat="42.878902992233634" lon="-7.914788005873561">
        <ele>427.39999999999998</ele>
        <time>2018-05-20T09:13:27Z</time>
      </trkpt>
      <trkpt lat="42.878874996677041" lon="-7.914712987840176">
        <ele>426.80000000000001</ele>
        <time>2018-05-20T09:13:29Z</time>
      </trkpt>
      <trkpt lat="42.878847001120448" lon="-7.914673006162047">
        <ele>426.30000000000001</ele>
        <time>2018-05-20T09:13:30Z</time>
      </trkpt>
      <trkpt lat="42.878819005563855" lon="-7.914626989513636">
        <ele>425.80000000000001</ele>
        <time>2018-05-20T09:13:32Z</time>
      </trkpt>
      <trkpt lat="42.87878799252212" lon="-7.914580972865224">
        <ele>425.30000000000001</ele>
        <time>2018-05-20T09:13:33Z</time>
      </trkpt>
      <trkpt lat="42.878750022500753" lon="-7.914535040035844">
        <ele>424.69999999999999</ele>
        <time>2018-05-20T09:13:34Z</time>
      </trkpt>
      <trkpt lat="42.878712974488735" lon="-7.914500003680587">
        <ele>424.39999999999998</ele>
        <time>2018-05-20T09:13:36Z</time>
      </trkpt>
      <trkpt lat="42.87867902778089" lon="-7.91446597315371">
        <ele>424</ele>
        <time>2018-05-20T09:13:37Z</time>
      </trkpt>
      <trkpt lat="42.878637034446001" lon="-7.914460022002459">
        <ele>423.89999999999998</ele>
        <time>2018-05-20T09:13:38Z</time>
      </trkpt>
      <trkpt lat="42.878590011969209" lon="-7.914436971768737">
        <ele>423.5</ele>
        <time>2018-05-20T09:13:40Z</time>
      </trkpt>
      <trkpt lat="42.878543995320797" lon="-7.914425991475582">
        <ele>423.30000000000001</ele>
        <time>2018-05-20T09:13:41Z</time>
      </trkpt>
      <trkpt lat="42.878499990329146" lon="-7.914425991475582">
        <ele>423.19999999999999</ele>
        <time>2018-05-20T09:13:42Z</time>
      </trkpt>
      <trkpt lat="42.878466965630651" lon="-7.914403025060892">
        <ele>422.89999999999998</ele>
        <time>2018-05-20T09:13:43Z</time>
      </trkpt>
      <trkpt lat="42.878424972295761" lon="-7.914367988705635">
        <ele>422.5</ele>
        <time>2018-05-20T09:13:45Z</time>
      </trkpt>
      <trkpt lat="42.878379039466381" lon="-7.914339993149042">
        <ele>422.19999999999999</ele>
        <time>2018-05-20T09:13:46Z</time>
      </trkpt>
      <trkpt lat="42.87833696231246" lon="-7.914321972057223">
        <ele>421.89999999999998</ele>
        <time>2018-05-20T09:13:48Z</time>
      </trkpt>
      <trkpt lat="42.878294968977571" lon="-7.91429397650063">
        <ele>421.60000000000002</ele>
        <time>2018-05-20T09:13:49Z</time>
      </trkpt>
      <trkpt lat="42.878258004784584" lon="-7.914259023964405">
        <ele>421.30000000000001</ele>
        <time>2018-05-20T09:13:50Z</time>
      </trkpt>
      <trkpt lat="42.878222968429327" lon="-7.914233962073922">
        <ele>421</ele>
        <time>2018-05-20T09:13:52Z</time>
      </trkpt>
      <trkpt lat="42.878197990357876" lon="-7.914198003709316">
        <ele>420.69999999999999</ele>
        <time>2018-05-20T09:13:53Z</time>
      </trkpt>
      <trkpt lat="42.878159014508128" lon="-7.914166990667582">
        <ele>420.39999999999998</ele>
        <time>2018-05-20T09:13:54Z</time>
      </trkpt>
      <trkpt lat="42.878135964274406" lon="-7.914127008989453">
        <ele>420.10000000000002</ele>
        <time>2018-05-20T09:13:55Z</time>
      </trkpt>
      <trkpt lat="42.878112997859716" lon="-7.914091972634196">
        <ele>419.80000000000001</ele>
        <time>2018-05-20T09:13:56Z</time>
      </trkpt>
      <trkpt lat="42.878107968717813" lon="-7.914029024541378">
        <ele>419.39999999999998</ele>
        <time>2018-05-20T09:13:58Z</time>
      </trkpt>
      <trkpt lat="42.87809900008142" lon="-7.913972027599812">
        <ele>419</ele>
        <time>2018-05-20T09:13:59Z</time>
      </trkpt>
      <trkpt lat="42.878090031445026" lon="-7.913908995687962">
        <ele>418.60000000000002</ele>
        <time>2018-05-20T09:14:00Z</time>
      </trkpt>
      <trkpt lat="42.878085002303123" lon="-7.913855016231537">
        <ele>418.19999999999999</ele>
        <time>2018-05-20T09:14:01Z</time>
      </trkpt>
      <trkpt lat="42.878071004524827" lon="-7.913808999583125">
        <ele>417.89999999999998</ele>
        <time>2018-05-20T09:14:02Z</time>
      </trkpt>
      <trkpt lat="42.878048038110137" lon="-7.913757031783462">
        <ele>417.5</ele>
        <time>2018-05-20T09:14:04Z</time>
      </trkpt>
      <trkpt lat="42.878011995926499" lon="-7.913713026791811">
        <ele>417.39999999999998</ele>
        <time>2018-05-20T09:14:05Z</time>
      </trkpt>
      <trkpt lat="42.877981988713145" lon="-7.913664998486638">
        <ele>417.30000000000001</ele>
        <time>2018-05-20T09:14:07Z</time>
      </trkpt>
      <trkpt lat="42.877962961792946" lon="-7.913608001545072">
        <ele>417.30000000000001</ele>
        <time>2018-05-20T09:14:08Z</time>
      </trkpt>
      <trkpt lat="42.877937983721495" lon="-7.913542035967112">
        <ele>417.30000000000001</ele>
        <time>2018-05-20T09:14:10Z</time>
      </trkpt>
      <trkpt lat="42.877929015085101" lon="-7.913485039025545">
        <ele>417.39999999999998</ele>
        <time>2018-05-20T09:14:11Z</time>
      </trkpt>
      <trkpt lat="42.877929015085101" lon="-7.91341002099216">
        <ele>417.39999999999998</ele>
        <time>2018-05-20T09:14:12Z</time>
      </trkpt>
      <trkpt lat="42.877929015085101" lon="-7.913358975201845">
        <ele>417.5</ele>
        <time>2018-05-20T09:14:14Z</time>
      </trkpt>
      <trkpt lat="42.877933960407972" lon="-7.913298960775137">
        <ele>417.60000000000002</ele>
        <time>2018-05-20T09:14:15Z</time>
      </trkpt>
      <trkpt lat="42.877947958186269" lon="-7.913253027945757">
        <ele>417.69999999999999</ele>
        <time>2018-05-20T09:14:16Z</time>
      </trkpt>
      <trkpt lat="42.877962039783597" lon="-7.913204999640584">
        <ele>417.69999999999999</ele>
        <time>2018-05-20T09:14:17Z</time>
      </trkpt>
      <trkpt lat="42.877971008419991" lon="-7.913148002699018">
        <ele>417.80000000000001</ele>
        <time>2018-05-20T09:14:18Z</time>
      </trkpt>
      <trkpt lat="42.877971008419991" lon="-7.913096034899354">
        <ele>417.89999999999998</ele>
        <time>2018-05-20T09:14:19Z</time>
      </trkpt>
      <trkpt lat="42.877971008419991" lon="-7.913015987724066">
        <ele>418</ele>
        <time>2018-05-20T09:14:21Z</time>
      </trkpt>
      <trkpt lat="42.877965979278088" lon="-7.912957984954119">
        <ele>418</ele>
        <time>2018-05-20T09:14:22Z</time>
      </trkpt>
      <trkpt lat="42.877947958186269" lon="-7.912889001891017">
        <ele>418.19999999999999</ele>
        <time>2018-05-20T09:14:24Z</time>
      </trkpt>
      <trkpt lat="42.877923985943198" lon="-7.912825969979167">
        <ele>418.5</ele>
        <time>2018-05-20T09:14:26Z</time>
      </trkpt>
      <trkpt lat="42.877895990386605" lon="-7.912763021886349">
        <ele>418.89999999999998</ele>
        <time>2018-05-20T09:14:27Z</time>
      </trkpt>
      <trkpt lat="42.877867994830012" lon="-7.912723040208221">
        <ele>419.10000000000002</ele>
        <time>2018-05-20T09:14:28Z</time>
      </trkpt>
      <trkpt lat="42.877849973738194" lon="-7.912677023559809">
        <ele>419.30000000000001</ele>
        <time>2018-05-20T09:14:30Z</time>
      </trkpt>
      <trkpt lat="42.877833964303136" lon="-7.912618014961481">
        <ele>419.69999999999999</ele>
        <time>2018-05-20T09:14:31Z</time>
      </trkpt>
      <trkpt lat="42.877828013151884" lon="-7.912564035505056">
        <ele>420</ele>
        <time>2018-05-20T09:14:32Z</time>
      </trkpt>
      <trkpt lat="42.877814015373588" lon="-7.912482982501388">
        <ele>420.60000000000002</ele>
        <time>2018-05-20T09:14:34Z</time>
      </trkpt>
      <trkpt lat="42.877800017595291" lon="-7.912420034408569">
        <ele>421</ele>
        <time>2018-05-20T09:14:35Z</time>
      </trkpt>
      <trkpt lat="42.877786019816995" lon="-7.912368988618255">
        <ele>421.30000000000001</ele>
        <time>2018-05-20T09:14:37Z</time>
      </trkpt>
      <trkpt lat="42.877765987068415" lon="-7.912325989454985">
        <ele>421.60000000000002</ele>
        <time>2018-05-20T09:14:38Z</time>
      </trkpt>
      <trkpt lat="42.877707984298468" lon="-7.912275027483702">
        <ele>422.10000000000002</ele>
        <time>2018-05-20T09:14:40Z</time>
      </trkpt>
      <trkpt lat="42.877589967101812" lon="-7.912175031378865">
        <ele>423</ele>
        <time>2018-05-20T09:14:44Z</time>
      </trkpt>
      <trkpt lat="42.877458035945892" lon="-7.912052990868688">
        <ele>424.5</ele>
        <time>2018-05-20T09:14:49Z</time>
      </trkpt>
      <trkpt lat="42.877439009025693" lon="-7.912006974220276">
        <ele>425.30000000000001</ele>
        <time>2018-05-20T09:14:50Z</time>
      </trkpt>
      <trkpt lat="42.877415958791971" lon="-7.911956012248993">
        <ele>426.10000000000002</ele>
        <time>2018-05-20T09:14:51Z</time>
      </trkpt>
      <trkpt lat="42.877392992377281" lon="-7.911898009479046">
        <ele>427</ele>
        <time>2018-05-20T09:14:52Z</time>
      </trkpt>
      <trkpt lat="42.877350999042392" lon="-7.911829026415944">
        <ele>428.19999999999999</ele>
        <time>2018-05-20T09:14:54Z</time>
      </trkpt>
      <trkpt lat="42.877316968515515" lon="-7.911775968968868">
        <ele>429.19999999999999</ele>
        <time>2018-05-20T09:14:56Z</time>
      </trkpt>
      <trkpt lat="42.877287967130542" lon="-7.911699023097754">
        <ele>430.5</ele>
        <time>2018-05-20T09:14:58Z</time>
      </trkpt>
      <trkpt lat="42.877223007380962" lon="-7.911453014239669">
        <ele>434.69999999999999</ele>
        <time>2018-05-20T09:15:04Z</time>
      </trkpt>
      <trkpt lat="42.877147989347577" lon="-7.911210022866726">
        <ele>438.89999999999998</ele>
        <time>2018-05-20T09:15:09Z</time>
      </trkpt>
      <trkpt lat="42.877050004899502" lon="-7.910903999581933">
        <ele>442.39999999999998</ele>
        <time>2018-05-20T09:15:17Z</time>
      </trkpt>
      <trkpt lat="42.876994013786316" lon="-7.910667965188623">
        <ele>444.80000000000001</ele>
        <time>2018-05-20T09:15:22Z</time>
      </trkpt>
      <trkpt lat="42.876987978816032" lon="-7.910667965188623">
        <ele>444.80000000000001</ele>
        <time>2018-05-20T09:15:22Z</time>
      </trkpt>
      <trkpt lat="42.876926036551595" lon="-7.91044601239264">
        <ele>446.89999999999998</ele>
        <time>2018-05-20T09:15:28Z</time>
      </trkpt>
      <trkpt lat="42.876865016296506" lon="-7.910272004082799">
        <ele>448</ele>
        <time>2018-05-20T09:15:32Z</time>
      </trkpt>
      <trkpt lat="42.876813970506191" lon="-7.910046027973294">
        <ele>449.10000000000002</ele>
        <time>2018-05-20T09:15:37Z</time>
      </trkpt>
      <trkpt lat="42.876727972179651" lon="-7.909863973036408">
        <ele>450.10000000000002</ele>
        <time>2018-05-20T09:15:42Z</time>
      </trkpt>
      <trkpt lat="42.876661000773311" lon="-7.909756014123559">
        <ele>450.69999999999999</ele>
        <time>2018-05-20T09:15:45Z</time>
      </trkpt>
      <trkpt lat="42.876584976911545" lon="-7.909670015797019">
        <ele>451.19999999999999</ele>
        <time>2018-05-20T09:15:48Z</time>
      </trkpt>
      <trkpt lat="42.876507025212049" lon="-7.909562978893518">
        <ele>451.80000000000001</ele>
        <time>2018-05-20T09:15:51Z</time>
      </trkpt>
      <trkpt lat="42.876507025212049" lon="-7.909555016085506">
        <ele>451.80000000000001</ele>
        <time>2018-05-20T09:15:51Z</time>
      </trkpt>
      <trkpt lat="42.876403005793691" lon="-7.909438004717231">
        <ele>452.39999999999998</ele>
        <time>2018-05-20T09:15:55Z</time>
      </trkpt>
      <trkpt lat="42.876235032454133" lon="-7.909289980307221">
        <ele>453</ele>
        <time>2018-05-20T09:16:01Z</time>
      </trkpt>
      <trkpt lat="42.876095976680517" lon="-7.909151008352637">
        <ele>453.10000000000002</ele>
        <time>2018-05-20T09:16:06Z</time>
      </trkpt>
      <trkpt lat="42.875986006110907" lon="-7.908998960629106">
        <ele>453.19999999999999</ele>
        <time>2018-05-20T09:16:11Z</time>
      </trkpt>
      <trkpt lat="42.875986006110907" lon="-7.908990997821093">
        <ele>453.30000000000001</ele>
        <time>2018-05-20T09:16:11Z</time>
      </trkpt>
      <trkpt lat="42.875858014449477" lon="-7.90881103836">
        <ele>453.39999999999998</ele>
        <time>2018-05-20T09:16:16Z</time>
      </trkpt>
      <trkpt lat="42.875753995031118" lon="-7.908593025058508">
        <ele>453.30000000000001</ele>
        <time>2018-05-20T09:16:22Z</time>
      </trkpt>
      <trkpt lat="42.875645030289888" lon="-7.908293958753347">
        <ele>453</ele>
        <time>2018-05-20T09:16:29Z</time>
      </trkpt>
      <trkpt lat="42.875581998378038" lon="-7.908024983480573">
        <ele>452.80000000000001</ele>
        <time>2018-05-20T09:16:35Z</time>
      </trkpt>
      <trkpt lat="42.875515026971698" lon="-7.907850975170732">
        <ele>452.5</ele>
        <time>2018-05-20T09:16:40Z</time>
      </trkpt>
      <trkpt lat="42.875491976737976" lon="-7.907727006822825">
        <ele>452.39999999999998</ele>
        <time>2018-05-20T09:16:42Z</time>
      </trkpt>
      <trkpt lat="42.875458030030131" lon="-7.90758803486824">
        <ele>452.19999999999999</ele>
        <time>2018-05-20T09:16:46Z</time>
      </trkpt>
      <trkpt lat="42.875416036695242" lon="-7.907402962446213">
        <ele>452</ele>
        <time>2018-05-20T09:16:50Z</time>
      </trkpt>
      <trkpt lat="42.875388041138649" lon="-7.907187966629863">
        <ele>451.80000000000001</ele>
        <time>2018-05-20T09:16:54Z</time>
      </trkpt>
      <trkpt lat="42.875331966206431" lon="-7.906884960830212">
        <ele>451.80000000000001</ele>
        <time>2018-05-20T09:17:01Z</time>
      </trkpt>
      <trkpt lat="42.875310005620122" lon="-7.906663008034229">
        <ele>452.19999999999999</ele>
        <time>2018-05-20T09:17:06Z</time>
      </trkpt>
      <trkpt lat="42.875282010063529" lon="-7.906464021652937">
        <ele>452.5</ele>
        <time>2018-05-20T09:17:11Z</time>
      </trkpt>
      <trkpt lat="42.875258959829807" lon="-7.906336029991508">
        <ele>452.60000000000002</ele>
        <time>2018-05-20T09:17:13Z</time>
      </trkpt>
      <trkpt lat="42.87524001672864" lon="-7.906183982267976">
        <ele>452.80000000000001</ele>
        <time>2018-05-20T09:17:17Z</time>
      </trkpt>
      <trkpt lat="42.875234987586737" lon="-7.906011985614896">
        <ele>453</ele>
        <time>2018-05-20T09:17:20Z</time>
      </trkpt>
      <trkpt lat="42.875234987586737" lon="-7.906004022806883">
        <ele>453.10000000000002</ele>
        <time>2018-05-20T09:17:21Z</time>
      </trkpt>
      <trkpt lat="42.875216966494918" lon="-7.905838983133435">
        <ele>453.19999999999999</ele>
        <time>2018-05-20T09:17:24Z</time>
      </trkpt>
      <trkpt lat="42.875170027837157" lon="-7.905595991760492">
        <ele>453.19999999999999</ele>
        <time>2018-05-20T09:17:30Z</time>
      </trkpt>
      <trkpt lat="42.875160975381732" lon="-7.905545029789209">
        <ele>453.30000000000001</ele>
        <time>2018-05-20T09:17:31Z</time>
      </trkpt>
      <trkpt lat="42.875146977603436" lon="-7.905470011755824">
        <ele>453.30000000000001</ele>
        <time>2018-05-20T09:17:32Z</time>
      </trkpt>
      <trkpt lat="42.875132979825139" lon="-7.905388958752155">
        <ele>453.39999999999998</ele>
        <time>2018-05-20T09:17:34Z</time>
      </trkpt>
      <trkpt lat="42.875124011188745" lon="-7.905326010659337">
        <ele>453.5</ele>
        <time>2018-05-20T09:17:36Z</time>
      </trkpt>
      <trkpt lat="42.875104984268546" lon="-7.905262978747487">
        <ele>453.60000000000002</ele>
        <time>2018-05-20T09:17:37Z</time>
      </trkpt>
      <trkpt lat="42.875096015632153" lon="-7.905211010947824">
        <ele>453.69999999999999</ele>
        <time>2018-05-20T09:17:38Z</time>
      </trkpt>
      <trkpt lat="42.87509098649025" lon="-7.905159965157509">
        <ele>453.80000000000001</ele>
        <time>2018-05-20T09:17:39Z</time>
      </trkpt>
      <trkpt lat="42.87507195957005" lon="-7.905107997357845">
        <ele>453.80000000000001</ele>
        <time>2018-05-20T09:17:41Z</time>
      </trkpt>
      <trkpt lat="42.875057961791754" lon="-7.905056029558182">
        <ele>453.89999999999998</ele>
        <time>2018-05-20T09:17:42Z</time>
      </trkpt>
      <trkpt lat="42.87504899315536" lon="-7.904992997646332">
        <ele>454</ele>
        <time>2018-05-20T09:17:43Z</time>
      </trkpt>
      <trkpt lat="42.875029966235161" lon="-7.904943041503429">
        <ele>454.10000000000002</ele>
        <time>2018-05-20T09:17:45Z</time>
      </trkpt>
      <trkpt lat="42.874998031184077" lon="-7.904856959357858">
        <ele>454.19999999999999</ele>
        <time>2018-05-20T09:17:47Z</time>
      </trkpt>
      <trkpt lat="42.874973975121975" lon="-7.904787976294756">
        <ele>454.30000000000001</ele>
        <time>2018-05-20T09:17:48Z</time>
      </trkpt>
      <trkpt lat="42.874956037849188" lon="-7.904718993231654">
        <ele>454.39999999999998</ele>
        <time>2018-05-20T09:17:50Z</time>
      </trkpt>
      <trkpt lat="42.874931981787086" lon="-7.904661996290088">
        <ele>454.39999999999998</ele>
        <time>2018-05-20T09:17:51Z</time>
      </trkpt>
      <trkpt lat="42.874910021200776" lon="-7.904603993520141">
        <ele>454.5</ele>
        <time>2018-05-20T09:17:53Z</time>
      </trkpt>
      <trkpt lat="42.874886970967054" lon="-7.904564011842012">
        <ele>454.60000000000002</ele>
        <time>2018-05-20T09:17:54Z</time>
      </trkpt>
      <trkpt lat="42.874864004552364" lon="-7.904535010457039">
        <ele>454.60000000000002</ele>
        <time>2018-05-20T09:17:55Z</time>
      </trkpt>
      <trkpt lat="42.874830979853868" lon="-7.904511960223317">
        <ele>454.60000000000002</ele>
        <time>2018-05-20T09:17:56Z</time>
      </trkpt>
      <trkpt lat="42.874802984297276" lon="-7.904488993808627">
        <ele>454.60000000000002</ele>
        <time>2018-05-20T09:17:57Z</time>
      </trkpt>
      <trkpt lat="42.874766020104289" lon="-7.904471978545189">
        <ele>454.60000000000002</ele>
        <time>2018-05-20T09:17:58Z</time>
      </trkpt>
      <trkpt lat="42.874728972092271" lon="-7.904449012130499">
        <ele>454.60000000000002</ele>
        <time>2018-05-20T09:17:59Z</time>
      </trkpt>
      <trkpt lat="42.874700976535678" lon="-7.904420010745525">
        <ele>454.60000000000002</ele>
        <time>2018-05-20T09:18:00Z</time>
      </trkpt>
      <trkpt lat="42.874668035656214" lon="-7.904385980218649">
        <ele>454.69999999999999</ele>
        <time>2018-05-20T09:18:01Z</time>
      </trkpt>
      <trkpt lat="42.874626964330673" lon="-7.904367037117481">
        <ele>454.69999999999999</ele>
        <time>2018-05-20T09:18:03Z</time>
      </trkpt>
      <trkpt lat="42.874593017622828" lon="-7.904354967176914">
        <ele>454.69999999999999</ele>
        <time>2018-05-20T09:18:04Z</time>
      </trkpt>
      <trkpt lat="42.874554041773081" lon="-7.904349016025662">
        <ele>454.60000000000002</ele>
        <time>2018-05-20T09:18:05Z</time>
      </trkpt>
      <trkpt lat="42.874516993761063" lon="-7.904338035732508">
        <ele>454.5</ele>
        <time>2018-05-20T09:18:06Z</time>
      </trkpt>
      <trkpt lat="42.87448899820447" lon="-7.904302999377251">
        <ele>454.69999999999999</ele>
        <time>2018-05-20T09:18:07Z</time>
      </trkpt>
      <trkpt lat="42.874453961849213" lon="-7.904261006042361">
        <ele>454.89999999999998</ele>
        <time>2018-05-20T09:18:09Z</time>
      </trkpt>
      <trkpt lat="42.874439964070916" lon="-7.904209960252047">
        <ele>455.19999999999999</ele>
        <time>2018-05-20T09:18:10Z</time>
      </trkpt>
      <trkpt lat="42.874420015141368" lon="-7.904143994674087">
        <ele>455.60000000000002</ele>
        <time>2018-05-20T09:18:11Z</time>
      </trkpt>
      <trkpt lat="42.874420015141368" lon="-7.904091021046042">
        <ele>456</ele>
        <time>2018-05-20T09:18:12Z</time>
      </trkpt>
      <trkpt lat="42.874420015141368" lon="-7.904037041589618">
        <ele>456.30000000000001</ele>
        <time>2018-05-20T09:18:14Z</time>
      </trkpt>
      <trkpt lat="42.874420015141368" lon="-7.903969986364245">
        <ele>456.80000000000001</ele>
        <time>2018-05-20T09:18:15Z</time>
      </trkpt>
      <trkpt lat="42.874424960464239" lon="-7.903918018564582">
        <ele>457.19999999999999</ele>
        <time>2018-05-20T09:18:16Z</time>
      </trkpt>
      <trkpt lat="42.874437030404806" lon="-7.903869990259409">
        <ele>457.60000000000002</ele>
        <time>2018-05-20T09:18:17Z</time>
      </trkpt>
      <trkpt lat="42.874482963234186" lon="-7.903820034116507">
        <ele>458.10000000000002</ele>
        <time>2018-05-20T09:18:19Z</time>
      </trkpt>
      <trkpt lat="42.874496961012483" lon="-7.90378499776125">
        <ele>458.39999999999998</ele>
        <time>2018-05-20T09:18:20Z</time>
      </trkpt>
      <trkpt lat="42.874514982104301" lon="-7.9037219658494">
        <ele>459</ele>
        <time>2018-05-20T09:18:21Z</time>
      </trkpt>
      <trkpt lat="42.874528979882598" lon="-7.903669998049736">
        <ele>459.5</ele>
        <time>2018-05-20T09:18:23Z</time>
      </trkpt>
      <trkpt lat="42.874528979882598" lon="-7.903606966137886">
        <ele>460</ele>
        <time>2018-05-20T09:18:24Z</time>
      </trkpt>
      <trkpt lat="42.874528979882598" lon="-7.903544018045068">
        <ele>460.5</ele>
        <time>2018-05-20T09:18:25Z</time>
      </trkpt>
      <trkpt lat="42.874528979882598" lon="-7.903490038588643">
        <ele>461</ele>
        <time>2018-05-20T09:18:27Z</time>
      </trkpt>
      <trkpt lat="42.874520011246204" lon="-7.903437986969948">
        <ele>461.39999999999998</ele>
        <time>2018-05-20T09:18:28Z</time>
      </trkpt>
      <trkpt lat="42.874510958790779" lon="-7.90337897837162">
        <ele>461.80000000000001</ele>
        <time>2018-05-20T09:18:29Z</time>
      </trkpt>
      <trkpt lat="42.874496961012483" lon="-7.903331033885479">
        <ele>462.19999999999999</ele>
        <time>2018-05-20T09:18:30Z</time>
      </trkpt>
      <trkpt lat="42.874478017911315" lon="-7.903245035558939">
        <ele>462.80000000000001</ele>
        <time>2018-05-20T09:18:32Z</time>
      </trkpt>
      <trkpt lat="42.87446896545589" lon="-7.90316398255527">
        <ele>463.39999999999998</ele>
        <time>2018-05-20T09:18:34Z</time>
      </trkpt>
      <trkpt lat="42.874472988769412" lon="-7.903101034462452">
        <ele>464</ele>
        <time>2018-05-20T09:18:35Z</time>
      </trkpt>
      <trkpt lat="42.874482963234186" lon="-7.903038002550602">
        <ele>464.5</ele>
        <time>2018-05-20T09:18:37Z</time>
      </trkpt>
      <trkpt lat="42.874492015689611" lon="-7.902986034750938">
        <ele>465</ele>
        <time>2018-05-20T09:18:38Z</time>
      </trkpt>
      <trkpt lat="42.874502995982766" lon="-7.902872962877154">
        <ele>465.89999999999998</ele>
        <time>2018-05-20T09:18:40Z</time>
      </trkpt>
      <trkpt lat="42.874508025124669" lon="-7.902815965935588">
        <ele>466.30000000000001</ele>
        <time>2018-05-20T09:18:42Z</time>
      </trkpt>
      <trkpt lat="42.874516993761063" lon="-7.902757963165641">
        <ele>466.69999999999999</ele>
        <time>2018-05-20T09:18:43Z</time>
      </trkpt>
      <trkpt lat="42.874530991539359" lon="-7.902717981487513">
        <ele>467</ele>
        <time>2018-05-20T09:18:44Z</time>
      </trkpt>
      <trkpt lat="42.874550018459558" lon="-7.902655033394694">
        <ele>467.5</ele>
        <time>2018-05-20T09:18:45Z</time>
      </trkpt>
      <trkpt lat="42.874558987095952" lon="-7.902614967897534">
        <ele>467.69999999999999</ele>
        <time>2018-05-20T09:18:46Z</time>
      </trkpt>
      <trkpt lat="42.874558987095952" lon="-7.902546990662813">
        <ele>468.19999999999999</ele>
        <time>2018-05-20T09:18:48Z</time>
      </trkpt>
      <trkpt lat="42.874544989317656" lon="-7.90245596319437">
        <ele>468.69999999999999</ele>
        <time>2018-05-20T09:18:50Z</time>
      </trkpt>
      <trkpt lat="42.874536020681262" lon="-7.90236895903945">
        <ele>469.19999999999999</ele>
        <time>2018-05-20T09:18:52Z</time>
      </trkpt>
      <trkpt lat="42.874525962397456" lon="-7.902299975976348">
        <ele>469.69999999999999</ele>
        <time>2018-05-20T09:18:53Z</time>
      </trkpt>
      <trkpt lat="42.874525962397456" lon="-7.902230992913246">
        <ele>470.10000000000002</ele>
        <time>2018-05-20T09:18:55Z</time>
      </trkpt>
      <trkpt lat="42.874525962397456" lon="-7.902156980708242">
        <ele>470.60000000000002</ele>
        <time>2018-05-20T09:18:56Z</time>
      </trkpt>
      <trkpt lat="42.874536020681262" lon="-7.902080034837127">
        <ele>471.10000000000002</ele>
        <time>2018-05-20T09:18:58Z</time>
      </trkpt>
      <trkpt lat="42.874544989317656" lon="-7.9019829723984">
        <ele>472.5</ele>
        <time>2018-05-20T09:19:00Z</time>
      </trkpt>
      <trkpt lat="42.874550018459558" lon="-7.901970986276865">
        <ele>472.69999999999999</ele>
        <time>2018-05-20T09:19:00Z</time>
      </trkpt>
      <trkpt lat="42.874564016237855" lon="-7.901919018477202">
        <ele>473.39999999999998</ele>
        <time>2018-05-20T09:19:02Z</time>
      </trkpt>
      <trkpt lat="42.874572984874249" lon="-7.901870990172029">
        <ele>474.10000000000002</ele>
        <time>2018-05-20T09:19:03Z</time>
      </trkpt>
      <trkpt lat="42.874578014016151" lon="-7.901811981573701">
        <ele>474.89999999999998</ele>
        <time>2018-05-20T09:19:04Z</time>
      </trkpt>
      <trkpt lat="42.874578014016151" lon="-7.901760013774037">
        <ele>475.69999999999999</ele>
        <time>2018-05-20T09:19:05Z</time>
      </trkpt>
      <trkpt lat="42.874558987095952" lon="-7.901708967983723">
        <ele>476.39999999999998</ele>
        <time>2018-05-20T09:19:06Z</time>
      </trkpt>
      <trkpt lat="42.874525962397456" lon="-7.901674015447497">
        <ele>477</ele>
        <time>2018-05-20T09:19:08Z</time>
      </trkpt>
      <trkpt lat="42.874494027346373" lon="-7.901649037376046">
        <ele>477.5</ele>
        <time>2018-05-20T09:19:09Z</time>
      </trkpt>
      <trkpt lat="42.87446603178978" lon="-7.901620035991073">
        <ele>478</ele>
        <time>2018-05-20T09:19:10Z</time>
      </trkpt>
      <trkpt lat="42.874427977949381" lon="-7.901575025171042">
        <ele>478.69999999999999</ele>
        <time>2018-05-20T09:19:11Z</time>
      </trkpt>
      <trkpt lat="42.874405011534691" lon="-7.90152900852263">
        <ele>479.5</ele>
        <time>2018-05-20T09:19:13Z</time>
      </trkpt>
      <trkpt lat="42.874370981007814" lon="-7.901500007137656">
        <ele>480</ele>
        <time>2018-05-20T09:19:14Z</time>
      </trkpt>
      <trkpt lat="42.874352037906647" lon="-7.901460025459528">
        <ele>480.69999999999999</ele>
        <time>2018-05-20T09:19:15Z</time>
      </trkpt>
      <trkpt lat="42.874323958531022" lon="-7.901431024074554">
        <ele>481.19999999999999</ele>
        <time>2018-05-20T09:19:16Z</time>
      </trkpt>
      <trkpt lat="42.874295962974429" lon="-7.901378972455859">
        <ele>482.10000000000002</ele>
        <time>2018-05-20T09:19:17Z</time>
      </trkpt>
      <trkpt lat="42.874263022094965" lon="-7.901316024363041">
        <ele>483.10000000000002</ele>
        <time>2018-05-20T09:19:19Z</time>
      </trkpt>
      <trkpt lat="42.874237960204482" lon="-7.901274031028152">
        <ele>483.89999999999998</ele>
        <time>2018-05-20T09:19:20Z</time>
      </trkpt>
      <trkpt lat="42.874181969091296" lon="-7.901160959154367">
        <ele>485.39999999999998</ele>
        <time>2018-05-20T09:19:23Z</time>
      </trkpt>
      <trkpt lat="42.874112986028194" lon="-7.901037996634841">
        <ele>487</ele>
        <time>2018-05-20T09:19:27Z</time>
      </trkpt>
      <trkpt lat="42.874032016843557" lon="-7.900900030508637">
        <ele>488.80000000000001</ele>
        <time>2018-05-20T09:19:30Z</time>
      </trkpt>
      <trkpt lat="42.873940989375114" lon="-7.900721998885274">
        <ele>491</ele>
        <time>2018-05-20T09:19:35Z</time>
      </trkpt>
      <trkpt lat="42.873912993818521" lon="-7.900558970868588">
        <ele>492.89999999999998</ele>
        <time>2018-05-20T09:19:39Z</time>
      </trkpt>
      <trkpt lat="42.873904025182128" lon="-7.900536004453898">
        <ele>493.19999999999999</ele>
        <time>2018-05-20T09:19:39Z</time>
      </trkpt>
      <trkpt lat="42.873880974948406" lon="-7.90049996227026">
        <ele>493.60000000000002</ele>
        <time>2018-05-20T09:19:40Z</time>
      </trkpt>
      <trkpt lat="42.873852979391813" lon="-7.900430979207158">
        <ele>494.5</ele>
        <time>2018-05-20T09:19:42Z</time>
      </trkpt>
      <trkpt lat="42.87382498383522" lon="-7.90039099752903">
        <ele>494.80000000000001</ele>
        <time>2018-05-20T09:19:43Z</time>
      </trkpt>
      <trkpt lat="42.87380201742053" lon="-7.900332994759083">
        <ele>495</ele>
        <time>2018-05-20T09:19:45Z</time>
      </trkpt>
      <trkpt lat="42.873763963580132" lon="-7.9002820327878">
        <ele>495.30000000000001</ele>
        <time>2018-05-20T09:19:46Z</time>
      </trkpt>
      <trkpt lat="42.873721970245242" lon="-7.900236016139388">
        <ele>495.19999999999999</ele>
        <time>2018-05-20T09:19:48Z</time>
      </trkpt>
      <trkpt lat="42.873693974688649" lon="-7.90019603446126">
        <ele>495.10000000000002</ele>
        <time>2018-05-20T09:19:49Z</time>
      </trkpt>
      <trkpt lat="42.873662039637566" lon="-7.900160998106003">
        <ele>494.89999999999998</ele>
        <time>2018-05-20T09:19:50Z</time>
      </trkpt>
      <trkpt lat="42.873623985797167" lon="-7.900126967579126">
        <ele>494.69999999999999</ele>
        <time>2018-05-20T09:19:52Z</time>
      </trkpt>
      <trkpt lat="42.87358702160418" lon="-7.900085980072618">
        <ele>494.5</ele>
        <time>2018-05-20T09:19:53Z</time>
      </trkpt>
      <trkpt lat="42.873539999127388" lon="-7.900045998394489">
        <ele>494.19999999999999</ele>
        <time>2018-05-20T09:19:55Z</time>
      </trkpt>
      <trkpt lat="42.873507980257273" lon="-7.900018002837896">
        <ele>494.10000000000002</ele>
        <time>2018-05-20T09:19:56Z</time>
      </trkpt>
      <trkpt lat="42.873475039377809" lon="-7.899995036423206">
        <ele>493.89999999999998</ele>
        <time>2018-05-20T09:19:57Z</time>
      </trkpt>
      <trkpt lat="42.873434973880649" lon="-7.899977015331388">
        <ele>493.60000000000002</ele>
        <time>2018-05-20T09:19:58Z</time>
      </trkpt>
      <trkpt lat="42.873388035222888" lon="-7.899977015331388">
        <ele>493.19999999999999</ele>
        <time>2018-05-20T09:20:00Z</time>
      </trkpt>
      <trkpt lat="42.873369008302689" lon="-7.899913983419538">
        <ele>493.30000000000001</ele>
        <time>2018-05-20T09:20:01Z</time>
      </trkpt>
      <trkpt lat="42.87333196029067" lon="-7.899851035326719">
        <ele>493.19999999999999</ele>
        <time>2018-05-20T09:20:03Z</time>
      </trkpt>
      <trkpt lat="42.873290972784162" lon="-7.899793032556772">
        <ele>493.10000000000002</ele>
        <time>2018-05-20T09:20:05Z</time>
      </trkpt>
      <trkpt lat="42.873259037733078" lon="-7.899765037000179">
        <ele>492.89999999999998</ele>
        <time>2018-05-20T09:20:06Z</time>
      </trkpt>
      <trkpt lat="42.873220983892679" lon="-7.899730000644922">
        <ele>492.69999999999999</ele>
        <time>2018-05-20T09:20:07Z</time>
      </trkpt>
      <trkpt lat="42.873170021921396" lon="-7.899683983996511">
        <ele>492.5</ele>
        <time>2018-05-20T09:20:09Z</time>
      </trkpt>
      <trkpt lat="42.873141020536423" lon="-7.899650959298015">
        <ele>492.39999999999998</ele>
        <time>2018-05-20T09:20:10Z</time>
      </trkpt>
      <trkpt lat="42.873102966696024" lon="-7.89963997900486">
        <ele>492.19999999999999</ele>
        <time>2018-05-20T09:20:11Z</time>
      </trkpt>
      <trkpt lat="42.873069019988179" lon="-7.89961701259017">
        <ele>492</ele>
        <time>2018-05-20T09:20:12Z</time>
      </trkpt>
      <trkpt lat="42.873035995289683" lon="-7.899564960971475">
        <ele>492</ele>
        <time>2018-05-20T09:20:14Z</time>
      </trkpt>
      <trkpt lat="42.87300799973309" lon="-7.899519028142095">
        <ele>492</ele>
        <time>2018-05-20T09:20:15Z</time>
      </trkpt>
      <trkpt lat="42.872980004176497" lon="-7.899484997615218">
        <ele>492</ele>
        <time>2018-05-20T09:20:16Z</time>
      </trkpt>
      <trkpt lat="42.872947985306382" lon="-7.899433029815555">
        <ele>492.10000000000002</ele>
        <time>2018-05-20T09:20:18Z</time>
      </trkpt>
      <trkpt lat="42.87290096282959" lon="-7.899369997903705">
        <ele>492.5</ele>
        <time>2018-05-20T09:20:20Z</time>
      </trkpt>
      <trkpt lat="42.872886965051293" lon="-7.899290034547448">
        <ele>493.10000000000002</ele>
        <time>2018-05-20T09:20:21Z</time>
      </trkpt>
      <trkpt lat="42.872871961444616" lon="-7.899243012070656">
        <ele>493.5</ele>
        <time>2018-05-20T09:20:22Z</time>
      </trkpt>
      <trkpt lat="42.872840026393533" lon="-7.899171011522412">
        <ele>494.19999999999999</ele>
        <time>2018-05-20T09:20:24Z</time>
      </trkpt>
      <trkpt lat="42.872816976159811" lon="-7.899130024015904">
        <ele>494.60000000000002</ele>
        <time>2018-05-20T09:20:25Z</time>
      </trkpt>
      <trkpt lat="42.872789986431599" lon="-7.899079984053969">
        <ele>495.10000000000002</ele>
        <time>2018-05-20T09:20:27Z</time>
      </trkpt>
      <trkpt lat="42.872767020016909" lon="-7.899040002375841">
        <ele>495.5</ele>
        <time>2018-05-20T09:20:28Z</time>
      </trkpt>
      <trkpt lat="42.872736006975174" lon="-7.899006977677345">
        <ele>495.89999999999998</ele>
        <time>2018-05-20T09:20:29Z</time>
      </trkpt>
      <trkpt lat="42.872672975063324" lon="-7.898976970463991">
        <ele>496.60000000000002</ele>
        <time>2018-05-20T09:20:31Z</time>
      </trkpt>
      <trkpt lat="42.872549006715417" lon="-7.898805979639292">
        <ele>498</ele>
        <time>2018-05-20T09:20:36Z</time>
      </trkpt>
      <trkpt lat="42.872452028095722" lon="-7.898741019889712">
        <ele>498.80000000000001</ele>
        <time>2018-05-20T09:20:40Z</time>
      </trkpt>
      <trkpt lat="42.872309032827616" lon="-7.898481013253331">
        <ele>500.89999999999998</ele>
        <time>2018-05-20T09:20:47Z</time>
      </trkpt>
      <trkpt lat="42.872216999530792" lon="-7.898352015763521">
        <ele>501.89999999999998</ele>
        <time>2018-05-20T09:20:50Z</time>
      </trkpt>
      <trkpt lat="42.872137958183885" lon="-7.898226035758853">
        <ele>502.69999999999999</ele>
        <time>2018-05-20T09:20:54Z</time>
      </trkpt>
      <trkpt lat="42.872066963464022" lon="-7.898190999403596">
        <ele>503.10000000000002</ele>
        <time>2018-05-20T09:20:56Z</time>
      </trkpt>
      <trkpt lat="42.871968979015946" lon="-7.898126039654017">
        <ele>503.5</ele>
        <time>2018-05-20T09:21:00Z</time>
      </trkpt>
      <trkpt lat="42.871833024546504" lon="-7.897999975830317">
        <ele>504.10000000000002</ele>
        <time>2018-05-20T09:21:04Z</time>
      </trkpt>
      <trkpt lat="42.871826989576221" lon="-7.897999975830317">
        <ele>504.10000000000002</ele>
        <time>2018-05-20T09:21:05Z</time>
      </trkpt>
      <trkpt lat="42.871778961271048" lon="-7.897888999432325">
        <ele>504.39999999999998</ele>
        <time>2018-05-20T09:21:07Z</time>
      </trkpt>
      <trkpt lat="42.871731016784906" lon="-7.897735023871064">
        <ele>504.80000000000001</ele>
        <time>2018-05-20T09:21:11Z</time>
      </trkpt>
      <trkpt lat="42.871634038165212" lon="-7.897594040259719">
        <ele>505.10000000000002</ele>
        <time>2018-05-20T09:21:15Z</time>
      </trkpt>
      <trkpt lat="42.871549967676401" lon="-7.897427994757891">
        <ele>505.30000000000001</ele>
        <time>2018-05-20T09:21:20Z</time>
      </trkpt>
      <trkpt lat="42.871463969349861" lon="-7.897132029756904">
        <ele>505.5</ele>
        <time>2018-05-20T09:21:27Z</time>
      </trkpt>
      <trkpt lat="42.871420970186591" lon="-7.89693002589047">
        <ele>505.89999999999998</ele>
        <time>2018-05-20T09:21:31Z</time>
      </trkpt>
      <trkpt lat="42.871367996558547" lon="-7.896714024245739">
        <ele>506.39999999999998</ele>
        <time>2018-05-20T09:21:36Z</time>
      </trkpt>
      <trkpt lat="42.871353998780251" lon="-7.896585026755929">
        <ele>506.69999999999999</ele>
        <time>2018-05-20T09:21:39Z</time>
      </trkpt>
      <trkpt lat="42.871348969638348" lon="-7.896429961547256">
        <ele>507.10000000000002</ele>
        <time>2018-05-20T09:21:42Z</time>
      </trkpt>
      <trkpt lat="42.871348969638348" lon="-7.896406995132566">
        <ele>507.10000000000002</ele>
        <time>2018-05-20T09:21:43Z</time>
      </trkpt>
      <trkpt lat="42.871340001001954" lon="-7.896360978484154">
        <ele>507.19999999999999</ele>
        <time>2018-05-20T09:21:44Z</time>
      </trkpt>
      <trkpt lat="42.871334971860051" lon="-7.896310016512871">
        <ele>507.30000000000001</ele>
        <time>2018-05-20T09:21:45Z</time>
      </trkpt>
      <trkpt lat="42.871320974081755" lon="-7.896257964894176">
        <ele>507.39999999999998</ele>
        <time>2018-05-20T09:21:46Z</time>
      </trkpt>
      <trkpt lat="42.871312005445361" lon="-7.896205997094512">
        <ele>507.5</ele>
        <time>2018-05-20T09:21:47Z</time>
      </trkpt>
      <trkpt lat="42.871303036808968" lon="-7.896149000152946">
        <ele>507.5</ele>
        <time>2018-05-20T09:21:48Z</time>
      </trkpt>
      <trkpt lat="42.871284009888768" lon="-7.896078005433083">
        <ele>507.60000000000002</ele>
        <time>2018-05-20T09:21:50Z</time>
      </trkpt>
      <trkpt lat="42.871264982968569" lon="-7.895983960479498">
        <ele>507.69999999999999</ele>
        <time>2018-05-20T09:21:52Z</time>
      </trkpt>
      <trkpt lat="42.871186025440693" lon="-7.895788997411728">
        <ele>508</ele>
        <time>2018-05-20T09:21:57Z</time>
      </trkpt>
      <trkpt lat="42.871178984642029" lon="-7.895788997411728">
        <ele>507.89999999999998</ele>
        <time>2018-05-20T09:21:57Z</time>
      </trkpt>
      <trkpt lat="42.871127016842365" lon="-7.895659999921918">
        <ele>508.10000000000002</ele>
        <time>2018-05-20T09:22:00Z</time>
      </trkpt>
      <trkpt lat="42.871045963838696" lon="-7.89540896192193">
        <ele>508.5</ele>
        <time>2018-05-20T09:22:06Z</time>
      </trkpt>
      <trkpt lat="42.870985027402639" lon="-7.895317012444139">
        <ele>508.39999999999998</ele>
        <time>2018-05-20T09:22:09Z</time>
      </trkpt>
      <trkpt lat="42.870978992432356" lon="-7.895317012444139">
        <ele>508.30000000000001</ele>
        <time>2018-05-20T09:22:09Z</time>
      </trkpt>
      <trkpt lat="42.870934987440705" lon="-7.895219027996063">
        <ele>508.19999999999999</ele>
        <time>2018-05-20T09:22:12Z</time>
      </trkpt>
      <trkpt lat="42.870906991884112" lon="-7.895034039393067">
        <ele>508.19999999999999</ele>
        <time>2018-05-20T09:22:16Z</time>
      </trkpt>
      <trkpt lat="42.870906991884112" lon="-7.894832035526633">
        <ele>508.19999999999999</ele>
        <time>2018-05-20T09:22:20Z</time>
      </trkpt>
      <trkpt lat="42.870906991884112" lon="-7.894791970029473">
        <ele>508.19999999999999</ele>
        <time>2018-05-20T09:22:21Z</time>
      </trkpt>
      <trkpt lat="42.870906991884112" lon="-7.894732961431146">
        <ele>508.19999999999999</ele>
        <time>2018-05-20T09:22:22Z</time>
      </trkpt>
      <trkpt lat="42.870906991884112" lon="-7.894663978368044">
        <ele>508.19999999999999</ele>
        <time>2018-05-20T09:22:24Z</time>
      </trkpt>
      <trkpt lat="42.870906991884112" lon="-7.894605975598097">
        <ele>508.19999999999999</ele>
        <time>2018-05-20T09:22:25Z</time>
      </trkpt>
      <trkpt lat="42.870906991884112" lon="-7.894543027505279">
        <ele>508.19999999999999</ele>
        <time>2018-05-20T09:22:27Z</time>
      </trkpt>
      <trkpt lat="42.87090296857059" lon="-7.894475972279906">
        <ele>508.10000000000002</ele>
        <time>2018-05-20T09:22:28Z</time>
      </trkpt>
      <trkpt lat="42.87090296857059" lon="-7.894406989216805">
        <ele>508.10000000000002</ele>
        <time>2018-05-20T09:22:29Z</time>
      </trkpt>
      <trkpt lat="42.870898023247719" lon="-7.894355021417141">
        <ele>508</ele>
        <time>2018-05-20T09:22:31Z</time>
      </trkpt>
      <trkpt lat="42.870887964963913" lon="-7.894304981455207">
        <ele>508</ele>
        <time>2018-05-20T09:22:32Z</time>
      </trkpt>
      <trkpt lat="42.870870027691126" lon="-7.894254019483924">
        <ele>507.89999999999998</ele>
        <time>2018-05-20T09:22:33Z</time>
      </trkpt>
      <trkpt lat="42.870846977457404" lon="-7.894172966480255">
        <ele>507.80000000000001</ele>
        <time>2018-05-20T09:22:35Z</time>
      </trkpt>
      <trkpt lat="42.870832979679108" lon="-7.894122004508972">
        <ele>507.69999999999999</ele>
        <time>2018-05-20T09:22:36Z</time>
      </trkpt>
      <trkpt lat="42.87083700299263" lon="-7.894068025052548">
        <ele>507.69999999999999</ele>
        <time>2018-05-20T09:22:37Z</time>
      </trkpt>
      <trkpt lat="42.870846977457404" lon="-7.894004993140698">
        <ele>507.69999999999999</ele>
        <time>2018-05-20T09:22:39Z</time>
      </trkpt>
      <trkpt lat="42.870846977457404" lon="-7.893951013684273">
        <ele>507.69999999999999</ele>
        <time>2018-05-20T09:22:40Z</time>
      </trkpt>
      <trkpt lat="42.87083700299263" lon="-7.893887981772423">
        <ele>507.60000000000002</ele>
        <time>2018-05-20T09:22:41Z</time>
      </trkpt>
      <trkpt lat="42.870832979679108" lon="-7.893789997324348">
        <ele>507.5</ele>
        <time>2018-05-20T09:22:43Z</time>
      </trkpt>
      <trkpt lat="42.870828034356236" lon="-7.893739035353065">
        <ele>507.5</ele>
        <time>2018-05-20T09:22:44Z</time>
      </trkpt>
      <trkpt lat="42.87081403657794" lon="-7.893676003441215">
        <ele>507.80000000000001</ele>
        <time>2018-05-20T09:22:46Z</time>
      </trkpt>
      <trkpt lat="42.870795009657741" lon="-7.893583970144391">
        <ele>508.19999999999999</ele>
        <time>2018-05-20T09:22:48Z</time>
      </trkpt>
      <trkpt lat="42.870786041021347" lon="-7.893532002344728">
        <ele>508.5</ele>
        <time>2018-05-20T09:22:49Z</time>
      </trkpt>
      <trkpt lat="42.870762990787625" lon="-7.893434017896652">
        <ele>508.89999999999998</ele>
        <time>2018-05-20T09:22:51Z</time>
      </trkpt>
      <trkpt lat="42.870734995231032" lon="-7.893365034833551">
        <ele>509.10000000000002</ele>
        <time>2018-05-20T09:22:53Z</time>
      </trkpt>
      <trkpt lat="42.870710017159581" lon="-7.893314994871616">
        <ele>509.19999999999999</ele>
        <time>2018-05-20T09:22:54Z</time>
      </trkpt>
      <trkpt lat="42.870685961097479" lon="-7.893268978223205">
        <ele>509.30000000000001</ele>
        <time>2018-05-20T09:22:56Z</time>
      </trkpt>
      <trkpt lat="42.870668023824692" lon="-7.893222961574793">
        <ele>509.39999999999998</ele>
        <time>2018-05-20T09:22:57Z</time>
      </trkpt>
      <trkpt lat="42.870657965540886" lon="-7.89314903318882">
        <ele>509.69999999999999</ele>
        <time>2018-05-20T09:22:58Z</time>
      </trkpt>
      <trkpt lat="42.870648996904492" lon="-7.89308600127697">
        <ele>509.89999999999998</ele>
        <time>2018-05-20T09:23:00Z</time>
      </trkpt>
      <trkpt lat="42.870643967762589" lon="-7.893030010163784">
        <ele>510.10000000000002</ele>
        <time>2018-05-20T09:23:01Z</time>
      </trkpt>
      <trkpt lat="42.870643967762589" lon="-7.892977958545089">
        <ele>510.39999999999998</ele>
        <time>2018-05-20T09:23:02Z</time>
      </trkpt>
      <trkpt lat="42.870626030489802" lon="-7.892926996573806">
        <ele>510.5</ele>
        <time>2018-05-20T09:23:03Z</time>
      </trkpt>
      <trkpt lat="42.870615972205997" lon="-7.892868993803859">
        <ele>510.69999999999999</ele>
        <time>2018-05-20T09:23:05Z</time>
      </trkpt>
      <trkpt lat="42.870607003569603" lon="-7.892772015184164">
        <ele>511.19999999999999</ele>
        <time>2018-05-20T09:23:07Z</time>
      </trkpt>
      <trkpt lat="42.870587976649404" lon="-7.892725998535752">
        <ele>511.39999999999998</ele>
        <time>2018-05-20T09:23:08Z</time>
      </trkpt>
      <trkpt lat="42.87057900801301" lon="-7.892661960795522">
        <ele>511.69999999999999</ele>
        <time>2018-05-20T09:23:09Z</time>
      </trkpt>
      <trkpt lat="42.870573978871107" lon="-7.892610998824239">
        <ele>512</ele>
        <time>2018-05-20T09:23:10Z</time>
      </trkpt>
      <trkpt lat="42.870565010234714" lon="-7.892559031024575">
        <ele>512.20000000000005</ele>
        <time>2018-05-20T09:23:12Z</time>
      </trkpt>
      <trkpt lat="42.870565010234714" lon="-7.892479989677668">
        <ele>512.70000000000005</ele>
        <time>2018-05-20T09:23:13Z</time>
      </trkpt>
      <trkpt lat="42.870559981092811" lon="-7.892422992736101">
        <ele>513</ele>
        <time>2018-05-20T09:23:15Z</time>
      </trkpt>
      <trkpt lat="42.870559981092811" lon="-7.892354009672999">
        <ele>513.39999999999998</ele>
        <time>2018-05-20T09:23:16Z</time>
      </trkpt>
      <trkpt lat="42.870545983314514" lon="-7.892278991639614">
        <ele>513.79999999999995</ele>
        <time>2018-05-20T09:23:18Z</time>
      </trkpt>
      <trkpt lat="42.870545983314514" lon="-7.892221994698048">
        <ele>514.10000000000002</ele>
        <time>2018-05-20T09:23:19Z</time>
      </trkpt>
      <trkpt lat="42.870523016899824" lon="-7.892158962786198">
        <ele>514.29999999999995</ele>
        <time>2018-05-20T09:23:20Z</time>
      </trkpt>
      <trkpt lat="42.870509019121528" lon="-7.892109006643295">
        <ele>514.5</ele>
        <time>2018-05-20T09:23:22Z</time>
      </trkpt>
      <trkpt lat="42.870499966666102" lon="-7.892051003873348">
        <ele>514.89999999999998</ele>
        <time>2018-05-20T09:23:23Z</time>
      </trkpt>
      <trkpt lat="42.870494015514851" lon="-7.891984032467008">
        <ele>515.60000000000002</ele>
        <time>2018-05-20T09:23:24Z</time>
      </trkpt>
      <trkpt lat="42.870478006079793" lon="-7.891916977241635">
        <ele>516.20000000000005</ele>
        <time>2018-05-20T09:23:26Z</time>
      </trkpt>
      <trkpt lat="42.870478006079793" lon="-7.891859980300069">
        <ele>516.79999999999995</ele>
        <time>2018-05-20T09:23:27Z</time>
      </trkpt>
      <trkpt lat="42.870469037443399" lon="-7.891813963651657">
        <ele>517.29999999999995</ele>
        <time>2018-05-20T09:23:28Z</time>
      </trkpt>
      <trkpt lat="42.870469037443399" lon="-7.891739029437304">
        <ele>518.10000000000002</ele>
        <time>2018-05-20T09:23:30Z</time>
      </trkpt>
      <trkpt lat="42.870464008301497" lon="-7.891675997525454">
        <ele>518.70000000000005</ele>
        <time>2018-05-20T09:23:31Z</time>
      </trkpt>
      <trkpt lat="42.870444981381297" lon="-7.891613971441984">
        <ele>519.29999999999995</ele>
        <time>2018-05-20T09:23:33Z</time>
      </trkpt>
      <trkpt lat="42.870426960289478" lon="-7.891554962843657">
        <ele>519.79999999999995</ele>
        <time>2018-05-20T09:23:34Z</time>
      </trkpt>
      <trkpt lat="42.870412962511182" lon="-7.891512969508767">
        <ele>520.10000000000002</ele>
        <time>2018-05-20T09:23:35Z</time>
      </trkpt>
      <trkpt lat="42.870388990268111" lon="-7.891461001709104">
        <ele>520.39999999999998</ele>
        <time>2018-05-20T09:23:36Z</time>
      </trkpt>
      <trkpt lat="42.870359988883138" lon="-7.891416996717453">
        <ele>520.60000000000002</ele>
        <time>2018-05-20T09:23:38Z</time>
      </trkpt>
      <trkpt lat="42.870345991104841" lon="-7.89136502891779">
        <ele>521</ele>
        <time>2018-05-20T09:23:39Z</time>
      </trkpt>
      <trkpt lat="42.870340961962938" lon="-7.891312977299094">
        <ele>521.5</ele>
        <time>2018-05-20T09:23:40Z</time>
      </trkpt>
      <trkpt lat="42.870322018861771" lon="-7.891263021156192">
        <ele>521.79999999999995</ele>
        <time>2018-05-20T09:23:41Z</time>
      </trkpt>
      <trkpt lat="42.870312966406345" lon="-7.891211975365877">
        <ele>522.10000000000002</ele>
        <time>2018-05-20T09:23:42Z</time>
      </trkpt>
      <trkpt lat="42.870289999991655" lon="-7.891103010624647">
        <ele>522.29999999999995</ele>
        <time>2018-05-20T09:23:45Z</time>
      </trkpt>
      <trkpt lat="42.870270973071456" lon="-7.891034027561545">
        <ele>522.39999999999998</ele>
        <time>2018-05-20T09:23:47Z</time>
      </trkpt>
      <trkpt lat="42.870256975293159" lon="-7.890941994264722">
        <ele>522.70000000000005</ele>
        <time>2018-05-20T09:23:49Z</time>
      </trkpt>
      <trkpt lat="42.870245995000005" lon="-7.89087301120162">
        <ele>522.89999999999998</ele>
        <time>2018-05-20T09:23:50Z</time>
      </trkpt>
      <trkpt lat="42.870245995000005" lon="-7.890812996774912">
        <ele>523.10000000000002</ele>
        <time>2018-05-20T09:23:51Z</time>
      </trkpt>
      <trkpt lat="42.870245995000005" lon="-7.890695985406637">
        <ele>523.70000000000005</ele>
        <time>2018-05-20T09:23:54Z</time>
      </trkpt>
      <trkpt lat="42.870245995000005" lon="-7.890591965988278">
        <ele>524.20000000000005</ele>
        <time>2018-05-20T09:23:56Z</time>
      </trkpt>
      <trkpt lat="42.870245995000005" lon="-7.890337994322181">
        <ele>524.79999999999995</ele>
        <time>2018-05-20T09:24:02Z</time>
      </trkpt>
      <trkpt lat="42.870245995000005" lon="-7.890049992129207">
        <ele>524.39999999999998</ele>
        <time>2018-05-20T09:24:08Z</time>
      </trkpt>
      <trkpt lat="42.870251024141908" lon="-7.889765007421374">
        <ele>524.10000000000002</ele>
        <time>2018-05-20T09:24:14Z</time>
      </trkpt>
      <trkpt lat="42.870255969464779" lon="-7.889540959149599">
        <ele>524</ele>
        <time>2018-05-20T09:24:19Z</time>
      </trkpt>
      <trkpt lat="42.870293017476797" lon="-7.88949997164309">
        <ele>524.5</ele>
        <time>2018-05-20T09:24:20Z</time>
      </trkpt>
      <trkpt lat="42.870331993326545" lon="-7.88949997164309">
        <ele>525</ele>
        <time>2018-05-20T09:24:22Z</time>
      </trkpt>
      <trkpt lat="42.870378009974957" lon="-7.88949997164309">
        <ele>525.60000000000002</ele>
        <time>2018-05-20T09:24:23Z</time>
      </trkpt>
      <trkpt lat="42.870418997481465" lon="-7.88949997164309">
        <ele>526.10000000000002</ele>
        <time>2018-05-20T09:24:24Z</time>
      </trkpt>
      <trkpt lat="42.870455961674452" lon="-7.889506006613374">
        <ele>526.5</ele>
        <time>2018-05-20T09:24:25Z</time>
      </trkpt>
      <trkpt lat="42.870502984151244" lon="-7.889506006613374">
        <ele>526.89999999999998</ele>
        <time>2018-05-20T09:24:27Z</time>
      </trkpt>
      <trkpt lat="42.870554029941559" lon="-7.889506006613374">
        <ele>527.39999999999998</ele>
        <time>2018-05-20T09:24:28Z</time>
      </trkpt>
      <trkpt lat="42.870600968599319" lon="-7.889506006613374">
        <ele>527.79999999999995</ele>
        <time>2018-05-20T09:24:30Z</time>
      </trkpt>
      <trkpt lat="42.870642961934209" lon="-7.889506006613374">
        <ele>528.20000000000005</ele>
        <time>2018-05-20T09:24:31Z</time>
      </trkpt>
      <trkpt lat="42.870694007724524" lon="-7.889506006613374">
        <ele>528.70000000000005</ele>
        <time>2018-05-20T09:24:32Z</time>
      </trkpt>
      <trkpt lat="42.870741030201316" lon="-7.889506006613374">
        <ele>529.10000000000002</ele>
        <time>2018-05-20T09:24:34Z</time>
      </trkpt>
      <trkpt lat="42.870783023536205" lon="-7.889506006613374">
        <ele>529.5</ele>
        <time>2018-05-20T09:24:35Z</time>
      </trkpt>
      <trkpt lat="42.870825016871095" lon="-7.889512041583657">
        <ele>529.89999999999998</ele>
        <time>2018-05-20T09:24:36Z</time>
      </trkpt>
      <trkpt lat="42.870867010205984" lon="-7.889517992734909">
        <ele>530.29999999999995</ele>
        <time>2018-05-20T09:24:37Z</time>
      </trkpt>
      <trkpt lat="42.870910009369254" lon="-7.889528973028064">
        <ele>530.70000000000005</ele>
        <time>2018-05-20T09:24:39Z</time>
      </trkpt>
      <trkpt lat="42.870952002704144" lon="-7.889545988291502">
        <ele>531.10000000000002</ele>
        <time>2018-05-20T09:24:40Z</time>
      </trkpt>
      <trkpt lat="42.870999025180936" lon="-7.889564009383321">
        <ele>531.60000000000002</ele>
        <time>2018-05-20T09:24:42Z</time>
      </trkpt>
      <trkpt lat="42.871042024344206" lon="-7.889574989676476">
        <ele>532</ele>
        <time>2018-05-20T09:24:43Z</time>
      </trkpt>
      <trkpt lat="42.87107496522367" lon="-7.889610026031733">
        <ele>532.39999999999998</ele>
        <time>2018-05-20T09:24:44Z</time>
      </trkpt>
      <trkpt lat="42.871108995750546" lon="-7.889638021588326">
        <ele>532.70000000000005</ele>
        <time>2018-05-20T09:24:45Z</time>
      </trkpt>
      <trkpt lat="42.871142020449042" lon="-7.889678003266454">
        <ele>533.10000000000002</ele>
        <time>2018-05-20T09:24:47Z</time>
      </trkpt>
      <trkpt lat="42.871173033490777" lon="-7.88971496745944">
        <ele>533.39999999999998</ele>
        <time>2018-05-20T09:24:48Z</time>
      </trkpt>
      <trkpt lat="42.871211003512144" lon="-7.889738017693162">
        <ele>533.79999999999995</ele>
        <time>2018-05-20T09:24:49Z</time>
      </trkpt>
      <trkpt lat="42.871245034039021" lon="-7.889769030734897">
        <ele>534.20000000000005</ele>
        <time>2018-05-20T09:24:50Z</time>
      </trkpt>
      <trkpt lat="42.871276969090104" lon="-7.889802977442741">
        <ele>534.5</ele>
        <time>2018-05-20T09:24:51Z</time>
      </trkpt>
      <trkpt lat="42.871312005445361" lon="-7.889831978827715">
        <ele>534.70000000000005</ele>
        <time>2018-05-20T09:24:53Z</time>
      </trkpt>
      <trkpt lat="42.871347963809967" lon="-7.889865003526211">
        <ele>535</ele>
        <time>2018-05-20T09:24:54Z</time>
      </trkpt>
      <trkpt lat="42.871379982680082" lon="-7.88988696411252">
        <ele>535.20000000000005</ele>
        <time>2018-05-20T09:24:55Z</time>
      </trkpt>
      <trkpt lat="42.871417030692101" lon="-7.889922000467777">
        <ele>535.5</ele>
        <time>2018-05-20T09:24:56Z</time>
      </trkpt>
      <trkpt lat="42.871449971571565" lon="-7.889956030994654">
        <ele>535.70000000000005</ele>
        <time>2018-05-20T09:24:58Z</time>
      </trkpt>
      <trkpt lat="42.871496994048357" lon="-7.889990983530879">
        <ele>536</ele>
        <time>2018-05-20T09:24:59Z</time>
      </trkpt>
      <trkpt lat="42.871521972119808" lon="-7.890025014057756">
        <ele>536.10000000000002</ele>
        <time>2018-05-20T09:25:00Z</time>
      </trkpt>
      <trkpt lat="42.871553990989923" lon="-7.890047980472446">
        <ele>536.29999999999995</ele>
        <time>2018-05-20T09:25:01Z</time>
      </trkpt>
      <trkpt lat="42.871587015688419" lon="-7.890083016827703">
        <ele>536.5</ele>
        <time>2018-05-20T09:25:03Z</time>
      </trkpt>
      <trkpt lat="42.871615011245012" lon="-7.890122998505831">
        <ele>536.60000000000002</ele>
        <time>2018-05-20T09:25:04Z</time>
      </trkpt>
      <trkpt lat="42.871643006801605" lon="-7.890159040689468">
        <ele>536.70000000000005</ele>
        <time>2018-05-20T09:25:05Z</time>
      </trkpt>
      <trkpt lat="42.871676031500101" lon="-7.89018795825541">
        <ele>536.79999999999995</ele>
        <time>2018-05-20T09:25:06Z</time>
      </trkpt>
      <trkpt lat="42.871704027056694" lon="-7.890204973518848">
        <ele>536.89999999999998</ele>
        <time>2018-05-20T09:25:07Z</time>
      </trkpt>
      <trkpt lat="42.871746020391583" lon="-7.890222994610667">
        <ele>537.10000000000002</ele>
        <time>2018-05-20T09:25:08Z</time>
      </trkpt>
      <trkpt lat="42.871788013726473" lon="-7.89022802375257">
        <ele>537.29999999999995</ele>
        <time>2018-05-20T09:25:09Z</time>
      </trkpt>
      <trkpt lat="42.871829001232982" lon="-7.89022802375257">
        <ele>537.5</ele>
        <time>2018-05-20T09:25:11Z</time>
      </trkpt>
      <trkpt lat="42.871862025931478" lon="-7.890200028195977">
        <ele>537.70000000000005</ele>
        <time>2018-05-20T09:25:12Z</time>
      </trkpt>
      <trkpt lat="42.871887004002929" lon="-7.890159040689468">
        <ele>537.89999999999998</ele>
        <time>2018-05-20T09:25:13Z</time>
      </trkpt>
      <trkpt lat="42.871895972639322" lon="-7.890105983242393">
        <ele>538.10000000000002</ele>
        <time>2018-05-20T09:25:14Z</time>
      </trkpt>
      <trkpt lat="42.871887004002929" lon="-7.890043035149574">
        <ele>538.20000000000005</ele>
        <time>2018-05-20T09:25:16Z</time>
      </trkpt>
      <trkpt lat="42.871867977082729" lon="-7.889997018501163">
        <ele>538.20000000000005</ele>
        <time>2018-05-20T09:25:17Z</time>
      </trkpt>
      <trkpt lat="42.871839981526136" lon="-7.889959970489144">
        <ele>538.10000000000002</ele>
        <time>2018-05-20T09:25:18Z</time>
      </trkpt>
      <trkpt lat="42.871811985969543" lon="-7.889929041266441">
        <ele>538</ele>
        <time>2018-05-20T09:25:19Z</time>
      </trkpt>
      <trkpt lat="42.871783990412951" lon="-7.889895010739565">
        <ele>537.89999999999998</ele>
        <time>2018-05-20T09:25:20Z</time>
      </trkpt>
      <trkpt lat="42.87176102399826" lon="-7.88984295912087">
        <ele>537.79999999999995</ele>
        <time>2018-05-20T09:25:21Z</time>
      </trkpt>
      <trkpt lat="42.871751971542835" lon="-7.889785962179303">
        <ele>537.89999999999998</ele>
        <time>2018-05-20T09:25:23Z</time>
      </trkpt>
      <trkpt lat="42.871733028441668" lon="-7.889727959409356">
        <ele>537.79999999999995</ele>
        <time>2018-05-20T09:25:24Z</time>
      </trkpt>
      <trkpt lat="42.871710984036326" lon="-7.889651013538241">
        <ele>537.79999999999995</ele>
        <time>2018-05-20T09:25:26Z</time>
      </trkpt>
      <trkpt lat="42.871692040935159" lon="-7.8894960321486">
        <ele>537.60000000000002</ele>
        <time>2018-05-20T09:25:29Z</time>
      </trkpt>
      <trkpt lat="42.871682988479733" lon="-7.88945596665144">
        <ele>537.39999999999998</ele>
        <time>2018-05-20T09:25:30Z</time>
      </trkpt>
      <trkpt lat="42.871677959337831" lon="-7.889403998851776">
        <ele>537.29999999999995</ele>
        <time>2018-05-20T09:25:31Z</time>
      </trkpt>
      <trkpt lat="42.871663961559534" lon="-7.889318000525236">
        <ele>537</ele>
        <time>2018-05-20T09:25:33Z</time>
      </trkpt>
      <trkpt lat="42.871659016236663" lon="-7.889266032725573">
        <ele>536.89999999999998</ele>
        <time>2018-05-20T09:25:34Z</time>
      </trkpt>
      <trkpt lat="42.871654992923141" lon="-7.889192020520568">
        <ele>536.70000000000005</ele>
        <time>2018-05-20T09:25:36Z</time>
      </trkpt>
      <trkpt lat="42.871640995144844" lon="-7.889128988608718">
        <ele>536.5</ele>
        <time>2018-05-20T09:25:37Z</time>
      </trkpt>
      <trkpt lat="42.871640995144844" lon="-7.889077020809054">
        <ele>536.39999999999998</ele>
        <time>2018-05-20T09:25:38Z</time>
      </trkpt>
      <trkpt lat="42.871621968224645" lon="-7.889002002775669">
        <ele>536.10000000000002</ele>
        <time>2018-05-20T09:25:40Z</time>
      </trkpt>
      <trkpt lat="42.871617022901773" lon="-7.888945005834103">
        <ele>536</ele>
        <time>2018-05-20T09:25:41Z</time>
      </trkpt>
      <trkpt lat="42.871602019295096" lon="-7.888906029984355">
        <ele>535.79999999999995</ele>
        <time>2018-05-20T09:25:42Z</time>
      </trkpt>
      <trkpt lat="42.871582992374897" lon="-7.88885498419404">
        <ele>535.60000000000002</ele>
        <time>2018-05-20T09:25:44Z</time>
      </trkpt>
      <trkpt lat="42.871577963232994" lon="-7.888803016394377">
        <ele>535.5</ele>
        <time>2018-05-20T09:25:45Z</time>
      </trkpt>
      <trkpt lat="42.871574023738503" lon="-7.888750964775682">
        <ele>535.29999999999995</ele>
        <time>2018-05-20T09:25:46Z</time>
      </trkpt>
      <trkpt lat="42.871574023738503" lon="-7.888677036389709">
        <ele>535.10000000000002</ele>
        <time>2018-05-20T09:25:48Z</time>
      </trkpt>
      <trkpt lat="42.871568994596601" lon="-7.888614004477859">
        <ele>534.89999999999998</ele>
        <time>2018-05-20T09:25:49Z</time>
      </trkpt>
      <trkpt lat="42.871560025960207" lon="-7.888549966737628">
        <ele>534.70000000000005</ele>
        <time>2018-05-20T09:25:50Z</time>
      </trkpt>
      <trkpt lat="42.871560025960207" lon="-7.888492969796062">
        <ele>534.5</ele>
        <time>2018-05-20T09:25:52Z</time>
      </trkpt>
      <trkpt lat="42.871560025960207" lon="-7.888441001996398">
        <ele>534.39999999999998</ele>
        <time>2018-05-20T09:25:53Z</time>
      </trkpt>
      <trkpt lat="42.871560025960207" lon="-7.888372018933296">
        <ele>534.20000000000005</ele>
        <time>2018-05-20T09:25:54Z</time>
      </trkpt>
      <trkpt lat="42.871560025960207" lon="-7.888308987021446">
        <ele>534</ele>
        <time>2018-05-20T09:25:56Z</time>
      </trkpt>
      <trkpt lat="42.871560025960207" lon="-7.888222988694906">
        <ele>533.70000000000005</ele>
        <time>2018-05-20T09:25:57Z</time>
      </trkpt>
      <trkpt lat="42.871560025960207" lon="-7.888149982318282">
        <ele>533.5</ele>
        <time>2018-05-20T09:25:59Z</time>
      </trkpt>
      <trkpt lat="42.871560025960207" lon="-7.887932974845171">
        <ele>532.89999999999998</ele>
        <time>2018-05-20T09:26:04Z</time>
      </trkpt>
      <trkpt lat="42.871560025960207" lon="-7.887723008170724">
        <ele>531.79999999999995</ele>
        <time>2018-05-20T09:26:08Z</time>
      </trkpt>
      <trkpt lat="42.871560025960207" lon="-7.887576995417476">
        <ele>531</ele>
        <time>2018-05-20T09:26:11Z</time>
      </trkpt>
      <trkpt lat="42.871549967676401" lon="-7.887431988492608">
        <ele>530.10000000000002</ele>
        <time>2018-05-20T09:26:15Z</time>
      </trkpt>
      <trkpt lat="42.871549967676401" lon="-7.887380020692945">
        <ele>529.79999999999995</ele>
        <time>2018-05-20T09:26:16Z</time>
      </trkpt>
      <trkpt lat="42.871549967676401" lon="-7.887311037629843">
        <ele>529.39999999999998</ele>
        <time>2018-05-20T09:26:17Z</time>
      </trkpt>
      <trkpt lat="42.871546028181911" lon="-7.887254040688276">
        <ele>529.10000000000002</ele>
        <time>2018-05-20T09:26:18Z</time>
      </trkpt>
      <trkpt lat="42.871546028181911" lon="-7.887196037918329">
        <ele>528.79999999999995</ele>
        <time>2018-05-20T09:26:20Z</time>
      </trkpt>
      <trkpt lat="42.871546028181911" lon="-7.887133006006479">
        <ele>528.39999999999998</ele>
        <time>2018-05-20T09:26:21Z</time>
      </trkpt>
      <trkpt lat="42.871546028181911" lon="-7.887081038206816">
        <ele>528.10000000000002</ele>
        <time>2018-05-20T09:26:22Z</time>
      </trkpt>
      <trkpt lat="42.871546028181911" lon="-7.887018006294966">
        <ele>528.10000000000002</ele>
        <time>2018-05-20T09:26:24Z</time>
      </trkpt>
      <trkpt lat="42.871535969898105" lon="-7.886961009353399">
        <ele>528.10000000000002</ele>
        <time>2018-05-20T09:26:25Z</time>
      </trkpt>
      <trkpt lat="42.871532030403614" lon="-7.886903006583452">
        <ele>528</ele>
        <time>2018-05-20T09:26:26Z</time>
      </trkpt>
      <trkpt lat="42.871532030403614" lon="-7.886834023520351">
        <ele>528</ele>
        <time>2018-05-20T09:26:28Z</time>
      </trkpt>
      <trkpt lat="42.871521972119808" lon="-7.886782977730036">
        <ele>528</ele>
        <time>2018-05-20T09:26:29Z</time>
      </trkpt>
      <trkpt lat="42.871513003483415" lon="-7.886719023808837">
        <ele>527.89999999999998</ele>
        <time>2018-05-20T09:26:30Z</time>
      </trkpt>
      <trkpt lat="42.871504034847021" lon="-7.886638976633549">
        <ele>527.79999999999995</ele>
        <time>2018-05-20T09:26:32Z</time>
      </trkpt>
      <trkpt lat="42.871490037068725" lon="-7.886574016883969">
        <ele>527.60000000000002</ele>
        <time>2018-05-20T09:26:33Z</time>
      </trkpt>
      <trkpt lat="42.871462041512132" lon="-7.886498998850584">
        <ele>527.39999999999998</ele>
        <time>2018-05-20T09:26:35Z</time>
      </trkpt>
      <trkpt lat="42.871447959914804" lon="-7.886442001909018">
        <ele>527.20000000000005</ele>
        <time>2018-05-20T09:26:37Z</time>
      </trkpt>
      <trkpt lat="42.871429016813636" lon="-7.886378969997168">
        <ele>527</ele>
        <time>2018-05-20T09:26:38Z</time>
      </trkpt>
      <trkpt lat="42.871419964358211" lon="-7.886327002197504">
        <ele>526.89999999999998</ele>
        <time>2018-05-20T09:26:39Z</time>
      </trkpt>
      <trkpt lat="42.871415019035339" lon="-7.886275034397841">
        <ele>526.79999999999995</ele>
        <time>2018-05-20T09:26:40Z</time>
      </trkpt>
      <trkpt lat="42.871415019035339" lon="-7.886222982779145">
        <ele>526.79999999999995</ele>
        <time>2018-05-20T09:26:41Z</time>
      </trkpt>
      <trkpt lat="42.871415019035339" lon="-7.886172020807862">
        <ele>526.89999999999998</ele>
        <time>2018-05-20T09:26:43Z</time>
      </trkpt>
      <trkpt lat="42.871415019035339" lon="-7.886119969189167">
        <ele>527</ele>
        <time>2018-05-20T09:26:44Z</time>
      </trkpt>
      <trkpt lat="42.871415019035339" lon="-7.886068001389504">
        <ele>527.10000000000002</ele>
        <time>2018-05-20T09:26:45Z</time>
      </trkpt>
      <trkpt lat="42.871415019035339" lon="-7.886011004447937">
        <ele>527.20000000000005</ele>
        <time>2018-05-20T09:26:46Z</time>
      </trkpt>
      <trkpt lat="42.871415019035339" lon="-7.885942021384835">
        <ele>527.39999999999998</ele>
        <time>2018-05-20T09:26:48Z</time>
      </trkpt>
      <trkpt lat="42.871415019035339" lon="-7.885878989472985">
        <ele>527.5</ele>
        <time>2018-05-20T09:26:49Z</time>
      </trkpt>
      <trkpt lat="42.871415019035339" lon="-7.885810006409884">
        <ele>527.60000000000002</ele>
        <time>2018-05-20T09:26:50Z</time>
      </trkpt>
      <trkpt lat="42.871415019035339" lon="-7.885741023346782">
        <ele>527.79999999999995</ele>
        <time>2018-05-20T09:26:52Z</time>
      </trkpt>
      <trkpt lat="42.871415019035339" lon="-7.885677991434932">
        <ele>527.89999999999998</ele>
        <time>2018-05-20T09:26:53Z</time>
      </trkpt>
      <trkpt lat="42.871409989893436" lon="-7.885615965351462">
        <ele>527.89999999999998</ele>
        <time>2018-05-20T09:26:55Z</time>
      </trkpt>
      <trkpt lat="42.871409989893436" lon="-7.885563997551799">
        <ele>528</ele>
        <time>2018-05-20T09:26:56Z</time>
      </trkpt>
      <trkpt lat="42.871409989893436" lon="-7.885511023923755">
        <ele>528.10000000000002</ele>
        <time>2018-05-20T09:26:57Z</time>
      </trkpt>
      <trkpt lat="42.871405966579914" lon="-7.885447992011905">
        <ele>528.20000000000005</ele>
        <time>2018-05-20T09:26:58Z</time>
      </trkpt>
      <trkpt lat="42.871387023478746" lon="-7.885338021442294">
        <ele>527.5</ele>
        <time>2018-05-20T09:27:01Z</time>
      </trkpt>
      <trkpt lat="42.871377971023321" lon="-7.885281024500728">
        <ele>527</ele>
        <time>2018-05-20T09:27:02Z</time>
      </trkpt>
      <trkpt lat="42.871367996558547" lon="-7.885226961225271">
        <ele>526.5</ele>
        <time>2018-05-20T09:27:03Z</time>
      </trkpt>
      <trkpt lat="42.871349975466728" lon="-7.885129982605577">
        <ele>525.70000000000005</ele>
        <time>2018-05-20T09:27:05Z</time>
      </trkpt>
      <trkpt lat="42.871345030143857" lon="-7.885049013420939">
        <ele>525.10000000000002</ele>
        <time>2018-05-20T09:27:07Z</time>
      </trkpt>
      <trkpt lat="42.871335977688432" lon="-7.884992016479373">
        <ele>524.60000000000002</ele>
        <time>2018-05-20T09:27:08Z</time>
      </trkpt>
      <trkpt lat="42.871331032365561" lon="-7.884939964860678">
        <ele>524.29999999999995</ele>
        <time>2018-05-20T09:27:10Z</time>
      </trkpt>
      <trkpt lat="42.871331032365561" lon="-7.884887997061014">
        <ele>523.89999999999998</ele>
        <time>2018-05-20T09:27:11Z</time>
      </trkpt>
      <trkpt lat="42.871355004608631" lon="-7.884837035089731">
        <ele>523.89999999999998</ele>
        <time>2018-05-20T09:27:12Z</time>
      </trkpt>
      <trkpt lat="42.871367996558547" lon="-7.884784983471036">
        <ele>523.79999999999995</ele>
        <time>2018-05-20T09:27:13Z</time>
      </trkpt>
      <trkpt lat="42.871392974629998" lon="-7.884742990136147">
        <ele>523.89999999999998</ele>
        <time>2018-05-20T09:27:14Z</time>
      </trkpt>
      <trkpt lat="42.871412001550198" lon="-7.884696973487735">
        <ele>523.79999999999995</ele>
        <time>2018-05-20T09:27:16Z</time>
      </trkpt>
      <trkpt lat="42.871434967964888" lon="-7.884645005688071">
        <ele>523.79999999999995</ele>
        <time>2018-05-20T09:27:17Z</time>
      </trkpt>
      <trkpt lat="42.871467992663383" lon="-7.884581973776221">
        <ele>523.89999999999998</ele>
        <time>2018-05-20T09:27:19Z</time>
      </trkpt>
      <trkpt lat="42.871487019583583" lon="-7.884530005976558">
        <ele>523.60000000000002</ele>
        <time>2018-05-20T09:27:20Z</time>
      </trkpt>
      <trkpt lat="42.871505040675402" lon="-7.884483989328146">
        <ele>523.29999999999995</ele>
        <time>2018-05-20T09:27:21Z</time>
      </trkpt>
      <trkpt lat="42.871523983776569" lon="-7.88442699238658">
        <ele>522.89999999999998</ele>
        <time>2018-05-20T09:27:22Z</time>
      </trkpt>
      <trkpt lat="42.871544016525149" lon="-7.884353986009955">
        <ele>522.29999999999995</ele>
        <time>2018-05-20T09:27:24Z</time>
      </trkpt>
      <trkpt lat="42.871548961848021" lon="-7.884287014603615">
        <ele>521.60000000000002</ele>
        <time>2018-05-20T09:27:25Z</time>
      </trkpt>
      <trkpt lat="42.87156798876822" lon="-7.884165979921818">
        <ele>520.39999999999998</ele>
        <time>2018-05-20T09:27:28Z</time>
      </trkpt>
      <trkpt lat="42.871574023738503" lon="-7.884123986586928">
        <ele>519.89999999999998</ele>
        <time>2018-05-20T09:27:29Z</time>
      </trkpt>
      <trkpt lat="42.871592966839671" lon="-7.884077969938517">
        <ele>519.5</ele>
        <time>2018-05-20T09:27:30Z</time>
      </trkpt>
      <trkpt lat="42.87161098793149" lon="-7.884015021845698">
        <ele>518.89999999999998</ele>
        <time>2018-05-20T09:27:32Z</time>
      </trkpt>
      <trkpt lat="42.871616017073393" lon="-7.883940003812313">
        <ele>518.10000000000002</ele>
        <time>2018-05-20T09:27:33Z</time>
      </trkpt>
      <trkpt lat="42.871620962396264" lon="-7.88388904184103">
        <ele>517.5</ele>
        <time>2018-05-20T09:27:34Z</time>
      </trkpt>
      <trkpt lat="42.871620962396264" lon="-7.883836990222335">
        <ele>516.79999999999995</ele>
        <time>2018-05-20T09:27:36Z</time>
      </trkpt>
      <trkpt lat="42.871624985709786" lon="-7.88376197218895">
        <ele>515.89999999999998</ele>
        <time>2018-05-20T09:27:37Z</time>
      </trkpt>
      <trkpt lat="42.871634960174561" lon="-7.883692989125848">
        <ele>515.39999999999998</ele>
        <time>2018-05-20T09:27:39Z</time>
      </trkpt>
      <trkpt lat="42.871638983488083" lon="-7.883635992184281">
        <ele>515.10000000000002</ele>
        <time>2018-05-20T09:27:40Z</time>
      </trkpt>
      <trkpt lat="42.871638983488083" lon="-7.883584024384618">
        <ele>514.70000000000005</ele>
        <time>2018-05-20T09:27:41Z</time>
      </trkpt>
      <trkpt lat="42.871648035943508" lon="-7.883510012179613">
        <ele>514.20000000000005</ele>
        <time>2018-05-20T09:27:43Z</time>
      </trkpt>
      <trkpt lat="42.871658010408282" lon="-7.883457960560918">
        <ele>513.89999999999998</ele>
        <time>2018-05-20T09:27:44Z</time>
      </trkpt>
      <trkpt lat="42.871666979044676" lon="-7.8833950124681">
        <ele>513.39999999999998</ele>
        <time>2018-05-20T09:27:45Z</time>
      </trkpt>
      <trkpt lat="42.871676031500101" lon="-7.883337009698153">
        <ele>513</ele>
        <time>2018-05-20T09:27:47Z</time>
      </trkpt>
      <trkpt lat="42.871680976822972" lon="-7.883290993049741">
        <ele>512.70000000000005</ele>
        <time>2018-05-20T09:27:48Z</time>
      </trkpt>
      <trkpt lat="42.87169698625803" lon="-7.883155038580298">
        <ele>511.80000000000001</ele>
        <time>2018-05-20T09:27:51Z</time>
      </trkpt>
      <trkpt lat="42.871778039261699" lon="-7.882980024442077">
        <ele>510.5</ele>
        <time>2018-05-20T09:27:55Z</time>
      </trkpt>
      <trkpt lat="42.871856996789575" lon="-7.882871981710196">
        <ele>509.69999999999999</ele>
        <time>2018-05-20T09:27:58Z</time>
      </trkpt>
      <trkpt lat="42.871984988451004" lon="-7.882714988663793">
        <ele>508.60000000000002</ele>
        <time>2018-05-20T09:28:04Z</time>
      </trkpt>
      <trkpt lat="42.872096970677376" lon="-7.882570987567306">
        <ele>507.60000000000002</ele>
        <time>2018-05-20T09:28:08Z</time>
      </trkpt>
      <trkpt lat="42.872189003974199" lon="-7.882489012554288">
        <ele>507.89999999999998</ele>
        <time>2018-05-20T09:28:11Z</time>
      </trkpt>
      <trkpt lat="42.872203001752496" lon="-7.882465962320566">
        <ele>507.89999999999998</ele>
        <time>2018-05-20T09:28:12Z</time>
      </trkpt>
      <trkpt lat="42.87223401479423" lon="-7.882440984249115">
        <ele>508</ele>
        <time>2018-05-20T09:28:13Z</time>
      </trkpt>
      <trkpt lat="42.872262010350823" lon="-7.882418017834425">
        <ele>508.10000000000002</ele>
        <time>2018-05-20T09:28:14Z</time>
      </trkpt>
      <trkpt lat="42.87229897454381" lon="-7.882389016449451">
        <ele>508.19999999999999</ele>
        <time>2018-05-20T09:28:15Z</time>
      </trkpt>
      <trkpt lat="42.872340967878699" lon="-7.88236596621573">
        <ele>508.39999999999998</ele>
        <time>2018-05-20T09:28:17Z</time>
      </trkpt>
      <trkpt lat="42.872378015890718" lon="-7.88234299980104">
        <ele>508.60000000000002</ele>
        <time>2018-05-20T09:28:18Z</time>
      </trkpt>
      <trkpt lat="42.872415985912085" lon="-7.88232003338635">
        <ele>508.69999999999999</ele>
        <time>2018-05-20T09:28:19Z</time>
      </trkpt>
      <trkpt lat="42.8724480047822" lon="-7.882296983152628">
        <ele>508.80000000000001</ele>
        <time>2018-05-20T09:28:20Z</time>
      </trkpt>
      <trkpt lat="42.872489998117089" lon="-7.882284997031093">
        <ele>509.10000000000002</ele>
        <time>2018-05-20T09:28:21Z</time>
      </trkpt>
      <trkpt lat="42.872527968138456" lon="-7.882263036444783">
        <ele>509.30000000000001</ele>
        <time>2018-05-20T09:28:23Z</time>
      </trkpt>
      <trkpt lat="42.872559987008572" lon="-7.882250966504216">
        <ele>509.39999999999998</ele>
        <time>2018-05-20T09:28:24Z</time>
      </trkpt>
      <trkpt lat="42.87259804084897" lon="-7.882217019796372">
        <ele>509.5</ele>
        <time>2018-05-20T09:28:25Z</time>
      </trkpt>
      <trkpt lat="42.872626036405563" lon="-7.882176032289863">
        <ele>509.39999999999998</ele>
        <time>2018-05-20T09:28:26Z</time>
      </trkpt>
      <trkpt lat="42.87264397367835" lon="-7.882130015641451">
        <ele>509.10000000000002</ele>
        <time>2018-05-20T09:28:27Z</time>
      </trkpt>
      <trkpt lat="42.872676998376846" lon="-7.88208500482142">
        <ele>509</ele>
        <time>2018-05-20T09:28:29Z</time>
      </trkpt>
      <trkpt lat="42.872704993933439" lon="-7.882020967081189">
        <ele>508.89999999999998</ele>
        <time>2018-05-20T09:28:30Z</time>
      </trkpt>
      <trkpt lat="42.872709017246962" lon="-7.881970005109906">
        <ele>508.69999999999999</ele>
        <time>2018-05-20T09:28:31Z</time>
      </trkpt>
      <trkpt lat="42.872709017246962" lon="-7.881916025653482">
        <ele>508.5</ele>
        <time>2018-05-20T09:28:33Z</time>
      </trkpt>
      <trkpt lat="42.872709017246962" lon="-7.881863974034786">
        <ele>508.30000000000001</ele>
        <time>2018-05-20T09:28:34Z</time>
      </trkpt>
      <trkpt lat="42.872709017246962" lon="-7.881811000406742">
        <ele>508</ele>
        <time>2018-05-20T09:28:35Z</time>
      </trkpt>
      <trkpt lat="42.872699964791536" lon="-7.881746962666512">
        <ele>507.69999999999999</ele>
        <time>2018-05-20T09:28:36Z</time>
      </trkpt>
      <trkpt lat="42.872695019468665" lon="-7.881696000695229">
        <ele>507.39999999999998</ele>
        <time>2018-05-20T09:28:37Z</time>
      </trkpt>
      <trkpt lat="42.872671969234943" lon="-7.881642021238804">
        <ele>507</ele>
        <time>2018-05-20T09:28:39Z</time>
      </trkpt>
      <trkpt lat="42.87266300059855" lon="-7.881573038175702">
        <ele>506.60000000000002</ele>
        <time>2018-05-20T09:28:40Z</time>
      </trkpt>
      <trkpt lat="42.872649002820253" lon="-7.88152702152729">
        <ele>506.30000000000001</ele>
        <time>2018-05-20T09:28:41Z</time>
      </trkpt>
      <trkpt lat="42.872635005041957" lon="-7.881481004878879">
        <ele>506</ele>
        <time>2018-05-20T09:28:43Z</time>
      </trkpt>
      <trkpt lat="42.872626036405563" lon="-7.881434988230467">
        <ele>505.69999999999999</ele>
        <time>2018-05-20T09:28:44Z</time>
      </trkpt>
      <trkpt lat="42.872601980343461" lon="-7.881338009610772">
        <ele>505.10000000000002</ele>
        <time>2018-05-20T09:28:46Z</time>
      </trkpt>
      <trkpt lat="42.872593011707067" lon="-7.88129199296236">
        <ele>504.89999999999998</ele>
        <time>2018-05-20T09:28:47Z</time>
      </trkpt>
      <trkpt lat="42.872593011707067" lon="-7.881233990192413">
        <ele>504.69999999999999</ele>
        <time>2018-05-20T09:28:48Z</time>
      </trkpt>
      <trkpt lat="42.872593011707067" lon="-7.881170958280563">
        <ele>504.80000000000001</ele>
        <time>2018-05-20T09:28:49Z</time>
      </trkpt>
      <trkpt lat="42.872601980343461" lon="-7.881112033501267">
        <ele>505</ele>
        <time>2018-05-20T09:28:51Z</time>
      </trkpt>
      <trkpt lat="42.872601980343461" lon="-7.881057970225811">
        <ele>505.10000000000002</ele>
        <time>2018-05-20T09:28:52Z</time>
      </trkpt>
      <trkpt lat="42.872601980343461" lon="-7.880998039618135">
        <ele>505.19999999999999</ele>
        <time>2018-05-20T09:28:53Z</time>
      </trkpt>
      <trkpt lat="42.872607009485364" lon="-7.880939031019807">
        <ele>505.30000000000001</ele>
        <time>2018-05-20T09:28:55Z</time>
      </trkpt>
      <trkpt lat="42.872607009485364" lon="-7.88088203407824">
        <ele>505.39999999999998</ele>
        <time>2018-05-20T09:28:56Z</time>
      </trkpt>
      <trkpt lat="42.872607009485364" lon="-7.880811039358378">
        <ele>505.5</ele>
        <time>2018-05-20T09:28:57Z</time>
      </trkpt>
      <trkpt lat="42.872611032798886" lon="-7.88075303658843">
        <ele>505.60000000000002</ele>
        <time>2018-05-20T09:28:59Z</time>
      </trkpt>
      <trkpt lat="42.872611032798886" lon="-7.880696039646864">
        <ele>505.69999999999999</ele>
        <time>2018-05-20T09:29:00Z</time>
      </trkpt>
      <trkpt lat="42.872611032798886" lon="-7.880643988028169">
        <ele>505.80000000000001</ele>
        <time>2018-05-20T09:29:01Z</time>
      </trkpt>
      <trkpt lat="42.872611032798886" lon="-7.880586991086602">
        <ele>505.89999999999998</ele>
        <time>2018-05-20T09:29:02Z</time>
      </trkpt>
      <trkpt lat="42.872611032798886" lon="-7.880535023286939">
        <ele>506</ele>
        <time>2018-05-20T09:29:03Z</time>
      </trkpt>
      <trkpt lat="42.872611032798886" lon="-7.880478026345372">
        <ele>506.10000000000002</ele>
        <time>2018-05-20T09:29:05Z</time>
      </trkpt>
      <trkpt lat="42.87262100726366" lon="-7.880420023575425">
        <ele>506.19999999999999</ele>
        <time>2018-05-20T09:29:06Z</time>
      </trkpt>
      <trkpt lat="42.872639028355479" lon="-7.880221037194133">
        <ele>507.10000000000002</ele>
        <time>2018-05-20T09:29:10Z</time>
      </trkpt>
      <trkpt lat="42.87266300059855" lon="-7.879940997809172">
        <ele>508.39999999999998</ele>
        <time>2018-05-20T09:29:16Z</time>
      </trkpt>
      <trkpt lat="42.872682027518749" lon="-7.879664981737733">
        <ele>509.60000000000002</ele>
        <time>2018-05-20T09:29:22Z</time>
      </trkpt>
      <trkpt lat="42.872693007811904" lon="-7.879467001184821">
        <ele>510.19999999999999</ele>
        <time>2018-05-20T09:29:27Z</time>
      </trkpt>
      <trkpt lat="42.872753022238612" lon="-7.879199031740427">
        <ele>511</ele>
        <time>2018-05-20T09:29:33Z</time>
      </trkpt>
      <trkpt lat="42.872797027230263" lon="-7.878930978477001">
        <ele>511.89999999999998</ele>
        <time>2018-05-20T09:29:39Z</time>
      </trkpt>
      <trkpt lat="42.872900040820241" lon="-7.878511967137456">
        <ele>513.20000000000005</ele>
        <time>2018-05-20T09:29:48Z</time>
      </trkpt>
      <trkpt lat="42.872955026105046" lon="-7.878208961337805">
        <ele>513.89999999999998</ele>
        <time>2018-05-20T09:29:55Z</time>
      </trkpt>
      <trkpt lat="42.873021997511387" lon="-7.877834038808942">
        <ele>514.79999999999995</ele>
        <time>2018-05-20T09:30:03Z</time>
      </trkpt>
      <trkpt lat="42.873078994452953" lon="-7.877542013302445">
        <ele>515.5</ele>
        <time>2018-05-20T09:30:10Z</time>
      </trkpt>
      <trkpt lat="42.873167004436255" lon="-7.877169018611312">
        <ele>516.39999999999998</ele>
        <time>2018-05-20T09:30:18Z</time>
      </trkpt>
      <trkpt lat="42.873219978064299" lon="-7.87688797339797">
        <ele>517.10000000000002</ele>
        <time>2018-05-20T09:30:25Z</time>
      </trkpt>
      <trkpt lat="42.873250991106033" lon="-7.87665001116693">
        <ele>517.5</ele>
        <time>2018-05-20T09:30:30Z</time>
      </trkpt>
      <trkpt lat="42.873318968340755" lon="-7.876300988718867">
        <ele>518.39999999999998</ele>
        <time>2018-05-20T09:30:38Z</time>
      </trkpt>
      <trkpt lat="42.873375965282321" lon="-7.876046011224389">
        <ele>519.10000000000002</ele>
        <time>2018-05-20T09:30:44Z</time>
      </trkpt>
      <trkpt lat="42.873417036607862" lon="-7.87581198848784">
        <ele>519.70000000000005</ele>
        <time>2018-05-20T09:30:49Z</time>
      </trkpt>
      <trkpt lat="42.87343698553741" lon="-7.875791033729911">
        <ele>519.89999999999998</ele>
        <time>2018-05-20T09:30:50Z</time>
      </trkpt>
      <trkpt lat="42.873460035771132" lon="-7.875758009031415">
        <ele>520.10000000000002</ele>
        <time>2018-05-20T09:30:51Z</time>
      </trkpt>
      <trkpt lat="42.873484008014202" lon="-7.875724984332919">
        <ele>520.20000000000005</ele>
        <time>2018-05-20T09:30:52Z</time>
      </trkpt>
      <trkpt lat="42.873504040762782" lon="-7.875692965462804">
        <ele>520.39999999999998</ele>
        <time>2018-05-20T09:30:52Z</time>
      </trkpt>
      <trkpt lat="42.873532958328724" lon="-7.875673016533256">
        <ele>520.60000000000002</ele>
        <time>2018-05-20T09:30:53Z</time>
      </trkpt>
      <trkpt lat="42.873559026047587" lon="-7.87566103041172">
        <ele>520.70000000000005</ele>
        <time>2018-05-20T09:30:54Z</time>
      </trkpt>
      <trkpt lat="42.873595990240574" lon="-7.875645020976663">
        <ele>520.89999999999998</ele>
        <time>2018-05-20T09:30:55Z</time>
      </trkpt>
      <trkpt lat="42.87362901493907" lon="-7.875628005713224">
        <ele>521.10000000000002</ele>
        <time>2018-05-20T09:30:56Z</time>
      </trkpt>
      <trkpt lat="42.873662039637566" lon="-7.875616019591689">
        <ele>521.29999999999995</ele>
        <time>2018-05-20T09:30:57Z</time>
      </trkpt>
      <trkpt lat="42.873689029365778" lon="-7.875604033470154">
        <ele>521.5</ele>
        <time>2018-05-20T09:30:58Z</time>
      </trkpt>
      <trkpt lat="42.873711995780468" lon="-7.875582994893193">
        <ele>521.60000000000002</ele>
        <time>2018-05-20T09:30:59Z</time>
      </trkpt>
      <trkpt lat="42.87373898550868" lon="-7.875549970194697">
        <ele>521.79999999999995</ele>
        <time>2018-05-20T09:31:00Z</time>
      </trkpt>
      <trkpt lat="42.87375901825726" lon="-7.875518035143614">
        <ele>521.89999999999998</ele>
        <time>2018-05-20T09:31:01Z</time>
      </trkpt>
      <trkpt lat="42.873778967186809" lon="-7.87548903375864">
        <ele>522</ele>
        <time>2018-05-20T09:31:02Z</time>
      </trkpt>
      <trkpt lat="42.873789025470614" lon="-7.875455003231764">
        <ele>522.10000000000002</ele>
        <time>2018-05-20T09:31:03Z</time>
      </trkpt>
      <trkpt lat="42.873796988278627" lon="-7.875412004068494">
        <ele>522.20000000000005</ele>
        <time>2018-05-20T09:31:04Z</time>
      </trkpt>
      <trkpt lat="42.873809980228543" lon="-7.875378979369998">
        <ele>522.39999999999998</ele>
        <time>2018-05-20T09:31:05Z</time>
      </trkpt>
      <trkpt lat="42.873822972178459" lon="-7.875342015177012">
        <ele>522.5</ele>
        <time>2018-05-20T09:31:05Z</time>
      </trkpt>
      <trkpt lat="42.873839987441897" lon="-7.875301027670503">
        <ele>522.70000000000005</ele>
        <time>2018-05-20T09:31:06Z</time>
      </trkpt>
      <trkpt lat="42.873857002705336" lon="-7.875269008800387">
        <ele>522.89999999999998</ele>
        <time>2018-05-20T09:31:07Z</time>
      </trkpt>
      <trkpt lat="42.87386798299849" lon="-7.875237995758653">
        <ele>523.10000000000002</ele>
        <time>2018-05-20T09:31:08Z</time>
      </trkpt>
      <trkpt lat="42.87388801574707" lon="-7.875214023515582">
        <ele>523.20000000000005</ele>
        <time>2018-05-20T09:31:09Z</time>
      </trkpt>
      <trkpt lat="42.873908970504999" lon="-7.875197008252144">
        <ele>523.39999999999998</ele>
        <time>2018-05-20T09:31:10Z</time>
      </trkpt>
      <trkpt lat="42.873935960233212" lon="-7.875173036009073">
        <ele>523.5</ele>
        <time>2018-05-20T09:31:11Z</time>
      </trkpt>
      <trkpt lat="42.873962027952075" lon="-7.875156020745635">
        <ele>523.70000000000005</ele>
        <time>2018-05-20T09:31:11Z</time>
      </trkpt>
      <trkpt lat="42.873986000195146" lon="-7.875140011310577">
        <ele>523.79999999999995</ele>
        <time>2018-05-20T09:31:12Z</time>
      </trkpt>
      <trkpt lat="42.874008966609836" lon="-7.875106986612082">
        <ele>524</ele>
        <time>2018-05-20T09:31:13Z</time>
      </trkpt>
      <trkpt lat="42.87403604015708" lon="-7.875077985227108">
        <ele>524.20000000000005</ele>
        <time>2018-05-20T09:31:14Z</time>
      </trkpt>
      <trkpt lat="42.874062024056911" lon="-7.875045966356993">
        <ele>524.5</ele>
        <time>2018-05-20T09:31:15Z</time>
      </trkpt>
      <trkpt lat="42.874085996299982" lon="-7.875013025477529">
        <ele>524.70000000000005</ele>
        <time>2018-05-20T09:31:16Z</time>
      </trkpt>
      <trkpt lat="42.874108962714672" lon="-7.874980000779033">
        <ele>524.89999999999998</ele>
        <time>2018-05-20T09:31:17Z</time>
      </trkpt>
      <trkpt lat="42.874132012948394" lon="-7.874946976080537">
        <ele>525.10000000000002</ele>
        <time>2018-05-20T09:31:18Z</time>
      </trkpt>
      <trkpt lat="42.874149028211832" lon="-7.874917974695563">
        <ele>525.20000000000005</ele>
        <time>2018-05-20T09:31:19Z</time>
      </trkpt>
      <trkpt lat="42.874165959656239" lon="-7.874881010502577">
        <ele>525.39999999999998</ele>
        <time>2018-05-20T09:31:20Z</time>
      </trkpt>
      <trkpt lat="42.874181969091296" lon="-7.874853014945984">
        <ele>525.60000000000002</ele>
        <time>2018-05-20T09:31:21Z</time>
      </trkpt>
      <trkpt lat="42.874202001839876" lon="-7.874819990247488">
        <ele>525.79999999999995</ele>
        <time>2018-05-20T09:31:22Z</time>
      </trkpt>
      <trkpt lat="42.874219017103314" lon="-7.874790988862515">
        <ele>525.89999999999998</ele>
        <time>2018-05-20T09:31:22Z</time>
      </trkpt>
      <trkpt lat="42.87423200905323" lon="-7.874757964164019">
        <ele>526.10000000000002</ele>
        <time>2018-05-20T09:31:23Z</time>
      </trkpt>
      <trkpt lat="42.874250030145049" lon="-7.874719994142652">
        <ele>526.29999999999995</ele>
        <time>2018-05-20T09:31:24Z</time>
      </trkpt>
      <trkpt lat="42.874260004609823" lon="-7.874679006636143">
        <ele>526.5</ele>
        <time>2018-05-20T09:31:25Z</time>
      </trkpt>
      <trkpt lat="42.874266961589456" lon="-7.874641958624125">
        <ele>526.70000000000005</ele>
        <time>2018-05-20T09:31:26Z</time>
      </trkpt>
      <trkpt lat="42.874269979074597" lon="-7.874600971117616">
        <ele>526.79999999999995</ele>
        <time>2018-05-20T09:31:27Z</time>
      </trkpt>
      <trkpt lat="42.874272996559739" lon="-7.874564006924629">
        <ele>526.89999999999998</ele>
        <time>2018-05-20T09:31:28Z</time>
      </trkpt>
      <trkpt lat="42.874277019873261" lon="-7.87452301941812">
        <ele>527.10000000000002</ele>
        <time>2018-05-20T09:31:29Z</time>
      </trkpt>
      <trkpt lat="42.874277019873261" lon="-7.874485971406102">
        <ele>527.20000000000005</ele>
        <time>2018-05-20T09:31:29Z</time>
      </trkpt>
      <trkpt lat="42.874277019873261" lon="-7.874449007213116">
        <ele>527.29999999999995</ele>
        <time>2018-05-20T09:31:30Z</time>
      </trkpt>
      <trkpt lat="42.874277019873261" lon="-7.874408019706607">
        <ele>527.5</ele>
        <time>2018-05-20T09:31:31Z</time>
      </trkpt>
      <trkpt lat="42.874272996559739" lon="-7.874363008886576">
        <ele>527.60000000000002</ele>
        <time>2018-05-20T09:31:32Z</time>
      </trkpt>
      <trkpt lat="42.874272996559739" lon="-7.874323027208448">
        <ele>527.70000000000005</ele>
        <time>2018-05-20T09:31:33Z</time>
      </trkpt>
      <trkpt lat="42.874269979074597" lon="-7.874282039701939">
        <ele>527.79999999999995</ele>
        <time>2018-05-20T09:31:34Z</time>
      </trkpt>
      <trkpt lat="42.874269979074597" lon="-7.874240968376398">
        <ele>527.89999999999998</ele>
        <time>2018-05-20T09:31:35Z</time>
      </trkpt>
      <trkpt lat="42.874263022094965" lon="-7.874208027496934">
        <ele>528</ele>
        <time>2018-05-20T09:31:36Z</time>
      </trkpt>
      <trkpt lat="42.874260004609823" lon="-7.874162010848522">
        <ele>528.20000000000005</ele>
        <time>2018-05-20T09:31:37Z</time>
      </trkpt>
      <trkpt lat="42.874260004609823" lon="-7.874082969501615">
        <ele>528.39999999999998</ele>
        <time>2018-05-20T09:31:38Z</time>
      </trkpt>
      <trkpt lat="42.874242989346385" lon="-7.87392103113234">
        <ele>528.79999999999995</ele>
        <time>2018-05-20T09:31:42Z</time>
      </trkpt>
      <trkpt lat="42.874225974082947" lon="-7.873841989785433">
        <ele>529</ele>
        <time>2018-05-20T09:31:44Z</time>
      </trkpt>
      <trkpt lat="42.874212982133031" lon="-7.873717015609145">
        <ele>529.29999999999995</ele>
        <time>2018-05-20T09:31:46Z</time>
      </trkpt>
      <trkpt lat="42.874203007668257" lon="-7.873612996190786">
        <ele>529.5</ele>
        <time>2018-05-20T09:31:49Z</time>
      </trkpt>
      <trkpt lat="42.874203007668257" lon="-7.873605033382773">
        <ele>529.5</ele>
        <time>2018-05-20T09:31:49Z</time>
      </trkpt>
      <trkpt lat="42.874199990183115" lon="-7.873567985370755">
        <ele>529.60000000000002</ele>
        <time>2018-05-20T09:31:50Z</time>
      </trkpt>
      <trkpt lat="42.874193033203483" lon="-7.873497996479273">
        <ele>529.70000000000005</ele>
        <time>2018-05-20T09:31:51Z</time>
      </trkpt>
      <trkpt lat="42.874193033203483" lon="-7.873452985659242">
        <ele>529.79999999999995</ele>
        <time>2018-05-20T09:31:52Z</time>
      </trkpt>
      <trkpt lat="42.874193033203483" lon="-7.873416021466255">
        <ele>529.89999999999998</ele>
        <time>2018-05-20T09:31:53Z</time>
      </trkpt>
      <trkpt lat="42.874193033203483" lon="-7.873378973454237">
        <ele>530</ele>
        <time>2018-05-20T09:31:54Z</time>
      </trkpt>
      <trkpt lat="42.874193033203483" lon="-7.873304961249232">
        <ele>530.20000000000005</ele>
        <time>2018-05-20T09:31:55Z</time>
      </trkpt>
      <trkpt lat="42.874193033203483" lon="-7.873267997056246">
        <ele>530.29999999999995</ele>
        <time>2018-05-20T09:31:56Z</time>
      </trkpt>
      <trkpt lat="42.874193033203483" lon="-7.873228015378118">
        <ele>530.39999999999998</ele>
        <time>2018-05-20T09:31:57Z</time>
      </trkpt>
      <trkpt lat="42.874193033203483" lon="-7.873190967366099">
        <ele>530.5</ele>
        <time>2018-05-20T09:31:58Z</time>
      </trkpt>
      <trkpt lat="42.874193033203483" lon="-7.873154003173113">
        <ele>530.60000000000002</ele>
        <time>2018-05-20T09:31:59Z</time>
      </trkpt>
      <trkpt lat="42.874182974919677" lon="-7.873120978474617">
        <ele>530.60000000000002</ele>
        <time>2018-05-20T09:31:59Z</time>
      </trkpt>
      <trkpt lat="42.874162020161748" lon="-7.873092982918024">
        <ele>530.60000000000002</ele>
        <time>2018-05-20T09:32:00Z</time>
      </trkpt>
      <trkpt lat="42.874141987413168" lon="-7.873073033988476">
        <ele>530.5</ele>
        <time>2018-05-20T09:32:01Z</time>
      </trkpt>
      <trkpt lat="42.87412203848362" lon="-7.873044032603502">
        <ele>530.5</ele>
        <time>2018-05-20T09:32:02Z</time>
      </trkpt>
      <trkpt lat="42.874092031270266" lon="-7.873023999854922">
        <ele>530.39999999999998</ele>
        <time>2018-05-20T09:32:03Z</time>
      </trkpt>
      <trkpt lat="42.874062024056911" lon="-7.872994998469949">
        <ele>530.29999999999995</ele>
        <time>2018-05-20T09:32:04Z</time>
      </trkpt>
      <trkpt lat="42.874027993530035" lon="-7.872969014570117">
        <ele>530.20000000000005</ele>
        <time>2018-05-20T09:32:05Z</time>
      </trkpt>
      <trkpt lat="42.874005027115345" lon="-7.872953005135059">
        <ele>530.10000000000002</ele>
        <time>2018-05-20T09:32:06Z</time>
      </trkpt>
      <trkpt lat="42.873978037387133" lon="-7.872935989871621">
        <ele>530</ele>
        <time>2018-05-20T09:32:07Z</time>
      </trkpt>
      <trkpt lat="42.873954987153411" lon="-7.872924003750086">
        <ele>530</ele>
        <time>2018-05-20T09:32:07Z</time>
      </trkpt>
      <trkpt lat="42.873924979940057" lon="-7.872906988486648">
        <ele>529.89999999999998</ele>
        <time>2018-05-20T09:32:08Z</time>
      </trkpt>
      <trkpt lat="42.873880974948406" lon="-7.872878992930055">
        <ele>529.79999999999995</ele>
        <time>2018-05-20T09:32:10Z</time>
      </trkpt>
      <trkpt lat="42.873861026018858" lon="-7.872849991545081">
        <ele>529.89999999999998</ele>
        <time>2018-05-20T09:32:11Z</time>
      </trkpt>
      <trkpt lat="42.873831018805504" lon="-7.872820990160108">
        <ele>529.89999999999998</ele>
        <time>2018-05-20T09:32:12Z</time>
      </trkpt>
      <trkpt lat="42.873806040734053" lon="-7.872795006260276">
        <ele>530</ele>
        <time>2018-05-20T09:32:13Z</time>
      </trkpt>
      <trkpt lat="42.873743008822203" lon="-7.872760975733399">
        <ele>529.89999999999998</ele>
        <time>2018-05-20T09:32:15Z</time>
      </trkpt>
      <trkpt lat="42.873604958876967" lon="-7.872704984620214">
        <ele>529.5</ele>
        <time>2018-05-20T09:32:19Z</time>
      </trkpt>
      <trkpt lat="42.873527007177472" lon="-7.872684029862285">
        <ele>529.29999999999995</ele>
        <time>2018-05-20T09:32:21Z</time>
      </trkpt>
      <trkpt lat="42.873443020507693" lon="-7.872634995728731">
        <ele>529.10000000000002</ele>
        <time>2018-05-20T09:32:24Z</time>
      </trkpt>
      <trkpt lat="42.873389041051269" lon="-7.872539022937417">
        <ele>529.29999999999995</ele>
        <time>2018-05-20T09:32:27Z</time>
      </trkpt>
      <trkpt lat="42.87337495945394" lon="-7.872509015724063">
        <ele>529.39999999999998</ele>
        <time>2018-05-20T09:32:27Z</time>
      </trkpt>
      <trkpt lat="42.873368002474308" lon="-7.872475991025567">
        <ele>529.60000000000002</ele>
        <time>2018-05-20T09:32:28Z</time>
      </trkpt>
      <trkpt lat="42.873358028009534" lon="-7.872435003519058">
        <ele>529.70000000000005</ele>
        <time>2018-05-20T09:32:29Z</time>
      </trkpt>
      <trkpt lat="42.873340006917715" lon="-7.872386975213885">
        <ele>529.89999999999998</ele>
        <time>2018-05-20T09:32:30Z</time>
      </trkpt>
      <trkpt lat="42.873330032452941" lon="-7.872345987707377">
        <ele>530.10000000000002</ele>
        <time>2018-05-20T09:32:31Z</time>
      </trkpt>
      <trkpt lat="42.873323997482657" lon="-7.872317992150784">
        <ele>530.20000000000005</ele>
        <time>2018-05-20T09:32:32Z</time>
      </trkpt>
      <trkpt lat="42.873319974169135" lon="-7.872281027957797">
        <ele>530.39999999999998</ele>
        <time>2018-05-20T09:32:33Z</time>
      </trkpt>
      <trkpt lat="42.873319974169135" lon="-7.872243979945779">
        <ele>530.60000000000002</ele>
        <time>2018-05-20T09:32:33Z</time>
      </trkpt>
      <trkpt lat="42.873317040503025" lon="-7.872207015752792">
        <ele>530.70000000000005</ele>
        <time>2018-05-20T09:32:34Z</time>
      </trkpt>
      <trkpt lat="42.873317040503025" lon="-7.872156975790858">
        <ele>531</ele>
        <time>2018-05-20T09:32:35Z</time>
      </trkpt>
      <trkpt lat="42.873317040503025" lon="-7.872114982455969">
        <ele>531.20000000000005</ele>
        <time>2018-05-20T09:32:36Z</time>
      </trkpt>
      <trkpt lat="42.873317040503025" lon="-7.872078018262982">
        <ele>531.39999999999998</ele>
        <time>2018-05-20T09:32:37Z</time>
      </trkpt>
      <trkpt lat="42.873317040503025" lon="-7.872016998007894">
        <ele>531.5</ele>
        <time>2018-05-20T09:32:38Z</time>
      </trkpt>
      <trkpt lat="42.873317040503025" lon="-7.871980033814907">
        <ele>531.60000000000002</ele>
        <time>2018-05-20T09:32:39Z</time>
      </trkpt>
      <trkpt lat="42.873317040503025" lon="-7.87192203104496">
        <ele>531.70000000000005</ele>
        <time>2018-05-20T09:32:40Z</time>
      </trkpt>
      <trkpt lat="42.873317040503025" lon="-7.871884983032942">
        <ele>531.79999999999995</ele>
        <time>2018-05-20T09:32:41Z</time>
      </trkpt>
      <trkpt lat="42.873319974169135" lon="-7.871827986091375">
        <ele>531.89999999999998</ele>
        <time>2018-05-20T09:32:43Z</time>
      </trkpt>
      <trkpt lat="42.873319974169135" lon="-7.871791021898389">
        <ele>531.89999999999998</ele>
        <time>2018-05-20T09:32:43Z</time>
      </trkpt>
      <trkpt lat="42.873319974169135" lon="-7.87175003439188">
        <ele>532</ele>
        <time>2018-05-20T09:32:44Z</time>
      </trkpt>
      <trkpt lat="42.873327014967799" lon="-7.871721033006907">
        <ele>532.10000000000002</ele>
        <time>2018-05-20T09:32:45Z</time>
      </trkpt>
      <trkpt lat="42.873327014967799" lon="-7.871679039672017">
        <ele>532.20000000000005</ele>
        <time>2018-05-20T09:32:46Z</time>
      </trkpt>
      <trkpt lat="42.873327014967799" lon="-7.871637968346477">
        <ele>532.29999999999995</ele>
        <time>2018-05-20T09:32:47Z</time>
      </trkpt>
      <trkpt lat="42.873327014967799" lon="-7.871596980839968">
        <ele>532.29999999999995</ele>
        <time>2018-05-20T09:32:48Z</time>
      </trkpt>
      <trkpt lat="42.873327014967799" lon="-7.871547024697065">
        <ele>532.39999999999998</ele>
        <time>2018-05-20T09:32:49Z</time>
      </trkpt>
      <trkpt lat="42.873327014967799" lon="-7.871506037190557">
        <ele>532.5</ele>
        <time>2018-05-20T09:32:50Z</time>
      </trkpt>
      <trkpt lat="42.873327014967799" lon="-7.871457003057003">
        <ele>532.60000000000002</ele>
        <time>2018-05-20T09:32:51Z</time>
      </trkpt>
      <trkpt lat="42.873327014967799" lon="-7.871404029428959">
        <ele>532.70000000000005</ele>
        <time>2018-05-20T09:32:52Z</time>
      </trkpt>
      <trkpt lat="42.873327014967799" lon="-7.871362958103418">
        <ele>532.79999999999995</ele>
        <time>2018-05-20T09:32:53Z</time>
      </trkpt>
      <trkpt lat="42.873327014967799" lon="-7.871314007788897">
        <ele>532.79999999999995</ele>
        <time>2018-05-20T09:32:54Z</time>
      </trkpt>
      <trkpt lat="42.873327014967799" lon="-7.871267991140485">
        <ele>532.89999999999998</ele>
        <time>2018-05-20T09:32:55Z</time>
      </trkpt>
      <trkpt lat="42.873327014967799" lon="-7.871210994198918">
        <ele>533.20000000000005</ele>
        <time>2018-05-20T09:32:56Z</time>
      </trkpt>
      <trkpt lat="42.873327014967799" lon="-7.871161960065365">
        <ele>533.5</ele>
        <time>2018-05-20T09:32:57Z</time>
      </trkpt>
      <trkpt lat="42.873327014967799" lon="-7.871124995872378">
        <ele>533.70000000000005</ele>
        <time>2018-05-20T09:32:58Z</time>
      </trkpt>
      <trkpt lat="42.873327014967799" lon="-7.871088031679392">
        <ele>533.89999999999998</ele>
        <time>2018-05-20T09:32:59Z</time>
      </trkpt>
      <trkpt lat="42.873327014967799" lon="-7.871046960353851">
        <ele>534.20000000000005</ele>
        <time>2018-05-20T09:32:59Z</time>
      </trkpt>
      <trkpt lat="42.873330032452941" lon="-7.871009996160865">
        <ele>534.39999999999998</ele>
        <time>2018-05-20T09:33:00Z</time>
      </trkpt>
      <trkpt lat="42.873330032452941" lon="-7.870973031967878">
        <ele>534.60000000000002</ele>
        <time>2018-05-20T09:33:01Z</time>
      </trkpt>
      <trkpt lat="42.873330032452941" lon="-7.87093598395586">
        <ele>534.89999999999998</ele>
        <time>2018-05-20T09:33:02Z</time>
      </trkpt>
      <trkpt lat="42.873330032452941" lon="-7.870878987014294">
        <ele>535.20000000000005</ele>
        <time>2018-05-20T09:33:03Z</time>
      </trkpt>
      <trkpt lat="42.873330032452941" lon="-7.870837999507785">
        <ele>535.5</ele>
        <time>2018-05-20T09:33:04Z</time>
      </trkpt>
      <trkpt lat="42.873333971947432" lon="-7.870788965374231">
        <ele>535.79999999999995</ele>
        <time>2018-05-20T09:33:05Z</time>
      </trkpt>
      <trkpt lat="42.873333971947432" lon="-7.870746972039342">
        <ele>536</ele>
        <time>2018-05-20T09:33:06Z</time>
      </trkpt>
      <trkpt lat="42.873336989432573" lon="-7.87069802172482">
        <ele>536.29999999999995</ele>
        <time>2018-05-20T09:33:07Z</time>
      </trkpt>
      <trkpt lat="42.873340006917715" lon="-7.870660973712802">
        <ele>536.60000000000002</ele>
        <time>2018-05-20T09:33:08Z</time>
      </trkpt>
      <trkpt lat="42.873346963897347" lon="-7.870624009519815">
        <ele>536.79999999999995</ele>
        <time>2018-05-20T09:33:09Z</time>
      </trkpt>
      <trkpt lat="42.873354004696012" lon="-7.870574975386262">
        <ele>537.20000000000005</ele>
        <time>2018-05-20T09:33:10Z</time>
      </trkpt>
      <trkpt lat="42.873354004696012" lon="-7.870538011193276">
        <ele>537.39999999999998</ele>
        <time>2018-05-20T09:33:11Z</time>
      </trkpt>
      <trkpt lat="42.873357022181153" lon="-7.870493000373244">
        <ele>537.70000000000005</ele>
        <time>2018-05-20T09:33:12Z</time>
      </trkpt>
      <trkpt lat="42.873357022181153" lon="-7.870456036180258">
        <ele>537.89999999999998</ele>
        <time>2018-05-20T09:33:12Z</time>
      </trkpt>
      <trkpt lat="42.873357022181153" lon="-7.870411025360227">
        <ele>538.20000000000005</ele>
        <time>2018-05-20T09:33:13Z</time>
      </trkpt>
      <trkpt lat="42.873357022181153" lon="-7.870361991226673">
        <ele>538.60000000000002</ele>
        <time>2018-05-20T09:33:14Z</time>
      </trkpt>
      <trkpt lat="42.873357022181153" lon="-7.870325027033687">
        <ele>538.89999999999998</ele>
        <time>2018-05-20T09:33:15Z</time>
      </trkpt>
      <trkpt lat="42.873357022181153" lon="-7.870273981243372">
        <ele>539.29999999999995</ele>
        <time>2018-05-20T09:33:16Z</time>
      </trkpt>
      <trkpt lat="42.873349981382489" lon="-7.870243974030018">
        <ele>539.5</ele>
        <time>2018-05-20T09:33:17Z</time>
      </trkpt>
      <trkpt lat="42.873333971947432" lon="-7.870211033150554">
        <ele>539.70000000000005</ele>
        <time>2018-05-20T09:33:18Z</time>
      </trkpt>
      <trkpt lat="42.873312011361122" lon="-7.870185971260071">
        <ele>539.89999999999998</ele>
        <time>2018-05-20T09:33:19Z</time>
      </trkpt>
      <trkpt lat="42.87328602746129" lon="-7.870172979310155">
        <ele>539.89999999999998</ele>
        <time>2018-05-20T09:33:20Z</time>
      </trkpt>
      <trkpt lat="42.873259037733078" lon="-7.870148001238704">
        <ele>540</ele>
        <time>2018-05-20T09:33:21Z</time>
      </trkpt>
      <trkpt lat="42.87324302829802" lon="-7.870124028995633">
        <ele>540.10000000000002</ele>
        <time>2018-05-20T09:33:21Z</time>
      </trkpt>
      <trkpt lat="42.873235987499356" lon="-7.870080024003983">
        <ele>540.5</ele>
        <time>2018-05-20T09:33:22Z</time>
      </trkpt>
      <trkpt lat="42.873235987499356" lon="-7.870040964335203">
        <ele>540.79999999999995</ele>
        <time>2018-05-20T09:33:23Z</time>
      </trkpt>
      <trkpt lat="42.873235987499356" lon="-7.86998899653554">
        <ele>541.20000000000005</ele>
        <time>2018-05-20T09:33:24Z</time>
      </trkpt>
      <trkpt lat="42.873235987499356" lon="-7.869952032342553">
        <ele>541.60000000000002</ele>
        <time>2018-05-20T09:33:25Z</time>
      </trkpt>
      <trkpt lat="42.873239004984498" lon="-7.869898974895477">
        <ele>542</ele>
        <time>2018-05-20T09:33:26Z</time>
      </trkpt>
      <trkpt lat="42.87324596196413" lon="-7.869866034016013">
        <ele>542.29999999999995</ele>
        <time>2018-05-20T09:33:27Z</time>
      </trkpt>
      <trkpt lat="42.87324596196413" lon="-7.869827980175614">
        <ele>542.70000000000005</ele>
        <time>2018-05-20T09:33:28Z</time>
      </trkpt>
      <trkpt lat="42.873248979449272" lon="-7.869782969355583">
        <ele>543.10000000000002</ele>
        <time>2018-05-20T09:33:29Z</time>
      </trkpt>
      <trkpt lat="42.873248979449272" lon="-7.869733013212681">
        <ele>543.5</ele>
        <time>2018-05-20T09:33:30Z</time>
      </trkpt>
      <trkpt lat="42.873248979449272" lon="-7.869696971029043">
        <ele>543.79999999999995</ele>
        <time>2018-05-20T09:33:31Z</time>
      </trkpt>
      <trkpt lat="42.873251996934414" lon="-7.869651038199663">
        <ele>544.20000000000005</ele>
        <time>2018-05-20T09:33:32Z</time>
      </trkpt>
      <trkpt lat="42.873251996934414" lon="-7.869606027379632">
        <ele>544.60000000000002</ele>
        <time>2018-05-20T09:33:33Z</time>
      </trkpt>
      <trkpt lat="42.873256020247936" lon="-7.869556993246079">
        <ele>545</ele>
        <time>2018-05-20T09:33:34Z</time>
      </trkpt>
      <trkpt lat="42.873256020247936" lon="-7.869520029053092">
        <ele>545.29999999999995</ele>
        <time>2018-05-20T09:33:34Z</time>
      </trkpt>
      <trkpt lat="42.873259037733078" lon="-7.869446016848087">
        <ele>545.79999999999995</ele>
        <time>2018-05-20T09:33:36Z</time>
      </trkpt>
      <trkpt lat="42.873259037733078" lon="-7.869405029341579">
        <ele>546.20000000000005</ele>
        <time>2018-05-20T09:33:37Z</time>
      </trkpt>
      <trkpt lat="42.873259037733078" lon="-7.869355995208025">
        <ele>546.5</ele>
        <time>2018-05-20T09:33:38Z</time>
      </trkpt>
      <trkpt lat="42.873259037733078" lon="-7.869315007701516">
        <ele>546.79999999999995</ele>
        <time>2018-05-20T09:33:39Z</time>
      </trkpt>
      <trkpt lat="42.87326599471271" lon="-7.86928198300302">
        <ele>547.10000000000002</ele>
        <time>2018-05-20T09:33:40Z</time>
      </trkpt>
      <trkpt lat="42.87326599471271" lon="-7.869245018810034">
        <ele>547.39999999999998</ele>
        <time>2018-05-20T09:33:41Z</time>
      </trkpt>
      <trkpt lat="42.87326599471271" lon="-7.869207970798016">
        <ele>547.70000000000005</ele>
        <time>2018-05-20T09:33:41Z</time>
      </trkpt>
      <trkpt lat="42.873256020247936" lon="-7.869166983291507">
        <ele>547.89999999999998</ele>
        <time>2018-05-20T09:33:42Z</time>
      </trkpt>
      <trkpt lat="42.873232970014215" lon="-7.869125995784998">
        <ele>548.10000000000002</ele>
        <time>2018-05-20T09:33:43Z</time>
      </trkpt>
      <trkpt lat="42.873204974457622" lon="-7.869121972471476">
        <ele>548</ele>
        <time>2018-05-20T09:33:44Z</time>
      </trkpt>
      <trkpt lat="42.873181002214551" lon="-7.869088025763631">
        <ele>548.20000000000005</ele>
        <time>2018-05-20T09:33:45Z</time>
      </trkpt>
      <trkpt lat="42.873239004984498" lon="-7.869068998843432">
        <ele>548.60000000000002</ele>
        <time>2018-05-20T09:33:47Z</time>
      </trkpt>
      <trkpt lat="42.873239004984498" lon="-7.869015019387007">
        <ele>549</ele>
        <time>2018-05-20T09:33:48Z</time>
      </trkpt>
      <trkpt lat="42.873217966407537" lon="-7.868923991918564">
        <ele>549.5</ele>
        <time>2018-05-20T09:33:50Z</time>
      </trkpt>
      <trkpt lat="42.873174967244267" lon="-7.868813015520573">
        <ele>550.10000000000002</ele>
        <time>2018-05-20T09:33:53Z</time>
      </trkpt>
      <trkpt lat="42.873124005272985" lon="-7.86867898888886">
        <ele>551</ele>
        <time>2018-05-20T09:33:56Z</time>
      </trkpt>
      <trkpt lat="42.873076982796192" lon="-7.868568012490869">
        <ele>551.89999999999998</ele>
        <time>2018-05-20T09:33:59Z</time>
      </trkpt>
      <trkpt lat="42.873024009168148" lon="-7.868475979194045">
        <ele>552.60000000000002</ele>
        <time>2018-05-20T09:34:02Z</time>
      </trkpt>
      <trkpt lat="42.872943039983511" lon="-7.868416970595717">
        <ele>552.79999999999995</ele>
        <time>2018-05-20T09:34:04Z</time>
      </trkpt>
      <trkpt lat="42.87289802916348" lon="-7.868391992524266">
        <ele>552.79999999999995</ele>
        <time>2018-05-20T09:34:06Z</time>
      </trkpt>
      <trkpt lat="42.8728589694947" lon="-7.868380006402731">
        <ele>552.70000000000005</ele>
        <time>2018-05-20T09:34:07Z</time>
      </trkpt>
      <trkpt lat="42.872854024171829" lon="-7.868380006402731">
        <ele>552.70000000000005</ele>
        <time>2018-05-20T09:34:07Z</time>
      </trkpt>
      <trkpt lat="42.872788980603218" lon="-7.86835502833128">
        <ele>552.60000000000002</ele>
        <time>2018-05-20T09:34:09Z</time>
      </trkpt>
      <trkpt lat="42.872694013640285" lon="-7.868267018347979">
        <ele>552.89999999999998</ele>
        <time>2018-05-20T09:34:12Z</time>
      </trkpt>
      <trkpt lat="42.8725999686867" lon="-7.868221001699567">
        <ele>552.70000000000005</ele>
        <time>2018-05-20T09:34:15Z</time>
      </trkpt>
      <trkpt lat="42.872585970908403" lon="-7.868210021406412">
        <ele>552.79999999999995</ele>
        <time>2018-05-20T09:34:16Z</time>
      </trkpt>
      <trkpt lat="42.87255403585732" lon="-7.868181020021439">
        <ele>552.79999999999995</ele>
        <time>2018-05-20T09:34:17Z</time>
      </trkpt>
      <trkpt lat="42.872542971745133" lon="-7.868128968402743">
        <ele>553.10000000000002</ele>
        <time>2018-05-20T09:34:18Z</time>
      </trkpt>
      <trkpt lat="42.87255797535181" lon="-7.868093010038137">
        <ele>553.5</ele>
        <time>2018-05-20T09:34:19Z</time>
      </trkpt>
      <trkpt lat="42.872573984786868" lon="-7.868046993389726">
        <ele>554</ele>
        <time>2018-05-20T09:34:20Z</time>
      </trkpt>
      <trkpt lat="42.87259703502059" lon="-7.867995025590062">
        <ele>554.60000000000002</ele>
        <time>2018-05-20T09:34:22Z</time>
      </trkpt>
      <trkpt lat="42.872615978121758" lon="-7.86794900894165">
        <ele>555.20000000000005</ele>
        <time>2018-05-20T09:34:23Z</time>
      </trkpt>
      <trkpt lat="42.872629975900054" lon="-7.867911038920283">
        <ele>555.60000000000002</ele>
        <time>2018-05-20T09:34:24Z</time>
      </trkpt>
      <trkpt lat="42.87264104001224" lon="-7.867856975644827">
        <ele>556</ele>
        <time>2018-05-20T09:34:25Z</time>
      </trkpt>
      <trkpt lat="42.872652020305395" lon="-7.867809031158686">
        <ele>556.39999999999998</ele>
        <time>2018-05-20T09:34:26Z</time>
      </trkpt>
      <trkpt lat="42.872674986720085" lon="-7.867768965661526">
        <ele>556.89999999999998</ele>
        <time>2018-05-20T09:34:27Z</time>
      </trkpt>
      <trkpt lat="42.872688984498382" lon="-7.867706017568708">
        <ele>557.39999999999998</ele>
        <time>2018-05-20T09:34:29Z</time>
      </trkpt>
      <trkpt lat="42.872699964791536" lon="-7.867652038112283">
        <ele>557.79999999999995</ele>
        <time>2018-05-20T09:34:30Z</time>
      </trkpt>
      <trkpt lat="42.872704993933439" lon="-7.867594035342336">
        <ele>558.20000000000005</ele>
        <time>2018-05-20T09:34:31Z</time>
      </trkpt>
      <trkpt lat="42.872724020853639" lon="-7.867551958188415">
        <ele>558.60000000000002</ele>
        <time>2018-05-20T09:34:32Z</time>
      </trkpt>
      <trkpt lat="42.872741958126426" lon="-7.867500996217132">
        <ele>559</ele>
        <time>2018-05-20T09:34:33Z</time>
      </trkpt>
      <trkpt lat="42.872760985046625" lon="-7.867442993447185">
        <ele>559.5</ele>
        <time>2018-05-20T09:34:35Z</time>
      </trkpt>
      <trkpt lat="42.872766014188528" lon="-7.867391025647521">
        <ele>559.89999999999998</ele>
        <time>2018-05-20T09:34:36Z</time>
      </trkpt>
      <trkpt lat="42.872766014188528" lon="-7.867307038977742">
        <ele>560.39999999999998</ele>
        <time>2018-05-20T09:34:38Z</time>
      </trkpt>
      <trkpt lat="42.872774982824922" lon="-7.86726102232933">
        <ele>560.70000000000005</ele>
        <time>2018-05-20T09:34:39Z</time>
      </trkpt>
      <trkpt lat="42.872784035280347" lon="-7.867215005680919">
        <ele>561.10000000000002</ele>
        <time>2018-05-20T09:34:40Z</time>
      </trkpt>
      <trkpt lat="42.872789986431599" lon="-7.867166977375746">
        <ele>561.39999999999998</ele>
        <time>2018-05-20T09:34:41Z</time>
      </trkpt>
      <trkpt lat="42.872809013351798" lon="-7.867115009576082">
        <ele>561.89999999999998</ele>
        <time>2018-05-20T09:34:42Z</time>
      </trkpt>
      <trkpt lat="42.872813958674669" lon="-7.867056000977755">
        <ele>562.29999999999995</ele>
        <time>2018-05-20T09:34:43Z</time>
      </trkpt>
      <trkpt lat="42.872817981988192" lon="-7.867004033178091">
        <ele>562.70000000000005</ele>
        <time>2018-05-20T09:34:45Z</time>
      </trkpt>
      <trkpt lat="42.872842038050294" lon="-7.866947036236525">
        <ele>563.20000000000005</ele>
        <time>2018-05-20T09:34:46Z</time>
      </trkpt>
      <trkpt lat="42.872851006686687" lon="-7.866901019588113">
        <ele>563.60000000000002</ele>
        <time>2018-05-20T09:34:47Z</time>
      </trkpt>
      <trkpt lat="42.872865004464984" lon="-7.866826001554728">
        <ele>564.20000000000005</ele>
        <time>2018-05-20T09:34:49Z</time>
      </trkpt>
      <trkpt lat="42.872865004464984" lon="-7.866770010441542">
        <ele>564.5</ele>
        <time>2018-05-20T09:34:50Z</time>
      </trkpt>
      <trkpt lat="42.872865004464984" lon="-7.866718964651227">
        <ele>564.89999999999998</ele>
        <time>2018-05-20T09:34:51Z</time>
      </trkpt>
      <trkpt lat="42.872865004464984" lon="-7.866656016558409">
        <ele>565.29999999999995</ele>
        <time>2018-05-20T09:34:52Z</time>
      </trkpt>
      <trkpt lat="42.872859975323081" lon="-7.866591978818178">
        <ele>565.60000000000002</ele>
        <time>2018-05-20T09:34:54Z</time>
      </trkpt>
      <trkpt lat="42.872851006686687" lon="-7.866534981876612">
        <ele>565.89999999999998</ele>
        <time>2018-05-20T09:34:55Z</time>
      </trkpt>
      <trkpt lat="42.872831979766488" lon="-7.866483014076948">
        <ele>566.20000000000005</ele>
        <time>2018-05-20T09:34:56Z</time>
      </trkpt>
      <trkpt lat="42.872802978381515" lon="-7.866439009085298">
        <ele>566.29999999999995</ele>
        <time>2018-05-20T09:34:58Z</time>
      </trkpt>
      <trkpt lat="42.872774982824922" lon="-7.866297019645572">
        <ele>567.20000000000005</ele>
        <time>2018-05-20T09:35:01Z</time>
      </trkpt>
      <trkpt lat="42.872774982824922" lon="-7.866196017712355">
        <ele>567.89999999999998</ele>
        <time>2018-05-20T09:35:03Z</time>
      </trkpt>
      <trkpt lat="42.872774982824922" lon="-7.866089986637235">
        <ele>568.79999999999995</ele>
        <time>2018-05-20T09:35:05Z</time>
      </trkpt>
      <trkpt lat="42.87277297116816" lon="-7.865925030782819">
        <ele>570.20000000000005</ele>
        <time>2018-05-20T09:35:09Z</time>
      </trkpt>
      <trkpt lat="42.872828040271997" lon="-7.865565028041601">
        <ele>573.10000000000002</ele>
        <time>2018-05-20T09:35:17Z</time>
      </trkpt>
      <trkpt lat="42.872857041656971" lon="-7.865316001698375">
        <ele>575.39999999999998</ele>
        <time>2018-05-20T09:35:22Z</time>
      </trkpt>
      <trkpt lat="42.872924013063312" lon="-7.865115003660321">
        <ele>577.60000000000002</ele>
        <time>2018-05-20T09:35:27Z</time>
      </trkpt>
      <trkpt lat="42.873037001118064" lon="-7.864872012287378">
        <ele>580.60000000000002</ele>
        <time>2018-05-20T09:35:34Z</time>
      </trkpt>
      <trkpt lat="42.873037001118064" lon="-7.864863965660334">
        <ele>580.70000000000005</ele>
        <time>2018-05-20T09:35:34Z</time>
      </trkpt>
      <trkpt lat="42.8731369972229" lon="-7.864688029512763">
        <ele>582.60000000000002</ele>
        <time>2018-05-20T09:35:39Z</time>
      </trkpt>
      <trkpt lat="42.87324596196413" lon="-7.864469010382891">
        <ele>584.79999999999995</ele>
        <time>2018-05-20T09:35:44Z</time>
      </trkpt>
      <trkpt lat="42.873364984989166" lon="-7.864228030666709">
        <ele>587.10000000000002</ele>
        <time>2018-05-20T09:35:51Z</time>
      </trkpt>
      <trkpt lat="42.87337202578783" lon="-7.86420900374651">
        <ele>587.29999999999995</ele>
        <time>2018-05-20T09:35:51Z</time>
      </trkpt>
      <trkpt lat="42.873380994424224" lon="-7.864157035946846">
        <ele>587.79999999999995</ele>
        <time>2018-05-20T09:35:52Z</time>
      </trkpt>
      <trkpt lat="42.873400021344423" lon="-7.864111019298434">
        <ele>588.29999999999995</ele>
        <time>2018-05-20T09:35:53Z</time>
      </trkpt>
      <trkpt lat="42.873408989980817" lon="-7.864058967679739">
        <ele>588.79999999999995</ele>
        <time>2018-05-20T09:35:55Z</time>
      </trkpt>
      <trkpt lat="42.87341795861721" lon="-7.863990990445018">
        <ele>589.5</ele>
        <time>2018-05-20T09:35:56Z</time>
      </trkpt>
      <trkpt lat="42.87341795861721" lon="-7.863939022645354">
        <ele>590</ele>
        <time>2018-05-20T09:35:57Z</time>
      </trkpt>
      <trkpt lat="42.87341795861721" lon="-7.863857969641686">
        <ele>590.89999999999998</ele>
        <time>2018-05-20T09:35:59Z</time>
      </trkpt>
      <trkpt lat="42.87341795861721" lon="-7.863788986578584">
        <ele>591.60000000000002</ele>
        <time>2018-05-20T09:36:01Z</time>
      </trkpt>
      <trkpt lat="42.87341795861721" lon="-7.863731989637017">
        <ele>592.10000000000002</ele>
        <time>2018-05-20T09:36:02Z</time>
      </trkpt>
      <trkpt lat="42.87341795861721" lon="-7.863678010180593">
        <ele>592.39999999999998</ele>
        <time>2018-05-20T09:36:03Z</time>
      </trkpt>
      <trkpt lat="42.873408989980817" lon="-7.863609027117491">
        <ele>592.70000000000005</ele>
        <time>2018-05-20T09:36:04Z</time>
      </trkpt>
      <trkpt lat="42.873403960838914" lon="-7.863540966063738">
        <ele>593</ele>
        <time>2018-05-20T09:36:06Z</time>
      </trkpt>
      <trkpt lat="42.873400021344423" lon="-7.863482963293791">
        <ele>593.29999999999995</ele>
        <time>2018-05-20T09:36:07Z</time>
      </trkpt>
      <trkpt lat="42.873400021344423" lon="-7.863413980230689">
        <ele>593.70000000000005</ele>
        <time>2018-05-20T09:36:09Z</time>
      </trkpt>
      <trkpt lat="42.87339499220252" lon="-7.863363018259406">
        <ele>593.89999999999998</ele>
        <time>2018-05-20T09:36:10Z</time>
      </trkpt>
      <trkpt lat="42.873389963060617" lon="-7.863281965255737">
        <ele>594.29999999999995</ele>
        <time>2018-05-20T09:36:12Z</time>
      </trkpt>
      <trkpt lat="42.873389963060617" lon="-7.863229997456074">
        <ele>594.60000000000002</ele>
        <time>2018-05-20T09:36:13Z</time>
      </trkpt>
      <trkpt lat="42.873380994424224" lon="-7.863166965544224">
        <ele>594.89999999999998</ele>
        <time>2018-05-20T09:36:14Z</time>
      </trkpt>
      <trkpt lat="42.87337202578783" lon="-7.863116003572941">
        <ele>595.10000000000002</ele>
        <time>2018-05-20T09:36:15Z</time>
      </trkpt>
      <trkpt lat="42.873361967504025" lon="-7.86302899941802">
        <ele>595.5</ele>
        <time>2018-05-20T09:36:17Z</time>
      </trkpt>
      <trkpt lat="42.873358028009534" lon="-7.862978037446737">
        <ele>595.79999999999995</ele>
        <time>2018-05-20T09:36:18Z</time>
      </trkpt>
      <trkpt lat="42.873352998867631" lon="-7.86292003467679">
        <ele>596</ele>
        <time>2018-05-20T09:36:20Z</time>
      </trkpt>
      <trkpt lat="42.873339001089334" lon="-7.862863037735224">
        <ele>596.20000000000005</ele>
        <time>2018-05-20T09:36:21Z</time>
      </trkpt>
      <trkpt lat="42.873333971947432" lon="-7.862803023308516">
        <ele>596.39999999999998</ele>
        <time>2018-05-20T09:36:22Z</time>
      </trkpt>
      <trkpt lat="42.873319974169135" lon="-7.862746026366949">
        <ele>596.60000000000002</ele>
        <time>2018-05-20T09:36:23Z</time>
      </trkpt>
      <trkpt lat="42.873319974169135" lon="-7.862682994455099">
        <ele>596.79999999999995</ele>
        <time>2018-05-20T09:36:25Z</time>
      </trkpt>
      <trkpt lat="42.873319974169135" lon="-7.862624991685152">
        <ele>597</ele>
        <time>2018-05-20T09:36:26Z</time>
      </trkpt>
      <trkpt lat="42.873319974169135" lon="-7.862574029713869">
        <ele>597.20000000000005</ele>
        <time>2018-05-20T09:36:27Z</time>
      </trkpt>
      <trkpt lat="42.873319974169135" lon="-7.862507980316877">
        <ele>597.39999999999998</ele>
        <time>2018-05-20T09:36:29Z</time>
      </trkpt>
      <trkpt lat="42.873330032452941" lon="-7.862457018345594">
        <ele>597.60000000000002</ele>
        <time>2018-05-20T09:36:30Z</time>
      </trkpt>
      <trkpt lat="42.873344030231237" lon="-7.862393986433744">
        <ele>597.89999999999998</ele>
        <time>2018-05-20T09:36:31Z</time>
      </trkpt>
      <trkpt lat="42.873352998867631" lon="-7.862335983663797">
        <ele>598.10000000000002</ele>
        <time>2018-05-20T09:36:33Z</time>
      </trkpt>
      <trkpt lat="42.87337202578783" lon="-7.86227697506547">
        <ele>598.39999999999998</ele>
        <time>2018-05-20T09:36:34Z</time>
      </trkpt>
      <trkpt lat="42.873386023566127" lon="-7.862202040851116">
        <ele>598.70000000000005</ele>
        <time>2018-05-20T09:36:36Z</time>
      </trkpt>
      <trkpt lat="42.873400021344423" lon="-7.862144960090518">
        <ele>598.89999999999998</ele>
        <time>2018-05-20T09:36:37Z</time>
      </trkpt>
      <trkpt lat="42.873403960838914" lon="-7.862092992290855">
        <ele>599.10000000000002</ele>
        <time>2018-05-20T09:36:38Z</time>
      </trkpt>
      <trkpt lat="42.87341795861721" lon="-7.862029960379005">
        <ele>599.20000000000005</ele>
        <time>2018-05-20T09:36:39Z</time>
      </trkpt>
      <trkpt lat="42.87343698553741" lon="-7.861967012286186">
        <ele>599.29999999999995</ele>
        <time>2018-05-20T09:36:41Z</time>
      </trkpt>
      <trkpt lat="42.873442014679313" lon="-7.861914960667491">
        <ele>599.29999999999995</ele>
        <time>2018-05-20T09:36:42Z</time>
      </trkpt>
      <trkpt lat="42.873460035771132" lon="-7.861857041716576">
        <ele>599.39999999999998</ele>
        <time>2018-05-20T09:36:43Z</time>
      </trkpt>
      <trkpt lat="42.873464981094003" lon="-7.861799960955977">
        <ele>599.39999999999998</ele>
        <time>2018-05-20T09:36:45Z</time>
      </trkpt>
      <trkpt lat="42.873474033549428" lon="-7.861742964014411">
        <ele>599.5</ele>
        <time>2018-05-20T09:36:46Z</time>
      </trkpt>
      <trkpt lat="42.873488031327724" lon="-7.861668029800057">
        <ele>599.5</ele>
        <time>2018-05-20T09:36:48Z</time>
      </trkpt>
      <trkpt lat="42.873494988307357" lon="-7.86160902120173">
        <ele>599.60000000000002</ele>
        <time>2018-05-20T09:36:49Z</time>
      </trkpt>
      <trkpt lat="42.873504040762782" lon="-7.861534003168345">
        <ele>599.60000000000002</ele>
        <time>2018-05-20T09:36:51Z</time>
      </trkpt>
      <trkpt lat="42.873515021055937" lon="-7.861467031762004">
        <ele>599.60000000000002</ele>
        <time>2018-05-20T09:36:52Z</time>
      </trkpt>
      <trkpt lat="42.87352398969233" lon="-7.861402994021773">
        <ele>599.70000000000005</ele>
        <time>2018-05-20T09:36:53Z</time>
      </trkpt>
      <trkpt lat="42.873546034097672" lon="-7.861345997080207">
        <ele>599.70000000000005</ele>
        <time>2018-05-20T09:36:55Z</time>
      </trkpt>
      <trkpt lat="42.873574029654264" lon="-7.861089007928968">
        <ele>599.60000000000002</ele>
        <time>2018-05-20T09:37:01Z</time>
      </trkpt>
      <trkpt lat="42.873592972755432" lon="-7.860786002129316">
        <ele>599.20000000000005</ele>
        <time>2018-05-20T09:37:07Z</time>
      </trkpt>
      <trkpt lat="42.87360998801887" lon="-7.860533036291599">
        <ele>598.79999999999995</ele>
        <time>2018-05-20T09:37:13Z</time>
      </trkpt>
      <trkpt lat="42.87362901493907" lon="-7.860387023538351">
        <ele>598.70000000000005</ele>
        <time>2018-05-20T09:37:16Z</time>
      </trkpt>
      <trkpt lat="42.87367201410234" lon="-7.859958037734032">
        <ele>598.29999999999995</ele>
        <time>2018-05-20T09:37:25Z</time>
      </trkpt>
      <trkpt lat="42.873714007437229" lon="-7.859720997512341">
        <ele>598.10000000000002</ele>
        <time>2018-05-20T09:37:31Z</time>
      </trkpt>
      <trkpt lat="42.873719036579132" lon="-7.859535003080964">
        <ele>598.10000000000002</ele>
        <time>2018-05-20T09:37:35Z</time>
      </trkpt>
      <trkpt lat="42.873719036579132" lon="-7.859400976449251">
        <ele>598.39999999999998</ele>
        <time>2018-05-20T09:37:37Z</time>
      </trkpt>
      <trkpt lat="42.873734040185809" lon="-7.859095958992839">
        <ele>599.10000000000002</ele>
        <time>2018-05-20T09:37:44Z</time>
      </trkpt>
      <trkpt lat="42.873752983286977" lon="-7.85888196900487">
        <ele>599.70000000000005</ele>
        <time>2018-05-20T09:37:49Z</time>
      </trkpt>
      <trkpt lat="42.873752983286977" lon="-7.858832012861967">
        <ele>599.79999999999995</ele>
        <time>2018-05-20T09:37:50Z</time>
      </trkpt>
      <trkpt lat="42.873786007985473" lon="-7.858575023710728">
        <ele>600.60000000000002</ele>
        <time>2018-05-20T09:37:56Z</time>
      </trkpt>
      <trkpt lat="42.873786007985473" lon="-7.858524983748794">
        <ele>600.70000000000005</ele>
        <time>2018-05-20T09:37:57Z</time>
      </trkpt>
      <trkpt lat="42.873818026855588" lon="-7.858264977112413">
        <ele>601.5</ele>
        <time>2018-05-20T09:38:02Z</time>
      </trkpt>
      <trkpt lat="42.873828001320362" lon="-7.858221977949143">
        <ele>601.70000000000005</ele>
        <time>2018-05-20T09:38:03Z</time>
      </trkpt>
      <trkpt lat="42.87386697717011" lon="-7.857947973534465">
        <ele>602.5</ele>
        <time>2018-05-20T09:38:09Z</time>
      </trkpt>
      <trkpt lat="42.873901007696986" lon="-7.857657037675381">
        <ele>603.10000000000002</ele>
        <time>2018-05-20T09:38:16Z</time>
      </trkpt>
      <trkpt lat="42.873901007696986" lon="-7.857648991048336">
        <ele>603.10000000000002</ele>
        <time>2018-05-20T09:38:16Z</time>
      </trkpt>
      <trkpt lat="42.873921040445566" lon="-7.857413040474057">
        <ele>603.5</ele>
        <time>2018-05-20T09:38:21Z</time>
      </trkpt>
      <trkpt lat="42.873939983546734" lon="-7.857100982218981">
        <ele>604.10000000000002</ele>
        <time>2018-05-20T09:38:28Z</time>
      </trkpt>
      <trkpt lat="42.873949036002159" lon="-7.856751037761569">
        <ele>605.29999999999995</ele>
        <time>2018-05-20T09:38:35Z</time>
      </trkpt>
      <trkpt lat="42.873964961618185" lon="-7.85632498562336">
        <ele>606.79999999999995</ele>
        <time>2018-05-20T09:38:45Z</time>
      </trkpt>
      <trkpt lat="42.873964961618185" lon="-7.856307970359922">
        <ele>606.89999999999998</ele>
        <time>2018-05-20T09:38:45Z</time>
      </trkpt>
      <trkpt lat="42.87397401407361" lon="-7.85623898729682">
        <ele>607.20000000000005</ele>
        <time>2018-05-20T09:38:47Z</time>
      </trkpt>
      <trkpt lat="42.87397401407361" lon="-7.856188025325537">
        <ele>607.5</ele>
        <time>2018-05-20T09:38:48Z</time>
      </trkpt>
      <trkpt lat="42.87397401407361" lon="-7.85613002255559">
        <ele>607.79999999999995</ele>
        <time>2018-05-20T09:38:49Z</time>
      </trkpt>
      <trkpt lat="42.87397401407361" lon="-7.85604402422905">
        <ele>608.29999999999995</ele>
        <time>2018-05-20T09:38:51Z</time>
      </trkpt>
      <trkpt lat="42.873983988538384" lon="-7.855998007580638">
        <ele>608.70000000000005</ele>
        <time>2018-05-20T09:38:52Z</time>
      </trkpt>
      <trkpt lat="42.873983988538384" lon="-7.855934975668788">
        <ele>609</ele>
        <time>2018-05-20T09:38:53Z</time>
      </trkpt>
      <trkpt lat="42.874002009630203" lon="-7.855883007869124">
        <ele>609.5</ele>
        <time>2018-05-20T09:38:55Z</time>
      </trkpt>
      <trkpt lat="42.874002009630203" lon="-7.85583196207881">
        <ele>609.79999999999995</ele>
        <time>2018-05-20T09:38:56Z</time>
      </trkpt>
      <trkpt lat="42.874007038772106" lon="-7.855773959308863">
        <ele>610.10000000000002</ele>
        <time>2018-05-20T09:38:57Z</time>
      </trkpt>
      <trkpt lat="42.874007038772106" lon="-7.855671029537916">
        <ele>610.70000000000005</ele>
        <time>2018-05-20T09:38:59Z</time>
      </trkpt>
      <trkpt lat="42.8740160074085" lon="-7.855596011504531">
        <ele>611.20000000000005</ele>
        <time>2018-05-20T09:39:01Z</time>
      </trkpt>
      <trkpt lat="42.874025981873274" lon="-7.855492997914553">
        <ele>611.89999999999998</ele>
        <time>2018-05-20T09:39:03Z</time>
      </trkpt>
      <trkpt lat="42.87403997965157" lon="-7.855432983487845">
        <ele>612.29999999999995</ele>
        <time>2018-05-20T09:39:04Z</time>
      </trkpt>
      <trkpt lat="42.87403997965157" lon="-7.855375986546278">
        <ele>612.60000000000002</ele>
        <time>2018-05-20T09:39:06Z</time>
      </trkpt>
      <trkpt lat="42.874044002965093" lon="-7.85531303845346">
        <ele>613</ele>
        <time>2018-05-20T09:39:07Z</time>
      </trkpt>
      <trkpt lat="42.874044002965093" lon="-7.855249000713229">
        <ele>613.29999999999995</ele>
        <time>2018-05-20T09:39:08Z</time>
      </trkpt>
      <trkpt lat="42.874044002965093" lon="-7.855163002386689">
        <ele>613.79999999999995</ele>
        <time>2018-05-20T09:39:10Z</time>
      </trkpt>
      <trkpt lat="42.874049032106996" lon="-7.855106005445123">
        <ele>614.10000000000002</ele>
        <time>2018-05-20T09:39:12Z</time>
      </trkpt>
      <trkpt lat="42.874049032106996" lon="-7.855042973533273">
        <ele>614.39999999999998</ele>
        <time>2018-05-20T09:39:13Z</time>
      </trkpt>
      <trkpt lat="42.874049032106996" lon="-7.854984970763326">
        <ele>614.70000000000005</ele>
        <time>2018-05-20T09:39:14Z</time>
      </trkpt>
      <trkpt lat="42.874058000743389" lon="-7.854915987700224">
        <ele>615.10000000000002</ele>
        <time>2018-05-20T09:39:16Z</time>
      </trkpt>
      <trkpt lat="42.874063029885292" lon="-7.854829989373684">
        <ele>615.60000000000002</ele>
        <time>2018-05-20T09:39:18Z</time>
      </trkpt>
      <trkpt lat="42.874063029885292" lon="-7.854761006310582">
        <ele>616</ele>
        <time>2018-05-20T09:39:19Z</time>
      </trkpt>
      <trkpt lat="42.874088007956743" lon="-7.854643994942308">
        <ele>616.70000000000005</ele>
        <time>2018-05-20T09:39:22Z</time>
      </trkpt>
      <trkpt lat="42.874107034876943" lon="-7.85443402826786">
        <ele>617.5</ele>
        <time>2018-05-20T09:39:26Z</time>
      </trkpt>
      <trkpt lat="42.874165959656239" lon="-7.854062039405108">
        <ele>618.70000000000005</ele>
        <time>2018-05-20T09:39:35Z</time>
      </trkpt>
      <trkpt lat="42.874203007668257" lon="-7.853742018342018">
        <ele>619.70000000000005</ele>
        <time>2018-05-20T09:39:42Z</time>
      </trkpt>
      <trkpt lat="42.874203007668257" lon="-7.853733971714973">
        <ele>619.79999999999995</ele>
        <time>2018-05-20T09:39:42Z</time>
      </trkpt>
      <trkpt lat="42.874221028760076" lon="-7.853444963693619">
        <ele>620.5</ele>
        <time>2018-05-20T09:39:48Z</time>
      </trkpt>
      <trkpt lat="42.874227985739708" lon="-7.853429960086942">
        <ele>620.60000000000002</ele>
        <time>2018-05-20T09:39:48Z</time>
      </trkpt>
      <trkpt lat="42.874262016266584" lon="-7.853105999529362">
        <ele>621.70000000000005</ele>
        <time>2018-05-20T09:39:56Z</time>
      </trkpt>
      <trkpt lat="42.874323958531022" lon="-7.852854961529374">
        <ele>622.89999999999998</ele>
        <time>2018-05-20T09:40:01Z</time>
      </trkpt>
      <trkpt lat="42.874371986836195" lon="-7.852615993469954">
        <ele>623.5</ele>
        <time>2018-05-20T09:40:07Z</time>
      </trkpt>
      <trkpt lat="42.874421020969748" lon="-7.852445002645254">
        <ele>624.10000000000002</ele>
        <time>2018-05-20T09:40:11Z</time>
      </trkpt>
      <trkpt lat="42.874457985162735" lon="-7.85230896435678">
        <ele>624.5</ele>
        <time>2018-05-20T09:40:14Z</time>
      </trkpt>
      <trkpt lat="42.874506013467908" lon="-7.852183990180492">
        <ele>625.10000000000002</ele>
        <time>2018-05-20T09:40:17Z</time>
      </trkpt>
      <trkpt lat="42.874567033722997" lon="-7.852038983255625">
        <ele>625.70000000000005</ele>
        <time>2018-05-20T09:40:21Z</time>
      </trkpt>
      <trkpt lat="42.87457600235939" lon="-7.852033032104373">
        <ele>625.79999999999995</ele>
        <time>2018-05-20T09:40:21Z</time>
      </trkpt>
      <trkpt lat="42.874599974602461" lon="-7.851992966607213">
        <ele>625.79999999999995</ele>
        <time>2018-05-20T09:40:22Z</time>
      </trkpt>
      <trkpt lat="42.874634005129337" lon="-7.851950973272324">
        <ele>625.79999999999995</ele>
        <time>2018-05-20T09:40:23Z</time>
      </trkpt>
      <trkpt lat="42.874667029827833" lon="-7.851909985765815">
        <ele>625.79999999999995</ele>
        <time>2018-05-20T09:40:25Z</time>
      </trkpt>
      <trkpt lat="42.874689996242523" lon="-7.851870004087687">
        <ele>625.70000000000005</ele>
        <time>2018-05-20T09:40:26Z</time>
      </trkpt>
      <trkpt lat="42.874722015112638" lon="-7.851818036288023">
        <ele>625.70000000000005</ele>
        <time>2018-05-20T09:40:27Z</time>
      </trkpt>
      <trkpt lat="42.874745987355709" lon="-7.851777970790863">
        <ele>625.70000000000005</ele>
        <time>2018-05-20T09:40:28Z</time>
      </trkpt>
      <trkpt lat="42.874764008447528" lon="-7.851732037961483">
        <ele>625.60000000000002</ele>
        <time>2018-05-20T09:40:29Z</time>
      </trkpt>
      <trkpt lat="42.874783035367727" lon="-7.851686021313071">
        <ele>625.5</ele>
        <time>2018-05-20T09:40:31Z</time>
      </trkpt>
      <trkpt lat="42.874801978468895" lon="-7.851646039634943">
        <ele>625.5</ele>
        <time>2018-05-20T09:40:32Z</time>
      </trkpt>
      <trkpt lat="42.874825028702617" lon="-7.851588958874345">
        <ele>625.39999999999998</ele>
        <time>2018-05-20T09:40:33Z</time>
      </trkpt>
      <trkpt lat="42.874839026480913" lon="-7.851543026044965">
        <ele>625.29999999999995</ele>
        <time>2018-05-20T09:40:34Z</time>
      </trkpt>
      <trkpt lat="42.874857969582081" lon="-7.85149097442627">
        <ele>625.20000000000005</ele>
        <time>2018-05-20T09:40:35Z</time>
      </trkpt>
      <trkpt lat="42.874867022037506" lon="-7.851433977484703">
        <ele>625.10000000000002</ele>
        <time>2018-05-20T09:40:37Z</time>
      </trkpt>
      <trkpt lat="42.874885965138674" lon="-7.851368011906743">
        <ele>625</ele>
        <time>2018-05-20T09:40:38Z</time>
      </trkpt>
      <trkpt lat="42.874889988452196" lon="-7.851311014965177">
        <ele>624.89999999999998</ele>
        <time>2018-05-20T09:40:39Z</time>
      </trkpt>
      <trkpt lat="42.874889988452196" lon="-7.851258963346481">
        <ele>624.79999999999995</ele>
        <time>2018-05-20T09:40:41Z</time>
      </trkpt>
      <trkpt lat="42.87489996291697" lon="-7.851196015253663">
        <ele>624.70000000000005</ele>
        <time>2018-05-20T09:40:42Z</time>
      </trkpt>
      <trkpt lat="42.87489996291697" lon="-7.851122003048658">
        <ele>624.60000000000002</ele>
        <time>2018-05-20T09:40:44Z</time>
      </trkpt>
      <trkpt lat="42.87489996291697" lon="-7.851070035248995">
        <ele>624.60000000000002</ele>
        <time>2018-05-20T09:40:45Z</time>
      </trkpt>
      <trkpt lat="42.874889988452196" lon="-7.8510179836303">
        <ele>624.5</ele>
        <time>2018-05-20T09:40:46Z</time>
      </trkpt>
      <trkpt lat="42.874889988452196" lon="-7.850960986688733">
        <ele>624.39999999999998</ele>
        <time>2018-05-20T09:40:47Z</time>
      </trkpt>
      <trkpt lat="42.874881019815803" lon="-7.85090901888907">
        <ele>624.29999999999995</ele>
        <time>2018-05-20T09:40:48Z</time>
      </trkpt>
      <trkpt lat="42.874871967360377" lon="-7.850852021947503">
        <ele>624.20000000000005</ele>
        <time>2018-05-20T09:40:50Z</time>
      </trkpt>
      <trkpt lat="42.874861992895603" lon="-7.850787984207273">
        <ele>624.10000000000002</ele>
        <time>2018-05-20T09:40:51Z</time>
      </trkpt>
      <trkpt lat="42.87483399733901" lon="-7.850654041394591">
        <ele>623.79999999999995</ele>
        <time>2018-05-20T09:40:54Z</time>
      </trkpt>
      <trkpt lat="42.874777000397444" lon="-7.850465029478073">
        <ele>623.20000000000005</ele>
        <time>2018-05-20T09:40:58Z</time>
      </trkpt>
      <trkpt lat="42.874732995405793" lon="-7.85030803643167">
        <ele>623.39999999999998</ele>
        <time>2018-05-20T09:41:02Z</time>
      </trkpt>
      <trkpt lat="42.87468203343451" lon="-7.850136961787939">
        <ele>623.70000000000005</ele>
        <time>2018-05-20T09:41:06Z</time>
      </trkpt>
      <trkpt lat="42.874668035656214" lon="-7.850096980109811">
        <ele>623.79999999999995</ele>
        <time>2018-05-20T09:41:07Z</time>
      </trkpt>
      <trkpt lat="42.874649008736014" lon="-7.850043000653386">
        <ele>623.79999999999995</ele>
        <time>2018-05-20T09:41:08Z</time>
      </trkpt>
      <trkpt lat="42.874625958502293" lon="-7.84998600371182">
        <ele>623.89999999999998</ele>
        <time>2018-05-20T09:41:10Z</time>
      </trkpt>
      <trkpt lat="42.874607015401125" lon="-7.849939987063408">
        <ele>623.89999999999998</ele>
        <time>2018-05-20T09:41:11Z</time>
      </trkpt>
      <trkpt lat="42.874588994309306" lon="-7.849888019263744">
        <ele>623.89999999999998</ele>
        <time>2018-05-20T09:41:12Z</time>
      </trkpt>
      <trkpt lat="42.874569967389107" lon="-7.849835967645049">
        <ele>624</ele>
        <time>2018-05-20T09:41:13Z</time>
      </trkpt>
      <trkpt lat="42.874550018459558" lon="-7.849775031208992">
        <ele>624.10000000000002</ele>
        <time>2018-05-20T09:41:15Z</time>
      </trkpt>
      <trkpt lat="42.874539960175753" lon="-7.849727002903819">
        <ele>624.29999999999995</ele>
        <time>2018-05-20T09:41:16Z</time>
      </trkpt>
      <trkpt lat="42.874522022902966" lon="-7.849675035104156">
        <ele>624.39999999999998</ele>
        <time>2018-05-20T09:41:17Z</time>
      </trkpt>
      <trkpt lat="42.874502995982766" lon="-7.849612003192306">
        <ele>624.5</ele>
        <time>2018-05-20T09:41:19Z</time>
      </trkpt>
      <trkpt lat="42.87448899820447" lon="-7.849548971280456">
        <ele>624.70000000000005</ele>
        <time>2018-05-20T09:41:20Z</time>
      </trkpt>
      <trkpt lat="42.874461002647877" lon="-7.849474037066102">
        <ele>625</ele>
        <time>2018-05-20T09:41:22Z</time>
      </trkpt>
      <trkpt lat="42.874438036233187" lon="-7.849400024861097">
        <ele>625.39999999999998</ele>
        <time>2018-05-20T09:41:24Z</time>
      </trkpt>
      <trkpt lat="42.874419009312987" lon="-7.849302040413022">
        <ele>625.79999999999995</ele>
        <time>2018-05-20T09:41:26Z</time>
      </trkpt>
      <trkpt lat="42.874405011534691" lon="-7.849244959652424">
        <ele>626.10000000000002</ele>
        <time>2018-05-20T09:41:27Z</time>
      </trkpt>
      <trkpt lat="42.874385984614491" lon="-7.849153010174632">
        <ele>626.5</ele>
        <time>2018-05-20T09:41:29Z</time>
      </trkpt>
      <trkpt lat="42.874377015978098" lon="-7.849113028496504">
        <ele>626.70000000000005</ele>
        <time>2018-05-20T09:41:30Z</time>
      </trkpt>
      <trkpt lat="42.874363018199801" lon="-7.849038010463119">
        <ele>627</ele>
        <time>2018-05-20T09:41:32Z</time>
      </trkpt>
      <trkpt lat="42.874349020421505" lon="-7.848950000479817">
        <ele>627.5</ele>
        <time>2018-05-20T09:41:34Z</time>
      </trkpt>
      <trkpt lat="42.874343991279602" lon="-7.84889199770987">
        <ele>627.79999999999995</ele>
        <time>2018-05-20T09:41:35Z</time>
      </trkpt>
      <trkpt lat="42.874335022643209" lon="-7.848841035738587">
        <ele>628</ele>
        <time>2018-05-20T09:41:36Z</time>
      </trkpt>
      <trkpt lat="42.874325970187783" lon="-7.848788984119892">
        <ele>628.20000000000005</ele>
        <time>2018-05-20T09:41:37Z</time>
      </trkpt>
      <trkpt lat="42.874325970187783" lon="-7.848708014935255">
        <ele>628.70000000000005</ele>
        <time>2018-05-20T09:41:39Z</time>
      </trkpt>
      <trkpt lat="42.874321024864912" lon="-7.848640037700534">
        <ele>629</ele>
        <time>2018-05-20T09:41:41Z</time>
      </trkpt>
      <trkpt lat="42.874311972409487" lon="-7.8485709708184">
        <ele>629.20000000000005</ele>
        <time>2018-05-20T09:41:42Z</time>
      </trkpt>
      <trkpt lat="42.874311972409487" lon="-7.848480027168989">
        <ele>629.70000000000005</ele>
        <time>2018-05-20T09:41:44Z</time>
      </trkpt>
      <trkpt lat="42.874311972409487" lon="-7.848423030227423">
        <ele>629.89999999999998</ele>
        <time>2018-05-20T09:41:45Z</time>
      </trkpt>
      <trkpt lat="42.874311972409487" lon="-7.848359998315573">
        <ele>630.20000000000005</ele>
        <time>2018-05-20T09:41:47Z</time>
      </trkpt>
      <trkpt lat="42.874311972409487" lon="-7.848291015252471">
        <ele>630.60000000000002</ele>
        <time>2018-05-20T09:41:48Z</time>
      </trkpt>
      <trkpt lat="42.874311972409487" lon="-7.848227983340621">
        <ele>630.89999999999998</ele>
        <time>2018-05-20T09:41:50Z</time>
      </trkpt>
      <trkpt lat="42.874311972409487" lon="-7.848176015540958">
        <ele>631.10000000000002</ele>
        <time>2018-05-20T09:41:51Z</time>
      </trkpt>
      <trkpt lat="42.874311972409487" lon="-7.84805498085916">
        <ele>631.70000000000005</ele>
        <time>2018-05-20T09:41:53Z</time>
      </trkpt>
      <trkpt lat="42.874311972409487" lon="-7.847992032766342">
        <ele>632</ele>
        <time>2018-05-20T09:41:55Z</time>
      </trkpt>
      <trkpt lat="42.874311972409487" lon="-7.847935035824776">
        <ele>632.29999999999995</ele>
        <time>2018-05-20T09:41:56Z</time>
      </trkpt>
      <trkpt lat="42.874311972409487" lon="-7.847865968942642">
        <ele>632.39999999999998</ele>
        <time>2018-05-20T09:41:57Z</time>
      </trkpt>
      <trkpt lat="42.874311972409487" lon="-7.847803020849824">
        <ele>632.5</ele>
        <time>2018-05-20T09:41:59Z</time>
      </trkpt>
      <trkpt lat="42.874311972409487" lon="-7.847750969231129">
        <ele>632.60000000000002</ele>
        <time>2018-05-20T09:42:00Z</time>
      </trkpt>
      <trkpt lat="42.874311972409487" lon="-7.847699001431465">
        <ele>632.60000000000002</ele>
        <time>2018-05-20T09:42:01Z</time>
      </trkpt>
      <trkpt lat="42.874311972409487" lon="-7.847646027803421">
        <ele>632.70000000000005</ele>
        <time>2018-05-20T09:42:02Z</time>
      </trkpt>
      <trkpt lat="42.874323958531022" lon="-7.847432959824801">
        <ele>633</ele>
        <time>2018-05-20T09:42:07Z</time>
      </trkpt>
      <trkpt lat="42.874323958531022" lon="-7.847399013116956">
        <ele>633.10000000000002</ele>
        <time>2018-05-20T09:42:08Z</time>
      </trkpt>
      <trkpt lat="42.874323958531022" lon="-7.847330030053854">
        <ele>633.10000000000002</ele>
        <time>2018-05-20T09:42:09Z</time>
      </trkpt>
      <trkpt lat="42.874323958531022" lon="-7.847277978435159">
        <ele>633.20000000000005</ele>
        <time>2018-05-20T09:42:10Z</time>
      </trkpt>
      <trkpt lat="42.874323958531022" lon="-7.847208995372057">
        <ele>633.29999999999995</ele>
        <time>2018-05-20T09:42:12Z</time>
      </trkpt>
      <trkpt lat="42.874323958531022" lon="-7.847140012308955">
        <ele>633.39999999999998</ele>
        <time>2018-05-20T09:42:13Z</time>
      </trkpt>
      <trkpt lat="42.874323958531022" lon="-7.847088966518641">
        <ele>633.39999999999998</ele>
        <time>2018-05-20T09:42:14Z</time>
      </trkpt>
      <trkpt lat="42.874323958531022" lon="-7.847036998718977">
        <ele>633.39999999999998</ele>
        <time>2018-05-20T09:42:15Z</time>
      </trkpt>
      <trkpt lat="42.874320019036531" lon="-7.84697899594903">
        <ele>633.39999999999998</ele>
        <time>2018-05-20T09:42:17Z</time>
      </trkpt>
      <trkpt lat="42.874312978237867" lon="-7.846933985128999">
        <ele>633.29999999999995</ele>
        <time>2018-05-20T09:42:18Z</time>
      </trkpt>
      <trkpt lat="42.874309038743377" lon="-7.846811022609472">
        <ele>633.20000000000005</ele>
        <time>2018-05-20T09:42:20Z</time>
      </trkpt>
      <trkpt lat="42.874309038743377" lon="-7.846606001257896">
        <ele>633.20000000000005</ele>
        <time>2018-05-20T09:42:25Z</time>
      </trkpt>
      <trkpt lat="42.874309038743377" lon="-7.846287991851568">
        <ele>633</ele>
        <time>2018-05-20T09:42:32Z</time>
      </trkpt>
      <trkpt lat="42.874309038743377" lon="-7.846280029043555">
        <ele>633</ele>
        <time>2018-05-20T09:42:32Z</time>
      </trkpt>
      <trkpt lat="42.874309038743377" lon="-7.84596998244524">
        <ele>634</ele>
        <time>2018-05-20T09:42:39Z</time>
      </trkpt>
      <trkpt lat="42.874309038743377" lon="-7.845962019637227">
        <ele>634</ele>
        <time>2018-05-20T09:42:39Z</time>
      </trkpt>
      <trkpt lat="42.87433703429997" lon="-7.845675023272634">
        <ele>635.20000000000005</ele>
        <time>2018-05-20T09:42:45Z</time>
      </trkpt>
      <trkpt lat="42.874332005158067" lon="-7.84566898830235">
        <ele>635.20000000000005</ele>
        <time>2018-05-20T09:42:45Z</time>
      </trkpt>
      <trkpt lat="42.874332005158067" lon="-7.845618026331067">
        <ele>635.39999999999998</ele>
        <time>2018-05-20T09:42:46Z</time>
      </trkpt>
      <trkpt lat="42.874332005158067" lon="-7.845536973327398">
        <ele>635.70000000000005</ele>
        <time>2018-05-20T09:42:48Z</time>
      </trkpt>
      <trkpt lat="42.874332005158067" lon="-7.845467990264297">
        <ele>635.89999999999998</ele>
        <time>2018-05-20T09:42:50Z</time>
      </trkpt>
      <trkpt lat="42.874332005158067" lon="-7.845381991937757">
        <ele>636.20000000000005</ele>
        <time>2018-05-20T09:42:51Z</time>
      </trkpt>
      <trkpt lat="42.874332005158067" lon="-7.845295993611217">
        <ele>636.29999999999995</ele>
        <time>2018-05-20T09:42:53Z</time>
      </trkpt>
      <trkpt lat="42.874332005158067" lon="-7.845232961699367">
        <ele>636.5</ele>
        <time>2018-05-20T09:42:55Z</time>
      </trkpt>
      <trkpt lat="42.874332005158067" lon="-7.845158027485013">
        <ele>636.60000000000002</ele>
        <time>2018-05-20T09:42:56Z</time>
      </trkpt>
      <trkpt lat="42.874332005158067" lon="-7.845094995573163">
        <ele>636.79999999999995</ele>
        <time>2018-05-20T09:42:58Z</time>
      </trkpt>
      <trkpt lat="42.87433703429997" lon="-7.845036992803216">
        <ele>636.89999999999998</ele>
        <time>2018-05-20T09:42:59Z</time>
      </trkpt>
      <trkpt lat="42.874346002936363" lon="-7.844986030831933">
        <ele>637</ele>
        <time>2018-05-20T09:43:00Z</time>
      </trkpt>
      <trkpt lat="42.874346002936363" lon="-7.844922998920083">
        <ele>637.20000000000005</ele>
        <time>2018-05-20T09:43:01Z</time>
      </trkpt>
      <trkpt lat="42.874351032078266" lon="-7.844864996150136">
        <ele>637.29999999999995</ele>
        <time>2018-05-20T09:43:03Z</time>
      </trkpt>
      <trkpt lat="42.874354971572757" lon="-7.84480799920857">
        <ele>637.39999999999998</ele>
        <time>2018-05-20T09:43:04Z</time>
      </trkpt>
      <trkpt lat="42.87436000071466" lon="-7.844756031408906">
        <ele>637.60000000000002</ele>
        <time>2018-05-20T09:43:05Z</time>
      </trkpt>
      <trkpt lat="42.874368969351053" lon="-7.84469903446734">
        <ele>637.70000000000005</ele>
        <time>2018-05-20T09:43:06Z</time>
      </trkpt>
      <trkpt lat="42.874373998492956" lon="-7.844629967585206">
        <ele>637.89999999999998</ele>
        <time>2018-05-20T09:43:08Z</time>
      </trkpt>
      <trkpt lat="42.87438296712935" lon="-7.844584034755826">
        <ele>638</ele>
        <time>2018-05-20T09:43:09Z</time>
      </trkpt>
      <trkpt lat="42.87438296712935" lon="-7.844526031985879">
        <ele>638</ele>
        <time>2018-05-20T09:43:10Z</time>
      </trkpt>
      <trkpt lat="42.87438296712935" lon="-7.844463000074029">
        <ele>638</ele>
        <time>2018-05-20T09:43:12Z</time>
      </trkpt>
      <trkpt lat="42.87438296712935" lon="-7.844411032274365">
        <ele>637.89999999999998</ele>
        <time>2018-05-20T09:43:13Z</time>
      </trkpt>
      <trkpt lat="42.87438296712935" lon="-7.844337020069361">
        <ele>637.89999999999998</ele>
        <time>2018-05-20T09:43:14Z</time>
      </trkpt>
      <trkpt lat="42.87438296712935" lon="-7.844233000651002">
        <ele>637.79999999999995</ele>
        <time>2018-05-20T09:43:17Z</time>
      </trkpt>
      <trkpt lat="42.87438296712935" lon="-7.844136022031307">
        <ele>637.79999999999995</ele>
        <time>2018-05-20T09:43:19Z</time>
      </trkpt>
      <trkpt lat="42.87438296712935" lon="-7.84407801926136">
        <ele>637.70000000000005</ele>
        <time>2018-05-20T09:43:20Z</time>
      </trkpt>
      <trkpt lat="42.87438296712935" lon="-7.844026973471046">
        <ele>637.70000000000005</ele>
        <time>2018-05-20T09:43:21Z</time>
      </trkpt>
      <trkpt lat="42.87438296712935" lon="-7.843968970701098">
        <ele>637.70000000000005</ele>
        <time>2018-05-20T09:43:22Z</time>
      </trkpt>
      <trkpt lat="42.87438296712935" lon="-7.84390602260828">
        <ele>637.60000000000002</ele>
        <time>2018-05-20T09:43:24Z</time>
      </trkpt>
      <trkpt lat="42.87438296712935" lon="-7.84384299069643">
        <ele>637.60000000000002</ele>
        <time>2018-05-20T09:43:25Z</time>
      </trkpt>
      <trkpt lat="42.87438296712935" lon="-7.84377995878458">
        <ele>637.60000000000002</ele>
        <time>2018-05-20T09:43:26Z</time>
      </trkpt>
      <trkpt lat="42.87438296712935" lon="-7.843727990984917">
        <ele>637.5</ele>
        <time>2018-05-20T09:43:27Z</time>
      </trkpt>
      <trkpt lat="42.874379027634859" lon="-7.843652972951531">
        <ele>637.39999999999998</ele>
        <time>2018-05-20T09:43:29Z</time>
      </trkpt>
      <trkpt lat="42.874379027634859" lon="-7.843602010980249">
        <ele>637.39999999999998</ele>
        <time>2018-05-20T09:43:30Z</time>
      </trkpt>
      <trkpt lat="42.874379027634859" lon="-7.843526992946863">
        <ele>637.29999999999995</ele>
        <time>2018-05-20T09:43:32Z</time>
      </trkpt>
      <trkpt lat="42.874379027634859" lon="-7.843468990176916">
        <ele>637.29999999999995</ele>
        <time>2018-05-20T09:43:33Z</time>
      </trkpt>
      <trkpt lat="42.874373998492956" lon="-7.843401012942195">
        <ele>637.20000000000005</ele>
        <time>2018-05-20T09:43:35Z</time>
      </trkpt>
      <trkpt lat="42.874365029856563" lon="-7.843332029879093">
        <ele>637</ele>
        <time>2018-05-20T09:43:36Z</time>
      </trkpt>
      <trkpt lat="42.874365029856563" lon="-7.843279978260398">
        <ele>637</ele>
        <time>2018-05-20T09:43:37Z</time>
      </trkpt>
      <trkpt lat="42.874354971572757" lon="-7.843193979933858">
        <ele>636.79999999999995</ele>
        <time>2018-05-20T09:43:39Z</time>
      </trkpt>
      <trkpt lat="42.874354971572757" lon="-7.843076968565583">
        <ele>636.70000000000005</ele>
        <time>2018-05-20T09:43:42Z</time>
      </trkpt>
      <trkpt lat="42.874354971572757" lon="-7.84302500076592">
        <ele>636.60000000000002</ele>
        <time>2018-05-20T09:43:43Z</time>
      </trkpt>
      <trkpt lat="42.874351032078266" lon="-7.84296196885407">
        <ele>636.5</ele>
        <time>2018-05-20T09:43:44Z</time>
      </trkpt>
      <trkpt lat="42.874351032078266" lon="-7.842899020761251">
        <ele>636.39999999999998</ele>
        <time>2018-05-20T09:43:45Z</time>
      </trkpt>
      <trkpt lat="42.87433703429997" lon="-7.842818973585963">
        <ele>635.79999999999995</ele>
        <time>2018-05-20T09:43:47Z</time>
      </trkpt>
      <trkpt lat="42.87433703429997" lon="-7.842755019664764">
        <ele>635.5</ele>
        <time>2018-05-20T09:43:49Z</time>
      </trkpt>
      <trkpt lat="42.874332005158067" lon="-7.842691987752914">
        <ele>635.10000000000002</ele>
        <time>2018-05-20T09:43:50Z</time>
      </trkpt>
      <trkpt lat="42.874326976016164" lon="-7.842612024396658">
        <ele>634.70000000000005</ele>
        <time>2018-05-20T09:43:52Z</time>
      </trkpt>
      <trkpt lat="42.874323036521673" lon="-7.842543041333556">
        <ele>634.29999999999995</ele>
        <time>2018-05-20T09:43:53Z</time>
      </trkpt>
      <trkpt lat="42.874323036521673" lon="-7.842473974451423">
        <ele>633.89999999999998</ele>
        <time>2018-05-20T09:43:55Z</time>
      </trkpt>
      <trkpt lat="42.87431800737977" lon="-7.842415971681476">
        <ele>633.5</ele>
        <time>2018-05-20T09:43:56Z</time>
      </trkpt>
      <trkpt lat="42.87431800737977" lon="-7.842336008325219">
        <ele>633.10000000000002</ele>
        <time>2018-05-20T09:43:58Z</time>
      </trkpt>
      <trkpt lat="42.87431800737977" lon="-7.842284040525556">
        <ele>632.89999999999998</ele>
        <time>2018-05-20T09:43:59Z</time>
      </trkpt>
      <trkpt lat="42.87431800737977" lon="-7.842226959764957">
        <ele>632.60000000000002</ele>
        <time>2018-05-20T09:44:00Z</time>
      </trkpt>
      <trkpt lat="42.87431800737977" lon="-7.842146996408701">
        <ele>632.10000000000002</ele>
        <time>2018-05-20T09:44:02Z</time>
      </trkpt>
      <trkpt lat="42.87431800737977" lon="-7.842095028609037">
        <ele>631.89999999999998</ele>
        <time>2018-05-20T09:44:03Z</time>
      </trkpt>
      <trkpt lat="42.87431800737977" lon="-7.842013975605369">
        <ele>631.5</ele>
        <time>2018-05-20T09:44:05Z</time>
      </trkpt>
      <trkpt lat="42.874326976016164" lon="-7.841939963400364">
        <ele>631.29999999999995</ele>
        <time>2018-05-20T09:44:06Z</time>
      </trkpt>
      <trkpt lat="42.874332005158067" lon="-7.841877015307546">
        <ele>631.10000000000002</ele>
        <time>2018-05-20T09:44:08Z</time>
      </trkpt>
      <trkpt lat="42.87433703429997" lon="-7.84180199727416">
        <ele>630.89999999999998</ele>
        <time>2018-05-20T09:44:09Z</time>
      </trkpt>
      <trkpt lat="42.87434097379446" lon="-7.841743994504213">
        <ele>630.60000000000002</ele>
        <time>2018-05-20T09:44:11Z</time>
      </trkpt>
      <trkpt lat="42.874354971572757" lon="-7.841674005612731">
        <ele>630.5</ele>
        <time>2018-05-20T09:44:12Z</time>
      </trkpt>
      <trkpt lat="42.874368969351053" lon="-7.841616002842784">
        <ele>630.29999999999995</ele>
        <time>2018-05-20T09:44:14Z</time>
      </trkpt>
      <trkpt lat="42.87438296712935" lon="-7.841559005901218">
        <ele>630.20000000000005</ele>
        <time>2018-05-20T09:44:15Z</time>
      </trkpt>
      <trkpt lat="42.874393025413156" lon="-7.841507038101554">
        <ele>630</ele>
        <time>2018-05-20T09:44:16Z</time>
      </trkpt>
      <trkpt lat="42.874401994049549" lon="-7.841450041159987">
        <ele>629.89999999999998</ele>
        <time>2018-05-20T09:44:17Z</time>
      </trkpt>
      <trkpt lat="42.874410962685943" lon="-7.84139203839004">
        <ele>629.60000000000002</ele>
        <time>2018-05-20T09:44:19Z</time>
      </trkpt>
      <trkpt lat="42.874415991827846" lon="-7.841322971507907">
        <ele>629.29999999999995</ele>
        <time>2018-05-20T09:44:20Z</time>
      </trkpt>
      <trkpt lat="42.874421020969748" lon="-7.841272009536624">
        <ele>629.10000000000002</ele>
        <time>2018-05-20T09:44:21Z</time>
      </trkpt>
      <trkpt lat="42.874429989606142" lon="-7.841214006766677">
        <ele>629</ele>
        <time>2018-05-20T09:44:23Z</time>
      </trkpt>
      <trkpt lat="42.874429989606142" lon="-7.841160027310252">
        <ele>628.89999999999998</ele>
        <time>2018-05-20T09:44:24Z</time>
      </trkpt>
      <trkpt lat="42.874435018748045" lon="-7.841103030368686">
        <ele>628.79999999999995</ele>
        <time>2018-05-20T09:44:25Z</time>
      </trkpt>
      <trkpt lat="42.874435018748045" lon="-7.841048967093229">
        <ele>628.70000000000005</ele>
        <time>2018-05-20T09:44:26Z</time>
      </trkpt>
      <trkpt lat="42.874438958242536" lon="-7.840986019000411">
        <ele>628.60000000000002</ele>
        <time>2018-05-20T09:44:28Z</time>
      </trkpt>
      <trkpt lat="42.874438958242536" lon="-7.840932039543986">
        <ele>628.5</ele>
        <time>2018-05-20T09:44:29Z</time>
      </trkpt>
      <trkpt lat="42.874438958242536" lon="-7.840851992368698">
        <ele>628.29999999999995</ele>
        <time>2018-05-20T09:44:30Z</time>
      </trkpt>
      <trkpt lat="42.874438958242536" lon="-7.840773034840822">
        <ele>628.20000000000005</ele>
        <time>2018-05-20T09:44:32Z</time>
      </trkpt>
      <trkpt lat="42.874443987384439" lon="-7.840714026242495">
        <ele>628.10000000000002</ele>
        <time>2018-05-20T09:44:33Z</time>
      </trkpt>
      <trkpt lat="42.874443987384439" lon="-7.840656023472548">
        <ele>628</ele>
        <time>2018-05-20T09:44:35Z</time>
      </trkpt>
      <trkpt lat="42.874449016526341" lon="-7.840605983510613">
        <ele>627.89999999999998</ele>
        <time>2018-05-20T09:44:36Z</time>
      </trkpt>
      <trkpt lat="42.874449016526341" lon="-7.840548986569047">
        <ele>627.79999999999995</ele>
        <time>2018-05-20T09:44:37Z</time>
      </trkpt>
      <trkpt lat="42.874453039839864" lon="-7.840497018769383">
        <ele>627.70000000000005</ele>
        <time>2018-05-20T09:44:38Z</time>
      </trkpt>
      <trkpt lat="42.874453039839864" lon="-7.840428035706282">
        <ele>627.60000000000002</ele>
        <time>2018-05-20T09:44:40Z</time>
      </trkpt>
      <trkpt lat="42.87446896545589" lon="-7.840381013229489">
        <ele>627.60000000000002</ele>
        <time>2018-05-20T09:44:41Z</time>
      </trkpt>
      <trkpt lat="42.87446896545589" lon="-7.840288979932666">
        <ele>627.70000000000005</ele>
        <time>2018-05-20T09:44:43Z</time>
      </trkpt>
      <trkpt lat="42.874482963234186" lon="-7.840203987434506">
        <ele>627.89999999999998</ele>
        <time>2018-05-20T09:44:45Z</time>
      </trkpt>
      <trkpt lat="42.874492015689611" lon="-7.840031990781426">
        <ele>628.10000000000002</ele>
        <time>2018-05-20T09:44:48Z</time>
      </trkpt>
      <trkpt lat="42.874492015689611" lon="-7.840020004659891">
        <ele>628.10000000000002</ele>
        <time>2018-05-20T09:44:49Z</time>
      </trkpt>
      <trkpt lat="42.874501990154386" lon="-7.839960996061564">
        <ele>628.20000000000005</ele>
        <time>2018-05-20T09:44:50Z</time>
      </trkpt>
      <trkpt lat="42.874506013467908" lon="-7.8399090282619">
        <ele>628.29999999999995</ele>
        <time>2018-05-20T09:44:51Z</time>
      </trkpt>
      <trkpt lat="42.874506013467908" lon="-7.839852031320334">
        <ele>628.29999999999995</ele>
        <time>2018-05-20T09:44:52Z</time>
      </trkpt>
      <trkpt lat="42.874515987932682" lon="-7.839799979701638">
        <ele>628.39999999999998</ele>
        <time>2018-05-20T09:44:53Z</time>
      </trkpt>
      <trkpt lat="42.874529985710979" lon="-7.83973703160882">
        <ele>628.60000000000002</ele>
        <time>2018-05-20T09:44:55Z</time>
      </trkpt>
      <trkpt lat="42.874534009024501" lon="-7.839684979990125">
        <ele>628.60000000000002</ele>
        <time>2018-05-20T09:44:56Z</time>
      </trkpt>
      <trkpt lat="42.874539038166404" lon="-7.839633012190461">
        <ele>628.70000000000005</ele>
        <time>2018-05-20T09:44:57Z</time>
      </trkpt>
      <trkpt lat="42.874539038166404" lon="-7.839564029127359">
        <ele>628.79999999999995</ele>
        <time>2018-05-20T09:44:59Z</time>
      </trkpt>
      <trkpt lat="42.8745530359447" lon="-7.839512983337045">
        <ele>628.89999999999998</ele>
        <time>2018-05-20T09:45:00Z</time>
      </trkpt>
      <trkpt lat="42.87457600235939" lon="-7.839454980567098">
        <ele>629</ele>
        <time>2018-05-20T09:45:01Z</time>
      </trkpt>
      <trkpt lat="42.87459502927959" lon="-7.839408963918686">
        <ele>629</ele>
        <time>2018-05-20T09:45:02Z</time>
      </trkpt>
      <trkpt lat="42.874623024836183" lon="-7.839375017210841">
        <ele>629</ele>
        <time>2018-05-20T09:45:04Z</time>
      </trkpt>
      <trkpt lat="42.874653032049537" lon="-7.839336041361094">
        <ele>629</ele>
        <time>2018-05-20T09:45:05Z</time>
      </trkpt>
      <trkpt lat="42.874675998464227" lon="-7.839295975863934">
        <ele>629</ele>
        <time>2018-05-20T09:45:06Z</time>
      </trkpt>
      <trkpt lat="42.874706005677581" lon="-7.839251970872283">
        <ele>629</ele>
        <time>2018-05-20T09:45:07Z</time>
      </trkpt>
      <trkpt lat="42.874732995405793" lon="-7.839200003072619">
        <ele>629</ele>
        <time>2018-05-20T09:45:09Z</time>
      </trkpt>
      <trkpt lat="42.874755039811134" lon="-7.839162033051252">
        <ele>629</ele>
        <time>2018-05-20T09:45:10Z</time>
      </trkpt>
      <trkpt lat="42.874780017882586" lon="-7.839126996695995">
        <ele>629</ele>
        <time>2018-05-20T09:45:11Z</time>
      </trkpt>
      <trkpt lat="42.874855035915971" lon="-7.83900797367096">
        <ele>628.89999999999998</ele>
        <time>2018-05-20T09:45:14Z</time>
      </trkpt>
      <trkpt lat="42.874929970130324" lon="-7.838816028088331">
        <ele>628.70000000000005</ele>
        <time>2018-05-20T09:45:19Z</time>
      </trkpt>
      <trkpt lat="42.875033989548683" lon="-7.838583011180162">
        <ele>628.20000000000005</ele>
        <time>2018-05-20T09:45:25Z</time>
      </trkpt>
      <trkpt lat="42.875217972323298" lon="-7.838226025924087">
        <ele>627.10000000000002</ele>
        <time>2018-05-20T09:45:34Z</time>
      </trkpt>
      <trkpt lat="42.875416958704591" lon="-7.837842972949147">
        <ele>625.79999999999995</ele>
        <time>2018-05-20T09:45:44Z</time>
      </trkpt>
      <trkpt lat="42.875492982566357" lon="-7.837669970467687">
        <ele>625.29999999999995</ele>
        <time>2018-05-20T09:45:49Z</time>
      </trkpt>
      <trkpt lat="42.875514021143317" lon="-7.837644992396236">
        <ele>625.29999999999995</ele>
        <time>2018-05-20T09:45:50Z</time>
      </trkpt>
      <trkpt lat="42.875538999214768" lon="-7.837596964091063">
        <ele>625.10000000000002</ele>
        <time>2018-05-20T09:45:51Z</time>
      </trkpt>
      <trkpt lat="42.875557020306587" lon="-7.837556982412934">
        <ele>625</ele>
        <time>2018-05-20T09:45:52Z</time>
      </trkpt>
      <trkpt lat="42.875581998378038" lon="-7.83750300295651">
        <ele>624.89999999999998</ele>
        <time>2018-05-20T09:45:53Z</time>
      </trkpt>
      <trkpt lat="42.87560697644949" lon="-7.837466038763523">
        <ele>624.79999999999995</ele>
        <time>2018-05-20T09:45:54Z</time>
      </trkpt>
      <trkpt lat="42.875626003369689" lon="-7.837421027943492">
        <ele>624.70000000000005</ele>
        <time>2018-05-20T09:45:55Z</time>
      </trkpt>
      <trkpt lat="42.875648969784379" lon="-7.837363025173545">
        <ele>624.60000000000002</ele>
        <time>2018-05-20T09:45:57Z</time>
      </trkpt>
      <trkpt lat="42.875667996704578" lon="-7.83731097355485">
        <ele>624.5</ele>
        <time>2018-05-20T09:45:58Z</time>
      </trkpt>
      <trkpt lat="42.875690963119268" lon="-7.837231010198593">
        <ele>624.29999999999995</ele>
        <time>2018-05-20T09:46:00Z</time>
      </trkpt>
      <trkpt lat="42.875709990039468" lon="-7.837178958579898">
        <ele>624.20000000000005</ele>
        <time>2018-05-20T09:46:01Z</time>
      </trkpt>
      <trkpt lat="42.875718958675861" lon="-7.837121961638331">
        <ele>624.10000000000002</ele>
        <time>2018-05-20T09:46:03Z</time>
      </trkpt>
      <trkpt lat="42.875728011131287" lon="-7.837069993838668">
        <ele>624</ele>
        <time>2018-05-20T09:46:04Z</time>
      </trkpt>
      <trkpt lat="42.875737985596061" lon="-7.837021965533495">
        <ele>623.89999999999998</ele>
        <time>2018-05-20T09:46:05Z</time>
      </trkpt>
      <trkpt lat="42.875751983374357" lon="-7.836976032704115">
        <ele>623.70000000000005</ele>
        <time>2018-05-20T09:46:06Z</time>
      </trkpt>
      <trkpt lat="42.875765981152654" lon="-7.836935967206955">
        <ele>623.60000000000002</ele>
        <time>2018-05-20T09:46:07Z</time>
      </trkpt>
      <trkpt lat="42.87577997893095" lon="-7.836883999407291">
        <ele>623.5</ele>
        <time>2018-05-20T09:46:08Z</time>
      </trkpt>
      <trkpt lat="42.875784002244473" lon="-7.836833037436009">
        <ele>623.39999999999998</ele>
        <time>2018-05-20T09:46:09Z</time>
      </trkpt>
      <trkpt lat="42.875789031386375" lon="-7.836763970553875">
        <ele>623.20000000000005</ele>
        <time>2018-05-20T09:46:11Z</time>
      </trkpt>
      <trkpt lat="42.875793976709247" lon="-7.836705967783928">
        <ele>623.10000000000002</ele>
        <time>2018-05-20T09:46:12Z</time>
      </trkpt>
      <trkpt lat="42.875793976709247" lon="-7.836648970842362">
        <ele>623</ele>
        <time>2018-05-20T09:46:13Z</time>
      </trkpt>
      <trkpt lat="42.875793976709247" lon="-7.836589040234685">
        <ele>622.79999999999995</ele>
        <time>2018-05-20T09:46:14Z</time>
      </trkpt>
      <trkpt lat="42.875793976709247" lon="-7.836530031636357">
        <ele>622.70000000000005</ele>
        <time>2018-05-20T09:46:16Z</time>
      </trkpt>
      <trkpt lat="42.875793976709247" lon="-7.836477980017662">
        <ele>622.5</ele>
        <time>2018-05-20T09:46:17Z</time>
      </trkpt>
      <trkpt lat="42.875798000022769" lon="-7.8363879583776">
        <ele>622.29999999999995</ele>
        <time>2018-05-20T09:46:19Z</time>
      </trkpt>
      <trkpt lat="42.875814009457827" lon="-7.836338002234697">
        <ele>622.20000000000005</ele>
        <time>2018-05-20T09:46:20Z</time>
      </trkpt>
      <trkpt lat="42.875838987529278" lon="-7.836289973929524">
        <ele>622.10000000000002</ele>
        <time>2018-05-20T09:46:21Z</time>
      </trkpt>
      <trkpt lat="42.875858014449477" lon="-7.836239011958242">
        <ele>622</ele>
        <time>2018-05-20T09:46:23Z</time>
      </trkpt>
      <trkpt lat="42.875872012227774" lon="-7.83619299530983">
        <ele>621.89999999999998</ele>
        <time>2018-05-20T09:46:24Z</time>
      </trkpt>
      <trkpt lat="42.875880980864167" lon="-7.836141027510166">
        <ele>621.70000000000005</ele>
        <time>2018-05-20T09:46:25Z</time>
      </trkpt>
      <trkpt lat="42.875880980864167" lon="-7.836083024740219">
        <ele>621.60000000000002</ele>
        <time>2018-05-20T09:46:26Z</time>
      </trkpt>
      <trkpt lat="42.875880980864167" lon="-7.836026027798653">
        <ele>621.5</ele>
        <time>2018-05-20T09:46:27Z</time>
      </trkpt>
      <trkpt lat="42.875880980864167" lon="-7.835973976179957">
        <ele>621.29999999999995</ele>
        <time>2018-05-20T09:46:28Z</time>
      </trkpt>
      <trkpt lat="42.875880980864167" lon="-7.835843972861767">
        <ele>621</ele>
        <time>2018-05-20T09:46:31Z</time>
      </trkpt>
      <trkpt lat="42.875894978642464" lon="-7.835811031982303">
        <ele>620.89999999999998</ele>
        <time>2018-05-20T09:46:32Z</time>
      </trkpt>
      <trkpt lat="42.87590897642076" lon="-7.835754035040736">
        <ele>620.79999999999995</ele>
        <time>2018-05-20T09:46:33Z</time>
      </trkpt>
      <trkpt lat="42.875934038311243" lon="-7.835687985643745">
        <ele>620.70000000000005</ele>
        <time>2018-05-20T09:46:35Z</time>
      </trkpt>
      <trkpt lat="42.875948958098888" lon="-7.835645992308855">
        <ele>620.60000000000002</ele>
        <time>2018-05-20T09:46:36Z</time>
      </trkpt>
      <trkpt lat="42.875964967533946" lon="-7.835486987605691">
        <ele>620.20000000000005</ele>
        <time>2018-05-20T09:46:39Z</time>
      </trkpt>
      <trkpt lat="42.875980976969004" lon="-7.835195967927575">
        <ele>619.89999999999998</ele>
        <time>2018-05-20T09:46:46Z</time>
      </trkpt>
      <trkpt lat="42.875980976969004" lon="-7.834914000704885">
        <ele>619.79999999999995</ele>
        <time>2018-05-20T09:46:52Z</time>
      </trkpt>
      <trkpt lat="42.875980976969004" lon="-7.83490695990622">
        <ele>619.79999999999995</ele>
        <time>2018-05-20T09:46:52Z</time>
      </trkpt>
      <trkpt lat="42.875980976969004" lon="-7.834633039310575">
        <ele>619.70000000000005</ele>
        <time>2018-05-20T09:46:58Z</time>
      </trkpt>
      <trkpt lat="42.875966979190707" lon="-7.834299020469189">
        <ele>620.10000000000002</ele>
        <time>2018-05-20T09:47:05Z</time>
      </trkpt>
      <trkpt lat="42.875943006947637" lon="-7.833988973870874">
        <ele>620.5</ele>
        <time>2018-05-20T09:47:12Z</time>
      </trkpt>
      <trkpt lat="42.875943006947637" lon="-7.833966007456183">
        <ele>620.60000000000002</ele>
        <time>2018-05-20T09:47:12Z</time>
      </trkpt>
      <trkpt lat="42.87592900916934" lon="-7.833738019689918">
        <ele>620.79999999999995</ele>
        <time>2018-05-20T09:47:17Z</time>
      </trkpt>
      <trkpt lat="42.875915011391044" lon="-7.833455968648195">
        <ele>620.5</ele>
        <time>2018-05-20T09:47:24Z</time>
      </trkpt>
      <trkpt lat="42.875915011391044" lon="-7.833440965041518">
        <ele>620.5</ele>
        <time>2018-05-20T09:47:24Z</time>
      </trkpt>
      <trkpt lat="42.875915011391044" lon="-7.833187999203801">
        <ele>620.29999999999995</ele>
        <time>2018-05-20T09:47:29Z</time>
      </trkpt>
      <trkpt lat="42.875876035541296" lon="-7.832940984517336">
        <ele>619.79999999999995</ele>
        <time>2018-05-20T09:47:35Z</time>
      </trkpt>
      <trkpt lat="42.87579900585115" lon="-7.832578970119357">
        <ele>617.89999999999998</ele>
        <time>2018-05-20T09:47:43Z</time>
      </trkpt>
      <trkpt lat="42.87579900585115" lon="-7.832573018968105">
        <ele>617.89999999999998</ele>
        <time>2018-05-20T09:47:43Z</time>
      </trkpt>
      <trkpt lat="42.875793976709247" lon="-7.83252096734941">
        <ele>617.70000000000005</ele>
        <time>2018-05-20T09:47:44Z</time>
      </trkpt>
      <trkpt lat="42.875790037214756" lon="-7.832463970407844">
        <ele>617.39999999999998</ele>
        <time>2018-05-20T09:47:46Z</time>
      </trkpt>
      <trkpt lat="42.87577997893095" lon="-7.832372020930052">
        <ele>617</ele>
        <time>2018-05-20T09:47:48Z</time>
      </trkpt>
      <trkpt lat="42.875771010294557" lon="-7.832301026210189">
        <ele>616.70000000000005</ele>
        <time>2018-05-20T09:47:49Z</time>
      </trkpt>
      <trkpt lat="42.87575701251626" lon="-7.832244029268622">
        <ele>616.39999999999998</ele>
        <time>2018-05-20T09:47:50Z</time>
      </trkpt>
      <trkpt lat="42.875747960060835" lon="-7.832174962386489">
        <ele>616.10000000000002</ele>
        <time>2018-05-20T09:47:52Z</time>
      </trkpt>
      <trkpt lat="42.875737985596061" lon="-7.832122994586825">
        <ele>615.89999999999998</ele>
        <time>2018-05-20T09:47:53Z</time>
      </trkpt>
      <trkpt lat="42.875723987817764" lon="-7.832054011523724">
        <ele>615.70000000000005</ele>
        <time>2018-05-20T09:47:55Z</time>
      </trkpt>
      <trkpt lat="42.875723987817764" lon="-7.831997014582157">
        <ele>615.5</ele>
        <time>2018-05-20T09:47:56Z</time>
      </trkpt>
      <trkpt lat="42.875715019181371" lon="-7.831915961578488">
        <ele>615.20000000000005</ele>
        <time>2018-05-20T09:47:58Z</time>
      </trkpt>
      <trkpt lat="42.875709990039468" lon="-7.831858964636922">
        <ele>615.10000000000002</ele>
        <time>2018-05-20T09:47:59Z</time>
      </trkpt>
      <trkpt lat="42.875705966725945" lon="-7.831800961866975">
        <ele>614.89999999999998</ele>
        <time>2018-05-20T09:48:00Z</time>
      </trkpt>
      <trkpt lat="42.875691968947649" lon="-7.831749999895692">
        <ele>614.70000000000005</ele>
        <time>2018-05-20T09:48:01Z</time>
      </trkpt>
      <trkpt lat="42.875681994482875" lon="-7.831691997125745">
        <ele>614.5</ele>
        <time>2018-05-20T09:48:03Z</time>
      </trkpt>
      <trkpt lat="42.875673025846481" lon="-7.831640029326081">
        <ele>614.39999999999998</ele>
        <time>2018-05-20T09:48:04Z</time>
      </trkpt>
      <trkpt lat="42.875667996704578" lon="-7.831588983535767">
        <ele>614.20000000000005</ele>
        <time>2018-05-20T09:48:05Z</time>
      </trkpt>
      <trkpt lat="42.875659028068185" lon="-7.831520000472665">
        <ele>614</ele>
        <time>2018-05-20T09:48:07Z</time>
      </trkpt>
      <trkpt lat="42.875655004754663" lon="-7.831456968560815">
        <ele>613.89999999999998</ele>
        <time>2018-05-20T09:48:08Z</time>
      </trkpt>
      <trkpt lat="42.875645030289888" lon="-7.831387985497713">
        <ele>613.70000000000005</ele>
        <time>2018-05-20T09:48:09Z</time>
      </trkpt>
      <trkpt lat="42.87562700919807" lon="-7.831325037404895">
        <ele>613.5</ele>
        <time>2018-05-20T09:48:11Z</time>
      </trkpt>
      <trkpt lat="42.875621980056167" lon="-7.831255970522761">
        <ele>613.29999999999995</ele>
        <time>2018-05-20T09:48:12Z</time>
      </trkpt>
      <trkpt lat="42.875613011419773" lon="-7.831204002723098">
        <ele>613.20000000000005</ele>
        <time>2018-05-20T09:48:14Z</time>
      </trkpt>
      <trkpt lat="42.875599013641477" lon="-7.831140970811248">
        <ele>613.10000000000002</ele>
        <time>2018-05-20T09:48:15Z</time>
      </trkpt>
      <trkpt lat="42.875593984499574" lon="-7.831082968041301">
        <ele>613</ele>
        <time>2018-05-20T09:48:16Z</time>
      </trkpt>
      <trkpt lat="42.87558501586318" lon="-7.831025971099734">
        <ele>612.89999999999998</ele>
        <time>2018-05-20T09:48:18Z</time>
      </trkpt>
      <trkpt lat="42.875575041398406" lon="-7.830974003300071">
        <ele>612.79999999999995</ele>
        <time>2018-05-20T09:48:19Z</time>
      </trkpt>
      <trkpt lat="42.875565988942981" lon="-7.830905020236969">
        <ele>612.70000000000005</ele>
        <time>2018-05-20T09:48:20Z</time>
      </trkpt>
      <trkpt lat="42.875557020306587" lon="-7.830831008031964">
        <ele>612.60000000000002</ele>
        <time>2018-05-20T09:48:22Z</time>
      </trkpt>
      <trkpt lat="42.875546962022781" lon="-7.830755989998579">
        <ele>612.5</ele>
        <time>2018-05-20T09:48:23Z</time>
      </trkpt>
      <trkpt lat="42.875537993386388" lon="-7.830704022198916">
        <ele>612.39999999999998</ele>
        <time>2018-05-20T09:48:25Z</time>
      </trkpt>
      <trkpt lat="42.875518966466188" lon="-7.830652976408601">
        <ele>612.29999999999995</ele>
        <time>2018-05-20T09:48:26Z</time>
      </trkpt>
      <trkpt lat="42.875496000051498" lon="-7.830606959760189">
        <ele>612.29999999999995</ele>
        <time>2018-05-20T09:48:27Z</time>
      </trkpt>
      <trkpt lat="42.875487031415105" lon="-7.830554991960526">
        <ele>612.20000000000005</ele>
        <time>2018-05-20T09:48:28Z</time>
      </trkpt>
      <trkpt lat="42.875473033636808" lon="-7.830496989190579">
        <ele>612.10000000000002</ele>
        <time>2018-05-20T09:48:30Z</time>
      </trkpt>
      <trkpt lat="42.875454006716609" lon="-7.830446027219296">
        <ele>612</ele>
        <time>2018-05-20T09:48:31Z</time>
      </trkpt>
      <trkpt lat="42.875447971746325" lon="-7.830400010570884">
        <ele>612</ele>
        <time>2018-05-20T09:48:32Z</time>
      </trkpt>
      <trkpt lat="42.875429028645158" lon="-7.830319041386247">
        <ele>612.10000000000002</ele>
        <time>2018-05-20T09:48:34Z</time>
      </trkpt>
      <trkpt lat="42.875396003946662" lon="-7.830180991441011">
        <ele>612.29999999999995</ele>
        <time>2018-05-20T09:48:37Z</time>
      </trkpt>
      <trkpt lat="42.875382006168365" lon="-7.830130029469729">
        <ele>612.29999999999995</ele>
        <time>2018-05-20T09:48:38Z</time>
      </trkpt>
      <trkpt lat="42.875373037531972" lon="-7.830072026699781">
        <ele>612.39999999999998</ele>
        <time>2018-05-20T09:48:39Z</time>
      </trkpt>
      <trkpt lat="42.875359039753675" lon="-7.830008994787931">
        <ele>612.5</ele>
        <time>2018-05-20T09:48:41Z</time>
      </trkpt>
      <trkpt lat="42.875344958156347" lon="-7.829957026988268">
        <ele>612.60000000000002</ele>
        <time>2018-05-20T09:48:42Z</time>
      </trkpt>
      <trkpt lat="42.875316962599754" lon="-7.82987697981298">
        <ele>612.60000000000002</ele>
        <time>2018-05-20T09:48:44Z</time>
      </trkpt>
      <trkpt lat="42.875288967043161" lon="-7.829819982871413">
        <ele>612.70000000000005</ele>
        <time>2018-05-20T09:48:45Z</time>
      </trkpt>
      <trkpt lat="42.875271029770374" lon="-7.829773966223002">
        <ele>612.79999999999995</ele>
        <time>2018-05-20T09:48:46Z</time>
      </trkpt>
      <trkpt lat="42.875243034213781" lon="-7.829699032008648">
        <ele>612.89999999999998</ele>
        <time>2018-05-20T09:48:48Z</time>
      </trkpt>
      <trkpt lat="42.875206992030144" lon="-7.829643040895462">
        <ele>612.89999999999998</ele>
        <time>2018-05-20T09:48:50Z</time>
      </trkpt>
      <trkpt lat="42.875183019787073" lon="-7.82959702424705">
        <ele>613</ele>
        <time>2018-05-20T09:48:51Z</time>
      </trkpt>
      <trkpt lat="42.875159969553351" lon="-7.829551007598639">
        <ele>613.10000000000002</ele>
        <time>2018-05-20T09:48:52Z</time>
      </trkpt>
      <trkpt lat="42.875145971775055" lon="-7.829499961808324">
        <ele>613.20000000000005</ele>
        <time>2018-05-20T09:48:53Z</time>
      </trkpt>
      <trkpt lat="42.875131973996758" lon="-7.829458974301815">
        <ele>613.29999999999995</ele>
        <time>2018-05-20T09:48:54Z</time>
      </trkpt>
      <trkpt lat="42.875099033117294" lon="-7.829430978745222">
        <ele>613.39999999999998</ele>
        <time>2018-05-20T09:48:56Z</time>
      </trkpt>
      <trkpt lat="42.875061985105276" lon="-7.82938496209681">
        <ele>613.5</ele>
        <time>2018-05-20T09:48:57Z</time>
      </trkpt>
      <trkpt lat="42.87502502091229" lon="-7.829344980418682">
        <ele>613.70000000000005</ele>
        <time>2018-05-20T09:48:59Z</time>
      </trkpt>
      <trkpt lat="42.874991996213794" lon="-7.829322014003992">
        <ele>613.79999999999995</ele>
        <time>2018-05-20T09:49:00Z</time>
      </trkpt>
      <trkpt lat="42.874958971515298" lon="-7.82927599735558">
        <ele>614</ele>
        <time>2018-05-20T09:49:01Z</time>
      </trkpt>
      <trkpt lat="42.874913038685918" lon="-7.829217994585633">
        <ele>614.20000000000005</ele>
        <time>2018-05-20T09:49:03Z</time>
      </trkpt>
      <trkpt lat="42.874868027865887" lon="-7.829173989593983">
        <ele>614.5</ele>
        <time>2018-05-20T09:49:04Z</time>
      </trkpt>
      <trkpt lat="42.874835003167391" lon="-7.829134007915855">
        <ele>614.70000000000005</ele>
        <time>2018-05-20T09:49:06Z</time>
      </trkpt>
      <trkpt lat="42.874812036752701" lon="-7.829094026237726">
        <ele>614.89999999999998</ele>
        <time>2018-05-20T09:49:07Z</time>
      </trkpt>
      <trkpt lat="42.87476803176105" lon="-7.829048009589315">
        <ele>615.10000000000002</ele>
        <time>2018-05-20T09:49:09Z</time>
      </trkpt>
      <trkpt lat="42.874679015949368" lon="-7.828838964924216">
        <ele>616.29999999999995</ele>
        <time>2018-05-20T09:49:14Z</time>
      </trkpt>
      <trkpt lat="42.874614978209138" lon="-7.828666968271136">
        <ele>616.79999999999995</ele>
        <time>2018-05-20T09:49:18Z</time>
      </trkpt>
      <trkpt lat="42.874526968225837" lon="-7.828512992709875">
        <ele>616.79999999999995</ele>
        <time>2018-05-20T09:49:22Z</time>
      </trkpt>
      <trkpt lat="42.874413980171084" lon="-7.828188026323915">
        <ele>616.70000000000005</ele>
        <time>2018-05-20T09:49:30Z</time>
      </trkpt>
      <trkpt lat="42.874249024316669" lon="-7.827839003875852">
        <ele>617</ele>
        <time>2018-05-20T09:49:39Z</time>
      </trkpt>
      <trkpt lat="42.874163025990129" lon="-7.827650997787714">
        <ele>617.60000000000002</ele>
        <time>2018-05-20T09:49:44Z</time>
      </trkpt>
      <trkpt lat="42.87403604015708" lon="-7.827437007799745">
        <ele>618.5</ele>
        <time>2018-05-20T09:49:50Z</time>
      </trkpt>
      <trkpt lat="42.873940989375114" lon="-7.827257970348001">
        <ele>619.10000000000002</ele>
        <time>2018-05-20T09:49:55Z</time>
      </trkpt>
      <trkpt lat="42.873762035742402" lon="-7.826977008953691">
        <ele>620.29999999999995</ele>
        <time>2018-05-20T09:50:03Z</time>
      </trkpt>
      <trkpt lat="42.873659022152424" lon="-7.826798977330327">
        <ele>621.5</ele>
        <time>2018-05-20T09:50:08Z</time>
      </trkpt>
      <trkpt lat="42.873659022152424" lon="-7.826793026179075">
        <ele>621.60000000000002</ele>
        <time>2018-05-20T09:50:08Z</time>
      </trkpt>
      <trkpt lat="42.873546034097672" lon="-7.826621029525995">
        <ele>622.79999999999995</ele>
        <time>2018-05-20T09:50:13Z</time>
      </trkpt>
      <trkpt lat="42.873389041051269" lon="-7.826380971819162">
        <ele>624.29999999999995</ele>
        <time>2018-05-20T09:50:20Z</time>
      </trkpt>
      <trkpt lat="42.873313017189503" lon="-7.826243005692959">
        <ele>625.10000000000002</ele>
        <time>2018-05-20T09:50:24Z</time>
      </trkpt>
      <trkpt lat="42.873251996934414" lon="-7.826019041240215">
        <ele>626</ele>
        <time>2018-05-20T09:50:29Z</time>
      </trkpt>
      <trkpt lat="42.87319902330637" lon="-7.825865987688303">
        <ele>626.70000000000005</ele>
        <time>2018-05-20T09:50:32Z</time>
      </trkpt>
      <trkpt lat="42.873162981122732" lon="-7.825723998248577">
        <ele>627.29999999999995</ele>
        <time>2018-05-20T09:50:36Z</time>
      </trkpt>
      <trkpt lat="42.873101038858294" lon="-7.825489975512028">
        <ele>628.39999999999998</ele>
        <time>2018-05-20T09:50:41Z</time>
      </trkpt>
      <trkpt lat="42.873021997511387" lon="-7.82521496526897">
        <ele>630.60000000000002</ele>
        <time>2018-05-20T09:50:47Z</time>
      </trkpt>
      <trkpt lat="42.873021997511387" lon="-7.825199039652944">
        <ele>630.70000000000005</ele>
        <time>2018-05-20T09:50:48Z</time>
      </trkpt>
      <trkpt lat="42.872967012226582" lon="-7.825028970837593">
        <ele>632.29999999999995</ele>
        <time>2018-05-20T09:50:52Z</time>
      </trkpt>
      <trkpt lat="42.872946979478002" lon="-7.824811963364482">
        <ele>634</ele>
        <time>2018-05-20T09:50:57Z</time>
      </trkpt>
      <trkpt lat="42.87294203415513" lon="-7.824614988639951">
        <ele>635.5</ele>
        <time>2018-05-20T09:51:01Z</time>
      </trkpt>
      <trkpt lat="42.87294203415513" lon="-7.824607025831938">
        <ele>635.5</ele>
        <time>2018-05-20T09:51:01Z</time>
      </trkpt>
      <trkpt lat="42.87294396199286" lon="-7.824360011145473">
        <ele>636.5</ele>
        <time>2018-05-20T09:51:06Z</time>
      </trkpt>
      <trkpt lat="42.872953014448285" lon="-7.824121965095401">
        <ele>637.20000000000005</ele>
        <time>2018-05-20T09:51:12Z</time>
      </trkpt>
      <trkpt lat="42.873000958934426" lon="-7.82379699870944">
        <ele>637.70000000000005</ele>
        <time>2018-05-20T09:51:19Z</time>
      </trkpt>
      <trkpt lat="42.873000958934426" lon="-7.823789035901427">
        <ele>637.79999999999995</ele>
        <time>2018-05-20T09:51:19Z</time>
      </trkpt>
      <trkpt lat="42.873032977804542" lon="-7.823493992909789">
        <ele>637.89999999999998</ele>
        <time>2018-05-20T09:51:25Z</time>
      </trkpt>
      <trkpt lat="42.873009005561471" lon="-7.823352003470063">
        <ele>638.39999999999998</ele>
        <time>2018-05-20T09:51:29Z</time>
      </trkpt>
      <trkpt lat="42.872998025268316" lon="-7.823122004047036">
        <ele>638.89999999999998</ele>
        <time>2018-05-20T09:51:34Z</time>
      </trkpt>
      <trkpt lat="42.872998025268316" lon="-7.823110017925501">
        <ele>638.89999999999998</ele>
        <time>2018-05-20T09:51:34Z</time>
      </trkpt>
      <trkpt lat="42.873002970591187" lon="-7.823058972135186">
        <ele>638.89999999999998</ele>
        <time>2018-05-20T09:51:35Z</time>
      </trkpt>
      <trkpt lat="42.873002970591187" lon="-7.823007004335523">
        <ele>639</ele>
        <time>2018-05-20T09:51:36Z</time>
      </trkpt>
      <trkpt lat="42.873002970591187" lon="-7.822927040979266">
        <ele>639.20000000000005</ele>
        <time>2018-05-20T09:51:38Z</time>
      </trkpt>
      <trkpt lat="42.873002970591187" lon="-7.822852022945881">
        <ele>638.89999999999998</ele>
        <time>2018-05-20T09:51:39Z</time>
      </trkpt>
      <trkpt lat="42.873002970591187" lon="-7.822795026004314">
        <ele>638.70000000000005</ele>
        <time>2018-05-20T09:51:41Z</time>
      </trkpt>
      <trkpt lat="42.873002970591187" lon="-7.822725959122181">
        <ele>638.5</ele>
        <time>2018-05-20T09:51:42Z</time>
      </trkpt>
      <trkpt lat="42.873002970591187" lon="-7.822656976059079">
        <ele>638.29999999999995</ele>
        <time>2018-05-20T09:51:44Z</time>
      </trkpt>
      <trkpt lat="42.873002970591187" lon="-7.822582041844726">
        <ele>638</ele>
        <time>2018-05-20T09:51:45Z</time>
      </trkpt>
      <trkpt lat="42.873012023046613" lon="-7.82252999022603">
        <ele>637.70000000000005</ele>
        <time>2018-05-20T09:51:47Z</time>
      </trkpt>
      <trkpt lat="42.87303096614778" lon="-7.822465030476451">
        <ele>637.39999999999998</ele>
        <time>2018-05-20T09:51:48Z</time>
      </trkpt>
      <trkpt lat="42.873048987239599" lon="-7.822413984686136">
        <ele>637</ele>
        <time>2018-05-20T09:51:49Z</time>
      </trkpt>
      <trkpt lat="42.873076982796192" lon="-7.822367968037725">
        <ele>636.60000000000002</ele>
        <time>2018-05-20T09:51:51Z</time>
      </trkpt>
      <trkpt lat="42.873087041079998" lon="-7.822304014116526">
        <ele>636.29999999999995</ele>
        <time>2018-05-20T09:51:52Z</time>
      </trkpt>
      <trkpt lat="42.873104978352785" lon="-7.822247017174959">
        <ele>636</ele>
        <time>2018-05-20T09:51:53Z</time>
      </trkpt>
      <trkpt lat="42.873120987787843" lon="-7.822193037718535">
        <ele>635.60000000000002</ele>
        <time>2018-05-20T09:51:55Z</time>
      </trkpt>
      <trkpt lat="42.873131968080997" lon="-7.822136962786317">
        <ele>635.39999999999998</ele>
        <time>2018-05-20T09:51:56Z</time>
      </trkpt>
      <trkpt lat="42.873131968080997" lon="-7.822067979723215">
        <ele>635.20000000000005</ele>
        <time>2018-05-20T09:51:57Z</time>
      </trkpt>
      <trkpt lat="42.87313599139452" lon="-7.821977036073804">
        <ele>634.89999999999998</ele>
        <time>2018-05-20T09:51:59Z</time>
      </trkpt>
      <trkpt lat="42.87313599139452" lon="-7.821920961141586">
        <ele>634.79999999999995</ele>
        <time>2018-05-20T09:52:01Z</time>
      </trkpt>
      <trkpt lat="42.87313599139452" lon="-7.821862958371639">
        <ele>634.60000000000002</ele>
        <time>2018-05-20T09:52:02Z</time>
      </trkpt>
      <trkpt lat="42.87313599139452" lon="-7.821804033592343">
        <ele>634.5</ele>
        <time>2018-05-20T09:52:03Z</time>
      </trkpt>
      <trkpt lat="42.87313599139452" lon="-7.821751981973648">
        <ele>634.39999999999998</ele>
        <time>2018-05-20T09:52:04Z</time>
      </trkpt>
      <trkpt lat="42.873141020536423" lon="-7.821701020002365">
        <ele>634.20000000000005</ele>
        <time>2018-05-20T09:52:05Z</time>
      </trkpt>
      <trkpt lat="42.873141020536423" lon="-7.821636982262135">
        <ele>634</ele>
        <time>2018-05-20T09:52:07Z</time>
      </trkpt>
      <trkpt lat="42.873145965859294" lon="-7.821579985320568">
        <ele>633.89999999999998</ele>
        <time>2018-05-20T09:52:08Z</time>
      </trkpt>
      <trkpt lat="42.87315996363759" lon="-7.821528017520905">
        <ele>633.60000000000002</ele>
        <time>2018-05-20T09:52:09Z</time>
      </trkpt>
      <trkpt lat="42.873177984729409" lon="-7.82147697173059">
        <ele>633.29999999999995</ele>
        <time>2018-05-20T09:52:10Z</time>
      </trkpt>
      <trkpt lat="42.873183013871312" lon="-7.821418968960643">
        <ele>633.20000000000005</ele>
        <time>2018-05-20T09:52:12Z</time>
      </trkpt>
      <trkpt lat="42.873191982507706" lon="-7.821367001160979">
        <ele>633</ele>
        <time>2018-05-20T09:52:13Z</time>
      </trkpt>
      <trkpt lat="42.873219978064299" lon="-7.821287037804723">
        <ele>632.5</ele>
        <time>2018-05-20T09:52:15Z</time>
      </trkpt>
      <trkpt lat="42.873230036348104" lon="-7.821234986186028">
        <ele>632.29999999999995</ele>
        <time>2018-05-20T09:52:16Z</time>
      </trkpt>
      <trkpt lat="42.873253002762794" lon="-7.821195004507899">
        <ele>632</ele>
        <time>2018-05-20T09:52:17Z</time>
      </trkpt>
      <trkpt lat="42.873272029682994" lon="-7.821148987859488">
        <ele>631.60000000000002</ele>
        <time>2018-05-20T09:52:18Z</time>
      </trkpt>
      <trkpt lat="42.873294996097684" lon="-7.821098025888205">
        <ele>631.20000000000005</ele>
        <time>2018-05-20T09:52:19Z</time>
      </trkpt>
      <trkpt lat="42.873317962512374" lon="-7.821052009239793">
        <ele>630.89999999999998</ele>
        <time>2018-05-20T09:52:21Z</time>
      </trkpt>
      <trkpt lat="42.873346041887999" lon="-7.821016972884536">
        <ele>630.60000000000002</ele>
        <time>2018-05-20T09:52:22Z</time>
      </trkpt>
      <trkpt lat="42.873384011909366" lon="-7.820965005084872">
        <ele>630.10000000000002</ele>
        <time>2018-05-20T09:52:23Z</time>
      </trkpt>
      <trkpt lat="42.873406978324056" lon="-7.820925023406744">
        <ele>629.79999999999995</ele>
        <time>2018-05-20T09:52:25Z</time>
      </trkpt>
      <trkpt lat="42.873420976102352" lon="-7.820879006758332">
        <ele>629.60000000000002</ele>
        <time>2018-05-20T09:52:26Z</time>
      </trkpt>
      <trkpt lat="42.873448971658945" lon="-7.820804994553328">
        <ele>629.20000000000005</ele>
        <time>2018-05-20T09:52:27Z</time>
      </trkpt>
      <trkpt lat="42.873483002185822" lon="-7.820733999833465">
        <ele>628.79999999999995</ele>
        <time>2018-05-20T09:52:29Z</time>
      </trkpt>
      <trkpt lat="42.873541004955769" lon="-7.820538030937314">
        <ele>628</ele>
        <time>2018-05-20T09:52:34Z</time>
      </trkpt>
      <trkpt lat="42.873628009110689" lon="-7.820282969623804">
        <ele>627.39999999999998</ele>
        <time>2018-05-20T09:52:40Z</time>
      </trkpt>
      <trkpt lat="42.873719036579132" lon="-7.819988010451198">
        <ele>627.10000000000002</ele>
        <time>2018-05-20T09:52:47Z</time>
      </trkpt>
      <trkpt lat="42.87378198467195" lon="-7.819665977731347">
        <ele>626.70000000000005</ele>
        <time>2018-05-20T09:52:54Z</time>
      </trkpt>
      <trkpt lat="42.873847028240561" lon="-7.819331036880612">
        <ele>626</ele>
        <time>2018-05-20T09:53:02Z</time>
      </trkpt>
      <trkpt lat="42.873847028240561" lon="-7.819322990253568">
        <ele>626</ele>
        <time>2018-05-20T09:53:02Z</time>
      </trkpt>
      <trkpt lat="42.873921040445566" lon="-7.819011015817523">
        <ele>625.39999999999998</ele>
        <time>2018-05-20T09:53:09Z</time>
      </trkpt>
      <trkpt lat="42.873921040445566" lon="-7.819002969190478">
        <ele>625.39999999999998</ele>
        <time>2018-05-20T09:53:09Z</time>
      </trkpt>
      <trkpt lat="42.873981976881623" lon="-7.818764001131058">
        <ele>625.20000000000005</ele>
        <time>2018-05-20T09:53:15Z</time>
      </trkpt>
      <trkpt lat="42.87399597465992" lon="-7.818728964775801">
        <ele>625</ele>
        <time>2018-05-20T09:53:15Z</time>
      </trkpt>
      <trkpt lat="42.874005027115345" lon="-7.818678002804518">
        <ele>624.79999999999995</ele>
        <time>2018-05-20T09:53:17Z</time>
      </trkpt>
      <trkpt lat="42.874023970216513" lon="-7.818631986156106">
        <ele>624.60000000000002</ele>
        <time>2018-05-20T09:53:18Z</time>
      </trkpt>
      <trkpt lat="42.874047020450234" lon="-7.818585969507694">
        <ele>624.39999999999998</ele>
        <time>2018-05-20T09:53:19Z</time>
      </trkpt>
      <trkpt lat="42.874061018228531" lon="-7.818545987829566">
        <ele>624.20000000000005</ele>
        <time>2018-05-20T09:53:20Z</time>
      </trkpt>
      <trkpt lat="42.874070992693305" lon="-7.818494020029903">
        <ele>624</ele>
        <time>2018-05-20T09:53:21Z</time>
      </trkpt>
      <trkpt lat="42.874089013785124" lon="-7.818437023088336">
        <ele>623.79999999999995</ele>
        <time>2018-05-20T09:53:22Z</time>
      </trkpt>
      <trkpt lat="42.874108040705323" lon="-7.818368040025234">
        <ele>623.5</ele>
        <time>2018-05-20T09:53:24Z</time>
      </trkpt>
      <trkpt lat="42.874117009341717" lon="-7.818313976749778">
        <ele>623.29999999999995</ele>
        <time>2018-05-20T09:53:25Z</time>
      </trkpt>
      <trkpt lat="42.874126983806491" lon="-7.818259997293353">
        <ele>623.10000000000002</ele>
        <time>2018-05-20T09:53:26Z</time>
      </trkpt>
      <trkpt lat="42.874136036261916" lon="-7.818203000351787">
        <ele>622.89999999999998</ele>
        <time>2018-05-20T09:53:28Z</time>
      </trkpt>
      <trkpt lat="42.874150034040213" lon="-7.818158995360136">
        <ele>622.79999999999995</ele>
        <time>2018-05-20T09:53:29Z</time>
      </trkpt>
      <trkpt lat="42.874159002676606" lon="-7.818100992590189">
        <ele>622.60000000000002</ele>
        <time>2018-05-20T09:53:30Z</time>
      </trkpt>
      <trkpt lat="42.874159002676606" lon="-7.818021029233933">
        <ele>622.29999999999995</ele>
        <time>2018-05-20T09:53:32Z</time>
      </trkpt>
      <trkpt lat="42.874154979363084" lon="-7.81795397400856">
        <ele>622.10000000000002</ele>
        <time>2018-05-20T09:53:33Z</time>
      </trkpt>
      <trkpt lat="42.874150034040213" lon="-7.817895971238613">
        <ele>621.89999999999998</ele>
        <time>2018-05-20T09:53:34Z</time>
      </trkpt>
      <trkpt lat="42.874120026826859" lon="-7.817839980125427">
        <ele>621.60000000000002</ele>
        <time>2018-05-20T09:53:36Z</time>
      </trkpt>
      <trkpt lat="42.874078033491969" lon="-7.817811984568834">
        <ele>621.5</ele>
        <time>2018-05-20T09:53:37Z</time>
      </trkpt>
      <trkpt lat="42.874040985479951" lon="-7.817777032032609">
        <ele>621.39999999999998</ele>
        <time>2018-05-20T09:53:39Z</time>
      </trkpt>
      <trkpt lat="42.874004021286964" lon="-7.817736966535449">
        <ele>621.20000000000005</ele>
        <time>2018-05-20T09:53:40Z</time>
      </trkpt>
      <trkpt lat="42.873956998810172" lon="-7.817714000120759">
        <ele>621.20000000000005</ele>
        <time>2018-05-20T09:53:42Z</time>
      </trkpt>
      <trkpt lat="42.873920034617186" lon="-7.817691033706069">
        <ele>621.20000000000005</ele>
        <time>2018-05-20T09:53:43Z</time>
      </trkpt>
      <trkpt lat="42.873882986605167" lon="-7.817662032321096">
        <ele>621.10000000000002</ele>
        <time>2018-05-20T09:53:44Z</time>
      </trkpt>
      <trkpt lat="42.8738450165838" lon="-7.817638982087374">
        <ele>621.10000000000002</ele>
        <time>2018-05-20T09:53:45Z</time>
      </trkpt>
      <trkpt lat="42.873817021027207" lon="-7.817605035379529">
        <ele>620.89999999999998</ele>
        <time>2018-05-20T09:53:46Z</time>
      </trkpt>
      <trkpt lat="42.873771004378796" lon="-7.817581985145807">
        <ele>620.89999999999998</ele>
        <time>2018-05-20T09:53:48Z</time>
      </trkpt>
      <trkpt lat="42.873735968023539" lon="-7.817557007074356">
        <ele>620.79999999999995</ele>
        <time>2018-05-20T09:53:49Z</time>
      </trkpt>
      <trkpt lat="42.873693974688649" lon="-7.81752297654748">
        <ele>620.5</ele>
        <time>2018-05-20T09:53:50Z</time>
      </trkpt>
      <trkpt lat="42.873657010495663" lon="-7.81750001013279">
        <ele>620.20000000000005</ele>
        <time>2018-05-20T09:53:52Z</time>
      </trkpt>
      <trkpt lat="42.873623985797167" lon="-7.817471008747816">
        <ele>620</ele>
        <time>2018-05-20T09:53:53Z</time>
      </trkpt>
      <trkpt lat="42.873573023825884" lon="-7.817442007362843">
        <ele>619.60000000000002</ele>
        <time>2018-05-20T09:53:54Z</time>
      </trkpt>
      <trkpt lat="42.87354402244091" lon="-7.81739397905767">
        <ele>619.29999999999995</ele>
        <time>2018-05-20T09:53:56Z</time>
      </trkpt>
      <trkpt lat="42.873510997742414" lon="-7.817353997379541">
        <ele>619</ele>
        <time>2018-05-20T09:53:57Z</time>
      </trkpt>
      <trkpt lat="42.873488031327724" lon="-7.817314015701413">
        <ele>618.70000000000005</ele>
        <time>2018-05-20T09:53:58Z</time>
      </trkpt>
      <trkpt lat="42.873446037992835" lon="-7.817274034023285">
        <ele>618.29999999999995</ele>
        <time>2018-05-20T09:54:00Z</time>
      </trkpt>
      <trkpt lat="42.87341795861721" lon="-7.817238997668028">
        <ele>618.10000000000002</ele>
        <time>2018-05-20T09:54:01Z</time>
      </trkpt>
      <trkpt lat="42.873399015516043" lon="-7.817187029868364">
        <ele>617.70000000000005</ele>
        <time>2018-05-20T09:54:02Z</time>
      </trkpt>
      <trkpt lat="42.873375965282321" lon="-7.817141013219953">
        <ele>617.39999999999998</ele>
        <time>2018-05-20T09:54:03Z</time>
      </trkpt>
      <trkpt lat="42.87335199303925" lon="-7.817077981308103">
        <ele>617</ele>
        <time>2018-05-20T09:54:05Z</time>
      </trkpt>
      <trkpt lat="42.873343024402857" lon="-7.8170280251652">
        <ele>616.70000000000005</ele>
        <time>2018-05-20T09:54:06Z</time>
      </trkpt>
      <trkpt lat="42.873334977775812" lon="-7.816806994378567">
        <ele>615.29999999999995</ele>
        <time>2018-05-20T09:54:11Z</time>
      </trkpt>
      <trkpt lat="42.873334977775812" lon="-7.816689983010292">
        <ele>614.60000000000002</ele>
        <time>2018-05-20T09:54:13Z</time>
      </trkpt>
      <trkpt lat="42.873317040503025" lon="-7.816461995244026">
        <ele>613.20000000000005</ele>
        <time>2018-05-20T09:54:18Z</time>
      </trkpt>
      <trkpt lat="42.873292984440923" lon="-7.816297961398959">
        <ele>612.20000000000005</ele>
        <time>2018-05-20T09:54:22Z</time>
      </trkpt>
      <trkpt lat="42.873226013034582" lon="-7.816008031368256">
        <ele>611.10000000000002</ele>
        <time>2018-05-20T09:54:29Z</time>
      </trkpt>
      <trkpt lat="42.873141020536423" lon="-7.815765039995313">
        <ele>610.20000000000005</ele>
        <time>2018-05-20T09:54:34Z</time>
      </trkpt>
      <trkpt lat="42.873043036088347" lon="-7.815622966736555">
        <ele>609.70000000000005</ele>
        <time>2018-05-20T09:54:39Z</time>
      </trkpt>
      <trkpt lat="42.872967012226582" lon="-7.815467985346913">
        <ele>609.20000000000005</ele>
        <time>2018-05-20T09:54:43Z</time>
      </trkpt>
      <trkpt lat="42.872784035280347" lon="-7.815285008400679">
        <ele>608.29999999999995</ele>
        <time>2018-05-20T09:54:49Z</time>
      </trkpt>
      <trkpt lat="42.872766014188528" lon="-7.815261958166957">
        <ele>608.10000000000002</ele>
        <time>2018-05-20T09:54:50Z</time>
      </trkpt>
      <trkpt lat="42.872732989490032" lon="-7.815227005630732">
        <ele>608</ele>
        <time>2018-05-20T09:54:51Z</time>
      </trkpt>
      <trkpt lat="42.872713962569833" lon="-7.81518098898232">
        <ele>607.70000000000005</ele>
        <time>2018-05-20T09:54:53Z</time>
      </trkpt>
      <trkpt lat="42.872668029740453" lon="-7.815101025626063">
        <ele>607.29999999999995</ele>
        <time>2018-05-20T09:54:55Z</time>
      </trkpt>
      <trkpt lat="42.87264397367835" lon="-7.815043022856116">
        <ele>607.10000000000002</ele>
        <time>2018-05-20T09:54:56Z</time>
      </trkpt>
      <trkpt lat="42.872626036405563" lon="-7.814969010651112">
        <ele>606.70000000000005</ele>
        <time>2018-05-20T09:54:58Z</time>
      </trkpt>
      <trkpt lat="42.87262100726366" lon="-7.814882006496191">
        <ele>606.20000000000005</ele>
        <time>2018-05-20T09:55:00Z</time>
      </trkpt>
      <trkpt lat="42.872612038627267" lon="-7.814800031483173">
        <ele>605.79999999999995</ele>
        <time>2018-05-20T09:55:02Z</time>
      </trkpt>
      <trkpt lat="42.872607009485364" lon="-7.814743034541607">
        <ele>605.60000000000002</ele>
        <time>2018-05-20T09:55:03Z</time>
      </trkpt>
      <trkpt lat="42.872587982565165" lon="-7.814661981537938">
        <ele>605.20000000000005</ele>
        <time>2018-05-20T09:55:05Z</time>
      </trkpt>
      <trkpt lat="42.872564010322094" lon="-7.814584029838443">
        <ele>604.89999999999998</ele>
        <time>2018-05-20T09:55:07Z</time>
      </trkpt>
      <trkpt lat="42.872536014765501" lon="-7.814548993483186">
        <ele>604.70000000000005</ele>
        <time>2018-05-20T09:55:08Z</time>
      </trkpt>
      <trkpt lat="42.872488992288709" lon="-7.814509011805058">
        <ele>604.60000000000002</ele>
        <time>2018-05-20T09:55:09Z</time>
      </trkpt>
      <trkpt lat="42.872452028095722" lon="-7.814473975449801">
        <ele>604.5</ele>
        <time>2018-05-20T09:55:11Z</time>
      </trkpt>
      <trkpt lat="42.872416991740465" lon="-7.814451009035111">
        <ele>604.39999999999998</ele>
        <time>2018-05-20T09:55:12Z</time>
      </trkpt>
      <trkpt lat="42.872380027547479" lon="-7.814427958801389">
        <ele>604.39999999999998</ele>
        <time>2018-05-20T09:55:13Z</time>
      </trkpt>
      <trkpt lat="42.872333005070686" lon="-7.814383031800389">
        <ele>604.29999999999995</ele>
        <time>2018-05-20T09:55:15Z</time>
      </trkpt>
      <trkpt lat="42.8722960408777" lon="-7.814347995445132">
        <ele>604.20000000000005</ele>
        <time>2018-05-20T09:55:16Z</time>
      </trkpt>
      <trkpt lat="42.872252035886049" lon="-7.814301978796721">
        <ele>604.10000000000002</ele>
        <time>2018-05-20T09:55:18Z</time>
      </trkpt>
      <trkpt lat="42.872228985652328" lon="-7.814261997118592">
        <ele>604</ele>
        <time>2018-05-20T09:55:19Z</time>
      </trkpt>
      <trkpt lat="42.872200990095735" lon="-7.814210029318929">
        <ele>603.79999999999995</ele>
        <time>2018-05-20T09:55:20Z</time>
      </trkpt>
      <trkpt lat="42.872185986489058" lon="-7.814140962436795">
        <ele>603.5</ele>
        <time>2018-05-20T09:55:22Z</time>
      </trkpt>
      <trkpt lat="42.872181041166186" lon="-7.814071979373694">
        <ele>603.20000000000005</ele>
        <time>2018-05-20T09:55:23Z</time>
      </trkpt>
      <trkpt lat="42.872185986489058" lon="-7.814000984653831">
        <ele>602.79999999999995</ele>
        <time>2018-05-20T09:55:25Z</time>
      </trkpt>
      <trkpt lat="42.872185986489058" lon="-7.813943987712264">
        <ele>602.5</ele>
        <time>2018-05-20T09:55:26Z</time>
      </trkpt>
      <trkpt lat="42.872185986489058" lon="-7.813881039619446">
        <ele>602.20000000000005</ele>
        <time>2018-05-20T09:55:27Z</time>
      </trkpt>
      <trkpt lat="42.87219000980258" lon="-7.813809961080551">
        <ele>601.79999999999995</ele>
        <time>2018-05-20T09:55:29Z</time>
      </trkpt>
      <trkpt lat="42.87219000980258" lon="-7.813660008832812">
        <ele>600.70000000000005</ele>
        <time>2018-05-20T09:55:32Z</time>
      </trkpt>
      <trkpt lat="42.87219000980258" lon="-7.813654979690909">
        <ele>600.70000000000005</ele>
        <time>2018-05-20T09:55:32Z</time>
      </trkpt>
      <trkpt lat="42.872209036722779" lon="-7.813393967226148">
        <ele>598.29999999999995</ele>
        <time>2018-05-20T09:55:38Z</time>
      </trkpt>
      <trkpt lat="42.872223034501076" lon="-7.813133038580418">
        <ele>595.89999999999998</ele>
        <time>2018-05-20T09:55:44Z</time>
      </trkpt>
      <trkpt lat="42.8722770139575" lon="-7.812699023634195">
        <ele>592.10000000000002</ele>
        <time>2018-05-20T09:55:53Z</time>
      </trkpt>
      <trkpt lat="42.872305009514093" lon="-7.812341032549739">
        <ele>589.5</ele>
        <time>2018-05-20T09:56:01Z</time>
      </trkpt>
      <trkpt lat="42.87233904004097" lon="-7.812041966244578">
        <ele>587.60000000000002</ele>
        <time>2018-05-20T09:56:08Z</time>
      </trkpt>
      <trkpt lat="42.872349014505744" lon="-7.812041966244578">
        <ele>587.60000000000002</ele>
        <time>2018-05-20T09:56:08Z</time>
      </trkpt>
      <trkpt lat="42.872349014505744" lon="-7.811989998444915">
        <ele>587.60000000000002</ele>
        <time>2018-05-20T09:56:09Z</time>
      </trkpt>
      <trkpt lat="42.872353037819266" lon="-7.811933001503348">
        <ele>587.5</ele>
        <time>2018-05-20T09:56:10Z</time>
      </trkpt>
      <trkpt lat="42.872367035597563" lon="-7.811881033703685">
        <ele>587.39999999999998</ele>
        <time>2018-05-20T09:56:12Z</time>
      </trkpt>
      <trkpt lat="42.872377010062337" lon="-7.81182898208499">
        <ele>587.29999999999995</ele>
        <time>2018-05-20T09:56:13Z</time>
      </trkpt>
      <trkpt lat="42.872395031154156" lon="-7.811766033992171">
        <ele>587.20000000000005</ele>
        <time>2018-05-20T09:56:14Z</time>
      </trkpt>
      <trkpt lat="42.872419003397226" lon="-7.811696967110038">
        <ele>587.10000000000002</ele>
        <time>2018-05-20T09:56:16Z</time>
      </trkpt>
      <trkpt lat="42.872443981468678" lon="-7.811654973775148">
        <ele>587.10000000000002</ele>
        <time>2018-05-20T09:56:17Z</time>
      </trkpt>
      <trkpt lat="42.872489998117089" lon="-7.811550032347441">
        <ele>586.89999999999998</ele>
        <time>2018-05-20T09:56:20Z</time>
      </trkpt>
      <trkpt lat="42.872596029192209" lon="-7.81133302487433">
        <ele>586.5</ele>
        <time>2018-05-20T09:56:25Z</time>
      </trkpt>
      <trkpt lat="42.872698958963156" lon="-7.811209978535771">
        <ele>586.20000000000005</ele>
        <time>2018-05-20T09:56:29Z</time>
      </trkpt>
      <trkpt lat="42.872698958963156" lon="-7.811203021556139">
        <ele>586.20000000000005</ele>
        <time>2018-05-20T09:56:30Z</time>
      </trkpt>
      <trkpt lat="42.872801972553134" lon="-7.811028007417917">
        <ele>586.10000000000002</ele>
        <time>2018-05-20T09:56:34Z</time>
      </trkpt>
      <trkpt lat="42.872982015833259" lon="-7.81069097109139">
        <ele>585.89999999999998</ele>
        <time>2018-05-20T09:56:44Z</time>
      </trkpt>
      <trkpt lat="42.873110007494688" lon="-7.810406992211938">
        <ele>585.79999999999995</ele>
        <time>2018-05-20T09:56:51Z</time>
      </trkpt>
      <trkpt lat="42.873235987499356" lon="-7.810148997232318">
        <ele>585.39999999999998</ele>
        <time>2018-05-20T09:56:57Z</time>
      </trkpt>
      <trkpt lat="42.87337202578783" lon="-7.809870969504118">
        <ele>585.20000000000005</ele>
        <time>2018-05-20T09:57:05Z</time>
      </trkpt>
      <trkpt lat="42.873466992750764" lon="-7.8096370305866">
        <ele>585</ele>
        <time>2018-05-20T09:57:11Z</time>
      </trkpt>
      <trkpt lat="42.873604036867619" lon="-7.809322960674763">
        <ele>584.70000000000005</ele>
        <time>2018-05-20T09:57:18Z</time>
      </trkpt>
      <trkpt lat="42.873647036030889" lon="-7.809108970686793">
        <ele>584.5</ele>
        <time>2018-05-20T09:57:23Z</time>
      </trkpt>
      <trkpt lat="42.873656004667282" lon="-7.80907804146409">
        <ele>584.5</ele>
        <time>2018-05-20T09:57:24Z</time>
      </trkpt>
      <trkpt lat="42.873675031587481" lon="-7.80901500955224">
        <ele>584.39999999999998</ele>
        <time>2018-05-20T09:57:25Z</time>
      </trkpt>
      <trkpt lat="42.873692968860269" lon="-7.808973016217351">
        <ele>584.29999999999995</ele>
        <time>2018-05-20T09:57:27Z</time>
      </trkpt>
      <trkpt lat="42.873703027144074" lon="-7.808920964598656">
        <ele>584.29999999999995</ele>
        <time>2018-05-20T09:57:28Z</time>
      </trkpt>
      <trkpt lat="42.873717024922371" lon="-7.808858016505837">
        <ele>584.20000000000005</ele>
        <time>2018-05-20T09:57:29Z</time>
      </trkpt>
      <trkpt lat="42.873731022700667" lon="-7.808805964887142">
        <ele>584.10000000000002</ele>
        <time>2018-05-20T09:57:30Z</time>
      </trkpt>
      <trkpt lat="42.873734962195158" lon="-7.808726001530886">
        <ele>584</ele>
        <time>2018-05-20T09:57:32Z</time>
      </trkpt>
      <trkpt lat="42.873734962195158" lon="-7.808674033731222">
        <ele>583.79999999999995</ele>
        <time>2018-05-20T09:57:33Z</time>
      </trkpt>
      <trkpt lat="42.873734962195158" lon="-7.808603039011359">
        <ele>583.70000000000005</ele>
        <time>2018-05-20T09:57:35Z</time>
      </trkpt>
      <trkpt lat="42.873734962195158" lon="-7.808545958250761">
        <ele>583.5</ele>
        <time>2018-05-20T09:57:36Z</time>
      </trkpt>
      <trkpt lat="42.873734962195158" lon="-7.808493990451098">
        <ele>583.39999999999998</ele>
        <time>2018-05-20T09:57:37Z</time>
      </trkpt>
      <trkpt lat="42.873734962195158" lon="-7.80843498185277">
        <ele>583.29999999999995</ele>
        <time>2018-05-20T09:57:38Z</time>
      </trkpt>
      <trkpt lat="42.873731022700667" lon="-7.808383014053106">
        <ele>583.20000000000005</ele>
        <time>2018-05-20T09:57:39Z</time>
      </trkpt>
      <trkpt lat="42.873725993558764" lon="-7.80832601711154">
        <ele>583</ele>
        <time>2018-05-20T09:57:41Z</time>
      </trkpt>
      <trkpt lat="42.873717024922371" lon="-7.808280000463128">
        <ele>582.89999999999998</ele>
        <time>2018-05-20T09:57:42Z</time>
      </trkpt>
      <trkpt lat="42.873697998002172" lon="-7.808211017400026">
        <ele>582.79999999999995</ele>
        <time>2018-05-20T09:57:43Z</time>
      </trkpt>
      <trkpt lat="42.873667990788817" lon="-7.808157037943602">
        <ele>582.70000000000005</ele>
        <time>2018-05-20T09:57:45Z</time>
      </trkpt>
      <trkpt lat="42.873645024374127" lon="-7.808094006031752">
        <ele>582.70000000000005</ele>
        <time>2018-05-20T09:57:46Z</time>
      </trkpt>
      <trkpt lat="42.873621974140406" lon="-7.808036003261805">
        <ele>582.60000000000002</ele>
        <time>2018-05-20T09:57:48Z</time>
      </trkpt>
      <trkpt lat="42.873598001897335" lon="-7.807972971349955">
        <ele>582.5</ele>
        <time>2018-05-20T09:57:49Z</time>
      </trkpt>
      <trkpt lat="42.873579980805516" lon="-7.807910023257136">
        <ele>582.39999999999998</ele>
        <time>2018-05-20T09:57:51Z</time>
      </trkpt>
      <trkpt lat="42.873561037704349" lon="-7.807849003002048">
        <ele>582.39999999999998</ele>
        <time>2018-05-20T09:57:52Z</time>
      </trkpt>
      <trkpt lat="42.873551985248923" lon="-7.807797035202384">
        <ele>582.5</ele>
        <time>2018-05-20T09:57:53Z</time>
      </trkpt>
      <trkpt lat="42.873537987470627" lon="-7.807734003290534">
        <ele>582.5</ele>
        <time>2018-05-20T09:57:55Z</time>
      </trkpt>
      <trkpt lat="42.873532958328724" lon="-7.807676000520587">
        <ele>582.5</ele>
        <time>2018-05-20T09:57:56Z</time>
      </trkpt>
      <trkpt lat="42.873532958328724" lon="-7.807605005800724">
        <ele>582.5</ele>
        <time>2018-05-20T09:57:58Z</time>
      </trkpt>
      <trkpt lat="42.873532958328724" lon="-7.807553960010409">
        <ele>582.5</ele>
        <time>2018-05-20T09:57:59Z</time>
      </trkpt>
      <trkpt lat="42.873532958328724" lon="-7.807491011917591">
        <ele>582.5</ele>
        <time>2018-05-20T09:58:00Z</time>
      </trkpt>
      <trkpt lat="42.873532958328724" lon="-7.807404007762671">
        <ele>582.5</ele>
        <time>2018-05-20T09:58:02Z</time>
      </trkpt>
      <trkpt lat="42.873537987470627" lon="-7.807336030527949">
        <ele>582.5</ele>
        <time>2018-05-20T09:58:03Z</time>
      </trkpt>
      <trkpt lat="42.87354301661253" lon="-7.807281967252493">
        <ele>582.5</ele>
        <time>2018-05-20T09:58:05Z</time>
      </trkpt>
      <trkpt lat="42.873551985248923" lon="-7.807241985574365">
        <ele>582.39999999999998</ele>
        <time>2018-05-20T09:58:06Z</time>
      </trkpt>
      <trkpt lat="42.873561037704349" lon="-7.807190017774701">
        <ele>582.39999999999998</ele>
        <time>2018-05-20T09:58:07Z</time>
      </trkpt>
      <trkpt lat="42.873584004119039" lon="-7.807144001126289">
        <ele>582.20000000000005</ele>
        <time>2018-05-20T09:58:08Z</time>
      </trkpt>
      <trkpt lat="42.873607976362109" lon="-7.807092033326626">
        <ele>582</ele>
        <time>2018-05-20T09:58:09Z</time>
      </trkpt>
      <trkpt lat="42.873631026595831" lon="-7.807046016678214">
        <ele>582</ele>
        <time>2018-05-20T09:58:10Z</time>
      </trkpt>
      <trkpt lat="42.873639995232224" lon="-7.807000000029802">
        <ele>582</ele>
        <time>2018-05-20T09:58:12Z</time>
      </trkpt>
      <trkpt lat="42.873659022152424" lon="-7.806953983381391">
        <ele>582</ele>
        <time>2018-05-20T09:58:13Z</time>
      </trkpt>
      <trkpt lat="42.873677965253592" lon="-7.806903021410108">
        <ele>582</ele>
        <time>2018-05-20T09:58:14Z</time>
      </trkpt>
      <trkpt lat="42.87369598634541" lon="-7.806857004761696">
        <ele>582</ele>
        <time>2018-05-20T09:58:15Z</time>
      </trkpt>
      <trkpt lat="42.87371501326561" lon="-7.806805036962032">
        <ele>582</ele>
        <time>2018-05-20T09:58:16Z</time>
      </trkpt>
      <trkpt lat="42.873734040185809" lon="-7.806759020313621">
        <ele>581.89999999999998</ele>
        <time>2018-05-20T09:58:17Z</time>
      </trkpt>
      <trkpt lat="42.873748037964106" lon="-7.806706968694925">
        <ele>581.89999999999998</ele>
        <time>2018-05-20T09:58:19Z</time>
      </trkpt>
      <trkpt lat="42.873765975236893" lon="-7.806660030037165">
        <ele>582</ele>
        <time>2018-05-20T09:58:20Z</time>
      </trkpt>
      <trkpt lat="42.873771004378796" lon="-7.806595992296934">
        <ele>582.10000000000002</ele>
        <time>2018-05-20T09:58:21Z</time>
      </trkpt>
      <trkpt lat="42.873785002157092" lon="-7.806527009233832">
        <ele>582.20000000000005</ele>
        <time>2018-05-20T09:58:23Z</time>
      </trkpt>
      <trkpt lat="42.873793970793486" lon="-7.806475963443518">
        <ele>582.29999999999995</ele>
        <time>2018-05-20T09:58:24Z</time>
      </trkpt>
      <trkpt lat="42.873804029077291" lon="-7.806430030614138">
        <ele>582.29999999999995</ele>
        <time>2018-05-20T09:58:25Z</time>
      </trkpt>
      <trkpt lat="42.873804029077291" lon="-7.806372027844191">
        <ele>582.5</ele>
        <time>2018-05-20T09:58:26Z</time>
      </trkpt>
      <trkpt lat="42.873804029077291" lon="-7.806308995932341">
        <ele>582.60000000000002</ele>
        <time>2018-05-20T09:58:28Z</time>
      </trkpt>
      <trkpt lat="42.873804029077291" lon="-7.806245964020491">
        <ele>582.79999999999995</ele>
        <time>2018-05-20T09:58:29Z</time>
      </trkpt>
      <trkpt lat="42.873804029077291" lon="-7.806176980957389">
        <ele>583</ele>
        <time>2018-05-20T09:58:30Z</time>
      </trkpt>
      <trkpt lat="42.873804029077291" lon="-7.806101962924004">
        <ele>583.29999999999995</ele>
        <time>2018-05-20T09:58:32Z</time>
      </trkpt>
      <trkpt lat="42.873804029077291" lon="-7.806044965982437">
        <ele>583.5</ele>
        <time>2018-05-20T09:58:33Z</time>
      </trkpt>
      <trkpt lat="42.873793970793486" lon="-7.805982017889619">
        <ele>583.79999999999995</ele>
        <time>2018-05-20T09:58:35Z</time>
      </trkpt>
      <trkpt lat="42.873790031298995" lon="-7.805929966270924">
        <ele>584</ele>
        <time>2018-05-20T09:58:36Z</time>
      </trkpt>
      <trkpt lat="42.873776033520699" lon="-7.805867018178105">
        <ele>584.29999999999995</ele>
        <time>2018-05-20T09:58:37Z</time>
      </trkpt>
      <trkpt lat="42.873762035742402" lon="-7.805813038721681">
        <ele>584.5</ele>
        <time>2018-05-20T09:58:38Z</time>
      </trkpt>
      <trkpt lat="42.873732028529048" lon="-7.805782025679946">
        <ele>584.79999999999995</ele>
        <time>2018-05-20T09:58:40Z</time>
      </trkpt>
      <trkpt lat="42.873688023537397" lon="-7.8056859690696">
        <ele>585.5</ele>
        <time>2018-05-20T09:58:42Z</time>
      </trkpt>
      <trkpt lat="42.873650975525379" lon="-7.805628972128034">
        <ele>586</ele>
        <time>2018-05-20T09:58:44Z</time>
      </trkpt>
      <trkpt lat="42.873622979968786" lon="-7.805586978793144">
        <ele>586.29999999999995</ele>
        <time>2018-05-20T09:58:45Z</time>
      </trkpt>
      <trkpt lat="42.873600013554096" lon="-7.805545991286635">
        <ele>586.60000000000002</ele>
        <time>2018-05-20T09:58:46Z</time>
      </trkpt>
      <trkpt lat="42.873572017997503" lon="-7.805495029315352">
        <ele>586.89999999999998</ele>
        <time>2018-05-20T09:58:47Z</time>
      </trkpt>
      <trkpt lat="42.873530024662614" lon="-7.805449012666941">
        <ele>587.29999999999995</ele>
        <time>2018-05-20T09:58:49Z</time>
      </trkpt>
      <trkpt lat="42.873502029106021" lon="-7.805420011281967">
        <ele>587.5</ele>
        <time>2018-05-20T09:58:50Z</time>
      </trkpt>
      <trkpt lat="42.873478978872299" lon="-7.805380029603839">
        <ele>587.89999999999998</ele>
        <time>2018-05-20T09:58:51Z</time>
      </trkpt>
      <trkpt lat="42.873446037992835" lon="-7.805316997691989">
        <ele>588.70000000000005</ele>
        <time>2018-05-20T09:58:53Z</time>
      </trkpt>
      <trkpt lat="42.87341795861721" lon="-7.805277016013861">
        <ele>589.20000000000005</ele>
        <time>2018-05-20T09:58:54Z</time>
      </trkpt>
      <trkpt lat="42.873389963060617" lon="-7.805258994922042">
        <ele>589.5</ele>
        <time>2018-05-20T09:58:55Z</time>
      </trkpt>
      <trkpt lat="42.873247973620892" lon="-7.805096972733736">
        <ele>591.60000000000002</ele>
        <time>2018-05-20T09:59:01Z</time>
      </trkpt>
      <trkpt lat="42.873130040243268" lon="-7.804894968867302">
        <ele>593.79999999999995</ele>
        <time>2018-05-20T09:59:06Z</time>
      </trkpt>
      <trkpt lat="42.872869027778506" lon="-7.804658012464643">
        <ele>596.60000000000002</ele>
        <time>2018-05-20T09:59:15Z</time>
      </trkpt>
      <trkpt lat="42.872636010870337" lon="-7.804350983351469">
        <ele>599.29999999999995</ele>
        <time>2018-05-20T09:59:25Z</time>
      </trkpt>
      <trkpt lat="42.872497038915753" lon="-7.804191978648305">
        <ele>600.60000000000002</ele>
        <time>2018-05-20T09:59:30Z</time>
      </trkpt>
      <trkpt lat="42.872497038915753" lon="-7.804187033325434">
        <ele>600.60000000000002</ele>
        <time>2018-05-20T09:59:31Z</time>
      </trkpt>
      <trkpt lat="42.872325964272022" lon="-7.804019981995225">
        <ele>601.70000000000005</ele>
        <time>2018-05-20T09:59:37Z</time>
      </trkpt>
      <trkpt lat="42.872325964272022" lon="-7.804012019187212">
        <ele>601.79999999999995</ele>
        <time>2018-05-20T09:59:37Z</time>
      </trkpt>
      <trkpt lat="42.872138964012265" lon="-7.803738014772534">
        <ele>603.20000000000005</ele>
        <time>2018-05-20T09:59:45Z</time>
      </trkpt>
      <trkpt lat="42.872034022584558" lon="-7.803590996190906">
        <ele>604.60000000000002</ele>
        <time>2018-05-20T09:59:50Z</time>
      </trkpt>
      <trkpt lat="42.871913993731141" lon="-7.803270975127816">
        <ele>607.79999999999995</ele>
        <time>2018-05-20T09:59:57Z</time>
      </trkpt>
      <trkpt lat="42.871831012889743" lon="-7.803053967654705">
        <ele>610</ele>
        <time>2018-05-20T10:00:03Z</time>
      </trkpt>
      <trkpt lat="42.871721964329481" lon="-7.802763031795621">
        <ele>613.20000000000005</ele>
        <time>2018-05-20T10:00:10Z</time>
      </trkpt>
      <trkpt lat="42.871611993759871" lon="-7.802533032372594">
        <ele>616</ele>
        <time>2018-05-20T10:00:16Z</time>
      </trkpt>
      <trkpt lat="42.871494982391596" lon="-7.802147967740893">
        <ele>620.70000000000005</ele>
        <time>2018-05-20T10:00:25Z</time>
      </trkpt>
      <trkpt lat="42.871484002098441" lon="-7.802129024639726">
        <ele>620.89999999999998</ele>
        <time>2018-05-20T10:00:26Z</time>
      </trkpt>
      <trkpt lat="42.871461035683751" lon="-7.80207697302103">
        <ele>621.60000000000002</ele>
        <time>2018-05-20T10:00:27Z</time>
      </trkpt>
      <trkpt lat="42.871442008763552" lon="-7.80203104019165">
        <ele>622</ele>
        <time>2018-05-20T10:00:28Z</time>
      </trkpt>
      <trkpt lat="42.871428010985255" lon="-7.801979994401336">
        <ele>622.5</ele>
        <time>2018-05-20T10:00:29Z</time>
      </trkpt>
      <trkpt lat="42.871409989893436" lon="-7.801916040480137">
        <ele>623.10000000000002</ele>
        <time>2018-05-20T10:00:31Z</time>
      </trkpt>
      <trkpt lat="42.871390962973237" lon="-7.801864994689822">
        <ele>623.60000000000002</ele>
        <time>2018-05-20T10:00:32Z</time>
      </trkpt>
      <trkpt lat="42.871376965194941" lon="-7.801806991919875">
        <ele>624.10000000000002</ele>
        <time>2018-05-20T10:00:33Z</time>
      </trkpt>
      <trkpt lat="42.871358022093773" lon="-7.801760975271463">
        <ele>624.5</ele>
        <time>2018-05-20T10:00:34Z</time>
      </trkpt>
      <trkpt lat="42.87133002653718" lon="-7.801703978329897">
        <ele>625.10000000000002</ele>
        <time>2018-05-20T10:00:36Z</time>
      </trkpt>
      <trkpt lat="42.871312005445361" lon="-7.80164597555995">
        <ele>625.60000000000002</ele>
        <time>2018-05-20T10:00:37Z</time>
      </trkpt>
      <trkpt lat="42.871292978525162" lon="-7.801595013588667">
        <ele>626.10000000000002</ele>
        <time>2018-05-20T10:00:39Z</time>
      </trkpt>
      <trkpt lat="42.871264982968569" lon="-7.801531981676817">
        <ele>626.60000000000002</ele>
        <time>2018-05-20T10:00:40Z</time>
      </trkpt>
      <trkpt lat="42.871236987411976" lon="-7.801490994170308">
        <ele>627</ele>
        <time>2018-05-20T10:00:41Z</time>
      </trkpt>
      <trkpt lat="42.871214020997286" lon="-7.801433997228742">
        <ele>627.39999999999998</ele>
        <time>2018-05-20T10:00:43Z</time>
      </trkpt>
      <trkpt lat="42.871194994077086" lon="-7.801382029429078">
        <ele>627.89999999999998</ele>
        <time>2018-05-20T10:00:44Z</time>
      </trkpt>
      <trkpt lat="42.871176972985268" lon="-7.801325032487512">
        <ele>628.29999999999995</ele>
        <time>2018-05-20T10:00:45Z</time>
      </trkpt>
      <trkpt lat="42.871148977428675" lon="-7.801272980868816">
        <ele>628.70000000000005</ele>
        <time>2018-05-20T10:00:47Z</time>
      </trkpt>
      <trkpt lat="42.871111007407308" lon="-7.801221013069153">
        <ele>629</ele>
        <time>2018-05-20T10:00:48Z</time>
      </trkpt>
      <trkpt lat="42.871083011850715" lon="-7.801164016127586">
        <ele>629.39999999999998</ele>
        <time>2018-05-20T10:00:50Z</time>
      </trkpt>
      <trkpt lat="42.871059961616993" lon="-7.801124034449458">
        <ele>629.60000000000002</ele>
        <time>2018-05-20T10:00:51Z</time>
      </trkpt>
      <trkpt lat="42.871041018515825" lon="-7.801061002537608">
        <ele>630.10000000000002</ele>
        <time>2018-05-20T10:00:52Z</time>
      </trkpt>
      <trkpt lat="42.871017968282104" lon="-7.801020015031099">
        <ele>630.29999999999995</ele>
        <time>2018-05-20T10:00:54Z</time>
      </trkpt>
      <trkpt lat="42.870985027402639" lon="-7.800980033352971">
        <ele>630.5</ele>
        <time>2018-05-20T10:00:55Z</time>
      </trkpt>
      <trkpt lat="42.870950996875763" lon="-7.800949020311236">
        <ele>630.70000000000005</ele>
        <time>2018-05-20T10:00:56Z</time>
      </trkpt>
      <trkpt lat="42.870867010205984" lon="-7.800861010327935">
        <ele>631.10000000000002</ele>
        <time>2018-05-20T10:00:59Z</time>
      </trkpt>
      <trkpt lat="42.870714040473104" lon="-7.800705023109913">
        <ele>631.89999999999998</ele>
        <time>2018-05-20T10:01:05Z</time>
      </trkpt>
      <trkpt lat="42.870453028008342" lon="-7.800350971519947">
        <ele>633.39999999999998</ele>
        <time>2018-05-20T10:01:16Z</time>
      </trkpt>
      <trkpt lat="42.870265021920204" lon="-7.800132958218455">
        <ele>634.39999999999998</ele>
        <time>2018-05-20T10:01:23Z</time>
      </trkpt>
      <trkpt lat="42.870090007781982" lon="-7.799886027351022">
        <ele>635.5</ele>
        <time>2018-05-20T10:01:31Z</time>
      </trkpt>
      <trkpt lat="42.869895966723561" lon="-7.799614034593105">
        <ele>636.89999999999998</ele>
        <time>2018-05-20T10:01:39Z</time>
      </trkpt>
      <trkpt lat="42.869717013090849" lon="-7.799425022676587">
        <ele>637.79999999999995</ele>
        <time>2018-05-20T10:01:46Z</time>
      </trkpt>
      <trkpt lat="42.86961299367249" lon="-7.799284961074591">
        <ele>638.5</ele>
        <time>2018-05-20T10:01:50Z</time>
      </trkpt>
      <trkpt lat="42.86948399618268" lon="-7.799139032140374">
        <ele>639.39999999999998</ele>
        <time>2018-05-20T10:01:55Z</time>
      </trkpt>
      <trkpt lat="42.869350975379348" lon="-7.799019003286958">
        <ele>640.20000000000005</ele>
        <time>2018-05-20T10:02:00Z</time>
      </trkpt>
      <trkpt lat="42.869146037846804" lon="-7.798715997487307">
        <ele>641.70000000000005</ele>
        <time>2018-05-20T10:02:08Z</time>
      </trkpt>
      <trkpt lat="42.868907991796732" lon="-7.798424977809191">
        <ele>643.10000000000002</ele>
        <time>2018-05-20T10:02:18Z</time>
      </trkpt>
      <trkpt lat="42.86858101375401" lon="-7.798062963411212">
        <ele>644.5</ele>
        <time>2018-05-20T10:02:30Z</time>
      </trkpt>
      <trkpt lat="42.868574978783727" lon="-7.798062963411212">
        <ele>644.5</ele>
        <time>2018-05-20T10:02:31Z</time>
      </trkpt>
      <trkpt lat="42.868436006829143" lon="-7.797832963988185">
        <ele>645.20000000000005</ele>
        <time>2018-05-20T10:02:37Z</time>
      </trkpt>
      <trkpt lat="42.868335004895926" lon="-7.797636995092034">
        <ele>645.70000000000005</ele>
        <time>2018-05-20T10:02:42Z</time>
      </trkpt>
      <trkpt lat="42.868231991305947" lon="-7.797440020367503">
        <ele>646.10000000000002</ele>
        <time>2018-05-20T10:02:47Z</time>
      </trkpt>
      <trkpt lat="42.868115985766053" lon="-7.797274980694056">
        <ele>646.5</ele>
        <time>2018-05-20T10:02:52Z</time>
      </trkpt>
      <trkpt lat="42.867898978292942" lon="-7.796879019588232">
        <ele>646.20000000000005</ele>
        <time>2018-05-20T10:03:03Z</time>
      </trkpt>
      <trkpt lat="42.867607036605477" lon="-7.796333022415638">
        <ele>644.20000000000005</ele>
        <time>2018-05-20T10:03:18Z</time>
      </trkpt>
      <trkpt lat="42.86746202968061" lon="-7.796042002737522">
        <ele>642.89999999999998</ele>
        <time>2018-05-20T10:03:25Z</time>
      </trkpt>
      <trkpt lat="42.867278968915343" lon="-7.795697003602982">
        <ele>640.79999999999995</ele>
        <time>2018-05-20T10:03:35Z</time>
      </trkpt>
      <trkpt lat="42.867044024169445" lon="-7.795275980606675">
        <ele>638.60000000000002</ele>
        <time>2018-05-20T10:03:46Z</time>
      </trkpt>
      <trkpt lat="42.866875967010856" lon="-7.794888988137245">
        <ele>637.39999999999998</ele>
        <time>2018-05-20T10:03:56Z</time>
      </trkpt>
      <trkpt lat="42.866875967010856" lon="-7.794881025329232">
        <ele>637.39999999999998</ele>
        <time>2018-05-20T10:03:56Z</time>
      </trkpt>
      <trkpt lat="42.866739006713033" lon="-7.794582964852452">
        <ele>636.39999999999998</ele>
        <time>2018-05-20T10:04:04Z</time>
      </trkpt>
      <trkpt lat="42.866580002009869" lon="-7.794265039265156">
        <ele>635.70000000000005</ele>
        <time>2018-05-20T10:04:12Z</time>
      </trkpt>
      <trkpt lat="42.866445975378156" lon="-7.794011989608407">
        <ele>634.70000000000005</ele>
        <time>2018-05-20T10:04:19Z</time>
      </trkpt>
      <trkpt lat="42.866285964846611" lon="-7.793651986867189">
        <ele>632.70000000000005</ele>
        <time>2018-05-20T10:04:28Z</time>
      </trkpt>
      <trkpt lat="42.866240032017231" lon="-7.793531036004424">
        <ele>632</ele>
        <time>2018-05-20T10:04:31Z</time>
      </trkpt>
      <trkpt lat="42.866240032017231" lon="-7.793522989377379">
        <ele>631.89999999999998</ele>
        <time>2018-05-20T10:04:31Z</time>
      </trkpt>
      <trkpt lat="42.86615596152842" lon="-7.793277986347675">
        <ele>630.79999999999995</ele>
        <time>2018-05-20T10:04:37Z</time>
      </trkpt>
      <trkpt lat="42.866123020648956" lon="-7.793101966381073">
        <ele>630</ele>
        <time>2018-05-20T10:04:41Z</time>
      </trkpt>
      <trkpt lat="42.866085972636938" lon="-7.792966011911631">
        <ele>629.29999999999995</ele>
        <time>2018-05-20T10:04:44Z</time>
      </trkpt>
      <trkpt lat="42.866075998172164" lon="-7.792673986405134">
        <ele>628.5</ele>
        <time>2018-05-20T10:04:51Z</time>
      </trkpt>
      <trkpt lat="42.86606702953577" lon="-7.792450021952391">
        <ele>628</ele>
        <time>2018-05-20T10:04:55Z</time>
      </trkpt>
      <trkpt lat="42.86606702953577" lon="-7.792421020567417">
        <ele>627.89999999999998</ele>
        <time>2018-05-20T10:04:56Z</time>
      </trkpt>
      <trkpt lat="42.86606702953577" lon="-7.792364023625851">
        <ele>627.79999999999995</ele>
        <time>2018-05-20T10:04:57Z</time>
      </trkpt>
      <trkpt lat="42.86606702953577" lon="-7.792295040562749">
        <ele>627.70000000000005</ele>
        <time>2018-05-20T10:04:59Z</time>
      </trkpt>
      <trkpt lat="42.86606702953577" lon="-7.792237959802151">
        <ele>627.5</ele>
        <time>2018-05-20T10:05:00Z</time>
      </trkpt>
      <trkpt lat="42.86606702953577" lon="-7.792171994224191">
        <ele>627.39999999999998</ele>
        <time>2018-05-20T10:05:01Z</time>
      </trkpt>
      <trkpt lat="42.86606702953577" lon="-7.792121032252908">
        <ele>627.29999999999995</ele>
        <time>2018-05-20T10:05:03Z</time>
      </trkpt>
      <trkpt lat="42.86606702953577" lon="-7.792063029482961">
        <ele>627.20000000000005</ele>
        <time>2018-05-20T10:05:04Z</time>
      </trkpt>
      <trkpt lat="42.86606702953577" lon="-7.791993962600827">
        <ele>627.29999999999995</ele>
        <time>2018-05-20T10:05:05Z</time>
      </trkpt>
      <trkpt lat="42.86606702953577" lon="-7.791931014508009">
        <ele>627.39999999999998</ele>
        <time>2018-05-20T10:05:07Z</time>
      </trkpt>
      <trkpt lat="42.86606702953577" lon="-7.791879968717694">
        <ele>627.39999999999998</ele>
        <time>2018-05-20T10:05:08Z</time>
      </trkpt>
      <trkpt lat="42.866053031757474" lon="-7.791810985654593">
        <ele>627.5</ele>
        <time>2018-05-20T10:05:09Z</time>
      </trkpt>
      <trkpt lat="42.866053031757474" lon="-7.791759017854929">
        <ele>627.5</ele>
        <time>2018-05-20T10:05:10Z</time>
      </trkpt>
      <trkpt lat="42.866035010665655" lon="-7.791702020913363">
        <ele>627.60000000000002</ele>
        <time>2018-05-20T10:05:12Z</time>
      </trkpt>
      <trkpt lat="42.866021012887359" lon="-7.791644018143416">
        <ele>627.70000000000005</ele>
        <time>2018-05-20T10:05:13Z</time>
      </trkpt>
      <trkpt lat="42.866021012887359" lon="-7.791590038686991">
        <ele>627.70000000000005</ele>
        <time>2018-05-20T10:05:14Z</time>
      </trkpt>
      <trkpt lat="42.866011038422585" lon="-7.791538992896676">
        <ele>627.79999999999995</ele>
        <time>2018-05-20T10:05:15Z</time>
      </trkpt>
      <trkpt lat="42.865997040644288" lon="-7.791487025097013">
        <ele>627.79999999999995</ele>
        <time>2018-05-20T10:05:17Z</time>
      </trkpt>
      <trkpt lat="42.865993017330766" lon="-7.791417958214879">
        <ele>627.89999999999998</ele>
        <time>2018-05-20T10:05:18Z</time>
      </trkpt>
      <trkpt lat="42.865973990410566" lon="-7.791372025385499">
        <ele>627.89999999999998</ele>
        <time>2018-05-20T10:05:19Z</time>
      </trkpt>
      <trkpt lat="42.865945994853973" lon="-7.791343024000526">
        <ele>627.89999999999998</ele>
        <time>2018-05-20T10:05:20Z</time>
      </trkpt>
      <trkpt lat="42.865923028439283" lon="-7.791302958503366">
        <ele>628</ele>
        <time>2018-05-20T10:05:21Z</time>
      </trkpt>
      <trkpt lat="42.86589503288269" lon="-7.791251996532083">
        <ele>628</ele>
        <time>2018-05-20T10:05:23Z</time>
      </trkpt>
      <trkpt lat="42.865859996527433" lon="-7.791216960176826">
        <ele>627.89999999999998</ele>
        <time>2018-05-20T10:05:24Z</time>
      </trkpt>
      <trkpt lat="42.86585102789104" lon="-7.791164992377162">
        <ele>627.79999999999995</ele>
        <time>2018-05-20T10:05:25Z</time>
      </trkpt>
      <trkpt lat="42.86583200097084" lon="-7.791114030405879">
        <ele>627.60000000000002</ele>
        <time>2018-05-20T10:05:26Z</time>
      </trkpt>
      <trkpt lat="42.865813979879022" lon="-7.791049992665649">
        <ele>627.39999999999998</ele>
        <time>2018-05-20T10:05:28Z</time>
      </trkpt>
      <trkpt lat="42.865795036777854" lon="-7.790982015430927">
        <ele>627.20000000000005</ele>
        <time>2018-05-20T10:05:30Z</time>
      </trkpt>
      <trkpt lat="42.865767041221261" lon="-7.790889982134104">
        <ele>626.79999999999995</ele>
        <time>2018-05-20T10:05:32Z</time>
      </trkpt>
      <trkpt lat="42.865743990987539" lon="-7.790827034041286">
        <ele>626.60000000000002</ele>
        <time>2018-05-20T10:05:33Z</time>
      </trkpt>
      <trkpt lat="42.865713983774185" lon="-7.790714967995882">
        <ele>626.10000000000002</ele>
        <time>2018-05-20T10:05:36Z</time>
      </trkpt>
      <trkpt lat="42.865699985995889" lon="-7.790657971054316">
        <ele>625.89999999999998</ele>
        <time>2018-05-20T10:05:37Z</time>
      </trkpt>
      <trkpt lat="42.865677019581199" lon="-7.790595022961497">
        <ele>625.60000000000002</ele>
        <time>2018-05-20T10:05:39Z</time>
      </trkpt>
      <trkpt lat="42.865661010146141" lon="-7.790544982999563">
        <ele>625.39999999999998</ele>
        <time>2018-05-20T10:05:40Z</time>
      </trkpt>
      <trkpt lat="42.865619016811252" lon="-7.790412968024612">
        <ele>624.70000000000005</ele>
        <time>2018-05-20T10:05:43Z</time>
      </trkpt>
      <trkpt lat="42.865614993497729" lon="-7.790354965254664">
        <ele>624.70000000000005</ele>
        <time>2018-05-20T10:05:44Z</time>
      </trkpt>
      <trkpt lat="42.865591021254659" lon="-7.790297968313098">
        <ele>624.70000000000005</ele>
        <time>2018-05-20T10:05:46Z</time>
      </trkpt>
      <trkpt lat="42.865591021254659" lon="-7.790228985249996">
        <ele>624.70000000000005</ele>
        <time>2018-05-20T10:05:47Z</time>
      </trkpt>
      <trkpt lat="42.865591021254659" lon="-7.790166037157178">
        <ele>624.70000000000005</ele>
        <time>2018-05-20T10:05:49Z</time>
      </trkpt>
      <trkpt lat="42.865591021254659" lon="-7.790113985538483">
        <ele>624.70000000000005</ele>
        <time>2018-05-20T10:05:50Z</time>
      </trkpt>
      <trkpt lat="42.865591021254659" lon="-7.790051037445664">
        <ele>624.70000000000005</ele>
        <time>2018-05-20T10:05:51Z</time>
      </trkpt>
      <trkpt lat="42.865591021254659" lon="-7.789993034675717">
        <ele>624.70000000000005</ele>
        <time>2018-05-20T10:05:52Z</time>
      </trkpt>
      <trkpt lat="42.865591021254659" lon="-7.789930002763867">
        <ele>624.70000000000005</ele>
        <time>2018-05-20T10:05:54Z</time>
      </trkpt>
      <trkpt lat="42.865591021254659" lon="-7.789878034964204">
        <ele>624.79999999999995</ele>
        <time>2018-05-20T10:05:55Z</time>
      </trkpt>
      <trkpt lat="42.865591021254659" lon="-7.789815003052354">
        <ele>624.79999999999995</ele>
        <time>2018-05-20T10:05:56Z</time>
      </trkpt>
      <trkpt lat="42.86559596657753" lon="-7.789736967533827">
        <ele>624.79999999999995</ele>
        <time>2018-05-20T10:05:58Z</time>
      </trkpt>
      <trkpt lat="42.86559596657753" lon="-7.78967896476388">
        <ele>624.79999999999995</ele>
        <time>2018-05-20T10:05:59Z</time>
      </trkpt>
      <trkpt lat="42.865605019032955" lon="-7.789621967822313">
        <ele>624.89999999999998</ele>
        <time>2018-05-20T10:06:00Z</time>
      </trkpt>
      <trkpt lat="42.865605019032955" lon="-7.789563965052366">
        <ele>625</ele>
        <time>2018-05-20T10:06:02Z</time>
      </trkpt>
      <trkpt lat="42.865605019032955" lon="-7.789513003081083">
        <ele>625.10000000000002</ele>
        <time>2018-05-20T10:06:03Z</time>
      </trkpt>
      <trkpt lat="42.865614993497729" lon="-7.789455000311136">
        <ele>625.29999999999995</ele>
        <time>2018-05-20T10:06:04Z</time>
      </trkpt>
      <trkpt lat="42.865623962134123" lon="-7.789403032511473">
        <ele>625.39999999999998</ele>
        <time>2018-05-20T10:06:05Z</time>
      </trkpt>
      <trkpt lat="42.865623962134123" lon="-7.789346035569906">
        <ele>625.60000000000002</ele>
        <time>2018-05-20T10:06:06Z</time>
      </trkpt>
      <trkpt lat="42.865633014589548" lon="-7.789271017536521">
        <ele>625.79999999999995</ele>
        <time>2018-05-20T10:06:08Z</time>
      </trkpt>
      <trkpt lat="42.865637959912419" lon="-7.789219971746206">
        <ele>625.89999999999998</ele>
        <time>2018-05-20T10:06:09Z</time>
      </trkpt>
      <trkpt lat="42.865637959912419" lon="-7.789168003946543">
        <ele>626.10000000000002</ele>
        <time>2018-05-20T10:06:10Z</time>
      </trkpt>
      <trkpt lat="42.865642989054322" lon="-7.789116036146879">
        <ele>626.20000000000005</ele>
        <time>2018-05-20T10:06:11Z</time>
      </trkpt>
      <trkpt lat="42.865642989054322" lon="-7.789064990356565">
        <ele>626.29999999999995</ele>
        <time>2018-05-20T10:06:13Z</time>
      </trkpt>
      <trkpt lat="42.865642989054322" lon="-7.789013022556901">
        <ele>626.5</ele>
        <time>2018-05-20T10:06:14Z</time>
      </trkpt>
      <trkpt lat="42.865652041509748" lon="-7.788960970938206">
        <ele>626.60000000000002</ele>
        <time>2018-05-20T10:06:15Z</time>
      </trkpt>
      <trkpt lat="42.865652041509748" lon="-7.788903973996639">
        <ele>626.79999999999995</ele>
        <time>2018-05-20T10:06:16Z</time>
      </trkpt>
      <trkpt lat="42.865652041509748" lon="-7.788823004812002">
        <ele>627</ele>
        <time>2018-05-20T10:06:18Z</time>
      </trkpt>
      <trkpt lat="42.865652041509748" lon="-7.788771959021688">
        <ele>627.10000000000002</ele>
        <time>2018-05-20T10:06:19Z</time>
      </trkpt>
      <trkpt lat="42.865652041509748" lon="-7.788695013150573">
        <ele>627.29999999999995</ele>
        <time>2018-05-20T10:06:21Z</time>
      </trkpt>
      <trkpt lat="42.865642989054322" lon="-7.788626030087471">
        <ele>627.39999999999998</ele>
        <time>2018-05-20T10:06:22Z</time>
      </trkpt>
      <trkpt lat="42.865642989054322" lon="-7.788573978468776">
        <ele>627.5</ele>
        <time>2018-05-20T10:06:23Z</time>
      </trkpt>
      <trkpt lat="42.865637959912419" lon="-7.788504995405674">
        <ele>627.60000000000002</ele>
        <time>2018-05-20T10:06:25Z</time>
      </trkpt>
      <trkpt lat="42.865637959912419" lon="-7.788437018170953">
        <ele>627.79999999999995</ele>
        <time>2018-05-20T10:06:26Z</time>
      </trkpt>
      <trkpt lat="42.865637959912419" lon="-7.788379015401006">
        <ele>628</ele>
        <time>2018-05-20T10:06:28Z</time>
      </trkpt>
      <trkpt lat="42.865633014589548" lon="-7.788303997367621">
        <ele>628.10000000000002</ele>
        <time>2018-05-20T10:06:29Z</time>
      </trkpt>
      <trkpt lat="42.865633014589548" lon="-7.788247000426054">
        <ele>628.20000000000005</ele>
        <time>2018-05-20T10:06:30Z</time>
      </trkpt>
      <trkpt lat="42.865628991276026" lon="-7.788147004321218">
        <ele>628.5</ele>
        <time>2018-05-20T10:06:33Z</time>
      </trkpt>
      <trkpt lat="42.865628991276026" lon="-7.788090007379651">
        <ele>628.60000000000002</ele>
        <time>2018-05-20T10:06:34Z</time>
      </trkpt>
      <trkpt lat="42.865623962134123" lon="-7.788033010438085">
        <ele>628.70000000000005</ele>
        <time>2018-05-20T10:06:35Z</time>
      </trkpt>
      <trkpt lat="42.865619016811252" lon="-7.787968972697854">
        <ele>628.79999999999995</ele>
        <time>2018-05-20T10:06:36Z</time>
      </trkpt>
      <trkpt lat="42.865619016811252" lon="-7.787918010726571">
        <ele>629</ele>
        <time>2018-05-20T10:06:38Z</time>
      </trkpt>
      <trkpt lat="42.865614993497729" lon="-7.787853972986341">
        <ele>629.10000000000002</ele>
        <time>2018-05-20T10:06:39Z</time>
      </trkpt>
      <trkpt lat="42.865609964355826" lon="-7.787803011015058">
        <ele>629.20000000000005</ele>
        <time>2018-05-20T10:06:40Z</time>
      </trkpt>
      <trkpt lat="42.865591021254659" lon="-7.787698991596699">
        <ele>629.29999999999995</ele>
        <time>2018-05-20T10:06:42Z</time>
      </trkpt>
      <trkpt lat="42.865577023476362" lon="-7.787624979391694">
        <ele>629.39999999999998</ele>
        <time>2018-05-20T10:06:44Z</time>
      </trkpt>
      <trkpt lat="42.865567971020937" lon="-7.787573011592031">
        <ele>629.5</ele>
        <time>2018-05-20T10:06:45Z</time>
      </trkpt>
      <trkpt lat="42.86555397324264" lon="-7.787509979680181">
        <ele>629.60000000000002</ele>
        <time>2018-05-20T10:06:47Z</time>
      </trkpt>
      <trkpt lat="42.865525977686048" lon="-7.787451976910234">
        <ele>629.60000000000002</ele>
        <time>2018-05-20T10:06:48Z</time>
      </trkpt>
      <trkpt lat="42.865500999614596" lon="-7.787402020767331">
        <ele>629.60000000000002</ele>
        <time>2018-05-20T10:06:49Z</time>
      </trkpt>
      <trkpt lat="42.865450037643313" lon="-7.787332031875849">
        <ele>629.5</ele>
        <time>2018-05-20T10:06:52Z</time>
      </trkpt>
      <trkpt lat="42.865417012944818" lon="-7.787290960550308">
        <ele>629.5</ele>
        <time>2018-05-20T10:06:53Z</time>
      </trkpt>
      <trkpt lat="42.865382982417941" lon="-7.787262964993715">
        <ele>629.39999999999998</ele>
        <time>2018-05-20T10:06:54Z</time>
      </trkpt>
      <trkpt lat="42.865354986861348" lon="-7.787239998579025">
        <ele>629.29999999999995</ele>
        <time>2018-05-20T10:06:55Z</time>
      </trkpt>
      <trkpt lat="42.865321962162852" lon="-7.787204962223768">
        <ele>629.29999999999995</ele>
        <time>2018-05-20T10:06:56Z</time>
      </trkpt>
      <trkpt lat="42.865276029333472" lon="-7.787175960838795">
        <ele>629.10000000000002</ele>
        <time>2018-05-20T10:06:58Z</time>
      </trkpt>
      <trkpt lat="42.865243004634976" lon="-7.78714201413095">
        <ele>629</ele>
        <time>2018-05-20T10:06:59Z</time>
      </trkpt>
      <trkpt lat="42.865209979936481" lon="-7.787107983604074">
        <ele>628.89999999999998</ele>
        <time>2018-05-20T10:07:00Z</time>
      </trkpt>
      <trkpt lat="42.865177961066365" lon="-7.787073031067848">
        <ele>628.79999999999995</ele>
        <time>2018-05-20T10:07:01Z</time>
      </trkpt>
      <trkpt lat="42.865139991044998" lon="-7.787039000540972">
        <ele>628.60000000000002</ele>
        <time>2018-05-20T10:07:03Z</time>
      </trkpt>
      <trkpt lat="42.865107972174883" lon="-7.787003964185715">
        <ele>628.39999999999998</ele>
        <time>2018-05-20T10:07:04Z</time>
      </trkpt>
      <trkpt lat="42.865061033517122" lon="-7.786963982507587">
        <ele>628.20000000000005</ele>
        <time>2018-05-20T10:07:06Z</time>
      </trkpt>
      <trkpt lat="42.865028008818626" lon="-7.786924000829458">
        <ele>627.89999999999998</ele>
        <time>2018-05-20T10:07:07Z</time>
      </trkpt>
      <trkpt lat="42.86499397829175" lon="-7.786901034414768">
        <ele>627.79999999999995</ele>
        <time>2018-05-20T10:07:08Z</time>
      </trkpt>
      <trkpt lat="42.864957014098763" lon="-7.786865998059511">
        <ele>627.5</ele>
        <time>2018-05-20T10:07:09Z</time>
      </trkpt>
      <trkpt lat="42.864919966086745" lon="-7.786826016381383">
        <ele>627.29999999999995</ele>
        <time>2018-05-20T10:07:11Z</time>
      </trkpt>
      <trkpt lat="42.864895993843675" lon="-7.786791985854507">
        <ele>627.20000000000005</ele>
        <time>2018-05-20T10:07:12Z</time>
      </trkpt>
      <trkpt lat="42.864860035479069" lon="-7.786762984469533">
        <ele>626.89999999999998</ele>
        <time>2018-05-20T10:07:13Z</time>
      </trkpt>
      <trkpt lat="42.864831034094095" lon="-7.786733983084559">
        <ele>626.79999999999995</ele>
        <time>2018-05-20T10:07:14Z</time>
      </trkpt>
      <trkpt lat="42.864806978031993" lon="-7.786700036376715">
        <ele>626.60000000000002</ele>
        <time>2018-05-20T10:07:15Z</time>
      </trkpt>
      <trkpt lat="42.864774959161878" lon="-7.786686038598418">
        <ele>626.39999999999998</ele>
        <time>2018-05-20T10:07:16Z</time>
      </trkpt>
      <trkpt lat="42.864742018282413" lon="-7.786652008071542">
        <ele>626.20000000000005</ele>
        <time>2018-05-20T10:07:17Z</time>
      </trkpt>
      <trkpt lat="42.864696001634002" lon="-7.786623006686568">
        <ele>626</ele>
        <time>2018-05-20T10:07:19Z</time>
      </trkpt>
      <trkpt lat="42.864660965278745" lon="-7.786588976159692">
        <ele>625.79999999999995</ele>
        <time>2018-05-20T10:07:20Z</time>
      </trkpt>
      <trkpt lat="42.864571027457714" lon="-7.786525022238493">
        <ele>625.20000000000005</ele>
        <time>2018-05-20T10:07:23Z</time>
      </trkpt>
      <trkpt lat="42.864456027746201" lon="-7.78643399477005">
        <ele>624.10000000000002</ele>
        <time>2018-05-20T10:07:27Z</time>
      </trkpt>
      <trkpt lat="42.864265004172921" lon="-7.786243977025151">
        <ele>621.89999999999998</ele>
        <time>2018-05-20T10:07:34Z</time>
      </trkpt>
      <trkpt lat="42.864116979762912" lon="-7.786054965108633">
        <ele>619.70000000000005</ele>
        <time>2018-05-20T10:07:40Z</time>
      </trkpt>
      <trkpt lat="42.863921010866761" lon="-7.785780960693955">
        <ele>617.20000000000005</ele>
        <time>2018-05-20T10:07:48Z</time>
      </trkpt>
      <trkpt lat="42.863914975896478" lon="-7.785780960693955">
        <ele>617.10000000000002</ele>
        <time>2018-05-20T10:07:49Z</time>
      </trkpt>
      <trkpt lat="42.863753037527204" lon="-7.785583985969424">
        <ele>615.39999999999998</ele>
        <time>2018-05-20T10:07:55Z</time>
      </trkpt>
      <trkpt lat="42.863570982590318" lon="-7.785334959626198">
        <ele>613.70000000000005</ele>
        <time>2018-05-20T10:08:03Z</time>
      </trkpt>
      <trkpt lat="42.86340300925076" lon="-7.785265976563096">
        <ele>612.5</ele>
        <time>2018-05-20T10:08:08Z</time>
      </trkpt>
      <trkpt lat="42.86340300925076" lon="-7.785258013755083">
        <ele>612.5</ele>
        <time>2018-05-20T10:08:08Z</time>
      </trkpt>
      <trkpt lat="42.863242998719215" lon="-7.785194981843233">
        <ele>611.29999999999995</ele>
        <time>2018-05-20T10:08:13Z</time>
      </trkpt>
      <trkpt lat="42.863106960430741" lon="-7.785136979073286">
        <ele>610.20000000000005</ele>
        <time>2018-05-20T10:08:17Z</time>
      </trkpt>
      <trkpt lat="42.863087011501193" lon="-7.785125998780131">
        <ele>610</ele>
        <time>2018-05-20T10:08:18Z</time>
      </trkpt>
      <trkpt lat="42.863045018166304" lon="-7.785119963809848">
        <ele>609.79999999999995</ele>
        <time>2018-05-20T10:08:19Z</time>
      </trkpt>
      <trkpt lat="42.863007970154285" lon="-7.785108983516693">
        <ele>609.5</ele>
        <time>2018-05-20T10:08:20Z</time>
      </trkpt>
      <trkpt lat="42.862965976819396" lon="-7.785096997395158">
        <ele>609.20000000000005</ele>
        <time>2018-05-20T10:08:22Z</time>
      </trkpt>
      <trkpt lat="42.86292901262641" lon="-7.785090962424874">
        <ele>608.89999999999998</ele>
        <time>2018-05-20T10:08:23Z</time>
      </trkpt>
      <trkpt lat="42.862893976271152" lon="-7.78507998213172">
        <ele>608.70000000000005</ele>
        <time>2018-05-20T10:08:24Z</time>
      </trkpt>
      <trkpt lat="42.862851982936263" lon="-7.785062966868281">
        <ele>608.39999999999998</ele>
        <time>2018-05-20T10:08:25Z</time>
      </trkpt>
      <trkpt lat="42.862809989601374" lon="-7.78503798879683">
        <ele>608</ele>
        <time>2018-05-20T10:08:26Z</time>
      </trkpt>
      <trkpt lat="42.862774031236768" lon="-7.785023991018534">
        <ele>607.70000000000005</ele>
        <time>2018-05-20T10:08:28Z</time>
      </trkpt>
      <trkpt lat="42.862742012366652" lon="-7.784966994076967">
        <ele>607.29999999999995</ele>
        <time>2018-05-20T10:08:29Z</time>
      </trkpt>
      <trkpt lat="42.862708987668157" lon="-7.784915026277304">
        <ele>606.89999999999998</ele>
        <time>2018-05-20T10:08:31Z</time>
      </trkpt>
      <trkpt lat="42.86269498988986" lon="-7.784874960780144">
        <ele>606.60000000000002</ele>
        <time>2018-05-20T10:08:32Z</time>
      </trkpt>
      <trkpt lat="42.862666994333267" lon="-7.784820981323719">
        <ele>606.20000000000005</ele>
        <time>2018-05-20T10:08:33Z</time>
      </trkpt>
      <trkpt lat="42.862625000998378" lon="-7.7846700232476">
        <ele>605.29999999999995</ele>
        <time>2018-05-20T10:08:36Z</time>
      </trkpt>
      <trkpt lat="42.862554006278515" lon="-7.78445896692574">
        <ele>603.79999999999995</ele>
        <time>2018-05-20T10:08:42Z</time>
      </trkpt>
      <trkpt lat="42.862473959103227" lon="-7.784188985824585">
        <ele>601.89999999999998</ele>
        <time>2018-05-20T10:08:48Z</time>
      </trkpt>
      <trkpt lat="42.862387960776687" lon="-7.783897966146469">
        <ele>600.10000000000002</ele>
        <time>2018-05-20T10:08:55Z</time>
      </trkpt>
      <trkpt lat="42.862304979935288" lon="-7.783620022237301">
        <ele>599.60000000000002</ele>
        <time>2018-05-20T10:09:01Z</time>
      </trkpt>
      <trkpt lat="42.862239014357328" lon="-7.783459005877376">
        <ele>600.10000000000002</ele>
        <time>2018-05-20T10:09:05Z</time>
      </trkpt>
      <trkpt lat="42.862229961901903" lon="-7.783431010320783">
        <ele>600.20000000000005</ele>
        <time>2018-05-20T10:09:06Z</time>
      </trkpt>
      <trkpt lat="42.862200038507581" lon="-7.783388011157513">
        <ele>600.39999999999998</ele>
        <time>2018-05-20T10:09:07Z</time>
      </trkpt>
      <trkpt lat="42.862159973010421" lon="-7.783350041136146">
        <ele>600.5</ele>
        <time>2018-05-20T10:09:09Z</time>
      </trkpt>
      <trkpt lat="42.862123008817434" lon="-7.783344006165862">
        <ele>600.5</ele>
        <time>2018-05-20T10:09:10Z</time>
      </trkpt>
      <trkpt lat="42.862085038796067" lon="-7.783333025872707">
        <ele>600.5</ele>
        <time>2018-05-20T10:09:11Z</time>
      </trkpt>
      <trkpt lat="42.862042961642146" lon="-7.783333025872707">
        <ele>601.10000000000002</ele>
        <time>2018-05-20T10:09:12Z</time>
      </trkpt>
      <trkpt lat="42.862000968307257" lon="-7.783321039751172">
        <ele>601.70000000000005</ele>
        <time>2018-05-20T10:09:13Z</time>
      </trkpt>
      <trkpt lat="42.861958974972367" lon="-7.783315004780889">
        <ele>602.29999999999995</ele>
        <time>2018-05-20T10:09:15Z</time>
      </trkpt>
      <trkpt lat="42.861916981637478" lon="-7.783292038366199">
        <ele>603</ele>
        <time>2018-05-20T10:09:16Z</time>
      </trkpt>
      <trkpt lat="42.861884962767363" lon="-7.783263958990574">
        <ele>603.5</ele>
        <time>2018-05-20T10:09:17Z</time>
      </trkpt>
      <trkpt lat="42.861852021887898" lon="-7.783235041424632">
        <ele>604.10000000000002</ele>
        <time>2018-05-20T10:09:18Z</time>
      </trkpt>
      <trkpt lat="42.86181497387588" lon="-7.783201010897756">
        <ele>604.60000000000002</ele>
        <time>2018-05-20T10:09:20Z</time>
      </trkpt>
      <trkpt lat="42.86176803521812" lon="-7.783165974542499">
        <ele>605.29999999999995</ele>
        <time>2018-05-20T10:09:21Z</time>
      </trkpt>
      <trkpt lat="42.86172897554934" lon="-7.783123981207609">
        <ele>605.89999999999998</ele>
        <time>2018-05-20T10:09:23Z</time>
      </trkpt>
      <trkpt lat="42.861688993871212" lon="-7.783099003136158">
        <ele>606.39999999999998</ele>
        <time>2018-05-20T10:09:24Z</time>
      </trkpt>
      <trkpt lat="42.861655969172716" lon="-7.783063966780901">
        <ele>606.89999999999998</ele>
        <time>2018-05-20T10:09:25Z</time>
      </trkpt>
      <trkpt lat="42.861623028293252" lon="-7.783035971224308">
        <ele>607.29999999999995</ele>
        <time>2018-05-20T10:09:26Z</time>
      </trkpt>
      <trkpt lat="42.861581034958363" lon="-7.782990038394928">
        <ele>607.79999999999995</ele>
        <time>2018-05-20T10:09:28Z</time>
      </trkpt>
      <trkpt lat="42.86155303940177" lon="-7.782961037009955">
        <ele>608.10000000000002</ele>
        <time>2018-05-20T10:09:29Z</time>
      </trkpt>
      <trkpt lat="42.861529989168048" lon="-7.782904040068388">
        <ele>608.39999999999998</ele>
        <time>2018-05-20T10:09:30Z</time>
      </trkpt>
      <trkpt lat="42.861496964469552" lon="-7.782834973186255">
        <ele>609.20000000000005</ele>
        <time>2018-05-20T10:09:32Z</time>
      </trkpt>
      <trkpt lat="42.861481960862875" lon="-7.782793985679746">
        <ele>609.5</ele>
        <time>2018-05-20T10:09:33Z</time>
      </trkpt>
      <trkpt lat="42.861467963084579" lon="-7.782741012051702">
        <ele>610</ele>
        <time>2018-05-20T10:09:34Z</time>
      </trkpt>
      <trkpt lat="42.861443990841508" lon="-7.782636992633343">
        <ele>610.79999999999995</ele>
        <time>2018-05-20T10:09:37Z</time>
      </trkpt>
      <trkpt lat="42.861421024426818" lon="-7.782590975984931">
        <ele>611.20000000000005</ele>
        <time>2018-05-20T10:09:38Z</time>
      </trkpt>
      <trkpt lat="42.861389005556703" lon="-7.782550994306803">
        <ele>611.60000000000002</ele>
        <time>2018-05-20T10:09:39Z</time>
      </trkpt>
      <trkpt lat="42.861355980858207" lon="-7.78252299875021">
        <ele>611.89999999999998</ele>
        <time>2018-05-20T10:09:41Z</time>
      </trkpt>
      <trkpt lat="42.861322034150362" lon="-7.782493997365236">
        <ele>612.20000000000005</ele>
        <time>2018-05-20T10:09:42Z</time>
      </trkpt>
      <trkpt lat="42.861205022782087" lon="-7.782354019582272">
        <ele>613.10000000000002</ele>
        <time>2018-05-20T10:09:46Z</time>
      </trkpt>
      <trkpt lat="42.861023973673582" lon="-7.782193003222346">
        <ele>613.89999999999998</ele>
        <time>2018-05-20T10:09:53Z</time>
      </trkpt>
      <trkpt lat="42.860820963978767" lon="-7.78194397687912">
        <ele>615.39999999999998</ele>
        <time>2018-05-20T10:10:01Z</time>
      </trkpt>
      <trkpt lat="42.860596999526024" lon="-7.781700985506177">
        <ele>617.70000000000005</ele>
        <time>2018-05-20T10:10:09Z</time>
      </trkpt>
      <trkpt lat="42.860376974567771" lon="-7.781557990238071">
        <ele>619.29999999999995</ele>
        <time>2018-05-20T10:10:17Z</time>
      </trkpt>
      <trkpt lat="42.860359037294984" lon="-7.781535023823381">
        <ele>619.5</ele>
        <time>2018-05-20T10:10:17Z</time>
      </trkpt>
      <trkpt lat="42.860331041738391" lon="-7.781494958326221">
        <ele>619.79999999999995</ele>
        <time>2018-05-20T10:10:18Z</time>
      </trkpt>
      <trkpt lat="42.860296005383134" lon="-7.781464029103518">
        <ele>620</ele>
        <time>2018-05-20T10:10:20Z</time>
      </trkpt>
      <trkpt lat="42.860199026763439" lon="-7.781453970819712">
        <ele>620</ele>
        <time>2018-05-20T10:10:23Z</time>
      </trkpt>
      <trkpt lat="42.860174970701337" lon="-7.781453970819712">
        <ele>619.89999999999998</ele>
        <time>2018-05-20T10:10:23Z</time>
      </trkpt>
      <trkpt lat="42.860132977366447" lon="-7.781449025496841">
        <ele>619.89999999999998</ele>
        <time>2018-05-20T10:10:25Z</time>
      </trkpt>
      <trkpt lat="42.860096013173461" lon="-7.781442990526557">
        <ele>619.89999999999998</ele>
        <time>2018-05-20T10:10:26Z</time>
      </trkpt>
      <trkpt lat="42.860058965161443" lon="-7.781413989141583">
        <ele>620.10000000000002</ele>
        <time>2018-05-20T10:10:27Z</time>
      </trkpt>
      <trkpt lat="42.860020995140076" lon="-7.78138498775661">
        <ele>620.29999999999995</ele>
        <time>2018-05-20T10:10:28Z</time>
      </trkpt>
      <trkpt lat="42.859998028725386" lon="-7.781334025785327">
        <ele>620.70000000000005</ele>
        <time>2018-05-20T10:10:29Z</time>
      </trkpt>
      <trkpt lat="42.859960980713367" lon="-7.78127602301538">
        <ele>621.20000000000005</ele>
        <time>2018-05-20T10:10:31Z</time>
      </trkpt>
      <trkpt lat="42.859932985156775" lon="-7.781241992488504">
        <ele>621.39999999999998</ele>
        <time>2018-05-20T10:10:32Z</time>
      </trkpt>
      <trkpt lat="42.859899960458279" lon="-7.78121299110353">
        <ele>621.5</ele>
        <time>2018-05-20T10:10:33Z</time>
      </trkpt>
      <trkpt lat="42.859862996265292" lon="-7.781178960576654">
        <ele>621.5</ele>
        <time>2018-05-20T10:10:35Z</time>
      </trkpt>
      <trkpt lat="42.859824020415545" lon="-7.781153982505202">
        <ele>621.60000000000002</ele>
        <time>2018-05-20T10:10:36Z</time>
      </trkpt>
      <trkpt lat="42.859799964353442" lon="-7.781112994998694">
        <ele>621.70000000000005</ele>
        <time>2018-05-20T10:10:37Z</time>
      </trkpt>
      <trkpt lat="42.859771968796849" lon="-7.781066978350282">
        <ele>621.79999999999995</ele>
        <time>2018-05-20T10:10:38Z</time>
      </trkpt>
      <trkpt lat="42.859737016260624" lon="-7.781036971136928">
        <ele>621.89999999999998</ele>
        <time>2018-05-20T10:10:40Z</time>
      </trkpt>
      <trkpt lat="42.85968798212707" lon="-7.780995983630419">
        <ele>622</ele>
        <time>2018-05-20T10:10:41Z</time>
      </trkpt>
      <trkpt lat="42.859569964930415" lon="-7.780796997249126">
        <ele>622.60000000000002</ele>
        <time>2018-05-20T10:10:47Z</time>
      </trkpt>
      <trkpt lat="42.859426969662309" lon="-7.780566997826099">
        <ele>622.89999999999998</ele>
        <time>2018-05-20T10:10:53Z</time>
      </trkpt>
      <trkpt lat="42.859267964959145" lon="-7.780346972867847">
        <ele>623.10000000000002</ele>
        <time>2018-05-20T10:11:00Z</time>
      </trkpt>
      <trkpt lat="42.859112983569503" lon="-7.780133988708258">
        <ele>623.29999999999995</ele>
        <time>2018-05-20T10:11:07Z</time>
      </trkpt>
      <trkpt lat="42.858936963602901" lon="-7.779897032305598">
        <ele>623.5</ele>
        <time>2018-05-20T10:11:14Z</time>
      </trkpt>
      <trkpt lat="42.858822969719768" lon="-7.779765017330647">
        <ele>623.60000000000002</ele>
        <time>2018-05-20T10:11:18Z</time>
      </trkpt>
      <trkpt lat="42.858693972229958" lon="-7.779650017619133">
        <ele>623.60000000000002</ele>
        <time>2018-05-20T10:11:23Z</time>
      </trkpt>
      <trkpt lat="42.858578972518444" lon="-7.779555972665548">
        <ele>623.5</ele>
        <time>2018-05-20T10:11:27Z</time>
      </trkpt>
      <trkpt lat="42.858438994735479" lon="-7.779455976560712">
        <ele>623.5</ele>
        <time>2018-05-20T10:11:32Z</time>
      </trkpt>
      <trkpt lat="42.858317960053682" lon="-7.779352962970734">
        <ele>623.60000000000002</ele>
        <time>2018-05-20T10:11:36Z</time>
      </trkpt>
      <trkpt lat="42.858304968103766" lon="-7.779345000162721">
        <ele>623.60000000000002</ele>
        <time>2018-05-20T10:11:36Z</time>
      </trkpt>
      <trkpt lat="42.858163984492421" lon="-7.779252966865897">
        <ele>623.60000000000002</ele>
        <time>2018-05-20T10:11:41Z</time>
      </trkpt>
      <trkpt lat="42.857986036688089" lon="-7.779166968539357">
        <ele>623.70000000000005</ele>
        <time>2018-05-20T10:11:46Z</time>
      </trkpt>
      <trkpt lat="42.857798030599952" lon="-7.779104020446539">
        <ele>623.89999999999998</ele>
        <time>2018-05-20T10:11:52Z</time>
      </trkpt>
      <trkpt lat="42.857652017846704" lon="-7.779035037383437">
        <ele>624.20000000000005</ele>
        <time>2018-05-20T10:11:57Z</time>
      </trkpt>
      <trkpt lat="42.857551015913486" lon="-7.778923977166414">
        <ele>624.70000000000005</ele>
        <time>2018-05-20T10:12:01Z</time>
      </trkpt>
      <trkpt lat="42.857437022030354" lon="-7.778791962191463">
        <ele>625.20000000000005</ele>
        <time>2018-05-20T10:12:05Z</time>
      </trkpt>
      <trkpt lat="42.857371978461742" lon="-7.778705963864923">
        <ele>625.5</ele>
        <time>2018-05-20T10:12:08Z</time>
      </trkpt>
      <trkpt lat="42.857325039803982" lon="-7.778686014935374">
        <ele>625.60000000000002</ele>
        <time>2018-05-20T10:12:09Z</time>
      </trkpt>
      <trkpt lat="42.857214985415339" lon="-7.778563974425197">
        <ele>625.89999999999998</ele>
        <time>2018-05-20T10:12:13Z</time>
      </trkpt>
      <trkpt lat="42.85708699375391" lon="-7.77848300524056">
        <ele>626</ele>
        <time>2018-05-20T10:12:18Z</time>
      </trkpt>
      <trkpt lat="42.856938969343901" lon="-7.778375968337059">
        <ele>626.39999999999998</ele>
        <time>2018-05-20T10:12:23Z</time>
      </trkpt>
      <trkpt lat="42.856711987406015" lon="-7.778200032189488">
        <ele>627.29999999999995</ele>
        <time>2018-05-20T10:12:30Z</time>
      </trkpt>
      <trkpt lat="42.856510989367962" lon="-7.778061982244253">
        <ele>628</ele>
        <time>2018-05-20T10:12:37Z</time>
      </trkpt>
      <trkpt lat="42.85631200298667" lon="-7.77792401611805">
        <ele>628.89999999999998</ele>
        <time>2018-05-20T10:12:44Z</time>
      </trkpt>
      <trkpt lat="42.856174958869815" lon="-7.777814967557788">
        <ele>629.89999999999998</ele>
        <time>2018-05-20T10:12:48Z</time>
      </trkpt>
      <trkpt lat="42.856161966919899" lon="-7.777799963951111">
        <ele>630</ele>
        <time>2018-05-20T10:12:49Z</time>
      </trkpt>
      <trkpt lat="42.856031963601708" lon="-7.777782026678324">
        <ele>630.39999999999998</ele>
        <time>2018-05-20T10:12:53Z</time>
      </trkpt>
      <trkpt lat="42.856018971651793" lon="-7.777782026678324">
        <ele>630.5</ele>
        <time>2018-05-20T10:12:53Z</time>
      </trkpt>
      <trkpt lat="42.855888968333602" lon="-7.777730980888009">
        <ele>631.10000000000002</ele>
        <time>2018-05-20T10:12:57Z</time>
      </trkpt>
      <trkpt lat="42.855863990262151" lon="-7.777714971452951">
        <ele>631.29999999999995</ele>
        <time>2018-05-20T10:12:58Z</time>
      </trkpt>
      <trkpt lat="42.855747984722257" lon="-7.777685970067978">
        <ele>631.70000000000005</ele>
        <time>2018-05-20T10:13:01Z</time>
      </trkpt>
      <trkpt lat="42.855553021654487" lon="-7.777594020590186">
        <ele>632.70000000000005</ele>
        <time>2018-05-20T10:13:07Z</time>
      </trkpt>
      <trkpt lat="42.855442967265844" lon="-7.777499975636601">
        <ele>633.5</ele>
        <time>2018-05-20T10:13:11Z</time>
      </trkpt>
      <trkpt lat="42.855429975315928" lon="-7.777492012828589">
        <ele>633.5</ele>
        <time>2018-05-20T10:13:12Z</time>
      </trkpt>
      <trkpt lat="42.855363003909588" lon="-7.777445996180177">
        <ele>634</ele>
        <time>2018-05-20T10:13:14Z</time>
      </trkpt>
      <trkpt lat="42.855351017788053" lon="-7.777445996180177">
        <ele>634</ele>
        <time>2018-05-20T10:13:14Z</time>
      </trkpt>
      <trkpt lat="42.855268036946654" lon="-7.777445996180177">
        <ele>634.29999999999995</ele>
        <time>2018-05-20T10:13:17Z</time>
      </trkpt>
      <trkpt lat="42.855254961177707" lon="-7.777445996180177">
        <ele>634.39999999999998</ele>
        <time>2018-05-20T10:13:17Z</time>
      </trkpt>
      <trkpt lat="42.855183966457844" lon="-7.777396040037274">
        <ele>634.79999999999995</ele>
        <time>2018-05-20T10:13:19Z</time>
      </trkpt>
      <trkpt lat="42.855221014469862" lon="-7.7772600017488">
        <ele>635.39999999999998</ele>
        <time>2018-05-20T10:13:23Z</time>
      </trkpt>
      <trkpt lat="42.855225959792733" lon="-7.777205016463995">
        <ele>635.60000000000002</ele>
        <time>2018-05-20T10:13:24Z</time>
      </trkpt>
      <trkpt lat="42.855210034176707" lon="-7.777078030630946">
        <ele>636.29999999999995</ele>
        <time>2018-05-20T10:13:27Z</time>
      </trkpt>
      <trkpt lat="42.855156976729631" lon="-7.776973005384207">
        <ele>636.60000000000002</ele>
        <time>2018-05-20T10:13:29Z</time>
      </trkpt>
      <trkpt lat="42.855095034465194" lon="-7.776792962104082">
        <ele>637.20000000000005</ele>
        <time>2018-05-20T10:13:34Z</time>
      </trkpt>
      <trkpt lat="42.855041977018118" lon="-7.776611996814609">
        <ele>637.60000000000002</ele>
        <time>2018-05-20T10:13:38Z</time>
      </trkpt>
      <trkpt lat="42.854995960369706" lon="-7.776490040123463">
        <ele>637.89999999999998</ele>
        <time>2018-05-20T10:13:41Z</time>
      </trkpt>
      <trkpt lat="42.854914991185069" lon="-7.77627001516521">
        <ele>638.39999999999998</ele>
        <time>2018-05-20T10:13:46Z</time>
      </trkpt>
      <trkpt lat="42.854891018941998" lon="-7.776229027658701">
        <ele>638.39999999999998</ele>
        <time>2018-05-20T10:13:47Z</time>
      </trkpt>
      <trkpt lat="42.854867968708277" lon="-7.776172030717135">
        <ele>638.5</ele>
        <time>2018-05-20T10:13:49Z</time>
      </trkpt>
      <trkpt lat="42.854849025607109" lon="-7.776119979098439">
        <ele>638.5</ele>
        <time>2018-05-20T10:13:50Z</time>
      </trkpt>
      <trkpt lat="42.854825975373387" lon="-7.776073962450028">
        <ele>638.60000000000002</ele>
        <time>2018-05-20T10:13:51Z</time>
      </trkpt>
      <trkpt lat="42.85480703227222" lon="-7.776023000478745">
        <ele>638.60000000000002</ele>
        <time>2018-05-20T10:13:53Z</time>
      </trkpt>
      <trkpt lat="42.854789011180401" lon="-7.775964997708798">
        <ele>638.70000000000005</ele>
        <time>2018-05-20T10:13:54Z</time>
      </trkpt>
      <trkpt lat="42.854769984260201" lon="-7.775908000767231">
        <ele>638.70000000000005</ele>
        <time>2018-05-20T10:13:55Z</time>
      </trkpt>
      <trkpt lat="42.854747017845511" lon="-7.775839017704129">
        <ele>638.79999999999995</ele>
        <time>2018-05-20T10:13:57Z</time>
      </trkpt>
      <trkpt lat="42.854733020067215" lon="-7.775786966085434">
        <ele>638.79999999999995</ele>
        <time>2018-05-20T10:13:58Z</time>
      </trkpt>
      <trkpt lat="42.854691026732326" lon="-7.775700967758894">
        <ele>638.89999999999998</ele>
        <time>2018-05-20T10:14:00Z</time>
      </trkpt>
      <trkpt lat="42.854663031175733" lon="-7.775655034929514">
        <ele>638.89999999999998</ele>
        <time>2018-05-20T10:14:02Z</time>
      </trkpt>
      <trkpt lat="42.85463796928525" lon="-7.775607006624341">
        <ele>638.89999999999998</ele>
        <time>2018-05-20T10:14:03Z</time>
      </trkpt>
      <trkpt lat="42.854619026184082" lon="-7.775560989975929">
        <ele>638.89999999999998</ele>
        <time>2018-05-20T10:14:04Z</time>
      </trkpt>
      <trkpt lat="42.854605028405786" lon="-7.775510028004646">
        <ele>638.89999999999998</ele>
        <time>2018-05-20T10:14:05Z</time>
      </trkpt>
      <trkpt lat="42.854587007313967" lon="-7.775457976385951">
        <ele>639</ele>
        <time>2018-05-20T10:14:06Z</time>
      </trkpt>
      <trkpt lat="42.854563035070896" lon="-7.77541003189981">
        <ele>639</ele>
        <time>2018-05-20T10:14:08Z</time>
      </trkpt>
      <trkpt lat="42.854494974017143" lon="-7.775227976962924">
        <ele>639.29999999999995</ele>
        <time>2018-05-20T10:14:12Z</time>
      </trkpt>
      <trkpt lat="42.854396989569068" lon="-7.77510903775692">
        <ele>639.39999999999998</ele>
        <time>2018-05-20T10:14:16Z</time>
      </trkpt>
      <trkpt lat="42.854282995685935" lon="-7.774884989485145">
        <ele>639.70000000000005</ele>
        <time>2018-05-20T10:14:22Z</time>
      </trkpt>
      <trkpt lat="42.854106975719333" lon="-7.774564968422055">
        <ele>640</ele>
        <time>2018-05-20T10:14:31Z</time>
      </trkpt>
      <trkpt lat="42.854106975719333" lon="-7.774559017270804">
        <ele>640</ele>
        <time>2018-05-20T10:14:31Z</time>
      </trkpt>
      <trkpt lat="42.853988958522677" lon="-7.774314014241099">
        <ele>641.29999999999995</ele>
        <time>2018-05-20T10:14:37Z</time>
      </trkpt>
      <trkpt lat="42.853843029588461" lon="-7.774071022868156">
        <ele>642.39999999999998</ele>
        <time>2018-05-20T10:14:44Z</time>
      </trkpt>
      <trkpt lat="42.853715037927032" lon="-7.773901959881187">
        <ele>643</ele>
        <time>2018-05-20T10:14:49Z</time>
      </trkpt>
      <trkpt lat="42.853615963831544" lon="-7.773753013461828">
        <ele>643.5</ele>
        <time>2018-05-20T10:14:54Z</time>
      </trkpt>
      <trkpt lat="42.853465005755424" lon="-7.773545980453491">
        <ele>644</ele>
        <time>2018-05-20T10:15:00Z</time>
      </trkpt>
      <trkpt lat="42.853409014642239" lon="-7.773515973240137">
        <ele>643.89999999999998</ele>
        <time>2018-05-20T10:15:02Z</time>
      </trkpt>
      <trkpt lat="42.853271970525384" lon="-7.773357974365354">
        <ele>644.20000000000005</ele>
        <time>2018-05-20T10:15:07Z</time>
      </trkpt>
      <trkpt lat="42.853076001629233" lon="-7.773183966055512">
        <ele>644.29999999999995</ele>
        <time>2018-05-20T10:15:14Z</time>
      </trkpt>
      <trkpt lat="42.852924959734082" lon="-7.772982968017459">
        <ele>644.70000000000005</ele>
        <time>2018-05-20T10:15:20Z</time>
      </trkpt>
      <trkpt lat="42.852798979729414" lon="-7.772798985242844">
        <ele>645.89999999999998</ele>
        <time>2018-05-20T10:15:26Z</time>
      </trkpt>
      <trkpt lat="42.852782970294356" lon="-7.772774007171392">
        <ele>646.10000000000002</ele>
        <time>2018-05-20T10:15:26Z</time>
      </trkpt>
      <trkpt lat="42.852760003879666" lon="-7.772727990522981">
        <ele>646.39999999999998</ele>
        <time>2018-05-20T10:15:28Z</time>
      </trkpt>
      <trkpt lat="42.852732008323073" lon="-7.772681973874569">
        <ele>646.70000000000005</ele>
        <time>2018-05-20T10:15:29Z</time>
      </trkpt>
      <trkpt lat="42.85270401276648" lon="-7.772636041045189">
        <ele>647</ele>
        <time>2018-05-20T10:15:30Z</time>
      </trkpt>
      <trkpt lat="42.852680962532759" lon="-7.772584995254874">
        <ele>647.29999999999995</ele>
        <time>2018-05-20T10:15:32Z</time>
      </trkpt>
      <trkpt lat="42.852652966976166" lon="-7.772538978606463">
        <ele>647.60000000000002</ele>
        <time>2018-05-20T10:15:33Z</time>
      </trkpt>
      <trkpt lat="42.852628994733095" lon="-7.772492961958051">
        <ele>647.89999999999998</ele>
        <time>2018-05-20T10:15:34Z</time>
      </trkpt>
      <trkpt lat="42.852606028318405" lon="-7.772440994158387">
        <ele>648.20000000000005</ele>
        <time>2018-05-20T10:15:35Z</time>
      </trkpt>
      <trkpt lat="42.852592030540109" lon="-7.772401012480259">
        <ele>648.39999999999998</ele>
        <time>2018-05-20T10:15:36Z</time>
      </trkpt>
      <trkpt lat="42.852580966427922" lon="-7.772343009710312">
        <ele>648.70000000000005</ele>
        <time>2018-05-20T10:15:38Z</time>
      </trkpt>
      <trkpt lat="42.852566968649626" lon="-7.772291963919997">
        <ele>649</ele>
        <time>2018-05-20T10:15:39Z</time>
      </trkpt>
      <trkpt lat="42.852552970871329" lon="-7.772239996120334">
        <ele>649.20000000000005</ele>
        <time>2018-05-20T10:15:40Z</time>
      </trkpt>
      <trkpt lat="42.852534027770162" lon="-7.772164978086948">
        <ele>649.60000000000002</ele>
        <time>2018-05-20T10:15:42Z</time>
      </trkpt>
      <trkpt lat="42.852530004456639" lon="-7.77210202999413">
        <ele>650</ele>
        <time>2018-05-20T10:15:43Z</time>
      </trkpt>
      <trkpt lat="42.852530004456639" lon="-7.772034974768758">
        <ele>650.29999999999995</ele>
        <time>2018-05-20T10:15:45Z</time>
      </trkpt>
      <trkpt lat="42.852530004456639" lon="-7.77197202667594">
        <ele>650.70000000000005</ele>
        <time>2018-05-20T10:15:46Z</time>
      </trkpt>
      <trkpt lat="42.852530004456639" lon="-7.771902959793806">
        <ele>651</ele>
        <time>2018-05-20T10:15:47Z</time>
      </trkpt>
      <trkpt lat="42.852530004456639" lon="-7.771821990609169">
        <ele>651.39999999999998</ele>
        <time>2018-05-20T10:15:49Z</time>
      </trkpt>
      <trkpt lat="42.852530004456639" lon="-7.771764993667603">
        <ele>651.70000000000005</ele>
        <time>2018-05-20T10:15:50Z</time>
      </trkpt>
      <trkpt lat="42.852530004456639" lon="-7.771696010604501">
        <ele>652.10000000000002</ele>
        <time>2018-05-20T10:15:52Z</time>
      </trkpt>
      <trkpt lat="42.852530004456639" lon="-7.771643958985806">
        <ele>652.39999999999998</ele>
        <time>2018-05-20T10:15:53Z</time>
      </trkpt>
      <trkpt lat="42.852530004456639" lon="-7.771592997014523">
        <ele>652.70000000000005</ele>
        <time>2018-05-20T10:15:54Z</time>
      </trkpt>
      <trkpt lat="42.852538973093033" lon="-7.771541029214859">
        <ele>652.89999999999998</ele>
        <time>2018-05-20T10:15:55Z</time>
      </trkpt>
      <trkpt lat="42.852538973093033" lon="-7.771488977596164">
        <ele>653.20000000000005</ele>
        <time>2018-05-20T10:15:56Z</time>
      </trkpt>
      <trkpt lat="42.852538973093033" lon="-7.77143600396812">
        <ele>653.5</ele>
        <time>2018-05-20T10:15:58Z</time>
      </trkpt>
      <trkpt lat="42.852538973093033" lon="-7.771174991503358">
        <ele>654.89999999999998</ele>
        <time>2018-05-20T10:16:03Z</time>
      </trkpt>
      <trkpt lat="42.852534027770162" lon="-7.770912973210216">
        <ele>656.70000000000005</ele>
        <time>2018-05-20T10:16:09Z</time>
      </trkpt>
      <trkpt lat="42.852530004456639" lon="-7.770565962418914">
        <ele>658.89999999999998</ele>
        <time>2018-05-20T10:16:17Z</time>
      </trkpt>
      <trkpt lat="42.852524975314736" lon="-7.770231021568179">
        <ele>660.79999999999995</ele>
        <time>2018-05-20T10:16:24Z</time>
      </trkpt>
      <trkpt lat="42.852516006678343" lon="-7.770033963024616">
        <ele>661.79999999999995</ele>
        <time>2018-05-20T10:16:28Z</time>
      </trkpt>
      <trkpt lat="42.852506032213569" lon="-7.769971014931798">
        <ele>662.10000000000002</ele>
        <time>2018-05-20T10:16:30Z</time>
      </trkpt>
      <trkpt lat="42.852496979758143" lon="-7.769922986626625">
        <ele>662.39999999999998</ele>
        <time>2018-05-20T10:16:31Z</time>
      </trkpt>
      <trkpt lat="42.852436965331435" lon="-7.769717965275049">
        <ele>663.5</ele>
        <time>2018-05-20T10:16:35Z</time>
      </trkpt>
      <trkpt lat="42.852337975054979" lon="-7.769434992223978">
        <ele>665</ele>
        <time>2018-05-20T10:16:42Z</time>
      </trkpt>
      <trkpt lat="42.8522730153054" lon="-7.76920298114419">
        <ele>666</ele>
        <time>2018-05-20T10:16:48Z</time>
      </trkpt>
      <trkpt lat="42.852203026413918" lon="-7.76896602474153">
        <ele>667</ele>
        <time>2018-05-20T10:16:53Z</time>
      </trkpt>
      <trkpt lat="42.852051984518766" lon="-7.768678022548556">
        <ele>668.20000000000005</ele>
        <time>2018-05-20T10:17:01Z</time>
      </trkpt>
      <trkpt lat="42.851969003677368" lon="-7.768431007862091">
        <ele>669</ele>
        <time>2018-05-20T10:17:07Z</time>
      </trkpt>
      <trkpt lat="42.851880993694067" lon="-7.768124984577298">
        <ele>669.79999999999995</ele>
        <time>2018-05-20T10:17:14Z</time>
      </trkpt>
      <trkpt lat="42.851871019229293" lon="-7.768095983192325">
        <ele>669.89999999999998</ele>
        <time>2018-05-20T10:17:15Z</time>
      </trkpt>
      <trkpt lat="42.851852998137474" lon="-7.768033035099506">
        <ele>670.10000000000002</ele>
        <time>2018-05-20T10:17:16Z</time>
      </trkpt>
      <trkpt lat="42.851833971217275" lon="-7.767973020672798">
        <ele>670.20000000000005</ele>
        <time>2018-05-20T10:17:17Z</time>
      </trkpt>
      <trkpt lat="42.851815028116107" lon="-7.767916023731232">
        <ele>670.39999999999998</ele>
        <time>2018-05-20T10:17:19Z</time>
      </trkpt>
      <trkpt lat="42.851797007024288" lon="-7.767859026789665">
        <ele>670.70000000000005</ele>
        <time>2018-05-20T10:17:20Z</time>
      </trkpt>
      <trkpt lat="42.851787032559514" lon="-7.767801024019718">
        <ele>671</ele>
        <time>2018-05-20T10:17:21Z</time>
      </trkpt>
      <trkpt lat="42.851773034781218" lon="-7.767732040956616">
        <ele>671.39999999999998</ele>
        <time>2018-05-20T10:17:23Z</time>
      </trkpt>
      <trkpt lat="42.851749984547496" lon="-7.76769801042974">
        <ele>671.60000000000002</ele>
        <time>2018-05-20T10:17:24Z</time>
      </trkpt>
      <trkpt lat="42.851725006476045" lon="-7.767644030973315">
        <ele>671.79999999999995</ele>
        <time>2018-05-20T10:17:25Z</time>
      </trkpt>
      <trkpt lat="42.851719977334142" lon="-7.767580999061465">
        <ele>672.20000000000005</ele>
        <time>2018-05-20T10:17:27Z</time>
      </trkpt>
      <trkpt lat="42.851702040061355" lon="-7.767516039311886">
        <ele>672.5</ele>
        <time>2018-05-20T10:17:28Z</time>
      </trkpt>
      <trkpt lat="42.851658035069704" lon="-7.767317974939942">
        <ele>673.60000000000002</ele>
        <time>2018-05-20T10:17:33Z</time>
      </trkpt>
      <trkpt lat="42.851616041734815" lon="-7.767058974131942">
        <ele>675</ele>
        <time>2018-05-20T10:17:39Z</time>
      </trkpt>
      <trkpt lat="42.851545969024301" lon="-7.766698971390724">
        <ele>678.70000000000005</ele>
        <time>2018-05-20T10:17:47Z</time>
      </trkpt>
      <trkpt lat="42.851509004831314" lon="-7.76647299528122">
        <ele>681.10000000000002</ele>
        <time>2018-05-20T10:17:52Z</time>
      </trkpt>
      <trkpt lat="42.851419989019632" lon="-7.766205025836825">
        <ele>683.89999999999998</ele>
        <time>2018-05-20T10:17:58Z</time>
      </trkpt>
      <trkpt lat="42.851328039541841" lon="-7.765834964811802">
        <ele>687.70000000000005</ele>
        <time>2018-05-20T10:18:07Z</time>
      </trkpt>
      <trkpt lat="42.851290991529822" lon="-7.765667997300625">
        <ele>689.39999999999998</ele>
        <time>2018-05-20T10:18:11Z</time>
      </trkpt>
      <trkpt lat="42.851232988759875" lon="-7.765466999262571">
        <ele>691.29999999999995</ele>
        <time>2018-05-20T10:18:15Z</time>
      </trkpt>
      <trkpt lat="42.851167023181915" lon="-7.765287039801478">
        <ele>691.5</ele>
        <time>2018-05-20T10:18:20Z</time>
      </trkpt>
      <trkpt lat="42.851109020411968" lon="-7.76499199680984">
        <ele>692.20000000000005</ele>
        <time>2018-05-20T10:18:26Z</time>
      </trkpt>
      <trkpt lat="42.851018998771906" lon="-7.764642974361777">
        <ele>693</ele>
        <time>2018-05-20T10:18:34Z</time>
      </trkpt>
      <trkpt lat="42.850921014323831" lon="-7.764232009649277">
        <ele>694.70000000000005</ele>
        <time>2018-05-20T10:18:44Z</time>
      </trkpt>
      <trkpt lat="42.850845996290445" lon="-7.763872006908059">
        <ele>696.29999999999995</ele>
        <time>2018-05-20T10:18:52Z</time>
      </trkpt>
      <trkpt lat="42.850739965215325" lon="-7.763608982786536">
        <ele>697.70000000000005</ele>
        <time>2018-05-20T10:18:58Z</time>
      </trkpt>
      <trkpt lat="42.850672993808985" lon="-7.763329027220607">
        <ele>699.79999999999995</ele>
        <time>2018-05-20T10:19:05Z</time>
      </trkpt>
      <trkpt lat="42.850582972168922" lon="-7.763077989220619">
        <ele>702.10000000000002</ele>
        <time>2018-05-20T10:19:11Z</time>
      </trkpt>
      <trkpt lat="42.850507032126188" lon="-7.762847989797592">
        <ele>704.29999999999995</ele>
        <time>2018-05-20T10:19:16Z</time>
      </trkpt>
      <trkpt lat="42.850423967465758" lon="-7.762669958174229">
        <ele>705.79999999999995</ele>
        <time>2018-05-20T10:19:21Z</time>
      </trkpt>
      <trkpt lat="42.850279966369271" lon="-7.762335017323494">
        <ele>708.10000000000002</ele>
        <time>2018-05-20T10:19:29Z</time>
      </trkpt>
      <trkpt lat="42.850165972486138" lon="-7.762022959068418">
        <ele>710.20000000000005</ele>
        <time>2018-05-20T10:19:37Z</time>
      </trkpt>
      <trkpt lat="42.85003898665309" lon="-7.761688018217683">
        <ele>711.79999999999995</ele>
        <time>2018-05-20T10:19:45Z</time>
      </trkpt>
      <trkpt lat="42.849956005811691" lon="-7.761473022401333">
        <ele>713.20000000000005</ele>
        <time>2018-05-20T10:19:50Z</time>
      </trkpt>
      <trkpt lat="42.849879981949925" lon="-7.761160964146256">
        <ele>715.20000000000005</ele>
        <time>2018-05-20T10:19:58Z</time>
      </trkpt>
      <trkpt lat="42.84980496391654" lon="-7.760829040780664">
        <ele>717.39999999999998</ele>
        <time>2018-05-20T10:20:05Z</time>
      </trkpt>
      <trkpt lat="42.849730029702187" lon="-7.760615972802043">
        <ele>719.20000000000005</ele>
        <time>2018-05-20T10:20:10Z</time>
      </trkpt>
      <trkpt lat="42.849662974476814" lon="-7.760424027219415">
        <ele>721</ele>
        <time>2018-05-20T10:20:15Z</time>
      </trkpt>
      <trkpt lat="42.849551998078823" lon="-7.760229986160994">
        <ele>722.10000000000002</ele>
        <time>2018-05-20T10:20:20Z</time>
      </trkpt>
      <trkpt lat="42.849430963397026" lon="-7.760004010051489">
        <ele>723.5</ele>
        <time>2018-05-20T10:20:26Z</time>
      </trkpt>
      <trkpt lat="42.849259972572327" lon="-7.759773004800081">
        <ele>725.89999999999998</ele>
        <time>2018-05-20T10:20:34Z</time>
      </trkpt>
      <trkpt lat="42.849099040031433" lon="-7.759582987055183">
        <ele>728.60000000000002</ele>
        <time>2018-05-20T10:20:40Z</time>
      </trkpt>
      <trkpt lat="42.848929977044463" lon="-7.759392969310284">
        <ele>730.10000000000002</ele>
        <time>2018-05-20T10:20:46Z</time>
      </trkpt>
      <trkpt lat="42.848709030076861" lon="-7.759063979610801">
        <ele>731.5</ele>
        <time>2018-05-20T10:20:56Z</time>
      </trkpt>
      <trkpt lat="42.848509959876537" lon="-7.758772959932685">
        <ele>733.10000000000002</ele>
        <time>2018-05-20T10:21:05Z</time>
      </trkpt>
      <trkpt lat="42.848346009850502" lon="-7.758593000471592">
        <ele>734.20000000000005</ele>
        <time>2018-05-20T10:21:11Z</time>
      </trkpt>
      <trkpt lat="42.848346009850502" lon="-7.758585037663579">
        <ele>734.10000000000002</ele>
        <time>2018-05-20T10:21:11Z</time>
      </trkpt>
      <trkpt lat="42.848174013197422" lon="-7.758300974965096">
        <ele>733.79999999999995</ele>
        <time>2018-05-20T10:21:19Z</time>
      </trkpt>
      <trkpt lat="42.848174013197422" lon="-7.758294017985463">
        <ele>733.70000000000005</ele>
        <time>2018-05-20T10:21:19Z</time>
      </trkpt>
      <trkpt lat="42.848039986565709" lon="-7.758119003847241">
        <ele>733.70000000000005</ele>
        <time>2018-05-20T10:21:25Z</time>
      </trkpt>
      <trkpt lat="42.847887016832829" lon="-7.757886992767453">
        <ele>732.89999999999998</ele>
        <time>2018-05-20T10:21:32Z</time>
      </trkpt>
      <trkpt lat="42.847746033221483" lon="-7.757714996114373">
        <ele>731.89999999999998</ele>
        <time>2018-05-20T10:21:37Z</time>
      </trkpt>
      <trkpt lat="42.847532965242863" lon="-7.75753503665328">
        <ele>731.39999999999998</ele>
        <time>2018-05-20T10:21:45Z</time>
      </trkpt>
      <trkpt lat="42.847312018275261" lon="-7.757377959787846">
        <ele>731.39999999999998</ele>
        <time>2018-05-20T10:21:52Z</time>
      </trkpt>
      <trkpt lat="42.847124012187123" lon="-7.757262960076332">
        <ele>731.60000000000002</ele>
        <time>2018-05-20T10:21:58Z</time>
      </trkpt>
      <trkpt lat="42.846940029412508" lon="-7.757147960364819">
        <ele>731.39999999999998</ele>
        <time>2018-05-20T10:22:04Z</time>
      </trkpt>
      <trkpt lat="42.846914967522025" lon="-7.757136980071664">
        <ele>731.39999999999998</ele>
        <time>2018-05-20T10:22:05Z</time>
      </trkpt>
      <trkpt lat="42.84675202332437" lon="-7.756938999518752">
        <ele>730.79999999999995</ele>
        <time>2018-05-20T10:22:11Z</time>
      </trkpt>
      <trkpt lat="42.846553958952427" lon="-7.756731966510415">
        <ele>730.79999999999995</ele>
        <time>2018-05-20T10:22:19Z</time>
      </trkpt>
      <trkpt lat="42.846422027796507" lon="-7.756571033969522">
        <ele>730.79999999999995</ele>
        <time>2018-05-20T10:22:24Z</time>
      </trkpt>
      <trkpt lat="42.846223041415215" lon="-7.756326030939817">
        <ele>730.79999999999995</ele>
        <time>2018-05-20T10:22:32Z</time>
      </trkpt>
      <trkpt lat="42.846068982034922" lon="-7.756157973781228">
        <ele>730.70000000000005</ele>
        <time>2018-05-20T10:22:38Z</time>
      </trkpt>
      <trkpt lat="42.845910983160138" lon="-7.755803000181913">
        <ele>729.89999999999998</ele>
        <time>2018-05-20T10:22:47Z</time>
      </trkpt>
      <trkpt lat="42.845854992046952" lon="-7.755663022398949">
        <ele>729.60000000000002</ele>
        <time>2018-05-20T10:22:50Z</time>
      </trkpt>
      <trkpt lat="42.845766982063651" lon="-7.755383988842368">
        <ele>729.10000000000002</ele>
        <time>2018-05-20T10:22:57Z</time>
      </trkpt>
      <trkpt lat="42.845658017322421" lon="-7.755031026899815">
        <ele>729.10000000000002</ele>
        <time>2018-05-20T10:23:05Z</time>
      </trkpt>
      <trkpt lat="42.845572018995881" lon="-7.754632970318198">
        <ele>728.70000000000005</ele>
        <time>2018-05-20T10:23:14Z</time>
      </trkpt>
      <trkpt lat="42.845501024276018" lon="-7.754262993112207">
        <ele>728.79999999999995</ele>
        <time>2018-05-20T10:23:22Z</time>
      </trkpt>
      <trkpt lat="42.845493983477354" lon="-7.754262993112207">
        <ele>728.79999999999995</ele>
        <time>2018-05-20T10:23:22Z</time>
      </trkpt>
      <trkpt lat="42.845485014840961" lon="-7.753944983705878">
        <ele>728.5</ele>
        <time>2018-05-20T10:23:29Z</time>
      </trkpt>
      <trkpt lat="42.845475962385535" lon="-7.753696041181684">
        <ele>728.20000000000005</ele>
        <time>2018-05-20T10:23:35Z</time>
      </trkpt>
      <trkpt lat="42.845475962385535" lon="-7.753493031486869">
        <ele>727.39999999999998</ele>
        <time>2018-05-20T10:23:39Z</time>
      </trkpt>
      <trkpt lat="42.845465987920761" lon="-7.753263032063842">
        <ele>726.70000000000005</ele>
        <time>2018-05-20T10:23:44Z</time>
      </trkpt>
      <trkpt lat="42.845459030941129" lon="-7.75306798517704">
        <ele>726.10000000000002</ele>
        <time>2018-05-20T10:23:48Z</time>
      </trkpt>
      <trkpt lat="42.845449978485703" lon="-7.752992967143655">
        <ele>725.89999999999998</ele>
        <time>2018-05-20T10:23:50Z</time>
      </trkpt>
      <trkpt lat="42.845449978485703" lon="-7.752899006009102">
        <ele>725.60000000000002</ele>
        <time>2018-05-20T10:23:52Z</time>
      </trkpt>
      <trkpt lat="42.84544100984931" lon="-7.75285298936069">
        <ele>725.5</ele>
        <time>2018-05-20T10:23:53Z</time>
      </trkpt>
      <trkpt lat="42.845421982929111" lon="-7.752761039882898">
        <ele>725.39999999999998</ele>
        <time>2018-05-20T10:23:55Z</time>
      </trkpt>
      <trkpt lat="42.845403039827943" lon="-7.75268099270761">
        <ele>725.29999999999995</ele>
        <time>2018-05-20T10:23:57Z</time>
      </trkpt>
      <trkpt lat="42.845385018736124" lon="-7.752603963017464">
        <ele>725.10000000000002</ele>
        <time>2018-05-20T10:23:59Z</time>
      </trkpt>
      <trkpt lat="42.845345959067345" lon="-7.752481000497937">
        <ele>725</ele>
        <time>2018-05-20T10:24:02Z</time>
      </trkpt>
      <trkpt lat="42.845316035673022" lon="-7.752284025773406">
        <ele>724.5</ele>
        <time>2018-05-20T10:24:06Z</time>
      </trkpt>
      <trkpt lat="42.845233976840973" lon="-7.752028964459896">
        <ele>724</ele>
        <time>2018-05-20T10:24:12Z</time>
      </trkpt>
      <trkpt lat="42.845163987949491" lon="-7.751774992793798">
        <ele>722.79999999999995</ele>
        <time>2018-05-20T10:24:18Z</time>
      </trkpt>
      <trkpt lat="42.845121994614601" lon="-7.751564020290971">
        <ele>721.79999999999995</ele>
        <time>2018-05-20T10:24:23Z</time>
      </trkpt>
      <trkpt lat="42.845084024593234" lon="-7.751343995332718">
        <ele>720.79999999999995</ele>
        <time>2018-05-20T10:24:28Z</time>
      </trkpt>
      <trkpt lat="42.845004983246326" lon="-7.751077031716704">
        <ele>719.5</ele>
        <time>2018-05-20T10:24:34Z</time>
      </trkpt>
      <trkpt lat="42.8448820207268" lon="-7.750731026753783">
        <ele>718</ele>
        <time>2018-05-20T10:24:42Z</time>
      </trkpt>
      <trkpt lat="42.844783030450344" lon="-7.750396002084017">
        <ele>716.39999999999998</ele>
        <time>2018-05-20T10:24:50Z</time>
      </trkpt>
      <trkpt lat="42.844713963568211" lon="-7.750171031802893">
        <ele>714.60000000000002</ele>
        <time>2018-05-20T10:24:55Z</time>
      </trkpt>
      <trkpt lat="42.844632994383574" lon="-7.74992804042995">
        <ele>712.60000000000002</ele>
        <time>2018-05-20T10:25:01Z</time>
      </trkpt>
      <trkpt lat="42.844549007713795" lon="-7.74962997995317">
        <ele>709.5</ele>
        <time>2018-05-20T10:25:08Z</time>
      </trkpt>
      <trkpt lat="42.844524029642344" lon="-7.749595027416945">
        <ele>709.10000000000002</ele>
        <time>2018-05-20T10:25:09Z</time>
      </trkpt>
      <trkpt lat="42.844434008002281" lon="-7.749421019107103">
        <ele>707.60000000000002</ele>
        <time>2018-05-20T10:25:14Z</time>
      </trkpt>
      <trkpt lat="42.844420010223985" lon="-7.749364022165537">
        <ele>707.20000000000005</ele>
        <time>2018-05-20T10:25:15Z</time>
      </trkpt>
      <trkpt lat="42.844396959990263" lon="-7.749282969161868">
        <ele>706.5</ele>
        <time>2018-05-20T10:25:17Z</time>
      </trkpt>
      <trkpt lat="42.844373993575573" lon="-7.74924298748374">
        <ele>706.20000000000005</ele>
        <time>2018-05-20T10:25:18Z</time>
      </trkpt>
      <trkpt lat="42.844354966655374" lon="-7.749191019684076">
        <ele>705.79999999999995</ele>
        <time>2018-05-20T10:25:20Z</time>
      </trkpt>
      <trkpt lat="42.844340968877077" lon="-7.749138968065381">
        <ele>705.39999999999998</ele>
        <time>2018-05-20T10:25:21Z</time>
      </trkpt>
      <trkpt lat="42.844312973320484" lon="-7.749093035236001">
        <ele>705</ele>
        <time>2018-05-20T10:25:22Z</time>
      </trkpt>
      <trkpt lat="42.844294030219316" lon="-7.749030003324151">
        <ele>704.39999999999998</ele>
        <time>2018-05-20T10:25:24Z</time>
      </trkpt>
      <trkpt lat="42.844290006905794" lon="-7.748961020261049">
        <ele>703.89999999999998</ele>
        <time>2018-05-20T10:25:25Z</time>
      </trkpt>
      <trkpt lat="42.844284977763891" lon="-7.748897988349199">
        <ele>703.39999999999998</ele>
        <time>2018-05-20T10:25:26Z</time>
      </trkpt>
      <trkpt lat="42.84428003244102" lon="-7.748846020549536">
        <ele>703</ele>
        <time>2018-05-20T10:25:28Z</time>
      </trkpt>
      <trkpt lat="42.84428003244102" lon="-7.748793968930841">
        <ele>702.60000000000002</ele>
        <time>2018-05-20T10:25:29Z</time>
      </trkpt>
      <trkpt lat="42.84428003244102" lon="-7.748736971989274">
        <ele>702.20000000000005</ele>
        <time>2018-05-20T10:25:30Z</time>
      </trkpt>
      <trkpt lat="42.84428003244102" lon="-7.748679975047708">
        <ele>702.20000000000005</ele>
        <time>2018-05-20T10:25:31Z</time>
      </trkpt>
      <trkpt lat="42.844290006905794" lon="-7.748628007248044">
        <ele>702.10000000000002</ele>
        <time>2018-05-20T10:25:32Z</time>
      </trkpt>
      <trkpt lat="42.844290006905794" lon="-7.748576039448381">
        <ele>702</ele>
        <time>2018-05-20T10:25:33Z</time>
      </trkpt>
      <trkpt lat="42.844290006905794" lon="-7.748513007536531">
        <ele>701.89999999999998</ele>
        <time>2018-05-20T10:25:35Z</time>
      </trkpt>
      <trkpt lat="42.844298975542188" lon="-7.748461039736867">
        <ele>701.79999999999995</ele>
        <time>2018-05-20T10:25:36Z</time>
      </trkpt>
      <trkpt lat="42.844298975542188" lon="-7.748403958976269">
        <ele>701.79999999999995</ele>
        <time>2018-05-20T10:25:37Z</time>
      </trkpt>
      <trkpt lat="42.844308027997613" lon="-7.748329024761915">
        <ele>701.70000000000005</ele>
        <time>2018-05-20T10:25:39Z</time>
      </trkpt>
      <trkpt lat="42.844312973320484" lon="-7.748260041698813">
        <ele>701.60000000000002</ele>
        <time>2018-05-20T10:25:40Z</time>
      </trkpt>
      <trkpt lat="42.844316996634007" lon="-7.748201033100486">
        <ele>701.5</ele>
        <time>2018-05-20T10:25:42Z</time>
      </trkpt>
      <trkpt lat="42.844316996634007" lon="-7.748131966218352">
        <ele>701.39999999999998</ele>
        <time>2018-05-20T10:25:43Z</time>
      </trkpt>
      <trkpt lat="42.844316996634007" lon="-7.748079998418689">
        <ele>701.29999999999995</ele>
        <time>2018-05-20T10:25:44Z</time>
      </trkpt>
      <trkpt lat="42.84430299885571" lon="-7.748011015355587">
        <ele>701.10000000000002</ele>
        <time>2018-05-20T10:25:46Z</time>
      </trkpt>
      <trkpt lat="42.844294030219316" lon="-7.747937003150582">
        <ele>701</ele>
        <time>2018-05-20T10:25:47Z</time>
      </trkpt>
      <trkpt lat="42.844276009127498" lon="-7.747890986502171">
        <ele>700.79999999999995</ele>
        <time>2018-05-20T10:25:49Z</time>
      </trkpt>
      <trkpt lat="42.844252036884427" lon="-7.747842958196998">
        <ele>700.79999999999995</ele>
        <time>2018-05-20T10:25:50Z</time>
      </trkpt>
      <trkpt lat="42.844228986650705" lon="-7.747802976518869">
        <ele>700.70000000000005</ele>
        <time>2018-05-20T10:25:51Z</time>
      </trkpt>
      <trkpt lat="42.844209959730506" lon="-7.747756959870458">
        <ele>700.70000000000005</ele>
        <time>2018-05-20T10:25:52Z</time>
      </trkpt>
      <trkpt lat="42.844178024679422" lon="-7.747699040919542">
        <ele>700.60000000000002</ele>
        <time>2018-05-20T10:25:54Z</time>
      </trkpt>
      <trkpt lat="42.844152962788939" lon="-7.747649000957608">
        <ele>700.5</ele>
        <time>2018-05-20T10:25:55Z</time>
      </trkpt>
      <trkpt lat="42.844132008031011" lon="-7.747600972652435">
        <ele>700.5</ele>
        <time>2018-05-20T10:25:56Z</time>
      </trkpt>
      <trkpt lat="42.844109041616321" lon="-7.747567025944591">
        <ele>700.39999999999998</ele>
        <time>2018-05-20T10:25:57Z</time>
      </trkpt>
      <trkpt lat="42.844085991382599" lon="-7.747521009296179">
        <ele>700.39999999999998</ele>
        <time>2018-05-20T10:25:58Z</time>
      </trkpt>
      <trkpt lat="42.844057995826006" lon="-7.747472980991006">
        <ele>700.29999999999995</ele>
        <time>2018-05-20T10:26:00Z</time>
      </trkpt>
      <trkpt lat="42.844034023582935" lon="-7.747426964342594">
        <ele>700.20000000000005</ele>
        <time>2018-05-20T10:26:01Z</time>
      </trkpt>
      <trkpt lat="42.844010973349214" lon="-7.747369967401028">
        <ele>700.20000000000005</ele>
        <time>2018-05-20T10:26:02Z</time>
      </trkpt>
      <trkpt lat="42.843988006934524" lon="-7.747317999601364">
        <ele>700.10000000000002</ele>
        <time>2018-05-20T10:26:04Z</time>
      </trkpt>
      <trkpt lat="42.843964034691453" lon="-7.747266031801701">
        <ele>700.10000000000002</ele>
        <time>2018-05-20T10:26:05Z</time>
      </trkpt>
      <trkpt lat="42.843940984457731" lon="-7.747209034860134">
        <ele>700.10000000000002</ele>
        <time>2018-05-20T10:26:06Z</time>
      </trkpt>
      <trkpt lat="42.843922041356564" lon="-7.747146002948284">
        <ele>700.10000000000002</ele>
        <time>2018-05-20T10:26:08Z</time>
      </trkpt>
      <trkpt lat="42.843912988901138" lon="-7.747099986299872">
        <ele>700.10000000000002</ele>
        <time>2018-05-20T10:26:09Z</time>
      </trkpt>
      <trkpt lat="42.843894967809319" lon="-7.747048018500209">
        <ele>700.20000000000005</ele>
        <time>2018-05-20T10:26:10Z</time>
      </trkpt>
      <trkpt lat="42.843880970031023" lon="-7.746995966881514">
        <ele>700.29999999999995</ele>
        <time>2018-05-20T10:26:11Z</time>
      </trkpt>
      <trkpt lat="42.843862026929855" lon="-7.746938969939947">
        <ele>700.29999999999995</ele>
        <time>2018-05-20T10:26:13Z</time>
      </trkpt>
      <trkpt lat="42.843848029151559" lon="-7.746876021847129">
        <ele>700.5</ele>
        <time>2018-05-20T10:26:14Z</time>
      </trkpt>
      <trkpt lat="42.843824978917837" lon="-7.746818019077182">
        <ele>700.5</ele>
        <time>2018-05-20T10:26:16Z</time>
      </trkpt>
      <trkpt lat="42.843806035816669" lon="-7.74677200242877">
        <ele>700.5</ele>
        <time>2018-05-20T10:26:17Z</time>
      </trkpt>
      <trkpt lat="42.843790026381612" lon="-7.746717017143965">
        <ele>700.60000000000002</ele>
        <time>2018-05-20T10:26:18Z</time>
      </trkpt>
      <trkpt lat="42.843775022774935" lon="-7.74666303768754">
        <ele>700.70000000000005</ele>
        <time>2018-05-20T10:26:19Z</time>
      </trkpt>
      <trkpt lat="42.84372297115624" lon="-7.74649003520608">
        <ele>700.79999999999995</ele>
        <time>2018-05-20T10:26:23Z</time>
      </trkpt>
      <trkpt lat="42.843671003356576" lon="-7.7462990116328">
        <ele>701</ele>
        <time>2018-05-20T10:26:28Z</time>
      </trkpt>
      <trkpt lat="42.843613000586629" lon="-7.746115028858185">
        <ele>701</ele>
        <time>2018-05-20T10:26:32Z</time>
      </trkpt>
      <trkpt lat="42.843514010310173" lon="-7.745704986155033">
        <ele>701.39999999999998</ele>
        <time>2018-05-20T10:26:42Z</time>
      </trkpt>
      <trkpt lat="42.843430023640394" lon="-7.745320005342364">
        <ele>701.60000000000002</ele>
        <time>2018-05-20T10:26:50Z</time>
      </trkpt>
      <trkpt lat="42.843396998941898" lon="-7.744997972622514">
        <ele>701.39999999999998</ele>
        <time>2018-05-20T10:26:57Z</time>
      </trkpt>
      <trkpt lat="42.843396998941898" lon="-7.744990009814501">
        <ele>701.39999999999998</ele>
        <time>2018-05-20T10:26:57Z</time>
      </trkpt>
      <trkpt lat="42.843372020870447" lon="-7.744619026780129">
        <ele>701.39999999999998</ele>
        <time>2018-05-20T10:27:06Z</time>
      </trkpt>
      <trkpt lat="42.843372020870447" lon="-7.744610980153084">
        <ele>701.39999999999998</ele>
        <time>2018-05-20T10:27:06Z</time>
      </trkpt>
      <trkpt lat="42.843344025313854" lon="-7.744219964370132">
        <ele>700.70000000000005</ele>
        <time>2018-05-20T10:27:14Z</time>
      </trkpt>
      <trkpt lat="42.843344025313854" lon="-7.74421501904726">
        <ele>700.70000000000005</ele>
        <time>2018-05-20T10:27:14Z</time>
      </trkpt>
      <trkpt lat="42.843316029757261" lon="-7.743733981624246">
        <ele>699.79999999999995</ele>
        <time>2018-05-20T10:27:25Z</time>
      </trkpt>
      <trkpt lat="42.843316029757261" lon="-7.743726018816233">
        <ele>699.79999999999995</ele>
        <time>2018-05-20T10:27:25Z</time>
      </trkpt>
      <trkpt lat="42.843309994786978" lon="-7.743326034396887">
        <ele>699.5</ele>
        <time>2018-05-20T10:27:34Z</time>
      </trkpt>
      <trkpt lat="42.843252997845411" lon="-7.742930995300412">
        <ele>698.79999999999995</ele>
        <time>2018-05-20T10:27:42Z</time>
      </trkpt>
      <trkpt lat="42.843243023380637" lon="-7.742592031136155">
        <ele>698.70000000000005</ele>
        <time>2018-05-20T10:27:50Z</time>
      </trkpt>
      <trkpt lat="42.843243023380637" lon="-7.742585996165872">
        <ele>698.70000000000005</ele>
        <time>2018-05-20T10:27:50Z</time>
      </trkpt>
      <trkpt lat="42.843229025602341" lon="-7.742363959550858">
        <ele>698.60000000000002</ele>
        <time>2018-05-20T10:27:55Z</time>
      </trkpt>
      <trkpt lat="42.843229025602341" lon="-7.742306040599942">
        <ele>698.60000000000002</ele>
        <time>2018-05-20T10:27:56Z</time>
      </trkpt>
      <trkpt lat="42.843215027824044" lon="-7.742236973717809">
        <ele>698.5</ele>
        <time>2018-05-20T10:27:58Z</time>
      </trkpt>
      <trkpt lat="42.843215027824044" lon="-7.742168996483088">
        <ele>698.5</ele>
        <time>2018-05-20T10:27:59Z</time>
      </trkpt>
      <trkpt lat="42.843211004510522" lon="-7.742117028683424">
        <ele>698.5</ele>
        <time>2018-05-20T10:28:00Z</time>
      </trkpt>
      <trkpt lat="42.843197006732225" lon="-7.742047961801291">
        <ele>698.39999999999998</ele>
        <time>2018-05-20T10:28:02Z</time>
      </trkpt>
      <trkpt lat="42.843177979812026" lon="-7.741990964859724">
        <ele>698.39999999999998</ele>
        <time>2018-05-20T10:28:03Z</time>
      </trkpt>
      <trkpt lat="42.843159036710858" lon="-7.741916030645371">
        <ele>698.39999999999998</ele>
        <time>2018-05-20T10:28:05Z</time>
      </trkpt>
      <trkpt lat="42.843145038932562" lon="-7.741852998733521">
        <ele>698.39999999999998</ele>
        <time>2018-05-20T10:28:06Z</time>
      </trkpt>
      <trkpt lat="42.843127017840743" lon="-7.741806982085109">
        <ele>698.29999999999995</ele>
        <time>2018-05-20T10:28:07Z</time>
      </trkpt>
      <trkpt lat="42.843102961778641" lon="-7.741759037598968">
        <ele>698.29999999999995</ele>
        <time>2018-05-20T10:28:09Z</time>
      </trkpt>
      <trkpt lat="42.843085024505854" lon="-7.741713020950556">
        <ele>698.20000000000005</ele>
        <time>2018-05-20T10:28:10Z</time>
      </trkpt>
      <trkpt lat="42.843059962615371" lon="-7.741647977381945">
        <ele>698.20000000000005</ele>
        <time>2018-05-20T10:28:11Z</time>
      </trkpt>
      <trkpt lat="42.843041019514203" lon="-7.741601960733533">
        <ele>698.10000000000002</ele>
        <time>2018-05-20T10:28:13Z</time>
      </trkpt>
      <trkpt lat="42.843021992594004" lon="-7.741556027904153">
        <ele>698.10000000000002</ele>
        <time>2018-05-20T10:28:14Z</time>
      </trkpt>
      <trkpt lat="42.843003971502185" lon="-7.741527026519179">
        <ele>698</ele>
        <time>2018-05-20T10:28:14Z</time>
      </trkpt>
      <trkpt lat="42.842985028401017" lon="-7.741457959637046">
        <ele>698</ele>
        <time>2018-05-20T10:28:16Z</time>
      </trkpt>
      <trkpt lat="42.842961978167295" lon="-7.741395011544228">
        <ele>698</ele>
        <time>2018-05-20T10:28:18Z</time>
      </trkpt>
      <trkpt lat="42.842943035066128" lon="-7.741338014602661">
        <ele>698</ele>
        <time>2018-05-20T10:28:19Z</time>
      </trkpt>
      <trkpt lat="42.842925013974309" lon="-7.741285962983966">
        <ele>698</ele>
        <time>2018-05-20T10:28:20Z</time>
      </trkpt>
      <trkpt lat="42.84288696013391" lon="-7.741209017112851">
        <ele>697.89999999999998</ele>
        <time>2018-05-20T10:28:22Z</time>
      </trkpt>
      <trkpt lat="42.842869022861123" lon="-7.741140034049749">
        <ele>697.79999999999995</ele>
        <time>2018-05-20T10:28:24Z</time>
      </trkpt>
      <trkpt lat="42.842844966799021" lon="-7.741106003522873">
        <ele>697.70000000000005</ele>
        <time>2018-05-20T10:28:25Z</time>
      </trkpt>
      <trkpt lat="42.842827029526234" lon="-7.741030985489488">
        <ele>697.60000000000002</ele>
        <time>2018-05-20T10:28:27Z</time>
      </trkpt>
      <trkpt lat="42.842808002606034" lon="-7.740973988547921">
        <ele>697.5</ele>
        <time>2018-05-20T10:28:28Z</time>
      </trkpt>
      <trkpt lat="42.842794004827738" lon="-7.740896958857775">
        <ele>697.5</ele>
        <time>2018-05-20T10:28:30Z</time>
      </trkpt>
      <trkpt lat="42.842785036191344" lon="-7.740839961916208">
        <ele>697.5</ele>
        <time>2018-05-20T10:28:31Z</time>
      </trkpt>
      <trkpt lat="42.842780007049441" lon="-7.740785982459784">
        <ele>697.5</ele>
        <time>2018-05-20T10:28:32Z</time>
      </trkpt>
      <trkpt lat="42.842771038413048" lon="-7.740710964426398">
        <ele>697.39999999999998</ele>
        <time>2018-05-20T10:28:34Z</time>
      </trkpt>
      <trkpt lat="42.842766009271145" lon="-7.740653967484832">
        <ele>697.39999999999998</ele>
        <time>2018-05-20T10:28:35Z</time>
      </trkpt>
      <trkpt lat="42.842746982350945" lon="-7.740608034655452">
        <ele>697.29999999999995</ele>
        <time>2018-05-20T10:28:36Z</time>
      </trkpt>
      <trkpt lat="42.842742959037423" lon="-7.740545002743602">
        <ele>697.29999999999995</ele>
        <time>2018-05-20T10:28:37Z</time>
      </trkpt>
      <trkpt lat="42.842742959037423" lon="-7.740486999973655">
        <ele>697.29999999999995</ele>
        <time>2018-05-20T10:28:39Z</time>
      </trkpt>
      <trkpt lat="42.842732984572649" lon="-7.740430003032088">
        <ele>697.20000000000005</ele>
        <time>2018-05-20T10:28:40Z</time>
      </trkpt>
      <trkpt lat="42.842732984572649" lon="-7.740376023575664">
        <ele>697.10000000000002</ele>
        <time>2018-05-20T10:28:41Z</time>
      </trkpt>
      <trkpt lat="42.842718986794353" lon="-7.74004502221942">
        <ele>695.79999999999995</ele>
        <time>2018-05-20T10:28:48Z</time>
      </trkpt>
      <trkpt lat="42.842704989016056" lon="-7.739708991721273">
        <ele>694.39999999999998</ele>
        <time>2018-05-20T10:28:56Z</time>
      </trkpt>
      <trkpt lat="42.842676993459463" lon="-7.739318981766701">
        <ele>692.39999999999998</ele>
        <time>2018-05-20T10:29:04Z</time>
      </trkpt>
      <trkpt lat="42.84266802482307" lon="-7.739024022594094">
        <ele>691</ele>
        <time>2018-05-20T10:29:11Z</time>
      </trkpt>
      <trkpt lat="42.842639023438096" lon="-7.738682962954044">
        <ele>689.20000000000005</ele>
        <time>2018-05-20T10:29:18Z</time>
      </trkpt>
      <trkpt lat="42.842603987082839" lon="-7.738405019044876">
        <ele>687.89999999999998</ele>
        <time>2018-05-20T10:29:24Z</time>
      </trkpt>
      <trkpt lat="42.842575991526246" lon="-7.738067982718349">
        <ele>686.60000000000002</ele>
        <time>2018-05-20T10:29:32Z</time>
      </trkpt>
      <trkpt lat="42.842556964606047" lon="-7.737784003838897">
        <ele>686.10000000000002</ele>
        <time>2018-05-20T10:29:38Z</time>
      </trkpt>
      <trkpt lat="42.842533998191357" lon="-7.737546963617206">
        <ele>686</ele>
        <time>2018-05-20T10:29:43Z</time>
      </trkpt>
      <trkpt lat="42.842533998191357" lon="-7.737539000809193">
        <ele>686</ele>
        <time>2018-05-20T10:29:43Z</time>
      </trkpt>
      <trkpt lat="42.842468032613397" lon="-7.737316964194179">
        <ele>685.20000000000005</ele>
        <time>2018-05-20T10:29:48Z</time>
      </trkpt>
      <trkpt lat="42.842344986274838" lon="-7.737044971436262">
        <ele>683.79999999999995</ele>
        <time>2018-05-20T10:29:55Z</time>
      </trkpt>
      <trkpt lat="42.84228396601975" lon="-7.736792005598545">
        <ele>682.70000000000005</ele>
        <time>2018-05-20T10:30:01Z</time>
      </trkpt>
      <trkpt lat="42.842278014868498" lon="-7.736775996163487">
        <ele>682.60000000000002</ele>
        <time>2018-05-20T10:30:01Z</time>
      </trkpt>
      <trkpt lat="42.842212971299887" lon="-7.736564017832279">
        <ele>681.39999999999998</ele>
        <time>2018-05-20T10:30:06Z</time>
      </trkpt>
      <trkpt lat="42.842166032642126" lon="-7.736400989815593">
        <ele>680.5</ele>
        <time>2018-05-20T10:30:10Z</time>
      </trkpt>
      <trkpt lat="42.842162009328604" lon="-7.736371988430619">
        <ele>680.39999999999998</ele>
        <time>2018-05-20T10:30:11Z</time>
      </trkpt>
      <trkpt lat="42.842138037085533" lon="-7.736292025074363">
        <ele>680</ele>
        <time>2018-05-20T10:30:13Z</time>
      </trkpt>
      <trkpt lat="42.842128984630108" lon="-7.736239973455668">
        <ele>679.79999999999995</ele>
        <time>2018-05-20T10:30:14Z</time>
      </trkpt>
      <trkpt lat="42.842100989073515" lon="-7.736095972359181">
        <ele>679.5</ele>
        <time>2018-05-20T10:30:17Z</time>
      </trkpt>
      <trkpt lat="42.842095959931612" lon="-7.736038975417614">
        <ele>679.5</ele>
        <time>2018-05-20T10:30:18Z</time>
      </trkpt>
      <trkpt lat="42.842092020437121" lon="-7.735969992354512">
        <ele>679.5</ele>
        <time>2018-05-20T10:30:20Z</time>
      </trkpt>
      <trkpt lat="42.842067964375019" lon="-7.735911989584565">
        <ele>679.20000000000005</ele>
        <time>2018-05-20T10:30:21Z</time>
      </trkpt>
      <trkpt lat="42.842050027102232" lon="-7.735865972936153">
        <ele>679.10000000000002</ele>
        <time>2018-05-20T10:30:23Z</time>
      </trkpt>
      <trkpt lat="42.842022031545639" lon="-7.735796989873052">
        <ele>678.79999999999995</ele>
        <time>2018-05-20T10:30:24Z</time>
      </trkpt>
      <trkpt lat="42.84200300462544" lon="-7.735751979053021">
        <ele>678.70000000000005</ele>
        <time>2018-05-20T10:30:25Z</time>
      </trkpt>
      <trkpt lat="42.841989006847143" lon="-7.735653994604945">
        <ele>678.70000000000005</ele>
        <time>2018-05-20T10:30:28Z</time>
      </trkpt>
      <trkpt lat="42.84198003821075" lon="-7.735595991834998">
        <ele>678.60000000000002</ele>
        <time>2018-05-20T10:30:29Z</time>
      </trkpt>
      <trkpt lat="42.84198003821075" lon="-7.735545029863715">
        <ele>678.70000000000005</ele>
        <time>2018-05-20T10:30:30Z</time>
      </trkpt>
      <trkpt lat="42.84198003821075" lon="-7.735487027093768">
        <ele>678.79999999999995</ele>
        <time>2018-05-20T10:30:31Z</time>
      </trkpt>
      <trkpt lat="42.84198397770524" lon="-7.735426006838679">
        <ele>678.89999999999998</ele>
        <time>2018-05-20T10:30:32Z</time>
      </trkpt>
      <trkpt lat="42.84198397770524" lon="-7.735369009897113">
        <ele>679.10000000000002</ele>
        <time>2018-05-20T10:30:34Z</time>
      </trkpt>
      <trkpt lat="42.841989006847143" lon="-7.735304972156882">
        <ele>679.39999999999998</ele>
        <time>2018-05-20T10:30:35Z</time>
      </trkpt>
      <trkpt lat="42.841994035989046" lon="-7.735254010185599">
        <ele>679.60000000000002</ele>
        <time>2018-05-20T10:30:36Z</time>
      </trkpt>
      <trkpt lat="42.842008033767343" lon="-7.735200030729175">
        <ele>680</ele>
        <time>2018-05-20T10:30:37Z</time>
      </trkpt>
      <trkpt lat="42.842031000182033" lon="-7.735136998817325">
        <ele>680.5</ele>
        <time>2018-05-20T10:30:39Z</time>
      </trkpt>
      <trkpt lat="42.842044997960329" lon="-7.735097017139196">
        <ele>680.79999999999995</ele>
        <time>2018-05-20T10:30:40Z</time>
      </trkpt>
      <trkpt lat="42.842067964375019" lon="-7.735054017975926">
        <ele>681.10000000000002</ele>
        <time>2018-05-20T10:30:41Z</time>
      </trkpt>
      <trkpt lat="42.842092020437121" lon="-7.735008001327515">
        <ele>681.60000000000002</ele>
        <time>2018-05-20T10:30:42Z</time>
      </trkpt>
      <trkpt lat="42.842114986851811" lon="-7.734951004385948">
        <ele>682.10000000000002</ele>
        <time>2018-05-20T10:30:44Z</time>
      </trkpt>
      <trkpt lat="42.842138037085533" lon="-7.734904987737536">
        <ele>682.5</ele>
        <time>2018-05-20T10:30:45Z</time>
      </trkpt>
      <trkpt lat="42.84215203486383" lon="-7.734856959432364">
        <ele>682.89999999999998</ele>
        <time>2018-05-20T10:30:46Z</time>
      </trkpt>
      <trkpt lat="42.8421760071069" lon="-7.734811026602984">
        <ele>683.29999999999995</ele>
        <time>2018-05-20T10:30:47Z</time>
      </trkpt>
      <trkpt lat="42.842204002663493" lon="-7.734758974984288">
        <ele>683.79999999999995</ele>
        <time>2018-05-20T10:30:49Z</time>
      </trkpt>
      <trkpt lat="42.84223803319037" lon="-7.734706001356244">
        <ele>684.29999999999995</ele>
        <time>2018-05-20T10:30:50Z</time>
      </trkpt>
      <trkpt lat="42.842252030968666" lon="-7.734642969444394">
        <ele>684.70000000000005</ele>
        <time>2018-05-20T10:30:52Z</time>
      </trkpt>
      <trkpt lat="42.842277009040117" lon="-7.734620003029704">
        <ele>685</ele>
        <time>2018-05-20T10:30:53Z</time>
      </trkpt>
      <trkpt lat="42.842313973233104" lon="-7.734583038836718">
        <ele>685.5</ele>
        <time>2018-05-20T10:30:54Z</time>
      </trkpt>
      <trkpt lat="42.8423469979316" lon="-7.734549008309841">
        <ele>685.89999999999998</ele>
        <time>2018-05-20T10:30:55Z</time>
      </trkpt>
      <trkpt lat="42.84236996434629" lon="-7.734508020803332">
        <ele>686.10000000000002</ele>
        <time>2018-05-20T10:30:56Z</time>
      </trkpt>
      <trkpt lat="42.842388991266489" lon="-7.734463009983301">
        <ele>686.29999999999995</ele>
        <time>2018-05-20T10:30:57Z</time>
      </trkpt>
      <trkpt lat="42.842388991266489" lon="-7.734407018870115">
        <ele>686.29999999999995</ele>
        <time>2018-05-20T10:30:59Z</time>
      </trkpt>
      <trkpt lat="42.842388991266489" lon="-7.73435496725142">
        <ele>686.29999999999995</ele>
        <time>2018-05-20T10:31:00Z</time>
      </trkpt>
      <trkpt lat="42.842336017638445" lon="-7.734224963933229">
        <ele>685.89999999999998</ele>
        <time>2018-05-20T10:31:03Z</time>
      </trkpt>
      <trkpt lat="42.842224035412073" lon="-7.734062019735575">
        <ele>685.20000000000005</ele>
        <time>2018-05-20T10:31:08Z</time>
      </trkpt>
      <trkpt lat="42.842121021822095" lon="-7.733854986727238">
        <ele>685</ele>
        <time>2018-05-20T10:31:13Z</time>
      </trkpt>
      <trkpt lat="42.842037035152316" lon="-7.733715008944273">
        <ele>684.70000000000005</ele>
        <time>2018-05-20T10:31:17Z</time>
      </trkpt>
      <trkpt lat="42.842017002403736" lon="-7.73370897397399">
        <ele>684.60000000000002</ele>
        <time>2018-05-20T10:31:18Z</time>
      </trkpt>
      <trkpt lat="42.841979032382369" lon="-7.733715008944273">
        <ele>684.29999999999995</ele>
        <time>2018-05-20T10:31:19Z</time>
      </trkpt>
      <trkpt lat="42.841934021562338" lon="-7.733722971752286">
        <ele>683.89999999999998</ele>
        <time>2018-05-20T10:31:20Z</time>
      </trkpt>
      <trkpt lat="42.841908959671855" lon="-7.733746021986008">
        <ele>683.60000000000002</ele>
        <time>2018-05-20T10:31:21Z</time>
      </trkpt>
      <trkpt lat="42.841879036277533" lon="-7.733764965087175">
        <ele>683.20000000000005</ele>
        <time>2018-05-20T10:31:22Z</time>
      </trkpt>
      <trkpt lat="42.841859003528953" lon="-7.733806958422065">
        <ele>683</ele>
        <time>2018-05-20T10:31:23Z</time>
      </trkpt>
      <trkpt lat="42.841839976608753" lon="-7.733863033354282">
        <ele>682.60000000000002</ele>
        <time>2018-05-20T10:31:25Z</time>
      </trkpt>
      <trkpt lat="42.841796977445483" lon="-7.733910977840424">
        <ele>682.10000000000002</ele>
        <time>2018-05-20T10:31:26Z</time>
      </trkpt>
      <trkpt lat="42.841709973290563" lon="-7.734032012522221">
        <ele>681</ele>
        <time>2018-05-20T10:31:30Z</time>
      </trkpt>
      <trkpt lat="42.841678038239479" lon="-7.73413896560669">
        <ele>680.39999999999998</ele>
        <time>2018-05-20T10:31:33Z</time>
      </trkpt>
      <trkpt lat="42.841664040461183" lon="-7.734326971694827">
        <ele>679.70000000000005</ele>
        <time>2018-05-20T10:31:37Z</time>
      </trkpt>
      <trkpt lat="42.841609977185726" lon="-7.734497962519527">
        <ele>678.70000000000005</ele>
        <time>2018-05-20T10:31:41Z</time>
      </trkpt>
      <trkpt lat="42.841609977185726" lon="-7.73450399748981">
        <ele>678.70000000000005</ele>
        <time>2018-05-20T10:31:41Z</time>
      </trkpt>
      <trkpt lat="42.841601008549333" lon="-7.734560994431377">
        <ele>678.39999999999998</ele>
        <time>2018-05-20T10:31:42Z</time>
      </trkpt>
      <trkpt lat="42.841587010771036" lon="-7.734618997201324">
        <ele>678.10000000000002</ele>
        <time>2018-05-20T10:31:43Z</time>
      </trkpt>
      <trkpt lat="42.84157301299274" lon="-7.734665013849735">
        <ele>677.70000000000005</ele>
        <time>2018-05-20T10:31:44Z</time>
      </trkpt>
      <trkpt lat="42.84155398607254" lon="-7.734707007184625">
        <ele>677.39999999999998</ele>
        <time>2018-05-20T10:31:46Z</time>
      </trkpt>
      <trkpt lat="42.841526996344328" lon="-7.734729973599315">
        <ele>677</ele>
        <time>2018-05-20T10:31:46Z</time>
      </trkpt>
      <trkpt lat="42.841490032151341" lon="-7.734724022448063">
        <ele>676.70000000000005</ele>
        <time>2018-05-20T10:31:48Z</time>
      </trkpt>
      <trkpt lat="42.841452984139323" lon="-7.734700972214341">
        <ele>676.39999999999998</ele>
        <time>2018-05-20T10:31:49Z</time>
      </trkpt>
      <trkpt lat="42.841416019946337" lon="-7.734684040769935">
        <ele>676.10000000000002</ele>
        <time>2018-05-20T10:31:50Z</time>
      </trkpt>
      <trkpt lat="42.841366985812783" lon="-7.734671970829368">
        <ele>675.70000000000005</ele>
        <time>2018-05-20T10:31:51Z</time>
      </trkpt>
      <trkpt lat="42.84133899025619" lon="-7.734631989151239">
        <ele>675.60000000000002</ele>
        <time>2018-05-20T10:31:53Z</time>
      </trkpt>
      <trkpt lat="42.841303031891584" lon="-7.734611034393311">
        <ele>675.39999999999998</ele>
        <time>2018-05-20T10:31:54Z</time>
      </trkpt>
      <trkpt lat="42.841265983879566" lon="-7.734587984159589">
        <ele>675.10000000000002</ele>
        <time>2018-05-20T10:31:55Z</time>
      </trkpt>
      <trkpt lat="42.841223990544677" lon="-7.734558982774615">
        <ele>674.79999999999995</ele>
        <time>2018-05-20T10:31:56Z</time>
      </trkpt>
      <trkpt lat="42.841173028573394" lon="-7.734508020803332">
        <ele>674.39999999999998</ele>
        <time>2018-05-20T10:31:58Z</time>
      </trkpt>
      <trkpt lat="42.841145033016801" lon="-7.734467033296824">
        <ele>674.20000000000005</ele>
        <time>2018-05-20T10:31:59Z</time>
      </trkpt>
      <trkpt lat="42.841112008318305" lon="-7.734433002769947">
        <ele>674</ele>
        <time>2018-05-20T10:32:01Z</time>
      </trkpt>
      <trkpt lat="42.841084012761712" lon="-7.734381034970284">
        <ele>673.89999999999998</ele>
        <time>2018-05-20T10:32:02Z</time>
      </trkpt>
      <trkpt lat="42.841046964749694" lon="-7.734335018321872">
        <ele>673.70000000000005</ele>
        <time>2018-05-20T10:32:04Z</time>
      </trkpt>
      <trkpt lat="42.841018969193101" lon="-7.734300987794995">
        <ele>673.5</ele>
        <time>2018-05-20T10:32:05Z</time>
      </trkpt>
      <trkpt lat="42.840986028313637" lon="-7.734254971146584">
        <ele>673.39999999999998</ele>
        <time>2018-05-20T10:32:06Z</time>
      </trkpt>
      <trkpt lat="42.840958032757044" lon="-7.734214989468455">
        <ele>673.29999999999995</ele>
        <time>2018-05-20T10:32:07Z</time>
      </trkpt>
      <trkpt lat="42.840910004451871" lon="-7.734137959778309">
        <ele>673.20000000000005</ele>
        <time>2018-05-20T10:32:10Z</time>
      </trkpt>
      <trkpt lat="42.840873040258884" lon="-7.734108958393335">
        <ele>673</ele>
        <time>2018-05-20T10:32:11Z</time>
      </trkpt>
      <trkpt lat="42.840840015560389" lon="-7.734080962836742">
        <ele>672.79999999999995</ele>
        <time>2018-05-20T10:32:12Z</time>
      </trkpt>
      <trkpt lat="42.840803973376751" lon="-7.734063025563955">
        <ele>672.5</ele>
        <time>2018-05-20T10:32:13Z</time>
      </trkpt>
      <trkpt lat="42.840775977820158" lon="-7.734039975330234">
        <ele>672.39999999999998</ele>
        <time>2018-05-20T10:32:14Z</time>
      </trkpt>
      <trkpt lat="42.840743958950043" lon="-7.733999993652105">
        <ele>672.29999999999995</ele>
        <time>2018-05-20T10:32:15Z</time>
      </trkpt>
      <trkpt lat="42.840718980878592" lon="-7.733950037509203">
        <ele>672.39999999999998</ele>
        <time>2018-05-20T10:32:17Z</time>
      </trkpt>
      <trkpt lat="42.840695008635521" lon="-7.733916006982327">
        <ele>672.29999999999995</ele>
        <time>2018-05-20T10:32:18Z</time>
      </trkpt>
      <trkpt lat="42.840671958401799" lon="-7.733876025304198">
        <ele>672.39999999999998</ele>
        <time>2018-05-20T10:32:19Z</time>
      </trkpt>
      <trkpt lat="42.840643962845206" lon="-7.733835037797689">
        <ele>672.39999999999998</ele>
        <time>2018-05-20T10:32:20Z</time>
      </trkpt>
      <trkpt lat="42.840610016137362" lon="-7.733781980350614">
        <ele>672.39999999999998</ele>
        <time>2018-05-20T10:32:21Z</time>
      </trkpt>
      <trkpt lat="42.84058503806591" lon="-7.733743004500866">
        <ele>672.5</ele>
        <time>2018-05-20T10:32:23Z</time>
      </trkpt>
      <trkpt lat="42.840552013367414" lon="-7.733714003115892">
        <ele>672.39999999999998</ele>
        <time>2018-05-20T10:32:24Z</time>
      </trkpt>
      <trkpt lat="42.840519994497299" lon="-7.733646025881171">
        <ele>672.70000000000005</ele>
        <time>2018-05-20T10:32:26Z</time>
      </trkpt>
      <trkpt lat="42.840484958142042" lon="-7.733586011454463">
        <ele>672.89999999999998</ele>
        <time>2018-05-20T10:32:27Z</time>
      </trkpt>
      <trkpt lat="42.840461991727352" lon="-7.733551980927587">
        <ele>673</ele>
        <time>2018-05-20T10:32:28Z</time>
      </trkpt>
      <trkpt lat="42.840437013655901" lon="-7.733522979542613">
        <ele>673.10000000000002</ele>
        <time>2018-05-20T10:32:29Z</time>
      </trkpt>
      <trkpt lat="42.840409018099308" lon="-7.733476962894201">
        <ele>673.29999999999995</ele>
        <time>2018-05-20T10:32:30Z</time>
      </trkpt>
      <trkpt lat="42.840367024764419" lon="-7.733402028679848">
        <ele>673.70000000000005</ele>
        <time>2018-05-20T10:32:33Z</time>
      </trkpt>
      <trkpt lat="42.8403299767524" lon="-7.733367998152971">
        <ele>673.79999999999995</ele>
        <time>2018-05-20T10:32:34Z</time>
      </trkpt>
      <trkpt lat="42.840301981195807" lon="-7.733332961797714">
        <ele>674</ele>
        <time>2018-05-20T10:32:35Z</time>
      </trkpt>
      <trkpt lat="42.840269040316343" lon="-7.733287028968334">
        <ele>674.20000000000005</ele>
        <time>2018-05-20T10:32:36Z</time>
      </trkpt>
      <trkpt lat="42.840237021446228" lon="-7.733230032026768">
        <ele>674.5</ele>
        <time>2018-05-20T10:32:38Z</time>
      </trkpt>
      <trkpt lat="42.840205002576113" lon="-7.733148979023099">
        <ele>675</ele>
        <time>2018-05-20T10:32:40Z</time>
      </trkpt>
      <trkpt lat="42.840186981484294" lon="-7.733098017051816">
        <ele>675.39999999999998</ele>
        <time>2018-05-20T10:32:41Z</time>
      </trkpt>
      <trkpt lat="42.840158985927701" lon="-7.733052000403404">
        <ele>675.60000000000002</ele>
        <time>2018-05-20T10:32:42Z</time>
      </trkpt>
      <trkpt lat="42.84013501368463" lon="-7.732993997633457">
        <ele>676</ele>
        <time>2018-05-20T10:32:44Z</time>
      </trkpt>
      <trkpt lat="42.840111963450909" lon="-7.732937000691891">
        <ele>676.39999999999998</ele>
        <time>2018-05-20T10:32:45Z</time>
      </trkpt>
      <trkpt lat="42.840083967894316" lon="-7.732878997921944">
        <ele>676.70000000000005</ele>
        <time>2018-05-20T10:32:47Z</time>
      </trkpt>
      <trkpt lat="42.840053038671613" lon="-7.732837004587054">
        <ele>676.89999999999998</ele>
        <time>2018-05-20T10:32:48Z</time>
      </trkpt>
      <trkpt lat="42.840024959295988" lon="-7.732802974060178">
        <ele>677.10000000000002</ele>
        <time>2018-05-20T10:32:49Z</time>
      </trkpt>
      <trkpt lat="42.839989000931382" lon="-7.732732985168695">
        <ele>677.5</ele>
        <time>2018-05-20T10:32:51Z</time>
      </trkpt>
      <trkpt lat="42.839961005374789" lon="-7.732682023197413">
        <ele>677.79999999999995</ele>
        <time>2018-05-20T10:32:52Z</time>
      </trkpt>
      <trkpt lat="42.839938038960099" lon="-7.732642041519284">
        <ele>678.10000000000002</ele>
        <time>2018-05-20T10:32:54Z</time>
      </trkpt>
      <trkpt lat="42.839927980676293" lon="-7.732572974637151">
        <ele>678.60000000000002</ele>
        <time>2018-05-20T10:32:55Z</time>
      </trkpt>
      <trkpt lat="42.839913982897997" lon="-7.732527041807771">
        <ele>679</ele>
        <time>2018-05-20T10:32:56Z</time>
      </trkpt>
      <trkpt lat="42.839895961806178" lon="-7.732474990189076">
        <ele>679.29999999999995</ele>
        <time>2018-05-20T10:32:57Z</time>
      </trkpt>
      <trkpt lat="42.839871989563107" lon="-7.732423022389412">
        <ele>679.70000000000005</ele>
        <time>2018-05-20T10:32:59Z</time>
      </trkpt>
      <trkpt lat="42.83983301371336" lon="-7.732366025447846">
        <ele>680.10000000000002</ele>
        <time>2018-05-20T10:33:00Z</time>
      </trkpt>
      <trkpt lat="42.839694963768125" lon="-7.73220500908792">
        <ele>681.10000000000002</ele>
        <time>2018-05-20T10:33:06Z</time>
      </trkpt>
      <trkpt lat="42.839568983763456" lon="-7.732023037970066">
        <ele>682.29999999999995</ele>
        <time>2018-05-20T10:33:11Z</time>
      </trkpt>
      <trkpt lat="42.839461024850607" lon="-7.731891022995114">
        <ele>682.29999999999995</ele>
        <time>2018-05-20T10:33:16Z</time>
      </trkpt>
      <trkpt lat="42.83927503041923" lon="-7.731747021898627">
        <ele>682.10000000000002</ele>
        <time>2018-05-20T10:33:22Z</time>
      </trkpt>
      <trkpt lat="42.83899599686265" lon="-7.731457008048892">
        <ele>682.60000000000002</ele>
        <time>2018-05-20T10:33:32Z</time>
      </trkpt>
      <trkpt lat="42.838786030188203" lon="-7.731252992525697">
        <ele>683.10000000000002</ele>
        <time>2018-05-20T10:33:40Z</time>
      </trkpt>
      <trkpt lat="42.838595006614923" lon="-7.731029028072953">
        <ele>683.39999999999998</ele>
        <time>2018-05-20T10:33:47Z</time>
      </trkpt>
      <trkpt lat="42.838442036882043" lon="-7.730789976194501">
        <ele>683.89999999999998</ele>
        <time>2018-05-20T10:33:54Z</time>
      </trkpt>
      <trkpt lat="42.838329970836639" lon="-7.730524018406868">
        <ele>684.79999999999995</ele>
        <time>2018-05-20T10:34:01Z</time>
      </trkpt>
      <trkpt lat="42.838210025802255" lon="-7.730275997892022">
        <ele>685.29999999999995</ele>
        <time>2018-05-20T10:34:07Z</time>
      </trkpt>
      <trkpt lat="42.838125033304095" lon="-7.730081034824252">
        <ele>685.5</ele>
        <time>2018-05-20T10:34:12Z</time>
      </trkpt>
      <trkpt lat="42.838106006383896" lon="-7.73003501817584">
        <ele>685.5</ele>
        <time>2018-05-20T10:34:13Z</time>
      </trkpt>
      <trkpt lat="42.838086979463696" lon="-7.729977015405893">
        <ele>685.60000000000002</ele>
        <time>2018-05-20T10:34:15Z</time>
      </trkpt>
      <trkpt lat="42.838064013049006" lon="-7.72988498210907">
        <ele>685.79999999999995</ele>
        <time>2018-05-20T10:34:17Z</time>
      </trkpt>
      <trkpt lat="42.83805001527071" lon="-7.729834020137787">
        <ele>685.89999999999998</ele>
        <time>2018-05-20T10:34:18Z</time>
      </trkpt>
      <trkpt lat="42.838040962815285" lon="-7.72977601736784">
        <ele>686.10000000000002</ele>
        <time>2018-05-20T10:34:19Z</time>
      </trkpt>
      <trkpt lat="42.838040962815285" lon="-7.729719020426273">
        <ele>686.29999999999995</ele>
        <time>2018-05-20T10:34:21Z</time>
      </trkpt>
      <trkpt lat="42.838040962815285" lon="-7.729650037363172">
        <ele>686.5</ele>
        <time>2018-05-20T10:34:22Z</time>
      </trkpt>
      <trkpt lat="42.838040962815285" lon="-7.729597985744476">
        <ele>686.70000000000005</ele>
        <time>2018-05-20T10:34:23Z</time>
      </trkpt>
      <trkpt lat="42.838044986128807" lon="-7.729547023773193">
        <ele>686.70000000000005</ele>
        <time>2018-05-20T10:34:24Z</time>
      </trkpt>
      <trkpt lat="42.838036017492414" lon="-7.729489021003246">
        <ele>686.70000000000005</ele>
        <time>2018-05-20T10:34:26Z</time>
      </trkpt>
      <trkpt lat="42.838016990572214" lon="-7.72943202406168">
        <ele>686.5</ele>
        <time>2018-05-20T10:34:27Z</time>
      </trkpt>
      <trkpt lat="42.837984971702099" lon="-7.729350971058011">
        <ele>686.20000000000005</ele>
        <time>2018-05-20T10:34:29Z</time>
      </trkpt>
      <trkpt lat="42.837966028600931" lon="-7.729305038228631">
        <ele>686</ele>
        <time>2018-05-20T10:34:30Z</time>
      </trkpt>
      <trkpt lat="42.837945995852351" lon="-7.729244017973542">
        <ele>685.79999999999995</ele>
        <time>2018-05-20T10:34:32Z</time>
      </trkpt>
      <trkpt lat="42.837776010856032" lon="-7.728760968893766">
        <ele>683.79999999999995</ele>
        <time>2018-05-20T10:34:43Z</time>
      </trkpt>
      <trkpt lat="42.837605020031333" lon="-7.728319996967912">
        <ele>682.39999999999998</ele>
        <time>2018-05-20T10:34:54Z</time>
      </trkpt>
      <trkpt lat="42.837442997843027" lon="-7.727829990908504">
        <ele>681.10000000000002</ele>
        <time>2018-05-20T10:35:06Z</time>
      </trkpt>
      <trkpt lat="42.837293967604637" lon="-7.727402010932565">
        <ele>680.39999999999998</ele>
        <time>2018-05-20T10:35:16Z</time>
      </trkpt>
      <trkpt lat="42.83716999925673" lon="-7.726966990157962">
        <ele>679.79999999999995</ele>
        <time>2018-05-20T10:35:26Z</time>
      </trkpt>
      <trkpt lat="42.836993979290128" lon="-7.726487964391708">
        <ele>679</ele>
        <time>2018-05-20T10:35:38Z</time>
      </trkpt>
      <trkpt lat="42.836843021214008" lon="-7.726023020222783">
        <ele>678.60000000000002</ele>
        <time>2018-05-20T10:35:49Z</time>
      </trkpt>
      <trkpt lat="42.836694996803999" lon="-7.72552102804184">
        <ele>678.5</ele>
        <time>2018-05-20T10:36:01Z</time>
      </trkpt>
      <trkpt lat="42.836548984050751" lon="-7.725139986723661">
        <ele>678.60000000000002</ele>
        <time>2018-05-20T10:36:10Z</time>
      </trkpt>
      <trkpt lat="42.836548984050751" lon="-7.725132023915649">
        <ele>678.70000000000005</ele>
        <time>2018-05-20T10:36:10Z</time>
      </trkpt>
      <trkpt lat="42.836463991552591" lon="-7.724821977317333">
        <ele>679.39999999999998</ele>
        <time>2018-05-20T10:36:17Z</time>
      </trkpt>
      <trkpt lat="42.836341029033065" lon="-7.724434984847903">
        <ele>680.10000000000002</ele>
        <time>2018-05-20T10:36:26Z</time>
      </trkpt>
      <trkpt lat="42.836114969104528" lon="-7.723768958821893">
        <ele>679.70000000000005</ele>
        <time>2018-05-20T10:36:42Z</time>
      </trkpt>
      <trkpt lat="42.835969040170312" lon="-7.723253974691033">
        <ele>679.10000000000002</ele>
        <time>2018-05-20T10:36:54Z</time>
      </trkpt>
      <trkpt lat="42.835845993831754" lon="-7.722839992493391">
        <ele>679.39999999999998</ele>
        <time>2018-05-20T10:37:04Z</time>
      </trkpt>
      <trkpt lat="42.835745997726917" lon="-7.722497005015612">
        <ele>679.79999999999995</ele>
        <time>2018-05-20T10:37:12Z</time>
      </trkpt>
      <trkpt lat="42.835739040747285" lon="-7.722497005015612">
        <ele>679.89999999999998</ele>
        <time>2018-05-20T10:37:12Z</time>
      </trkpt>
      <trkpt lat="42.835701992735267" lon="-7.722402960062027">
        <ele>680.20000000000005</ele>
        <time>2018-05-20T10:37:15Z</time>
      </trkpt>
      <trkpt lat="42.835614988580346" lon="-7.722094003111124">
        <ele>681.10000000000002</ele>
        <time>2018-05-20T10:37:22Z</time>
      </trkpt>
      <trkpt lat="42.835586993023753" lon="-7.721818992868066">
        <ele>680.60000000000002</ele>
        <time>2018-05-20T10:37:28Z</time>
      </trkpt>
      <trkpt lat="42.835586993023753" lon="-7.721807006746531">
        <ele>680.60000000000002</ele>
        <time>2018-05-20T10:37:28Z</time>
      </trkpt>
      <trkpt lat="42.83553603105247" lon="-7.721599973738194">
        <ele>680.5</ele>
        <time>2018-05-20T10:37:33Z</time>
      </trkpt>
      <trkpt lat="42.835525972768664" lon="-7.721314989030361">
        <ele>679.89999999999998</ele>
        <time>2018-05-20T10:37:39Z</time>
      </trkpt>
      <trkpt lat="42.835525972768664" lon="-7.721053976565599">
        <ele>679</ele>
        <time>2018-05-20T10:37:45Z</time>
      </trkpt>
      <trkpt lat="42.835503006353974" lon="-7.720800004899502">
        <ele>678.29999999999995</ele>
        <time>2018-05-20T10:37:50Z</time>
      </trkpt>
      <trkpt lat="42.835503006353974" lon="-7.720634965226054">
        <ele>677.79999999999995</ele>
        <time>2018-05-20T10:37:54Z</time>
      </trkpt>
      <trkpt lat="42.835503006353974" lon="-7.720565982162952">
        <ele>677.5</ele>
        <time>2018-05-20T10:37:55Z</time>
      </trkpt>
      <trkpt lat="42.835497977212071" lon="-7.720474032685161">
        <ele>677.20000000000005</ele>
        <time>2018-05-20T10:37:57Z</time>
      </trkpt>
      <trkpt lat="42.835497977212071" lon="-7.720419969409704">
        <ele>677</ele>
        <time>2018-05-20T10:37:58Z</time>
      </trkpt>
      <trkpt lat="42.835480039939284" lon="-7.720377976074815">
        <ele>677.20000000000005</ele>
        <time>2018-05-20T10:38:00Z</time>
      </trkpt>
      <trkpt lat="42.835454978048801" lon="-7.720335982739925">
        <ele>677.5</ele>
        <time>2018-05-20T10:38:01Z</time>
      </trkpt>
      <trkpt lat="42.835422037169337" lon="-7.720306981354952">
        <ele>677.89999999999998</ele>
        <time>2018-05-20T10:38:02Z</time>
      </trkpt>
      <trkpt lat="42.835389012470841" lon="-7.720255013555288">
        <ele>678.39999999999998</ele>
        <time>2018-05-20T10:38:03Z</time>
      </trkpt>
      <trkpt lat="42.835370991379023" lon="-7.720181001350284">
        <ele>678.60000000000002</ele>
        <time>2018-05-20T10:38:05Z</time>
      </trkpt>
      <trkpt lat="42.835361016914248" lon="-7.72008502855897">
        <ele>678.70000000000005</ele>
        <time>2018-05-20T10:38:07Z</time>
      </trkpt>
      <trkpt lat="42.835356993600726" lon="-7.719862991943955">
        <ele>678.79999999999995</ele>
        <time>2018-05-20T10:38:12Z</time>
      </trkpt>
      <trkpt lat="42.835361016914248" lon="-7.719579013064504">
        <ele>678.70000000000005</ele>
        <time>2018-05-20T10:38:18Z</time>
      </trkpt>
      <trkpt lat="42.835356993600726" lon="-7.719366028904915">
        <ele>678</ele>
        <time>2018-05-20T10:38:23Z</time>
      </trkpt>
      <trkpt lat="42.83534299582243" lon="-7.719139968976378">
        <ele>677.29999999999995</ele>
        <time>2018-05-20T10:38:28Z</time>
      </trkpt>
      <trkpt lat="42.83534299582243" lon="-7.719109961763024">
        <ele>677.20000000000005</ele>
        <time>2018-05-20T10:38:28Z</time>
      </trkpt>
      <trkpt lat="42.835337966680527" lon="-7.718753982335329">
        <ele>676.10000000000002</ele>
        <time>2018-05-20T10:38:36Z</time>
      </trkpt>
      <trkpt lat="42.835337966680527" lon="-7.718673013150692">
        <ele>675.79999999999995</ele>
        <time>2018-05-20T10:38:38Z</time>
      </trkpt>
      <trkpt lat="42.835337966680527" lon="-7.718357015401125">
        <ele>674.60000000000002</ele>
        <time>2018-05-20T10:38:45Z</time>
      </trkpt>
      <trkpt lat="42.835337966680527" lon="-7.718350980430841">
        <ele>674.60000000000002</ele>
        <time>2018-05-20T10:38:45Z</time>
      </trkpt>
      <trkpt lat="42.835337966680527" lon="-7.717891987413168">
        <ele>673</ele>
        <time>2018-05-20T10:38:55Z</time>
      </trkpt>
      <trkpt lat="42.835337966680527" lon="-7.71787597797811">
        <ele>672.89999999999998</ele>
        <time>2018-05-20T10:38:55Z</time>
      </trkpt>
      <trkpt lat="42.835328998044133" lon="-7.717613959684968">
        <ele>672.39999999999998</ele>
        <time>2018-05-20T10:39:01Z</time>
      </trkpt>
      <trkpt lat="42.835328998044133" lon="-7.7175950165838">
        <ele>672.29999999999995</ele>
        <time>2018-05-20T10:39:01Z</time>
      </trkpt>
      <trkpt lat="42.835309971123934" lon="-7.717302991077304">
        <ele>671.70000000000005</ele>
        <time>2018-05-20T10:39:08Z</time>
      </trkpt>
      <trkpt lat="42.835309971123934" lon="-7.717292010784149">
        <ele>671.70000000000005</ele>
        <time>2018-05-20T10:39:08Z</time>
      </trkpt>
      <trkpt lat="42.835305025801063" lon="-7.717211963608861">
        <ele>671.60000000000002</ele>
        <time>2018-05-20T10:39:10Z</time>
      </trkpt>
      <trkpt lat="42.835295973345637" lon="-7.717142980545759">
        <ele>671.5</ele>
        <time>2018-05-20T10:39:11Z</time>
      </trkpt>
      <trkpt lat="42.835291028022766" lon="-7.717089001089335">
        <ele>671.39999999999998</ele>
        <time>2018-05-20T10:39:12Z</time>
      </trkpt>
      <trkpt lat="42.835291028022766" lon="-7.717025969177485">
        <ele>670.79999999999995</ele>
        <time>2018-05-20T10:39:14Z</time>
      </trkpt>
      <trkpt lat="42.835291028022766" lon="-7.716956986114383">
        <ele>670.10000000000002</ele>
        <time>2018-05-20T10:39:15Z</time>
      </trkpt>
      <trkpt lat="42.835291028022766" lon="-7.716865036636591">
        <ele>669.29999999999995</ele>
        <time>2018-05-20T10:39:17Z</time>
      </trkpt>
      <trkpt lat="42.835291028022766" lon="-7.716810973361135">
        <ele>668.70000000000005</ele>
        <time>2018-05-20T10:39:18Z</time>
      </trkpt>
      <trkpt lat="42.835291028022766" lon="-7.716760011389852">
        <ele>668.29999999999995</ele>
        <time>2018-05-20T10:39:19Z</time>
      </trkpt>
      <trkpt lat="42.835287004709244" lon="-7.716702008619905">
        <ele>667.70000000000005</ele>
        <time>2018-05-20T10:39:21Z</time>
      </trkpt>
      <trkpt lat="42.835281975567341" lon="-7.716638976708055">
        <ele>667.20000000000005</ele>
        <time>2018-05-20T10:39:22Z</time>
      </trkpt>
      <trkpt lat="42.835281975567341" lon="-7.716587008908391">
        <ele>666.70000000000005</ele>
        <time>2018-05-20T10:39:23Z</time>
      </trkpt>
      <trkpt lat="42.835281975567341" lon="-7.716501010581851">
        <ele>665.89999999999998</ele>
        <time>2018-05-20T10:39:25Z</time>
      </trkpt>
      <trkpt lat="42.835281975567341" lon="-7.716437978670001">
        <ele>665.29999999999995</ele>
        <time>2018-05-20T10:39:27Z</time>
      </trkpt>
      <trkpt lat="42.835281975567341" lon="-7.716386010870338">
        <ele>664.79999999999995</ele>
        <time>2018-05-20T10:39:28Z</time>
      </trkpt>
      <trkpt lat="42.835287004709244" lon="-7.716334965080023">
        <ele>664.20000000000005</ele>
        <time>2018-05-20T10:39:29Z</time>
      </trkpt>
      <trkpt lat="42.835287004709244" lon="-7.716282997280359">
        <ele>663.70000000000005</ele>
        <time>2018-05-20T10:39:30Z</time>
      </trkpt>
      <trkpt lat="42.835287004709244" lon="-7.716207979246974">
        <ele>663.10000000000002</ele>
        <time>2018-05-20T10:39:32Z</time>
      </trkpt>
      <trkpt lat="42.835287004709244" lon="-7.716150982305408">
        <ele>662.70000000000005</ele>
        <time>2018-05-20T10:39:33Z</time>
      </trkpt>
      <trkpt lat="42.835287004709244" lon="-7.716059032827616">
        <ele>662</ele>
        <time>2018-05-20T10:39:35Z</time>
      </trkpt>
      <trkpt lat="42.835287004709244" lon="-7.715960964560509">
        <ele>661.20000000000005</ele>
        <time>2018-05-20T10:39:37Z</time>
      </trkpt>
      <trkpt lat="42.835287004709244" lon="-7.715829033404589">
        <ele>660.20000000000005</ele>
        <time>2018-05-20T10:39:40Z</time>
      </trkpt>
      <trkpt lat="42.835281975567341" lon="-7.715775975957513">
        <ele>659.89999999999998</ele>
        <time>2018-05-20T10:39:41Z</time>
      </trkpt>
      <trkpt lat="42.835273006930947" lon="-7.715724008157849">
        <ele>659.5</ele>
        <time>2018-05-20T10:39:42Z</time>
      </trkpt>
      <trkpt lat="42.835263032466173" lon="-7.715672040358186">
        <ele>659.20000000000005</ele>
        <time>2018-05-20T10:39:43Z</time>
      </trkpt>
      <trkpt lat="42.83525699749589" lon="-7.715622000396252">
        <ele>658.89999999999998</ele>
        <time>2018-05-20T10:39:44Z</time>
      </trkpt>
      <trkpt lat="42.835242999717593" lon="-7.715565003454685">
        <ele>658.60000000000002</ele>
        <time>2018-05-20T10:39:46Z</time>
      </trkpt>
      <trkpt lat="42.835229001939297" lon="-7.715494008734822">
        <ele>658.20000000000005</ele>
        <time>2018-05-20T10:39:47Z</time>
      </trkpt>
      <trkpt lat="42.835210980847478" lon="-7.715456960722804">
        <ele>658</ele>
        <time>2018-05-20T10:39:48Z</time>
      </trkpt>
      <trkpt lat="42.835180973634124" lon="-7.71538102068007">
        <ele>657.79999999999995</ele>
        <time>2018-05-20T10:39:50Z</time>
      </trkpt>
      <trkpt lat="42.834954997524619" lon="-7.715007020160556">
        <ele>657.29999999999995</ele>
        <time>2018-05-20T10:40:01Z</time>
      </trkpt>
      <trkpt lat="42.834943011403084" lon="-7.715007020160556">
        <ele>657.39999999999998</ele>
        <time>2018-05-20T10:40:01Z</time>
      </trkpt>
      <trkpt lat="42.834717035293579" lon="-7.714555989950895">
        <ele>655.29999999999995</ele>
        <time>2018-05-20T10:40:13Z</time>
      </trkpt>
      <trkpt lat="42.834717035293579" lon="-7.714570993557572">
        <ele>655.39999999999998</ele>
        <time>2018-05-20T10:40:13Z</time>
      </trkpt>
      <trkpt lat="42.834502961486578" lon="-7.714203028008342">
        <ele>651.89999999999998</ele>
        <time>2018-05-20T10:40:23Z</time>
      </trkpt>
      <trkpt lat="42.834280002862215" lon="-7.713816035538912">
        <ele>646.5</ele>
        <time>2018-05-20T10:40:34Z</time>
      </trkpt>
      <trkpt lat="42.834000969305634" lon="-7.713309014216065">
        <ele>640.70000000000005</ele>
        <time>2018-05-20T10:40:48Z</time>
      </trkpt>
      <trkpt lat="42.833735011518002" lon="-7.712871981784701">
        <ele>634.70000000000005</ele>
        <time>2018-05-20T10:41:01Z</time>
      </trkpt>
      <trkpt lat="42.833548011258245" lon="-7.712520025670528">
        <ele>631.5</ele>
        <time>2018-05-20T10:41:10Z</time>
      </trkpt>
      <trkpt lat="42.833311976864934" lon="-7.712091039866209">
        <ele>627.39999999999998</ele>
        <time>2018-05-20T10:41:22Z</time>
      </trkpt>
      <trkpt lat="42.833095975220203" lon="-7.711693989112973">
        <ele>623.5</ele>
        <time>2018-05-20T10:41:32Z</time>
      </trkpt>
      <trkpt lat="42.832876034080982" lon="-7.711329041048884">
        <ele>619.39999999999998</ele>
        <time>2018-05-20T10:41:43Z</time>
      </trkpt>
      <trkpt lat="42.832673024386168" lon="-7.710968032479286">
        <ele>617.10000000000002</ele>
        <time>2018-05-20T10:41:53Z</time>
      </trkpt>
      <trkpt lat="42.832460962235928" lon="-7.710609035566449">
        <ele>614.29999999999995</ele>
        <time>2018-05-20T10:42:03Z</time>
      </trkpt>
      <trkpt lat="42.832460962235928" lon="-7.710603000596166">
        <ele>614.29999999999995</ele>
        <time>2018-05-20T10:42:03Z</time>
      </trkpt>
      <trkpt lat="42.83229298889637" lon="-7.710363026708365">
        <ele>612</ele>
        <time>2018-05-20T10:42:10Z</time>
      </trkpt>
      <trkpt lat="42.832174971699715" lon="-7.710156999528408">
        <ele>610</ele>
        <time>2018-05-20T10:42:16Z</time>
      </trkpt>
      <trkpt lat="42.832166003063321" lon="-7.710121963173151">
        <ele>609.79999999999995</ele>
        <time>2018-05-20T10:42:17Z</time>
      </trkpt>
      <trkpt lat="42.832142030820251" lon="-7.710059015080333">
        <ele>609.20000000000005</ele>
        <time>2018-05-20T10:42:18Z</time>
      </trkpt>
      <trkpt lat="42.832128033041954" lon="-7.710006963461638">
        <ele>608.79999999999995</ele>
        <time>2018-05-20T10:42:19Z</time>
      </trkpt>
      <trkpt lat="42.832114035263658" lon="-7.709927000105381">
        <ele>608.29999999999995</ele>
        <time>2018-05-20T10:42:21Z</time>
      </trkpt>
      <trkpt lat="42.832096014171839" lon="-7.709880983456969">
        <ele>607.89999999999998</ele>
        <time>2018-05-20T10:42:22Z</time>
      </trkpt>
      <trkpt lat="42.832062989473343" lon="-7.709829015657306">
        <ele>607.60000000000002</ele>
        <time>2018-05-20T10:42:24Z</time>
      </trkpt>
      <trkpt lat="42.832026025280356" lon="-7.709772018715739">
        <ele>607.5</ele>
        <time>2018-05-20T10:42:25Z</time>
      </trkpt>
      <trkpt lat="42.831986965611577" lon="-7.709734970703721">
        <ele>607.39999999999998</ele>
        <time>2018-05-20T10:42:27Z</time>
      </trkpt>
      <trkpt lat="42.831962993368506" lon="-7.709694989025593">
        <ele>607.29999999999995</ele>
        <time>2018-05-20T10:42:28Z</time>
      </trkpt>
      <trkpt lat="42.831940026953816" lon="-7.709648972377181">
        <ele>607.10000000000002</ele>
        <time>2018-05-20T10:42:29Z</time>
      </trkpt>
      <trkpt lat="42.831909013912082" lon="-7.709592981263995">
        <ele>606.89999999999998</ele>
        <time>2018-05-20T10:42:31Z</time>
      </trkpt>
      <trkpt lat="42.83188596367836" lon="-7.709530033171177">
        <ele>606.60000000000002</ele>
        <time>2018-05-20T10:42:32Z</time>
      </trkpt>
      <trkpt lat="42.831861991435289" lon="-7.709456020966172">
        <ele>606.10000000000002</ele>
        <time>2018-05-20T10:42:34Z</time>
      </trkpt>
      <trkpt lat="42.831843970343471" lon="-7.709391983225942">
        <ele>605.70000000000005</ele>
        <time>2018-05-20T10:42:35Z</time>
      </trkpt>
      <trkpt lat="42.8318199981004" lon="-7.709312019869685">
        <ele>605.20000000000005</ele>
        <time>2018-05-20T10:42:37Z</time>
      </trkpt>
      <trkpt lat="42.831806000322104" lon="-7.709266003221273">
        <ele>604.89999999999998</ele>
        <time>2018-05-20T10:42:38Z</time>
      </trkpt>
      <trkpt lat="42.83179703168571" lon="-7.70921403542161">
        <ele>604.5</ele>
        <time>2018-05-20T10:42:40Z</time>
      </trkpt>
      <trkpt lat="42.831790996715426" lon="-7.709158966317773">
        <ele>604.10000000000002</ele>
        <time>2018-05-20T10:42:41Z</time>
      </trkpt>
      <trkpt lat="42.83177699893713" lon="-7.709113033488393">
        <ele>603.79999999999995</ele>
        <time>2018-05-20T10:42:42Z</time>
      </trkpt>
      <trkpt lat="42.831767024472356" lon="-7.709060981869698">
        <ele>603.39999999999998</ele>
        <time>2018-05-20T10:42:43Z</time>
      </trkpt>
      <trkpt lat="42.831757972016931" lon="-7.708981018513441">
        <ele>602.79999999999995</ele>
        <time>2018-05-20T10:42:45Z</time>
      </trkpt>
      <trkpt lat="42.831749003380537" lon="-7.708928966894746">
        <ele>602.39999999999998</ele>
        <time>2018-05-20T10:42:46Z</time>
      </trkpt>
      <trkpt lat="42.831729976460338" lon="-7.708849003538489">
        <ele>601.79999999999995</ele>
        <time>2018-05-20T10:42:48Z</time>
      </trkpt>
      <trkpt lat="42.831715978682041" lon="-7.708797035738826">
        <ele>601.39999999999998</ele>
        <time>2018-05-20T10:42:49Z</time>
      </trkpt>
      <trkpt lat="42.831697035580873" lon="-7.708751019090414">
        <ele>601</ele>
        <time>2018-05-20T10:42:50Z</time>
      </trkpt>
      <trkpt lat="42.831673985347152" lon="-7.708698967471719">
        <ele>600.79999999999995</ele>
        <time>2018-05-20T10:42:51Z</time>
      </trkpt>
      <trkpt lat="42.831649007275701" lon="-7.708654962480068">
        <ele>600.60000000000002</ele>
        <time>2018-05-20T10:42:53Z</time>
      </trkpt>
      <trkpt lat="42.831626040861011" lon="-7.708625961095095">
        <ele>600.5</ele>
        <time>2018-05-20T10:42:54Z</time>
      </trkpt>
      <trkpt lat="42.831593016162515" lon="-7.70859201438725">
        <ele>600.29999999999995</ele>
        <time>2018-05-20T10:42:55Z</time>
      </trkpt>
      <trkpt lat="42.831565020605922" lon="-7.708556978031993">
        <ele>600.10000000000002</ele>
        <time>2018-05-20T10:42:56Z</time>
      </trkpt>
      <trkpt lat="42.8315419703722" lon="-7.708504004403949">
        <ele>599.79999999999995</ele>
        <time>2018-05-20T10:42:57Z</time>
      </trkpt>
      <trkpt lat="42.831527972593904" lon="-7.708440972492099">
        <ele>599.5</ele>
        <time>2018-05-20T10:42:59Z</time>
      </trkpt>
      <trkpt lat="42.831527972593904" lon="-7.7083770185709">
        <ele>599.20000000000005</ele>
        <time>2018-05-20T10:43:00Z</time>
      </trkpt>
      <trkpt lat="42.831527972593904" lon="-7.708320021629334">
        <ele>598.89999999999998</ele>
        <time>2018-05-20T10:43:01Z</time>
      </trkpt>
      <trkpt lat="42.831527972593904" lon="-7.708267970010638">
        <ele>598.70000000000005</ele>
        <time>2018-05-20T10:43:02Z</time>
      </trkpt>
      <trkpt lat="42.831527972593904" lon="-7.708217008039355">
        <ele>598.39999999999998</ele>
        <time>2018-05-20T10:43:04Z</time>
      </trkpt>
      <trkpt lat="42.831527972593904" lon="-7.708159005269408">
        <ele>598.20000000000005</ele>
        <time>2018-05-20T10:43:05Z</time>
      </trkpt>
      <trkpt lat="42.831523027271032" lon="-7.708090022206307">
        <ele>597.79999999999995</ele>
        <time>2018-05-20T10:43:06Z</time>
      </trkpt>
      <trkpt lat="42.831523027271032" lon="-7.708026990294457">
        <ele>597.5</ele>
        <time>2018-05-20T10:43:08Z</time>
      </trkpt>
      <trkpt lat="42.831509029492736" lon="-7.707962030544877">
        <ele>597.20000000000005</ele>
        <time>2018-05-20T10:43:09Z</time>
      </trkpt>
      <trkpt lat="42.831495031714439" lon="-7.70790402777493">
        <ele>596.79999999999995</ele>
        <time>2018-05-20T10:43:11Z</time>
      </trkpt>
      <trkpt lat="42.831481033936143" lon="-7.70784099586308">
        <ele>596.60000000000002</ele>
        <time>2018-05-20T10:43:12Z</time>
      </trkpt>
      <trkpt lat="42.831467036157846" lon="-7.707790033891797">
        <ele>596.39999999999998</ele>
        <time>2018-05-20T10:43:13Z</time>
      </trkpt>
      <trkpt lat="42.83145303837955" lon="-7.707744017243385">
        <ele>596.20000000000005</ele>
        <time>2018-05-20T10:43:14Z</time>
      </trkpt>
      <trkpt lat="42.831435017287731" lon="-7.707684002816677">
        <ele>596</ele>
        <time>2018-05-20T10:43:16Z</time>
      </trkpt>
      <trkpt lat="42.831415990367532" lon="-7.707627005875111">
        <ele>595.70000000000005</ele>
        <time>2018-05-20T10:43:17Z</time>
      </trkpt>
      <trkpt lat="42.831407021731138" lon="-7.707558022812009">
        <ele>595.39999999999998</ele>
        <time>2018-05-20T10:43:18Z</time>
      </trkpt>
      <trkpt lat="42.831385983154178" lon="-7.707498008385301">
        <ele>595.10000000000002</ele>
        <time>2018-05-20T10:43:20Z</time>
      </trkpt>
      <trkpt lat="42.831370979547501" lon="-7.707361970096827">
        <ele>594.60000000000002</ele>
        <time>2018-05-20T10:43:23Z</time>
      </trkpt>
      <trkpt lat="42.831234019249678" lon="-7.707029962912202">
        <ele>593</ele>
        <time>2018-05-20T10:43:31Z</time>
      </trkpt>
      <trkpt lat="42.831166964024305" lon="-7.706753024831414">
        <ele>592.79999999999995</ele>
        <time>2018-05-20T10:43:38Z</time>
      </trkpt>
      <trkpt lat="42.831124970689416" lon="-7.706512967124581">
        <ele>592.5</ele>
        <time>2018-05-20T10:43:43Z</time>
      </trkpt>
      <trkpt lat="42.831009970977902" lon="-7.706191018223763">
        <ele>591.60000000000002</ele>
        <time>2018-05-20T10:43:51Z</time>
      </trkpt>
      <trkpt lat="42.830942999571562" lon="-7.705939980223775">
        <ele>591.39999999999998</ele>
        <time>2018-05-20T10:43:56Z</time>
      </trkpt>
      <trkpt lat="42.830906035378575" lon="-7.70577603019774">
        <ele>591.10000000000002</ele>
        <time>2018-05-20T10:44:00Z</time>
      </trkpt>
      <trkpt lat="42.830858007073402" lon="-7.705528009682894">
        <ele>590.79999999999995</ele>
        <time>2018-05-20T10:44:06Z</time>
      </trkpt>
      <trkpt lat="42.830744013190269" lon="-7.705417033284903">
        <ele>589.5</ele>
        <time>2018-05-20T10:44:10Z</time>
      </trkpt>
      <trkpt lat="42.830679975450039" lon="-7.70534603856504">
        <ele>589</ele>
        <time>2018-05-20T10:44:12Z</time>
      </trkpt>
      <trkpt lat="42.830570004880428" lon="-7.705077985301614">
        <ele>588.5</ele>
        <time>2018-05-20T10:44:19Z</time>
      </trkpt>
      <trkpt lat="42.830479983240366" lon="-7.704891990870237">
        <ele>587.89999999999998</ele>
        <time>2018-05-20T10:44:24Z</time>
      </trkpt>
      <trkpt lat="42.830385016277432" lon="-7.704748995602131">
        <ele>587.29999999999995</ele>
        <time>2018-05-20T10:44:28Z</time>
      </trkpt>
      <trkpt lat="42.830275967717171" lon="-7.704525031149387">
        <ele>586.60000000000002</ele>
        <time>2018-05-20T10:44:34Z</time>
      </trkpt>
      <trkpt lat="42.830175971612334" lon="-7.704276004806161">
        <ele>585.89999999999998</ele>
        <time>2018-05-20T10:44:40Z</time>
      </trkpt>
      <trkpt lat="42.830170020461082" lon="-7.704259995371103">
        <ele>585.89999999999998</ele>
        <time>2018-05-20T10:44:40Z</time>
      </trkpt>
      <trkpt lat="42.830046974122524" lon="-7.703926982358098">
        <ele>584.89999999999998</ele>
        <time>2018-05-20T10:44:49Z</time>
      </trkpt>
      <trkpt lat="42.8299739677459" lon="-7.703745011240244">
        <ele>584.10000000000002</ele>
        <time>2018-05-20T10:44:53Z</time>
      </trkpt>
      <trkpt lat="42.829899033531547" lon="-7.703553987666965">
        <ele>582.79999999999995</ele>
        <time>2018-05-20T10:44:58Z</time>
      </trkpt>
      <trkpt lat="42.82988503575325" lon="-7.70350000821054">
        <ele>582.60000000000002</ele>
        <time>2018-05-20T10:44:59Z</time>
      </trkpt>
      <trkpt lat="42.829861985519528" lon="-7.703431025147438">
        <ele>582.20000000000005</ele>
        <time>2018-05-20T10:45:01Z</time>
      </trkpt>
      <trkpt lat="42.829847987741232" lon="-7.703334968537092">
        <ele>581.79999999999995</ele>
        <time>2018-05-20T10:45:03Z</time>
      </trkpt>
      <trkpt lat="42.829839019104838" lon="-7.703274032101035">
        <ele>581.60000000000002</ele>
        <time>2018-05-20T10:45:04Z</time>
      </trkpt>
      <trkpt lat="42.829839019104838" lon="-7.703209994360805">
        <ele>581.5</ele>
        <time>2018-05-20T10:45:06Z</time>
      </trkpt>
      <trkpt lat="42.829839019104838" lon="-7.703146962448955">
        <ele>581.39999999999998</ele>
        <time>2018-05-20T10:45:07Z</time>
      </trkpt>
      <trkpt lat="42.829839019104838" lon="-7.703084014356136">
        <ele>581.29999999999995</ele>
        <time>2018-05-20T10:45:08Z</time>
      </trkpt>
      <trkpt lat="42.829828960821033" lon="-7.703040009364486">
        <ele>581.10000000000002</ele>
        <time>2018-05-20T10:45:09Z</time>
      </trkpt>
      <trkpt lat="42.829814963042736" lon="-7.702979994937778">
        <ele>580.89999999999998</ele>
        <time>2018-05-20T10:45:11Z</time>
      </trkpt>
      <trkpt lat="42.829789984971285" lon="-7.70294202491641">
        <ele>580.5</ele>
        <time>2018-05-20T10:45:12Z</time>
      </trkpt>
      <trkpt lat="42.829775987192988" lon="-7.702889973297715">
        <ele>580.29999999999995</ele>
        <time>2018-05-20T10:45:13Z</time>
      </trkpt>
      <trkpt lat="42.82975796610117" lon="-7.702839011326432">
        <ele>580.10000000000002</ele>
        <time>2018-05-20T10:45:14Z</time>
      </trkpt>
      <trkpt lat="42.829733993858099" lon="-7.702774973586202">
        <ele>579.70000000000005</ele>
        <time>2018-05-20T10:45:16Z</time>
      </trkpt>
      <trkpt lat="42.829719996079803" lon="-7.702724011614919">
        <ele>579.60000000000002</ele>
        <time>2018-05-20T10:45:17Z</time>
      </trkpt>
      <trkpt lat="42.829711027443409" lon="-7.702666008844972">
        <ele>579.39999999999998</ele>
        <time>2018-05-20T10:45:18Z</time>
      </trkpt>
      <trkpt lat="42.829697029665112" lon="-7.702602976933122">
        <ele>579.29999999999995</ele>
        <time>2018-05-20T10:45:20Z</time>
      </trkpt>
      <trkpt lat="42.829683031886816" lon="-7.702551009133458">
        <ele>579.10000000000002</ele>
        <time>2018-05-20T10:45:21Z</time>
      </trkpt>
      <trkpt lat="42.829683031886816" lon="-7.702494012191892">
        <ele>579.10000000000002</ele>
        <time>2018-05-20T10:45:22Z</time>
      </trkpt>
      <trkpt lat="42.829678002744913" lon="-7.70242502912879">
        <ele>579</ele>
        <time>2018-05-20T10:45:24Z</time>
      </trkpt>
      <trkpt lat="42.829678002744913" lon="-7.702372977510095">
        <ele>579</ele>
        <time>2018-05-20T10:45:25Z</time>
      </trkpt>
      <trkpt lat="42.829678002744913" lon="-7.702315980568528">
        <ele>579</ele>
        <time>2018-05-20T10:45:26Z</time>
      </trkpt>
      <trkpt lat="42.829673979431391" lon="-7.702264012768865">
        <ele>578.89999999999998</ele>
        <time>2018-05-20T10:45:27Z</time>
      </trkpt>
      <trkpt lat="42.829655036330223" lon="-7.702224031090736">
        <ele>578.70000000000005</ele>
        <time>2018-05-20T10:45:28Z</time>
      </trkpt>
      <trkpt lat="42.829631986096501" lon="-7.70216703414917">
        <ele>578.5</ele>
        <time>2018-05-20T10:45:30Z</time>
      </trkpt>
      <trkpt lat="42.829588986933231" lon="-7.702127974480391">
        <ele>578.10000000000002</ele>
        <time>2018-05-20T10:45:31Z</time>
      </trkpt>
      <trkpt lat="42.829546993598342" lon="-7.702094027772546">
        <ele>577.60000000000002</ele>
        <time>2018-05-20T10:45:33Z</time>
      </trkpt>
      <trkpt lat="42.829496031627059" lon="-7.702053962275386">
        <ele>577.10000000000002</ele>
        <time>2018-05-20T10:45:34Z</time>
      </trkpt>
      <trkpt lat="42.829451020807028" lon="-7.702034013345838">
        <ele>576.70000000000005</ele>
        <time>2018-05-20T10:45:36Z</time>
      </trkpt>
      <trkpt lat="42.829403998330235" lon="-7.702006017789245">
        <ele>576.29999999999995</ele>
        <time>2018-05-20T10:45:37Z</time>
      </trkpt>
      <trkpt lat="42.829376002773643" lon="-7.701965030282736">
        <ele>576.20000000000005</ele>
        <time>2018-05-20T10:45:38Z</time>
      </trkpt>
      <trkpt lat="42.829334009438753" lon="-7.701924964785576">
        <ele>576</ele>
        <time>2018-05-20T10:45:40Z</time>
      </trkpt>
      <trkpt lat="42.829296961426735" lon="-7.701855981722474">
        <ele>575.89999999999998</ele>
        <time>2018-05-20T10:45:42Z</time>
      </trkpt>
      <trkpt lat="42.829251028597355" lon="-7.701816000044346">
        <ele>575.60000000000002</ele>
        <time>2018-05-20T10:45:43Z</time>
      </trkpt>
      <trkpt lat="42.829223033040762" lon="-7.701769983395934">
        <ele>575.60000000000002</ele>
        <time>2018-05-20T10:45:45Z</time>
      </trkpt>
      <trkpt lat="42.829191014170647" lon="-7.701732013374567">
        <ele>575.39999999999998</ele>
        <time>2018-05-20T10:45:46Z</time>
      </trkpt>
      <trkpt lat="42.829153966158628" lon="-7.701708963140845">
        <ele>575.10000000000002</ele>
        <time>2018-05-20T10:45:47Z</time>
      </trkpt>
      <trkpt lat="42.829121025279164" lon="-7.701679961755872">
        <ele>574.89999999999998</ele>
        <time>2018-05-20T10:45:48Z</time>
      </trkpt>
      <trkpt lat="42.829089006409049" lon="-7.701639980077744">
        <ele>574.70000000000005</ele>
        <time>2018-05-20T10:45:50Z</time>
      </trkpt>
      <trkpt lat="42.829051036387682" lon="-7.701593963429332">
        <ele>574.5</ele>
        <time>2018-05-20T10:45:51Z</time>
      </trkpt>
      <trkpt lat="42.829019017517567" lon="-7.701564962044358">
        <ele>574.29999999999995</ele>
        <time>2018-05-20T10:45:52Z</time>
      </trkpt>
      <trkpt lat="42.828977024182677" lon="-7.701531015336514">
        <ele>574</ele>
        <time>2018-05-20T10:45:54Z</time>
      </trkpt>
      <trkpt lat="42.828938970342278" lon="-7.701497990638018">
        <ele>573.79999999999995</ele>
        <time>2018-05-20T10:45:55Z</time>
      </trkpt>
      <trkpt lat="42.828895971179008" lon="-7.701461026445031">
        <ele>573.5</ele>
        <time>2018-05-20T10:45:57Z</time>
      </trkpt>
      <trkpt lat="42.828858001157641" lon="-7.701409980654717">
        <ele>573.29999999999995</ele>
        <time>2018-05-20T10:45:58Z</time>
      </trkpt>
      <trkpt lat="42.828825982287526" lon="-7.701358012855053">
        <ele>573.29999999999995</ele>
        <time>2018-05-20T10:46:00Z</time>
      </trkpt>
      <trkpt lat="42.828788012266159" lon="-7.701323982328177">
        <ele>573</ele>
        <time>2018-05-20T10:46:01Z</time>
      </trkpt>
      <trkpt lat="42.82874601893127" lon="-7.701272014528513">
        <ele>572.79999999999995</ele>
        <time>2018-05-20T10:46:03Z</time>
      </trkpt>
      <trkpt lat="42.828708970919251" lon="-7.701232032850385">
        <ele>572.29999999999995</ele>
        <time>2018-05-20T10:46:04Z</time>
      </trkpt>
      <trkpt lat="42.82868298701942" lon="-7.701194984838367">
        <ele>571.79999999999995</ele>
        <time>2018-05-20T10:46:05Z</time>
      </trkpt>
      <trkpt lat="42.828649962320924" lon="-7.701155003160238">
        <ele>571.29999999999995</ele>
        <time>2018-05-20T10:46:06Z</time>
      </trkpt>
      <trkpt lat="42.828607968986034" lon="-7.701086020097137">
        <ele>570.60000000000002</ele>
        <time>2018-05-20T10:46:08Z</time>
      </trkpt>
      <trkpt lat="42.828565975651145" lon="-7.701033968478441">
        <ele>569.89999999999998</ele>
        <time>2018-05-20T10:46:10Z</time>
      </trkpt>
      <trkpt lat="42.828551977872849" lon="-7.700983006507158">
        <ele>569.70000000000005</ele>
        <time>2018-05-20T10:46:11Z</time>
      </trkpt>
      <trkpt lat="42.828523982316256" lon="-7.700931038707495">
        <ele>569.29999999999995</ele>
        <time>2018-05-20T10:46:13Z</time>
      </trkpt>
      <trkpt lat="42.828501015901566" lon="-7.700890973210335">
        <ele>569</ele>
        <time>2018-05-20T10:46:14Z</time>
      </trkpt>
      <trkpt lat="42.828462962061167" lon="-7.700850991532207">
        <ele>568.5</ele>
        <time>2018-05-20T10:46:15Z</time>
      </trkpt>
      <trkpt lat="42.82842599786818" lon="-7.700843028724194">
        <ele>567.89999999999998</ele>
        <time>2018-05-20T10:46:16Z</time>
      </trkpt>
      <trkpt lat="42.828287025913596" lon="-7.700589979067445">
        <ele>566.39999999999998</ele>
        <time>2018-05-20T10:46:23Z</time>
      </trkpt>
      <trkpt lat="42.828184012323618" lon="-7.700413959100843">
        <ele>565.5</ele>
        <time>2018-05-20T10:46:28Z</time>
      </trkpt>
      <trkpt lat="42.828040011227131" lon="-7.700215978547931">
        <ele>564.5</ele>
        <time>2018-05-20T10:46:34Z</time>
      </trkpt>
      <trkpt lat="42.827829038724303" lon="-7.699908027425408">
        <ele>563.29999999999995</ele>
        <time>2018-05-20T10:46:43Z</time>
      </trkpt>
      <trkpt lat="42.8278240095824" lon="-7.699908027425408">
        <ele>563.20000000000005</ele>
        <time>2018-05-20T10:46:43Z</time>
      </trkpt>
      <trkpt lat="42.827689982950687" lon="-7.699700994417071">
        <ele>562.29999999999995</ele>
        <time>2018-05-20T10:46:49Z</time>
      </trkpt>
      <trkpt lat="42.827546987682581" lon="-7.699497984722257">
        <ele>560.79999999999995</ele>
        <time>2018-05-20T10:46:56Z</time>
      </trkpt>
      <trkpt lat="42.827424025163054" lon="-7.699294975027442">
        <ele>559.5</ele>
        <time>2018-05-20T10:47:01Z</time>
      </trkpt>
      <trkpt lat="42.82741698436439" lon="-7.699294975027442">
        <ele>559.39999999999998</ele>
        <time>2018-05-20T10:47:02Z</time>
      </trkpt>
      <trkpt lat="42.827328974381089" lon="-7.699199002236128">
        <ele>558.5</ele>
        <time>2018-05-20T10:47:05Z</time>
      </trkpt>
      <trkpt lat="42.827230989933014" lon="-7.699114009737968">
        <ele>557.5</ele>
        <time>2018-05-20T10:47:08Z</time>
      </trkpt>
      <trkpt lat="42.827057987451553" lon="-7.698905970901251">
        <ele>556.10000000000002</ele>
        <time>2018-05-20T10:47:15Z</time>
      </trkpt>
      <trkpt lat="42.827025968581438" lon="-7.69881896674633">
        <ele>556</ele>
        <time>2018-05-20T10:47:17Z</time>
      </trkpt>
      <trkpt lat="42.827003002166748" lon="-7.698761969804764">
        <ele>555.89999999999998</ele>
        <time>2018-05-20T10:47:19Z</time>
      </trkpt>
      <trkpt lat="42.826978024095297" lon="-7.698719976469874">
        <ele>555.60000000000002</ele>
        <time>2018-05-20T10:47:20Z</time>
      </trkpt>
      <trkpt lat="42.82690099440515" lon="-7.698531970381737">
        <ele>554.79999999999995</ele>
        <time>2018-05-20T10:47:25Z</time>
      </trkpt>
      <trkpt lat="42.826820025220513" lon="-7.698303982615471">
        <ele>554</ele>
        <time>2018-05-20T10:47:30Z</time>
      </trkpt>
      <trkpt lat="42.826816001906991" lon="-7.6982990372926">
        <ele>554</ele>
        <time>2018-05-20T10:47:30Z</time>
      </trkpt>
      <trkpt lat="42.826802004128695" lon="-7.698224019259214">
        <ele>553.89999999999998</ele>
        <time>2018-05-20T10:47:32Z</time>
      </trkpt>
      <trkpt lat="42.826806027442217" lon="-7.698166016489267">
        <ele>554</ele>
        <time>2018-05-20T10:47:33Z</time>
      </trkpt>
      <trkpt lat="42.826810972765088" lon="-7.698112959042192">
        <ele>554.20000000000005</ele>
        <time>2018-05-20T10:47:34Z</time>
      </trkpt>
      <trkpt lat="42.826820025220513" lon="-7.698060991242528">
        <ele>554.29999999999995</ele>
        <time>2018-05-20T10:47:35Z</time>
      </trkpt>
      <trkpt lat="42.826829999685287" lon="-7.698002988472581">
        <ele>554.5</ele>
        <time>2018-05-20T10:47:37Z</time>
      </trkpt>
      <trkpt lat="42.826850032433867" lon="-7.697938028723002">
        <ele>554.70000000000005</ele>
        <time>2018-05-20T10:47:38Z</time>
      </trkpt>
      <trkpt lat="42.826864030212164" lon="-7.697885977104306">
        <ele>554.70000000000005</ele>
        <time>2018-05-20T10:47:39Z</time>
      </trkpt>
      <trkpt lat="42.826883979141712" lon="-7.697834009304643">
        <ele>554.60000000000002</ele>
        <time>2018-05-20T10:47:41Z</time>
      </trkpt>
      <trkpt lat="42.826897976920009" lon="-7.697782963514328">
        <ele>554.5</ele>
        <time>2018-05-20T10:47:42Z</time>
      </trkpt>
      <trkpt lat="42.826917003840208" lon="-7.697724960744381">
        <ele>554.29999999999995</ele>
        <time>2018-05-20T10:47:43Z</time>
      </trkpt>
      <trkpt lat="42.826931001618505" lon="-7.69767701625824">
        <ele>554.20000000000005</ele>
        <time>2018-05-20T10:47:44Z</time>
      </trkpt>
      <trkpt lat="42.826944999396801" lon="-7.697625970467925">
        <ele>554</ele>
        <time>2018-05-20T10:47:46Z</time>
      </trkpt>
      <trkpt lat="42.826949022710323" lon="-7.697567967697978">
        <ele>553.79999999999995</ele>
        <time>2018-05-20T10:47:47Z</time>
      </trkpt>
      <trkpt lat="42.826953968033195" lon="-7.697515999898315">
        <ele>553.5</ele>
        <time>2018-05-20T10:47:48Z</time>
      </trkpt>
      <trkpt lat="42.826960003003478" lon="-7.697464032098651">
        <ele>553.29999999999995</ele>
        <time>2018-05-20T10:47:49Z</time>
      </trkpt>
      <trkpt lat="42.826969977468252" lon="-7.697407035157085">
        <ele>553</ele>
        <time>2018-05-20T10:47:50Z</time>
      </trkpt>
      <trkpt lat="42.826974000781775" lon="-7.697350038215518">
        <ele>552.70000000000005</ele>
        <time>2018-05-20T10:47:52Z</time>
      </trkpt>
      <trkpt lat="42.826983975246549" lon="-7.697286000475287">
        <ele>552.39999999999998</ele>
        <time>2018-05-20T10:47:53Z</time>
      </trkpt>
      <trkpt lat="42.826983975246549" lon="-7.697229003533721">
        <ele>552.10000000000002</ele>
        <time>2018-05-20T10:47:54Z</time>
      </trkpt>
      <trkpt lat="42.826983975246549" lon="-7.697172006592155">
        <ele>551.79999999999995</ele>
        <time>2018-05-20T10:47:56Z</time>
      </trkpt>
      <trkpt lat="42.826974000781775" lon="-7.697120038792491">
        <ele>551.39999999999998</ele>
        <time>2018-05-20T10:47:57Z</time>
      </trkpt>
      <trkpt lat="42.826949022710323" lon="-7.697072010487318">
        <ele>551</ele>
        <time>2018-05-20T10:47:58Z</time>
      </trkpt>
      <trkpt lat="42.826925972476602" lon="-7.69703202880919">
        <ele>550.79999999999995</ele>
        <time>2018-05-20T10:47:59Z</time>
      </trkpt>
      <trkpt lat="42.82687802799046" lon="-7.696967991068959">
        <ele>550.5</ele>
        <time>2018-05-20T10:48:01Z</time>
      </trkpt>
      <trkpt lat="42.826765961945057" lon="-7.696795994415879">
        <ele>549.60000000000002</ele>
        <time>2018-05-20T10:48:06Z</time>
      </trkpt>
      <trkpt lat="42.826651968061924" lon="-7.696576975286007">
        <ele>548.89999999999998</ele>
        <time>2018-05-20T10:48:12Z</time>
      </trkpt>
      <trkpt lat="42.826530011370778" lon="-7.696386035531759">
        <ele>548.29999999999995</ele>
        <time>2018-05-20T10:48:17Z</time>
      </trkpt>
      <trkpt lat="42.826434038579464" lon="-7.696214038878679">
        <ele>548</ele>
        <time>2018-05-20T10:48:22Z</time>
      </trkpt>
      <trkpt lat="42.826308980584145" lon="-7.695914972573519">
        <ele>548.10000000000002</ele>
        <time>2018-05-20T10:48:30Z</time>
      </trkpt>
      <trkpt lat="42.826196998357773" lon="-7.695642979815602">
        <ele>548.20000000000005</ele>
        <time>2018-05-20T10:48:36Z</time>
      </trkpt>
      <trkpt lat="42.826080992817879" lon="-7.695275014266372">
        <ele>547.70000000000005</ele>
        <time>2018-05-20T10:48:45Z</time>
      </trkpt>
      <trkpt lat="42.826004968956113" lon="-7.695009978488088">
        <ele>546.60000000000002</ele>
        <time>2018-05-20T10:48:51Z</time>
      </trkpt>
      <trkpt lat="42.825930034741759" lon="-7.694685012102127">
        <ele>545.20000000000005</ele>
        <time>2018-05-20T10:48:59Z</time>
      </trkpt>
      <trkpt lat="42.825747979804873" lon="-7.694071959704161">
        <ele>542.89999999999998</ele>
        <time>2018-05-20T10:49:13Z</time>
      </trkpt>
      <trkpt lat="42.825583023950458" lon="-7.693578014150262">
        <ele>541.5</ele>
        <time>2018-05-20T10:49:25Z</time>
      </trkpt>
      <trkpt lat="42.825385965406895" lon="-7.69292900338769">
        <ele>539.79999999999995</ele>
        <time>2018-05-20T10:49:40Z</time>
      </trkpt>
      <trkpt lat="42.825218997895718" lon="-7.692361967638135">
        <ele>539.89999999999998</ele>
        <time>2018-05-20T10:49:53Z</time>
      </trkpt>
      <trkpt lat="42.825078014284372" lon="-7.691881014034152">
        <ele>538.89999999999998</ele>
        <time>2018-05-20T10:50:05Z</time>
      </trkpt>
      <trkpt lat="42.824986986815929" lon="-7.69168202765286">
        <ele>537.70000000000005</ele>
        <time>2018-05-20T10:50:10Z</time>
      </trkpt>
      <trkpt lat="42.824868969619274" lon="-7.69127600826323">
        <ele>535.79999999999995</ele>
        <time>2018-05-20T10:50:19Z</time>
      </trkpt>
      <trkpt lat="42.824723040685058" lon="-7.690821960568428">
        <ele>534.29999999999995</ele>
        <time>2018-05-20T10:50:30Z</time>
      </trkpt>
      <trkpt lat="42.824671994894743" lon="-7.690560026094317">
        <ele>533.70000000000005</ele>
        <time>2018-05-20T10:50:36Z</time>
      </trkpt>
      <trkpt lat="42.824657997116446" lon="-7.690507974475622">
        <ele>533.60000000000002</ele>
        <time>2018-05-20T10:50:37Z</time>
      </trkpt>
      <trkpt lat="42.824636958539486" lon="-7.690463969483972">
        <ele>533.39999999999998</ele>
        <time>2018-05-20T10:50:38Z</time>
      </trkpt>
      <trkpt lat="42.824599994346499" lon="-7.690389035269618">
        <ele>533.10000000000002</ele>
        <time>2018-05-20T10:50:40Z</time>
      </trkpt>
      <trkpt lat="42.824577027931809" lon="-7.690341006964445">
        <ele>533</ele>
        <time>2018-05-20T10:50:41Z</time>
      </trkpt>
      <trkpt lat="42.824552971869707" lon="-7.690306976437569">
        <ele>532.89999999999998</ele>
        <time>2018-05-20T10:50:42Z</time>
      </trkpt>
      <trkpt lat="42.824521036818624" lon="-7.690248973667622">
        <ele>532.89999999999998</ele>
        <time>2018-05-20T10:50:44Z</time>
      </trkpt>
      <trkpt lat="42.824491029605269" lon="-7.690206980332732">
        <ele>532.79999999999995</ele>
        <time>2018-05-20T10:50:45Z</time>
      </trkpt>
      <trkpt lat="42.824459010735154" lon="-7.690182002261281">
        <ele>532.70000000000005</ele>
        <time>2018-05-20T10:50:46Z</time>
      </trkpt>
      <trkpt lat="42.824421040713787" lon="-7.690153000876308">
        <ele>532.70000000000005</ele>
        <time>2018-05-20T10:50:48Z</time>
      </trkpt>
      <trkpt lat="42.824383992701769" lon="-7.690130034461618">
        <ele>532.60000000000002</ele>
        <time>2018-05-20T10:50:49Z</time>
      </trkpt>
      <trkpt lat="42.824353985488415" lon="-7.69009399227798">
        <ele>532.60000000000002</ele>
        <time>2018-05-20T10:50:50Z</time>
      </trkpt>
      <trkpt lat="42.824317021295428" lon="-7.690059039741755">
        <ele>532.5</ele>
        <time>2018-05-20T10:50:51Z</time>
      </trkpt>
      <trkpt lat="42.824277961626649" lon="-7.690035989508033">
        <ele>532.39999999999998</ele>
        <time>2018-05-20T10:50:53Z</time>
      </trkpt>
      <trkpt lat="42.824217025190592" lon="-7.689949991181493">
        <ele>532.39999999999998</ele>
        <time>2018-05-20T10:50:55Z</time>
      </trkpt>
      <trkpt lat="42.824176037684083" lon="-7.689881008118391">
        <ele>532.29999999999995</ele>
        <time>2018-05-20T10:50:57Z</time>
      </trkpt>
      <trkpt lat="42.824153993278742" lon="-7.689830968156457">
        <ele>532.29999999999995</ele>
        <time>2018-05-20T10:50:58Z</time>
      </trkpt>
      <trkpt lat="42.824120968580246" lon="-7.689761985093355">
        <ele>532.29999999999995</ele>
        <time>2018-05-20T10:51:00Z</time>
      </trkpt>
      <trkpt lat="42.824098002165556" lon="-7.689715968444943">
        <ele>532.29999999999995</ele>
        <time>2018-05-20T10:51:01Z</time>
      </trkpt>
      <trkpt lat="42.824074029922485" lon="-7.689675986766815">
        <ele>532.29999999999995</ele>
        <time>2018-05-20T10:51:03Z</time>
      </trkpt>
      <trkpt lat="42.824050979688764" lon="-7.689647991210222">
        <ele>532.29999999999995</ele>
        <time>2018-05-20T10:51:03Z</time>
      </trkpt>
      <trkpt lat="42.824014015495777" lon="-7.689613038673997">
        <ele>532.29999999999995</ele>
        <time>2018-05-20T10:51:05Z</time>
      </trkpt>
      <trkpt lat="42.823980990797281" lon="-7.689572973176837">
        <ele>532.29999999999995</ele>
        <time>2018-05-20T10:51:06Z</time>
      </trkpt>
      <trkpt lat="42.823930028825998" lon="-7.68951497040689">
        <ele>532.5</ele>
        <time>2018-05-20T10:51:08Z</time>
      </trkpt>
      <trkpt lat="42.823897004127502" lon="-7.689464008435607">
        <ele>532.70000000000005</ele>
        <time>2018-05-20T10:51:09Z</time>
      </trkpt>
      <trkpt lat="42.82386900857091" lon="-7.689415980130434">
        <ele>532.89999999999998</ele>
        <time>2018-05-20T10:51:11Z</time>
      </trkpt>
      <trkpt lat="42.823841013014317" lon="-7.689369963482022">
        <ele>533</ele>
        <time>2018-05-20T10:51:12Z</time>
      </trkpt>
      <trkpt lat="42.823803965002298" lon="-7.689317995682359">
        <ele>533.29999999999995</ele>
        <time>2018-05-20T10:51:14Z</time>
      </trkpt>
      <trkpt lat="42.823759960010648" lon="-7.689265022054315">
        <ele>533.5</ele>
        <time>2018-05-20T10:51:15Z</time>
      </trkpt>
      <trkpt lat="42.823734981939197" lon="-7.689214982092381">
        <ele>533.70000000000005</ele>
        <time>2018-05-20T10:51:17Z</time>
      </trkpt>
      <trkpt lat="42.823716960847378" lon="-7.689156979322434">
        <ele>533.89999999999998</ele>
        <time>2018-05-20T10:51:18Z</time>
      </trkpt>
      <trkpt lat="42.823692988604307" lon="-7.689077015966177">
        <ele>534.10000000000002</ele>
        <time>2018-05-20T10:51:20Z</time>
      </trkpt>
      <trkpt lat="42.823670022189617" lon="-7.689037034288049">
        <ele>534.20000000000005</ele>
        <time>2018-05-20T10:51:21Z</time>
      </trkpt>
      <trkpt lat="42.823622999712825" lon="-7.688938966020942">
        <ele>534.29999999999995</ele>
        <time>2018-05-20T10:51:24Z</time>
      </trkpt>
      <trkpt lat="42.823586035519838" lon="-7.688880963250995">
        <ele>534.29999999999995</ele>
        <time>2018-05-20T10:51:25Z</time>
      </trkpt>
      <trkpt lat="42.82354898750782" lon="-7.688811980187893">
        <ele>534.29999999999995</ele>
        <time>2018-05-20T10:51:27Z</time>
      </trkpt>
      <trkpt lat="42.823501965031028" lon="-7.688742997124791">
        <ele>534.20000000000005</ele>
        <time>2018-05-20T10:51:29Z</time>
      </trkpt>
      <trkpt lat="42.823469024151564" lon="-7.688703015446663">
        <ele>533.79999999999995</ele>
        <time>2018-05-20T10:51:31Z</time>
      </trkpt>
      <trkpt lat="42.823445973917842" lon="-7.688656998798251">
        <ele>533.60000000000002</ele>
        <time>2018-05-20T10:51:32Z</time>
      </trkpt>
      <trkpt lat="42.823427030816674" lon="-7.688608970493078">
        <ele>533.29999999999995</ele>
        <time>2018-05-20T10:51:33Z</time>
      </trkpt>
      <trkpt lat="42.823409009724855" lon="-7.688563037663698">
        <ele>533.10000000000002</ele>
        <time>2018-05-20T10:51:34Z</time>
      </trkpt>
      <trkpt lat="42.823384031653404" lon="-7.688502017408609">
        <ele>532.70000000000005</ele>
        <time>2018-05-20T10:51:36Z</time>
      </trkpt>
      <trkpt lat="42.823365004733205" lon="-7.688449965789914">
        <ele>532.5</ele>
        <time>2018-05-20T10:51:37Z</time>
      </trkpt>
      <trkpt lat="42.823337009176612" lon="-7.688399003818631">
        <ele>532.20000000000005</ele>
        <time>2018-05-20T10:51:38Z</time>
      </trkpt>
      <trkpt lat="42.823330974206328" lon="-7.688350975513458">
        <ele>532</ele>
        <time>2018-05-20T10:51:39Z</time>
      </trkpt>
      <trkpt lat="42.823312031105161" lon="-7.688299007713795">
        <ele>531.79999999999995</ele>
        <time>2018-05-20T10:51:41Z</time>
      </trkpt>
      <trkpt lat="42.823294010013342" lon="-7.688218038529158">
        <ele>531.5</ele>
        <time>2018-05-20T10:51:42Z</time>
      </trkpt>
      <trkpt lat="42.823270037770271" lon="-7.688164981082082">
        <ele>531.20000000000005</ele>
        <time>2018-05-20T10:51:44Z</time>
      </trkpt>
      <trkpt lat="42.823252016678452" lon="-7.68811896443367">
        <ele>531</ele>
        <time>2018-05-20T10:51:45Z</time>
      </trkpt>
      <trkpt lat="42.823232989758253" lon="-7.688066996634007">
        <ele>530.79999999999995</ele>
        <time>2018-05-20T10:51:46Z</time>
      </trkpt>
      <trkpt lat="42.82320499420166" lon="-7.688027014955878">
        <ele>530.60000000000002</ele>
        <time>2018-05-20T10:51:47Z</time>
      </trkpt>
      <trkpt lat="42.82318202778697" lon="-7.687980998307467">
        <ele>530.39999999999998</ele>
        <time>2018-05-20T10:51:49Z</time>
      </trkpt>
      <trkpt lat="42.823143973946571" lon="-7.687894999980927">
        <ele>530.10000000000002</ele>
        <time>2018-05-20T10:51:51Z</time>
      </trkpt>
      <trkpt lat="42.823107009753585" lon="-7.68783699721098">
        <ele>529.89999999999998</ele>
        <time>2018-05-20T10:51:52Z</time>
      </trkpt>
      <trkpt lat="42.82292403280735" lon="-7.687571961432695">
        <ele>529</ele>
        <time>2018-05-20T10:52:00Z</time>
      </trkpt>
      <trkpt lat="42.82268900424242" lon="-7.687159990891814">
        <ele>527.89999999999998</ele>
        <time>2018-05-20T10:52:12Z</time>
      </trkpt>
      <trkpt lat="42.822446012869477" lon="-7.686703009530902">
        <ele>528.10000000000002</ele>
        <time>2018-05-20T10:52:24Z</time>
      </trkpt>
      <trkpt lat="42.822308968752623" lon="-7.686393968760967">
        <ele>528.60000000000002</ele>
        <time>2018-05-20T10:52:32Z</time>
      </trkpt>
      <trkpt lat="42.822291031479836" lon="-7.686364967375994">
        <ele>528.60000000000002</ele>
        <time>2018-05-20T10:52:33Z</time>
      </trkpt>
      <trkpt lat="42.822255995124578" lon="-7.686326997354627">
        <ele>528.60000000000002</ele>
        <time>2018-05-20T10:52:34Z</time>
      </trkpt>
      <trkpt lat="42.822233028709888" lon="-7.686275029554963">
        <ele>528.60000000000002</ele>
        <time>2018-05-20T10:52:35Z</time>
      </trkpt>
      <trkpt lat="42.82219598069787" lon="-7.686211997643113">
        <ele>528.79999999999995</ele>
        <time>2018-05-20T10:52:37Z</time>
      </trkpt>
      <trkpt lat="42.822177037596703" lon="-7.686165980994701">
        <ele>529</ele>
        <time>2018-05-20T10:52:38Z</time>
      </trkpt>
      <trkpt lat="42.822163039818406" lon="-7.686091968789697">
        <ele>529.5</ele>
        <time>2018-05-20T10:52:40Z</time>
      </trkpt>
      <trkpt lat="42.822148958221078" lon="-7.686022985726595">
        <ele>529.89999999999998</ele>
        <time>2018-05-20T10:52:41Z</time>
      </trkpt>
      <trkpt lat="42.822134960442781" lon="-7.685951991006732">
        <ele>530.29999999999995</ele>
        <time>2018-05-20T10:52:43Z</time>
      </trkpt>
      <trkpt lat="42.822111994028091" lon="-7.685765996575356">
        <ele>531.60000000000002</ele>
        <time>2018-05-20T10:52:47Z</time>
      </trkpt>
      <trkpt lat="42.822111994028091" lon="-7.685758033767343">
        <ele>531.60000000000002</ele>
        <time>2018-05-20T10:52:47Z</time>
      </trkpt>
      <trkpt lat="42.822032030671835" lon="-7.685186974704266">
        <ele>534.10000000000002</ele>
        <time>2018-05-20T10:53:00Z</time>
      </trkpt>
      <trkpt lat="42.822025995701551" lon="-7.685186974704266">
        <ele>534.10000000000002</ele>
        <time>2018-05-20T10:53:00Z</time>
      </trkpt>
      <trkpt lat="42.821947038173676" lon="-7.684622034430504">
        <ele>534.60000000000002</ele>
        <time>2018-05-20T10:53:12Z</time>
      </trkpt>
      <trkpt lat="42.821824997663498" lon="-7.683985009789467">
        <ele>533.5</ele>
        <time>2018-05-20T10:53:27Z</time>
      </trkpt>
      <trkpt lat="42.821729024872184" lon="-7.683363994583488">
        <ele>533.29999999999995</ele>
        <time>2018-05-20T10:53:41Z</time>
      </trkpt>
      <trkpt lat="42.821729024872184" lon="-7.683357037603855">
        <ele>533.29999999999995</ele>
        <time>2018-05-20T10:53:41Z</time>
      </trkpt>
      <trkpt lat="42.821685019880533" lon="-7.682873988524079">
        <ele>533.79999999999995</ele>
        <time>2018-05-20T10:53:51Z</time>
      </trkpt>
      <trkpt lat="42.82161402516067" lon="-7.682439973577857">
        <ele>535.29999999999995</ele>
        <time>2018-05-20T10:54:01Z</time>
      </trkpt>
      <trkpt lat="42.821530038490891" lon="-7.682012999430299">
        <ele>537.20000000000005</ele>
        <time>2018-05-20T10:54:11Z</time>
      </trkpt>
      <trkpt lat="42.821457032114267" lon="-7.681540008634329">
        <ele>539</ele>
        <time>2018-05-20T10:54:21Z</time>
      </trkpt>
      <trkpt lat="42.821367010474205" lon="-7.68106902949512">
        <ele>540.89999999999998</ele>
        <time>2018-05-20T10:54:32Z</time>
      </trkpt>
      <trkpt lat="42.821300961077213" lon="-7.680621016770601">
        <ele>542.29999999999995</ele>
        <time>2018-05-20T10:54:42Z</time>
      </trkpt>
      <trkpt lat="42.821244969964027" lon="-7.680266965180636">
        <ele>543.60000000000002</ele>
        <time>2018-05-20T10:54:49Z</time>
      </trkpt>
      <trkpt lat="42.821154026314616" lon="-7.679859017953277">
        <ele>545.5</ele>
        <time>2018-05-20T10:54:59Z</time>
      </trkpt>
      <trkpt lat="42.821115972474217" lon="-7.679519969969988">
        <ele>546.70000000000005</ele>
        <time>2018-05-20T10:55:06Z</time>
      </trkpt>
      <trkpt lat="42.821110021322966" lon="-7.679508989676833">
        <ele>546.70000000000005</ele>
        <time>2018-05-20T10:55:06Z</time>
      </trkpt>
      <trkpt lat="42.821096023544669" lon="-7.679446041584015">
        <ele>546.79999999999995</ele>
        <time>2018-05-20T10:55:08Z</time>
      </trkpt>
      <trkpt lat="42.82107699662447" lon="-7.679388038814068">
        <ele>547</ele>
        <time>2018-05-20T10:55:09Z</time>
      </trkpt>
      <trkpt lat="42.821044977754354" lon="-7.67930799163878">
        <ele>547.20000000000005</ele>
        <time>2018-05-20T10:55:11Z</time>
      </trkpt>
      <trkpt lat="42.821026034653187" lon="-7.679261974990368">
        <ele>547.29999999999995</ele>
        <time>2018-05-20T10:55:12Z</time>
      </trkpt>
      <trkpt lat="42.821007007732987" lon="-7.679215958341956">
        <ele>547.39999999999998</ele>
        <time>2018-05-20T10:55:13Z</time>
      </trkpt>
      <trkpt lat="42.820984041318297" lon="-7.679153010249138">
        <ele>547.5</ele>
        <time>2018-05-20T10:55:15Z</time>
      </trkpt>
      <trkpt lat="42.820960991084576" lon="-7.679088972508907">
        <ele>547.60000000000002</ele>
        <time>2018-05-20T10:55:17Z</time>
      </trkpt>
      <trkpt lat="42.820932995527983" lon="-7.679035998880863">
        <ele>547.70000000000005</ele>
        <time>2018-05-20T10:55:18Z</time>
      </trkpt>
      <trkpt lat="42.820856971666217" lon="-7.678914964199066">
        <ele>547.89999999999998</ele>
        <time>2018-05-20T10:55:21Z</time>
      </trkpt>
      <trkpt lat="42.820731997489929" lon="-7.678703991696239">
        <ele>548.10000000000002</ele>
        <time>2018-05-20T10:55:27Z</time>
      </trkpt>
      <trkpt lat="42.820564024150372" lon="-7.678490001708269">
        <ele>548.20000000000005</ele>
        <time>2018-05-20T10:55:34Z</time>
      </trkpt>
      <trkpt lat="42.820428991690278" lon="-7.678335020318627">
        <ele>548.5</ele>
        <time>2018-05-20T10:55:39Z</time>
      </trkpt>
      <trkpt lat="42.820336958393455" lon="-7.678161012008786">
        <ele>548.5</ele>
        <time>2018-05-20T10:55:44Z</time>
      </trkpt>
      <trkpt lat="42.820271998643875" lon="-7.678001001477242">
        <ele>548.60000000000002</ele>
        <time>2018-05-20T10:55:48Z</time>
      </trkpt>
      <trkpt lat="42.820236040279269" lon="-7.677862029522657">
        <ele>548.39999999999998</ele>
        <time>2018-05-20T10:55:51Z</time>
      </trkpt>
      <trkpt lat="42.82019798643887" lon="-7.677619038149715">
        <ele>547.29999999999995</ele>
        <time>2018-05-20T10:55:57Z</time>
      </trkpt>
      <trkpt lat="42.820040993392467" lon="-7.67733103595674">
        <ele>546.20000000000005</ele>
        <time>2018-05-20T10:56:04Z</time>
      </trkpt>
      <trkpt lat="42.819932028651237" lon="-7.677087960764766">
        <ele>545.20000000000005</ele>
        <time>2018-05-20T10:56:11Z</time>
      </trkpt>
      <trkpt lat="42.819822980090976" lon="-7.676870031282306">
        <ele>544.10000000000002</ele>
        <time>2018-05-20T10:56:16Z</time>
      </trkpt>
      <trkpt lat="42.819693982601166" lon="-7.676695017144084">
        <ele>543.10000000000002</ele>
        <time>2018-05-20T10:56:22Z</time>
      </trkpt>
      <trkpt lat="42.819679984822869" lon="-7.67666500993073">
        <ele>542.89999999999998</ele>
        <time>2018-05-20T10:56:22Z</time>
      </trkpt>
      <trkpt lat="42.81966196373105" lon="-7.676618993282318">
        <ele>542.60000000000002</ele>
        <time>2018-05-20T10:56:24Z</time>
      </trkpt>
      <trkpt lat="42.819633968174458" lon="-7.676589991897345">
        <ele>542.39999999999998</ele>
        <time>2018-05-20T10:56:25Z</time>
      </trkpt>
      <trkpt lat="42.81959499232471" lon="-7.676589991897345">
        <ele>542.39999999999998</ele>
        <time>2018-05-20T10:56:26Z</time>
      </trkpt>
      <trkpt lat="42.819556016474962" lon="-7.676596026867628">
        <ele>542.20000000000005</ele>
        <time>2018-05-20T10:56:27Z</time>
      </trkpt>
      <trkpt lat="42.819514023140073" lon="-7.676618993282318">
        <ele>541.89999999999998</ele>
        <time>2018-05-20T10:56:28Z</time>
      </trkpt>
      <trkpt lat="42.819473035633564" lon="-7.676643971353769">
        <ele>541.60000000000002</ele>
        <time>2018-05-20T10:56:30Z</time>
      </trkpt>
      <trkpt lat="42.819435987621546" lon="-7.676655035465956">
        <ele>541.20000000000005</ele>
        <time>2018-05-20T10:56:31Z</time>
      </trkpt>
      <trkpt lat="42.819388965144753" lon="-7.676655035465956">
        <ele>540.70000000000005</ele>
        <time>2018-05-20T10:56:32Z</time>
      </trkpt>
      <trkpt lat="42.81933800317347" lon="-7.676655035465956">
        <ele>540.10000000000002</ele>
        <time>2018-05-20T10:56:34Z</time>
      </trkpt>
      <trkpt lat="42.819285029545426" lon="-7.676655035465956">
        <ele>539.5</ele>
        <time>2018-05-20T10:56:35Z</time>
      </trkpt>
      <trkpt lat="42.819234989583492" lon="-7.676618993282318">
        <ele>538.79999999999995</ele>
        <time>2018-05-20T10:56:37Z</time>
      </trkpt>
      <trkpt lat="42.819201964884996" lon="-7.676585968583822">
        <ele>538.20000000000005</ele>
        <time>2018-05-20T10:56:38Z</time>
      </trkpt>
      <trkpt lat="42.819168018177152" lon="-7.676567025482655">
        <ele>537.70000000000005</ele>
        <time>2018-05-20T10:56:39Z</time>
      </trkpt>
      <trkpt lat="42.819132981821895" lon="-7.676529977470636">
        <ele>537.10000000000002</ele>
        <time>2018-05-20T10:56:41Z</time>
      </trkpt>
      <trkpt lat="42.819003984332085" lon="-7.676354041323066">
        <ele>534.89999999999998</ele>
        <time>2018-05-20T10:56:46Z</time>
      </trkpt>
      <trkpt lat="42.818884961307049" lon="-7.676225965842605">
        <ele>533.39999999999998</ele>
        <time>2018-05-20T10:56:51Z</time>
      </trkpt>
      <trkpt lat="42.818756969645619" lon="-7.676109038293362">
        <ele>532.60000000000002</ele>
        <time>2018-05-20T10:56:55Z</time>
      </trkpt>
      <trkpt lat="42.818684969097376" lon="-7.676023039966822">
        <ele>532.29999999999995</ele>
        <time>2018-05-20T10:56:58Z</time>
      </trkpt>
      <trkpt lat="42.818457987159491" lon="-7.675850037485361">
        <ele>531.5</ele>
        <time>2018-05-20T10:57:06Z</time>
      </trkpt>
      <trkpt lat="42.818300994113088" lon="-7.6757219620049">
        <ele>531.20000000000005</ele>
        <time>2018-05-20T10:57:11Z</time>
      </trkpt>
      <trkpt lat="42.818188006058335" lon="-7.675664965063334">
        <ele>530.79999999999995</ele>
        <time>2018-05-20T10:57:15Z</time>
      </trkpt>
      <trkpt lat="42.818029001355171" lon="-7.675554994493723">
        <ele>530.60000000000002</ele>
        <time>2018-05-20T10:57:20Z</time>
      </trkpt>
      <trkpt lat="42.8178979922086" lon="-7.675491962581873">
        <ele>530.29999999999995</ele>
        <time>2018-05-20T10:57:24Z</time>
      </trkpt>
      <trkpt lat="42.81787502579391" lon="-7.675475031137466">
        <ele>530.20000000000005</ele>
        <time>2018-05-20T10:57:25Z</time>
      </trkpt>
      <trkpt lat="42.817842001095414" lon="-7.675451980903745">
        <ele>530.10000000000002</ele>
        <time>2018-05-20T10:57:26Z</time>
      </trkpt>
      <trkpt lat="42.817805036902428" lon="-7.675422979518771">
        <ele>530</ele>
        <time>2018-05-20T10:57:27Z</time>
      </trkpt>
      <trkpt lat="42.817758014425635" lon="-7.675400013104081">
        <ele>529.79999999999995</ele>
        <time>2018-05-20T10:57:29Z</time>
      </trkpt>
      <trkpt lat="42.817716021090746" lon="-7.675382997840643">
        <ele>529.60000000000002</ele>
        <time>2018-05-20T10:57:30Z</time>
      </trkpt>
      <trkpt lat="42.817678973078728" lon="-7.675353996455669">
        <ele>529.60000000000002</ele>
        <time>2018-05-20T10:57:31Z</time>
      </trkpt>
      <trkpt lat="42.817646032199264" lon="-7.675336981192231">
        <ele>529.5</ele>
        <time>2018-05-20T10:57:32Z</time>
      </trkpt>
      <trkpt lat="42.817608984187245" lon="-7.675307979807258">
        <ele>529.39999999999998</ele>
        <time>2018-05-20T10:57:33Z</time>
      </trkpt>
      <trkpt lat="42.817572019994259" lon="-7.675274033099413">
        <ele>529.39999999999998</ele>
        <time>2018-05-20T10:57:35Z</time>
      </trkpt>
      <trkpt lat="42.81753396615386" lon="-7.675245031714439">
        <ele>529.29999999999995</ele>
        <time>2018-05-20T10:57:36Z</time>
      </trkpt>
      <trkpt lat="42.817505970597267" lon="-7.675221981480718">
        <ele>529.29999999999995</ele>
        <time>2018-05-20T10:57:37Z</time>
      </trkpt>
      <trkpt lat="42.817474035546184" lon="-7.675199015066028">
        <ele>529.20000000000005</ele>
        <time>2018-05-20T10:57:38Z</time>
      </trkpt>
      <trkpt lat="42.817441010847688" lon="-7.675164984539151">
        <ele>529.20000000000005</ele>
        <time>2018-05-20T10:57:39Z</time>
      </trkpt>
      <trkpt lat="42.817399017512798" lon="-7.675142018124461">
        <ele>529.10000000000002</ele>
        <time>2018-05-20T10:57:41Z</time>
      </trkpt>
      <trkpt lat="42.817357024177909" lon="-7.675106981769204">
        <ele>529</ele>
        <time>2018-05-20T10:57:42Z</time>
      </trkpt>
      <trkpt lat="42.817325005307794" lon="-7.675078986212611">
        <ele>529</ele>
        <time>2018-05-20T10:57:43Z</time>
      </trkpt>
      <trkpt lat="42.817287035286427" lon="-7.675061970949173">
        <ele>528.79999999999995</ele>
        <time>2018-05-20T10:57:44Z</time>
      </trkpt>
      <trkpt lat="42.817261973395944" lon="-7.675036992877722">
        <ele>528.79999999999995</ele>
        <time>2018-05-20T10:57:45Z</time>
      </trkpt>
      <trkpt lat="42.81723297201097" lon="-7.675007991492748">
        <ele>528.79999999999995</ele>
        <time>2018-05-20T10:57:46Z</time>
      </trkpt>
      <trkpt lat="42.817190978676081" lon="-7.67496800981462">
        <ele>528.70000000000005</ele>
        <time>2018-05-20T10:57:48Z</time>
      </trkpt>
      <trkpt lat="42.817158037796617" lon="-7.674932973459363">
        <ele>528.70000000000005</ele>
        <time>2018-05-20T10:57:49Z</time>
      </trkpt>
      <trkpt lat="42.817120989784598" lon="-7.674899026751518">
        <ele>528.70000000000005</ele>
        <time>2018-05-20T10:57:50Z</time>
      </trkpt>
      <trkpt lat="42.817098023369908" lon="-7.674841023981571">
        <ele>529</ele>
        <time>2018-05-20T10:57:52Z</time>
      </trkpt>
      <trkpt lat="42.817070027813315" lon="-7.674800958484411">
        <ele>529</ele>
        <time>2018-05-20T10:57:53Z</time>
      </trkpt>
      <trkpt lat="42.817044965922832" lon="-7.674746979027987">
        <ele>529.20000000000005</ele>
        <time>2018-05-20T10:57:55Z</time>
      </trkpt>
      <trkpt lat="42.817020993679762" lon="-7.674696017056704">
        <ele>529.39999999999998</ele>
        <time>2018-05-20T10:57:56Z</time>
      </trkpt>
      <trkpt lat="42.816982017830014" lon="-7.674647988751531">
        <ele>529.39999999999998</ele>
        <time>2018-05-20T10:57:57Z</time>
      </trkpt>
      <trkpt lat="42.816957039758563" lon="-7.674611024558544">
        <ele>529.39999999999998</ele>
        <time>2018-05-20T10:57:58Z</time>
      </trkpt>
      <trkpt lat="42.816922003403306" lon="-7.674591997638345">
        <ele>529.20000000000005</ele>
        <time>2018-05-20T10:58:00Z</time>
      </trkpt>
      <trkpt lat="42.816825024783611" lon="-7.674535000696778">
        <ele>528.5</ele>
        <time>2018-05-20T10:58:03Z</time>
      </trkpt>
      <trkpt lat="42.816707007586956" lon="-7.674384964630008">
        <ele>528.29999999999995</ele>
        <time>2018-05-20T10:58:07Z</time>
      </trkpt>
      <trkpt lat="42.816682029515505" lon="-7.674356969073415">
        <ele>528.20000000000005</ele>
        <time>2018-05-20T10:58:08Z</time>
      </trkpt>
      <trkpt lat="42.816621009260416" lon="-7.674282034859061">
        <ele>528</ele>
        <time>2018-05-20T10:58:11Z</time>
      </trkpt>
      <trkpt lat="42.816593013703823" lon="-7.67425898462534">
        <ele>527.79999999999995</ele>
        <time>2018-05-20T10:58:12Z</time>
      </trkpt>
      <trkpt lat="42.81656501814723" lon="-7.674219002947211">
        <ele>527.79999999999995</ele>
        <time>2018-05-20T10:58:13Z</time>
      </trkpt>
      <trkpt lat="42.816546997055411" lon="-7.674161000177264">
        <ele>527.89999999999998</ele>
        <time>2018-05-20T10:58:14Z</time>
      </trkpt>
      <trkpt lat="42.816519001498818" lon="-7.674104003235698">
        <ele>528</ele>
        <time>2018-05-20T10:58:16Z</time>
      </trkpt>
      <trkpt lat="42.816505003720522" lon="-7.674040971323848">
        <ele>528.20000000000005</ele>
        <time>2018-05-20T10:58:17Z</time>
      </trkpt>
      <trkpt lat="42.816491005942225" lon="-7.673989003524184">
        <ele>528.39999999999998</ele>
        <time>2018-05-20T10:58:19Z</time>
      </trkpt>
      <trkpt lat="42.816467033699155" lon="-7.673942986875773">
        <ele>528.39999999999998</ele>
        <time>2018-05-20T10:58:20Z</time>
      </trkpt>
      <trkpt lat="42.816453035920858" lon="-7.673874003812671">
        <ele>528.70000000000005</ele>
        <time>2018-05-20T10:58:21Z</time>
      </trkpt>
      <trkpt lat="42.816425040364265" lon="-7.673810971900821">
        <ele>528.70000000000005</ele>
        <time>2018-05-20T10:58:23Z</time>
      </trkpt>
      <trkpt lat="42.816407019272447" lon="-7.673748023808003">
        <ele>528.89999999999998</ele>
        <time>2018-05-20T10:58:24Z</time>
      </trkpt>
      <trkpt lat="42.816382041200995" lon="-7.67368096858263">
        <ele>528.5</ele>
        <time>2018-05-20T10:58:26Z</time>
      </trkpt>
      <trkpt lat="42.816335018724203" lon="-7.673440994694829">
        <ele>527.79999999999995</ele>
        <time>2018-05-20T10:58:31Z</time>
      </trkpt>
      <trkpt lat="42.81628598459065" lon="-7.673158021643758">
        <ele>526.79999999999995</ele>
        <time>2018-05-20T10:58:38Z</time>
      </trkpt>
      <trkpt lat="42.816280033439398" lon="-7.673165984451771">
        <ele>526.70000000000005</ele>
        <time>2018-05-20T10:58:38Z</time>
      </trkpt>
      <trkpt lat="42.816276010125875" lon="-7.673019971698523">
        <ele>526.5</ele>
        <time>2018-05-20T10:58:41Z</time>
      </trkpt>
      <trkpt lat="42.816248014569283" lon="-7.672759965062141">
        <ele>525.79999999999995</ele>
        <time>2018-05-20T10:58:47Z</time>
      </trkpt>
      <trkpt lat="42.816248014569283" lon="-7.672724006697536">
        <ele>525.70000000000005</ele>
        <time>2018-05-20T10:58:48Z</time>
      </trkpt>
      <trkpt lat="42.816248014569283" lon="-7.672672038897872">
        <ele>525.70000000000005</ele>
        <time>2018-05-20T10:58:49Z</time>
      </trkpt>
      <trkpt lat="42.816248014569283" lon="-7.672597020864487">
        <ele>525.60000000000002</ele>
        <time>2018-05-20T10:58:50Z</time>
      </trkpt>
      <trkpt lat="42.816248014569283" lon="-7.672528037801385">
        <ele>525.5</ele>
        <time>2018-05-20T10:58:52Z</time>
      </trkpt>
      <trkpt lat="42.816248014569283" lon="-7.67247699201107">
        <ele>525.39999999999998</ele>
        <time>2018-05-20T10:58:53Z</time>
      </trkpt>
      <trkpt lat="42.816248014569283" lon="-7.672418989241123">
        <ele>525.39999999999998</ele>
        <time>2018-05-20T10:58:54Z</time>
      </trkpt>
      <trkpt lat="42.81624298542738" lon="-7.672332990914583">
        <ele>525.20000000000005</ele>
        <time>2018-05-20T10:58:56Z</time>
      </trkpt>
      <trkpt lat="42.81624298542738" lon="-7.672255961224437">
        <ele>525.10000000000002</ele>
        <time>2018-05-20T10:58:58Z</time>
      </trkpt>
      <trkpt lat="42.816238040104508" lon="-7.672186978161335">
        <ele>525</ele>
        <time>2018-05-20T10:58:59Z</time>
      </trkpt>
      <trkpt lat="42.816228987649083" lon="-7.672129981219769">
        <ele>524.79999999999995</ele>
        <time>2018-05-20T10:59:01Z</time>
      </trkpt>
      <trkpt lat="42.81622395850718" lon="-7.672060998156667">
        <ele>524.70000000000005</ele>
        <time>2018-05-20T10:59:02Z</time>
      </trkpt>
      <trkpt lat="42.816214989870787" lon="-7.672021016478539">
        <ele>524.70000000000005</ele>
        <time>2018-05-20T10:59:03Z</time>
      </trkpt>
      <trkpt lat="42.816195962950587" lon="-7.671957984566689">
        <ele>524.70000000000005</ele>
        <time>2018-05-20T10:59:04Z</time>
      </trkpt>
      <trkpt lat="42.816181965172291" lon="-7.671889001503587">
        <ele>524.70000000000005</ele>
        <time>2018-05-20T10:59:06Z</time>
      </trkpt>
      <trkpt lat="42.816170984879136" lon="-7.671828987076879">
        <ele>524.79999999999995</ele>
        <time>2018-05-20T10:59:07Z</time>
      </trkpt>
      <trkpt lat="42.816106025129557" lon="-7.671634024009109">
        <ele>524.5</ele>
        <time>2018-05-20T10:59:12Z</time>
      </trkpt>
      <trkpt lat="42.816099990159273" lon="-7.671625977382064">
        <ele>524.5</ele>
        <time>2018-05-20T10:59:12Z</time>
      </trkpt>
      <trkpt lat="42.816041987389326" lon="-7.67146403901279">
        <ele>524.20000000000005</ele>
        <time>2018-05-20T10:59:16Z</time>
      </trkpt>
      <trkpt lat="42.815939979627728" lon="-7.671225992962718">
        <ele>523.70000000000005</ele>
        <time>2018-05-20T10:59:22Z</time>
      </trkpt>
      <trkpt lat="42.815930005162954" lon="-7.671194979920983">
        <ele>523.70000000000005</ele>
        <time>2018-05-20T10:59:23Z</time>
      </trkpt>
      <trkpt lat="42.815925981849432" lon="-7.6711440179497">
        <ele>523.89999999999998</ele>
        <time>2018-05-20T10:59:24Z</time>
      </trkpt>
      <trkpt lat="42.815902009606361" lon="-7.671098001301289">
        <ele>523.79999999999995</ele>
        <time>2018-05-20T10:59:25Z</time>
      </trkpt>
      <trkpt lat="42.815888011828065" lon="-7.671046033501625">
        <ele>523.89999999999998</ele>
        <time>2018-05-20T10:59:26Z</time>
      </trkpt>
      <trkpt lat="42.815864961594343" lon="-7.670989036560059">
        <ele>523.89999999999998</ele>
        <time>2018-05-20T10:59:28Z</time>
      </trkpt>
      <trkpt lat="42.815850963816047" lon="-7.670931033790112">
        <ele>524</ele>
        <time>2018-05-20T10:59:29Z</time>
      </trkpt>
      <trkpt lat="42.81583696603775" lon="-7.670868001878262">
        <ele>524.10000000000002</ele>
        <time>2018-05-20T10:59:31Z</time>
      </trkpt>
      <trkpt lat="42.815822968259454" lon="-7.670816034078598">
        <ele>524.20000000000005</ele>
        <time>2018-05-20T10:59:32Z</time>
      </trkpt>
      <trkpt lat="42.815789021551609" lon="-7.670762976631522">
        <ele>524</ele>
        <time>2018-05-20T10:59:33Z</time>
      </trkpt>
      <trkpt lat="42.81576999463141" lon="-7.670704973861575">
        <ele>524.10000000000002</ele>
        <time>2018-05-20T10:59:35Z</time>
      </trkpt>
      <trkpt lat="42.81574702821672" lon="-7.670647976920009">
        <ele>524.10000000000002</ele>
        <time>2018-05-20T10:59:36Z</time>
      </trkpt>
      <trkpt lat="42.815736969932914" lon="-7.670589974150062">
        <ele>524.29999999999995</ele>
        <time>2018-05-20T10:59:37Z</time>
      </trkpt>
      <trkpt lat="42.815719032660127" lon="-7.670544041320682">
        <ele>524.29999999999995</ele>
        <time>2018-05-20T10:59:39Z</time>
      </trkpt>
      <trkpt lat="42.815700005739927" lon="-7.670481009408832">
        <ele>524.39999999999998</ele>
        <time>2018-05-20T10:59:40Z</time>
      </trkpt>
      <trkpt lat="42.815686007961631" lon="-7.670429041609168">
        <ele>524.5</ele>
        <time>2018-05-20T10:59:41Z</time>
      </trkpt>
      <trkpt lat="42.815672010183334" lon="-7.670366009697318">
        <ele>524.60000000000002</ele>
        <time>2018-05-20T10:59:43Z</time>
      </trkpt>
      <trkpt lat="42.815658012405038" lon="-7.670291997492313">
        <ele>524.89999999999998</ele>
        <time>2018-05-20T10:59:44Z</time>
      </trkpt>
      <trkpt lat="42.815644014626741" lon="-7.670227959752083">
        <ele>525.10000000000002</ele>
        <time>2018-05-20T10:59:46Z</time>
      </trkpt>
      <trkpt lat="42.815625993534923" lon="-7.670183032751083">
        <ele>525.20000000000005</ele>
        <time>2018-05-20T10:59:47Z</time>
      </trkpt>
      <trkpt lat="42.815602021291852" lon="-7.670137016102672">
        <ele>525.20000000000005</ele>
        <time>2018-05-20T10:59:48Z</time>
      </trkpt>
      <trkpt lat="42.815587017685175" lon="-7.670088987797499">
        <ele>525.39999999999998</ele>
        <time>2018-05-20T10:59:49Z</time>
      </trkpt>
      <trkpt lat="42.815478974953294" lon="-7.669868962839246">
        <ele>526</ele>
        <time>2018-05-20T10:59:55Z</time>
      </trkpt>
      <trkpt lat="42.815421978011727" lon="-7.669699983671308">
        <ele>527</ele>
        <time>2018-05-20T10:59:59Z</time>
      </trkpt>
      <trkpt lat="42.81536104157567" lon="-7.669523963704705">
        <ele>528</ele>
        <time>2018-05-20T11:00:03Z</time>
      </trkpt>
      <trkpt lat="42.815258027985692" lon="-7.669238978996873">
        <ele>528.70000000000005</ele>
        <time>2018-05-20T11:00:10Z</time>
      </trkpt>
      <trkpt lat="42.815248975530267" lon="-7.669221963733435">
        <ele>528.79999999999995</ele>
        <time>2018-05-20T11:00:11Z</time>
      </trkpt>
      <trkpt lat="42.815230032429099" lon="-7.669169995933771">
        <ele>528.89999999999998</ele>
        <time>2018-05-20T11:00:12Z</time>
      </trkpt>
      <trkpt lat="42.815216034650803" lon="-7.669118028134108">
        <ele>529.10000000000002</ele>
        <time>2018-05-20T11:00:13Z</time>
      </trkpt>
      <trkpt lat="42.815204970538616" lon="-7.669047033414245">
        <ele>529.29999999999995</ele>
        <time>2018-05-20T11:00:15Z</time>
      </trkpt>
      <trkpt lat="42.81519097276032" lon="-7.668990036472678">
        <ele>529.5</ele>
        <time>2018-05-20T11:00:16Z</time>
      </trkpt>
      <trkpt lat="42.815173035487533" lon="-7.668937984853983">
        <ele>529.70000000000005</ele>
        <time>2018-05-20T11:00:17Z</time>
      </trkpt>
      <trkpt lat="42.81514897942543" lon="-7.668886017054319">
        <ele>529.79999999999995</ele>
        <time>2018-05-20T11:00:19Z</time>
      </trkpt>
      <trkpt lat="42.81512601301074" lon="-7.668829020112753">
        <ele>530</ele>
        <time>2018-05-20T11:00:20Z</time>
      </trkpt>
      <trkpt lat="42.81508301384747" lon="-7.668763976544142">
        <ele>530.10000000000002</ele>
        <time>2018-05-20T11:00:22Z</time>
      </trkpt>
      <trkpt lat="42.8150590416044" lon="-7.668723994866014">
        <ele>530.20000000000005</ele>
        <time>2018-05-20T11:00:23Z</time>
      </trkpt>
      <trkpt lat="42.815035991370678" lon="-7.668677978217602">
        <ele>530.10000000000002</ele>
        <time>2018-05-20T11:00:24Z</time>
      </trkpt>
      <trkpt lat="42.815013024955988" lon="-7.668643025681377">
        <ele>530.10000000000002</ele>
        <time>2018-05-20T11:00:25Z</time>
      </trkpt>
      <trkpt lat="42.814993998035789" lon="-7.668602960184217">
        <ele>530.10000000000002</ele>
        <time>2018-05-20T11:00:26Z</time>
      </trkpt>
      <trkpt lat="42.814980000257492" lon="-7.668557027354837">
        <ele>530.10000000000002</ele>
        <time>2018-05-20T11:00:27Z</time>
      </trkpt>
      <trkpt lat="42.814960973337293" lon="-7.66850003041327">
        <ele>530.10000000000002</ele>
        <time>2018-05-20T11:00:29Z</time>
      </trkpt>
      <trkpt lat="42.814952004700899" lon="-7.668452002108097">
        <ele>530.10000000000002</ele>
        <time>2018-05-20T11:00:30Z</time>
      </trkpt>
      <trkpt lat="42.814917974174023" lon="-7.668274976313114">
        <ele>530.10000000000002</ele>
        <time>2018-05-20T11:00:34Z</time>
      </trkpt>
      <trkpt lat="42.814845973625779" lon="-7.66798596829176">
        <ele>530.29999999999995</ele>
        <time>2018-05-20T11:00:40Z</time>
      </trkpt>
      <trkpt lat="42.814765004441142" lon="-7.667754041031003">
        <ele>529.70000000000005</ele>
        <time>2018-05-20T11:00:46Z</time>
      </trkpt>
      <trkpt lat="42.814742038026452" lon="-7.667701989412308">
        <ele>529.5</ele>
        <time>2018-05-20T11:00:47Z</time>
      </trkpt>
      <trkpt lat="42.814713958650827" lon="-7.667615991085768">
        <ele>529.29999999999995</ele>
        <time>2018-05-20T11:00:49Z</time>
      </trkpt>
      <trkpt lat="42.814685963094234" lon="-7.667558994144201">
        <ele>529.10000000000002</ele>
        <time>2018-05-20T11:00:51Z</time>
      </trkpt>
      <trkpt lat="42.814661990851164" lon="-7.6674900110811">
        <ele>528.89999999999998</ele>
        <time>2018-05-20T11:00:52Z</time>
      </trkpt>
      <trkpt lat="42.814633995294571" lon="-7.667421028017998">
        <ele>528.79999999999995</ele>
        <time>2018-05-20T11:00:54Z</time>
      </trkpt>
      <trkpt lat="42.814621003344655" lon="-7.667368976399303">
        <ele>528.60000000000002</ele>
        <time>2018-05-20T11:00:55Z</time>
      </trkpt>
      <trkpt lat="42.814611028879881" lon="-7.667316002771258">
        <ele>528.5</ele>
        <time>2018-05-20T11:00:57Z</time>
      </trkpt>
      <trkpt lat="42.814518995583057" lon="-7.667113998904824">
        <ele>528.10000000000002</ele>
        <time>2018-05-20T11:01:02Z</time>
      </trkpt>
      <trkpt lat="42.814253037795424" lon="-7.66654402948916">
        <ele>524.60000000000002</ele>
        <time>2018-05-20T11:01:16Z</time>
      </trkpt>
      <trkpt lat="42.81405103392899" lon="-7.666144967079163">
        <ele>522.60000000000002</ele>
        <time>2018-05-20T11:01:27Z</time>
      </trkpt>
      <trkpt lat="42.813871996477246" lon="-7.665700977668166">
        <ele>519.60000000000002</ele>
        <time>2018-05-20T11:01:38Z</time>
      </trkpt>
      <trkpt lat="42.813667980954051" lon="-7.665208959951997">
        <ele>515.70000000000005</ele>
        <time>2018-05-20T11:01:50Z</time>
      </trkpt>
      <trkpt lat="42.813535965979099" lon="-7.664858009666205">
        <ele>512.10000000000002</ele>
        <time>2018-05-20T11:01:59Z</time>
      </trkpt>
      <trkpt lat="42.813443010672927" lon="-7.664647959172726">
        <ele>510</ele>
        <time>2018-05-20T11:02:04Z</time>
      </trkpt>
      <trkpt lat="42.813325999304652" lon="-7.664464982226491">
        <ele>508.39999999999998</ele>
        <time>2018-05-20T11:02:10Z</time>
      </trkpt>
      <trkpt lat="42.813216028735042" lon="-7.664337996393442">
        <ele>507.39999999999998</ele>
        <time>2018-05-20T11:02:14Z</time>
      </trkpt>
      <trkpt lat="42.813037997111678" lon="-7.664227019995451">
        <ele>506.5</ele>
        <time>2018-05-20T11:02:20Z</time>
      </trkpt>
      <trkpt lat="42.812888966873288" lon="-7.664067009463906">
        <ele>504.89999999999998</ele>
        <time>2018-05-20T11:02:25Z</time>
      </trkpt>
      <trkpt lat="42.812878992408514" lon="-7.664058962836862">
        <ele>504.80000000000001</ele>
        <time>2018-05-20T11:02:26Z</time>
      </trkpt>
      <trkpt lat="42.812786037102342" lon="-7.663874980062246">
        <ele>502.89999999999998</ele>
        <time>2018-05-20T11:02:30Z</time>
      </trkpt>
      <trkpt lat="42.812776984646916" lon="-7.663852013647556">
        <ele>502.69999999999999</ele>
        <time>2018-05-20T11:02:31Z</time>
      </trkpt>
      <trkpt lat="42.812758041545749" lon="-7.66379501670599">
        <ele>502.19999999999999</ele>
        <time>2018-05-20T11:02:32Z</time>
      </trkpt>
      <trkpt lat="42.812743959948421" lon="-7.663749000057578">
        <ele>501.80000000000001</ele>
        <time>2018-05-20T11:02:33Z</time>
      </trkpt>
      <trkpt lat="42.812743959948421" lon="-7.663690997287631">
        <ele>501.10000000000002</ele>
        <time>2018-05-20T11:02:35Z</time>
      </trkpt>
      <trkpt lat="42.812743959948421" lon="-7.663634000346065">
        <ele>500.5</ele>
        <time>2018-05-20T11:02:36Z</time>
      </trkpt>
      <trkpt lat="42.812743959948421" lon="-7.663565017282963">
        <ele>499.69999999999999</ele>
        <time>2018-05-20T11:02:38Z</time>
      </trkpt>
      <trkpt lat="42.812743959948421" lon="-7.663507014513016">
        <ele>499</ele>
        <time>2018-05-20T11:02:39Z</time>
      </trkpt>
      <trkpt lat="42.812748989090323" lon="-7.663438031449914">
        <ele>498.30000000000001</ele>
        <time>2018-05-20T11:02:40Z</time>
      </trkpt>
      <trkpt lat="42.812748989090323" lon="-7.663386985659599">
        <ele>497.69999999999999</ele>
        <time>2018-05-20T11:02:41Z</time>
      </trkpt>
      <trkpt lat="42.81276298686862" lon="-7.663328982889652">
        <ele>497.10000000000002</ele>
        <time>2018-05-20T11:02:43Z</time>
      </trkpt>
      <trkpt lat="42.81276298686862" lon="-7.663276009261608">
        <ele>496.5</ele>
        <time>2018-05-20T11:02:44Z</time>
      </trkpt>
      <trkpt lat="42.812758041545749" lon="-7.663218006491661">
        <ele>495.80000000000001</ele>
        <time>2018-05-20T11:02:45Z</time>
      </trkpt>
      <trkpt lat="42.812753012403846" lon="-7.663165032863617">
        <ele>495.19999999999999</ele>
        <time>2018-05-20T11:02:46Z</time>
      </trkpt>
      <trkpt lat="42.812734991312027" lon="-7.663100995123386">
        <ele>494.39999999999998</ele>
        <time>2018-05-20T11:02:48Z</time>
      </trkpt>
      <trkpt lat="42.812711019068956" lon="-7.66304399818182">
        <ele>493.69999999999999</ele>
        <time>2018-05-20T11:02:49Z</time>
      </trkpt>
      <trkpt lat="42.812696015462279" lon="-7.662979038432241">
        <ele>492.89999999999998</ele>
        <time>2018-05-20T11:02:51Z</time>
      </trkpt>
      <trkpt lat="42.81267698854208" lon="-7.662933021783829">
        <ele>492.30000000000001</ele>
        <time>2018-05-20T11:02:52Z</time>
      </trkpt>
      <trkpt lat="42.812671037390828" lon="-7.662877030670643">
        <ele>491.69999999999999</ele>
        <time>2018-05-20T11:02:53Z</time>
      </trkpt>
      <trkpt lat="42.812661984935403" lon="-7.662802012637258">
        <ele>490.89999999999998</ele>
        <time>2018-05-20T11:02:55Z</time>
      </trkpt>
      <trkpt lat="42.812652010470629" lon="-7.662755995988846">
        <ele>490.39999999999998</ele>
        <time>2018-05-20T11:02:56Z</time>
      </trkpt>
      <trkpt lat="42.812647987157106" lon="-7.662698999047279">
        <ele>489.89999999999998</ele>
        <time>2018-05-20T11:02:57Z</time>
      </trkpt>
      <trkpt lat="42.812643041834235" lon="-7.662630015984178">
        <ele>489.19999999999999</ele>
        <time>2018-05-20T11:02:59Z</time>
      </trkpt>
      <trkpt lat="42.812638012692332" lon="-7.662561032921076">
        <ele>488.39999999999998</ele>
        <time>2018-05-20T11:03:00Z</time>
      </trkpt>
      <trkpt lat="42.812628960236907" lon="-7.662504035979509">
        <ele>487.80000000000001</ele>
        <time>2018-05-20T11:03:01Z</time>
      </trkpt>
      <trkpt lat="42.812624014914036" lon="-7.662446033209562">
        <ele>487.19999999999999</ele>
        <time>2018-05-20T11:03:03Z</time>
      </trkpt>
      <trkpt lat="42.812614962458611" lon="-7.662385012954474">
        <ele>486.60000000000002</ele>
        <time>2018-05-20T11:03:04Z</time>
      </trkpt>
      <trkpt lat="42.812610017135739" lon="-7.662321981042624">
        <ele>485.89999999999998</ele>
        <time>2018-05-20T11:03:06Z</time>
      </trkpt>
      <trkpt lat="42.812605993822217" lon="-7.662259032949805">
        <ele>485.30000000000001</ele>
        <time>2018-05-20T11:03:07Z</time>
      </trkpt>
      <trkpt lat="42.812600964680314" lon="-7.662204969674349">
        <ele>484.69999999999999</ele>
        <time>2018-05-20T11:03:08Z</time>
      </trkpt>
      <trkpt lat="42.812564000487328" lon="-7.661920990794897">
        <ele>482.89999999999998</ele>
        <time>2018-05-20T11:03:14Z</time>
      </trkpt>
      <trkpt lat="42.812556959688663" lon="-7.661920990794897">
        <ele>482.89999999999998</ele>
        <time>2018-05-20T11:03:15Z</time>
      </trkpt>
      <trkpt lat="42.812516978010535" lon="-7.661581020802259">
        <ele>481.89999999999998</ele>
        <time>2018-05-20T11:03:22Z</time>
      </trkpt>
      <trkpt lat="42.812410024926066" lon="-7.660878030583262">
        <ele>481.89999999999998</ele>
        <time>2018-05-20T11:03:38Z</time>
      </trkpt>
      <trkpt lat="42.812349004670978" lon="-7.660587010905147">
        <ele>483</ele>
        <time>2018-05-20T11:03:44Z</time>
      </trkpt>
      <trkpt lat="42.812293013557792" lon="-7.660234970971942">
        <ele>483.89999999999998</ele>
        <time>2018-05-20T11:03:52Z</time>
      </trkpt>
      <trkpt lat="42.812280021607876" lon="-7.660210998728871">
        <ele>484</ele>
        <time>2018-05-20T11:03:53Z</time>
      </trkpt>
      <trkpt lat="42.812238028272986" lon="-7.659901035949588">
        <ele>484.30000000000001</ele>
        <time>2018-05-20T11:04:00Z</time>
      </trkpt>
      <trkpt lat="42.812238028272986" lon="-7.659892989322543">
        <ele>484.30000000000001</ele>
        <time>2018-05-20T11:04:00Z</time>
      </trkpt>
      <trkpt lat="42.812176002189517" lon="-7.659544972702861">
        <ele>484.69999999999999</ele>
        <time>2018-05-20T11:04:07Z</time>
      </trkpt>
      <trkpt lat="42.812119005247951" lon="-7.659254958853126">
        <ele>484.5</ele>
        <time>2018-05-20T11:04:14Z</time>
      </trkpt>
      <trkpt lat="42.812119005247951" lon="-7.659201985225081">
        <ele>484.5</ele>
        <time>2018-05-20T11:04:15Z</time>
      </trkpt>
      <trkpt lat="42.812119005247951" lon="-7.659126967191696">
        <ele>484.39999999999998</ele>
        <time>2018-05-20T11:04:17Z</time>
      </trkpt>
      <trkpt lat="42.812119005247951" lon="-7.65906997025013">
        <ele>484.30000000000001</ele>
        <time>2018-05-20T11:04:18Z</time>
      </trkpt>
      <trkpt lat="42.812123028561473" lon="-7.659006016328931">
        <ele>484.19999999999999</ele>
        <time>2018-05-20T11:04:19Z</time>
      </trkpt>
      <trkpt lat="42.812123028561473" lon="-7.65893803909421">
        <ele>484.10000000000002</ele>
        <time>2018-05-20T11:04:21Z</time>
      </trkpt>
      <trkpt lat="42.812133003026247" lon="-7.658880036324263">
        <ele>484</ele>
        <time>2018-05-20T11:04:22Z</time>
      </trkpt>
      <trkpt lat="42.812147000804543" lon="-7.658823039382696">
        <ele>483.89999999999998</ele>
        <time>2018-05-20T11:04:23Z</time>
      </trkpt>
      <trkpt lat="42.812155969440937" lon="-7.65876897610724">
        <ele>483.80000000000001</ele>
        <time>2018-05-20T11:04:25Z</time>
      </trkpt>
      <trkpt lat="42.812165021896362" lon="-7.658699993044138">
        <ele>483.69999999999999</ele>
        <time>2018-05-20T11:04:26Z</time>
      </trkpt>
      <trkpt lat="42.812165021896362" lon="-7.658648025244474">
        <ele>483.69999999999999</ele>
        <time>2018-05-20T11:04:27Z</time>
      </trkpt>
      <trkpt lat="42.81216099858284" lon="-7.658577030524612">
        <ele>483.60000000000002</ele>
        <time>2018-05-20T11:04:29Z</time>
      </trkpt>
      <trkpt lat="42.81216099858284" lon="-7.658520033583045">
        <ele>483.5</ele>
        <time>2018-05-20T11:04:30Z</time>
      </trkpt>
      <trkpt lat="42.812155969440937" lon="-7.658463036641479">
        <ele>483.39999999999998</ele>
        <time>2018-05-20T11:04:31Z</time>
      </trkpt>
      <trkpt lat="42.812150018289685" lon="-7.658410985022783">
        <ele>483.39999999999998</ele>
        <time>2018-05-20T11:04:33Z</time>
      </trkpt>
      <trkpt lat="42.812130991369486" lon="-7.65835901722312">
        <ele>483.39999999999998</ele>
        <time>2018-05-20T11:04:34Z</time>
      </trkpt>
      <trkpt lat="42.812122022733092" lon="-7.658293973654509">
        <ele>483.30000000000001</ele>
        <time>2018-05-20T11:04:35Z</time>
      </trkpt>
      <trkpt lat="42.812122022733092" lon="-7.65823102556169">
        <ele>483.19999999999999</ele>
        <time>2018-05-20T11:04:37Z</time>
      </trkpt>
      <trkpt lat="42.812116993591189" lon="-7.658161958679557">
        <ele>483.19999999999999</ele>
        <time>2018-05-20T11:04:38Z</time>
      </trkpt>
      <trkpt lat="42.812116993591189" lon="-7.658100016415119">
        <ele>483.10000000000002</ele>
        <time>2018-05-20T11:04:39Z</time>
      </trkpt>
      <trkpt lat="42.812102995812893" lon="-7.657896000891924">
        <ele>482.80000000000001</ele>
        <time>2018-05-20T11:04:44Z</time>
      </trkpt>
      <trkpt lat="42.812080029398203" lon="-7.657678993418813">
        <ele>482.10000000000002</ele>
        <time>2018-05-20T11:04:49Z</time>
      </trkpt>
      <trkpt lat="42.812063014134765" lon="-7.65719803981483">
        <ele>480.39999999999998</ele>
        <time>2018-05-20T11:04:59Z</time>
      </trkpt>
      <trkpt lat="42.812041975557804" lon="-7.656593034043908">
        <ele>476.39999999999998</ele>
        <time>2018-05-20T11:05:12Z</time>
      </trkpt>
      <trkpt lat="42.812038036063313" lon="-7.656120965257287">
        <ele>473.30000000000001</ele>
        <time>2018-05-20T11:05:23Z</time>
      </trkpt>
      <trkpt lat="42.812041975557804" lon="-7.655734978616238">
        <ele>471.39999999999998</ele>
        <time>2018-05-20T11:05:31Z</time>
      </trkpt>
      <trkpt lat="42.812026971951127" lon="-7.655256036669016">
        <ele>469.10000000000002</ele>
        <time>2018-05-20T11:05:41Z</time>
      </trkpt>
      <trkpt lat="42.811999982222915" lon="-7.654841970652342">
        <ele>466.80000000000001</ele>
        <time>2018-05-20T11:05:50Z</time>
      </trkpt>
      <trkpt lat="42.811985984444618" lon="-7.654395969584584">
        <ele>465</ele>
        <time>2018-05-20T11:06:00Z</time>
      </trkpt>
      <trkpt lat="42.811971986666322" lon="-7.653991039842367">
        <ele>463.89999999999998</ele>
        <time>2018-05-20T11:06:09Z</time>
      </trkpt>
      <trkpt lat="42.811971986666322" lon="-7.653583008795977">
        <ele>463.19999999999999</ele>
        <time>2018-05-20T11:06:18Z</time>
      </trkpt>
      <trkpt lat="42.811949020251632" lon="-7.653300035744906">
        <ele>462.80000000000001</ele>
        <time>2018-05-20T11:06:24Z</time>
      </trkpt>
      <trkpt lat="42.811949020251632" lon="-7.653291989117861">
        <ele>462.80000000000001</ele>
        <time>2018-05-20T11:06:24Z</time>
      </trkpt>
      <trkpt lat="42.811929993331432" lon="-7.652987977489829">
        <ele>462.5</ele>
        <time>2018-05-20T11:06:31Z</time>
      </trkpt>
      <trkpt lat="42.811929993331432" lon="-7.652926035225391">
        <ele>462.5</ele>
        <time>2018-05-20T11:06:32Z</time>
      </trkpt>
      <trkpt lat="42.811909960582852" lon="-7.652468970045447">
        <ele>463.10000000000002</ele>
        <time>2018-05-20T11:06:42Z</time>
      </trkpt>
      <trkpt lat="42.811895962804556" lon="-7.652019029483199">
        <ele>463.89999999999998</ele>
        <time>2018-05-20T11:06:52Z</time>
      </trkpt>
      <trkpt lat="42.811880959197879" lon="-7.651619967073202">
        <ele>464.39999999999998</ele>
        <time>2018-05-20T11:07:01Z</time>
      </trkpt>
      <trkpt lat="42.811870984733105" lon="-7.651129961013794">
        <ele>464.60000000000002</ele>
        <time>2018-05-20T11:07:11Z</time>
      </trkpt>
      <trkpt lat="42.811855981126428" lon="-7.650661999359727">
        <ele>463.30000000000001</ele>
        <time>2018-05-20T11:07:21Z</time>
      </trkpt>
      <trkpt lat="42.811842989176512" lon="-7.65008800663054">
        <ele>460.69999999999999</ele>
        <time>2018-05-20T11:07:34Z</time>
      </trkpt>
      <trkpt lat="42.811822034418583" lon="-7.649600012227893">
        <ele>457.80000000000001</ele>
        <time>2018-05-20T11:07:44Z</time>
      </trkpt>
      <trkpt lat="42.811811976134777" lon="-7.649341011419892">
        <ele>456.39999999999998</ele>
        <time>2018-05-20T11:07:50Z</time>
      </trkpt>
      <trkpt lat="42.811783980578184" lon="-7.64875796623528">
        <ele>453.19999999999999</ele>
        <time>2018-05-20T11:08:03Z</time>
      </trkpt>
      <trkpt lat="42.811780041083694" lon="-7.648337027058005">
        <ele>451.10000000000002</ele>
        <time>2018-05-20T11:08:12Z</time>
      </trkpt>
      <trkpt lat="42.811775011941791" lon="-7.647895971313119">
        <ele>448.89999999999998</ele>
        <time>2018-05-20T11:08:22Z</time>
      </trkpt>
      <trkpt lat="42.811755985021591" lon="-7.647493975237012">
        <ele>447.89999999999998</ele>
        <time>2018-05-20T11:08:30Z</time>
      </trkpt>
      <trkpt lat="42.811755985021591" lon="-7.647486012428999">
        <ele>447.80000000000001</ele>
        <time>2018-05-20T11:08:30Z</time>
      </trkpt>
      <trkpt lat="42.811741987243295" lon="-7.647071024402976">
        <ele>446.89999999999998</ele>
        <time>2018-05-20T11:08:40Z</time>
      </trkpt>
      <trkpt lat="42.811713991686702" lon="-7.646744968369603">
        <ele>446.5</ele>
        <time>2018-05-20T11:08:47Z</time>
      </trkpt>
      <trkpt lat="42.811713991686702" lon="-7.646687971428037">
        <ele>446.5</ele>
        <time>2018-05-20T11:08:48Z</time>
      </trkpt>
      <trkpt lat="42.811709968373179" lon="-7.646589986979961">
        <ele>446.5</ele>
        <time>2018-05-20T11:08:50Z</time>
      </trkpt>
      <trkpt lat="42.811709968373179" lon="-7.646538019180298">
        <ele>446.5</ele>
        <time>2018-05-20T11:08:51Z</time>
      </trkpt>
      <trkpt lat="42.811709968373179" lon="-7.646469958126545">
        <ele>446.39999999999998</ele>
        <time>2018-05-20T11:08:53Z</time>
      </trkpt>
      <trkpt lat="42.811705023050308" lon="-7.646417990326881">
        <ele>446.39999999999998</ele>
        <time>2018-05-20T11:08:54Z</time>
      </trkpt>
      <trkpt lat="42.811695970594883" lon="-7.646359987556934">
        <ele>446.30000000000001</ele>
        <time>2018-05-20T11:08:55Z</time>
      </trkpt>
      <trkpt lat="42.811695970594883" lon="-7.64628698118031">
        <ele>446.30000000000001</ele>
        <time>2018-05-20T11:08:57Z</time>
      </trkpt>
      <trkpt lat="42.811677027493715" lon="-7.646236019209027">
        <ele>446.10000000000002</ele>
        <time>2018-05-20T11:08:58Z</time>
      </trkpt>
      <trkpt lat="42.811673004180193" lon="-7.64617801643908">
        <ele>446.10000000000002</ele>
        <time>2018-05-20T11:08:59Z</time>
      </trkpt>
      <trkpt lat="42.811653977259994" lon="-7.646097969263792">
        <ele>446.10000000000002</ele>
        <time>2018-05-20T11:09:01Z</time>
      </trkpt>
      <trkpt lat="42.811648026108742" lon="-7.64604801312089">
        <ele>446.10000000000002</ele>
        <time>2018-05-20T11:09:02Z</time>
      </trkpt>
      <trkpt lat="42.811634028330445" lon="-7.645995961502194">
        <ele>446</ele>
        <time>2018-05-20T11:09:03Z</time>
      </trkpt>
      <trkpt lat="42.811612989753485" lon="-7.645928990095854">
        <ele>445.89999999999998</ele>
        <time>2018-05-20T11:09:05Z</time>
      </trkpt>
      <trkpt lat="42.811594968661666" lon="-7.645865958184004">
        <ele>445.89999999999998</ele>
        <time>2018-05-20T11:09:06Z</time>
      </trkpt>
      <trkpt lat="42.811566973105073" lon="-7.645808961242437">
        <ele>445.69999999999999</ele>
        <time>2018-05-20T11:09:08Z</time>
      </trkpt>
      <trkpt lat="42.81153897754848" lon="-7.645756993442774">
        <ele>445.5</ele>
        <time>2018-05-20T11:09:09Z</time>
      </trkpt>
      <trkpt lat="42.811520034447312" lon="-7.645710976794362">
        <ele>445.5</ele>
        <time>2018-05-20T11:09:10Z</time>
      </trkpt>
      <trkpt lat="42.811494972556829" lon="-7.645663032308221">
        <ele>445.30000000000001</ele>
        <time>2018-05-20T11:09:12Z</time>
      </trkpt>
      <trkpt lat="42.811426995322108" lon="-7.645517019554973">
        <ele>445.10000000000002</ele>
        <time>2018-05-20T11:09:15Z</time>
      </trkpt>
      <trkpt lat="42.811319036409259" lon="-7.645345022901893">
        <ele>444.69999999999999</ele>
        <time>2018-05-20T11:09:20Z</time>
      </trkpt>
      <trkpt lat="42.811218034476042" lon="-7.645186018198729">
        <ele>444.89999999999998</ele>
        <time>2018-05-20T11:09:25Z</time>
      </trkpt>
      <trkpt lat="42.811077972874045" lon="-7.64489097520709">
        <ele>446.5</ele>
        <time>2018-05-20T11:09:32Z</time>
      </trkpt>
      <trkpt lat="42.810900025069714" lon="-7.644540024921298">
        <ele>448.39999999999998</ele>
        <time>2018-05-20T11:09:42Z</time>
      </trkpt>
      <trkpt lat="42.810646975412965" lon="-7.644079020246863">
        <ele>450.5</ele>
        <time>2018-05-20T11:09:54Z</time>
      </trkpt>
      <trkpt lat="42.810388980433345" lon="-7.643551966175437">
        <ele>452.5</ele>
        <time>2018-05-20T11:10:08Z</time>
      </trkpt>
      <trkpt lat="42.810154035687447" lon="-7.643179977312684">
        <ele>453.5</ele>
        <time>2018-05-20T11:10:19Z</time>
      </trkpt>
      <trkpt lat="42.810000982135534" lon="-7.642903039231896">
        <ele>454.5</ele>
        <time>2018-05-20T11:10:26Z</time>
      </trkpt>
      <trkpt lat="42.809812976047397" lon="-7.642556028440595">
        <ele>454.69999999999999</ele>
        <time>2018-05-20T11:10:36Z</time>
      </trkpt>
      <trkpt lat="42.809592029079795" lon="-7.642202982679009">
        <ele>455</ele>
        <time>2018-05-20T11:10:46Z</time>
      </trkpt>
      <trkpt lat="42.809479041025043" lon="-7.642023023217917">
        <ele>454.5</ele>
        <time>2018-05-20T11:10:51Z</time>
      </trkpt>
      <trkpt lat="42.809460014104843" lon="-7.642006007954478">
        <ele>454.30000000000001</ele>
        <time>2018-05-20T11:10:51Z</time>
      </trkpt>
      <trkpt lat="42.809424977749586" lon="-7.641977006569505">
        <ele>454.10000000000002</ele>
        <time>2018-05-20T11:10:53Z</time>
      </trkpt>
      <trkpt lat="42.809381978586316" lon="-7.64196602627635">
        <ele>454</ele>
        <time>2018-05-20T11:10:54Z</time>
      </trkpt>
      <trkpt lat="42.809343002736568" lon="-7.641952028498054">
        <ele>453.80000000000001</ele>
        <time>2018-05-20T11:10:55Z</time>
      </trkpt>
      <trkpt lat="42.809311989694834" lon="-7.641925038769841">
        <ele>453.69999999999999</ele>
        <time>2018-05-20T11:10:56Z</time>
      </trkpt>
      <trkpt lat="42.809276031330228" lon="-7.64190198853612">
        <ele>453.5</ele>
        <time>2018-05-20T11:10:57Z</time>
      </trkpt>
      <trkpt lat="42.809232026338577" lon="-7.641822025179863">
        <ele>453</ele>
        <time>2018-05-20T11:11:00Z</time>
      </trkpt>
      <trkpt lat="42.809043014422059" lon="-7.64155799522996">
        <ele>451.60000000000002</ele>
        <time>2018-05-20T11:11:08Z</time>
      </trkpt>
      <trkpt lat="42.808931032195687" lon="-7.64136303216219">
        <ele>450.69999999999999</ele>
        <time>2018-05-20T11:11:13Z</time>
      </trkpt>
      <trkpt lat="42.808889038860798" lon="-7.641317015513778">
        <ele>450.39999999999998</ele>
        <time>2018-05-20T11:11:15Z</time>
      </trkpt>
      <trkpt lat="42.808698015287519" lon="-7.640981990844011">
        <ele>449.10000000000002</ele>
        <time>2018-05-20T11:11:24Z</time>
      </trkpt>
      <trkpt lat="42.808501040562987" lon="-7.640646966174245">
        <ele>448.30000000000001</ele>
        <time>2018-05-20T11:11:33Z</time>
      </trkpt>
      <trkpt lat="42.808368019759655" lon="-7.640413027256727">
        <ele>447.89999999999998</ele>
        <time>2018-05-20T11:11:40Z</time>
      </trkpt>
      <trkpt lat="42.808233993127942" lon="-7.640159977599978">
        <ele>447.39999999999998</ele>
        <time>2018-05-20T11:11:46Z</time>
      </trkpt>
      <trkpt lat="42.808085968717933" lon="-7.639939030632377">
        <ele>446.69999999999999</ele>
        <time>2018-05-20T11:11:53Z</time>
      </trkpt>
      <trkpt lat="42.807954037562013" lon="-7.63975596986711">
        <ele>445.80000000000001</ele>
        <time>2018-05-20T11:11:58Z</time>
      </trkpt>
      <trkpt lat="42.807858986780047" lon="-7.63960400596261">
        <ele>445.19999999999999</ele>
        <time>2018-05-20T11:12:03Z</time>
      </trkpt>
      <trkpt lat="42.807753039523959" lon="-7.639569975435734">
        <ele>445.30000000000001</ele>
        <time>2018-05-20T11:12:06Z</time>
      </trkpt>
      <trkpt lat="42.807654971256852" lon="-7.63954097405076">
        <ele>445.39999999999998</ele>
        <time>2018-05-20T11:12:09Z</time>
      </trkpt>
      <trkpt lat="42.807453973218799" lon="-7.639486994594336">
        <ele>445.60000000000002</ele>
        <time>2018-05-20T11:12:15Z</time>
      </trkpt>
      <trkpt lat="42.807306032627821" lon="-7.639434020966291">
        <ele>445.80000000000001</ele>
        <time>2018-05-20T11:12:20Z</time>
      </trkpt>
      <trkpt lat="42.80719899572432" lon="-7.639376018196344">
        <ele>445.89999999999998</ele>
        <time>2018-05-20T11:12:23Z</time>
      </trkpt>
      <trkpt lat="42.807192960754037" lon="-7.639376018196344">
        <ele>445.89999999999998</ele>
        <time>2018-05-20T11:12:23Z</time>
      </trkpt>
      <trkpt lat="42.807091036811471" lon="-7.639210978522897">
        <ele>445.60000000000002</ele>
        <time>2018-05-20T11:12:28Z</time>
      </trkpt>
      <trkpt lat="42.806994980201125" lon="-7.63902397826314">
        <ele>445.89999999999998</ele>
        <time>2018-05-20T11:12:33Z</time>
      </trkpt>
      <trkpt lat="42.806989029049873" lon="-7.639016015455127">
        <ele>445.89999999999998</ele>
        <time>2018-05-20T11:12:33Z</time>
      </trkpt>
      <trkpt lat="42.806893978267908" lon="-7.6387860160321">
        <ele>446.39999999999998</ele>
        <time>2018-05-20T11:12:39Z</time>
      </trkpt>
      <trkpt lat="42.806893978267908" lon="-7.638778975233436">
        <ele>446.30000000000001</ele>
        <time>2018-05-20T11:12:39Z</time>
      </trkpt>
      <trkpt lat="42.806845027953386" lon="-7.638568002730608">
        <ele>446.5</ele>
        <time>2018-05-20T11:12:44Z</time>
      </trkpt>
      <trkpt lat="42.806785013526678" lon="-7.638301039114595">
        <ele>446.89999999999998</ele>
        <time>2018-05-20T11:12:50Z</time>
      </trkpt>
      <trkpt lat="42.806785013526678" lon="-7.63829399831593">
        <ele>446.89999999999998</ele>
        <time>2018-05-20T11:12:50Z</time>
      </trkpt>
      <trkpt lat="42.806713012978435" lon="-7.63797003775835">
        <ele>447.69999999999999</ele>
        <time>2018-05-20T11:12:57Z</time>
      </trkpt>
      <trkpt lat="42.806713012978435" lon="-7.637961991131306">
        <ele>447.69999999999999</ele>
        <time>2018-05-20T11:12:57Z</time>
      </trkpt>
      <trkpt lat="42.806643024086952" lon="-7.63771103695035">
        <ele>448.19999999999999</ele>
        <time>2018-05-20T11:13:03Z</time>
      </trkpt>
      <trkpt lat="42.806605976074934" lon="-7.637528982013464">
        <ele>448.19999999999999</ele>
        <time>2018-05-20T11:13:07Z</time>
      </trkpt>
      <trkpt lat="42.806600024923682" lon="-7.637493023648858">
        <ele>448.19999999999999</ele>
        <time>2018-05-20T11:13:08Z</time>
      </trkpt>
      <trkpt lat="42.806600024923682" lon="-7.637438960373402">
        <ele>448</ele>
        <time>2018-05-20T11:13:09Z</time>
      </trkpt>
      <trkpt lat="42.806600024923682" lon="-7.637386992573738">
        <ele>447.80000000000001</ele>
        <time>2018-05-20T11:13:11Z</time>
      </trkpt>
      <trkpt lat="42.806600024923682" lon="-7.637312980368733">
        <ele>447.5</ele>
        <time>2018-05-20T11:13:12Z</time>
      </trkpt>
      <trkpt lat="42.806600024923682" lon="-7.63726101256907">
        <ele>447.30000000000001</ele>
        <time>2018-05-20T11:13:13Z</time>
      </trkpt>
      <trkpt lat="42.806600024923682" lon="-7.637185994535685">
        <ele>447.10000000000002</ele>
        <time>2018-05-20T11:13:15Z</time>
      </trkpt>
      <trkpt lat="42.806608993560076" lon="-7.637118017300963">
        <ele>446.69999999999999</ele>
        <time>2018-05-20T11:13:16Z</time>
      </trkpt>
      <trkpt lat="42.806617962196469" lon="-7.637053979560733">
        <ele>446.39999999999998</ele>
        <time>2018-05-20T11:13:18Z</time>
      </trkpt>
      <trkpt lat="42.806622991338372" lon="-7.636991031467915">
        <ele>446.5</ele>
        <time>2018-05-20T11:13:19Z</time>
      </trkpt>
      <trkpt lat="42.806631959974766" lon="-7.636945014819503">
        <ele>446.39999999999998</ele>
        <time>2018-05-20T11:13:20Z</time>
      </trkpt>
      <trkpt lat="42.806636989116669" lon="-7.636893969029188">
        <ele>446.5</ele>
        <time>2018-05-20T11:13:21Z</time>
      </trkpt>
      <trkpt lat="42.806642018258572" lon="-7.636817023158073">
        <ele>446.60000000000002</ele>
        <time>2018-05-20T11:13:23Z</time>
      </trkpt>
      <trkpt lat="42.806678982451558" lon="-7.636645026504993">
        <ele>446.30000000000001</ele>
        <time>2018-05-20T11:13:27Z</time>
      </trkpt>
      <trkpt lat="42.806692980229855" lon="-7.636592974886298">
        <ele>446.19999999999999</ele>
        <time>2018-05-20T11:13:28Z</time>
      </trkpt>
      <trkpt lat="42.806708989664912" lon="-7.636538995429874">
        <ele>446.10000000000002</ele>
        <time>2018-05-20T11:13:29Z</time>
      </trkpt>
      <trkpt lat="42.806732039898634" lon="-7.636481998488307">
        <ele>445.89999999999998</ele>
        <time>2018-05-20T11:13:31Z</time>
      </trkpt>
      <trkpt lat="42.806755006313324" lon="-7.636428019031882">
        <ele>445.60000000000002</ele>
        <time>2018-05-20T11:13:32Z</time>
      </trkpt>
      <trkpt lat="42.806821977719665" lon="-7.636284017935395">
        <ele>445</ele>
        <time>2018-05-20T11:13:36Z</time>
      </trkpt>
      <trkpt lat="42.806882997974753" lon="-7.636130964383483">
        <ele>444.60000000000002</ele>
        <time>2018-05-20T11:13:40Z</time>
      </trkpt>
      <trkpt lat="42.806935971602798" lon="-7.635922003537417">
        <ele>444.69999999999999</ele>
        <time>2018-05-20T11:13:44Z</time>
      </trkpt>
      <trkpt lat="42.806986011564732" lon="-7.635755036026239">
        <ele>444.80000000000001</ele>
        <time>2018-05-20T11:13:48Z</time>
      </trkpt>
      <trkpt lat="42.807088019326329" lon="-7.635447001084685">
        <ele>444.80000000000001</ele>
        <time>2018-05-20T11:13:56Z</time>
      </trkpt>
      <trkpt lat="42.807149961590767" lon="-7.63519898056984">
        <ele>445.10000000000002</ele>
        <time>2018-05-20T11:14:01Z</time>
      </trkpt>
      <trkpt lat="42.807230008766055" lon="-7.635053973644972">
        <ele>444.89999999999998</ele>
        <time>2018-05-20T11:14:05Z</time>
      </trkpt>
      <trkpt lat="42.807235959917307" lon="-7.635046010836959">
        <ele>444.80000000000001</ele>
        <time>2018-05-20T11:14:06Z</time>
      </trkpt>
      <trkpt lat="42.807287005707622" lon="-7.634887006133795">
        <ele>445</ele>
        <time>2018-05-20T11:14:09Z</time>
      </trkpt>
      <trkpt lat="42.807301003485918" lon="-7.634840989485383">
        <ele>445.10000000000002</ele>
        <time>2018-05-20T11:14:10Z</time>
      </trkpt>
      <trkpt lat="42.807324975728989" lon="-7.634794972836971">
        <ele>445.10000000000002</ele>
        <time>2018-05-20T11:14:12Z</time>
      </trkpt>
      <trkpt lat="42.807334028184414" lon="-7.634743005037308">
        <ele>445.19999999999999</ele>
        <time>2018-05-20T11:14:13Z</time>
      </trkpt>
      <trkpt lat="42.807352971285582" lon="-7.634696988388896">
        <ele>445.19999999999999</ele>
        <time>2018-05-20T11:14:14Z</time>
      </trkpt>
      <trkpt lat="42.807362023741007" lon="-7.634646026417613">
        <ele>445.39999999999998</ele>
        <time>2018-05-20T11:14:15Z</time>
      </trkpt>
      <trkpt lat="42.8073709923774" lon="-7.634600009769201">
        <ele>445.5</ele>
        <time>2018-05-20T11:14:16Z</time>
      </trkpt>
      <trkpt lat="42.8073900192976" lon="-7.634547958150506">
        <ele>445.5</ele>
        <time>2018-05-20T11:14:17Z</time>
      </trkpt>
      <trkpt lat="42.80741298571229" lon="-7.634495990350843">
        <ele>445.5</ele>
        <time>2018-05-20T11:14:19Z</time>
      </trkpt>
      <trkpt lat="42.807437041774392" lon="-7.634449973702431">
        <ele>445.39999999999998</ele>
        <time>2018-05-20T11:14:20Z</time>
      </trkpt>
      <trkpt lat="42.807465037330985" lon="-7.634392976760864">
        <ele>445.30000000000001</ele>
        <time>2018-05-20T11:14:21Z</time>
      </trkpt>
      <trkpt lat="42.807492027059197" lon="-7.634352995082736">
        <ele>445.10000000000002</ele>
        <time>2018-05-20T11:14:23Z</time>
      </trkpt>
      <trkpt lat="42.807510970160365" lon="-7.634306978434324">
        <ele>445.10000000000002</ele>
        <time>2018-05-20T11:14:24Z</time>
      </trkpt>
      <trkpt lat="42.807524967938662" lon="-7.634255010634661">
        <ele>445.10000000000002</ele>
        <time>2018-05-20T11:14:25Z</time>
      </trkpt>
      <trkpt lat="42.807534020394087" lon="-7.634202959015966">
        <ele>445.10000000000002</ele>
        <time>2018-05-20T11:14:26Z</time>
      </trkpt>
      <trkpt lat="42.807552963495255" lon="-7.634157026186585">
        <ele>445</ele>
        <time>2018-05-20T11:14:27Z</time>
      </trkpt>
      <trkpt lat="42.807557992637157" lon="-7.63410396873951">
        <ele>445.10000000000002</ele>
        <time>2018-05-20T11:14:28Z</time>
      </trkpt>
      <trkpt lat="42.807557992637157" lon="-7.634052000939846">
        <ele>445.19999999999999</ele>
        <time>2018-05-20T11:14:30Z</time>
      </trkpt>
      <trkpt lat="42.80756201595068" lon="-7.633998021483421">
        <ele>445.30000000000001</ele>
        <time>2018-05-20T11:14:31Z</time>
      </trkpt>
      <trkpt lat="42.80756201595068" lon="-7.633934989571571">
        <ele>445.39999999999998</ele>
        <time>2018-05-20T11:14:32Z</time>
      </trkpt>
      <trkpt lat="42.80756201595068" lon="-7.633883021771908">
        <ele>445.5</ele>
        <time>2018-05-20T11:14:33Z</time>
      </trkpt>
      <trkpt lat="42.80756201595068" lon="-7.633831975981593">
        <ele>445.60000000000002</ele>
        <time>2018-05-20T11:14:34Z</time>
      </trkpt>
      <trkpt lat="42.807557992637157" lon="-7.633770033717156">
        <ele>445.80000000000001</ele>
        <time>2018-05-20T11:14:36Z</time>
      </trkpt>
      <trkpt lat="42.807552963495255" lon="-7.633718987926841">
        <ele>445.80000000000001</ele>
        <time>2018-05-20T11:14:37Z</time>
      </trkpt>
      <trkpt lat="42.807552963495255" lon="-7.633667020127177">
        <ele>445.5</ele>
        <time>2018-05-20T11:14:38Z</time>
      </trkpt>
      <trkpt lat="42.807548018172383" lon="-7.633610023185611">
        <ele>445.30000000000001</ele>
        <time>2018-05-20T11:14:39Z</time>
      </trkpt>
      <trkpt lat="42.8075419832021" lon="-7.633547997102141">
        <ele>445.10000000000002</ele>
        <time>2018-05-20T11:14:41Z</time>
      </trkpt>
      <trkpt lat="42.807475011795759" lon="-7.633354961872101">
        <ele>444.89999999999998</ele>
        <time>2018-05-20T11:14:45Z</time>
      </trkpt>
      <trkpt lat="42.807418014854193" lon="-7.63315899297595">
        <ele>444.5</ele>
        <time>2018-05-20T11:14:50Z</time>
      </trkpt>
      <trkpt lat="42.807318018749356" lon="-7.632928993552923">
        <ele>444.5</ele>
        <time>2018-05-20T11:14:56Z</time>
      </trkpt>
      <trkpt lat="42.807211987674236" lon="-7.63270896859467">
        <ele>443.60000000000002</ele>
        <time>2018-05-20T11:15:01Z</time>
      </trkpt>
      <trkpt lat="42.807189021259546" lon="-7.632657000795007">
        <ele>443.30000000000001</ele>
        <time>2018-05-20T11:15:03Z</time>
      </trkpt>
      <trkpt lat="42.80715599656105" lon="-7.632564967498183">
        <ele>442.80000000000001</ele>
        <time>2018-05-20T11:15:05Z</time>
      </trkpt>
      <trkpt lat="42.80713303014636" lon="-7.632500007748604">
        <ele>442.39999999999998</ele>
        <time>2018-05-20T11:15:06Z</time>
      </trkpt>
      <trkpt lat="42.807105034589767" lon="-7.632448961958289">
        <ele>442.30000000000001</ele>
        <time>2018-05-20T11:15:08Z</time>
      </trkpt>
      <trkpt lat="42.807086007669568" lon="-7.63240797445178">
        <ele>442.10000000000002</ele>
        <time>2018-05-20T11:15:09Z</time>
      </trkpt>
      <trkpt lat="42.807063041254878" lon="-7.632338991388679">
        <ele>441.69999999999999</ele>
        <time>2018-05-20T11:15:10Z</time>
      </trkpt>
      <trkpt lat="42.80702599324286" lon="-7.632228014990687">
        <ele>441.19999999999999</ele>
        <time>2018-05-20T11:15:13Z</time>
      </trkpt>
      <trkpt lat="42.806906970217824" lon="-7.632080996409059">
        <ele>441.5</ele>
        <time>2018-05-20T11:15:18Z</time>
      </trkpt>
      <trkpt lat="42.806774033233523" lon="-7.631895001977682">
        <ele>441.10000000000002</ele>
        <time>2018-05-20T11:15:23Z</time>
      </trkpt>
      <trkpt lat="42.806629026308656" lon="-7.631704984232783">
        <ele>441.10000000000002</ele>
        <time>2018-05-20T11:15:29Z</time>
      </trkpt>
      <trkpt lat="42.806512014940381" lon="-7.631558971479535">
        <ele>441.39999999999998</ele>
        <time>2018-05-20T11:15:34Z</time>
      </trkpt>
      <trkpt lat="42.806405983865261" lon="-7.631379012018442">
        <ele>441.39999999999998</ele>
        <time>2018-05-20T11:15:39Z</time>
      </trkpt>
      <trkpt lat="42.806397015228868" lon="-7.631368031725287">
        <ele>441.39999999999998</ele>
        <time>2018-05-20T11:15:40Z</time>
      </trkpt>
      <trkpt lat="42.806373964995146" lon="-7.631304999813438">
        <ele>441.19999999999999</ele>
        <time>2018-05-20T11:15:41Z</time>
      </trkpt>
      <trkpt lat="42.806335994973779" lon="-7.63126996345818">
        <ele>441.60000000000002</ele>
        <time>2018-05-20T11:15:42Z</time>
      </trkpt>
      <trkpt lat="42.806307999417186" lon="-7.631212966516614">
        <ele>441.30000000000001</ele>
        <time>2018-05-20T11:15:44Z</time>
      </trkpt>
      <trkpt lat="42.806266006082296" lon="-7.63113803230226">
        <ele>440.80000000000001</ele>
        <time>2018-05-20T11:15:46Z</time>
      </trkpt>
      <trkpt lat="42.806243039667606" lon="-7.63107500039041">
        <ele>440.19999999999999</ele>
        <time>2018-05-20T11:15:47Z</time>
      </trkpt>
      <trkpt lat="42.806200962513685" lon="-7.63098900206387">
        <ele>439.60000000000002</ele>
        <time>2018-05-20T11:15:50Z</time>
      </trkpt>
      <trkpt lat="42.806182019412518" lon="-7.630930999293923">
        <ele>439</ele>
        <time>2018-05-20T11:15:51Z</time>
      </trkpt>
      <trkpt lat="42.806144971400499" lon="-7.630866039544344">
        <ele>438.69999999999999</ele>
        <time>2018-05-20T11:15:53Z</time>
      </trkpt>
      <trkpt lat="42.806122004985809" lon="-7.630813987925649">
        <ele>438.30000000000001</ele>
        <time>2018-05-20T11:15:54Z</time>
      </trkpt>
      <trkpt lat="42.806108007207513" lon="-7.63075103983283">
        <ele>437.60000000000002</ele>
        <time>2018-05-20T11:15:56Z</time>
      </trkpt>
      <trkpt lat="42.806084034964442" lon="-7.630681972950697">
        <ele>437.10000000000002</ele>
        <time>2018-05-20T11:15:57Z</time>
      </trkpt>
      <trkpt lat="42.806066013872623" lon="-7.630631010979414">
        <ele>436.69999999999999</ele>
        <time>2018-05-20T11:15:59Z</time>
      </trkpt>
      <trkpt lat="42.806042041629553" lon="-7.630566973239183">
        <ele>436.19999999999999</ele>
        <time>2018-05-20T11:16:00Z</time>
      </trkpt>
      <trkpt lat="42.806024020537734" lon="-7.630521040409803">
        <ele>436</ele>
        <time>2018-05-20T11:16:01Z</time>
      </trkpt>
      <trkpt lat="42.806010022759438" lon="-7.630469994619489">
        <ele>435.5</ele>
        <time>2018-05-20T11:16:02Z</time>
      </trkpt>
      <trkpt lat="42.805996024981141" lon="-7.630418026819825">
        <ele>435.10000000000002</ele>
        <time>2018-05-20T11:16:04Z</time>
      </trkpt>
      <trkpt lat="42.805984960868955" lon="-7.630369998514652">
        <ele>434.80000000000001</ele>
        <time>2018-05-20T11:16:05Z</time>
      </trkpt>
      <trkpt lat="42.805966017767787" lon="-7.630323981866241">
        <ele>434.60000000000002</ele>
        <time>2018-05-20T11:16:06Z</time>
      </trkpt>
      <trkpt lat="42.805959982797503" lon="-7.630267990753055">
        <ele>434.10000000000002</ele>
        <time>2018-05-20T11:16:07Z</time>
      </trkpt>
      <trkpt lat="42.805955037474632" lon="-7.630204958841205">
        <ele>433.39999999999998</ele>
        <time>2018-05-20T11:16:09Z</time>
      </trkpt>
      <trkpt lat="42.805955037474632" lon="-7.630153996869922">
        <ele>432.69999999999999</ele>
        <time>2018-05-20T11:16:10Z</time>
      </trkpt>
      <trkpt lat="42.805941039696336" lon="-7.630061963573098">
        <ele>431.89999999999998</ele>
        <time>2018-05-20T11:16:12Z</time>
      </trkpt>
      <trkpt lat="42.805931987240911" lon="-7.630003960803151">
        <ele>431.39999999999998</ele>
        <time>2018-05-20T11:16:13Z</time>
      </trkpt>
      <trkpt lat="42.805926958099008" lon="-7.629952998831868">
        <ele>430.89999999999998</ele>
        <time>2018-05-20T11:16:14Z</time>
      </trkpt>
      <trkpt lat="42.805923018604517" lon="-7.629884015768766">
        <ele>430.19999999999999</ele>
        <time>2018-05-20T11:16:16Z</time>
      </trkpt>
      <trkpt lat="42.805917989462614" lon="-7.629826012998819">
        <ele>429.60000000000002</ele>
        <time>2018-05-20T11:16:17Z</time>
      </trkpt>
      <trkpt lat="42.805909020826221" lon="-7.629757029935718">
        <ele>429</ele>
        <time>2018-05-20T11:16:18Z</time>
      </trkpt>
      <trkpt lat="42.805895023047924" lon="-7.629693998023868">
        <ele>428.60000000000002</ele>
        <time>2018-05-20T11:16:20Z</time>
      </trkpt>
      <trkpt lat="42.805870966985822" lon="-7.629625014960766">
        <ele>428.39999999999998</ele>
        <time>2018-05-20T11:16:22Z</time>
      </trkpt>
      <trkpt lat="42.805855963379145" lon="-7.629563994705677">
        <ele>428.19999999999999</ele>
        <time>2018-05-20T11:16:23Z</time>
      </trkpt>
      <trkpt lat="42.805837020277977" lon="-7.629517978057265">
        <ele>428.30000000000001</ele>
        <time>2018-05-20T11:16:24Z</time>
      </trkpt>
      <trkpt lat="42.805803995579481" lon="-7.62944296002388">
        <ele>428.69999999999999</ele>
        <time>2018-05-20T11:16:26Z</time>
      </trkpt>
      <trkpt lat="42.805783962830901" lon="-7.629386968910694">
        <ele>428.80000000000001</ele>
        <time>2018-05-20T11:16:27Z</time>
      </trkpt>
      <trkpt lat="42.805765019729733" lon="-7.629341958090663">
        <ele>429</ele>
        <time>2018-05-20T11:16:28Z</time>
      </trkpt>
      <trkpt lat="42.805739035829902" lon="-7.629304993897677">
        <ele>429.5</ele>
        <time>2018-05-20T11:16:30Z</time>
      </trkpt>
      <trkpt lat="42.805674998089671" lon="-7.629108019173145">
        <ele>430</ele>
        <time>2018-05-20T11:16:34Z</time>
      </trkpt>
      <trkpt lat="42.805613977834582" lon="-7.628880031406879">
        <ele>430.30000000000001</ele>
        <time>2018-05-20T11:16:40Z</time>
      </trkpt>
      <trkpt lat="42.805551029741764" lon="-7.628699988126755">
        <ele>431</ele>
        <time>2018-05-20T11:16:44Z</time>
      </trkpt>
      <trkpt lat="42.805537031963468" lon="-7.628568978980184">
        <ele>430.30000000000001</ele>
        <time>2018-05-20T11:16:47Z</time>
      </trkpt>
      <trkpt lat="42.805479029193521" lon="-7.62834400869906">
        <ele>430.30000000000001</ele>
        <time>2018-05-20T11:16:52Z</time>
      </trkpt>
      <trkpt lat="42.805479029193521" lon="-7.628297992050648">
        <ele>429.89999999999998</ele>
        <time>2018-05-20T11:16:53Z</time>
      </trkpt>
      <trkpt lat="42.805460002273321" lon="-7.628205958753824">
        <ele>429.80000000000001</ele>
        <time>2018-05-20T11:16:55Z</time>
      </trkpt>
      <trkpt lat="42.805440975353122" lon="-7.628148961812258">
        <ele>430.10000000000002</ele>
        <time>2018-05-20T11:16:56Z</time>
      </trkpt>
      <trkpt lat="42.805423038080335" lon="-7.628103028982878">
        <ele>430.30000000000001</ele>
        <time>2018-05-20T11:16:57Z</time>
      </trkpt>
      <trkpt lat="42.805409040302038" lon="-7.628050977364183">
        <ele>430.30000000000001</ele>
        <time>2018-05-20T11:16:59Z</time>
      </trkpt>
      <trkpt lat="42.805390013381839" lon="-7.628004960715771">
        <ele>430.39999999999998</ele>
        <time>2018-05-20T11:17:00Z</time>
      </trkpt>
      <trkpt lat="42.805385990068316" lon="-7.627947041764855">
        <ele>430</ele>
        <time>2018-05-20T11:17:01Z</time>
      </trkpt>
      <trkpt lat="42.80537199229002" lon="-7.627877974882722">
        <ele>429.60000000000002</ele>
        <time>2018-05-20T11:17:03Z</time>
      </trkpt>
      <trkpt lat="42.805352965369821" lon="-7.62780899181962">
        <ele>429.10000000000002</ele>
        <time>2018-05-20T11:17:04Z</time>
      </trkpt>
      <trkpt lat="42.805338967591524" lon="-7.62772299349308">
        <ele>428.30000000000001</ele>
        <time>2018-05-20T11:17:06Z</time>
      </trkpt>
      <trkpt lat="42.805338967591524" lon="-7.627665996551514">
        <ele>427.60000000000002</ele>
        <time>2018-05-20T11:17:07Z</time>
      </trkpt>
      <trkpt lat="42.805329998955131" lon="-7.627601958811283">
        <ele>427</ele>
        <time>2018-05-20T11:17:09Z</time>
      </trkpt>
      <trkpt lat="42.805316001176834" lon="-7.62752803042531">
        <ele>426.30000000000001</ele>
        <time>2018-05-20T11:17:11Z</time>
      </trkpt>
      <trkpt lat="42.80530602671206" lon="-7.627446977421641">
        <ele>425.5</ele>
        <time>2018-05-20T11:17:12Z</time>
      </trkpt>
      <trkpt lat="42.805292028933764" lon="-7.627371959388256">
        <ele>424.89999999999998</ele>
        <time>2018-05-20T11:17:14Z</time>
      </trkpt>
      <trkpt lat="42.80528599396348" lon="-7.627323009073734">
        <ele>424.39999999999998</ele>
        <time>2018-05-20T11:17:15Z</time>
      </trkpt>
      <trkpt lat="42.805277025327086" lon="-7.627258971333504">
        <ele>423.80000000000001</ele>
        <time>2018-05-20T11:17:17Z</time>
      </trkpt>
      <trkpt lat="42.805252969264984" lon="-7.627184959128499">
        <ele>423.39999999999998</ele>
        <time>2018-05-20T11:17:18Z</time>
      </trkpt>
      <trkpt lat="42.805224973708391" lon="-7.627122011035681">
        <ele>423.30000000000001</ele>
        <time>2018-05-20T11:17:20Z</time>
      </trkpt>
      <trkpt lat="42.805207036435604" lon="-7.627069959416986">
        <ele>423.10000000000002</ele>
        <time>2018-05-20T11:17:21Z</time>
      </trkpt>
      <trkpt lat="42.805188009515405" lon="-7.627024026587606">
        <ele>422.89999999999998</ele>
        <time>2018-05-20T11:17:22Z</time>
      </trkpt>
      <trkpt lat="42.805168982595205" lon="-7.626960994675756">
        <ele>422.5</ele>
        <time>2018-05-20T11:17:24Z</time>
      </trkpt>
      <trkpt lat="42.805154984816909" lon="-7.626909026876092">
        <ele>422.10000000000002</ele>
        <time>2018-05-20T11:17:25Z</time>
      </trkpt>
      <trkpt lat="42.805146016180515" lon="-7.626828979700804">
        <ele>421.19999999999999</ele>
        <time>2018-05-20T11:17:27Z</time>
      </trkpt>
      <trkpt lat="42.805140987038612" lon="-7.62677701190114">
        <ele>420.5</ele>
        <time>2018-05-20T11:17:28Z</time>
      </trkpt>
      <trkpt lat="42.80513696372509" lon="-7.6266910135746">
        <ele>419.39999999999998</ele>
        <time>2018-05-20T11:17:30Z</time>
      </trkpt>
      <trkpt lat="42.80513696372509" lon="-7.626609960570931">
        <ele>418.19999999999999</ele>
        <time>2018-05-20T11:17:32Z</time>
      </trkpt>
      <trkpt lat="42.80513696372509" lon="-7.626538965851069">
        <ele>417.19999999999999</ele>
        <time>2018-05-20T11:17:33Z</time>
      </trkpt>
      <trkpt lat="42.805132018402219" lon="-7.626488003879786">
        <ele>416.60000000000002</ele>
        <time>2018-05-20T11:17:34Z</time>
      </trkpt>
      <trkpt lat="42.805132018402219" lon="-7.626436036080122">
        <ele>415.89999999999998</ele>
        <time>2018-05-20T11:17:35Z</time>
      </trkpt>
      <trkpt lat="42.805045014247298" lon="-7.626255992799997">
        <ele>415.5</ele>
        <time>2018-05-20T11:17:40Z</time>
      </trkpt>
      <trkpt lat="42.805025987327099" lon="-7.626098999753594">
        <ele>413.5</ele>
        <time>2018-05-20T11:17:44Z</time>
      </trkpt>
      <trkpt lat="42.805017018690705" lon="-7.626017024740577">
        <ele>412.39999999999998</ele>
        <time>2018-05-20T11:17:45Z</time>
      </trkpt>
      <trkpt lat="42.805011989548802" lon="-7.625879980623722">
        <ele>410.39999999999998</ele>
        <time>2018-05-20T11:17:48Z</time>
      </trkpt>
      <trkpt lat="42.804948035627604" lon="-7.625687029212713">
        <ele>409.10000000000002</ele>
        <time>2018-05-20T11:17:53Z</time>
      </trkpt>
      <trkpt lat="42.804847033694386" lon="-7.625474967062473">
        <ele>408.60000000000002</ele>
        <time>2018-05-20T11:17:59Z</time>
      </trkpt>
      <trkpt lat="42.804771009832621" lon="-7.625332977622747">
        <ele>408.39999999999998</ele>
        <time>2018-05-20T11:18:02Z</time>
      </trkpt>
      <trkpt lat="42.804743014276028" lon="-7.625298025086522">
        <ele>408.5</ele>
        <time>2018-05-20T11:18:03Z</time>
      </trkpt>
      <trkpt lat="42.804723987355828" lon="-7.625261982902885">
        <ele>408.39999999999998</ele>
        <time>2018-05-20T11:18:04Z</time>
      </trkpt>
      <trkpt lat="42.804704960435629" lon="-7.625222001224756">
        <ele>408.19999999999999</ele>
        <time>2018-05-20T11:18:05Z</time>
      </trkpt>
      <trkpt lat="42.804704960435629" lon="-7.625168021768332">
        <ele>407.30000000000001</ele>
        <time>2018-05-20T11:18:07Z</time>
      </trkpt>
      <trkpt lat="42.804704960435629" lon="-7.625111024826765">
        <ele>406.30000000000001</ele>
        <time>2018-05-20T11:18:08Z</time>
      </trkpt>
      <trkpt lat="42.804704960435629" lon="-7.625053022056818">
        <ele>405.30000000000001</ele>
        <time>2018-05-20T11:18:09Z</time>
      </trkpt>
      <trkpt lat="42.804718958213925" lon="-7.624984038993716">
        <ele>403.69999999999999</ele>
        <time>2018-05-20T11:18:11Z</time>
      </trkpt>
      <trkpt lat="42.804729016497731" lon="-7.624926958233118">
        <ele>402.5</ele>
        <time>2018-05-20T11:18:12Z</time>
      </trkpt>
      <trkpt lat="42.804737985134125" lon="-7.624869039282203">
        <ele>401.19999999999999</ele>
        <time>2018-05-20T11:18:13Z</time>
      </trkpt>
      <trkpt lat="42.804743014276028" lon="-7.624806007370353">
        <ele>400</ele>
        <time>2018-05-20T11:18:15Z</time>
      </trkpt>
      <trkpt lat="42.804743014276028" lon="-7.624749010428786">
        <ele>399</ele>
        <time>2018-05-20T11:18:16Z</time>
      </trkpt>
      <trkpt lat="42.804743014276028" lon="-7.624696958810091">
        <ele>398.10000000000002</ele>
        <time>2018-05-20T11:18:17Z</time>
      </trkpt>
      <trkpt lat="42.804743014276028" lon="-7.624639961868525">
        <ele>397.10000000000002</ele>
        <time>2018-05-20T11:18:19Z</time>
      </trkpt>
      <trkpt lat="42.804743014276028" lon="-7.624576007947326">
        <ele>396.10000000000002</ele>
        <time>2018-05-20T11:18:20Z</time>
      </trkpt>
      <trkpt lat="42.804733039811254" lon="-7.624516999348998">
        <ele>395.69999999999999</ele>
        <time>2018-05-20T11:18:21Z</time>
      </trkpt>
      <trkpt lat="42.804715018719435" lon="-7.62445799075067">
        <ele>395.5</ele>
        <time>2018-05-20T11:18:23Z</time>
      </trkpt>
      <trkpt lat="42.804701020941138" lon="-7.624394036829472">
        <ele>395.19999999999999</ele>
        <time>2018-05-20T11:18:24Z</time>
      </trkpt>
      <trkpt lat="42.804695991799235" lon="-7.624318012967706">
        <ele>394.5</ele>
        <time>2018-05-20T11:18:26Z</time>
      </trkpt>
      <trkpt lat="42.804690962657332" lon="-7.624247018247843">
        <ele>393.89999999999998</ele>
        <time>2018-05-20T11:18:27Z</time>
      </trkpt>
      <trkpt lat="42.804676964879036" lon="-7.624189015477896">
        <ele>393.60000000000002</ele>
        <time>2018-05-20T11:18:29Z</time>
      </trkpt>
      <trkpt lat="42.804676964879036" lon="-7.624137969687581">
        <ele>393.10000000000002</ele>
        <time>2018-05-20T11:18:30Z</time>
      </trkpt>
      <trkpt lat="42.804676964879036" lon="-7.624074015766382">
        <ele>392.39999999999998</ele>
        <time>2018-05-20T11:18:31Z</time>
      </trkpt>
      <trkpt lat="42.804676964879036" lon="-7.624000003561378">
        <ele>391.60000000000002</ele>
        <time>2018-05-20T11:18:33Z</time>
      </trkpt>
      <trkpt lat="42.804687023162842" lon="-7.623931020498276">
        <ele>390.69999999999999</ele>
        <time>2018-05-20T11:18:34Z</time>
      </trkpt>
      <trkpt lat="42.804687023162842" lon="-7.623877041041851">
        <ele>390.10000000000002</ele>
        <time>2018-05-20T11:18:36Z</time>
      </trkpt>
      <trkpt lat="42.804690962657332" lon="-7.623818032443523">
        <ele>389.39999999999998</ele>
        <time>2018-05-20T11:18:37Z</time>
      </trkpt>
      <trkpt lat="42.804695991799235" lon="-7.623760029673576">
        <ele>388.69999999999999</ele>
        <time>2018-05-20T11:18:38Z</time>
      </trkpt>
      <trkpt lat="42.804695991799235" lon="-7.623708983883262">
        <ele>388.30000000000001</ele>
        <time>2018-05-20T11:18:39Z</time>
      </trkpt>
      <trkpt lat="42.804704960435629" lon="-7.623628014698625">
        <ele>387.60000000000002</ele>
        <time>2018-05-20T11:18:41Z</time>
      </trkpt>
      <trkpt lat="42.804723987355828" lon="-7.623571017757058">
        <ele>386.89999999999998</ele>
        <time>2018-05-20T11:18:42Z</time>
      </trkpt>
      <trkpt lat="42.80474703758955" lon="-7.623513014987111">
        <ele>386</ele>
        <time>2018-05-20T11:18:44Z</time>
      </trkpt>
      <trkpt lat="42.804757012054324" lon="-7.623449983075261">
        <ele>385.5</ele>
        <time>2018-05-20T11:18:45Z</time>
      </trkpt>
      <trkpt lat="42.804771009832621" lon="-7.623403966426849">
        <ele>384.89999999999998</ele>
        <time>2018-05-20T11:18:46Z</time>
      </trkpt>
      <trkpt lat="42.804803028702736" lon="-7.623358033597469">
        <ele>384.10000000000002</ele>
        <time>2018-05-20T11:18:48Z</time>
      </trkpt>
      <trkpt lat="42.804827000945807" lon="-7.623312016949058">
        <ele>383.39999999999998</ele>
        <time>2018-05-20T11:18:49Z</time>
      </trkpt>
      <trkpt lat="42.804849967360497" lon="-7.623243033885956">
        <ele>382.60000000000002</ele>
        <time>2018-05-20T11:18:51Z</time>
      </trkpt>
      <trkpt lat="42.804867988452315" lon="-7.623206991702318">
        <ele>382.10000000000002</ele>
        <time>2018-05-20T11:18:52Z</time>
      </trkpt>
      <trkpt lat="42.804887015372515" lon="-7.623149994760752">
        <ele>381.39999999999998</ele>
        <time>2018-05-20T11:18:53Z</time>
      </trkpt>
      <trkpt lat="42.804895984008908" lon="-7.623098026961088">
        <ele>381</ele>
        <time>2018-05-20T11:18:54Z</time>
      </trkpt>
      <trkpt lat="42.804909981787205" lon="-7.623052010312676">
        <ele>380.60000000000002</ele>
        <time>2018-05-20T11:18:55Z</time>
      </trkpt>
      <trkpt lat="42.804915010929108" lon="-7.622991995885968">
        <ele>380.19999999999999</ele>
        <time>2018-05-20T11:18:57Z</time>
      </trkpt>
      <trkpt lat="42.804929008707404" lon="-7.622941033914685">
        <ele>379.69999999999999</ele>
        <time>2018-05-20T11:18:58Z</time>
      </trkpt>
      <trkpt lat="42.804957004263997" lon="-7.622878002002835">
        <ele>379</ele>
        <time>2018-05-20T11:18:59Z</time>
      </trkpt>
      <trkpt lat="42.804976031184196" lon="-7.622826034203172">
        <ele>378.39999999999998</ele>
        <time>2018-05-20T11:19:01Z</time>
      </trkpt>
      <trkpt lat="42.804998997598886" lon="-7.622785968706012">
        <ele>377.80000000000001</ele>
        <time>2018-05-20T11:19:02Z</time>
      </trkpt>
      <trkpt lat="42.805021964013577" lon="-7.622734000906348">
        <ele>377.19999999999999</ele>
        <time>2018-05-20T11:19:03Z</time>
      </trkpt>
      <trkpt lat="42.805049959570169" lon="-7.622687984257937">
        <ele>376.5</ele>
        <time>2018-05-20T11:19:04Z</time>
      </trkpt>
      <trkpt lat="42.805074015632272" lon="-7.62263098731637">
        <ele>375.80000000000001</ele>
        <time>2018-05-20T11:19:06Z</time>
      </trkpt>
      <trkpt lat="42.805082984268665" lon="-7.622572984546423">
        <ele>375.39999999999998</ele>
        <time>2018-05-20T11:19:07Z</time>
      </trkpt>
      <trkpt lat="42.805106034502387" lon="-7.622533002868295">
        <ele>374.80000000000001</ele>
        <time>2018-05-20T11:19:08Z</time>
      </trkpt>
      <trkpt lat="42.805133024230599" lon="-7.622488997876644">
        <ele>374.19999999999999</ele>
        <time>2018-05-20T11:19:10Z</time>
      </trkpt>
      <trkpt lat="42.805144004523754" lon="-7.622439041733742">
        <ele>373.80000000000001</ele>
        <time>2018-05-20T11:19:11Z</time>
      </trkpt>
      <trkpt lat="42.805149033665657" lon="-7.622376009821892">
        <ele>373.39999999999998</ele>
        <time>2018-05-20T11:19:12Z</time>
      </trkpt>
      <trkpt lat="42.805149033665657" lon="-7.622318007051945">
        <ele>373.10000000000002</ele>
        <time>2018-05-20T11:19:13Z</time>
      </trkpt>
      <trkpt lat="42.805152973160148" lon="-7.622265033423901">
        <ele>372.69999999999999</ele>
        <time>2018-05-20T11:19:14Z</time>
      </trkpt>
      <trkpt lat="42.805164037272334" lon="-7.622217005118728">
        <ele>372.30000000000001</ele>
        <time>2018-05-20T11:19:16Z</time>
      </trkpt>
      <trkpt lat="42.805168982595205" lon="-7.622163025662303">
        <ele>372</ele>
        <time>2018-05-20T11:19:17Z</time>
      </trkpt>
      <trkpt lat="42.805182980373502" lon="-7.62211499735713">
        <ele>371.5</ele>
        <time>2018-05-20T11:19:18Z</time>
      </trkpt>
      <trkpt lat="42.805196978151798" lon="-7.622046014294028">
        <ele>370.80000000000001</ele>
        <time>2018-05-20T11:19:19Z</time>
      </trkpt>
      <trkpt lat="42.805214999243617" lon="-7.6220060326159">
        <ele>370.19999999999999</ele>
        <time>2018-05-20T11:19:20Z</time>
      </trkpt>
      <trkpt lat="42.805238971486688" lon="-7.621951969340444">
        <ele>369.39999999999998</ele>
        <time>2018-05-20T11:19:22Z</time>
      </trkpt>
      <trkpt lat="42.805252969264984" lon="-7.621906036511064">
        <ele>368.69999999999999</ele>
        <time>2018-05-20T11:19:23Z</time>
      </trkpt>
      <trkpt lat="42.805256992578506" lon="-7.621847027912736">
        <ele>368.19999999999999</ele>
        <time>2018-05-20T11:19:24Z</time>
      </trkpt>
      <trkpt lat="42.805256992578506" lon="-7.621794976294041">
        <ele>367.69999999999999</ele>
        <time>2018-05-20T11:19:25Z</time>
      </trkpt>
      <trkpt lat="42.805256992578506" lon="-7.621721969917417">
        <ele>367</ele>
        <time>2018-05-20T11:19:27Z</time>
      </trkpt>
      <trkpt lat="42.805256992578506" lon="-7.621670002117753">
        <ele>366.5</ele>
        <time>2018-05-20T11:19:28Z</time>
      </trkpt>
      <trkpt lat="42.805252969264984" lon="-7.62161904014647">
        <ele>366.10000000000002</ele>
        <time>2018-05-20T11:19:29Z</time>
      </trkpt>
      <trkpt lat="42.805248023942113" lon="-7.621573023498058">
        <ele>365.80000000000001</ele>
        <time>2018-05-20T11:19:30Z</time>
      </trkpt>
      <trkpt lat="42.805257998406887" lon="-7.621483001857996">
        <ele>364.80000000000001</ele>
        <time>2018-05-20T11:19:32Z</time>
      </trkpt>
      <trkpt lat="42.805216005071998" lon="-7.62134101241827">
        <ele>364</ele>
        <time>2018-05-20T11:19:36Z</time>
      </trkpt>
      <trkpt lat="42.805267972871661" lon="-7.621160969138145">
        <ele>362.30000000000001</ele>
        <time>2018-05-20T11:19:40Z</time>
      </trkpt>
      <trkpt lat="42.805305020883679" lon="-7.620974974706769">
        <ele>361.19999999999999</ele>
        <time>2018-05-20T11:19:44Z</time>
      </trkpt>
      <trkpt lat="42.805372998118401" lon="-7.620780011638999">
        <ele>359.80000000000001</ele>
        <time>2018-05-20T11:19:49Z</time>
      </trkpt>
      <trkpt lat="42.805372998118401" lon="-7.620771965011954">
        <ele>359.69999999999999</ele>
        <time>2018-05-20T11:19:49Z</time>
      </trkpt>
      <trkpt lat="42.805441981181502" lon="-7.620660988613963">
        <ele>358.39999999999998</ele>
        <time>2018-05-20T11:19:52Z</time>
      </trkpt>
      <trkpt lat="42.805465031415224" lon="-7.620556969195604">
        <ele>357.60000000000002</ele>
        <time>2018-05-20T11:19:54Z</time>
      </trkpt>
      <trkpt lat="42.805479029193521" lon="-7.620505001395941">
        <ele>357.19999999999999</ele>
        <time>2018-05-20T11:19:56Z</time>
      </trkpt>
      <trkpt lat="42.805483974516392" lon="-7.620441969484091">
        <ele>356.89999999999998</ele>
        <time>2018-05-20T11:19:57Z</time>
      </trkpt>
      <trkpt lat="42.805489003658295" lon="-7.620362006127834">
        <ele>356.30000000000001</ele>
        <time>2018-05-20T11:19:59Z</time>
      </trkpt>
      <trkpt lat="42.805489003658295" lon="-7.620310038328171">
        <ele>355.89999999999998</ele>
        <time>2018-05-20T11:20:00Z</time>
      </trkpt>
      <trkpt lat="42.805483974516392" lon="-7.620253041386604">
        <ele>355.5</ele>
        <time>2018-05-20T11:20:01Z</time>
      </trkpt>
      <trkpt lat="42.805465031415224" lon="-7.620196966454387">
        <ele>355.39999999999998</ele>
        <time>2018-05-20T11:20:02Z</time>
      </trkpt>
      <trkpt lat="42.805439969524741" lon="-7.620142986997962">
        <ele>355.30000000000001</ele>
        <time>2018-05-20T11:20:04Z</time>
      </trkpt>
      <trkpt lat="42.805417003110051" lon="-7.62009697034955">
        <ele>355.30000000000001</ele>
        <time>2018-05-20T11:20:05Z</time>
      </trkpt>
      <trkpt lat="42.8053920250386" lon="-7.620037961751223">
        <ele>355</ele>
        <time>2018-05-20T11:20:07Z</time>
      </trkpt>
      <trkpt lat="42.805369980633259" lon="-7.619992028921843">
        <ele>354.80000000000001</ele>
        <time>2018-05-20T11:20:08Z</time>
      </trkpt>
      <trkpt lat="42.805375009775162" lon="-7.619905024766922">
        <ele>354</ele>
        <time>2018-05-20T11:20:10Z</time>
      </trkpt>
      <trkpt lat="42.805469976738095" lon="-7.619609981775284">
        <ele>350.69999999999999</ele>
        <time>2018-05-20T11:20:17Z</time>
      </trkpt>
      <trkpt lat="42.805479029193521" lon="-7.619587015360594">
        <ele>350.39999999999998</ele>
        <time>2018-05-20T11:20:17Z</time>
      </trkpt>
      <trkpt lat="42.805501995608211" lon="-7.619530018419027">
        <ele>349.5</ele>
        <time>2018-05-20T11:20:19Z</time>
      </trkpt>
      <trkpt lat="42.805523034185171" lon="-7.619488025084138">
        <ele>348.69999999999999</ele>
        <time>2018-05-20T11:20:20Z</time>
      </trkpt>
      <trkpt lat="42.805551029741764" lon="-7.619430022314191">
        <ele>347.80000000000001</ele>
        <time>2018-05-20T11:20:21Z</time>
      </trkpt>
      <trkpt lat="42.805580031126738" lon="-7.619388028979302">
        <ele>347.19999999999999</ele>
        <time>2018-05-20T11:20:23Z</time>
      </trkpt>
      <trkpt lat="42.805594028905034" lon="-7.619331032037735">
        <ele>346.5</ele>
        <time>2018-05-20T11:20:24Z</time>
      </trkpt>
      <trkpt lat="42.805622024461627" lon="-7.619266994297504">
        <ele>345.69999999999999</ele>
        <time>2018-05-20T11:20:26Z</time>
      </trkpt>
      <trkpt lat="42.805640967562795" lon="-7.619199017062783">
        <ele>345</ele>
        <time>2018-05-20T11:20:27Z</time>
      </trkpt>
      <trkpt lat="42.805658988654613" lon="-7.619141014292836">
        <ele>344.39999999999998</ele>
        <time>2018-05-20T11:20:29Z</time>
      </trkpt>
      <trkpt lat="42.805686984211206" lon="-7.619088962674141">
        <ele>344</ele>
        <time>2018-05-20T11:20:30Z</time>
      </trkpt>
      <trkpt lat="42.805725038051605" lon="-7.619043029844761">
        <ele>343.69999999999999</ele>
        <time>2018-05-20T11:20:31Z</time>
      </trkpt>
      <trkpt lat="42.805770970880985" lon="-7.619019979611039">
        <ele>343.69999999999999</ele>
        <time>2018-05-20T11:20:33Z</time>
      </trkpt>
      <trkpt lat="42.805807013064623" lon="-7.619031965732575">
        <ele>343.89999999999998</ele>
        <time>2018-05-20T11:20:34Z</time>
      </trkpt>
      <trkpt lat="42.80584498308599" lon="-7.619043029844761">
        <ele>344.10000000000002</ele>
        <time>2018-05-20T11:20:35Z</time>
      </trkpt>
      <trkpt lat="42.80588798224926" lon="-7.619055015966296">
        <ele>344.30000000000001</ele>
        <time>2018-05-20T11:20:36Z</time>
      </trkpt>
      <trkpt lat="42.805929975584149" lon="-7.61908401735127">
        <ele>344.60000000000002</ele>
        <time>2018-05-20T11:20:38Z</time>
      </trkpt>
      <trkpt lat="42.805971968919039" lon="-7.61910698376596">
        <ele>344.69999999999999</ele>
        <time>2018-05-20T11:20:39Z</time>
      </trkpt>
      <trkpt lat="42.805999964475632" lon="-7.619141014292836">
        <ele>344.80000000000001</ele>
        <time>2018-05-20T11:20:40Z</time>
      </trkpt>
      <trkpt lat="42.806018991395831" lon="-7.619187030941248">
        <ele>344.89999999999998</ele>
        <time>2018-05-20T11:20:41Z</time>
      </trkpt>
      <trkpt lat="42.806061990559101" lon="-7.619247967377305">
        <ele>344.89999999999998</ele>
        <time>2018-05-20T11:20:43Z</time>
      </trkpt>
      <trkpt lat="42.806099960580468" lon="-7.619307981804013">
        <ele>344.80000000000001</ele>
        <time>2018-05-20T11:20:45Z</time>
      </trkpt>
      <trkpt lat="42.806134996935725" lon="-7.619373025372624">
        <ele>344.5</ele>
        <time>2018-05-20T11:20:47Z</time>
      </trkpt>
      <trkpt lat="42.80620900914073" lon="-7.619458017870784">
        <ele>343.89999999999998</ele>
        <time>2018-05-20T11:20:50Z</time>
      </trkpt>
      <trkpt lat="42.806224012747407" lon="-7.619522977620363">
        <ele>343.5</ele>
        <time>2018-05-20T11:20:51Z</time>
      </trkpt>
      <trkpt lat="42.806238010525703" lon="-7.619562959298492">
        <ele>343.19999999999999</ele>
        <time>2018-05-20T11:20:52Z</time>
      </trkpt>
      <trkpt lat="42.806261982768774" lon="-7.619610987603664">
        <ele>343.30000000000001</ele>
        <time>2018-05-20T11:20:53Z</time>
      </trkpt>
      <trkpt lat="42.806286960840225" lon="-7.619652980938554">
        <ele>344</ele>
        <time>2018-05-20T11:20:54Z</time>
      </trkpt>
      <trkpt lat="42.806306993588805" lon="-7.619706960394979">
        <ele>344.5</ele>
        <time>2018-05-20T11:20:56Z</time>
      </trkpt>
      <trkpt lat="42.806320991367102" lon="-7.619769992306829">
        <ele>344.89999999999998</ele>
        <time>2018-05-20T11:20:57Z</time>
      </trkpt>
      <trkpt lat="42.806326020509005" lon="-7.619821960106492">
        <ele>345</ele>
        <time>2018-05-20T11:20:58Z</time>
      </trkpt>
      <trkpt lat="42.806329960003495" lon="-7.619875017553568">
        <ele>345.10000000000002</ele>
        <time>2018-05-20T11:21:00Z</time>
      </trkpt>
      <trkpt lat="42.806334989145398" lon="-7.619926985353231">
        <ele>345.19999999999999</ele>
        <time>2018-05-20T11:21:01Z</time>
      </trkpt>
      <trkpt lat="42.806340018287301" lon="-7.619990017265081">
        <ele>345.39999999999998</ele>
        <time>2018-05-20T11:21:02Z</time>
      </trkpt>
      <trkpt lat="42.806344041600823" lon="-7.620048020035029">
        <ele>345.5</ele>
        <time>2018-05-20T11:21:03Z</time>
      </trkpt>
      <trkpt lat="42.806348986923695" lon="-7.620151033625007">
        <ele>345.60000000000002</ele>
        <time>2018-05-20T11:21:06Z</time>
      </trkpt>
      <trkpt lat="42.806348986923695" lon="-7.62022596783936">
        <ele>345.60000000000002</ele>
        <time>2018-05-20T11:21:07Z</time>
      </trkpt>
      <trkpt lat="42.806348986923695" lon="-7.620306015014648">
        <ele>345.60000000000002</ele>
        <time>2018-05-20T11:21:09Z</time>
      </trkpt>
      <trkpt lat="42.806348986923695" lon="-7.620364017784596">
        <ele>345.60000000000002</ele>
        <time>2018-05-20T11:21:10Z</time>
      </trkpt>
      <trkpt lat="42.806354016065598" lon="-7.620421014726162">
        <ele>345.80000000000001</ele>
        <time>2018-05-20T11:21:11Z</time>
      </trkpt>
      <trkpt lat="42.806354016065598" lon="-7.620512964203954">
        <ele>346.10000000000002</ele>
        <time>2018-05-20T11:21:13Z</time>
      </trkpt>
      <trkpt lat="42.806359967216849" lon="-7.620573984459043">
        <ele>346.39999999999998</ele>
        <time>2018-05-20T11:21:15Z</time>
      </trkpt>
      <trkpt lat="42.806359967216849" lon="-7.620626036077738">
        <ele>346.60000000000002</ele>
        <time>2018-05-20T11:21:16Z</time>
      </trkpt>
      <trkpt lat="42.806359967216849" lon="-7.62069501914084">
        <ele>346.89999999999998</ele>
        <time>2018-05-20T11:21:17Z</time>
      </trkpt>
      <trkpt lat="42.806359967216849" lon="-7.620755033567548">
        <ele>347.10000000000002</ele>
        <time>2018-05-20T11:21:19Z</time>
      </trkpt>
      <trkpt lat="42.806363990530372" lon="-7.620812030509114">
        <ele>347.39999999999998</ele>
        <time>2018-05-20T11:21:20Z</time>
      </trkpt>
      <trkpt lat="42.806373964995146" lon="-7.620869027450681">
        <ele>347.80000000000001</ele>
        <time>2018-05-20T11:21:21Z</time>
      </trkpt>
      <trkpt lat="42.806406989693642" lon="-7.620888976380229">
        <ele>348.69999999999999</ele>
        <time>2018-05-20T11:21:22Z</time>
      </trkpt>
      <trkpt lat="42.806443031877279" lon="-7.620881013572216">
        <ele>349.60000000000002</ele>
        <time>2018-05-20T11:21:23Z</time>
      </trkpt>
      <trkpt lat="42.806462980806828" lon="-7.620850000530481">
        <ele>350.10000000000002</ele>
        <time>2018-05-20T11:21:24Z</time>
      </trkpt>
      <trkpt lat="42.806476978585124" lon="-7.620801972225308">
        <ele>350.30000000000001</ele>
        <time>2018-05-20T11:21:25Z</time>
      </trkpt>
      <trkpt lat="42.806476978585124" lon="-7.620744975283742">
        <ele>350.10000000000002</ele>
        <time>2018-05-20T11:21:27Z</time>
      </trkpt>
      <trkpt lat="42.806476978585124" lon="-7.620686972513795">
        <ele>349.89999999999998</ele>
        <time>2018-05-20T11:21:28Z</time>
      </trkpt>
      <trkpt lat="42.806486031040549" lon="-7.62063299305737">
        <ele>349.89999999999998</ele>
        <time>2018-05-20T11:21:29Z</time>
      </trkpt>
      <trkpt lat="42.806486031040549" lon="-7.62054699473083">
        <ele>349.69999999999999</ele>
        <time>2018-05-20T11:21:31Z</time>
      </trkpt>
      <trkpt lat="42.806500028818846" lon="-7.620453033596277">
        <ele>349.69999999999999</ele>
        <time>2018-05-20T11:21:33Z</time>
      </trkpt>
      <trkpt lat="42.806505979970098" lon="-7.620400981977582">
        <ele>349.80000000000001</ele>
        <time>2018-05-20T11:21:34Z</time>
      </trkpt>
      <trkpt lat="42.806511009112" lon="-7.620314983651042">
        <ele>349.89999999999998</ele>
        <time>2018-05-20T11:21:36Z</time>
      </trkpt>
      <trkpt lat="42.806519977748394" lon="-7.620221022516489">
        <ele>350.10000000000002</ele>
        <time>2018-05-20T11:21:38Z</time>
      </trkpt>
      <trkpt lat="42.80653397552669" lon="-7.620055982843041">
        <ele>350.5</ele>
        <time>2018-05-20T11:21:42Z</time>
      </trkpt>
      <trkpt lat="42.806539004668593" lon="-7.619938971474767">
        <ele>350.60000000000002</ele>
        <time>2018-05-20T11:21:44Z</time>
      </trkpt>
      <trkpt lat="42.806539004668593" lon="-7.619851967319846">
        <ele>350.60000000000002</ele>
        <time>2018-05-20T11:21:46Z</time>
      </trkpt>
      <trkpt lat="42.806539004668593" lon="-7.619811985641718">
        <ele>350.60000000000002</ele>
        <time>2018-05-20T11:21:47Z</time>
      </trkpt>
      <trkpt lat="42.806539004668593" lon="-7.619735961779952">
        <ele>350.60000000000002</ele>
        <time>2018-05-20T11:21:49Z</time>
      </trkpt>
      <trkpt lat="42.806539004668593" lon="-7.619672007858753">
        <ele>350.60000000000002</ele>
        <time>2018-05-20T11:21:50Z</time>
      </trkpt>
      <trkpt lat="42.806539004668593" lon="-7.619604030624032">
        <ele>350.60000000000002</ele>
        <time>2018-05-20T11:21:52Z</time>
      </trkpt>
      <trkpt lat="42.80653397552669" lon="-7.619551979005337">
        <ele>350.60000000000002</ele>
        <time>2018-05-20T11:21:53Z</time>
      </trkpt>
      <trkpt lat="42.80653397552669" lon="-7.619476960971952">
        <ele>351</ele>
        <time>2018-05-20T11:21:54Z</time>
      </trkpt>
      <trkpt lat="42.806529030203819" lon="-7.61940797790885">
        <ele>351.19999999999999</ele>
        <time>2018-05-20T11:21:56Z</time>
      </trkpt>
      <trkpt lat="42.806519977748394" lon="-7.619357015937567">
        <ele>351.19999999999999</ele>
        <time>2018-05-20T11:21:57Z</time>
      </trkpt>
      <trkpt lat="42.806511009112" lon="-7.619304964318872">
        <ele>351.19999999999999</ele>
        <time>2018-05-20T11:21:58Z</time>
      </trkpt>
      <trkpt lat="42.806501034647226" lon="-7.619246961548924">
        <ele>351.19999999999999</ele>
        <time>2018-05-20T11:21:59Z</time>
      </trkpt>
      <trkpt lat="42.806501034647226" lon="-7.619174961000681">
        <ele>351.60000000000002</ele>
        <time>2018-05-20T11:22:01Z</time>
      </trkpt>
      <trkpt lat="42.806501034647226" lon="-7.619122993201017">
        <ele>351.80000000000001</ele>
        <time>2018-05-20T11:22:02Z</time>
      </trkpt>
      <trkpt lat="42.806497011333704" lon="-7.619071025401354">
        <ele>352</ele>
        <time>2018-05-20T11:22:03Z</time>
      </trkpt>
      <trkpt lat="42.806483013555408" lon="-7.619014028459787">
        <ele>351.89999999999998</ele>
        <time>2018-05-20T11:22:05Z</time>
      </trkpt>
      <trkpt lat="42.806463986635208" lon="-7.618949990719557">
        <ele>351.69999999999999</ele>
        <time>2018-05-20T11:22:06Z</time>
      </trkpt>
      <trkpt lat="42.806444959715009" lon="-7.618882013484836">
        <ele>351.5</ele>
        <time>2018-05-20T11:22:08Z</time>
      </trkpt>
      <trkpt lat="42.806427022442222" lon="-7.618835996836424">
        <ele>351.30000000000001</ele>
        <time>2018-05-20T11:22:09Z</time>
      </trkpt>
      <trkpt lat="42.806407995522022" lon="-7.61878402903676">
        <ele>351</ele>
        <time>2018-05-20T11:22:10Z</time>
      </trkpt>
      <trkpt lat="42.806379999965429" lon="-7.618731977418065">
        <ele>350.69999999999999</ele>
        <time>2018-05-20T11:22:11Z</time>
      </trkpt>
      <trkpt lat="42.80636097304523" lon="-7.61865796521306">
        <ele>351.30000000000001</ele>
        <time>2018-05-20T11:22:13Z</time>
      </trkpt>
      <trkpt lat="42.806332977488637" lon="-7.618594011291862">
        <ele>351.5</ele>
        <time>2018-05-20T11:22:15Z</time>
      </trkpt>
      <trkpt lat="42.80629601329565" lon="-7.618497032672167">
        <ele>352.10000000000002</ele>
        <time>2018-05-20T11:22:17Z</time>
      </trkpt>
      <trkpt lat="42.806272963061929" lon="-7.618422014638782">
        <ele>352.69999999999999</ele>
        <time>2018-05-20T11:22:19Z</time>
      </trkpt>
      <trkpt lat="42.806262988597155" lon="-7.618365017697215">
        <ele>353.30000000000001</ele>
        <time>2018-05-20T11:22:20Z</time>
      </trkpt>
      <trkpt lat="42.806240022182465" lon="-7.61831103824079">
        <ele>353.69999999999999</ele>
        <time>2018-05-20T11:22:22Z</time>
      </trkpt>
      <trkpt lat="42.806220995262265" lon="-7.618265021592379">
        <ele>354.10000000000002</ele>
        <time>2018-05-20T11:22:23Z</time>
      </trkpt>
      <trkpt lat="42.806198028847575" lon="-7.61818497441709">
        <ele>355</ele>
        <time>2018-05-20T11:22:25Z</time>
      </trkpt>
      <trkpt lat="42.806170033290982" lon="-7.618110040202737">
        <ele>355.69999999999999</ele>
        <time>2018-05-20T11:22:26Z</time>
      </trkpt>
      <trkpt lat="42.806156035512686" lon="-7.618047008290887">
        <ele>356.39999999999998</ele>
        <time>2018-05-20T11:22:28Z</time>
      </trkpt>
      <trkpt lat="42.806156035512686" lon="-7.617983976379037">
        <ele>357.30000000000001</ele>
        <time>2018-05-20T11:22:29Z</time>
      </trkpt>
      <trkpt lat="42.806156035512686" lon="-7.617914993315935">
        <ele>358.30000000000001</ele>
        <time>2018-05-20T11:22:31Z</time>
      </trkpt>
      <trkpt lat="42.80616600997746" lon="-7.617748025804758">
        <ele>360.19999999999999</ele>
        <time>2018-05-20T11:22:35Z</time>
      </trkpt>
      <trkpt lat="42.806170033290982" lon="-7.617691028863192">
        <ele>360.80000000000001</ele>
        <time>2018-05-20T11:22:36Z</time>
      </trkpt>
      <trkpt lat="42.806184031069279" lon="-7.617626991122961">
        <ele>361.80000000000001</ele>
        <time>2018-05-20T11:22:37Z</time>
      </trkpt>
      <trkpt lat="42.806216971948743" lon="-7.617550967261195">
        <ele>363.19999999999999</ele>
        <time>2018-05-20T11:22:39Z</time>
      </trkpt>
      <trkpt lat="42.806240022182465" lon="-7.617498999461532">
        <ele>364.30000000000001</ele>
        <time>2018-05-20T11:22:41Z</time>
      </trkpt>
      <trkpt lat="42.806265000253916" lon="-7.617457006126642">
        <ele>365.19999999999999</ele>
        <time>2018-05-20T11:22:42Z</time>
      </trkpt>
      <trkpt lat="42.806298024952412" lon="-7.617388023063541">
        <ele>366.5</ele>
        <time>2018-05-20T11:22:44Z</time>
      </trkpt>
      <trkpt lat="42.806329960003495" lon="-7.617307975888252">
        <ele>367.89999999999998</ele>
        <time>2018-05-20T11:22:46Z</time>
      </trkpt>
      <trkpt lat="42.80635803937912" lon="-7.617245027795434">
        <ele>369</ele>
        <time>2018-05-20T11:22:47Z</time>
      </trkpt>
      <trkpt lat="42.806400032714009" lon="-7.617175960913301">
        <ele>370.39999999999998</ele>
        <time>2018-05-20T11:22:49Z</time>
      </trkpt>
      <trkpt lat="42.806438002735376" lon="-7.617101026698947">
        <ele>371.80000000000001</ele>
        <time>2018-05-20T11:22:51Z</time>
      </trkpt>
      <trkpt lat="42.806465998291969" lon="-7.617060961201787">
        <ele>372.30000000000001</ele>
        <time>2018-05-20T11:22:52Z</time>
      </trkpt>
      <trkpt lat="42.806504974141717" lon="-7.617017962038517">
        <ele>372.80000000000001</ele>
        <time>2018-05-20T11:22:54Z</time>
      </trkpt>
      <trkpt lat="42.806546967476606" lon="-7.616973035037518">
        <ele>373.39999999999998</ele>
        <time>2018-05-20T11:22:55Z</time>
      </trkpt>
      <trkpt lat="42.806570017710328" lon="-7.616931963711977">
        <ele>373.69999999999999</ele>
        <time>2018-05-20T11:22:57Z</time>
      </trkpt>
      <trkpt lat="42.806598013266921" lon="-7.616891982033849">
        <ele>374.10000000000002</ele>
        <time>2018-05-20T11:22:58Z</time>
      </trkpt>
      <trkpt lat="42.806630032137036" lon="-7.616858035326004">
        <ele>374.5</ele>
        <time>2018-05-20T11:22:59Z</time>
      </trkpt>
      <trkpt lat="42.8066629730165" lon="-7.616822998970747">
        <ele>375</ele>
        <time>2018-05-20T11:23:00Z</time>
      </trkpt>
      <trkpt lat="42.806695997714996" lon="-7.616783017292619">
        <ele>375.39999999999998</ele>
        <time>2018-05-20T11:23:02Z</time>
      </trkpt>
      <trkpt lat="42.806728016585112" lon="-7.616748986765742">
        <ele>375.89999999999998</ele>
        <time>2018-05-20T11:23:03Z</time>
      </trkpt>
      <trkpt lat="42.806751988828182" lon="-7.616702970117331">
        <ele>376.19999999999999</ele>
        <time>2018-05-20T11:23:04Z</time>
      </trkpt>
      <trkpt lat="42.806779984384775" lon="-7.616657037287951">
        <ele>376.60000000000002</ele>
        <time>2018-05-20T11:23:05Z</time>
      </trkpt>
      <trkpt lat="42.806807979941368" lon="-7.616604985669255">
        <ele>376.89999999999998</ele>
        <time>2018-05-20T11:23:07Z</time>
      </trkpt>
      <trkpt lat="42.806839998811483" lon="-7.616553017869592">
        <ele>377.39999999999998</ele>
        <time>2018-05-20T11:23:08Z</time>
      </trkpt>
      <trkpt lat="42.80687796883285" lon="-7.616501972079277">
        <ele>377.89999999999998</ele>
        <time>2018-05-20T11:23:10Z</time>
      </trkpt>
      <trkpt lat="42.806905964389443" lon="-7.616450004279614">
        <ele>378.30000000000001</ele>
        <time>2018-05-20T11:23:11Z</time>
      </trkpt>
      <trkpt lat="42.806933959946036" lon="-7.616403987631202">
        <ele>378.69999999999999</ele>
        <time>2018-05-20T11:23:12Z</time>
      </trkpt>
      <trkpt lat="42.806965978816152" lon="-7.61635797098279">
        <ele>379.19999999999999</ele>
        <time>2018-05-20T11:23:14Z</time>
      </trkpt>
      <trkpt lat="42.806993974372745" lon="-7.616324024274945">
        <ele>379.60000000000002</ele>
        <time>2018-05-20T11:23:15Z</time>
      </trkpt>
      <trkpt lat="42.807031022384763" lon="-7.61627197265625">
        <ele>380.10000000000002</ele>
        <time>2018-05-20T11:23:17Z</time>
      </trkpt>
      <trkpt lat="42.80709195882082" lon="-7.61618597432971">
        <ele>381</ele>
        <time>2018-05-20T11:23:19Z</time>
      </trkpt>
      <trkpt lat="42.807120038196445" lon="-7.616144986823201">
        <ele>381.30000000000001</ele>
        <time>2018-05-20T11:23:20Z</time>
      </trkpt>
      <trkpt lat="42.807149961590767" lon="-7.616121014580131">
        <ele>381.69999999999999</ele>
        <time>2018-05-20T11:23:21Z</time>
      </trkpt>
      <trkpt lat="42.807173011824489" lon="-7.616080027073622">
        <ele>381.89999999999998</ele>
        <time>2018-05-20T11:23:23Z</time>
      </trkpt>
      <trkpt lat="42.807195978239179" lon="-7.616028981283307">
        <ele>382.10000000000002</ele>
        <time>2018-05-20T11:23:24Z</time>
      </trkpt>
      <trkpt lat="42.807223973795772" lon="-7.615982964634895">
        <ele>382.39999999999998</ele>
        <time>2018-05-20T11:23:25Z</time>
      </trkpt>
      <trkpt lat="42.807251969352365" lon="-7.615937031805515">
        <ele>382.60000000000002</ele>
        <time>2018-05-20T11:23:26Z</time>
      </trkpt>
      <trkpt lat="42.807279964908957" lon="-7.615901995450258">
        <ele>382.89999999999998</ele>
        <time>2018-05-20T11:23:28Z</time>
      </trkpt>
      <trkpt lat="42.807321958243847" lon="-7.615855978801847">
        <ele>383.30000000000001</ele>
        <time>2018-05-20T11:23:29Z</time>
      </trkpt>
      <trkpt lat="42.807354982942343" lon="-7.615815997123718">
        <ele>383.60000000000002</ele>
        <time>2018-05-20T11:23:30Z</time>
      </trkpt>
      <trkpt lat="42.807388007640839" lon="-7.615781966596842">
        <ele>383.80000000000001</ele>
        <time>2018-05-20T11:23:32Z</time>
      </trkpt>
      <trkpt lat="42.807424971833825" lon="-7.615736033767462">
        <ele>384.10000000000002</ele>
        <time>2018-05-20T11:23:33Z</time>
      </trkpt>
      <trkpt lat="42.807452967390418" lon="-7.61569001711905">
        <ele>384.30000000000001</ele>
        <time>2018-05-20T11:23:34Z</time>
      </trkpt>
      <trkpt lat="42.807480962947011" lon="-7.615650035440922">
        <ele>384.5</ele>
        <time>2018-05-20T11:23:36Z</time>
      </trkpt>
      <trkpt lat="42.807512981817126" lon="-7.615597983822227">
        <ele>384.69999999999999</ele>
        <time>2018-05-20T11:23:37Z</time>
      </trkpt>
      <trkpt lat="42.807532008737326" lon="-7.615551967173815">
        <ele>384.69999999999999</ele>
        <time>2018-05-20T11:23:38Z</time>
      </trkpt>
      <trkpt lat="42.807560004293919" lon="-7.615511985495687">
        <ele>384.89999999999998</ele>
        <time>2018-05-20T11:23:39Z</time>
      </trkpt>
      <trkpt lat="42.807587999850512" lon="-7.615489019080997">
        <ele>385.10000000000002</ele>
        <time>2018-05-20T11:23:40Z</time>
      </trkpt>
      <trkpt lat="42.807629993185401" lon="-7.61543101631105">
        <ele>385.30000000000001</ele>
        <time>2018-05-20T11:23:42Z</time>
      </trkpt>
      <trkpt lat="42.807652959600091" lon="-7.615396985784173">
        <ele>385.39999999999998</ele>
        <time>2018-05-20T11:23:43Z</time>
      </trkpt>
      <trkpt lat="42.80769101344049" lon="-7.6153679843992">
        <ele>385.60000000000002</ele>
        <time>2018-05-20T11:23:45Z</time>
      </trkpt>
      <trkpt lat="42.807723032310605" lon="-7.615334037691355">
        <ele>385.80000000000001</ele>
        <time>2018-05-20T11:23:46Z</time>
      </trkpt>
      <trkpt lat="42.807753961533308" lon="-7.61530302464962">
        <ele>386</ele>
        <time>2018-05-20T11:23:47Z</time>
      </trkpt>
      <trkpt lat="42.807817999273539" lon="-7.615254996344447">
        <ele>386.39999999999998</ele>
        <time>2018-05-20T11:23:49Z</time>
      </trkpt>
      <trkpt lat="42.807848006486893" lon="-7.61521702632308">
        <ele>386.60000000000002</ele>
        <time>2018-05-20T11:23:50Z</time>
      </trkpt>
      <trkpt lat="42.807884970679879" lon="-7.615176038816571">
        <ele>386.80000000000001</ele>
        <time>2018-05-20T11:23:52Z</time>
      </trkpt>
      <trkpt lat="42.807912966236472" lon="-7.615135973319411">
        <ele>387</ele>
        <time>2018-05-20T11:23:53Z</time>
      </trkpt>
      <trkpt lat="42.807945990934968" lon="-7.615095991641283">
        <ele>386.89999999999998</ele>
        <time>2018-05-20T11:23:54Z</time>
      </trkpt>
      <trkpt lat="42.807973986491561" lon="-7.615056009963155">
        <ele>386.89999999999998</ele>
        <time>2018-05-20T11:23:55Z</time>
      </trkpt>
      <trkpt lat="42.808007011190057" lon="-7.615009993314743">
        <ele>386.80000000000001</ele>
        <time>2018-05-20T11:23:57Z</time>
      </trkpt>
      <trkpt lat="42.808043975383043" lon="-7.614970011636615">
        <ele>386.80000000000001</ele>
        <time>2018-05-20T11:23:58Z</time>
      </trkpt>
      <trkpt lat="42.808072976768017" lon="-7.614929024130106">
        <ele>386.69999999999999</ele>
        <time>2018-05-20T11:23:59Z</time>
      </trkpt>
      <trkpt lat="42.808102983981371" lon="-7.614912008866668">
        <ele>386.69999999999999</ele>
        <time>2018-05-20T11:24:00Z</time>
      </trkpt>
      <trkpt lat="42.80814497731626" lon="-7.614905973896384">
        <ele>386.80000000000001</ele>
        <time>2018-05-20T11:24:02Z</time>
      </trkpt>
      <trkpt lat="42.808182025328279" lon="-7.614926006644964">
        <ele>386.89999999999998</ele>
        <time>2018-05-20T11:24:03Z</time>
      </trkpt>
      <trkpt lat="42.808212032541633" lon="-7.61496196500957">
        <ele>387.19999999999999</ele>
        <time>2018-05-20T11:24:04Z</time>
      </trkpt>
      <trkpt lat="42.808244973421097" lon="-7.614990966394544">
        <ele>387.39999999999998</ele>
        <time>2018-05-20T11:24:05Z</time>
      </trkpt>
      <trkpt lat="42.808268023654819" lon="-7.615031031891704">
        <ele>387.69999999999999</ele>
        <time>2018-05-20T11:24:06Z</time>
      </trkpt>
      <trkpt lat="42.808296019211411" lon="-7.615082999691367">
        <ele>388.10000000000002</ele>
        <time>2018-05-20T11:24:08Z</time>
      </trkpt>
      <trkpt lat="42.808323008939624" lon="-7.615115018561482">
        <ele>388.30000000000001</ele>
        <time>2018-05-20T11:24:09Z</time>
      </trkpt>
      <trkpt lat="42.808357961475849" lon="-7.615104038268328">
        <ele>388.39999999999998</ele>
        <time>2018-05-20T11:24:10Z</time>
      </trkpt>
      <trkpt lat="42.808390986174345" lon="-7.615078976377845">
        <ele>388.39999999999998</ele>
        <time>2018-05-20T11:24:11Z</time>
      </trkpt>
      <trkpt lat="42.808390986174345" lon="-7.615078976377845">
        <ele>386</ele>
        <time>2018-05-21T06:00:00Z</time>
      </trkpt>
      <trkpt lat="42.808386962860823" lon="-7.615013010799885">
        <ele>386</ele>
        <time>2018-05-21T06:00:01Z</time>
      </trkpt>
      <trkpt lat="42.808371959254146" lon="-7.615021979436278">
        <ele>386</ele>
        <time>2018-05-21T06:00:01Z</time>
      </trkpt>
      <trkpt lat="42.808354021981359" lon="-7.61502399109304">
        <ele>386</ele>
        <time>2018-05-21T06:00:02Z</time>
      </trkpt>
      <trkpt lat="42.80833700671792" lon="-7.615032959729433">
        <ele>386</ele>
        <time>2018-05-21T06:00:02Z</time>
      </trkpt>
      <trkpt lat="42.808320997282863" lon="-7.615032959729433">
        <ele>386</ele>
        <time>2018-05-21T06:00:03Z</time>
      </trkpt>
      <trkpt lat="42.808304987847805" lon="-7.615022985264659">
        <ele>386</ele>
        <time>2018-05-21T06:00:03Z</time>
      </trkpt>
      <trkpt lat="42.808286966755986" lon="-7.615003036335111">
        <ele>386</ele>
        <time>2018-05-21T06:00:04Z</time>
      </trkpt>
      <trkpt lat="42.80827104113996" lon="-7.614989960566163">
        <ele>386</ele>
        <time>2018-05-21T06:00:05Z</time>
      </trkpt>
      <trkpt lat="42.808255031704903" lon="-7.614977974444628">
        <ele>386</ele>
        <time>2018-05-21T06:00:05Z</time>
      </trkpt>
      <trkpt lat="42.808244973421097" lon="-7.614964982494712">
        <ele>386</ele>
        <time>2018-05-21T06:00:06Z</time>
      </trkpt>
      <trkpt lat="42.8082309756428" lon="-7.614952996373177">
        <ele>386</ele>
        <time>2018-05-21T06:00:06Z</time>
      </trkpt>
      <trkpt lat="42.808202980086207" lon="-7.614926006644964">
        <ele>386</ele>
        <time>2018-05-21T06:00:07Z</time>
      </trkpt>
      <trkpt lat="42.808184958994389" lon="-7.614914020523429">
        <ele>386</ele>
        <time>2018-05-21T06:00:08Z</time>
      </trkpt>
      <trkpt lat="42.808170961216092" lon="-7.6149189658463">
        <ele>386</ele>
        <time>2018-05-21T06:00:08Z</time>
      </trkpt>
      <trkpt lat="42.808152018114924" lon="-7.614926006644964">
        <ele>386</ele>
        <time>2018-05-21T06:00:09Z</time>
      </trkpt>
      <trkpt lat="42.808109018951654" lon="-7.614970011636615">
        <ele>386</ele>
        <time>2018-05-21T06:00:10Z</time>
      </trkpt>
      <trkpt lat="42.808070965111256" lon="-7.615020973607898">
        <ele>386</ele>
        <time>2018-05-21T06:00:12Z</time>
      </trkpt>
      <trkpt lat="42.808038024231791" lon="-7.615048969164491">
        <ele>386</ele>
        <time>2018-05-21T06:00:13Z</time>
      </trkpt>
      <trkpt lat="42.807987984269857" lon="-7.615093979984522">
        <ele>386</ele>
        <time>2018-05-21T06:00:15Z</time>
      </trkpt>
      <trkpt lat="42.807940039783716" lon="-7.61513002216816">
        <ele>386</ele>
        <time>2018-05-21T06:00:16Z</time>
      </trkpt>
      <trkpt lat="42.807876002043486" lon="-7.615233035758138">
        <ele>385</ele>
        <time>2018-05-21T06:00:19Z</time>
      </trkpt>
      <trkpt lat="42.807869967073202" lon="-7.615235969424248">
        <ele>385</ele>
        <time>2018-05-21T06:00:20Z</time>
      </trkpt>
      <trkpt lat="42.807807018980384" lon="-7.615292966365814">
        <ele>385</ele>
        <time>2018-05-21T06:00:22Z</time>
      </trkpt>
      <trkpt lat="42.807766031473875" lon="-7.615361027419567">
        <ele>385</ele>
        <time>2018-05-21T06:00:24Z</time>
      </trkpt>
      <trkpt lat="42.807694030925632" lon="-7.615473009645939">
        <ele>388</ele>
        <time>2018-05-21T06:00:27Z</time>
      </trkpt>
      <trkpt lat="42.807632004842162" lon="-7.615559007972479">
        <ele>388</ele>
        <time>2018-05-21T06:00:30Z</time>
      </trkpt>
      <trkpt lat="42.807629993185401" lon="-7.615563031286001">
        <ele>388</ele>
        <time>2018-05-21T06:00:30Z</time>
      </trkpt>
      <trkpt lat="42.807578025385737" lon="-7.615638971328735">
        <ele>388</ele>
        <time>2018-05-21T06:00:32Z</time>
      </trkpt>
      <trkpt lat="42.807572996243834" lon="-7.615645006299019">
        <ele>388</ele>
        <time>2018-05-21T06:00:32Z</time>
      </trkpt>
      <trkpt lat="42.807513987645507" lon="-7.615722035989165">
        <ele>388</ele>
        <time>2018-05-21T06:00:35Z</time>
      </trkpt>
      <trkpt lat="42.80745598487556" lon="-7.615846004337072">
        <ele>388</ele>
        <time>2018-05-21T06:00:38Z</time>
      </trkpt>
      <trkpt lat="42.80741399154067" lon="-7.615858996286988">
        <ele>388</ele>
        <time>2018-05-21T06:00:39Z</time>
      </trkpt>
      <trkpt lat="42.807350037619472" lon="-7.615794958546758">
        <ele>388</ele>
        <time>2018-05-21T06:00:41Z</time>
      </trkpt>
      <trkpt lat="42.80734702013433" lon="-7.615794958546758">
        <ele>388</ele>
        <time>2018-05-21T06:00:41Z</time>
      </trkpt>
      <trkpt lat="42.807288011536002" lon="-7.615724969655275">
        <ele>388</ele>
        <time>2018-05-21T06:00:44Z</time>
      </trkpt>
      <trkpt lat="42.807190027087927" lon="-7.615606030449271">
        <ele>388</ele>
        <time>2018-05-21T06:00:48Z</time>
      </trkpt>
      <trkpt lat="42.807109979912639" lon="-7.615463035181165">
        <ele>380</ele>
        <time>2018-05-21T06:00:52Z</time>
      </trkpt>
      <trkpt lat="42.80702699907124" lon="-7.61534501798451">
        <ele>376</ele>
        <time>2018-05-21T06:00:55Z</time>
      </trkpt>
      <trkpt lat="42.807022975757718" lon="-7.615339988842607">
        <ele>376</ele>
        <time>2018-05-21T06:00:55Z</time>
      </trkpt>
      <trkpt lat="42.807009983807802" lon="-7.61532498523593">
        <ele>376</ele>
        <time>2018-05-21T06:00:56Z</time>
      </trkpt>
      <trkpt lat="42.807002020999789" lon="-7.615296989679337">
        <ele>376</ele>
        <time>2018-05-21T06:00:56Z</time>
      </trkpt>
      <trkpt lat="42.806991962715983" lon="-7.615267988294363">
        <ele>376</ele>
        <time>2018-05-21T06:00:57Z</time>
      </trkpt>
      <trkpt lat="42.80698299407959" lon="-7.615244016051292">
        <ele>376</ele>
        <time>2018-05-21T06:00:58Z</time>
      </trkpt>
      <trkpt lat="42.806972013786435" lon="-7.615225994959474">
        <ele>376</ele>
        <time>2018-05-21T06:00:58Z</time>
      </trkpt>
      <trkpt lat="42.806951981037855" lon="-7.615219037979841">
        <ele>376</ele>
        <time>2018-05-21T06:00:59Z</time>
      </trkpt>
      <trkpt lat="42.806933959946036" lon="-7.615219037979841">
        <ele>376</ele>
        <time>2018-05-21T06:00:59Z</time>
      </trkpt>
      <trkpt lat="42.806916022673249" lon="-7.615219037979841">
        <ele>376</ele>
        <time>2018-05-21T06:01:00Z</time>
      </trkpt>
      <trkpt lat="42.806904036551714" lon="-7.615227000787854">
        <ele>376</ele>
        <time>2018-05-21T06:01:00Z</time>
      </trkpt>
      <trkpt lat="42.806886015459895" lon="-7.61523898690939">
        <ele>376</ele>
        <time>2018-05-21T06:01:01Z</time>
      </trkpt>
      <trkpt lat="42.806872017681599" lon="-7.615253990516067">
        <ele>376</ele>
        <time>2018-05-21T06:01:01Z</time>
      </trkpt>
      <trkpt lat="42.806856008246541" lon="-7.615271005779505">
        <ele>376</ele>
        <time>2018-05-21T06:01:02Z</time>
      </trkpt>
      <trkpt lat="42.806837987154722" lon="-7.615291038528085">
        <ele>376</ele>
        <time>2018-05-21T06:01:03Z</time>
      </trkpt>
      <trkpt lat="42.806819966062903" lon="-7.615310987457633">
        <ele>376</ele>
        <time>2018-05-21T06:01:03Z</time>
      </trkpt>
      <trkpt lat="42.806802028790116" lon="-7.615330014377832">
        <ele>376</ele>
        <time>2018-05-21T06:01:04Z</time>
      </trkpt>
      <trkpt lat="42.806789958849549" lon="-7.615354992449284">
        <ele>376</ele>
        <time>2018-05-21T06:01:05Z</time>
      </trkpt>
      <trkpt lat="42.806774033233523" lon="-7.615372007712722">
        <ele>376</ele>
        <time>2018-05-21T06:01:05Z</time>
      </trkpt>
      <trkpt lat="42.806758023798466" lon="-7.615392040461302">
        <ele>376</ele>
        <time>2018-05-21T06:01:06Z</time>
      </trkpt>
      <trkpt lat="42.80674603767693" lon="-7.615416012704372">
        <ele>380</ele>
        <time>2018-05-21T06:01:07Z</time>
      </trkpt>
      <trkpt lat="42.806733967736363" lon="-7.615434033796191">
        <ele>380</ele>
        <time>2018-05-21T06:01:07Z</time>
      </trkpt>
      <trkpt lat="42.806721981614828" lon="-7.615452976897359">
        <ele>380</ele>
        <time>2018-05-21T06:01:08Z</time>
      </trkpt>
      <trkpt lat="42.806709995493293" lon="-7.615473009645939">
        <ele>380</ele>
        <time>2018-05-21T06:01:08Z</time>
      </trkpt>
      <trkpt lat="42.806698009371758" lon="-7.615492958575487">
        <ele>380</ele>
        <time>2018-05-21T06:01:09Z</time>
      </trkpt>
      <trkpt lat="42.806689040735364" lon="-7.615510979667306">
        <ele>380</ele>
        <time>2018-05-21T06:01:09Z</time>
      </trkpt>
      <trkpt lat="42.806676970794797" lon="-7.615525983273983">
        <ele>380</ele>
        <time>2018-05-21T06:01:10Z</time>
      </trkpt>
      <trkpt lat="42.806664984673262" lon="-7.615542998537421">
        <ele>380</ele>
        <time>2018-05-21T06:01:10Z</time>
      </trkpt>
      <trkpt lat="42.806652998551726" lon="-7.615562025457621">
        <ele>380</ele>
        <time>2018-05-21T06:01:11Z</time>
      </trkpt>
      <trkpt lat="42.80664000660181" lon="-7.615573005750775">
        <ele>380</ele>
        <time>2018-05-21T06:01:11Z</time>
      </trkpt>
      <trkpt lat="42.806607987731695" lon="-7.615610975772142">
        <ele>380</ele>
        <time>2018-05-21T06:01:13Z</time>
      </trkpt>
      <trkpt lat="42.806557025760412" lon="-7.615685993805528">
        <ele>380</ele>
        <time>2018-05-21T06:01:15Z</time>
      </trkpt>
      <trkpt lat="42.806491982191801" lon="-7.615746008232236">
        <ele>380</ele>
        <time>2018-05-21T06:01:17Z</time>
      </trkpt>
      <trkpt lat="42.806414030492306" lon="-7.615846004337072">
        <ele>380</ele>
        <time>2018-05-21T06:01:20Z</time>
      </trkpt>
      <trkpt lat="42.806237004697323" lon="-7.616130989044905">
        <ele>363</ele>
        <time>2018-05-21T06:01:28Z</time>
      </trkpt>
      <trkpt lat="42.806180007755756" lon="-7.616217993199825">
        <ele>363</ele>
        <time>2018-05-21T06:01:31Z</time>
      </trkpt>
      <trkpt lat="42.806170033290982" lon="-7.616235008463264">
        <ele>367</ele>
        <time>2018-05-21T06:01:31Z</time>
      </trkpt>
      <trkpt lat="42.806155029684305" lon="-7.616299968212843">
        <ele>367</ele>
        <time>2018-05-21T06:01:33Z</time>
      </trkpt>
      <trkpt lat="42.806141031906009" lon="-7.616340033710003">
        <ele>367</ele>
        <time>2018-05-21T06:01:34Z</time>
      </trkpt>
      <trkpt lat="42.806127034127712" lon="-7.616392001509666">
        <ele>367</ele>
        <time>2018-05-21T06:01:35Z</time>
      </trkpt>
      <trkpt lat="42.806111024692655" lon="-7.616462996229529">
        <ele>367</ele>
        <time>2018-05-21T06:01:37Z</time>
      </trkpt>
      <trkpt lat="42.806091997772455" lon="-7.616504989564419">
        <ele>367</ele>
        <time>2018-05-21T06:01:38Z</time>
      </trkpt>
      <trkpt lat="42.806073976680636" lon="-7.616551006212831">
        <ele>367</ele>
        <time>2018-05-21T06:01:39Z</time>
      </trkpt>
      <trkpt lat="42.806043969467282" lon="-7.61659299954772">
        <ele>367</ele>
        <time>2018-05-21T06:01:40Z</time>
      </trkpt>
      <trkpt lat="42.806018991395831" lon="-7.616641027852893">
        <ele>367</ele>
        <time>2018-05-21T06:01:41Z</time>
      </trkpt>
      <trkpt lat="42.805984960868955" lon="-7.616672040894628">
        <ele>367</ele>
        <time>2018-05-21T06:01:43Z</time>
      </trkpt>
      <trkpt lat="42.805952019989491" lon="-7.616705987602472">
        <ele>367</ele>
        <time>2018-05-21T06:01:44Z</time>
      </trkpt>
      <trkpt lat="42.805915977805853" lon="-7.61674496345222">
        <ele>367</ele>
        <time>2018-05-21T06:01:45Z</time>
      </trkpt>
      <trkpt lat="42.80588798224926" lon="-7.616778993979096">
        <ele>367</ele>
        <time>2018-05-21T06:01:46Z</time>
      </trkpt>
      <trkpt lat="42.805851018056273" lon="-7.616825010627508">
        <ele>367</ele>
        <time>2018-05-21T06:01:48Z</time>
      </trkpt>
      <trkpt lat="42.805817993357778" lon="-7.616864992305636">
        <ele>367</ele>
        <time>2018-05-21T06:01:49Z</time>
      </trkpt>
      <trkpt lat="42.805785974487662" lon="-7.616900028660893">
        <ele>367</ele>
        <time>2018-05-21T06:01:50Z</time>
      </trkpt>
      <trkpt lat="42.805752027779818" lon="-7.616918971762061">
        <ele>367</ele>
        <time>2018-05-21T06:01:52Z</time>
      </trkpt>
      <trkpt lat="42.805725038051605" lon="-7.616949984803796">
        <ele>367</ele>
        <time>2018-05-21T06:01:53Z</time>
      </trkpt>
      <trkpt lat="42.805692013353109" lon="-7.616977980360389">
        <ele>367</ele>
        <time>2018-05-21T06:01:54Z</time>
      </trkpt>
      <trkpt lat="42.805664017796516" lon="-7.617001030594111">
        <ele>367</ele>
        <time>2018-05-21T06:01:55Z</time>
      </trkpt>
      <trkpt lat="42.805636022239923" lon="-7.617023997008801">
        <ele>367</ele>
        <time>2018-05-21T06:01:56Z</time>
      </trkpt>
      <trkpt lat="42.805611966177821" lon="-7.617064984515309">
        <ele>369</ele>
        <time>2018-05-21T06:01:57Z</time>
      </trkpt>
      <trkpt lat="42.805579025298357" lon="-7.617088034749031">
        <ele>369</ele>
        <time>2018-05-21T06:01:58Z</time>
      </trkpt>
      <trkpt lat="42.805542983114719" lon="-7.617101026698947">
        <ele>369</ele>
        <time>2018-05-21T06:01:59Z</time>
      </trkpt>
      <trkpt lat="42.805506018921733" lon="-7.617113012820482">
        <ele>369</ele>
        <time>2018-05-21T06:02:00Z</time>
      </trkpt>
      <trkpt lat="42.805467965081334" lon="-7.617106977850199">
        <ele>348</ele>
        <time>2018-05-21T06:02:01Z</time>
      </trkpt>
      <trkpt lat="42.805425971746445" lon="-7.617101026698947">
        <ele>348</ele>
        <time>2018-05-21T06:02:03Z</time>
      </trkpt>
      <trkpt lat="42.805383978411555" lon="-7.617089962586761">
        <ele>348</ele>
        <time>2018-05-21T06:02:04Z</time>
      </trkpt>
      <trkpt lat="42.805347014218569" lon="-7.617081999778748">
        <ele>348</ele>
        <time>2018-05-21T06:02:05Z</time>
      </trkpt>
      <trkpt lat="42.805310972034931" lon="-7.617059033364058">
        <ele>348</ele>
        <time>2018-05-21T06:02:06Z</time>
      </trkpt>
      <trkpt lat="42.805139981210232" lon="-7.616954008117318">
        <ele>347</ele>
        <time>2018-05-21T06:02:12Z</time>
      </trkpt>
      <trkpt lat="42.805021964013577" lon="-7.616878990083933">
        <ele>347</ele>
        <time>2018-05-21T06:02:16Z</time>
      </trkpt>
      <trkpt lat="42.804944012314081" lon="-7.616803972050548">
        <ele>347</ele>
        <time>2018-05-21T06:02:19Z</time>
      </trkpt>
      <trkpt lat="42.804857008159161" lon="-7.616726020351052">
        <ele>347</ele>
        <time>2018-05-21T06:02:22Z</time>
      </trkpt>
      <trkpt lat="42.804559031501412" lon="-7.616533990949392">
        <ele>332</ele>
        <time>2018-05-21T06:02:32Z</time>
      </trkpt>
      <trkpt lat="42.804158963263035" lon="-7.616287982091308">
        <ele>332</ele>
        <time>2018-05-21T06:02:45Z</time>
      </trkpt>
      <trkpt lat="42.803732994943857" lon="-7.616040967404842">
        <ele>332</ele>
        <time>2018-05-21T06:02:58Z</time>
      </trkpt>
      <trkpt lat="42.803193032741547" lon="-7.615679036825895">
        <ele>332</ele>
        <time>2018-05-21T06:03:16Z</time>
      </trkpt>
      <trkpt lat="42.802674025297165" lon="-7.615322973579168">
        <ele>332</ele>
        <time>2018-05-21T06:03:34Z</time>
      </trkpt>
      <trkpt lat="42.802667990326881" lon="-7.615322973579168">
        <ele>332</ele>
        <time>2018-05-21T06:03:34Z</time>
      </trkpt>
      <trkpt lat="42.802217965945601" lon="-7.615000018849969">
        <ele>332</ele>
        <time>2018-05-21T06:03:49Z</time>
      </trkpt>
      <trkpt lat="42.802214026451111" lon="-7.614954002201557">
        <ele>332</ele>
        <time>2018-05-21T06:03:51Z</time>
      </trkpt>
      <trkpt lat="42.802194999530911" lon="-7.614905973896384">
        <ele>332</ele>
        <time>2018-05-21T06:03:52Z</time>
      </trkpt>
      <trkpt lat="42.802194999530911" lon="-7.614847971126437">
        <ele>332</ele>
        <time>2018-05-21T06:03:53Z</time>
      </trkpt>
      <trkpt lat="42.802194999530911" lon="-7.614790974184871">
        <ele>332</ele>
        <time>2018-05-21T06:03:54Z</time>
      </trkpt>
      <trkpt lat="42.802203968167305" lon="-7.614739006385207">
        <ele>332</ele>
        <time>2018-05-21T06:03:55Z</time>
      </trkpt>
      <trkpt lat="42.802208997309208" lon="-7.614686032757163">
        <ele>332</ele>
        <time>2018-05-21T06:03:57Z</time>
      </trkpt>
      <trkpt lat="42.802214026451111" lon="-7.614628029987216">
        <ele>332</ele>
        <time>2018-05-21T06:03:58Z</time>
      </trkpt>
      <trkpt lat="42.802222995087504" lon="-7.61457396671176">
        <ele>332</ele>
        <time>2018-05-21T06:03:59Z</time>
      </trkpt>
      <trkpt lat="42.802231963723898" lon="-7.614516969770193">
        <ele>332</ele>
        <time>2018-05-21T06:04:00Z</time>
      </trkpt>
      <trkpt lat="42.802236992865801" lon="-7.614459972828627">
        <ele>332</ele>
        <time>2018-05-21T06:04:02Z</time>
      </trkpt>
      <trkpt lat="42.802245961502194" lon="-7.614408005028963">
        <ele>347</ele>
        <time>2018-05-21T06:04:03Z</time>
      </trkpt>
      <trkpt lat="42.802250990644097" lon="-7.614344973117113">
        <ele>347</ele>
        <time>2018-05-21T06:04:04Z</time>
      </trkpt>
      <trkpt lat="42.802256019786" lon="-7.614275990054011">
        <ele>347</ele>
        <time>2018-05-21T06:04:06Z</time>
      </trkpt>
      <trkpt lat="42.802259959280491" lon="-7.614212958142161">
        <ele>347</ele>
        <time>2018-05-21T06:04:07Z</time>
      </trkpt>
      <trkpt lat="42.802259959280491" lon="-7.614158978685737">
        <ele>347</ele>
        <time>2018-05-21T06:04:08Z</time>
      </trkpt>
      <trkpt lat="42.802264988422394" lon="-7.614112962037325">
        <ele>347</ele>
        <time>2018-05-21T06:04:09Z</time>
      </trkpt>
      <trkpt lat="42.802264988422394" lon="-7.614050013944507">
        <ele>347</ele>
        <time>2018-05-21T06:04:11Z</time>
      </trkpt>
      <trkpt lat="42.802264988422394" lon="-7.613997962325811">
        <ele>347</ele>
        <time>2018-05-21T06:04:12Z</time>
      </trkpt>
      <trkpt lat="42.802264988422394" lon="-7.613923028111458">
        <ele>347</ele>
        <time>2018-05-21T06:04:13Z</time>
      </trkpt>
      <trkpt lat="42.802264988422394" lon="-7.613866031169891">
        <ele>347</ele>
        <time>2018-05-21T06:04:15Z</time>
      </trkpt>
      <trkpt lat="42.802264988422394" lon="-7.613809034228325">
        <ele>347</ele>
        <time>2018-05-21T06:04:16Z</time>
      </trkpt>
      <trkpt lat="42.802256019786" lon="-7.613749019801617">
        <ele>347</ele>
        <time>2018-05-21T06:04:17Z</time>
      </trkpt>
      <trkpt lat="42.802256019786" lon="-7.61369202286005">
        <ele>347</ele>
        <time>2018-05-21T06:04:18Z</time>
      </trkpt>
      <trkpt lat="42.802256019786" lon="-7.613634020090103">
        <ele>347</ele>
        <time>2018-05-21T06:04:20Z</time>
      </trkpt>
      <trkpt lat="42.802256019786" lon="-7.613572999835014">
        <ele>351</ele>
        <time>2018-05-21T06:04:21Z</time>
      </trkpt>
      <trkpt lat="42.802250990644097" lon="-7.613497981801629">
        <ele>351</ele>
        <time>2018-05-21T06:04:23Z</time>
      </trkpt>
      <trkpt lat="42.802245961502194" lon="-7.613428998738527">
        <ele>351</ele>
        <time>2018-05-21T06:04:24Z</time>
      </trkpt>
      <trkpt lat="42.802242022007704" lon="-7.613376025110483">
        <ele>351</ele>
        <time>2018-05-21T06:04:25Z</time>
      </trkpt>
      <trkpt lat="42.802214026451111" lon="-7.613294972106814">
        <ele>351</ele>
        <time>2018-05-21T06:04:27Z</time>
      </trkpt>
      <trkpt lat="42.802203968167305" lon="-7.613232024013996">
        <ele>351</ele>
        <time>2018-05-21T06:04:29Z</time>
      </trkpt>
      <trkpt lat="42.802175972610712" lon="-7.613206962123513">
        <ele>351</ele>
        <time>2018-05-21T06:04:30Z</time>
      </trkpt>
      <trkpt lat="42.802136996760964" lon="-7.613166980445385">
        <ele>351</ele>
        <time>2018-05-21T06:04:31Z</time>
      </trkpt>
      <trkpt lat="42.802046975120902" lon="-7.613106966018677">
        <ele>368</ele>
        <time>2018-05-21T06:04:34Z</time>
      </trkpt>
      <trkpt lat="42.80204102396965" lon="-7.613106966018677">
        <ele>362</ele>
        <time>2018-05-21T06:04:34Z</time>
      </trkpt>
      <trkpt lat="42.801931975409389" lon="-7.613013004884124">
        <ele>368</ele>
        <time>2018-05-21T06:04:38Z</time>
      </trkpt>
      <trkpt lat="42.801736006513238" lon="-7.612870009616017">
        <ele>368</ele>
        <time>2018-05-21T06:04:45Z</time>
      </trkpt>
      <trkpt lat="42.80171999707818" lon="-7.612870009616017">
        <ele>368</ele>
        <time>2018-05-21T06:04:45Z</time>
      </trkpt>
      <trkpt lat="42.801604997366667" lon="-7.612775964662433">
        <ele>353</ele>
        <time>2018-05-21T06:04:49Z</time>
      </trkpt>
      <trkpt lat="42.80141900293529" lon="-7.612706981599331">
        <ele>353</ele>
        <time>2018-05-21T06:04:55Z</time>
      </trkpt>
      <trkpt lat="42.801298974081874" lon="-7.612655013799667">
        <ele>353</ele>
        <time>2018-05-21T06:04:58Z</time>
      </trkpt>
      <trkpt lat="42.801287993788719" lon="-7.612655013799667">
        <ele>362</ele>
        <time>2018-05-21T06:04:59Z</time>
      </trkpt>
      <trkpt lat="42.801153967157006" lon="-7.612562980502844">
        <ele>362</ele>
        <time>2018-05-21T06:05:03Z</time>
      </trkpt>
      <trkpt lat="42.801131000742316" lon="-7.612558035179973">
        <ele>362</ele>
        <time>2018-05-21T06:05:04Z</time>
      </trkpt>
      <trkpt lat="42.80109797604382" lon="-7.612522998824716">
        <ele>362</ele>
        <time>2018-05-21T06:05:05Z</time>
      </trkpt>
      <trkpt lat="42.801083978265524" lon="-7.612472036853433">
        <ele>362</ele>
        <time>2018-05-21T06:05:06Z</time>
      </trkpt>
      <trkpt lat="42.801061011850834" lon="-7.612414034083486">
        <ele>362</ele>
        <time>2018-05-21T06:05:08Z</time>
      </trkpt>
      <trkpt lat="42.801041984930634" lon="-7.612357037141919">
        <ele>362</ele>
        <time>2018-05-21T06:05:09Z</time>
      </trkpt>
      <trkpt lat="42.801023041829467" lon="-7.612299034371972">
        <ele>362</ele>
        <time>2018-05-21T06:05:11Z</time>
      </trkpt>
      <trkpt lat="42.800991022959352" lon="-7.612160984426737">
        <ele>362</ele>
        <time>2018-05-21T06:05:14Z</time>
      </trkpt>
      <trkpt lat="42.800980964675546" lon="-7.612098036333919">
        <ele>362</ele>
        <time>2018-05-21T06:05:15Z</time>
      </trkpt>
      <trkpt lat="42.800977025181055" lon="-7.612041039392352">
        <ele>362</ele>
        <time>2018-05-21T06:05:16Z</time>
      </trkpt>
      <trkpt lat="42.800971996039152" lon="-7.611988987773657">
        <ele>362</ele>
        <time>2018-05-21T06:05:17Z</time>
      </trkpt>
      <trkpt lat="42.800961015745997" lon="-7.611937019973993">
        <ele>360</ele>
        <time>2018-05-21T06:05:19Z</time>
      </trkpt>
      <trkpt lat="42.800933020189404" lon="-7.611902989447117">
        <ele>360</ele>
        <time>2018-05-21T06:05:20Z</time>
      </trkpt>
      <trkpt lat="42.800888009369373" lon="-7.611895026639104">
        <ele>360</ele>
        <time>2018-05-21T06:05:21Z</time>
      </trkpt>
      <trkpt lat="42.800850039348006" lon="-7.61188899166882">
        <ele>360</ele>
        <time>2018-05-21T06:05:22Z</time>
      </trkpt>
      <trkpt lat="42.800798993557692" lon="-7.611883040517569">
        <ele>360</ele>
        <time>2018-05-21T06:05:24Z</time>
      </trkpt>
      <trkpt lat="42.800765968859196" lon="-7.611859990283847">
        <ele>360</ele>
        <time>2018-05-21T06:05:25Z</time>
      </trkpt>
      <trkpt lat="42.800724981352687" lon="-7.611849009990692">
        <ele>360</ele>
        <time>2018-05-21T06:05:26Z</time>
      </trkpt>
      <trkpt lat="42.800682988017797" lon="-7.611842975020409">
        <ele>360</ele>
        <time>2018-05-21T06:05:27Z</time>
      </trkpt>
      <trkpt lat="42.80064401216805" lon="-7.611831994727254">
        <ele>360</ele>
        <time>2018-05-21T06:05:29Z</time>
      </trkpt>
      <trkpt lat="42.800616016611457" lon="-7.61180299334228">
        <ele>360</ele>
        <time>2018-05-21T06:05:30Z</time>
      </trkpt>
      <trkpt lat="42.800574023276567" lon="-7.61178002692759">
        <ele>360</ele>
        <time>2018-05-21T06:05:31Z</time>
      </trkpt>
      <trkpt lat="42.800540998578072" lon="-7.611763011664152">
        <ele>360</ele>
        <time>2018-05-21T06:05:32Z</time>
      </trkpt>
      <trkpt lat="42.800504034385085" lon="-7.611727975308895">
        <ele>360</ele>
        <time>2018-05-21T06:05:33Z</time>
      </trkpt>
      <trkpt lat="42.800482995808125" lon="-7.611699979752302">
        <ele>360</ele>
        <time>2018-05-21T06:05:34Z</time>
      </trkpt>
      <trkpt lat="42.800446031615138" lon="-7.611670978367329">
        <ele>372</ele>
        <time>2018-05-21T06:05:35Z</time>
      </trkpt>
      <trkpt lat="42.800432033836842" lon="-7.611612975597382">
        <ele>372</ele>
        <time>2018-05-21T06:05:37Z</time>
      </trkpt>
      <trkpt lat="42.800432033836842" lon="-7.611555978655815">
        <ele>372</ele>
        <time>2018-05-21T06:05:38Z</time>
      </trkpt>
      <trkpt lat="42.800432033836842" lon="-7.611498981714249">
        <ele>372</ele>
        <time>2018-05-21T06:05:39Z</time>
      </trkpt>
      <trkpt lat="42.800432033836842" lon="-7.611437039449811">
        <ele>372</ele>
        <time>2018-05-21T06:05:41Z</time>
      </trkpt>
      <trkpt lat="42.800432033836842" lon="-7.611374007537961">
        <ele>372</ele>
        <time>2018-05-21T06:05:42Z</time>
      </trkpt>
      <trkpt lat="42.800436979159713" lon="-7.611322039738298">
        <ele>372</ele>
        <time>2018-05-21T06:05:43Z</time>
      </trkpt>
      <trkpt lat="42.800442008301616" lon="-7.611252972856164">
        <ele>372</ele>
        <time>2018-05-21T06:05:45Z</time>
      </trkpt>
      <trkpt lat="42.800442008301616" lon="-7.611195975914598">
        <ele>372</ele>
        <time>2018-05-21T06:05:46Z</time>
      </trkpt>
      <trkpt lat="42.800442008301616" lon="-7.611138978973031">
        <ele>378</ele>
        <time>2018-05-21T06:05:47Z</time>
      </trkpt>
      <trkpt lat="42.800428010523319" lon="-7.611080976203084">
        <ele>378</ele>
        <time>2018-05-21T06:05:48Z</time>
      </trkpt>
      <trkpt lat="42.800414012745023" lon="-7.611021967604756">
        <ele>378</ele>
        <time>2018-05-21T06:05:50Z</time>
      </trkpt>
      <trkpt lat="42.800378976389766" lon="-7.610978968441486">
        <ele>378</ele>
        <time>2018-05-21T06:05:51Z</time>
      </trkpt>
      <trkpt lat="42.800361039116979" lon="-7.610967988148332">
        <ele>378</ele>
        <time>2018-05-21T06:05:52Z</time>
      </trkpt>
      <trkpt lat="42.800329020246863" lon="-7.610945021733642">
        <ele>378</ele>
        <time>2018-05-21T06:05:53Z</time>
      </trkpt>
      <trkpt lat="42.800297001376748" lon="-7.610910991206765">
        <ele>378</ele>
        <time>2018-05-21T06:05:54Z</time>
      </trkpt>
      <trkpt lat="42.800259031355381" lon="-7.610881989821792">
        <ele>378</ele>
        <time>2018-05-21T06:05:55Z</time>
      </trkpt>
      <trkpt lat="42.800221983343363" lon="-7.610864974558353">
        <ele>378</ele>
        <time>2018-05-21T06:05:56Z</time>
      </trkpt>
      <trkpt lat="42.800185019150376" lon="-7.610842008143663">
        <ele>378</ele>
        <time>2018-05-21T06:05:58Z</time>
      </trkpt>
      <trkpt lat="42.800147971138358" lon="-7.61081300675869">
        <ele>378</ele>
        <time>2018-05-21T06:05:59Z</time>
      </trkpt>
      <trkpt lat="42.800101032480597" lon="-7.610795991495252">
        <ele>378</ele>
        <time>2018-05-21T06:06:00Z</time>
      </trkpt>
      <trkpt lat="42.800059039145708" lon="-7.610773025080562">
        <ele>378</ele>
        <time>2018-05-21T06:06:02Z</time>
      </trkpt>
      <trkpt lat="42.800007993355393" lon="-7.61074997484684">
        <ele>378</ele>
        <time>2018-05-21T06:06:03Z</time>
      </trkpt>
      <trkpt lat="42.799969017505646" lon="-7.610732037574053">
        <ele>378</ele>
        <time>2018-05-21T06:06:05Z</time>
      </trkpt>
      <trkpt lat="42.799891987815499" lon="-7.610715022310615">
        <ele>378</ele>
        <time>2018-05-21T06:06:07Z</time>
      </trkpt>
      <trkpt lat="42.79970096424222" lon="-7.610628018155694">
        <ele>378</ele>
        <time>2018-05-21T06:06:13Z</time>
      </trkpt>
      <trkpt lat="42.799680009484291" lon="-7.610628018155694">
        <ele>378</ele>
        <time>2018-05-21T06:06:13Z</time>
      </trkpt>
      <trkpt lat="42.799652013927698" lon="-7.610604967921972">
        <ele>378</ele>
        <time>2018-05-21T06:06:14Z</time>
      </trkpt>
      <trkpt lat="42.799633992835879" lon="-7.610559035092592">
        <ele>386</ele>
        <time>2018-05-21T06:06:16Z</time>
      </trkpt>
      <trkpt lat="42.799610020592809" lon="-7.610485022887588">
        <ele>386</ele>
        <time>2018-05-21T06:06:17Z</time>
      </trkpt>
      <trkpt lat="42.799572972580791" lon="-7.610416039824486">
        <ele>386</ele>
        <time>2018-05-21T06:06:19Z</time>
      </trkpt>
      <trkpt lat="42.799550006166101" lon="-7.610363988205791">
        <ele>386</ele>
        <time>2018-05-21T06:06:21Z</time>
      </trkpt>
      <trkpt lat="42.799536008387804" lon="-7.610312020406127">
        <ele>394</ele>
        <time>2018-05-21T06:06:22Z</time>
      </trkpt>
      <trkpt lat="42.799530979245901" lon="-7.610260974615812">
        <ele>394</ele>
        <time>2018-05-21T06:06:23Z</time>
      </trkpt>
      <trkpt lat="42.79952603392303" lon="-7.610202971845865">
        <ele>394</ele>
        <time>2018-05-21T06:06:24Z</time>
      </trkpt>
      <trkpt lat="42.799512036144733" lon="-7.610145974904299">
        <ele>394</ele>
        <time>2018-05-21T06:06:25Z</time>
      </trkpt>
      <trkpt lat="42.799502983689308" lon="-7.610059976577759">
        <ele>394</ele>
        <time>2018-05-21T06:06:27Z</time>
      </trkpt>
      <trkpt lat="42.799494015052915" lon="-7.610001973807812">
        <ele>394</ele>
        <time>2018-05-21T06:06:29Z</time>
      </trkpt>
      <trkpt lat="42.79948404058814" lon="-7.609886974096298">
        <ele>394</ele>
        <time>2018-05-21T06:06:31Z</time>
      </trkpt>
      <trkpt lat="42.799469958990812" lon="-7.609756970778108">
        <ele>394</ele>
        <time>2018-05-21T06:06:34Z</time>
      </trkpt>
      <trkpt lat="42.799403993412852" lon="-7.609514985233545">
        <ele>409</ele>
        <time>2018-05-21T06:06:40Z</time>
      </trkpt>
      <trkpt lat="42.799328975379467" lon="-7.609264031052589">
        <ele>409</ele>
        <time>2018-05-21T06:06:46Z</time>
      </trkpt>
      <trkpt lat="42.79924800619483" lon="-7.609112989157438">
        <ele>409</ele>
        <time>2018-05-21T06:06:50Z</time>
      </trkpt>
      <trkpt lat="42.799163013696671" lon="-7.608929006382823">
        <ele>409</ele>
        <time>2018-05-21T06:06:55Z</time>
      </trkpt>
      <trkpt lat="42.799157984554768" lon="-7.60892397724092">
        <ele>409</ele>
        <time>2018-05-21T06:06:55Z</time>
      </trkpt>
      <trkpt lat="42.799143986776471" lon="-7.608872009441257">
        <ele>409</ele>
        <time>2018-05-21T06:06:56Z</time>
      </trkpt>
      <trkpt lat="42.799124037846923" lon="-7.608821969479322">
        <ele>409</ele>
        <time>2018-05-21T06:06:57Z</time>
      </trkpt>
      <trkpt lat="42.799080032855272" lon="-7.608762038871646">
        <ele>409</ele>
        <time>2018-05-21T06:06:59Z</time>
      </trkpt>
      <trkpt lat="42.799038039520383" lon="-7.608745023608208">
        <ele>409</ele>
        <time>2018-05-21T06:07:00Z</time>
      </trkpt>
      <trkpt lat="42.798965033143759" lon="-7.608733959496021">
        <ele>409</ele>
        <time>2018-05-21T06:07:03Z</time>
      </trkpt>
      <trkpt lat="42.798859002068639" lon="-7.608693977817893">
        <ele>416</ele>
        <time>2018-05-21T06:07:06Z</time>
      </trkpt>
      <trkpt lat="42.798693040385842" lon="-7.608693977817893">
        <ele>420</ele>
        <time>2018-05-21T06:07:11Z</time>
      </trkpt>
      <trkpt lat="42.798536969348788" lon="-7.608666988089681">
        <ele>420</ele>
        <time>2018-05-21T06:07:15Z</time>
      </trkpt>
      <trkpt lat="42.798365978524089" lon="-7.608593981713057">
        <ele>420</ele>
        <time>2018-05-21T06:07:21Z</time>
      </trkpt>
      <trkpt lat="42.798220971599221" lon="-7.608500020578504">
        <ele>420</ele>
        <time>2018-05-21T06:07:26Z</time>
      </trkpt>
      <trkpt lat="42.798215020447969" lon="-7.608500020578504">
        <ele>420</ele>
        <time>2018-05-21T06:07:26Z</time>
      </trkpt>
      <trkpt lat="42.798021985217929" lon="-7.608348978683353">
        <ele>420</ele>
        <time>2018-05-21T06:07:32Z</time>
      </trkpt>
      <trkpt lat="42.798016034066677" lon="-7.608336992561817">
        <ele>420</ele>
        <time>2018-05-21T06:07:33Z</time>
      </trkpt>
      <trkpt lat="42.797885024920106" lon="-7.608267003670335">
        <ele>420</ele>
        <time>2018-05-21T06:07:37Z</time>
      </trkpt>
      <trkpt lat="42.797879995778203" lon="-7.608267003670335">
        <ele>420</ele>
        <time>2018-05-21T06:07:37Z</time>
      </trkpt>
      <trkpt lat="42.797847976908088" lon="-7.608244037255645">
        <ele>420</ele>
        <time>2018-05-21T06:07:38Z</time>
      </trkpt>
      <trkpt lat="42.797805983573198" lon="-7.608209000900388">
        <ele>420</ele>
        <time>2018-05-21T06:07:39Z</time>
      </trkpt>
      <trkpt lat="42.797762984409928" lon="-7.60817295871675">
        <ele>420</ele>
        <time>2018-05-21T06:07:41Z</time>
      </trkpt>
      <trkpt lat="42.797721996903419" lon="-7.60817295871675">
        <ele>420</ele>
        <time>2018-05-21T06:07:42Z</time>
      </trkpt>
      <trkpt lat="42.797675980255008" lon="-7.608177987858653">
        <ele>420</ele>
        <time>2018-05-21T06:07:43Z</time>
      </trkpt>
      <trkpt lat="42.797633986920118" lon="-7.608184022828937">
        <ele>420</ele>
        <time>2018-05-21T06:07:45Z</time>
      </trkpt>
      <trkpt lat="42.797587970271707" lon="-7.608196008950472">
        <ele>420</ele>
        <time>2018-05-21T06:07:46Z</time>
      </trkpt>
      <trkpt lat="42.797557963058352" lon="-7.608218975365162">
        <ele>420</ele>
        <time>2018-05-21T06:07:47Z</time>
      </trkpt>
      <trkpt lat="42.797520998865366" lon="-7.608230039477348">
        <ele>420</ele>
        <time>2018-05-21T06:07:48Z</time>
      </trkpt>
      <trkpt lat="42.79748797416687" lon="-7.608253005892038">
        <ele>420</ele>
        <time>2018-05-21T06:07:49Z</time>
      </trkpt>
      <trkpt lat="42.797409016638994" lon="-7.608284018933773">
        <ele>420</ele>
        <time>2018-05-21T06:07:52Z</time>
      </trkpt>
      <trkpt lat="42.797243976965547" lon="-7.608365993946791">
        <ele>420</ele>
        <time>2018-05-21T06:07:57Z</time>
      </trkpt>
      <trkpt lat="42.797028981149197" lon="-7.608505971729755">
        <ele>420</ele>
        <time>2018-05-21T06:08:04Z</time>
      </trkpt>
      <trkpt lat="42.7968630194664" lon="-7.608646033331752">
        <ele>420</ele>
        <time>2018-05-21T06:08:10Z</time>
      </trkpt>
      <trkpt lat="42.796732010319829" lon="-7.608735971152782">
        <ele>421</ele>
        <time>2018-05-21T06:08:14Z</time>
      </trkpt>
      <trkpt lat="42.796732010319829" lon="-7.608744017779827">
        <ele>421</ele>
        <time>2018-05-21T06:08:14Z</time>
      </trkpt>
      <trkpt lat="42.796660009771585" lon="-7.608876032754779">
        <ele>421</ele>
        <time>2018-05-21T06:08:18Z</time>
      </trkpt>
      <trkpt lat="42.796660009771585" lon="-7.608881983906031">
        <ele>421</ele>
        <time>2018-05-21T06:08:18Z</time>
      </trkpt>
      <trkpt lat="42.796575017273426" lon="-7.609001006931067">
        <ele>421</ele>
        <time>2018-05-21T06:08:22Z</time>
      </trkpt>
      <trkpt lat="42.796559007838368" lon="-7.609022967517376">
        <ele>421</ele>
        <time>2018-05-21T06:08:22Z</time>
      </trkpt>
      <trkpt lat="42.796440990641713" lon="-7.609155988320708">
        <ele>421</ele>
        <time>2018-05-21T06:08:27Z</time>
      </trkpt>
      <trkpt lat="42.79641299508512" lon="-7.60920200496912">
        <ele>421</ele>
        <time>2018-05-21T06:08:28Z</time>
      </trkpt>
      <trkpt lat="42.796379970386624" lon="-7.609231006354094">
        <ele>421</ele>
        <time>2018-05-21T06:08:29Z</time>
      </trkpt>
      <trkpt lat="42.796340994536877" lon="-7.609236035495997">
        <ele>421</ele>
        <time>2018-05-21T06:08:30Z</time>
      </trkpt>
      <trkpt lat="42.796294977888465" lon="-7.609236035495997">
        <ele>421</ele>
        <time>2018-05-21T06:08:32Z</time>
      </trkpt>
      <trkpt lat="42.796248039230704" lon="-7.609236035495997">
        <ele>425</ele>
        <time>2018-05-21T06:08:33Z</time>
      </trkpt>
      <trkpt lat="42.796202022582293" lon="-7.609236035495997">
        <ele>425</ele>
        <time>2018-05-21T06:08:34Z</time>
      </trkpt>
      <trkpt lat="42.796166986227036" lon="-7.60922497138381">
        <ele>425</ele>
        <time>2018-05-21T06:08:36Z</time>
      </trkpt>
      <trkpt lat="42.79613102786243" lon="-7.609193958342075">
        <ele>425</ele>
        <time>2018-05-21T06:08:37Z</time>
      </trkpt>
      <trkpt lat="42.796099008992314" lon="-7.609148025512695">
        <ele>425</ele>
        <time>2018-05-21T06:08:38Z</time>
      </trkpt>
      <trkpt lat="42.796066990122199" lon="-7.609102008864284">
        <ele>425</ele>
        <time>2018-05-21T06:08:40Z</time>
      </trkpt>
      <trkpt lat="42.79604896903038" lon="-7.609055992215872">
        <ele>425</ele>
        <time>2018-05-21T06:08:41Z</time>
      </trkpt>
      <trkpt lat="42.796030025929213" lon="-7.608980974182487">
        <ele>425</ele>
        <time>2018-05-21T06:08:42Z</time>
      </trkpt>
      <trkpt lat="42.796006975695491" lon="-7.608906039968133">
        <ele>425</ele>
        <time>2018-05-21T06:08:44Z</time>
      </trkpt>
      <trkpt lat="42.79598300345242" lon="-7.608832027763128">
        <ele>425</ele>
        <time>2018-05-21T06:08:46Z</time>
      </trkpt>
      <trkpt lat="42.795974034816027" lon="-7.608762960880995">
        <ele>425</ele>
        <time>2018-05-21T06:08:47Z</time>
      </trkpt>
      <trkpt lat="42.795964982360601" lon="-7.608693977817893">
        <ele>423</ele>
        <time>2018-05-21T06:08:49Z</time>
      </trkpt>
      <trkpt lat="42.795950984582305" lon="-7.60864201001823">
        <ele>423</ele>
        <time>2018-05-21T06:08:50Z</time>
      </trkpt>
      <trkpt lat="42.795941010117531" lon="-7.608585013076663">
        <ele>423</ele>
        <time>2018-05-21T06:08:51Z</time>
      </trkpt>
      <trkpt lat="42.795932041481137" lon="-7.608520975336433">
        <ele>423</ele>
        <time>2018-05-21T06:08:53Z</time>
      </trkpt>
      <trkpt lat="42.795908991247416" lon="-7.608434977009893">
        <ele>423</ele>
        <time>2018-05-21T06:08:55Z</time>
      </trkpt>
      <trkpt lat="42.795899016782641" lon="-7.608377980068326">
        <ele>423</ele>
        <time>2018-05-21T06:08:56Z</time>
      </trkpt>
      <trkpt lat="42.795880995690823" lon="-7.608331963419914">
        <ele>423</ele>
        <time>2018-05-21T06:08:57Z</time>
      </trkpt>
      <trkpt lat="42.795861968770623" lon="-7.608269015327096">
        <ele>423</ele>
        <time>2018-05-21T06:08:59Z</time>
      </trkpt>
      <trkpt lat="42.795843025669456" lon="-7.608220987021923">
        <ele>423</ele>
        <time>2018-05-21T06:09:00Z</time>
      </trkpt>
      <trkpt lat="42.795819975435734" lon="-7.60816901922226">
        <ele>423</ele>
        <time>2018-05-21T06:09:01Z</time>
      </trkpt>
      <trkpt lat="42.795801032334566" lon="-7.608116967603564">
        <ele>423</ele>
        <time>2018-05-21T06:09:02Z</time>
      </trkpt>
      <trkpt lat="42.795773958787322" lon="-7.608043039217591">
        <ele>423</ele>
        <time>2018-05-21T06:09:04Z</time>
      </trkpt>
      <trkpt lat="42.795758033171296" lon="-7.608002973720431">
        <ele>423</ele>
        <time>2018-05-21T06:09:05Z</time>
      </trkpt>
      <trkpt lat="42.795748980715871" lon="-7.607851009815931">
        <ele>420</ele>
        <time>2018-05-21T06:09:09Z</time>
      </trkpt>
      <trkpt lat="42.795710004866123" lon="-7.607640959322453">
        <ele>420</ele>
        <time>2018-05-21T06:09:13Z</time>
      </trkpt>
      <trkpt lat="42.795702964067459" lon="-7.607431998476386">
        <ele>420</ele>
        <time>2018-05-21T06:09:18Z</time>
      </trkpt>
      <trkpt lat="42.795679997652769" lon="-7.607170986011624">
        <ele>420</ele>
        <time>2018-05-21T06:09:23Z</time>
      </trkpt>
      <trkpt lat="42.795621994882822" lon="-7.606835961341858">
        <ele>419</ele>
        <time>2018-05-21T06:09:31Z</time>
      </trkpt>
      <trkpt lat="42.795613026246428" lon="-7.606783993542194">
        <ele>419</ele>
        <time>2018-05-21T06:09:32Z</time>
      </trkpt>
      <trkpt lat="42.795603973791003" lon="-7.606733031570911">
        <ele>419</ele>
        <time>2018-05-21T06:09:33Z</time>
      </trkpt>
      <trkpt lat="42.79559500515461" lon="-7.606663964688778">
        <ele>419</ele>
        <time>2018-05-21T06:09:35Z</time>
      </trkpt>
      <trkpt lat="42.795589976012707" lon="-7.606605961918831">
        <ele>419</ele>
        <time>2018-05-21T06:09:36Z</time>
      </trkpt>
      <trkpt lat="42.795571032911539" lon="-7.606508983299136">
        <ele>419</ele>
        <time>2018-05-21T06:09:38Z</time>
      </trkpt>
      <trkpt lat="42.795567009598017" lon="-7.606457015499473">
        <ele>419</ele>
        <time>2018-05-21T06:09:39Z</time>
      </trkpt>
      <trkpt lat="42.79555301181972" lon="-7.606410998851061">
        <ele>419</ele>
        <time>2018-05-21T06:09:40Z</time>
      </trkpt>
      <trkpt lat="42.795539014041424" lon="-7.606352996081114">
        <ele>419</ele>
        <time>2018-05-21T06:09:42Z</time>
      </trkpt>
      <trkpt lat="42.795519987121224" lon="-7.606285018846393">
        <ele>419</ele>
        <time>2018-05-21T06:09:43Z</time>
      </trkpt>
      <trkpt lat="42.795515041798353" lon="-7.606227016076446">
        <ele>415</ele>
        <time>2018-05-21T06:09:45Z</time>
      </trkpt>
      <trkpt lat="42.795497020706534" lon="-7.606130037456751">
        <ele>415</ele>
        <time>2018-05-21T06:09:47Z</time>
      </trkpt>
      <trkpt lat="42.795483022928238" lon="-7.606055019423366">
        <ele>415</ele>
        <time>2018-05-21T06:09:48Z</time>
      </trkpt>
      <trkpt lat="42.795472964644432" lon="-7.605973966419697">
        <ele>415</ele>
        <time>2018-05-21T06:09:50Z</time>
      </trkpt>
      <trkpt lat="42.795463996008039" lon="-7.605928033590317">
        <ele>423</ele>
        <time>2018-05-21T06:09:51Z</time>
      </trkpt>
      <trkpt lat="42.795444969087839" lon="-7.60587103664875">
        <ele>423</ele>
        <time>2018-05-21T06:09:53Z</time>
      </trkpt>
      <trkpt lat="42.795430971309543" lon="-7.605818985030055">
        <ele>423</ele>
        <time>2018-05-21T06:09:54Z</time>
      </trkpt>
      <trkpt lat="42.795413034036756" lon="-7.605761988088489">
        <ele>423</ele>
        <time>2018-05-21T06:09:55Z</time>
      </trkpt>
      <trkpt lat="42.795394007116556" lon="-7.605703985318542">
        <ele>423</ele>
        <time>2018-05-21T06:09:56Z</time>
      </trkpt>
      <trkpt lat="42.795371040701866" lon="-7.605653023347259">
        <ele>423</ele>
        <time>2018-05-21T06:09:58Z</time>
      </trkpt>
      <trkpt lat="42.795346984639764" lon="-7.605607006698847">
        <ele>423</ele>
        <time>2018-05-21T06:09:59Z</time>
      </trkpt>
      <trkpt lat="42.795327035710216" lon="-7.605558978393674">
        <ele>423</ele>
        <time>2018-05-21T06:10:00Z</time>
      </trkpt>
      <trkpt lat="42.795303985476494" lon="-7.605489995330572">
        <ele>423</ele>
        <time>2018-05-21T06:10:02Z</time>
      </trkpt>
      <trkpt lat="42.795275989919901" lon="-7.605438027530909">
        <ele>423</ele>
        <time>2018-05-21T06:10:03Z</time>
      </trkpt>
      <trkpt lat="42.795247994363308" lon="-7.605384970083833">
        <ele>424</ele>
        <time>2018-05-21T06:10:05Z</time>
      </trkpt>
      <trkpt lat="42.795233996585011" lon="-7.605195036157966">
        <ele>424</ele>
        <time>2018-05-21T06:10:09Z</time>
      </trkpt>
      <trkpt lat="42.795196026563644" lon="-7.604996971786022">
        <ele>424</ele>
        <time>2018-05-21T06:10:13Z</time>
      </trkpt>
      <trkpt lat="42.795126959681511" lon="-7.60473302565515">
        <ele>424</ele>
        <time>2018-05-21T06:10:19Z</time>
      </trkpt>
      <trkpt lat="42.795126959681511" lon="-7.604725984856486">
        <ele>424</ele>
        <time>2018-05-21T06:10:19Z</time>
      </trkpt>
      <trkpt lat="42.795088989660144" lon="-7.604481987655163">
        <ele>424</ele>
        <time>2018-05-21T06:10:25Z</time>
      </trkpt>
      <trkpt lat="42.795098964124918" lon="-7.604232961311936">
        <ele>426</ele>
        <time>2018-05-21T06:10:30Z</time>
      </trkpt>
      <trkpt lat="42.795127965509892" lon="-7.604096001014113">
        <ele>426</ele>
        <time>2018-05-21T06:10:33Z</time>
      </trkpt>
      <trkpt lat="42.795153027400374" lon="-7.604057025164366">
        <ele>426</ele>
        <time>2018-05-21T06:10:34Z</time>
      </trkpt>
      <trkpt lat="42.795285964384675" lon="-7.603841023519635">
        <ele>426</ele>
        <time>2018-05-21T06:10:41Z</time>
      </trkpt>
      <trkpt lat="42.795356959104538" lon="-7.603717977181077">
        <ele>426</ele>
        <time>2018-05-21T06:10:44Z</time>
      </trkpt>
      <trkpt lat="42.7954660076648" lon="-7.603596020489931">
        <ele>426</ele>
        <time>2018-05-21T06:10:48Z</time>
      </trkpt>
      <trkpt lat="42.795558962970972" lon="-7.6035510096699">
        <ele>424</ele>
        <time>2018-05-21T06:10:51Z</time>
      </trkpt>
      <trkpt lat="42.795668011531234" lon="-7.603514967486262">
        <ele>424</ele>
        <time>2018-05-21T06:10:54Z</time>
      </trkpt>
      <trkpt lat="42.795668011531234" lon="-7.603321010246873">
        <ele>424</ele>
        <time>2018-05-21T06:10:59Z</time>
      </trkpt>
      <trkpt lat="42.795687038451433" lon="-7.603071983903647">
        <ele>424</ele>
        <time>2018-05-21T06:11:04Z</time>
      </trkpt>
      <trkpt lat="42.795691983774304" lon="-7.603025967255235">
        <ele>424</ele>
        <time>2018-05-21T06:11:05Z</time>
      </trkpt>
      <trkpt lat="42.795691983774304" lon="-7.602968970313668">
        <ele>424</ele>
        <time>2018-05-21T06:11:06Z</time>
      </trkpt>
      <trkpt lat="42.795691983774304" lon="-7.60290602222085">
        <ele>424</ele>
        <time>2018-05-21T06:11:08Z</time>
      </trkpt>
      <trkpt lat="42.795687038451433" lon="-7.602848019450903">
        <ele>424</ele>
        <time>2018-05-21T06:11:09Z</time>
      </trkpt>
      <trkpt lat="42.795687038451433" lon="-7.60273402556777">
        <ele>427</ele>
        <time>2018-05-21T06:11:11Z</time>
      </trkpt>
      <trkpt lat="42.795691983774304" lon="-7.602681973949075">
        <ele>427</ele>
        <time>2018-05-21T06:11:12Z</time>
      </trkpt>
      <trkpt lat="42.795691983774304" lon="-7.602502014487982">
        <ele>427</ele>
        <time>2018-05-21T06:11:16Z</time>
      </trkpt>
      <trkpt lat="42.795687038451433" lon="-7.602448035031557">
        <ele>427</ele>
        <time>2018-05-21T06:11:18Z</time>
      </trkpt>
      <trkpt lat="42.795673040673137" lon="-7.602391038089991">
        <ele>427</ele>
        <time>2018-05-21T06:11:19Z</time>
      </trkpt>
      <trkpt lat="42.795649990439415" lon="-7.602321971207857">
        <ele>427</ele>
        <time>2018-05-21T06:11:20Z</time>
      </trkpt>
      <trkpt lat="42.795601040124893" lon="-7.602276038378477">
        <ele>427</ele>
        <time>2018-05-21T06:11:22Z</time>
      </trkpt>
      <trkpt lat="42.795569021254778" lon="-7.602247036993504">
        <ele>427</ele>
        <time>2018-05-21T06:11:23Z</time>
      </trkpt>
      <trkpt lat="42.795541025698185" lon="-7.602221975103021">
        <ele>427</ele>
        <time>2018-05-21T06:11:24Z</time>
      </trkpt>
      <trkpt lat="42.795508000999689" lon="-7.602181993424892">
        <ele>427</ele>
        <time>2018-05-21T06:11:26Z</time>
      </trkpt>
      <trkpt lat="42.795494003221393" lon="-7.602130025625229">
        <ele>429</ele>
        <time>2018-05-21T06:11:27Z</time>
      </trkpt>
      <trkpt lat="42.795485034584999" lon="-7.602078979834914">
        <ele>427</ele>
        <time>2018-05-21T06:11:28Z</time>
      </trkpt>
      <trkpt lat="42.795485034584999" lon="-7.602027012035251">
        <ele>427</ele>
        <time>2018-05-21T06:11:29Z</time>
      </trkpt>
      <trkpt lat="42.795485034584999" lon="-7.601958028972149">
        <ele>429</ele>
        <time>2018-05-21T06:11:31Z</time>
      </trkpt>
      <trkpt lat="42.79548897407949" lon="-7.601883010938764">
        <ele>429</ele>
        <time>2018-05-21T06:11:32Z</time>
      </trkpt>
      <trkpt lat="42.795499032363296" lon="-7.601826013997197">
        <ele>429</ele>
        <time>2018-05-21T06:11:34Z</time>
      </trkpt>
      <trkpt lat="42.795513030141592" lon="-7.601779997348785">
        <ele>429</ele>
        <time>2018-05-21T06:11:35Z</time>
      </trkpt>
      <trkpt lat="42.795521998777986" lon="-7.601728029549122">
        <ele>429</ele>
        <time>2018-05-21T06:11:36Z</time>
      </trkpt>
      <trkpt lat="42.79553297907114" lon="-7.601674972102046">
        <ele>429</ele>
        <time>2018-05-21T06:11:37Z</time>
      </trkpt>
      <trkpt lat="42.795542031526566" lon="-7.601623004302383">
        <ele>429</ele>
        <time>2018-05-21T06:11:38Z</time>
      </trkpt>
      <trkpt lat="42.795542031526566" lon="-7.601571036502719">
        <ele>429</ele>
        <time>2018-05-21T06:11:39Z</time>
      </trkpt>
      <trkpt lat="42.795546976849437" lon="-7.601508004590869">
        <ele>429</ele>
        <time>2018-05-21T06:11:41Z</time>
      </trkpt>
      <trkpt lat="42.79555200599134" lon="-7.601444972679019">
        <ele>429</ele>
        <time>2018-05-21T06:11:42Z</time>
      </trkpt>
      <trkpt lat="42.79555200599134" lon="-7.601382024586201">
        <ele>429</ele>
        <time>2018-05-21T06:11:43Z</time>
      </trkpt>
      <trkpt lat="42.795556029304862" lon="-7.601313041523099">
        <ele>429</ele>
        <time>2018-05-21T06:11:45Z</time>
      </trkpt>
      <trkpt lat="42.795556029304862" lon="-7.601260989904404">
        <ele>429</ele>
        <time>2018-05-21T06:11:46Z</time>
      </trkpt>
      <trkpt lat="42.795560974627733" lon="-7.60120902210474">
        <ele>429</ele>
        <time>2018-05-21T06:11:47Z</time>
      </trkpt>
      <trkpt lat="42.795570027083158" lon="-7.601157976314426">
        <ele>429</ele>
        <time>2018-05-21T06:11:48Z</time>
      </trkpt>
      <trkpt lat="42.795588970184326" lon="-7.601103996858001">
        <ele>429</ele>
        <time>2018-05-21T06:11:50Z</time>
      </trkpt>
      <trkpt lat="42.795598022639751" lon="-7.601052029058337">
        <ele>429</ele>
        <time>2018-05-21T06:11:51Z</time>
      </trkpt>
      <trkpt lat="42.795612020418048" lon="-7.600982962176204">
        <ele>429</ele>
        <time>2018-05-21T06:11:52Z</time>
      </trkpt>
      <trkpt lat="42.795626018196344" lon="-7.600905010476708">
        <ele>429</ele>
        <time>2018-05-21T06:11:54Z</time>
      </trkpt>
      <trkpt lat="42.795630963519216" lon="-7.600819012150168">
        <ele>429</ele>
        <time>2018-05-21T06:11:56Z</time>
      </trkpt>
      <trkpt lat="42.795646972954273" lon="-7.600756986066699">
        <ele>429</ele>
        <time>2018-05-21T06:11:57Z</time>
      </trkpt>
      <trkpt lat="42.795646972954273" lon="-7.600697977468371">
        <ele>429</ele>
        <time>2018-05-21T06:11:59Z</time>
      </trkpt>
      <trkpt lat="42.795632975175977" lon="-7.600555988028646">
        <ele>429</ele>
        <time>2018-05-21T06:12:02Z</time>
      </trkpt>
      <trkpt lat="42.795623000711203" lon="-7.600445011630654">
        <ele>429</ele>
        <time>2018-05-21T06:12:04Z</time>
      </trkpt>
      <trkpt lat="42.79559500515461" lon="-7.600338980555534">
        <ele>430</ele>
        <time>2018-05-21T06:12:07Z</time>
      </trkpt>
      <trkpt lat="42.795560974627733" lon="-7.60015700943768">
        <ele>430</ele>
        <time>2018-05-21T06:12:11Z</time>
      </trkpt>
      <trkpt lat="42.795560974627733" lon="-7.600133959203959">
        <ele>430</ele>
        <time>2018-05-21T06:12:11Z</time>
      </trkpt>
      <trkpt lat="42.79555200599134" lon="-7.600081991404295">
        <ele>430</ele>
        <time>2018-05-21T06:12:12Z</time>
      </trkpt>
      <trkpt lat="42.795546976849437" lon="-7.600013008341193">
        <ele>430</ele>
        <time>2018-05-21T06:12:14Z</time>
      </trkpt>
      <trkpt lat="42.795542031526566" lon="-7.599956011399627">
        <ele>430</ele>
        <time>2018-05-21T06:12:15Z</time>
      </trkpt>
      <trkpt lat="42.795538008213043" lon="-7.599903959780932">
        <ele>430</ele>
        <time>2018-05-21T06:12:16Z</time>
      </trkpt>
      <trkpt lat="42.79553297907114" lon="-7.599852997809649">
        <ele>430</ele>
        <time>2018-05-21T06:12:17Z</time>
      </trkpt>
      <trkpt lat="42.795524010434747" lon="-7.599801030009985">
        <ele>430</ele>
        <time>2018-05-21T06:12:18Z</time>
      </trkpt>
      <trkpt lat="42.795514035969973" lon="-7.599737998098135">
        <ele>430</ele>
        <time>2018-05-21T06:12:20Z</time>
      </trkpt>
      <trkpt lat="42.79551001265645" lon="-7.599686030298472">
        <ele>430</ele>
        <time>2018-05-21T06:12:21Z</time>
      </trkpt>
      <trkpt lat="42.795504983514547" lon="-7.599629033356905">
        <ele>430</ele>
        <time>2018-05-21T06:12:22Z</time>
      </trkpt>
      <trkpt lat="42.795490985736251" lon="-7.599559966474772">
        <ele>430</ele>
        <time>2018-05-21T06:12:24Z</time>
      </trkpt>
      <trkpt lat="42.795490985736251" lon="-7.599501963704824">
        <ele>432</ele>
        <time>2018-05-21T06:12:25Z</time>
      </trkpt>
      <trkpt lat="42.795490985736251" lon="-7.599432980641723">
        <ele>432</ele>
        <time>2018-05-21T06:12:27Z</time>
      </trkpt>
      <trkpt lat="42.795490985736251" lon="-7.599363997578621">
        <ele>432</ele>
        <time>2018-05-21T06:12:28Z</time>
      </trkpt>
      <trkpt lat="42.795490985736251" lon="-7.599313035607338">
        <ele>432</ele>
        <time>2018-05-21T06:12:29Z</time>
      </trkpt>
      <trkpt lat="42.79551001265645" lon="-7.599271964281797">
        <ele>432</ele>
        <time>2018-05-21T06:12:30Z</time>
      </trkpt>
      <trkpt lat="42.795518981292844" lon="-7.599214967340231">
        <ele>432</ele>
        <time>2018-05-21T06:12:31Z</time>
      </trkpt>
      <trkpt lat="42.795538008213043" lon="-7.599162999540567">
        <ele>432</ele>
        <time>2018-05-21T06:12:33Z</time>
      </trkpt>
      <trkpt lat="42.795546976849437" lon="-7.599106002599001">
        <ele>432</ele>
        <time>2018-05-21T06:12:34Z</time>
      </trkpt>
      <trkpt lat="42.79555200599134" lon="-7.599054034799337">
        <ele>432</ele>
        <time>2018-05-21T06:12:35Z</time>
      </trkpt>
      <trkpt lat="42.795560974627733" lon="-7.598991002887487">
        <ele>432</ele>
        <time>2018-05-21T06:12:36Z</time>
      </trkpt>
      <trkpt lat="42.795560974627733" lon="-7.598927970975637">
        <ele>432</ele>
        <time>2018-05-21T06:12:38Z</time>
      </trkpt>
      <trkpt lat="42.795560974627733" lon="-7.598876003175974">
        <ele>432</ele>
        <time>2018-05-21T06:12:39Z</time>
      </trkpt>
      <trkpt lat="42.795566003769636" lon="-7.598819006234407">
        <ele>432</ele>
        <time>2018-05-21T06:12:40Z</time>
      </trkpt>
      <trkpt lat="42.795566003769636" lon="-7.598755974322557">
        <ele>432</ele>
        <time>2018-05-21T06:12:42Z</time>
      </trkpt>
      <trkpt lat="42.795566003769636" lon="-7.59869797155261">
        <ele>432</ele>
        <time>2018-05-21T06:12:43Z</time>
      </trkpt>
      <trkpt lat="42.795566003769636" lon="-7.598640974611044">
        <ele>434</ele>
        <time>2018-05-21T06:12:44Z</time>
      </trkpt>
      <trkpt lat="42.795566003769636" lon="-7.598582971841097">
        <ele>434</ele>
        <time>2018-05-21T06:12:45Z</time>
      </trkpt>
      <trkpt lat="42.795566003769636" lon="-7.598523963242769">
        <ele>434</ele>
        <time>2018-05-21T06:12:47Z</time>
      </trkpt>
      <trkpt lat="42.795556029304862" lon="-7.598461015149951">
        <ele>434</ele>
        <time>2018-05-21T06:12:48Z</time>
      </trkpt>
      <trkpt lat="42.795542031526566" lon="-7.598394965752959">
        <ele>434</ele>
        <time>2018-05-21T06:12:50Z</time>
      </trkpt>
      <trkpt lat="42.795530967414379" lon="-7.598348027095199">
        <ele>434</ele>
        <time>2018-05-21T06:12:51Z</time>
      </trkpt>
      <trkpt lat="42.795516969636083" lon="-7.598290024325252">
        <ele>434</ele>
        <time>2018-05-21T06:12:52Z</time>
      </trkpt>
      <trkpt lat="42.795502971857786" lon="-7.598237972706556">
        <ele>434</ele>
        <time>2018-05-21T06:12:53Z</time>
      </trkpt>
      <trkpt lat="42.795494003221393" lon="-7.598175024613738">
        <ele>434</ele>
        <time>2018-05-21T06:12:55Z</time>
      </trkpt>
      <trkpt lat="42.79548897407949" lon="-7.598123978823423">
        <ele>434</ele>
        <time>2018-05-21T06:12:56Z</time>
      </trkpt>
      <trkpt lat="42.795474976301193" lon="-7.598054995760322">
        <ele>434</ele>
        <time>2018-05-21T06:12:57Z</time>
      </trkpt>
      <trkpt lat="42.7954660076648" lon="-7.597996992990375">
        <ele>439</ele>
        <time>2018-05-21T06:12:58Z</time>
      </trkpt>
      <trkpt lat="42.795460978522897" lon="-7.597939996048808">
        <ele>439</ele>
        <time>2018-05-21T06:13:00Z</time>
      </trkpt>
      <trkpt lat="42.7954469807446" lon="-7.597864978015423">
        <ele>444</ele>
        <time>2018-05-21T06:13:01Z</time>
      </trkpt>
      <trkpt lat="42.79542401432991" lon="-7.597813010215759">
        <ele>444</ele>
        <time>2018-05-21T06:13:03Z</time>
      </trkpt>
      <trkpt lat="42.795414961874485" lon="-7.597756013274193">
        <ele>444</ele>
        <time>2018-05-21T06:13:04Z</time>
      </trkpt>
      <trkpt lat="42.795400964096189" lon="-7.597699016332626">
        <ele>444</ele>
        <time>2018-05-21T06:13:05Z</time>
      </trkpt>
      <trkpt lat="42.795382020995021" lon="-7.597630033269525">
        <ele>444</ele>
        <time>2018-05-21T06:13:07Z</time>
      </trkpt>
      <trkpt lat="42.795372968539596" lon="-7.597577981650829">
        <ele>444</ele>
        <time>2018-05-21T06:13:08Z</time>
      </trkpt>
      <trkpt lat="42.795354025438428" lon="-7.597526013851166">
        <ele>444</ele>
        <time>2018-05-21T06:13:09Z</time>
      </trkpt>
      <trkpt lat="42.795344972983003" lon="-7.597474968060851">
        <ele>444</ele>
        <time>2018-05-21T06:13:10Z</time>
      </trkpt>
      <trkpt lat="42.795330975204706" lon="-7.597423000261188">
        <ele>444</ele>
        <time>2018-05-21T06:13:12Z</time>
      </trkpt>
      <trkpt lat="42.795308008790016" lon="-7.597359968349338">
        <ele>444</ele>
        <time>2018-05-21T06:13:13Z</time>
      </trkpt>
      <trkpt lat="42.795298034325242" lon="-7.597297020256519">
        <ele>444</ele>
        <time>2018-05-21T06:13:15Z</time>
      </trkpt>
      <trkpt lat="42.795280013233423" lon="-7.597239017486572">
        <ele>444</ele>
        <time>2018-05-21T06:13:16Z</time>
      </trkpt>
      <trkpt lat="42.795256040990353" lon="-7.597170034423471">
        <ele>444</ele>
        <time>2018-05-21T06:13:18Z</time>
      </trkpt>
      <trkpt lat="42.795241959393024" lon="-7.597117982804775">
        <ele>444</ele>
        <time>2018-05-21T06:13:19Z</time>
      </trkpt>
      <trkpt lat="42.795227961614728" lon="-7.597060985863209">
        <ele>444</ele>
        <time>2018-05-21T06:13:20Z</time>
      </trkpt>
      <trkpt lat="42.795227961614728" lon="-7.597009018063545">
        <ele>450</ele>
        <time>2018-05-21T06:13:21Z</time>
      </trkpt>
      <trkpt lat="42.795227961614728" lon="-7.596957972273231">
        <ele>450</ele>
        <time>2018-05-21T06:13:22Z</time>
      </trkpt>
      <trkpt lat="42.795235002413392" lon="-7.596893012523651">
        <ele>450</ele>
        <time>2018-05-21T06:13:24Z</time>
      </trkpt>
      <trkpt lat="42.795239025726914" lon="-7.596840960904956">
        <ele>450</ele>
        <time>2018-05-21T06:13:25Z</time>
      </trkpt>
      <trkpt lat="42.795257968828082" lon="-7.596782958135009">
        <ele>450</ele>
        <time>2018-05-21T06:13:26Z</time>
      </trkpt>
      <trkpt lat="42.795262997969985" lon="-7.596731996163726">
        <ele>450</ele>
        <time>2018-05-21T06:13:27Z</time>
      </trkpt>
      <trkpt lat="42.795271966606379" lon="-7.596663013100624">
        <ele>450</ele>
        <time>2018-05-21T06:13:29Z</time>
      </trkpt>
      <trkpt lat="42.795271966606379" lon="-7.596610961481929">
        <ele>450</ele>
        <time>2018-05-21T06:13:30Z</time>
      </trkpt>
      <trkpt lat="42.795276995748281" lon="-7.596541978418827">
        <ele>450</ele>
        <time>2018-05-21T06:13:32Z</time>
      </trkpt>
      <trkpt lat="42.795281019061804" lon="-7.596487998962402">
        <ele>450</ele>
        <time>2018-05-21T06:13:33Z</time>
      </trkpt>
      <trkpt lat="42.795285964384675" lon="-7.596437036991119">
        <ele>450</ele>
        <time>2018-05-21T06:13:34Z</time>
      </trkpt>
      <trkpt lat="42.795285964384675" lon="-7.596374005079269">
        <ele>450</ele>
        <time>2018-05-21T06:13:35Z</time>
      </trkpt>
      <trkpt lat="42.795285964384675" lon="-7.596316002309322">
        <ele>450</ele>
        <time>2018-05-21T06:13:37Z</time>
      </trkpt>
      <trkpt lat="42.795285964384675" lon="-7.596264034509659">
        <ele>450</ele>
        <time>2018-05-21T06:13:38Z</time>
      </trkpt>
      <trkpt lat="42.795285964384675" lon="-7.596212988719344">
        <ele>457</ele>
        <time>2018-05-21T06:13:39Z</time>
      </trkpt>
      <trkpt lat="42.795285964384675" lon="-7.596144005656242">
        <ele>457</ele>
        <time>2018-05-21T06:13:40Z</time>
      </trkpt>
      <trkpt lat="42.795276995748281" lon="-7.596080973744392">
        <ele>457</ele>
        <time>2018-05-21T06:13:42Z</time>
      </trkpt>
      <trkpt lat="42.795267021283507" lon="-7.596004027873278">
        <ele>457</ele>
        <time>2018-05-21T06:13:43Z</time>
      </trkpt>
      <trkpt lat="42.795257968828082" lon="-7.595830019563437">
        <ele>457</ele>
        <time>2018-05-21T06:13:47Z</time>
      </trkpt>
      <trkpt lat="42.795235002413392" lon="-7.595677971839905">
        <ele>457</ele>
        <time>2018-05-21T06:13:51Z</time>
      </trkpt>
      <trkpt lat="42.795190997421741" lon="-7.595378989353776">
        <ele>465</ele>
        <time>2018-05-21T06:13:57Z</time>
      </trkpt>
      <trkpt lat="42.795155039057136" lon="-7.595100039616227">
        <ele>465</ele>
        <time>2018-05-21T06:14:03Z</time>
      </trkpt>
      <trkpt lat="42.795051019638777" lon="-7.594702988862991">
        <ele>465</ele>
        <time>2018-05-21T06:14:13Z</time>
      </trkpt>
      <trkpt lat="42.794955968856812" lon="-7.594382967799902">
        <ele>467</ele>
        <time>2018-05-21T06:14:20Z</time>
      </trkpt>
      <trkpt lat="42.794952029362321" lon="-7.594366036355496">
        <ele>467</ele>
        <time>2018-05-21T06:14:21Z</time>
      </trkpt>
      <trkpt lat="42.794941971078515" lon="-7.594325970858336">
        <ele>467</ele>
        <time>2018-05-21T06:14:21Z</time>
      </trkpt>
      <trkpt lat="42.794941971078515" lon="-7.594274003058672">
        <ele>467</ele>
        <time>2018-05-21T06:14:23Z</time>
      </trkpt>
      <trkpt lat="42.794941971078515" lon="-7.594194039702416">
        <ele>467</ele>
        <time>2018-05-21T06:14:24Z</time>
      </trkpt>
      <trkpt lat="42.794941971078515" lon="-7.59414198808372">
        <ele>467</ele>
        <time>2018-05-21T06:14:25Z</time>
      </trkpt>
      <trkpt lat="42.794941971078515" lon="-7.594066970050335">
        <ele>467</ele>
        <time>2018-05-21T06:14:27Z</time>
      </trkpt>
      <trkpt lat="42.794941971078515" lon="-7.594007961452007">
        <ele>467</ele>
        <time>2018-05-21T06:14:28Z</time>
      </trkpt>
      <trkpt lat="42.794941971078515" lon="-7.593955993652344">
        <ele>467</ele>
        <time>2018-05-21T06:14:29Z</time>
      </trkpt>
      <trkpt lat="42.794941971078515" lon="-7.593876030296087">
        <ele>467</ele>
        <time>2018-05-21T06:14:31Z</time>
      </trkpt>
      <trkpt lat="42.794938031584024" lon="-7.593823978677392">
        <ele>467</ele>
        <time>2018-05-21T06:14:32Z</time>
      </trkpt>
      <trkpt lat="42.794933002442122" lon="-7.593757007271051">
        <ele>467</ele>
        <time>2018-05-21T06:14:34Z</time>
      </trkpt>
      <trkpt lat="42.794924033805728" lon="-7.59368802420795">
        <ele>467</ele>
        <time>2018-05-21T06:14:35Z</time>
      </trkpt>
      <trkpt lat="42.794913975521922" lon="-7.593607977032661">
        <ele>469</ele>
        <time>2018-05-21T06:14:37Z</time>
      </trkpt>
      <trkpt lat="42.794899977743626" lon="-7.593532958999276">
        <ele>469</ele>
        <time>2018-05-21T06:14:39Z</time>
      </trkpt>
      <trkpt lat="42.794891009107232" lon="-7.593456013128161">
        <ele>469</ele>
        <time>2018-05-21T06:14:40Z</time>
      </trkpt>
      <trkpt lat="42.794857984408736" lon="-7.593235988169909">
        <ele>469</ele>
        <time>2018-05-21T06:14:45Z</time>
      </trkpt>
      <trkpt lat="42.794815991073847" lon="-7.593020992353559">
        <ele>469</ele>
        <time>2018-05-21T06:14:50Z</time>
      </trkpt>
      <trkpt lat="42.794744996353984" lon="-7.592769032344222">
        <ele>472</ele>
        <time>2018-05-21T06:14:56Z</time>
      </trkpt>
      <trkpt lat="42.794744996353984" lon="-7.592760985717177">
        <ele>472</ele>
        <time>2018-05-21T06:14:56Z</time>
      </trkpt>
      <trkpt lat="42.794675007462502" lon="-7.592537021264434">
        <ele>472</ele>
        <time>2018-05-21T06:15:01Z</time>
      </trkpt>
      <trkpt lat="42.794668972492218" lon="-7.592521011829376">
        <ele>472</ele>
        <time>2018-05-21T06:15:02Z</time>
      </trkpt>
      <trkpt lat="42.794612981379032" lon="-7.592342980206013">
        <ele>475</ele>
        <time>2018-05-21T06:15:06Z</time>
      </trkpt>
      <trkpt lat="42.794596971943974" lon="-7.592311967164278">
        <ele>475</ele>
        <time>2018-05-21T06:15:07Z</time>
      </trkpt>
      <trkpt lat="42.794560007750988" lon="-7.592004016041756">
        <ele>475</ele>
        <time>2018-05-21T06:15:14Z</time>
      </trkpt>
      <trkpt lat="42.794465962797403" lon="-7.591702016070485">
        <ele>477</ele>
        <time>2018-05-21T06:15:21Z</time>
      </trkpt>
      <trkpt lat="42.794398991391063" lon="-7.591438991948962">
        <ele>477</ele>
        <time>2018-05-21T06:15:27Z</time>
      </trkpt>
      <trkpt lat="42.794398991391063" lon="-7.591416025534272">
        <ele>477</ele>
        <time>2018-05-21T06:15:27Z</time>
      </trkpt>
      <trkpt lat="42.794380970299244" lon="-7.59137000888586">
        <ele>477</ele>
        <time>2018-05-21T06:15:28Z</time>
      </trkpt>
      <trkpt lat="42.79437200166285" lon="-7.591306976974011">
        <ele>477</ele>
        <time>2018-05-21T06:15:30Z</time>
      </trkpt>
      <trkpt lat="42.794366972520947" lon="-7.591208992525935">
        <ele>477</ele>
        <time>2018-05-21T06:15:32Z</time>
      </trkpt>
      <trkpt lat="42.794366972520947" lon="-7.591151995584369">
        <ele>478</ele>
        <time>2018-05-21T06:15:33Z</time>
      </trkpt>
      <trkpt lat="42.794366972520947" lon="-7.591094998642802">
        <ele>478</ele>
        <time>2018-05-21T06:15:34Z</time>
      </trkpt>
      <trkpt lat="42.79437200166285" lon="-7.591043030843139">
        <ele>478</ele>
        <time>2018-05-21T06:15:35Z</time>
      </trkpt>
      <trkpt lat="42.79437200166285" lon="-7.590990979224443">
        <ele>478</ele>
        <time>2018-05-21T06:15:37Z</time>
      </trkpt>
      <trkpt lat="42.794376024976373" lon="-7.590940017253161">
        <ele>478</ele>
        <time>2018-05-21T06:15:38Z</time>
      </trkpt>
      <trkpt lat="42.794376024976373" lon="-7.590882014483213">
        <ele>478</ele>
        <time>2018-05-21T06:15:39Z</time>
      </trkpt>
      <trkpt lat="42.794376024976373" lon="-7.590818982571363">
        <ele>478</ele>
        <time>2018-05-21T06:15:40Z</time>
      </trkpt>
      <trkpt lat="42.794376024976373" lon="-7.590765003114939">
        <ele>478</ele>
        <time>2018-05-21T06:15:42Z</time>
      </trkpt>
      <trkpt lat="42.794376024976373" lon="-7.590705994516611">
        <ele>478</ele>
        <time>2018-05-21T06:15:43Z</time>
      </trkpt>
      <trkpt lat="42.794376024976373" lon="-7.590652015060186">
        <ele>478</ele>
        <time>2018-05-21T06:15:44Z</time>
      </trkpt>
      <trkpt lat="42.794376024976373" lon="-7.59059501811862">
        <ele>478</ele>
        <time>2018-05-21T06:15:45Z</time>
      </trkpt>
      <trkpt lat="42.794376024976373" lon="-7.590542966499925">
        <ele>478</ele>
        <time>2018-05-21T06:15:46Z</time>
      </trkpt>
      <trkpt lat="42.79437200166285" lon="-7.590490998700261">
        <ele>478</ele>
        <time>2018-05-21T06:15:47Z</time>
      </trkpt>
      <trkpt lat="42.794366972520947" lon="-7.590422015637159">
        <ele>478</ele>
        <time>2018-05-21T06:15:49Z</time>
      </trkpt>
      <trkpt lat="42.794358003884554" lon="-7.590367030352354">
        <ele>478</ele>
        <time>2018-05-21T06:15:50Z</time>
      </trkpt>
      <trkpt lat="42.794352974742651" lon="-7.590285977348685">
        <ele>479</ele>
        <time>2018-05-21T06:15:52Z</time>
      </trkpt>
      <trkpt lat="42.794344006106257" lon="-7.590228980407119">
        <ele>479</ele>
        <time>2018-05-21T06:15:53Z</time>
      </trkpt>
      <trkpt lat="42.794344006106257" lon="-7.590177012607455">
        <ele>479</ele>
        <time>2018-05-21T06:15:54Z</time>
      </trkpt>
      <trkpt lat="42.794338976964355" lon="-7.590118004009128">
        <ele>479</ele>
        <time>2018-05-21T06:15:56Z</time>
      </trkpt>
      <trkpt lat="42.794334031641483" lon="-7.590066036209464">
        <ele>479</ele>
        <time>2018-05-21T06:15:57Z</time>
      </trkpt>
      <trkpt lat="42.794320033863187" lon="-7.590025970712304">
        <ele>479</ele>
        <time>2018-05-21T06:15:58Z</time>
      </trkpt>
      <trkpt lat="42.794310981407762" lon="-7.589974002912641">
        <ele>479</ele>
        <time>2018-05-21T06:15:59Z</time>
      </trkpt>
      <trkpt lat="42.794302012771368" lon="-7.589922035112977">
        <ele>479</ele>
        <time>2018-05-21T06:16:00Z</time>
      </trkpt>
      <trkpt lat="42.794296983629465" lon="-7.589870989322662">
        <ele>479</ele>
        <time>2018-05-21T06:16:01Z</time>
      </trkpt>
      <trkpt lat="42.794288014993072" lon="-7.589819021522999">
        <ele>479</ele>
        <time>2018-05-21T06:16:02Z</time>
      </trkpt>
      <trkpt lat="42.794288014993072" lon="-7.589755989611149">
        <ele>479</ele>
        <time>2018-05-21T06:16:04Z</time>
      </trkpt>
      <trkpt lat="42.794288014993072" lon="-7.589704021811485">
        <ele>479</ele>
        <time>2018-05-21T06:16:05Z</time>
      </trkpt>
      <trkpt lat="42.794288014993072" lon="-7.589652976021171">
        <ele>479</ele>
        <time>2018-05-21T06:16:06Z</time>
      </trkpt>
      <trkpt lat="42.794288014993072" lon="-7.589594973251224">
        <ele>479</ele>
        <time>2018-05-21T06:16:07Z</time>
      </trkpt>
      <trkpt lat="42.794292038306594" lon="-7.58954300545156">
        <ele>479</ele>
        <time>2018-05-21T06:16:08Z</time>
      </trkpt>
      <trkpt lat="42.794292038306594" lon="-7.589491959661245">
        <ele>481</ele>
        <time>2018-05-21T06:16:09Z</time>
      </trkpt>
      <trkpt lat="42.794292038306594" lon="-7.58943404071033">
        <ele>481</ele>
        <time>2018-05-21T06:16:11Z</time>
      </trkpt>
      <trkpt lat="42.794282985851169" lon="-7.589368997141719">
        <ele>481</ele>
        <time>2018-05-21T06:16:12Z</time>
      </trkpt>
      <trkpt lat="42.794268988072872" lon="-7.589317029342055">
        <ele>481</ele>
        <time>2018-05-21T06:16:13Z</time>
      </trkpt>
      <trkpt lat="42.794254990294576" lon="-7.589265983551741">
        <ele>481</ele>
        <time>2018-05-21T06:16:14Z</time>
      </trkpt>
      <trkpt lat="42.794249961152673" lon="-7.589197000488639">
        <ele>481</ele>
        <time>2018-05-21T06:16:16Z</time>
      </trkpt>
      <trkpt lat="42.794240992516279" lon="-7.589145032688975">
        <ele>481</ele>
        <time>2018-05-21T06:16:17Z</time>
      </trkpt>
      <trkpt lat="42.794235963374376" lon="-7.589088035747409">
        <ele>481</ele>
        <time>2018-05-21T06:16:18Z</time>
      </trkpt>
      <trkpt lat="42.794232023879886" lon="-7.589025003835559">
        <ele>481</ele>
        <time>2018-05-21T06:16:20Z</time>
      </trkpt>
      <trkpt lat="42.794212996959686" lon="-7.588956020772457">
        <ele>481</ele>
        <time>2018-05-21T06:16:21Z</time>
      </trkpt>
      <trkpt lat="42.794204028323293" lon="-7.588896006345749">
        <ele>481</ele>
        <time>2018-05-21T06:16:23Z</time>
      </trkpt>
      <trkpt lat="42.79419899918139" lon="-7.588839009404182">
        <ele>481</ele>
        <time>2018-05-21T06:16:24Z</time>
      </trkpt>
      <trkpt lat="42.79419899918139" lon="-7.588775977492333">
        <ele>481</ele>
        <time>2018-05-21T06:16:25Z</time>
      </trkpt>
      <trkpt lat="42.794193970039487" lon="-7.588712023571134">
        <ele>481</ele>
        <time>2018-05-21T06:16:27Z</time>
      </trkpt>
      <trkpt lat="42.794190030544996" lon="-7.588655026629567">
        <ele>485</ele>
        <time>2018-05-21T06:16:28Z</time>
      </trkpt>
      <trkpt lat="42.7941760327667" lon="-7.588585959747434">
        <ele>485</ele>
        <time>2018-05-21T06:16:29Z</time>
      </trkpt>
      <trkpt lat="42.794165974482894" lon="-7.58853399194777">
        <ele>485</ele>
        <time>2018-05-21T06:16:31Z</time>
      </trkpt>
      <trkpt lat="42.794165974482894" lon="-7.588462997227907">
        <ele>485</ele>
        <time>2018-05-21T06:16:32Z</time>
      </trkpt>
      <trkpt lat="42.794162034988403" lon="-7.588412035256624">
        <ele>485</ele>
        <time>2018-05-21T06:16:33Z</time>
      </trkpt>
      <trkpt lat="42.794162034988403" lon="-7.588359983637929">
        <ele>485</ele>
        <time>2018-05-21T06:16:34Z</time>
      </trkpt>
      <trkpt lat="42.794143008068204" lon="-7.588268034160137">
        <ele>485</ele>
        <time>2018-05-21T06:16:37Z</time>
      </trkpt>
      <trkpt lat="42.79413403943181" lon="-7.588198967278004">
        <ele>485</ele>
        <time>2018-05-21T06:16:38Z</time>
      </trkpt>
      <trkpt lat="42.794122975319624" lon="-7.588140964508057">
        <ele>485</ele>
        <time>2018-05-21T06:16:39Z</time>
      </trkpt>
      <trkpt lat="42.794108977541327" lon="-7.588090002536774">
        <ele>485</ele>
        <time>2018-05-21T06:16:41Z</time>
      </trkpt>
      <trkpt lat="42.794085005298257" lon="-7.588054966181517">
        <ele>485</ele>
        <time>2018-05-21T06:16:42Z</time>
      </trkpt>
      <trkpt lat="42.794052986428142" lon="-7.588031999766827">
        <ele>485</ele>
        <time>2018-05-21T06:16:43Z</time>
      </trkpt>
      <trkpt lat="42.794033959507942" lon="-7.587992018088698">
        <ele>485</ele>
        <time>2018-05-21T06:16:44Z</time>
      </trkpt>
      <trkpt lat="42.794005963951349" lon="-7.58795203641057">
        <ele>485</ele>
        <time>2018-05-21T06:16:45Z</time>
      </trkpt>
      <trkpt lat="42.793970005586743" lon="-7.58790803141892">
        <ele>485</ele>
        <time>2018-05-21T06:16:46Z</time>
      </trkpt>
      <trkpt lat="42.793956007808447" lon="-7.587862014770508">
        <ele>489</ele>
        <time>2018-05-21T06:16:47Z</time>
      </trkpt>
      <trkpt lat="42.79394201003015" lon="-7.587809963151813">
        <ele>489</ele>
        <time>2018-05-21T06:16:49Z</time>
      </trkpt>
      <trkpt lat="42.793937986716628" lon="-7.587752966210246">
        <ele>489</ele>
        <time>2018-05-21T06:16:50Z</time>
      </trkpt>
      <trkpt lat="42.793937986716628" lon="-7.587690018117428">
        <ele>489</ele>
        <time>2018-05-21T06:16:51Z</time>
      </trkpt>
      <trkpt lat="42.793951984494925" lon="-7.587637966498733">
        <ele>489</ele>
        <time>2018-05-21T06:16:52Z</time>
      </trkpt>
      <trkpt lat="42.793965982273221" lon="-7.587597984820604">
        <ele>489</ele>
        <time>2018-05-21T06:16:53Z</time>
      </trkpt>
      <trkpt lat="42.793993977829814" lon="-7.587539982050657">
        <ele>489</ele>
        <time>2018-05-21T06:16:55Z</time>
      </trkpt>
      <trkpt lat="42.794017028063536" lon="-7.587482985109091">
        <ele>489</ele>
        <time>2018-05-21T06:16:56Z</time>
      </trkpt>
      <trkpt lat="42.794035971164703" lon="-7.587431017309427">
        <ele>489</ele>
        <time>2018-05-21T06:16:58Z</time>
      </trkpt>
      <trkpt lat="42.794049968943" lon="-7.587362034246326">
        <ele>489</ele>
        <time>2018-05-21T06:16:59Z</time>
      </trkpt>
      <trkpt lat="42.794063966721296" lon="-7.587299002334476">
        <ele>489</ele>
        <time>2018-05-21T06:17:00Z</time>
      </trkpt>
      <trkpt lat="42.794067990034819" lon="-7.587235970422626">
        <ele>489</ele>
        <time>2018-05-21T06:17:02Z</time>
      </trkpt>
      <trkpt lat="42.794077964499593" lon="-7.587177967652679">
        <ele>489</ele>
        <time>2018-05-21T06:17:03Z</time>
      </trkpt>
      <trkpt lat="42.794077964499593" lon="-7.587120970711112">
        <ele>489</ele>
        <time>2018-05-21T06:17:04Z</time>
      </trkpt>
      <trkpt lat="42.794077964499593" lon="-7.587058022618294">
        <ele>489</ele>
        <time>2018-05-21T06:17:06Z</time>
      </trkpt>
      <trkpt lat="42.794067990034819" lon="-7.58700798265636">
        <ele>494</ele>
        <time>2018-05-21T06:17:07Z</time>
      </trkpt>
      <trkpt lat="42.794063966721296" lon="-7.586945034563541">
        <ele>494</ele>
        <time>2018-05-21T06:17:08Z</time>
      </trkpt>
      <trkpt lat="42.794049968943" lon="-7.586875967681408">
        <ele>494</ele>
        <time>2018-05-21T06:17:10Z</time>
      </trkpt>
      <trkpt lat="42.794035971164703" lon="-7.586830034852028">
        <ele>494</ele>
        <time>2018-05-21T06:17:11Z</time>
      </trkpt>
      <trkpt lat="42.794017028063536" lon="-7.586784018203616">
        <ele>494</ele>
        <time>2018-05-21T06:17:12Z</time>
      </trkpt>
      <trkpt lat="42.793990038335323" lon="-7.586713023483753">
        <ele>494</ele>
        <time>2018-05-21T06:17:14Z</time>
      </trkpt>
      <trkpt lat="42.793976040557027" lon="-7.586667006835342">
        <ele>494</ele>
        <time>2018-05-21T06:17:15Z</time>
      </trkpt>
      <trkpt lat="42.793958019465208" lon="-7.586626019328833">
        <ele>494</ele>
        <time>2018-05-21T06:17:16Z</time>
      </trkpt>
      <trkpt lat="42.793930023908615" lon="-7.586574973538518">
        <ele>494</ele>
        <time>2018-05-21T06:17:17Z</time>
      </trkpt>
      <trkpt lat="42.793905967846513" lon="-7.58653499186039">
        <ele>494</ele>
        <time>2018-05-21T06:17:18Z</time>
      </trkpt>
      <trkpt lat="42.793876966461539" lon="-7.586488975211978">
        <ele>494</ele>
        <time>2018-05-21T06:17:20Z</time>
      </trkpt>
      <trkpt lat="42.79383497312665" lon="-7.586437007412314">
        <ele>494</ele>
        <time>2018-05-21T06:17:21Z</time>
      </trkpt>
      <trkpt lat="42.79381200671196" lon="-7.586373975500464">
        <ele>494</ele>
        <time>2018-05-21T06:17:23Z</time>
      </trkpt>
      <trkpt lat="42.793774036690593" lon="-7.586293006315827">
        <ele>494</ele>
        <time>2018-05-21T06:17:25Z</time>
      </trkpt>
      <trkpt lat="42.79374897480011" lon="-7.586253024637699">
        <ele>495</ele>
        <time>2018-05-21T06:17:26Z</time>
      </trkpt>
      <trkpt lat="42.793677980080247" lon="-7.586029982194305">
        <ele>505</ele>
        <time>2018-05-21T06:17:31Z</time>
      </trkpt>
      <trkpt lat="42.793627018108964" lon="-7.58589000441134">
        <ele>505</ele>
        <time>2018-05-21T06:17:35Z</time>
      </trkpt>
      <trkpt lat="42.793545965105295" lon="-7.585624968633056">
        <ele>505</ele>
        <time>2018-05-21T06:17:41Z</time>
      </trkpt>
      <trkpt lat="42.79344798065722" lon="-7.5853740144521">
        <ele>513</ele>
        <time>2018-05-21T06:17:47Z</time>
      </trkpt>
      <trkpt lat="42.793349996209145" lon="-7.585097998380661">
        <ele>513</ele>
        <time>2018-05-21T06:17:54Z</time>
      </trkpt>
      <trkpt lat="42.793274978175759" lon="-7.584844026714563">
        <ele>513</ele>
        <time>2018-05-21T06:18:00Z</time>
      </trkpt>
      <trkpt lat="42.79321102425456" lon="-7.584688039496541">
        <ele>513</ele>
        <time>2018-05-21T06:18:04Z</time>
      </trkpt>
      <trkpt lat="42.793115973472595" lon="-7.584591982886195">
        <ele>513</ele>
        <time>2018-05-21T06:18:08Z</time>
      </trkpt>
      <trkpt lat="42.79303902760148" lon="-7.584501961246133">
        <ele>513</ele>
        <time>2018-05-21T06:18:11Z</time>
      </trkpt>
      <trkpt lat="42.793007008731365" lon="-7.584497015923262">
        <ele>513</ele>
        <time>2018-05-21T06:18:12Z</time>
      </trkpt>
      <trkpt lat="42.792852027341723" lon="-7.584414035081863">
        <ele>528</ele>
        <time>2018-05-21T06:18:16Z</time>
      </trkpt>
      <trkpt lat="42.792712971568108" lon="-7.584361983463168">
        <ele>528</ele>
        <time>2018-05-21T06:18:21Z</time>
      </trkpt>
      <trkpt lat="42.792600989341736" lon="-7.584238015115261">
        <ele>528</ele>
        <time>2018-05-21T06:18:25Z</time>
      </trkpt>
      <trkpt lat="42.79250199906528" lon="-7.584136007353663">
        <ele>528</ele>
        <time>2018-05-21T06:18:29Z</time>
      </trkpt>
      <trkpt lat="42.792360009625554" lon="-7.584028970450163">
        <ele>528</ele>
        <time>2018-05-21T06:18:34Z</time>
      </trkpt>
      <trkpt lat="42.792263031005859" lon="-7.584016984328628">
        <ele>528</ele>
        <time>2018-05-21T06:18:36Z</time>
      </trkpt>
      <trkpt lat="42.792120035737753" lon="-7.583983037620783">
        <ele>528</ele>
        <time>2018-05-21T06:18:41Z</time>
      </trkpt>
      <trkpt lat="42.791975028812885" lon="-7.583915982395411">
        <ele>531</ele>
        <time>2018-05-21T06:18:45Z</time>
      </trkpt>
      <trkpt lat="42.791890958324075" lon="-7.583869965746999">
        <ele>531</ele>
        <time>2018-05-21T06:18:48Z</time>
      </trkpt>
      <trkpt lat="42.791819963604212" lon="-7.583741974085569">
        <ele>531</ele>
        <time>2018-05-21T06:18:51Z</time>
      </trkpt>
      <trkpt lat="42.791805965825915" lon="-7.583724958822131">
        <ele>531</ele>
        <time>2018-05-21T06:18:52Z</time>
      </trkpt>
      <trkpt lat="42.791767995804548" lon="-7.583679025992751">
        <ele>531</ele>
        <time>2018-05-21T06:18:53Z</time>
      </trkpt>
      <trkpt lat="42.791735976934433" lon="-7.583650024607778">
        <ele>531</ele>
        <time>2018-05-21T06:18:55Z</time>
      </trkpt>
      <trkpt lat="42.791702030226588" lon="-7.583619011566043">
        <ele>537</ele>
        <time>2018-05-21T06:18:56Z</time>
      </trkpt>
      <trkpt lat="42.791669005528092" lon="-7.583595961332321">
        <ele>537</ele>
        <time>2018-05-21T06:18:57Z</time>
      </trkpt>
      <trkpt lat="42.791632041335106" lon="-7.583555979654193">
        <ele>537</ele>
        <time>2018-05-21T06:18:58Z</time>
      </trkpt>
      <trkpt lat="42.791603961959481" lon="-7.583515997976065">
        <ele>537</ele>
        <time>2018-05-21T06:18:59Z</time>
      </trkpt>
      <trkpt lat="42.791565991938114" lon="-7.583486996591091">
        <ele>537</ele>
        <time>2018-05-21T06:19:01Z</time>
      </trkpt>
      <trkpt lat="42.791523998603225" lon="-7.583436034619808">
        <ele>537</ele>
        <time>2018-05-21T06:19:02Z</time>
      </trkpt>
      <trkpt lat="42.791501032188535" lon="-7.583383983001113">
        <ele>537</ele>
        <time>2018-05-21T06:19:04Z</time>
      </trkpt>
      <trkpt lat="42.791468007490039" lon="-7.583336038514972">
        <ele>537</ele>
        <time>2018-05-21T06:19:05Z</time>
      </trkpt>
      <trkpt lat="42.791454009711742" lon="-7.583273006603122">
        <ele>537</ele>
        <time>2018-05-21T06:19:07Z</time>
      </trkpt>
      <trkpt lat="42.79144998639822" lon="-7.583209974691272">
        <ele>537</ele>
        <time>2018-05-21T06:19:08Z</time>
      </trkpt>
      <trkpt lat="42.791445041075349" lon="-7.583151971921325">
        <ele>537</ele>
        <time>2018-05-21T06:19:09Z</time>
      </trkpt>
      <trkpt lat="42.791435988619924" lon="-7.583089023828507">
        <ele>537</ele>
        <time>2018-05-21T06:19:11Z</time>
      </trkpt>
      <trkpt lat="42.791407993063331" lon="-7.583036972209811">
        <ele>537</ele>
        <time>2018-05-21T06:19:12Z</time>
      </trkpt>
      <trkpt lat="42.791374968364835" lon="-7.583003025501967">
        <ele>537</ele>
        <time>2018-05-21T06:19:13Z</time>
      </trkpt>
      <trkpt lat="42.791346972808242" lon="-7.582962960004807">
        <ele>537</ele>
        <time>2018-05-21T06:19:15Z</time>
      </trkpt>
      <trkpt lat="42.791332975029945" lon="-7.582917027175427">
        <ele>537</ele>
        <time>2018-05-21T06:19:16Z</time>
      </trkpt>
      <trkpt lat="42.791315037757158" lon="-7.582847960293293">
        <ele>537</ele>
        <time>2018-05-21T06:19:17Z</time>
      </trkpt>
      <trkpt lat="42.791290981695056" lon="-7.582785012200475">
        <ele>544</ele>
        <time>2018-05-21T06:19:19Z</time>
      </trkpt>
      <trkpt lat="42.791282013058662" lon="-7.582716029137373">
        <ele>544</ele>
        <time>2018-05-21T06:19:20Z</time>
      </trkpt>
      <trkpt lat="42.791261980310082" lon="-7.582654003053904">
        <ele>544</ele>
        <time>2018-05-21T06:19:22Z</time>
      </trkpt>
      <trkpt lat="42.791252005845308" lon="-7.582607986405492">
        <ele>544</ele>
        <time>2018-05-21T06:19:23Z</time>
      </trkpt>
      <trkpt lat="42.791233984753489" lon="-7.582557024434209">
        <ele>544</ele>
        <time>2018-05-21T06:19:24Z</time>
      </trkpt>
      <trkpt lat="42.791219986975193" lon="-7.582499021664262">
        <ele>544</ele>
        <time>2018-05-21T06:19:25Z</time>
      </trkpt>
      <trkpt lat="42.791215041652322" lon="-7.582443030551076">
        <ele>544</ele>
        <time>2018-05-21T06:19:27Z</time>
      </trkpt>
      <trkpt lat="42.791200960054994" lon="-7.582218982279301">
        <ele>544</ele>
        <time>2018-05-21T06:19:31Z</time>
      </trkpt>
      <trkpt lat="42.791140023618937" lon="-7.581821009516716">
        <ele>549</ele>
        <time>2018-05-21T06:19:40Z</time>
      </trkpt>
      <trkpt lat="42.791133988648653" lon="-7.581821009516716">
        <ele>549</ele>
        <time>2018-05-21T06:19:40Z</time>
      </trkpt>
      <trkpt lat="42.791100963950157" lon="-7.581509035080671">
        <ele>549</ele>
        <time>2018-05-21T06:19:47Z</time>
      </trkpt>
      <trkpt lat="42.791050001978874" lon="-7.581164035946131">
        <ele>549</ele>
        <time>2018-05-21T06:19:55Z</time>
      </trkpt>
      <trkpt lat="42.790999040007591" lon="-7.580810990184546">
        <ele>552</ele>
        <time>2018-05-21T06:20:03Z</time>
      </trkpt>
      <trkpt lat="42.79095696285367" lon="-7.580499015748501">
        <ele>552</ele>
        <time>2018-05-21T06:20:10Z</time>
      </trkpt>
      <trkpt lat="42.790924021974206" lon="-7.580193998292089">
        <ele>554</ele>
        <time>2018-05-21T06:20:16Z</time>
      </trkpt>
      <trkpt lat="42.790884962305427" lon="-7.57996098138392">
        <ele>554</ele>
        <time>2018-05-21T06:20:21Z</time>
      </trkpt>
      <trkpt lat="42.790853027254343" lon="-7.579768029972911">
        <ele>554</ele>
        <time>2018-05-21T06:20:26Z</time>
      </trkpt>
      <trkpt lat="42.790853027254343" lon="-7.579752020537853">
        <ele>554</ele>
        <time>2018-05-21T06:20:26Z</time>
      </trkpt>
      <trkpt lat="42.790811033919454" lon="-7.579426970332861">
        <ele>552</ele>
        <time>2018-05-21T06:20:33Z</time>
      </trkpt>
      <trkpt lat="42.790811033919454" lon="-7.579419007524848">
        <ele>552</ele>
        <time>2018-05-21T06:20:33Z</time>
      </trkpt>
      <trkpt lat="42.790811033919454" lon="-7.579176016151905">
        <ele>552</ele>
        <time>2018-05-21T06:20:39Z</time>
      </trkpt>
      <trkpt lat="42.790811033919454" lon="-7.579160006716847">
        <ele>552</ele>
        <time>2018-05-21T06:20:39Z</time>
      </trkpt>
      <trkpt lat="42.790811033919454" lon="-7.578897988423705">
        <ele>552</ele>
        <time>2018-05-21T06:20:45Z</time>
      </trkpt>
      <trkpt lat="42.790811033919454" lon="-7.578648962080479">
        <ele>551</ele>
        <time>2018-05-21T06:20:50Z</time>
      </trkpt>
      <trkpt lat="42.790811033919454" lon="-7.578618032857776">
        <ele>551</ele>
        <time>2018-05-21T06:20:51Z</time>
      </trkpt>
      <trkpt lat="42.790811033919454" lon="-7.578446036204696">
        <ele>551</ele>
        <time>2018-05-21T06:20:54Z</time>
      </trkpt>
      <trkpt lat="42.790814973413944" lon="-7.578429020941258">
        <ele>551</ele>
        <time>2018-05-21T06:20:55Z</time>
      </trkpt>
      <trkpt lat="42.790814973413944" lon="-7.57837101817131">
        <ele>551</ele>
        <time>2018-05-21T06:20:56Z</time>
      </trkpt>
      <trkpt lat="42.79082503169775" lon="-7.578318966552615">
        <ele>551</ele>
        <time>2018-05-21T06:20:57Z</time>
      </trkpt>
      <trkpt lat="42.790828971192241" lon="-7.578245038166642">
        <ele>551</ele>
        <time>2018-05-21T06:20:59Z</time>
      </trkpt>
      <trkpt lat="42.790828971192241" lon="-7.578187035396695">
        <ele>551</ele>
        <time>2018-05-21T06:21:00Z</time>
      </trkpt>
      <trkpt lat="42.790834000334144" lon="-7.57811302319169">
        <ele>551</ele>
        <time>2018-05-21T06:21:02Z</time>
      </trkpt>
      <trkpt lat="42.790839029476047" lon="-7.578055020421743">
        <ele>551</ele>
        <time>2018-05-21T06:21:03Z</time>
      </trkpt>
      <trkpt lat="42.790842968970537" lon="-7.578003974631429">
        <ele>551</ele>
        <time>2018-05-21T06:21:04Z</time>
      </trkpt>
      <trkpt lat="42.790842968970537" lon="-7.577945971861482">
        <ele>551</ele>
        <time>2018-05-21T06:21:05Z</time>
      </trkpt>
      <trkpt lat="42.79084799811244" lon="-7.577883023768663">
        <ele>551</ele>
        <time>2018-05-21T06:21:07Z</time>
      </trkpt>
      <trkpt lat="42.790856966748834" lon="-7.577826026827097">
        <ele>553</ele>
        <time>2018-05-21T06:21:08Z</time>
      </trkpt>
      <trkpt lat="42.79087096452713" lon="-7.577759977430105">
        <ele>553</ele>
        <time>2018-05-21T06:21:10Z</time>
      </trkpt>
      <trkpt lat="42.790895020589232" lon="-7.577624022960663">
        <ele>553</ele>
        <time>2018-05-21T06:21:13Z</time>
      </trkpt>
      <trkpt lat="42.790924021974206" lon="-7.577497959136963">
        <ele>553</ele>
        <time>2018-05-21T06:21:15Z</time>
      </trkpt>
      <trkpt lat="42.790938019752502" lon="-7.5774269644171">
        <ele>553</ele>
        <time>2018-05-21T06:21:17Z</time>
      </trkpt>
      <trkpt lat="42.79097598977387" lon="-7.577210040763021">
        <ele>553</ele>
        <time>2018-05-21T06:21:22Z</time>
      </trkpt>
      <trkpt lat="42.790982024744153" lon="-7.577180033549666">
        <ele>553</ele>
        <time>2018-05-21T06:21:23Z</time>
      </trkpt>
      <trkpt lat="42.791028041392565" lon="-7.57695397362113">
        <ele>551</ele>
        <time>2018-05-21T06:21:28Z</time>
      </trkpt>
      <trkpt lat="42.791028041392565" lon="-7.576934024691582">
        <ele>551</ele>
        <time>2018-05-21T06:21:28Z</time>
      </trkpt>
      <trkpt lat="42.791057964786887" lon="-7.576706036925316">
        <ele>551</ele>
        <time>2018-05-21T06:21:33Z</time>
      </trkpt>
      <trkpt lat="42.791057964786887" lon="-7.576676029711962">
        <ele>551</ele>
        <time>2018-05-21T06:21:34Z</time>
      </trkpt>
      <trkpt lat="42.791066011413932" lon="-7.576565975323319">
        <ele>551</ele>
        <time>2018-05-21T06:21:36Z</time>
      </trkpt>
      <trkpt lat="42.791074980050325" lon="-7.576543008908629">
        <ele>551</ele>
        <time>2018-05-21T06:21:37Z</time>
      </trkpt>
      <trkpt lat="42.791074980050325" lon="-7.576486011967063">
        <ele>551</ele>
        <time>2018-05-21T06:21:38Z</time>
      </trkpt>
      <trkpt lat="42.791074980050325" lon="-7.576417028903961">
        <ele>551</ele>
        <time>2018-05-21T06:21:39Z</time>
      </trkpt>
      <trkpt lat="42.791074980050325" lon="-7.576360031962395">
        <ele>551</ele>
        <time>2018-05-21T06:21:41Z</time>
      </trkpt>
      <trkpt lat="42.791074980050325" lon="-7.5763079803437">
        <ele>551</ele>
        <time>2018-05-21T06:21:42Z</time>
      </trkpt>
      <trkpt lat="42.791074980050325" lon="-7.576249977573752">
        <ele>551</ele>
        <time>2018-05-21T06:21:43Z</time>
      </trkpt>
      <trkpt lat="42.791074980050325" lon="-7.576192980632186">
        <ele>549</ele>
        <time>2018-05-21T06:21:44Z</time>
      </trkpt>
      <trkpt lat="42.791074980050325" lon="-7.576141012832522">
        <ele>549</ele>
        <time>2018-05-21T06:21:45Z</time>
      </trkpt>
      <trkpt lat="42.791074980050325" lon="-7.576077980920672">
        <ele>549</ele>
        <time>2018-05-21T06:21:47Z</time>
      </trkpt>
      <trkpt lat="42.791074980050325" lon="-7.576020983979106">
        <ele>549</ele>
        <time>2018-05-21T06:21:48Z</time>
      </trkpt>
      <trkpt lat="42.791074980050325" lon="-7.575958035886288">
        <ele>549</ele>
        <time>2018-05-21T06:21:49Z</time>
      </trkpt>
      <trkpt lat="42.791074980050325" lon="-7.575881006196141">
        <ele>549</ele>
        <time>2018-05-21T06:21:51Z</time>
      </trkpt>
      <trkpt lat="42.791074980050325" lon="-7.575800959020853">
        <ele>549</ele>
        <time>2018-05-21T06:21:53Z</time>
      </trkpt>
      <trkpt lat="42.791070034727454" lon="-7.57574899122119">
        <ele>549</ele>
        <time>2018-05-21T06:21:54Z</time>
      </trkpt>
      <trkpt lat="42.791066011413932" lon="-7.575697023421526">
        <ele>549</ele>
        <time>2018-05-21T06:21:55Z</time>
      </trkpt>
      <trkpt lat="42.791056036949158" lon="-7.575633991509676">
        <ele>549</ele>
        <time>2018-05-21T06:21:56Z</time>
      </trkpt>
      <trkpt lat="42.791052013635635" lon="-7.575572971254587">
        <ele>549</ele>
        <time>2018-05-21T06:21:58Z</time>
      </trkpt>
      <trkpt lat="42.791032986715436" lon="-7.57546903565526">
        <ele>549</ele>
        <time>2018-05-21T06:22:00Z</time>
      </trkpt>
      <trkpt lat="42.791028041392565" lon="-7.57540600374341">
        <ele>546</ele>
        <time>2018-05-21T06:22:02Z</time>
      </trkpt>
      <trkpt lat="42.791024018079042" lon="-7.575348000973463">
        <ele>546</ele>
        <time>2018-05-21T06:22:03Z</time>
      </trkpt>
      <trkpt lat="42.791013959795237" lon="-7.57529703900218">
        <ele>546</ele>
        <time>2018-05-21T06:22:04Z</time>
      </trkpt>
      <trkpt lat="42.791010020300746" lon="-7.57523300126195">
        <ele>546</ele>
        <time>2018-05-21T06:22:05Z</time>
      </trkpt>
      <trkpt lat="42.791000967845321" lon="-7.575182039290667">
        <ele>546</ele>
        <time>2018-05-21T06:22:06Z</time>
      </trkpt>
      <trkpt lat="42.790982024744153" lon="-7.575129987671971">
        <ele>546</ele>
        <time>2018-05-21T06:22:08Z</time>
      </trkpt>
      <trkpt lat="42.790968026965857" lon="-7.575078019872308">
        <ele>546</ele>
        <time>2018-05-21T06:22:09Z</time>
      </trkpt>
      <trkpt lat="42.79095402918756" lon="-7.575021022930741">
        <ele>546</ele>
        <time>2018-05-21T06:22:10Z</time>
      </trkpt>
      <trkpt lat="42.790947994217277" lon="-7.574972994625568">
        <ele>546</ele>
        <time>2018-05-21T06:22:11Z</time>
      </trkpt>
      <trkpt lat="42.790938019752502" lon="-7.574904011562467">
        <ele>546</ele>
        <time>2018-05-21T06:22:13Z</time>
      </trkpt>
      <trkpt lat="42.790938019752502" lon="-7.574851959943771">
        <ele>546</ele>
        <time>2018-05-21T06:22:14Z</time>
      </trkpt>
      <trkpt lat="42.790938019752502" lon="-7.574800997972488">
        <ele>546</ele>
        <time>2018-05-21T06:22:15Z</time>
      </trkpt>
      <trkpt lat="42.790938019752502" lon="-7.574749030172825">
        <ele>546</ele>
        <time>2018-05-21T06:22:16Z</time>
      </trkpt>
      <trkpt lat="42.790942965075374" lon="-7.574679963290691">
        <ele>546</ele>
        <time>2018-05-21T06:22:18Z</time>
      </trkpt>
      <trkpt lat="42.790952017530799" lon="-7.574637969955802">
        <ele>546</ele>
        <time>2018-05-21T06:22:19Z</time>
      </trkpt>
      <trkpt lat="42.790966015309095" lon="-7.574583990499377">
        <ele>546</ele>
        <time>2018-05-21T06:22:20Z</time>
      </trkpt>
      <trkpt lat="42.790966015309095" lon="-7.574530011042953">
        <ele>546</ele>
        <time>2018-05-21T06:22:21Z</time>
      </trkpt>
      <trkpt lat="42.790970960631967" lon="-7.574473014101386">
        <ele>546</ele>
        <time>2018-05-21T06:22:22Z</time>
      </trkpt>
      <trkpt lat="42.79097598977387" lon="-7.574409982189536">
        <ele>542</ele>
        <time>2018-05-21T06:22:24Z</time>
      </trkpt>
      <trkpt lat="42.790980013087392" lon="-7.574351979419589">
        <ele>542</ele>
        <time>2018-05-21T06:22:25Z</time>
      </trkpt>
      <trkpt lat="42.790984958410263" lon="-7.574294982478023">
        <ele>542</ele>
        <time>2018-05-21T06:22:26Z</time>
      </trkpt>
      <trkpt lat="42.790989987552166" lon="-7.574225999414921">
        <ele>542</ele>
        <time>2018-05-21T06:22:28Z</time>
      </trkpt>
      <trkpt lat="42.790994010865688" lon="-7.574169002473354">
        <ele>542</ele>
        <time>2018-05-21T06:22:29Z</time>
      </trkpt>
      <trkpt lat="42.791008008643985" lon="-7.574117034673691">
        <ele>542</ele>
        <time>2018-05-21T06:22:30Z</time>
      </trkpt>
      <trkpt lat="42.791017983108759" lon="-7.574060037732124">
        <ele>542</ele>
        <time>2018-05-21T06:22:31Z</time>
      </trkpt>
      <trkpt lat="42.791022006422281" lon="-7.574007986113429">
        <ele>542</ele>
        <time>2018-05-21T06:22:33Z</time>
      </trkpt>
      <trkpt lat="42.791022006422281" lon="-7.573956018313766">
        <ele>542</ele>
        <time>2018-05-21T06:22:34Z</time>
      </trkpt>
      <trkpt lat="42.791022006422281" lon="-7.573876976966858">
        <ele>542</ele>
        <time>2018-05-21T06:22:35Z</time>
      </trkpt>
      <trkpt lat="42.791022006422281" lon="-7.573770023882389">
        <ele>542</ele>
        <time>2018-05-21T06:22:38Z</time>
      </trkpt>
      <trkpt lat="42.791013037785888" lon="-7.573569025844336">
        <ele>537</ele>
        <time>2018-05-21T06:22:42Z</time>
      </trkpt>
      <trkpt lat="42.791013037785888" lon="-7.573557961732149">
        <ele>537</ele>
        <time>2018-05-21T06:22:42Z</time>
      </trkpt>
      <trkpt lat="42.790989987552166" lon="-7.573371967300773">
        <ele>537</ele>
        <time>2018-05-21T06:22:46Z</time>
      </trkpt>
      <trkpt lat="42.790966015309095" lon="-7.573125958442688">
        <ele>537</ele>
        <time>2018-05-21T06:22:52Z</time>
      </trkpt>
      <trkpt lat="42.790952017530799" lon="-7.572921020910144">
        <ele>537</ele>
        <time>2018-05-21T06:22:56Z</time>
      </trkpt>
      <trkpt lat="42.790947994217277" lon="-7.572681969031692">
        <ele>534</ele>
        <time>2018-05-21T06:23:01Z</time>
      </trkpt>
      <trkpt lat="42.790899965912104" lon="-7.572478959336877">
        <ele>534</ele>
        <time>2018-05-21T06:23:06Z</time>
      </trkpt>
      <trkpt lat="42.790843974798918" lon="-7.572324983775616">
        <ele>534</ele>
        <time>2018-05-21T06:23:10Z</time>
      </trkpt>
      <trkpt lat="42.79080499894917" lon="-7.572216019034386">
        <ele>534</ele>
        <time>2018-05-21T06:23:12Z</time>
      </trkpt>
      <trkpt lat="42.7907619997859" lon="-7.572104958817363">
        <ele>534</ele>
        <time>2018-05-21T06:23:15Z</time>
      </trkpt>
      <trkpt lat="42.790686981752515" lon="-7.571961041539908">
        <ele>536</ele>
        <time>2018-05-21T06:23:19Z</time>
      </trkpt>
      <trkpt lat="42.790639037266374" lon="-7.571931034326553">
        <ele>536</ele>
        <time>2018-05-21T06:23:21Z</time>
      </trkpt>
      <trkpt lat="42.790529988706112" lon="-7.57181603461504">
        <ele>536</ele>
        <time>2018-05-21T06:23:25Z</time>
      </trkpt>
      <trkpt lat="42.79044097289443" lon="-7.571670021861792">
        <ele>532</ele>
        <time>2018-05-21T06:23:29Z</time>
      </trkpt>
      <trkpt lat="42.790341982617974" lon="-7.571575976908207">
        <ele>532</ele>
        <time>2018-05-21T06:23:32Z</time>
      </trkpt>
      <trkpt lat="42.790189012885094" lon="-7.571439016610384">
        <ele>532</ele>
        <time>2018-05-21T06:23:38Z</time>
      </trkpt>
      <trkpt lat="42.790081975981593" lon="-7.571330973878503">
        <ele>532</ele>
        <time>2018-05-21T06:23:42Z</time>
      </trkpt>
      <trkpt lat="42.789929006248713" lon="-7.571175992488861">
        <ele>532</ele>
        <time>2018-05-21T06:23:47Z</time>
      </trkpt>
      <trkpt lat="42.789900004863739" lon="-7.571146991103888">
        <ele>535</ele>
        <time>2018-05-21T06:23:48Z</time>
      </trkpt>
      <trkpt lat="42.789852982386947" lon="-7.571089994162321">
        <ele>535</ele>
        <time>2018-05-21T06:23:50Z</time>
      </trkpt>
      <trkpt lat="42.78981601819396" lon="-7.571021011099219">
        <ele>535</ele>
        <time>2018-05-21T06:23:52Z</time>
      </trkpt>
      <trkpt lat="42.789785005152225" lon="-7.570994021371007">
        <ele>535</ele>
        <time>2018-05-21T06:23:53Z</time>
      </trkpt>
      <trkpt lat="42.789748962968588" lon="-7.570981029421091">
        <ele>535</ele>
        <time>2018-05-21T06:23:54Z</time>
      </trkpt>
      <trkpt lat="42.789706969633698" lon="-7.570968959480524">
        <ele>535</ele>
        <time>2018-05-21T06:23:55Z</time>
      </trkpt>
      <trkpt lat="42.789678974077106" lon="-7.570939958095551">
        <ele>535</ele>
        <time>2018-05-21T06:23:56Z</time>
      </trkpt>
      <trkpt lat="42.78962298296392" lon="-7.570853959769011">
        <ele>534</ele>
        <time>2018-05-21T06:23:59Z</time>
      </trkpt>
      <trkpt lat="42.789540002122521" lon="-7.570749018341303">
        <ele>534</ele>
        <time>2018-05-21T06:24:02Z</time>
      </trkpt>
      <trkpt lat="42.789469007402658" lon="-7.570603005588055">
        <ele>534</ele>
        <time>2018-05-21T06:24:06Z</time>
      </trkpt>
      <trkpt lat="42.789388038218021" lon="-7.570455987006426">
        <ele>534</ele>
        <time>2018-05-21T06:24:10Z</time>
      </trkpt>
      <trkpt lat="42.789324000477791" lon="-7.570360014215112">
        <ele>534</ele>
        <time>2018-05-21T06:24:13Z</time>
      </trkpt>
      <trkpt lat="42.789247976616025" lon="-7.570192962884903">
        <ele>537</ele>
        <time>2018-05-21T06:24:17Z</time>
      </trkpt>
      <trkpt lat="42.789144963026047" lon="-7.569984002038837">
        <ele>537</ele>
        <time>2018-05-21T06:24:23Z</time>
      </trkpt>
      <trkpt lat="42.7890869602561" lon="-7.569807982072234">
        <ele>537</ele>
        <time>2018-05-21T06:24:27Z</time>
      </trkpt>
      <trkpt lat="42.789015965536237" lon="-7.569678984582424">
        <ele>537</ele>
        <time>2018-05-21T06:24:30Z</time>
      </trkpt>
      <trkpt lat="42.788901971653104" lon="-7.569450996816158">
        <ele>544</ele>
        <time>2018-05-21T06:24:36Z</time>
      </trkpt>
      <trkpt lat="42.788851009681821" lon="-7.569276988506317">
        <ele>544</ele>
        <time>2018-05-21T06:24:40Z</time>
      </trkpt>
      <trkpt lat="42.788775991648436" lon="-7.569082025438547">
        <ele>544</ele>
        <time>2018-05-21T06:24:45Z</time>
      </trkpt>
      <trkpt lat="42.788775991648436" lon="-7.569075990468264">
        <ele>544</ele>
        <time>2018-05-21T06:24:45Z</time>
      </trkpt>
      <trkpt lat="42.788732992485166" lon="-7.568925032392144">
        <ele>539</ele>
        <time>2018-05-21T06:24:49Z</time>
      </trkpt>
      <trkpt lat="42.788718994706869" lon="-7.568867029622197">
        <ele>548</ele>
        <time>2018-05-21T06:24:50Z</time>
      </trkpt>
      <trkpt lat="42.788709020242095" lon="-7.568814978003502">
        <ele>539</ele>
        <time>2018-05-21T06:24:51Z</time>
      </trkpt>
      <trkpt lat="42.788704996928573" lon="-7.568764016032219">
        <ele>539</ele>
        <time>2018-05-21T06:24:52Z</time>
      </trkpt>
      <trkpt lat="42.788704996928573" lon="-7.568700984120369">
        <ele>539</ele>
        <time>2018-05-21T06:24:54Z</time>
      </trkpt>
      <trkpt lat="42.788704996928573" lon="-7.568649016320705">
        <ele>548</ele>
        <time>2018-05-21T06:24:55Z</time>
      </trkpt>
      <trkpt lat="42.788709020242095" lon="-7.568592019379139">
        <ele>548</ele>
        <time>2018-05-21T06:24:56Z</time>
      </trkpt>
      <trkpt lat="42.788715977221727" lon="-7.568538039922714">
        <ele>548</ele>
        <time>2018-05-21T06:24:57Z</time>
      </trkpt>
      <trkpt lat="42.78872000053525" lon="-7.568475008010864">
        <ele>548</ele>
        <time>2018-05-21T06:24:59Z</time>
      </trkpt>
      <trkpt lat="42.788725029677153" lon="-7.568423040211201">
        <ele>548</ele>
        <time>2018-05-21T06:25:00Z</time>
      </trkpt>
      <trkpt lat="42.788739027455449" lon="-7.568377023562789">
        <ele>548</ele>
        <time>2018-05-21T06:25:01Z</time>
      </trkpt>
      <trkpt lat="42.78874397277832" lon="-7.568320026621223">
        <ele>548</ele>
        <time>2018-05-21T06:25:02Z</time>
      </trkpt>
      <trkpt lat="42.788747996091843" lon="-7.568262023851275">
        <ele>548</ele>
        <time>2018-05-21T06:25:04Z</time>
      </trkpt>
      <trkpt lat="42.788761993870139" lon="-7.56820997223258">
        <ele>554</ele>
        <time>2018-05-21T06:25:05Z</time>
      </trkpt>
      <trkpt lat="42.788767023012042" lon="-7.568152975291014">
        <ele>554</ele>
        <time>2018-05-21T06:25:06Z</time>
      </trkpt>
      <trkpt lat="42.788775991648436" lon="-7.568112993612886">
        <ele>554</ele>
        <time>2018-05-21T06:25:07Z</time>
      </trkpt>
      <trkpt lat="42.788767023012042" lon="-7.568061025813222">
        <ele>554</ele>
        <time>2018-05-21T06:25:08Z</time>
      </trkpt>
      <trkpt lat="42.788757970556617" lon="-7.568008974194527">
        <ele>548</ele>
        <time>2018-05-21T06:25:09Z</time>
      </trkpt>
      <trkpt lat="42.788739027455449" lon="-7.567963041365147">
        <ele>548</ele>
        <time>2018-05-21T06:25:10Z</time>
      </trkpt>
      <trkpt lat="42.78872000053525" lon="-7.567905960604549">
        <ele>548</ele>
        <time>2018-05-21T06:25:12Z</time>
      </trkpt>
      <trkpt lat="42.788701979443431" lon="-7.567860027775168">
        <ele>556</ele>
        <time>2018-05-21T06:25:13Z</time>
      </trkpt>
      <trkpt lat="42.788667026907206" lon="-7.567818034440279">
        <ele>556</ele>
        <time>2018-05-21T06:25:14Z</time>
      </trkpt>
      <trkpt lat="42.788629978895187" lon="-7.567789033055306">
        <ele>556</ele>
        <time>2018-05-21T06:25:16Z</time>
      </trkpt>
      <trkpt lat="42.788601983338594" lon="-7.567755002528429">
        <ele>556</ele>
        <time>2018-05-21T06:25:17Z</time>
      </trkpt>
      <trkpt lat="42.788565019145608" lon="-7.567732036113739">
        <ele>556</ele>
        <time>2018-05-21T06:25:18Z</time>
      </trkpt>
      <trkpt lat="42.788540963083506" lon="-7.567679984495044">
        <ele>556</ele>
        <time>2018-05-21T06:25:19Z</time>
      </trkpt>
      <trkpt lat="42.788509028032422" lon="-7.56762801669538">
        <ele>556</ele>
        <time>2018-05-21T06:25:21Z</time>
      </trkpt>
      <trkpt lat="42.788509028032422" lon="-7.567571019753814">
        <ele>556</ele>
        <time>2018-05-21T06:25:22Z</time>
      </trkpt>
      <trkpt lat="42.788509028032422" lon="-7.567507987841964">
        <ele>556</ele>
        <time>2018-05-21T06:25:23Z</time>
      </trkpt>
      <trkpt lat="42.788517996668816" lon="-7.567468006163836">
        <ele>556</ele>
        <time>2018-05-21T06:25:24Z</time>
      </trkpt>
      <trkpt lat="42.788526965305209" lon="-7.567419977858663">
        <ele>556</ele>
        <time>2018-05-21T06:25:25Z</time>
      </trkpt>
      <trkpt lat="42.788537023589015" lon="-7.567373961210251">
        <ele>556</ele>
        <time>2018-05-21T06:25:26Z</time>
      </trkpt>
      <trkpt lat="42.788537023589015" lon="-7.567315958440304">
        <ele>556</ele>
        <time>2018-05-21T06:25:28Z</time>
      </trkpt>
      <trkpt lat="42.788540963083506" lon="-7.567258961498737">
        <ele>556</ele>
        <time>2018-05-21T06:25:29Z</time>
      </trkpt>
      <trkpt lat="42.788545992225409" lon="-7.56720095872879">
        <ele>556</ele>
        <time>2018-05-21T06:25:30Z</time>
      </trkpt>
      <trkpt lat="42.788545992225409" lon="-7.567129964008927">
        <ele>556</ele>
        <time>2018-05-21T06:25:32Z</time>
      </trkpt>
      <trkpt lat="42.788537023589015" lon="-7.567079002037644">
        <ele>556</ele>
        <time>2018-05-21T06:25:33Z</time>
      </trkpt>
      <trkpt lat="42.788517996668816" lon="-7.567027034237981">
        <ele>562</ele>
        <time>2018-05-21T06:25:34Z</time>
      </trkpt>
      <trkpt lat="42.7884859777987" lon="-7.566981017589569">
        <ele>562</ele>
        <time>2018-05-21T06:25:35Z</time>
      </trkpt>
      <trkpt lat="42.788448007777333" lon="-7.566941035911441">
        <ele>562</ele>
        <time>2018-05-21T06:25:37Z</time>
      </trkpt>
      <trkpt lat="42.78842001222074" lon="-7.566905999556184">
        <ele>562</ele>
        <time>2018-05-21T06:25:38Z</time>
      </trkpt>
      <trkpt lat="42.788387993350625" lon="-7.566866017878056">
        <ele>562</ele>
        <time>2018-05-21T06:25:39Z</time>
      </trkpt>
      <trkpt lat="42.7883530408144" lon="-7.566836010664702">
        <ele>562</ele>
        <time>2018-05-21T06:25:40Z</time>
      </trkpt>
      <trkpt lat="42.788315992802382" lon="-7.566800974309444">
        <ele>562</ele>
        <time>2018-05-21T06:25:42Z</time>
      </trkpt>
      <trkpt lat="42.788273999467492" lon="-7.566755041480064">
        <ele>562</ele>
        <time>2018-05-21T06:25:43Z</time>
      </trkpt>
      <trkpt lat="42.788212979212403" lon="-7.566656973212957">
        <ele>562</ele>
        <time>2018-05-21T06:25:46Z</time>
      </trkpt>
      <trkpt lat="42.78818498365581" lon="-7.566615985706449">
        <ele>562</ele>
        <time>2018-05-21T06:25:47Z</time>
      </trkpt>
      <trkpt lat="42.788170985877514" lon="-7.566568963229656">
        <ele>562</ele>
        <time>2018-05-21T06:25:48Z</time>
      </trkpt>
      <trkpt lat="42.788128992542624" lon="-7.566458992660046">
        <ele>562</ele>
        <time>2018-05-21T06:25:51Z</time>
      </trkpt>
      <trkpt lat="42.788109965622425" lon="-7.566419010981917">
        <ele>562</ele>
        <time>2018-05-21T06:25:52Z</time>
      </trkpt>
      <trkpt lat="42.788070989772677" lon="-7.566362014040351">
        <ele>562</ele>
        <time>2018-05-21T06:25:54Z</time>
      </trkpt>
      <trkpt lat="42.788056991994381" lon="-7.566309962421656">
        <ele>562</ele>
        <time>2018-05-21T06:25:55Z</time>
      </trkpt>
      <trkpt lat="42.788036959245801" lon="-7.566249025985599">
        <ele>562</ele>
        <time>2018-05-21T06:25:57Z</time>
      </trkpt>
      <trkpt lat="42.788019021973014" lon="-7.566203009337187">
        <ele>570</ele>
        <time>2018-05-21T06:25:58Z</time>
      </trkpt>
      <trkpt lat="42.788005024194717" lon="-7.56614500656724">
        <ele>570</ele>
        <time>2018-05-21T06:25:59Z</time>
      </trkpt>
      <trkpt lat="42.787994965910912" lon="-7.566088009625673">
        <ele>570</ele>
        <time>2018-05-21T06:26:00Z</time>
      </trkpt>
      <trkpt lat="42.787980968132615" lon="-7.566019026562572">
        <ele>570</ele>
        <time>2018-05-21T06:26:02Z</time>
      </trkpt>
      <trkpt lat="42.787980968132615" lon="-7.565966974943876">
        <ele>570</ele>
        <time>2018-05-21T06:26:03Z</time>
      </trkpt>
      <trkpt lat="42.787980968132615" lon="-7.565880976617336">
        <ele>570</ele>
        <time>2018-05-21T06:26:05Z</time>
      </trkpt>
      <trkpt lat="42.787977028638124" lon="-7.565818028524518">
        <ele>570</ele>
        <time>2018-05-21T06:26:06Z</time>
      </trkpt>
      <trkpt lat="42.787958001717925" lon="-7.565732030197978">
        <ele>570</ele>
        <time>2018-05-21T06:26:08Z</time>
      </trkpt>
      <trkpt lat="42.787935035303235" lon="-7.565691964700818">
        <ele>561</ele>
        <time>2018-05-21T06:26:09Z</time>
      </trkpt>
      <trkpt lat="42.787907039746642" lon="-7.565650977194309">
        <ele>561</ele>
        <time>2018-05-21T06:26:10Z</time>
      </trkpt>
      <trkpt lat="42.787874015048146" lon="-7.565610995516181">
        <ele>561</ele>
        <time>2018-05-21T06:26:12Z</time>
      </trkpt>
      <trkpt lat="42.787844007834792" lon="-7.565562967211008">
        <ele>561</ele>
        <time>2018-05-21T06:26:13Z</time>
      </trkpt>
      <trkpt lat="42.787792040035129" lon="-7.56548099219799">
        <ele>561</ele>
        <time>2018-05-21T06:26:15Z</time>
      </trkpt>
      <trkpt lat="42.787767983973026" lon="-7.565441010519862">
        <ele>561</ele>
        <time>2018-05-21T06:26:17Z</time>
      </trkpt>
      <trkpt lat="42.787743005901575" lon="-7.565398011356592">
        <ele>567</ele>
        <time>2018-05-21T06:26:18Z</time>
      </trkpt>
      <trkpt lat="42.787724984809756" lon="-7.56535199470818">
        <ele>567</ele>
        <time>2018-05-21T06:26:19Z</time>
      </trkpt>
      <trkpt lat="42.787697995081544" lon="-7.565300026908517">
        <ele>567</ele>
        <time>2018-05-21T06:26:20Z</time>
      </trkpt>
      <trkpt lat="42.787649966776371" lon="-7.565162982791662">
        <ele>567</ele>
        <time>2018-05-21T06:26:24Z</time>
      </trkpt>
      <trkpt lat="42.787577966228127" lon="-7.564947986975312">
        <ele>567</ele>
        <time>2018-05-21T06:26:29Z</time>
      </trkpt>
      <trkpt lat="42.787577966228127" lon="-7.564954021945596">
        <ele>567</ele>
        <time>2018-05-21T06:26:29Z</time>
      </trkpt>
      <trkpt lat="42.787524992600083" lon="-7.564736008644104">
        <ele>567</ele>
        <time>2018-05-21T06:26:34Z</time>
      </trkpt>
      <trkpt lat="42.787464978173375" lon="-7.564477007836103">
        <ele>567</ele>
        <time>2018-05-21T06:26:40Z</time>
      </trkpt>
      <trkpt lat="42.787464978173375" lon="-7.564468961209059">
        <ele>567</ele>
        <time>2018-05-21T06:26:40Z</time>
      </trkpt>
      <trkpt lat="42.787404963746667" lon="-7.564315991476178">
        <ele>577</ele>
        <time>2018-05-21T06:26:44Z</time>
      </trkpt>
      <trkpt lat="42.787354001775384" lon="-7.56419001147151">
        <ele>577</ele>
        <time>2018-05-21T06:26:47Z</time>
      </trkpt>
      <trkpt lat="42.787337992340326" lon="-7.564170984551311">
        <ele>577</ele>
        <time>2018-05-21T06:26:47Z</time>
      </trkpt>
      <trkpt lat="42.787263980135322" lon="-7.564002005383372">
        <ele>577</ele>
        <time>2018-05-21T06:26:52Z</time>
      </trkpt>
      <trkpt lat="42.787155015394092" lon="-7.563847023993731">
        <ele>577</ele>
        <time>2018-05-21T06:26:56Z</time>
      </trkpt>
      <trkpt lat="42.787078991532326" lon="-7.563712997362018">
        <ele>576</ele>
        <time>2018-05-21T06:27:00Z</time>
      </trkpt>
      <trkpt lat="42.787015959620476" lon="-7.563583999872208">
        <ele>583</ele>
        <time>2018-05-21T06:27:04Z</time>
      </trkpt>
      <trkpt lat="42.787006990984082" lon="-7.563561033457518">
        <ele>583</ele>
        <time>2018-05-21T06:27:04Z</time>
      </trkpt>
      <trkpt lat="42.786988969892263" lon="-7.563504036515951">
        <ele>583</ele>
        <time>2018-05-21T06:27:05Z</time>
      </trkpt>
      <trkpt lat="42.786970026791096" lon="-7.563405968248844">
        <ele>583</ele>
        <time>2018-05-21T06:27:08Z</time>
      </trkpt>
      <trkpt lat="42.786970026791096" lon="-7.563348971307278">
        <ele>583</ele>
        <time>2018-05-21T06:27:09Z</time>
      </trkpt>
      <trkpt lat="42.786970026791096" lon="-7.563290968537331">
        <ele>583</ele>
        <time>2018-05-21T06:27:10Z</time>
      </trkpt>
      <trkpt lat="42.786970026791096" lon="-7.563233971595764">
        <ele>583</ele>
        <time>2018-05-21T06:27:11Z</time>
      </trkpt>
      <trkpt lat="42.786970026791096" lon="-7.563182003796101">
        <ele>583</ele>
        <time>2018-05-21T06:27:13Z</time>
      </trkpt>
      <trkpt lat="42.786970026791096" lon="-7.563125006854534">
        <ele>583</ele>
        <time>2018-05-21T06:27:14Z</time>
      </trkpt>
      <trkpt lat="42.786970026791096" lon="-7.563056023791432">
        <ele>583</ele>
        <time>2018-05-21T06:27:15Z</time>
      </trkpt>
      <trkpt lat="42.78696097433567" lon="-7.562996009364724">
        <ele>583</ele>
        <time>2018-05-21T06:27:17Z</time>
      </trkpt>
      <trkpt lat="42.7869370020926" lon="-7.562910011038184">
        <ele>583</ele>
        <time>2018-05-21T06:27:19Z</time>
      </trkpt>
      <trkpt lat="42.7869370020926" lon="-7.56290297023952">
        <ele>583</ele>
        <time>2018-05-21T06:27:19Z</time>
      </trkpt>
      <trkpt lat="42.78687497600913" lon="-7.562855025753379">
        <ele>583</ele>
        <time>2018-05-21T06:27:21Z</time>
      </trkpt>
      <trkpt lat="42.786797024309635" lon="-7.562855025753379">
        <ele>583</ele>
        <time>2018-05-21T06:27:23Z</time>
      </trkpt>
      <trkpt lat="42.786713959649205" lon="-7.562775984406471">
        <ele>597</ele>
        <time>2018-05-21T06:27:26Z</time>
      </trkpt>
      <trkpt lat="42.786626033484936" lon="-7.562699038535357">
        <ele>597</ele>
        <time>2018-05-21T06:27:29Z</time>
      </trkpt>
      <trkpt lat="42.786554032936692" lon="-7.56260197609663">
        <ele>597</ele>
        <time>2018-05-21T06:27:32Z</time>
      </trkpt>
      <trkpt lat="42.786547997966409" lon="-7.562594013288617">
        <ele>597</ele>
        <time>2018-05-21T06:27:33Z</time>
      </trkpt>
      <trkpt lat="42.786419000476599" lon="-7.562410030514002">
        <ele>597</ele>
        <time>2018-05-21T06:27:38Z</time>
      </trkpt>
      <trkpt lat="42.786419000476599" lon="-7.562403995543718">
        <ele>597</ele>
        <time>2018-05-21T06:27:38Z</time>
      </trkpt>
      <trkpt lat="42.78633501380682" lon="-7.562281033024192">
        <ele>597</ele>
        <time>2018-05-21T06:27:42Z</time>
      </trkpt>
      <trkpt lat="42.786218002438545" lon="-7.562124039977789">
        <ele>595</ele>
        <time>2018-05-21T06:27:47Z</time>
      </trkpt>
      <trkpt lat="42.786209033802152" lon="-7.562112975865603">
        <ele>595</ele>
        <time>2018-05-21T06:27:47Z</time>
      </trkpt>
      <trkpt lat="42.786184977740049" lon="-7.562032006680965">
        <ele>595</ele>
        <time>2018-05-21T06:27:49Z</time>
      </trkpt>
      <trkpt lat="42.786159999668598" lon="-7.561937961727381">
        <ele>600</ele>
        <time>2018-05-21T06:27:51Z</time>
      </trkpt>
      <trkpt lat="42.786155976355076" lon="-7.561875013634563">
        <ele>600</ele>
        <time>2018-05-21T06:27:53Z</time>
      </trkpt>
      <trkpt lat="42.786151031032205" lon="-7.561819022521377">
        <ele>600</ele>
        <time>2018-05-21T06:27:54Z</time>
      </trkpt>
      <trkpt lat="42.786137033253908" lon="-7.561755990609527">
        <ele>600</ele>
        <time>2018-05-21T06:27:55Z</time>
      </trkpt>
      <trkpt lat="42.786127980798483" lon="-7.56169899366796">
        <ele>600</ele>
        <time>2018-05-21T06:27:56Z</time>
      </trkpt>
      <trkpt lat="42.786113983020186" lon="-7.561647025868297">
        <ele>600</ele>
        <time>2018-05-21T06:27:58Z</time>
      </trkpt>
      <trkpt lat="42.786095039919019" lon="-7.561594974249601">
        <ele>600</ele>
        <time>2018-05-21T06:27:59Z</time>
      </trkpt>
      <trkpt lat="42.786080958321691" lon="-7.561544012278318">
        <ele>600</ele>
        <time>2018-05-21T06:28:00Z</time>
      </trkpt>
      <trkpt lat="42.786066960543394" lon="-7.56137503311038">
        <ele>600</ele>
        <time>2018-05-21T06:28:04Z</time>
      </trkpt>
      <trkpt lat="42.786066960543394" lon="-7.561322981491685">
        <ele>600</ele>
        <time>2018-05-21T06:28:05Z</time>
      </trkpt>
      <trkpt lat="42.786066960543394" lon="-7.561260033398867">
        <ele>600</ele>
        <time>2018-05-21T06:28:06Z</time>
      </trkpt>
      <trkpt lat="42.786071989685297" lon="-7.561190966516733">
        <ele>600</ele>
        <time>2018-05-21T06:28:08Z</time>
      </trkpt>
      <trkpt lat="42.786071989685297" lon="-7.561137992888689">
        <ele>609</ele>
        <time>2018-05-21T06:28:09Z</time>
      </trkpt>
      <trkpt lat="42.786071989685297" lon="-7.561074960976839">
        <ele>609</ele>
        <time>2018-05-21T06:28:10Z</time>
      </trkpt>
      <trkpt lat="42.786063021048903" lon="-7.561005977913737">
        <ele>609</ele>
        <time>2018-05-21T06:28:12Z</time>
      </trkpt>
      <trkpt lat="42.786063021048903" lon="-7.560936994850636">
        <ele>609</ele>
        <time>2018-05-21T06:28:13Z</time>
      </trkpt>
      <trkpt lat="42.786043994128704" lon="-7.560901958495379">
        <ele>609</ele>
        <time>2018-05-21T06:28:14Z</time>
      </trkpt>
      <trkpt lat="42.786024967208505" lon="-7.560844961553812">
        <ele>609</ele>
        <time>2018-05-21T06:28:16Z</time>
      </trkpt>
      <trkpt lat="42.786002000793815" lon="-7.560786958783865">
        <ele>609</ele>
        <time>2018-05-21T06:28:17Z</time>
      </trkpt>
      <trkpt lat="42.785968976095319" lon="-7.560746977105737">
        <ele>609</ele>
        <time>2018-05-21T06:28:18Z</time>
      </trkpt>
      <trkpt lat="42.785940980538726" lon="-7.560713030397892">
        <ele>609</ele>
        <time>2018-05-21T06:28:20Z</time>
      </trkpt>
      <trkpt lat="42.785902004688978" lon="-7.560665002092719">
        <ele>609</ele>
        <time>2018-05-21T06:28:21Z</time>
      </trkpt>
      <trkpt lat="42.785832015797496" lon="-7.560569029301405">
        <ele>609</ele>
        <time>2018-05-21T06:28:24Z</time>
      </trkpt>
      <trkpt lat="42.785750962793827" lon="-7.560483030974865">
        <ele>609</ele>
        <time>2018-05-21T06:28:27Z</time>
      </trkpt>
      <trkpt lat="42.785679968073964" lon="-7.560412036255002">
        <ele>609</ele>
        <time>2018-05-21T06:28:30Z</time>
      </trkpt>
      <trkpt lat="42.785571003332734" lon="-7.560330983251333">
        <ele>623</ele>
        <time>2018-05-21T06:28:33Z</time>
      </trkpt>
      <trkpt lat="42.785453991964459" lon="-7.56015001796186">
        <ele>617</ele>
        <time>2018-05-21T06:28:39Z</time>
      </trkpt>
      <trkpt lat="42.785370005294681" lon="-7.560023032128811">
        <ele>617</ele>
        <time>2018-05-21T06:28:42Z</time>
      </trkpt>
      <trkpt lat="42.785234972834587" lon="-7.559918006882072">
        <ele>617</ele>
        <time>2018-05-21T06:28:47Z</time>
      </trkpt>
      <trkpt lat="42.785136988386512" lon="-7.559820022433996">
        <ele>617</ele>
        <time>2018-05-21T06:28:50Z</time>
      </trkpt>
      <trkpt lat="42.78513103723526" lon="-7.559820022433996">
        <ele>617</ele>
        <time>2018-05-21T06:28:51Z</time>
      </trkpt>
      <trkpt lat="42.78504503890872" lon="-7.55972295999527">
        <ele>617</ele>
        <time>2018-05-21T06:28:54Z</time>
      </trkpt>
      <trkpt lat="42.784973038360476" lon="-7.559564039111137">
        <ele>617</ele>
        <time>2018-05-21T06:28:58Z</time>
      </trkpt>
      <trkpt lat="42.784901959821582" lon="-7.559447027742863">
        <ele>629</ele>
        <time>2018-05-21T06:29:01Z</time>
      </trkpt>
      <trkpt lat="42.78489600867033" lon="-7.559438981115818">
        <ele>629</ele>
        <time>2018-05-21T06:29:02Z</time>
      </trkpt>
      <trkpt lat="42.784840017557144" lon="-7.559323981404305">
        <ele>629</ele>
        <time>2018-05-21T06:29:05Z</time>
      </trkpt>
      <trkpt lat="42.784815039485693" lon="-7.559281988069415">
        <ele>629</ele>
        <time>2018-05-21T06:29:06Z</time>
      </trkpt>
      <trkpt lat="42.784751001745462" lon="-7.55924703553319">
        <ele>629</ele>
        <time>2018-05-21T06:29:08Z</time>
      </trkpt>
      <trkpt lat="42.784743960946798" lon="-7.55924703553319">
        <ele>629</ele>
        <time>2018-05-21T06:29:08Z</time>
      </trkpt>
      <trkpt lat="42.784699033945799" lon="-7.559223985299468">
        <ele>629</ele>
        <time>2018-05-21T06:29:09Z</time>
      </trkpt>
      <trkpt lat="42.784658968448639" lon="-7.559181991964579">
        <ele>629</ele>
        <time>2018-05-21T06:29:11Z</time>
      </trkpt>
      <trkpt lat="42.784591997042298" lon="-7.559061963111162">
        <ele>615</ele>
        <time>2018-05-21T06:29:14Z</time>
      </trkpt>
      <trkpt lat="42.784579005092382" lon="-7.559046037495136">
        <ele>615</ele>
        <time>2018-05-21T06:29:15Z</time>
      </trkpt>
      <trkpt lat="42.784537011757493" lon="-7.558973031118512">
        <ele>615</ele>
        <time>2018-05-21T06:29:17Z</time>
      </trkpt>
      <trkpt lat="42.78457498177886" lon="-7.558781001716852">
        <ele>615</ele>
        <time>2018-05-21T06:29:21Z</time>
      </trkpt>
      <trkpt lat="42.784620998427272" lon="-7.558574974536896">
        <ele>625</ele>
        <time>2018-05-21T06:29:26Z</time>
      </trkpt>
      <trkpt lat="42.784620998427272" lon="-7.558567011728883">
        <ele>625</ele>
        <time>2018-05-21T06:29:26Z</time>
      </trkpt>
      <trkpt lat="42.784634996205568" lon="-7.558393003419042">
        <ele>625</ele>
        <time>2018-05-21T06:29:30Z</time>
      </trkpt>
      <trkpt lat="42.784582022577524" lon="-7.558153029531241">
        <ele>625</ele>
        <time>2018-05-21T06:29:35Z</time>
      </trkpt>
      <trkpt lat="42.784526031464338" lon="-7.558021014556289">
        <ele>625</ele>
        <time>2018-05-21T06:29:39Z</time>
      </trkpt>
      <trkpt lat="42.784507004544139" lon="-7.557986984029412">
        <ele>625</ele>
        <time>2018-05-21T06:29:40Z</time>
      </trkpt>
      <trkpt lat="42.784484038129449" lon="-7.557923030108213">
        <ele>625</ele>
        <time>2018-05-21T06:29:41Z</time>
      </trkpt>
      <trkpt lat="42.784452019259334" lon="-7.557837031781673">
        <ele>637</ele>
        <time>2018-05-21T06:29:43Z</time>
      </trkpt>
      <trkpt lat="42.784424023702741" lon="-7.557763019576669">
        <ele>637</ele>
        <time>2018-05-21T06:29:45Z</time>
      </trkpt>
      <trkpt lat="42.784374989569187" lon="-7.557671992108226">
        <ele>637</ele>
        <time>2018-05-21T06:29:48Z</time>
      </trkpt>
      <trkpt lat="42.784346994012594" lon="-7.557592028751969">
        <ele>637</ele>
        <time>2018-05-21T06:29:49Z</time>
      </trkpt>
      <trkpt lat="42.784324027597904" lon="-7.557539977133274">
        <ele>637</ele>
        <time>2018-05-21T06:29:51Z</time>
      </trkpt>
      <trkpt lat="42.784296032041311" lon="-7.557482980191708">
        <ele>637</ele>
        <time>2018-05-21T06:29:52Z</time>
      </trkpt>
      <trkpt lat="42.784258984029293" lon="-7.557431012392044">
        <ele>637</ele>
        <time>2018-05-21T06:29:54Z</time>
      </trkpt>
      <trkpt lat="42.784212967380881" lon="-7.557379966601729">
        <ele>637</ele>
        <time>2018-05-21T06:29:56Z</time>
      </trkpt>
      <trkpt lat="42.784040970727801" lon="-7.557217022404075">
        <ele>637</ele>
        <time>2018-05-21T06:30:02Z</time>
      </trkpt>
      <trkpt lat="42.783867968246341" lon="-7.557109985500574">
        <ele>637</ele>
        <time>2018-05-21T06:30:07Z</time>
      </trkpt>
      <trkpt lat="42.78384299017489" lon="-7.557087019085884">
        <ele>637</ele>
        <time>2018-05-21T06:30:08Z</time>
      </trkpt>
      <trkpt lat="42.783638974651694" lon="-7.556965984404087">
        <ele>644</ele>
        <time>2018-05-21T06:30:15Z</time>
      </trkpt>
      <trkpt lat="42.783381985500455" lon="-7.55684201605618">
        <ele>644</ele>
        <time>2018-05-21T06:30:23Z</time>
      </trkpt>
      <trkpt lat="42.783376034349203" lon="-7.556833969429135">
        <ele>644</ele>
        <time>2018-05-21T06:30:23Z</time>
      </trkpt>
      <trkpt lat="42.783231027424335" lon="-7.556729028001428">
        <ele>644</ele>
        <time>2018-05-21T06:30:28Z</time>
      </trkpt>
      <trkpt lat="42.78319900855422" lon="-7.556705977767706">
        <ele>644</ele>
        <time>2018-05-21T06:30:29Z</time>
      </trkpt>
      <trkpt lat="42.783143017441034" lon="-7.556636994704604">
        <ele>644</ele>
        <time>2018-05-21T06:30:31Z</time>
      </trkpt>
      <trkpt lat="42.783118961378932" lon="-7.556590978056192">
        <ele>644</ele>
        <time>2018-05-21T06:30:33Z</time>
      </trkpt>
      <trkpt lat="42.783090965822339" lon="-7.556561976671219">
        <ele>644</ele>
        <time>2018-05-21T06:30:34Z</time>
      </trkpt>
      <trkpt lat="42.783059030771255" lon="-7.556521994993091">
        <ele>644</ele>
        <time>2018-05-21T06:30:35Z</time>
      </trkpt>
      <trkpt lat="42.78302600607276" lon="-7.556499028578401">
        <ele>644</ele>
        <time>2018-05-21T06:30:36Z</time>
      </trkpt>
      <trkpt lat="42.782989041879773" lon="-7.556475978344679">
        <ele>644</ele>
        <time>2018-05-21T06:30:37Z</time>
      </trkpt>
      <trkpt lat="42.782960962504148" lon="-7.556446976959705">
        <ele>644</ele>
        <time>2018-05-21T06:30:38Z</time>
      </trkpt>
      <trkpt lat="42.782928021624684" lon="-7.556400960311294">
        <ele>634</ele>
        <time>2018-05-21T06:30:40Z</time>
      </trkpt>
      <trkpt lat="42.782904971390963" lon="-7.55634899251163">
        <ele>634</ele>
        <time>2018-05-21T06:30:41Z</time>
      </trkpt>
      <trkpt lat="42.782882004976273" lon="-7.556309010833502">
        <ele>634</ele>
        <time>2018-05-21T06:30:42Z</time>
      </trkpt>
      <trkpt lat="42.782862978056073" lon="-7.556269029155374">
        <ele>634</ele>
        <time>2018-05-21T06:30:43Z</time>
      </trkpt>
      <trkpt lat="42.782844034954906" lon="-7.55619996227324">
        <ele>635</ele>
        <time>2018-05-21T06:30:45Z</time>
      </trkpt>
      <trkpt lat="42.782830037176609" lon="-7.556142965331674">
        <ele>635</ele>
        <time>2018-05-21T06:30:46Z</time>
      </trkpt>
      <trkpt lat="42.782816039398313" lon="-7.556073982268572">
        <ele>635</ele>
        <time>2018-05-21T06:30:47Z</time>
      </trkpt>
      <trkpt lat="42.782816039398313" lon="-7.556022014468908">
        <ele>635</ele>
        <time>2018-05-21T06:30:49Z</time>
      </trkpt>
      <trkpt lat="42.782816039398313" lon="-7.555965017527342">
        <ele>635</ele>
        <time>2018-05-21T06:30:50Z</time>
      </trkpt>
      <trkpt lat="42.782816039398313" lon="-7.555907014757395">
        <ele>635</ele>
        <time>2018-05-21T06:30:51Z</time>
      </trkpt>
      <trkpt lat="42.782816039398313" lon="-7.555838031694293">
        <ele>635</ele>
        <time>2018-05-21T06:30:53Z</time>
      </trkpt>
      <trkpt lat="42.782816039398313" lon="-7.555774999782443">
        <ele>635</ele>
        <time>2018-05-21T06:30:54Z</time>
      </trkpt>
      <trkpt lat="42.782816039398313" lon="-7.55572403781116">
        <ele>635</ele>
        <time>2018-05-21T06:30:55Z</time>
      </trkpt>
      <trkpt lat="42.782816039398313" lon="-7.555669974535704">
        <ele>635</ele>
        <time>2018-05-21T06:30:56Z</time>
      </trkpt>
      <trkpt lat="42.782826013863087" lon="-7.555609960108995">
        <ele>635</ele>
        <time>2018-05-21T06:30:58Z</time>
      </trkpt>
      <trkpt lat="42.782840011641383" lon="-7.555552963167429">
        <ele>635</ele>
        <time>2018-05-21T06:30:59Z</time>
      </trkpt>
      <trkpt lat="42.782859960570931" lon="-7.555498983711004">
        <ele>635</ele>
        <time>2018-05-21T06:31:00Z</time>
      </trkpt>
      <trkpt lat="42.782878987491131" lon="-7.555448021739721">
        <ele>635</ele>
        <time>2018-05-21T06:31:01Z</time>
      </trkpt>
      <trkpt lat="42.782902037724853" lon="-7.555407034233213">
        <ele>631</ele>
        <time>2018-05-21T06:31:03Z</time>
      </trkpt>
      <trkpt lat="42.78292098082602" lon="-7.555355988442898">
        <ele>650</ele>
        <time>2018-05-21T06:31:04Z</time>
      </trkpt>
      <trkpt lat="42.782947970554233" lon="-7.555297985672951">
        <ele>643</ele>
        <time>2018-05-21T06:31:05Z</time>
      </trkpt>
      <trkpt lat="42.782972026616335" lon="-7.555255992338061">
        <ele>643</ele>
        <time>2018-05-21T06:31:06Z</time>
      </trkpt>
      <trkpt lat="42.783071016892791" lon="-7.555162031203508">
        <ele>643</ele>
        <time>2018-05-21T06:31:10Z</time>
      </trkpt>
      <trkpt lat="42.78324100188911" lon="-7.554968995973468">
        <ele>643</ele>
        <time>2018-05-21T06:31:17Z</time>
      </trkpt>
      <trkpt lat="42.783348960801959" lon="-7.55482298322022">
        <ele>643</ele>
        <time>2018-05-21T06:31:21Z</time>
      </trkpt>
      <trkpt lat="42.783537972718477" lon="-7.554605975747109">
        <ele>643</ele>
        <time>2018-05-21T06:31:28Z</time>
      </trkpt>
      <trkpt lat="42.783674011006951" lon="-7.554455017670989">
        <ele>643</ele>
        <time>2018-05-21T06:31:34Z</time>
      </trkpt>
      <trkpt lat="42.783783981576562" lon="-7.55428796634078">
        <ele>650</ele>
        <time>2018-05-21T06:31:38Z</time>
      </trkpt>
      <trkpt lat="42.783840978518128" lon="-7.554141031578183">
        <ele>650</ele>
        <time>2018-05-21T06:31:42Z</time>
      </trkpt>
      <trkpt lat="42.783861011266708" lon="-7.554044974967837">
        <ele>650</ele>
        <time>2018-05-21T06:31:44Z</time>
      </trkpt>
      <trkpt lat="42.783869979903102" lon="-7.554017985239625">
        <ele>650</ele>
        <time>2018-05-21T06:31:45Z</time>
      </trkpt>
      <trkpt lat="42.783899987116456" lon="-7.553858980536461">
        <ele>650</ele>
        <time>2018-05-21T06:31:48Z</time>
      </trkpt>
      <trkpt lat="42.78390602208674" lon="-7.553842971101403">
        <ele>650</ele>
        <time>2018-05-21T06:31:49Z</time>
      </trkpt>
      <trkpt lat="42.783964024856687" lon="-7.553616994991899">
        <ele>643</ele>
        <time>2018-05-21T06:31:54Z</time>
      </trkpt>
      <trkpt lat="42.783969976007938" lon="-7.553616994991899">
        <ele>643</ele>
        <time>2018-05-21T06:31:54Z</time>
      </trkpt>
      <trkpt lat="42.784007024019957" lon="-7.553475005552173">
        <ele>643</ele>
        <time>2018-05-21T06:31:57Z</time>
      </trkpt>
      <trkpt lat="42.784011969342828" lon="-7.55344700999558">
        <ele>643</ele>
        <time>2018-05-21T06:31:58Z</time>
      </trkpt>
      <trkpt lat="42.784016998484731" lon="-7.553389007225633">
        <ele>643</ele>
        <time>2018-05-21T06:31:59Z</time>
      </trkpt>
      <trkpt lat="42.78403501957655" lon="-7.553320024162531">
        <ele>643</ele>
        <time>2018-05-21T06:32:01Z</time>
      </trkpt>
      <trkpt lat="42.78403501957655" lon="-7.553267972543836">
        <ele>643</ele>
        <time>2018-05-21T06:32:02Z</time>
      </trkpt>
      <trkpt lat="42.784039964899421" lon="-7.553222961723805">
        <ele>643</ele>
        <time>2018-05-21T06:32:03Z</time>
      </trkpt>
      <trkpt lat="42.784049017354846" lon="-7.553177028894424">
        <ele>643</ele>
        <time>2018-05-21T06:32:04Z</time>
      </trkpt>
      <trkpt lat="42.78405899181962" lon="-7.553119026124477">
        <ele>643</ele>
        <time>2018-05-21T06:32:05Z</time>
      </trkpt>
      <trkpt lat="42.784063015133142" lon="-7.553049959242344">
        <ele>643</ele>
        <time>2018-05-21T06:32:07Z</time>
      </trkpt>
      <trkpt lat="42.784077012911439" lon="-7.55299799144268">
        <ele>643</ele>
        <time>2018-05-21T06:32:08Z</time>
      </trkpt>
      <trkpt lat="42.784086987376213" lon="-7.552947029471397">
        <ele>643</ele>
        <time>2018-05-21T06:32:09Z</time>
      </trkpt>
      <trkpt lat="42.784111965447664" lon="-7.552909981459379">
        <ele>643</ele>
        <time>2018-05-21T06:32:10Z</time>
      </trkpt>
      <trkpt lat="42.784125963225961" lon="-7.552852984517813">
        <ele>643</ele>
        <time>2018-05-21T06:32:12Z</time>
      </trkpt>
      <trkpt lat="42.784129986539483" lon="-7.552784001454711">
        <ele>636</ele>
        <time>2018-05-21T06:32:13Z</time>
      </trkpt>
      <trkpt lat="42.784139961004257" lon="-7.552737984806299">
        <ele>636</ele>
        <time>2018-05-21T06:32:14Z</time>
      </trkpt>
      <trkpt lat="42.784157982096076" lon="-7.552690040320158">
        <ele>636</ele>
        <time>2018-05-21T06:32:15Z</time>
      </trkpt>
      <trkpt lat="42.784181032329798" lon="-7.552644023671746">
        <ele>636</ele>
        <time>2018-05-21T06:32:17Z</time>
      </trkpt>
      <trkpt lat="42.784191006794572" lon="-7.55258702673018">
        <ele>636</ele>
        <time>2018-05-21T06:32:18Z</time>
      </trkpt>
      <trkpt lat="42.784199975430965" lon="-7.552505973726511">
        <ele>636</ele>
        <time>2018-05-21T06:32:20Z</time>
      </trkpt>
      <trkpt lat="42.784209027886391" lon="-7.552443025633693">
        <ele>636</ele>
        <time>2018-05-21T06:32:21Z</time>
      </trkpt>
      <trkpt lat="42.784209027886391" lon="-7.552390974014998">
        <ele>636</ele>
        <time>2018-05-21T06:32:22Z</time>
      </trkpt>
      <trkpt lat="42.784213973209262" lon="-7.552322996780276">
        <ele>636</ele>
        <time>2018-05-21T06:32:24Z</time>
      </trkpt>
      <trkpt lat="42.784213973209262" lon="-7.552264994010329">
        <ele>636</ele>
        <time>2018-05-21T06:32:25Z</time>
      </trkpt>
      <trkpt lat="42.784213973209262" lon="-7.552201962098479">
        <ele>636</ele>
        <time>2018-05-21T06:32:26Z</time>
      </trkpt>
      <trkpt lat="42.784209027886391" lon="-7.552130967378616">
        <ele>636</ele>
        <time>2018-05-21T06:32:28Z</time>
      </trkpt>
      <trkpt lat="42.784205004572868" lon="-7.552076987922192">
        <ele>636</ele>
        <time>2018-05-21T06:32:29Z</time>
      </trkpt>
      <trkpt lat="42.784199975430965" lon="-7.552002975717187">
        <ele>636</ele>
        <time>2018-05-21T06:32:31Z</time>
      </trkpt>
      <trkpt lat="42.784191006794572" lon="-7.551951007917523">
        <ele>631</ele>
        <time>2018-05-21T06:32:32Z</time>
      </trkpt>
      <trkpt lat="42.784181032329798" lon="-7.551891999319196">
        <ele>631</ele>
        <time>2018-05-21T06:32:33Z</time>
      </trkpt>
      <trkpt lat="42.784181032329798" lon="-7.551833996549249">
        <ele>631</ele>
        <time>2018-05-21T06:32:34Z</time>
      </trkpt>
      <trkpt lat="42.784185977652669" lon="-7.551765013486147">
        <ele>631</ele>
        <time>2018-05-21T06:32:36Z</time>
      </trkpt>
      <trkpt lat="42.784209027886391" lon="-7.551718996837735">
        <ele>631</ele>
        <time>2018-05-21T06:32:37Z</time>
      </trkpt>
      <trkpt lat="42.784223025664687" lon="-7.551672980189323">
        <ele>631</ele>
        <time>2018-05-21T06:32:38Z</time>
      </trkpt>
      <trkpt lat="42.784248003736138" lon="-7.551625035703182">
        <ele>631</ele>
        <time>2018-05-21T06:32:39Z</time>
      </trkpt>
      <trkpt lat="42.784271975979209" lon="-7.551591005176306">
        <ele>631</ele>
        <time>2018-05-21T06:32:40Z</time>
      </trkpt>
      <trkpt lat="42.784281028434634" lon="-7.551527973264456">
        <ele>631</ele>
        <time>2018-05-21T06:32:42Z</time>
      </trkpt>
      <trkpt lat="42.784289997071028" lon="-7.551476005464792">
        <ele>631</ele>
        <time>2018-05-21T06:32:43Z</time>
      </trkpt>
      <trkpt lat="42.784295026212931" lon="-7.551412973552942">
        <ele>631</ele>
        <time>2018-05-21T06:32:44Z</time>
      </trkpt>
      <trkpt lat="42.784295026212931" lon="-7.551361005753279">
        <ele>631</ele>
        <time>2018-05-21T06:32:45Z</time>
      </trkpt>
      <trkpt lat="42.784295026212931" lon="-7.551290011033416">
        <ele>631</ele>
        <time>2018-05-21T06:32:47Z</time>
      </trkpt>
      <trkpt lat="42.784287985414267" lon="-7.551154978573322">
        <ele>635</ele>
        <time>2018-05-21T06:32:50Z</time>
      </trkpt>
      <trkpt lat="42.784282034263015" lon="-7.551154978573322">
        <ele>635</ele>
        <time>2018-05-21T06:32:50Z</time>
      </trkpt>
      <trkpt lat="42.784253032878041" lon="-7.550975019112229">
        <ele>635</ele>
        <time>2018-05-21T06:32:54Z</time>
      </trkpt>
      <trkpt lat="42.784213973209262" lon="-7.550829006358981">
        <ele>635</ele>
        <time>2018-05-21T06:32:57Z</time>
      </trkpt>
      <trkpt lat="42.784169968217611" lon="-7.55065499804914">
        <ele>635</ele>
        <time>2018-05-21T06:33:01Z</time>
      </trkpt>
      <trkpt lat="42.784169968217611" lon="-7.550648963078857">
        <ele>635</ele>
        <time>2018-05-21T06:33:02Z</time>
      </trkpt>
      <trkpt lat="42.784105008468032" lon="-7.550469003617764">
        <ele>635</ele>
        <time>2018-05-21T06:33:06Z</time>
      </trkpt>
      <trkpt lat="42.784033007919788" lon="-7.550294995307922">
        <ele>642</ele>
        <time>2018-05-21T06:33:10Z</time>
      </trkpt>
      <trkpt lat="42.784004006534815" lon="-7.550184018909931">
        <ele>642</ele>
        <time>2018-05-21T06:33:13Z</time>
      </trkpt>
      <trkpt lat="42.783984979614615" lon="-7.5500319711864">
        <ele>642</ele>
        <time>2018-05-21T06:33:16Z</time>
      </trkpt>
      <trkpt lat="42.783991014584899" lon="-7.549737012013793">
        <ele>642</ele>
        <time>2018-05-21T06:33:23Z</time>
      </trkpt>
      <trkpt lat="42.78399595990777" lon="-7.549456972628832">
        <ele>642</ele>
        <time>2018-05-21T06:33:29Z</time>
      </trkpt>
      <trkpt lat="42.78401498682797" lon="-7.549204006791115">
        <ele>642</ele>
        <time>2018-05-21T06:33:34Z</time>
      </trkpt>
      <trkpt lat="42.78401498682797" lon="-7.549196965992451">
        <ele>642</ele>
        <time>2018-05-21T06:33:34Z</time>
      </trkpt>
      <trkpt lat="42.784056980162859" lon="-7.548959003761411">
        <ele>642</ele>
        <time>2018-05-21T06:33:40Z</time>
      </trkpt>
      <trkpt lat="42.784085981547832" lon="-7.54876496270299">
        <ele>642</ele>
        <time>2018-05-21T06:33:44Z</time>
      </trkpt>
      <trkpt lat="42.784110959619284" lon="-7.548525994643569">
        <ele>639</ele>
        <time>2018-05-21T06:33:49Z</time>
      </trkpt>
      <trkpt lat="42.784160999581218" lon="-7.548369001597166">
        <ele>639</ele>
        <time>2018-05-21T06:33:53Z</time>
      </trkpt>
      <trkpt lat="42.784209027886391" lon="-7.548255007714033">
        <ele>639</ele>
        <time>2018-05-21T06:33:56Z</time>
      </trkpt>
      <trkpt lat="42.784209027886391" lon="-7.548244027420878">
        <ele>639</ele>
        <time>2018-05-21T06:33:56Z</time>
      </trkpt>
      <trkpt lat="42.784237023442984" lon="-7.548215026035905">
        <ele>639</ele>
        <time>2018-05-21T06:33:57Z</time>
      </trkpt>
      <trkpt lat="42.784265018999577" lon="-7.548180995509028">
        <ele>639</ele>
        <time>2018-05-21T06:33:58Z</time>
      </trkpt>
      <trkpt lat="42.78429301455617" lon="-7.548139002174139">
        <ele>639</ele>
        <time>2018-05-21T06:33:59Z</time>
      </trkpt>
      <trkpt lat="42.784312041476369" lon="-7.548103965818882">
        <ele>639</ele>
        <time>2018-05-21T06:34:00Z</time>
      </trkpt>
      <trkpt lat="42.784326039254665" lon="-7.548051998019218">
        <ele>639</ele>
        <time>2018-05-21T06:34:01Z</time>
      </trkpt>
      <trkpt lat="42.784351017326117" lon="-7.548003969714046">
        <ele>639</ele>
        <time>2018-05-21T06:34:03Z</time>
      </trkpt>
      <trkpt lat="42.784369038417935" lon="-7.547961976379156">
        <ele>639</ele>
        <time>2018-05-21T06:34:04Z</time>
      </trkpt>
      <trkpt lat="42.784393010661006" lon="-7.547921994701028">
        <ele>639</ele>
        <time>2018-05-21T06:34:05Z</time>
      </trkpt>
      <trkpt lat="42.784417988732457" lon="-7.547872038558126">
        <ele>636</ele>
        <time>2018-05-21T06:34:06Z</time>
      </trkpt>
      <trkpt lat="42.784436009824276" lon="-7.547831973060966">
        <ele>636</ele>
        <time>2018-05-21T06:34:07Z</time>
      </trkpt>
      <trkpt lat="42.784455036744475" lon="-7.54779702052474">
        <ele>636</ele>
        <time>2018-05-21T06:34:08Z</time>
      </trkpt>
      <trkpt lat="42.784473979845643" lon="-7.547743963077664">
        <ele>636</ele>
        <time>2018-05-21T06:34:09Z</time>
      </trkpt>
      <trkpt lat="42.784504992887378" lon="-7.54762502387166">
        <ele>636</ele>
        <time>2018-05-21T06:34:12Z</time>
      </trkpt>
      <trkpt lat="42.784572970122099" lon="-7.54743299447">
        <ele>636</ele>
        <time>2018-05-21T06:34:17Z</time>
      </trkpt>
      <trkpt lat="42.784577999264002" lon="-7.54743299447">
        <ele>636</ele>
        <time>2018-05-21T06:34:17Z</time>
      </trkpt>
      <trkpt lat="42.784605994820595" lon="-7.547286981716752">
        <ele>636</ele>
        <time>2018-05-21T06:34:20Z</time>
      </trkpt>
      <trkpt lat="42.784605994820595" lon="-7.547258986160159">
        <ele>636</ele>
        <time>2018-05-21T06:34:21Z</time>
      </trkpt>
      <trkpt lat="42.78461697511375" lon="-7.547211041674018">
        <ele>636</ele>
        <time>2018-05-21T06:34:22Z</time>
      </trkpt>
      <trkpt lat="42.784640025347471" lon="-7.547173993662">
        <ele>636</ele>
        <time>2018-05-21T06:34:23Z</time>
      </trkpt>
      <trkpt lat="42.784674977883697" lon="-7.547138035297394">
        <ele>646</ele>
        <time>2018-05-21T06:34:24Z</time>
      </trkpt>
      <trkpt lat="42.784702973440289" lon="-7.547112973406911">
        <ele>646</ele>
        <time>2018-05-21T06:34:25Z</time>
      </trkpt>
      <trkpt lat="42.784731974825263" lon="-7.547093024477363">
        <ele>646</ele>
        <time>2018-05-21T06:34:26Z</time>
      </trkpt>
      <trkpt lat="42.784762987866998" lon="-7.54706603474915">
        <ele>646</ele>
        <time>2018-05-21T06:34:27Z</time>
      </trkpt>
      <trkpt lat="42.784798024222255" lon="-7.547036027535796">
        <ele>645</ele>
        <time>2018-05-21T06:34:29Z</time>
      </trkpt>
      <trkpt lat="42.784824008122087" lon="-7.546998979523778">
        <ele>645</ele>
        <time>2018-05-21T06:34:30Z</time>
      </trkpt>
      <trkpt lat="42.784848986193538" lon="-7.546974001452327">
        <ele>645</ele>
        <time>2018-05-21T06:34:31Z</time>
      </trkpt>
      <trkpt lat="42.784872036427259" lon="-7.546934019774199">
        <ele>645</ele>
        <time>2018-05-21T06:34:32Z</time>
      </trkpt>
      <trkpt lat="42.784904977306724" lon="-7.546910969540477">
        <ele>645</ele>
        <time>2018-05-21T06:34:33Z</time>
      </trkpt>
      <trkpt lat="42.784938002005219" lon="-7.546877022832632">
        <ele>645</ele>
        <time>2018-05-21T06:34:34Z</time>
      </trkpt>
      <trkpt lat="42.784972032532096" lon="-7.546841986477375">
        <ele>645</ele>
        <time>2018-05-21T06:34:35Z</time>
      </trkpt>
      <trkpt lat="42.785027017816901" lon="-7.54670200869441">
        <ele>645</ele>
        <time>2018-05-21T06:34:39Z</time>
      </trkpt>
      <trkpt lat="42.785084014758468" lon="-7.546562030911446">
        <ele>645</ele>
        <time>2018-05-21T06:34:42Z</time>
      </trkpt>
      <trkpt lat="42.785120978951454" lon="-7.546435967087746">
        <ele>645</ele>
        <time>2018-05-21T06:34:45Z</time>
      </trkpt>
      <trkpt lat="42.785142017528415" lon="-7.546405037865043">
        <ele>645</ele>
        <time>2018-05-21T06:34:46Z</time>
      </trkpt>
      <trkpt lat="42.785160038620234" lon="-7.546371007338166">
        <ele>645</ele>
        <time>2018-05-21T06:34:47Z</time>
      </trkpt>
      <trkpt lat="42.785179987549782" lon="-7.546335970982909">
        <ele>645</ele>
        <time>2018-05-21T06:34:48Z</time>
      </trkpt>
      <trkpt lat="42.785207983106375" lon="-7.546302024275065">
        <ele>645</ele>
        <time>2018-05-21T06:34:49Z</time>
      </trkpt>
      <trkpt lat="42.785241007804871" lon="-7.546264976263046">
        <ele>645</ele>
        <time>2018-05-21T06:34:50Z</time>
      </trkpt>
      <trkpt lat="42.785265985876322" lon="-7.54622801207006">
        <ele>638</ele>
        <time>2018-05-21T06:34:51Z</time>
      </trkpt>
      <trkpt lat="42.785301022231579" lon="-7.546210996806622">
        <ele>638</ele>
        <time>2018-05-21T06:34:52Z</time>
      </trkpt>
      <trkpt lat="42.785333041101694" lon="-7.546176966279745">
        <ele>638</ele>
        <time>2018-05-21T06:34:54Z</time>
      </trkpt>
      <trkpt lat="42.785358019173145" lon="-7.546146037057042">
        <ele>638</ele>
        <time>2018-05-21T06:34:55Z</time>
      </trkpt>
      <trkpt lat="42.785386014729738" lon="-7.546117035672069">
        <ele>638</ele>
        <time>2018-05-21T06:34:56Z</time>
      </trkpt>
      <trkpt lat="42.785422978922725" lon="-7.546093985438347">
        <ele>638</ele>
        <time>2018-05-21T06:34:57Z</time>
      </trkpt>
      <trkpt lat="42.785462038591504" lon="-7.546060038730502">
        <ele>638</ele>
        <time>2018-05-21T06:34:58Z</time>
      </trkpt>
      <trkpt lat="42.785633029416203" lon="-7.545868009328842">
        <ele>645</ele>
        <time>2018-05-21T06:35:05Z</time>
      </trkpt>
      <trkpt lat="42.785795973613858" lon="-7.545674974098802">
        <ele>645</ele>
        <time>2018-05-21T06:35:11Z</time>
      </trkpt>
      <trkpt lat="42.785930000245571" lon="-7.545518986880779">
        <ele>645</ele>
        <time>2018-05-21T06:35:16Z</time>
      </trkpt>
      <trkpt lat="42.786009963601828" lon="-7.545399041846395">
        <ele>635</ele>
        <time>2018-05-21T06:35:20Z</time>
      </trkpt>
      <trkpt lat="42.786090010777116" lon="-7.545251017436385">
        <ele>635</ele>
        <time>2018-05-21T06:35:24Z</time>
      </trkpt>
      <trkpt lat="42.786149019375443" lon="-7.545139035210013">
        <ele>635</ele>
        <time>2018-05-21T06:35:27Z</time>
      </trkpt>
      <trkpt lat="42.786153964698315" lon="-7.545115984976292">
        <ele>635</ele>
        <time>2018-05-21T06:35:27Z</time>
      </trkpt>
      <trkpt lat="42.786171985790133" lon="-7.54506996832788">
        <ele>635</ele>
        <time>2018-05-21T06:35:29Z</time>
      </trkpt>
      <trkpt lat="42.786177014932036" lon="-7.545014983043075">
        <ele>635</ele>
        <time>2018-05-21T06:35:30Z</time>
      </trkpt>
      <trkpt lat="42.786191012710333" lon="-7.544973995536566">
        <ele>635</ele>
        <time>2018-05-21T06:35:31Z</time>
      </trkpt>
      <trkpt lat="42.786207022145391" lon="-7.54493803717196">
        <ele>635</ele>
        <time>2018-05-21T06:35:32Z</time>
      </trkpt>
      <trkpt lat="42.786221019923687" lon="-7.544899983331561">
        <ele>635</ele>
        <time>2018-05-21T06:35:33Z</time>
      </trkpt>
      <trkpt lat="42.786224959418178" lon="-7.544848015531898">
        <ele>635</ele>
        <time>2018-05-21T06:35:34Z</time>
      </trkpt>
      <trkpt lat="42.786224959418178" lon="-7.544779032468796">
        <ele>635</ele>
        <time>2018-05-21T06:35:35Z</time>
      </trkpt>
      <trkpt lat="42.786224959418178" lon="-7.544722035527229">
        <ele>635</ele>
        <time>2018-05-21T06:35:37Z</time>
      </trkpt>
      <trkpt lat="42.786224959418178" lon="-7.544669983908534">
        <ele>635</ele>
        <time>2018-05-21T06:35:38Z</time>
      </trkpt>
      <trkpt lat="42.786221019923687" lon="-7.544589014723897">
        <ele>635</ele>
        <time>2018-05-21T06:35:39Z</time>
      </trkpt>
      <trkpt lat="42.786215990781784" lon="-7.544537968933582">
        <ele>635</ele>
        <time>2018-05-21T06:35:41Z</time>
      </trkpt>
      <trkpt lat="42.786210961639881" lon="-7.544486001133919">
        <ele>635</ele>
        <time>2018-05-21T06:35:42Z</time>
      </trkpt>
      <trkpt lat="42.786207022145391" lon="-7.544434033334255">
        <ele>636</ele>
        <time>2018-05-21T06:35:43Z</time>
      </trkpt>
      <trkpt lat="42.786201993003488" lon="-7.544382987543941">
        <ele>636</ele>
        <time>2018-05-21T06:35:44Z</time>
      </trkpt>
      <trkpt lat="42.786182966083288" lon="-7.544334959238768">
        <ele>636</ele>
        <time>2018-05-21T06:35:45Z</time>
      </trkpt>
      <trkpt lat="42.786168968304992" lon="-7.544287014752626">
        <ele>636</ele>
        <time>2018-05-21T06:35:46Z</time>
      </trkpt>
      <trkpt lat="42.786151031032205" lon="-7.544247033074498">
        <ele>636</ele>
        <time>2018-05-21T06:35:47Z</time>
      </trkpt>
      <trkpt lat="42.786132004112005" lon="-7.544201016426086">
        <ele>636</ele>
        <time>2018-05-21T06:35:48Z</time>
      </trkpt>
      <trkpt lat="42.786115994676948" lon="-7.544150976464152">
        <ele>636</ele>
        <time>2018-05-21T06:35:50Z</time>
      </trkpt>
      <trkpt lat="42.786100991070271" lon="-7.544109988957644">
        <ele>636</ele>
        <time>2018-05-21T06:35:51Z</time>
      </trkpt>
      <trkpt lat="42.786023039370775" lon="-7.543937992304564">
        <ele>636</ele>
        <time>2018-05-21T06:35:55Z</time>
      </trkpt>
      <trkpt lat="42.785932011902332" lon="-7.54373699426651">
        <ele>636</ele>
        <time>2018-05-21T06:36:00Z</time>
      </trkpt>
      <trkpt lat="42.785825980827212" lon="-7.543577989563346">
        <ele>645</ele>
        <time>2018-05-21T06:36:05Z</time>
      </trkpt>
      <trkpt lat="42.785734031349421" lon="-7.543440023437142">
        <ele>645</ele>
        <time>2018-05-21T06:36:09Z</time>
      </trkpt>
      <trkpt lat="42.785621965304017" lon="-7.543279007077217">
        <ele>645</ele>
        <time>2018-05-21T06:36:14Z</time>
      </trkpt>
      <trkpt lat="42.785560023039579" lon="-7.543140035122633">
        <ele>645</ele>
        <time>2018-05-21T06:36:17Z</time>
      </trkpt>
      <trkpt lat="42.785513000562787" lon="-7.542945994064212">
        <ele>645</ele>
        <time>2018-05-21T06:36:22Z</time>
      </trkpt>
      <trkpt lat="42.785499002784491" lon="-7.542777014896274">
        <ele>651</ele>
        <time>2018-05-21T06:36:25Z</time>
      </trkpt>
      <trkpt lat="42.785460026934743" lon="-7.54259898327291">
        <ele>639</ele>
        <time>2018-05-21T06:36:29Z</time>
      </trkpt>
      <trkpt lat="42.785420967265964" lon="-7.542536035180092">
        <ele>639</ele>
        <time>2018-05-21T06:36:31Z</time>
      </trkpt>
      <trkpt lat="42.785377968102694" lon="-7.54246897995472">
        <ele>639</ele>
        <time>2018-05-21T06:36:33Z</time>
      </trkpt>
      <trkpt lat="42.785314014181495" lon="-7.542390022426844">
        <ele>639</ele>
        <time>2018-05-21T06:36:36Z</time>
      </trkpt>
      <trkpt lat="42.785231033340096" lon="-7.542321039363742">
        <ele>639</ele>
        <time>2018-05-21T06:36:38Z</time>
      </trkpt>
      <trkpt lat="42.785231033340096" lon="-7.542312992736697">
        <ele>639</ele>
        <time>2018-05-21T06:36:39Z</time>
      </trkpt>
      <trkpt lat="42.785160960629582" lon="-7.542300000786781">
        <ele>639</ele>
        <time>2018-05-21T06:36:41Z</time>
      </trkpt>
      <trkpt lat="42.785096000880003" lon="-7.542251972481608">
        <ele>639</ele>
        <time>2018-05-21T06:36:43Z</time>
      </trkpt>
      <trkpt lat="42.785082003101707" lon="-7.542235041037202">
        <ele>639</ele>
        <time>2018-05-21T06:36:43Z</time>
      </trkpt>
      <trkpt lat="42.785062976181507" lon="-7.542172009125352">
        <ele>639</ele>
        <time>2018-05-21T06:36:45Z</time>
      </trkpt>
      <trkpt lat="42.785034980624914" lon="-7.542074024677277">
        <ele>639</ele>
        <time>2018-05-21T06:36:47Z</time>
      </trkpt>
      <trkpt lat="42.785026011988521" lon="-7.54201996140182">
        <ele>639</ele>
        <time>2018-05-21T06:36:48Z</time>
      </trkpt>
      <trkpt lat="42.785016037523746" lon="-7.541968999430537">
        <ele>639</ele>
        <time>2018-05-21T06:36:50Z</time>
      </trkpt>
      <trkpt lat="42.785012014210224" lon="-7.541876966133714">
        <ele>639</ele>
        <time>2018-05-21T06:36:52Z</time>
      </trkpt>
      <trkpt lat="42.785006985068321" lon="-7.541814018040896">
        <ele>639</ele>
        <time>2018-05-21T06:36:53Z</time>
      </trkpt>
      <trkpt lat="42.784998016431928" lon="-7.5417619664222">
        <ele>639</ele>
        <time>2018-05-21T06:36:54Z</time>
      </trkpt>
      <trkpt lat="42.784978989511728" lon="-7.54171603359282">
        <ele>639</ele>
        <time>2018-05-21T06:36:55Z</time>
      </trkpt>
      <trkpt lat="42.784964991733432" lon="-7.541658030822873">
        <ele>639</ele>
        <time>2018-05-21T06:36:57Z</time>
      </trkpt>
      <trkpt lat="42.784946970641613" lon="-7.541612014174461">
        <ele>639</ele>
        <time>2018-05-21T06:36:58Z</time>
      </trkpt>
      <trkpt lat="42.784928027540445" lon="-7.541555017232895">
        <ele>639</ele>
        <time>2018-05-21T06:36:59Z</time>
      </trkpt>
      <trkpt lat="42.784900031983852" lon="-7.541520986706018">
        <ele>639</ele>
        <time>2018-05-21T06:37:00Z</time>
      </trkpt>
      <trkpt lat="42.784881005063653" lon="-7.541469018906355">
        <ele>639</ele>
        <time>2018-05-21T06:37:01Z</time>
      </trkpt>
      <trkpt lat="42.784860972315073" lon="-7.541425013914704">
        <ele>639</ele>
        <time>2018-05-21T06:37:02Z</time>
      </trkpt>
      <trkpt lat="42.784818978980184" lon="-7.541356030851603">
        <ele>639</ele>
        <time>2018-05-21T06:37:04Z</time>
      </trkpt>
      <trkpt lat="42.784759970381856" lon="-7.541257962584496">
        <ele>639</ele>
        <time>2018-05-21T06:37:07Z</time>
      </trkpt>
      <trkpt lat="42.784731974825263" lon="-7.541217980906367">
        <ele>639</ele>
        <time>2018-05-21T06:37:08Z</time>
      </trkpt>
      <trkpt lat="42.78470397926867" lon="-7.541176993399859">
        <ele>639</ele>
        <time>2018-05-21T06:37:10Z</time>
      </trkpt>
      <trkpt lat="42.784671038389206" lon="-7.541130976751447">
        <ele>644</ele>
        <time>2018-05-21T06:37:11Z</time>
      </trkpt>
      <trkpt lat="42.784647988155484" lon="-7.541090995073319">
        <ele>635</ele>
        <time>2018-05-21T06:37:12Z</time>
      </trkpt>
      <trkpt lat="42.784625021740794" lon="-7.541044978424907">
        <ele>635</ele>
        <time>2018-05-21T06:37:13Z</time>
      </trkpt>
      <trkpt lat="42.784600965678692" lon="-7.541004996746779">
        <ele>635</ele>
        <time>2018-05-21T06:37:14Z</time>
      </trkpt>
      <trkpt lat="42.784572970122099" lon="-7.540970966219902">
        <ele>635</ele>
        <time>2018-05-21T06:37:16Z</time>
      </trkpt>
      <trkpt lat="42.784539023414254" lon="-7.540947999805212">
        <ele>635</ele>
        <time>2018-05-21T06:37:17Z</time>
      </trkpt>
      <trkpt lat="42.784470040351152" lon="-7.540841968730092">
        <ele>635</ele>
        <time>2018-05-21T06:37:20Z</time>
      </trkpt>
      <trkpt lat="42.784396028146148" lon="-7.540676007047296">
        <ele>635</ele>
        <time>2018-05-21T06:37:24Z</time>
      </trkpt>
      <trkpt lat="42.784342970699072" lon="-7.540465034544468">
        <ele>635</ele>
        <time>2018-05-21T06:37:29Z</time>
      </trkpt>
      <trkpt lat="42.784305000677705" lon="-7.54023696295917">
        <ele>640</ele>
        <time>2018-05-21T06:37:34Z</time>
      </trkpt>
      <trkpt lat="42.784249009564519" lon="-7.540009981021285">
        <ele>640</ele>
        <time>2018-05-21T06:37:39Z</time>
      </trkpt>
      <trkpt lat="42.784249009564519" lon="-7.539981985464692">
        <ele>640</ele>
        <time>2018-05-21T06:37:40Z</time>
      </trkpt>
      <trkpt lat="42.784235011786222" lon="-7.539930017665029">
        <ele>640</ele>
        <time>2018-05-21T06:37:41Z</time>
      </trkpt>
      <trkpt lat="42.784225959330797" lon="-7.539861034601927">
        <ele>640</ele>
        <time>2018-05-21T06:37:42Z</time>
      </trkpt>
      <trkpt lat="42.784216990694404" lon="-7.539808982983232">
        <ele>640</ele>
        <time>2018-05-21T06:37:44Z</time>
      </trkpt>
      <trkpt lat="42.784202992916107" lon="-7.539729019626975">
        <ele>640</ele>
        <time>2018-05-21T06:37:45Z</time>
      </trkpt>
      <trkpt lat="42.784197963774204" lon="-7.539660036563873">
        <ele>640</ele>
        <time>2018-05-21T06:37:47Z</time>
      </trkpt>
      <trkpt lat="42.784197963774204" lon="-7.539603039622307">
        <ele>644</ele>
        <time>2018-05-21T06:37:48Z</time>
      </trkpt>
      <trkpt lat="42.784197963774204" lon="-7.53954503685236">
        <ele>640</ele>
        <time>2018-05-21T06:37:49Z</time>
      </trkpt>
      <trkpt lat="42.784197963774204" lon="-7.539464989677072">
        <ele>644</ele>
        <time>2018-05-21T06:37:51Z</time>
      </trkpt>
      <trkpt lat="42.784197963774204" lon="-7.539389971643686">
        <ele>644</ele>
        <time>2018-05-21T06:37:53Z</time>
      </trkpt>
      <trkpt lat="42.78420701622963" lon="-7.539339009672403">
        <ele>644</ele>
        <time>2018-05-21T06:37:54Z</time>
      </trkpt>
      <trkpt lat="42.78420701622963" lon="-7.539270026609302">
        <ele>644</ele>
        <time>2018-05-21T06:37:55Z</time>
      </trkpt>
      <trkpt lat="42.78420701622963" lon="-7.539212023839355">
        <ele>644</ele>
        <time>2018-05-21T06:37:57Z</time>
      </trkpt>
      <trkpt lat="42.78420701622963" lon="-7.539159972220659">
        <ele>644</ele>
        <time>2018-05-21T06:37:58Z</time>
      </trkpt>
      <trkpt lat="42.784202992916107" lon="-7.539084032177925">
        <ele>644</ele>
        <time>2018-05-21T06:37:59Z</time>
      </trkpt>
      <trkpt lat="42.784202992916107" lon="-7.539026029407978">
        <ele>644</ele>
        <time>2018-05-21T06:38:01Z</time>
      </trkpt>
      <trkpt lat="42.784202992916107" lon="-7.538956962525845">
        <ele>644</ele>
        <time>2018-05-21T06:38:02Z</time>
      </trkpt>
      <trkpt lat="42.784197963774204" lon="-7.538899965584278">
        <ele>644</ele>
        <time>2018-05-21T06:38:03Z</time>
      </trkpt>
      <trkpt lat="42.784197963774204" lon="-7.538813967257738">
        <ele>644</ele>
        <time>2018-05-21T06:38:05Z</time>
      </trkpt>
      <trkpt lat="42.784197963774204" lon="-7.53875101916492">
        <ele>644</ele>
        <time>2018-05-21T06:38:07Z</time>
      </trkpt>
      <trkpt lat="42.784188995137811" lon="-7.538682036101818">
        <ele>644</ele>
        <time>2018-05-21T06:38:08Z</time>
      </trkpt>
      <trkpt lat="42.784179020673037" lon="-7.538636019453406">
        <ele>644</ele>
        <time>2018-05-21T06:38:09Z</time>
      </trkpt>
      <trkpt lat="42.784169968217611" lon="-7.538583967834711">
        <ele>644</ele>
        <time>2018-05-21T06:38:10Z</time>
      </trkpt>
      <trkpt lat="42.78416401706636" lon="-7.538519008085132">
        <ele>644</ele>
        <time>2018-05-21T06:38:12Z</time>
      </trkpt>
      <trkpt lat="42.784102996811271" lon="-7.538250032812357">
        <ele>644</ele>
        <time>2018-05-21T06:38:18Z</time>
      </trkpt>
      <trkpt lat="42.78403602540493" lon="-7.538007041439414">
        <ele>644</ele>
        <time>2018-05-21T06:38:23Z</time>
      </trkpt>
      <trkpt lat="42.783960001543164" lon="-7.537723984569311">
        <ele>640</ele>
        <time>2018-05-21T06:38:30Z</time>
      </trkpt>
      <trkpt lat="42.783926976844668" lon="-7.537535978481174">
        <ele>640</ele>
        <time>2018-05-21T06:38:34Z</time>
      </trkpt>
      <trkpt lat="42.783923037350178" lon="-7.537501025944948">
        <ele>640</ele>
        <time>2018-05-21T06:38:35Z</time>
      </trkpt>
      <trkpt lat="42.783918008208275" lon="-7.537444029003382">
        <ele>640</ele>
        <time>2018-05-21T06:38:36Z</time>
      </trkpt>
      <trkpt lat="42.783904010429978" lon="-7.537391977384687">
        <ele>640</ele>
        <time>2018-05-21T06:38:37Z</time>
      </trkpt>
      <trkpt lat="42.783888000994921" lon="-7.537333974614739">
        <ele>640</ele>
        <time>2018-05-21T06:38:39Z</time>
      </trkpt>
      <trkpt lat="42.783879032358527" lon="-7.537271026521921">
        <ele>640</ele>
        <time>2018-05-21T06:38:40Z</time>
      </trkpt>
      <trkpt lat="42.783865034580231" lon="-7.537214029580355">
        <ele>640</ele>
        <time>2018-05-21T06:38:41Z</time>
      </trkpt>
      <trkpt lat="42.783855982124805" lon="-7.537166001275182">
        <ele>640</ele>
        <time>2018-05-21T06:38:42Z</time>
      </trkpt>
      <trkpt lat="42.783851036801934" lon="-7.53709701821208">
        <ele>640</ele>
        <time>2018-05-21T06:38:44Z</time>
      </trkpt>
      <trkpt lat="42.783841984346509" lon="-7.536999033764005">
        <ele>637</ele>
        <time>2018-05-21T06:38:46Z</time>
      </trkpt>
      <trkpt lat="42.783837039023638" lon="-7.536929966881871">
        <ele>637</ele>
        <time>2018-05-21T06:38:48Z</time>
      </trkpt>
      <trkpt lat="42.783827986568213" lon="-7.536879004910588">
        <ele>637</ele>
        <time>2018-05-21T06:38:49Z</time>
      </trkpt>
      <trkpt lat="42.783823041245341" lon="-7.536746989935637">
        <ele>637</ele>
        <time>2018-05-21T06:38:52Z</time>
      </trkpt>
      <trkpt lat="42.783818012103438" lon="-7.536649005487561">
        <ele>637</ele>
        <time>2018-05-21T06:38:54Z</time>
      </trkpt>
      <trkpt lat="42.783813988789916" lon="-7.536597037687898">
        <ele>637</ele>
        <time>2018-05-21T06:38:55Z</time>
      </trkpt>
      <trkpt lat="42.783808959648013" lon="-7.536511039361358">
        <ele>637</ele>
        <time>2018-05-21T06:38:57Z</time>
      </trkpt>
      <trkpt lat="42.783804014325142" lon="-7.536437027156353">
        <ele>637</ele>
        <time>2018-05-21T06:38:58Z</time>
      </trkpt>
      <trkpt lat="42.783790016546845" lon="-7.536372989416122">
        <ele>637</ele>
        <time>2018-05-21T06:39:00Z</time>
      </trkpt>
      <trkpt lat="42.78378096409142" lon="-7.536320015788078">
        <ele>637</ele>
        <time>2018-05-21T06:39:01Z</time>
      </trkpt>
      <trkpt lat="42.783752968534827" lon="-7.536076018586755">
        <ele>647</ele>
        <time>2018-05-21T06:39:06Z</time>
      </trkpt>
      <trkpt lat="42.783674011006951" lon="-7.535730013623834">
        <ele>647</ele>
        <time>2018-05-21T06:39:14Z</time>
      </trkpt>
      <trkpt lat="42.783621037378907" lon="-7.535573020577431">
        <ele>647</ele>
        <time>2018-05-21T06:39:18Z</time>
      </trkpt>
      <trkpt lat="42.783593041822314" lon="-7.535374034196138">
        <ele>654</ele>
        <time>2018-05-21T06:39:23Z</time>
      </trkpt>
      <trkpt lat="42.783583989366889" lon="-7.535186028108001">
        <ele>654</ele>
        <time>2018-05-21T06:39:27Z</time>
      </trkpt>
      <trkpt lat="42.783546019345522" lon="-7.534892996773124">
        <ele>654</ele>
        <time>2018-05-21T06:39:33Z</time>
      </trkpt>
      <trkpt lat="42.783525986596942" lon="-7.534641958773136">
        <ele>654</ele>
        <time>2018-05-21T06:39:39Z</time>
      </trkpt>
      <trkpt lat="42.783511988818645" lon="-7.534257983788848">
        <ele>659</ele>
        <time>2018-05-21T06:39:47Z</time>
      </trkpt>
      <trkpt lat="42.783511988818645" lon="-7.534210961312056">
        <ele>659</ele>
        <time>2018-05-21T06:39:48Z</time>
      </trkpt>
      <trkpt lat="42.783511988818645" lon="-7.533871997147799">
        <ele>659</ele>
        <time>2018-05-21T06:39:55Z</time>
      </trkpt>
      <trkpt lat="42.783521041274071" lon="-7.533626994118094">
        <ele>662</ele>
        <time>2018-05-21T06:40:01Z</time>
      </trkpt>
      <trkpt lat="42.783531015738845" lon="-7.533587012439966">
        <ele>662</ele>
        <time>2018-05-21T06:40:02Z</time>
      </trkpt>
      <trkpt lat="42.783531015738845" lon="-7.533529009670019">
        <ele>662</ele>
        <time>2018-05-21T06:40:03Z</time>
      </trkpt>
      <trkpt lat="42.783531015738845" lon="-7.533477963879705">
        <ele>662</ele>
        <time>2018-05-21T06:40:04Z</time>
      </trkpt>
      <trkpt lat="42.783545013517141" lon="-7.533425996080041">
        <ele>662</ele>
        <time>2018-05-21T06:40:05Z</time>
      </trkpt>
      <trkpt lat="42.783573009073734" lon="-7.533386014401913">
        <ele>662</ele>
        <time>2018-05-21T06:40:06Z</time>
      </trkpt>
      <trkpt lat="42.783593041822314" lon="-7.533344021067023">
        <ele>662</ele>
        <time>2018-05-21T06:40:08Z</time>
      </trkpt>
      <trkpt lat="42.783611984923482" lon="-7.533301021903753">
        <ele>662</ele>
        <time>2018-05-21T06:40:09Z</time>
      </trkpt>
      <trkpt lat="42.783611984923482" lon="-7.533242013305426">
        <ele>662</ele>
        <time>2018-05-21T06:40:10Z</time>
      </trkpt>
      <trkpt lat="42.783573009073734" lon="-7.5331000238657">
        <ele>662</ele>
        <time>2018-05-21T06:40:13Z</time>
      </trkpt>
      <trkpt lat="42.783526992425323" lon="-7.532976977527142">
        <ele>662</ele>
        <time>2018-05-21T06:40:16Z</time>
      </trkpt>
      <trkpt lat="42.7835229691118" lon="-7.532709008082748">
        <ele>661</ele>
        <time>2018-05-21T06:40:22Z</time>
      </trkpt>
      <trkpt lat="42.78349899686873" lon="-7.532390998676419">
        <ele>661</ele>
        <time>2018-05-21T06:40:29Z</time>
      </trkpt>
      <trkpt lat="42.78349899686873" lon="-7.532383035868406">
        <ele>661</ele>
        <time>2018-05-21T06:40:29Z</time>
      </trkpt>
      <trkpt lat="42.783484999090433" lon="-7.532033007591963">
        <ele>661</ele>
        <time>2018-05-21T06:40:37Z</time>
      </trkpt>
      <trkpt lat="42.783484999090433" lon="-7.531998977065086">
        <ele>661</ele>
        <time>2018-05-21T06:40:37Z</time>
      </trkpt>
      <trkpt lat="42.783484999090433" lon="-7.531947009265423">
        <ele>658</ele>
        <time>2018-05-21T06:40:39Z</time>
      </trkpt>
      <trkpt lat="42.783484999090433" lon="-7.531890012323856">
        <ele>658</ele>
        <time>2018-05-21T06:40:40Z</time>
      </trkpt>
      <trkpt lat="42.783484999090433" lon="-7.531821029260755">
        <ele>658</ele>
        <time>2018-05-21T06:40:41Z</time>
      </trkpt>
      <trkpt lat="42.783484999090433" lon="-7.531746011227369">
        <ele>658</ele>
        <time>2018-05-21T06:40:43Z</time>
      </trkpt>
      <trkpt lat="42.783484999090433" lon="-7.531682979315519">
        <ele>658</ele>
        <time>2018-05-21T06:40:44Z</time>
      </trkpt>
      <trkpt lat="42.783484999090433" lon="-7.531607961282134">
        <ele>658</ele>
        <time>2018-05-21T06:40:46Z</time>
      </trkpt>
      <trkpt lat="42.783490028232336" lon="-7.531555993482471">
        <ele>658</ele>
        <time>2018-05-21T06:40:47Z</time>
      </trkpt>
      <trkpt lat="42.78349899686873" lon="-7.531487010419369">
        <ele>658</ele>
        <time>2018-05-21T06:40:49Z</time>
      </trkpt>
      <trkpt lat="42.783512994647026" lon="-7.531435964629054">
        <ele>658</ele>
        <time>2018-05-21T06:40:50Z</time>
      </trkpt>
      <trkpt lat="42.783532021567225" lon="-7.531383996829391">
        <ele>658</ele>
        <time>2018-05-21T06:40:51Z</time>
      </trkpt>
      <trkpt lat="42.783550964668393" lon="-7.531337980180979">
        <ele>658</ele>
        <time>2018-05-21T06:40:52Z</time>
      </trkpt>
      <trkpt lat="42.783578960224986" lon="-7.531286012381315">
        <ele>658</ele>
        <time>2018-05-21T06:40:54Z</time>
      </trkpt>
      <trkpt lat="42.783607039600611" lon="-7.531246030703187">
        <ele>658</ele>
        <time>2018-05-21T06:40:55Z</time>
      </trkpt>
      <trkpt lat="42.783630006015301" lon="-7.531200014054775">
        <ele>658</ele>
        <time>2018-05-21T06:40:56Z</time>
      </trkpt>
      <trkpt lat="42.783658001571894" lon="-7.531148968264461">
        <ele>652</ele>
        <time>2018-05-21T06:40:57Z</time>
      </trkpt>
      <trkpt lat="42.78369102627039" lon="-7.531103035435081">
        <ele>652</ele>
        <time>2018-05-21T06:40:59Z</time>
      </trkpt>
      <trkpt lat="42.783719021826982" lon="-7.531050983816385">
        <ele>652</ele>
        <time>2018-05-21T06:41:00Z</time>
      </trkpt>
      <trkpt lat="42.783751040697098" lon="-7.531021982431412">
        <ele>652</ele>
        <time>2018-05-21T06:41:01Z</time>
      </trkpt>
      <trkpt lat="42.783789010718465" lon="-7.530975965783">
        <ele>668</ele>
        <time>2018-05-21T06:41:03Z</time>
      </trkpt>
      <trkpt lat="42.78382102958858" lon="-7.530947970226407">
        <ele>668</ele>
        <time>2018-05-21T06:41:04Z</time>
      </trkpt>
      <trkpt lat="42.783849025145173" lon="-7.530902037397027">
        <ele>668</ele>
        <time>2018-05-21T06:41:05Z</time>
      </trkpt>
      <trkpt lat="42.783871991559863" lon="-7.530860966071487">
        <ele>668</ele>
        <time>2018-05-21T06:41:06Z</time>
      </trkpt>
      <trkpt lat="42.783891018480062" lon="-7.530815033242106">
        <ele>668</ele>
        <time>2018-05-21T06:41:07Z</time>
      </trkpt>
      <trkpt lat="42.783913984894753" lon="-7.530763987451792">
        <ele>668</ele>
        <time>2018-05-21T06:41:09Z</time>
      </trkpt>
      <trkpt lat="42.783927982673049" lon="-7.530712019652128">
        <ele>668</ele>
        <time>2018-05-21T06:41:10Z</time>
      </trkpt>
      <trkpt lat="42.783938040956855" lon="-7.530648987740278">
        <ele>668</ele>
        <time>2018-05-21T06:41:11Z</time>
      </trkpt>
      <trkpt lat="42.783941980451345" lon="-7.530590984970331">
        <ele>668</ele>
        <time>2018-05-21T06:41:13Z</time>
      </trkpt>
      <trkpt lat="42.783941980451345" lon="-7.530531976372004">
        <ele>668</ele>
        <time>2018-05-21T06:41:14Z</time>
      </trkpt>
      <trkpt lat="42.783941980451345" lon="-7.530452013015747">
        <ele>668</ele>
        <time>2018-05-21T06:41:16Z</time>
      </trkpt>
      <trkpt lat="42.783941980451345" lon="-7.5303940102458">
        <ele>668</ele>
        <time>2018-05-21T06:41:17Z</time>
      </trkpt>
      <trkpt lat="42.783938040956855" lon="-7.530325027182698">
        <ele>663</ele>
        <time>2018-05-21T06:41:18Z</time>
      </trkpt>
      <trkpt lat="42.783938040956855" lon="-7.530268030241132">
        <ele>663</ele>
        <time>2018-05-21T06:41:20Z</time>
      </trkpt>
      <trkpt lat="42.783938040956855" lon="-7.530204998329282">
        <ele>663</ele>
        <time>2018-05-21T06:41:21Z</time>
      </trkpt>
      <trkpt lat="42.783933011814952" lon="-7.530117994174361">
        <ele>663</ele>
        <time>2018-05-21T06:41:23Z</time>
      </trkpt>
      <trkpt lat="42.783927982673049" lon="-7.530067032203078">
        <ele>663</ele>
        <time>2018-05-21T06:41:24Z</time>
      </trkpt>
      <trkpt lat="42.783919014036655" lon="-7.52998597919941">
        <ele>663</ele>
        <time>2018-05-21T06:41:26Z</time>
      </trkpt>
      <trkpt lat="42.783919014036655" lon="-7.529935017228127">
        <ele>663</ele>
        <time>2018-05-21T06:41:27Z</time>
      </trkpt>
      <trkpt lat="42.783913984894753" lon="-7.52987701445818">
        <ele>663</ele>
        <time>2018-05-21T06:41:28Z</time>
      </trkpt>
      <trkpt lat="42.78390996158123" lon="-7.52981398254633">
        <ele>663</ele>
        <time>2018-05-21T06:41:30Z</time>
      </trkpt>
      <trkpt lat="42.78390996158123" lon="-7.529756985604763">
        <ele>663</ele>
        <time>2018-05-21T06:41:31Z</time>
      </trkpt>
      <trkpt lat="42.783905016258359" lon="-7.529698982834816">
        <ele>663</ele>
        <time>2018-05-21T06:41:32Z</time>
      </trkpt>
      <trkpt lat="42.783891018480062" lon="-7.529627988114953">
        <ele>663</ele>
        <time>2018-05-21T06:41:34Z</time>
      </trkpt>
      <trkpt lat="42.783871991559863" lon="-7.52957702614367">
        <ele>663</ele>
        <time>2018-05-21T06:41:35Z</time>
      </trkpt>
      <trkpt lat="42.783851036801934" lon="-7.529456997290254">
        <ele>661</ele>
        <time>2018-05-21T06:41:38Z</time>
      </trkpt>
      <trkpt lat="42.783840978518128" lon="-7.52940402366221">
        <ele>661</ele>
        <time>2018-05-21T06:41:39Z</time>
      </trkpt>
      <trkpt lat="42.783840978518128" lon="-7.529262034222484">
        <ele>661</ele>
        <time>2018-05-21T06:41:42Z</time>
      </trkpt>
      <trkpt lat="42.783808959648013" lon="-7.529033962637186">
        <ele>661</ele>
        <time>2018-05-21T06:41:47Z</time>
      </trkpt>
      <trkpt lat="42.78375699184835" lon="-7.528690975159407">
        <ele>648</ele>
        <time>2018-05-21T06:41:55Z</time>
      </trkpt>
      <trkpt lat="42.783696977421641" lon="-7.528247991576791">
        <ele>648</ele>
        <time>2018-05-21T06:42:04Z</time>
      </trkpt>
      <trkpt lat="42.783664036542177" lon="-7.527985973283649">
        <ele>648</ele>
        <time>2018-05-21T06:42:10Z</time>
      </trkpt>
      <trkpt lat="42.783621959388256" lon="-7.527668969705701">
        <ele>650</ele>
        <time>2018-05-21T06:42:17Z</time>
      </trkpt>
      <trkpt lat="42.783647021278739" lon="-7.527469983324409">
        <ele>650</ele>
        <time>2018-05-21T06:42:21Z</time>
      </trkpt>
      <trkpt lat="42.783697983250022" lon="-7.527308966964483">
        <ele>650</ele>
        <time>2018-05-21T06:42:25Z</time>
      </trkpt>
      <trkpt lat="42.783747017383575" lon="-7.527175024151802">
        <ele>650</ele>
        <time>2018-05-21T06:42:28Z</time>
      </trkpt>
      <trkpt lat="42.783835027366877" lon="-7.526950975880027">
        <ele>661</ele>
        <time>2018-05-21T06:42:34Z</time>
      </trkpt>
      <trkpt lat="42.783909039571881" lon="-7.526758024469018">
        <ele>661</ele>
        <time>2018-05-21T06:42:39Z</time>
      </trkpt>
      <trkpt lat="42.784020015969872" lon="-7.526565995067358">
        <ele>661</ele>
        <time>2018-05-21T06:42:44Z</time>
      </trkpt>
      <trkpt lat="42.78407801873982" lon="-7.526369020342827">
        <ele>661</ele>
        <time>2018-05-21T06:42:49Z</time>
      </trkpt>
      <trkpt lat="42.784083969891071" lon="-7.52633398398757">
        <ele>661</ele>
        <time>2018-05-21T06:42:49Z</time>
      </trkpt>
      <trkpt lat="42.784083969891071" lon="-7.526276987046003">
        <ele>661</ele>
        <time>2018-05-21T06:42:51Z</time>
      </trkpt>
      <trkpt lat="42.784083969891071" lon="-7.52622501924634">
        <ele>660</ele>
        <time>2018-05-21T06:42:52Z</time>
      </trkpt>
      <trkpt lat="42.784075001254678" lon="-7.526171961799264">
        <ele>660</ele>
        <time>2018-05-21T06:42:53Z</time>
      </trkpt>
      <trkpt lat="42.784069972112775" lon="-7.526117982342839">
        <ele>660</ele>
        <time>2018-05-21T06:42:54Z</time>
      </trkpt>
      <trkpt lat="42.784066032618284" lon="-7.526046987622976">
        <ele>660</ele>
        <time>2018-05-21T06:42:56Z</time>
      </trkpt>
      <trkpt lat="42.784055974334478" lon="-7.525998959317803">
        <ele>660</ele>
        <time>2018-05-21T06:42:57Z</time>
      </trkpt>
      <trkpt lat="42.784052034839988" lon="-7.52594699151814">
        <ele>660</ele>
        <time>2018-05-21T06:42:58Z</time>
      </trkpt>
      <trkpt lat="42.784047005698085" lon="-7.525896029546857">
        <ele>660</ele>
        <time>2018-05-21T06:42:59Z</time>
      </trkpt>
      <trkpt lat="42.784041976556182" lon="-7.525843977928162">
        <ele>660</ele>
        <time>2018-05-21T06:43:00Z</time>
      </trkpt>
      <trkpt lat="42.784041976556182" lon="-7.525785975158215">
        <ele>660</ele>
        <time>2018-05-21T06:43:01Z</time>
      </trkpt>
      <trkpt lat="42.784041976556182" lon="-7.525723027065396">
        <ele>660</ele>
        <time>2018-05-21T06:43:03Z</time>
      </trkpt>
      <trkpt lat="42.784041976556182" lon="-7.525664018467069">
        <ele>660</ele>
        <time>2018-05-21T06:43:04Z</time>
      </trkpt>
      <trkpt lat="42.784052034839988" lon="-7.525618001818657">
        <ele>660</ele>
        <time>2018-05-21T06:43:05Z</time>
      </trkpt>
      <trkpt lat="42.784063015133142" lon="-7.525562010705471">
        <ele>660</ele>
        <time>2018-05-21T06:43:06Z</time>
      </trkpt>
      <trkpt lat="42.784085981547832" lon="-7.525513982400298">
        <ele>660</ele>
        <time>2018-05-21T06:43:08Z</time>
      </trkpt>
      <trkpt lat="42.78412202373147" lon="-7.525456985458732">
        <ele>660</ele>
        <time>2018-05-21T06:43:09Z</time>
      </trkpt>
      <trkpt lat="42.784211961552501" lon="-7.525285994634032">
        <ele>658</ele>
        <time>2018-05-21T06:43:14Z</time>
      </trkpt>
      <trkpt lat="42.784275999292731" lon="-7.525122966617346">
        <ele>658</ele>
        <time>2018-05-21T06:43:18Z</time>
      </trkpt>
      <trkpt lat="42.78433701954782" lon="-7.524905959144235">
        <ele>658</ele>
        <time>2018-05-21T06:43:23Z</time>
      </trkpt>
      <trkpt lat="42.784342970699072" lon="-7.524891039356589">
        <ele>658</ele>
        <time>2018-05-21T06:43:23Z</time>
      </trkpt>
      <trkpt lat="42.784396028146148" lon="-7.524646036326885">
        <ele>658</ele>
        <time>2018-05-21T06:43:29Z</time>
      </trkpt>
      <trkpt lat="42.7844019792974" lon="-7.524637989699841">
        <ele>658</ele>
        <time>2018-05-21T06:43:29Z</time>
      </trkpt>
      <trkpt lat="42.784501975402236" lon="-7.524407990276814">
        <ele>657</ele>
        <time>2018-05-21T06:43:35Z</time>
      </trkpt>
      <trkpt lat="42.784541035071015" lon="-7.524168016389012">
        <ele>657</ele>
        <time>2018-05-21T06:43:40Z</time>
      </trkpt>
      <trkpt lat="42.784623010084033" lon="-7.523985961452127">
        <ele>657</ele>
        <time>2018-05-21T06:43:45Z</time>
      </trkpt>
      <trkpt lat="42.784667015075684" lon="-7.523841038346291">
        <ele>665</ele>
        <time>2018-05-21T06:43:48Z</time>
      </trkpt>
      <trkpt lat="42.784672966226935" lon="-7.523841038346291">
        <ele>665</ele>
        <time>2018-05-21T06:43:48Z</time>
      </trkpt>
      <trkpt lat="42.784696016460657" lon="-7.523744981735945">
        <ele>665</ele>
        <time>2018-05-21T06:43:50Z</time>
      </trkpt>
      <trkpt lat="42.784714959561825" lon="-7.523710029199719">
        <ele>665</ele>
        <time>2018-05-21T06:43:51Z</time>
      </trkpt>
      <trkpt lat="42.784733986482024" lon="-7.523664012551308">
        <ele>665</ele>
        <time>2018-05-21T06:43:53Z</time>
      </trkpt>
      <trkpt lat="42.784747984260321" lon="-7.523617995902896">
        <ele>661</ele>
        <time>2018-05-21T06:43:54Z</time>
      </trkpt>
      <trkpt lat="42.784775979816914" lon="-7.523578014224768">
        <ele>661</ele>
        <time>2018-05-21T06:43:55Z</time>
      </trkpt>
      <trkpt lat="42.784802969545126" lon="-7.523531997576356">
        <ele>661</ele>
        <time>2018-05-21T06:43:56Z</time>
      </trkpt>
      <trkpt lat="42.784830965101719" lon="-7.523492015898228">
        <ele>661</ele>
        <time>2018-05-21T06:43:57Z</time>
      </trkpt>
      <trkpt lat="42.784869018942118" lon="-7.523439964279532">
        <ele>661</ele>
        <time>2018-05-21T06:43:59Z</time>
      </trkpt>
      <trkpt lat="42.784888967871666" lon="-7.523394031450152">
        <ele>661</ele>
        <time>2018-05-21T06:44:00Z</time>
      </trkpt>
      <trkpt lat="42.784912018105388" lon="-7.523342985659838">
        <ele>661</ele>
        <time>2018-05-21T06:44:01Z</time>
      </trkpt>
      <trkpt lat="42.784944958984852" lon="-7.523284982889891">
        <ele>661</ele>
        <time>2018-05-21T06:44:03Z</time>
      </trkpt>
      <trkpt lat="42.784977983683348" lon="-7.523238966241479">
        <ele>661</ele>
        <time>2018-05-21T06:44:04Z</time>
      </trkpt>
      <trkpt lat="42.785010002553463" lon="-7.523193033412099">
        <ele>661</ele>
        <time>2018-05-21T06:44:06Z</time>
      </trkpt>
      <trkpt lat="42.785033974796534" lon="-7.523152967914939">
        <ele>661</ele>
        <time>2018-05-21T06:44:07Z</time>
      </trkpt>
      <trkpt lat="42.785057025030255" lon="-7.523090019822121">
        <ele>661</ele>
        <time>2018-05-21T06:44:08Z</time>
      </trkpt>
      <trkpt lat="42.785071022808552" lon="-7.523044003173709">
        <ele>661</ele>
        <time>2018-05-21T06:44:09Z</time>
      </trkpt>
      <trkpt lat="42.785089965909719" lon="-7.52300200983882">
        <ele>661</ele>
        <time>2018-05-21T06:44:11Z</time>
      </trkpt>
      <trkpt lat="42.785103963688016" lon="-7.522949958220124">
        <ele>661</ele>
        <time>2018-05-21T06:44:12Z</time>
      </trkpt>
      <trkpt lat="42.785127013921738" lon="-7.522887010127306">
        <ele>661</ele>
        <time>2018-05-21T06:44:13Z</time>
      </trkpt>
      <trkpt lat="42.785141011700034" lon="-7.522834958508611">
        <ele>661</ele>
        <time>2018-05-21T06:44:14Z</time>
      </trkpt>
      <trkpt lat="42.785149980336428" lon="-7.522783996537328">
        <ele>654</ele>
        <time>2018-05-21T06:44:16Z</time>
      </trkpt>
      <trkpt lat="42.785169007256627" lon="-7.522732028737664">
        <ele>654</ele>
        <time>2018-05-21T06:44:17Z</time>
      </trkpt>
      <trkpt lat="42.785177975893021" lon="-7.522674025967717">
        <ele>654</ele>
        <time>2018-05-21T06:44:18Z</time>
      </trkpt>
      <trkpt lat="42.785188034176826" lon="-7.522629015147686">
        <ele>654</ele>
        <time>2018-05-21T06:44:19Z</time>
      </trkpt>
      <trkpt lat="42.785202031955123" lon="-7.522562965750694">
        <ele>654</ele>
        <time>2018-05-21T06:44:21Z</time>
      </trkpt>
      <trkpt lat="42.785211000591516" lon="-7.522517032921314">
        <ele>654</ele>
        <time>2018-05-21T06:44:22Z</time>
      </trkpt>
      <trkpt lat="42.785230027511716" lon="-7.522471016272903">
        <ele>654</ele>
        <time>2018-05-21T06:44:23Z</time>
      </trkpt>
      <trkpt lat="42.785243019461632" lon="-7.522414019331336">
        <ele>654</ele>
        <time>2018-05-21T06:44:24Z</time>
      </trkpt>
      <trkpt lat="42.785259028896689" lon="-7.522360039874911">
        <ele>654</ele>
        <time>2018-05-21T06:44:25Z</time>
      </trkpt>
      <trkpt lat="42.785263974219561" lon="-7.522308994084597">
        <ele>654</ele>
        <time>2018-05-21T06:44:27Z</time>
      </trkpt>
      <trkpt lat="42.785273026674986" lon="-7.522257026284933">
        <ele>654</ele>
        <time>2018-05-21T06:44:28Z</time>
      </trkpt>
      <trkpt lat="42.785273026674986" lon="-7.522199023514986">
        <ele>654</ele>
        <time>2018-05-21T06:44:29Z</time>
      </trkpt>
      <trkpt lat="42.785273026674986" lon="-7.522130962461233">
        <ele>654</ele>
        <time>2018-05-21T06:44:30Z</time>
      </trkpt>
      <trkpt lat="42.785273026674986" lon="-7.52207899466157">
        <ele>654</ele>
        <time>2018-05-21T06:44:32Z</time>
      </trkpt>
      <trkpt lat="42.785259028896689" lon="-7.522032978013158">
        <ele>654</ele>
        <time>2018-05-21T06:44:33Z</time>
      </trkpt>
      <trkpt lat="42.785243019461632" lon="-7.52199299633503">
        <ele>654</ele>
        <time>2018-05-21T06:44:34Z</time>
      </trkpt>
      <trkpt lat="42.785203037783504" lon="-7.521939016878605">
        <ele>651</ele>
        <time>2018-05-21T06:44:35Z</time>
      </trkpt>
      <trkpt lat="42.785166995599866" lon="-7.52190800383687">
        <ele>651</ele>
        <time>2018-05-21T06:44:37Z</time>
      </trkpt>
      <trkpt lat="42.785144029185176" lon="-7.521857041865587">
        <ele>651</ele>
        <time>2018-05-21T06:44:38Z</time>
      </trkpt>
      <trkpt lat="42.785118967294693" lon="-7.521817982196808">
        <ele>651</ele>
        <time>2018-05-21T06:44:39Z</time>
      </trkpt>
      <trkpt lat="42.78508803807199" lon="-7.521768026053906">
        <ele>651</ele>
        <time>2018-05-21T06:44:40Z</time>
      </trkpt>
      <trkpt lat="42.785072028636932" lon="-7.521717986091971">
        <ele>651</ele>
        <time>2018-05-21T06:44:42Z</time>
      </trkpt>
      <trkpt lat="42.785039003938437" lon="-7.521684039384127">
        <ele>651</ele>
        <time>2018-05-21T06:44:43Z</time>
      </trkpt>
      <trkpt lat="42.784992987290025" lon="-7.521631987765431">
        <ele>651</ele>
        <time>2018-05-21T06:44:45Z</time>
      </trkpt>
      <trkpt lat="42.784950993955135" lon="-7.52156300470233">
        <ele>651</ele>
        <time>2018-05-21T06:44:47Z</time>
      </trkpt>
      <trkpt lat="42.784913023933768" lon="-7.521511958912015">
        <ele>651</ele>
        <time>2018-05-21T06:44:48Z</time>
      </trkpt>
      <trkpt lat="42.784867007285357" lon="-7.521470971405506">
        <ele>651</ele>
        <time>2018-05-21T06:44:50Z</time>
      </trkpt>
      <trkpt lat="42.784833982586861" lon="-7.521459991112351">
        <ele>651</ele>
        <time>2018-05-21T06:44:51Z</time>
      </trkpt>
      <trkpt lat="42.784687969833612" lon="-7.521351026371121">
        <ele>645</ele>
        <time>2018-05-21T06:44:56Z</time>
      </trkpt>
      <trkpt lat="42.784570036455989" lon="-7.521298974752426">
        <ele>642</ele>
        <time>2018-05-21T06:44:59Z</time>
      </trkpt>
      <trkpt lat="42.784424023702741" lon="-7.521258993074298">
        <ele>642</ele>
        <time>2018-05-21T06:45:04Z</time>
      </trkpt>
      <trkpt lat="42.784424023702741" lon="-7.521251030266285">
        <ele>642</ele>
        <time>2018-05-21T06:45:04Z</time>
      </trkpt>
      <trkpt lat="42.784271975979209" lon="-7.521168971434236">
        <ele>642</ele>
        <time>2018-05-21T06:45:09Z</time>
      </trkpt>
      <trkpt lat="42.784158987924457" lon="-7.521077021956444">
        <ele>650</ele>
        <time>2018-05-21T06:45:13Z</time>
      </trkpt>
      <trkpt lat="42.784055974334478" lon="-7.521057995036244">
        <ele>650</ele>
        <time>2018-05-21T06:45:16Z</time>
      </trkpt>
      <trkpt lat="42.784047005698085" lon="-7.521057995036244">
        <ele>650</ele>
        <time>2018-05-21T06:45:16Z</time>
      </trkpt>
      <trkpt lat="42.783958995714784" lon="-7.521085990592837">
        <ele>650</ele>
        <time>2018-05-21T06:45:19Z</time>
      </trkpt>
      <trkpt lat="42.783854976296425" lon="-7.521137958392501">
        <ele>650</ele>
        <time>2018-05-21T06:45:22Z</time>
      </trkpt>
      <trkpt lat="42.783731007948518" lon="-7.521194033324719">
        <ele>645</ele>
        <time>2018-05-21T06:45:26Z</time>
      </trkpt>
      <trkpt lat="42.783610979095101" lon="-7.521313978359103">
        <ele>645</ele>
        <time>2018-05-21T06:45:30Z</time>
      </trkpt>
      <trkpt lat="42.78360603377223" lon="-7.521319007501006">
        <ele>645</ele>
        <time>2018-05-21T06:45:30Z</time>
      </trkpt>
      <trkpt lat="42.783573009073734" lon="-7.521339040249586">
        <ele>645</ele>
        <time>2018-05-21T06:45:32Z</time>
      </trkpt>
      <trkpt lat="42.783538978546858" lon="-7.521345997229219">
        <ele>645</ele>
        <time>2018-05-21T06:45:33Z</time>
      </trkpt>
      <trkpt lat="42.783496985211968" lon="-7.521345997229219">
        <ele>645</ele>
        <time>2018-05-21T06:45:34Z</time>
      </trkpt>
      <trkpt lat="42.783458009362221" lon="-7.521340968087316">
        <ele>645</ele>
        <time>2018-05-21T06:45:35Z</time>
      </trkpt>
      <trkpt lat="42.783420039340854" lon="-7.52132898196578">
        <ele>645</ele>
        <time>2018-05-21T06:45:36Z</time>
      </trkpt>
      <trkpt lat="42.783377962186933" lon="-7.521323030814529">
        <ele>645</ele>
        <time>2018-05-21T06:45:37Z</time>
      </trkpt>
      <trkpt lat="42.783340997993946" lon="-7.521295035257936">
        <ele>645</ele>
        <time>2018-05-21T06:45:39Z</time>
      </trkpt>
      <trkpt lat="42.78330503962934" lon="-7.521269973367453">
        <ele>645</ele>
        <time>2018-05-21T06:45:40Z</time>
      </trkpt>
      <trkpt lat="42.783267991617322" lon="-7.521252036094666">
        <ele>645</ele>
        <time>2018-05-21T06:45:41Z</time>
      </trkpt>
      <trkpt lat="42.783232033252716" lon="-7.521238960325718">
        <ele>645</ele>
        <time>2018-05-21T06:45:42Z</time>
      </trkpt>
      <trkpt lat="42.783185010775924" lon="-7.521238960325718">
        <ele>645</ele>
        <time>2018-05-21T06:45:43Z</time>
      </trkpt>
      <trkpt lat="42.783142011612654" lon="-7.521238960325718">
        <ele>645</ele>
        <time>2018-05-21T06:45:45Z</time>
      </trkpt>
      <trkpt lat="42.783103035762906" lon="-7.521238960325718">
        <ele>645</ele>
        <time>2018-05-21T06:45:46Z</time>
      </trkpt>
      <trkpt lat="42.783064981922507" lon="-7.521226974204183">
        <ele>645</ele>
        <time>2018-05-21T06:45:47Z</time>
      </trkpt>
      <trkpt lat="42.783014019951224" lon="-7.521222028881311">
        <ele>645</ele>
        <time>2018-05-21T06:45:49Z</time>
      </trkpt>
      <trkpt lat="42.782976971939206" lon="-7.521204007789493">
        <ele>645</ele>
        <time>2018-05-21T06:45:50Z</time>
      </trkpt>
      <trkpt lat="42.782930033281446" lon="-7.521157991141081">
        <ele>658</ele>
        <time>2018-05-21T06:45:51Z</time>
      </trkpt>
      <trkpt lat="42.782891979441047" lon="-7.521132007241249">
        <ele>658</ele>
        <time>2018-05-21T06:45:53Z</time>
      </trkpt>
      <trkpt lat="42.782858032733202" lon="-7.52111398614943">
        <ele>658</ele>
        <time>2018-05-21T06:45:54Z</time>
      </trkpt>
      <trkpt lat="42.782821990549564" lon="-7.521093031391501">
        <ele>658</ele>
        <time>2018-05-21T06:45:55Z</time>
      </trkpt>
      <trkpt lat="42.782785026356578" lon="-7.521081967279315">
        <ele>658</ele>
        <time>2018-05-21T06:45:56Z</time>
      </trkpt>
      <trkpt lat="42.78274797834456" lon="-7.52106998115778">
        <ele>658</ele>
        <time>2018-05-21T06:45:57Z</time>
      </trkpt>
      <trkpt lat="42.782701039686799" lon="-7.52106998115778">
        <ele>658</ele>
        <time>2018-05-21T06:45:59Z</time>
      </trkpt>
      <trkpt lat="42.782654017210007" lon="-7.52106998115778">
        <ele>658</ele>
        <time>2018-05-21T06:46:00Z</time>
      </trkpt>
      <trkpt lat="42.782612023875117" lon="-7.52106998115778">
        <ele>658</ele>
        <time>2018-05-21T06:46:01Z</time>
      </trkpt>
      <trkpt lat="42.782574975863099" lon="-7.521086996421218">
        <ele>658</ele>
        <time>2018-05-21T06:46:02Z</time>
      </trkpt>
      <trkpt lat="42.782536000013351" lon="-7.521103005856276">
        <ele>658</ele>
        <time>2018-05-21T06:46:04Z</time>
      </trkpt>
      <trkpt lat="42.782499035820365" lon="-7.52111398614943">
        <ele>658</ele>
        <time>2018-05-21T06:46:05Z</time>
      </trkpt>
      <trkpt lat="42.782463999465108" lon="-7.52113401889801">
        <ele>658</ele>
        <time>2018-05-21T06:46:06Z</time>
      </trkpt>
      <trkpt lat="42.782427035272121" lon="-7.521167965605855">
        <ele>644</ele>
        <time>2018-05-21T06:46:07Z</time>
      </trkpt>
      <trkpt lat="42.7823849581182" lon="-7.521174000576139">
        <ele>644</ele>
        <time>2018-05-21T06:46:08Z</time>
      </trkpt>
      <trkpt lat="42.782337013632059" lon="-7.521196966990829">
        <ele>644</ele>
        <time>2018-05-21T06:46:10Z</time>
      </trkpt>
      <trkpt lat="42.782289991155267" lon="-7.521208031103015">
        <ele>644</ele>
        <time>2018-05-21T06:46:11Z</time>
      </trkpt>
      <trkpt lat="42.78225302696228" lon="-7.52122001722455">
        <ele>644</ele>
        <time>2018-05-21T06:46:12Z</time>
      </trkpt>
      <trkpt lat="42.782215978950262" lon="-7.521213982254267">
        <ele>644</ele>
        <time>2018-05-21T06:46:13Z</time>
      </trkpt>
      <trkpt lat="42.782174991443753" lon="-7.521191015839577">
        <ele>644</ele>
        <time>2018-05-21T06:46:15Z</time>
      </trkpt>
      <trkpt lat="42.782141966745257" lon="-7.52115597948432">
        <ele>658</ele>
        <time>2018-05-21T06:46:16Z</time>
      </trkpt>
      <trkpt lat="42.78210399672389" lon="-7.521127983927727">
        <ele>655</ele>
        <time>2018-05-21T06:46:17Z</time>
      </trkpt>
      <trkpt lat="42.782068960368633" lon="-7.521109040826559">
        <ele>655</ele>
        <time>2018-05-21T06:46:18Z</time>
      </trkpt>
      <trkpt lat="42.78204096481204" lon="-7.521063024178147">
        <ele>655</ele>
        <time>2018-05-21T06:46:20Z</time>
      </trkpt>
      <trkpt lat="42.781998971477151" lon="-7.520976020023227">
        <ele>655</ele>
        <time>2018-05-21T06:46:22Z</time>
      </trkpt>
      <trkpt lat="42.781970975920558" lon="-7.520936038345099">
        <ele>655</ele>
        <time>2018-05-21T06:46:23Z</time>
      </trkpt>
      <trkpt lat="42.781924959272146" lon="-7.520866971462965">
        <ele>655</ele>
        <time>2018-05-21T06:46:25Z</time>
      </trkpt>
      <trkpt lat="42.781886989250779" lon="-7.520821038633585">
        <ele>655</ele>
        <time>2018-05-21T06:46:27Z</time>
      </trkpt>
      <trkpt lat="42.781854970380664" lon="-7.52079295925796">
        <ele>655</ele>
        <time>2018-05-21T06:46:28Z</time>
      </trkpt>
      <trkpt lat="42.781812977045774" lon="-7.520775021985173">
        <ele>655</ele>
        <time>2018-05-21T06:46:29Z</time>
      </trkpt>
      <trkpt lat="42.781778024509549" lon="-7.520764041692019">
        <ele>655</ele>
        <time>2018-05-21T06:46:30Z</time>
      </trkpt>
      <trkpt lat="42.78173603117466" lon="-7.52074702642858">
        <ele>655</ele>
        <time>2018-05-21T06:46:32Z</time>
      </trkpt>
      <trkpt lat="42.78169303201139" lon="-7.52074702642858">
        <ele>655</ele>
        <time>2018-05-21T06:46:33Z</time>
      </trkpt>
      <trkpt lat="42.78165397234261" lon="-7.520740991458297">
        <ele>655</ele>
        <time>2018-05-21T06:46:34Z</time>
      </trkpt>
      <trkpt lat="42.781612984836102" lon="-7.520740991458297">
        <ele>655</ele>
        <time>2018-05-21T06:46:35Z</time>
      </trkpt>
      <trkpt lat="42.781548025086522" lon="-7.520751971751452">
        <ele>655</ele>
        <time>2018-05-21T06:46:37Z</time>
      </trkpt>
      <trkpt lat="42.781489016488194" lon="-7.520738979801536">
        <ele>655</ele>
        <time>2018-05-21T06:46:39Z</time>
      </trkpt>
      <trkpt lat="42.781401006504893" lon="-7.520605036988854">
        <ele>655</ele>
        <time>2018-05-21T06:46:43Z</time>
      </trkpt>
      <trkpt lat="42.781281983479857" lon="-7.5202970020473">
        <ele>658</ele>
        <time>2018-05-21T06:46:50Z</time>
      </trkpt>
      <trkpt lat="42.781211994588375" lon="-7.520102960988879">
        <ele>658</ele>
        <time>2018-05-21T06:46:55Z</time>
      </trkpt>
      <trkpt lat="42.781192967668176" lon="-7.520074965432286">
        <ele>658</ele>
        <time>2018-05-21T06:46:56Z</time>
      </trkpt>
      <trkpt lat="42.781162960454822" lon="-7.51999600790441">
        <ele>658</ele>
        <time>2018-05-21T06:46:58Z</time>
      </trkpt>
      <trkpt lat="42.781139994040132" lon="-7.519938005134463">
        <ele>658</ele>
        <time>2018-05-21T06:46:59Z</time>
      </trkpt>
      <trkpt lat="42.781105963513255" lon="-7.519884025678039">
        <ele>658</ele>
        <time>2018-05-21T06:47:01Z</time>
      </trkpt>
      <trkpt lat="42.781077967956662" lon="-7.519849995151162">
        <ele>658</ele>
        <time>2018-05-21T06:47:02Z</time>
      </trkpt>
      <trkpt lat="42.781045027077198" lon="-7.519810013473034">
        <ele>658</ele>
        <time>2018-05-21T06:47:03Z</time>
      </trkpt>
      <trkpt lat="42.781021976843476" lon="-7.519774977117777">
        <ele>658</ele>
        <time>2018-05-21T06:47:04Z</time>
      </trkpt>
      <trkpt lat="42.780984006822109" lon="-7.519734995439649">
        <ele>658</ele>
        <time>2018-05-21T06:47:06Z</time>
      </trkpt>
      <trkpt lat="42.780932961031795" lon="-7.519688978791237">
        <ele>658</ele>
        <time>2018-05-21T06:47:07Z</time>
      </trkpt>
      <trkpt lat="42.780892979353666" lon="-7.519675986841321">
        <ele>658</ele>
        <time>2018-05-21T06:47:09Z</time>
      </trkpt>
      <trkpt lat="42.780843023210764" lon="-7.519632987678051">
        <ele>658</ele>
        <time>2018-05-21T06:47:10Z</time>
      </trkpt>
      <trkpt lat="42.780801029875875" lon="-7.519611027091742">
        <ele>658</ele>
        <time>2018-05-21T06:47:12Z</time>
      </trkpt>
      <trkpt lat="42.780768005177379" lon="-7.519575990736485">
        <ele>658</ele>
        <time>2018-05-21T06:47:13Z</time>
      </trkpt>
      <trkpt lat="42.780731040984392" lon="-7.519558975473046">
        <ele>658</ele>
        <time>2018-05-21T06:47:14Z</time>
      </trkpt>
      <trkpt lat="42.780688963830471" lon="-7.519558975473046">
        <ele>658</ele>
        <time>2018-05-21T06:47:15Z</time>
      </trkpt>
      <trkpt lat="42.780650993809104" lon="-7.519529974088073">
        <ele>658</ele>
        <time>2018-05-21T06:47:17Z</time>
      </trkpt>
      <trkpt lat="42.780607994645834" lon="-7.519489992409945">
        <ele>664</ele>
        <time>2018-05-21T06:47:18Z</time>
      </trkpt>
      <trkpt lat="42.78057798743248" lon="-7.519472977146506">
        <ele>664</ele>
        <time>2018-05-21T06:47:19Z</time>
      </trkpt>
      <trkpt lat="42.780544040724635" lon="-7.519455039873719">
        <ele>664</ele>
        <time>2018-05-21T06:47:20Z</time>
      </trkpt>
      <trkpt lat="42.780533982440829" lon="-7.519397959113121">
        <ele>664</ele>
        <time>2018-05-21T06:47:22Z</time>
      </trkpt>
      <trkpt lat="42.780519984662533" lon="-7.519345991313458">
        <ele>664</ele>
        <time>2018-05-21T06:47:23Z</time>
      </trkpt>
      <trkpt lat="42.780486037954688" lon="-7.519268961623311">
        <ele>664</ele>
        <time>2018-05-21T06:47:25Z</time>
      </trkpt>
      <trkpt lat="42.780443960800767" lon="-7.519193021580577">
        <ele>664</ele>
        <time>2018-05-21T06:47:27Z</time>
      </trkpt>
      <trkpt lat="42.780352011322975" lon="-7.518932009115815">
        <ele>664</ele>
        <time>2018-05-21T06:47:33Z</time>
      </trkpt>
      <trkpt lat="42.780314963310957" lon="-7.518687006086111">
        <ele>663</ele>
        <time>2018-05-21T06:47:38Z</time>
      </trkpt>
      <trkpt lat="42.780268024653196" lon="-7.518461029976606">
        <ele>663</ele>
        <time>2018-05-21T06:47:44Z</time>
      </trkpt>
      <trkpt lat="42.780194012448192" lon="-7.518200017511845">
        <ele>663</ele>
        <time>2018-05-21T06:47:50Z</time>
      </trkpt>
      <trkpt lat="42.780155036598444" lon="-7.517964988946915">
        <ele>663</ele>
        <time>2018-05-21T06:47:55Z</time>
      </trkpt>
      <trkpt lat="42.780093010514975" lon="-7.517793998122215">
        <ele>661</ele>
        <time>2018-05-21T06:47:59Z</time>
      </trkpt>
      <trkpt lat="42.780037019401789" lon="-7.517614038661122">
        <ele>661</ele>
        <time>2018-05-21T06:48:03Z</time>
      </trkpt>
      <trkpt lat="42.779945991933346" lon="-7.517367023974657">
        <ele>661</ele>
        <time>2018-05-21T06:48:09Z</time>
      </trkpt>
      <trkpt lat="42.779835015535355" lon="-7.517085978761315">
        <ele>661</ele>
        <time>2018-05-21T06:48:16Z</time>
      </trkpt>
      <trkpt lat="42.779749017208815" lon="-7.516897972673178">
        <ele>661</ele>
        <time>2018-05-21T06:48:21Z</time>
      </trkpt>
      <trkpt lat="42.779749017208815" lon="-7.516885986551642">
        <ele>661</ele>
        <time>2018-05-21T06:48:21Z</time>
      </trkpt>
      <trkpt lat="42.779725966975093" lon="-7.516828989610076">
        <ele>661</ele>
        <time>2018-05-21T06:48:23Z</time>
      </trkpt>
      <trkpt lat="42.7796979714185" lon="-7.516760006546974">
        <ele>661</ele>
        <time>2018-05-21T06:48:24Z</time>
      </trkpt>
      <trkpt lat="42.779687996953726" lon="-7.516708038747311">
        <ele>661</ele>
        <time>2018-05-21T06:48:25Z</time>
      </trkpt>
      <trkpt lat="42.779687996953726" lon="-7.516645006835461">
        <ele>661</ele>
        <time>2018-05-21T06:48:27Z</time>
      </trkpt>
      <trkpt lat="42.779683973640203" lon="-7.516593039035797">
        <ele>661</ele>
        <time>2018-05-21T06:48:28Z</time>
      </trkpt>
      <trkpt lat="42.779683973640203" lon="-7.516530007123947">
        <ele>661</ele>
        <time>2018-05-21T06:48:29Z</time>
      </trkpt>
      <trkpt lat="42.779683973640203" lon="-7.516466975212097">
        <ele>661</ele>
        <time>2018-05-21T06:48:31Z</time>
      </trkpt>
      <trkpt lat="42.779683973640203" lon="-7.516404027119279">
        <ele>661</ele>
        <time>2018-05-21T06:48:32Z</time>
      </trkpt>
      <trkpt lat="42.779683973640203" lon="-7.516351975500584">
        <ele>661</ele>
        <time>2018-05-21T06:48:33Z</time>
      </trkpt>
      <trkpt lat="42.779683973640203" lon="-7.516289027407765">
        <ele>661</ele>
        <time>2018-05-21T06:48:35Z</time>
      </trkpt>
      <trkpt lat="42.779679028317332" lon="-7.516225995495915">
        <ele>663</ele>
        <time>2018-05-21T06:48:36Z</time>
      </trkpt>
      <trkpt lat="42.779673999175429" lon="-7.516162963584065">
        <ele>663</ele>
        <time>2018-05-21T06:48:37Z</time>
      </trkpt>
      <trkpt lat="42.779665030539036" lon="-7.516104960814118">
        <ele>663</ele>
        <time>2018-05-21T06:48:39Z</time>
      </trkpt>
      <trkpt lat="42.779660001397133" lon="-7.516024997457862">
        <ele>663</ele>
        <time>2018-05-21T06:48:40Z</time>
      </trkpt>
      <trkpt lat="42.779660001397133" lon="-7.515961965546012">
        <ele>663</ele>
        <time>2018-05-21T06:48:42Z</time>
      </trkpt>
      <trkpt lat="42.779651032760739" lon="-7.515909997746348">
        <ele>663</ele>
        <time>2018-05-21T06:48:43Z</time>
      </trkpt>
      <trkpt lat="42.77963200584054" lon="-7.515858029946685">
        <ele>655</ele>
        <time>2018-05-21T06:48:44Z</time>
      </trkpt>
      <trkpt lat="42.77960903942585" lon="-7.51580698415637">
        <ele>655</ele>
        <time>2018-05-21T06:48:45Z</time>
      </trkpt>
      <trkpt lat="42.779591018334031" lon="-7.515759039670229">
        <ele>655</ele>
        <time>2018-05-21T06:48:47Z</time>
      </trkpt>
      <trkpt lat="42.779557993635535" lon="-7.515684021636844">
        <ele>655</ele>
        <time>2018-05-21T06:48:48Z</time>
      </trkpt>
      <trkpt lat="42.779524968937039" lon="-7.515631970018148">
        <ele>655</ele>
        <time>2018-05-21T06:48:50Z</time>
      </trkpt>
      <trkpt lat="42.779496973380446" lon="-7.515581008046866">
        <ele>655</ele>
        <time>2018-05-21T06:48:51Z</time>
      </trkpt>
      <trkpt lat="42.779471995308995" lon="-7.515540020540357">
        <ele>655</ele>
        <time>2018-05-21T06:48:52Z</time>
      </trkpt>
      <trkpt lat="42.779449028894305" lon="-7.51550599001348">
        <ele>655</ele>
        <time>2018-05-21T06:48:53Z</time>
      </trkpt>
      <trkpt lat="42.779416004195809" lon="-7.515454022213817">
        <ele>655</ele>
        <time>2018-05-21T06:48:55Z</time>
      </trkpt>
      <trkpt lat="42.779379040002823" lon="-7.515408005565405">
        <ele>654</ele>
        <time>2018-05-21T06:48:56Z</time>
      </trkpt>
      <trkpt lat="42.779336962848902" lon="-7.515373975038528">
        <ele>654</ele>
        <time>2018-05-21T06:48:58Z</time>
      </trkpt>
      <trkpt lat="42.779308967292309" lon="-7.515327958390117">
        <ele>654</ele>
        <time>2018-05-21T06:48:59Z</time>
      </trkpt>
      <trkpt lat="42.779272003099322" lon="-7.515282025560737">
        <ele>654</ele>
        <time>2018-05-21T06:49:01Z</time>
      </trkpt>
      <trkpt lat="42.779248030856252" lon="-7.515236008912325">
        <ele>654</ele>
        <time>2018-05-21T06:49:02Z</time>
      </trkpt>
      <trkpt lat="42.77922498062253" lon="-7.515172977000475">
        <ele>654</ele>
        <time>2018-05-21T06:49:03Z</time>
      </trkpt>
      <trkpt lat="42.77922498062253" lon="-7.515081027522683">
        <ele>654</ele>
        <time>2018-05-21T06:49:05Z</time>
      </trkpt>
      <trkpt lat="42.779220035299659" lon="-7.515023024752736">
        <ele>654</ele>
        <time>2018-05-21T06:49:07Z</time>
      </trkpt>
      <trkpt lat="42.779220035299659" lon="-7.514971978962421">
        <ele>654</ele>
        <time>2018-05-21T06:49:08Z</time>
      </trkpt>
      <trkpt lat="42.779216011986136" lon="-7.514920011162758">
        <ele>654</ele>
        <time>2018-05-21T06:49:09Z</time>
      </trkpt>
      <trkpt lat="42.779216011986136" lon="-7.514863014221191">
        <ele>654</ele>
        <time>2018-05-21T06:49:10Z</time>
      </trkpt>
      <trkpt lat="42.779206037521362" lon="-7.51481699757278">
        <ele>654</ele>
        <time>2018-05-21T06:49:11Z</time>
      </trkpt>
      <trkpt lat="42.779191033914685" lon="-7.514738040044904">
        <ele>654</ele>
        <time>2018-05-21T06:49:13Z</time>
      </trkpt>
      <trkpt lat="42.779099000617862" lon="-7.514608036726713">
        <ele>654</ele>
        <time>2018-05-21T06:49:17Z</time>
      </trkpt>
      <trkpt lat="42.779020965099335" lon="-7.514474010095">
        <ele>654</ele>
        <time>2018-05-21T06:49:21Z</time>
      </trkpt>
      <trkpt lat="42.778962040320039" lon="-7.514380970969796">
        <ele>651</ele>
        <time>2018-05-21T06:49:23Z</time>
      </trkpt>
      <trkpt lat="42.77896698564291" lon="-7.514247028157115">
        <ele>651</ele>
        <time>2018-05-21T06:49:26Z</time>
      </trkpt>
      <trkpt lat="42.778985006734729" lon="-7.513998001813889">
        <ele>651</ele>
        <time>2018-05-21T06:49:32Z</time>
      </trkpt>
      <trkpt lat="42.779000010341406" lon="-7.513832040131092">
        <ele>651</ele>
        <time>2018-05-21T06:49:35Z</time>
      </trkpt>
      <trkpt lat="42.779004033654928" lon="-7.51378602348268">
        <ele>651</ele>
        <time>2018-05-21T06:49:36Z</time>
      </trkpt>
      <trkpt lat="42.779018031433225" lon="-7.513734977692366">
        <ele>651</ele>
        <time>2018-05-21T06:49:37Z</time>
      </trkpt>
      <trkpt lat="42.779018031433225" lon="-7.513683009892702">
        <ele>651</ele>
        <time>2018-05-21T06:49:39Z</time>
      </trkpt>
      <trkpt lat="42.779008978977799" lon="-7.51363699324429">
        <ele>651</ele>
        <time>2018-05-21T06:49:40Z</time>
      </trkpt>
      <trkpt lat="42.779004033654928" lon="-7.513585025444627">
        <ele>647</ele>
        <time>2018-05-21T06:49:41Z</time>
      </trkpt>
      <trkpt lat="42.778980983421206" lon="-7.513531967997551">
        <ele>647</ele>
        <time>2018-05-21T06:49:42Z</time>
      </trkpt>
      <trkpt lat="42.778947958722711" lon="-7.513486035168171">
        <ele>647</ele>
        <time>2018-05-21T06:49:43Z</time>
      </trkpt>
      <trkpt lat="42.778905965387821" lon="-7.513423003256321">
        <ele>647</ele>
        <time>2018-05-21T06:49:45Z</time>
      </trkpt>
      <trkpt lat="42.778888028115034" lon="-7.513371035456657">
        <ele>647</ele>
        <time>2018-05-21T06:49:47Z</time>
      </trkpt>
      <trkpt lat="42.778860032558441" lon="-7.513289982452989">
        <ele>647</ele>
        <time>2018-05-21T06:49:49Z</time>
      </trkpt>
      <trkpt lat="42.778849974274635" lon="-7.513239020481706">
        <ele>647</ele>
        <time>2018-05-21T06:49:50Z</time>
      </trkpt>
      <trkpt lat="42.778835976496339" lon="-7.513181017711759">
        <ele>647</ele>
        <time>2018-05-21T06:49:51Z</time>
      </trkpt>
      <trkpt lat="42.778821978718042" lon="-7.513129971921444">
        <ele>647</ele>
        <time>2018-05-21T06:49:52Z</time>
      </trkpt>
      <trkpt lat="42.778804041445255" lon="-7.513067023828626">
        <ele>647</ele>
        <time>2018-05-21T06:49:54Z</time>
      </trkpt>
      <trkpt lat="42.778779985383153" lon="-7.513002986088395">
        <ele>647</ele>
        <time>2018-05-21T06:49:55Z</time>
      </trkpt>
      <trkpt lat="42.778761964291334" lon="-7.51292897388339">
        <ele>647</ele>
        <time>2018-05-21T06:49:57Z</time>
      </trkpt>
      <trkpt lat="42.778743021190166" lon="-7.512870971113443">
        <ele>641</ele>
        <time>2018-05-21T06:49:58Z</time>
      </trkpt>
      <trkpt lat="42.778733968734741" lon="-7.51282000914216">
        <ele>641</ele>
        <time>2018-05-21T06:49:59Z</time>
      </trkpt>
      <trkpt lat="42.778715025633574" lon="-7.512751026079059">
        <ele>638</ele>
        <time>2018-05-21T06:50:01Z</time>
      </trkpt>
      <trkpt lat="42.778709996491671" lon="-7.512686988338828">
        <ele>638</ele>
        <time>2018-05-21T06:50:02Z</time>
      </trkpt>
      <trkpt lat="42.778709996491671" lon="-7.512629991397262">
        <ele>638</ele>
        <time>2018-05-21T06:50:04Z</time>
      </trkpt>
      <trkpt lat="42.778709996491671" lon="-7.51256100833416">
        <ele>638</ele>
        <time>2018-05-21T06:50:05Z</time>
      </trkpt>
      <trkpt lat="42.778709996491671" lon="-7.512509040534496">
        <ele>638</ele>
        <time>2018-05-21T06:50:06Z</time>
      </trkpt>
      <trkpt lat="42.778715025633574" lon="-7.512451959773898">
        <ele>638</ele>
        <time>2018-05-21T06:50:08Z</time>
      </trkpt>
      <trkpt lat="42.778719970956445" lon="-7.512399991974235">
        <ele>638</ele>
        <time>2018-05-21T06:50:09Z</time>
      </trkpt>
      <trkpt lat="42.77872902341187" lon="-7.512349030002952">
        <ele>638</ele>
        <time>2018-05-21T06:50:10Z</time>
      </trkpt>
      <trkpt lat="42.778733968734741" lon="-7.512279963120818">
        <ele>638</ele>
        <time>2018-05-21T06:50:11Z</time>
      </trkpt>
      <trkpt lat="42.778737992048264" lon="-7.512227995321155">
        <ele>638</ele>
        <time>2018-05-21T06:50:12Z</time>
      </trkpt>
      <trkpt lat="42.778743021190166" lon="-7.512176027521491">
        <ele>638</ele>
        <time>2018-05-21T06:50:14Z</time>
      </trkpt>
      <trkpt lat="42.77875198982656" lon="-7.512119030579925">
        <ele>638</ele>
        <time>2018-05-21T06:50:15Z</time>
      </trkpt>
      <trkpt lat="42.778761964291334" lon="-7.512066978961229">
        <ele>642</ele>
        <time>2018-05-21T06:50:16Z</time>
      </trkpt>
      <trkpt lat="42.778765987604856" lon="-7.512016016989946">
        <ele>642</ele>
        <time>2018-05-21T06:50:17Z</time>
      </trkpt>
      <trkpt lat="42.778775962069631" lon="-7.511951979249716">
        <ele>639</ele>
        <time>2018-05-21T06:50:19Z</time>
      </trkpt>
      <trkpt lat="42.778775962069631" lon="-7.511901017278433">
        <ele>639</ele>
        <time>2018-05-21T06:50:20Z</time>
      </trkpt>
      <trkpt lat="42.778779985383153" lon="-7.511848965659738">
        <ele>639</ele>
        <time>2018-05-21T06:50:21Z</time>
      </trkpt>
      <trkpt lat="42.778779985383153" lon="-7.511796997860074">
        <ele>639</ele>
        <time>2018-05-21T06:50:22Z</time>
      </trkpt>
      <trkpt lat="42.778785014525056" lon="-7.511740000918508">
        <ele>639</ele>
        <time>2018-05-21T06:50:23Z</time>
      </trkpt>
      <trkpt lat="42.778785014525056" lon="-7.511676969006658">
        <ele>639</ele>
        <time>2018-05-21T06:50:25Z</time>
      </trkpt>
      <trkpt lat="42.778785014525056" lon="-7.511618966236711">
        <ele>639</ele>
        <time>2018-05-21T06:50:26Z</time>
      </trkpt>
      <trkpt lat="42.778779985383153" lon="-7.511549983173609">
        <ele>639</ele>
        <time>2018-05-21T06:50:27Z</time>
      </trkpt>
      <trkpt lat="42.778775962069631" lon="-7.511492986232042">
        <ele>639</ele>
        <time>2018-05-21T06:50:29Z</time>
      </trkpt>
      <trkpt lat="42.778769005089998" lon="-7.51144303008914">
        <ele>639</ele>
        <time>2018-05-21T06:50:30Z</time>
      </trkpt>
      <trkpt lat="42.778755007311702" lon="-7.511390978470445">
        <ele>634</ele>
        <time>2018-05-21T06:50:31Z</time>
      </trkpt>
      <trkpt lat="42.778744027018547" lon="-7.511326018720865">
        <ele>634</ele>
        <time>2018-05-21T06:50:32Z</time>
      </trkpt>
      <trkpt lat="42.778730029240251" lon="-7.511245971545577">
        <ele>634</ele>
        <time>2018-05-21T06:50:34Z</time>
      </trkpt>
      <trkpt lat="42.778720976784825" lon="-7.511191992089152">
        <ele>634</ele>
        <time>2018-05-21T06:50:35Z</time>
      </trkpt>
      <trkpt lat="42.778704967349768" lon="-7.511129966005683">
        <ele>631</ele>
        <time>2018-05-21T06:50:37Z</time>
      </trkpt>
      <trkpt lat="42.778675965964794" lon="-7.510961992666125">
        <ele>631</ele>
        <time>2018-05-21T06:50:40Z</time>
      </trkpt>
      <trkpt lat="42.778652999550104" lon="-7.510854033753276">
        <ele>631</ele>
        <time>2018-05-21T06:50:43Z</time>
      </trkpt>
      <trkpt lat="42.778591979295015" lon="-7.510565025731921">
        <ele>631</ele>
        <time>2018-05-21T06:50:49Z</time>
      </trkpt>
      <trkpt lat="42.778507992625237" lon="-7.510257996618748">
        <ele>626</ele>
        <time>2018-05-21T06:50:57Z</time>
      </trkpt>
      <trkpt lat="42.778418976813555" lon="-7.509981980547309">
        <ele>626</ele>
        <time>2018-05-21T06:51:03Z</time>
      </trkpt>
      <trkpt lat="42.778410008177161" lon="-7.509960019961">
        <ele>626</ele>
        <time>2018-05-21T06:51:04Z</time>
      </trkpt>
      <trkpt lat="42.778390981256962" lon="-7.509885001927614">
        <ele>613</ele>
        <time>2018-05-21T06:51:05Z</time>
      </trkpt>
      <trkpt lat="42.778382012620568" lon="-7.509805960580707">
        <ele>626</ele>
        <time>2018-05-21T06:51:07Z</time>
      </trkpt>
      <trkpt lat="42.778382012620568" lon="-7.509743012487888">
        <ele>626</ele>
        <time>2018-05-21T06:51:09Z</time>
      </trkpt>
      <trkpt lat="42.778390981256962" lon="-7.509690960869193">
        <ele>626</ele>
        <time>2018-05-21T06:51:10Z</time>
      </trkpt>
      <trkpt lat="42.778415037319064" lon="-7.50963999889791">
        <ele>626</ele>
        <time>2018-05-21T06:51:11Z</time>
      </trkpt>
      <trkpt lat="42.778432974591851" lon="-7.509593982249498">
        <ele>626</ele>
        <time>2018-05-21T06:51:12Z</time>
      </trkpt>
      <trkpt lat="42.778457030653954" lon="-7.509535979479551">
        <ele>626</ele>
        <time>2018-05-21T06:51:14Z</time>
      </trkpt>
      <trkpt lat="42.778474967926741" lon="-7.509485017508268">
        <ele>613</ele>
        <time>2018-05-21T06:51:15Z</time>
      </trkpt>
      <trkpt lat="42.778488965705037" lon="-7.509427014738321">
        <ele>613</ele>
        <time>2018-05-21T06:51:16Z</time>
      </trkpt>
      <trkpt lat="42.778507992625237" lon="-7.509374963119626">
        <ele>613</ele>
        <time>2018-05-21T06:51:17Z</time>
      </trkpt>
      <trkpt lat="42.778530959039927" lon="-7.509324001148343">
        <ele>613</ele>
        <time>2018-05-21T06:51:19Z</time>
      </trkpt>
      <trkpt lat="42.778559038415551" lon="-7.509277984499931">
        <ele>613</ele>
        <time>2018-05-21T06:51:20Z</time>
      </trkpt>
      <trkpt lat="42.778591979295015" lon="-7.509248983114958">
        <ele>613</ele>
        <time>2018-05-21T06:51:21Z</time>
      </trkpt>
      <trkpt lat="42.778615029528737" lon="-7.50920900143683">
        <ele>613</ele>
        <time>2018-05-21T06:51:22Z</time>
      </trkpt>
      <trkpt lat="42.778639001771808" lon="-7.509157033637166">
        <ele>613</ele>
        <time>2018-05-21T06:51:24Z</time>
      </trkpt>
      <trkpt lat="42.778666997328401" lon="-7.509104982018471">
        <ele>613</ele>
        <time>2018-05-21T06:51:25Z</time>
      </trkpt>
      <trkpt lat="42.778675965964794" lon="-7.50905997119844">
        <ele>613</ele>
        <time>2018-05-21T06:51:26Z</time>
      </trkpt>
      <trkpt lat="42.778689963743091" lon="-7.509012026712298">
        <ele>613</ele>
        <time>2018-05-21T06:51:27Z</time>
      </trkpt>
      <trkpt lat="42.778694992884994" lon="-7.508959975093603">
        <ele>613</ele>
        <time>2018-05-21T06:51:28Z</time>
      </trkpt>
      <trkpt lat="42.778699016198516" lon="-7.508897027000785">
        <ele>613</ele>
        <time>2018-05-21T06:51:30Z</time>
      </trkpt>
      <trkpt lat="42.778703961521387" lon="-7.50884497538209">
        <ele>613</ele>
        <time>2018-05-21T06:51:31Z</time>
      </trkpt>
      <trkpt lat="42.778727011755109" lon="-7.508804993703961">
        <ele>613</ele>
        <time>2018-05-21T06:51:32Z</time>
      </trkpt>
      <trkpt lat="42.778755007311702" lon="-7.50873601064086">
        <ele>613</ele>
        <time>2018-05-21T06:51:34Z</time>
      </trkpt>
      <trkpt lat="42.778774034231901" lon="-7.508689993992448">
        <ele>618</ele>
        <time>2018-05-21T06:51:35Z</time>
      </trkpt>
      <trkpt lat="42.778793983161449" lon="-7.508641965687275">
        <ele>618</ele>
        <time>2018-05-21T06:51:36Z</time>
      </trkpt>
      <trkpt lat="42.778803035616875" lon="-7.508596032857895">
        <ele>618</ele>
        <time>2018-05-21T06:51:37Z</time>
      </trkpt>
      <trkpt lat="42.778807980939746" lon="-7.508539035916328">
        <ele>618</ele>
        <time>2018-05-21T06:51:38Z</time>
      </trkpt>
      <trkpt lat="42.778807980939746" lon="-7.508484972640872">
        <ele>618</ele>
        <time>2018-05-21T06:51:39Z</time>
      </trkpt>
      <trkpt lat="42.778799012303352" lon="-7.508437028154731">
        <ele>618</ele>
        <time>2018-05-21T06:51:41Z</time>
      </trkpt>
      <trkpt lat="42.778779985383153" lon="-7.508391011506319">
        <ele>618</ele>
        <time>2018-05-21T06:51:42Z</time>
      </trkpt>
      <trkpt lat="42.77875198982656" lon="-7.508351029828191">
        <ele>614</ele>
        <time>2018-05-21T06:51:43Z</time>
      </trkpt>
      <trkpt lat="42.778721982613206" lon="-7.508309036493301">
        <ele>614</ele>
        <time>2018-05-21T06:51:44Z</time>
      </trkpt>
      <trkpt lat="42.778678983449936" lon="-7.50828598625958">
        <ele>614</ele>
        <time>2018-05-21T06:51:46Z</time>
      </trkpt>
      <trkpt lat="42.778636990115047" lon="-7.508256984874606">
        <ele>614</ele>
        <time>2018-05-21T06:51:47Z</time>
      </trkpt>
      <trkpt lat="42.778596002608538" lon="-7.50824298709631">
        <ele>614</ele>
        <time>2018-05-21T06:51:48Z</time>
      </trkpt>
      <trkpt lat="42.778559038415551" lon="-7.508209040388465">
        <ele>614</ele>
        <time>2018-05-21T06:51:50Z</time>
      </trkpt>
      <trkpt lat="42.778507992625237" lon="-7.508168974891305">
        <ele>614</ele>
        <time>2018-05-21T06:51:51Z</time>
      </trkpt>
      <trkpt lat="42.778474967926741" lon="-7.508146008476615">
        <ele>614</ele>
        <time>2018-05-21T06:51:52Z</time>
      </trkpt>
      <trkpt lat="42.778441021218896" lon="-7.508126981556416">
        <ele>614</ele>
        <time>2018-05-21T06:51:53Z</time>
      </trkpt>
      <trkpt lat="42.77838503010571" lon="-7.508075013756752">
        <ele>614</ele>
        <time>2018-05-21T06:51:55Z</time>
      </trkpt>
      <trkpt lat="42.778287967666984" lon="-7.507935035973787">
        <ele>614</ele>
        <time>2018-05-21T06:52:00Z</time>
      </trkpt>
      <trkpt lat="42.778173973783851" lon="-7.50770696438849">
        <ele>626</ele>
        <time>2018-05-21T06:52:06Z</time>
      </trkpt>
      <trkpt lat="42.777998959645629" lon="-7.50744603574276">
        <ele>626</ele>
        <time>2018-05-21T06:52:13Z</time>
      </trkpt>
      <trkpt lat="42.777868034318089" lon="-7.507206983864307">
        <ele>622</ele>
        <time>2018-05-21T06:52:20Z</time>
      </trkpt>
      <trkpt lat="42.777663012966514" lon="-7.506901966407895">
        <ele>630</ele>
        <time>2018-05-21T06:52:29Z</time>
      </trkpt>
      <trkpt lat="42.77746100910008" lon="-7.506611030548811">
        <ele>630</ele>
        <time>2018-05-21T06:52:37Z</time>
      </trkpt>
      <trkpt lat="42.777343997731805" lon="-7.506366027519107">
        <ele>630</ele>
        <time>2018-05-21T06:52:44Z</time>
      </trkpt>
      <trkpt lat="42.77726897969842" lon="-7.506105015054345">
        <ele>635</ele>
        <time>2018-05-21T06:52:50Z</time>
      </trkpt>
      <trkpt lat="42.777215000241995" lon="-7.505957996472716">
        <ele>635</ele>
        <time>2018-05-21T06:52:53Z</time>
      </trkpt>
      <trkpt lat="42.777215000241995" lon="-7.505935030058026">
        <ele>635</ele>
        <time>2018-05-21T06:52:54Z</time>
      </trkpt>
      <trkpt lat="42.777215000241995" lon="-7.505876021459699">
        <ele>635</ele>
        <time>2018-05-21T06:52:55Z</time>
      </trkpt>
      <trkpt lat="42.777215000241995" lon="-7.505817012861371">
        <ele>635</ele>
        <time>2018-05-21T06:52:57Z</time>
      </trkpt>
      <trkpt lat="42.777215000241995" lon="-7.505764961242676">
        <ele>635</ele>
        <time>2018-05-21T06:52:58Z</time>
      </trkpt>
      <trkpt lat="42.777223968878388" lon="-7.505706958472729">
        <ele>635</ele>
        <time>2018-05-21T06:52:59Z</time>
      </trkpt>
      <trkpt lat="42.777223968878388" lon="-7.505637975409627">
        <ele>635</ele>
        <time>2018-05-21T06:53:00Z</time>
      </trkpt>
      <trkpt lat="42.777223968878388" lon="-7.505587013438344">
        <ele>635</ele>
        <time>2018-05-21T06:53:02Z</time>
      </trkpt>
      <trkpt lat="42.777228998020291" lon="-7.505505960434675">
        <ele>635</ele>
        <time>2018-05-21T06:53:03Z</time>
      </trkpt>
      <trkpt lat="42.777228998020291" lon="-7.505448963493109">
        <ele>635</ele>
        <time>2018-05-21T06:53:05Z</time>
      </trkpt>
      <trkpt lat="42.777233021333814" lon="-7.505386015400291">
        <ele>639</ele>
        <time>2018-05-21T06:53:06Z</time>
      </trkpt>
      <trkpt lat="42.77724701911211" lon="-7.505333963781595">
        <ele>639</ele>
        <time>2018-05-21T06:53:07Z</time>
      </trkpt>
      <trkpt lat="42.777261016890407" lon="-7.505276966840029">
        <ele>639</ele>
        <time>2018-05-21T06:53:08Z</time>
      </trkpt>
      <trkpt lat="42.777270991355181" lon="-7.50523597933352">
        <ele>639</ele>
        <time>2018-05-21T06:53:09Z</time>
      </trkpt>
      <trkpt lat="42.777289012447" lon="-7.505168002098799">
        <ele>639</ele>
        <time>2018-05-21T06:53:11Z</time>
      </trkpt>
      <trkpt lat="42.777303010225296" lon="-7.505116034299135">
        <ele>639</ele>
        <time>2018-05-21T06:53:12Z</time>
      </trkpt>
      <trkpt lat="42.777331005781889" lon="-7.505068005993962">
        <ele>639</ele>
        <time>2018-05-21T06:53:13Z</time>
      </trkpt>
      <trkpt lat="42.77739797718823" lon="-7.504899026826024">
        <ele>639</ele>
        <time>2018-05-21T06:53:18Z</time>
      </trkpt>
      <trkpt lat="42.77748498134315" lon="-7.504723006859422">
        <ele>639</ele>
        <time>2018-05-21T06:53:22Z</time>
      </trkpt>
      <trkpt lat="42.777514988556504" lon="-7.504571964964271">
        <ele>639</ele>
        <time>2018-05-21T06:53:26Z</time>
      </trkpt>
      <trkpt lat="42.777551030740142" lon="-7.50437599606812">
        <ele>643</ele>
        <time>2018-05-21T06:53:30Z</time>
      </trkpt>
      <trkpt lat="42.777568968012929" lon="-7.504225037992001">
        <ele>643</ele>
        <time>2018-05-21T06:53:33Z</time>
      </trkpt>
      <trkpt lat="42.777568968012929" lon="-7.504206011071801">
        <ele>643</ele>
        <time>2018-05-21T06:53:34Z</time>
      </trkpt>
      <trkpt lat="42.777568968012929" lon="-7.504121018573642">
        <ele>643</ele>
        <time>2018-05-21T06:53:36Z</time>
      </trkpt>
      <trkpt lat="42.777565028518438" lon="-7.504062009975314">
        <ele>643</ele>
        <time>2018-05-21T06:53:37Z</time>
      </trkpt>
      <trkpt lat="42.777555976063013" lon="-7.504009958356619">
        <ele>643</ele>
        <time>2018-05-21T06:53:38Z</time>
      </trkpt>
      <trkpt lat="42.777551030740142" lon="-7.503952961415052">
        <ele>643</ele>
        <time>2018-05-21T06:53:39Z</time>
      </trkpt>
      <trkpt lat="42.777541978284717" lon="-7.503908034414053">
        <ele>643</ele>
        <time>2018-05-21T06:53:40Z</time>
      </trkpt>
      <trkpt lat="42.777532003819942" lon="-7.503856988623738">
        <ele>643</ele>
        <time>2018-05-21T06:53:41Z</time>
      </trkpt>
      <trkpt lat="42.777509037405252" lon="-7.503800997510552">
        <ele>643</ele>
        <time>2018-05-21T06:53:43Z</time>
      </trkpt>
      <trkpt lat="42.777495039626956" lon="-7.503744000568986">
        <ele>643</ele>
        <time>2018-05-21T06:53:44Z</time>
      </trkpt>
      <trkpt lat="42.777476012706757" lon="-7.503692032769322">
        <ele>643</ele>
        <time>2018-05-21T06:53:45Z</time>
      </trkpt>
      <trkpt lat="42.777457991614938" lon="-7.503646016120911">
        <ele>643</ele>
        <time>2018-05-21T06:53:47Z</time>
      </trkpt>
      <trkpt lat="42.777429996058345" lon="-7.503606034442782">
        <ele>645</ele>
        <time>2018-05-21T06:53:48Z</time>
      </trkpt>
      <trkpt lat="42.777410969138145" lon="-7.503560017794371">
        <ele>645</ele>
        <time>2018-05-21T06:53:49Z</time>
      </trkpt>
      <trkpt lat="42.777385991066694" lon="-7.503524981439114">
        <ele>645</ele>
        <time>2018-05-21T06:53:50Z</time>
      </trkpt>
      <trkpt lat="42.777341986075044" lon="-7.503335969522595">
        <ele>645</ele>
        <time>2018-05-21T06:53:54Z</time>
      </trkpt>
      <trkpt lat="42.777327988296747" lon="-7.503277966752648">
        <ele>645</ele>
        <time>2018-05-21T06:53:56Z</time>
      </trkpt>
      <trkpt lat="42.777319019660354" lon="-7.503227004781365">
        <ele>645</ele>
        <time>2018-05-21T06:53:57Z</time>
      </trkpt>
      <trkpt lat="42.777313990518451" lon="-7.503175036981702">
        <ele>645</ele>
        <time>2018-05-21T06:53:58Z</time>
      </trkpt>
      <trkpt lat="42.777313990518451" lon="-7.503122985363007">
        <ele>645</ele>
        <time>2018-05-21T06:53:59Z</time>
      </trkpt>
      <trkpt lat="42.777313990518451" lon="-7.50306598842144">
        <ele>645</ele>
        <time>2018-05-21T06:54:00Z</time>
      </trkpt>
      <trkpt lat="42.777313990518451" lon="-7.503014020621777">
        <ele>645</ele>
        <time>2018-05-21T06:54:01Z</time>
      </trkpt>
      <trkpt lat="42.777313990518451" lon="-7.502961969003081">
        <ele>645</ele>
        <time>2018-05-21T06:54:02Z</time>
      </trkpt>
      <trkpt lat="42.777319019660354" lon="-7.502904972061515">
        <ele>645</ele>
        <time>2018-05-21T06:54:04Z</time>
      </trkpt>
      <trkpt lat="42.777319019660354" lon="-7.502853004261851">
        <ele>645</ele>
        <time>2018-05-21T06:54:05Z</time>
      </trkpt>
      <trkpt lat="42.777319019660354" lon="-7.50278402119875">
        <ele>641</ele>
        <time>2018-05-21T06:54:06Z</time>
      </trkpt>
      <trkpt lat="42.777327988296747" lon="-7.502732975408435">
        <ele>641</ele>
        <time>2018-05-21T06:54:07Z</time>
      </trkpt>
      <trkpt lat="42.777351960539818" lon="-7.50269802287221">
        <ele>641</ele>
        <time>2018-05-21T06:54:09Z</time>
      </trkpt>
      <trkpt lat="42.777369981631637" lon="-7.502652006223798">
        <ele>641</ele>
        <time>2018-05-21T06:54:10Z</time>
      </trkpt>
      <trkpt lat="42.777389008551836" lon="-7.502600038424134">
        <ele>641</ele>
        <time>2018-05-21T06:54:11Z</time>
      </trkpt>
      <trkpt lat="42.777408035472035" lon="-7.502559972926974">
        <ele>641</ele>
        <time>2018-05-21T06:54:12Z</time>
      </trkpt>
      <trkpt lat="42.777411974966526" lon="-7.502502975985408">
        <ele>641</ele>
        <time>2018-05-21T06:54:13Z</time>
      </trkpt>
      <trkpt lat="42.777425972744823" lon="-7.502451008185744">
        <ele>641</ele>
        <time>2018-05-21T06:54:14Z</time>
      </trkpt>
      <trkpt lat="42.77744198217988" lon="-7.502416977658868">
        <ele>641</ele>
        <time>2018-05-21T06:54:15Z</time>
      </trkpt>
      <trkpt lat="42.777451034635305" lon="-7.502362998202443">
        <ele>641</ele>
        <time>2018-05-21T06:54:16Z</time>
      </trkpt>
      <trkpt lat="42.777451034635305" lon="-7.502304995432496">
        <ele>641</ele>
        <time>2018-05-21T06:54:18Z</time>
      </trkpt>
      <trkpt lat="42.777451034635305" lon="-7.502250010147691">
        <ele>641</ele>
        <time>2018-05-21T06:54:19Z</time>
      </trkpt>
      <trkpt lat="42.777451034635305" lon="-7.502197958528996">
        <ele>641</ele>
        <time>2018-05-21T06:54:20Z</time>
      </trkpt>
      <trkpt lat="42.777451034635305" lon="-7.502128975465894">
        <ele>641</ele>
        <time>2018-05-21T06:54:22Z</time>
      </trkpt>
      <trkpt lat="42.777451034635305" lon="-7.502071978524327">
        <ele>641</ele>
        <time>2018-05-21T06:54:23Z</time>
      </trkpt>
      <trkpt lat="42.77746100910008" lon="-7.502020010724664">
        <ele>641</ele>
        <time>2018-05-21T06:54:24Z</time>
      </trkpt>
      <trkpt lat="42.777485987171531" lon="-7.501978017389774">
        <ele>640</ele>
        <time>2018-05-21T06:54:25Z</time>
      </trkpt>
      <trkpt lat="42.777513982728124" lon="-7.501942981034517">
        <ele>640</ele>
        <time>2018-05-21T06:54:26Z</time>
      </trkpt>
      <trkpt lat="42.777537032961845" lon="-7.501885984092951">
        <ele>640</ele>
        <time>2018-05-21T06:54:28Z</time>
      </trkpt>
      <trkpt lat="42.777555976063013" lon="-7.501834016293287">
        <ele>640</ele>
        <time>2018-05-21T06:54:29Z</time>
      </trkpt>
      <trkpt lat="42.777568968012929" lon="-7.501777019351721">
        <ele>640</ele>
        <time>2018-05-21T06:54:30Z</time>
      </trkpt>
      <trkpt lat="42.777587994933128" lon="-7.501724967733026">
        <ele>640</ele>
        <time>2018-05-21T06:54:31Z</time>
      </trkpt>
      <trkpt lat="42.777610961347818" lon="-7.501684986054897">
        <ele>640</ele>
        <time>2018-05-21T06:54:33Z</time>
      </trkpt>
      <trkpt lat="42.777629988268018" lon="-7.501638969406486">
        <ele>640</ele>
        <time>2018-05-21T06:54:34Z</time>
      </trkpt>
      <trkpt lat="42.77765303850174" lon="-7.501593036577106">
        <ele>640</ele>
        <time>2018-05-21T06:54:35Z</time>
      </trkpt>
      <trkpt lat="42.77767701074481" lon="-7.501547019928694">
        <ele>640</ele>
        <time>2018-05-21T06:54:36Z</time>
      </trkpt>
      <trkpt lat="42.777681034058332" lon="-7.501494968309999">
        <ele>640</ele>
        <time>2018-05-21T06:54:37Z</time>
      </trkpt>
      <trkpt lat="42.7776999771595" lon="-7.501434031873941">
        <ele>640</ele>
        <time>2018-05-21T06:54:39Z</time>
      </trkpt>
      <trkpt lat="42.777723027393222" lon="-7.50138801522553">
        <ele>640</ele>
        <time>2018-05-21T06:54:40Z</time>
      </trkpt>
      <trkpt lat="42.777733001857996" lon="-7.501335963606834">
        <ele>640</ele>
        <time>2018-05-21T06:54:41Z</time>
      </trkpt>
      <trkpt lat="42.777751022949815" lon="-7.501290030777454">
        <ele>640</ele>
        <time>2018-05-21T06:54:42Z</time>
      </trkpt>
      <trkpt lat="42.777769966050982" lon="-7.501249965280294">
        <ele>640</ele>
        <time>2018-05-21T06:54:43Z</time>
      </trkpt>
      <trkpt lat="42.77778597548604" lon="-7.501202020794153">
        <ele>640</ele>
        <time>2018-05-21T06:54:44Z</time>
      </trkpt>
      <trkpt lat="42.777795027941465" lon="-7.501150975003839">
        <ele>634</ele>
        <time>2018-05-21T06:54:45Z</time>
      </trkpt>
      <trkpt lat="42.777813971042633" lon="-7.501099007204175">
        <ele>634</ele>
        <time>2018-05-21T06:54:47Z</time>
      </trkpt>
      <trkpt lat="42.777813971042633" lon="-7.501030024141073">
        <ele>634</ele>
        <time>2018-05-21T06:54:48Z</time>
      </trkpt>
      <trkpt lat="42.77782796882093" lon="-7.50095902942121">
        <ele>634</ele>
        <time>2018-05-21T06:54:50Z</time>
      </trkpt>
      <trkpt lat="42.77782796882093" lon="-7.500893985852599">
        <ele>634</ele>
        <time>2018-05-21T06:54:51Z</time>
      </trkpt>
      <trkpt lat="42.77782796882093" lon="-7.500842018052936">
        <ele>634</ele>
        <time>2018-05-21T06:54:52Z</time>
      </trkpt>
      <trkpt lat="42.777813971042633" lon="-7.500785021111369">
        <ele>634</ele>
        <time>2018-05-21T06:54:54Z</time>
      </trkpt>
      <trkpt lat="42.777813971042633" lon="-7.500732969492674">
        <ele>634</ele>
        <time>2018-05-21T06:54:55Z</time>
      </trkpt>
      <trkpt lat="42.777813971042633" lon="-7.500675972551107">
        <ele>634</ele>
        <time>2018-05-21T06:54:56Z</time>
      </trkpt>
      <trkpt lat="42.777817994356155" lon="-7.500624004751444">
        <ele>634</ele>
        <time>2018-05-21T06:54:57Z</time>
      </trkpt>
      <trkpt lat="42.777837021276355" lon="-7.500584023073316">
        <ele>634</ele>
        <time>2018-05-21T06:54:58Z</time>
      </trkpt>
      <trkpt lat="42.777851019054651" lon="-7.500526020303369">
        <ele>634</ele>
        <time>2018-05-21T06:55:00Z</time>
      </trkpt>
      <trkpt lat="42.777869962155819" lon="-7.500480003654957">
        <ele>634</ele>
        <time>2018-05-21T06:55:01Z</time>
      </trkpt>
      <trkpt lat="42.777887983247638" lon="-7.500438010320067">
        <ele>634</ele>
        <time>2018-05-21T06:55:02Z</time>
      </trkpt>
      <trkpt lat="42.777938023209572" lon="-7.500352011993527">
        <ele>643</ele>
        <time>2018-05-21T06:55:04Z</time>
      </trkpt>
      <trkpt lat="42.778056040406227" lon="-7.500184960663319">
        <ele>639</ele>
        <time>2018-05-21T06:55:09Z</time>
      </trkpt>
      <trkpt lat="42.778234994038939" lon="-7.500002989545465">
        <ele>639</ele>
        <time>2018-05-21T06:55:16Z</time>
      </trkpt>
      <trkpt lat="42.778373965993524" lon="-7.499848008155823">
        <ele>639</ele>
        <time>2018-05-21T06:55:21Z</time>
      </trkpt>
      <trkpt lat="42.778388969600201" lon="-7.499848008155823">
        <ele>639</ele>
        <time>2018-05-21T06:55:22Z</time>
      </trkpt>
      <trkpt lat="42.778540011495352" lon="-7.499667964875698">
        <ele>639</ele>
        <time>2018-05-21T06:55:27Z</time>
      </trkpt>
      <trkpt lat="42.778631960973144" lon="-7.499576015397906">
        <ele>639</ele>
        <time>2018-05-21T06:55:31Z</time>
      </trkpt>
      <trkpt lat="42.778647970408201" lon="-7.499567968770862">
        <ele>639</ele>
        <time>2018-05-21T06:55:31Z</time>
      </trkpt>
      <trkpt lat="42.778716031461954" lon="-7.499486999586225">
        <ele>635</ele>
        <time>2018-05-21T06:55:34Z</time>
      </trkpt>
      <trkpt lat="42.778783002868295" lon="-7.499469984322786">
        <ele>641</ele>
        <time>2018-05-21T06:55:36Z</time>
      </trkpt>
      <trkpt lat="42.778789037838578" lon="-7.499469984322786">
        <ele>641</ele>
        <time>2018-05-21T06:55:36Z</time>
      </trkpt>
      <trkpt lat="42.778925998136401" lon="-7.499364959076047">
        <ele>641</ele>
        <time>2018-05-21T06:55:41Z</time>
      </trkpt>
      <trkpt lat="42.779005039483309" lon="-7.499248031526804">
        <ele>641</ele>
        <time>2018-05-21T06:55:44Z</time>
      </trkpt>
      <trkpt lat="42.779047032818198" lon="-7.499148035421968">
        <ele>641</ele>
        <time>2018-05-21T06:55:47Z</time>
      </trkpt>
      <trkpt lat="42.779093971475959" lon="-7.498985007405281">
        <ele>641</ele>
        <time>2018-05-21T06:55:51Z</time>
      </trkpt>
      <trkpt lat="42.779135964810848" lon="-7.498779986053705">
        <ele>641</ele>
        <time>2018-05-21T06:55:55Z</time>
      </trkpt>
      <trkpt lat="42.779238978400826" lon="-7.498459964990616">
        <ele>639</ele>
        <time>2018-05-21T06:56:03Z</time>
      </trkpt>
      <trkpt lat="42.779284995049238" lon="-7.498276988044381">
        <ele>639</ele>
        <time>2018-05-21T06:56:07Z</time>
      </trkpt>
      <trkpt lat="42.779346015304327" lon="-7.497889995574951">
        <ele>639</ele>
        <time>2018-05-21T06:56:16Z</time>
      </trkpt>
      <trkpt lat="42.779369987547398" lon="-7.497644992545247">
        <ele>638</ele>
        <time>2018-05-21T06:56:21Z</time>
      </trkpt>
      <trkpt lat="42.779377028346062" lon="-7.497637029737234">
        <ele>638</ele>
        <time>2018-05-21T06:56:21Z</time>
      </trkpt>
      <trkpt lat="42.779392031952739" lon="-7.497412981465459">
        <ele>638</ele>
        <time>2018-05-21T06:56:26Z</time>
      </trkpt>
      <trkpt lat="42.779410975053906" lon="-7.49719999730587">
        <ele>638</ele>
        <time>2018-05-21T06:56:31Z</time>
      </trkpt>
      <trkpt lat="42.779422039166093" lon="-7.4970499612391">
        <ele>639</ele>
        <time>2018-05-21T06:56:34Z</time>
      </trkpt>
      <trkpt lat="42.779447017237544" lon="-7.49694099649787">
        <ele>639</ele>
        <time>2018-05-21T06:56:36Z</time>
      </trkpt>
      <trkpt lat="42.779461015015841" lon="-7.49691803008318">
        <ele>639</ele>
        <time>2018-05-21T06:56:37Z</time>
      </trkpt>
      <trkpt lat="42.779469983652234" lon="-7.496865978464484">
        <ele>639</ele>
        <time>2018-05-21T06:56:38Z</time>
      </trkpt>
      <trkpt lat="42.779469983652234" lon="-7.496814010664821">
        <ele>639</ele>
        <time>2018-05-21T06:56:39Z</time>
      </trkpt>
      <trkpt lat="42.779475012794137" lon="-7.49676899984479">
        <ele>639</ele>
        <time>2018-05-21T06:56:40Z</time>
      </trkpt>
      <trkpt lat="42.779483981430531" lon="-7.496717032045126">
        <ele>639</ele>
        <time>2018-05-21T06:56:41Z</time>
      </trkpt>
      <trkpt lat="42.779483981430531" lon="-7.496664980426431">
        <ele>639</ele>
        <time>2018-05-21T06:56:43Z</time>
      </trkpt>
      <trkpt lat="42.779497979208827" lon="-7.496602032333612">
        <ele>639</ele>
        <time>2018-05-21T06:56:44Z</time>
      </trkpt>
      <trkpt lat="42.779497979208827" lon="-7.496532965451479">
        <ele>639</ele>
        <time>2018-05-21T06:56:46Z</time>
      </trkpt>
      <trkpt lat="42.77950300835073" lon="-7.496480997651815">
        <ele>639</ele>
        <time>2018-05-21T06:56:47Z</time>
      </trkpt>
      <trkpt lat="42.779511976987123" lon="-7.496432969346643">
        <ele>639</ele>
        <time>2018-05-21T06:56:48Z</time>
      </trkpt>
      <trkpt lat="42.779517006129026" lon="-7.49638200737536">
        <ele>639</ele>
        <time>2018-05-21T06:56:49Z</time>
      </trkpt>
      <trkpt lat="42.779521029442549" lon="-7.496324004605413">
        <ele>639</ele>
        <time>2018-05-21T06:56:50Z</time>
      </trkpt>
      <trkpt lat="42.779531003907323" lon="-7.496272958815098">
        <ele>639</ele>
        <time>2018-05-21T06:56:51Z</time>
      </trkpt>
      <trkpt lat="42.779539972543716" lon="-7.496227025985718">
        <ele>637</ele>
        <time>2018-05-21T06:56:52Z</time>
      </trkpt>
      <trkpt lat="42.779567968100309" lon="-7.496181009337306">
        <ele>637</ele>
        <time>2018-05-21T06:56:54Z</time>
      </trkpt>
      <trkpt lat="42.779600992798805" lon="-7.496134992688894">
        <ele>637</ele>
        <time>2018-05-21T06:56:55Z</time>
      </trkpt>
      <trkpt lat="42.779633011668921" lon="-7.496095011010766">
        <ele>637</ele>
        <time>2018-05-21T06:56:56Z</time>
      </trkpt>
      <trkpt lat="42.779663018882275" lon="-7.496056035161018">
        <ele>637</ele>
        <time>2018-05-21T06:56:58Z</time>
      </trkpt>
      <trkpt lat="42.779687996953726" lon="-7.496015969663858">
        <ele>637</ele>
        <time>2018-05-21T06:56:59Z</time>
      </trkpt>
      <trkpt lat="42.779715992510319" lon="-7.495993003249168">
        <ele>637</ele>
        <time>2018-05-21T06:57:00Z</time>
      </trkpt>
      <trkpt lat="42.77974097058177" lon="-7.495957966893911">
        <ele>637</ele>
        <time>2018-05-21T06:57:01Z</time>
      </trkpt>
      <trkpt lat="42.779778018593788" lon="-7.495929971337318">
        <ele>637</ele>
        <time>2018-05-21T06:57:02Z</time>
      </trkpt>
      <trkpt lat="42.779814982786775" lon="-7.495907004922628">
        <ele>637</ele>
        <time>2018-05-21T06:57:03Z</time>
      </trkpt>
      <trkpt lat="42.779856976121664" lon="-7.495895018801093">
        <ele>637</ele>
        <time>2018-05-21T06:57:04Z</time>
      </trkpt>
      <trkpt lat="42.779898969456553" lon="-7.495878003537655">
        <ele>637</ele>
        <time>2018-05-21T06:57:06Z</time>
      </trkpt>
      <trkpt lat="42.779945991933346" lon="-7.495878003537655">
        <ele>637</ele>
        <time>2018-05-21T06:57:07Z</time>
      </trkpt>
      <trkpt lat="42.779984967783093" lon="-7.495878003537655">
        <ele>637</ele>
        <time>2018-05-21T06:57:08Z</time>
      </trkpt>
      <trkpt lat="42.780026039108634" lon="-7.495878003537655">
        <ele>637</ele>
        <time>2018-05-21T06:57:09Z</time>
      </trkpt>
      <trkpt lat="42.780065014958382" lon="-7.495884038507938">
        <ele>637</ele>
        <time>2018-05-21T06:57:11Z</time>
      </trkpt>
      <trkpt lat="42.780111031606793" lon="-7.495884038507938">
        <ele>637</ele>
        <time>2018-05-21T06:57:12Z</time>
      </trkpt>
      <trkpt lat="42.780155036598444" lon="-7.495900969952345">
        <ele>637</ele>
        <time>2018-05-21T06:57:13Z</time>
      </trkpt>
      <trkpt lat="42.78019099496305" lon="-7.495917985215783">
        <ele>637</ele>
        <time>2018-05-21T06:57:14Z</time>
      </trkpt>
      <trkpt lat="42.780224019661546" lon="-7.495929971337318">
        <ele>637</ele>
        <time>2018-05-21T06:57:15Z</time>
      </trkpt>
      <trkpt lat="42.780264001339674" lon="-7.495936006307602">
        <ele>637</ele>
        <time>2018-05-21T06:57:17Z</time>
      </trkpt>
      <trkpt lat="42.78029702603817" lon="-7.495946986600757">
        <ele>636</ele>
        <time>2018-05-21T06:57:18Z</time>
      </trkpt>
      <trkpt lat="42.78034396469593" lon="-7.495946986600757">
        <ele>637</ele>
        <time>2018-05-21T06:57:19Z</time>
      </trkpt>
      <trkpt lat="42.780386041849852" lon="-7.49595302157104">
        <ele>637</ele>
        <time>2018-05-21T06:57:20Z</time>
      </trkpt>
      <trkpt lat="42.78042602352798" lon="-7.495966013520956">
        <ele>637</ele>
        <time>2018-05-21T06:57:21Z</time>
      </trkpt>
      <trkpt lat="42.780464999377728" lon="-7.495966013520956">
        <ele>637</ele>
        <time>2018-05-21T06:57:23Z</time>
      </trkpt>
      <trkpt lat="42.780509004369378" lon="-7.495966013520956">
        <ele>636</ele>
        <time>2018-05-21T06:57:24Z</time>
      </trkpt>
      <trkpt lat="42.780547980219126" lon="-7.495966013520956">
        <ele>636</ele>
        <time>2018-05-21T06:57:25Z</time>
      </trkpt>
      <trkpt lat="42.780624004080892" lon="-7.495939023792744">
        <ele>636</ele>
        <time>2018-05-21T06:57:27Z</time>
      </trkpt>
      <trkpt lat="42.780721988528967" lon="-7.495913961902261">
        <ele>636</ele>
        <time>2018-05-21T06:57:30Z</time>
      </trkpt>
      <trkpt lat="42.780881999060512" lon="-7.495778007432818">
        <ele>636</ele>
        <time>2018-05-21T06:57:36Z</time>
      </trkpt>
      <trkpt lat="42.780990041792393" lon="-7.495679017156363">
        <ele>636</ele>
        <time>2018-05-21T06:57:40Z</time>
      </trkpt>
      <trkpt lat="42.781015019863844" lon="-7.495563011616468">
        <ele>636</ele>
        <time>2018-05-21T06:57:42Z</time>
      </trkpt>
      <trkpt lat="42.780902031809092" lon="-7.495406018570066">
        <ele>633</ele>
        <time>2018-05-21T06:57:47Z</time>
      </trkpt>
      <trkpt lat="42.780751995742321" lon="-7.495185993611813">
        <ele>633</ele>
        <time>2018-05-21T06:57:54Z</time>
      </trkpt>
      <trkpt lat="42.780732968822122" lon="-7.495163027197123">
        <ele>633</ele>
        <time>2018-05-21T06:57:55Z</time>
      </trkpt>
      <trkpt lat="42.780704973265529" lon="-7.495122961699963">
        <ele>633</ele>
        <time>2018-05-21T06:57:56Z</time>
      </trkpt>
      <trkpt lat="42.780682006850839" lon="-7.495081974193454">
        <ele>633</ele>
        <time>2018-05-21T06:57:57Z</time>
      </trkpt>
      <trkpt lat="42.780651999637485" lon="-7.495015002787113">
        <ele>633</ele>
        <time>2018-05-21T06:57:59Z</time>
      </trkpt>
      <trkpt lat="42.780629033222795" lon="-7.494940990582109">
        <ele>633</ele>
        <time>2018-05-21T06:58:00Z</time>
      </trkpt>
      <trkpt lat="42.780596008524299" lon="-7.494889022782445">
        <ele>633</ele>
        <time>2018-05-21T06:58:02Z</time>
      </trkpt>
      <trkpt lat="42.780576981604099" lon="-7.494843006134033">
        <ele>633</ele>
        <time>2018-05-21T06:58:03Z</time>
      </trkpt>
      <trkpt lat="42.780548986047506" lon="-7.49479497782886">
        <ele>633</ele>
        <time>2018-05-21T06:58:04Z</time>
      </trkpt>
      <trkpt lat="42.780526019632816" lon="-7.494748961180449">
        <ele>633</ele>
        <time>2018-05-21T06:58:05Z</time>
      </trkpt>
      <trkpt lat="42.780502969399095" lon="-7.494696993380785">
        <ele>633</ele>
        <time>2018-05-21T06:58:07Z</time>
      </trkpt>
      <trkpt lat="42.780474973842502" lon="-7.494668997824192">
        <ele>633</ele>
        <time>2018-05-21T06:58:08Z</time>
      </trkpt>
      <trkpt lat="42.780442032963037" lon="-7.494628010317683">
        <ele>628</ele>
        <time>2018-05-21T06:58:09Z</time>
      </trkpt>
      <trkpt lat="42.780404984951019" lon="-7.494604960083962">
        <ele>628</ele>
        <time>2018-05-21T06:58:10Z</time>
      </trkpt>
      <trkpt lat="42.780380006879568" lon="-7.494581993669272">
        <ele>628</ele>
        <time>2018-05-21T06:58:11Z</time>
      </trkpt>
      <trkpt lat="42.780349999666214" lon="-7.494564978405833">
        <ele>628</ele>
        <time>2018-05-21T06:58:12Z</time>
      </trkpt>
      <trkpt lat="42.780327033251524" lon="-7.494542011991143">
        <ele>628</ele>
        <time>2018-05-21T06:58:13Z</time>
      </trkpt>
      <trkpt lat="42.780293002724648" lon="-7.494524996727705">
        <ele>628</ele>
        <time>2018-05-21T06:58:14Z</time>
      </trkpt>
      <trkpt lat="42.78025796636939" lon="-7.494490966200829">
        <ele>628</ele>
        <time>2018-05-21T06:58:15Z</time>
      </trkpt>
      <trkpt lat="42.780215973034501" lon="-7.494441010057926">
        <ele>628</ele>
        <time>2018-05-21T06:58:17Z</time>
      </trkpt>
      <trkpt lat="42.780193006619811" lon="-7.494398010894656">
        <ele>628</ele>
        <time>2018-05-21T06:58:18Z</time>
      </trkpt>
      <trkpt lat="42.780193006619811" lon="-7.49434101395309">
        <ele>628</ele>
        <time>2018-05-21T06:58:19Z</time>
      </trkpt>
      <trkpt lat="42.780193006619811" lon="-7.494272030889988">
        <ele>628</ele>
        <time>2018-05-21T06:58:21Z</time>
      </trkpt>
      <trkpt lat="42.780193006619811" lon="-7.494208998978138">
        <ele>628</ele>
        <time>2018-05-21T06:58:22Z</time>
      </trkpt>
      <trkpt lat="42.780201975256205" lon="-7.494150996208191">
        <ele>628</ele>
        <time>2018-05-21T06:58:24Z</time>
      </trkpt>
      <trkpt lat="42.780207004398108" lon="-7.494093999266625">
        <ele>628</ele>
        <time>2018-05-21T06:58:25Z</time>
      </trkpt>
      <trkpt lat="42.780221002176404" lon="-7.494047982618213">
        <ele>628</ele>
        <time>2018-05-21T06:58:26Z</time>
      </trkpt>
      <trkpt lat="42.780239023268223" lon="-7.494001965969801">
        <ele>628</ele>
        <time>2018-05-21T06:58:27Z</time>
      </trkpt>
      <trkpt lat="42.780262995511293" lon="-7.493956033140421">
        <ele>628</ele>
        <time>2018-05-21T06:58:28Z</time>
      </trkpt>
      <trkpt lat="42.780285961925983" lon="-7.493915967643261">
        <ele>628</ele>
        <time>2018-05-21T06:58:29Z</time>
      </trkpt>
      <trkpt lat="42.780303983017802" lon="-7.493875985965133">
        <ele>628</ele>
        <time>2018-05-21T06:58:30Z</time>
      </trkpt>
      <trkpt lat="42.780328039079905" lon="-7.493824018165469">
        <ele>628</ele>
        <time>2018-05-21T06:58:32Z</time>
      </trkpt>
      <trkpt lat="42.780345976352692" lon="-7.493778001517057">
        <ele>628</ele>
        <time>2018-05-21T06:58:33Z</time>
      </trkpt>
      <trkpt lat="42.780359974130988" lon="-7.493724022060633">
        <ele>628</ele>
        <time>2018-05-21T06:58:34Z</time>
      </trkpt>
      <trkpt lat="42.780389981344342" lon="-7.493694014847279">
        <ele>628</ele>
        <time>2018-05-21T06:58:35Z</time>
      </trkpt>
      <trkpt lat="42.780423006042838" lon="-7.493665013462305">
        <ele>628</ele>
        <time>2018-05-21T06:58:36Z</time>
      </trkpt>
      <trkpt lat="42.780451001599431" lon="-7.493636012077332">
        <ele>628</ele>
        <time>2018-05-21T06:58:37Z</time>
      </trkpt>
      <trkpt lat="42.780473968014121" lon="-7.493596030399203">
        <ele>636</ele>
        <time>2018-05-21T06:58:39Z</time>
      </trkpt>
      <trkpt lat="42.780501963570714" lon="-7.49356702901423">
        <ele>636</ele>
        <time>2018-05-21T06:58:40Z</time>
      </trkpt>
      <trkpt lat="42.780520990490913" lon="-7.49352696351707">
        <ele>636</ele>
        <time>2018-05-21T06:58:41Z</time>
      </trkpt>
      <trkpt lat="42.780545968562365" lon="-7.49348497018218">
        <ele>636</ele>
        <time>2018-05-21T06:58:42Z</time>
      </trkpt>
      <trkpt lat="42.780557032674551" lon="-7.493428979068995">
        <ele>636</ele>
        <time>2018-05-21T06:58:43Z</time>
      </trkpt>
      <trkpt lat="42.780560972169042" lon="-7.493359996005893">
        <ele>636</ele>
        <time>2018-05-21T06:58:45Z</time>
      </trkpt>
      <trkpt lat="42.780571030452847" lon="-7.493308028206229">
        <ele>636</ele>
        <time>2018-05-21T06:58:46Z</time>
      </trkpt>
      <trkpt lat="42.780582010746002" lon="-7.493249019607902">
        <ele>636</ele>
        <time>2018-05-21T06:58:47Z</time>
      </trkpt>
      <trkpt lat="42.78060195967555" lon="-7.493085991591215">
        <ele>636</ele>
        <time>2018-05-21T06:58:51Z</time>
      </trkpt>
      <trkpt lat="42.780647976323962" lon="-7.49286001548171">
        <ele>636</ele>
        <time>2018-05-21T06:58:56Z</time>
      </trkpt>
      <trkpt lat="42.780672032386065" lon="-7.492646025493741">
        <ele>637</ele>
        <time>2018-05-21T06:59:00Z</time>
      </trkpt>
      <trkpt lat="42.780764987692237" lon="-7.492277976125479">
        <ele>637</ele>
        <time>2018-05-21T06:59:09Z</time>
      </trkpt>
      <trkpt lat="42.78083698824048" lon="-7.491981005296111">
        <ele>634</ele>
        <time>2018-05-21T06:59:16Z</time>
      </trkpt>
      <trkpt lat="42.780907982960343" lon="-7.491675987839699">
        <ele>634</ele>
        <time>2018-05-21T06:59:23Z</time>
      </trkpt>
      <trkpt lat="42.78096598573029" lon="-7.491470966488123">
        <ele>634</ele>
        <time>2018-05-21T06:59:27Z</time>
      </trkpt>
      <trkpt lat="42.78096598573029" lon="-7.491465015336871">
        <ele>634</ele>
        <time>2018-05-21T06:59:27Z</time>
      </trkpt>
      <trkpt lat="42.78100797906518" lon="-7.491288995370269">
        <ele>634</ele>
        <time>2018-05-21T06:59:31Z</time>
      </trkpt>
      <trkpt lat="42.781021976843476" lon="-7.491094032302499">
        <ele>633</ele>
        <time>2018-05-21T06:59:36Z</time>
      </trkpt>
      <trkpt lat="42.781021976843476" lon="-7.491087997332215">
        <ele>633</ele>
        <time>2018-05-21T06:59:36Z</time>
      </trkpt>
      <trkpt lat="42.781031029298902" lon="-7.490849029272795">
        <ele>633</ele>
        <time>2018-05-21T06:59:41Z</time>
      </trkpt>
      <trkpt lat="42.781049972400069" lon="-7.4906450137496">
        <ele>633</ele>
        <time>2018-05-21T06:59:45Z</time>
      </trkpt>
      <trkpt lat="42.781049972400069" lon="-7.490462958812714">
        <ele>633</ele>
        <time>2018-05-21T06:59:49Z</time>
      </trkpt>
      <trkpt lat="42.781049972400069" lon="-7.490197001025081">
        <ele>631</ele>
        <time>2018-05-21T06:59:55Z</time>
      </trkpt>
      <trkpt lat="42.781049972400069" lon="-7.490189038217068">
        <ele>631</ele>
        <time>2018-05-21T06:59:55Z</time>
      </trkpt>
      <trkpt lat="42.781049972400069" lon="-7.490031961351633">
        <ele>631</ele>
        <time>2018-05-21T06:59:59Z</time>
      </trkpt>
      <trkpt lat="42.781049972400069" lon="-7.489902041852474">
        <ele>631</ele>
        <time>2018-05-21T07:00:02Z</time>
      </trkpt>
      <trkpt lat="42.781049972400069" lon="-7.489761980250478">
        <ele>631</ele>
        <time>2018-05-21T07:00:05Z</time>
      </trkpt>
      <trkpt lat="42.781067993491888" lon="-7.489668019115925">
        <ele>631</ele>
        <time>2018-05-21T07:00:07Z</time>
      </trkpt>
      <trkpt lat="42.781077967956662" lon="-7.489496022462845">
        <ele>631</ele>
        <time>2018-05-21T07:00:10Z</time>
      </trkpt>
      <trkpt lat="42.781077967956662" lon="-7.4894879758358">
        <ele>631</ele>
        <time>2018-05-21T07:00:11Z</time>
      </trkpt>
      <trkpt lat="42.781077967956662" lon="-7.489347998052836">
        <ele>631</ele>
        <time>2018-05-21T07:00:14Z</time>
      </trkpt>
      <trkpt lat="42.781081991270185" lon="-7.489220006391406">
        <ele>631</ele>
        <time>2018-05-21T07:00:16Z</time>
      </trkpt>
      <trkpt lat="42.781106969341636" lon="-7.489096960052848">
        <ele>631</ele>
        <time>2018-05-21T07:00:19Z</time>
      </trkpt>
      <trkpt lat="42.781106969341636" lon="-7.48888498172164">
        <ele>631</ele>
        <time>2018-05-21T07:00:24Z</time>
      </trkpt>
      <trkpt lat="42.781106969341636" lon="-7.488866038620472">
        <ele>631</ele>
        <time>2018-05-21T07:00:24Z</time>
      </trkpt>
      <trkpt lat="42.781118033453822" lon="-7.488656993955374">
        <ele>628</ele>
        <time>2018-05-21T07:00:29Z</time>
      </trkpt>
      <trkpt lat="42.781118033453822" lon="-7.488444009795785">
        <ele>628</ele>
        <time>2018-05-21T07:00:33Z</time>
      </trkpt>
      <trkpt lat="42.781118033453822" lon="-7.488436968997121">
        <ele>628</ele>
        <time>2018-05-21T07:00:33Z</time>
      </trkpt>
      <trkpt lat="42.781108980998397" lon="-7.488247035071254">
        <ele>628</ele>
        <time>2018-05-21T07:00:38Z</time>
      </trkpt>
      <trkpt lat="42.781098000705242" lon="-7.488072020933032">
        <ele>628</ele>
        <time>2018-05-21T07:00:41Z</time>
      </trkpt>
      <trkpt lat="42.781087020412087" lon="-7.487878985702992">
        <ele>628</ele>
        <time>2018-05-21T07:00:46Z</time>
      </trkpt>
      <trkpt lat="42.781056007370353" lon="-7.487705983221531">
        <ele>628</ele>
        <time>2018-05-21T07:00:49Z</time>
      </trkpt>
      <trkpt lat="42.781032035127282" lon="-7.487560976296663">
        <ele>628</ele>
        <time>2018-05-21T07:00:53Z</time>
      </trkpt>
      <trkpt lat="42.781022982671857" lon="-7.487529963254929">
        <ele>628</ele>
        <time>2018-05-21T07:00:53Z</time>
      </trkpt>
      <trkpt lat="42.781004039570689" lon="-7.487365007400513">
        <ele>628</ele>
        <time>2018-05-21T07:00:57Z</time>
      </trkpt>
      <trkpt lat="42.781018037348986" lon="-7.487206002697349">
        <ele>628</ele>
        <time>2018-05-21T07:01:01Z</time>
      </trkpt>
      <trkpt lat="42.781018037348986" lon="-7.487046997994185">
        <ele>629</ele>
        <time>2018-05-21T07:01:04Z</time>
      </trkpt>
      <trkpt lat="42.781018037348986" lon="-7.486941972747445">
        <ele>629</ele>
        <time>2018-05-21T07:01:06Z</time>
      </trkpt>
      <trkpt lat="42.78100898489356" lon="-7.486797971650958">
        <ele>629</ele>
        <time>2018-05-21T07:01:09Z</time>
      </trkpt>
      <trkpt lat="42.78100898489356" lon="-7.486790008842945">
        <ele>629</ele>
        <time>2018-05-21T07:01:10Z</time>
      </trkpt>
      <trkpt lat="42.781003033742309" lon="-7.486596973612905">
        <ele>629</ele>
        <time>2018-05-21T07:01:14Z</time>
      </trkpt>
      <trkpt lat="42.780992975458503" lon="-7.486275024712086">
        <ele>629</ele>
        <time>2018-05-21T07:01:21Z</time>
      </trkpt>
      <trkpt lat="42.780998004600406" lon="-7.48604703694582">
        <ele>629</ele>
        <time>2018-05-21T07:01:26Z</time>
      </trkpt>
      <trkpt lat="42.781012002378702" lon="-7.48587797395885">
        <ele>629</ele>
        <time>2018-05-21T07:01:29Z</time>
      </trkpt>
      <trkpt lat="42.781036980450153" lon="-7.485727015882731">
        <ele>629</ele>
        <time>2018-05-21T07:01:33Z</time>
      </trkpt>
      <trkpt lat="42.781036980450153" lon="-7.485720980912447">
        <ele>629</ele>
        <time>2018-05-21T07:01:33Z</time>
      </trkpt>
      <trkpt lat="42.781042009592056" lon="-7.485669013112783">
        <ele>629</ele>
        <time>2018-05-21T07:01:34Z</time>
      </trkpt>
      <trkpt lat="42.78105097822845" lon="-7.485622996464372">
        <ele>629</ele>
        <time>2018-05-21T07:01:35Z</time>
      </trkpt>
      <trkpt lat="42.781064976006746" lon="-7.48557697981596">
        <ele>629</ele>
        <time>2018-05-21T07:01:36Z</time>
      </trkpt>
      <trkpt lat="42.781070005148649" lon="-7.485515959560871">
        <ele>629</ele>
        <time>2018-05-21T07:01:37Z</time>
      </trkpt>
      <trkpt lat="42.781084002926946" lon="-7.485453011468053">
        <ele>629</ele>
        <time>2018-05-21T07:01:39Z</time>
      </trkpt>
      <trkpt lat="42.781088026240468" lon="-7.485400959849358">
        <ele>628</ele>
        <time>2018-05-21T07:01:40Z</time>
      </trkpt>
      <trkpt lat="42.781088026240468" lon="-7.485348992049694">
        <ele>628</ele>
        <time>2018-05-21T07:01:41Z</time>
      </trkpt>
      <trkpt lat="42.781098000705242" lon="-7.485291995108128">
        <ele>628</ele>
        <time>2018-05-21T07:01:42Z</time>
      </trkpt>
      <trkpt lat="42.781102024018764" lon="-7.485234998166561">
        <ele>628</ele>
        <time>2018-05-21T07:01:44Z</time>
      </trkpt>
      <trkpt lat="42.781111998483539" lon="-7.485183030366898">
        <ele>628</ele>
        <time>2018-05-21T07:01:45Z</time>
      </trkpt>
      <trkpt lat="42.781130019575357" lon="-7.485113963484764">
        <ele>628</ele>
        <time>2018-05-21T07:01:46Z</time>
      </trkpt>
      <trkpt lat="42.781134964898229" lon="-7.485056966543198">
        <ele>628</ele>
        <time>2018-05-21T07:01:48Z</time>
      </trkpt>
      <trkpt lat="42.781144017353654" lon="-7.484993012621999">
        <ele>628</ele>
        <time>2018-05-21T07:01:49Z</time>
      </trkpt>
      <trkpt lat="42.781144017353654" lon="-7.484941966831684">
        <ele>628</ele>
        <time>2018-05-21T07:01:50Z</time>
      </trkpt>
      <trkpt lat="42.781148962676525" lon="-7.484860997647047">
        <ele>628</ele>
        <time>2018-05-21T07:01:52Z</time>
      </trkpt>
      <trkpt lat="42.78115801513195" lon="-7.484814980998635">
        <ele>628</ele>
        <time>2018-05-21T07:01:53Z</time>
      </trkpt>
      <trkpt lat="42.78115801513195" lon="-7.484752032905817">
        <ele>628</ele>
        <time>2018-05-21T07:01:54Z</time>
      </trkpt>
      <trkpt lat="42.78115801513195" lon="-7.484700987115502">
        <ele>628</ele>
        <time>2018-05-21T07:01:55Z</time>
      </trkpt>
      <trkpt lat="42.78115801513195" lon="-7.484642984345555">
        <ele>628</ele>
        <time>2018-05-21T07:01:57Z</time>
      </trkpt>
      <trkpt lat="42.78115801513195" lon="-7.484580036252737">
        <ele>628</ele>
        <time>2018-05-21T07:01:58Z</time>
      </trkpt>
      <trkpt lat="42.781162960454822" lon="-7.48452203348279">
        <ele>628</ele>
        <time>2018-05-21T07:01:59Z</time>
      </trkpt>
      <trkpt lat="42.781162960454822" lon="-7.484470987692475">
        <ele>628</ele>
        <time>2018-05-21T07:02:00Z</time>
      </trkpt>
      <trkpt lat="42.781162960454822" lon="-7.484419019892812">
        <ele>629</ele>
        <time>2018-05-21T07:02:01Z</time>
      </trkpt>
      <trkpt lat="42.781162960454822" lon="-7.484366968274117">
        <ele>629</ele>
        <time>2018-05-21T07:02:03Z</time>
      </trkpt>
      <trkpt lat="42.781172012910247" lon="-7.484297985211015">
        <ele>629</ele>
        <time>2018-05-21T07:02:04Z</time>
      </trkpt>
      <trkpt lat="42.781172012910247" lon="-7.484245011582971">
        <ele>629</ele>
        <time>2018-05-21T07:02:05Z</time>
      </trkpt>
      <trkpt lat="42.781167989596725" lon="-7.484192959964275">
        <ele>629</ele>
        <time>2018-05-21T07:02:06Z</time>
      </trkpt>
      <trkpt lat="42.781153991818428" lon="-7.484123976901174">
        <ele>629</ele>
        <time>2018-05-21T07:02:08Z</time>
      </trkpt>
      <trkpt lat="42.781139994040132" lon="-7.484073014929891">
        <ele>629</ele>
        <time>2018-05-21T07:02:09Z</time>
      </trkpt>
      <trkpt lat="42.781106969341636" lon="-7.483997996896505">
        <ele>629</ele>
        <time>2018-05-21T07:02:11Z</time>
      </trkpt>
      <trkpt lat="42.781087020412087" lon="-7.483933959156275">
        <ele>629</ele>
        <time>2018-05-21T07:02:13Z</time>
      </trkpt>
      <trkpt lat="42.781062964349985" lon="-7.483882997184992">
        <ele>629</ele>
        <time>2018-05-21T07:02:14Z</time>
      </trkpt>
      <trkpt lat="42.781034968793392" lon="-7.483843015506864">
        <ele>629</ele>
        <time>2018-05-21T07:02:15Z</time>
      </trkpt>
      <trkpt lat="42.781017031520605" lon="-7.483795993030071">
        <ele>629</ele>
        <time>2018-05-21T07:02:16Z</time>
      </trkpt>
      <trkpt lat="42.780992975458503" lon="-7.483756011351943">
        <ele>629</ele>
        <time>2018-05-21T07:02:17Z</time>
      </trkpt>
      <trkpt lat="42.780969003215432" lon="-7.483723992481828">
        <ele>629</ele>
        <time>2018-05-21T07:02:18Z</time>
      </trkpt>
      <trkpt lat="42.780941007658839" lon="-7.483677975833416">
        <ele>629</ele>
        <time>2018-05-21T07:02:20Z</time>
      </trkpt>
      <trkpt lat="42.780913012102246" lon="-7.483643023297191">
        <ele>629</ele>
        <time>2018-05-21T07:02:21Z</time>
      </trkpt>
      <trkpt lat="42.780893985182047" lon="-7.483608992770314">
        <ele>629</ele>
        <time>2018-05-21T07:02:22Z</time>
      </trkpt>
      <trkpt lat="42.780865989625454" lon="-7.483579991385341">
        <ele>629</ele>
        <time>2018-05-21T07:02:23Z</time>
      </trkpt>
      <trkpt lat="42.780832964926958" lon="-7.483533974736929">
        <ele>629</ele>
        <time>2018-05-21T07:02:24Z</time>
      </trkpt>
      <trkpt lat="42.780801029875875" lon="-7.483488041907549">
        <ele>629</ele>
        <time>2018-05-21T07:02:25Z</time>
      </trkpt>
      <trkpt lat="42.780762976035476" lon="-7.483457028865814">
        <ele>629</ele>
        <time>2018-05-21T07:02:27Z</time>
      </trkpt>
      <trkpt lat="42.780724000185728" lon="-7.483445964753628">
        <ele>629</ele>
        <time>2018-05-21T07:02:28Z</time>
      </trkpt>
      <trkpt lat="42.780696004629135" lon="-7.483412018045783">
        <ele>629</ele>
        <time>2018-05-21T07:02:29Z</time>
      </trkpt>
      <trkpt lat="42.7806649915874" lon="-7.483393996953964">
        <ele>629</ele>
        <time>2018-05-21T07:02:30Z</time>
      </trkpt>
      <trkpt lat="42.780631966888905" lon="-7.483354015275836">
        <ele>629</ele>
        <time>2018-05-21T07:02:31Z</time>
      </trkpt>
      <trkpt lat="42.780600031837821" lon="-7.483337000012398">
        <ele>629</ele>
        <time>2018-05-21T07:02:32Z</time>
      </trkpt>
      <trkpt lat="42.780567007139325" lon="-7.483307998627424">
        <ele>629</ele>
        <time>2018-05-21T07:02:34Z</time>
      </trkpt>
      <trkpt lat="42.780533982440829" lon="-7.483285032212734">
        <ele>629</ele>
        <time>2018-05-21T07:02:35Z</time>
      </trkpt>
      <trkpt lat="42.780494000762701" lon="-7.483273968100548">
        <ele>629</ele>
        <time>2018-05-21T07:02:36Z</time>
      </trkpt>
      <trkpt lat="42.78044999577105" lon="-7.483268016949296">
        <ele>628</ele>
        <time>2018-05-21T07:02:37Z</time>
      </trkpt>
      <trkpt lat="42.780408002436161" lon="-7.483256030827761">
        <ele>628</ele>
        <time>2018-05-21T07:02:38Z</time>
      </trkpt>
      <trkpt lat="42.780366009101272" lon="-7.483232980594039">
        <ele>628</ele>
        <time>2018-05-21T07:02:40Z</time>
      </trkpt>
      <trkpt lat="42.780327033251524" lon="-7.483232980594039">
        <ele>628</ele>
        <time>2018-05-21T07:02:41Z</time>
      </trkpt>
      <trkpt lat="42.780289985239506" lon="-7.483222000300884">
        <ele>628</ele>
        <time>2018-05-21T07:02:42Z</time>
      </trkpt>
      <trkpt lat="42.780253021046519" lon="-7.483210014179349">
        <ele>628</ele>
        <time>2018-05-21T07:02:43Z</time>
      </trkpt>
      <trkpt lat="42.780209016054869" lon="-7.483210014179349">
        <ele>628</ele>
        <time>2018-05-21T07:02:44Z</time>
      </trkpt>
      <trkpt lat="42.780087981373072" lon="-7.483157040551305">
        <ele>628</ele>
        <time>2018-05-21T07:02:48Z</time>
      </trkpt>
      <trkpt lat="42.779902992770076" lon="-7.483071964234114">
        <ele>628</ele>
        <time>2018-05-21T07:02:54Z</time>
      </trkpt>
      <trkpt lat="42.779662013053894" lon="-7.482962999492884">
        <ele>628</ele>
        <time>2018-05-21T07:03:01Z</time>
      </trkpt>
      <trkpt lat="42.779363030567765" lon="-7.482788991183043">
        <ele>620</ele>
        <time>2018-05-21T07:03:11Z</time>
      </trkpt>
      <trkpt lat="42.779131019487977" lon="-7.482651025056839">
        <ele>620</ele>
        <time>2018-05-21T07:03:19Z</time>
      </trkpt>
      <trkpt lat="42.778775040060282" lon="-7.482409961521626">
        <ele>620</ele>
        <time>2018-05-21T07:03:30Z</time>
      </trkpt>
      <trkpt lat="42.778519978746772" lon="-7.482236037030816">
        <ele>614</ele>
        <time>2018-05-21T07:03:39Z</time>
      </trkpt>
      <trkpt lat="42.778334990143776" lon="-7.482070997357369">
        <ele>614</ele>
        <time>2018-05-21T07:03:45Z</time>
      </trkpt>
      <trkpt lat="42.778329038992524" lon="-7.482070997357369">
        <ele>614</ele>
        <time>2018-05-21T07:03:45Z</time>
      </trkpt>
      <trkpt lat="42.778300959616899" lon="-7.482048030942679">
        <ele>614</ele>
        <time>2018-05-21T07:03:46Z</time>
      </trkpt>
      <trkpt lat="42.778276987373829" lon="-7.482024980708957">
        <ele>614</ele>
        <time>2018-05-21T07:03:47Z</time>
      </trkpt>
      <trkpt lat="42.778240023180842" lon="-7.482014000415802">
        <ele>614</ele>
        <time>2018-05-21T07:03:48Z</time>
      </trkpt>
      <trkpt lat="42.778202975168824" lon="-7.482002014294267">
        <ele>614</ele>
        <time>2018-05-21T07:03:50Z</time>
      </trkpt>
      <trkpt lat="42.77817003428936" lon="-7.481978964060545">
        <ele>612</ele>
        <time>2018-05-21T07:03:51Z</time>
      </trkpt>
      <trkpt lat="42.7781299687922" lon="-7.481965972110629">
        <ele>612</ele>
        <time>2018-05-21T07:03:52Z</time>
      </trkpt>
      <trkpt lat="42.778091998770833" lon="-7.481936970725656">
        <ele>612</ele>
        <time>2018-05-21T07:03:53Z</time>
      </trkpt>
      <trkpt lat="42.778059979900718" lon="-7.481914004310966">
        <ele>612</ele>
        <time>2018-05-21T07:03:54Z</time>
      </trkpt>
      <trkpt lat="42.778017986565828" lon="-7.481903024017811">
        <ele>612</ele>
        <time>2018-05-21T07:03:56Z</time>
      </trkpt>
      <trkpt lat="42.777983034029603" lon="-7.481889026239514">
        <ele>612</ele>
        <time>2018-05-21T07:03:57Z</time>
      </trkpt>
      <trkpt lat="42.777941040694714" lon="-7.481877962127328">
        <ele>612</ele>
        <time>2018-05-21T07:03:58Z</time>
      </trkpt>
      <trkpt lat="42.777903992682695" lon="-7.481860024854541">
        <ele>611</ele>
        <time>2018-05-21T07:03:59Z</time>
      </trkpt>
      <trkpt lat="42.77787197381258" lon="-7.481836974620819">
        <ele>611</ele>
        <time>2018-05-21T07:04:00Z</time>
      </trkpt>
      <trkpt lat="42.777829980477691" lon="-7.481819959357381">
        <ele>611</ele>
        <time>2018-05-21T07:04:01Z</time>
      </trkpt>
      <trkpt lat="42.777791004627943" lon="-7.481808979064226">
        <ele>611</ele>
        <time>2018-05-21T07:04:03Z</time>
      </trkpt>
      <trkpt lat="42.777753034606576" lon="-7.481796992942691">
        <ele>611</ele>
        <time>2018-05-21T07:04:04Z</time>
      </trkpt>
      <trkpt lat="42.777715986594558" lon="-7.481786012649536">
        <ele>611</ele>
        <time>2018-05-21T07:04:05Z</time>
      </trkpt>
      <trkpt lat="42.777679022401571" lon="-7.481774026528001">
        <ele>611</ele>
        <time>2018-05-21T07:04:06Z</time>
      </trkpt>
      <trkpt lat="42.777640968561172" lon="-7.481767991557717">
        <ele>611</ele>
        <time>2018-05-21T07:04:07Z</time>
      </trkpt>
      <trkpt lat="42.777598975226283" lon="-7.481762962415814">
        <ele>611</ele>
        <time>2018-05-21T07:04:08Z</time>
      </trkpt>
      <trkpt lat="42.777556981891394" lon="-7.481757011264563">
        <ele>611</ele>
        <time>2018-05-21T07:04:10Z</time>
      </trkpt>
      <trkpt lat="42.777520017698407" lon="-7.481750976294279">
        <ele>611</ele>
        <time>2018-05-21T07:04:11Z</time>
      </trkpt>
      <trkpt lat="42.777482969686389" lon="-7.481745025143027">
        <ele>611</ele>
        <time>2018-05-21T07:04:12Z</time>
      </trkpt>
      <trkpt lat="42.777432007715106" lon="-7.481721974909306">
        <ele>611</ele>
        <time>2018-05-21T07:04:13Z</time>
      </trkpt>
      <trkpt lat="42.777377022430301" lon="-7.481717029586434">
        <ele>611</ele>
        <time>2018-05-21T07:04:15Z</time>
      </trkpt>
      <trkpt lat="42.77733301743865" lon="-7.481704959645867">
        <ele>611</ele>
        <time>2018-05-21T07:04:16Z</time>
      </trkpt>
      <trkpt lat="42.777295969426632" lon="-7.481693979352713">
        <ele>611</ele>
        <time>2018-05-21T07:04:17Z</time>
      </trkpt>
      <trkpt lat="42.777250958606601" lon="-7.481688028201461">
        <ele>605</ele>
        <time>2018-05-21T07:04:19Z</time>
      </trkpt>
      <trkpt lat="42.777213994413614" lon="-7.481681993231177">
        <ele>611</ele>
        <time>2018-05-21T07:04:20Z</time>
      </trkpt>
      <trkpt lat="42.777181975543499" lon="-7.481664977967739">
        <ele>611</ele>
        <time>2018-05-21T07:04:21Z</time>
      </trkpt>
      <trkpt lat="42.777133025228977" lon="-7.481657015159726">
        <ele>611</ele>
        <time>2018-05-21T07:04:22Z</time>
      </trkpt>
      <trkpt lat="42.777106035500765" lon="-7.481633964926004">
        <ele>605</ele>
        <time>2018-05-21T07:04:23Z</time>
      </trkpt>
      <trkpt lat="42.777072004973888" lon="-7.481617033481598">
        <ele>605</ele>
        <time>2018-05-21T07:04:24Z</time>
      </trkpt>
      <trkpt lat="42.777034034952521" lon="-7.481610998511314">
        <ele>605</ele>
        <time>2018-05-21T07:04:25Z</time>
      </trkpt>
      <trkpt lat="42.776992041617632" lon="-7.481593983247876">
        <ele>605</ele>
        <time>2018-05-21T07:04:27Z</time>
      </trkpt>
      <trkpt lat="42.776960022747517" lon="-7.481564981862903">
        <ele>605</ele>
        <time>2018-05-21T07:04:28Z</time>
      </trkpt>
      <trkpt lat="42.776940995827317" lon="-7.481525000184774">
        <ele>605</ele>
        <time>2018-05-21T07:04:29Z</time>
      </trkpt>
      <trkpt lat="42.776913000270724" lon="-7.481485018506646">
        <ele>605</ele>
        <time>2018-05-21T07:04:30Z</time>
      </trkpt>
      <trkpt lat="42.776876036077738" lon="-7.481449982151389">
        <ele>605</ele>
        <time>2018-05-21T07:04:31Z</time>
      </trkpt>
      <trkpt lat="42.776843011379242" lon="-7.481426009908319">
        <ele>605</ele>
        <time>2018-05-21T07:04:33Z</time>
      </trkpt>
      <trkpt lat="42.776805963367224" lon="-7.481397008523345">
        <ele>605</ele>
        <time>2018-05-21T07:04:34Z</time>
      </trkpt>
      <trkpt lat="42.776767993345857" lon="-7.481368007138372">
        <ele>605</ele>
        <time>2018-05-21T07:04:35Z</time>
      </trkpt>
      <trkpt lat="42.776739997789264" lon="-7.481339005753398">
        <ele>605</ele>
        <time>2018-05-21T07:04:36Z</time>
      </trkpt>
      <trkpt lat="42.776703033596277" lon="-7.481326013803482">
        <ele>605</ele>
        <time>2018-05-21T07:04:37Z</time>
      </trkpt>
      <trkpt lat="42.776669003069401" lon="-7.481290977448225">
        <ele>605</ele>
        <time>2018-05-21T07:04:39Z</time>
      </trkpt>
      <trkpt lat="42.776600020006299" lon="-7.481269016861916">
        <ele>605</ele>
        <time>2018-05-21T07:04:41Z</time>
      </trkpt>
      <trkpt lat="42.776418970897794" lon="-7.481182012706995">
        <ele>605</ele>
        <time>2018-05-21T07:04:46Z</time>
      </trkpt>
      <trkpt lat="42.776278993114829" lon="-7.481121998280287">
        <ele>603</ele>
        <time>2018-05-21T07:04:51Z</time>
      </trkpt>
      <trkpt lat="42.776040025055408" lon="-7.481026025488973">
        <ele>603</ele>
        <time>2018-05-21T07:04:58Z</time>
      </trkpt>
      <trkpt lat="42.77593701146543" lon="-7.480967016890645">
        <ele>603</ele>
        <time>2018-05-21T07:05:01Z</time>
      </trkpt>
      <trkpt lat="42.775903986766934" lon="-7.48095503076911">
        <ele>603</ele>
        <time>2018-05-21T07:05:02Z</time>
      </trkpt>
      <trkpt lat="42.775865010917187" lon="-7.480948995798826">
        <ele>603</ele>
        <time>2018-05-21T07:05:03Z</time>
      </trkpt>
      <trkpt lat="42.775823017582297" lon="-7.480921000242233">
        <ele>603</ele>
        <time>2018-05-21T07:05:05Z</time>
      </trkpt>
      <trkpt lat="42.775778006762266" lon="-7.48091496527195">
        <ele>603</ele>
        <time>2018-05-21T07:05:06Z</time>
      </trkpt>
      <trkpt lat="42.775736013427377" lon="-7.480885963886976">
        <ele>603</ele>
        <time>2018-05-21T07:05:08Z</time>
      </trkpt>
      <trkpt lat="42.7757019829005" lon="-7.48086903244257">
        <ele>603</ele>
        <time>2018-05-21T07:05:09Z</time>
      </trkpt>
      <trkpt lat="42.775663007050753" lon="-7.480857968330383">
        <ele>603</ele>
        <time>2018-05-21T07:05:10Z</time>
      </trkpt>
      <trkpt lat="42.77561598457396" lon="-7.480835001915693">
        <ele>603</ele>
        <time>2018-05-21T07:05:11Z</time>
      </trkpt>
      <trkpt lat="42.775579020380974" lon="-7.48080600053072">
        <ele>603</ele>
        <time>2018-05-21T07:05:13Z</time>
      </trkpt>
      <trkpt lat="42.775539960712194" lon="-7.48078697361052">
        <ele>603</ele>
        <time>2018-05-21T07:05:14Z</time>
      </trkpt>
      <trkpt lat="42.77550601400435" lon="-7.480769036337733">
        <ele>603</ele>
        <time>2018-05-21T07:05:15Z</time>
      </trkpt>
      <trkpt lat="42.77546402066946" lon="-7.480745986104012">
        <ele>606</ele>
        <time>2018-05-21T07:05:16Z</time>
      </trkpt>
      <trkpt lat="42.775422027334571" lon="-7.480735005810857">
        <ele>606</ele>
        <time>2018-05-21T07:05:17Z</time>
      </trkpt>
      <trkpt lat="42.775381039828062" lon="-7.480735005810857">
        <ele>606</ele>
        <time>2018-05-21T07:05:19Z</time>
      </trkpt>
      <trkpt lat="42.77533502317965" lon="-7.480724025517702">
        <ele>606</ele>
        <time>2018-05-21T07:05:20Z</time>
      </trkpt>
      <trkpt lat="42.775296969339252" lon="-7.480706004425883">
        <ele>606</ele>
        <time>2018-05-21T07:05:21Z</time>
      </trkpt>
      <trkpt lat="42.775251036509871" lon="-7.480706004425883">
        <ele>606</ele>
        <time>2018-05-21T07:05:23Z</time>
      </trkpt>
      <trkpt lat="42.775211976841092" lon="-7.480698963627219">
        <ele>606</ele>
        <time>2018-05-21T07:05:24Z</time>
      </trkpt>
      <trkpt lat="42.775169983506203" lon="-7.480698963627219">
        <ele>606</ele>
        <time>2018-05-21T07:05:25Z</time>
      </trkpt>
      <trkpt lat="42.775117009878159" lon="-7.480681026354432">
        <ele>606</ele>
        <time>2018-05-21T07:05:27Z</time>
      </trkpt>
      <trkpt lat="42.775073004886508" lon="-7.480653030797839">
        <ele>606</ele>
        <time>2018-05-21T07:05:28Z</time>
      </trkpt>
      <trkpt lat="42.774986000731587" lon="-7.480607014149427">
        <ele>606</ele>
        <time>2018-05-21T07:05:31Z</time>
      </trkpt>
      <trkpt lat="42.774834958836436" lon="-7.480426970869303">
        <ele>606</ele>
        <time>2018-05-21T07:05:37Z</time>
      </trkpt>
      <trkpt lat="42.774666985496879" lon="-7.480321023613215">
        <ele>605</ele>
        <time>2018-05-21T07:05:42Z</time>
      </trkpt>
      <trkpt lat="42.774512004107237" lon="-7.480182973667979">
        <ele>600</ele>
        <time>2018-05-21T07:05:48Z</time>
      </trkpt>
      <trkpt lat="42.77423900552094" lon="-7.479985998943448">
        <ele>600</ele>
        <time>2018-05-21T07:05:57Z</time>
      </trkpt>
      <trkpt lat="42.774127023294568" lon="-7.479959009215236">
        <ele>600</ele>
        <time>2018-05-21T07:06:00Z</time>
      </trkpt>
      <trkpt lat="42.773977993056178" lon="-7.479964960366488">
        <ele>600</ele>
        <time>2018-05-21T07:06:05Z</time>
      </trkpt>
      <trkpt lat="42.773967012763023" lon="-7.479964960366488">
        <ele>600</ele>
        <time>2018-05-21T07:06:05Z</time>
      </trkpt>
      <trkpt lat="42.77387598529458" lon="-7.479905029758811">
        <ele>600</ele>
        <time>2018-05-21T07:06:08Z</time>
      </trkpt>
      <trkpt lat="42.773870034143329" lon="-7.479905029758811">
        <ele>600</ele>
        <time>2018-05-21T07:06:08Z</time>
      </trkpt>
      <trkpt lat="42.773757968097925" lon="-7.479853983968496">
        <ele>596</ele>
        <time>2018-05-21T07:06:12Z</time>
      </trkpt>
      <trkpt lat="42.773643974214792" lon="-7.479849960654974">
        <ele>596</ele>
        <time>2018-05-21T07:06:15Z</time>
      </trkpt>
      <trkpt lat="42.77357398532331" lon="-7.479858007282019">
        <ele>596</ele>
        <time>2018-05-21T07:06:17Z</time>
      </trkpt>
      <trkpt lat="42.773476000875235" lon="-7.47986001893878">
        <ele>596</ele>
        <time>2018-05-21T07:06:20Z</time>
      </trkpt>
      <trkpt lat="42.773457979783416" lon="-7.479884997010231">
        <ele>596</ele>
        <time>2018-05-21T07:06:21Z</time>
      </trkpt>
      <trkpt lat="42.773421015590429" lon="-7.479895977303386">
        <ele>596</ele>
        <time>2018-05-21T07:06:22Z</time>
      </trkpt>
      <trkpt lat="42.773387990891933" lon="-7.479884997010231">
        <ele>596</ele>
        <time>2018-05-21T07:06:23Z</time>
      </trkpt>
      <trkpt lat="42.773342980071902" lon="-7.479866975918412">
        <ele>596</ele>
        <time>2018-05-21T07:06:24Z</time>
      </trkpt>
      <trkpt lat="42.773304004222155" lon="-7.479862030595541">
        <ele>596</ele>
        <time>2018-05-21T07:06:25Z</time>
      </trkpt>
      <trkpt lat="42.773261005058885" lon="-7.479862030595541">
        <ele>596</ele>
        <time>2018-05-21T07:06:27Z</time>
      </trkpt>
      <trkpt lat="42.773227980360389" lon="-7.479873010888696">
        <ele>596</ele>
        <time>2018-05-21T07:06:28Z</time>
      </trkpt>
      <trkpt lat="42.773178024217486" lon="-7.479873010888696">
        <ele>596</ele>
        <time>2018-05-21T07:06:29Z</time>
      </trkpt>
      <trkpt lat="42.773134019225836" lon="-7.479887008666992">
        <ele>596</ele>
        <time>2018-05-21T07:06:30Z</time>
      </trkpt>
      <trkpt lat="42.773104012012482" lon="-7.479917015880346">
        <ele>596</ele>
        <time>2018-05-21T07:06:31Z</time>
      </trkpt>
      <trkpt lat="42.773080039769411" lon="-7.479964960366488">
        <ele>596</ele>
        <time>2018-05-21T07:06:33Z</time>
      </trkpt>
      <trkpt lat="42.773051960393786" lon="-7.480006031692028">
        <ele>596</ele>
        <time>2018-05-21T07:06:34Z</time>
      </trkpt>
      <trkpt lat="42.773016002029181" lon="-7.480026986449957">
        <ele>596</ele>
        <time>2018-05-21T07:06:35Z</time>
      </trkpt>
      <trkpt lat="42.77297199703753" lon="-7.480037966743112">
        <ele>596</ele>
        <time>2018-05-21T07:06:36Z</time>
      </trkpt>
      <trkpt lat="42.772926986217499" lon="-7.480037966743112">
        <ele>595</ele>
        <time>2018-05-21T07:06:38Z</time>
      </trkpt>
      <trkpt lat="42.772890022024512" lon="-7.480021035298705">
        <ele>595</ele>
        <time>2018-05-21T07:06:39Z</time>
      </trkpt>
      <trkpt lat="42.772853979840875" lon="-7.480007959529758">
        <ele>595</ele>
        <time>2018-05-21T07:06:40Z</time>
      </trkpt>
      <trkpt lat="42.772812992334366" lon="-7.479995973408222">
        <ele>595</ele>
        <time>2018-05-21T07:06:41Z</time>
      </trkpt>
      <trkpt lat="42.772774016484618" lon="-7.479978958144784">
        <ele>595</ele>
        <time>2018-05-21T07:06:42Z</time>
      </trkpt>
      <trkpt lat="42.772746020928025" lon="-7.479962026700378">
        <ele>595</ele>
        <time>2018-05-21T07:06:43Z</time>
      </trkpt>
      <trkpt lat="42.772718025371432" lon="-7.479938976466656">
        <ele>595</ele>
        <time>2018-05-21T07:06:44Z</time>
      </trkpt>
      <trkpt lat="42.772681983187795" lon="-7.479921039193869">
        <ele>595</ele>
        <time>2018-05-21T07:06:45Z</time>
      </trkpt>
      <trkpt lat="42.772649964317679" lon="-7.479902012273669">
        <ele>595</ele>
        <time>2018-05-21T07:06:47Z</time>
      </trkpt>
      <trkpt lat="42.772629009559751" lon="-7.479867981746793">
        <ele>595</ele>
        <time>2018-05-21T07:06:47Z</time>
      </trkpt>
      <trkpt lat="42.772608976811171" lon="-7.479843003675342">
        <ele>595</ele>
        <time>2018-05-21T07:06:48Z</time>
      </trkpt>
      <trkpt lat="42.772604031488299" lon="-7.479792963713408">
        <ele>595</ele>
        <time>2018-05-21T07:06:49Z</time>
      </trkpt>
      <trkpt lat="42.772604031488299" lon="-7.479738984256983">
        <ele>595</ele>
        <time>2018-05-21T07:06:51Z</time>
      </trkpt>
      <trkpt lat="42.772610988467932" lon="-7.479685004800558">
        <ele>595</ele>
        <time>2018-05-21T07:06:52Z</time>
      </trkpt>
      <trkpt lat="42.772615011781454" lon="-7.479634964838624">
        <ele>595</ele>
        <time>2018-05-21T07:06:53Z</time>
      </trkpt>
      <trkpt lat="42.772638984024525" lon="-7.479594983160496">
        <ele>595</ele>
        <time>2018-05-21T07:06:54Z</time>
      </trkpt>
      <trkpt lat="42.772657005116343" lon="-7.479555001482368">
        <ele>595</ele>
        <time>2018-05-21T07:06:55Z</time>
      </trkpt>
      <trkpt lat="42.772685000672936" lon="-7.479503033682704">
        <ele>596</ele>
        <time>2018-05-21T07:06:56Z</time>
      </trkpt>
      <trkpt lat="42.772704027593136" lon="-7.479457017034292">
        <ele>596</ele>
        <time>2018-05-21T07:06:58Z</time>
      </trkpt>
      <trkpt lat="42.772718025371432" lon="-7.479411000385881">
        <ele>596</ele>
        <time>2018-05-21T07:06:59Z</time>
      </trkpt>
      <trkpt lat="42.772732023149729" lon="-7.479364983737469">
        <ele>596</ele>
        <time>2018-05-21T07:07:00Z</time>
      </trkpt>
      <trkpt lat="42.772746020928025" lon="-7.479318967089057">
        <ele>596</ele>
        <time>2018-05-21T07:07:01Z</time>
      </trkpt>
      <trkpt lat="42.772754989564419" lon="-7.479266999289393">
        <ele>596</ele>
        <time>2018-05-21T07:07:02Z</time>
      </trkpt>
      <trkpt lat="42.772768987342715" lon="-7.479216037318111">
        <ele>596</ele>
        <time>2018-05-21T07:07:03Z</time>
      </trkpt>
      <trkpt lat="42.772778961807489" lon="-7.479163985699415">
        <ele>596</ele>
        <time>2018-05-21T07:07:04Z</time>
      </trkpt>
      <trkpt lat="42.772796982899308" lon="-7.479106988757849">
        <ele>596</ele>
        <time>2018-05-21T07:07:06Z</time>
      </trkpt>
      <trkpt lat="42.772824978455901" lon="-7.479055020958185">
        <ele>596</ele>
        <time>2018-05-21T07:07:07Z</time>
      </trkpt>
      <trkpt lat="42.772838976234198" lon="-7.478991989046335">
        <ele>596</ele>
        <time>2018-05-21T07:07:08Z</time>
      </trkpt>
      <trkpt lat="42.772858003154397" lon="-7.47895703651011">
        <ele>596</ele>
        <time>2018-05-21T07:07:09Z</time>
      </trkpt>
      <trkpt lat="42.772874012589455" lon="-7.478909008204937">
        <ele>596</ele>
        <time>2018-05-21T07:07:10Z</time>
      </trkpt>
      <trkpt lat="42.772878035902977" lon="-7.478852011263371">
        <ele>596</ele>
        <time>2018-05-21T07:07:12Z</time>
      </trkpt>
      <trkpt lat="42.772882981225848" lon="-7.478776993229985">
        <ele>596</ele>
        <time>2018-05-21T07:07:13Z</time>
      </trkpt>
      <trkpt lat="42.772888010367751" lon="-7.478726031258702">
        <ele>596</ele>
        <time>2018-05-21T07:07:14Z</time>
      </trkpt>
      <trkpt lat="42.772888010367751" lon="-7.478668028488755">
        <ele>599</ele>
        <time>2018-05-21T07:07:16Z</time>
      </trkpt>
      <trkpt lat="42.772901002317667" lon="-7.478627962991595">
        <ele>599</ele>
        <time>2018-05-21T07:07:17Z</time>
      </trkpt>
      <trkpt lat="42.772915000095963" lon="-7.478582030162215">
        <ele>599</ele>
        <time>2018-05-21T07:07:18Z</time>
      </trkpt>
      <trkpt lat="42.772942995652556" lon="-7.478541964665055">
        <ele>600</ele>
        <time>2018-05-21T07:07:19Z</time>
      </trkpt>
      <trkpt lat="42.772970991209149" lon="-7.478505000472069">
        <ele>600</ele>
        <time>2018-05-21T07:07:20Z</time>
      </trkpt>
      <trkpt lat="42.77299496345222" lon="-7.478465018793941">
        <ele>600</ele>
        <time>2018-05-21T07:07:21Z</time>
      </trkpt>
      <trkpt lat="42.773018013685942" lon="-7.478425037115812">
        <ele>600</ele>
        <time>2018-05-21T07:07:22Z</time>
      </trkpt>
      <trkpt lat="42.773040980100632" lon="-7.478399975225329">
        <ele>600</ele>
        <time>2018-05-21T07:07:23Z</time>
      </trkpt>
      <trkpt lat="42.773065036162734" lon="-7.478348007425666">
        <ele>600</ele>
        <time>2018-05-21T07:07:25Z</time>
      </trkpt>
      <trkpt lat="42.773080039769411" lon="-7.478306014090776">
        <ele>600</ele>
        <time>2018-05-21T07:07:26Z</time>
      </trkpt>
      <trkpt lat="42.773090014234185" lon="-7.478266032412648">
        <ele>600</ele>
        <time>2018-05-21T07:07:26Z</time>
      </trkpt>
      <trkpt lat="42.773094037547708" lon="-7.478213980793953">
        <ele>600</ele>
        <time>2018-05-21T07:07:28Z</time>
      </trkpt>
      <trkpt lat="42.773104012012482" lon="-7.478162012994289">
        <ele>600</ele>
        <time>2018-05-21T07:07:29Z</time>
      </trkpt>
      <trkpt lat="42.7731220331043" lon="-7.478110967203975">
        <ele>600</ele>
        <time>2018-05-21T07:07:30Z</time>
      </trkpt>
      <trkpt lat="42.773136030882597" lon="-7.478069979697466">
        <ele>600</ele>
        <time>2018-05-21T07:07:31Z</time>
      </trkpt>
      <trkpt lat="42.773150028660893" lon="-7.478005019947887">
        <ele>600</ele>
        <time>2018-05-21T07:07:32Z</time>
      </trkpt>
      <trkpt lat="42.77316402643919" lon="-7.477968977764249">
        <ele>600</ele>
        <time>2018-05-21T07:07:33Z</time>
      </trkpt>
      <trkpt lat="42.773168971762061" lon="-7.477917009964585">
        <ele>600</ele>
        <time>2018-05-21T07:07:34Z</time>
      </trkpt>
      <trkpt lat="42.773172995075583" lon="-7.477853978052735">
        <ele>605</ele>
        <time>2018-05-21T07:07:36Z</time>
      </trkpt>
      <trkpt lat="42.773178024217486" lon="-7.477796981111169">
        <ele>605</ele>
        <time>2018-05-21T07:07:37Z</time>
      </trkpt>
      <trkpt lat="42.773178024217486" lon="-7.477745013311505">
        <ele>605</ele>
        <time>2018-05-21T07:07:38Z</time>
      </trkpt>
      <trkpt lat="42.773182969540358" lon="-7.477681981399655">
        <ele>605</ele>
        <time>2018-05-21T07:07:40Z</time>
      </trkpt>
      <trkpt lat="42.77318699285388" lon="-7.477630013599992">
        <ele>605</ele>
        <time>2018-05-21T07:07:41Z</time>
      </trkpt>
      <trkpt lat="42.77318699285388" lon="-7.477577961981297">
        <ele>605</ele>
        <time>2018-05-21T07:07:42Z</time>
      </trkpt>
      <trkpt lat="42.77318699285388" lon="-7.477527000010014">
        <ele>605</ele>
        <time>2018-05-21T07:07:43Z</time>
      </trkpt>
      <trkpt lat="42.77318699285388" lon="-7.47747503221035">
        <ele>605</ele>
        <time>2018-05-21T07:07:44Z</time>
      </trkpt>
      <trkpt lat="42.77318699285388" lon="-7.4774120002985">
        <ele>605</ele>
        <time>2018-05-21T07:07:45Z</time>
      </trkpt>
      <trkpt lat="42.773196967318654" lon="-7.477360032498837">
        <ele>605</ele>
        <time>2018-05-21T07:07:47Z</time>
      </trkpt>
      <trkpt lat="42.773196967318654" lon="-7.477307980880141">
        <ele>605</ele>
        <time>2018-05-21T07:07:48Z</time>
      </trkpt>
      <trkpt lat="42.773200990632176" lon="-7.477257018908858">
        <ele>605</ele>
        <time>2018-05-21T07:07:49Z</time>
      </trkpt>
      <trkpt lat="42.773214988410473" lon="-7.477211002260447">
        <ele>605</ele>
        <time>2018-05-21T07:07:50Z</time>
      </trkpt>
      <trkpt lat="42.773220017552376" lon="-7.477157022804022">
        <ele>605</ele>
        <time>2018-05-21T07:07:51Z</time>
      </trkpt>
      <trkpt lat="42.773234015330672" lon="-7.477100025862455">
        <ele>605</ele>
        <time>2018-05-21T07:07:52Z</time>
      </trkpt>
      <trkpt lat="42.773248013108969" lon="-7.477035988122225">
        <ele>607</ele>
        <time>2018-05-21T07:07:54Z</time>
      </trkpt>
      <trkpt lat="42.773276008665562" lon="-7.476996006444097">
        <ele>607</ele>
        <time>2018-05-21T07:07:55Z</time>
      </trkpt>
      <trkpt lat="42.773312972858548" lon="-7.476968010887504">
        <ele>607</ele>
        <time>2018-05-21T07:07:56Z</time>
      </trkpt>
      <trkpt lat="42.773351026698947" lon="-7.476927023380995">
        <ele>607</ele>
        <time>2018-05-21T07:07:58Z</time>
      </trkpt>
      <trkpt lat="42.773382961750031" lon="-7.476887041702867">
        <ele>607</ele>
        <time>2018-05-21T07:07:59Z</time>
      </trkpt>
      <trkpt lat="42.773415986448526" lon="-7.476858040317893">
        <ele>607</ele>
        <time>2018-05-21T07:08:00Z</time>
      </trkpt>
      <trkpt lat="42.773443982005119" lon="-7.476829960942268">
        <ele>607</ele>
        <time>2018-05-21T07:08:01Z</time>
      </trkpt>
      <trkpt lat="42.773473989218473" lon="-7.476799031719565">
        <ele>607</ele>
        <time>2018-05-21T07:08:02Z</time>
      </trkpt>
      <trkpt lat="42.773506008088589" lon="-7.476775981485844">
        <ele>607</ele>
        <time>2018-05-21T07:08:03Z</time>
      </trkpt>
      <trkpt lat="42.773525035008788" lon="-7.476742034777999">
        <ele>607</ele>
        <time>2018-05-21T07:08:04Z</time>
      </trkpt>
      <trkpt lat="42.773539032787085" lon="-7.476689983159304">
        <ele>607</ele>
        <time>2018-05-21T07:08:06Z</time>
      </trkpt>
      <trkpt lat="42.773550013080239" lon="-7.476618988439441">
        <ele>607</ele>
        <time>2018-05-21T07:08:07Z</time>
      </trkpt>
      <trkpt lat="42.773567028343678" lon="-7.476582024246454">
        <ele>607</ele>
        <time>2018-05-21T07:08:08Z</time>
      </trkpt>
      <trkpt lat="42.773571973666549" lon="-7.476454032585025">
        <ele>607</ele>
        <time>2018-05-21T07:08:11Z</time>
      </trkpt>
      <trkpt lat="42.773581026121974" lon="-7.476420002058148">
        <ele>607</ele>
        <time>2018-05-21T07:08:12Z</time>
      </trkpt>
      <trkpt lat="42.773599969223142" lon="-7.476368034258485">
        <ele>607</ele>
        <time>2018-05-21T07:08:13Z</time>
      </trkpt>
      <trkpt lat="42.77361799031496" lon="-7.476322017610073">
        <ele>607</ele>
        <time>2018-05-21T07:08:14Z</time>
      </trkpt>
      <trkpt lat="42.77363701723516" lon="-7.476276000961661">
        <ele>607</ele>
        <time>2018-05-21T07:08:15Z</time>
      </trkpt>
      <trkpt lat="42.77365998364985" lon="-7.47622998431325">
        <ele>612</ele>
        <time>2018-05-21T07:08:16Z</time>
      </trkpt>
      <trkpt lat="42.773679010570049" lon="-7.476183967664838">
        <ele>612</ele>
        <time>2018-05-21T07:08:18Z</time>
      </trkpt>
      <trkpt lat="42.773697031661868" lon="-7.47614398598671">
        <ele>612</ele>
        <time>2018-05-21T07:08:19Z</time>
      </trkpt>
      <trkpt lat="42.773715974763036" lon="-7.476097969338298">
        <ele>612</ele>
        <time>2018-05-21T07:08:20Z</time>
      </trkpt>
      <trkpt lat="42.773739024996758" lon="-7.47605798766017">
        <ele>612</ele>
        <time>2018-05-21T07:08:21Z</time>
      </trkpt>
      <trkpt lat="42.77376702055335" lon="-7.475999984890223">
        <ele>609</ele>
        <time>2018-05-21T07:08:22Z</time>
      </trkpt>
      <trkpt lat="42.773795016109943" lon="-7.475964026525617">
        <ele>609</ele>
        <time>2018-05-21T07:08:23Z</time>
      </trkpt>
      <trkpt lat="42.773842038586736" lon="-7.47586595825851">
        <ele>609</ele>
        <time>2018-05-21T07:08:26Z</time>
      </trkpt>
      <trkpt lat="42.773958966135979" lon="-7.475526994094253">
        <ele>609</ele>
        <time>2018-05-21T07:08:34Z</time>
      </trkpt>
      <trkpt lat="42.774083018302917" lon="-7.475124998018146">
        <ele>611</ele>
        <time>2018-05-21T07:08:44Z</time>
      </trkpt>
      <trkpt lat="42.774221990257502" lon="-7.474700035527349">
        <ele>611</ele>
        <time>2018-05-21T07:08:54Z</time>
      </trkpt>
      <trkpt lat="42.774331038817763" lon="-7.474311031401157">
        <ele>611</ele>
        <time>2018-05-21T07:09:03Z</time>
      </trkpt>
      <trkpt lat="42.774463975802064" lon="-7.473863018676639">
        <ele>611</ele>
        <time>2018-05-21T07:09:13Z</time>
      </trkpt>
      <trkpt lat="42.774552991613746" lon="-7.473599994555116">
        <ele>614</ele>
        <time>2018-05-21T07:09:19Z</time>
      </trkpt>
      <trkpt lat="42.774676037952304" lon="-7.473247032612562">
        <ele>616</ele>
        <time>2018-05-21T07:09:28Z</time>
      </trkpt>
      <trkpt lat="42.774751977995038" lon="-7.472976967692375">
        <ele>616</ele>
        <time>2018-05-21T07:09:34Z</time>
      </trkpt>
      <trkpt lat="42.774826996028423" lon="-7.472716961055994">
        <ele>616</ele>
        <time>2018-05-21T07:09:40Z</time>
      </trkpt>
      <trkpt lat="42.774833030998707" lon="-7.472708998247981">
        <ele>616</ele>
        <time>2018-05-21T07:09:40Z</time>
      </trkpt>
      <trkpt lat="42.774893967434764" lon="-7.472516968846321">
        <ele>616</ele>
        <time>2018-05-21T07:09:45Z</time>
      </trkpt>
      <trkpt lat="42.774900002405047" lon="-7.472510011866689">
        <ele>616</ele>
        <time>2018-05-21T07:09:45Z</time>
      </trkpt>
      <trkpt lat="42.774944007396698" lon="-7.472373973578215">
        <ele>616</ele>
        <time>2018-05-21T07:09:48Z</time>
      </trkpt>
      <trkpt lat="42.77494803071022" lon="-7.472344972193241">
        <ele>616</ele>
        <time>2018-05-21T07:09:49Z</time>
      </trkpt>
      <trkpt lat="42.774966973811388" lon="-7.472293004393578">
        <ele>616</ele>
        <time>2018-05-21T07:09:50Z</time>
      </trkpt>
      <trkpt lat="42.774976026266813" lon="-7.472241036593914">
        <ele>616</ele>
        <time>2018-05-21T07:09:52Z</time>
      </trkpt>
      <trkpt lat="42.774994969367981" lon="-7.47221102938056">
        <ele>616</ele>
        <time>2018-05-21T07:09:52Z</time>
      </trkpt>
      <trkpt lat="42.775008967146277" lon="-7.472173981368542">
        <ele>616</ele>
        <time>2018-05-21T07:09:53Z</time>
      </trkpt>
      <trkpt lat="42.775015002116561" lon="-7.472126036882401">
        <ele>616</ele>
        <time>2018-05-21T07:09:54Z</time>
      </trkpt>
      <trkpt lat="42.775025982409716" lon="-7.472060993313789">
        <ele>616</ele>
        <time>2018-05-21T07:09:56Z</time>
      </trkpt>
      <trkpt lat="42.775031011551619" lon="-7.472009025514126">
        <ele>616</ele>
        <time>2018-05-21T07:09:57Z</time>
      </trkpt>
      <trkpt lat="42.775031011551619" lon="-7.471950016915798">
        <ele>617</ele>
        <time>2018-05-21T07:09:58Z</time>
      </trkpt>
      <trkpt lat="42.775031011551619" lon="-7.471888996660709">
        <ele>617</ele>
        <time>2018-05-21T07:10:00Z</time>
      </trkpt>
      <trkpt lat="42.775007961317897" lon="-7.471842980012298">
        <ele>617</ele>
        <time>2018-05-21T07:10:01Z</time>
      </trkpt>
      <trkpt lat="42.774982983246446" lon="-7.471806015819311">
        <ele>617</ele>
        <time>2018-05-21T07:10:02Z</time>
      </trkpt>
      <trkpt lat="42.774954987689853" lon="-7.471766034141183">
        <ele>617</ele>
        <time>2018-05-21T07:10:03Z</time>
      </trkpt>
      <trkpt lat="42.774921962991357" lon="-7.471713982522488">
        <ele>617</ele>
        <time>2018-05-21T07:10:05Z</time>
      </trkpt>
      <trkpt lat="42.77488499879837" lon="-7.471674000844359">
        <ele>617</ele>
        <time>2018-05-21T07:10:06Z</time>
      </trkpt>
      <trkpt lat="42.774851974099874" lon="-7.471622033044696">
        <ele>617</ele>
        <time>2018-05-21T07:10:07Z</time>
      </trkpt>
      <trkpt lat="42.774816015735269" lon="-7.471565036103129">
        <ele>617</ele>
        <time>2018-05-21T07:10:09Z</time>
      </trkpt>
      <trkpt lat="42.77479799464345" lon="-7.471519019454718">
        <ele>617</ele>
        <time>2018-05-21T07:10:10Z</time>
      </trkpt>
      <trkpt lat="42.774774022400379" lon="-7.471466967836022">
        <ele>617</ele>
        <time>2018-05-21T07:10:11Z</time>
      </trkpt>
      <trkpt lat="42.77473202906549" lon="-7.471409970894456">
        <ele>617</ele>
        <time>2018-05-21T07:10:13Z</time>
      </trkpt>
      <trkpt lat="42.774700010195374" lon="-7.471346016973257">
        <ele>617</ele>
        <time>2018-05-21T07:10:15Z</time>
      </trkpt>
      <trkpt lat="42.774666985496879" lon="-7.471294971182942">
        <ele>617</ele>
        <time>2018-05-21T07:10:16Z</time>
      </trkpt>
      <trkpt lat="42.774633960798383" lon="-7.471265969797969">
        <ele>616</ele>
        <time>2018-05-21T07:10:18Z</time>
      </trkpt>
      <trkpt lat="42.774596996605396" lon="-7.471236968412995">
        <ele>619</ele>
        <time>2018-05-21T07:10:19Z</time>
      </trkpt>
      <trkpt lat="42.774558020755649" lon="-7.471196986734867">
        <ele>616</ele>
        <time>2018-05-21T07:10:20Z</time>
      </trkpt>
      <trkpt lat="42.774524996057153" lon="-7.471163040027022">
        <ele>619</ele>
        <time>2018-05-21T07:10:21Z</time>
      </trkpt>
      <trkpt lat="42.77447696775198" lon="-7.471132026985288">
        <ele>619</ele>
        <time>2018-05-21T07:10:23Z</time>
      </trkpt>
      <trkpt lat="42.774394992738962" lon="-7.471075030043721">
        <ele>619</ele>
        <time>2018-05-21T07:10:26Z</time>
      </trkpt>
      <trkpt lat="42.774307988584042" lon="-7.470993977040052">
        <ele>619</ele>
        <time>2018-05-21T07:10:29Z</time>
      </trkpt>
      <trkpt lat="42.774207992479205" lon="-7.470873026177287">
        <ele>619</ele>
        <time>2018-05-21T07:10:33Z</time>
      </trkpt>
      <trkpt lat="42.774141021072865" lon="-7.470807982608676">
        <ele>619</ele>
        <time>2018-05-21T07:10:35Z</time>
      </trkpt>
      <trkpt lat="42.774062985554338" lon="-7.470636991783977">
        <ele>619</ele>
        <time>2018-05-21T07:10:40Z</time>
      </trkpt>
      <trkpt lat="42.773992996662855" lon="-7.470462983474135">
        <ele>619</ele>
        <time>2018-05-21T07:10:44Z</time>
      </trkpt>
      <trkpt lat="42.773992996662855" lon="-7.470458038151264">
        <ele>619</ele>
        <time>2018-05-21T07:10:44Z</time>
      </trkpt>
      <trkpt lat="42.773958966135979" lon="-7.470415038987994">
        <ele>619</ele>
        <time>2018-05-21T07:10:45Z</time>
      </trkpt>
      <trkpt lat="42.773954020813107" lon="-7.470403974875808">
        <ele>619</ele>
        <time>2018-05-21T07:10:46Z</time>
      </trkpt>
      <trkpt lat="42.773920996114612" lon="-7.47034102678299">
        <ele>619</ele>
        <time>2018-05-21T07:10:47Z</time>
      </trkpt>
      <trkpt lat="42.773889983072877" lon="-7.470288975164294">
        <ele>619</ele>
        <time>2018-05-21T07:10:49Z</time>
      </trkpt>
      <trkpt lat="42.773846983909607" lon="-7.470246981829405">
        <ele>619</ele>
        <time>2018-05-21T07:10:50Z</time>
      </trkpt>
      <trkpt lat="42.77380901388824" lon="-7.47021202929318">
        <ele>619</ele>
        <time>2018-05-21T07:10:52Z</time>
      </trkpt>
      <trkpt lat="42.773761991411448" lon="-7.470186967402697">
        <ele>619</ele>
        <time>2018-05-21T07:10:53Z</time>
      </trkpt>
      <trkpt lat="42.773735001683235" lon="-7.470136005431414">
        <ele>620</ele>
        <time>2018-05-21T07:10:55Z</time>
      </trkpt>
      <trkpt lat="42.773701976984739" lon="-7.470095017924905">
        <ele>620</ele>
        <time>2018-05-21T07:10:56Z</time>
      </trkpt>
      <trkpt lat="42.773679010570049" lon="-7.470055036246777">
        <ele>620</ele>
        <time>2018-05-21T07:10:57Z</time>
      </trkpt>
      <trkpt lat="42.773645985871553" lon="-7.470009019598365">
        <ele>620</ele>
        <time>2018-05-21T07:10:58Z</time>
      </trkpt>
      <trkpt lat="42.773612961173058" lon="-7.469969037920237">
        <ele>620</ele>
        <time>2018-05-21T07:11:00Z</time>
      </trkpt>
      <trkpt lat="42.773581026121974" lon="-7.469945987686515">
        <ele>620</ele>
        <time>2018-05-21T07:11:01Z</time>
      </trkpt>
      <trkpt lat="42.773542972281575" lon="-7.469906006008387">
        <ele>620</ele>
        <time>2018-05-21T07:11:02Z</time>
      </trkpt>
      <trkpt lat="42.773521011695266" lon="-7.4698690418154">
        <ele>620</ele>
        <time>2018-05-21T07:11:03Z</time>
      </trkpt>
      <trkpt lat="42.773502990603447" lon="-7.469811961054802">
        <ele>620</ele>
        <time>2018-05-21T07:11:05Z</time>
      </trkpt>
      <trkpt lat="42.773480024188757" lon="-7.469759993255138">
        <ele>620</ele>
        <time>2018-05-21T07:11:06Z</time>
      </trkpt>
      <trkpt lat="42.773464014753699" lon="-7.469717999920249">
        <ele>620</ele>
        <time>2018-05-21T07:11:07Z</time>
      </trkpt>
      <trkpt lat="42.773434007540345" lon="-7.469603000208736">
        <ele>620</ele>
        <time>2018-05-21T07:11:10Z</time>
      </trkpt>
      <trkpt lat="42.773394025862217" lon="-7.469522031024098">
        <ele>620</ele>
        <time>2018-05-21T07:11:12Z</time>
      </trkpt>
      <trkpt lat="42.773321019485593" lon="-7.469351962208748">
        <ele>622</ele>
        <time>2018-05-21T07:11:16Z</time>
      </trkpt>
      <trkpt lat="42.773232003673911" lon="-7.469184994697571">
        <ele>622</ele>
        <time>2018-05-21T07:11:20Z</time>
      </trkpt>
      <trkpt lat="42.773152040317655" lon="-7.469072006642819">
        <ele>622</ele>
        <time>2018-05-21T07:11:24Z</time>
      </trkpt>
      <trkpt lat="42.772960010915995" lon="-7.468836978077889">
        <ele>622</ele>
        <time>2018-05-21T07:11:31Z</time>
      </trkpt>
      <trkpt lat="42.772855991497636" lon="-7.46869096532464">
        <ele>629</ele>
        <time>2018-05-21T07:11:36Z</time>
      </trkpt>
      <trkpt lat="42.772685000672936" lon="-7.468425007537007">
        <ele>629</ele>
        <time>2018-05-21T07:11:44Z</time>
      </trkpt>
      <trkpt lat="42.772534964606166" lon="-7.468232978135347">
        <ele>629</ele>
        <time>2018-05-21T07:11:50Z</time>
      </trkpt>
      <trkpt lat="42.772418959066272" lon="-7.468069028109312">
        <ele>629</ele>
        <time>2018-05-21T07:11:55Z</time>
      </trkpt>
      <trkpt lat="42.772274035960436" lon="-7.467969032004476">
        <ele>629</ele>
        <time>2018-05-21T07:11:59Z</time>
      </trkpt>
      <trkpt lat="42.772120982408524" lon="-7.467781025916338">
        <ele>632</ele>
        <time>2018-05-21T07:12:05Z</time>
      </trkpt>
      <trkpt lat="42.771883020177484" lon="-7.467519007623196">
        <ele>631</ele>
        <time>2018-05-21T07:12:14Z</time>
      </trkpt>
      <trkpt lat="42.771683027967811" lon="-7.467302000150085">
        <ele>631</ele>
        <time>2018-05-21T07:12:22Z</time>
      </trkpt>
      <trkpt lat="42.771576996892691" lon="-7.467180965468288">
        <ele>631</ele>
        <time>2018-05-21T07:12:26Z</time>
      </trkpt>
      <trkpt lat="42.771562999114394" lon="-7.467180965468288">
        <ele>631</ele>
        <time>2018-05-21T07:12:27Z</time>
      </trkpt>
      <trkpt lat="42.771524023264647" lon="-7.467180965468288">
        <ele>631</ele>
        <time>2018-05-21T07:12:28Z</time>
      </trkpt>
      <trkpt lat="42.771477000787854" lon="-7.467187000438571">
        <ele>631</ele>
        <time>2018-05-21T07:12:29Z</time>
      </trkpt>
      <trkpt lat="42.771432995796204" lon="-7.467198986560106">
        <ele>631</ele>
        <time>2018-05-21T07:12:30Z</time>
      </trkpt>
      <trkpt lat="42.771410029381514" lon="-7.467233017086983">
        <ele>631</ele>
        <time>2018-05-21T07:12:31Z</time>
      </trkpt>
      <trkpt lat="42.771377004683018" lon="-7.467267969623208">
        <ele>631</ele>
        <time>2018-05-21T07:12:33Z</time>
      </trkpt>
      <trkpt lat="42.771340040490031" lon="-7.467284984886646">
        <ele>631</ele>
        <time>2018-05-21T07:12:34Z</time>
      </trkpt>
      <trkpt lat="42.77129796333611" lon="-7.467295965179801">
        <ele>631</ele>
        <time>2018-05-21T07:12:35Z</time>
      </trkpt>
      <trkpt lat="42.771247001364827" lon="-7.467295965179801">
        <ele>632</ele>
        <time>2018-05-21T07:12:37Z</time>
      </trkpt>
      <trkpt lat="42.77121095918119" lon="-7.467308035120368">
        <ele>632</ele>
        <time>2018-05-21T07:12:38Z</time>
      </trkpt>
      <trkpt lat="42.7711689658463" lon="-7.467308035120368">
        <ele>632</ele>
        <time>2018-05-21T07:12:39Z</time>
      </trkpt>
      <trkpt lat="42.771129989996552" lon="-7.467295965179801">
        <ele>632</ele>
        <time>2018-05-21T07:12:40Z</time>
      </trkpt>
      <trkpt lat="42.771095959469676" lon="-7.467279033735395">
        <ele>632</ele>
        <time>2018-05-21T07:12:41Z</time>
      </trkpt>
      <trkpt lat="42.771067963913083" lon="-7.467250032350421">
        <ele>632</ele>
        <time>2018-05-21T07:12:42Z</time>
      </trkpt>
      <trkpt lat="42.77103996835649" lon="-7.467209966853261">
        <ele>632</ele>
        <time>2018-05-21T07:12:43Z</time>
      </trkpt>
      <trkpt lat="42.771011972799897" lon="-7.467159004881978">
        <ele>632</ele>
        <time>2018-05-21T07:12:45Z</time>
      </trkpt>
      <trkpt lat="42.770997975021601" lon="-7.467107037082315">
        <ele>632</ele>
        <time>2018-05-21T07:12:46Z</time>
      </trkpt>
      <trkpt lat="42.770979031920433" lon="-7.467066971585155">
        <ele>632</ele>
        <time>2018-05-21T07:12:47Z</time>
      </trkpt>
      <trkpt lat="42.770960005000234" lon="-7.467015003785491">
        <ele>629</ele>
        <time>2018-05-21T07:12:48Z</time>
      </trkpt>
      <trkpt lat="42.770937038585544" lon="-7.466979967430234">
        <ele>629</ele>
        <time>2018-05-21T07:12:49Z</time>
      </trkpt>
      <trkpt lat="42.770908959209919" lon="-7.466929005458951">
        <ele>629</ele>
        <time>2018-05-21T07:12:51Z</time>
      </trkpt>
      <trkpt lat="42.770885992795229" lon="-7.466853987425566">
        <ele>629</ele>
        <time>2018-05-21T07:12:52Z</time>
      </trkpt>
      <trkpt lat="42.770875012502074" lon="-7.466780981048942">
        <ele>629</ele>
        <time>2018-05-21T07:12:54Z</time>
      </trkpt>
      <trkpt lat="42.770839976146817" lon="-7.466747034341097">
        <ele>629</ele>
        <time>2018-05-21T07:12:55Z</time>
      </trkpt>
      <trkpt lat="42.77080200612545" lon="-7.466699006035924">
        <ele>629</ele>
        <time>2018-05-21T07:12:57Z</time>
      </trkpt>
      <trkpt lat="42.770564965903759" lon="-7.466635974124074">
        <ele>629</ele>
        <time>2018-05-21T07:13:04Z</time>
      </trkpt>
      <trkpt lat="42.770323986187577" lon="-7.46649800799787">
        <ele>627</ele>
        <time>2018-05-21T07:13:12Z</time>
      </trkpt>
      <trkpt lat="42.770237987861037" lon="-7.466420978307724">
        <ele>627</ele>
        <time>2018-05-21T07:13:15Z</time>
      </trkpt>
      <trkpt lat="42.770229019224644" lon="-7.466398011893034">
        <ele>627</ele>
        <time>2018-05-21T07:13:15Z</time>
      </trkpt>
      <trkpt lat="42.770201023668051" lon="-7.466341014951468">
        <ele>627</ele>
        <time>2018-05-21T07:13:17Z</time>
      </trkpt>
      <trkpt lat="42.770197000354528" lon="-7.466288963332772">
        <ele>627</ele>
        <time>2018-05-21T07:13:18Z</time>
      </trkpt>
      <trkpt lat="42.770191971212626" lon="-7.466236995533109">
        <ele>627</ele>
        <time>2018-05-21T07:13:19Z</time>
      </trkpt>
      <trkpt lat="42.770191971212626" lon="-7.466172035783529">
        <ele>628</ele>
        <time>2018-05-21T07:13:20Z</time>
      </trkpt>
      <trkpt lat="42.770191971212626" lon="-7.466117972508073">
        <ele>628</ele>
        <time>2018-05-21T07:13:22Z</time>
      </trkpt>
      <trkpt lat="42.770191971212626" lon="-7.466048989444971">
        <ele>628</ele>
        <time>2018-05-21T07:13:23Z</time>
      </trkpt>
      <trkpt lat="42.770183002576232" lon="-7.465986041352153">
        <ele>628</ele>
        <time>2018-05-21T07:13:25Z</time>
      </trkpt>
      <trkpt lat="42.770173028111458" lon="-7.465934995561838">
        <ele>628</ele>
        <time>2018-05-21T07:13:26Z</time>
      </trkpt>
      <trkpt lat="42.770155007019639" lon="-7.465837011113763">
        <ele>628</ele>
        <time>2018-05-21T07:13:28Z</time>
      </trkpt>
      <trkpt lat="42.77013598009944" lon="-7.465768028050661">
        <ele>628</ele>
        <time>2018-05-21T07:13:29Z</time>
      </trkpt>
      <trkpt lat="42.770127011463046" lon="-7.465715976431966">
        <ele>628</ele>
        <time>2018-05-21T07:13:31Z</time>
      </trkpt>
      <trkpt lat="42.770107984542847" lon="-7.465636013075709">
        <ele>628</ele>
        <time>2018-05-21T07:13:32Z</time>
      </trkpt>
      <trkpt lat="42.77009398676455" lon="-7.465589996427298">
        <ele>628</ele>
        <time>2018-05-21T07:13:33Z</time>
      </trkpt>
      <trkpt lat="42.770074959844351" lon="-7.465543979778886">
        <ele>628</ele>
        <time>2018-05-21T07:13:35Z</time>
      </trkpt>
      <trkpt lat="42.770057022571564" lon="-7.465496035292745">
        <ele>628</ele>
        <time>2018-05-21T07:13:36Z</time>
      </trkpt>
      <trkpt lat="42.770023997873068" lon="-7.465426968410611">
        <ele>628</ele>
        <time>2018-05-21T07:13:38Z</time>
      </trkpt>
      <trkpt lat="42.769990973174572" lon="-7.465364020317793">
        <ele>623</ele>
        <time>2018-05-21T07:13:39Z</time>
      </trkpt>
      <trkpt lat="42.769969012588263" lon="-7.465313980355859">
        <ele>623</ele>
        <time>2018-05-21T07:13:41Z</time>
      </trkpt>
      <trkpt lat="42.769936993718147" lon="-7.465262012556195">
        <ele>623</ele>
        <time>2018-05-21T07:13:42Z</time>
      </trkpt>
      <trkpt lat="42.769910003989935" lon="-7.465223958715797">
        <ele>623</ele>
        <time>2018-05-21T07:13:43Z</time>
      </trkpt>
      <trkpt lat="42.76987798511982" lon="-7.465190012007952">
        <ele>623</ele>
        <time>2018-05-21T07:13:44Z</time>
      </trkpt>
      <trkpt lat="42.769849989563227" lon="-7.465142989531159">
        <ele>623</ele>
        <time>2018-05-21T07:13:46Z</time>
      </trkpt>
      <trkpt lat="42.769807996228337" lon="-7.465103007853031">
        <ele>623</ele>
        <time>2018-05-21T07:13:47Z</time>
      </trkpt>
      <trkpt lat="42.769784023985267" lon="-7.465063026174903">
        <ele>623</ele>
        <time>2018-05-21T07:13:48Z</time>
      </trkpt>
      <trkpt lat="42.769756028428674" lon="-7.465028995648027">
        <ele>623</ele>
        <time>2018-05-21T07:13:49Z</time>
      </trkpt>
      <trkpt lat="42.769738007336855" lon="-7.464982978999615">
        <ele>623</ele>
        <time>2018-05-21T07:13:51Z</time>
      </trkpt>
      <trkpt lat="42.769718980416656" lon="-7.464941991493106">
        <ele>623</ele>
        <time>2018-05-21T07:13:52Z</time>
      </trkpt>
      <trkpt lat="42.769710011780262" lon="-7.464867979288101">
        <ele>623</ele>
        <time>2018-05-21T07:13:53Z</time>
      </trkpt>
      <trkpt lat="42.769700037315488" lon="-7.464816011488438">
        <ele>623</ele>
        <time>2018-05-21T07:13:54Z</time>
      </trkpt>
      <trkpt lat="42.769700037315488" lon="-7.464763959869742">
        <ele>623</ele>
        <time>2018-05-21T07:13:56Z</time>
      </trkpt>
      <trkpt lat="42.769700037315488" lon="-7.464712997898459">
        <ele>623</ele>
        <time>2018-05-21T07:13:57Z</time>
      </trkpt>
      <trkpt lat="42.769700037315488" lon="-7.46465097181499">
        <ele>623</ele>
        <time>2018-05-21T07:13:58Z</time>
      </trkpt>
      <trkpt lat="42.769700037315488" lon="-7.464600009843707">
        <ele>623</ele>
        <time>2018-05-21T07:13:59Z</time>
      </trkpt>
      <trkpt lat="42.769700037315488" lon="-7.464539995416999">
        <ele>623</ele>
        <time>2018-05-21T07:14:00Z</time>
      </trkpt>
      <trkpt lat="42.769700037315488" lon="-7.464489033445716">
        <ele>623</ele>
        <time>2018-05-21T07:14:02Z</time>
      </trkpt>
      <trkpt lat="42.769700037315488" lon="-7.464424995705485">
        <ele>620</ele>
        <time>2018-05-21T07:14:03Z</time>
      </trkpt>
      <trkpt lat="42.769696014001966" lon="-7.464338997378945">
        <ele>620</ele>
        <time>2018-05-21T07:14:05Z</time>
      </trkpt>
      <trkpt lat="42.769696014001966" lon="-7.464226009324193">
        <ele>620</ele>
        <time>2018-05-21T07:14:07Z</time>
      </trkpt>
      <trkpt lat="42.769686039537191" lon="-7.464162977412343">
        <ele>620</ele>
        <time>2018-05-21T07:14:09Z</time>
      </trkpt>
      <trkpt lat="42.769686039537191" lon="-7.464108997955918">
        <ele>620</ele>
        <time>2018-05-21T07:14:10Z</time>
      </trkpt>
      <trkpt lat="42.769676987081766" lon="-7.464052001014352">
        <ele>620</ele>
        <time>2018-05-21T07:14:11Z</time>
      </trkpt>
      <trkpt lat="42.76966298930347" lon="-7.46398301795125">
        <ele>620</ele>
        <time>2018-05-21T07:14:13Z</time>
      </trkpt>
      <trkpt lat="42.769654020667076" lon="-7.463930966332555">
        <ele>620</ele>
        <time>2018-05-21T07:14:14Z</time>
      </trkpt>
      <trkpt lat="42.76964002288878" lon="-7.463873969390988">
        <ele>616</ele>
        <time>2018-05-21T07:14:15Z</time>
      </trkpt>
      <trkpt lat="42.769626025110483" lon="-7.463822001591325">
        <ele>616</ele>
        <time>2018-05-21T07:14:16Z</time>
      </trkpt>
      <trkpt lat="42.76959802955389" lon="-7.463785959407687">
        <ele>616</ele>
        <time>2018-05-21T07:14:18Z</time>
      </trkpt>
      <trkpt lat="42.769579002633691" lon="-7.463740026578307">
        <ele>616</ele>
        <time>2018-05-21T07:14:19Z</time>
      </trkpt>
      <trkpt lat="42.769565004855394" lon="-7.463687974959612">
        <ele>616</ele>
        <time>2018-05-21T07:14:20Z</time>
      </trkpt>
      <trkpt lat="42.769537009298801" lon="-7.463640030473471">
        <ele>616</ele>
        <time>2018-05-21T07:14:21Z</time>
      </trkpt>
      <trkpt lat="42.769509013742208" lon="-7.463604994118214">
        <ele>611</ele>
        <time>2018-05-21T07:14:22Z</time>
      </trkpt>
      <trkpt lat="42.769481018185616" lon="-7.463565012440085">
        <ele>611</ele>
        <time>2018-05-21T07:14:24Z</time>
      </trkpt>
      <trkpt lat="42.769453022629023" lon="-7.463518995791674">
        <ele>611</ele>
        <time>2018-05-21T07:14:25Z</time>
      </trkpt>
      <trkpt lat="42.769421003758907" lon="-7.463484965264797">
        <ele>611</ele>
        <time>2018-05-21T07:14:26Z</time>
      </trkpt>
      <trkpt lat="42.769393008202314" lon="-7.463444983586669">
        <ele>611</ele>
        <time>2018-05-21T07:14:27Z</time>
      </trkpt>
      <trkpt lat="42.769365012645721" lon="-7.463393015787005">
        <ele>611</ele>
        <time>2018-05-21T07:14:29Z</time>
      </trkpt>
      <trkpt lat="42.769337017089128" lon="-7.463358985260129">
        <ele>611</ele>
        <time>2018-05-21T07:14:30Z</time>
      </trkpt>
      <trkpt lat="42.769312039017677" lon="-7.463311040773988">
        <ele>611</ele>
        <time>2018-05-21T07:14:31Z</time>
      </trkpt>
      <trkpt lat="42.769312039017677" lon="-7.463253038004041">
        <ele>611</ele>
        <time>2018-05-21T07:14:32Z</time>
      </trkpt>
      <trkpt lat="42.769312039017677" lon="-7.463200986385346">
        <ele>611</ele>
        <time>2018-05-21T07:14:33Z</time>
      </trkpt>
      <trkpt lat="42.769312039017677" lon="-7.463138038292527">
        <ele>611</ele>
        <time>2018-05-21T07:14:35Z</time>
      </trkpt>
      <trkpt lat="42.769312039017677" lon="-7.463081041350961">
        <ele>611</ele>
        <time>2018-05-21T07:14:36Z</time>
      </trkpt>
      <trkpt lat="42.769315978512168" lon="-7.463028989732266">
        <ele>611</ele>
        <time>2018-05-21T07:14:37Z</time>
      </trkpt>
      <trkpt lat="42.769321007654071" lon="-7.462954977527261">
        <ele>611</ele>
        <time>2018-05-21T07:14:39Z</time>
      </trkpt>
      <trkpt lat="42.769335005432367" lon="-7.462908960878849">
        <ele>611</ele>
        <time>2018-05-21T07:14:40Z</time>
      </trkpt>
      <trkpt lat="42.769355038180947" lon="-7.462842995300889">
        <ele>611</ele>
        <time>2018-05-21T07:14:41Z</time>
      </trkpt>
      <trkpt lat="42.769373981282115" lon="-7.462785998359323">
        <ele>604</ele>
        <time>2018-05-21T07:14:43Z</time>
      </trkpt>
      <trkpt lat="42.769373981282115" lon="-7.462727995589376">
        <ele>604</ele>
        <time>2018-05-21T07:14:44Z</time>
      </trkpt>
      <trkpt lat="42.769373981282115" lon="-7.462670998647809">
        <ele>604</ele>
        <time>2018-05-21T07:14:45Z</time>
      </trkpt>
      <trkpt lat="42.769365012645721" lon="-7.462617019191384">
        <ele>604</ele>
        <time>2018-05-21T07:14:46Z</time>
      </trkpt>
      <trkpt lat="42.769360989332199" lon="-7.462440999224782">
        <ele>604</ele>
        <time>2018-05-21T07:14:50Z</time>
      </trkpt>
      <trkpt lat="42.769355960190296" lon="-7.462487015873194">
        <ele>604</ele>
        <time>2018-05-21T07:14:51Z</time>
      </trkpt>
      <trkpt lat="42.769316984340549" lon="-7.462374027818441">
        <ele>604</ele>
        <time>2018-05-21T07:14:54Z</time>
      </trkpt>
      <trkpt lat="42.769270967692137" lon="-7.462119972333312">
        <ele>604</ele>
        <time>2018-05-21T07:15:00Z</time>
      </trkpt>
      <trkpt lat="42.769246995449066" lon="-7.461988963186741">
        <ele>604</ele>
        <time>2018-05-21T07:15:03Z</time>
      </trkpt>
      <trkpt lat="42.76923400349915" lon="-7.461943030357361">
        <ele>598</ele>
        <time>2018-05-21T07:15:04Z</time>
      </trkpt>
      <trkpt lat="42.769214976578951" lon="-7.461897013708949">
        <ele>598</ele>
        <time>2018-05-21T07:15:05Z</time>
      </trkpt>
      <trkpt lat="42.769196033477783" lon="-7.461816966533661">
        <ele>598</ele>
        <time>2018-05-21T07:15:07Z</time>
      </trkpt>
      <trkpt lat="42.769178012385964" lon="-7.461713030934334">
        <ele>598</ele>
        <time>2018-05-21T07:15:09Z</time>
      </trkpt>
      <trkpt lat="42.769178012385964" lon="-7.461632983759046">
        <ele>598</ele>
        <time>2018-05-21T07:15:11Z</time>
      </trkpt>
      <trkpt lat="42.769178012385964" lon="-7.461564000695944">
        <ele>598</ele>
        <time>2018-05-21T07:15:12Z</time>
      </trkpt>
      <trkpt lat="42.769178012385964" lon="-7.461507003754377">
        <ele>598</ele>
        <time>2018-05-21T07:15:14Z</time>
      </trkpt>
      <trkpt lat="42.769186981022358" lon="-7.461455035954714">
        <ele>598</ele>
        <time>2018-05-21T07:15:15Z</time>
      </trkpt>
      <trkpt lat="42.769196033477783" lon="-7.461398039013147">
        <ele>598</ele>
        <time>2018-05-21T07:15:16Z</time>
      </trkpt>
      <trkpt lat="42.769206007942557" lon="-7.461345987394452">
        <ele>598</ele>
        <time>2018-05-21T07:15:17Z</time>
      </trkpt>
      <trkpt lat="42.76921003125608" lon="-7.46127700433135">
        <ele>598</ele>
        <time>2018-05-21T07:15:19Z</time>
      </trkpt>
      <trkpt lat="42.769220005720854" lon="-7.461230987682939">
        <ele>598</ele>
        <time>2018-05-21T07:15:20Z</time>
      </trkpt>
      <trkpt lat="42.769228974357247" lon="-7.461184971034527">
        <ele>598</ele>
        <time>2018-05-21T07:15:21Z</time>
      </trkpt>
      <trkpt lat="42.769228974357247" lon="-7.46112797409296">
        <ele>597</ele>
        <time>2018-05-21T07:15:22Z</time>
      </trkpt>
      <trkpt lat="42.769220005720854" lon="-7.461076006293297">
        <ele>597</ele>
        <time>2018-05-21T07:15:23Z</time>
      </trkpt>
      <trkpt lat="42.769220005720854" lon="-7.461024038493633">
        <ele>597</ele>
        <time>2018-05-21T07:15:24Z</time>
      </trkpt>
      <trkpt lat="42.76921003125608" lon="-7.460967041552067">
        <ele>597</ele>
        <time>2018-05-21T07:15:26Z</time>
      </trkpt>
      <trkpt lat="42.769187986850739" lon="-7.460874002426863">
        <ele>597</ele>
        <time>2018-05-21T07:15:28Z</time>
      </trkpt>
      <trkpt lat="42.769165020436049" lon="-7.460827985778451">
        <ele>597</ele>
        <time>2018-05-21T07:15:29Z</time>
      </trkpt>
      <trkpt lat="42.769141970202327" lon="-7.46078297495842">
        <ele>597</ele>
        <time>2018-05-21T07:15:30Z</time>
      </trkpt>
      <trkpt lat="42.769115986302495" lon="-7.460727989673615">
        <ele>597</ele>
        <time>2018-05-21T07:15:31Z</time>
      </trkpt>
      <trkpt lat="42.769097965210676" lon="-7.460681973025203">
        <ele>597</ele>
        <time>2018-05-21T07:15:33Z</time>
      </trkpt>
      <trkpt lat="42.769065024331212" lon="-7.460619024932385">
        <ele>597</ele>
        <time>2018-05-21T07:15:34Z</time>
      </trkpt>
      <trkpt lat="42.76904197409749" lon="-7.460566973313689">
        <ele>597</ele>
        <time>2018-05-21T07:15:36Z</time>
      </trkpt>
      <trkpt lat="42.769023030996323" lon="-7.460463959723711">
        <ele>597</ele>
        <time>2018-05-21T07:15:38Z</time>
      </trkpt>
      <trkpt lat="42.769005009904504" lon="-7.460411991924048">
        <ele>597</ele>
        <time>2018-05-21T07:15:39Z</time>
      </trkpt>
      <trkpt lat="42.768991012126207" lon="-7.460348960012198">
        <ele>597</ele>
        <time>2018-05-21T07:15:41Z</time>
      </trkpt>
      <trkpt lat="42.768977014347911" lon="-7.460297998040915">
        <ele>597</ele>
        <time>2018-05-21T07:15:42Z</time>
      </trkpt>
      <trkpt lat="42.768952958285809" lon="-7.460251981392503">
        <ele>597</ele>
        <time>2018-05-21T07:15:43Z</time>
      </trkpt>
      <trkpt lat="42.768938960507512" lon="-7.460193978622556">
        <ele>597</ele>
        <time>2018-05-21T07:15:44Z</time>
      </trkpt>
      <trkpt lat="42.768921023234725" lon="-7.460136981680989">
        <ele>597</ele>
        <time>2018-05-21T07:15:46Z</time>
      </trkpt>
      <trkpt lat="42.768898978829384" lon="-7.460091970860958">
        <ele>597</ele>
        <time>2018-05-21T07:15:47Z</time>
      </trkpt>
      <trkpt lat="42.768875006586313" lon="-7.46002902276814">
        <ele>597</ele>
        <time>2018-05-21T07:15:48Z</time>
      </trkpt>
      <trkpt lat="42.76884701102972" lon="-7.459983006119728">
        <ele>597</ele>
        <time>2018-05-21T07:15:50Z</time>
      </trkpt>
      <trkpt lat="42.768814992159605" lon="-7.459919974207878">
        <ele>597</ele>
        <time>2018-05-21T07:15:51Z</time>
      </trkpt>
      <trkpt lat="42.768772998824716" lon="-7.459868006408215">
        <ele>597</ele>
        <time>2018-05-21T07:15:53Z</time>
      </trkpt>
      <trkpt lat="42.768745003268123" lon="-7.459804974496365">
        <ele>596</ele>
        <time>2018-05-21T07:15:55Z</time>
      </trkpt>
      <trkpt lat="42.768722036853433" lon="-7.459742026403546">
        <ele>596</ele>
        <time>2018-05-21T07:15:56Z</time>
      </trkpt>
      <trkpt lat="42.76869404129684" lon="-7.459706990048289">
        <ele>596</ele>
        <time>2018-05-21T07:15:57Z</time>
      </trkpt>
      <trkpt lat="42.768661016598344" lon="-7.459672959521413">
        <ele>596</ele>
        <time>2018-05-21T07:15:58Z</time>
      </trkpt>
      <trkpt lat="42.768633021041751" lon="-7.459639012813568">
        <ele>596</ele>
        <time>2018-05-21T07:16:00Z</time>
      </trkpt>
      <trkpt lat="42.768593961372972" lon="-7.459614034742117">
        <ele>596</ele>
        <time>2018-05-21T07:16:01Z</time>
      </trkpt>
      <trkpt lat="42.768556997179985" lon="-7.459585033357143">
        <ele>596</ele>
        <time>2018-05-21T07:16:02Z</time>
      </trkpt>
      <trkpt lat="42.768505029380322" lon="-7.45955603197217">
        <ele>596</ele>
        <time>2018-05-21T07:16:04Z</time>
      </trkpt>
      <trkpt lat="42.768473010510206" lon="-7.459532981738448">
        <ele>596</ele>
        <time>2018-05-21T07:16:05Z</time>
      </trkpt>
      <trkpt lat="42.768435040488839" lon="-7.459499035030603">
        <ele>595</ele>
        <time>2018-05-21T07:16:06Z</time>
      </trkpt>
      <trkpt lat="42.768394974991679" lon="-7.459461987018585">
        <ele>595</ele>
        <time>2018-05-21T07:16:08Z</time>
      </trkpt>
      <trkpt lat="42.768362034112215" lon="-7.459432985633612">
        <ele>595</ele>
        <time>2018-05-21T07:16:09Z</time>
      </trkpt>
      <trkpt lat="42.768320040777326" lon="-7.459411025047302">
        <ele>595</ele>
        <time>2018-05-21T07:16:10Z</time>
      </trkpt>
      <trkpt lat="42.768302019685507" lon="-7.459365008398891">
        <ele>595</ele>
        <time>2018-05-21T07:16:11Z</time>
      </trkpt>
      <trkpt lat="42.768286010250449" lon="-7.459314968436956">
        <ele>595</ele>
        <time>2018-05-21T07:16:12Z</time>
      </trkpt>
      <trkpt lat="42.768258014693856" lon="-7.459269035607576">
        <ele>595</ele>
        <time>2018-05-21T07:16:14Z</time>
      </trkpt>
      <trkpt lat="42.768234964460135" lon="-7.459233999252319">
        <ele>595</ele>
        <time>2018-05-21T07:16:15Z</time>
      </trkpt>
      <trkpt lat="42.768196994438767" lon="-7.459194017574191">
        <ele>595</ele>
        <time>2018-05-21T07:16:16Z</time>
      </trkpt>
      <trkpt lat="42.768174028024077" lon="-7.459148000925779">
        <ele>595</ele>
        <time>2018-05-21T07:16:17Z</time>
      </trkpt>
      <trkpt lat="42.768155001103878" lon="-7.459113970398903">
        <ele>595</ele>
        <time>2018-05-21T07:16:18Z</time>
      </trkpt>
      <trkpt lat="42.768122982233763" lon="-7.459072982892394">
        <ele>595</ele>
        <time>2018-05-21T07:16:20Z</time>
      </trkpt>
      <trkpt lat="42.768103033304214" lon="-7.459017997607589">
        <ele>595</ele>
        <time>2018-05-21T07:16:21Z</time>
      </trkpt>
      <trkpt lat="42.768103033304214" lon="-7.458953037858009">
        <ele>595</ele>
        <time>2018-05-21T07:16:22Z</time>
      </trkpt>
      <trkpt lat="42.768117031082511" lon="-7.458900986239314">
        <ele>595</ele>
        <time>2018-05-21T07:16:23Z</time>
      </trkpt>
      <trkpt lat="42.768136980012059" lon="-7.458854969590902">
        <ele>595</ele>
        <time>2018-05-21T07:16:25Z</time>
      </trkpt>
      <trkpt lat="42.768164975568652" lon="-7.458835020661354">
        <ele>595</ele>
        <time>2018-05-21T07:16:26Z</time>
      </trkpt>
      <trkpt lat="42.768193976953626" lon="-7.458807025104761">
        <ele>595</ele>
        <time>2018-05-21T07:16:27Z</time>
      </trkpt>
      <trkpt lat="42.768237981945276" lon="-7.458729995414615">
        <ele>595</ele>
        <time>2018-05-21T07:16:29Z</time>
      </trkpt>
      <trkpt lat="42.768300008028746" lon="-7.458575014024973">
        <ele>594</ele>
        <time>2018-05-21T07:16:33Z</time>
      </trkpt>
      <trkpt lat="42.768300008028746" lon="-7.458566967397928">
        <ele>594</ele>
        <time>2018-05-21T07:16:33Z</time>
      </trkpt>
      <trkpt lat="42.768443003296852" lon="-7.458232026547194">
        <ele>594</ele>
        <time>2018-05-21T07:16:41Z</time>
      </trkpt>
      <trkpt lat="42.768523972481489" lon="-7.458005966618657">
        <ele>594</ele>
        <time>2018-05-21T07:16:47Z</time>
      </trkpt>
      <trkpt lat="42.768609970808029" lon="-7.457790970802307">
        <ele>593</ele>
        <time>2018-05-21T07:16:52Z</time>
      </trkpt>
      <trkpt lat="42.768691023811698" lon="-7.457615034654737">
        <ele>593</ele>
        <time>2018-05-21T07:16:56Z</time>
      </trkpt>
      <trkpt lat="42.768766963854432" lon="-7.457469021901488">
        <ele>595</ele>
        <time>2018-05-21T07:17:00Z</time>
      </trkpt>
      <trkpt lat="42.768778027966619" lon="-7.457427028566599">
        <ele>595</ele>
        <time>2018-05-21T07:17:01Z</time>
      </trkpt>
      <trkpt lat="42.768792025744915" lon="-7.457381011918187">
        <ele>595</ele>
        <time>2018-05-21T07:17:02Z</time>
      </trkpt>
      <trkpt lat="42.768800994381309" lon="-7.457305993884802">
        <ele>595</ele>
        <time>2018-05-21T07:17:04Z</time>
      </trkpt>
      <trkpt lat="42.768806023523211" lon="-7.457255031913519">
        <ele>595</ele>
        <time>2018-05-21T07:17:05Z</time>
      </trkpt>
      <trkpt lat="42.768821027129889" lon="-7.457214966416359">
        <ele>595</ele>
        <time>2018-05-21T07:17:06Z</time>
      </trkpt>
      <trkpt lat="42.768839970231056" lon="-7.45717397890985">
        <ele>595</ele>
        <time>2018-05-21T07:17:07Z</time>
      </trkpt>
      <trkpt lat="42.768855979666114" lon="-7.457131985574961">
        <ele>595</ele>
        <time>2018-05-21T07:17:08Z</time>
      </trkpt>
      <trkpt lat="42.768874000757933" lon="-7.457080017775297">
        <ele>595</ele>
        <time>2018-05-21T07:17:09Z</time>
      </trkpt>
      <trkpt lat="42.768898978829384" lon="-7.457018997520208">
        <ele>591</ele>
        <time>2018-05-21T07:17:11Z</time>
      </trkpt>
      <trkpt lat="42.768928986042738" lon="-7.456989996135235">
        <ele>591</ele>
        <time>2018-05-21T07:17:12Z</time>
      </trkpt>
      <trkpt lat="42.769059995189309" lon="-7.456844989210367">
        <ele>591</ele>
        <time>2018-05-21T07:17:17Z</time>
      </trkpt>
      <trkpt lat="42.769188992679119" lon="-7.456710962578654">
        <ele>591</ele>
        <time>2018-05-21T07:17:22Z</time>
      </trkpt>
      <trkpt lat="42.769354032352567" lon="-7.456552963703871">
        <ele>591</ele>
        <time>2018-05-21T07:17:28Z</time>
      </trkpt>
      <trkpt lat="42.769464002922177" lon="-7.456437963992357">
        <ele>591</ele>
        <time>2018-05-21T07:17:32Z</time>
      </trkpt>
      <trkpt lat="42.769509013742208" lon="-7.456360012292862">
        <ele>591</ele>
        <time>2018-05-21T07:17:34Z</time>
      </trkpt>
      <trkpt lat="42.769536003470421" lon="-7.456264039501548">
        <ele>591</ele>
        <time>2018-05-21T07:17:36Z</time>
      </trkpt>
      <trkpt lat="42.769541032612324" lon="-7.45624702423811">
        <ele>591</ele>
        <time>2018-05-21T07:17:37Z</time>
      </trkpt>
      <trkpt lat="42.769550001248717" lon="-7.456194972619414">
        <ele>581</ele>
        <time>2018-05-21T07:17:38Z</time>
      </trkpt>
      <trkpt lat="42.769563999027014" lon="-7.456143004819751">
        <ele>581</ele>
        <time>2018-05-21T07:17:39Z</time>
      </trkpt>
      <trkpt lat="42.769569028168917" lon="-7.456091959029436">
        <ele>581</ele>
        <time>2018-05-21T07:17:40Z</time>
      </trkpt>
      <trkpt lat="42.769583025947213" lon="-7.456028005108237">
        <ele>581</ele>
        <time>2018-05-21T07:17:42Z</time>
      </trkpt>
      <trkpt lat="42.769583025947213" lon="-7.455971008166671">
        <ele>581</ele>
        <time>2018-05-21T07:17:43Z</time>
      </trkpt>
      <trkpt lat="42.769583025947213" lon="-7.455919040367007">
        <ele>581</ele>
        <time>2018-05-21T07:17:44Z</time>
      </trkpt>
      <trkpt lat="42.76957799680531" lon="-7.455838993191719">
        <ele>581</ele>
        <time>2018-05-21T07:17:46Z</time>
      </trkpt>
      <trkpt lat="42.76957799680531" lon="-7.455780990421772">
        <ele>581</ele>
        <time>2018-05-21T07:17:47Z</time>
      </trkpt>
      <trkpt lat="42.769563999027014" lon="-7.455717958509922">
        <ele>581</ele>
        <time>2018-05-21T07:17:48Z</time>
      </trkpt>
      <trkpt lat="42.76955503039062" lon="-7.455665990710259">
        <ele>581</ele>
        <time>2018-05-21T07:17:50Z</time>
      </trkpt>
      <trkpt lat="42.769541032612324" lon="-7.455591978505254">
        <ele>581</ele>
        <time>2018-05-21T07:17:51Z</time>
      </trkpt>
      <trkpt lat="42.769522005692124" lon="-7.455516960471869">
        <ele>581</ele>
        <time>2018-05-21T07:17:53Z</time>
      </trkpt>
      <trkpt lat="42.769508007913828" lon="-7.455471027642489">
        <ele>581</ele>
        <time>2018-05-21T07:17:54Z</time>
      </trkpt>
      <trkpt lat="42.769488980993629" lon="-7.455407995730639">
        <ele>575</ele>
        <time>2018-05-21T07:17:56Z</time>
      </trkpt>
      <trkpt lat="42.769474983215332" lon="-7.455354016274214">
        <ele>575</ele>
        <time>2018-05-21T07:17:57Z</time>
      </trkpt>
      <trkpt lat="42.769460985437036" lon="-7.455302970483899">
        <ele>575</ele>
        <time>2018-05-21T07:17:58Z</time>
      </trkpt>
      <trkpt lat="42.769460985437036" lon="-7.455240022391081">
        <ele>575</ele>
        <time>2018-05-21T07:17:59Z</time>
      </trkpt>
      <trkpt lat="42.769456962123513" lon="-7.455158969387412">
        <ele>575</ele>
        <time>2018-05-21T07:18:01Z</time>
      </trkpt>
      <trkpt lat="42.769456962123513" lon="-7.455076994374394">
        <ele>575</ele>
        <time>2018-05-21T07:18:03Z</time>
      </trkpt>
      <trkpt lat="42.769446987658739" lon="-7.454996025189757">
        <ele>575</ele>
        <time>2018-05-21T07:18:05Z</time>
      </trkpt>
      <trkpt lat="42.769438019022346" lon="-7.454903991892934">
        <ele>575</ele>
        <time>2018-05-21T07:18:07Z</time>
      </trkpt>
      <trkpt lat="42.76942896656692" lon="-7.454822016879916">
        <ele>575</ele>
        <time>2018-05-21T07:18:09Z</time>
      </trkpt>
      <trkpt lat="42.769418992102146" lon="-7.454758984968066">
        <ele>575</ele>
        <time>2018-05-21T07:18:10Z</time>
      </trkpt>
      <trkpt lat="42.769418992102146" lon="-7.454705005511642">
        <ele>575</ele>
        <time>2018-05-21T07:18:11Z</time>
      </trkpt>
      <trkpt lat="42.769410023465753" lon="-7.454648008570075">
        <ele>575</ele>
        <time>2018-05-21T07:18:12Z</time>
      </trkpt>
      <trkpt lat="42.769396025687456" lon="-7.454575002193451">
        <ele>575</ele>
        <time>2018-05-21T07:18:14Z</time>
      </trkpt>
      <trkpt lat="42.769386973232031" lon="-7.454511970281601">
        <ele>575</ele>
        <time>2018-05-21T07:18:15Z</time>
      </trkpt>
      <trkpt lat="42.769368030130863" lon="-7.454460002481937">
        <ele>575</ele>
        <time>2018-05-21T07:18:17Z</time>
      </trkpt>
      <trkpt lat="42.769350009039044" lon="-7.454367969185114">
        <ele>571</ele>
        <time>2018-05-21T07:18:19Z</time>
      </trkpt>
      <trkpt lat="42.769326036795974" lon="-7.454261016100645">
        <ele>571</ele>
        <time>2018-05-21T07:18:21Z</time>
      </trkpt>
      <trkpt lat="42.769316984340549" lon="-7.454203013330698">
        <ele>571</ele>
        <time>2018-05-21T07:18:22Z</time>
      </trkpt>
      <trkpt lat="42.769294017925858" lon="-7.454146016389132">
        <ele>571</ele>
        <time>2018-05-21T07:18:24Z</time>
      </trkpt>
      <trkpt lat="42.769280020147562" lon="-7.454093964770436">
        <ele>571</ele>
        <time>2018-05-21T07:18:25Z</time>
      </trkpt>
      <trkpt lat="42.769254958257079" lon="-7.454022970050573">
        <ele>571</ele>
        <time>2018-05-21T07:18:27Z</time>
      </trkpt>
      <trkpt lat="42.76921103708446" lon="-7.453876035287976">
        <ele>571</ele>
        <time>2018-05-21T07:18:30Z</time>
      </trkpt>
      <trkpt lat="42.76908203959465" lon="-7.453696997836232">
        <ele>571</ele>
        <time>2018-05-21T07:18:36Z</time>
      </trkpt>
      <trkpt lat="42.768985982984304" lon="-7.453526007011533">
        <ele>572</ele>
        <time>2018-05-21T07:18:40Z</time>
      </trkpt>
      <trkpt lat="42.768905013799667" lon="-7.453339006751776">
        <ele>572</ele>
        <time>2018-05-21T07:18:45Z</time>
      </trkpt>
      <trkpt lat="42.768807029351592" lon="-7.453182013705373">
        <ele>572</ele>
        <time>2018-05-21T07:18:50Z</time>
      </trkpt>
      <trkpt lat="42.768777022138238" lon="-7.453151000663638">
        <ele>572</ele>
        <time>2018-05-21T07:18:51Z</time>
      </trkpt>
      <trkpt lat="42.768753971904516" lon="-7.453104984015226">
        <ele>566</ele>
        <time>2018-05-21T07:18:52Z</time>
      </trkpt>
      <trkpt lat="42.768731005489826" lon="-7.453042035922408">
        <ele>566</ele>
        <time>2018-05-21T07:18:53Z</time>
      </trkpt>
      <trkpt lat="42.768693035468459" lon="-7.453000964596868">
        <ele>566</ele>
        <time>2018-05-21T07:18:55Z</time>
      </trkpt>
      <trkpt lat="42.768594967201352" lon="-7.452894011512399">
        <ele>566</ele>
        <time>2018-05-21T07:18:59Z</time>
      </trkpt>
      <trkpt lat="42.768375026062131" lon="-7.452742969617248">
        <ele>571</ele>
        <time>2018-05-21T07:19:06Z</time>
      </trkpt>
      <trkpt lat="42.768134968355298" lon="-7.452568039298058">
        <ele>571</ele>
        <time>2018-05-21T07:19:14Z</time>
      </trkpt>
      <trkpt lat="42.767823999747634" lon="-7.452355977147818">
        <ele>563</ele>
        <time>2018-05-21T07:19:24Z</time>
      </trkpt>
      <trkpt lat="42.767617972567677" lon="-7.452180041000247">
        <ele>563</ele>
        <time>2018-05-21T07:19:31Z</time>
      </trkpt>
      <trkpt lat="42.767617972567677" lon="-7.452171994373202">
        <ele>563</ele>
        <time>2018-05-21T07:19:32Z</time>
      </trkpt>
      <trkpt lat="42.76747296564281" lon="-7.452066969126463">
        <ele>563</ele>
        <time>2018-05-21T07:19:36Z</time>
      </trkpt>
      <trkpt lat="42.767310021445155" lon="-7.451935959979892">
        <ele>568</ele>
        <time>2018-05-21T07:19:42Z</time>
      </trkpt>
      <trkpt lat="42.76712897233665" lon="-7.45178097859025">
        <ele>568</ele>
        <time>2018-05-21T07:19:48Z</time>
      </trkpt>
      <trkpt lat="42.766955969855189" lon="-7.451613005250692">
        <ele>556</ele>
        <time>2018-05-21T07:19:55Z</time>
      </trkpt>
      <trkpt lat="42.766749020665884" lon="-7.45139298029244">
        <ele>556</ele>
        <time>2018-05-21T07:20:02Z</time>
      </trkpt>
      <trkpt lat="42.766565037891269" lon="-7.451184019446373">
        <ele>556</ele>
        <time>2018-05-21T07:20:09Z</time>
      </trkpt>
      <trkpt lat="42.766405027359724" lon="-7.451030965894461">
        <ele>560</ele>
        <time>2018-05-21T07:20:15Z</time>
      </trkpt>
      <trkpt lat="42.766228001564741" lon="-7.450839020311832">
        <ele>548</ele>
        <time>2018-05-21T07:20:22Z</time>
      </trkpt>
      <trkpt lat="42.766108978539705" lon="-7.450692001730204">
        <ele>548</ele>
        <time>2018-05-21T07:20:27Z</time>
      </trkpt>
      <trkpt lat="42.765995990484953" lon="-7.450488992035389">
        <ele>548</ele>
        <time>2018-05-21T07:20:32Z</time>
      </trkpt>
      <trkpt lat="42.765915021300316" lon="-7.45033903978765">
        <ele>546</ele>
        <time>2018-05-21T07:20:36Z</time>
      </trkpt>
      <trkpt lat="42.765873027965426" lon="-7.45033903978765">
        <ele>546</ele>
        <time>2018-05-21T07:20:37Z</time>
      </trkpt>
      <trkpt lat="42.765833968296647" lon="-7.45033903978765">
        <ele>546</ele>
        <time>2018-05-21T07:20:39Z</time>
      </trkpt>
      <trkpt lat="42.765794992446899" lon="-7.450322024524212">
        <ele>546</ele>
        <time>2018-05-21T07:20:40Z</time>
      </trkpt>
      <trkpt lat="42.765756016597152" lon="-7.450315989553928">
        <ele>546</ele>
        <time>2018-05-21T07:20:41Z</time>
      </trkpt>
      <trkpt lat="42.765718968585134" lon="-7.45029897429049">
        <ele>546</ele>
        <time>2018-05-21T07:20:42Z</time>
      </trkpt>
      <trkpt lat="42.765665994957089" lon="-7.450280031189323">
        <ele>546</ele>
        <time>2018-05-21T07:20:44Z</time>
      </trkpt>
      <trkpt lat="42.765621989965439" lon="-7.450267961248756">
        <ele>546</ele>
        <time>2018-05-21T07:20:45Z</time>
      </trkpt>
      <trkpt lat="42.765583014115691" lon="-7.450267961248756">
        <ele>546</ele>
        <time>2018-05-21T07:20:46Z</time>
      </trkpt>
      <trkpt lat="42.765544038265944" lon="-7.450267961248756">
        <ele>546</ele>
        <time>2018-05-21T07:20:47Z</time>
      </trkpt>
      <trkpt lat="42.765501039102674" lon="-7.450280031189323">
        <ele>546</ele>
        <time>2018-05-21T07:20:49Z</time>
      </trkpt>
      <trkpt lat="42.765466002747416" lon="-7.450311966240406">
        <ele>543</ele>
        <time>2018-05-21T07:20:50Z</time>
      </trkpt>
      <trkpt lat="42.765443036332726" lon="-7.450342979282141">
        <ele>543</ele>
        <time>2018-05-21T07:20:51Z</time>
      </trkpt>
      <trkpt lat="42.765386961400509" lon="-7.450382960960269">
        <ele>544</ele>
        <time>2018-05-21T07:20:53Z</time>
      </trkpt>
      <trkpt lat="42.765386961400509" lon="-7.450398970395327">
        <ele>544</ele>
        <time>2018-05-21T07:20:53Z</time>
      </trkpt>
      <trkpt lat="42.765337005257607" lon="-7.4504469987005">
        <ele>544</ele>
        <time>2018-05-21T07:20:55Z</time>
      </trkpt>
      <trkpt lat="42.765337005257607" lon="-7.450454961508513">
        <ele>544</ele>
        <time>2018-05-21T07:20:55Z</time>
      </trkpt>
      <trkpt lat="42.765252012759447" lon="-7.450525034219027">
        <ele>544</ele>
        <time>2018-05-21T07:20:58Z</time>
      </trkpt>
      <trkpt lat="42.765232985839248" lon="-7.450525034219027">
        <ele>544</ele>
        <time>2018-05-21T07:20:59Z</time>
      </trkpt>
      <trkpt lat="42.765239020809531" lon="-7.450517993420363">
        <ele>544</ele>
        <time>2018-05-21T07:20:59Z</time>
      </trkpt>
      <trkpt lat="42.765260981395841" lon="-7.450483040884137">
        <ele>544</ele>
        <time>2018-05-21T07:21:00Z</time>
      </trkpt>
      <trkpt lat="42.765285959467292" lon="-7.450445992872119">
        <ele>544</ele>
        <time>2018-05-21T07:21:01Z</time>
      </trkpt>
      <trkpt lat="42.765305992215872" lon="-7.45040399953723">
        <ele>544</ele>
        <time>2018-05-21T07:21:02Z</time>
      </trkpt>
      <trkpt lat="42.765333987772465" lon="-7.450369969010353">
        <ele>544</ele>
        <time>2018-05-21T07:21:03Z</time>
      </trkpt>
      <trkpt lat="42.765353014692664" lon="-7.450342979282141">
        <ele>543</ele>
        <time>2018-05-21T07:21:04Z</time>
      </trkpt>
      <trkpt lat="42.765372963622212" lon="-7.450296962633729">
        <ele>543</ele>
        <time>2018-05-21T07:21:05Z</time>
      </trkpt>
      <trkpt lat="42.765410011634231" lon="-7.450267961248756">
        <ele>543</ele>
        <time>2018-05-21T07:21:06Z</time>
      </trkpt>
      <trkpt lat="42.765444964170456" lon="-7.450251029804349">
        <ele>543</ele>
        <time>2018-05-21T07:21:07Z</time>
      </trkpt>
      <trkpt lat="42.765478994697332" lon="-7.450237032026053">
        <ele>546</ele>
        <time>2018-05-21T07:21:09Z</time>
      </trkpt>
      <trkpt lat="42.765510007739067" lon="-7.450225967913866">
        <ele>546</ele>
        <time>2018-05-21T07:21:09Z</time>
      </trkpt>
      <trkpt lat="42.765544038265944" lon="-7.450213981792331">
        <ele>546</ele>
        <time>2018-05-21T07:21:10Z</time>
      </trkpt>
      <trkpt lat="42.765573961660266" lon="-7.450203001499176">
        <ele>546</ele>
        <time>2018-05-21T07:21:11Z</time>
      </trkpt>
      <trkpt lat="42.765616038814187" lon="-7.450203001499176">
        <ele>546</ele>
        <time>2018-05-21T07:21:13Z</time>
      </trkpt>
      <trkpt lat="42.765655014663935" lon="-7.450213981792331">
        <ele>546</ele>
        <time>2018-05-21T07:21:14Z</time>
      </trkpt>
      <trkpt lat="42.765691978856921" lon="-7.450225967913866">
        <ele>546</ele>
        <time>2018-05-21T07:21:15Z</time>
      </trkpt>
      <trkpt lat="42.765731038525701" lon="-7.450237032026053">
        <ele>546</ele>
        <time>2018-05-21T07:21:16Z</time>
      </trkpt>
      <trkpt lat="42.76577303186059" lon="-7.450237032026053">
        <ele>546</ele>
        <time>2018-05-21T07:21:17Z</time>
      </trkpt>
      <trkpt lat="42.765817958861589" lon="-7.450237032026053">
        <ele>546</ele>
        <time>2018-05-21T07:21:19Z</time>
      </trkpt>
      <trkpt lat="42.765856012701988" lon="-7.450225967913866">
        <ele>546</ele>
        <time>2018-05-21T07:21:20Z</time>
      </trkpt>
      <trkpt lat="42.765895994380116" lon="-7.450225967913866">
        <ele>546</ele>
        <time>2018-05-21T07:21:21Z</time>
      </trkpt>
      <trkpt lat="42.765947040170431" lon="-7.450257986783981">
        <ele>546</ele>
        <time>2018-05-21T07:21:23Z</time>
      </trkpt>
      <trkpt lat="42.765982998535037" lon="-7.45023300871253">
        <ele>546</ele>
        <time>2018-05-21T07:21:24Z</time>
      </trkpt>
      <trkpt lat="42.766024991869926" lon="-7.450192021206021">
        <ele>546</ele>
        <time>2018-05-21T07:21:25Z</time>
      </trkpt>
      <trkpt lat="42.766061034053564" lon="-7.450132006779313">
        <ele>546</ele>
        <time>2018-05-21T07:21:27Z</time>
      </trkpt>
      <trkpt lat="42.766087017953396" lon="-7.450074004009366">
        <ele>546</ele>
        <time>2018-05-21T07:21:29Z</time>
      </trkpt>
      <trkpt lat="42.766106966882944" lon="-7.450008960440755">
        <ele>546</ele>
        <time>2018-05-21T07:21:30Z</time>
      </trkpt>
      <trkpt lat="42.766134040430188" lon="-7.44995104148984">
        <ele>546</ele>
        <time>2018-05-21T07:21:32Z</time>
      </trkpt>
      <trkpt lat="42.766161030158401" lon="-7.449885997921228">
        <ele>546</ele>
        <time>2018-05-21T07:21:33Z</time>
      </trkpt>
      <trkpt lat="42.766201011836529" lon="-7.44984501041472">
        <ele>546</ele>
        <time>2018-05-21T07:21:35Z</time>
      </trkpt>
      <trkpt lat="42.766247028484941" lon="-7.449794970452786">
        <ele>546</ele>
        <time>2018-05-21T07:21:36Z</time>
      </trkpt>
      <trkpt lat="42.766280975192785" lon="-7.449751971289516">
        <ele>546</ele>
        <time>2018-05-21T07:21:38Z</time>
      </trkpt>
      <trkpt lat="42.766320034861565" lon="-7.449709977954626">
        <ele>552</ele>
        <time>2018-05-21T07:21:39Z</time>
      </trkpt>
      <trkpt lat="42.766347024589777" lon="-7.449645018205047">
        <ele>552</ele>
        <time>2018-05-21T07:21:41Z</time>
      </trkpt>
      <trkpt lat="42.766374014317989" lon="-7.449571006000042">
        <ele>552</ele>
        <time>2018-05-21T07:21:43Z</time>
      </trkpt>
      <trkpt lat="42.766393963247538" lon="-7.449496993795037">
        <ele>548</ele>
        <time>2018-05-21T07:21:44Z</time>
      </trkpt>
      <trkpt lat="42.766413995996118" lon="-7.449432034045458">
        <ele>548</ele>
        <time>2018-05-21T07:21:46Z</time>
      </trkpt>
      <trkpt lat="42.766447020694613" lon="-7.449381994083524">
        <ele>548</ele>
        <time>2018-05-21T07:21:47Z</time>
      </trkpt>
      <trkpt lat="42.766460012644529" lon="-7.449317034333944">
        <ele>548</ele>
        <time>2018-05-21T07:21:49Z</time>
      </trkpt>
      <trkpt lat="42.766479961574078" lon="-7.449250984936953">
        <ele>548</ele>
        <time>2018-05-21T07:21:50Z</time>
      </trkpt>
      <trkpt lat="42.766508962959051" lon="-7.449190970510244">
        <ele>548</ele>
        <time>2018-05-21T07:21:52Z</time>
      </trkpt>
      <trkpt lat="42.766522960737348" lon="-7.449132967740297">
        <ele>548</ele>
        <time>2018-05-21T07:21:53Z</time>
      </trkpt>
      <trkpt lat="42.766542993485928" lon="-7.449047975242138">
        <ele>548</ele>
        <time>2018-05-21T07:21:55Z</time>
      </trkpt>
      <trkpt lat="42.766568977385759" lon="-7.448983015492559">
        <ele>548</ele>
        <time>2018-05-21T07:21:57Z</time>
      </trkpt>
      <trkpt lat="42.766582975164056" lon="-7.448909003287554">
        <ele>548</ele>
        <time>2018-05-21T07:21:58Z</time>
      </trkpt>
      <trkpt lat="42.766603007912636" lon="-7.448818981647492">
        <ele>548</ele>
        <time>2018-05-21T07:22:00Z</time>
      </trkpt>
      <trkpt lat="42.766628991812468" lon="-7.448760978877544">
        <ele>548</ele>
        <time>2018-05-21T07:22:02Z</time>
      </trkpt>
      <trkpt lat="42.766636032611132" lon="-7.44868696667254">
        <ele>542</ele>
        <time>2018-05-21T07:22:04Z</time>
      </trkpt>
      <trkpt lat="42.766642989590764" lon="-7.448613960295916">
        <ele>542</ele>
        <time>2018-05-21T07:22:05Z</time>
      </trkpt>
      <trkpt lat="42.76665598154068" lon="-7.448530979454517">
        <ele>542</ele>
        <time>2018-05-21T07:22:07Z</time>
      </trkpt>
      <trkpt lat="42.76665598154068" lon="-7.44845001026988">
        <ele>542</ele>
        <time>2018-05-21T07:22:09Z</time>
      </trkpt>
      <trkpt lat="42.76665598154068" lon="-7.448358982801437">
        <ele>542</ele>
        <time>2018-05-21T07:22:11Z</time>
      </trkpt>
      <trkpt lat="42.76665598154068" lon="-7.448284970596433">
        <ele>542</ele>
        <time>2018-05-21T07:22:12Z</time>
      </trkpt>
      <trkpt lat="42.76665598154068" lon="-7.448202995583415">
        <ele>542</ele>
        <time>2018-05-21T07:22:14Z</time>
      </trkpt>
      <trkpt lat="42.766668973490596" lon="-7.44812898337841">
        <ele>542</ele>
        <time>2018-05-21T07:22:16Z</time>
      </trkpt>
      <trkpt lat="42.76667601428926" lon="-7.448055977001786">
        <ele>542</ele>
        <time>2018-05-21T07:22:17Z</time>
      </trkpt>
      <trkpt lat="42.766695963218808" lon="-7.447981964796782">
        <ele>542</ele>
        <time>2018-05-21T07:22:19Z</time>
      </trkpt>
      <trkpt lat="42.766715995967388" lon="-7.447915999218822">
        <ele>542</ele>
        <time>2018-05-21T07:22:21Z</time>
      </trkpt>
      <trkpt lat="42.766736028715968" lon="-7.447841987013817">
        <ele>536</ele>
        <time>2018-05-21T07:22:22Z</time>
      </trkpt>
      <trkpt lat="42.76674197986722" lon="-7.447767974808812">
        <ele>536</ele>
        <time>2018-05-21T07:22:24Z</time>
      </trkpt>
      <trkpt lat="42.766765030100942" lon="-7.447707960382104">
        <ele>536</ele>
        <time>2018-05-21T07:22:25Z</time>
      </trkpt>
      <trkpt lat="42.766778022050858" lon="-7.447625985369086">
        <ele>536</ele>
        <time>2018-05-21T07:22:27Z</time>
      </trkpt>
      <trkpt lat="42.76680501177907" lon="-7.447560019791126">
        <ele>536</ele>
        <time>2018-05-21T07:22:29Z</time>
      </trkpt>
      <trkpt lat="42.766830995678902" lon="-7.447510985657573">
        <ele>536</ele>
        <time>2018-05-21T07:22:30Z</time>
      </trkpt>
      <trkpt lat="42.766859997063875" lon="-7.447443008422852">
        <ele>536</ele>
        <time>2018-05-21T07:22:32Z</time>
      </trkpt>
      <trkpt lat="42.766880029812455" lon="-7.447368996217847">
        <ele>536</ele>
        <time>2018-05-21T07:22:34Z</time>
      </trkpt>
      <trkpt lat="42.766894027590752" lon="-7.447303030639887">
        <ele>536</ele>
        <time>2018-05-21T07:22:35Z</time>
      </trkpt>
      <trkpt lat="42.766986982896924" lon="-7.447115024551749">
        <ele>536</ele>
        <time>2018-05-21T07:22:40Z</time>
      </trkpt>
      <trkpt lat="42.767028976231813" lon="-7.447048975154758">
        <ele>531</ele>
        <time>2018-05-21T07:22:42Z</time>
      </trkpt>
      <trkpt lat="42.76708303950727" lon="-7.446974962949753">
        <ele>531</ele>
        <time>2018-05-21T07:22:44Z</time>
      </trkpt>
      <trkpt lat="42.767125032842159" lon="-7.446922995150089">
        <ele>535</ele>
        <time>2018-05-21T07:22:46Z</time>
      </trkpt>
      <trkpt lat="42.767173983156681" lon="-7.446855017915368">
        <ele>535</ele>
        <time>2018-05-21T07:22:48Z</time>
      </trkpt>
      <trkpt lat="42.767213964834809" lon="-7.446811012923718">
        <ele>535</ele>
        <time>2018-05-21T07:22:49Z</time>
      </trkpt>
      <trkpt lat="42.767350003123283" lon="-7.446665000170469">
        <ele>535</ele>
        <time>2018-05-21T07:22:55Z</time>
      </trkpt>
      <trkpt lat="42.767510013654828" lon="-7.446468025445938">
        <ele>535</ele>
        <time>2018-05-21T07:23:01Z</time>
      </trkpt>
      <trkpt lat="42.767678992822766" lon="-7.446283958852291">
        <ele>535</ele>
        <time>2018-05-21T07:23:07Z</time>
      </trkpt>
      <trkpt lat="42.767807990312576" lon="-7.446123026311398">
        <ele>530</ele>
        <time>2018-05-21T07:23:13Z</time>
      </trkpt>
      <trkpt lat="42.767968000844121" lon="-7.445961004123092">
        <ele>531</ele>
        <time>2018-05-21T07:23:18Z</time>
      </trkpt>
      <trkpt lat="42.768173022195697" lon="-7.445750031620264">
        <ele>531</ele>
        <time>2018-05-21T07:23:26Z</time>
      </trkpt>
      <trkpt lat="42.768312999978662" lon="-7.445592032745481">
        <ele>531</ele>
        <time>2018-05-21T07:23:31Z</time>
      </trkpt>
      <trkpt lat="42.768463036045432" lon="-7.445453982800245">
        <ele>531</ele>
        <time>2018-05-21T07:23:37Z</time>
      </trkpt>
      <trkpt lat="42.768551968038082" lon="-7.445287015289068">
        <ele>527</ele>
        <time>2018-05-21T07:23:41Z</time>
      </trkpt>
      <trkpt lat="42.768561020493507" lon="-7.445266982540488">
        <ele>527</ele>
        <time>2018-05-21T07:23:42Z</time>
      </trkpt>
      <trkpt lat="42.768574012443423" lon="-7.445199005305767">
        <ele>527</ele>
        <time>2018-05-21T07:23:43Z</time>
      </trkpt>
      <trkpt lat="42.768582981079817" lon="-7.445130022242665">
        <ele>527</ele>
        <time>2018-05-21T07:23:45Z</time>
      </trkpt>
      <trkpt lat="42.768582981079817" lon="-7.445049975067377">
        <ele>527</ele>
        <time>2018-05-21T07:23:46Z</time>
      </trkpt>
      <trkpt lat="42.768582981079817" lon="-7.444964982569218">
        <ele>527</ele>
        <time>2018-05-21T07:23:48Z</time>
      </trkpt>
      <trkpt lat="42.768582981079817" lon="-7.444888958707452">
        <ele>519</ele>
        <time>2018-05-21T07:23:50Z</time>
      </trkpt>
      <trkpt lat="42.768582981079817" lon="-7.444812012836337">
        <ele>527</ele>
        <time>2018-05-21T07:23:52Z</time>
      </trkpt>
      <trkpt lat="42.768582981079817" lon="-7.444738000631332">
        <ele>527</ele>
        <time>2018-05-21T07:23:53Z</time>
      </trkpt>
      <trkpt lat="42.768590021878481" lon="-7.444660970941186">
        <ele>527</ele>
        <time>2018-05-21T07:23:55Z</time>
      </trkpt>
      <trkpt lat="42.768609970808029" lon="-7.444605985656381">
        <ele>527</ele>
        <time>2018-05-21T07:23:56Z</time>
      </trkpt>
      <trkpt lat="42.768624974414706" lon="-7.444529961794615">
        <ele>527</ele>
        <time>2018-05-21T07:23:58Z</time>
      </trkpt>
      <trkpt lat="42.768659004941583" lon="-7.444463996216655">
        <ele>527</ele>
        <time>2018-05-21T07:24:00Z</time>
      </trkpt>
      <trkpt lat="42.768698986619711" lon="-7.44438998401165">
        <ele>522</ele>
        <time>2018-05-21T07:24:02Z</time>
      </trkpt>
      <trkpt lat="42.768738968297839" lon="-7.444332987070084">
        <ele>522</ele>
        <time>2018-05-21T07:24:03Z</time>
      </trkpt>
      <trkpt lat="42.768771992996335" lon="-7.444274984300137">
        <ele>519</ele>
        <time>2018-05-21T07:24:05Z</time>
      </trkpt>
      <trkpt lat="42.768800994381309" lon="-7.444214969873428">
        <ele>519</ele>
        <time>2018-05-21T07:24:07Z</time>
      </trkpt>
      <trkpt lat="42.768850028514862" lon="-7.444187980145216">
        <ele>519</ele>
        <time>2018-05-21T07:24:08Z</time>
      </trkpt>
      <trkpt lat="42.768908031284809" lon="-7.444187980145216">
        <ele>519</ele>
        <time>2018-05-21T07:24:10Z</time>
      </trkpt>
      <trkpt lat="42.768969973549247" lon="-7.444187980145216">
        <ele>519</ele>
        <time>2018-05-21T07:24:12Z</time>
      </trkpt>
      <trkpt lat="42.7690190076828" lon="-7.444212036207318">
        <ele>519</ele>
        <time>2018-05-21T07:24:13Z</time>
      </trkpt>
      <trkpt lat="42.769077010452747" lon="-7.444272972643375">
        <ele>519</ele>
        <time>2018-05-21T07:24:15Z</time>
      </trkpt>
      <trkpt lat="42.769193015992641" lon="-7.444322006776929">
        <ele>519</ele>
        <time>2018-05-21T07:24:19Z</time>
      </trkpt>
      <trkpt lat="42.769316984340549" lon="-7.444379003718495">
        <ele>519</ele>
        <time>2018-05-21T07:24:23Z</time>
      </trkpt>
      <trkpt lat="42.769372975453734" lon="-7.444379003718495">
        <ele>519</ele>
        <time>2018-05-21T07:24:25Z</time>
      </trkpt>
      <trkpt lat="42.769432989880443" lon="-7.444379003718495">
        <ele>519</ele>
        <time>2018-05-21T07:24:26Z</time>
      </trkpt>
      <trkpt lat="42.769488980993629" lon="-7.444379003718495">
        <ele>519</ele>
        <time>2018-05-21T07:24:28Z</time>
      </trkpt>
      <trkpt lat="42.769547989591956" lon="-7.444379003718495">
        <ele>519</ele>
        <time>2018-05-21T07:24:30Z</time>
      </trkpt>
      <trkpt lat="42.76959802955389" lon="-7.444359976798296">
        <ele>519</ele>
        <time>2018-05-21T07:24:31Z</time>
      </trkpt>
      <trkpt lat="42.769653014838696" lon="-7.444331981241703">
        <ele>515</ele>
        <time>2018-05-21T07:24:33Z</time>
      </trkpt>
      <trkpt lat="42.76968696154654" lon="-7.444283030927181">
        <ele>515</ele>
        <time>2018-05-21T07:24:34Z</time>
      </trkpt>
      <trkpt lat="42.769729038700461" lon="-7.444258974865079">
        <ele>515</ele>
        <time>2018-05-21T07:24:36Z</time>
      </trkpt>
      <trkpt lat="42.769767008721828" lon="-7.444227961823344">
        <ele>515</ele>
        <time>2018-05-21T07:24:37Z</time>
      </trkpt>
      <trkpt lat="42.769796010106802" lon="-7.444182028993964">
        <ele>515</ele>
        <time>2018-05-21T07:24:38Z</time>
      </trkpt>
      <trkpt lat="42.769829034805298" lon="-7.444138024002314">
        <ele>515</ele>
        <time>2018-05-21T07:24:40Z</time>
      </trkpt>
      <trkpt lat="42.76985602453351" lon="-7.44408798404038">
        <ele>515</ele>
        <time>2018-05-21T07:24:41Z</time>
      </trkpt>
      <trkpt lat="42.769890977069736" lon="-7.44404498487711">
        <ele>515</ele>
        <time>2018-05-21T07:24:43Z</time>
      </trkpt>
      <trkpt lat="42.769935987889767" lon="-7.444016989320517">
        <ele>515</ele>
        <time>2018-05-21T07:24:44Z</time>
      </trkpt>
      <trkpt lat="42.769972030073404" lon="-7.443976001814008">
        <ele>515</ele>
        <time>2018-05-21T07:24:45Z</time>
      </trkpt>
      <trkpt lat="42.77000698260963" lon="-7.443928979337215">
        <ele>515</ele>
        <time>2018-05-21T07:24:47Z</time>
      </trkpt>
      <trkpt lat="42.770039001479745" lon="-7.443896038457751">
        <ele>515</ele>
        <time>2018-05-21T07:24:48Z</time>
      </trkpt>
      <trkpt lat="42.770080994814634" lon="-7.443854967132211">
        <ele>515</ele>
        <time>2018-05-21T07:24:50Z</time>
      </trkpt>
      <trkpt lat="42.770120976492763" lon="-7.443822026252747">
        <ele>515</ele>
        <time>2018-05-21T07:24:51Z</time>
      </trkpt>
      <trkpt lat="42.770164981484413" lon="-7.443772992119193">
        <ele>515</ele>
        <time>2018-05-21T07:24:53Z</time>
      </trkpt>
      <trkpt lat="42.770209992304444" lon="-7.443748014047742">
        <ele>515</ele>
        <time>2018-05-21T07:24:54Z</time>
      </trkpt>
      <trkpt lat="42.770251985639334" lon="-7.443691017106175">
        <ele>515</ele>
        <time>2018-05-21T07:24:56Z</time>
      </trkpt>
      <trkpt lat="42.770291967317462" lon="-7.44365799240768">
        <ele>515</ele>
        <time>2018-05-21T07:24:57Z</time>
      </trkpt>
      <trkpt lat="42.770332032814622" lon="-7.443624967709184">
        <ele>508</ele>
        <time>2018-05-21T07:24:59Z</time>
      </trkpt>
      <trkpt lat="42.770376959815621" lon="-7.44359496049583">
        <ele>508</ele>
        <time>2018-05-21T07:25:00Z</time>
      </trkpt>
      <trkpt lat="42.770421970635653" lon="-7.443567970767617">
        <ele>508</ele>
        <time>2018-05-21T07:25:02Z</time>
      </trkpt>
      <trkpt lat="42.770462036132813" lon="-7.443537041544914">
        <ele>508</ele>
        <time>2018-05-21T07:25:03Z</time>
      </trkpt>
      <trkpt lat="42.770517021417618" lon="-7.443521032109857">
        <ele>504</ele>
        <time>2018-05-21T07:25:05Z</time>
      </trkpt>
      <trkpt lat="42.770577035844326" lon="-7.443488007411361">
        <ele>504</ele>
        <time>2018-05-21T07:25:07Z</time>
      </trkpt>
      <trkpt lat="42.770631015300751" lon="-7.44346302933991">
        <ele>504</ele>
        <time>2018-05-21T07:25:08Z</time>
      </trkpt>
      <trkpt lat="42.770668985322118" lon="-7.443431010469794">
        <ele>504</ele>
        <time>2018-05-21T07:25:10Z</time>
      </trkpt>
      <trkpt lat="42.77071500197053" lon="-7.443413995206356">
        <ele>504</ele>
        <time>2018-05-21T07:25:11Z</time>
      </trkpt>
      <trkpt lat="42.770764036104083" lon="-7.443390022963285">
        <ele>504</ele>
        <time>2018-05-21T07:25:12Z</time>
      </trkpt>
      <trkpt lat="42.770816003903747" lon="-7.443364961072803">
        <ele>504</ele>
        <time>2018-05-21T07:25:14Z</time>
      </trkpt>
      <trkpt lat="42.770870989188552" lon="-7.443364961072803">
        <ele>504</ele>
        <time>2018-05-21T07:25:16Z</time>
      </trkpt>
      <trkpt lat="42.77091097086668" lon="-7.443329002708197">
        <ele>504</ele>
        <time>2018-05-21T07:25:17Z</time>
      </trkpt>
      <trkpt lat="42.770920023322105" lon="-7.443258007988334">
        <ele>504</ele>
        <time>2018-05-21T07:25:19Z</time>
      </trkpt>
      <trkpt lat="42.770912982523441" lon="-7.443173015490174">
        <ele>504</ele>
        <time>2018-05-21T07:25:21Z</time>
      </trkpt>
      <trkpt lat="42.770899990573525" lon="-7.443104032427073">
        <ele>504</ele>
        <time>2018-05-21T07:25:22Z</time>
      </trkpt>
      <trkpt lat="42.770899990573525" lon="-7.443031026050448">
        <ele>504</ele>
        <time>2018-05-21T07:25:24Z</time>
      </trkpt>
      <trkpt lat="42.770880041643977" lon="-7.442973023280501">
        <ele>504</ele>
        <time>2018-05-21T07:25:25Z</time>
      </trkpt>
      <trkpt lat="42.770860008895397" lon="-7.442904962226749">
        <ele>504</ele>
        <time>2018-05-21T07:25:27Z</time>
      </trkpt>
      <trkpt lat="42.770852968096733" lon="-7.442789962515235">
        <ele>503</ele>
        <time>2018-05-21T07:25:29Z</time>
      </trkpt>
      <trkpt lat="42.770833019167185" lon="-7.442716034129262">
        <ele>503</ele>
        <time>2018-05-21T07:25:31Z</time>
      </trkpt>
      <trkpt lat="42.770820027217269" lon="-7.442608997225761">
        <ele>503</ele>
        <time>2018-05-21T07:25:33Z</time>
      </trkpt>
      <trkpt lat="42.770799994468689" lon="-7.442524004727602">
        <ele>503</ele>
        <time>2018-05-21T07:25:35Z</time>
      </trkpt>
      <trkpt lat="42.770745009183884" lon="-7.442355025559664">
        <ele>503</ele>
        <time>2018-05-21T07:25:39Z</time>
      </trkpt>
      <trkpt lat="42.770710978657007" lon="-7.44202402420342">
        <ele>503</ele>
        <time>2018-05-21T07:25:46Z</time>
      </trkpt>
      <trkpt lat="42.770635960623622" lon="-7.441728981211782">
        <ele>505</ele>
        <time>2018-05-21T07:25:53Z</time>
      </trkpt>
      <trkpt lat="42.77063000947237" lon="-7.441626973450184">
        <ele>505</ele>
        <time>2018-05-21T07:25:55Z</time>
      </trkpt>
      <trkpt lat="42.770596984773874" lon="-7.44129597209394">
        <ele>505</ele>
        <time>2018-05-21T07:26:03Z</time>
      </trkpt>
      <trkpt lat="42.77056303806603" lon="-7.441084999591112">
        <ele>507</ele>
        <time>2018-05-21T07:26:07Z</time>
      </trkpt>
      <trkpt lat="42.770509980618954" lon="-7.440759027376771">
        <ele>507</ele>
        <time>2018-05-21T07:26:15Z</time>
      </trkpt>
      <trkpt lat="42.770482990890741" lon="-7.440502038225532">
        <ele>507</ele>
        <time>2018-05-21T07:26:20Z</time>
      </trkpt>
      <trkpt lat="42.77045700699091" lon="-7.440412016585469">
        <ele>503</ele>
        <time>2018-05-21T07:26:22Z</time>
      </trkpt>
      <trkpt lat="42.77043697424233" lon="-7.440338004380465">
        <ele>501</ele>
        <time>2018-05-21T07:26:24Z</time>
      </trkpt>
      <trkpt lat="42.770422976464033" lon="-7.440256029367447">
        <ele>501</ele>
        <time>2018-05-21T07:26:26Z</time>
      </trkpt>
      <trkpt lat="42.770390035584569" lon="-7.440173970535398">
        <ele>501</ele>
        <time>2018-05-21T07:26:28Z</time>
      </trkpt>
      <trkpt lat="42.770343013107777" lon="-7.440116973593831">
        <ele>501</ele>
        <time>2018-05-21T07:26:30Z</time>
      </trkpt>
      <trkpt lat="42.770296996459365" lon="-7.440051008015871">
        <ele>501</ele>
        <time>2018-05-21T07:26:32Z</time>
      </trkpt>
      <trkpt lat="42.770255003124475" lon="-7.440003985539079">
        <ele>501</ele>
        <time>2018-05-21T07:26:33Z</time>
      </trkpt>
      <trkpt lat="42.770220972597599" lon="-7.43996299803257">
        <ele>501</ele>
        <time>2018-05-21T07:26:35Z</time>
      </trkpt>
      <trkpt lat="42.770175039768219" lon="-7.439939025789499">
        <ele>501</ele>
        <time>2018-05-21T07:26:36Z</time>
      </trkpt>
      <trkpt lat="42.770122988149524" lon="-7.439913963899016">
        <ele>501</ele>
        <time>2018-05-21T07:26:38Z</time>
      </trkpt>
      <trkpt lat="42.770076971501112" lon="-7.439881023019552">
        <ele>501</ele>
        <time>2018-05-21T07:26:39Z</time>
      </trkpt>
      <trkpt lat="42.77002802118659" lon="-7.439840035513043">
        <ele>501</ele>
        <time>2018-05-21T07:26:41Z</time>
      </trkpt>
      <trkpt lat="42.769989967346191" lon="-7.439796030521393">
        <ele>501</ele>
        <time>2018-05-21T07:26:43Z</time>
      </trkpt>
      <trkpt lat="42.769943028688431" lon="-7.439763005822897">
        <ele>501</ele>
        <time>2018-05-21T07:26:44Z</time>
      </trkpt>
      <trkpt lat="42.769901035353541" lon="-7.439702991396189">
        <ele>501</ele>
        <time>2018-05-21T07:26:46Z</time>
      </trkpt>
      <trkpt lat="42.769885025918484" lon="-7.439642976969481">
        <ele>501</ele>
        <time>2018-05-21T07:26:47Z</time>
      </trkpt>
      <trkpt lat="42.769885025918484" lon="-7.439557984471321">
        <ele>501</ele>
        <time>2018-05-21T07:26:49Z</time>
      </trkpt>
      <trkpt lat="42.769906986504793" lon="-7.43946997448802">
        <ele>501</ele>
        <time>2018-05-21T07:26:51Z</time>
      </trkpt>
      <trkpt lat="42.76994101703167" lon="-7.439343994483352">
        <ele>501</ele>
        <time>2018-05-21T07:26:54Z</time>
      </trkpt>
      <trkpt lat="42.770068002864718" lon="-7.43910301476717">
        <ele>501</ele>
        <time>2018-05-21T07:27:00Z</time>
      </trkpt>
      <trkpt lat="42.770146038383245" lon="-7.438897993415594">
        <ele>501</ele>
        <time>2018-05-21T07:27:05Z</time>
      </trkpt>
      <trkpt lat="42.77028601616621" lon="-7.438585013151169">
        <ele>501</ele>
        <time>2018-05-21T07:27:13Z</time>
      </trkpt>
      <trkpt lat="42.77028601616621" lon="-7.438574032858014">
        <ele>501</ele>
        <time>2018-05-21T07:27:14Z</time>
      </trkpt>
      <trkpt lat="42.770407972857356" lon="-7.438335986807942">
        <ele>501</ele>
        <time>2018-05-21T07:27:20Z</time>
      </trkpt>
      <trkpt lat="42.770491037517786" lon="-7.438190979883075">
        <ele>505</ele>
        <time>2018-05-21T07:27:24Z</time>
      </trkpt>
      <trkpt lat="42.77050000615418" lon="-7.438190979883075">
        <ele>505</ele>
        <time>2018-05-21T07:27:24Z</time>
      </trkpt>
      <trkpt lat="42.770633026957512" lon="-7.437955029308796">
        <ele>505</ele>
        <time>2018-05-21T07:27:31Z</time>
      </trkpt>
      <trkpt lat="42.770731011405587" lon="-7.437797030434012">
        <ele>504</ele>
        <time>2018-05-21T07:27:35Z</time>
      </trkpt>
      <trkpt lat="42.770807035267353" lon="-7.43764003738761">
        <ele>504</ele>
        <time>2018-05-21T07:27:39Z</time>
      </trkpt>
      <trkpt lat="42.770902002230287" lon="-7.437429986894131">
        <ele>504</ele>
        <time>2018-05-21T07:27:45Z</time>
      </trkpt>
      <trkpt lat="42.770978026092052" lon="-7.43721297942102">
        <ele>504</ele>
        <time>2018-05-21T07:27:50Z</time>
      </trkpt>
      <trkpt lat="42.771065030246973" lon="-7.436958001926541">
        <ele>501</ele>
        <time>2018-05-21T07:27:56Z</time>
      </trkpt>
      <trkpt lat="42.771180029958487" lon="-7.436607973650098">
        <ele>501</ele>
        <time>2018-05-21T07:28:04Z</time>
      </trkpt>
      <trkpt lat="42.771238032728434" lon="-7.436437988653779">
        <ele>501</ele>
        <time>2018-05-21T07:28:08Z</time>
      </trkpt>
      <trkpt lat="42.771296035498381" lon="-7.43624403141439">
        <ele>503</ele>
        <time>2018-05-21T07:28:13Z</time>
      </trkpt>
      <trkpt lat="42.771309027448297" lon="-7.436200026422739">
        <ele>501</ele>
        <time>2018-05-21T07:28:14Z</time>
      </trkpt>
      <trkpt lat="42.771323025226593" lon="-7.43611796759069">
        <ele>501</ele>
        <time>2018-05-21T07:28:16Z</time>
      </trkpt>
      <trkpt lat="42.771363006904721" lon="-7.436076980084181">
        <ele>501</ele>
        <time>2018-05-21T07:28:17Z</time>
      </trkpt>
      <trkpt lat="42.771412041038275" lon="-7.436048984527588">
        <ele>501</ele>
        <time>2018-05-21T07:28:19Z</time>
      </trkpt>
      <trkpt lat="42.771471971645951" lon="-7.436007997021079">
        <ele>501</ele>
        <time>2018-05-21T07:28:21Z</time>
      </trkpt>
      <trkpt lat="42.771527040749788" lon="-7.436000034213066">
        <ele>501</ele>
        <time>2018-05-21T07:28:22Z</time>
      </trkpt>
      <trkpt lat="42.771584959700704" lon="-7.43596700951457">
        <ele>501</ele>
        <time>2018-05-21T07:28:24Z</time>
      </trkpt>
      <trkpt lat="42.771625025197864" lon="-7.4359430372715">
        <ele>501</ele>
        <time>2018-05-21T07:28:25Z</time>
      </trkpt>
      <trkpt lat="42.771673975512385" lon="-7.435892997309566">
        <ele>501</ele>
        <time>2018-05-21T07:28:27Z</time>
      </trkpt>
      <trkpt lat="42.771720997989178" lon="-7.43586097843945">
        <ele>501</ele>
        <time>2018-05-21T07:28:29Z</time>
      </trkpt>
      <trkpt lat="42.771781012415886" lon="-7.435843963176012">
        <ele>501</ele>
        <time>2018-05-21T07:28:31Z</time>
      </trkpt>
      <trkpt lat="42.77183398604393" lon="-7.435836000367999">
        <ele>501</ele>
        <time>2018-05-21T07:28:32Z</time>
      </trkpt>
      <trkpt lat="42.771901041269302" lon="-7.435836000367999">
        <ele>501</ele>
        <time>2018-05-21T07:28:34Z</time>
      </trkpt>
      <trkpt lat="42.771956026554108" lon="-7.435836000367999">
        <ele>501</ele>
        <time>2018-05-21T07:28:36Z</time>
      </trkpt>
      <trkpt lat="42.772014029324055" lon="-7.435843963176012">
        <ele>501</ele>
        <time>2018-05-21T07:28:37Z</time>
      </trkpt>
      <trkpt lat="42.772067002952099" lon="-7.435852009803057">
        <ele>501</ele>
        <time>2018-05-21T07:28:39Z</time>
      </trkpt>
      <trkpt lat="42.772122994065285" lon="-7.43586097843945">
        <ele>490</ele>
        <time>2018-05-21T07:28:41Z</time>
      </trkpt>
      <trkpt lat="42.772162975743413" lon="-7.435901965945959">
        <ele>490</ele>
        <time>2018-05-21T07:28:42Z</time>
      </trkpt>
      <trkpt lat="42.772191977128386" lon="-7.4359430372715">
        <ele>490</ele>
        <time>2018-05-21T07:28:43Z</time>
      </trkpt>
      <trkpt lat="42.772225001826882" lon="-7.435991987586021">
        <ele>490</ele>
        <time>2018-05-21T07:28:45Z</time>
      </trkpt>
      <trkpt lat="42.772272024303675" lon="-7.436048984527588">
        <ele>490</ele>
        <time>2018-05-21T07:28:47Z</time>
      </trkpt>
      <trkpt lat="42.772312005981803" lon="-7.436099024489522">
        <ele>490</ele>
        <time>2018-05-21T07:28:48Z</time>
      </trkpt>
      <trkpt lat="42.772345030680299" lon="-7.436172030866146">
        <ele>490</ele>
        <time>2018-05-21T07:28:50Z</time>
      </trkpt>
      <trkpt lat="42.772380989044905" lon="-7.436230033636093">
        <ele>490</ele>
        <time>2018-05-21T07:28:52Z</time>
      </trkpt>
      <trkpt lat="42.772428011521697" lon="-7.436218969523907">
        <ele>490</ele>
        <time>2018-05-21T07:28:53Z</time>
      </trkpt>
      <trkpt lat="42.772436980158091" lon="-7.436146968975663">
        <ele>490</ele>
        <time>2018-05-21T07:28:55Z</time>
      </trkpt>
      <trkpt lat="42.772436980158091" lon="-7.436073962599039">
        <ele>490</ele>
        <time>2018-05-21T07:28:56Z</time>
      </trkpt>
      <trkpt lat="42.772436980158091" lon="-7.435990981757641">
        <ele>490</ele>
        <time>2018-05-21T07:28:58Z</time>
      </trkpt>
      <trkpt lat="42.772430023178458" lon="-7.435909006744623">
        <ele>490</ele>
        <time>2018-05-21T07:29:00Z</time>
      </trkpt>
      <trkpt lat="42.772422982379794" lon="-7.435827031731606">
        <ele>490</ele>
        <time>2018-05-21T07:29:02Z</time>
      </trkpt>
      <trkpt lat="42.772422982379794" lon="-7.435754025354981">
        <ele>490</ele>
        <time>2018-05-21T07:29:03Z</time>
      </trkpt>
      <trkpt lat="42.772422982379794" lon="-7.435649000108242">
        <ele>490</ele>
        <time>2018-05-21T07:29:06Z</time>
      </trkpt>
      <trkpt lat="42.772409990429878" lon="-7.435517990961671">
        <ele>490</ele>
        <time>2018-05-21T07:29:09Z</time>
      </trkpt>
      <trkpt lat="42.772381994873285" lon="-7.43527801707387">
        <ele>481</ele>
        <time>2018-05-21T07:29:14Z</time>
      </trkpt>
      <trkpt lat="42.772381994873285" lon="-7.435205010697246">
        <ele>481</ele>
        <time>2018-05-21T07:29:15Z</time>
      </trkpt>
      <trkpt lat="42.772369002923369" lon="-7.435130998492241">
        <ele>481</ele>
        <time>2018-05-21T07:29:17Z</time>
      </trkpt>
      <trkpt lat="42.772369002923369" lon="-7.435046005994082">
        <ele>481</ele>
        <time>2018-05-21T07:29:19Z</time>
      </trkpt>
      <trkpt lat="42.772361962124705" lon="-7.434971993789077">
        <ele>481</ele>
        <time>2018-05-21T07:29:21Z</time>
      </trkpt>
      <trkpt lat="42.772355005145073" lon="-7.434897981584072">
        <ele>481</ele>
        <time>2018-05-21T07:29:22Z</time>
      </trkpt>
      <trkpt lat="42.772355005145073" lon="-7.43480795994401">
        <ele>481</ele>
        <time>2018-05-21T07:29:24Z</time>
      </trkpt>
      <trkpt lat="42.772355005145073" lon="-7.434701006859541">
        <ele>481</ele>
        <time>2018-05-21T07:29:26Z</time>
      </trkpt>
      <trkpt lat="42.772355005145073" lon="-7.434619031846523">
        <ele>481</ele>
        <time>2018-05-21T07:29:28Z</time>
      </trkpt>
      <trkpt lat="42.772355005145073" lon="-7.434520963579416">
        <ele>481</ele>
        <time>2018-05-21T07:29:30Z</time>
      </trkpt>
      <trkpt lat="42.772355005145073" lon="-7.434431025758386">
        <ele>475</ele>
        <time>2018-05-21T07:29:32Z</time>
      </trkpt>
      <trkpt lat="42.772355005145073" lon="-7.434357013553381">
        <ele>475</ele>
        <time>2018-05-21T07:29:34Z</time>
      </trkpt>
      <trkpt lat="42.772355005145073" lon="-7.434275038540363">
        <ele>475</ele>
        <time>2018-05-21T07:29:36Z</time>
      </trkpt>
      <trkpt lat="42.772355005145073" lon="-7.434201026335359">
        <ele>475</ele>
        <time>2018-05-21T07:29:37Z</time>
      </trkpt>
      <trkpt lat="42.772355005145073" lon="-7.434127014130354">
        <ele>475</ele>
        <time>2018-05-21T07:29:39Z</time>
      </trkpt>
      <trkpt lat="42.772375037893653" lon="-7.434058031067252">
        <ele>475</ele>
        <time>2018-05-21T07:29:41Z</time>
      </trkpt>
      <trkpt lat="42.772407978773117" lon="-7.434001034125686">
        <ele>475</ele>
        <time>2018-05-21T07:29:42Z</time>
      </trkpt>
      <trkpt lat="42.772421976551414" lon="-7.433927021920681">
        <ele>475</ele>
        <time>2018-05-21T07:29:44Z</time>
      </trkpt>
      <trkpt lat="42.772442009299994" lon="-7.433853009715676">
        <ele>475</ele>
        <time>2018-05-21T07:29:46Z</time>
      </trkpt>
      <trkpt lat="42.772442009299994" lon="-7.433771034702659">
        <ele>475</ele>
        <time>2018-05-21T07:29:47Z</time>
      </trkpt>
      <trkpt lat="42.772442009299994" lon="-7.433681013062596">
        <ele>475</ele>
        <time>2018-05-21T07:29:49Z</time>
      </trkpt>
      <trkpt lat="42.772442009299994" lon="-7.433580011129379">
        <ele>469</ele>
        <time>2018-05-21T07:29:51Z</time>
      </trkpt>
      <trkpt lat="42.772442009299994" lon="-7.433505998924375">
        <ele>469</ele>
        <time>2018-05-21T07:29:53Z</time>
      </trkpt>
      <trkpt lat="42.772442009299994" lon="-7.433424023911357">
        <ele>469</ele>
        <time>2018-05-21T07:29:55Z</time>
      </trkpt>
      <trkpt lat="42.772447960451245" lon="-7.433316987007856">
        <ele>469</ele>
        <time>2018-05-21T07:29:57Z</time>
      </trkpt>
      <trkpt lat="42.772475033998489" lon="-7.433251021429896">
        <ele>469</ele>
        <time>2018-05-21T07:29:59Z</time>
      </trkpt>
      <trkpt lat="42.772502023726702" lon="-7.433185977861285">
        <ele>469</ele>
        <time>2018-05-21T07:30:00Z</time>
      </trkpt>
      <trkpt lat="42.77254200540483" lon="-7.433120012283325">
        <ele>469</ele>
        <time>2018-05-21T07:30:02Z</time>
      </trkpt>
      <trkpt lat="42.772588022053242" lon="-7.433070978149772">
        <ele>469</ele>
        <time>2018-05-21T07:30:04Z</time>
      </trkpt>
      <trkpt lat="42.772621968761086" lon="-7.433013981208205">
        <ele>469</ele>
        <time>2018-05-21T07:30:06Z</time>
      </trkpt>
      <trkpt lat="42.772662034258246" lon="-7.432964025065303">
        <ele>469</ele>
        <time>2018-05-21T07:30:07Z</time>
      </trkpt>
      <trkpt lat="42.772694975137711" lon="-7.432914990931749">
        <ele>469</ele>
        <time>2018-05-21T07:30:09Z</time>
      </trkpt>
      <trkpt lat="42.772717019543052" lon="-7.432866040617228">
        <ele>469</ele>
        <time>2018-05-21T07:30:10Z</time>
      </trkpt>
      <trkpt lat="42.772723976522684" lon="-7.432792028412223">
        <ele>463</ele>
        <time>2018-05-21T07:30:12Z</time>
      </trkpt>
      <trkpt lat="42.772731017321348" lon="-7.432718016207218">
        <ele>463</ele>
        <time>2018-05-21T07:30:13Z</time>
      </trkpt>
      <trkpt lat="42.7727369684726" lon="-7.432627994567156">
        <ele>463</ele>
        <time>2018-05-21T07:30:15Z</time>
      </trkpt>
      <trkpt lat="42.772749960422516" lon="-7.432546019554138">
        <ele>463</ele>
        <time>2018-05-21T07:30:17Z</time>
      </trkpt>
      <trkpt lat="42.7727369684726" lon="-7.432477036491036">
        <ele>463</ele>
        <time>2018-05-21T07:30:19Z</time>
      </trkpt>
      <trkpt lat="42.7727369684726" lon="-7.432367987930775">
        <ele>463</ele>
        <time>2018-05-21T07:30:21Z</time>
      </trkpt>
      <trkpt lat="42.7727369684726" lon="-7.432286012917757">
        <ele>463</ele>
        <time>2018-05-21T07:30:23Z</time>
      </trkpt>
      <trkpt lat="42.7727369684726" lon="-7.432212000712752">
        <ele>463</ele>
        <time>2018-05-21T07:30:25Z</time>
      </trkpt>
      <trkpt lat="42.772744009271264" lon="-7.432127008214593">
        <ele>463</ele>
        <time>2018-05-21T07:30:26Z</time>
      </trkpt>
      <trkpt lat="42.772749960422516" lon="-7.432049978524447">
        <ele>463</ele>
        <time>2018-05-21T07:30:28Z</time>
      </trkpt>
      <trkpt lat="42.772763958200812" lon="-7.431989964097738">
        <ele>463</ele>
        <time>2018-05-21T07:30:29Z</time>
      </trkpt>
      <trkpt lat="42.772763958200812" lon="-7.431913018226624">
        <ele>449</ele>
        <time>2018-05-21T07:30:31Z</time>
      </trkpt>
      <trkpt lat="42.772763958200812" lon="-7.431840011849999">
        <ele>449</ele>
        <time>2018-05-21T07:30:33Z</time>
      </trkpt>
      <trkpt lat="42.772763958200812" lon="-7.431762982159853">
        <ele>449</ele>
        <time>2018-05-21T07:30:35Z</time>
      </trkpt>
      <trkpt lat="42.772763958200812" lon="-7.431649994105101">
        <ele>449</ele>
        <time>2018-05-21T07:30:37Z</time>
      </trkpt>
      <trkpt lat="42.77275700122118" lon="-7.431566007435322">
        <ele>449</ele>
        <time>2018-05-21T07:30:39Z</time>
      </trkpt>
      <trkpt lat="42.77275700122118" lon="-7.431483026593924">
        <ele>449</ele>
        <time>2018-05-21T07:30:41Z</time>
      </trkpt>
      <trkpt lat="42.772749960422516" lon="-7.431407002732158">
        <ele>449</ele>
        <time>2018-05-21T07:30:42Z</time>
      </trkpt>
      <trkpt lat="42.772749960422516" lon="-7.431332990527153">
        <ele>449</ele>
        <time>2018-05-21T07:30:44Z</time>
      </trkpt>
      <trkpt lat="42.772749960422516" lon="-7.431258978322148">
        <ele>449</ele>
        <time>2018-05-21T07:30:46Z</time>
      </trkpt>
      <trkpt lat="42.772769993171096" lon="-7.431201981380582">
        <ele>449</ele>
        <time>2018-05-21T07:30:47Z</time>
      </trkpt>
      <trkpt lat="42.772798994556069" lon="-7.431140961125493">
        <ele>440</ele>
        <time>2018-05-21T07:30:49Z</time>
      </trkpt>
      <trkpt lat="42.772848028689623" lon="-7.431099973618984">
        <ele>440</ele>
        <time>2018-05-21T07:30:50Z</time>
      </trkpt>
      <trkpt lat="42.772899996489286" lon="-7.431048005819321">
        <ele>440</ele>
        <time>2018-05-21T07:30:52Z</time>
      </trkpt>
      <trkpt lat="42.772941989824176" lon="-7.430998971685767">
        <ele>438</ele>
        <time>2018-05-21T07:30:54Z</time>
      </trkpt>
      <trkpt lat="42.772981971502304" lon="-7.430950021371245">
        <ele>438</ele>
        <time>2018-05-21T07:30:56Z</time>
      </trkpt>
      <trkpt lat="42.773028993979096" lon="-7.430892018601298">
        <ele>438</ele>
        <time>2018-05-21T07:30:57Z</time>
      </trkpt>
      <trkpt lat="42.77307802811265" lon="-7.430859999731183">
        <ele>450</ele>
        <time>2018-05-21T07:30:59Z</time>
      </trkpt>
      <trkpt lat="42.773267040029168" lon="-7.43076603859663">
        <ele>438</ele>
        <time>2018-05-21T07:31:05Z</time>
      </trkpt>
      <trkpt lat="42.773376004770398" lon="-7.430666964501143">
        <ele>438</ele>
        <time>2018-05-21T07:31:09Z</time>
      </trkpt>
      <trkpt lat="42.77355101890862" lon="-7.430602004751563">
        <ele>438</ele>
        <time>2018-05-21T07:31:14Z</time>
      </trkpt>
      <trkpt lat="42.773759979754686" lon="-7.430544001981616">
        <ele>450</ele>
        <time>2018-05-21T07:31:21Z</time>
      </trkpt>
      <trkpt lat="42.773780012503266" lon="-7.430536039173603">
        <ele>450</ele>
        <time>2018-05-21T07:31:21Z</time>
      </trkpt>
      <trkpt lat="42.77383298613131" lon="-7.430520029738545">
        <ele>450</ele>
        <time>2018-05-21T07:31:23Z</time>
      </trkpt>
      <trkpt lat="42.773871039971709" lon="-7.43048700504005">
        <ele>450</ele>
        <time>2018-05-21T07:31:24Z</time>
      </trkpt>
      <trkpt lat="42.77391797862947" lon="-7.430469989776611">
        <ele>450</ele>
        <time>2018-05-21T07:31:26Z</time>
      </trkpt>
      <trkpt lat="42.773967012763023" lon="-7.430450962856412">
        <ele>450</ele>
        <time>2018-05-21T07:31:27Z</time>
      </trkpt>
      <trkpt lat="42.774006994441152" lon="-7.430393965914846">
        <ele>450</ele>
        <time>2018-05-21T07:31:29Z</time>
      </trkpt>
      <trkpt lat="42.774054016917944" lon="-7.430361025035381">
        <ele>450</ele>
        <time>2018-05-21T07:31:30Z</time>
      </trkpt>
      <trkpt lat="42.77408704161644" lon="-7.430321965366602">
        <ele>440</ele>
        <time>2018-05-21T07:31:32Z</time>
      </trkpt>
      <trkpt lat="42.774131968617439" lon="-7.430291958153248">
        <ele>440</ele>
        <time>2018-05-21T07:31:33Z</time>
      </trkpt>
      <trkpt lat="42.774172034114599" lon="-7.430243007838726">
        <ele>440</ele>
        <time>2018-05-21T07:31:35Z</time>
      </trkpt>
      <trkpt lat="42.774204974994063" lon="-7.430206965655088">
        <ele>440</ele>
        <time>2018-05-21T07:31:36Z</time>
      </trkpt>
      <trkpt lat="42.774231964722276" lon="-7.430147035047412">
        <ele>440</ele>
        <time>2018-05-21T07:31:38Z</time>
      </trkpt>
      <trkpt lat="42.774251997470856" lon="-7.430070005357266">
        <ele>440</ele>
        <time>2018-05-21T07:31:39Z</time>
      </trkpt>
      <trkpt lat="42.774301031604409" lon="-7.429891973733902">
        <ele>440</ele>
        <time>2018-05-21T07:31:43Z</time>
      </trkpt>
      <trkpt lat="42.774354005232453" lon="-7.429698016494513">
        <ele>440</ele>
        <time>2018-05-21T07:31:48Z</time>
      </trkpt>
      <trkpt lat="42.774354005232453" lon="-7.429648982360959">
        <ele>440</ele>
        <time>2018-05-21T07:31:49Z</time>
      </trkpt>
      <trkpt lat="42.774374037981033" lon="-7.429574970155954">
        <ele>440</ele>
        <time>2018-05-21T07:31:51Z</time>
      </trkpt>
      <trkpt lat="42.774380994960666" lon="-7.429489977657795">
        <ele>435</ele>
        <time>2018-05-21T07:31:53Z</time>
      </trkpt>
      <trkpt lat="42.774401027709246" lon="-7.429424012079835">
        <ele>435</ele>
        <time>2018-05-21T07:31:54Z</time>
      </trkpt>
      <trkpt lat="42.774407984688878" lon="-7.429347988218069">
        <ele>435</ele>
        <time>2018-05-21T07:31:56Z</time>
      </trkpt>
      <trkpt lat="42.774428017437458" lon="-7.429279005154967">
        <ele>435</ele>
        <time>2018-05-21T07:31:57Z</time>
      </trkpt>
      <trkpt lat="42.77443396858871" lon="-7.429204992949963">
        <ele>435</ele>
        <time>2018-05-21T07:31:59Z</time>
      </trkpt>
      <trkpt lat="42.774443021044135" lon="-7.429128969088197">
        <ele>435</ele>
        <time>2018-05-21T07:32:01Z</time>
      </trkpt>
      <trkpt lat="42.774443021044135" lon="-7.429029978811741">
        <ele>435</ele>
        <time>2018-05-21T07:32:03Z</time>
      </trkpt>
      <trkpt lat="42.774449978023767" lon="-7.428955966606736">
        <ele>435</ele>
        <time>2018-05-21T07:32:05Z</time>
      </trkpt>
      <trkpt lat="42.774486020207405" lon="-7.428903998807073">
        <ele>435</ele>
        <time>2018-05-21T07:32:06Z</time>
      </trkpt>
      <trkpt lat="42.774512004107237" lon="-7.428854964673519">
        <ele>435</ele>
        <time>2018-05-21T07:32:07Z</time>
      </trkpt>
      <trkpt lat="42.774545028805733" lon="-7.428806014358997">
        <ele>435</ele>
        <time>2018-05-21T07:32:09Z</time>
      </trkpt>
      <trkpt lat="42.774572018533945" lon="-7.428755974397063">
        <ele>435</ele>
        <time>2018-05-21T07:32:10Z</time>
      </trkpt>
      <trkpt lat="42.774599008262157" lon="-7.428698977455497">
        <ele>436</ele>
        <time>2018-05-21T07:32:12Z</time>
      </trkpt>
      <trkpt lat="42.774620968848467" lon="-7.428638963028789">
        <ele>436</ele>
        <time>2018-05-21T07:32:13Z</time>
      </trkpt>
      <trkpt lat="42.774657011032104" lon="-7.428596969693899">
        <ele>438</ele>
        <time>2018-05-21T07:32:14Z</time>
      </trkpt>
      <trkpt lat="42.774699004366994" lon="-7.428565034642816">
        <ele>438</ele>
        <time>2018-05-21T07:32:16Z</time>
      </trkpt>
      <trkpt lat="42.77473202906549" lon="-7.428507031872869">
        <ele>438</ele>
        <time>2018-05-21T07:32:18Z</time>
      </trkpt>
      <trkpt lat="42.774772010743618" lon="-7.428457997739315">
        <ele>438</ele>
        <time>2018-05-21T07:32:19Z</time>
      </trkpt>
      <trkpt lat="42.774804029613733" lon="-7.428394965827465">
        <ele>438</ele>
        <time>2018-05-21T07:32:21Z</time>
      </trkpt>
      <trkpt lat="42.774830013513565" lon="-7.428336963057518">
        <ele>438</ele>
        <time>2018-05-21T07:32:22Z</time>
      </trkpt>
      <trkpt lat="42.774869995191693" lon="-7.428295975551009">
        <ele>438</ele>
        <time>2018-05-21T07:32:24Z</time>
      </trkpt>
      <trkpt lat="42.774896984919906" lon="-7.428247025236487">
        <ele>438</ele>
        <time>2018-05-21T07:32:25Z</time>
      </trkpt>
      <trkpt lat="42.774936966598034" lon="-7.428190028294921">
        <ele>438</ele>
        <time>2018-05-21T07:32:27Z</time>
      </trkpt>
      <trkpt lat="42.774963034316897" lon="-7.428132025524974">
        <ele>438</ele>
        <time>2018-05-21T07:32:28Z</time>
      </trkpt>
      <trkpt lat="42.775003015995026" lon="-7.42808299139142">
        <ele>438</ele>
        <time>2018-05-21T07:32:30Z</time>
      </trkpt>
      <trkpt lat="42.77503696270287" lon="-7.428034041076899">
        <ele>438</ele>
        <time>2018-05-21T07:32:31Z</time>
      </trkpt>
      <trkpt lat="42.775075016543269" lon="-7.427978971973062">
        <ele>438</ele>
        <time>2018-05-21T07:32:33Z</time>
      </trkpt>
      <trkpt lat="42.775114998221397" lon="-7.427937984466553">
        <ele>438</ele>
        <time>2018-05-21T07:32:34Z</time>
      </trkpt>
      <trkpt lat="42.77516202069819" lon="-7.427899008616805">
        <ele>438</ele>
        <time>2018-05-21T07:32:36Z</time>
      </trkpt>
      <trkpt lat="42.775200996547937" lon="-7.427858021110296">
        <ele>435</ele>
        <time>2018-05-21T07:32:37Z</time>
      </trkpt>
      <trkpt lat="42.775235027074814" lon="-7.427817033603787">
        <ele>435</ele>
        <time>2018-05-21T07:32:39Z</time>
      </trkpt>
      <trkpt lat="42.775254976004362" lon="-7.427764981985092">
        <ele>435</ele>
        <time>2018-05-21T07:32:40Z</time>
      </trkpt>
      <trkpt lat="42.775288000702858" lon="-7.427720976993442">
        <ele>435</ele>
        <time>2018-05-21T07:32:41Z</time>
      </trkpt>
      <trkpt lat="42.775308033451438" lon="-7.427646964788437">
        <ele>435</ele>
        <time>2018-05-21T07:32:43Z</time>
      </trkpt>
      <trkpt lat="42.775329994037747" lon="-7.427578987553716">
        <ele>435</ele>
        <time>2018-05-21T07:32:45Z</time>
      </trkpt>
      <trkpt lat="42.775366036221385" lon="-7.427534982562065">
        <ele>435</ele>
        <time>2018-05-21T07:32:46Z</time>
      </trkpt>
      <trkpt lat="42.775404006242752" lon="-7.427487960085273">
        <ele>435</ele>
        <time>2018-05-21T07:32:48Z</time>
      </trkpt>
      <trkpt lat="42.775453040376306" lon="-7.427453007549048">
        <ele>435</ele>
        <time>2018-05-21T07:32:49Z</time>
      </trkpt>
      <trkpt lat="42.775606010109186" lon="-7.427260978147388">
        <ele>436</ele>
        <time>2018-05-21T07:32:55Z</time>
      </trkpt>
      <trkpt lat="42.775742970407009" lon="-7.42711303755641">
        <ele>436</ele>
        <time>2018-05-21T07:33:01Z</time>
      </trkpt>
      <trkpt lat="42.775767026469111" lon="-7.427103985100985">
        <ele>436</ele>
        <time>2018-05-21T07:33:01Z</time>
      </trkpt>
      <trkpt lat="42.775793010368943" lon="-7.427087975665927">
        <ele>436</ele>
        <time>2018-05-21T07:33:02Z</time>
      </trkpt>
      <trkpt lat="42.775823017582297" lon="-7.427084036171436">
        <ele>436</ele>
        <time>2018-05-21T07:33:03Z</time>
      </trkpt>
      <trkpt lat="42.77585000731051" lon="-7.427080012857914">
        <ele>436</ele>
        <time>2018-05-21T07:33:04Z</time>
      </trkpt>
      <trkpt lat="42.77587397955358" lon="-7.427068026736379">
        <ele>436</ele>
        <time>2018-05-21T07:33:05Z</time>
      </trkpt>
      <trkpt lat="42.775900969281793" lon="-7.427039025351405">
        <ele>432</ele>
        <time>2018-05-21T07:33:06Z</time>
      </trkpt>
      <trkpt lat="42.775930976495147" lon="-7.427013963460922">
        <ele>432</ele>
        <time>2018-05-21T07:33:07Z</time>
      </trkpt>
      <trkpt lat="42.775960983708501" lon="-7.426989991217852">
        <ele>432</ele>
        <time>2018-05-21T07:33:08Z</time>
      </trkpt>
      <trkpt lat="42.775987973436713" lon="-7.426965013146401">
        <ele>432</ele>
        <time>2018-05-21T07:33:09Z</time>
      </trkpt>
      <trkpt lat="42.776011023670435" lon="-7.42694397456944">
        <ele>432</ele>
        <time>2018-05-21T07:33:10Z</time>
      </trkpt>
      <trkpt lat="42.776030972599983" lon="-7.426915979012847">
        <ele>432</ele>
        <time>2018-05-21T07:33:10Z</time>
      </trkpt>
      <trkpt lat="42.776054022833705" lon="-7.426886977627873">
        <ele>432</ele>
        <time>2018-05-21T07:33:11Z</time>
      </trkpt>
      <trkpt lat="42.776084030047059" lon="-7.426854036748409">
        <ele>432</ele>
        <time>2018-05-21T07:33:12Z</time>
      </trkpt>
      <trkpt lat="42.776106996461749" lon="-7.426821012049913">
        <ele>432</ele>
        <time>2018-05-21T07:33:13Z</time>
      </trkpt>
      <trkpt lat="42.776124011725187" lon="-7.426800979301333">
        <ele>432</ele>
        <time>2018-05-21T07:33:14Z</time>
      </trkpt>
      <trkpt lat="42.776148989796638" lon="-7.426783964037895">
        <ele>432</ele>
        <time>2018-05-21T07:33:15Z</time>
      </trkpt>
      <trkpt lat="42.77617497369647" lon="-7.426755968481302">
        <ele>432</ele>
        <time>2018-05-21T07:33:16Z</time>
      </trkpt>
      <trkpt lat="42.77621503919363" lon="-7.426730990409851">
        <ele>432</ele>
        <time>2018-05-21T07:33:17Z</time>
      </trkpt>
      <trkpt lat="42.776244962587953" lon="-7.426697965711355">
        <ele>432</ele>
        <time>2018-05-21T07:33:18Z</time>
      </trkpt>
      <trkpt lat="42.776275975629687" lon="-7.426666030660272">
        <ele>432</ele>
        <time>2018-05-21T07:33:19Z</time>
      </trkpt>
      <trkpt lat="42.776299025863409" lon="-7.426645997911692">
        <ele>440</ele>
        <time>2018-05-21T07:33:20Z</time>
      </trkpt>
      <trkpt lat="42.776325009763241" lon="-7.426629988476634">
        <ele>440</ele>
        <time>2018-05-21T07:33:21Z</time>
      </trkpt>
      <trkpt lat="42.776353005319834" lon="-7.426629988476634">
        <ele>440</ele>
        <time>2018-05-21T07:33:22Z</time>
      </trkpt>
      <trkpt lat="42.776383012533188" lon="-7.426629988476634">
        <ele>440</ele>
        <time>2018-05-21T07:33:23Z</time>
      </trkpt>
      <trkpt lat="42.776413019746542" lon="-7.426629988476634">
        <ele>440</ele>
        <time>2018-05-21T07:33:24Z</time>
      </trkpt>
      <trkpt lat="42.776449983939528" lon="-7.426641974598169">
        <ele>440</ele>
        <time>2018-05-21T07:33:25Z</time>
      </trkpt>
      <trkpt lat="42.776479991152883" lon="-7.426645997911692">
        <ele>440</ele>
        <time>2018-05-21T07:33:26Z</time>
      </trkpt>
      <trkpt lat="42.776500023901463" lon="-7.426658989861608">
        <ele>440</ele>
        <time>2018-05-21T07:33:26Z</time>
      </trkpt>
      <trkpt lat="42.776519972831011" lon="-7.426695032045245">
        <ele>440</ele>
        <time>2018-05-21T07:33:27Z</time>
      </trkpt>
      <trkpt lat="42.776532964780927" lon="-7.426727972924709">
        <ele>440</ele>
        <time>2018-05-21T07:33:28Z</time>
      </trkpt>
      <trkpt lat="42.776549980044365" lon="-7.426782036200166">
        <ele>440</ele>
        <time>2018-05-21T07:33:30Z</time>
      </trkpt>
      <trkpt lat="42.776570012792945" lon="-7.426811959594488">
        <ele>440</ele>
        <time>2018-05-21T07:33:30Z</time>
      </trkpt>
      <trkpt lat="42.776600020006299" lon="-7.426815982908011">
        <ele>440</ele>
        <time>2018-05-21T07:33:31Z</time>
      </trkpt>
      <trkpt lat="42.776630027219653" lon="-7.426815982908011">
        <ele>440</ele>
        <time>2018-05-21T07:33:32Z</time>
      </trkpt>
      <trkpt lat="42.776663973927498" lon="-7.426815982908011">
        <ele>440</ele>
        <time>2018-05-21T07:33:33Z</time>
      </trkpt>
      <trkpt lat="42.776691969484091" lon="-7.426780024543405">
        <ele>440</ele>
        <time>2018-05-21T07:33:34Z</time>
      </trkpt>
      <trkpt lat="42.776807975023985" lon="-7.426544995978475">
        <ele>440</ele>
        <time>2018-05-21T07:33:40Z</time>
      </trkpt>
      <trkpt lat="42.776878969743848" lon="-7.426411975175142">
        <ele>440</ele>
        <time>2018-05-21T07:33:44Z</time>
      </trkpt>
      <trkpt lat="42.776961028575897" lon="-7.426310973241925">
        <ele>440</ele>
        <time>2018-05-21T07:33:47Z</time>
      </trkpt>
      <trkpt lat="42.777040991932154" lon="-7.426220029592514">
        <ele>431</ele>
        <time>2018-05-21T07:33:50Z</time>
      </trkpt>
      <trkpt lat="42.777044009417295" lon="-7.426216006278992">
        <ele>431</ele>
        <time>2018-05-21T07:33:51Z</time>
      </trkpt>
      <trkpt lat="42.777068987488747" lon="-7.426195973530412">
        <ele>431</ele>
        <time>2018-05-21T07:33:51Z</time>
      </trkpt>
      <trkpt lat="42.777081979438663" lon="-7.426166972145438">
        <ele>431</ele>
        <time>2018-05-21T07:33:52Z</time>
      </trkpt>
      <trkpt lat="42.777106035500765" lon="-7.426125984638929">
        <ele>431</ele>
        <time>2018-05-21T07:33:53Z</time>
      </trkpt>
      <trkpt lat="42.777129001915455" lon="-7.426089020445943">
        <ele>440</ele>
        <time>2018-05-21T07:33:54Z</time>
      </trkpt>
      <trkpt lat="42.777149034664035" lon="-7.426055995747447">
        <ele>440</ele>
        <time>2018-05-21T07:33:55Z</time>
      </trkpt>
      <trkpt lat="42.777179041877389" lon="-7.426028000190854">
        <ele>440</ele>
        <time>2018-05-21T07:33:56Z</time>
      </trkpt>
      <trkpt lat="42.777202008292079" lon="-7.425994975492358">
        <ele>440</ele>
        <time>2018-05-21T07:33:57Z</time>
      </trkpt>
      <trkpt lat="42.777232015505433" lon="-7.425965974107385">
        <ele>440</ele>
        <time>2018-05-21T07:33:58Z</time>
      </trkpt>
      <trkpt lat="42.777259005233645" lon="-7.425936972722411">
        <ele>440</ele>
        <time>2018-05-21T07:33:59Z</time>
      </trkpt>
      <trkpt lat="42.777279037982225" lon="-7.425913000479341">
        <ele>440</ele>
        <time>2018-05-21T07:34:00Z</time>
      </trkpt>
      <trkpt lat="42.777302004396915" lon="-7.425883999094367">
        <ele>440</ele>
        <time>2018-05-21T07:34:01Z</time>
      </trkpt>
      <trkpt lat="42.777322037145495" lon="-7.425854997709394">
        <ele>440</ele>
        <time>2018-05-21T07:34:02Z</time>
      </trkpt>
      <trkpt lat="42.777349026873708" lon="-7.425831025466323">
        <ele>440</ele>
        <time>2018-05-21T07:34:03Z</time>
      </trkpt>
      <trkpt lat="42.777381967753172" lon="-7.425786014646292">
        <ele>440</ele>
        <time>2018-05-21T07:34:04Z</time>
      </trkpt>
      <trkpt lat="42.77739898301661" lon="-7.425757013261318">
        <ele>440</ele>
        <time>2018-05-21T07:34:05Z</time>
      </trkpt>
      <trkpt lat="42.77741901576519" lon="-7.425741003826261">
        <ele>440</ele>
        <time>2018-05-21T07:34:06Z</time>
      </trkpt>
      <trkpt lat="42.777438964694738" lon="-7.425707979127765">
        <ele>440</ele>
        <time>2018-05-21T07:34:07Z</time>
      </trkpt>
      <trkpt lat="42.77746201492846" lon="-7.425690963864327">
        <ele>440</ele>
        <time>2018-05-21T07:34:07Z</time>
      </trkpt>
      <trkpt lat="42.777489004656672" lon="-7.425666991621256">
        <ele>440</ele>
        <time>2018-05-21T07:34:08Z</time>
      </trkpt>
      <trkpt lat="42.777509037405252" lon="-7.425642013549805">
        <ele>440</ele>
        <time>2018-05-21T07:34:09Z</time>
      </trkpt>
      <trkpt lat="42.777535021305084" lon="-7.425626004114747">
        <ele>440</ele>
        <time>2018-05-21T07:34:10Z</time>
      </trkpt>
      <trkpt lat="42.777552958577871" lon="-7.425600020214915">
        <ele>440</ele>
        <time>2018-05-21T07:34:11Z</time>
      </trkpt>
      <trkpt lat="42.777580032125115" lon="-7.425583004951477">
        <ele>440</ele>
        <time>2018-05-21T07:34:12Z</time>
      </trkpt>
      <trkpt lat="42.777602998539805" lon="-7.425559032708406">
        <ele>440</ele>
        <time>2018-05-21T07:34:13Z</time>
      </trkpt>
      <trkpt lat="42.777625964954495" lon="-7.425530031323433">
        <ele>440</ele>
        <time>2018-05-21T07:34:14Z</time>
      </trkpt>
      <trkpt lat="42.777645997703075" lon="-7.42550496943295">
        <ele>440</ele>
        <time>2018-05-21T07:34:14Z</time>
      </trkpt>
      <trkpt lat="42.777672987431288" lon="-7.425480997189879">
        <ele>440</ele>
        <time>2018-05-21T07:34:15Z</time>
      </trkpt>
      <trkpt lat="42.777688996866345" lon="-7.425456019118428">
        <ele>440</ele>
        <time>2018-05-21T07:34:16Z</time>
      </trkpt>
      <trkpt lat="42.777715986594558" lon="-7.425447972491384">
        <ele>440</ele>
        <time>2018-05-21T07:34:17Z</time>
      </trkpt>
      <trkpt lat="42.777733001857996" lon="-7.425422994419932">
        <ele>440</ele>
        <time>2018-05-21T07:34:18Z</time>
      </trkpt>
      <trkpt lat="42.777755968272686" lon="-7.425393993034959">
        <ele>433</ele>
        <time>2018-05-21T07:34:18Z</time>
      </trkpt>
      <trkpt lat="42.777779018506408" lon="-7.425370020791888">
        <ele>433</ele>
        <time>2018-05-21T07:34:19Z</time>
      </trkpt>
      <trkpt lat="42.777798967435956" lon="-7.425336996093392">
        <ele>433</ele>
        <time>2018-05-21T07:34:20Z</time>
      </trkpt>
      <trkpt lat="42.7778260409832" lon="-7.425303971394897">
        <ele>433</ele>
        <time>2018-05-21T07:34:21Z</time>
      </trkpt>
      <trkpt lat="42.777842972427607" lon="-7.425279999151826">
        <ele>433</ele>
        <time>2018-05-21T07:34:22Z</time>
      </trkpt>
      <trkpt lat="42.777866022661328" lon="-7.425255021080375">
        <ele>433</ele>
        <time>2018-05-21T07:34:23Z</time>
      </trkpt>
      <trkpt lat="42.777883037924767" lon="-7.425226019695401">
        <ele>433</ele>
        <time>2018-05-21T07:34:24Z</time>
      </trkpt>
      <trkpt lat="42.777900975197554" lon="-7.425196012482047">
        <ele>433</ele>
        <time>2018-05-21T07:34:25Z</time>
      </trkpt>
      <trkpt lat="42.777916984632611" lon="-7.425162987783551">
        <ele>433</ele>
        <time>2018-05-21T07:34:25Z</time>
      </trkpt>
      <trkpt lat="42.777937017381191" lon="-7.425139015540481">
        <ele>433</ele>
        <time>2018-05-21T07:34:26Z</time>
      </trkpt>
      <trkpt lat="42.77795696631074" lon="-7.425101967528462">
        <ele>441</ele>
        <time>2018-05-21T07:34:27Z</time>
      </trkpt>
      <trkpt lat="42.777973981574178" lon="-7.425072966143489">
        <ele>441</ele>
        <time>2018-05-21T07:34:28Z</time>
      </trkpt>
      <trkpt lat="42.777986973524094" lon="-7.425036001950502">
        <ele>441</ele>
        <time>2018-05-21T07:34:29Z</time>
      </trkpt>
      <trkpt lat="42.778007006272674" lon="-7.425007000565529">
        <ele>441</ele>
        <time>2018-05-21T07:34:30Z</time>
      </trkpt>
      <trkpt lat="42.778019998222589" lon="-7.424974981695414">
        <ele>441</ele>
        <time>2018-05-21T07:34:31Z</time>
      </trkpt>
      <trkpt lat="42.778037013486028" lon="-7.424942040815949">
        <ele>441</ele>
        <time>2018-05-21T07:34:31Z</time>
      </trkpt>
      <trkpt lat="42.778050005435944" lon="-7.424897029995918">
        <ele>441</ele>
        <time>2018-05-21T07:34:32Z</time>
      </trkpt>
      <trkpt lat="42.778059979900718" lon="-7.424864005297422">
        <ele>441</ele>
        <time>2018-05-21T07:34:33Z</time>
      </trkpt>
      <trkpt lat="42.77806400321424" lon="-7.424827041104436">
        <ele>441</ele>
        <time>2018-05-21T07:34:34Z</time>
      </trkpt>
      <trkpt lat="42.778070038184524" lon="-7.42479401640594">
        <ele>441</ele>
        <time>2018-05-21T07:34:35Z</time>
      </trkpt>
      <trkpt lat="42.778073977679014" lon="-7.424756968393922">
        <ele>441</ele>
        <time>2018-05-21T07:34:36Z</time>
      </trkpt>
      <trkpt lat="42.778080012649298" lon="-7.424712041392922">
        <ele>441</ele>
        <time>2018-05-21T07:34:37Z</time>
      </trkpt>
      <trkpt lat="42.77808403596282" lon="-7.424670970067382">
        <ele>441</ele>
        <time>2018-05-21T07:34:38Z</time>
      </trkpt>
      <trkpt lat="42.77808696962893" lon="-7.424634005874395">
        <ele>441</ele>
        <time>2018-05-21T07:34:38Z</time>
      </trkpt>
      <trkpt lat="42.778099961578846" lon="-7.424593018367887">
        <ele>441</ele>
        <time>2018-05-21T07:34:39Z</time>
      </trkpt>
      <trkpt lat="42.778113959357142" lon="-7.424552030861378">
        <ele>441</ele>
        <time>2018-05-21T07:34:40Z</time>
      </trkpt>
      <trkpt lat="42.7781299687922" lon="-7.424523029476404">
        <ele>441</ele>
        <time>2018-05-21T07:34:41Z</time>
      </trkpt>
      <trkpt lat="42.77815000154078" lon="-7.424495033919811">
        <ele>441</ele>
        <time>2018-05-21T07:34:42Z</time>
      </trkpt>
      <trkpt lat="42.778159976005554" lon="-7.424462009221315">
        <ele>441</ele>
        <time>2018-05-21T07:34:43Z</time>
      </trkpt>
      <trkpt lat="42.778176991268992" lon="-7.424433007836342">
        <ele>429</ele>
        <time>2018-05-21T07:34:43Z</time>
      </trkpt>
      <trkpt lat="42.778197024017572" lon="-7.424399983137846">
        <ele>429</ele>
        <time>2018-05-21T07:34:44Z</time>
      </trkpt>
      <trkpt lat="42.778217978775501" lon="-7.424373999238014">
        <ele>429</ele>
        <time>2018-05-21T07:34:45Z</time>
      </trkpt>
      <trkpt lat="42.778234994038939" lon="-7.424348015338182">
        <ele>429</ele>
        <time>2018-05-21T07:34:46Z</time>
      </trkpt>
      <trkpt lat="42.778242034837604" lon="-7.424310967326164">
        <ele>429</ele>
        <time>2018-05-21T07:34:47Z</time>
      </trkpt>
      <trkpt lat="42.778257960453629" lon="-7.424269979819655">
        <ele>429</ele>
        <time>2018-05-21T07:34:48Z</time>
      </trkpt>
      <trkpt lat="42.778277993202209" lon="-7.424221029505134">
        <ele>429</ele>
        <time>2018-05-21T07:34:49Z</time>
      </trkpt>
      <trkpt lat="42.778288973495364" lon="-7.424189010635018">
        <ele>429</ele>
        <time>2018-05-21T07:34:50Z</time>
      </trkpt>
      <trkpt lat="42.778305988758802" lon="-7.424168977886438">
        <ele>429</ele>
        <time>2018-05-21T07:34:51Z</time>
      </trkpt>
      <trkpt lat="42.778318980708718" lon="-7.42412799037993">
        <ele>429</ele>
        <time>2018-05-21T07:34:51Z</time>
      </trkpt>
      <trkpt lat="42.778329038992524" lon="-7.424091026186943">
        <ele>429</ele>
        <time>2018-05-21T07:34:52Z</time>
      </trkpt>
      <trkpt lat="42.778343036770821" lon="-7.424056995660067">
        <ele>429</ele>
        <time>2018-05-21T07:34:53Z</time>
      </trkpt>
      <trkpt lat="42.778353011235595" lon="-7.42402003146708">
        <ele>429</ele>
        <time>2018-05-21T07:34:54Z</time>
      </trkpt>
      <trkpt lat="42.778372960165143" lon="-7.423991030082107">
        <ele>429</ele>
        <time>2018-05-21T07:34:55Z</time>
      </trkpt>
      <trkpt lat="42.778388969600201" lon="-7.423962028697133">
        <ele>429</ele>
        <time>2018-05-21T07:34:56Z</time>
      </trkpt>
      <trkpt lat="42.778409002348781" lon="-7.423924980685115">
        <ele>429</ele>
        <time>2018-05-21T07:34:57Z</time>
      </trkpt>
      <trkpt lat="42.778418976813555" lon="-7.423879969865084">
        <ele>429</ele>
        <time>2018-05-21T07:34:58Z</time>
      </trkpt>
      <trkpt lat="42.778418976813555" lon="-7.423838982358575">
        <ele>429</ele>
        <time>2018-05-21T07:34:59Z</time>
      </trkpt>
      <trkpt lat="42.778418976813555" lon="-7.423802018165588">
        <ele>429</ele>
        <time>2018-05-21T07:34:59Z</time>
      </trkpt>
      <trkpt lat="42.778418976813555" lon="-7.42376103065908">
        <ele>429</ele>
        <time>2018-05-21T07:35:00Z</time>
      </trkpt>
      <trkpt lat="42.778418976813555" lon="-7.423722976818681">
        <ele>429</ele>
        <time>2018-05-21T07:35:01Z</time>
      </trkpt>
      <trkpt lat="42.778415959328413" lon="-7.423681989312172">
        <ele>429</ele>
        <time>2018-05-21T07:35:02Z</time>
      </trkpt>
      <trkpt lat="42.778409002348781" lon="-7.423641001805663">
        <ele>429</ele>
        <time>2018-05-21T07:35:03Z</time>
      </trkpt>
      <trkpt lat="42.778409002348781" lon="-7.423600014299154">
        <ele>433</ele>
        <time>2018-05-21T07:35:04Z</time>
      </trkpt>
      <trkpt lat="42.778402967378497" lon="-7.423565983772278">
        <ele>433</ele>
        <time>2018-05-21T07:35:05Z</time>
      </trkpt>
      <trkpt lat="42.778368014842272" lon="-7.42346003651619">
        <ele>433</ele>
        <time>2018-05-21T07:35:07Z</time>
      </trkpt>
      <trkpt lat="42.778319986537099" lon="-7.42339700460434">
        <ele>433</ele>
        <time>2018-05-21T07:35:09Z</time>
      </trkpt>
      <trkpt lat="42.778187971562147" lon="-7.423327015712857">
        <ele>433</ele>
        <time>2018-05-21T07:35:13Z</time>
      </trkpt>
      <trkpt lat="42.777984039857984" lon="-7.423203969374299">
        <ele>433</ele>
        <time>2018-05-21T07:35:20Z</time>
      </trkpt>
      <trkpt lat="42.777810031548142" lon="-7.423114031553268">
        <ele>435</ele>
        <time>2018-05-21T07:35:25Z</time>
      </trkpt>
      <trkpt lat="42.77752798050642" lon="-7.422997020184994">
        <ele>435</ele>
        <time>2018-05-21T07:35:34Z</time>
      </trkpt>
      <trkpt lat="42.77722698636353" lon="-7.4228619877249">
        <ele>435</ele>
        <time>2018-05-21T07:35:43Z</time>
      </trkpt>
      <trkpt lat="42.777035962790251" lon="-7.422721004113555">
        <ele>442</ele>
        <time>2018-05-21T07:35:50Z</time>
      </trkpt>
      <trkpt lat="42.776940995827317" lon="-7.422639029100537">
        <ele>442</ele>
        <time>2018-05-21T07:35:53Z</time>
      </trkpt>
      <trkpt lat="42.776917023584247" lon="-7.42262695915997">
        <ele>442</ele>
        <time>2018-05-21T07:35:54Z</time>
      </trkpt>
      <trkpt lat="42.776893973350525" lon="-7.422606004402041">
        <ele>442</ele>
        <time>2018-05-21T07:35:55Z</time>
      </trkpt>
      <trkpt lat="42.776872012764215" lon="-7.422586977481842">
        <ele>442</ele>
        <time>2018-05-21T07:35:56Z</time>
      </trkpt>
      <trkpt lat="42.776853991672397" lon="-7.422569962218404">
        <ele>442</ele>
        <time>2018-05-21T07:35:56Z</time>
      </trkpt>
      <trkpt lat="42.776836976408958" lon="-7.422545989975333">
        <ele>442</ele>
        <time>2018-05-21T07:35:57Z</time>
      </trkpt>
      <trkpt lat="42.776814009994268" lon="-7.422525035217404">
        <ele>442</ele>
        <time>2018-05-21T07:35:58Z</time>
      </trkpt>
      <trkpt lat="42.776788026094437" lon="-7.422507014125586">
        <ele>442</ele>
        <time>2018-05-21T07:35:59Z</time>
      </trkpt>
      <trkpt lat="42.776756007224321" lon="-7.422484969720244">
        <ele>442</ele>
        <time>2018-05-21T07:36:00Z</time>
      </trkpt>
      <trkpt lat="42.776733040809631" lon="-7.422468960285187">
        <ele>442</ele>
        <time>2018-05-21T07:36:00Z</time>
      </trkpt>
      <trkpt lat="42.776715019717813" lon="-7.422439036890864">
        <ele>442</ele>
        <time>2018-05-21T07:36:01Z</time>
      </trkpt>
      <trkpt lat="42.77671099640429" lon="-7.422397965565324">
        <ele>442</ele>
        <time>2018-05-21T07:36:02Z</time>
      </trkpt>
      <trkpt lat="42.776728011667728" lon="-7.42236896418035">
        <ele>442</ele>
        <time>2018-05-21T07:36:03Z</time>
      </trkpt>
      <trkpt lat="42.776747960597277" lon="-7.422339962795377">
        <ele>442</ele>
        <time>2018-05-21T07:36:04Z</time>
      </trkpt>
      <trkpt lat="42.776767993345857" lon="-7.422311967238784">
        <ele>442</ele>
        <time>2018-05-21T07:36:05Z</time>
      </trkpt>
      <trkpt lat="42.776794983074069" lon="-7.42228296585381">
        <ele>442</ele>
        <time>2018-05-21T07:36:06Z</time>
      </trkpt>
      <trkpt lat="42.776818033307791" lon="-7.422253964468837">
        <ele>442</ele>
        <time>2018-05-21T07:36:07Z</time>
      </trkpt>
      <trkpt lat="42.776843011379242" lon="-7.42223602719605">
        <ele>442</ele>
        <time>2018-05-21T07:36:07Z</time>
      </trkpt>
      <trkpt lat="42.776929009705782" lon="-7.422160003334284">
        <ele>442</ele>
        <time>2018-05-21T07:36:11Z</time>
      </trkpt>
      <trkpt lat="42.777250036597252" lon="-7.421874012798071">
        <ele>463</ele>
        <time>2018-05-21T07:36:22Z</time>
      </trkpt>
      <trkpt lat="42.777565028518438" lon="-7.421638984233141">
        <ele>463</ele>
        <time>2018-05-21T07:36:33Z</time>
      </trkpt>
      <trkpt lat="42.777843978255987" lon="-7.421413008123636">
        <ele>463</ele>
        <time>2018-05-21T07:36:42Z</time>
      </trkpt>
      <trkpt lat="42.778050005435944" lon="-7.421260038390756">
        <ele>470</ele>
        <time>2018-05-21T07:36:49Z</time>
      </trkpt>
      <trkpt lat="42.778261983767152" lon="-7.421071026474237">
        <ele>475</ele>
        <time>2018-05-21T07:36:57Z</time>
      </trkpt>
      <trkpt lat="42.778462981805205" lon="-7.420920990407467">
        <ele>475</ele>
        <time>2018-05-21T07:37:04Z</time>
      </trkpt>
      <trkpt lat="42.778467005118728" lon="-7.420920990407467">
        <ele>475</ele>
        <time>2018-05-21T07:37:04Z</time>
      </trkpt>
      <trkpt lat="42.778487037867308" lon="-7.420901041477919">
        <ele>475</ele>
        <time>2018-05-21T07:37:05Z</time>
      </trkpt>
      <trkpt lat="42.778506986796856" lon="-7.420874973759055">
        <ele>475</ele>
        <time>2018-05-21T07:37:06Z</time>
      </trkpt>
      <trkpt lat="42.778511010110378" lon="-7.420838009566069">
        <ele>475</ele>
        <time>2018-05-21T07:37:06Z</time>
      </trkpt>
      <trkpt lat="42.77849399484694" lon="-7.420812025666237">
        <ele>475</ele>
        <time>2018-05-21T07:37:07Z</time>
      </trkpt>
      <trkpt lat="42.778473040089011" lon="-7.420790987089276">
        <ele>475</ele>
        <time>2018-05-21T07:37:08Z</time>
      </trkpt>
      <trkpt lat="42.778446972370148" lon="-7.42075796239078">
        <ele>475</ele>
        <time>2018-05-21T07:37:09Z</time>
      </trkpt>
      <trkpt lat="42.778423000127077" lon="-7.420726027339697">
        <ele>475</ele>
        <time>2018-05-21T07:37:10Z</time>
      </trkpt>
      <trkpt lat="42.778393998742104" lon="-7.42069099098444">
        <ele>475</ele>
        <time>2018-05-21T07:37:11Z</time>
      </trkpt>
      <trkpt lat="42.778372038155794" lon="-7.420665007084608">
        <ele>475</ele>
        <time>2018-05-21T07:37:12Z</time>
      </trkpt>
      <trkpt lat="42.778358962386847" lon="-7.42062795907259">
        <ele>475</ele>
        <time>2018-05-21T07:37:13Z</time>
      </trkpt>
      <trkpt lat="42.77834496460855" lon="-7.420586971566081">
        <ele>475</ele>
        <time>2018-05-21T07:37:14Z</time>
      </trkpt>
      <trkpt lat="42.778318980708718" lon="-7.420522011816502">
        <ele>475</ele>
        <time>2018-05-21T07:37:15Z</time>
      </trkpt>
      <trkpt lat="42.778300037607551" lon="-7.42047599516809">
        <ele>475</ele>
        <time>2018-05-21T07:37:17Z</time>
      </trkpt>
      <trkpt lat="42.778283022344112" lon="-7.420430984348059">
        <ele>475</ele>
        <time>2018-05-21T07:37:18Z</time>
      </trkpt>
      <trkpt lat="42.778266007080674" lon="-7.420385973528028">
        <ele>475</ele>
        <time>2018-05-21T07:37:19Z</time>
      </trkpt>
      <trkpt lat="42.778244968503714" lon="-7.420338029041886">
        <ele>479</ele>
        <time>2018-05-21T07:37:20Z</time>
      </trkpt>
      <trkpt lat="42.778222002089024" lon="-7.420305004343391">
        <ele>479</ele>
        <time>2018-05-21T07:37:21Z</time>
      </trkpt>
      <trkpt lat="42.778199035674334" lon="-7.420268040150404">
        <ele>479</ele>
        <time>2018-05-21T07:37:22Z</time>
      </trkpt>
      <trkpt lat="42.778179002925754" lon="-7.420231997966766">
        <ele>479</ele>
        <time>2018-05-21T07:37:23Z</time>
      </trkpt>
      <trkpt lat="42.778148995712399" lon="-7.420207019895315">
        <ele>479</ele>
        <time>2018-05-21T07:37:24Z</time>
      </trkpt>
      <trkpt lat="42.778134997934103" lon="-7.420169971883297">
        <ele>479</ele>
        <time>2018-05-21T07:37:25Z</time>
      </trkpt>
      <trkpt lat="42.778112031519413" lon="-7.420104006305337">
        <ele>479</ele>
        <time>2018-05-21T07:37:26Z</time>
      </trkpt>
      <trkpt lat="42.778082024306059" lon="-7.420042986050248">
        <ele>479</ele>
        <time>2018-05-21T07:37:28Z</time>
      </trkpt>
      <trkpt lat="42.778071966022253" lon="-7.420006021857262">
        <ele>479</ele>
        <time>2018-05-21T07:37:29Z</time>
      </trkpt>
      <trkpt lat="42.778057968243957" lon="-7.419971991330385">
        <ele>479</ele>
        <time>2018-05-21T07:37:30Z</time>
      </trkpt>
      <trkpt lat="42.77804103679955" lon="-7.419931003823876">
        <ele>479</ele>
        <time>2018-05-21T07:37:31Z</time>
      </trkpt>
      <trkpt lat="42.778027961030602" lon="-7.41989403963089">
        <ele>479</ele>
        <time>2018-05-21T07:37:32Z</time>
      </trkpt>
      <trkpt lat="42.778011029586196" lon="-7.419861014932394">
        <ele>479</ele>
        <time>2018-05-21T07:37:33Z</time>
      </trkpt>
      <trkpt lat="42.77799803763628" lon="-7.419823966920376">
        <ele>479</ele>
        <time>2018-05-21T07:37:33Z</time>
      </trkpt>
      <trkpt lat="42.777981022372842" lon="-7.419775016605854">
        <ele>479</ele>
        <time>2018-05-21T07:37:35Z</time>
      </trkpt>
      <trkpt lat="42.777973981574178" lon="-7.419734029099345">
        <ele>479</ele>
        <time>2018-05-21T07:37:36Z</time>
      </trkpt>
      <trkpt lat="42.777960989624262" lon="-7.419683989137411">
        <ele>479</ele>
        <time>2018-05-21T07:37:37Z</time>
      </trkpt>
      <trkpt lat="42.777943974360824" lon="-7.419619029387832">
        <ele>479</ele>
        <time>2018-05-21T07:37:38Z</time>
      </trkpt>
      <trkpt lat="42.777937017381191" lon="-7.419578963890672">
        <ele>480</ele>
        <time>2018-05-21T07:37:39Z</time>
      </trkpt>
      <trkpt lat="42.777937017381191" lon="-7.419521966949105">
        <ele>483</ele>
        <time>2018-05-21T07:37:40Z</time>
      </trkpt>
      <trkpt lat="42.777929976582527" lon="-7.419477961957455">
        <ele>483</ele>
        <time>2018-05-21T07:37:41Z</time>
      </trkpt>
      <trkpt lat="42.777882032096386" lon="-7.419344019144774">
        <ele>483</ele>
        <time>2018-05-21T07:37:45Z</time>
      </trkpt>
      <trkpt lat="42.777830986306071" lon="-7.419176967814565">
        <ele>483</ele>
        <time>2018-05-21T07:37:49Z</time>
      </trkpt>
      <trkpt lat="42.777803996577859" lon="-7.41899399086833">
        <ele>483</ele>
        <time>2018-05-21T07:37:53Z</time>
      </trkpt>
      <trkpt lat="42.777791004627943" lon="-7.418853007256985">
        <ele>483</ele>
        <time>2018-05-21T07:37:56Z</time>
      </trkpt>
      <trkpt lat="42.777773989364505" lon="-7.418734990060329">
        <ele>483</ele>
        <time>2018-05-21T07:37:58Z</time>
      </trkpt>
      <trkpt lat="42.777738030999899" lon="-7.418580008670688">
        <ele>475</ele>
        <time>2018-05-21T07:38:02Z</time>
      </trkpt>
      <trkpt lat="42.777687991037965" lon="-7.41841203533113">
        <ele>475</ele>
        <time>2018-05-21T07:38:06Z</time>
      </trkpt>
      <trkpt lat="42.777623031288385" lon="-7.418253030627966">
        <ele>475</ele>
        <time>2018-05-21T07:38:10Z</time>
      </trkpt>
      <trkpt lat="42.777510965242982" lon="-7.418030994012952">
        <ele>475</ele>
        <time>2018-05-21T07:38:16Z</time>
      </trkpt>
      <trkpt lat="42.777429996058345" lon="-7.41785204038024">
        <ele>465</ele>
        <time>2018-05-21T07:38:20Z</time>
      </trkpt>
      <trkpt lat="42.77737501077354" lon="-7.417781967669725">
        <ele>465</ele>
        <time>2018-05-21T07:38:22Z</time>
      </trkpt>
      <trkpt lat="42.777133025228977" lon="-7.417688006535173">
        <ele>465</ele>
        <time>2018-05-21T07:38:30Z</time>
      </trkpt>
      <trkpt lat="42.776938984170556" lon="-7.417631009593606">
        <ele>466</ele>
        <time>2018-05-21T07:38:36Z</time>
      </trkpt>
      <trkpt lat="42.776840999722481" lon="-7.417587004601955">
        <ele>466</ele>
        <time>2018-05-21T07:38:39Z</time>
      </trkpt>
      <trkpt lat="42.776917023584247" lon="-7.417302019894123">
        <ele>466</ele>
        <time>2018-05-21T07:38:45Z</time>
      </trkpt>
      <trkpt lat="42.777029005810618" lon="-7.416985016316176">
        <ele>460</ele>
        <time>2018-05-21T07:38:53Z</time>
      </trkpt>
      <trkpt lat="42.777082985267043" lon="-7.416794998571277">
        <ele>460</ele>
        <time>2018-05-21T07:38:57Z</time>
      </trkpt>
      <trkpt lat="42.777131013572216" lon="-7.416553013026714">
        <ele>458</ele>
        <time>2018-05-21T07:39:03Z</time>
      </trkpt>
      <trkpt lat="42.777170995250344" lon="-7.416371963918209">
        <ele>458</ele>
        <time>2018-05-21T07:39:07Z</time>
      </trkpt>
      <trkpt lat="42.777170995250344" lon="-7.416367018595338">
        <ele>458</ele>
        <time>2018-05-21T07:39:07Z</time>
      </trkpt>
      <trkpt lat="42.777221035212278" lon="-7.416242966428399">
        <ele>458</ele>
        <time>2018-05-21T07:39:10Z</time>
      </trkpt>
      <trkpt lat="42.777232015505433" lon="-7.416227040812373">
        <ele>458</ele>
        <time>2018-05-21T07:39:11Z</time>
      </trkpt>
      <trkpt lat="42.777265962213278" lon="-7.41611598059535">
        <ele>458</ele>
        <time>2018-05-21T07:39:13Z</time>
      </trkpt>
      <trkpt lat="42.777276020497084" lon="-7.416086979210377">
        <ele>458</ele>
        <time>2018-05-21T07:39:14Z</time>
      </trkpt>
      <trkpt lat="42.777292029932141" lon="-7.416054960340262">
        <ele>458</ele>
        <time>2018-05-21T07:39:15Z</time>
      </trkpt>
      <trkpt lat="42.77731197886169" lon="-7.416017996147275">
        <ele>458</ele>
        <time>2018-05-21T07:39:16Z</time>
      </trkpt>
      <trkpt lat="42.777328994125128" lon="-7.415984971448779">
        <ele>458</ele>
        <time>2018-05-21T07:39:17Z</time>
      </trkpt>
      <trkpt lat="42.777341986075044" lon="-7.41594398394227">
        <ele>458</ele>
        <time>2018-05-21T07:39:18Z</time>
      </trkpt>
      <trkpt lat="42.777351960539818" lon="-7.415891010314226">
        <ele>458</ele>
        <time>2018-05-21T07:39:19Z</time>
      </trkpt>
      <trkpt lat="42.777362018823624" lon="-7.415853962302208">
        <ele>458</ele>
        <time>2018-05-21T07:39:20Z</time>
      </trkpt>
      <trkpt lat="42.77737601660192" lon="-7.415795959532261">
        <ele>458</ele>
        <time>2018-05-21T07:39:21Z</time>
      </trkpt>
      <trkpt lat="42.777384985238314" lon="-7.415758995339274">
        <ele>458</ele>
        <time>2018-05-21T07:39:22Z</time>
      </trkpt>
      <trkpt lat="42.777411974966526" lon="-7.415722031146288">
        <ele>458</ele>
        <time>2018-05-21T07:39:23Z</time>
      </trkpt>
      <trkpt lat="42.777420021593571" lon="-7.415688000619412">
        <ele>458</ele>
        <time>2018-05-21T07:39:24Z</time>
      </trkpt>
      <trkpt lat="42.777429996058345" lon="-7.415647013112903">
        <ele>458</ele>
        <time>2018-05-21T07:39:25Z</time>
      </trkpt>
      <trkpt lat="42.777437036857009" lon="-7.415609965100884">
        <ele>458</ele>
        <time>2018-05-21T07:39:26Z</time>
      </trkpt>
      <trkpt lat="42.777437036857009" lon="-7.415568977594376">
        <ele>458</ele>
        <time>2018-05-21T07:39:26Z</time>
      </trkpt>
      <trkpt lat="42.777437036857009" lon="-7.415532013401389">
        <ele>458</ele>
        <time>2018-05-21T07:39:27Z</time>
      </trkpt>
      <trkpt lat="42.777437036857009" lon="-7.415487002581358">
        <ele>458</ele>
        <time>2018-05-21T07:39:28Z</time>
      </trkpt>
      <trkpt lat="42.777437036857009" lon="-7.415441991761327">
        <ele>458</ele>
        <time>2018-05-21T07:39:29Z</time>
      </trkpt>
      <trkpt lat="42.777437036857009" lon="-7.415393041446805">
        <ele>456</ele>
        <time>2018-05-21T07:39:30Z</time>
      </trkpt>
      <trkpt lat="42.777437036857009" lon="-7.415355993434787">
        <ele>456</ele>
        <time>2018-05-21T07:39:31Z</time>
      </trkpt>
      <trkpt lat="42.777437036857009" lon="-7.415310982614756">
        <ele>456</ele>
        <time>2018-05-21T07:39:32Z</time>
      </trkpt>
      <trkpt lat="42.777437036857009" lon="-7.415269995108247">
        <ele>456</ele>
        <time>2018-05-21T07:39:33Z</time>
      </trkpt>
      <trkpt lat="42.777437036857009" lon="-7.41523303091526">
        <ele>456</ele>
        <time>2018-05-21T07:39:34Z</time>
      </trkpt>
      <trkpt lat="42.777437036857009" lon="-7.415188020095229">
        <ele>456</ele>
        <time>2018-05-21T07:39:35Z</time>
      </trkpt>
      <trkpt lat="42.777437036857009" lon="-7.415142003446817">
        <ele>456</ele>
        <time>2018-05-21T07:39:36Z</time>
      </trkpt>
      <trkpt lat="42.777437036857009" lon="-7.415092969313264">
        <ele>456</ele>
        <time>2018-05-21T07:39:37Z</time>
      </trkpt>
      <trkpt lat="42.777437036857009" lon="-7.415056005120277">
        <ele>456</ele>
        <time>2018-05-21T07:39:38Z</time>
      </trkpt>
      <trkpt lat="42.777437036857009" lon="-7.415010994300246">
        <ele>456</ele>
        <time>2018-05-21T07:39:39Z</time>
      </trkpt>
      <trkpt lat="42.777433013543487" lon="-7.41497403010726">
        <ele>456</ele>
        <time>2018-05-21T07:39:39Z</time>
      </trkpt>
      <trkpt lat="42.777433013543487" lon="-7.414929019287229">
        <ele>456</ele>
        <time>2018-05-21T07:39:40Z</time>
      </trkpt>
      <trkpt lat="42.777429996058345" lon="-7.41488803178072">
        <ele>456</ele>
        <time>2018-05-21T07:39:41Z</time>
      </trkpt>
      <trkpt lat="42.777423039078712" lon="-7.414846960455179">
        <ele>456</ele>
        <time>2018-05-21T07:39:42Z</time>
      </trkpt>
      <trkpt lat="42.777420021593571" lon="-7.41480203345418">
        <ele>456</ele>
        <time>2018-05-21T07:39:43Z</time>
      </trkpt>
      <trkpt lat="42.777409963309765" lon="-7.414757022634149">
        <ele>456</ele>
        <time>2018-05-21T07:39:44Z</time>
      </trkpt>
      <trkpt lat="42.777407029643655" lon="-7.414707988500595">
        <ele>456</ele>
        <time>2018-05-21T07:39:45Z</time>
      </trkpt>
      <trkpt lat="42.777403006330132" lon="-7.414671024307609">
        <ele>456</ele>
        <time>2018-05-21T07:39:46Z</time>
      </trkpt>
      <trkpt lat="42.777390014380217" lon="-7.414620984345675">
        <ele>456</ele>
        <time>2018-05-21T07:39:47Z</time>
      </trkpt>
      <trkpt lat="42.777380039915442" lon="-7.414579996839166">
        <ele>456</ele>
        <time>2018-05-21T07:39:48Z</time>
      </trkpt>
      <trkpt lat="42.777369981631637" lon="-7.414543032646179">
        <ele>456</ele>
        <time>2018-05-21T07:39:49Z</time>
      </trkpt>
      <trkpt lat="42.777356989681721" lon="-7.414501961320639">
        <ele>456</ele>
        <time>2018-05-21T07:39:50Z</time>
      </trkpt>
      <trkpt lat="42.777339974418283" lon="-7.414457034319639">
        <ele>456</ele>
        <time>2018-05-21T07:39:51Z</time>
      </trkpt>
      <trkpt lat="42.777329999953508" lon="-7.414415962994099">
        <ele>450</ele>
        <time>2018-05-21T07:39:52Z</time>
      </trkpt>
      <trkpt lat="42.777317008003592" lon="-7.41437497548759">
        <ele>450</ele>
        <time>2018-05-21T07:39:53Z</time>
      </trkpt>
      <trkpt lat="42.777303010225296" lon="-7.414326025173068">
        <ele>450</ele>
        <time>2018-05-21T07:39:54Z</time>
      </trkpt>
      <trkpt lat="42.77729001827538" lon="-7.414281014353037">
        <ele>450</ele>
        <time>2018-05-21T07:39:55Z</time>
      </trkpt>
      <trkpt lat="42.777279959991574" lon="-7.414243966341019">
        <ele>450</ele>
        <time>2018-05-21T07:39:56Z</time>
      </trkpt>
      <trkpt lat="42.777277026325464" lon="-7.414207002148032">
        <ele>450</ele>
        <time>2018-05-21T07:39:57Z</time>
      </trkpt>
      <trkpt lat="42.7772699855268" lon="-7.414170037955046">
        <ele>450</ele>
        <time>2018-05-21T07:39:58Z</time>
      </trkpt>
      <trkpt lat="42.777260011062026" lon="-7.414132989943028">
        <ele>450</ele>
        <time>2018-05-21T07:39:59Z</time>
      </trkpt>
      <trkpt lat="42.777249030768871" lon="-7.414088984951377">
        <ele>450</ele>
        <time>2018-05-21T07:40:00Z</time>
      </trkpt>
      <trkpt lat="42.777249030768871" lon="-7.414043974131346">
        <ele>450</ele>
        <time>2018-05-21T07:40:01Z</time>
      </trkpt>
      <trkpt lat="42.777256993576884" lon="-7.413970967754722">
        <ele>450</ele>
        <time>2018-05-21T07:40:02Z</time>
      </trkpt>
      <trkpt lat="42.777266968041658" lon="-7.413942972198129">
        <ele>450</ele>
        <time>2018-05-21T07:40:03Z</time>
      </trkpt>
      <trkpt lat="42.777280965819955" lon="-7.413908019661903">
        <ele>450</ele>
        <time>2018-05-21T07:40:04Z</time>
      </trkpt>
      <trkpt lat="42.777294963598251" lon="-7.41388002410531">
        <ele>450</ele>
        <time>2018-05-21T07:40:04Z</time>
      </trkpt>
      <trkpt lat="42.777310973033309" lon="-7.413851022720337">
        <ele>450</ele>
        <time>2018-05-21T07:40:05Z</time>
      </trkpt>
      <trkpt lat="42.777335029095411" lon="-7.413822021335363">
        <ele>450</ele>
        <time>2018-05-21T07:40:06Z</time>
      </trkpt>
      <trkpt lat="42.77735497802496" lon="-7.413788996636868">
        <ele>450</ele>
        <time>2018-05-21T07:40:07Z</time>
      </trkpt>
      <trkpt lat="42.777370987460017" lon="-7.413761001080275">
        <ele>450</ele>
        <time>2018-05-21T07:40:08Z</time>
      </trkpt>
      <trkpt lat="42.777383979409933" lon="-7.413727976381779">
        <ele>450</ele>
        <time>2018-05-21T07:40:09Z</time>
      </trkpt>
      <trkpt lat="42.777400994673371" lon="-7.413695035502315">
        <ele>450</ele>
        <time>2018-05-21T07:40:10Z</time>
      </trkpt>
      <trkpt lat="42.777410969138145" lon="-7.413662010803819">
        <ele>450</ele>
        <time>2018-05-21T07:40:10Z</time>
      </trkpt>
      <trkpt lat="42.777434019371867" lon="-7.413624962791801">
        <ele>442</ele>
        <time>2018-05-21T07:40:11Z</time>
      </trkpt>
      <trkpt lat="42.777456985786557" lon="-7.413590010255575">
        <ele>442</ele>
        <time>2018-05-21T07:40:12Z</time>
      </trkpt>
      <trkpt lat="42.777475006878376" lon="-7.413567965850234">
        <ele>442</ele>
        <time>2018-05-21T07:40:13Z</time>
      </trkpt>
      <trkpt lat="42.777425972744823" lon="-7.413543993607163">
        <ele>442</ele>
        <time>2018-05-21T07:40:15Z</time>
      </trkpt>
      <trkpt lat="42.777408035472035" lon="-7.413549022749066">
        <ele>442</ele>
        <time>2018-05-21T07:40:15Z</time>
      </trkpt>
      <trkpt lat="42.777394959703088" lon="-7.413572994992137">
        <ele>442</ele>
        <time>2018-05-21T07:40:16Z</time>
      </trkpt>
      <trkpt lat="42.777380039915442" lon="-7.413601996377111">
        <ele>442</ele>
        <time>2018-05-21T07:40:17Z</time>
      </trkpt>
      <trkpt lat="42.777362018823624" lon="-7.413632003590465">
        <ele>442</ele>
        <time>2018-05-21T07:40:17Z</time>
      </trkpt>
      <trkpt lat="42.777338968589902" lon="-7.413648013025522">
        <ele>450</ele>
        <time>2018-05-21T07:40:18Z</time>
      </trkpt>
      <trkpt lat="42.777329999953508" lon="-7.413672991096973">
        <ele>450</ele>
        <time>2018-05-21T07:40:19Z</time>
      </trkpt>
      <trkpt lat="42.777317008003592" lon="-7.413697969168425">
        <ele>450</ele>
        <time>2018-05-21T07:40:19Z</time>
      </trkpt>
      <trkpt lat="42.777296975255013" lon="-7.413714984431863">
        <ele>450</ele>
        <time>2018-05-21T07:40:20Z</time>
      </trkpt>
      <trkpt lat="42.777279959991574" lon="-7.413737028837204">
        <ele>450</ele>
        <time>2018-05-21T07:40:21Z</time>
      </trkpt>
      <trkpt lat="42.777262022718787" lon="-7.413762006908655">
        <ele>450</ele>
        <time>2018-05-21T07:40:22Z</time>
      </trkpt>
      <trkpt lat="42.77724701911211" lon="-7.413784973323345">
        <ele>450</ele>
        <time>2018-05-21T07:40:22Z</time>
      </trkpt>
      <trkpt lat="42.777207037433982" lon="-7.413777010515332">
        <ele>450</ele>
        <time>2018-05-21T07:40:24Z</time>
      </trkpt>
      <trkpt lat="42.777185998857021" lon="-7.413714984431863">
        <ele>450</ele>
        <time>2018-05-21T07:40:25Z</time>
      </trkpt>
      <trkpt lat="42.777152974158525" lon="-7.413635021075606">
        <ele>450</ele>
        <time>2018-05-21T07:40:27Z</time>
      </trkpt>
      <trkpt lat="42.777135958895087" lon="-7.413574000820518">
        <ele>442</ele>
        <time>2018-05-21T07:40:28Z</time>
      </trkpt>
      <trkpt lat="42.777059013023973" lon="-7.413387000560761">
        <ele>437</ele>
        <time>2018-05-21T07:40:33Z</time>
      </trkpt>
      <trkpt lat="42.776985000818968" lon="-7.413212992250919">
        <ele>437</ele>
        <time>2018-05-21T07:40:37Z</time>
      </trkpt>
      <trkpt lat="42.776920963078737" lon="-7.413053987547755">
        <ele>437</ele>
        <time>2018-05-21T07:40:41Z</time>
      </trkpt>
      <trkpt lat="42.776842005550861" lon="-7.412904035300016">
        <ele>437</ele>
        <time>2018-05-21T07:40:45Z</time>
      </trkpt>
      <trkpt lat="42.77677696198225" lon="-7.412760034203529">
        <ele>431</ele>
        <time>2018-05-21T07:40:49Z</time>
      </trkpt>
      <trkpt lat="42.776673026382923" lon="-7.412781994789839">
        <ele>431</ele>
        <time>2018-05-21T07:40:52Z</time>
      </trkpt>
      <trkpt lat="42.776512010022998" lon="-7.412845026701689">
        <ele>437</ele>
        <time>2018-05-21T07:40:57Z</time>
      </trkpt>
      <trkpt lat="42.776398016139865" lon="-7.412888025864959">
        <ele>437</ele>
        <time>2018-05-21T07:41:01Z</time>
      </trkpt>
      <trkpt lat="42.776305982843041" lon="-7.412693984806538">
        <ele>431</ele>
        <time>2018-05-21T07:41:06Z</time>
      </trkpt>
      <trkpt lat="42.776301959529519" lon="-7.412688033655286">
        <ele>431</ele>
        <time>2018-05-21T07:41:06Z</time>
      </trkpt>
      <trkpt lat="42.776244040578604" lon="-7.412579990923405">
        <ele>427</ele>
        <time>2018-05-21T07:41:09Z</time>
      </trkpt>
      <trkpt lat="42.776168016716838" lon="-7.412383016198874">
        <ele>427</ele>
        <time>2018-05-21T07:41:14Z</time>
      </trkpt>
      <trkpt lat="42.776162987574935" lon="-7.412372035905719">
        <ele>427</ele>
        <time>2018-05-21T07:41:14Z</time>
      </trkpt>
      <trkpt lat="42.776055028662086" lon="-7.412194004282355">
        <ele>427</ele>
        <time>2018-05-21T07:41:19Z</time>
      </trkpt>
      <trkpt lat="42.776048993691802" lon="-7.412056038156152">
        <ele>427</ele>
        <time>2018-05-21T07:41:22Z</time>
      </trkpt>
      <trkpt lat="42.77606500312686" lon="-7.41198998875916">
        <ele>427</ele>
        <time>2018-05-21T07:41:23Z</time>
      </trkpt>
      <trkpt lat="42.776070032268763" lon="-7.41198998875916">
        <ele>427</ele>
        <time>2018-05-21T07:41:24Z</time>
      </trkpt>
      <trkpt lat="42.776110013946891" lon="-7.411944977939129">
        <ele>423</ele>
        <time>2018-05-21T07:41:25Z</time>
      </trkpt>
      <trkpt lat="42.776114037260413" lon="-7.411944977939129">
        <ele>423</ele>
        <time>2018-05-21T07:41:25Z</time>
      </trkpt>
      <trkpt lat="42.776155024766922" lon="-7.411904996261001">
        <ele>423</ele>
        <time>2018-05-21T07:41:27Z</time>
      </trkpt>
      <trkpt lat="42.776159970089793" lon="-7.411904996261001">
        <ele>423</ele>
        <time>2018-05-21T07:41:27Z</time>
      </trkpt>
      <trkpt lat="42.776221996173263" lon="-7.411841964349151">
        <ele>423</ele>
        <time>2018-05-21T07:41:29Z</time>
      </trkpt>
      <trkpt lat="42.776321992278099" lon="-7.411799971014261">
        <ele>424</ele>
        <time>2018-05-21T07:41:32Z</time>
      </trkpt>
      <trkpt lat="42.776477979496121" lon="-7.411693017929792">
        <ele>424</ele>
        <time>2018-05-21T07:41:37Z</time>
      </trkpt>
      <trkpt lat="42.776618041098118" lon="-7.411614982411265">
        <ele>424</ele>
        <time>2018-05-21T07:41:42Z</time>
      </trkpt>
      <trkpt lat="42.776793977245688" lon="-7.411507023498416">
        <ele>424</ele>
        <time>2018-05-21T07:41:48Z</time>
      </trkpt>
      <trkpt lat="42.776807975023985" lon="-7.411484979093075">
        <ele>424</ele>
        <time>2018-05-21T07:41:48Z</time>
      </trkpt>
      <trkpt lat="42.776760030537844" lon="-7.411342989653349">
        <ele>424</ele>
        <time>2018-05-21T07:41:52Z</time>
      </trkpt>
      <trkpt lat="42.776756007224321" lon="-7.411337038502097">
        <ele>424</ele>
        <time>2018-05-21T07:41:52Z</time>
      </trkpt>
      <trkpt lat="42.776707978919148" lon="-7.411203011870384">
        <ele>424</ele>
        <time>2018-05-21T07:41:55Z</time>
      </trkpt>
      <trkpt lat="42.776657016947865" lon="-7.411050964146853">
        <ele>423</ele>
        <time>2018-05-21T07:41:59Z</time>
      </trkpt>
      <trkpt lat="42.776649976149201" lon="-7.411050964146853">
        <ele>423</ele>
        <time>2018-05-21T07:41:59Z</time>
      </trkpt>
      <trkpt lat="42.77662399224937" lon="-7.41104300133884">
        <ele>423</ele>
        <time>2018-05-21T07:42:00Z</time>
      </trkpt>
      <trkpt lat="42.776590967550874" lon="-7.41104300133884">
        <ele>423</ele>
        <time>2018-05-21T07:42:01Z</time>
      </trkpt>
      <trkpt lat="42.77655802667141" lon="-7.411038978025317">
        <ele>423</ele>
        <time>2018-05-21T07:42:02Z</time>
      </trkpt>
      <trkpt lat="42.776520978659391" lon="-7.411018023267388">
        <ele>423</ele>
        <time>2018-05-21T07:42:03Z</time>
      </trkpt>
      <trkpt lat="42.776493988931179" lon="-7.411009976640344">
        <ele>423</ele>
        <time>2018-05-21T07:42:04Z</time>
      </trkpt>
      <trkpt lat="42.776479991152883" lon="-7.41097703576088">
        <ele>423</ele>
        <time>2018-05-21T07:42:04Z</time>
      </trkpt>
      <trkpt lat="42.776471022516489" lon="-7.410921966657043">
        <ele>423</ele>
        <time>2018-05-21T07:42:06Z</time>
      </trkpt>
      <trkpt lat="42.776454007253051" lon="-7.410897994413972">
        <ele>423</ele>
        <time>2018-05-21T07:42:06Z</time>
      </trkpt>
      <trkpt lat="42.776433974504471" lon="-7.410852983593941">
        <ele>423</ele>
        <time>2018-05-21T07:42:07Z</time>
      </trkpt>
      <trkpt lat="42.776417965069413" lon="-7.410810990259051">
        <ele>423</ele>
        <time>2018-05-21T07:42:08Z</time>
      </trkpt>
      <trkpt lat="42.776403967291117" lon="-7.410778971388936">
        <ele>423</ele>
        <time>2018-05-21T07:42:09Z</time>
      </trkpt>
      <trkpt lat="42.776388041675091" lon="-7.410746030509472">
        <ele>423</ele>
        <time>2018-05-21T07:42:10Z</time>
      </trkpt>
      <trkpt lat="42.776377983391285" lon="-7.410701019689441">
        <ele>423</ele>
        <time>2018-05-21T07:42:11Z</time>
      </trkpt>
      <trkpt lat="42.776363985612988" lon="-7.41065600886941">
        <ele>423</ele>
        <time>2018-05-21T07:42:12Z</time>
      </trkpt>
      <trkpt lat="42.776347976177931" lon="-7.410622984170914">
        <ele>423</ele>
        <time>2018-05-21T07:42:13Z</time>
      </trkpt>
      <trkpt lat="42.776320986449718" lon="-7.410609992220998">
        <ele>423</ele>
        <time>2018-05-21T07:42:14Z</time>
      </trkpt>
      <trkpt lat="42.776287961751223" lon="-7.410602029412985">
        <ele>423</ele>
        <time>2018-05-21T07:42:15Z</time>
      </trkpt>
      <trkpt lat="42.776254015043378" lon="-7.410602029412985">
        <ele>423</ele>
        <time>2018-05-21T07:42:16Z</time>
      </trkpt>
      <trkpt lat="42.776220990344882" lon="-7.410602029412985">
        <ele>423</ele>
        <time>2018-05-21T07:42:17Z</time>
      </trkpt>
      <trkpt lat="42.776187965646386" lon="-7.410602029412985">
        <ele>423</ele>
        <time>2018-05-21T07:42:18Z</time>
      </trkpt>
      <trkpt lat="42.776160975918174" lon="-7.410605968907476">
        <ele>423</ele>
        <time>2018-05-21T07:42:19Z</time>
      </trkpt>
      <trkpt lat="42.77613096870482" lon="-7.410609992220998">
        <ele>423</ele>
        <time>2018-05-21T07:42:20Z</time>
      </trkpt>
      <trkpt lat="42.776094004511833" lon="-7.410618960857391">
        <ele>423</ele>
        <time>2018-05-21T07:42:21Z</time>
      </trkpt>
      <trkpt lat="42.776054022833705" lon="-7.410631030797958">
        <ele>423</ele>
        <time>2018-05-21T07:42:22Z</time>
      </trkpt>
      <trkpt lat="42.776020998135209" lon="-7.410647040233016">
        <ele>423</ele>
        <time>2018-05-21T07:42:23Z</time>
      </trkpt>
      <trkpt lat="42.775995014235377" lon="-7.410651985555887">
        <ele>423</ele>
        <time>2018-05-21T07:42:24Z</time>
      </trkpt>
      <trkpt lat="42.775957966223359" lon="-7.410672018304467">
        <ele>423</ele>
        <time>2018-05-21T07:42:25Z</time>
      </trkpt>
      <trkpt lat="42.775921002030373" lon="-7.41067998111248">
        <ele>423</ele>
        <time>2018-05-21T07:42:26Z</time>
      </trkpt>
      <trkpt lat="42.775895018130541" lon="-7.410696996375918">
        <ele>423</ele>
        <time>2018-05-21T07:42:27Z</time>
      </trkpt>
      <trkpt lat="42.775868028402328" lon="-7.410704959183931">
        <ele>423</ele>
        <time>2018-05-21T07:42:28Z</time>
      </trkpt>
      <trkpt lat="42.775846989825368" lon="-7.410724991932511">
        <ele>423</ele>
        <time>2018-05-21T07:42:28Z</time>
      </trkpt>
      <trkpt lat="42.775822011753917" lon="-7.410747036337853">
        <ele>423</ele>
        <time>2018-05-21T07:42:29Z</time>
      </trkpt>
      <trkpt lat="42.775806002318859" lon="-7.410767991095781">
        <ele>423</ele>
        <time>2018-05-21T07:42:30Z</time>
      </trkpt>
      <trkpt lat="42.775779012590647" lon="-7.410772014409304">
        <ele>423</ele>
        <time>2018-05-21T07:42:31Z</time>
      </trkpt>
      <trkpt lat="42.775745987892151" lon="-7.410772014409304">
        <ele>423</ele>
        <time>2018-05-21T07:42:32Z</time>
      </trkpt>
      <trkpt lat="42.775718998163939" lon="-7.410763967782259">
        <ele>423</ele>
        <time>2018-05-21T07:42:33Z</time>
      </trkpt>
      <trkpt lat="42.775693014264107" lon="-7.410758016631007">
        <ele>423</ele>
        <time>2018-05-21T07:42:33Z</time>
      </trkpt>
      <trkpt lat="42.775670969858766" lon="-7.41074200719595">
        <ele>423</ele>
        <time>2018-05-21T07:42:34Z</time>
      </trkpt>
      <trkpt lat="42.775664012879133" lon="-7.410706970840693">
        <ele>423</ele>
        <time>2018-05-21T07:42:35Z</time>
      </trkpt>
      <trkpt lat="42.775664012879133" lon="-7.410670006647706">
        <ele>423</ele>
        <time>2018-05-21T07:42:36Z</time>
      </trkpt>
      <trkpt lat="42.775664012879133" lon="-7.410629019141197">
        <ele>423</ele>
        <time>2018-05-21T07:42:37Z</time>
      </trkpt>
      <trkpt lat="42.775664012879133" lon="-7.410588031634688">
        <ele>423</ele>
        <time>2018-05-21T07:42:37Z</time>
      </trkpt>
      <trkpt lat="42.775605004280806" lon="-7.41037798114121">
        <ele>423</ele>
        <time>2018-05-21T07:42:42Z</time>
      </trkpt>
      <trkpt lat="42.775591006502509" lon="-7.41031302139163">
        <ele>421</ele>
        <time>2018-05-21T07:42:44Z</time>
      </trkpt>
      <trkpt lat="42.775578014552593" lon="-7.41020598448813">
        <ele>421</ele>
        <time>2018-05-21T07:42:46Z</time>
      </trkpt>
      <trkpt lat="42.775568962097168" lon="-7.410131972283125">
        <ele>421</ele>
        <time>2018-05-21T07:42:48Z</time>
      </trkpt>
      <trkpt lat="42.775562005117536" lon="-7.410042034462094">
        <ele>421</ele>
        <time>2018-05-21T07:42:50Z</time>
      </trkpt>
      <trkpt lat="42.775555970147252" lon="-7.409959975630045">
        <ele>421</ele>
        <time>2018-05-21T07:42:51Z</time>
      </trkpt>
      <trkpt lat="42.77554901316762" lon="-7.40988596342504">
        <ele>421</ele>
        <time>2018-05-21T07:42:53Z</time>
      </trkpt>
      <trkpt lat="42.775520011782646" lon="-7.409759983420372">
        <ele>421</ele>
        <time>2018-05-21T07:42:56Z</time>
      </trkpt>
      <trkpt lat="42.775512970983982" lon="-7.409678008407354">
        <ele>421</ele>
        <time>2018-05-21T07:42:58Z</time>
      </trkpt>
      <trkpt lat="42.77550701983273" lon="-7.409568037837744">
        <ele>421</ele>
        <time>2018-05-21T07:43:00Z</time>
      </trkpt>
      <trkpt lat="42.775499979034066" lon="-7.409458989277482">
        <ele>420</ele>
        <time>2018-05-21T07:43:03Z</time>
      </trkpt>
      <trkpt lat="42.775483969599009" lon="-7.409376008436084">
        <ele>420</ele>
        <time>2018-05-21T07:43:04Z</time>
      </trkpt>
      <trkpt lat="42.775468965992332" lon="-7.409349018707871">
        <ele>421</ele>
        <time>2018-05-21T07:43:05Z</time>
      </trkpt>
      <trkpt lat="42.775453040376306" lon="-7.409296967089176">
        <ele>421</ele>
        <time>2018-05-21T07:43:06Z</time>
      </trkpt>
      <trkpt lat="42.775401994585991" lon="-7.409264026209712">
        <ele>421</ele>
        <time>2018-05-21T07:43:08Z</time>
      </trkpt>
      <trkpt lat="42.775349020957947" lon="-7.409238964319229">
        <ele>421</ele>
        <time>2018-05-21T07:43:10Z</time>
      </trkpt>
      <trkpt lat="42.775299986824393" lon="-7.409214992076159">
        <ele>421</ele>
        <time>2018-05-21T07:43:11Z</time>
      </trkpt>
      <trkpt lat="42.775243995711207" lon="-7.409206023439765">
        <ele>421</ele>
        <time>2018-05-21T07:43:13Z</time>
      </trkpt>
      <trkpt lat="42.775196973234415" lon="-7.409165035933256">
        <ele>421</ele>
        <time>2018-05-21T07:43:15Z</time>
      </trkpt>
      <trkpt lat="42.775151040405035" lon="-7.409129999577999">
        <ele>421</ele>
        <time>2018-05-21T07:43:16Z</time>
      </trkpt>
      <trkpt lat="42.775108041241765" lon="-7.40908901207149">
        <ele>421</ele>
        <time>2018-05-21T07:43:18Z</time>
      </trkpt>
      <trkpt lat="42.775065964087844" lon="-7.409027991816402">
        <ele>421</ele>
        <time>2018-05-21T07:43:19Z</time>
      </trkpt>
      <trkpt lat="42.775025982409716" lon="-7.408970994874835">
        <ele>421</ele>
        <time>2018-05-21T07:43:21Z</time>
      </trkpt>
      <trkpt lat="42.775006033480167" lon="-7.40889698266983">
        <ele>421</ele>
        <time>2018-05-21T07:43:23Z</time>
      </trkpt>
      <trkpt lat="42.774975020438433" lon="-7.408841997385025">
        <ele>421</ele>
        <time>2018-05-21T07:43:24Z</time>
      </trkpt>
      <trkpt lat="42.774941995739937" lon="-7.408790029585362">
        <ele>421</ele>
        <time>2018-05-21T07:43:26Z</time>
      </trkpt>
      <trkpt lat="42.774919029325247" lon="-7.408726997673512">
        <ele>421</ele>
        <time>2018-05-21T07:43:27Z</time>
      </trkpt>
      <trkpt lat="42.774912994354963" lon="-7.408647034317255">
        <ele>421</ele>
        <time>2018-05-21T07:43:29Z</time>
      </trkpt>
      <trkpt lat="42.774906037375331" lon="-7.408574027940631">
        <ele>421</ele>
        <time>2018-05-21T07:43:31Z</time>
      </trkpt>
      <trkpt lat="42.774906037375331" lon="-7.40846699103713">
        <ele>421</ele>
        <time>2018-05-21T07:43:33Z</time>
      </trkpt>
      <trkpt lat="42.774906037375331" lon="-7.408354002982378">
        <ele>421</ele>
        <time>2018-05-21T07:43:35Z</time>
      </trkpt>
      <trkpt lat="42.774906037375331" lon="-7.408279990777373">
        <ele>421</ele>
        <time>2018-05-21T07:43:37Z</time>
      </trkpt>
      <trkpt lat="42.774912994354963" lon="-7.408194998279214">
        <ele>421</ele>
        <time>2018-05-21T07:43:39Z</time>
      </trkpt>
      <trkpt lat="42.774933027103543" lon="-7.408120986074209">
        <ele>421</ele>
        <time>2018-05-21T07:43:41Z</time>
      </trkpt>
      <trkpt lat="42.774946019053459" lon="-7.40805602632463">
        <ele>421</ele>
        <time>2018-05-21T07:43:42Z</time>
      </trkpt>
      <trkpt lat="42.774978959932923" lon="-7.407948989421129">
        <ele>421</ele>
        <time>2018-05-21T07:43:45Z</time>
      </trkpt>
      <trkpt lat="42.774993041530252" lon="-7.407881012186408">
        <ele>421</ele>
        <time>2018-05-21T07:43:46Z</time>
      </trkpt>
      <trkpt lat="42.77503302320838" lon="-7.407823009416461">
        <ele>422</ele>
        <time>2018-05-21T07:43:48Z</time>
      </trkpt>
      <trkpt lat="42.775075016543269" lon="-7.40775503218174">
        <ele>422</ele>
        <time>2018-05-21T07:43:50Z</time>
      </trkpt>
      <trkpt lat="42.775117009878159" lon="-7.407695017755032">
        <ele>422</ele>
        <time>2018-05-21T07:43:52Z</time>
      </trkpt>
      <trkpt lat="42.775164032354951" lon="-7.407637014985085">
        <ele>422</ele>
        <time>2018-05-21T07:43:53Z</time>
      </trkpt>
      <trkpt lat="42.775188004598022" lon="-7.407596027478576">
        <ele>422</ele>
        <time>2018-05-21T07:43:55Z</time>
      </trkpt>
      <trkpt lat="42.77524902485311" lon="-7.407596027478576">
        <ele>422</ele>
        <time>2018-05-21T07:43:56Z</time>
      </trkpt>
      <trkpt lat="42.775284983217716" lon="-7.407552022486925">
        <ele>422</ele>
        <time>2018-05-21T07:43:58Z</time>
      </trkpt>
      <trkpt lat="42.775284983217716" lon="-7.40747801028192">
        <ele>422</ele>
        <time>2018-05-21T07:43:59Z</time>
      </trkpt>
      <trkpt lat="42.775323959067464" lon="-7.407437022775412">
        <ele>422</ele>
        <time>2018-05-21T07:44:01Z</time>
      </trkpt>
      <trkpt lat="42.775381961837411" lon="-7.407421013340354">
        <ele>422</ele>
        <time>2018-05-21T07:44:03Z</time>
      </trkpt>
      <trkpt lat="42.775439964607358" lon="-7.407403998076916">
        <ele>422</ele>
        <time>2018-05-21T07:44:04Z</time>
      </trkpt>
      <trkpt lat="42.775496039539576" lon="-7.407396035268903">
        <ele>424</ele>
        <time>2018-05-21T07:44:06Z</time>
      </trkpt>
      <trkpt lat="42.775523029267788" lon="-7.407339038327336">
        <ele>424</ele>
        <time>2018-05-21T07:44:08Z</time>
      </trkpt>
      <trkpt lat="42.775555970147252" lon="-7.407279023900628">
        <ele>424</ele>
        <time>2018-05-21T07:44:09Z</time>
      </trkpt>
      <trkpt lat="42.775582959875464" lon="-7.407212974503636">
        <ele>424</ele>
        <time>2018-05-21T07:44:11Z</time>
      </trkpt>
      <trkpt lat="42.775609027594328" lon="-7.407138962298632">
        <ele>424</ele>
        <time>2018-05-21T07:44:13Z</time>
      </trkpt>
      <trkpt lat="42.775623025372624" lon="-7.407056987285614">
        <ele>427</ele>
        <time>2018-05-21T07:44:14Z</time>
      </trkpt>
      <trkpt lat="42.775649009272456" lon="-7.406982975080609">
        <ele>427</ele>
        <time>2018-05-21T07:44:16Z</time>
      </trkpt>
      <trkpt lat="42.77567801065743" lon="-7.406922960653901">
        <ele>427</ele>
        <time>2018-05-21T07:44:18Z</time>
      </trkpt>
      <trkpt lat="42.775695025920868" lon="-7.406694972887635">
        <ele>427</ele>
        <time>2018-05-21T07:44:23Z</time>
      </trkpt>
      <trkpt lat="42.775698965415359" lon="-7.406673012301326">
        <ele>427</ele>
        <time>2018-05-21T07:44:23Z</time>
      </trkpt>
      <trkpt lat="42.775707012042403" lon="-7.406653985381126">
        <ele>427</ele>
        <time>2018-05-21T07:44:24Z</time>
      </trkpt>
      <trkpt lat="42.775716986507177" lon="-7.406634036451578">
        <ele>427</ele>
        <time>2018-05-21T07:44:24Z</time>
      </trkpt>
      <trkpt lat="42.775723021477461" lon="-7.406612997874618">
        <ele>427</ele>
        <time>2018-05-21T07:44:25Z</time>
      </trkpt>
      <trkpt lat="42.775726960971951" lon="-7.406591037288308">
        <ele>427</ele>
        <time>2018-05-21T07:44:25Z</time>
      </trkpt>
      <trkpt lat="42.775728972628713" lon="-7.406567987054586">
        <ele>427</ele>
        <time>2018-05-21T07:44:26Z</time>
      </trkpt>
      <trkpt lat="42.775730984285474" lon="-7.406544014811516">
        <ele>427</ele>
        <time>2018-05-21T07:44:26Z</time>
      </trkpt>
      <trkpt lat="42.775739030912519" lon="-7.406514007598162">
        <ele>427</ele>
        <time>2018-05-21T07:44:27Z</time>
      </trkpt>
      <trkpt lat="42.775739030912519" lon="-7.406489029526711">
        <ele>427</ele>
        <time>2018-05-21T07:44:27Z</time>
      </trkpt>
      <trkpt lat="42.775740958750248" lon="-7.406466985121369">
        <ele>427</ele>
        <time>2018-05-21T07:44:28Z</time>
      </trkpt>
      <trkpt lat="42.775753028690815" lon="-7.406433038413525">
        <ele>427</ele>
        <time>2018-05-21T07:44:29Z</time>
      </trkpt>
      <trkpt lat="42.775763003155589" lon="-7.406416023150086">
        <ele>427</ele>
        <time>2018-05-21T07:44:29Z</time>
      </trkpt>
      <trkpt lat="42.775767026469111" lon="-7.406392972916365">
        <ele>427</ele>
        <time>2018-05-21T07:44:30Z</time>
      </trkpt>
      <trkpt lat="42.775769038125873" lon="-7.406371012330055">
        <ele>427</ele>
        <time>2018-05-21T07:44:30Z</time>
      </trkpt>
      <trkpt lat="42.775774989277124" lon="-7.406342010945082">
        <ele>427</ele>
        <time>2018-05-21T07:44:31Z</time>
      </trkpt>
      <trkpt lat="42.775779012590647" lon="-7.406319966539741">
        <ele>427</ele>
        <time>2018-05-21T07:44:31Z</time>
      </trkpt>
      <trkpt lat="42.775784963741899" lon="-7.406297000125051">
        <ele>427</ele>
        <time>2018-05-21T07:44:32Z</time>
      </trkpt>
      <trkpt lat="42.775795022025704" lon="-7.40627302788198">
        <ele>427</ele>
        <time>2018-05-21T07:44:32Z</time>
      </trkpt>
      <trkpt lat="42.775804996490479" lon="-7.406246038153768">
        <ele>427</ele>
        <time>2018-05-21T07:44:33Z</time>
      </trkpt>
      <trkpt lat="42.775818994268775" lon="-7.406220976263285">
        <ele>424</ele>
        <time>2018-05-21T07:44:34Z</time>
      </trkpt>
      <trkpt lat="42.775826035067439" lon="-7.406198009848595">
        <ele>424</ele>
        <time>2018-05-21T07:44:34Z</time>
      </trkpt>
      <trkpt lat="42.775831986218691" lon="-7.406174037605524">
        <ele>424</ele>
        <time>2018-05-21T07:44:35Z</time>
      </trkpt>
      <trkpt lat="42.775840032845736" lon="-7.406150987371802">
        <ele>424</ele>
        <time>2018-05-21T07:44:35Z</time>
      </trkpt>
      <trkpt lat="42.775852018967271" lon="-7.406128020957112">
        <ele>424</ele>
        <time>2018-05-21T07:44:36Z</time>
      </trkpt>
      <trkpt lat="42.775859981775284" lon="-7.406105976551771">
        <ele>424</ele>
        <time>2018-05-21T07:44:37Z</time>
      </trkpt>
      <trkpt lat="42.775868028402328" lon="-7.406087033450604">
        <ele>424</ele>
        <time>2018-05-21T07:44:37Z</time>
      </trkpt>
      <trkpt lat="42.775878002867103" lon="-7.406061971560121">
        <ele>424</ele>
        <time>2018-05-21T07:44:38Z</time>
      </trkpt>
      <trkpt lat="42.775882026180625" lon="-7.406040010973811">
        <ele>424</ele>
        <time>2018-05-21T07:44:38Z</time>
      </trkpt>
      <trkpt lat="42.775885965675116" lon="-7.40601796656847">
        <ele>424</ele>
        <time>2018-05-21T07:44:39Z</time>
      </trkpt>
      <trkpt lat="42.775892000645399" lon="-7.405992988497019">
        <ele>424</ele>
        <time>2018-05-21T07:44:39Z</time>
      </trkpt>
      <trkpt lat="42.775898035615683" lon="-7.405971027910709">
        <ele>424</ele>
        <time>2018-05-21T07:44:40Z</time>
      </trkpt>
      <trkpt lat="42.775905998423696" lon="-7.405948983505368">
        <ele>424</ele>
        <time>2018-05-21T07:44:40Z</time>
      </trkpt>
      <trkpt lat="42.775912033393979" lon="-7.405927022919059">
        <ele>424</ele>
        <time>2018-05-21T07:44:41Z</time>
      </trkpt>
      <trkpt lat="42.775919996201992" lon="-7.405903972685337">
        <ele>424</ele>
        <time>2018-05-21T07:44:41Z</time>
      </trkpt>
      <trkpt lat="42.775924019515514" lon="-7.405880000442267">
        <ele>424</ele>
        <time>2018-05-21T07:44:42Z</time>
      </trkpt>
      <trkpt lat="42.775929970666766" lon="-7.405847981572151">
        <ele>424</ele>
        <time>2018-05-21T07:44:43Z</time>
      </trkpt>
      <trkpt lat="42.77593701146543" lon="-7.405820991843939">
        <ele>424</ele>
        <time>2018-05-21T07:44:43Z</time>
      </trkpt>
      <trkpt lat="42.775939023122191" lon="-7.40578000433743">
        <ele>424</ele>
        <time>2018-05-21T07:44:44Z</time>
      </trkpt>
      <trkpt lat="42.775939023122191" lon="-7.405751002952457">
        <ele>424</ele>
        <time>2018-05-21T07:44:45Z</time>
      </trkpt>
      <trkpt lat="42.77593701146543" lon="-7.405726024881005">
        <ele>424</ele>
        <time>2018-05-21T07:44:45Z</time>
      </trkpt>
      <trkpt lat="42.775927959010005" lon="-7.405705992132425">
        <ele>424</ele>
        <time>2018-05-21T07:44:46Z</time>
      </trkpt>
      <trkpt lat="42.775917984545231" lon="-7.405684031546116">
        <ele>424</ele>
        <time>2018-05-21T07:44:46Z</time>
      </trkpt>
      <trkpt lat="42.775908010080457" lon="-7.405666010454297">
        <ele>424</ele>
        <time>2018-05-21T07:44:47Z</time>
      </trkpt>
      <trkpt lat="42.775899963453412" lon="-7.405646983534098">
        <ele>424</ele>
        <time>2018-05-21T07:44:47Z</time>
      </trkpt>
      <trkpt lat="42.775896023958921" lon="-7.405627034604549">
        <ele>424</ele>
        <time>2018-05-21T07:44:48Z</time>
      </trkpt>
      <trkpt lat="42.775887977331877" lon="-7.405610019341111">
        <ele>424</ele>
        <time>2018-05-21T07:44:48Z</time>
      </trkpt>
      <trkpt lat="42.775885965675116" lon="-7.405578000470996">
        <ele>424</ele>
        <time>2018-05-21T07:44:49Z</time>
      </trkpt>
      <trkpt lat="42.775885965675116" lon="-7.405555034056306">
        <ele>424</ele>
        <time>2018-05-21T07:44:49Z</time>
      </trkpt>
      <trkpt lat="42.775885965675116" lon="-7.405527960509062">
        <ele>424</ele>
        <time>2018-05-21T07:44:50Z</time>
      </trkpt>
      <trkpt lat="42.775885965675116" lon="-7.405503988265991">
        <ele>424</ele>
        <time>2018-05-21T07:44:50Z</time>
      </trkpt>
      <trkpt lat="42.775885965675116" lon="-7.405464006587863">
        <ele>424</ele>
        <time>2018-05-21T07:44:51Z</time>
      </trkpt>
      <trkpt lat="42.775882026180625" lon="-7.405440034344792">
        <ele>424</ele>
        <time>2018-05-21T07:44:52Z</time>
      </trkpt>
      <trkpt lat="42.775882026180625" lon="-7.405412960797548">
        <ele>422</ele>
        <time>2018-05-21T07:44:52Z</time>
      </trkpt>
      <trkpt lat="42.775880014523864" lon="-7.405381025746465">
        <ele>422</ele>
        <time>2018-05-21T07:44:53Z</time>
      </trkpt>
      <trkpt lat="42.775875991210341" lon="-7.405349006876349">
        <ele>422</ele>
        <time>2018-05-21T07:44:54Z</time>
      </trkpt>
      <trkpt lat="42.77587397955358" lon="-7.405316988006234">
        <ele>422</ele>
        <time>2018-05-21T07:44:55Z</time>
      </trkpt>
      <trkpt lat="42.77587004005909" lon="-7.405295027419925">
        <ele>422</ele>
        <time>2018-05-21T07:44:55Z</time>
      </trkpt>
      <trkpt lat="42.775861993432045" lon="-7.405257979407907">
        <ele>422</ele>
        <time>2018-05-21T07:44:56Z</time>
      </trkpt>
      <trkpt lat="42.775854030624032" lon="-7.405230989679694">
        <ele>422</ele>
        <time>2018-05-21T07:44:57Z</time>
      </trkpt>
      <trkpt lat="42.775847995653749" lon="-7.405207017436624">
        <ele>422</ele>
        <time>2018-05-21T07:44:57Z</time>
      </trkpt>
      <trkpt lat="42.775836009532213" lon="-7.405169969424605">
        <ele>422</ele>
        <time>2018-05-21T07:44:58Z</time>
      </trkpt>
      <trkpt lat="42.775831986218691" lon="-7.405142979696393">
        <ele>422</ele>
        <time>2018-05-21T07:44:59Z</time>
      </trkpt>
      <trkpt lat="42.775824023410678" lon="-7.405120013281703">
        <ele>422</ele>
        <time>2018-05-21T07:44:59Z</time>
      </trkpt>
      <trkpt lat="42.775817988440394" lon="-7.405097968876362">
        <ele>422</ele>
        <time>2018-05-21T07:45:00Z</time>
      </trkpt>
      <trkpt lat="42.775812037289143" lon="-7.40507097914815">
        <ele>422</ele>
        <time>2018-05-21T07:45:00Z</time>
      </trkpt>
      <trkpt lat="42.775806002318859" lon="-7.405034014955163">
        <ele>422</ele>
        <time>2018-05-21T07:45:01Z</time>
      </trkpt>
      <trkpt lat="42.775803990662098" lon="-7.405011970549822">
        <ele>422</ele>
        <time>2018-05-21T07:45:02Z</time>
      </trkpt>
      <trkpt lat="42.775796027854085" lon="-7.404992021620274">
        <ele>422</ele>
        <time>2018-05-21T07:45:02Z</time>
      </trkpt>
      <trkpt lat="42.775789992883801" lon="-7.404967965558171">
        <ele>422</ele>
        <time>2018-05-21T07:45:03Z</time>
      </trkpt>
      <trkpt lat="42.775782030075788" lon="-7.40494298748672">
        <ele>422</ele>
        <time>2018-05-21T07:45:03Z</time>
      </trkpt>
      <trkpt lat="42.775773983448744" lon="-7.404906023293734">
        <ele>422</ele>
        <time>2018-05-21T07:45:04Z</time>
      </trkpt>
      <trkpt lat="42.775769038125873" lon="-7.404883978888392">
        <ele>422</ele>
        <time>2018-05-21T07:45:04Z</time>
      </trkpt>
      <trkpt lat="42.77576501481235" lon="-7.40485698916018">
        <ele>422</ele>
        <time>2018-05-21T07:45:05Z</time>
      </trkpt>
      <trkpt lat="42.775758979842067" lon="-7.404837040230632">
        <ele>422</ele>
        <time>2018-05-21T07:45:06Z</time>
      </trkpt>
      <trkpt lat="42.775758979842067" lon="-7.404808038845658">
        <ele>422</ele>
        <time>2018-05-21T07:45:06Z</time>
      </trkpt>
      <trkpt lat="42.775758979842067" lon="-7.404765039682388">
        <ele>422</ele>
        <time>2018-05-21T07:45:07Z</time>
      </trkpt>
      <trkpt lat="42.775740036740899" lon="-7.404685998335481">
        <ele>422</ele>
        <time>2018-05-21T07:45:09Z</time>
      </trkpt>
      <trkpt lat="42.775729978457093" lon="-7.404651967808604">
        <ele>422</ele>
        <time>2018-05-21T07:45:10Z</time>
      </trkpt>
      <trkpt lat="42.775712041184306" lon="-7.404570998623967">
        <ele>422</ele>
        <time>2018-05-21T07:45:12Z</time>
      </trkpt>
      <trkpt lat="42.775693014264107" lon="-7.404502015560865">
        <ele>422</ele>
        <time>2018-05-21T07:45:13Z</time>
      </trkpt>
      <trkpt lat="42.775683961808681" lon="-7.40444996394217">
        <ele>422</ele>
        <time>2018-05-21T07:45:14Z</time>
      </trkpt>
      <trkpt lat="42.775673987343907" lon="-7.404387015849352">
        <ele>422</ele>
        <time>2018-05-21T07:45:16Z</time>
      </trkpt>
      <trkpt lat="42.775665018707514" lon="-7.40431803278625">
        <ele>422</ele>
        <time>2018-05-21T07:45:17Z</time>
      </trkpt>
      <trkpt lat="42.775645991787314" lon="-7.404215019196272">
        <ele>422</ele>
        <time>2018-05-21T07:45:20Z</time>
      </trkpt>
      <trkpt lat="42.775645991787314" lon="-7.404162967577577">
        <ele>422</ele>
        <time>2018-05-21T07:45:21Z</time>
      </trkpt>
      <trkpt lat="42.775641968473792" lon="-7.404089039191604">
        <ele>422</ele>
        <time>2018-05-21T07:45:22Z</time>
      </trkpt>
      <trkpt lat="42.775631994009018" lon="-7.404036987572908">
        <ele>422</ele>
        <time>2018-05-21T07:45:23Z</time>
      </trkpt>
      <trkpt lat="42.775631994009018" lon="-7.40397403948009">
        <ele>422</ele>
        <time>2018-05-21T07:45:25Z</time>
      </trkpt>
      <trkpt lat="42.775631994009018" lon="-7.403914025053382">
        <ele>422</ele>
        <time>2018-05-21T07:45:26Z</time>
      </trkpt>
      <trkpt lat="42.775659989565611" lon="-7.403815034776926">
        <ele>422</ele>
        <time>2018-05-21T07:45:28Z</time>
      </trkpt>
      <trkpt lat="42.775673987343907" lon="-7.403700035065413">
        <ele>422</ele>
        <time>2018-05-21T07:45:31Z</time>
      </trkpt>
      <trkpt lat="42.775712041184306" lon="-7.403525020927191">
        <ele>422</ele>
        <time>2018-05-21T07:45:35Z</time>
      </trkpt>
      <trkpt lat="42.775736013427377" lon="-7.403353024274111">
        <ele>422</ele>
        <time>2018-05-21T07:45:39Z</time>
      </trkpt>
      <trkpt lat="42.775789992883801" lon="-7.403199970722199">
        <ele>422</ele>
        <time>2018-05-21T07:45:42Z</time>
      </trkpt>
      <trkpt lat="42.775833997875452" lon="-7.403039038181305">
        <ele>422</ele>
        <time>2018-05-21T07:45:46Z</time>
      </trkpt>
      <trkpt lat="42.775800973176956" lon="-7.402876010164619">
        <ele>422</ele>
        <time>2018-05-21T07:45:50Z</time>
      </trkpt>
      <trkpt lat="42.775783035904169" lon="-7.402671994641423">
        <ele>423</ele>
        <time>2018-05-21T07:45:54Z</time>
      </trkpt>
      <trkpt lat="42.775769038125873" lon="-7.402504021301866">
        <ele>423</ele>
        <time>2018-05-21T07:45:58Z</time>
      </trkpt>
      <trkpt lat="42.775757974013686" lon="-7.402296988293529">
        <ele>423</ele>
        <time>2018-05-21T07:46:02Z</time>
      </trkpt>
      <trkpt lat="42.775753028690815" lon="-7.401899015530944">
        <ele>420</ele>
        <time>2018-05-21T07:46:11Z</time>
      </trkpt>
      <trkpt lat="42.775739030912519" lon="-7.401603972539306">
        <ele>420</ele>
        <time>2018-05-21T07:46:17Z</time>
      </trkpt>
      <trkpt lat="42.775697037577629" lon="-7.401300966739655">
        <ele>420</ele>
        <time>2018-05-21T07:46:24Z</time>
      </trkpt>
      <trkpt lat="42.775659989565611" lon="-7.401003995910287">
        <ele>421</ele>
        <time>2018-05-21T07:46:31Z</time>
      </trkpt>
      <trkpt lat="42.77563501149416" lon="-7.400756981223822">
        <ele>421</ele>
        <time>2018-05-21T07:46:36Z</time>
      </trkpt>
      <trkpt lat="42.775601986795664" lon="-7.400490017607808">
        <ele>421</ele>
        <time>2018-05-21T07:46:42Z</time>
      </trkpt>
      <trkpt lat="42.775616990402341" lon="-7.40030100569129">
        <ele>424</ele>
        <time>2018-05-21T07:46:46Z</time>
      </trkpt>
      <trkpt lat="42.775646997615695" lon="-7.400157004594803">
        <ele>424</ele>
        <time>2018-05-21T07:46:49Z</time>
      </trkpt>
      <trkpt lat="42.775688990950584" lon="-7.400027001276612">
        <ele>424</ele>
        <time>2018-05-21T07:46:52Z</time>
      </trkpt>
      <trkpt lat="42.775726038962603" lon="-7.399856010451913">
        <ele>424</ele>
        <time>2018-05-21T07:46:56Z</time>
      </trkpt>
      <trkpt lat="42.775790998712182" lon="-7.399682002142072">
        <ele>430</ele>
        <time>2018-05-21T07:47:00Z</time>
      </trkpt>
      <trkpt lat="42.775868028402328" lon="-7.399452002719045">
        <ele>426</ele>
        <time>2018-05-21T07:47:06Z</time>
      </trkpt>
      <trkpt lat="42.775904992595315" lon="-7.399222003296018">
        <ele>426</ele>
        <time>2018-05-21T07:47:11Z</time>
      </trkpt>
      <trkpt lat="42.775969030335546" lon="-7.399067021906376">
        <ele>426</ele>
        <time>2018-05-21T07:47:15Z</time>
      </trkpt>
      <trkpt lat="42.776053017005324" lon="-7.398859988898039">
        <ele>426</ele>
        <time>2018-05-21T07:47:20Z</time>
      </trkpt>
      <trkpt lat="42.776103978976607" lon="-7.398680029436946">
        <ele>427</ele>
        <time>2018-05-21T07:47:24Z</time>
      </trkpt>
      <trkpt lat="42.7761510014534" lon="-7.398364031687379">
        <ele>427</ele>
        <time>2018-05-21T07:47:31Z</time>
      </trkpt>
      <trkpt lat="42.7761510014534" lon="-7.398223970085383">
        <ele>427</ele>
        <time>2018-05-21T07:47:34Z</time>
      </trkpt>
      <trkpt lat="42.776175979524851" lon="-7.398060020059347">
        <ele>427</ele>
        <time>2018-05-21T07:47:38Z</time>
      </trkpt>
      <trkpt lat="42.77619400061667" lon="-7.39780998788774">
        <ele>430</ele>
        <time>2018-05-21T07:47:43Z</time>
      </trkpt>
      <trkpt lat="42.77619400061667" lon="-7.397716026753187">
        <ele>430</ele>
        <time>2018-05-21T07:47:45Z</time>
      </trkpt>
      <trkpt lat="42.77619400061667" lon="-7.397655006498098">
        <ele>430</ele>
        <time>2018-05-21T07:47:47Z</time>
      </trkpt>
      <trkpt lat="42.77619400061667" lon="-7.397460965439677">
        <ele>430</ele>
        <time>2018-05-21T07:47:51Z</time>
      </trkpt>
      <trkpt lat="42.776169022545218" lon="-7.397303972393274">
        <ele>430</ele>
        <time>2018-05-21T07:47:54Z</time>
      </trkpt>
      <trkpt lat="42.776159970089793" lon="-7.39709903486073">
        <ele>430</ele>
        <time>2018-05-21T07:47:59Z</time>
      </trkpt>
      <trkpt lat="42.776155024766922" lon="-7.396850008517504">
        <ele>431</ele>
        <time>2018-05-21T07:48:04Z</time>
      </trkpt>
      <trkpt lat="42.7761510014534" lon="-7.396654961630702">
        <ele>431</ele>
        <time>2018-05-21T07:48:08Z</time>
      </trkpt>
      <trkpt lat="42.776169022545218" lon="-7.396465027704835">
        <ele>431</ele>
        <time>2018-05-21T07:48:13Z</time>
      </trkpt>
      <trkpt lat="42.776204980909824" lon="-7.396280961111188">
        <ele>431</ele>
        <time>2018-05-21T07:48:17Z</time>
      </trkpt>
      <trkpt lat="42.77621403336525" lon="-7.396087003871799">
        <ele>432</ele>
        <time>2018-05-21T07:48:21Z</time>
      </trkpt>
      <trkpt lat="42.776228031143546" lon="-7.395902015268803">
        <ele>432</ele>
        <time>2018-05-21T07:48:25Z</time>
      </trkpt>
      <trkpt lat="42.776272036135197" lon="-7.395331040024757">
        <ele>436</ele>
        <time>2018-05-21T07:48:37Z</time>
      </trkpt>
      <trkpt lat="42.77630003169179" lon="-7.395013030618429">
        <ele>435</ele>
        <time>2018-05-21T07:48:44Z</time>
      </trkpt>
      <trkpt lat="42.776342025026679" lon="-7.394626038148999">
        <ele>435</ele>
        <time>2018-05-21T07:48:53Z</time>
      </trkpt>
      <trkpt lat="42.776361973956227" lon="-7.394249020144343">
        <ele>436</ele>
        <time>2018-05-21T07:49:01Z</time>
      </trkpt>
      <trkpt lat="42.776381000876427" lon="-7.393904021009803">
        <ele>436</ele>
        <time>2018-05-21T07:49:08Z</time>
      </trkpt>
      <trkpt lat="42.776381000876427" lon="-7.393525997176766">
        <ele>435</ele>
        <time>2018-05-21T07:49:17Z</time>
      </trkpt>
      <trkpt lat="42.776381000876427" lon="-7.393294991925359">
        <ele>435</ele>
        <time>2018-05-21T07:49:22Z</time>
      </trkpt>
      <trkpt lat="42.776381000876427" lon="-7.392983017489314">
        <ele>435</ele>
        <time>2018-05-21T07:49:28Z</time>
      </trkpt>
      <trkpt lat="42.776381000876427" lon="-7.392728962004185">
        <ele>436</ele>
        <time>2018-05-21T07:49:34Z</time>
      </trkpt>
      <trkpt lat="42.776381000876427" lon="-7.392530981451273">
        <ele>436</ele>
        <time>2018-05-21T07:49:38Z</time>
      </trkpt>
      <trkpt lat="42.776372032240033" lon="-7.392253037542105">
        <ele>436</ele>
        <time>2018-05-21T07:49:44Z</time>
      </trkpt>
      <trkpt lat="42.776340013369918" lon="-7.391971992328763">
        <ele>442</ele>
        <time>2018-05-21T07:49:50Z</time>
      </trkpt>
      <trkpt lat="42.776291985064745" lon="-7.391759008169174">
        <ele>440</ele>
        <time>2018-05-21T07:49:55Z</time>
      </trkpt>
      <trkpt lat="42.776277987286448" lon="-7.391507970169187">
        <ele>440</ele>
        <time>2018-05-21T07:50:01Z</time>
      </trkpt>
      <trkpt lat="42.776268012821674" lon="-7.391264978796244">
        <ele>440</ele>
        <time>2018-05-21T07:50:06Z</time>
      </trkpt>
      <trkpt lat="42.776258960366249" lon="-7.391093987971544">
        <ele>445</ele>
        <time>2018-05-21T07:50:10Z</time>
      </trkpt>
      <trkpt lat="42.776244962587953" lon="-7.390857031568885">
        <ele>445</ele>
        <time>2018-05-21T07:50:15Z</time>
      </trkpt>
      <trkpt lat="42.776215961202979" lon="-7.390637006610632">
        <ele>445</ele>
        <time>2018-05-21T07:50:20Z</time>
      </trkpt>
      <trkpt lat="42.776187965646386" lon="-7.39046199247241">
        <ele>445</ele>
        <time>2018-05-21T07:50:24Z</time>
      </trkpt>
      <trkpt lat="42.776177991181612" lon="-7.390280021354556">
        <ele>450</ele>
        <time>2018-05-21T07:50:28Z</time>
      </trkpt>
      <trkpt lat="42.776153013110161" lon="-7.389935022220016">
        <ele>450</ele>
        <time>2018-05-21T07:50:35Z</time>
      </trkpt>
      <trkpt lat="42.776132980361581" lon="-7.389739975333214">
        <ele>450</ele>
        <time>2018-05-21T07:50:39Z</time>
      </trkpt>
      <trkpt lat="42.776124011725187" lon="-7.389474017545581">
        <ele>454</ele>
        <time>2018-05-21T07:50:45Z</time>
      </trkpt>
      <trkpt lat="42.776118982583284" lon="-7.389262961223722">
        <ele>454</ele>
        <time>2018-05-21T07:50:50Z</time>
      </trkpt>
      <trkpt lat="42.776118982583284" lon="-7.389031033962965">
        <ele>454</ele>
        <time>2018-05-21T07:50:55Z</time>
      </trkpt>
      <trkpt lat="42.776139015331864" lon="-7.388818971812725">
        <ele>454</ele>
        <time>2018-05-21T07:50:59Z</time>
      </trkpt>
      <trkpt lat="42.776148989796638" lon="-7.388539016246796">
        <ele>455</ele>
        <time>2018-05-21T07:51:06Z</time>
      </trkpt>
      <trkpt lat="42.776159970089793" lon="-7.388294013217092">
        <ele>455</ele>
        <time>2018-05-21T07:51:11Z</time>
      </trkpt>
      <trkpt lat="42.776163993403316" lon="-7.388062002137303">
        <ele>455</ele>
        <time>2018-05-21T07:51:16Z</time>
      </trkpt>
      <trkpt lat="42.776197018101811" lon="-7.38784197717905">
        <ele>452</ele>
        <time>2018-05-21T07:51:21Z</time>
      </trkpt>
      <trkpt lat="42.776226019486785" lon="-7.387626981362701">
        <ele>452</ele>
        <time>2018-05-21T07:51:25Z</time>
      </trkpt>
      <trkpt lat="42.776240017265081" lon="-7.387369992211461">
        <ele>452</ele>
        <time>2018-05-21T07:51:31Z</time>
      </trkpt>
      <trkpt lat="42.77626097202301" lon="-7.387116020545363">
        <ele>452</ele>
        <time>2018-05-21T07:51:37Z</time>
      </trkpt>
      <trkpt lat="42.776272036135197" lon="-7.386833969503641">
        <ele>446</ele>
        <time>2018-05-21T07:51:43Z</time>
      </trkpt>
      <trkpt lat="42.776286033913493" lon="-7.386566000059247">
        <ele>446</ele>
        <time>2018-05-21T07:51:49Z</time>
      </trkpt>
      <trkpt lat="42.776289973407984" lon="-7.386380005627871">
        <ele>446</ele>
        <time>2018-05-21T07:51:53Z</time>
      </trkpt>
      <trkpt lat="42.776305982843041" lon="-7.386245978996158">
        <ele>443</ele>
        <time>2018-05-21T07:51:56Z</time>
      </trkpt>
      <trkpt lat="42.776311011984944" lon="-7.385997036471963">
        <ele>442</ele>
        <time>2018-05-21T07:52:01Z</time>
      </trkpt>
      <trkpt lat="42.776334984228015" lon="-7.385804001241922">
        <ele>442</ele>
        <time>2018-05-21T07:52:05Z</time>
      </trkpt>
      <trkpt lat="42.77634403668344" lon="-7.385757984593511">
        <ele>442</ele>
        <time>2018-05-21T07:52:06Z</time>
      </trkpt>
      <trkpt lat="42.776348982006311" lon="-7.385706016793847">
        <ele>442</ele>
        <time>2018-05-21T07:52:07Z</time>
      </trkpt>
      <trkpt lat="42.776368008926511" lon="-7.385613983497024">
        <ele>442</ele>
        <time>2018-05-21T07:52:09Z</time>
      </trkpt>
      <trkpt lat="42.776376977562904" lon="-7.385563021525741">
        <ele>442</ele>
        <time>2018-05-21T07:52:11Z</time>
      </trkpt>
      <trkpt lat="42.77638603001833" lon="-7.385512981563807">
        <ele>442</ele>
        <time>2018-05-21T07:52:12Z</time>
      </trkpt>
      <trkpt lat="42.776397010311484" lon="-7.385465037077665">
        <ele>442</ele>
        <time>2018-05-21T07:52:13Z</time>
      </trkpt>
      <trkpt lat="42.776402039453387" lon="-7.38541298545897">
        <ele>448</ele>
        <time>2018-05-21T07:52:14Z</time>
      </trkpt>
      <trkpt lat="42.776419976726174" lon="-7.385370992124081">
        <ele>448</ele>
        <time>2018-05-21T07:52:15Z</time>
      </trkpt>
      <trkpt lat="42.776425005868077" lon="-7.385319024324417">
        <ele>448</ele>
        <time>2018-05-21T07:52:16Z</time>
      </trkpt>
      <trkpt lat="42.776444032788277" lon="-7.385262027382851">
        <ele>448</ele>
        <time>2018-05-21T07:52:18Z</time>
      </trkpt>
      <trkpt lat="42.776463981717825" lon="-7.385226991027594">
        <ele>448</ele>
        <time>2018-05-21T07:52:18Z</time>
      </trkpt>
      <trkpt lat="42.776477979496121" lon="-7.385187009349465">
        <ele>448</ele>
        <time>2018-05-21T07:52:19Z</time>
      </trkpt>
      <trkpt lat="42.776483008638024" lon="-7.385135041549802">
        <ele>448</ele>
        <time>2018-05-21T07:52:21Z</time>
      </trkpt>
      <trkpt lat="42.776487031951547" lon="-7.385072009637952">
        <ele>448</ele>
        <time>2018-05-21T07:52:22Z</time>
      </trkpt>
      <trkpt lat="42.776501029729843" lon="-7.385023981332779">
        <ele>448</ele>
        <time>2018-05-21T07:52:23Z</time>
      </trkpt>
      <trkpt lat="42.776511004194617" lon="-7.384961033239961">
        <ele>448</ele>
        <time>2018-05-21T07:52:24Z</time>
      </trkpt>
      <trkpt lat="42.776519972831011" lon="-7.384913004934788">
        <ele>448</ele>
        <time>2018-05-21T07:52:26Z</time>
      </trkpt>
      <trkpt lat="42.776529025286436" lon="-7.384861037135124">
        <ele>448</ele>
        <time>2018-05-21T07:52:27Z</time>
      </trkpt>
      <trkpt lat="42.776533970609307" lon="-7.384804040193558">
        <ele>448</ele>
        <time>2018-05-21T07:52:28Z</time>
      </trkpt>
      <trkpt lat="42.776543023064733" lon="-7.384758023545146">
        <ele>448</ele>
        <time>2018-05-21T07:52:29Z</time>
      </trkpt>
      <trkpt lat="42.776543023064733" lon="-7.38470102660358">
        <ele>448</ele>
        <time>2018-05-21T07:52:30Z</time>
      </trkpt>
      <trkpt lat="42.776557020843029" lon="-7.384626008570194">
        <ele>448</ele>
        <time>2018-05-21T07:52:32Z</time>
      </trkpt>
      <trkpt lat="42.776557020843029" lon="-7.384568005800247">
        <ele>448</ele>
        <time>2018-05-21T07:52:33Z</time>
      </trkpt>
      <trkpt lat="42.7765619661659" lon="-7.38450899720192">
        <ele>448</ele>
        <time>2018-05-21T07:52:34Z</time>
      </trkpt>
      <trkpt lat="42.7765619661659" lon="-7.384455017745495">
        <ele>453</ele>
        <time>2018-05-21T07:52:36Z</time>
      </trkpt>
      <trkpt lat="42.7765619661659" lon="-7.384401960298419">
        <ele>453</ele>
        <time>2018-05-21T07:52:37Z</time>
      </trkpt>
      <trkpt lat="42.776557020843029" lon="-7.384344041347504">
        <ele>453</ele>
        <time>2018-05-21T07:52:38Z</time>
      </trkpt>
      <trkpt lat="42.776552997529507" lon="-7.384263994172216">
        <ele>453</ele>
        <time>2018-05-21T07:52:40Z</time>
      </trkpt>
      <trkpt lat="42.77653899975121" lon="-7.384210014715791">
        <ele>453</ele>
        <time>2018-05-21T07:52:41Z</time>
      </trkpt>
      <trkpt lat="42.776519972831011" lon="-7.384129967540503">
        <ele>453</ele>
        <time>2018-05-21T07:52:43Z</time>
      </trkpt>
      <trkpt lat="42.776505975052714" lon="-7.384084034711123">
        <ele>453</ele>
        <time>2018-05-21T07:52:44Z</time>
      </trkpt>
      <trkpt lat="42.776477979496121" lon="-7.383998036384583">
        <ele>453</ele>
        <time>2018-05-21T07:52:46Z</time>
      </trkpt>
      <trkpt lat="42.776459036394954" lon="-7.383952019736171">
        <ele>453</ele>
        <time>2018-05-21T07:52:47Z</time>
      </trkpt>
      <trkpt lat="42.776421988382936" lon="-7.38388798199594">
        <ele>453</ele>
        <time>2018-05-21T07:52:49Z</time>
      </trkpt>
      <trkpt lat="42.776399021968246" lon="-7.383830985054374">
        <ele>453</ele>
        <time>2018-05-21T07:52:50Z</time>
      </trkpt>
      <trkpt lat="42.776371026411653" lon="-7.383813969790936">
        <ele>453</ele>
        <time>2018-05-21T07:52:51Z</time>
      </trkpt>
      <trkpt lat="42.776341019198298" lon="-7.383771976456046">
        <ele>453</ele>
        <time>2018-05-21T07:52:52Z</time>
      </trkpt>
      <trkpt lat="42.776301959529519" lon="-7.383740963414311">
        <ele>453</ele>
        <time>2018-05-21T07:52:54Z</time>
      </trkpt>
      <trkpt lat="42.776266001164913" lon="-7.383724031969905">
        <ele>448</ele>
        <time>2018-05-21T07:52:55Z</time>
      </trkpt>
      <trkpt lat="42.776233982294798" lon="-7.383700981736183">
        <ele>448</ele>
        <time>2018-05-21T07:52:56Z</time>
      </trkpt>
      <trkpt lat="42.776205986738205" lon="-7.383659994229674">
        <ele>448</ele>
        <time>2018-05-21T07:52:57Z</time>
      </trkpt>
      <trkpt lat="42.776168016716838" lon="-7.383613977581263">
        <ele>452</ele>
        <time>2018-05-21T07:52:59Z</time>
      </trkpt>
      <trkpt lat="42.776140021160245" lon="-7.383573995903134">
        <ele>452</ele>
        <time>2018-05-21T07:53:00Z</time>
      </trkpt>
      <trkpt lat="42.776112025603652" lon="-7.383539965376258">
        <ele>452</ele>
        <time>2018-05-21T07:53:01Z</time>
      </trkpt>
      <trkpt lat="42.77608897536993" lon="-7.383510963991284">
        <ele>452</ele>
        <time>2018-05-21T07:53:02Z</time>
      </trkpt>
      <trkpt lat="42.776056034490466" lon="-7.383494032546878">
        <ele>452</ele>
        <time>2018-05-21T07:53:03Z</time>
      </trkpt>
      <trkpt lat="42.77602200396359" lon="-7.383468970656395">
        <ele>452</ele>
        <time>2018-05-21T07:53:04Z</time>
      </trkpt>
      <trkpt lat="42.7759800106287" lon="-7.383428988978267">
        <ele>452</ele>
        <time>2018-05-21T07:53:06Z</time>
      </trkpt>
      <trkpt lat="42.775956960394979" lon="-7.383382972329855">
        <ele>452</ele>
        <time>2018-05-21T07:53:07Z</time>
      </trkpt>
      <trkpt lat="42.775928964838386" lon="-7.383331004530191">
        <ele>452</ele>
        <time>2018-05-21T07:53:08Z</time>
      </trkpt>
      <trkpt lat="42.775882026180625" lon="-7.383267972618341">
        <ele>452</ele>
        <time>2018-05-21T07:53:10Z</time>
      </trkpt>
      <trkpt lat="42.775854030624032" lon="-7.383227990940213">
        <ele>452</ele>
        <time>2018-05-21T07:53:11Z</time>
      </trkpt>
      <trkpt lat="42.77583098039031" lon="-7.383181974291802">
        <ele>452</ele>
        <time>2018-05-21T07:53:13Z</time>
      </trkpt>
      <trkpt lat="42.775806002318859" lon="-7.383138975128532">
        <ele>452</ele>
        <time>2018-05-21T07:53:14Z</time>
      </trkpt>
      <trkpt lat="42.77578697539866" lon="-7.3830939643085">
        <ele>452</ele>
        <time>2018-05-21T07:53:15Z</time>
      </trkpt>
      <trkpt lat="42.775769038125873" lon="-7.383041996508837">
        <ele>452</ele>
        <time>2018-05-21T07:53:16Z</time>
      </trkpt>
      <trkpt lat="42.77574498206377" lon="-7.382995979860425">
        <ele>452</ele>
        <time>2018-05-21T07:53:17Z</time>
      </trkpt>
      <trkpt lat="42.775730984285474" lon="-7.382937977090478">
        <ele>452</ele>
        <time>2018-05-21T07:53:19Z</time>
      </trkpt>
      <trkpt lat="42.775708017870784" lon="-7.38287502899766">
        <ele>452</ele>
        <time>2018-05-21T07:53:20Z</time>
      </trkpt>
      <trkpt lat="42.775652026757598" lon="-7.382655004039407">
        <ele>460</ele>
        <time>2018-05-21T07:53:25Z</time>
      </trkpt>
      <trkpt lat="42.775586983188987" lon="-7.382458029314876">
        <ele>460</ele>
        <time>2018-05-21T07:53:30Z</time>
      </trkpt>
      <trkpt lat="42.775558987632394" lon="-7.382259964942932">
        <ele>460</ele>
        <time>2018-05-21T07:53:34Z</time>
      </trkpt>
      <trkpt lat="42.775469971820712" lon="-7.381939021870494">
        <ele>463</ele>
        <time>2018-05-21T07:53:42Z</time>
      </trkpt>
      <trkpt lat="42.77546402066946" lon="-7.381930975243449">
        <ele>463</ele>
        <time>2018-05-21T07:53:42Z</time>
      </trkpt>
      <trkpt lat="42.775363018736243" lon="-7.381596034392715">
        <ele>463</ele>
        <time>2018-05-21T07:53:50Z</time>
      </trkpt>
      <trkpt lat="42.775242989882827" lon="-7.381271990016103">
        <ele>463</ele>
        <time>2018-05-21T07:53:58Z</time>
      </trkpt>
      <trkpt lat="42.775169983506203" lon="-7.380918022245169">
        <ele>467</ele>
        <time>2018-05-21T07:54:06Z</time>
      </trkpt>
      <trkpt lat="42.775089014321566" lon="-7.380520971491933">
        <ele>467</ele>
        <time>2018-05-21T07:54:15Z</time>
      </trkpt>
      <trkpt lat="42.775003015995026" lon="-7.380147976800799">
        <ele>471</ele>
        <time>2018-05-21T07:54:23Z</time>
      </trkpt>
      <trkpt lat="42.774932021275163" lon="-7.379865003749728">
        <ele>471</ele>
        <time>2018-05-21T07:54:30Z</time>
      </trkpt>
      <trkpt lat="42.774845017120242" lon="-7.37965595908463">
        <ele>471</ele>
        <time>2018-05-21T07:54:35Z</time>
      </trkpt>
      <trkpt lat="42.77477502822876" lon="-7.379378015175462">
        <ele>478</ele>
        <time>2018-05-21T07:54:41Z</time>
      </trkpt>
      <trkpt lat="42.77468902990222" lon="-7.379228984937072">
        <ele>478</ele>
        <time>2018-05-21T07:54:45Z</time>
      </trkpt>
      <trkpt lat="42.774621974676847" lon="-7.379084983840585">
        <ele>473</ele>
        <time>2018-05-21T07:54:49Z</time>
      </trkpt>
      <trkpt lat="42.77456003241241" lon="-7.378914998844266">
        <ele>473</ele>
        <time>2018-05-21T07:54:53Z</time>
      </trkpt>
      <trkpt lat="42.774492977187037" lon="-7.378711989149451">
        <ele>473</ele>
        <time>2018-05-21T07:54:58Z</time>
      </trkpt>
      <trkpt lat="42.774420976638794" lon="-7.378492970019579">
        <ele>484</ele>
        <time>2018-05-21T07:55:03Z</time>
      </trkpt>
      <trkpt lat="42.774352999404073" lon="-7.378303036093712">
        <ele>484</ele>
        <time>2018-05-21T07:55:08Z</time>
      </trkpt>
      <trkpt lat="42.774267001077533" lon="-7.378080999478698">
        <ele>484</ele>
        <time>2018-05-21T07:55:13Z</time>
      </trkpt>
      <trkpt lat="42.774182008579373" lon="-7.37780699506402">
        <ele>492</ele>
        <time>2018-05-21T07:55:20Z</time>
      </trkpt>
      <trkpt lat="42.774152001366019" lon="-7.377616977319121">
        <ele>492</ele>
        <time>2018-05-21T07:55:24Z</time>
      </trkpt>
      <trkpt lat="42.774103973060846" lon="-7.377411033958197">
        <ele>492</ele>
        <time>2018-05-21T07:55:29Z</time>
      </trkpt>
      <trkpt lat="42.77406700886786" lon="-7.377115990966559">
        <ele>492</ele>
        <time>2018-05-21T07:55:35Z</time>
      </trkpt>
      <trkpt lat="42.774061979725957" lon="-7.377064023166895">
        <ele>492</ele>
        <time>2018-05-21T07:55:37Z</time>
      </trkpt>
      <trkpt lat="42.774053011089563" lon="-7.3770119715482">
        <ele>490</ele>
        <time>2018-05-21T07:55:38Z</time>
      </trkpt>
      <trkpt lat="42.77404798194766" lon="-7.376961009576917">
        <ele>490</ele>
        <time>2018-05-21T07:55:39Z</time>
      </trkpt>
      <trkpt lat="42.774043958634138" lon="-7.376868976280093">
        <ele>490</ele>
        <time>2018-05-21T07:55:41Z</time>
      </trkpt>
      <trkpt lat="42.774043958634138" lon="-7.37681700848043">
        <ele>490</ele>
        <time>2018-05-21T07:55:42Z</time>
      </trkpt>
      <trkpt lat="42.774033984169364" lon="-7.376760011538863">
        <ele>490</ele>
        <time>2018-05-21T07:55:43Z</time>
      </trkpt>
      <trkpt lat="42.77402501553297" lon="-7.376655992120504">
        <ele>490</ele>
        <time>2018-05-21T07:55:46Z</time>
      </trkpt>
      <trkpt lat="42.774015963077545" lon="-7.376506961882114">
        <ele>490</ele>
        <time>2018-05-21T07:55:49Z</time>
      </trkpt>
      <trkpt lat="42.774005988612771" lon="-7.376454994082451">
        <ele>490</ele>
        <time>2018-05-21T07:55:50Z</time>
      </trkpt>
      <trkpt lat="42.774005988612771" lon="-7.376397997140884">
        <ele>490</ele>
        <time>2018-05-21T07:55:51Z</time>
      </trkpt>
      <trkpt lat="42.774001965299249" lon="-7.376346029341221">
        <ele>490</ele>
        <time>2018-05-21T07:55:52Z</time>
      </trkpt>
      <trkpt lat="42.774001965299249" lon="-7.376276962459087">
        <ele>490</ele>
        <time>2018-05-21T07:55:54Z</time>
      </trkpt>
      <trkpt lat="42.773991990834475" lon="-7.376219965517521">
        <ele>483</ele>
        <time>2018-05-21T07:55:55Z</time>
      </trkpt>
      <trkpt lat="42.773977993056178" lon="-7.376145031303167">
        <ele>483</ele>
        <time>2018-05-21T07:55:57Z</time>
      </trkpt>
      <trkpt lat="42.773977993056178" lon="-7.376088034361601">
        <ele>483</ele>
        <time>2018-05-21T07:55:58Z</time>
      </trkpt>
      <trkpt lat="42.773969024419785" lon="-7.37602399662137">
        <ele>483</ele>
        <time>2018-05-21T07:55:59Z</time>
      </trkpt>
      <trkpt lat="42.773955026641488" lon="-7.375956019386649">
        <ele>483</ele>
        <time>2018-05-21T07:56:01Z</time>
      </trkpt>
      <trkpt lat="42.773955026641488" lon="-7.375891981646419">
        <ele>483</ele>
        <time>2018-05-21T07:56:02Z</time>
      </trkpt>
      <trkpt lat="42.773949997499585" lon="-7.375825010240078">
        <ele>483</ele>
        <time>2018-05-21T07:56:04Z</time>
      </trkpt>
      <trkpt lat="42.773941028863192" lon="-7.375772958621383">
        <ele>483</ele>
        <time>2018-05-21T07:56:05Z</time>
      </trkpt>
      <trkpt lat="42.773941028863192" lon="-7.375715961679816">
        <ele>483</ele>
        <time>2018-05-21T07:56:06Z</time>
      </trkpt>
      <trkpt lat="42.773927031084895" lon="-7.375663993880153">
        <ele>483</ele>
        <time>2018-05-21T07:56:07Z</time>
      </trkpt>
      <trkpt lat="42.773913033306599" lon="-7.375617977231741">
        <ele>483</ele>
        <time>2018-05-21T07:56:08Z</time>
      </trkpt>
      <trkpt lat="42.773899035528302" lon="-7.37552703358233">
        <ele>483</ele>
        <time>2018-05-21T07:56:10Z</time>
      </trkpt>
      <trkpt lat="42.773889983072877" lon="-7.375460984185338">
        <ele>483</ele>
        <time>2018-05-21T07:56:12Z</time>
      </trkpt>
      <trkpt lat="42.773847989737988" lon="-7.375284964218736">
        <ele>481</ele>
        <time>2018-05-21T07:56:16Z</time>
      </trkpt>
      <trkpt lat="42.773772971704602" lon="-7.375076003372669">
        <ele>481</ele>
        <time>2018-05-21T07:56:21Z</time>
      </trkpt>
      <trkpt lat="42.773706000298262" lon="-7.374879028648138">
        <ele>490</ele>
        <time>2018-05-21T07:56:26Z</time>
      </trkpt>
      <trkpt lat="42.773627964779735" lon="-7.374608963727951">
        <ele>490</ele>
        <time>2018-05-21T07:56:32Z</time>
      </trkpt>
      <trkpt lat="42.77357499115169" lon="-7.374417018145323">
        <ele>486</ele>
        <time>2018-05-21T07:56:36Z</time>
      </trkpt>
      <trkpt lat="42.773570967838168" lon="-7.374360021203756">
        <ele>486</ele>
        <time>2018-05-21T07:56:38Z</time>
      </trkpt>
      <trkpt lat="42.773560993373394" lon="-7.374307969585061">
        <ele>486</ele>
        <time>2018-05-21T07:56:39Z</time>
      </trkpt>
      <trkpt lat="42.773552024737" lon="-7.374228006228805">
        <ele>486</ele>
        <time>2018-05-21T07:56:41Z</time>
      </trkpt>
      <trkpt lat="42.773546995595098" lon="-7.374152988195419">
        <ele>486</ele>
        <time>2018-05-21T07:56:42Z</time>
      </trkpt>
      <trkpt lat="42.773538026958704" lon="-7.374094985425472">
        <ele>486</ele>
        <time>2018-05-21T07:56:43Z</time>
      </trkpt>
      <trkpt lat="42.773538026958704" lon="-7.374037988483906">
        <ele>486</ele>
        <time>2018-05-21T07:56:45Z</time>
      </trkpt>
      <trkpt lat="42.773538026958704" lon="-7.373979985713959">
        <ele>486</ele>
        <time>2018-05-21T07:56:46Z</time>
      </trkpt>
      <trkpt lat="42.773543978109956" lon="-7.373934974893928">
        <ele>486</ele>
        <time>2018-05-21T07:56:47Z</time>
      </trkpt>
      <trkpt lat="42.773543978109956" lon="-7.373860040679574">
        <ele>486</ele>
        <time>2018-05-21T07:56:49Z</time>
      </trkpt>
      <trkpt lat="42.773557975888252" lon="-7.373785022646189">
        <ele>486</ele>
        <time>2018-05-21T07:56:50Z</time>
      </trkpt>
      <trkpt lat="42.773563005030155" lon="-7.373733976855874">
        <ele>486</ele>
        <time>2018-05-21T07:56:51Z</time>
      </trkpt>
      <trkpt lat="42.773568034172058" lon="-7.373653007671237">
        <ele>486</ele>
        <time>2018-05-21T07:56:53Z</time>
      </trkpt>
      <trkpt lat="42.773582031950355" lon="-7.373601039871573">
        <ele>488</ele>
        <time>2018-05-21T07:56:54Z</time>
      </trkpt>
      <trkpt lat="42.773599969223142" lon="-7.373498026281595">
        <ele>488</ele>
        <time>2018-05-21T07:56:57Z</time>
      </trkpt>
      <trkpt lat="42.773604998365045" lon="-7.3734459746629">
        <ele>488</ele>
        <time>2018-05-21T07:56:58Z</time>
      </trkpt>
      <trkpt lat="42.773610027506948" lon="-7.373355031013489">
        <ele>488</ele>
        <time>2018-05-21T07:57:00Z</time>
      </trkpt>
      <trkpt lat="42.773613967001438" lon="-7.373299039900303">
        <ele>488</ele>
        <time>2018-05-21T07:57:01Z</time>
      </trkpt>
      <trkpt lat="42.773613967001438" lon="-7.373217986896634">
        <ele>488</ele>
        <time>2018-05-21T07:57:03Z</time>
      </trkpt>
      <trkpt lat="42.773613967001438" lon="-7.373126037418842">
        <ele>488</ele>
        <time>2018-05-21T07:57:05Z</time>
      </trkpt>
      <trkpt lat="42.773613967001438" lon="-7.373074991628528">
        <ele>488</ele>
        <time>2018-05-21T07:57:06Z</time>
      </trkpt>
      <trkpt lat="42.773613967001438" lon="-7.373006008565426">
        <ele>488</ele>
        <time>2018-05-21T07:57:07Z</time>
      </trkpt>
      <trkpt lat="42.773604998365045" lon="-7.372954040765762">
        <ele>488</ele>
        <time>2018-05-21T07:57:09Z</time>
      </trkpt>
      <trkpt lat="42.773599969223142" lon="-7.372844992205501">
        <ele>488</ele>
        <time>2018-05-21T07:57:11Z</time>
      </trkpt>
      <trkpt lat="42.773599969223142" lon="-7.372793024405837">
        <ele>486</ele>
        <time>2018-05-21T07:57:12Z</time>
      </trkpt>
      <trkpt lat="42.773596029728651" lon="-7.372741978615522">
        <ele>486</ele>
        <time>2018-05-21T07:57:13Z</time>
      </trkpt>
      <trkpt lat="42.773585971444845" lon="-7.372683975845575">
        <ele>486</ele>
        <time>2018-05-21T07:57:14Z</time>
      </trkpt>
      <trkpt lat="42.773568034172058" lon="-7.372626978904009">
        <ele>486</ele>
        <time>2018-05-21T07:57:16Z</time>
      </trkpt>
      <trkpt lat="42.773557975888252" lon="-7.372564030811191">
        <ele>483</ele>
        <time>2018-05-21T07:57:17Z</time>
      </trkpt>
      <trkpt lat="42.773535009473562" lon="-7.372489012777805">
        <ele>486</ele>
        <time>2018-05-21T07:57:19Z</time>
      </trkpt>
      <trkpt lat="42.773511959239841" lon="-7.372408965602517">
        <ele>486</ele>
        <time>2018-05-21T07:57:21Z</time>
      </trkpt>
      <trkpt lat="42.773493016138673" lon="-7.37232799641788">
        <ele>486</ele>
        <time>2018-05-21T07:57:23Z</time>
      </trkpt>
      <trkpt lat="42.773483963683248" lon="-7.372276028618217">
        <ele>486</ele>
        <time>2018-05-21T07:57:24Z</time>
      </trkpt>
      <trkpt lat="42.773437025025487" lon="-7.372073018923402">
        <ele>486</ele>
        <time>2018-05-21T07:57:28Z</time>
      </trkpt>
      <trkpt lat="42.773409029468894" lon="-7.3718779720366">
        <ele>487</ele>
        <time>2018-05-21T07:57:33Z</time>
      </trkpt>
      <trkpt lat="42.773357983678579" lon="-7.371715027838945">
        <ele>487</ele>
        <time>2018-05-21T07:57:37Z</time>
      </trkpt>
      <trkpt lat="42.773335017263889" lon="-7.37142400816083">
        <ele>487</ele>
        <time>2018-05-21T07:57:43Z</time>
      </trkpt>
      <trkpt lat="42.773300986737013" lon="-7.371172970160842">
        <ele>487</ele>
        <time>2018-05-21T07:57:48Z</time>
      </trkpt>
      <trkpt lat="42.773300986737013" lon="-7.371143968775868">
        <ele>483</ele>
        <time>2018-05-21T07:57:49Z</time>
      </trkpt>
      <trkpt lat="42.773292018100619" lon="-7.37108102068305">
        <ele>483</ele>
        <time>2018-05-21T07:57:50Z</time>
      </trkpt>
      <trkpt lat="42.773278020322323" lon="-7.3710179887712">
        <ele>483</ele>
        <time>2018-05-21T07:57:52Z</time>
      </trkpt>
      <trkpt lat="42.773278020322323" lon="-7.370953029021621">
        <ele>483</ele>
        <time>2018-05-21T07:57:53Z</time>
      </trkpt>
      <trkpt lat="42.773268967866898" lon="-7.370905000716448">
        <ele>483</ele>
        <time>2018-05-21T07:57:54Z</time>
      </trkpt>
      <trkpt lat="42.773258993402123" lon="-7.370853032916784">
        <ele>483</ele>
        <time>2018-05-21T07:57:56Z</time>
      </trkpt>
      <trkpt lat="42.773254970088601" lon="-7.370796035975218">
        <ele>483</ele>
        <time>2018-05-21T07:57:57Z</time>
      </trkpt>
      <trkpt lat="42.77325002476573" lon="-7.370738033205271">
        <ele>483</ele>
        <time>2018-05-21T07:57:58Z</time>
      </trkpt>
      <trkpt lat="42.773244995623827" lon="-7.370682964101434">
        <ele>483</ele>
        <time>2018-05-21T07:57:59Z</time>
      </trkpt>
      <trkpt lat="42.773236026987433" lon="-7.370624961331487">
        <ele>483</ele>
        <time>2018-05-21T07:58:00Z</time>
      </trkpt>
      <trkpt lat="42.773230997845531" lon="-7.370562013238668">
        <ele>483</ele>
        <time>2018-05-21T07:58:02Z</time>
      </trkpt>
      <trkpt lat="42.773222029209137" lon="-7.37048196606338">
        <ele>483</ele>
        <time>2018-05-21T07:58:04Z</time>
      </trkpt>
      <trkpt lat="42.773217000067234" lon="-7.370429998263717">
        <ele>483</ele>
        <time>2018-05-21T07:58:05Z</time>
      </trkpt>
      <trkpt lat="42.773217000067234" lon="-7.370378030464053">
        <ele>483</ele>
        <time>2018-05-21T07:58:06Z</time>
      </trkpt>
      <trkpt lat="42.773217000067234" lon="-7.370325978845358">
        <ele>480</ele>
        <time>2018-05-21T07:58:07Z</time>
      </trkpt>
      <trkpt lat="42.773217000067234" lon="-7.370275016874075">
        <ele>480</ele>
        <time>2018-05-21T07:58:08Z</time>
      </trkpt>
      <trkpt lat="42.773212976753712" lon="-7.37022296525538">
        <ele>480</ele>
        <time>2018-05-21T07:58:09Z</time>
      </trkpt>
      <trkpt lat="42.773212976753712" lon="-7.370166974142194">
        <ele>480</ele>
        <time>2018-05-21T07:58:10Z</time>
      </trkpt>
      <trkpt lat="42.773212976753712" lon="-7.370109977200627">
        <ele>480</ele>
        <time>2018-05-21T07:58:12Z</time>
      </trkpt>
      <trkpt lat="42.773212976753712" lon="-7.370034959167242">
        <ele>480</ele>
        <time>2018-05-21T07:58:13Z</time>
      </trkpt>
      <trkpt lat="42.773212976753712" lon="-7.369977962225676">
        <ele>480</ele>
        <time>2018-05-21T07:58:15Z</time>
      </trkpt>
      <trkpt lat="42.773212976753712" lon="-7.369925994426012">
        <ele>480</ele>
        <time>2018-05-21T07:58:16Z</time>
      </trkpt>
      <trkpt lat="42.773212976753712" lon="-7.369866985827684">
        <ele>480</ele>
        <time>2018-05-21T07:58:17Z</time>
      </trkpt>
      <trkpt lat="42.773217000067234" lon="-7.369808983057737">
        <ele>480</ele>
        <time>2018-05-21T07:58:18Z</time>
      </trkpt>
      <trkpt lat="42.773217000067234" lon="-7.369758021086454">
        <ele>480</ele>
        <time>2018-05-21T07:58:19Z</time>
      </trkpt>
      <trkpt lat="42.773217000067234" lon="-7.369636986404657">
        <ele>480</ele>
        <time>2018-05-21T07:58:22Z</time>
      </trkpt>
      <trkpt lat="42.773217000067234" lon="-7.369579989463091">
        <ele>480</ele>
        <time>2018-05-21T07:58:23Z</time>
      </trkpt>
      <trkpt lat="42.773217000067234" lon="-7.369528021663427">
        <ele>480</ele>
        <time>2018-05-21T07:58:24Z</time>
      </trkpt>
      <trkpt lat="42.773217000067234" lon="-7.36947001889348">
        <ele>480</ele>
        <time>2018-05-21T07:58:26Z</time>
      </trkpt>
      <trkpt lat="42.773217000067234" lon="-7.36940698698163">
        <ele>480</ele>
        <time>2018-05-21T07:58:27Z</time>
      </trkpt>
      <trkpt lat="42.773212976753712" lon="-7.36934001557529">
        <ele>480</ele>
        <time>2018-05-21T07:58:28Z</time>
      </trkpt>
      <trkpt lat="42.773212976753712" lon="-7.36927698366344">
        <ele>480</ele>
        <time>2018-05-21T07:58:30Z</time>
      </trkpt>
      <trkpt lat="42.77320803143084" lon="-7.369208000600338">
        <ele>480</ele>
        <time>2018-05-21T07:58:31Z</time>
      </trkpt>
      <trkpt lat="42.773194033652544" lon="-7.369144968688488">
        <ele>480</ele>
        <time>2018-05-21T07:58:33Z</time>
      </trkpt>
      <trkpt lat="42.773190010339022" lon="-7.369090989232063">
        <ele>480</ele>
        <time>2018-05-21T07:58:34Z</time>
      </trkpt>
      <trkpt lat="42.773184981197119" lon="-7.3690390214324">
        <ele>480</ele>
        <time>2018-05-21T07:58:35Z</time>
      </trkpt>
      <trkpt lat="42.773170983418822" lon="-7.368999039754272">
        <ele>480</ele>
        <time>2018-05-21T07:58:36Z</time>
      </trkpt>
      <trkpt lat="42.773166038095951" lon="-7.368941958993673">
        <ele>480</ele>
        <time>2018-05-21T07:58:37Z</time>
      </trkpt>
      <trkpt lat="42.773152040317655" lon="-7.368879010900855">
        <ele>480</ele>
        <time>2018-05-21T07:58:39Z</time>
      </trkpt>
      <trkpt lat="42.773137958720326" lon="-7.368832994252443">
        <ele>480</ele>
        <time>2018-05-21T07:58:40Z</time>
      </trkpt>
      <trkpt lat="42.773134019225836" lon="-7.36878102645278">
        <ele>480</ele>
        <time>2018-05-21T07:58:41Z</time>
      </trkpt>
      <trkpt lat="42.773128990083933" lon="-7.36871799454093">
        <ele>480</ele>
        <time>2018-05-21T07:58:42Z</time>
      </trkpt>
      <trkpt lat="42.77312396094203" lon="-7.368659991770983">
        <ele>480</ele>
        <time>2018-05-21T07:58:44Z</time>
      </trkpt>
      <trkpt lat="42.773120021447539" lon="-7.3686090297997">
        <ele>480</ele>
        <time>2018-05-21T07:58:45Z</time>
      </trkpt>
      <trkpt lat="42.773120021447539" lon="-7.368556978181005">
        <ele>480</ele>
        <time>2018-05-21T07:58:46Z</time>
      </trkpt>
      <trkpt lat="42.773120021447539" lon="-7.368499981239438">
        <ele>480</ele>
        <time>2018-05-21T07:58:47Z</time>
      </trkpt>
      <trkpt lat="42.773120021447539" lon="-7.368436027318239">
        <ele>480</ele>
        <time>2018-05-21T07:58:48Z</time>
      </trkpt>
      <trkpt lat="42.773120021447539" lon="-7.368379030376673">
        <ele>480</ele>
        <time>2018-05-21T07:58:50Z</time>
      </trkpt>
      <trkpt lat="42.77312396094203" lon="-7.368296971544623">
        <ele>480</ele>
        <time>2018-05-21T07:58:51Z</time>
      </trkpt>
      <trkpt lat="42.773134019225836" lon="-7.368171997368336">
        <ele>480</ele>
        <time>2018-05-21T07:58:54Z</time>
      </trkpt>
      <trkpt lat="42.773152040317655" lon="-7.368010981008411">
        <ele>480</ele>
        <time>2018-05-21T07:58:58Z</time>
      </trkpt>
      <trkpt lat="42.773156985640526" lon="-7.367853987962008">
        <ele>484</ele>
        <time>2018-05-21T07:59:01Z</time>
      </trkpt>
      <trkpt lat="42.773176012560725" lon="-7.367699006572366">
        <ele>484</ele>
        <time>2018-05-21T07:59:05Z</time>
      </trkpt>
      <trkpt lat="42.773200990632176" lon="-7.36745098605752">
        <ele>484</ele>
        <time>2018-05-21T07:59:10Z</time>
      </trkpt>
      <trkpt lat="42.773187998682261" lon="-7.367273038253188">
        <ele>484</ele>
        <time>2018-05-21T07:59:14Z</time>
      </trkpt>
      <trkpt lat="42.773187998682261" lon="-7.367261974141002">
        <ele>484</ele>
        <time>2018-05-21T07:59:14Z</time>
      </trkpt>
      <trkpt lat="42.773193027824163" lon="-7.367210006341338">
        <ele>484</ele>
        <time>2018-05-21T07:59:15Z</time>
      </trkpt>
      <trkpt lat="42.773193027824163" lon="-7.367153009399772">
        <ele>484</ele>
        <time>2018-05-21T07:59:16Z</time>
      </trkpt>
      <trkpt lat="42.773196967318654" lon="-7.36708402633667">
        <ele>484</ele>
        <time>2018-05-21T07:59:18Z</time>
      </trkpt>
      <trkpt lat="42.773196967318654" lon="-7.367026023566723">
        <ele>483</ele>
        <time>2018-05-21T07:59:19Z</time>
      </trkpt>
      <trkpt lat="42.773196967318654" lon="-7.366973971948028">
        <ele>483</ele>
        <time>2018-05-21T07:59:20Z</time>
      </trkpt>
      <trkpt lat="42.773196967318654" lon="-7.366923009976745">
        <ele>483</ele>
        <time>2018-05-21T07:59:21Z</time>
      </trkpt>
      <trkpt lat="42.773201996460557" lon="-7.366854026913643">
        <ele>483</ele>
        <time>2018-05-21T07:59:23Z</time>
      </trkpt>
      <trkpt lat="42.773201996460557" lon="-7.366790995001793">
        <ele>483</ele>
        <time>2018-05-21T07:59:24Z</time>
      </trkpt>
      <trkpt lat="42.773210965096951" lon="-7.366730980575085">
        <ele>483</ele>
        <time>2018-05-21T07:59:26Z</time>
      </trkpt>
      <trkpt lat="42.773235021159053" lon="-7.366680018603802">
        <ele>483</ele>
        <time>2018-05-21T07:59:27Z</time>
      </trkpt>
      <trkpt lat="42.773249018937349" lon="-7.366622015833855">
        <ele>483</ele>
        <time>2018-05-21T07:59:28Z</time>
      </trkpt>
      <trkpt lat="42.773263016715646" lon="-7.366569964215159">
        <ele>483</ele>
        <time>2018-05-21T07:59:29Z</time>
      </trkpt>
      <trkpt lat="42.773278020322323" lon="-7.366516990587115">
        <ele>483</ele>
        <time>2018-05-21T07:59:31Z</time>
      </trkpt>
      <trkpt lat="42.773282965645194" lon="-7.366453958675265">
        <ele>483</ele>
        <time>2018-05-21T07:59:32Z</time>
      </trkpt>
      <trkpt lat="42.773298975080252" lon="-7.366404002532363">
        <ele>483</ele>
        <time>2018-05-21T07:59:33Z</time>
      </trkpt>
      <trkpt lat="42.773302998393774" lon="-7.366345999762416">
        <ele>483</ele>
        <time>2018-05-21T07:59:34Z</time>
      </trkpt>
      <trkpt lat="42.773308027535677" lon="-7.366289002820849">
        <ele>483</ele>
        <time>2018-05-21T07:59:36Z</time>
      </trkpt>
      <trkpt lat="42.773316996172071" lon="-7.366231000050902">
        <ele>488</ele>
        <time>2018-05-21T07:59:37Z</time>
      </trkpt>
      <trkpt lat="42.773322025313973" lon="-7.366180038079619">
        <ele>488</ele>
        <time>2018-05-21T07:59:38Z</time>
      </trkpt>
      <trkpt lat="42.77333602309227" lon="-7.366134021431208">
        <ele>488</ele>
        <time>2018-05-21T07:59:39Z</time>
      </trkpt>
      <trkpt lat="42.773350020870566" lon="-7.366088004782796">
        <ele>488</ele>
        <time>2018-05-21T07:59:40Z</time>
      </trkpt>
      <trkpt lat="42.773354966193438" lon="-7.366034025326371">
        <ele>488</ele>
        <time>2018-05-21T07:59:41Z</time>
      </trkpt>
      <trkpt lat="42.773354966193438" lon="-7.365981973707676">
        <ele>488</ele>
        <time>2018-05-21T07:59:43Z</time>
      </trkpt>
      <trkpt lat="42.773354966193438" lon="-7.365907961502671">
        <ele>488</ele>
        <time>2018-05-21T07:59:44Z</time>
      </trkpt>
      <trkpt lat="42.773354966193438" lon="-7.365849958732724">
        <ele>488</ele>
        <time>2018-05-21T07:59:45Z</time>
      </trkpt>
      <trkpt lat="42.773354966193438" lon="-7.365792961791158">
        <ele>488</ele>
        <time>2018-05-21T07:59:47Z</time>
      </trkpt>
      <trkpt lat="42.773344991728663" lon="-7.365734959021211">
        <ele>488</ele>
        <time>2018-05-21T07:59:48Z</time>
      </trkpt>
      <trkpt lat="42.773344991728663" lon="-7.365683997049928">
        <ele>488</ele>
        <time>2018-05-21T07:59:49Z</time>
      </trkpt>
      <trkpt lat="42.773330993950367" lon="-7.365608979016542">
        <ele>488</ele>
        <time>2018-05-21T07:59:51Z</time>
      </trkpt>
      <trkpt lat="42.773316996172071" lon="-7.365568997338414">
        <ele>488</ele>
        <time>2018-05-21T07:59:52Z</time>
      </trkpt>
      <trkpt lat="42.773312972858548" lon="-7.365510994568467">
        <ele>488</ele>
        <time>2018-05-21T07:59:53Z</time>
      </trkpt>
      <trkpt lat="42.77329402975738" lon="-7.365453997626901">
        <ele>488</ele>
        <time>2018-05-21T07:59:54Z</time>
      </trkpt>
      <trkpt lat="42.773289000615478" lon="-7.365390965715051">
        <ele>491</ele>
        <time>2018-05-21T07:59:56Z</time>
      </trkpt>
      <trkpt lat="42.773275002837181" lon="-7.365328017622232">
        <ele>491</ele>
        <time>2018-05-21T07:59:57Z</time>
      </trkpt>
      <trkpt lat="42.773270979523659" lon="-7.365261968225241">
        <ele>491</ele>
        <time>2018-05-21T07:59:59Z</time>
      </trkpt>
      <trkpt lat="42.773266034200788" lon="-7.365204971283674">
        <ele>491</ele>
        <time>2018-05-21T08:00:00Z</time>
      </trkpt>
      <trkpt lat="42.773252036422491" lon="-7.365142023190856">
        <ele>491</ele>
        <time>2018-05-21T08:00:01Z</time>
      </trkpt>
      <trkpt lat="42.773242983967066" lon="-7.365089971572161">
        <ele>491</ele>
        <time>2018-05-21T08:00:02Z</time>
      </trkpt>
      <trkpt lat="42.773228986188769" lon="-7.36504202708602">
        <ele>491</ele>
        <time>2018-05-21T08:00:04Z</time>
      </trkpt>
      <trkpt lat="42.773224040865898" lon="-7.364989975467324">
        <ele>491</ele>
        <time>2018-05-21T08:00:05Z</time>
      </trkpt>
      <trkpt lat="42.77320995926857" lon="-7.36491596326232">
        <ele>491</ele>
        <time>2018-05-21T08:00:06Z</time>
      </trkpt>
      <trkpt lat="42.773205013945699" lon="-7.364846980199218">
        <ele>491</ele>
        <time>2018-05-21T08:00:08Z</time>
      </trkpt>
      <trkpt lat="42.773191016167402" lon="-7.364777997136116">
        <ele>491</ele>
        <time>2018-05-21T08:00:09Z</time>
      </trkpt>
      <trkpt lat="42.773177018389106" lon="-7.364714965224266">
        <ele>491</ele>
        <time>2018-05-21T08:00:11Z</time>
      </trkpt>
      <trkpt lat="42.773167965933681" lon="-7.364662997424603">
        <ele>491</ele>
        <time>2018-05-21T08:00:12Z</time>
      </trkpt>
      <trkpt lat="42.773149022832513" lon="-7.364616980776191">
        <ele>491</ele>
        <time>2018-05-21T08:00:13Z</time>
      </trkpt>
      <trkpt lat="42.773135025054216" lon="-7.364566018804908">
        <ele>491</ele>
        <time>2018-05-21T08:00:14Z</time>
      </trkpt>
      <trkpt lat="42.773135025054216" lon="-7.364513967186213">
        <ele>491</ele>
        <time>2018-05-21T08:00:15Z</time>
      </trkpt>
      <trkpt lat="42.773135025054216" lon="-7.364451019093394">
        <ele>489</ele>
        <time>2018-05-21T08:00:17Z</time>
      </trkpt>
      <trkpt lat="42.773135025054216" lon="-7.364398967474699">
        <ele>489</ele>
        <time>2018-05-21T08:00:18Z</time>
      </trkpt>
      <trkpt lat="42.773135025054216" lon="-7.364346999675036">
        <ele>489</ele>
        <time>2018-05-21T08:00:19Z</time>
      </trkpt>
      <trkpt lat="42.773135025054216" lon="-7.364294026046991">
        <ele>489</ele>
        <time>2018-05-21T08:00:20Z</time>
      </trkpt>
      <trkpt lat="42.773139970377088" lon="-7.364241974428296">
        <ele>489</ele>
        <time>2018-05-21T08:00:21Z</time>
      </trkpt>
      <trkpt lat="42.773153968155384" lon="-7.364194029942155">
        <ele>489</ele>
        <time>2018-05-21T08:00:22Z</time>
      </trkpt>
      <trkpt lat="42.773174000903964" lon="-7.364148013293743">
        <ele>489</ele>
        <time>2018-05-21T08:00:24Z</time>
      </trkpt>
      <trkpt lat="42.773200990632176" lon="-7.364050028845668">
        <ele>489</ele>
        <time>2018-05-21T08:00:26Z</time>
      </trkpt>
      <trkpt lat="42.773242983967066" lon="-7.36386202275753">
        <ele>489</ele>
        <time>2018-05-21T08:00:30Z</time>
      </trkpt>
      <trkpt lat="42.773242983967066" lon="-7.363854981958866">
        <ele>489</ele>
        <time>2018-05-21T08:00:30Z</time>
      </trkpt>
      <trkpt lat="42.773316996172071" lon="-7.363630011677742">
        <ele>491</ele>
        <time>2018-05-21T08:00:36Z</time>
      </trkpt>
      <trkpt lat="42.773376004770398" lon="-7.363352989777923">
        <ele>491</ele>
        <time>2018-05-21T08:00:42Z</time>
      </trkpt>
      <trkpt lat="42.77342202141881" lon="-7.363100023940206">
        <ele>491</ele>
        <time>2018-05-21T08:00:48Z</time>
      </trkpt>
      <trkpt lat="42.773492010310292" lon="-7.362885028123856">
        <ele>491</ele>
        <time>2018-05-21T08:00:53Z</time>
      </trkpt>
      <trkpt lat="42.773564010858536" lon="-7.362716970965266">
        <ele>497</ele>
        <time>2018-05-21T08:00:57Z</time>
      </trkpt>
      <trkpt lat="42.773612039163709" lon="-7.362547991797328">
        <ele>497</ele>
        <time>2018-05-21T08:01:01Z</time>
      </trkpt>
      <trkpt lat="42.773612039163709" lon="-7.362540028989315">
        <ele>497</ele>
        <time>2018-05-21T08:01:01Z</time>
      </trkpt>
      <trkpt lat="42.773635005578399" lon="-7.36235998570919">
        <ele>497</ele>
        <time>2018-05-21T08:01:05Z</time>
      </trkpt>
      <trkpt lat="42.773635005578399" lon="-7.362283961847425">
        <ele>497</ele>
        <time>2018-05-21T08:01:07Z</time>
      </trkpt>
      <trkpt lat="42.773635005578399" lon="-7.362178014591336">
        <ele>497</ele>
        <time>2018-05-21T08:01:09Z</time>
      </trkpt>
      <trkpt lat="42.773640034720302" lon="-7.362131997942925">
        <ele>497</ele>
        <time>2018-05-21T08:01:10Z</time>
      </trkpt>
      <trkpt lat="42.773640034720302" lon="-7.362063014879823">
        <ele>497</ele>
        <time>2018-05-21T08:01:11Z</time>
      </trkpt>
      <trkpt lat="42.773640034720302" lon="-7.36199202015996">
        <ele>497</ele>
        <time>2018-05-21T08:01:13Z</time>
      </trkpt>
      <trkpt lat="42.773640034720302" lon="-7.36192898824811">
        <ele>498</ele>
        <time>2018-05-21T08:01:14Z</time>
      </trkpt>
      <trkpt lat="42.773640034720302" lon="-7.361866040155292">
        <ele>498</ele>
        <time>2018-05-21T08:01:16Z</time>
      </trkpt>
      <trkpt lat="42.773640034720302" lon="-7.361794961616397">
        <ele>498</ele>
        <time>2018-05-21T08:01:17Z</time>
      </trkpt>
      <trkpt lat="42.773640034720302" lon="-7.361725978553295">
        <ele>498</ele>
        <time>2018-05-21T08:01:19Z</time>
      </trkpt>
      <trkpt lat="42.773640034720302" lon="-7.36167199909687">
        <ele>498</ele>
        <time>2018-05-21T08:01:20Z</time>
      </trkpt>
      <trkpt lat="42.773640034720302" lon="-7.361615002155304">
        <ele>498</ele>
        <time>2018-05-21T08:01:21Z</time>
      </trkpt>
      <trkpt lat="42.773654032498598" lon="-7.361555993556976">
        <ele>498</ele>
        <time>2018-05-21T08:01:22Z</time>
      </trkpt>
      <trkpt lat="42.773669036105275" lon="-7.361449962481856">
        <ele>498</ele>
        <time>2018-05-21T08:01:25Z</time>
      </trkpt>
      <trkpt lat="42.773717986419797" lon="-7.361338986083865">
        <ele>498</ele>
        <time>2018-05-21T08:01:28Z</time>
      </trkpt>
      <trkpt lat="42.773760985583067" lon="-7.361124996095896">
        <ele>502</ele>
        <time>2018-05-21T08:01:32Z</time>
      </trkpt>
      <trkpt lat="42.773785041645169" lon="-7.360939001664519">
        <ele>502</ele>
        <time>2018-05-21T08:01:37Z</time>
      </trkpt>
      <trkpt lat="42.773822005838156" lon="-7.360765999183059">
        <ele>502</ele>
        <time>2018-05-21T08:01:40Z</time>
      </trkpt>
      <trkpt lat="42.773822005838156" lon="-7.360613029450178">
        <ele>502</ele>
        <time>2018-05-21T08:01:44Z</time>
      </trkpt>
      <trkpt lat="42.773822005838156" lon="-7.360318992286921">
        <ele>505</ele>
        <time>2018-05-21T08:01:50Z</time>
      </trkpt>
      <trkpt lat="42.773822005838156" lon="-7.360054962337017">
        <ele>505</ele>
        <time>2018-05-21T08:01:56Z</time>
      </trkpt>
      <trkpt lat="42.773822005838156" lon="-7.360048005357385">
        <ele>505</ele>
        <time>2018-05-21T08:01:56Z</time>
      </trkpt>
      <trkpt lat="42.773808008059859" lon="-7.35990802757442">
        <ele>505</ele>
        <time>2018-05-21T08:01:59Z</time>
      </trkpt>
      <trkpt lat="42.77378898113966" lon="-7.359733013436198">
        <ele>505</ele>
        <time>2018-05-21T08:02:03Z</time>
      </trkpt>
      <trkpt lat="42.77374698780477" lon="-7.35960896126926">
        <ele>501</ele>
        <time>2018-05-21T08:02:06Z</time>
      </trkpt>
      <trkpt lat="42.773741958662868" lon="-7.359568979591131">
        <ele>501</ele>
        <time>2018-05-21T08:02:07Z</time>
      </trkpt>
      <trkpt lat="42.773741958662868" lon="-7.359507037326694">
        <ele>504</ele>
        <time>2018-05-21T08:02:08Z</time>
      </trkpt>
      <trkpt lat="42.773710023611784" lon="-7.359236972406507">
        <ele>504</ele>
        <time>2018-05-21T08:02:14Z</time>
      </trkpt>
      <trkpt lat="42.773710023611784" lon="-7.359109986573458">
        <ele>504</ele>
        <time>2018-05-21T08:02:17Z</time>
      </trkpt>
      <trkpt lat="42.773715974763036" lon="-7.359065981581807">
        <ele>504</ele>
        <time>2018-05-21T08:02:18Z</time>
      </trkpt>
      <trkpt lat="42.773729972541332" lon="-7.359018037095666">
        <ele>504</ele>
        <time>2018-05-21T08:02:19Z</time>
      </trkpt>
      <trkpt lat="42.773729972541332" lon="-7.35896397382021">
        <ele>504</ele>
        <time>2018-05-21T08:02:20Z</time>
      </trkpt>
      <trkpt lat="42.773735001683235" lon="-7.358913011848927">
        <ele>504</ele>
        <time>2018-05-21T08:02:21Z</time>
      </trkpt>
      <trkpt lat="42.773739024996758" lon="-7.35885500907898">
        <ele>504</ele>
        <time>2018-05-21T08:02:22Z</time>
      </trkpt>
      <trkpt lat="42.773739024996758" lon="-7.358802035450935">
        <ele>504</ele>
        <time>2018-05-21T08:02:24Z</time>
      </trkpt>
      <trkpt lat="42.773748999461532" lon="-7.358744032680988">
        <ele>504</ele>
        <time>2018-05-21T08:02:25Z</time>
      </trkpt>
      <trkpt lat="42.773748999461532" lon="-7.358687035739422">
        <ele>509</ele>
        <time>2018-05-21T08:02:26Z</time>
      </trkpt>
      <trkpt lat="42.773748999461532" lon="-7.358624003827572">
        <ele>509</ele>
        <time>2018-05-21T08:02:27Z</time>
      </trkpt>
      <trkpt lat="42.773753022775054" lon="-7.358548985794187">
        <ele>509</ele>
        <time>2018-05-21T08:02:29Z</time>
      </trkpt>
      <trkpt lat="42.773757968097925" lon="-7.358495006337762">
        <ele>509</ele>
        <time>2018-05-21T08:02:30Z</time>
      </trkpt>
      <trkpt lat="42.773757968097925" lon="-7.358331978321075">
        <ele>509</ele>
        <time>2018-05-21T08:02:34Z</time>
      </trkpt>
      <trkpt lat="42.77376702055335" lon="-7.358026038855314">
        <ele>509</ele>
        <time>2018-05-21T08:02:41Z</time>
      </trkpt>
      <trkpt lat="42.773790992796421" lon="-7.357797967270017">
        <ele>513</ele>
        <time>2018-05-21T08:02:46Z</time>
      </trkpt>
      <trkpt lat="42.773799961432815" lon="-7.35750300809741">
        <ele>513</ele>
        <time>2018-05-21T08:02:52Z</time>
      </trkpt>
      <trkpt lat="42.773818988353014" lon="-7.357258005067706">
        <ele>513</ele>
        <time>2018-05-21T08:02:57Z</time>
      </trkpt>
      <trkpt lat="42.773828040808439" lon="-7.356930021196604">
        <ele>515</ele>
        <time>2018-05-21T08:03:04Z</time>
      </trkpt>
      <trkpt lat="42.773845978081226" lon="-7.356693986803293">
        <ele>515</ele>
        <time>2018-05-21T08:03:10Z</time>
      </trkpt>
      <trkpt lat="42.773845978081226" lon="-7.356657022610307">
        <ele>515</ele>
        <time>2018-05-21T08:03:10Z</time>
      </trkpt>
      <trkpt lat="42.773845978081226" lon="-7.35660002566874">
        <ele>515</ele>
        <time>2018-05-21T08:03:12Z</time>
      </trkpt>
      <trkpt lat="42.773845978081226" lon="-7.356543028727174">
        <ele>515</ele>
        <time>2018-05-21T08:03:13Z</time>
      </trkpt>
      <trkpt lat="42.773845978081226" lon="-7.356485025957227">
        <ele>515</ele>
        <time>2018-05-21T08:03:14Z</time>
      </trkpt>
      <trkpt lat="42.773851007223129" lon="-7.35642802901566">
        <ele>515</ele>
        <time>2018-05-21T08:03:15Z</time>
      </trkpt>
      <trkpt lat="42.773851007223129" lon="-7.356375977396965">
        <ele>515</ele>
        <time>2018-05-21T08:03:16Z</time>
      </trkpt>
      <trkpt lat="42.773851007223129" lon="-7.356313029304147">
        <ele>515</ele>
        <time>2018-05-21T08:03:18Z</time>
      </trkpt>
      <trkpt lat="42.773851007223129" lon="-7.3562550265342">
        <ele>515</ele>
        <time>2018-05-21T08:03:19Z</time>
      </trkpt>
      <trkpt lat="42.773855030536652" lon="-7.356198029592633">
        <ele>518</ele>
        <time>2018-05-21T08:03:20Z</time>
      </trkpt>
      <trkpt lat="42.773855030536652" lon="-7.356134997680783">
        <ele>518</ele>
        <time>2018-05-21T08:03:22Z</time>
      </trkpt>
      <trkpt lat="42.773855030536652" lon="-7.35608302988112">
        <ele>518</ele>
        <time>2018-05-21T08:03:23Z</time>
      </trkpt>
      <trkpt lat="42.773855030536652" lon="-7.356030978262425">
        <ele>518</ele>
        <time>2018-05-21T08:03:24Z</time>
      </trkpt>
      <trkpt lat="42.773855030536652" lon="-7.355959983542562">
        <ele>518</ele>
        <time>2018-05-21T08:03:25Z</time>
      </trkpt>
      <trkpt lat="42.773855030536652" lon="-7.355567961931229">
        <ele>518</ele>
        <time>2018-05-21T08:03:34Z</time>
      </trkpt>
      <trkpt lat="42.773837009444833" lon="-7.355307033285499">
        <ele>524</ele>
        <time>2018-05-21T08:03:40Z</time>
      </trkpt>
      <trkpt lat="42.773812031373382" lon="-7.355173006653786">
        <ele>524</ele>
        <time>2018-05-21T08:03:43Z</time>
      </trkpt>
      <trkpt lat="42.773772971704602" lon="-7.355014001950622">
        <ele>524</ele>
        <time>2018-05-21T08:03:46Z</time>
      </trkpt>
      <trkpt lat="42.773627964779735" lon="-7.354631032794714">
        <ele>521</ele>
        <time>2018-05-21T08:03:56Z</time>
      </trkpt>
      <trkpt lat="42.773581026121974" lon="-7.354505974799395">
        <ele>521</ele>
        <time>2018-05-21T08:03:59Z</time>
      </trkpt>
      <trkpt lat="42.773516988381743" lon="-7.354353005066514">
        <ele>532</ele>
        <time>2018-05-21T08:04:03Z</time>
      </trkpt>
      <trkpt lat="42.773468038067222" lon="-7.354169022291899">
        <ele>532</ele>
        <time>2018-05-21T08:04:07Z</time>
      </trkpt>
      <trkpt lat="42.773454040288925" lon="-7.354123005643487">
        <ele>532</ele>
        <time>2018-05-21T08:04:08Z</time>
      </trkpt>
      <trkpt lat="42.773429984226823" lon="-7.354059973731637">
        <ele>543</ele>
        <time>2018-05-21T08:04:10Z</time>
      </trkpt>
      <trkpt lat="42.773411963135004" lon="-7.354008005931974">
        <ele>532</ele>
        <time>2018-05-21T08:04:11Z</time>
      </trkpt>
      <trkpt lat="42.773397965356708" lon="-7.353954026475549">
        <ele>532</ele>
        <time>2018-05-21T08:04:12Z</time>
      </trkpt>
      <trkpt lat="42.773393020033836" lon="-7.353897029533982">
        <ele>532</ele>
        <time>2018-05-21T08:04:13Z</time>
      </trkpt>
      <trkpt lat="42.77337902225554" lon="-7.353833997622132">
        <ele>532</ele>
        <time>2018-05-21T08:04:15Z</time>
      </trkpt>
      <trkpt lat="42.77337902225554" lon="-7.353778006508946">
        <ele>532</ele>
        <time>2018-05-21T08:04:16Z</time>
      </trkpt>
      <trkpt lat="42.77337902225554" lon="-7.35372100956738">
        <ele>532</ele>
        <time>2018-05-21T08:04:17Z</time>
      </trkpt>
      <trkpt lat="42.77337902225554" lon="-7.353667030110955">
        <ele>532</ele>
        <time>2018-05-21T08:04:19Z</time>
      </trkpt>
      <trkpt lat="42.77337902225554" lon="-7.353612966835499">
        <ele>543</ele>
        <time>2018-05-21T08:04:20Z</time>
      </trkpt>
      <trkpt lat="42.77337902225554" lon="-7.353555969893932">
        <ele>543</ele>
        <time>2018-05-21T08:04:21Z</time>
      </trkpt>
      <trkpt lat="42.77337902225554" lon="-7.353482963517308">
        <ele>543</ele>
        <time>2018-05-21T08:04:23Z</time>
      </trkpt>
      <trkpt lat="42.773393020033836" lon="-7.353428984060884">
        <ele>543</ele>
        <time>2018-05-21T08:04:24Z</time>
      </trkpt>
      <trkpt lat="42.773435013368726" lon="-7.353335022926331">
        <ele>543</ele>
        <time>2018-05-21T08:04:26Z</time>
      </trkpt>
      <trkpt lat="42.773478012531996" lon="-7.353190016001463">
        <ele>543</ele>
        <time>2018-05-21T08:04:30Z</time>
      </trkpt>
      <trkpt lat="42.773515982553363" lon="-7.353050038218498">
        <ele>543</ele>
        <time>2018-05-21T08:04:33Z</time>
      </trkpt>
      <trkpt lat="42.773515982553363" lon="-7.352964039891958">
        <ele>543</ele>
        <time>2018-05-21T08:04:35Z</time>
      </trkpt>
      <trkpt lat="42.773544983938336" lon="-7.352884998545051">
        <ele>543</ele>
        <time>2018-05-21T08:04:37Z</time>
      </trkpt>
      <trkpt lat="42.77361698448658" lon="-7.352776033803821">
        <ele>559</ele>
        <time>2018-05-21T08:04:40Z</time>
      </trkpt>
      <trkpt lat="42.773641962558031" lon="-7.352659022435546">
        <ele>559</ele>
        <time>2018-05-21T08:04:43Z</time>
      </trkpt>
      <trkpt lat="42.773651015013456" lon="-7.352635972201824">
        <ele>559</ele>
        <time>2018-05-21T08:04:43Z</time>
      </trkpt>
      <trkpt lat="42.773665012791753" lon="-7.352577969431877">
        <ele>559</ele>
        <time>2018-05-21T08:04:45Z</time>
      </trkpt>
      <trkpt lat="42.773679010570049" lon="-7.352524995803833">
        <ele>559</ele>
        <time>2018-05-21T08:04:46Z</time>
      </trkpt>
      <trkpt lat="42.773679010570049" lon="-7.352461963891983">
        <ele>559</ele>
        <time>2018-05-21T08:04:47Z</time>
      </trkpt>
      <trkpt lat="42.773679010570049" lon="-7.35240999609232">
        <ele>559</ele>
        <time>2018-05-21T08:04:48Z</time>
      </trkpt>
      <trkpt lat="42.773679010570049" lon="-7.352358028292656">
        <ele>559</ele>
        <time>2018-05-21T08:04:50Z</time>
      </trkpt>
      <trkpt lat="42.773679010570049" lon="-7.35230103135109">
        <ele>559</ele>
        <time>2018-05-21T08:04:51Z</time>
      </trkpt>
      <trkpt lat="42.773679010570049" lon="-7.352243028581142">
        <ele>559</ele>
        <time>2018-05-21T08:04:52Z</time>
      </trkpt>
      <trkpt lat="42.773669958114624" lon="-7.352189971134067">
        <ele>559</ele>
        <time>2018-05-21T08:04:53Z</time>
      </trkpt>
      <trkpt lat="42.773669958114624" lon="-7.35213196836412">
        <ele>559</ele>
        <time>2018-05-21T08:04:55Z</time>
      </trkpt>
      <trkpt lat="42.773665012791753" lon="-7.352077988907695">
        <ele>559</ele>
        <time>2018-05-21T08:04:56Z</time>
      </trkpt>
      <trkpt lat="42.773651015013456" lon="-7.352027026936412">
        <ele>559</ele>
        <time>2018-05-21T08:04:57Z</time>
      </trkpt>
      <trkpt lat="42.773640034720302" lon="-7.351967012509704">
        <ele>566</ele>
        <time>2018-05-21T08:04:58Z</time>
      </trkpt>
      <trkpt lat="42.773630982264876" lon="-7.351914960891008">
        <ele>566</ele>
        <time>2018-05-21T08:04:59Z</time>
      </trkpt>
      <trkpt lat="42.77361698448658" lon="-7.35185201279819">
        <ele>566</ele>
        <time>2018-05-21T08:05:01Z</time>
      </trkpt>
      <trkpt lat="42.773598041385412" lon="-7.351783029735088">
        <ele>566</ele>
        <time>2018-05-21T08:05:03Z</time>
      </trkpt>
      <trkpt lat="42.77361698448658" lon="-7.351737013086677">
        <ele>566</ele>
        <time>2018-05-21T08:05:04Z</time>
      </trkpt>
      <trkpt lat="42.77363701723516" lon="-7.351698959246278">
        <ele>566</ele>
        <time>2018-05-21T08:05:05Z</time>
      </trkpt>
      <trkpt lat="42.773669958114624" lon="-7.35165897756815">
        <ele>566</ele>
        <time>2018-05-21T08:05:06Z</time>
      </trkpt>
      <trkpt lat="42.773695020005107" lon="-7.351624025031924">
        <ele>566</ele>
        <time>2018-05-21T08:05:07Z</time>
      </trkpt>
      <trkpt lat="42.7737230155617" lon="-7.351589994505048">
        <ele>566</ele>
        <time>2018-05-21T08:05:08Z</time>
      </trkpt>
      <trkpt lat="42.773751011118293" lon="-7.351543977856636">
        <ele>566</ele>
        <time>2018-05-21T08:05:09Z</time>
      </trkpt>
      <trkpt lat="42.77378998696804" lon="-7.35150701366365">
        <ele>550</ele>
        <time>2018-05-21T08:05:11Z</time>
      </trkpt>
      <trkpt lat="42.773813037201762" lon="-7.351477006450295">
        <ele>550</ele>
        <time>2018-05-21T08:05:12Z</time>
      </trkpt>
      <trkpt lat="42.773836003616452" lon="-7.351430989801884">
        <ele>550</ele>
        <time>2018-05-21T08:05:13Z</time>
      </trkpt>
      <trkpt lat="42.773869028314948" lon="-7.351391008123756">
        <ele>550</ele>
        <time>2018-05-21T08:05:14Z</time>
      </trkpt>
      <trkpt lat="42.773894006386399" lon="-7.351342979818583">
        <ele>550</ele>
        <time>2018-05-21T08:05:16Z</time>
      </trkpt>
      <trkpt lat="42.773908004164696" lon="-7.351301992312074">
        <ele>550</ele>
        <time>2018-05-21T08:05:17Z</time>
      </trkpt>
      <trkpt lat="42.773913033306599" lon="-7.351238960400224">
        <ele>550</ele>
        <time>2018-05-21T08:05:18Z</time>
      </trkpt>
      <trkpt lat="42.773922001942992" lon="-7.351181963458657">
        <ele>550</ele>
        <time>2018-05-21T08:05:19Z</time>
      </trkpt>
      <trkpt lat="42.773922001942992" lon="-7.351129995658994">
        <ele>564</ele>
        <time>2018-05-21T08:05:20Z</time>
      </trkpt>
      <trkpt lat="42.773922001942992" lon="-7.351061012595892">
        <ele>564</ele>
        <time>2018-05-21T08:05:22Z</time>
      </trkpt>
      <trkpt lat="42.773922001942992" lon="-7.350997980684042">
        <ele>564</ele>
        <time>2018-05-21T08:05:23Z</time>
      </trkpt>
      <trkpt lat="42.773922001942992" lon="-7.350940983742476">
        <ele>564</ele>
        <time>2018-05-21T08:05:24Z</time>
      </trkpt>
      <trkpt lat="42.773922001942992" lon="-7.35086596570909">
        <ele>564</ele>
        <time>2018-05-21T08:05:26Z</time>
      </trkpt>
      <trkpt lat="42.773922001942992" lon="-7.350807962939143">
        <ele>564</ele>
        <time>2018-05-21T08:05:27Z</time>
      </trkpt>
      <trkpt lat="42.773922001942992" lon="-7.350721964612603">
        <ele>564</ele>
        <time>2018-05-21T08:05:29Z</time>
      </trkpt>
      <trkpt lat="42.773922001942992" lon="-7.350664967671037">
        <ele>564</ele>
        <time>2018-05-21T08:05:31Z</time>
      </trkpt>
      <trkpt lat="42.773922001942992" lon="-7.350593972951174">
        <ele>564</ele>
        <time>2018-05-21T08:05:32Z</time>
      </trkpt>
      <trkpt lat="42.773916972801089" lon="-7.350514009594917">
        <ele>564</ele>
        <time>2018-05-21T08:05:34Z</time>
      </trkpt>
      <trkpt lat="42.773913033306599" lon="-7.350449971854687">
        <ele>564</ele>
        <time>2018-05-21T08:05:35Z</time>
      </trkpt>
      <trkpt lat="42.773908004164696" lon="-7.350387023761869">
        <ele>564</ele>
        <time>2018-05-21T08:05:37Z</time>
      </trkpt>
      <trkpt lat="42.773908004164696" lon="-7.350330026820302">
        <ele>574</ele>
        <time>2018-05-21T08:05:38Z</time>
      </trkpt>
      <trkpt lat="42.773894006386399" lon="-7.350266994908452">
        <ele>574</ele>
        <time>2018-05-21T08:05:39Z</time>
      </trkpt>
      <trkpt lat="42.773888977244496" lon="-7.350186025723815">
        <ele>574</ele>
        <time>2018-05-21T08:05:41Z</time>
      </trkpt>
      <trkpt lat="42.773885037750006" lon="-7.35013397410512">
        <ele>574</ele>
        <time>2018-05-21T08:05:42Z</time>
      </trkpt>
      <trkpt lat="42.7738749794662" lon="-7.350061973556876">
        <ele>574</ele>
        <time>2018-05-21T08:05:44Z</time>
      </trkpt>
      <trkpt lat="42.773871039971709" lon="-7.350010005757213">
        <ele>574</ele>
        <time>2018-05-21T08:05:45Z</time>
      </trkpt>
      <trkpt lat="42.773860981687903" lon="-7.349952002987266">
        <ele>574</ele>
        <time>2018-05-21T08:05:46Z</time>
      </trkpt>
      <trkpt lat="42.773855030536652" lon="-7.34989701770246">
        <ele>574</ele>
        <time>2018-05-21T08:05:47Z</time>
      </trkpt>
      <trkpt lat="42.773850001394749" lon="-7.349839014932513">
        <ele>574</ele>
        <time>2018-05-21T08:05:49Z</time>
      </trkpt>
      <trkpt lat="42.773850001394749" lon="-7.349787969142199">
        <ele>574</ele>
        <time>2018-05-21T08:05:50Z</time>
      </trkpt>
      <trkpt lat="42.773850001394749" lon="-7.349736001342535">
        <ele>574</ele>
        <time>2018-05-21T08:05:51Z</time>
      </trkpt>
      <trkpt lat="42.773850001394749" lon="-7.349684033542872">
        <ele>574</ele>
        <time>2018-05-21T08:05:52Z</time>
      </trkpt>
      <trkpt lat="42.773866010829806" lon="-7.349570961669087">
        <ele>574</ele>
        <time>2018-05-21T08:05:55Z</time>
      </trkpt>
      <trkpt lat="42.773860981687903" lon="-7.349576996639371">
        <ele>574</ele>
        <time>2018-05-21T08:05:55Z</time>
      </trkpt>
      <trkpt lat="42.773912027478218" lon="-7.349238032475114">
        <ele>583</ele>
        <time>2018-05-21T08:06:02Z</time>
      </trkpt>
      <trkpt lat="42.7739820163697" lon="-7.348894961178303">
        <ele>583</ele>
        <time>2018-05-21T08:06:10Z</time>
      </trkpt>
      <trkpt lat="42.773988973349333" lon="-7.348883980885148">
        <ele>583</ele>
        <time>2018-05-21T08:06:10Z</time>
      </trkpt>
      <trkpt lat="42.774015963077545" lon="-7.348664961755276">
        <ele>592</ele>
        <time>2018-05-21T08:06:15Z</time>
      </trkpt>
      <trkpt lat="42.774034989997745" lon="-7.348247962072492">
        <ele>592</ele>
        <time>2018-05-21T08:06:24Z</time>
      </trkpt>
      <trkpt lat="42.774029960855842" lon="-7.347921989858151">
        <ele>592</ele>
        <time>2018-05-21T08:06:31Z</time>
      </trkpt>
      <trkpt lat="42.774029960855842" lon="-7.347601968795061">
        <ele>598</ele>
        <time>2018-05-21T08:06:38Z</time>
      </trkpt>
      <trkpt lat="42.774006994441152" lon="-7.347094025462866">
        <ele>598</ele>
        <time>2018-05-21T08:06:49Z</time>
      </trkpt>
      <trkpt lat="42.773988973349333" lon="-7.346617011353374">
        <ele>603</ele>
        <time>2018-05-21T08:07:00Z</time>
      </trkpt>
      <trkpt lat="42.774026021361351" lon="-7.346374019980431">
        <ele>603</ele>
        <time>2018-05-21T08:07:05Z</time>
      </trkpt>
      <trkpt lat="42.774083018302917" lon="-7.346098003908992">
        <ele>608</ele>
        <time>2018-05-21T08:07:11Z</time>
      </trkpt>
      <trkpt lat="42.774187959730625" lon="-7.345733977854252">
        <ele>608</ele>
        <time>2018-05-21T08:07:20Z</time>
      </trkpt>
      <trkpt lat="42.77423900552094" lon="-7.345510013401508">
        <ele>608</ele>
        <time>2018-05-21T08:07:25Z</time>
      </trkpt>
      <trkpt lat="42.77423900552094" lon="-7.345501966774464">
        <ele>608</ele>
        <time>2018-05-21T08:07:25Z</time>
      </trkpt>
      <trkpt lat="42.774322992190719" lon="-7.345132995396853">
        <ele>613</ele>
        <time>2018-05-21T08:07:34Z</time>
      </trkpt>
      <trkpt lat="42.774393986910582" lon="-7.344763018190861">
        <ele>613</ele>
        <time>2018-05-21T08:07:42Z</time>
      </trkpt>
      <trkpt lat="42.774479985237122" lon="-7.344338977709413">
        <ele>613</ele>
        <time>2018-05-21T08:07:51Z</time>
      </trkpt>
      <trkpt lat="42.774528013542295" lon="-7.344027003273368">
        <ele>613</ele>
        <time>2018-05-21T08:07:58Z</time>
      </trkpt>
      <trkpt lat="42.774587022140622" lon="-7.343662977218628">
        <ele>613</ele>
        <time>2018-05-21T08:08:06Z</time>
      </trkpt>
      <trkpt lat="42.774667991325259" lon="-7.343226028606296">
        <ele>620</ele>
        <time>2018-05-21T08:08:16Z</time>
      </trkpt>
      <trkpt lat="42.774753989651799" lon="-7.342812968418002">
        <ele>620</ele>
        <time>2018-05-21T08:08:26Z</time>
      </trkpt>
      <trkpt lat="42.774753989651799" lon="-7.342805005609989">
        <ele>622</ele>
        <time>2018-05-21T08:08:26Z</time>
      </trkpt>
      <trkpt lat="42.77482096105814" lon="-7.342503005638719">
        <ele>622</ele>
        <time>2018-05-21T08:08:33Z</time>
      </trkpt>
      <trkpt lat="42.774839987978339" lon="-7.34248599037528">
        <ele>622</ele>
        <time>2018-05-21T08:08:33Z</time>
      </trkpt>
      <trkpt lat="42.774849040433764" lon="-7.342439973726869">
        <ele>622</ele>
        <time>2018-05-21T08:08:34Z</time>
      </trkpt>
      <trkpt lat="42.774867983534932" lon="-7.34239999204874">
        <ele>622</ele>
        <time>2018-05-21T08:08:35Z</time>
      </trkpt>
      <trkpt lat="42.774877035990357" lon="-7.342320028692484">
        <ele>622</ele>
        <time>2018-05-21T08:08:37Z</time>
      </trkpt>
      <trkpt lat="42.774877035990357" lon="-7.342262025922537">
        <ele>622</ele>
        <time>2018-05-21T08:08:38Z</time>
      </trkpt>
      <trkpt lat="42.774882987141609" lon="-7.34216102398932">
        <ele>622</ele>
        <time>2018-05-21T08:08:40Z</time>
      </trkpt>
      <trkpt lat="42.774882987141609" lon="-7.342101009562612">
        <ele>622</ele>
        <time>2018-05-21T08:08:42Z</time>
      </trkpt>
      <trkpt lat="42.774882987141609" lon="-7.342044012621045">
        <ele>622</ele>
        <time>2018-05-21T08:08:43Z</time>
      </trkpt>
      <trkpt lat="42.774882987141609" lon="-7.341986009851098">
        <ele>619</ele>
        <time>2018-05-21T08:08:44Z</time>
      </trkpt>
      <trkpt lat="42.774874018505216" lon="-7.341934964060783">
        <ele>619</ele>
        <time>2018-05-21T08:08:45Z</time>
      </trkpt>
      <trkpt lat="42.774874018505216" lon="-7.34188299626112">
        <ele>619</ele>
        <time>2018-05-21T08:08:47Z</time>
      </trkpt>
      <trkpt lat="42.774874018505216" lon="-7.341824993491173">
        <ele>619</ele>
        <time>2018-05-21T08:08:48Z</time>
      </trkpt>
      <trkpt lat="42.774868989363313" lon="-7.341761961579323">
        <ele>619</ele>
        <time>2018-05-21T08:08:49Z</time>
      </trkpt>
      <trkpt lat="42.774868989363313" lon="-7.341704964637756">
        <ele>619</ele>
        <time>2018-05-21T08:08:50Z</time>
      </trkpt>
      <trkpt lat="42.774868989363313" lon="-7.341652996838093">
        <ele>619</ele>
        <time>2018-05-21T08:08:52Z</time>
      </trkpt>
      <trkpt lat="42.77486496604979" lon="-7.341595999896526">
        <ele>619</ele>
        <time>2018-05-21T08:08:53Z</time>
      </trkpt>
      <trkpt lat="42.774854991585016" lon="-7.341515030711889">
        <ele>619</ele>
        <time>2018-05-21T08:08:55Z</time>
      </trkpt>
      <trkpt lat="42.774850968271494" lon="-7.341458033770323">
        <ele>619</ele>
        <time>2018-05-21T08:08:56Z</time>
      </trkpt>
      <trkpt lat="42.774846022948623" lon="-7.341376980766654">
        <ele>619</ele>
        <time>2018-05-21T08:08:58Z</time>
      </trkpt>
      <trkpt lat="42.774826996028423" lon="-7.341329036280513">
        <ele>619</ele>
        <time>2018-05-21T08:08:59Z</time>
      </trkpt>
      <trkpt lat="42.77479900047183" lon="-7.34126097522676">
        <ele>619</ele>
        <time>2018-05-21T08:09:00Z</time>
      </trkpt>
      <trkpt lat="42.774766981601715" lon="-7.341173971071839">
        <ele>619</ele>
        <time>2018-05-21T08:09:03Z</time>
      </trkpt>
      <trkpt lat="42.774748038500547" lon="-7.34110901132226">
        <ele>620</ele>
        <time>2018-05-21T08:09:04Z</time>
      </trkpt>
      <trkpt lat="42.7746900357306" lon="-7.340942965820432">
        <ele>620</ele>
        <time>2018-05-21T08:09:08Z</time>
      </trkpt>
      <trkpt lat="42.77464703656733" lon="-7.340807011350989">
        <ele>619</ele>
        <time>2018-05-21T08:09:11Z</time>
      </trkpt>
      <trkpt lat="42.774614011868834" lon="-7.34065898694098">
        <ele>619</ele>
        <time>2018-05-21T08:09:15Z</time>
      </trkpt>
      <trkpt lat="42.774614011868834" lon="-7.340653035789728">
        <ele>619</ele>
        <time>2018-05-21T08:09:15Z</time>
      </trkpt>
      <trkpt lat="42.774604959413409" lon="-7.340601989999414">
        <ele>619</ele>
        <time>2018-05-21T08:09:16Z</time>
      </trkpt>
      <trkpt lat="42.774594984948635" lon="-7.340543987229466">
        <ele>619</ele>
        <time>2018-05-21T08:09:17Z</time>
      </trkpt>
      <trkpt lat="42.774566989392042" lon="-7.340481039136648">
        <ele>619</ele>
        <time>2018-05-21T08:09:19Z</time>
      </trkpt>
      <trkpt lat="42.774544022977352" lon="-7.340382970869541">
        <ele>619</ele>
        <time>2018-05-21T08:09:21Z</time>
      </trkpt>
      <trkpt lat="42.77453999966383" lon="-7.340329997241497">
        <ele>624</ele>
        <time>2018-05-21T08:09:22Z</time>
      </trkpt>
      <trkpt lat="42.774530025199056" lon="-7.340242993086577">
        <ele>624</ele>
        <time>2018-05-21T08:09:24Z</time>
      </trkpt>
      <trkpt lat="42.77452097274363" lon="-7.340175015851855">
        <ele>624</ele>
        <time>2018-05-21T08:09:26Z</time>
      </trkpt>
      <trkpt lat="42.774516027420759" lon="-7.340082982555032">
        <ele>624</ele>
        <time>2018-05-21T08:09:28Z</time>
      </trkpt>
      <trkpt lat="42.774488031864166" lon="-7.340058004483581">
        <ele>624</ele>
        <time>2018-05-21T08:09:29Z</time>
      </trkpt>
      <trkpt lat="42.774450983852148" lon="-7.340006036683917">
        <ele>624</ele>
        <time>2018-05-21T08:09:30Z</time>
      </trkpt>
      <trkpt lat="42.774380994960666" lon="-7.339925989508629">
        <ele>624</ele>
        <time>2018-05-21T08:09:33Z</time>
      </trkpt>
      <trkpt lat="42.774344030767679" lon="-7.339891036972404">
        <ele>624</ele>
        <time>2018-05-21T08:09:34Z</time>
      </trkpt>
      <trkpt lat="42.77430203743279" lon="-7.339857006445527">
        <ele>624</ele>
        <time>2018-05-21T08:09:36Z</time>
      </trkpt>
      <trkpt lat="42.774258032441139" lon="-7.339845020323992">
        <ele>624</ele>
        <time>2018-05-21T08:09:37Z</time>
      </trkpt>
      <trkpt lat="42.774220984429121" lon="-7.33982197009027">
        <ele>624</ele>
        <time>2018-05-21T08:09:38Z</time>
      </trkpt>
      <trkpt lat="42.774187959730625" lon="-7.339792968705297">
        <ele>624</ele>
        <time>2018-05-21T08:09:39Z</time>
      </trkpt>
      <trkpt lat="42.774159964174032" lon="-7.339757010340691">
        <ele>624</ele>
        <time>2018-05-21T08:09:40Z</time>
      </trkpt>
      <trkpt lat="42.774134986102581" lon="-7.339720968157053">
        <ele>624</ele>
        <time>2018-05-21T08:09:41Z</time>
      </trkpt>
      <trkpt lat="42.774102967232466" lon="-7.33966900035739">
        <ele>624</ele>
        <time>2018-05-21T08:09:43Z</time>
      </trkpt>
      <trkpt lat="42.774072960019112" lon="-7.339639998972416">
        <ele>624</ele>
        <time>2018-05-21T08:09:44Z</time>
      </trkpt>
      <trkpt lat="42.774058962240815" lon="-7.33958300203085">
        <ele>624</ele>
        <time>2018-05-21T08:09:45Z</time>
      </trkpt>
      <trkpt lat="42.774035995826125" lon="-7.339543020352721">
        <ele>624</ele>
        <time>2018-05-21T08:09:46Z</time>
      </trkpt>
      <trkpt lat="42.774008000269532" lon="-7.339502032846212">
        <ele>630</ele>
        <time>2018-05-21T08:09:48Z</time>
      </trkpt>
      <trkpt lat="42.773984028026462" lon="-7.339456016197801">
        <ele>630</ele>
        <time>2018-05-21T08:09:49Z</time>
      </trkpt>
      <trkpt lat="42.773966006934643" lon="-7.339399019256234">
        <ele>630</ele>
        <time>2018-05-21T08:09:50Z</time>
      </trkpt>
      <trkpt lat="42.773946980014443" lon="-7.339353002607822">
        <ele>630</ele>
        <time>2018-05-21T08:09:51Z</time>
      </trkpt>
      <trkpt lat="42.773910015821457" lon="-7.339299023151398">
        <ele>630</ele>
        <time>2018-05-21T08:09:53Z</time>
      </trkpt>
      <trkpt lat="42.773876991122961" lon="-7.339264992624521">
        <ele>630</ele>
        <time>2018-05-21T08:09:54Z</time>
      </trkpt>
      <trkpt lat="42.77385301887989" lon="-7.339201038703322">
        <ele>630</ele>
        <time>2018-05-21T08:09:56Z</time>
      </trkpt>
      <trkpt lat="42.773871961981058" lon="-7.339144041761756">
        <ele>630</ele>
        <time>2018-05-21T08:09:57Z</time>
      </trkpt>
      <trkpt lat="42.773890988901258" lon="-7.339091990143061">
        <ele>630</ele>
        <time>2018-05-21T08:09:58Z</time>
      </trkpt>
      <trkpt lat="42.773904986679554" lon="-7.339052008464932">
        <ele>630</ele>
        <time>2018-05-21T08:09:59Z</time>
      </trkpt>
      <trkpt lat="42.77391898445785" lon="-7.339005991816521">
        <ele>630</ele>
        <time>2018-05-21T08:10:00Z</time>
      </trkpt>
      <trkpt lat="42.773928036913276" lon="-7.338954024016857">
        <ele>630</ele>
        <time>2018-05-21T08:10:02Z</time>
      </trkpt>
      <trkpt lat="42.773937005549669" lon="-7.338897027075291">
        <ele>630</ele>
        <time>2018-05-21T08:10:03Z</time>
      </trkpt>
      <trkpt lat="42.773951003327966" lon="-7.338840030133724">
        <ele>630</ele>
        <time>2018-05-21T08:10:04Z</time>
      </trkpt>
      <trkpt lat="42.773974975571036" lon="-7.338794013485313">
        <ele>630</ele>
        <time>2018-05-21T08:10:05Z</time>
      </trkpt>
      <trkpt lat="42.773992996662855" lon="-7.338753025978804">
        <ele>630</ele>
        <time>2018-05-21T08:10:07Z</time>
      </trkpt>
      <trkpt lat="42.774016968905926" lon="-7.33868395909667">
        <ele>639</ele>
        <time>2018-05-21T08:10:08Z</time>
      </trkpt>
      <trkpt lat="42.774026021361351" lon="-7.338626962155104">
        <ele>639</ele>
        <time>2018-05-21T08:10:09Z</time>
      </trkpt>
      <trkpt lat="42.774040019139647" lon="-7.338569965213537">
        <ele>639</ele>
        <time>2018-05-21T08:10:11Z</time>
      </trkpt>
      <trkpt lat="42.774044964462519" lon="-7.338500982150435">
        <ele>639</ele>
        <time>2018-05-21T08:10:12Z</time>
      </trkpt>
      <trkpt lat="42.774058962240815" lon="-7.338454965502024">
        <ele>639</ele>
        <time>2018-05-21T08:10:13Z</time>
      </trkpt>
      <trkpt lat="42.774062985554338" lon="-7.33840299770236">
        <ele>639</ele>
        <time>2018-05-21T08:10:15Z</time>
      </trkpt>
      <trkpt lat="42.774062985554338" lon="-7.338323034346104">
        <ele>639</ele>
        <time>2018-05-21T08:10:16Z</time>
      </trkpt>
      <trkpt lat="42.774062985554338" lon="-7.338265031576157">
        <ele>639</ele>
        <time>2018-05-21T08:10:18Z</time>
      </trkpt>
      <trkpt lat="42.774058962240815" lon="-7.338212979957461">
        <ele>639</ele>
        <time>2018-05-21T08:10:19Z</time>
      </trkpt>
      <trkpt lat="42.774044964462519" lon="-7.338162017986178">
        <ele>639</ele>
        <time>2018-05-21T08:10:20Z</time>
      </trkpt>
      <trkpt lat="42.774034989997745" lon="-7.338109966367483">
        <ele>639</ele>
        <time>2018-05-21T08:10:21Z</time>
      </trkpt>
      <trkpt lat="42.774026021361351" lon="-7.33805799856782">
        <ele>639</ele>
        <time>2018-05-21T08:10:22Z</time>
      </trkpt>
      <trkpt lat="42.774012023583055" lon="-7.338007036596537">
        <ele>639</ele>
        <time>2018-05-21T08:10:23Z</time>
      </trkpt>
      <trkpt lat="42.773998025804758" lon="-7.337961019948125">
        <ele>639</ele>
        <time>2018-05-21T08:10:24Z</time>
      </trkpt>
      <trkpt lat="42.773974975571036" lon="-7.337868986651301">
        <ele>648</ele>
        <time>2018-05-21T08:10:27Z</time>
      </trkpt>
      <trkpt lat="42.773956032469869" lon="-7.337806038558483">
        <ele>648</ele>
        <time>2018-05-21T08:10:28Z</time>
      </trkpt>
      <trkpt lat="42.773942034691572" lon="-7.337751975283027">
        <ele>648</ele>
        <time>2018-05-21T08:10:29Z</time>
      </trkpt>
      <trkpt lat="42.773914039134979" lon="-7.337705958634615">
        <ele>648</ele>
        <time>2018-05-21T08:10:31Z</time>
      </trkpt>
      <trkpt lat="42.773894006386399" lon="-7.337660025805235">
        <ele>648</ele>
        <time>2018-05-21T08:10:32Z</time>
      </trkpt>
      <trkpt lat="42.773866010829806" lon="-7.337603028863668">
        <ele>648</ele>
        <time>2018-05-21T08:10:33Z</time>
      </trkpt>
      <trkpt lat="42.773846983909607" lon="-7.337545026093721">
        <ele>648</ele>
        <time>2018-05-21T08:10:35Z</time>
      </trkpt>
      <trkpt lat="42.773824017494917" lon="-7.33749900944531">
        <ele>648</ele>
        <time>2018-05-21T08:10:36Z</time>
      </trkpt>
      <trkpt lat="42.773804990574718" lon="-7.337452992796898">
        <ele>648</ele>
        <time>2018-05-21T08:10:37Z</time>
      </trkpt>
      <trkpt lat="42.773776995018125" lon="-7.337384009733796">
        <ele>648</ele>
        <time>2018-05-21T08:10:39Z</time>
      </trkpt>
      <trkpt lat="42.773756962269545" lon="-7.337347967550159">
        <ele>646</ele>
        <time>2018-05-21T08:10:40Z</time>
      </trkpt>
      <trkpt lat="42.773710023611784" lon="-7.337245037779212">
        <ele>646</ele>
        <time>2018-05-21T08:10:42Z</time>
      </trkpt>
      <trkpt lat="42.773661995306611" lon="-7.337116040289402">
        <ele>646</ele>
        <time>2018-05-21T08:10:46Z</time>
      </trkpt>
      <trkpt lat="42.773563005030155" lon="-7.336900038644671">
        <ele>654</ele>
        <time>2018-05-21T08:10:51Z</time>
      </trkpt>
      <trkpt lat="42.773443982005119" lon="-7.336622010916472">
        <ele>654</ele>
        <time>2018-05-21T08:10:58Z</time>
      </trkpt>
      <trkpt lat="42.77329402975738" lon="-7.33627600595355">
        <ele>654</ele>
        <time>2018-05-21T08:11:07Z</time>
      </trkpt>
      <trkpt lat="42.773195039480925" lon="-7.336021028459072">
        <ele>663</ele>
        <time>2018-05-21T08:11:13Z</time>
      </trkpt>
      <trkpt lat="42.773106023669243" lon="-7.33582497574389">
        <ele>663</ele>
        <time>2018-05-21T08:11:18Z</time>
      </trkpt>
      <trkpt lat="42.773099988698959" lon="-7.33582497574389">
        <ele>663</ele>
        <time>2018-05-21T08:11:18Z</time>
      </trkpt>
      <trkpt lat="42.773036034777761" lon="-7.335608974099159">
        <ele>663</ele>
        <time>2018-05-21T08:11:23Z</time>
      </trkpt>
      <trkpt lat="42.772994041442871" lon="-7.335451981052756">
        <ele>663</ele>
        <time>2018-05-21T08:11:27Z</time>
      </trkpt>
      <trkpt lat="42.772947018966079" lon="-7.335232039913535">
        <ele>668</ele>
        <time>2018-05-21T08:11:32Z</time>
      </trkpt>
      <trkpt lat="42.772947018966079" lon="-7.335216030478478">
        <ele>668</ele>
        <time>2018-05-21T08:11:32Z</time>
      </trkpt>
      <trkpt lat="42.772909970954061" lon="-7.335003968328238">
        <ele>668</ele>
        <time>2018-05-21T08:11:37Z</time>
      </trkpt>
      <trkpt lat="42.772909970954061" lon="-7.334996005520225">
        <ele>664</ele>
        <time>2018-05-21T08:11:37Z</time>
      </trkpt>
      <trkpt lat="42.772873006761074" lon="-7.334734993055463">
        <ele>664</ele>
        <time>2018-05-21T08:11:43Z</time>
      </trkpt>
      <trkpt lat="42.772873006761074" lon="-7.334728036075831">
        <ele>664</ele>
        <time>2018-05-21T08:11:43Z</time>
      </trkpt>
      <trkpt lat="42.772831013426185" lon="-7.334476998075843">
        <ele>664</ele>
        <time>2018-05-21T08:11:49Z</time>
      </trkpt>
      <trkpt lat="42.772792959585786" lon="-7.334225960075855">
        <ele>668</ele>
        <time>2018-05-21T08:11:54Z</time>
      </trkpt>
      <trkpt lat="42.772789020091295" lon="-7.334209028631449">
        <ele>668</ele>
        <time>2018-05-21T08:11:55Z</time>
      </trkpt>
      <trkpt lat="42.772778961807489" lon="-7.334163011983037">
        <ele>668</ele>
        <time>2018-05-21T08:11:56Z</time>
      </trkpt>
      <trkpt lat="42.772769993171096" lon="-7.334098974242806">
        <ele>668</ele>
        <time>2018-05-21T08:11:57Z</time>
      </trkpt>
      <trkpt lat="42.772764964029193" lon="-7.334016999229789">
        <ele>668</ele>
        <time>2018-05-21T08:11:59Z</time>
      </trkpt>
      <trkpt lat="42.772764964029193" lon="-7.333953967317939">
        <ele>668</ele>
        <time>2018-05-21T08:12:00Z</time>
      </trkpt>
      <trkpt lat="42.772764964029193" lon="-7.333899987861514">
        <ele>668</ele>
        <time>2018-05-21T08:12:01Z</time>
      </trkpt>
      <trkpt lat="42.772764964029193" lon="-7.333842990919948">
        <ele>668</ele>
        <time>2018-05-21T08:12:03Z</time>
      </trkpt>
      <trkpt lat="42.772775022312999" lon="-7.333774007856846">
        <ele>668</ele>
        <time>2018-05-21T08:12:04Z</time>
      </trkpt>
      <trkpt lat="42.772775022312999" lon="-7.333716005086899">
        <ele>668</ele>
        <time>2018-05-21T08:12:05Z</time>
      </trkpt>
      <trkpt lat="42.772778961807489" lon="-7.333645010367036">
        <ele>668</ele>
        <time>2018-05-21T08:12:07Z</time>
      </trkpt>
      <trkpt lat="42.772789020091295" lon="-7.333594970405102">
        <ele>668</ele>
        <time>2018-05-21T08:12:08Z</time>
      </trkpt>
      <trkpt lat="42.772803017869592" lon="-7.333544008433819">
        <ele>668</ele>
        <time>2018-05-21T08:12:09Z</time>
      </trkpt>
      <trkpt lat="42.772827995941043" lon="-7.333466978743672">
        <ele>668</ele>
        <time>2018-05-21T08:12:11Z</time>
      </trkpt>
      <trkpt lat="42.772856997326016" lon="-7.333309985697269">
        <ele>668</ele>
        <time>2018-05-21T08:12:15Z</time>
      </trkpt>
      <trkpt lat="42.772887004539371" lon="-7.333109993487597">
        <ele>668</ele>
        <time>2018-05-21T08:12:19Z</time>
      </trkpt>
      <trkpt lat="42.772901002317667" lon="-7.332916958257556">
        <ele>668</ele>
        <time>2018-05-21T08:12:23Z</time>
      </trkpt>
      <trkpt lat="42.772933021187782" lon="-7.332604983821511">
        <ele>669</ele>
        <time>2018-05-21T08:12:30Z</time>
      </trkpt>
      <trkpt lat="42.772933021187782" lon="-7.332588974386454">
        <ele>669</ele>
        <time>2018-05-21T08:12:30Z</time>
      </trkpt>
      <trkpt lat="42.772989012300968" lon="-7.332226959988475">
        <ele>675</ele>
        <time>2018-05-21T08:12:38Z</time>
      </trkpt>
      <trkpt lat="42.773049026727676" lon="-7.331861006096005">
        <ele>673</ele>
        <time>2018-05-21T08:12:47Z</time>
      </trkpt>
      <trkpt lat="42.773123038932681" lon="-7.331491028890014">
        <ele>673</ele>
        <time>2018-05-21T08:12:55Z</time>
      </trkpt>
      <trkpt lat="42.773184981197119" lon="-7.33111803419888">
        <ele>673</ele>
        <time>2018-05-21T08:13:03Z</time>
      </trkpt>
      <trkpt lat="42.773220017552376" lon="-7.330800024792552">
        <ele>673</ele>
        <time>2018-05-21T08:13:10Z</time>
      </trkpt>
      <trkpt lat="42.77320995926857" lon="-7.330566002056003">
        <ele>673</ele>
        <time>2018-05-21T08:13:15Z</time>
      </trkpt>
      <trkpt lat="42.77320995926857" lon="-7.330284034833312">
        <ele>677</ele>
        <time>2018-05-21T08:13:21Z</time>
      </trkpt>
      <trkpt lat="42.77320702560246" lon="-7.330000977963209">
        <ele>677</ele>
        <time>2018-05-21T08:13:28Z</time>
      </trkpt>
      <trkpt lat="42.77320702560246" lon="-7.329954961314797">
        <ele>677</ele>
        <time>2018-05-21T08:13:29Z</time>
      </trkpt>
      <trkpt lat="42.773210965096951" lon="-7.329890001565218">
        <ele>677</ele>
        <time>2018-05-21T08:13:30Z</time>
      </trkpt>
      <trkpt lat="42.773210965096951" lon="-7.329833004623652">
        <ele>677</ele>
        <time>2018-05-21T08:13:31Z</time>
      </trkpt>
      <trkpt lat="42.773215994238853" lon="-7.329775001853705">
        <ele>677</ele>
        <time>2018-05-21T08:13:32Z</time>
      </trkpt>
      <trkpt lat="42.773215994238853" lon="-7.329695038497448">
        <ele>677</ele>
        <time>2018-05-21T08:13:34Z</time>
      </trkpt>
      <trkpt lat="42.773215994238853" lon="-7.329637035727501">
        <ele>677</ele>
        <time>2018-05-21T08:13:35Z</time>
      </trkpt>
      <trkpt lat="42.773215994238853" lon="-7.329580038785934">
        <ele>677</ele>
        <time>2018-05-21T08:13:37Z</time>
      </trkpt>
      <trkpt lat="42.773215994238853" lon="-7.329523041844368">
        <ele>676</ele>
        <time>2018-05-21T08:13:38Z</time>
      </trkpt>
      <trkpt lat="42.773215994238853" lon="-7.329459004104137">
        <ele>676</ele>
        <time>2018-05-21T08:13:39Z</time>
      </trkpt>
      <trkpt lat="42.773210965096951" lon="-7.329407958313823">
        <ele>676</ele>
        <time>2018-05-21T08:13:40Z</time>
      </trkpt>
      <trkpt lat="42.773210965096951" lon="-7.329355990514159">
        <ele>676</ele>
        <time>2018-05-21T08:13:42Z</time>
      </trkpt>
      <trkpt lat="42.773210965096951" lon="-7.329304022714496">
        <ele>676</ele>
        <time>2018-05-21T08:13:43Z</time>
      </trkpt>
      <trkpt lat="42.773201996460557" lon="-7.329252976924181">
        <ele>676</ele>
        <time>2018-05-21T08:13:44Z</time>
      </trkpt>
      <trkpt lat="42.773160003125668" lon="-7.329161027446389">
        <ele>676</ele>
        <time>2018-05-21T08:13:46Z</time>
      </trkpt>
      <trkpt lat="42.773135025054216" lon="-7.329066982492805">
        <ele>676</ele>
        <time>2018-05-21T08:13:48Z</time>
      </trkpt>
      <trkpt lat="42.773084985092282" lon="-7.328915018588305">
        <ele>676</ele>
        <time>2018-05-21T08:13:52Z</time>
      </trkpt>
      <trkpt lat="42.773018013685942" lon="-7.328787026926875">
        <ele>676</ele>
        <time>2018-05-21T08:13:55Z</time>
      </trkpt>
      <trkpt lat="42.772962022572756" lon="-7.328597009181976">
        <ele>675</ele>
        <time>2018-05-21T08:14:00Z</time>
      </trkpt>
      <trkpt lat="42.772955987602472" lon="-7.328589968383312">
        <ele>675</ele>
        <time>2018-05-21T08:14:00Z</time>
      </trkpt>
      <trkpt lat="42.772875018417835" lon="-7.328356029465795">
        <ele>673</ele>
        <time>2018-05-21T08:14:06Z</time>
      </trkpt>
      <trkpt lat="42.772809974849224" lon="-7.328151008114219">
        <ele>673</ele>
        <time>2018-05-21T08:14:10Z</time>
      </trkpt>
      <trkpt lat="42.772720959037542" lon="-7.327947998419404">
        <ele>673</ele>
        <time>2018-05-21T08:14:16Z</time>
      </trkpt>
      <trkpt lat="42.772720959037542" lon="-7.327930983155966">
        <ele>673</ele>
        <time>2018-05-21T08:14:16Z</time>
      </trkpt>
      <trkpt lat="42.772703021764755" lon="-7.327879015356302">
        <ele>668</ele>
        <time>2018-05-21T08:14:17Z</time>
      </trkpt>
      <trkpt lat="42.772683994844556" lon="-7.327826963737607">
        <ele>668</ele>
        <time>2018-05-21T08:14:18Z</time>
      </trkpt>
      <trkpt lat="42.77267100289464" lon="-7.327772984281182">
        <ele>668</ele>
        <time>2018-05-21T08:14:20Z</time>
      </trkpt>
      <trkpt lat="42.772662034258246" lon="-7.327721016481519">
        <ele>668</ele>
        <time>2018-05-21T08:14:21Z</time>
      </trkpt>
      <trkpt lat="42.772657005116343" lon="-7.327669970691204">
        <ele>668</ele>
        <time>2018-05-21T08:14:22Z</time>
      </trkpt>
      <trkpt lat="42.772657005116343" lon="-7.327611967921257">
        <ele>668</ele>
        <time>2018-05-21T08:14:23Z</time>
      </trkpt>
      <trkpt lat="42.772657005116343" lon="-7.327547008171678">
        <ele>668</ele>
        <time>2018-05-21T08:14:25Z</time>
      </trkpt>
      <trkpt lat="42.77267100289464" lon="-7.327500991523266">
        <ele>668</ele>
        <time>2018-05-21T08:14:26Z</time>
      </trkpt>
      <trkpt lat="42.772685000672936" lon="-7.327454974874854">
        <ele>668</ele>
        <time>2018-05-21T08:14:27Z</time>
      </trkpt>
      <trkpt lat="42.772712996229529" lon="-7.327407030388713">
        <ele>668</ele>
        <time>2018-05-21T08:14:28Z</time>
      </trkpt>
      <trkpt lat="42.772732023149729" lon="-7.327361013740301">
        <ele>668</ele>
        <time>2018-05-21T08:14:29Z</time>
      </trkpt>
      <trkpt lat="42.772751972079277" lon="-7.327330000698566">
        <ele>668</ele>
        <time>2018-05-21T08:14:30Z</time>
      </trkpt>
      <trkpt lat="42.772776028141379" lon="-7.327288007363677">
        <ele>668</ele>
        <time>2018-05-21T08:14:31Z</time>
      </trkpt>
      <trkpt lat="42.772804023697972" lon="-7.327263029292226">
        <ele>668</ele>
        <time>2018-05-21T08:14:32Z</time>
      </trkpt>
      <trkpt lat="42.772840987890959" lon="-7.327246014028788">
        <ele>668</ele>
        <time>2018-05-21T08:14:34Z</time>
      </trkpt>
      <trkpt lat="42.772878035902977" lon="-7.327239979058504">
        <ele>668</ele>
        <time>2018-05-21T08:14:35Z</time>
      </trkpt>
      <trkpt lat="42.772916005924344" lon="-7.327235033735633">
        <ele>668</ele>
        <time>2018-05-21T08:14:36Z</time>
      </trkpt>
      <trkpt lat="42.772957999259233" lon="-7.327217012643814">
        <ele>672</ele>
        <time>2018-05-21T08:14:37Z</time>
      </trkpt>
      <trkpt lat="42.77299496345222" lon="-7.327211983501911">
        <ele>672</ele>
        <time>2018-05-21T08:14:38Z</time>
      </trkpt>
      <trkpt lat="42.773032011464238" lon="-7.327206032350659">
        <ele>672</ele>
        <time>2018-05-21T08:14:39Z</time>
      </trkpt>
      <trkpt lat="42.773074004799128" lon="-7.327177030965686">
        <ele>672</ele>
        <time>2018-05-21T08:14:41Z</time>
      </trkpt>
      <trkpt lat="42.773110968992114" lon="-7.327153980731964">
        <ele>672</ele>
        <time>2018-05-21T08:14:42Z</time>
      </trkpt>
      <trkpt lat="42.773136030882597" lon="-7.327129002660513">
        <ele>672</ele>
        <time>2018-05-21T08:14:43Z</time>
      </trkpt>
      <trkpt lat="42.773168971762061" lon="-7.327106036245823">
        <ele>672</ele>
        <time>2018-05-21T08:14:44Z</time>
      </trkpt>
      <trkpt lat="42.773206019774079" lon="-7.327089020982385">
        <ele>672</ele>
        <time>2018-05-21T08:14:45Z</time>
      </trkpt>
      <trkpt lat="42.773243989795446" lon="-7.327072005718947">
        <ele>672</ele>
        <time>2018-05-21T08:14:46Z</time>
      </trkpt>
      <trkpt lat="42.773271985352039" lon="-7.327053984627128">
        <ele>666</ele>
        <time>2018-05-21T08:14:47Z</time>
      </trkpt>
      <trkpt lat="42.773309033364058" lon="-7.327036969363689">
        <ele>666</ele>
        <time>2018-05-21T08:14:48Z</time>
      </trkpt>
      <trkpt lat="42.773351026698947" lon="-7.327014002948999">
        <ele>666</ele>
        <time>2018-05-21T08:14:50Z</time>
      </trkpt>
      <trkpt lat="42.773384973406792" lon="-7.327001010999084">
        <ele>666</ele>
        <time>2018-05-21T08:14:51Z</time>
      </trkpt>
      <trkpt lat="42.77342202141881" lon="-7.32697200961411">
        <ele>666</ele>
        <time>2018-05-21T08:14:52Z</time>
      </trkpt>
      <trkpt lat="42.773464014753699" lon="-7.326948959380388">
        <ele>666</ele>
        <time>2018-05-21T08:14:53Z</time>
      </trkpt>
      <trkpt lat="42.773494021967053" lon="-7.326915012672544">
        <ele>666</ele>
        <time>2018-05-21T08:14:54Z</time>
      </trkpt>
      <trkpt lat="42.773522017523646" lon="-7.326891962438822">
        <ele>666</ele>
        <time>2018-05-21T08:14:55Z</time>
      </trkpt>
      <trkpt lat="42.773554958403111" lon="-7.326868996024132">
        <ele>666</ele>
        <time>2018-05-21T08:14:56Z</time>
      </trkpt>
      <trkpt lat="42.77359401807189" lon="-7.326832031831145">
        <ele>666</ele>
        <time>2018-05-21T08:14:58Z</time>
      </trkpt>
      <trkpt lat="42.773626036942005" lon="-7.326791966333985">
        <ele>666</ele>
        <time>2018-05-21T08:14:59Z</time>
      </trkpt>
      <trkpt lat="42.773654032498598" lon="-7.326751984655857">
        <ele>666</ele>
        <time>2018-05-21T08:15:00Z</time>
      </trkpt>
      <trkpt lat="42.773684961721301" lon="-7.326715020462871">
        <ele>666</ele>
        <time>2018-05-21T08:15:02Z</time>
      </trkpt>
      <trkpt lat="42.773710023611784" lon="-7.326675038784742">
        <ele>666</ele>
        <time>2018-05-21T08:15:03Z</time>
      </trkpt>
      <trkpt lat="42.773721003904939" lon="-7.326620975509286">
        <ele>666</ele>
        <time>2018-05-21T08:15:04Z</time>
      </trkpt>
      <trkpt lat="42.773735001683235" lon="-7.326570013538003">
        <ele>666</ele>
        <time>2018-05-21T08:15:05Z</time>
      </trkpt>
      <trkpt lat="42.773744976148009" lon="-7.326512010768056">
        <ele>666</ele>
        <time>2018-05-21T08:15:06Z</time>
      </trkpt>
      <trkpt lat="42.773748999461532" lon="-7.326448978856206">
        <ele>666</ele>
        <time>2018-05-21T08:15:08Z</time>
      </trkpt>
      <trkpt lat="42.773768026381731" lon="-7.326379995793104">
        <ele>667</ele>
        <time>2018-05-21T08:15:09Z</time>
      </trkpt>
      <trkpt lat="42.773782024160028" lon="-7.326333979144692">
        <ele>667</ele>
        <time>2018-05-21T08:15:10Z</time>
      </trkpt>
      <trkpt lat="42.773800967261195" lon="-7.326287962496281">
        <ele>667</ele>
        <time>2018-05-21T08:15:12Z</time>
      </trkpt>
      <trkpt lat="42.773804990574718" lon="-7.326234988868237">
        <ele>662</ele>
        <time>2018-05-21T08:15:13Z</time>
      </trkpt>
      <trkpt lat="42.773804990574718" lon="-7.32617698609829">
        <ele>662</ele>
        <time>2018-05-21T08:15:14Z</time>
      </trkpt>
      <trkpt lat="42.773812031373382" lon="-7.326124012470245">
        <ele>662</ele>
        <time>2018-05-21T08:15:15Z</time>
      </trkpt>
      <trkpt lat="42.773815970867872" lon="-7.326053017750382">
        <ele>662</ele>
        <time>2018-05-21T08:15:17Z</time>
      </trkpt>
      <trkpt lat="42.773821000009775" lon="-7.326000966131687">
        <ele>662</ele>
        <time>2018-05-21T08:15:18Z</time>
      </trkpt>
      <trkpt lat="42.773829968646169" lon="-7.325943969190121">
        <ele>662</ele>
        <time>2018-05-21T08:15:19Z</time>
      </trkpt>
      <trkpt lat="42.773840026929975" lon="-7.325898036360741">
        <ele>662</ele>
        <time>2018-05-21T08:15:20Z</time>
      </trkpt>
      <trkpt lat="42.773843966424465" lon="-7.32583399862051">
        <ele>662</ele>
        <time>2018-05-21T08:15:22Z</time>
      </trkpt>
      <trkpt lat="42.773843966424465" lon="-7.325766021385789">
        <ele>662</ele>
        <time>2018-05-21T08:15:23Z</time>
      </trkpt>
      <trkpt lat="42.773843966424465" lon="-7.325713969767094">
        <ele>662</ele>
        <time>2018-05-21T08:15:24Z</time>
      </trkpt>
      <trkpt lat="42.773851007223129" lon="-7.325659990310669">
        <ele>662</ele>
        <time>2018-05-21T08:15:25Z</time>
      </trkpt>
      <trkpt lat="42.773851007223129" lon="-7.325602993369103">
        <ele>662</ele>
        <time>2018-05-21T08:15:27Z</time>
      </trkpt>
      <trkpt lat="42.773851007223129" lon="-7.325551025569439">
        <ele>662</ele>
        <time>2018-05-21T08:15:28Z</time>
      </trkpt>
      <trkpt lat="42.773851007223129" lon="-7.325494028627873">
        <ele>662</ele>
        <time>2018-05-21T08:15:29Z</time>
      </trkpt>
      <trkpt lat="42.773865005001426" lon="-7.325448011979461">
        <ele>662</ele>
        <time>2018-05-21T08:15:30Z</time>
      </trkpt>
      <trkpt lat="42.773883026093245" lon="-7.325399983674288">
        <ele>658</ele>
        <time>2018-05-21T08:15:31Z</time>
      </trkpt>
      <trkpt lat="42.773899035528302" lon="-7.325352039188147">
        <ele>658</ele>
        <time>2018-05-21T08:15:32Z</time>
      </trkpt>
      <trkpt lat="42.773908004164696" lon="-7.3252940364182">
        <ele>658</ele>
        <time>2018-05-21T08:15:34Z</time>
      </trkpt>
      <trkpt lat="42.773908004164696" lon="-7.325242990627885">
        <ele>658</ele>
        <time>2018-05-21T08:15:35Z</time>
      </trkpt>
      <trkpt lat="42.773899035528302" lon="-7.325191022828221">
        <ele>658</ele>
        <time>2018-05-21T08:15:36Z</time>
      </trkpt>
      <trkpt lat="42.773899035528302" lon="-7.325138971209526">
        <ele>658</ele>
        <time>2018-05-21T08:15:37Z</time>
      </trkpt>
      <trkpt lat="42.773885037750006" lon="-7.325091026723385">
        <ele>658</ele>
        <time>2018-05-21T08:15:38Z</time>
      </trkpt>
      <trkpt lat="42.773866010829806" lon="-7.325003016740084">
        <ele>658</ele>
        <time>2018-05-21T08:15:40Z</time>
      </trkpt>
      <trkpt lat="42.773856958374381" lon="-7.324939984828234">
        <ele>658</ele>
        <time>2018-05-21T08:15:42Z</time>
      </trkpt>
      <trkpt lat="42.773838015273213" lon="-7.324864966794848">
        <ele>658</ele>
        <time>2018-05-21T08:15:43Z</time>
      </trkpt>
      <trkpt lat="42.773817982524633" lon="-7.324805958196521">
        <ele>658</ele>
        <time>2018-05-21T08:15:45Z</time>
      </trkpt>
      <trkpt lat="42.773803984746337" lon="-7.324743010103703">
        <ele>658</ele>
        <time>2018-05-21T08:15:46Z</time>
      </trkpt>
      <trkpt lat="42.773785041645169" lon="-7.324674027040601">
        <ele>658</ele>
        <time>2018-05-21T08:15:48Z</time>
      </trkpt>
      <trkpt lat="42.773775989189744" lon="-7.324621975421906">
        <ele>658</ele>
        <time>2018-05-21T08:15:49Z</time>
      </trkpt>
      <trkpt lat="42.773756962269545" lon="-7.324533965438604">
        <ele>657</ele>
        <time>2018-05-21T08:15:51Z</time>
      </trkpt>
      <trkpt lat="42.773742964491248" lon="-7.324474034830928">
        <ele>657</ele>
        <time>2018-05-21T08:15:52Z</time>
      </trkpt>
      <trkpt lat="42.773711029440165" lon="-7.324296003207564">
        <ele>657</ele>
        <time>2018-05-21T08:15:56Z</time>
      </trkpt>
      <trkpt lat="42.773650009185076" lon="-7.3240299616009">
        <ele>657</ele>
        <time>2018-05-21T08:16:02Z</time>
      </trkpt>
      <trkpt lat="42.773612961173058" lon="-7.323810020461679">
        <ele>657</ele>
        <time>2018-05-21T08:16:07Z</time>
      </trkpt>
      <trkpt lat="42.773580020293593" lon="-7.323634000495076">
        <ele>661</ele>
        <time>2018-05-21T08:16:11Z</time>
      </trkpt>
      <trkpt lat="42.773524029180408" lon="-7.323441971093416">
        <ele>661</ele>
        <time>2018-05-21T08:16:16Z</time>
      </trkpt>
      <trkpt lat="42.773464014753699" lon="-7.323244996368885">
        <ele>661</ele>
        <time>2018-05-21T08:16:20Z</time>
      </trkpt>
      <trkpt lat="42.773411963135004" lon="-7.323088003322482">
        <ele>661</ele>
        <time>2018-05-21T08:16:24Z</time>
      </trkpt>
      <trkpt lat="42.773355972021818" lon="-7.322965040802956">
        <ele>661</ele>
        <time>2018-05-21T08:16:27Z</time>
      </trkpt>
      <trkpt lat="42.773234015330672" lon="-7.322725988924503">
        <ele>665</ele>
        <time>2018-05-21T08:16:33Z</time>
      </trkpt>
      <trkpt lat="42.773178024217486" lon="-7.322599003091455">
        <ele>665</ele>
        <time>2018-05-21T08:16:37Z</time>
      </trkpt>
      <trkpt lat="42.773178024217486" lon="-7.32259196229279">
        <ele>665</ele>
        <time>2018-05-21T08:16:37Z</time>
      </trkpt>
      <trkpt lat="42.773131001740694" lon="-7.322488026693463">
        <ele>665</ele>
        <time>2018-05-21T08:16:39Z</time>
      </trkpt>
      <trkpt lat="42.773125972598791" lon="-7.322488026693463">
        <ele>665</ele>
        <time>2018-05-21T08:16:40Z</time>
      </trkpt>
      <trkpt lat="42.773061012849212" lon="-7.322338996455073">
        <ele>665</ele>
        <time>2018-05-21T08:16:43Z</time>
      </trkpt>
      <trkpt lat="42.773022036999464" lon="-7.322217961773276">
        <ele>665</ele>
        <time>2018-05-21T08:16:46Z</time>
      </trkpt>
      <trkpt lat="42.773004015907645" lon="-7.322119977325201">
        <ele>665</ele>
        <time>2018-05-21T08:16:48Z</time>
      </trkpt>
      <trkpt lat="42.773004015907645" lon="-7.322071027010679">
        <ele>665</ele>
        <time>2018-05-21T08:16:49Z</time>
      </trkpt>
      <trkpt lat="42.772976020351052" lon="-7.321913028135896">
        <ele>666</ele>
        <time>2018-05-21T08:16:53Z</time>
      </trkpt>
      <trkpt lat="42.772956993430853" lon="-7.321710018441081">
        <ele>666</ele>
        <time>2018-05-21T08:16:57Z</time>
      </trkpt>
      <trkpt lat="42.772926986217499" lon="-7.321600969880819">
        <ele>658</ele>
        <time>2018-05-21T08:17:00Z</time>
      </trkpt>
      <trkpt lat="42.772918017581105" lon="-7.321564005687833">
        <ele>658</ele>
        <time>2018-05-21T08:17:01Z</time>
      </trkpt>
      <trkpt lat="42.772904019802809" lon="-7.321500973775983">
        <ele>658</ele>
        <time>2018-05-21T08:17:02Z</time>
      </trkpt>
      <trkpt lat="42.772866971790791" lon="-7.321402989327908">
        <ele>658</ele>
        <time>2018-05-21T08:17:05Z</time>
      </trkpt>
      <trkpt lat="42.772838976234198" lon="-7.321363007649779">
        <ele>658</ele>
        <time>2018-05-21T08:17:06Z</time>
      </trkpt>
      <trkpt lat="42.772807041183114" lon="-7.321338029578328">
        <ele>658</ele>
        <time>2018-05-21T08:17:07Z</time>
      </trkpt>
      <trkpt lat="42.772775022312999" lon="-7.321314979344606">
        <ele>658</ele>
        <time>2018-05-21T08:17:08Z</time>
      </trkpt>
      <trkpt lat="42.77273403480649" lon="-7.321283966302872">
        <ele>658</ele>
        <time>2018-05-21T08:17:09Z</time>
      </trkpt>
      <trkpt lat="42.77269396930933" lon="-7.321248007938266">
        <ele>658</ele>
        <time>2018-05-21T08:17:11Z</time>
      </trkpt>
      <trkpt lat="42.772651975974441" lon="-7.321212971583009">
        <ele>658</ele>
        <time>2018-05-21T08:17:12Z</time>
      </trkpt>
      <trkpt lat="42.772609982639551" lon="-7.321191010996699">
        <ele>658</ele>
        <time>2018-05-21T08:17:14Z</time>
      </trkpt>
      <trkpt lat="42.772575030103326" lon="-7.321167038753629">
        <ele>663</ele>
        <time>2018-05-21T08:17:15Z</time>
      </trkpt>
      <trkpt lat="42.772533036768436" lon="-7.321138959378004">
        <ele>663</ele>
        <time>2018-05-21T08:17:16Z</time>
      </trkpt>
      <trkpt lat="42.772495988756418" lon="-7.321093026548624">
        <ele>663</ele>
        <time>2018-05-21T08:17:18Z</time>
      </trkpt>
      <trkpt lat="42.772453995421529" lon="-7.321057990193367">
        <ele>663</ele>
        <time>2018-05-21T08:17:19Z</time>
      </trkpt>
      <trkpt lat="42.772414013743401" lon="-7.321040974929929">
        <ele>663</ele>
        <time>2018-05-21T08:17:20Z</time>
      </trkpt>
      <trkpt lat="42.772389035671949" lon="-7.320998981595039">
        <ele>663</ele>
        <time>2018-05-21T08:17:21Z</time>
      </trkpt>
      <trkpt lat="42.772361040115356" lon="-7.320958999916911">
        <ele>663</ele>
        <time>2018-05-21T08:17:23Z</time>
      </trkpt>
      <trkpt lat="42.772336984053254" lon="-7.320919018238783">
        <ele>663</ele>
        <time>2018-05-21T08:17:24Z</time>
      </trkpt>
      <trkpt lat="42.772307982668281" lon="-7.320865038782358">
        <ele>663</ele>
        <time>2018-05-21T08:17:25Z</time>
      </trkpt>
      <trkpt lat="42.772289039567113" lon="-7.320824973285198">
        <ele>663</ele>
        <time>2018-05-21T08:17:26Z</time>
      </trkpt>
      <trkpt lat="42.772265989333391" lon="-7.320790020748973">
        <ele>663</ele>
        <time>2018-05-21T08:17:27Z</time>
      </trkpt>
      <trkpt lat="42.772243022918701" lon="-7.320750039070845">
        <ele>663</ele>
        <time>2018-05-21T08:17:28Z</time>
      </trkpt>
      <trkpt lat="42.772223995998502" lon="-7.320697987452149">
        <ele>663</ele>
        <time>2018-05-21T08:17:30Z</time>
      </trkpt>
      <trkpt lat="42.772204969078302" lon="-7.32063302770257">
        <ele>663</ele>
        <time>2018-05-21T08:17:31Z</time>
      </trkpt>
      <trkpt lat="42.772190971300006" lon="-7.320580976083875">
        <ele>663</ele>
        <time>2018-05-21T08:17:32Z</time>
      </trkpt>
      <trkpt lat="42.772176973521709" lon="-7.320534959435463">
        <ele>663</ele>
        <time>2018-05-21T08:17:33Z</time>
      </trkpt>
      <trkpt lat="42.772162975743413" lon="-7.32048399746418">
        <ele>663</ele>
        <time>2018-05-21T08:17:35Z</time>
      </trkpt>
      <trkpt lat="42.772162975743413" lon="-7.320408979430795">
        <ele>663</ele>
        <time>2018-05-21T08:17:36Z</time>
      </trkpt>
      <trkpt lat="42.772168004885316" lon="-7.320276964455843">
        <ele>662</ele>
        <time>2018-05-21T08:17:39Z</time>
      </trkpt>
      <trkpt lat="42.772190971300006" lon="-7.320236982777715">
        <ele>662</ele>
        <time>2018-05-21T08:17:40Z</time>
      </trkpt>
      <trkpt lat="42.772229025140405" lon="-7.320197001099587">
        <ele>662</ele>
        <time>2018-05-21T08:17:42Z</time>
      </trkpt>
      <trkpt lat="42.772265989333391" lon="-7.320167999714613">
        <ele>662</ele>
        <time>2018-05-21T08:17:43Z</time>
      </trkpt>
      <trkpt lat="42.772313011810184" lon="-7.320132963359356">
        <ele>662</ele>
        <time>2018-05-21T08:17:44Z</time>
      </trkpt>
      <trkpt lat="42.772345030680299" lon="-7.320109996944666">
        <ele>662</ele>
        <time>2018-05-21T08:17:46Z</time>
      </trkpt>
      <trkpt lat="42.772387024015188" lon="-7.320104967802763">
        <ele>662</ele>
        <time>2018-05-21T08:17:47Z</time>
      </trkpt>
      <trkpt lat="42.772419964894652" lon="-7.32007596641779">
        <ele>662</ele>
        <time>2018-05-21T08:17:48Z</time>
      </trkpt>
      <trkpt lat="42.772447960451245" lon="-7.320035984739661">
        <ele>662</ele>
        <time>2018-05-21T08:17:49Z</time>
      </trkpt>
      <trkpt lat="42.772471010684967" lon="-7.319996003061533">
        <ele>662</ele>
        <time>2018-05-21T08:17:50Z</time>
      </trkpt>
      <trkpt lat="42.772501017898321" lon="-7.319977981969714">
        <ele>662</ele>
        <time>2018-05-21T08:17:51Z</time>
      </trkpt>
      <trkpt lat="42.772547034546733" lon="-7.319898018613458">
        <ele>662</ele>
        <time>2018-05-21T08:17:53Z</time>
      </trkpt>
      <trkpt lat="42.772557009011507" lon="-7.319852001965046">
        <ele>662</ele>
        <time>2018-05-21T08:17:54Z</time>
      </trkpt>
      <trkpt lat="42.772579975426197" lon="-7.319800034165382">
        <ele>662</ele>
        <time>2018-05-21T08:17:56Z</time>
      </trkpt>
      <trkpt lat="42.772589027881622" lon="-7.319748988375068">
        <ele>662</ele>
        <time>2018-05-21T08:17:57Z</time>
      </trkpt>
      <trkpt lat="42.772589027881622" lon="-7.319663995876908">
        <ele>662</ele>
        <time>2018-05-21T08:17:59Z</time>
      </trkpt>
      <trkpt lat="42.772589027881622" lon="-7.319595012813807">
        <ele>662</ele>
        <time>2018-05-21T08:18:00Z</time>
      </trkpt>
      <trkpt lat="42.772589027881622" lon="-7.319542961195111">
        <ele>662</ele>
        <time>2018-05-21T08:18:01Z</time>
      </trkpt>
      <trkpt lat="42.772579975426197" lon="-7.319493005052209">
        <ele>661</ele>
        <time>2018-05-21T08:18:03Z</time>
      </trkpt>
      <trkpt lat="42.772579975426197" lon="-7.319407006725669">
        <ele>661</ele>
        <time>2018-05-21T08:18:04Z</time>
      </trkpt>
      <trkpt lat="42.772575030103326" lon="-7.319350009784102">
        <ele>661</ele>
        <time>2018-05-21T08:18:06Z</time>
      </trkpt>
      <trkpt lat="42.772575030103326" lon="-7.319265017285943">
        <ele>661</ele>
        <time>2018-05-21T08:18:07Z</time>
      </trkpt>
      <trkpt lat="42.772575030103326" lon="-7.319213971495628">
        <ele>661</ele>
        <time>2018-05-21T08:18:09Z</time>
      </trkpt>
      <trkpt lat="42.772575030103326" lon="-7.319162003695965">
        <ele>661</ele>
        <time>2018-05-21T08:18:10Z</time>
      </trkpt>
      <trkpt lat="42.772575030103326" lon="-7.319110035896301">
        <ele>661</ele>
        <time>2018-05-21T08:18:11Z</time>
      </trkpt>
      <trkpt lat="42.772575030103326" lon="-7.319039041176438">
        <ele>661</ele>
        <time>2018-05-21T08:18:12Z</time>
      </trkpt>
      <trkpt lat="42.772575030103326" lon="-7.318987995386124">
        <ele>661</ele>
        <time>2018-05-21T08:18:13Z</time>
      </trkpt>
      <trkpt lat="42.772575030103326" lon="-7.318919012323022">
        <ele>661</ele>
        <time>2018-05-21T08:18:15Z</time>
      </trkpt>
      <trkpt lat="42.772575030103326" lon="-7.318855980411172">
        <ele>661</ele>
        <time>2018-05-21T08:18:16Z</time>
      </trkpt>
      <trkpt lat="42.772575030103326" lon="-7.318797977641225">
        <ele>661</ele>
        <time>2018-05-21T08:18:18Z</time>
      </trkpt>
      <trkpt lat="42.772561032325029" lon="-7.318711979314685">
        <ele>661</ele>
        <time>2018-05-21T08:18:19Z</time>
      </trkpt>
      <trkpt lat="42.772551979869604" lon="-7.318660011515021">
        <ele>669</ele>
        <time>2018-05-21T08:18:21Z</time>
      </trkpt>
      <trkpt lat="42.772533036768436" lon="-7.318596979603171">
        <ele>669</ele>
        <time>2018-05-21T08:18:22Z</time>
      </trkpt>
      <trkpt lat="42.772515015676618" lon="-7.31850503012538">
        <ele>669</ele>
        <time>2018-05-21T08:18:24Z</time>
      </trkpt>
      <trkpt lat="42.772481990978122" lon="-7.318477034568787">
        <ele>669</ele>
        <time>2018-05-21T08:18:25Z</time>
      </trkpt>
      <trkpt lat="42.772439997643232" lon="-7.318435963243246">
        <ele>669</ele>
        <time>2018-05-21T08:18:27Z</time>
      </trkpt>
      <trkpt lat="42.772412002086639" lon="-7.318412996828556">
        <ele>669</ele>
        <time>2018-05-21T08:18:28Z</time>
      </trkpt>
      <trkpt lat="42.77239297516644" lon="-7.318373015150428">
        <ele>669</ele>
        <time>2018-05-21T08:18:29Z</time>
      </trkpt>
      <trkpt lat="42.772363973781466" lon="-7.318353988230228">
        <ele>669</ele>
        <time>2018-05-21T08:18:30Z</time>
      </trkpt>
      <trkpt lat="42.772321980446577" lon="-7.318342002108693">
        <ele>669</ele>
        <time>2018-05-21T08:18:31Z</time>
      </trkpt>
      <trkpt lat="42.772275041788816" lon="-7.318342002108693">
        <ele>669</ele>
        <time>2018-05-21T08:18:32Z</time>
      </trkpt>
      <trkpt lat="42.772223995998502" lon="-7.31833697296679">
        <ele>669</ele>
        <time>2018-05-21T08:18:34Z</time>
      </trkpt>
      <trkpt lat="42.772183008491993" lon="-7.318324986845255">
        <ele>669</ele>
        <time>2018-05-21T08:18:35Z</time>
      </trkpt>
      <trkpt lat="42.772143026813865" lon="-7.318318029865623">
        <ele>669</ele>
        <time>2018-05-21T08:18:36Z</time>
      </trkpt>
      <trkpt lat="42.772096004337072" lon="-7.318318029865623">
        <ele>667</ele>
        <time>2018-05-21T08:18:38Z</time>
      </trkpt>
      <trkpt lat="42.77204898186028" lon="-7.318318029865623">
        <ele>667</ele>
        <time>2018-05-21T08:18:39Z</time>
      </trkpt>
      <trkpt lat="42.772007994353771" lon="-7.318318029865623">
        <ele>667</ele>
        <time>2018-05-21T08:18:40Z</time>
      </trkpt>
      <trkpt lat="42.771958960220218" lon="-7.318318029865623">
        <ele>667</ele>
        <time>2018-05-21T08:18:42Z</time>
      </trkpt>
      <trkpt lat="42.771916966885328" lon="-7.318311994895339">
        <ele>667</ele>
        <time>2018-05-21T08:18:43Z</time>
      </trkpt>
      <trkpt lat="42.771874973550439" lon="-7.318305959925056">
        <ele>667</ele>
        <time>2018-05-21T08:18:44Z</time>
      </trkpt>
      <trkpt lat="42.771838009357452" lon="-7.318276958540082">
        <ele>667</ele>
        <time>2018-05-21T08:18:46Z</time>
      </trkpt>
      <trkpt lat="42.771808002144098" lon="-7.318241000175476">
        <ele>667</ele>
        <time>2018-05-21T08:18:47Z</time>
      </trkpt>
      <trkpt lat="42.771782018244267" lon="-7.31820403598249">
        <ele>667</ele>
        <time>2018-05-21T08:18:48Z</time>
      </trkpt>
      <trkpt lat="42.771754022687674" lon="-7.318152990192175">
        <ele>667</ele>
        <time>2018-05-21T08:18:49Z</time>
      </trkpt>
      <trkpt lat="42.771731978282332" lon="-7.318112002685666">
        <ele>667</ele>
        <time>2018-05-21T08:18:50Z</time>
      </trkpt>
      <trkpt lat="42.771675987169147" lon="-7.317989962175489">
        <ele>667</ele>
        <time>2018-05-21T08:18:54Z</time>
      </trkpt>
      <trkpt lat="42.771617984399199" lon="-7.317773038521409">
        <ele>674</ele>
        <time>2018-05-21T08:18:59Z</time>
      </trkpt>
      <trkpt lat="42.771513964980841" lon="-7.31749601662159">
        <ele>674</ele>
        <time>2018-05-21T08:19:05Z</time>
      </trkpt>
      <trkpt lat="42.771436013281345" lon="-7.31721798889339">
        <ele>674</ele>
        <time>2018-05-21T08:19:12Z</time>
      </trkpt>
      <trkpt lat="42.771368036046624" lon="-7.316930992528796">
        <ele>680</ele>
        <time>2018-05-21T08:19:18Z</time>
      </trkpt>
      <trkpt lat="42.771306009963155" lon="-7.316623963415623">
        <ele>680</ele>
        <time>2018-05-21T08:19:25Z</time>
      </trkpt>
      <trkpt lat="42.771226968616247" lon="-7.316335961222649">
        <ele>674</ele>
        <time>2018-05-21T08:19:32Z</time>
      </trkpt>
      <trkpt lat="42.771212970837951" lon="-7.316284999251366">
        <ele>674</ele>
        <time>2018-05-21T08:19:33Z</time>
      </trkpt>
      <trkpt lat="42.771194027736783" lon="-7.316233031451702">
        <ele>673</ele>
        <time>2018-05-21T08:19:34Z</time>
      </trkpt>
      <trkpt lat="42.771190004423261" lon="-7.316151978448033">
        <ele>673</ele>
        <time>2018-05-21T08:19:36Z</time>
      </trkpt>
      <trkpt lat="42.771190004423261" lon="-7.316094981506467">
        <ele>673</ele>
        <time>2018-05-21T08:19:37Z</time>
      </trkpt>
      <trkpt lat="42.771194027736783" lon="-7.316048964858055">
        <ele>673</ele>
        <time>2018-05-21T08:19:38Z</time>
      </trkpt>
      <trkpt lat="42.771198973059654" lon="-7.315996997058392">
        <ele>673</ele>
        <time>2018-05-21T08:19:40Z</time>
      </trkpt>
      <trkpt lat="42.771217999979854" lon="-7.31595098040998">
        <ele>673</ele>
        <time>2018-05-21T08:19:41Z</time>
      </trkpt>
      <trkpt lat="42.771240966394544" lon="-7.315893983468413">
        <ele>673</ele>
        <time>2018-05-21T08:19:42Z</time>
      </trkpt>
      <trkpt lat="42.771266028285027" lon="-7.315858025103807">
        <ele>673</ele>
        <time>2018-05-21T08:19:43Z</time>
      </trkpt>
      <trkpt lat="42.77127499692142" lon="-7.315805973485112">
        <ele>673</ele>
        <time>2018-05-21T08:19:44Z</time>
      </trkpt>
      <trkpt lat="42.771294023841619" lon="-7.315765991806984">
        <ele>678</ele>
        <time>2018-05-21T08:19:45Z</time>
      </trkpt>
      <trkpt lat="42.771322019398212" lon="-7.31571402400732">
        <ele>678</ele>
        <time>2018-05-21T08:19:47Z</time>
      </trkpt>
      <trkpt lat="42.771344985812902" lon="-7.31567395851016">
        <ele>678</ele>
        <time>2018-05-21T08:19:48Z</time>
      </trkpt>
      <trkpt lat="42.771354960277677" lon="-7.31562802568078">
        <ele>678</ele>
        <time>2018-05-21T08:19:49Z</time>
      </trkpt>
      <trkpt lat="42.771369041875005" lon="-7.315562982112169">
        <ele>678</ele>
        <time>2018-05-21T08:19:50Z</time>
      </trkpt>
      <trkpt lat="42.771372981369495" lon="-7.315511014312506">
        <ele>678</ele>
        <time>2018-05-21T08:19:52Z</time>
      </trkpt>
      <trkpt lat="42.771397037431598" lon="-7.315458962693811">
        <ele>678</ele>
        <time>2018-05-21T08:19:53Z</time>
      </trkpt>
      <trkpt lat="42.771400976926088" lon="-7.315408000722528">
        <ele>676</ele>
        <time>2018-05-21T08:19:54Z</time>
      </trkpt>
      <trkpt lat="42.771411035209894" lon="-7.315343962982297">
        <ele>676</ele>
        <time>2018-05-21T08:19:55Z</time>
      </trkpt>
      <trkpt lat="42.771425032988191" lon="-7.315294006839395">
        <ele>676</ele>
        <time>2018-05-21T08:19:57Z</time>
      </trkpt>
      <trkpt lat="42.771425032988191" lon="-7.31524296104908">
        <ele>676</ele>
        <time>2018-05-21T08:19:58Z</time>
      </trkpt>
      <trkpt lat="42.771425032988191" lon="-7.315190993249416">
        <ele>676</ele>
        <time>2018-05-21T08:19:59Z</time>
      </trkpt>
      <trkpt lat="42.771425032988191" lon="-7.315122010186315">
        <ele>676</ele>
        <time>2018-05-21T08:20:00Z</time>
      </trkpt>
      <trkpt lat="42.771411035209894" lon="-7.315069958567619">
        <ele>676</ele>
        <time>2018-05-21T08:20:01Z</time>
      </trkpt>
      <trkpt lat="42.771400976926088" lon="-7.315000975504518">
        <ele>676</ele>
        <time>2018-05-21T08:20:03Z</time>
      </trkpt>
      <trkpt lat="42.771386979147792" lon="-7.314955964684486">
        <ele>676</ele>
        <time>2018-05-21T08:20:04Z</time>
      </trkpt>
      <trkpt lat="42.771372981369495" lon="-7.314910031855106">
        <ele>676</ele>
        <time>2018-05-21T08:20:05Z</time>
      </trkpt>
      <trkpt lat="42.771354960277677" lon="-7.314840964972973">
        <ele>676</ele>
        <time>2018-05-21T08:20:07Z</time>
      </trkpt>
      <trkpt lat="42.771326964721084" lon="-7.314759995788336">
        <ele>676</ele>
        <time>2018-05-21T08:20:09Z</time>
      </trkpt>
      <trkpt lat="42.771299974992871" lon="-7.314711967483163">
        <ele>676</ele>
        <time>2018-05-21T08:20:10Z</time>
      </trkpt>
      <trkpt lat="42.771222023293376" lon="-7.314611971378326">
        <ele>666</ele>
        <time>2018-05-21T08:20:13Z</time>
      </trkpt>
      <trkpt lat="42.771112974733114" lon="-7.314497977495194">
        <ele>666</ele>
        <time>2018-05-21T08:20:17Z</time>
      </trkpt>
      <trkpt lat="42.771099982783198" lon="-7.314490014687181">
        <ele>666</ele>
        <time>2018-05-21T08:20:18Z</time>
      </trkpt>
      <trkpt lat="42.771029993891716" lon="-7.314432011917234">
        <ele>661</ele>
        <time>2018-05-21T08:20:20Z</time>
      </trkpt>
      <trkpt lat="42.771021025255322" lon="-7.314421031624079">
        <ele>661</ele>
        <time>2018-05-21T08:20:21Z</time>
      </trkpt>
      <trkpt lat="42.77099302969873" lon="-7.314379960298538">
        <ele>661</ele>
        <time>2018-05-21T08:20:22Z</time>
      </trkpt>
      <trkpt lat="42.770965034142137" lon="-7.314351964741945">
        <ele>661</ele>
        <time>2018-05-21T08:20:23Z</time>
      </trkpt>
      <trkpt lat="42.770946007221937" lon="-7.314311983063817">
        <ele>661</ele>
        <time>2018-05-21T08:20:24Z</time>
      </trkpt>
      <trkpt lat="42.770923040807247" lon="-7.314265966415405">
        <ele>661</ele>
        <time>2018-05-21T08:20:25Z</time>
      </trkpt>
      <trkpt lat="42.770899990573525" lon="-7.314224978908896">
        <ele>661</ele>
        <time>2018-05-21T08:20:26Z</time>
      </trkpt>
      <trkpt lat="42.770885992795229" lon="-7.314178962260485">
        <ele>661</ele>
        <time>2018-05-21T08:20:27Z</time>
      </trkpt>
      <trkpt lat="42.770876018330455" lon="-7.314128000289202">
        <ele>661</ele>
        <time>2018-05-21T08:20:28Z</time>
      </trkpt>
      <trkpt lat="42.770863026380539" lon="-7.314088018611074">
        <ele>661</ele>
        <time>2018-05-21T08:20:29Z</time>
      </trkpt>
      <trkpt lat="42.770841987803578" lon="-7.314032027497888">
        <ele>661</ele>
        <time>2018-05-21T08:20:31Z</time>
      </trkpt>
      <trkpt lat="42.770837964490056" lon="-7.313979975879192">
        <ele>661</ele>
        <time>2018-05-21T08:20:32Z</time>
      </trkpt>
      <trkpt lat="42.770833019167185" lon="-7.313922978937626">
        <ele>661</ele>
        <time>2018-05-21T08:20:33Z</time>
      </trkpt>
      <trkpt lat="42.770833019167185" lon="-7.313871011137962">
        <ele>661</ele>
        <time>2018-05-21T08:20:34Z</time>
      </trkpt>
      <trkpt lat="42.770833019167185" lon="-7.313814014196396">
        <ele>661</ele>
        <time>2018-05-21T08:20:35Z</time>
      </trkpt>
      <trkpt lat="42.770849028602242" lon="-7.313763974234462">
        <ele>661</ele>
        <time>2018-05-21T08:20:37Z</time>
      </trkpt>
      <trkpt lat="42.770876018330455" lon="-7.313692979514599">
        <ele>661</ele>
        <time>2018-05-21T08:20:38Z</time>
      </trkpt>
      <trkpt lat="42.770882975310087" lon="-7.313692979514599">
        <ele>661</ele>
        <time>2018-05-21T08:20:39Z</time>
      </trkpt>
      <trkpt lat="42.770914994180202" lon="-7.313616033643484">
        <ele>657</ele>
        <time>2018-05-21T08:20:41Z</time>
      </trkpt>
      <trkpt lat="42.770939972251654" lon="-7.313536992296577">
        <ele>657</ele>
        <time>2018-05-21T08:20:42Z</time>
      </trkpt>
      <trkpt lat="42.770983977243304" lon="-7.313401037827134">
        <ele>657</ele>
        <time>2018-05-21T08:20:46Z</time>
      </trkpt>
      <trkpt lat="42.771025970578194" lon="-7.313256030902267">
        <ele>657</ele>
        <time>2018-05-21T08:20:49Z</time>
      </trkpt>
      <trkpt lat="42.771062012761831" lon="-7.313055032864213">
        <ele>657</ele>
        <time>2018-05-21T08:20:53Z</time>
      </trkpt>
      <trkpt lat="42.771081039682031" lon="-7.31290097348392">
        <ele>657</ele>
        <time>2018-05-21T08:20:57Z</time>
      </trkpt>
      <trkpt lat="42.771090008318424" lon="-7.31274800375104">
        <ele>655</ele>
        <time>2018-05-21T08:21:00Z</time>
      </trkpt>
      <trkpt lat="42.771099982783198" lon="-7.312645995989442">
        <ele>655</ele>
        <time>2018-05-21T08:21:02Z</time>
      </trkpt>
      <trkpt lat="42.771130995824933" lon="-7.312594028189778">
        <ele>655</ele>
        <time>2018-05-21T08:21:04Z</time>
      </trkpt>
      <trkpt lat="42.771186986938119" lon="-7.312523033469915">
        <ele>655</ele>
        <time>2018-05-21T08:21:06Z</time>
      </trkpt>
      <trkpt lat="42.77127399109304" lon="-7.312428988516331">
        <ele>655</ele>
        <time>2018-05-21T08:21:09Z</time>
      </trkpt>
      <trkpt lat="42.771366024389863" lon="-7.312293034046888">
        <ele>661</ele>
        <time>2018-05-21T08:21:13Z</time>
      </trkpt>
      <trkpt lat="42.771471971645951" lon="-7.312188008800149">
        <ele>661</ele>
        <time>2018-05-21T08:21:17Z</time>
      </trkpt>
      <trkpt lat="42.771495021879673" lon="-7.312156995758414">
        <ele>661</ele>
        <time>2018-05-21T08:21:18Z</time>
      </trkpt>
      <trkpt lat="42.771523017436266" lon="-7.312117014080286">
        <ele>661</ele>
        <time>2018-05-21T08:21:19Z</time>
      </trkpt>
      <trkpt lat="42.77155302464962" lon="-7.312079966068268">
        <ele>661</ele>
        <time>2018-05-21T08:21:21Z</time>
      </trkpt>
      <trkpt lat="42.771578002721071" lon="-7.312035961076617">
        <ele>661</ele>
        <time>2018-05-21T08:21:22Z</time>
      </trkpt>
      <trkpt lat="42.771598035469651" lon="-7.311992039903998">
        <ele>661</ele>
        <time>2018-05-21T08:21:23Z</time>
      </trkpt>
      <trkpt lat="42.771607004106045" lon="-7.311922973021865">
        <ele>663</ele>
        <time>2018-05-21T08:21:25Z</time>
      </trkpt>
      <trkpt lat="42.771616978570819" lon="-7.311871005222201">
        <ele>663</ele>
        <time>2018-05-21T08:21:26Z</time>
      </trkpt>
      <trkpt lat="42.771630976349115" lon="-7.311831023544073">
        <ele>663</ele>
        <time>2018-05-21T08:21:27Z</time>
      </trkpt>
      <trkpt lat="42.771634999662638" lon="-7.311778971925378">
        <ele>663</ele>
        <time>2018-05-21T08:21:28Z</time>
      </trkpt>
      <trkpt lat="42.771634999662638" lon="-7.31171996332705">
        <ele>663</ele>
        <time>2018-05-21T08:21:29Z</time>
      </trkpt>
      <trkpt lat="42.771634999662638" lon="-7.311667995527387">
        <ele>663</ele>
        <time>2018-05-21T08:21:30Z</time>
      </trkpt>
      <trkpt lat="42.771624019369483" lon="-7.31159096583724">
        <ele>663</ele>
        <time>2018-05-21T08:21:32Z</time>
      </trkpt>
      <trkpt lat="42.771597029641271" lon="-7.311550984159112">
        <ele>663</ele>
        <time>2018-05-21T08:21:33Z</time>
      </trkpt>
      <trkpt lat="42.771572973579168" lon="-7.311508990824223">
        <ele>663</ele>
        <time>2018-05-21T08:21:34Z</time>
      </trkpt>
      <trkpt lat="42.771544978022575" lon="-7.311474038287997">
        <ele>663</ele>
        <time>2018-05-21T08:21:35Z</time>
      </trkpt>
      <trkpt lat="42.771513964980841" lon="-7.311441013589501">
        <ele>663</ele>
        <time>2018-05-21T08:21:37Z</time>
      </trkpt>
      <trkpt lat="42.771488986909389" lon="-7.311413018032908">
        <ele>663</ele>
        <time>2018-05-21T08:21:38Z</time>
      </trkpt>
      <trkpt lat="42.771452022716403" lon="-7.311384016647935">
        <ele>663</ele>
        <time>2018-05-21T08:21:39Z</time>
      </trkpt>
      <trkpt lat="42.771413968876004" lon="-7.311360966414213">
        <ele>663</ele>
        <time>2018-05-21T08:21:40Z</time>
      </trkpt>
      <trkpt lat="42.771377004683018" lon="-7.311355015262961">
        <ele>663</ele>
        <time>2018-05-21T08:21:41Z</time>
      </trkpt>
      <trkpt lat="42.77134096249938" lon="-7.311337999999523">
        <ele>663</ele>
        <time>2018-05-21T08:21:42Z</time>
      </trkpt>
      <trkpt lat="42.771303998306394" lon="-7.311320984736085">
        <ele>663</ele>
        <time>2018-05-21T08:21:43Z</time>
      </trkpt>
      <trkpt lat="42.771268039941788" lon="-7.311303969472647">
        <ele>669</ele>
        <time>2018-05-21T08:21:45Z</time>
      </trkpt>
      <trkpt lat="42.771296035498381" lon="-7.31128997169435">
        <ele>663</ele>
        <time>2018-05-21T08:21:45Z</time>
      </trkpt>
      <trkpt lat="42.771312966942787" lon="-7.311252001672983">
        <ele>663</ele>
        <time>2018-05-21T08:21:46Z</time>
      </trkpt>
      <trkpt lat="42.77133802883327" lon="-7.311220988631249">
        <ele>663</ele>
        <time>2018-05-21T08:21:47Z</time>
      </trkpt>
      <trkpt lat="42.771366024389863" lon="-7.311201961711049">
        <ele>663</ele>
        <time>2018-05-21T08:21:48Z</time>
      </trkpt>
      <trkpt lat="42.771393014118075" lon="-7.311171032488346">
        <ele>663</ele>
        <time>2018-05-21T08:21:49Z</time>
      </trkpt>
      <trkpt lat="42.771426038816571" lon="-7.311142031103373">
        <ele>682</ele>
        <time>2018-05-21T08:21:51Z</time>
      </trkpt>
      <trkpt lat="42.771463003009558" lon="-7.311108000576496">
        <ele>682</ele>
        <time>2018-05-21T08:21:52Z</time>
      </trkpt>
      <trkpt lat="42.771499967202544" lon="-7.311078999191523">
        <ele>682</ele>
        <time>2018-05-21T08:21:53Z</time>
      </trkpt>
      <trkpt lat="42.771541960537434" lon="-7.311044968664646">
        <ele>682</ele>
        <time>2018-05-21T08:21:55Z</time>
      </trkpt>
      <trkpt lat="42.771593006327748" lon="-7.311010016128421">
        <ele>682</ele>
        <time>2018-05-21T08:21:56Z</time>
      </trkpt>
      <trkpt lat="42.771634999662638" lon="-7.310986965894699">
        <ele>682</ele>
        <time>2018-05-21T08:21:58Z</time>
      </trkpt>
      <trkpt lat="42.771673975512385" lon="-7.310981014743447">
        <ele>682</ele>
        <time>2018-05-21T08:21:59Z</time>
      </trkpt>
      <trkpt lat="42.771715968847275" lon="-7.310970034450293">
        <ele>682</ele>
        <time>2018-05-21T08:22:00Z</time>
      </trkpt>
      <trkpt lat="42.771762991324067" lon="-7.310963999480009">
        <ele>682</ele>
        <time>2018-05-21T08:22:02Z</time>
      </trkpt>
      <trkpt lat="42.771800039336085" lon="-7.310957964509726">
        <ele>682</ele>
        <time>2018-05-21T08:22:03Z</time>
      </trkpt>
      <trkpt lat="42.771832980215549" lon="-7.310946984216571">
        <ele>682</ele>
        <time>2018-05-21T08:22:04Z</time>
      </trkpt>
      <trkpt lat="42.771870028227568" lon="-7.310936003923416">
        <ele>682</ele>
        <time>2018-05-21T08:22:05Z</time>
      </trkpt>
      <trkpt lat="42.771906992420554" lon="-7.310912031680346">
        <ele>682</ele>
        <time>2018-05-21T08:22:06Z</time>
      </trkpt>
      <trkpt lat="42.771948985755444" lon="-7.310888981446624">
        <ele>682</ele>
        <time>2018-05-21T08:22:07Z</time>
      </trkpt>
      <trkpt lat="42.772001959383488" lon="-7.310867020860314">
        <ele>682</ele>
        <time>2018-05-21T08:22:09Z</time>
      </trkpt>
      <trkpt lat="42.772031966596842" lon="-7.310838019475341">
        <ele>682</ele>
        <time>2018-05-21T08:22:10Z</time>
      </trkpt>
      <trkpt lat="42.772065997123718" lon="-7.310807006433606">
        <ele>682</ele>
        <time>2018-05-21T08:22:11Z</time>
      </trkpt>
      <trkpt lat="42.772082006558776" lon="-7.31077297590673">
        <ele>682</ele>
        <time>2018-05-21T08:22:12Z</time>
      </trkpt>
      <trkpt lat="42.772118970751762" lon="-7.310755038633943">
        <ele>671</ele>
        <time>2018-05-21T08:22:13Z</time>
      </trkpt>
      <trkpt lat="42.772148977965117" lon="-7.310738023370504">
        <ele>671</ele>
        <time>2018-05-21T08:22:14Z</time>
      </trkpt>
      <trkpt lat="42.772176973521709" lon="-7.310709021985531">
        <ele>671</ele>
        <time>2018-05-21T08:22:15Z</time>
      </trkpt>
      <trkpt lat="42.772214021533728" lon="-7.310681026428938">
        <ele>671</ele>
        <time>2018-05-21T08:22:17Z</time>
      </trkpt>
      <trkpt lat="42.772246962413192" lon="-7.310652025043964">
        <ele>671</ele>
        <time>2018-05-21T08:22:18Z</time>
      </trkpt>
      <trkpt lat="42.772278981283307" lon="-7.310599973425269">
        <ele>671</ele>
        <time>2018-05-21T08:22:19Z</time>
      </trkpt>
      <trkpt lat="42.772300019860268" lon="-7.31055798009038">
        <ele>671</ele>
        <time>2018-05-21T08:22:20Z</time>
      </trkpt>
      <trkpt lat="42.772329021245241" lon="-7.310526967048645">
        <ele>671</ele>
        <time>2018-05-21T08:22:21Z</time>
      </trkpt>
      <trkpt lat="42.772360034286976" lon="-7.310506012290716">
        <ele>671</ele>
        <time>2018-05-21T08:22:22Z</time>
      </trkpt>
      <trkpt lat="42.77239297516644" lon="-7.31047198176384">
        <ele>671</ele>
        <time>2018-05-21T08:22:24Z</time>
      </trkpt>
      <trkpt lat="42.772430023178458" lon="-7.310430994257331">
        <ele>671</ele>
        <time>2018-05-21T08:22:25Z</time>
      </trkpt>
      <trkpt lat="42.772464975714684" lon="-7.310409033671022">
        <ele>671</ele>
        <time>2018-05-21T08:22:26Z</time>
      </trkpt>
      <trkpt lat="42.772502023726702" lon="-7.3103859834373">
        <ele>671</ele>
        <time>2018-05-21T08:22:27Z</time>
      </trkpt>
      <trkpt lat="42.772538987919688" lon="-7.310344995930791">
        <ele>689</ele>
        <time>2018-05-21T08:22:29Z</time>
      </trkpt>
      <trkpt lat="42.772574024274945" lon="-7.310325969010592">
        <ele>689</ele>
        <time>2018-05-21T08:22:30Z</time>
      </trkpt>
      <trkpt lat="42.772602019831538" lon="-7.310296967625618">
        <ele>689</ele>
        <time>2018-05-21T08:22:31Z</time>
      </trkpt>
      <trkpt lat="42.772630015388131" lon="-7.31025698594749">
        <ele>689</ele>
        <time>2018-05-21T08:22:32Z</time>
      </trkpt>
      <trkpt lat="42.772662034258246" lon="-7.310217004269362">
        <ele>689</ele>
        <time>2018-05-21T08:22:33Z</time>
      </trkpt>
      <trkpt lat="42.772685000672936" lon="-7.310177022591233">
        <ele>689</ele>
        <time>2018-05-21T08:22:35Z</time>
      </trkpt>
      <trkpt lat="42.772712996229529" lon="-7.310141986235976">
        <ele>689</ele>
        <time>2018-05-21T08:22:36Z</time>
      </trkpt>
      <trkpt lat="42.7727369684726" lon="-7.310102004557848">
        <ele>689</ele>
        <time>2018-05-21T08:22:37Z</time>
      </trkpt>
      <trkpt lat="42.77275700122118" lon="-7.31006596237421">
        <ele>689</ele>
        <time>2018-05-21T08:22:38Z</time>
      </trkpt>
      <trkpt lat="42.772751972079277" lon="-7.31002296321094">
        <ele>689</ele>
        <time>2018-05-21T08:22:39Z</time>
      </trkpt>
      <trkpt lat="42.772711990401149" lon="-7.31002296321094">
        <ele>689</ele>
        <time>2018-05-21T08:22:40Z</time>
      </trkpt>
      <trkpt lat="42.772675026208162" lon="-7.310028998181224">
        <ele>689</ele>
        <time>2018-05-21T08:22:41Z</time>
      </trkpt>
      <trkpt lat="42.772647030651569" lon="-7.310051964595914">
        <ele>689</ele>
        <time>2018-05-21T08:22:42Z</time>
      </trkpt>
      <trkpt lat="42.772600008174777" lon="-7.310064034536481">
        <ele>689</ele>
        <time>2018-05-21T08:22:43Z</time>
      </trkpt>
      <trkpt lat="42.772559020668268" lon="-7.310087000951171">
        <ele>689</ele>
        <time>2018-05-21T08:22:45Z</time>
      </trkpt>
      <trkpt lat="42.772517027333379" lon="-7.310087000951171">
        <ele>689</ele>
        <time>2018-05-21T08:22:46Z</time>
      </trkpt>
      <trkpt lat="42.772479979321361" lon="-7.310092030093074">
        <ele>689</ele>
        <time>2018-05-21T08:22:47Z</time>
      </trkpt>
      <trkpt lat="42.772437985986471" lon="-7.310097981244326">
        <ele>689</ele>
        <time>2018-05-21T08:22:48Z</time>
      </trkpt>
      <trkpt lat="42.772401021793485" lon="-7.310109967365861">
        <ele>689</ele>
        <time>2018-05-21T08:22:50Z</time>
      </trkpt>
      <trkpt lat="42.77237000875175" lon="-7.310126982629299">
        <ele>689</ele>
        <time>2018-05-21T08:22:51Z</time>
      </trkpt>
      <trkpt lat="42.772330027073622" lon="-7.310126982629299">
        <ele>689</ele>
        <time>2018-05-21T08:22:52Z</time>
      </trkpt>
      <trkpt lat="42.772287027910352" lon="-7.310133017599583">
        <ele>689</ele>
        <time>2018-05-21T08:22:53Z</time>
      </trkpt>
      <trkpt lat="42.772246040403843" lon="-7.310137962922454">
        <ele>689</ele>
        <time>2018-05-21T08:22:54Z</time>
      </trkpt>
      <trkpt lat="42.772200023755431" lon="-7.310137962922454">
        <ele>689</ele>
        <time>2018-05-21T08:22:56Z</time>
      </trkpt>
      <trkpt lat="42.772159036248922" lon="-7.310137962922454">
        <ele>689</ele>
        <time>2018-05-21T08:22:57Z</time>
      </trkpt>
      <trkpt lat="42.772119976580143" lon="-7.310150032863021">
        <ele>689</ele>
        <time>2018-05-21T08:22:58Z</time>
      </trkpt>
      <trkpt lat="42.772077983245254" lon="-7.310172999277711">
        <ele>708</ele>
        <time>2018-05-21T08:22:59Z</time>
      </trkpt>
      <trkpt lat="42.772041019052267" lon="-7.310179034247994">
        <ele>708</ele>
        <time>2018-05-21T08:23:00Z</time>
      </trkpt>
      <trkpt lat="42.771999025717378" lon="-7.310190014541149">
        <ele>708</ele>
        <time>2018-05-21T08:23:02Z</time>
      </trkpt>
      <trkpt lat="42.771961977705359" lon="-7.310195965692401">
        <ele>708</ele>
        <time>2018-05-21T08:23:03Z</time>
      </trkpt>
      <trkpt lat="42.771924007683992" lon="-7.310202000662684">
        <ele>708</ele>
        <time>2018-05-21T08:23:04Z</time>
      </trkpt>
      <trkpt lat="42.771886959671974" lon="-7.310207029804587">
        <ele>708</ele>
        <time>2018-05-21T08:23:05Z</time>
      </trkpt>
      <trkpt lat="42.771849995478988" lon="-7.310212980955839">
        <ele>708</ele>
        <time>2018-05-21T08:23:06Z</time>
      </trkpt>
      <trkpt lat="42.77181101962924" lon="-7.310232007876039">
        <ele>708</ele>
        <time>2018-05-21T08:23:07Z</time>
      </trkpt>
      <trkpt lat="42.771772965788841" lon="-7.31023795902729">
        <ele>699</ele>
        <time>2018-05-21T08:23:09Z</time>
      </trkpt>
      <trkpt lat="42.771731978282332" lon="-7.310249023139477">
        <ele>708</ele>
        <time>2018-05-21T08:23:10Z</time>
      </trkpt>
      <trkpt lat="42.771694008260965" lon="-7.310261009261012">
        <ele>708</ele>
        <time>2018-05-21T08:23:11Z</time>
      </trkpt>
      <trkpt lat="42.771659977734089" lon="-7.310283975675702">
        <ele>708</ele>
        <time>2018-05-21T08:23:12Z</time>
      </trkpt>
      <trkpt lat="42.771615972742438" lon="-7.310307025909424">
        <ele>708</ele>
        <time>2018-05-21T08:23:13Z</time>
      </trkpt>
      <trkpt lat="42.771576996892691" lon="-7.310314988717437">
        <ele>708</ele>
        <time>2018-05-21T08:23:15Z</time>
      </trkpt>
      <trkpt lat="42.771540032699704" lon="-7.31032001785934">
        <ele>708</ele>
        <time>2018-05-21T08:23:16Z</time>
      </trkpt>
      <trkpt lat="42.771502984687686" lon="-7.310332003980875">
        <ele>708</ele>
        <time>2018-05-21T08:23:17Z</time>
      </trkpt>
      <trkpt lat="42.771464008837938" lon="-7.310338038951159">
        <ele>708</ele>
        <time>2018-05-21T08:23:18Z</time>
      </trkpt>
      <trkpt lat="42.771284971386194" lon="-7.310439962893724">
        <ele>699</ele>
        <time>2018-05-21T08:23:24Z</time>
      </trkpt>
      <trkpt lat="42.771259993314743" lon="-7.310456978157163">
        <ele>699</ele>
        <time>2018-05-21T08:23:25Z</time>
      </trkpt>
      <trkpt lat="42.771217999979854" lon="-7.310473993420601">
        <ele>699</ele>
        <time>2018-05-21T08:23:26Z</time>
      </trkpt>
      <trkpt lat="42.771181035786867" lon="-7.310480028390884">
        <ele>699</ele>
        <time>2018-05-21T08:23:27Z</time>
      </trkpt>
      <trkpt lat="42.771138958632946" lon="-7.310491008684039">
        <ele>699</ele>
        <time>2018-05-21T08:23:28Z</time>
      </trkpt>
      <trkpt lat="42.77110199443996" lon="-7.310513975098729">
        <ele>699</ele>
        <time>2018-05-21T08:23:29Z</time>
      </trkpt>
      <trkpt lat="42.77106000110507" lon="-7.310525961220264">
        <ele>699</ele>
        <time>2018-05-21T08:23:31Z</time>
      </trkpt>
      <trkpt lat="42.771027982234955" lon="-7.310537025332451">
        <ele>699</ele>
        <time>2018-05-21T08:23:32Z</time>
      </trkpt>
      <trkpt lat="42.770991018041968" lon="-7.310554040595889">
        <ele>699</ele>
        <time>2018-05-21T08:23:33Z</time>
      </trkpt>
      <trkpt lat="42.770951958373189" lon="-7.310554040595889">
        <ele>699</ele>
        <time>2018-05-21T08:23:34Z</time>
      </trkpt>
      <trkpt lat="42.770911976695061" lon="-7.310554040595889">
        <ele>699</ele>
        <time>2018-05-21T08:23:35Z</time>
      </trkpt>
      <trkpt lat="42.770869983360171" lon="-7.310554040595889">
        <ele>699</ele>
        <time>2018-05-21T08:23:36Z</time>
      </trkpt>
      <trkpt lat="42.770832013338804" lon="-7.310542976483703">
        <ele>699</ele>
        <time>2018-05-21T08:23:38Z</time>
      </trkpt>
      <trkpt lat="42.770785996690392" lon="-7.310542976483703">
        <ele>699</ele>
        <time>2018-05-21T08:23:39Z</time>
      </trkpt>
      <trkpt lat="42.77073503471911" lon="-7.310530990362167">
        <ele>699</ele>
        <time>2018-05-21T08:23:41Z</time>
      </trkpt>
      <trkpt lat="42.77069304138422" lon="-7.310520010069013">
        <ele>699</ele>
        <time>2018-05-21T08:23:42Z</time>
      </trkpt>
      <trkpt lat="42.770654987543821" lon="-7.310508023947477">
        <ele>699</ele>
        <time>2018-05-21T08:23:43Z</time>
      </trkpt>
      <trkpt lat="42.770612994208932" lon="-7.310502994805574">
        <ele>699</ele>
        <time>2018-05-21T08:23:44Z</time>
      </trkpt>
      <trkpt lat="42.77056597173214" lon="-7.310502994805574">
        <ele>699</ele>
        <time>2018-05-21T08:23:46Z</time>
      </trkpt>
      <trkpt lat="42.77052003890276" lon="-7.310502994805574">
        <ele>699</ele>
        <time>2018-05-21T08:23:47Z</time>
      </trkpt>
      <trkpt lat="42.770473016425967" lon="-7.310496959835291">
        <ele>699</ele>
        <time>2018-05-21T08:23:48Z</time>
      </trkpt>
      <trkpt lat="42.770431023091078" lon="-7.310496959835291">
        <ele>706</ele>
        <time>2018-05-21T08:23:50Z</time>
      </trkpt>
      <trkpt lat="42.770382994785905" lon="-7.310491008684039">
        <ele>706</ele>
        <time>2018-05-21T08:23:51Z</time>
      </trkpt>
      <trkpt lat="42.770334966480732" lon="-7.310491008684039">
        <ele>706</ele>
        <time>2018-05-21T08:23:52Z</time>
      </trkpt>
      <trkpt lat="42.770236982032657" lon="-7.310491008684039">
        <ele>706</ele>
        <time>2018-05-21T08:23:55Z</time>
      </trkpt>
      <trkpt lat="42.770126005634665" lon="-7.310480028390884">
        <ele>706</ele>
        <time>2018-05-21T08:23:59Z</time>
      </trkpt>
      <trkpt lat="42.769965995103121" lon="-7.310469970107079">
        <ele>706</ele>
        <time>2018-05-21T08:24:03Z</time>
      </trkpt>
      <trkpt lat="42.769773965701461" lon="-7.310405010357499">
        <ele>706</ele>
        <time>2018-05-21T08:24:09Z</time>
      </trkpt>
      <trkpt lat="42.769600041210651" lon="-7.310287998989224">
        <ele>726</ele>
        <time>2018-05-21T08:24:15Z</time>
      </trkpt>
      <trkpt lat="42.769451010972261" lon="-7.310177022591233">
        <ele>726</ele>
        <time>2018-05-21T08:24:20Z</time>
      </trkpt>
      <trkpt lat="42.769323019310832" lon="-7.310055987909436">
        <ele>726</ele>
        <time>2018-05-21T08:24:25Z</time>
      </trkpt>
      <trkpt lat="42.769135013222694" lon="-7.309905029833317">
        <ele>726</ele>
        <time>2018-05-21T08:24:31Z</time>
      </trkpt>
      <trkpt lat="42.768961004912853" lon="-7.309702020138502">
        <ele>726</ele>
        <time>2018-05-21T08:24:38Z</time>
      </trkpt>
      <trkpt lat="42.768832007423043" lon="-7.309578973799944">
        <ele>726</ele>
        <time>2018-05-21T08:24:43Z</time>
      </trkpt>
      <trkpt lat="42.768733017146587" lon="-7.30950596742332">
        <ele>734</ele>
        <time>2018-05-21T08:24:46Z</time>
      </trkpt>
      <trkpt lat="42.768733017146587" lon="-7.309494987130165">
        <ele>734</ele>
        <time>2018-05-21T08:24:46Z</time>
      </trkpt>
      <trkpt lat="42.768728993833065" lon="-7.309432039037347">
        <ele>734</ele>
        <time>2018-05-21T08:24:48Z</time>
      </trkpt>
      <trkpt lat="42.768728993833065" lon="-7.309346040710807">
        <ele>734</ele>
        <time>2018-05-21T08:24:49Z</time>
      </trkpt>
      <trkpt lat="42.768714996054769" lon="-7.30928803794086">
        <ele>734</ele>
        <time>2018-05-21T08:24:51Z</time>
      </trkpt>
      <trkpt lat="42.768700998276472" lon="-7.30922500602901">
        <ele>734</ele>
        <time>2018-05-21T08:24:52Z</time>
      </trkpt>
      <trkpt lat="42.768687000498176" lon="-7.309127021580935">
        <ele>734</ele>
        <time>2018-05-21T08:24:54Z</time>
      </trkpt>
      <trkpt lat="42.768663028255105" lon="-7.309087039902806">
        <ele>734</ele>
        <time>2018-05-21T08:24:56Z</time>
      </trkpt>
      <trkpt lat="42.768639978021383" lon="-7.309034988284111">
        <ele>734</ele>
        <time>2018-05-21T08:24:57Z</time>
      </trkpt>
      <trkpt lat="42.768603013828397" lon="-7.308988971635699">
        <ele>734</ele>
        <time>2018-05-21T08:24:58Z</time>
      </trkpt>
      <trkpt lat="42.768579041585326" lon="-7.308926023542881">
        <ele>734</ele>
        <time>2018-05-21T08:25:00Z</time>
      </trkpt>
      <trkpt lat="42.768550962209702" lon="-7.308845976367593">
        <ele>734</ele>
        <time>2018-05-21T08:25:02Z</time>
      </trkpt>
      <trkpt lat="42.768533024936914" lon="-7.308794008567929">
        <ele>734</ele>
        <time>2018-05-21T08:25:03Z</time>
      </trkpt>
      <trkpt lat="42.768513998016715" lon="-7.308713039383292">
        <ele>734</ele>
        <time>2018-05-21T08:25:05Z</time>
      </trkpt>
      <trkpt lat="42.768479967489839" lon="-7.308674985542893">
        <ele>746</ele>
        <time>2018-05-21T08:25:06Z</time>
      </trkpt>
      <trkpt lat="42.768437974154949" lon="-7.308641038835049">
        <ele>746</ele>
        <time>2018-05-21T08:25:08Z</time>
      </trkpt>
      <trkpt lat="42.768401009961963" lon="-7.308595022186637">
        <ele>746</ele>
        <time>2018-05-21T08:25:09Z</time>
      </trkpt>
      <trkpt lat="42.76837301440537" lon="-7.308554034680128">
        <ele>746</ele>
        <time>2018-05-21T08:25:10Z</time>
      </trkpt>
      <trkpt lat="42.768343007192016" lon="-7.308500977233052">
        <ele>746</ele>
        <time>2018-05-21T08:25:12Z</time>
      </trkpt>
      <trkpt lat="42.768311994150281" lon="-7.308475999161601">
        <ele>746</ele>
        <time>2018-05-21T08:25:13Z</time>
      </trkpt>
      <trkpt lat="42.768275029957294" lon="-7.308436017483473">
        <ele>746</ele>
        <time>2018-05-21T08:25:14Z</time>
      </trkpt>
      <trkpt lat="42.768233036622405" lon="-7.308395029976964">
        <ele>746</ele>
        <time>2018-05-21T08:25:16Z</time>
      </trkpt>
      <trkpt lat="42.768194982782006" lon="-7.308360999450088">
        <ele>746</ele>
        <time>2018-05-21T08:25:17Z</time>
      </trkpt>
      <trkpt lat="42.768165981397033" lon="-7.308324035257101">
        <ele>746</ele>
        <time>2018-05-21T08:25:18Z</time>
      </trkpt>
      <trkpt lat="42.76813798584044" lon="-7.308290004730225">
        <ele>746</ele>
        <time>2018-05-21T08:25:19Z</time>
      </trkpt>
      <trkpt lat="42.768100015819073" lon="-7.308267038315535">
        <ele>746</ele>
        <time>2018-05-21T08:25:21Z</time>
      </trkpt>
      <trkpt lat="42.76807202026248" lon="-7.308229990303516">
        <ele>746</ele>
        <time>2018-05-21T08:25:22Z</time>
      </trkpt>
      <trkpt lat="42.768040001392365" lon="-7.30817299336195">
        <ele>746</ele>
        <time>2018-05-21T08:25:23Z</time>
      </trkpt>
      <trkpt lat="42.768016029149294" lon="-7.308133011683822">
        <ele>746</ele>
        <time>2018-05-21T08:25:25Z</time>
      </trkpt>
      <trkpt lat="42.767984010279179" lon="-7.308075008913875">
        <ele>746</ele>
        <time>2018-05-21T08:25:26Z</time>
      </trkpt>
      <trkpt lat="42.767946040257812" lon="-7.308035027235746">
        <ele>746</ele>
        <time>2018-05-21T08:25:28Z</time>
      </trkpt>
      <trkpt lat="42.767921984195709" lon="-7.307979958131909">
        <ele>735</ele>
        <time>2018-05-21T08:25:29Z</time>
      </trkpt>
      <trkpt lat="42.767888959497213" lon="-7.307916004210711">
        <ele>735</ele>
        <time>2018-05-21T08:25:31Z</time>
      </trkpt>
      <trkpt lat="42.767870016396046" lon="-7.307864958420396">
        <ele>743</ele>
        <time>2018-05-21T08:25:32Z</time>
      </trkpt>
      <trkpt lat="42.767846966162324" lon="-7.307807039469481">
        <ele>743</ele>
        <time>2018-05-21T08:25:33Z</time>
      </trkpt>
      <trkpt lat="42.767842020839453" lon="-7.307744007557631">
        <ele>743</ele>
        <time>2018-05-21T08:25:35Z</time>
      </trkpt>
      <trkpt lat="42.767823999747634" lon="-7.307606041431427">
        <ele>743</ele>
        <time>2018-05-21T08:25:38Z</time>
      </trkpt>
      <trkpt lat="42.767818970605731" lon="-7.307543009519577">
        <ele>743</ele>
        <time>2018-05-21T08:25:39Z</time>
      </trkpt>
      <trkpt lat="42.767810001969337" lon="-7.307489030063152">
        <ele>743</ele>
        <time>2018-05-21T08:25:40Z</time>
      </trkpt>
      <trkpt lat="42.767822993919253" lon="-7.307351985946298">
        <ele>743</ele>
        <time>2018-05-21T08:25:43Z</time>
      </trkpt>
      <trkpt lat="42.76781695894897" lon="-7.307360032573342">
        <ele>743</ele>
        <time>2018-05-21T08:25:44Z</time>
      </trkpt>
      <trkpt lat="42.767831040546298" lon="-7.307155011221767">
        <ele>743</ele>
        <time>2018-05-21T08:25:48Z</time>
      </trkpt>
      <trkpt lat="42.767854006960988" lon="-7.306984020397067">
        <ele>744</ele>
        <time>2018-05-21T08:25:52Z</time>
      </trkpt>
      <trkpt lat="42.767854006960988" lon="-7.306976979598403">
        <ele>744</ele>
        <time>2018-05-21T08:25:52Z</time>
      </trkpt>
      <trkpt lat="42.767889965325594" lon="-7.306770030409098">
        <ele>744</ele>
        <time>2018-05-21T08:25:57Z</time>
      </trkpt>
      <trkpt lat="42.767889965325594" lon="-7.306761983782053">
        <ele>744</ele>
        <time>2018-05-21T08:25:57Z</time>
      </trkpt>
      <trkpt lat="42.767929024994373" lon="-7.306642960757017">
        <ele>744</ele>
        <time>2018-05-21T08:26:00Z</time>
      </trkpt>
      <trkpt lat="42.768014017492533" lon="-7.306469958275557">
        <ele>759</ele>
        <time>2018-05-21T08:26:04Z</time>
      </trkpt>
      <trkpt lat="42.768086018040776" lon="-7.306354036554694">
        <ele>759</ele>
        <time>2018-05-21T08:26:08Z</time>
      </trkpt>
      <trkpt lat="42.768100015819073" lon="-7.306319000199437">
        <ele>759</ele>
        <time>2018-05-21T08:26:08Z</time>
      </trkpt>
      <trkpt lat="42.768118036910892" lon="-7.306279018521309">
        <ele>759</ele>
        <time>2018-05-21T08:26:09Z</time>
      </trkpt>
      <trkpt lat="42.768146032467484" lon="-7.306210035458207">
        <ele>758</ele>
        <time>2018-05-21T08:26:11Z</time>
      </trkpt>
      <trkpt lat="42.768174028024077" lon="-7.306182961910963">
        <ele>758</ele>
        <time>2018-05-21T08:26:12Z</time>
      </trkpt>
      <trkpt lat="42.768196994438767" lon="-7.306142980232835">
        <ele>758</ele>
        <time>2018-05-21T08:26:13Z</time>
      </trkpt>
      <trkpt lat="42.76822498999536" lon="-7.30610802769661">
        <ele>758</ele>
        <time>2018-05-21T08:26:14Z</time>
      </trkpt>
      <trkpt lat="42.768262960016727" lon="-7.306062011048198">
        <ele>758</ele>
        <time>2018-05-21T08:26:16Z</time>
      </trkpt>
      <trkpt lat="42.768286010250449" lon="-7.306027980521321">
        <ele>758</ele>
        <time>2018-05-21T08:26:17Z</time>
      </trkpt>
      <trkpt lat="42.768320040777326" lon="-7.305998979136348">
        <ele>758</ele>
        <time>2018-05-21T08:26:18Z</time>
      </trkpt>
      <trkpt lat="42.768345018848777" lon="-7.305956985801458">
        <ele>758</ele>
        <time>2018-05-21T08:26:19Z</time>
      </trkpt>
      <trkpt lat="42.76837301440537" lon="-7.305910969153047">
        <ele>758</ele>
        <time>2018-05-21T08:26:21Z</time>
      </trkpt>
      <trkpt lat="42.768406039103866" lon="-7.305870987474918">
        <ele>758</ele>
        <time>2018-05-21T08:26:22Z</time>
      </trkpt>
      <trkpt lat="42.768437974154949" lon="-7.305824970826507">
        <ele>758</ele>
        <time>2018-05-21T08:26:23Z</time>
      </trkpt>
      <trkpt lat="42.768462030217052" lon="-7.305790018290281">
        <ele>758</ele>
        <time>2018-05-21T08:26:24Z</time>
      </trkpt>
      <trkpt lat="42.768479967489839" lon="-7.305750036612153">
        <ele>758</ele>
        <time>2018-05-21T08:26:25Z</time>
      </trkpt>
      <trkpt lat="42.768507963046432" lon="-7.305709971114993">
        <ele>758</ele>
        <time>2018-05-21T08:26:27Z</time>
      </trkpt>
      <trkpt lat="42.768526989966631" lon="-7.305669989436865">
        <ele>758</ele>
        <time>2018-05-21T08:26:28Z</time>
      </trkpt>
      <trkpt lat="42.768554985523224" lon="-7.305630007758737">
        <ele>758</ele>
        <time>2018-05-21T08:26:29Z</time>
      </trkpt>
      <trkpt lat="42.7685890160501" lon="-7.305569993332028">
        <ele>758</ele>
        <time>2018-05-21T08:26:30Z</time>
      </trkpt>
      <trkpt lat="42.768607959151268" lon="-7.305535962805152">
        <ele>758</ele>
        <time>2018-05-21T08:26:31Z</time>
      </trkpt>
      <trkpt lat="42.768617011606693" lon="-7.305490029975772">
        <ele>758</ele>
        <time>2018-05-21T08:26:32Z</time>
      </trkpt>
      <trkpt lat="42.768641989678144" lon="-7.305457005277276">
        <ele>758</ele>
        <time>2018-05-21T08:26:33Z</time>
      </trkpt>
      <trkpt lat="42.768652969971299" lon="-7.305397996678948">
        <ele>754</ele>
        <time>2018-05-21T08:26:35Z</time>
      </trkpt>
      <trkpt lat="42.768652969971299" lon="-7.305339993909001">
        <ele>754</ele>
        <time>2018-05-21T08:26:36Z</time>
      </trkpt>
      <trkpt lat="42.768652969971299" lon="-7.305285008624196">
        <ele>754</ele>
        <time>2018-05-21T08:26:37Z</time>
      </trkpt>
      <trkpt lat="42.768638972193003" lon="-7.305209990590811">
        <ele>754</ele>
        <time>2018-05-21T08:26:39Z</time>
      </trkpt>
      <trkpt lat="42.768624974414706" lon="-7.305158022791147">
        <ele>754</ele>
        <time>2018-05-21T08:26:40Z</time>
      </trkpt>
      <trkpt lat="42.768607037141919" lon="-7.305083004757762">
        <ele>754</ele>
        <time>2018-05-21T08:26:42Z</time>
      </trkpt>
      <trkpt lat="42.768593039363623" lon="-7.305031958967447">
        <ele>754</ele>
        <time>2018-05-21T08:26:43Z</time>
      </trkpt>
      <trkpt lat="42.768539981916547" lon="-7.30490698479116">
        <ele>754</ele>
        <time>2018-05-21T08:26:46Z</time>
      </trkpt>
      <trkpt lat="42.768516009673476" lon="-7.304859040305018">
        <ele>754</ele>
        <time>2018-05-21T08:26:47Z</time>
      </trkpt>
      <trkpt lat="42.7684819791466" lon="-7.304793996736407">
        <ele>754</ele>
        <time>2018-05-21T08:26:49Z</time>
      </trkpt>
      <trkpt lat="42.768473010510206" lon="-7.304762983694673">
        <ele>754</ele>
        <time>2018-05-21T08:26:50Z</time>
      </trkpt>
      <trkpt lat="42.768364967778325" lon="-7.304671034216881">
        <ele>754</ele>
        <time>2018-05-21T08:26:54Z</time>
      </trkpt>
      <trkpt lat="42.768240999430418" lon="-7.30443399399519">
        <ele>758</ele>
        <time>2018-05-21T08:27:00Z</time>
      </trkpt>
      <trkpt lat="42.768168998882174" lon="-7.304299967363477">
        <ele>758</ele>
        <time>2018-05-21T08:27:04Z</time>
      </trkpt>
      <trkpt lat="42.768078977242112" lon="-7.304105004295707">
        <ele>758</ele>
        <time>2018-05-21T08:27:09Z</time>
      </trkpt>
      <trkpt lat="42.768006976693869" lon="-7.303930995985866">
        <ele>758</ele>
        <time>2018-05-21T08:27:13Z</time>
      </trkpt>
      <trkpt lat="42.767919972538948" lon="-7.303777020424604">
        <ele>747</ele>
        <time>2018-05-21T08:27:17Z</time>
      </trkpt>
      <trkpt lat="42.767839003354311" lon="-7.303603012114763">
        <ele>759</ele>
        <time>2018-05-21T08:27:22Z</time>
      </trkpt>
      <trkpt lat="42.76781402528286" lon="-7.303592031821609">
        <ele>759</ele>
        <time>2018-05-21T08:27:22Z</time>
      </trkpt>
      <trkpt lat="42.767726015299559" lon="-7.303470997139812">
        <ele>759</ele>
        <time>2018-05-21T08:27:26Z</time>
      </trkpt>
      <trkpt lat="42.767716040834785" lon="-7.303459011018276">
        <ele>759</ele>
        <time>2018-05-21T08:27:27Z</time>
      </trkpt>
      <trkpt lat="42.76768796145916" lon="-7.30340201407671">
        <ele>759</ele>
        <time>2018-05-21T08:27:28Z</time>
      </trkpt>
      <trkpt lat="42.767670024186373" lon="-7.303355997428298">
        <ele>759</ele>
        <time>2018-05-21T08:27:29Z</time>
      </trkpt>
      <trkpt lat="42.767634987831116" lon="-7.303302017971873">
        <ele>759</ele>
        <time>2018-05-21T08:27:31Z</time>
      </trkpt>
      <trkpt lat="42.767606992274523" lon="-7.303245021030307">
        <ele>759</ele>
        <time>2018-05-21T08:27:32Z</time>
      </trkpt>
      <trkpt lat="42.76757899671793" lon="-7.303181989118457">
        <ele>759</ele>
        <time>2018-05-21T08:27:34Z</time>
      </trkpt>
      <trkpt lat="42.767560975626111" lon="-7.303147036582232">
        <ele>759</ele>
        <time>2018-05-21T08:27:35Z</time>
      </trkpt>
      <trkpt lat="42.767524011433125" lon="-7.303106971085072">
        <ele>759</ele>
        <time>2018-05-21T08:27:36Z</time>
      </trkpt>
      <trkpt lat="42.767488975077868" lon="-7.303077969700098">
        <ele>759</ele>
        <time>2018-05-21T08:27:37Z</time>
      </trkpt>
      <trkpt lat="42.76744999922812" lon="-7.303035976365209">
        <ele>759</ele>
        <time>2018-05-21T08:27:39Z</time>
      </trkpt>
      <trkpt lat="42.767417980358005" lon="-7.303006974980235">
        <ele>759</ele>
        <time>2018-05-21T08:27:40Z</time>
      </trkpt>
      <trkpt lat="42.767380010336637" lon="-7.302989959716797">
        <ele>759</ele>
        <time>2018-05-21T08:27:41Z</time>
      </trkpt>
      <trkpt lat="42.767342962324619" lon="-7.30297302827239">
        <ele>759</ele>
        <time>2018-05-21T08:27:42Z</time>
      </trkpt>
      <trkpt lat="42.767313038930297" lon="-7.302942015230656">
        <ele>759</ele>
        <time>2018-05-21T08:27:44Z</time>
      </trkpt>
      <trkpt lat="42.767299041152" lon="-7.302895998582244">
        <ele>759</ele>
        <time>2018-05-21T08:27:45Z</time>
      </trkpt>
      <trkpt lat="42.767317984253168" lon="-7.302849981933832">
        <ele>759</ele>
        <time>2018-05-21T08:27:46Z</time>
      </trkpt>
      <trkpt lat="42.767351008951664" lon="-7.302810000255704">
        <ele>769</ele>
        <time>2018-05-21T08:27:47Z</time>
      </trkpt>
      <trkpt lat="42.76738503947854" lon="-7.30278099887073">
        <ele>769</ele>
        <time>2018-05-21T08:27:48Z</time>
      </trkpt>
      <trkpt lat="42.767424015328288" lon="-7.30275803245604">
        <ele>769</ele>
        <time>2018-05-21T08:27:50Z</time>
      </trkpt>
      <trkpt lat="42.767466008663177" lon="-7.302746968343854">
        <ele>769</ele>
        <time>2018-05-21T08:27:51Z</time>
      </trkpt>
      <trkpt lat="42.767499033361673" lon="-7.302724001929164">
        <ele>769</ele>
        <time>2018-05-21T08:27:52Z</time>
      </trkpt>
      <trkpt lat="42.76753599755466" lon="-7.302701035514474">
        <ele>769</ele>
        <time>2018-05-21T08:27:53Z</time>
      </trkpt>
      <trkpt lat="42.767570028081536" lon="-7.302684020251036">
        <ele>769</ele>
        <time>2018-05-21T08:27:54Z</time>
      </trkpt>
      <trkpt lat="42.767602968961" lon="-7.302648983895779">
        <ele>769</ele>
        <time>2018-05-21T08:27:55Z</time>
      </trkpt>
      <trkpt lat="42.767634987831116" lon="-7.302619982510805">
        <ele>769</ele>
        <time>2018-05-21T08:27:57Z</time>
      </trkpt>
      <trkpt lat="42.767658960074186" lon="-7.30258603580296">
        <ele>769</ele>
        <time>2018-05-21T08:27:58Z</time>
      </trkpt>
      <trkpt lat="42.767704976722598" lon="-7.302552005276084">
        <ele>769</ele>
        <time>2018-05-21T08:27:59Z</time>
      </trkpt>
      <trkpt lat="42.767738001421094" lon="-7.302529038861394">
        <ele>769</ele>
        <time>2018-05-21T08:28:00Z</time>
      </trkpt>
      <trkpt lat="42.767768008634448" lon="-7.302491990849376">
        <ele>769</ele>
        <time>2018-05-21T08:28:01Z</time>
      </trkpt>
      <trkpt lat="42.767792986705899" lon="-7.302469024434686">
        <ele>769</ele>
        <time>2018-05-21T08:28:02Z</time>
      </trkpt>
      <trkpt lat="42.767816036939621" lon="-7.302428958937526">
        <ele>769</ele>
        <time>2018-05-21T08:28:03Z</time>
      </trkpt>
      <trkpt lat="42.767847971990705" lon="-7.302383026108146">
        <ele>769</ele>
        <time>2018-05-21T08:28:05Z</time>
      </trkpt>
      <trkpt lat="42.767872028052807" lon="-7.302337009459734">
        <ele>769</ele>
        <time>2018-05-21T08:28:06Z</time>
      </trkpt>
      <trkpt lat="42.767903041094542" lon="-7.302281018346548">
        <ele>769</ele>
        <time>2018-05-21T08:28:08Z</time>
      </trkpt>
      <trkpt lat="42.767926007509232" lon="-7.302235001698136">
        <ele>769</ele>
        <time>2018-05-21T08:28:09Z</time>
      </trkpt>
      <trkpt lat="42.767954003065825" lon="-7.302171969786286">
        <ele>774</ele>
        <time>2018-05-21T08:28:10Z</time>
      </trkpt>
      <trkpt lat="42.767977975308895" lon="-7.302102986723185">
        <ele>774</ele>
        <time>2018-05-21T08:28:12Z</time>
      </trkpt>
      <trkpt lat="42.767991973087192" lon="-7.302056970074773">
        <ele>774</ele>
        <time>2018-05-21T08:28:13Z</time>
      </trkpt>
      <trkpt lat="42.768015023320913" lon="-7.302016988396645">
        <ele>774</ele>
        <time>2018-05-21T08:28:14Z</time>
      </trkpt>
      <trkpt lat="42.768033966422081" lon="-7.301966026425362">
        <ele>788</ele>
        <time>2018-05-21T08:28:16Z</time>
      </trkpt>
      <trkpt lat="42.768047964200377" lon="-7.301913974806666">
        <ele>788</ele>
        <time>2018-05-21T08:28:17Z</time>
      </trkpt>
      <trkpt lat="42.768057016655803" lon="-7.301855972036719">
        <ele>788</ele>
        <time>2018-05-21T08:28:18Z</time>
      </trkpt>
      <trkpt lat="42.768071014434099" lon="-7.301798975095153">
        <ele>788</ele>
        <time>2018-05-21T08:28:19Z</time>
      </trkpt>
      <trkpt lat="42.768076965585351" lon="-7.301740972325206">
        <ele>788</ele>
        <time>2018-05-21T08:28:21Z</time>
      </trkpt>
      <trkpt lat="42.768077971413732" lon="-7.301612980663776">
        <ele>788</ele>
        <time>2018-05-21T08:28:23Z</time>
      </trkpt>
      <trkpt lat="42.768087023869157" lon="-7.301416005939245">
        <ele>788</ele>
        <time>2018-05-21T08:28:28Z</time>
      </trkpt>
      <trkpt lat="42.768091969192028" lon="-7.301247026771307">
        <ele>788</ele>
        <time>2018-05-21T08:28:31Z</time>
      </trkpt>
      <trkpt lat="42.768091969192028" lon="-7.301119035109878">
        <ele>795</ele>
        <time>2018-05-21T08:28:34Z</time>
      </trkpt>
      <trkpt lat="42.768096998333931" lon="-7.300995988771319">
        <ele>795</ele>
        <time>2018-05-21T08:28:37Z</time>
      </trkpt>
      <trkpt lat="42.76811501942575" lon="-7.300883000716567">
        <ele>795</ele>
        <time>2018-05-21T08:28:39Z</time>
      </trkpt>
      <trkpt lat="42.768125999718904" lon="-7.300777975469828">
        <ele>795</ele>
        <time>2018-05-21T08:28:42Z</time>
      </trkpt>
      <trkpt lat="42.76820202358067" lon="-7.300573037937284">
        <ele>795</ele>
        <time>2018-05-21T08:28:47Z</time>
      </trkpt>
      <trkpt lat="42.768246028572321" lon="-7.300447979941964">
        <ele>795</ele>
        <time>2018-05-21T08:28:50Z</time>
      </trkpt>
      <trkpt lat="42.768250973895192" lon="-7.300419984385371">
        <ele>795</ele>
        <time>2018-05-21T08:28:50Z</time>
      </trkpt>
      <trkpt lat="42.768274024128914" lon="-7.30037396773696">
        <ele>795</ele>
        <time>2018-05-21T08:28:52Z</time>
      </trkpt>
      <trkpt lat="42.768306965008378" lon="-7.300332980230451">
        <ele>796</ele>
        <time>2018-05-21T08:28:53Z</time>
      </trkpt>
      <trkpt lat="42.768338983878493" lon="-7.300282018259168">
        <ele>796</ele>
        <time>2018-05-21T08:28:54Z</time>
      </trkpt>
      <trkpt lat="42.76837402023375" lon="-7.30024497024715">
        <ele>796</ele>
        <time>2018-05-21T08:28:56Z</time>
      </trkpt>
      <trkpt lat="42.768406039103866" lon="-7.300222003832459">
        <ele>796</ele>
        <time>2018-05-21T08:28:57Z</time>
      </trkpt>
      <trkpt lat="42.768444009125233" lon="-7.300204988569021">
        <ele>796</ele>
        <time>2018-05-21T08:28:58Z</time>
      </trkpt>
      <trkpt lat="42.768480973318219" lon="-7.300175987184048">
        <ele>796</ele>
        <time>2018-05-21T08:28:59Z</time>
      </trkpt>
      <trkpt lat="42.768515003845096" lon="-7.300156960263848">
        <ele>796</ele>
        <time>2018-05-21T08:29:00Z</time>
      </trkpt>
      <trkpt lat="42.768551968038082" lon="-7.30011697858572">
        <ele>796</ele>
        <time>2018-05-21T08:29:02Z</time>
      </trkpt>
      <trkpt lat="42.768581975251436" lon="-7.300087977200747">
        <ele>796</ele>
        <time>2018-05-21T08:29:03Z</time>
      </trkpt>
      <trkpt lat="42.768621034920216" lon="-7.300062999129295">
        <ele>796</ele>
        <time>2018-05-21T08:29:04Z</time>
      </trkpt>
      <trkpt lat="42.768657999113202" lon="-7.300052018836141">
        <ele>796</ele>
        <time>2018-05-21T08:29:05Z</time>
      </trkpt>
      <trkpt lat="42.768699992448092" lon="-7.300023017451167">
        <ele>813</ele>
        <time>2018-05-21T08:29:07Z</time>
      </trkpt>
      <trkpt lat="42.768741985782981" lon="-7.299999967217445">
        <ele>796</ele>
        <time>2018-05-21T08:29:08Z</time>
      </trkpt>
      <trkpt lat="42.768779033794999" lon="-7.299977000802755">
        <ele>813</ele>
        <time>2018-05-21T08:29:09Z</time>
      </trkpt>
      <trkpt lat="42.768811974674463" lon="-7.299954034388065">
        <ele>813</ele>
        <time>2018-05-21T08:29:10Z</time>
      </trkpt>
      <trkpt lat="42.768849022686481" lon="-7.299925033003092">
        <ele>813</ele>
        <time>2018-05-21T08:29:12Z</time>
      </trkpt>
      <trkpt lat="42.76886997744441" lon="-7.299897037446499">
        <ele>813</ele>
        <time>2018-05-21T08:29:13Z</time>
      </trkpt>
      <trkpt lat="42.768907025456429" lon="-7.299873987212777">
        <ele>813</ele>
        <time>2018-05-21T08:29:14Z</time>
      </trkpt>
      <trkpt lat="42.768956981599331" lon="-7.299844985827804">
        <ele>813</ele>
        <time>2018-05-21T08:29:15Z</time>
      </trkpt>
      <trkpt lat="42.768994029611349" lon="-7.299805004149675">
        <ele>813</ele>
        <time>2018-05-21T08:29:17Z</time>
      </trkpt>
      <trkpt lat="42.769035017117858" lon="-7.29979301802814">
        <ele>813</ele>
        <time>2018-05-21T08:29:18Z</time>
      </trkpt>
      <trkpt lat="42.769108023494482" lon="-7.299736021086574">
        <ele>813</ele>
        <time>2018-05-21T08:29:21Z</time>
      </trkpt>
      <trkpt lat="42.769152028486133" lon="-7.299654968082905">
        <ele>813</ele>
        <time>2018-05-21T08:29:23Z</time>
      </trkpt>
      <trkpt lat="42.76923400349915" lon="-7.299538040533662">
        <ele>813</ele>
        <time>2018-05-21T08:29:26Z</time>
      </trkpt>
      <trkpt lat="42.769314972683787" lon="-7.2994480188936">
        <ele>812</ele>
        <time>2018-05-21T08:29:29Z</time>
      </trkpt>
      <trkpt lat="42.769325030967593" lon="-7.299437038600445">
        <ele>812</ele>
        <time>2018-05-21T08:29:30Z</time>
      </trkpt>
      <trkpt lat="42.769352020695806" lon="-7.299396973103285">
        <ele>812</ele>
        <time>2018-05-21T08:29:31Z</time>
      </trkpt>
      <trkpt lat="42.769380016252398" lon="-7.299355985596776">
        <ele>812</ele>
        <time>2018-05-21T08:29:32Z</time>
      </trkpt>
      <trkpt lat="42.769413040950894" lon="-7.299322038888931">
        <ele>812</ele>
        <time>2018-05-21T08:29:33Z</time>
      </trkpt>
      <trkpt lat="42.769442964345217" lon="-7.299281973391771">
        <ele>812</ele>
        <time>2018-05-21T08:29:35Z</time>
      </trkpt>
      <trkpt lat="42.76947196573019" lon="-7.299252972006798">
        <ele>812</ele>
        <time>2018-05-21T08:29:36Z</time>
      </trkpt>
      <trkpt lat="42.769499961286783" lon="-7.299201004207134">
        <ele>812</ele>
        <time>2018-05-21T08:29:37Z</time>
      </trkpt>
      <trkpt lat="42.769524017348886" lon="-7.29914995841682">
        <ele>812</ele>
        <time>2018-05-21T08:29:39Z</time>
      </trkpt>
      <trkpt lat="42.769561987370253" lon="-7.299088016152382">
        <ele>812</ele>
        <time>2018-05-21T08:29:40Z</time>
      </trkpt>
      <trkpt lat="42.769591994583607" lon="-7.299057003110647">
        <ele>812</ele>
        <time>2018-05-21T08:29:41Z</time>
      </trkpt>
      <trkpt lat="42.769630970433354" lon="-7.299008974805474">
        <ele>812</ele>
        <time>2018-05-21T08:29:43Z</time>
      </trkpt>
      <trkpt lat="42.769658965989947" lon="-7.29897502809763">
        <ele>828</ele>
        <time>2018-05-21T08:29:44Z</time>
      </trkpt>
      <trkpt lat="42.769682016223669" lon="-7.298929011449218">
        <ele>828</ele>
        <time>2018-05-21T08:29:45Z</time>
      </trkpt>
      <trkpt lat="42.769720992073417" lon="-7.298885006457567">
        <ele>828</ele>
        <time>2018-05-21T08:29:47Z</time>
      </trkpt>
      <trkpt lat="42.769756028428674" lon="-7.298842007294297">
        <ele>828</ele>
        <time>2018-05-21T08:29:48Z</time>
      </trkpt>
      <trkpt lat="42.769778994843364" lon="-7.298795990645886">
        <ele>828</ele>
        <time>2018-05-21T08:29:49Z</time>
      </trkpt>
      <trkpt lat="42.769806990399957" lon="-7.298761960119009">
        <ele>828</ele>
        <time>2018-05-21T08:29:51Z</time>
      </trkpt>
      <trkpt lat="42.769844960421324" lon="-7.298714015632868">
        <ele>828</ele>
        <time>2018-05-21T08:29:52Z</time>
      </trkpt>
      <trkpt lat="42.769873961806297" lon="-7.29867797344923">
        <ele>829</ele>
        <time>2018-05-21T08:29:53Z</time>
      </trkpt>
      <trkpt lat="42.7698980178684" lon="-7.298643020913005">
        <ele>829</ele>
        <time>2018-05-21T08:29:54Z</time>
      </trkpt>
      <trkpt lat="42.76994101703167" lon="-7.298626005649567">
        <ele>829</ele>
        <time>2018-05-21T08:29:56Z</time>
      </trkpt>
      <trkpt lat="42.770055010914803" lon="-7.298506982624531">
        <ele>829</ele>
        <time>2018-05-21T08:30:00Z</time>
      </trkpt>
      <trkpt lat="42.770171016454697" lon="-7.29839600622654">
        <ele>829</ele>
        <time>2018-05-21T08:30:04Z</time>
      </trkpt>
      <trkpt lat="42.77028501033783" lon="-7.298288969323039">
        <ele>829</ele>
        <time>2018-05-21T08:30:08Z</time>
      </trkpt>
      <trkpt lat="42.770386012271047" lon="-7.298168018460274">
        <ele>829</ele>
        <time>2018-05-21T08:30:12Z</time>
      </trkpt>
      <trkpt lat="42.770449966192245" lon="-7.298082020133734">
        <ele>829</ele>
        <time>2018-05-21T08:30:15Z</time>
      </trkpt>
      <trkpt lat="42.770515009760857" lon="-7.297978000715375">
        <ele>841</ele>
        <time>2018-05-21T08:30:18Z</time>
      </trkpt>
      <trkpt lat="42.770515009760857" lon="-7.297970037907362">
        <ele>841</ele>
        <time>2018-05-21T08:30:18Z</time>
      </trkpt>
      <trkpt lat="42.770571000874043" lon="-7.297909017652273">
        <ele>841</ele>
        <time>2018-05-21T08:30:20Z</time>
      </trkpt>
      <trkpt lat="42.770706033334136" lon="-7.297748001292348">
        <ele>843</ele>
        <time>2018-05-21T08:30:26Z</time>
      </trkpt>
      <trkpt lat="42.770793959498405" lon="-7.297596959397197">
        <ele>843</ele>
        <time>2018-05-21T08:30:30Z</time>
      </trkpt>
      <trkpt lat="42.770942989736795" lon="-7.297427980229259">
        <ele>843</ele>
        <time>2018-05-21T08:30:36Z</time>
      </trkpt>
      <trkpt lat="42.771095959469676" lon="-7.297222958877683">
        <ele>843</ele>
        <time>2018-05-21T08:30:42Z</time>
      </trkpt>
      <trkpt lat="42.771269967779517" lon="-7.297038976103067">
        <ele>843</ele>
        <time>2018-05-21T08:30:48Z</time>
      </trkpt>
      <trkpt lat="42.771418998017907" lon="-7.296852981671691">
        <ele>854</ele>
        <time>2018-05-21T08:30:54Z</time>
      </trkpt>
      <trkpt lat="42.771602980792522" lon="-7.296609990298748">
        <ele>854</ele>
        <time>2018-05-21T08:31:02Z</time>
      </trkpt>
      <trkpt lat="42.771739019080997" lon="-7.296391976997256">
        <ele>854</ele>
        <time>2018-05-21T08:31:08Z</time>
      </trkpt>
      <trkpt lat="42.771830968558788" lon="-7.296218974515796">
        <ele>855</ele>
        <time>2018-05-21T08:31:13Z</time>
      </trkpt>
      <trkpt lat="42.771883020177484" lon="-7.296094000339508">
        <ele>855</ele>
        <time>2018-05-21T08:31:16Z</time>
      </trkpt>
      <trkpt lat="42.771920990198851" lon="-7.295941030606628">
        <ele>855</ele>
        <time>2018-05-21T08:31:20Z</time>
      </trkpt>
      <trkpt lat="42.771998019888997" lon="-7.295694015920162">
        <ele>855</ele>
        <time>2018-05-21T08:31:25Z</time>
      </trkpt>
      <trkpt lat="42.772020986303687" lon="-7.295510033145547">
        <ele>855</ele>
        <time>2018-05-21T08:31:29Z</time>
      </trkpt>
      <trkpt lat="42.772034984081984" lon="-7.295457981526852">
        <ele>855</ele>
        <time>2018-05-21T08:31:31Z</time>
      </trkpt>
      <trkpt lat="42.77204898186028" lon="-7.295405007898808">
        <ele>854</ele>
        <time>2018-05-21T08:31:32Z</time>
      </trkpt>
      <trkpt lat="42.772102039307356" lon="-7.295113988220692">
        <ele>854</ele>
        <time>2018-05-21T08:31:38Z</time>
      </trkpt>
      <trkpt lat="42.772169010713696" lon="-7.294748034328222">
        <ele>869</ele>
        <time>2018-05-21T08:31:47Z</time>
      </trkpt>
      <trkpt lat="42.772207986563444" lon="-7.294389037415385">
        <ele>870</ele>
        <time>2018-05-21T08:31:54Z</time>
      </trkpt>
      <trkpt lat="42.772203041240573" lon="-7.294058036059141">
        <ele>870</ele>
        <time>2018-05-21T08:32:02Z</time>
      </trkpt>
      <trkpt lat="42.772179991006851" lon="-7.293716976419091">
        <ele>870</ele>
        <time>2018-05-21T08:32:09Z</time>
      </trkpt>
      <trkpt lat="42.772145960479975" lon="-7.293468033894897">
        <ele>874</ele>
        <time>2018-05-21T08:32:14Z</time>
      </trkpt>
      <trkpt lat="42.772102039307356" lon="-7.293179025873542">
        <ele>858</ele>
        <time>2018-05-21T08:32:21Z</time>
      </trkpt>
      <trkpt lat="42.772020986303687" lon="-7.292913990095258">
        <ele>858</ele>
        <time>2018-05-21T08:32:27Z</time>
      </trkpt>
      <trkpt lat="42.772020986303687" lon="-7.292907033115625">
        <ele>858</ele>
        <time>2018-05-21T08:32:27Z</time>
      </trkpt>
      <trkpt lat="42.771944962441921" lon="-7.292663035914302">
        <ele>862</ele>
        <time>2018-05-21T08:32:33Z</time>
      </trkpt>
      <trkpt lat="42.771902969107032" lon="-7.292362963780761">
        <ele>862</ele>
        <time>2018-05-21T08:32:40Z</time>
      </trkpt>
      <trkpt lat="42.771846977993846" lon="-7.292074961587787">
        <ele>862</ele>
        <time>2018-05-21T08:32:46Z</time>
      </trkpt>
      <trkpt lat="42.771781012415886" lon="-7.291696015745401">
        <ele>868</ele>
        <time>2018-05-21T08:32:55Z</time>
      </trkpt>
      <trkpt lat="42.771728038787842" lon="-7.291343975812197">
        <ele>868</ele>
        <time>2018-05-21T08:33:02Z</time>
      </trkpt>
      <trkpt lat="42.771728038787842" lon="-7.291320003569126">
        <ele>868</ele>
        <time>2018-05-21T08:33:03Z</time>
      </trkpt>
      <trkpt lat="42.771690990775824" lon="-7.291052034124732">
        <ele>871</ele>
        <time>2018-05-21T08:33:09Z</time>
      </trkpt>
      <trkpt lat="42.771662995219231" lon="-7.290803007781506">
        <ele>871</ele>
        <time>2018-05-21T08:33:14Z</time>
      </trkpt>
      <trkpt lat="42.771634999662638" lon="-7.290589017793536">
        <ele>871</ele>
        <time>2018-05-21T08:33:19Z</time>
      </trkpt>
      <trkpt lat="42.771634999662638" lon="-7.290565967559815">
        <ele>871</ele>
        <time>2018-05-21T08:33:19Z</time>
      </trkpt>
      <trkpt lat="42.771634999662638" lon="-7.290507964789867">
        <ele>871</ele>
        <time>2018-05-21T08:33:21Z</time>
      </trkpt>
      <trkpt lat="42.771629970520735" lon="-7.290445016697049">
        <ele>871</ele>
        <time>2018-05-21T08:33:22Z</time>
      </trkpt>
      <trkpt lat="42.771626031026244" lon="-7.290393970906735">
        <ele>871</ele>
        <time>2018-05-21T08:33:23Z</time>
      </trkpt>
      <trkpt lat="42.771621001884341" lon="-7.290313001722097">
        <ele>870</ele>
        <time>2018-05-21T08:33:25Z</time>
      </trkpt>
      <trkpt lat="42.771615972742438" lon="-7.290237983688712">
        <ele>870</ele>
        <time>2018-05-21T08:33:27Z</time>
      </trkpt>
      <trkpt lat="42.771607004106045" lon="-7.290175035595894">
        <ele>870</ele>
        <time>2018-05-21T08:33:28Z</time>
      </trkpt>
      <trkpt lat="42.771601974964142" lon="-7.290118038654327">
        <ele>870</ele>
        <time>2018-05-21T08:33:29Z</time>
      </trkpt>
      <trkpt lat="42.771601974964142" lon="-7.29006003588438">
        <ele>870</ele>
        <time>2018-05-21T08:33:30Z</time>
      </trkpt>
      <trkpt lat="42.771598035469651" lon="-7.290003038942814">
        <ele>870</ele>
        <time>2018-05-21T08:33:32Z</time>
      </trkpt>
      <trkpt lat="42.771587977185845" lon="-7.289950987324119">
        <ele>870</ele>
        <time>2018-05-21T08:33:33Z</time>
      </trkpt>
      <trkpt lat="42.771587977185845" lon="-7.289893990382552">
        <ele>870</ele>
        <time>2018-05-21T08:33:34Z</time>
      </trkpt>
      <trkpt lat="42.771584037691355" lon="-7.28982500731945">
        <ele>870</ele>
        <time>2018-05-21T08:33:36Z</time>
      </trkpt>
      <trkpt lat="42.771584037691355" lon="-7.2897619754076">
        <ele>870</ele>
        <time>2018-05-21T08:33:37Z</time>
      </trkpt>
      <trkpt lat="42.771584037691355" lon="-7.289692992344499">
        <ele>870</ele>
        <time>2018-05-21T08:33:38Z</time>
      </trkpt>
      <trkpt lat="42.771584037691355" lon="-7.289624009281397">
        <ele>870</ele>
        <time>2018-05-21T08:33:40Z</time>
      </trkpt>
      <trkpt lat="42.771584037691355" lon="-7.289560977369547">
        <ele>870</ele>
        <time>2018-05-21T08:33:41Z</time>
      </trkpt>
      <trkpt lat="42.771584037691355" lon="-7.289498029276729">
        <ele>868</ele>
        <time>2018-05-21T08:33:43Z</time>
      </trkpt>
      <trkpt lat="42.771593006327748" lon="-7.28939400985837">
        <ele>868</ele>
        <time>2018-05-21T08:33:45Z</time>
      </trkpt>
      <trkpt lat="42.771593006327748" lon="-7.28933097794652">
        <ele>868</ele>
        <time>2018-05-21T08:33:46Z</time>
      </trkpt>
      <trkpt lat="42.771601974964142" lon="-7.289261994883418">
        <ele>868</ele>
        <time>2018-05-21T08:33:48Z</time>
      </trkpt>
      <trkpt lat="42.771607004106045" lon="-7.289182031527162">
        <ele>868</ele>
        <time>2018-05-21T08:33:50Z</time>
      </trkpt>
      <trkpt lat="42.771621001884341" lon="-7.289124028757215">
        <ele>868</ele>
        <time>2018-05-21T08:33:51Z</time>
      </trkpt>
      <trkpt lat="42.771629970520735" lon="-7.2890729829669">
        <ele>868</ele>
        <time>2018-05-21T08:33:52Z</time>
      </trkpt>
      <trkpt lat="42.771640028804541" lon="-7.289009029045701">
        <ele>868</ele>
        <time>2018-05-21T08:33:53Z</time>
      </trkpt>
      <trkpt lat="42.771648997440934" lon="-7.288957983255386">
        <ele>868</ele>
        <time>2018-05-21T08:33:55Z</time>
      </trkpt>
      <trkpt lat="42.771654026582837" lon="-7.288899980485439">
        <ele>868</ele>
        <time>2018-05-21T08:33:56Z</time>
      </trkpt>
      <trkpt lat="42.771668024361134" lon="-7.288842983543873">
        <ele>868</ele>
        <time>2018-05-21T08:33:57Z</time>
      </trkpt>
      <trkpt lat="42.77168202213943" lon="-7.288778023794293">
        <ele>868</ele>
        <time>2018-05-21T08:33:59Z</time>
      </trkpt>
      <trkpt lat="42.771690990775824" lon="-7.288725972175598">
        <ele>868</ele>
        <time>2018-05-21T08:34:00Z</time>
      </trkpt>
      <trkpt lat="42.771710017696023" lon="-7.28868599049747">
        <ele>861</ele>
        <time>2018-05-21T08:34:01Z</time>
      </trkpt>
      <trkpt lat="42.771739019080997" lon="-7.288643997162581">
        <ele>861</ele>
        <time>2018-05-21T08:34:02Z</time>
      </trkpt>
      <trkpt lat="42.771757962182164" lon="-7.288597980514169">
        <ele>861</ele>
        <time>2018-05-21T08:34:03Z</time>
      </trkpt>
      <trkpt lat="42.771777994930744" lon="-7.288548024371266">
        <ele>861</ele>
        <time>2018-05-21T08:34:04Z</time>
      </trkpt>
      <trkpt lat="42.771797021850944" lon="-7.288502007722855">
        <ele>861</ele>
        <time>2018-05-21T08:34:06Z</time>
      </trkpt>
      <trkpt lat="42.771819988265634" lon="-7.288455991074443">
        <ele>861</ele>
        <time>2018-05-21T08:34:07Z</time>
      </trkpt>
      <trkpt lat="42.771843038499355" lon="-7.288416009396315">
        <ele>861</ele>
        <time>2018-05-21T08:34:08Z</time>
      </trkpt>
      <trkpt lat="42.771867010742426" lon="-7.288369992747903">
        <ele>861</ele>
        <time>2018-05-21T08:34:09Z</time>
      </trkpt>
      <trkpt lat="42.771885031834245" lon="-7.288333028554916">
        <ele>861</ele>
        <time>2018-05-21T08:34:10Z</time>
      </trkpt>
      <trkpt lat="42.771909004077315" lon="-7.288292963057756">
        <ele>861</ele>
        <time>2018-05-21T08:34:11Z</time>
      </trkpt>
      <trkpt lat="42.771923001855612" lon="-7.288240995258093">
        <ele>861</ele>
        <time>2018-05-21T08:34:12Z</time>
      </trkpt>
      <trkpt lat="42.771950997412205" lon="-7.28819003328681">
        <ele>861</ele>
        <time>2018-05-21T08:34:14Z</time>
      </trkpt>
      <trkpt lat="42.771973963826895" lon="-7.288125995546579">
        <ele>861</ele>
        <time>2018-05-21T08:34:15Z</time>
      </trkpt>
      <trkpt lat="42.771997014060616" lon="-7.288091965019703">
        <ele>861</ele>
        <time>2018-05-21T08:34:16Z</time>
      </trkpt>
      <trkpt lat="42.772016040980816" lon="-7.288046032190323">
        <ele>861</ele>
        <time>2018-05-21T08:34:17Z</time>
      </trkpt>
      <trkpt lat="42.772044036537409" lon="-7.287989035248756">
        <ele>861</ele>
        <time>2018-05-21T08:34:19Z</time>
      </trkpt>
      <trkpt lat="42.772072032094002" lon="-7.287947963923216">
        <ele>861</ele>
        <time>2018-05-21T08:34:20Z</time>
      </trkpt>
      <trkpt lat="42.772094998508692" lon="-7.287902031093836">
        <ele>861</ele>
        <time>2018-05-21T08:34:21Z</time>
      </trkpt>
      <trkpt lat="42.772118970751762" lon="-7.287872023880482">
        <ele>872</ele>
        <time>2018-05-21T08:34:22Z</time>
      </trkpt>
      <trkpt lat="42.772132968530059" lon="-7.287819972261787">
        <ele>872</ele>
        <time>2018-05-21T08:34:24Z</time>
      </trkpt>
      <trkpt lat="42.772160964086652" lon="-7.287786025553942">
        <ele>872</ele>
        <time>2018-05-21T08:34:25Z</time>
      </trkpt>
      <trkpt lat="42.772188959643245" lon="-7.28774000890553">
        <ele>872</ele>
        <time>2018-05-21T08:34:26Z</time>
      </trkpt>
      <trkpt lat="42.772215027362108" lon="-7.287701033055782">
        <ele>872</ele>
        <time>2018-05-21T08:34:27Z</time>
      </trkpt>
      <trkpt lat="42.772243022918701" lon="-7.287648981437087">
        <ele>872</ele>
        <time>2018-05-21T08:34:29Z</time>
      </trkpt>
      <trkpt lat="42.772278981283307" lon="-7.287604976445437">
        <ele>872</ele>
        <time>2018-05-21T08:34:30Z</time>
      </trkpt>
      <trkpt lat="42.772302031517029" lon="-7.287564994767308">
        <ele>872</ele>
        <time>2018-05-21T08:34:31Z</time>
      </trkpt>
      <trkpt lat="42.772332038730383" lon="-7.287530964240432">
        <ele>872</ele>
        <time>2018-05-21T08:34:32Z</time>
      </trkpt>
      <trkpt lat="42.772357016801834" lon="-7.287501962855458">
        <ele>872</ele>
        <time>2018-05-21T08:34:33Z</time>
      </trkpt>
      <trkpt lat="42.772393980994821" lon="-7.287467010319233">
        <ele>872</ele>
        <time>2018-05-21T08:34:35Z</time>
      </trkpt>
      <trkpt lat="42.772427005693316" lon="-7.28743901476264">
        <ele>872</ele>
        <time>2018-05-21T08:34:36Z</time>
      </trkpt>
      <trkpt lat="42.772455001249909" lon="-7.287403978407383">
        <ele>872</ele>
        <time>2018-05-21T08:34:37Z</time>
      </trkpt>
      <trkpt lat="42.772477967664599" lon="-7.287363996729255">
        <ele>872</ele>
        <time>2018-05-21T08:34:38Z</time>
      </trkpt>
      <trkpt lat="42.772507974877954" lon="-7.28733298368752">
        <ele>872</ele>
        <time>2018-05-21T08:34:39Z</time>
      </trkpt>
      <trkpt lat="42.772535970434546" lon="-7.287299036979675">
        <ele>872</ele>
        <time>2018-05-21T08:34:40Z</time>
      </trkpt>
      <trkpt lat="42.772573018446565" lon="-7.287264000624418">
        <ele>872</ele>
        <time>2018-05-21T08:34:41Z</time>
      </trkpt>
      <trkpt lat="42.772605959326029" lon="-7.287217983976007">
        <ele>872</ele>
        <time>2018-05-21T08:34:43Z</time>
      </trkpt>
      <trkpt lat="42.772634038701653" lon="-7.287167022004724">
        <ele>872</ele>
        <time>2018-05-21T08:34:44Z</time>
      </trkpt>
      <trkpt lat="42.772651975974441" lon="-7.287126034498215">
        <ele>872</ele>
        <time>2018-05-21T08:34:45Z</time>
      </trkpt>
      <trkpt lat="42.772651975974441" lon="-7.2870749887079">
        <ele>872</ele>
        <time>2018-05-21T08:34:46Z</time>
      </trkpt>
      <trkpt lat="42.772623980417848" lon="-7.287023020908237">
        <ele>872</ele>
        <time>2018-05-21T08:34:48Z</time>
      </trkpt>
      <trkpt lat="42.772578969597816" lon="-7.286962000653148">
        <ele>872</ele>
        <time>2018-05-21T08:34:50Z</time>
      </trkpt>
      <trkpt lat="42.772556003183126" lon="-7.28692201897502">
        <ele>872</ele>
        <time>2018-05-21T08:34:51Z</time>
      </trkpt>
      <trkpt lat="42.772520966827869" lon="-7.286910032853484">
        <ele>872</ele>
        <time>2018-05-21T08:34:52Z</time>
      </trkpt>
      <trkpt lat="42.772489031776786" lon="-7.286886982619762">
        <ele>872</ele>
        <time>2018-05-21T08:34:53Z</time>
      </trkpt>
      <trkpt lat="42.772453995421529" lon="-7.286853035911918">
        <ele>872</ele>
        <time>2018-05-21T08:34:54Z</time>
      </trkpt>
      <trkpt lat="42.772416025400162" lon="-7.286829985678196">
        <ele>872</ele>
        <time>2018-05-21T08:34:55Z</time>
      </trkpt>
      <trkpt lat="42.772374032065272" lon="-7.286800984293222">
        <ele>872</ele>
        <time>2018-05-21T08:34:57Z</time>
      </trkpt>
      <trkpt lat="42.772313011810184" lon="-7.286758990958333">
        <ele>872</ele>
        <time>2018-05-21T08:34:59Z</time>
      </trkpt>
      <trkpt lat="42.772279987111688" lon="-7.28672998957336">
        <ele>872</ele>
        <time>2018-05-21T08:35:00Z</time>
      </trkpt>
      <trkpt lat="42.772237993776798" lon="-7.286695037037134">
        <ele>872</ele>
        <time>2018-05-21T08:35:02Z</time>
      </trkpt>
      <trkpt lat="42.772201029583812" lon="-7.286671986803412">
        <ele>872</ele>
        <time>2018-05-21T08:35:03Z</time>
      </trkpt>
      <trkpt lat="42.772168004885316" lon="-7.286650026217103">
        <ele>872</ele>
        <time>2018-05-21T08:35:04Z</time>
      </trkpt>
      <trkpt lat="42.772135986015201" lon="-7.286626975983381">
        <ele>872</ele>
        <time>2018-05-21T08:35:05Z</time>
      </trkpt>
      <trkpt lat="42.772107990458608" lon="-7.286597974598408">
        <ele>859</ele>
        <time>2018-05-21T08:35:06Z</time>
      </trkpt>
      <trkpt lat="42.772059040144086" lon="-7.286585988476872">
        <ele>859</ele>
        <time>2018-05-21T08:35:07Z</time>
      </trkpt>
      <trkpt lat="42.771955020725727" lon="-7.286552041769028">
        <ele>859</ele>
        <time>2018-05-21T08:35:11Z</time>
      </trkpt>
      <trkpt lat="42.771877991035581" lon="-7.286502001807094">
        <ele>859</ele>
        <time>2018-05-21T08:35:13Z</time>
      </trkpt>
      <trkpt lat="42.771799033507705" lon="-7.28645003400743">
        <ele>859</ele>
        <time>2018-05-21T08:35:16Z</time>
      </trkpt>
      <trkpt lat="42.771765002980828" lon="-7.286424972116947">
        <ele>859</ele>
        <time>2018-05-21T08:35:17Z</time>
      </trkpt>
      <trkpt lat="42.771723009645939" lon="-7.286420026794076">
        <ele>859</ele>
        <time>2018-05-21T08:35:18Z</time>
      </trkpt>
      <trkpt lat="42.771699037402868" lon="-7.286379039287567">
        <ele>859</ele>
        <time>2018-05-21T08:35:19Z</time>
      </trkpt>
      <trkpt lat="42.771653020754457" lon="-7.286321958526969">
        <ele>859</ele>
        <time>2018-05-21T08:35:21Z</time>
      </trkpt>
      <trkpt lat="42.771615972742438" lon="-7.286287005990744">
        <ele>859</ele>
        <time>2018-05-21T08:35:23Z</time>
      </trkpt>
      <trkpt lat="42.771573979407549" lon="-7.286240989342332">
        <ele>859</ele>
        <time>2018-05-21T08:35:24Z</time>
      </trkpt>
      <trkpt lat="42.771557969972491" lon="-7.286188015714288">
        <ele>887</ele>
        <time>2018-05-21T08:35:25Z</time>
      </trkpt>
      <trkpt lat="42.771543972194195" lon="-7.286141999065876">
        <ele>887</ele>
        <time>2018-05-21T08:35:27Z</time>
      </trkpt>
      <trkpt lat="42.771529974415898" lon="-7.286095982417464">
        <ele>887</ele>
        <time>2018-05-21T08:35:28Z</time>
      </trkpt>
      <trkpt lat="42.771515976637602" lon="-7.286049965769053">
        <ele>887</ele>
        <time>2018-05-21T08:35:29Z</time>
      </trkpt>
      <trkpt lat="42.771479012444615" lon="-7.286004032939673">
        <ele>887</ele>
        <time>2018-05-21T08:35:30Z</time>
      </trkpt>
      <trkpt lat="42.771449005231261" lon="-7.285973019897938">
        <ele>887</ele>
        <time>2018-05-21T08:35:32Z</time>
      </trkpt>
      <trkpt lat="42.771415980532765" lon="-7.285938989371061">
        <ele>887</ele>
        <time>2018-05-21T08:35:33Z</time>
      </trkpt>
      <trkpt lat="42.771378010511398" lon="-7.285927003249526">
        <ele>887</ele>
        <time>2018-05-21T08:35:34Z</time>
      </trkpt>
      <trkpt lat="42.771322019398212" lon="-7.285927003249526">
        <ele>887</ele>
        <time>2018-05-21T08:35:36Z</time>
      </trkpt>
      <trkpt lat="42.771280026063323" lon="-7.285927003249526">
        <ele>889</ele>
        <time>2018-05-21T08:35:37Z</time>
      </trkpt>
      <trkpt lat="42.771236021071672" lon="-7.285927003249526">
        <ele>889</ele>
        <time>2018-05-21T08:35:38Z</time>
      </trkpt>
      <trkpt lat="42.771199978888035" lon="-7.285938989371061">
        <ele>889</ele>
        <time>2018-05-21T08:35:39Z</time>
      </trkpt>
      <trkpt lat="42.771161003038287" lon="-7.285938989371061">
        <ele>889</ele>
        <time>2018-05-21T08:35:40Z</time>
      </trkpt>
      <trkpt lat="42.771124038845301" lon="-7.285945024341345">
        <ele>889</ele>
        <time>2018-05-21T08:35:42Z</time>
      </trkpt>
      <trkpt lat="42.771084979176521" lon="-7.285949969664216">
        <ele>889</ele>
        <time>2018-05-21T08:35:43Z</time>
      </trkpt>
      <trkpt lat="42.771042985841632" lon="-7.2859560046345">
        <ele>889</ele>
        <time>2018-05-21T08:35:44Z</time>
      </trkpt>
      <trkpt lat="42.77099596336484" lon="-7.28597897104919">
        <ele>889</ele>
        <time>2018-05-21T08:35:45Z</time>
      </trkpt>
      <trkpt lat="42.770967967808247" lon="-7.285995986312628">
        <ele>889</ele>
        <time>2018-05-21T08:35:46Z</time>
      </trkpt>
      <trkpt lat="42.770936032757163" lon="-7.286007972434163">
        <ele>889</ele>
        <time>2018-05-21T08:35:47Z</time>
      </trkpt>
      <trkpt lat="42.770897978916764" lon="-7.286014007404447">
        <ele>889</ele>
        <time>2018-05-21T08:35:48Z</time>
      </trkpt>
      <trkpt lat="42.770855985581875" lon="-7.286024987697601">
        <ele>889</ele>
        <time>2018-05-21T08:35:50Z</time>
      </trkpt>
      <trkpt lat="42.770813992246985" lon="-7.286035967990756">
        <ele>889</ele>
        <time>2018-05-21T08:35:51Z</time>
      </trkpt>
      <trkpt lat="42.770771998912096" lon="-7.28604200296104">
        <ele>889</ele>
        <time>2018-05-21T08:35:52Z</time>
      </trkpt>
      <trkpt lat="42.77073503471911" lon="-7.286048037931323">
        <ele>889</ele>
        <time>2018-05-21T08:35:53Z</time>
      </trkpt>
      <trkpt lat="42.77069304138422" lon="-7.286059018224478">
        <ele>889</ele>
        <time>2018-05-21T08:35:55Z</time>
      </trkpt>
      <trkpt lat="42.770650964230299" lon="-7.28606496937573">
        <ele>889</ele>
        <time>2018-05-21T08:35:56Z</time>
      </trkpt>
      <trkpt lat="42.77060897089541" lon="-7.286071004346013">
        <ele>889</ele>
        <time>2018-05-21T08:35:57Z</time>
      </trkpt>
      <trkpt lat="42.77056697756052" lon="-7.286071004346013">
        <ele>889</ele>
        <time>2018-05-21T08:35:58Z</time>
      </trkpt>
      <trkpt lat="42.770530013367534" lon="-7.286077039316297">
        <ele>889</ele>
        <time>2018-05-21T08:35:59Z</time>
      </trkpt>
      <trkpt lat="42.770488020032644" lon="-7.286081984639168">
        <ele>889</ele>
        <time>2018-05-21T08:36:01Z</time>
      </trkpt>
      <trkpt lat="42.770446026697755" lon="-7.286100005730987">
        <ele>897</ele>
        <time>2018-05-21T08:36:02Z</time>
      </trkpt>
      <trkpt lat="42.770404033362865" lon="-7.286110986024141">
        <ele>897</ele>
        <time>2018-05-21T08:36:03Z</time>
      </trkpt>
      <trkpt lat="42.770366985350847" lon="-7.286117020994425">
        <ele>897</ele>
        <time>2018-05-21T08:36:04Z</time>
      </trkpt>
      <trkpt lat="42.77032901532948" lon="-7.28612800128758">
        <ele>897</ele>
        <time>2018-05-21T08:36:06Z</time>
      </trkpt>
      <trkpt lat="42.770291967317462" lon="-7.286134036257863">
        <ele>897</ele>
        <time>2018-05-21T08:36:07Z</time>
      </trkpt>
      <trkpt lat="42.770255003124475" lon="-7.286139987409115">
        <ele>897</ele>
        <time>2018-05-21T08:36:08Z</time>
      </trkpt>
      <trkpt lat="42.770207980647683" lon="-7.286146022379398">
        <ele>897</ele>
        <time>2018-05-21T08:36:09Z</time>
      </trkpt>
      <trkpt lat="42.770165987312794" lon="-7.286157002672553">
        <ele>897</ele>
        <time>2018-05-21T08:36:10Z</time>
      </trkpt>
      <trkpt lat="42.770129023119807" lon="-7.286163037642837">
        <ele>897</ele>
        <time>2018-05-21T08:36:11Z</time>
      </trkpt>
      <trkpt lat="42.770090969279408" lon="-7.286168988794088">
        <ele>897</ele>
        <time>2018-05-21T08:36:13Z</time>
      </trkpt>
      <trkpt lat="42.7700499817729" lon="-7.286179969087243">
        <ele>897</ele>
        <time>2018-05-21T08:36:14Z</time>
      </trkpt>
      <trkpt lat="42.770012011751533" lon="-7.28619203902781">
        <ele>897</ele>
        <time>2018-05-21T08:36:15Z</time>
      </trkpt>
      <trkpt lat="42.769974963739514" lon="-7.286208970472217">
        <ele>897</ele>
        <time>2018-05-21T08:36:16Z</time>
      </trkpt>
      <trkpt lat="42.769932970404625" lon="-7.2862150054425">
        <ele>897</ele>
        <time>2018-05-21T08:36:17Z</time>
      </trkpt>
      <trkpt lat="42.769890977069736" lon="-7.286232020705938">
        <ele>897</ele>
        <time>2018-05-21T08:36:19Z</time>
      </trkpt>
      <trkpt lat="42.769848983734846" lon="-7.28623696602881">
        <ele>897</ele>
        <time>2018-05-21T08:36:20Z</time>
      </trkpt>
      <trkpt lat="42.769806990399957" lon="-7.286243000999093">
        <ele>876</ele>
        <time>2018-05-21T08:36:21Z</time>
      </trkpt>
      <trkpt lat="42.769764997065067" lon="-7.286254987120628">
        <ele>876</ele>
        <time>2018-05-21T08:36:22Z</time>
      </trkpt>
      <trkpt lat="42.769731972366571" lon="-7.28627803735435">
        <ele>876</ele>
        <time>2018-05-21T08:36:24Z</time>
      </trkpt>
      <trkpt lat="42.769695008173585" lon="-7.286282982677221">
        <ele>876</ele>
        <time>2018-05-21T08:36:25Z</time>
      </trkpt>
      <trkpt lat="42.769657960161567" lon="-7.286289017647505">
        <ele>876</ele>
        <time>2018-05-21T08:36:26Z</time>
      </trkpt>
      <trkpt lat="42.769615966826677" lon="-7.286289017647505">
        <ele>882</ele>
        <time>2018-05-21T08:36:27Z</time>
      </trkpt>
      <trkpt lat="42.769573973491788" lon="-7.286294968798757">
        <ele>882</ele>
        <time>2018-05-21T08:36:28Z</time>
      </trkpt>
      <trkpt lat="42.769531980156898" lon="-7.286294968798757">
        <ele>882</ele>
        <time>2018-05-21T08:36:30Z</time>
      </trkpt>
      <trkpt lat="42.769495015963912" lon="-7.28630100376904">
        <ele>882</ele>
        <time>2018-05-21T08:36:31Z</time>
      </trkpt>
      <trkpt lat="42.769453022629023" lon="-7.28630100376904">
        <ele>882</ele>
        <time>2018-05-21T08:36:32Z</time>
      </trkpt>
      <trkpt lat="42.769407005980611" lon="-7.28630100376904">
        <ele>882</ele>
        <time>2018-05-21T08:36:33Z</time>
      </trkpt>
      <trkpt lat="42.769366018474102" lon="-7.28630100376904">
        <ele>882</ele>
        <time>2018-05-21T08:36:34Z</time>
      </trkpt>
      <trkpt lat="42.76932000182569" lon="-7.28630100376904">
        <ele>882</ele>
        <time>2018-05-21T08:36:36Z</time>
      </trkpt>
      <trkpt lat="42.769282031804323" lon="-7.28630100376904">
        <ele>882</ele>
        <time>2018-05-21T08:36:37Z</time>
      </trkpt>
      <trkpt lat="42.769145993515849" lon="-7.286308966577053">
        <ele>882</ele>
        <time>2018-05-21T08:36:41Z</time>
      </trkpt>
      <trkpt lat="42.768946001306176" lon="-7.286336040124297">
        <ele>882</ele>
        <time>2018-05-21T08:36:47Z</time>
      </trkpt>
      <trkpt lat="42.768811974674463" lon="-7.286347020417452">
        <ele>882</ele>
        <time>2018-05-21T08:36:51Z</time>
      </trkpt>
      <trkpt lat="42.76867400854826" lon="-7.286371998488903">
        <ele>894</ele>
        <time>2018-05-21T08:36:55Z</time>
      </trkpt>
      <trkpt lat="42.768553979694843" lon="-7.286402005702257">
        <ele>894</ele>
        <time>2018-05-21T08:36:59Z</time>
      </trkpt>
      <trkpt lat="42.768325991928577" lon="-7.286465959623456">
        <ele>894</ele>
        <time>2018-05-21T08:37:06Z</time>
      </trkpt>
      <trkpt lat="42.768305959179997" lon="-7.286482974886894">
        <ele>894</ele>
        <time>2018-05-21T08:37:06Z</time>
      </trkpt>
      <trkpt lat="42.768252985551953" lon="-7.286491021513939">
        <ele>894</ele>
        <time>2018-05-21T08:37:08Z</time>
      </trkpt>
      <trkpt lat="42.768192971125245" lon="-7.286491021513939">
        <ele>894</ele>
        <time>2018-05-21T08:37:10Z</time>
      </trkpt>
      <trkpt lat="42.76813798584044" lon="-7.286491021513939">
        <ele>894</ele>
        <time>2018-05-21T08:37:11Z</time>
      </trkpt>
      <trkpt lat="42.768077971413732" lon="-7.286474006250501">
        <ele>894</ele>
        <time>2018-05-21T08:37:13Z</time>
      </trkpt>
      <trkpt lat="42.768018040806055" lon="-7.286474006250501">
        <ele>894</ele>
        <time>2018-05-21T08:37:15Z</time>
      </trkpt>
      <trkpt lat="42.767955008894205" lon="-7.286465959623456">
        <ele>894</ele>
        <time>2018-05-21T08:37:17Z</time>
      </trkpt>
      <trkpt lat="42.767902035266161" lon="-7.286441987380385">
        <ele>895</ele>
        <time>2018-05-21T08:37:18Z</time>
      </trkpt>
      <trkpt lat="42.76785995811224" lon="-7.286424972116947">
        <ele>895</ele>
        <time>2018-05-21T08:37:20Z</time>
      </trkpt>
      <trkpt lat="42.767803966999054" lon="-7.286417009308934">
        <ele>895</ele>
        <time>2018-05-21T08:37:21Z</time>
      </trkpt>
      <trkpt lat="42.767738001421094" lon="-7.286400999873877">
        <ele>895</ele>
        <time>2018-05-21T08:37:23Z</time>
      </trkpt>
      <trkpt lat="42.767677986994386" lon="-7.286400999873877">
        <ele>895</ele>
        <time>2018-05-21T08:37:25Z</time>
      </trkpt>
      <trkpt lat="42.767613027244806" lon="-7.286390019580722">
        <ele>895</ele>
        <time>2018-05-21T08:37:27Z</time>
      </trkpt>
      <trkpt lat="42.767571033909917" lon="-7.286362024024129">
        <ele>895</ele>
        <time>2018-05-21T08:37:28Z</time>
      </trkpt>
      <trkpt lat="42.767526023089886" lon="-7.286346014589071">
        <ele>895</ele>
        <time>2018-05-21T08:37:30Z</time>
      </trkpt>
      <trkpt lat="42.767480006441474" lon="-7.286254987120628">
        <ele>895</ele>
        <time>2018-05-21T08:37:32Z</time>
      </trkpt>
      <trkpt lat="42.767459973692894" lon="-7.28619497269392">
        <ele>888</ele>
        <time>2018-05-21T08:37:34Z</time>
      </trkpt>
      <trkpt lat="42.767445975914598" lon="-7.286112997680903">
        <ele>888</ele>
        <time>2018-05-21T08:37:35Z</time>
      </trkpt>
      <trkpt lat="42.767445975914598" lon="-7.286031022667885">
        <ele>888</ele>
        <time>2018-05-21T08:37:37Z</time>
      </trkpt>
      <trkpt lat="42.767453016713262" lon="-7.28595701046288">
        <ele>888</ele>
        <time>2018-05-21T08:37:39Z</time>
      </trkpt>
      <trkpt lat="42.767453016713262" lon="-7.285882998257875">
        <ele>888</ele>
        <time>2018-05-21T08:37:41Z</time>
      </trkpt>
      <trkpt lat="42.767453016713262" lon="-7.285767998546362">
        <ele>888</ele>
        <time>2018-05-21T08:37:43Z</time>
      </trkpt>
      <trkpt lat="42.767466008663177" lon="-7.2856779769063">
        <ele>888</ele>
        <time>2018-05-21T08:37:45Z</time>
      </trkpt>
      <trkpt lat="42.76747296564281" lon="-7.285603964701295">
        <ele>888</ele>
        <time>2018-05-21T08:37:47Z</time>
      </trkpt>
      <trkpt lat="42.76749299839139" lon="-7.285546967759728">
        <ele>888</ele>
        <time>2018-05-21T08:37:48Z</time>
      </trkpt>
      <trkpt lat="42.767526023089886" lon="-7.285498017445207">
        <ele>888</ele>
        <time>2018-05-21T08:37:50Z</time>
      </trkpt>
      <trkpt lat="42.767566004768014" lon="-7.285415958613157">
        <ele>888</ele>
        <time>2018-05-21T08:37:52Z</time>
      </trkpt>
      <trkpt lat="42.767592994496226" lon="-7.285358039662242">
        <ele>888</ele>
        <time>2018-05-21T08:37:53Z</time>
      </trkpt>
      <trkpt lat="42.767618978396058" lon="-7.285292996093631">
        <ele>888</ele>
        <time>2018-05-21T08:37:55Z</time>
      </trkpt>
      <trkpt lat="42.76764596812427" lon="-7.285194005817175">
        <ele>877</ele>
        <time>2018-05-21T08:37:57Z</time>
      </trkpt>
      <trkpt lat="42.76768603362143" lon="-7.285112030804157">
        <ele>877</ele>
        <time>2018-05-21T08:37:59Z</time>
      </trkpt>
      <trkpt lat="42.767705982550979" lon="-7.285038018599153">
        <ele>877</ele>
        <time>2018-05-21T08:38:01Z</time>
      </trkpt>
      <trkpt lat="42.767732972279191" lon="-7.284972975030541">
        <ele>877</ele>
        <time>2018-05-21T08:38:03Z</time>
      </trkpt>
      <trkpt lat="42.767765996977687" lon="-7.284914972260594">
        <ele>877</ele>
        <time>2018-05-21T08:38:04Z</time>
      </trkpt>
      <trkpt lat="42.767788041383028" lon="-7.284846995025873">
        <ele>877</ele>
        <time>2018-05-21T08:38:06Z</time>
      </trkpt>
      <trkpt lat="42.767828023061156" lon="-7.284788992255926">
        <ele>877</ele>
        <time>2018-05-21T08:38:08Z</time>
      </trkpt>
      <trkpt lat="42.767842020839453" lon="-7.284721015021205">
        <ele>877</ele>
        <time>2018-05-21T08:38:09Z</time>
      </trkpt>
      <trkpt lat="42.767868004739285" lon="-7.284639040008187">
        <ele>877</ele>
        <time>2018-05-21T08:38:11Z</time>
      </trkpt>
      <trkpt lat="42.7678809966892" lon="-7.284556981176138">
        <ele>877</ele>
        <time>2018-05-21T08:38:13Z</time>
      </trkpt>
      <trkpt lat="42.767894994467497" lon="-7.284436030313373">
        <ele>865</ele>
        <time>2018-05-21T08:38:15Z</time>
      </trkpt>
      <trkpt lat="42.767899017781019" lon="-7.284271996468306">
        <ele>865</ele>
        <time>2018-05-21T08:38:19Z</time>
      </trkpt>
      <trkpt lat="42.767899017781019" lon="-7.284247018396854">
        <ele>865</ele>
        <time>2018-05-21T08:38:20Z</time>
      </trkpt>
      <trkpt lat="42.767904968932271" lon="-7.28417401202023">
        <ele>865</ele>
        <time>2018-05-21T08:38:21Z</time>
      </trkpt>
      <trkpt lat="42.767931958660483" lon="-7.284116009250283">
        <ele>865</ele>
        <time>2018-05-21T08:38:23Z</time>
      </trkpt>
      <trkpt lat="42.767931958660483" lon="-7.284041997045279">
        <ele>865</ele>
        <time>2018-05-21T08:38:24Z</time>
      </trkpt>
      <trkpt lat="42.767938999459147" lon="-7.283910987898707">
        <ele>888</ele>
        <time>2018-05-21T08:38:27Z</time>
      </trkpt>
      <trkpt lat="42.767959032207727" lon="-7.283804034814239">
        <ele>888</ele>
        <time>2018-05-21T08:38:30Z</time>
      </trkpt>
      <trkpt lat="42.767964983358979" lon="-7.283721975982189">
        <ele>888</ele>
        <time>2018-05-21T08:38:31Z</time>
      </trkpt>
      <trkpt lat="42.767978981137276" lon="-7.283640000969172">
        <ele>888</ele>
        <time>2018-05-21T08:38:33Z</time>
      </trkpt>
      <trkpt lat="42.767999013885856" lon="-7.283549979329109">
        <ele>883</ele>
        <time>2018-05-21T08:38:35Z</time>
      </trkpt>
      <trkpt lat="42.768024997785687" lon="-7.283434979617596">
        <ele>883</ele>
        <time>2018-05-21T08:38:38Z</time>
      </trkpt>
      <trkpt lat="42.768041007220745" lon="-7.283358033746481">
        <ele>883</ele>
        <time>2018-05-21T08:38:40Z</time>
      </trkpt>
      <trkpt lat="42.768067996948957" lon="-7.283268012106419">
        <ele>883</ele>
        <time>2018-05-21T08:38:42Z</time>
      </trkpt>
      <trkpt lat="42.768076965585351" lon="-7.283174972981215">
        <ele>883</ele>
        <time>2018-05-21T08:38:44Z</time>
      </trkpt>
      <trkpt lat="42.768076965585351" lon="-7.283086962997913">
        <ele>883</ele>
        <time>2018-05-21T08:38:46Z</time>
      </trkpt>
      <trkpt lat="42.768070008605719" lon="-7.282947991043329">
        <ele>883</ele>
        <time>2018-05-21T08:38:49Z</time>
      </trkpt>
      <trkpt lat="42.768057016655803" lon="-7.282832991331816">
        <ele>883</ele>
        <time>2018-05-21T08:38:51Z</time>
      </trkpt>
      <trkpt lat="42.76803002692759" lon="-7.282758979126811">
        <ele>885</ele>
        <time>2018-05-21T08:38:53Z</time>
      </trkpt>
      <trkpt lat="42.767976969480515" lon="-7.282710028812289">
        <ele>885</ele>
        <time>2018-05-21T08:38:55Z</time>
      </trkpt>
      <trkpt lat="42.767917038872838" lon="-7.282677004113793">
        <ele>878</ele>
        <time>2018-05-21T08:38:57Z</time>
      </trkpt>
      <trkpt lat="42.767849983647466" lon="-7.282684966921806">
        <ele>878</ele>
        <time>2018-05-21T08:38:59Z</time>
      </trkpt>
      <trkpt lat="42.767788041383028" lon="-7.282684966921806">
        <ele>878</ele>
        <time>2018-05-21T08:39:01Z</time>
      </trkpt>
      <trkpt lat="42.76773196645081" lon="-7.282710028812289">
        <ele>878</ele>
        <time>2018-05-21T08:39:02Z</time>
      </trkpt>
      <trkpt lat="42.767672035843134" lon="-7.28273400105536">
        <ele>878</ele>
        <time>2018-05-21T08:39:04Z</time>
      </trkpt>
      <trkpt lat="42.767616966739297" lon="-7.282774988561869">
        <ele>878</ele>
        <time>2018-05-21T08:39:06Z</time>
      </trkpt>
      <trkpt lat="42.767554018646479" lon="-7.282792003825307">
        <ele>878</ele>
        <time>2018-05-21T08:39:08Z</time>
      </trkpt>
      <trkpt lat="42.767499033361673" lon="-7.282818993553519">
        <ele>862</ele>
        <time>2018-05-21T08:39:10Z</time>
      </trkpt>
      <trkpt lat="42.767439018934965" lon="-7.282836008816958">
        <ele>862</ele>
        <time>2018-05-21T08:39:12Z</time>
      </trkpt>
      <trkpt lat="42.767366012558341" lon="-7.282852018252015">
        <ele>862</ele>
        <time>2018-05-21T08:39:14Z</time>
      </trkpt>
      <trkpt lat="42.767308009788394" lon="-7.282852018252015">
        <ele>862</ele>
        <time>2018-05-21T08:39:16Z</time>
      </trkpt>
      <trkpt lat="42.767210025340319" lon="-7.28286299854517">
        <ele>862</ele>
        <time>2018-05-21T08:39:18Z</time>
      </trkpt>
      <trkpt lat="42.767037022858858" lon="-7.282903986051679">
        <ele>857</ele>
        <time>2018-05-21T08:39:24Z</time>
      </trkpt>
      <trkpt lat="42.767017995938659" lon="-7.282914966344833">
        <ele>857</ele>
        <time>2018-05-21T08:39:24Z</time>
      </trkpt>
      <trkpt lat="42.766886986792088" lon="-7.282931981608272">
        <ele>857</ele>
        <time>2018-05-21T08:39:28Z</time>
      </trkpt>
      <trkpt lat="42.766718007624149" lon="-7.282940028235316">
        <ele>857</ele>
        <time>2018-05-21T08:39:33Z</time>
      </trkpt>
      <trkpt lat="42.766493959352374" lon="-7.28290700353682">
        <ele>857</ele>
        <time>2018-05-21T08:39:40Z</time>
      </trkpt>
      <trkpt lat="42.766360016539693" lon="-7.282890994101763">
        <ele>857</ele>
        <time>2018-05-21T08:39:44Z</time>
      </trkpt>
      <trkpt lat="42.76626898907125" lon="-7.282890994101763">
        <ele>850</ele>
        <time>2018-05-21T08:39:47Z</time>
      </trkpt>
      <trkpt lat="42.766078971326351" lon="-7.282795021310449">
        <ele>869</ele>
        <time>2018-05-21T08:39:53Z</time>
      </trkpt>
      <trkpt lat="42.765919966623187" lon="-7.282742969691753">
        <ele>869</ele>
        <time>2018-05-21T08:39:57Z</time>
      </trkpt>
      <trkpt lat="42.765802033245564" lon="-7.282652026042342">
        <ele>869</ele>
        <time>2018-05-21T08:40:01Z</time>
      </trkpt>
      <trkpt lat="42.765701031312346" lon="-7.282586982473731">
        <ele>869</ele>
        <time>2018-05-21T08:40:05Z</time>
      </trkpt>
      <trkpt lat="42.765559041872621" lon="-7.282447004690766">
        <ele>869</ele>
        <time>2018-05-21T08:40:10Z</time>
      </trkpt>
      <trkpt lat="42.765415962785482" lon="-7.282252041622996">
        <ele>852</ele>
        <time>2018-05-21T08:40:16Z</time>
      </trkpt>
      <trkpt lat="42.765296017751098" lon="-7.282088007777929">
        <ele>852</ele>
        <time>2018-05-21T08:40:21Z</time>
      </trkpt>
      <trkpt lat="42.765125026926398" lon="-7.281802017241716">
        <ele>865</ele>
        <time>2018-05-21T08:40:29Z</time>
      </trkpt>
      <trkpt lat="42.764970967546105" lon="-7.281648041680455">
        <ele>865</ele>
        <time>2018-05-21T08:40:35Z</time>
      </trkpt>
      <trkpt lat="42.764876000583172" lon="-7.281503034755588">
        <ele>865</ele>
        <time>2018-05-21T08:40:39Z</time>
      </trkpt>
      <trkpt lat="42.764739962294698" lon="-7.281268006190658">
        <ele>865</ele>
        <time>2018-05-21T08:40:45Z</time>
      </trkpt>
      <trkpt lat="42.764621023088694" lon="-7.281084023416042">
        <ele>855</ele>
        <time>2018-05-21T08:40:51Z</time>
      </trkpt>
      <trkpt lat="42.764499988406897" lon="-7.280811024829745">
        <ele>855</ele>
        <time>2018-05-21T08:40:57Z</time>
      </trkpt>
      <trkpt lat="42.764418013393879" lon="-7.280479017645121">
        <ele>855</ele>
        <time>2018-05-21T08:41:05Z</time>
      </trkpt>
      <trkpt lat="42.764405021443963" lon="-7.280452027916908">
        <ele>855</ele>
        <time>2018-05-21T08:41:06Z</time>
      </trkpt>
      <trkpt lat="42.764357998967171" lon="-7.280222028493881">
        <ele>858</ele>
        <time>2018-05-21T08:41:11Z</time>
      </trkpt>
      <trkpt lat="42.764331009238958" lon="-7.280181040987372">
        <ele>858</ele>
        <time>2018-05-21T08:41:12Z</time>
      </trkpt>
      <trkpt lat="42.764318017289042" lon="-7.280098982155323">
        <ele>858</ele>
        <time>2018-05-21T08:41:14Z</time>
      </trkpt>
      <trkpt lat="42.764305025339127" lon="-7.27998398244381">
        <ele>858</ele>
        <time>2018-05-21T08:41:16Z</time>
      </trkpt>
      <trkpt lat="42.764297984540462" lon="-7.279902007430792">
        <ele>858</ele>
        <time>2018-05-21T08:41:18Z</time>
      </trkpt>
      <trkpt lat="42.764297984540462" lon="-7.279787007719278">
        <ele>858</ele>
        <time>2018-05-21T08:41:21Z</time>
      </trkpt>
      <trkpt lat="42.764297984540462" lon="-7.279705032706261">
        <ele>858</ele>
        <time>2018-05-21T08:41:23Z</time>
      </trkpt>
      <trkpt lat="42.764297984540462" lon="-7.279631020501256">
        <ele>858</ele>
        <time>2018-05-21T08:41:24Z</time>
      </trkpt>
      <trkpt lat="42.764297984540462" lon="-7.279533036053181">
        <ele>858</ele>
        <time>2018-05-21T08:41:26Z</time>
      </trkpt>
      <trkpt lat="42.764297984540462" lon="-7.279459023848176">
        <ele>859</ele>
        <time>2018-05-21T08:41:28Z</time>
      </trkpt>
      <trkpt lat="42.764297984540462" lon="-7.279369002208114">
        <ele>859</ele>
        <time>2018-05-21T08:41:30Z</time>
      </trkpt>
      <trkpt lat="42.764297984540462" lon="-7.279278980568051">
        <ele>859</ele>
        <time>2018-05-21T08:41:32Z</time>
      </trkpt>
      <trkpt lat="42.764297984540462" lon="-7.27918803691864">
        <ele>859</ele>
        <time>2018-05-21T08:41:34Z</time>
      </trkpt>
      <trkpt lat="42.764297984540462" lon="-7.279115030542016">
        <ele>859</ele>
        <time>2018-05-21T08:41:35Z</time>
      </trkpt>
      <trkpt lat="42.764297984540462" lon="-7.278967006132007">
        <ele>859</ele>
        <time>2018-05-21T08:41:39Z</time>
      </trkpt>
      <trkpt lat="42.764297984540462" lon="-7.278835996985436">
        <ele>859</ele>
        <time>2018-05-21T08:41:41Z</time>
      </trkpt>
      <trkpt lat="42.764297984540462" lon="-7.278744969516993">
        <ele>859</ele>
        <time>2018-05-21T08:41:43Z</time>
      </trkpt>
      <trkpt lat="42.764305025339127" lon="-7.278671963140369">
        <ele>858</ele>
        <time>2018-05-21T08:41:45Z</time>
      </trkpt>
      <trkpt lat="42.764305025339127" lon="-7.278572972863913">
        <ele>858</ele>
        <time>2018-05-21T08:41:47Z</time>
      </trkpt>
      <trkpt lat="42.764318017289042" lon="-7.278490997850895">
        <ele>858</ele>
        <time>2018-05-21T08:41:49Z</time>
      </trkpt>
      <trkpt lat="42.764318017289042" lon="-7.27841698564589">
        <ele>858</ele>
        <time>2018-05-21T08:41:51Z</time>
      </trkpt>
      <trkpt lat="42.764331009238958" lon="-7.278321012854576">
        <ele>858</ele>
        <time>2018-05-21T08:41:53Z</time>
      </trkpt>
      <trkpt lat="42.764331009238958" lon="-7.278230991214514">
        <ele>858</ele>
        <time>2018-05-21T08:41:55Z</time>
      </trkpt>
      <trkpt lat="42.764337966218591" lon="-7.278140969574451">
        <ele>858</ele>
        <time>2018-05-21T08:41:57Z</time>
      </trkpt>
      <trkpt lat="42.764345007017255" lon="-7.278058994561434">
        <ele>858</ele>
        <time>2018-05-21T08:41:58Z</time>
      </trkpt>
      <trkpt lat="42.764366967603564" lon="-7.277990011498332">
        <ele>858</ele>
        <time>2018-05-21T08:42:00Z</time>
      </trkpt>
      <trkpt lat="42.764387000352144" lon="-7.277929997071624">
        <ele>858</ele>
        <time>2018-05-21T08:42:01Z</time>
      </trkpt>
      <trkpt lat="42.764413990080357" lon="-7.277798987925053">
        <ele>854</ele>
        <time>2018-05-21T08:42:04Z</time>
      </trkpt>
      <trkpt lat="42.764445003122091" lon="-7.277735034003854">
        <ele>854</ele>
        <time>2018-05-21T08:42:06Z</time>
      </trkpt>
      <trkpt lat="42.764480961486697" lon="-7.277650963515043">
        <ele>854</ele>
        <time>2018-05-21T08:42:08Z</time>
      </trkpt>
      <trkpt lat="42.764519015327096" lon="-7.277540992945433">
        <ele>854</ele>
        <time>2018-05-21T08:42:11Z</time>
      </trkpt>
      <trkpt lat="42.764550028368831" lon="-7.277489025145769">
        <ele>854</ele>
        <time>2018-05-21T08:42:12Z</time>
      </trkpt>
      <trkpt lat="42.764577018097043" lon="-7.277431022375822">
        <ele>854</ele>
        <time>2018-05-21T08:42:14Z</time>
      </trkpt>
      <trkpt lat="42.764590010046959" lon="-7.277357010170817">
        <ele>854</ele>
        <time>2018-05-21T08:42:15Z</time>
      </trkpt>
      <trkpt lat="42.764615993946791" lon="-7.2772750351578">
        <ele>854</ele>
        <time>2018-05-21T08:42:17Z</time>
      </trkpt>
      <trkpt lat="42.764636026695371" lon="-7.277201022952795">
        <ele>854</ele>
        <time>2018-05-21T08:42:19Z</time>
      </trkpt>
      <trkpt lat="42.764663016423583" lon="-7.277128016576171">
        <ele>874</ele>
        <time>2018-05-21T08:42:21Z</time>
      </trkpt>
      <trkpt lat="42.764690006151795" lon="-7.277054004371166">
        <ele>865</ele>
        <time>2018-05-21T08:42:23Z</time>
      </trkpt>
      <trkpt lat="42.764715990051627" lon="-7.276996001601219">
        <ele>865</ele>
        <time>2018-05-21T08:42:24Z</time>
      </trkpt>
      <trkpt lat="42.764750020578504" lon="-7.27693104185164">
        <ele>865</ele>
        <time>2018-05-21T08:42:26Z</time>
      </trkpt>
      <trkpt lat="42.764776004478335" lon="-7.276864992454648">
        <ele>865</ele>
        <time>2018-05-21T08:42:27Z</time>
      </trkpt>
      <trkpt lat="42.764810035005212" lon="-7.27680497802794">
        <ele>865</ele>
        <time>2018-05-21T08:42:29Z</time>
      </trkpt>
      <trkpt lat="42.76485001668334" lon="-7.276755021885037">
        <ele>865</ele>
        <time>2018-05-21T08:42:31Z</time>
      </trkpt>
      <trkpt lat="42.764883041381836" lon="-7.276698024943471">
        <ele>865</ele>
        <time>2018-05-21T08:42:32Z</time>
      </trkpt>
      <trkpt lat="42.7649159822613" lon="-7.276624012738466">
        <ele>865</ele>
        <time>2018-05-21T08:42:34Z</time>
      </trkpt>
      <trkpt lat="42.764950012788177" lon="-7.276558969169855">
        <ele>865</ele>
        <time>2018-05-21T08:42:36Z</time>
      </trkpt>
      <trkpt lat="42.764983037486672" lon="-7.276500966399908">
        <ele>865</ele>
        <time>2018-05-21T08:42:37Z</time>
      </trkpt>
      <trkpt lat="42.765004998072982" lon="-7.276441035792232">
        <ele>865</ele>
        <time>2018-05-21T08:42:39Z</time>
      </trkpt>
      <trkpt lat="42.76504497975111" lon="-7.276367023587227">
        <ele>865</ele>
        <time>2018-05-21T08:42:41Z</time>
      </trkpt>
      <trkpt lat="42.765084961429238" lon="-7.27631002664566">
        <ele>865</ele>
        <time>2018-05-21T08:42:43Z</time>
      </trkpt>
      <trkpt lat="42.765127038583159" lon="-7.27626602165401">
        <ele>865</ele>
        <time>2018-05-21T08:42:44Z</time>
      </trkpt>
      <trkpt lat="42.7651940099895" lon="-7.27618396282196">
        <ele>855</ele>
        <time>2018-05-21T08:42:47Z</time>
      </trkpt>
      <trkpt lat="42.765227034687996" lon="-7.276134006679058">
        <ele>855</ele>
        <time>2018-05-21T08:42:48Z</time>
      </trkpt>
      <trkpt lat="42.765267016366124" lon="-7.276084972545505">
        <ele>855</ele>
        <time>2018-05-21T08:42:50Z</time>
      </trkpt>
      <trkpt lat="42.765310015529394" lon="-7.276027975603938">
        <ele>855</ele>
        <time>2018-05-21T08:42:52Z</time>
      </trkpt>
      <trkpt lat="42.765362989157438" lon="-7.275986988097429">
        <ele>855</ele>
        <time>2018-05-21T08:42:53Z</time>
      </trkpt>
      <trkpt lat="42.765443036332726" lon="-7.275912975892425">
        <ele>855</ele>
        <time>2018-05-21T08:42:56Z</time>
      </trkpt>
      <trkpt lat="42.765515958890319" lon="-7.275854973122478">
        <ele>873</ele>
        <time>2018-05-21T08:42:59Z</time>
      </trkpt>
      <trkpt lat="42.76555803604424" lon="-7.275820020586252">
        <ele>873</ele>
        <time>2018-05-21T08:43:00Z</time>
      </trkpt>
      <trkpt lat="42.765612015500665" lon="-7.275779033079743">
        <ele>873</ele>
        <time>2018-05-21T08:43:02Z</time>
      </trkpt>
      <trkpt lat="42.76566700078547" lon="-7.275737961754203">
        <ele>873</ele>
        <time>2018-05-21T08:43:04Z</time>
      </trkpt>
      <trkpt lat="42.765714023262262" lon="-7.275705020874739">
        <ele>873</ele>
        <time>2018-05-21T08:43:06Z</time>
      </trkpt>
      <trkpt lat="42.765774037688971" lon="-7.275647018104792">
        <ele>873</ele>
        <time>2018-05-21T08:43:08Z</time>
      </trkpt>
      <trkpt lat="42.765806978568435" lon="-7.275597983971238">
        <ele>873</ele>
        <time>2018-05-21T08:43:09Z</time>
      </trkpt>
      <trkpt lat="42.765846960246563" lon="-7.275549033656716">
        <ele>873</ele>
        <time>2018-05-21T08:43:11Z</time>
      </trkpt>
      <trkpt lat="42.765846960246563" lon="-7.27547200396657">
        <ele>873</ele>
        <time>2018-05-21T08:43:12Z</time>
      </trkpt>
      <trkpt lat="42.765846960246563" lon="-7.275387011468411">
        <ele>873</ele>
        <time>2018-05-21T08:43:14Z</time>
      </trkpt>
      <trkpt lat="42.765846960246563" lon="-7.275302018970251">
        <ele>873</ele>
        <time>2018-05-21T08:43:16Z</time>
      </trkpt>
      <trkpt lat="42.765840003266931" lon="-7.275225995108485">
        <ele>866</ele>
        <time>2018-05-21T08:43:18Z</time>
      </trkpt>
      <trkpt lat="42.765827011317015" lon="-7.275144020095468">
        <ele>866</ele>
        <time>2018-05-21T08:43:20Z</time>
      </trkpt>
      <trkpt lat="42.765806978568435" lon="-7.275077970698476">
        <ele>866</ele>
        <time>2018-05-21T08:43:21Z</time>
      </trkpt>
      <trkpt lat="42.765793986618519" lon="-7.274995995685458">
        <ele>860</ele>
        <time>2018-05-21T08:43:23Z</time>
      </trkpt>
      <trkpt lat="42.765779988840222" lon="-7.274921983480454">
        <ele>866</ele>
        <time>2018-05-21T08:43:25Z</time>
      </trkpt>
      <trkpt lat="42.765760961920023" lon="-7.274847971275449">
        <ele>866</ele>
        <time>2018-05-21T08:43:27Z</time>
      </trkpt>
      <trkpt lat="42.765741012990475" lon="-7.274749986827374">
        <ele>866</ele>
        <time>2018-05-21T08:43:29Z</time>
      </trkpt>
      <trkpt lat="42.765727015212178" lon="-7.274643033742905">
        <ele>866</ele>
        <time>2018-05-21T08:43:31Z</time>
      </trkpt>
      <trkpt lat="42.765748975798488" lon="-7.274577990174294">
        <ele>866</ele>
        <time>2018-05-21T08:43:33Z</time>
      </trkpt>
      <trkpt lat="42.765744030475616" lon="-7.274365006014705">
        <ele>864</ele>
        <time>2018-05-21T08:43:37Z</time>
      </trkpt>
      <trkpt lat="42.765790969133377" lon="-7.274129977449775">
        <ele>864</ele>
        <time>2018-05-21T08:43:43Z</time>
      </trkpt>
      <trkpt lat="42.765837991610169" lon="-7.273830994963646">
        <ele>864</ele>
        <time>2018-05-21T08:43:49Z</time>
      </trkpt>
      <trkpt lat="42.765871016308665" lon="-7.273574005812407">
        <ele>860</ele>
        <time>2018-05-21T08:43:55Z</time>
      </trkpt>
      <trkpt lat="42.765975035727024" lon="-7.273246021941304">
        <ele>860</ele>
        <time>2018-05-21T08:44:03Z</time>
      </trkpt>
      <trkpt lat="42.766042007133365" lon="-7.273097997531295">
        <ele>860</ele>
        <time>2018-05-21T08:44:07Z</time>
      </trkpt>
      <trkpt lat="42.766042007133365" lon="-7.273048963397741">
        <ele>860</ele>
        <time>2018-05-21T08:44:08Z</time>
      </trkpt>
      <trkpt lat="42.766110990196466" lon="-7.272848971188068">
        <ele>860</ele>
        <time>2018-05-21T08:44:12Z</time>
      </trkpt>
      <trkpt lat="42.766196988523006" lon="-7.272625006735325">
        <ele>855</ele>
        <time>2018-05-21T08:44:18Z</time>
      </trkpt>
      <trkpt lat="42.766283992677927" lon="-7.272444041445851">
        <ele>855</ele>
        <time>2018-05-21T08:44:23Z</time>
      </trkpt>
      <trkpt lat="42.766368985176086" lon="-7.272309008985758">
        <ele>867</ele>
        <time>2018-05-21T08:44:26Z</time>
      </trkpt>
      <trkpt lat="42.766383988782763" lon="-7.272289982065558">
        <ele>867</ele>
        <time>2018-05-21T08:44:27Z</time>
      </trkpt>
      <trkpt lat="42.766425982117653" lon="-7.272240025922656">
        <ele>867</ele>
        <time>2018-05-21T08:44:29Z</time>
      </trkpt>
      <trkpt lat="42.766481973230839" lon="-7.272213036194444">
        <ele>867</ele>
        <time>2018-05-21T08:44:30Z</time>
      </trkpt>
      <trkpt lat="42.766523966565728" lon="-7.272180011495948">
        <ele>867</ele>
        <time>2018-05-21T08:44:32Z</time>
      </trkpt>
      <trkpt lat="42.766580041497946" lon="-7.27214396931231">
        <ele>867</ele>
        <time>2018-05-21T08:44:34Z</time>
      </trkpt>
      <trkpt lat="42.766620023176074" lon="-7.272102981805801">
        <ele>867</ele>
        <time>2018-05-21T08:44:35Z</time>
      </trkpt>
      <trkpt lat="42.766660004854202" lon="-7.272070962935686">
        <ele>867</ele>
        <time>2018-05-21T08:44:37Z</time>
      </trkpt>
      <trkpt lat="42.766699986532331" lon="-7.272021006792784">
        <ele>867</ele>
        <time>2018-05-21T08:44:38Z</time>
      </trkpt>
      <trkpt lat="42.766749020665884" lon="-7.271980019286275">
        <ele>858</ele>
        <time>2018-05-21T08:44:40Z</time>
      </trkpt>
      <trkpt lat="42.766789002344012" lon="-7.271930985152721">
        <ele>858</ele>
        <time>2018-05-21T08:44:41Z</time>
      </trkpt>
      <trkpt lat="42.766828984022141" lon="-7.271895026788116">
        <ele>858</ele>
        <time>2018-05-21T08:44:43Z</time>
      </trkpt>
      <trkpt lat="42.766863014549017" lon="-7.27184297516942">
        <ele>858</ele>
        <time>2018-05-21T08:44:44Z</time>
      </trkpt>
      <trkpt lat="42.766896039247513" lon="-7.271785978227854">
        <ele>858</ele>
        <time>2018-05-21T08:44:46Z</time>
      </trkpt>
      <trkpt lat="42.766942977905273" lon="-7.271716995164752">
        <ele>858</ele>
        <time>2018-05-21T08:44:48Z</time>
      </trkpt>
      <trkpt lat="42.766997963190079" lon="-7.271672990173101">
        <ele>858</ele>
        <time>2018-05-21T08:44:50Z</time>
      </trkpt>
      <trkpt lat="42.767029982060194" lon="-7.27162403985858">
        <ele>858</ele>
        <time>2018-05-21T08:44:51Z</time>
      </trkpt>
      <trkpt lat="42.767075998708606" lon="-7.271582968533039">
        <ele>858</ele>
        <time>2018-05-21T08:44:53Z</time>
      </trkpt>
      <trkpt lat="42.767123021185398" lon="-7.271534018218517">
        <ele>869</ele>
        <time>2018-05-21T08:44:55Z</time>
      </trkpt>
      <trkpt lat="42.767178006470203" lon="-7.271500993520021">
        <ele>869</ele>
        <time>2018-05-21T08:44:56Z</time>
      </trkpt>
      <trkpt lat="42.767231985926628" lon="-7.271443996578455">
        <ele>869</ele>
        <time>2018-05-21T08:44:58Z</time>
      </trkpt>
      <trkpt lat="42.767271967604756" lon="-7.271410971879959">
        <ele>869</ele>
        <time>2018-05-21T08:45:00Z</time>
      </trkpt>
      <trkpt lat="42.767327036708593" lon="-7.271375013515353">
        <ele>869</ele>
        <time>2018-05-21T08:45:02Z</time>
      </trkpt>
      <trkpt lat="42.767354026436806" lon="-7.271336959674954">
        <ele>869</ele>
        <time>2018-05-21T08:45:03Z</time>
      </trkpt>
      <trkpt lat="42.767381016165018" lon="-7.271288009360433">
        <ele>869</ele>
        <time>2018-05-21T08:45:04Z</time>
      </trkpt>
      <trkpt lat="42.767420997843146" lon="-7.271230006590486">
        <ele>869</ele>
        <time>2018-05-21T08:45:06Z</time>
      </trkpt>
      <trkpt lat="42.76747397147119" lon="-7.271180972456932">
        <ele>869</ele>
        <time>2018-05-21T08:45:08Z</time>
      </trkpt>
      <trkpt lat="42.767500039190054" lon="-7.271121041849256">
        <ele>858</ele>
        <time>2018-05-21T08:45:09Z</time>
      </trkpt>
      <trkpt lat="42.767527028918266" lon="-7.271054992452264">
        <ele>858</ele>
        <time>2018-05-21T08:45:11Z</time>
      </trkpt>
      <trkpt lat="42.767569022253156" lon="-7.270969999954104">
        <ele>858</ele>
        <time>2018-05-21T08:45:13Z</time>
      </trkpt>
      <trkpt lat="42.767609003931284" lon="-7.270846031606197">
        <ele>858</ele>
        <time>2018-05-21T08:45:16Z</time>
      </trkpt>
      <trkpt lat="42.76764303445816" lon="-7.270687026903033">
        <ele>858</ele>
        <time>2018-05-21T08:45:20Z</time>
      </trkpt>
      <trkpt lat="42.767669018357992" lon="-7.270462978631258">
        <ele>858</ele>
        <time>2018-05-21T08:45:25Z</time>
      </trkpt>
      <trkpt lat="42.767698019742966" lon="-7.27027203887701">
        <ele>856</ele>
        <time>2018-05-21T08:45:29Z</time>
      </trkpt>
      <trkpt lat="42.767816036939621" lon="-7.269978001713753">
        <ele>856</ele>
        <time>2018-05-21T08:45:36Z</time>
      </trkpt>
      <trkpt lat="42.767935981974006" lon="-7.269712965935469">
        <ele>856</ele>
        <time>2018-05-21T08:45:43Z</time>
      </trkpt>
      <trkpt lat="42.768064979463816" lon="-7.269455976784229">
        <ele>855</ele>
        <time>2018-05-21T08:45:50Z</time>
      </trkpt>
      <trkpt lat="42.768151983618736" lon="-7.269245004281402">
        <ele>855</ele>
        <time>2018-05-21T08:45:55Z</time>
      </trkpt>
      <trkpt lat="42.768249968066812" lon="-7.269008969888091">
        <ele>855</ele>
        <time>2018-05-21T08:46:01Z</time>
      </trkpt>
      <trkpt lat="42.768335966393352" lon="-7.268787017092109">
        <ele>855</ele>
        <time>2018-05-21T08:46:06Z</time>
      </trkpt>
      <trkpt lat="42.768449960276484" lon="-7.268547965213656">
        <ele>842</ele>
        <time>2018-05-21T08:46:12Z</time>
      </trkpt>
      <trkpt lat="42.768550040200353" lon="-7.268313020467758">
        <ele>842</ele>
        <time>2018-05-21T08:46:18Z</time>
      </trkpt>
      <trkpt lat="42.768616005778313" lon="-7.268168013542891">
        <ele>842</ele>
        <time>2018-05-21T08:46:22Z</time>
      </trkpt>
      <trkpt lat="42.768678031861782" lon="-7.268062988296151">
        <ele>842</ele>
        <time>2018-05-21T08:46:25Z</time>
      </trkpt>
      <trkpt lat="42.768678031861782" lon="-7.268055025488138">
        <ele>842</ele>
        <time>2018-05-21T08:46:25Z</time>
      </trkpt>
      <trkpt lat="42.76863201521337" lon="-7.268014037981629">
        <ele>842</ele>
        <time>2018-05-21T08:46:27Z</time>
      </trkpt>
      <trkpt lat="42.768576024100184" lon="-7.267957041040063">
        <ele>842</ele>
        <time>2018-05-21T08:46:29Z</time>
      </trkpt>
      <trkpt lat="42.768550040200353" lon="-7.267908006906509">
        <ele>842</ele>
        <time>2018-05-21T08:46:30Z</time>
      </trkpt>
      <trkpt lat="42.768521038815379" lon="-7.267839023843408">
        <ele>832</ele>
        <time>2018-05-21T08:46:32Z</time>
      </trkpt>
      <trkpt lat="42.768521038815379" lon="-7.267765011638403">
        <ele>832</ele>
        <time>2018-05-21T08:46:34Z</time>
      </trkpt>
      <trkpt lat="42.768526989966631" lon="-7.267690999433398">
        <ele>832</ele>
        <time>2018-05-21T08:46:35Z</time>
      </trkpt>
      <trkpt lat="42.768526989966631" lon="-7.267614975571632">
        <ele>832</ele>
        <time>2018-05-21T08:46:37Z</time>
      </trkpt>
      <trkpt lat="42.768534030765295" lon="-7.267464017495513">
        <ele>832</ele>
        <time>2018-05-21T08:46:40Z</time>
      </trkpt>
      <trkpt lat="42.768566971644759" lon="-7.267310963943601">
        <ele>832</ele>
        <time>2018-05-21T08:46:44Z</time>
      </trkpt>
      <trkpt lat="42.768590021878481" lon="-7.267160005867481">
        <ele>832</ele>
        <time>2018-05-21T08:46:47Z</time>
      </trkpt>
      <trkpt lat="42.76861198246479" lon="-7.266951967030764">
        <ele>833</ele>
        <time>2018-05-21T08:46:52Z</time>
      </trkpt>
      <trkpt lat="42.768637966364622" lon="-7.266735965386033">
        <ele>833</ele>
        <time>2018-05-21T08:46:56Z</time>
      </trkpt>
      <trkpt lat="42.768645007163286" lon="-7.266475958749652">
        <ele>833</ele>
        <time>2018-05-21T08:47:02Z</time>
      </trkpt>
      <trkpt lat="42.768678031861782" lon="-7.26616901345551">
        <ele>836</ele>
        <time>2018-05-21T08:47:09Z</time>
      </trkpt>
      <trkpt lat="42.768711978569627" lon="-7.265872964635491">
        <ele>836</ele>
        <time>2018-05-21T08:47:15Z</time>
      </trkpt>
      <trkpt lat="42.768734022974968" lon="-7.265539029613137">
        <ele>836</ele>
        <time>2018-05-21T08:47:23Z</time>
      </trkpt>
      <trkpt lat="42.768745003268123" lon="-7.265341971069574">
        <ele>836</ele>
        <time>2018-05-21T08:47:27Z</time>
      </trkpt>
      <trkpt lat="42.768860002979636" lon="-7.265123035758734">
        <ele>812</ele>
        <time>2018-05-21T08:47:33Z</time>
      </trkpt>
      <trkpt lat="42.768895961344242" lon="-7.265043994411826">
        <ele>812</ele>
        <time>2018-05-21T08:47:35Z</time>
      </trkpt>
      <trkpt lat="42.768930997699499" lon="-7.264937041327357">
        <ele>812</ele>
        <time>2018-05-21T08:47:37Z</time>
      </trkpt>
      <trkpt lat="42.768939966335893" lon="-7.264937041327357">
        <ele>812</ele>
        <time>2018-05-21T08:47:37Z</time>
      </trkpt>
      <trkpt lat="42.768989000469446" lon="-7.264844002202153">
        <ele>812</ele>
        <time>2018-05-21T08:47:40Z</time>
      </trkpt>
      <trkpt lat="42.769065024331212" lon="-7.26472900249064">
        <ele>812</ele>
        <time>2018-05-21T08:47:43Z</time>
      </trkpt>
      <trkpt lat="42.769107017666101" lon="-7.264668988063932">
        <ele>812</ele>
        <time>2018-05-21T08:47:45Z</time>
      </trkpt>
      <trkpt lat="42.769183041527867" lon="-7.264617020264268">
        <ele>812</ele>
        <time>2018-05-21T08:47:48Z</time>
      </trkpt>
      <trkpt lat="42.76925596408546" lon="-7.26453697308898">
        <ele>812</ele>
        <time>2018-05-21T08:47:51Z</time>
      </trkpt>
      <trkpt lat="42.769365012645721" lon="-7.264377968385816">
        <ele>816</ele>
        <time>2018-05-21T08:47:55Z</time>
      </trkpt>
      <trkpt lat="42.769398959353566" lon="-7.264288030564785">
        <ele>816</ele>
        <time>2018-05-21T08:47:58Z</time>
      </trkpt>
      <trkpt lat="42.769412035122514" lon="-7.264264980331063">
        <ele>816</ele>
        <time>2018-05-21T08:47:58Z</time>
      </trkpt>
      <trkpt lat="42.769441036507487" lon="-7.264211000874639">
        <ele>816</ele>
        <time>2018-05-21T08:48:00Z</time>
      </trkpt>
      <trkpt lat="42.769470037892461" lon="-7.26414998061955">
        <ele>816</ele>
        <time>2018-05-21T08:48:01Z</time>
      </trkpt>
      <trkpt lat="42.769489986822009" lon="-7.264087032526732">
        <ele>816</ele>
        <time>2018-05-21T08:48:03Z</time>
      </trkpt>
      <trkpt lat="42.769502978771925" lon="-7.264013020321727">
        <ele>816</ele>
        <time>2018-05-21T08:48:04Z</time>
      </trkpt>
      <trkpt lat="42.769516976550221" lon="-7.263922998681665">
        <ele>816</ele>
        <time>2018-05-21T08:48:06Z</time>
      </trkpt>
      <trkpt lat="42.769529968500137" lon="-7.26384898647666">
        <ele>816</ele>
        <time>2018-05-21T08:48:08Z</time>
      </trkpt>
      <trkpt lat="42.769542960450053" lon="-7.2637639939785">
        <ele>816</ele>
        <time>2018-05-21T08:48:10Z</time>
      </trkpt>
      <trkpt lat="42.769575985148549" lon="-7.263682018965483">
        <ele>816</ele>
        <time>2018-05-21T08:48:12Z</time>
      </trkpt>
      <trkpt lat="42.769589982926846" lon="-7.263608006760478">
        <ele>824</ele>
        <time>2018-05-21T08:48:14Z</time>
      </trkpt>
      <trkpt lat="42.769615966826677" lon="-7.263542963191867">
        <ele>824</ele>
        <time>2018-05-21T08:48:15Z</time>
      </trkpt>
      <trkpt lat="42.769639017060399" lon="-7.263446990400553">
        <ele>824</ele>
        <time>2018-05-21T08:48:17Z</time>
      </trkpt>
      <trkpt lat="42.769644968211651" lon="-7.263372978195548">
        <ele>824</ele>
        <time>2018-05-21T08:48:19Z</time>
      </trkpt>
      <trkpt lat="42.769665000960231" lon="-7.263314975425601">
        <ele>798</ele>
        <time>2018-05-21T08:48:20Z</time>
      </trkpt>
      <trkpt lat="42.769672041758895" lon="-7.263239035382867">
        <ele>798</ele>
        <time>2018-05-21T08:48:22Z</time>
      </trkpt>
      <trkpt lat="42.769691990688443" lon="-7.263172985985875">
        <ele>798</ele>
        <time>2018-05-21T08:48:24Z</time>
      </trkpt>
      <trkpt lat="42.769712023437023" lon="-7.263057986274362">
        <ele>798</ele>
        <time>2018-05-21T08:48:26Z</time>
      </trkpt>
      <trkpt lat="42.769739013165236" lon="-7.262983974069357">
        <ele>798</ele>
        <time>2018-05-21T08:48:28Z</time>
      </trkpt>
      <trkpt lat="42.769764997065067" lon="-7.262926977127791">
        <ele>798</ele>
        <time>2018-05-21T08:48:29Z</time>
      </trkpt>
      <trkpt lat="42.769793998450041" lon="-7.262847013771534">
        <ele>798</ele>
        <time>2018-05-21T08:48:31Z</time>
      </trkpt>
      <trkpt lat="42.769814031198621" lon="-7.262793034315109">
        <ele>795</ele>
        <time>2018-05-21T08:48:33Z</time>
      </trkpt>
      <trkpt lat="42.769847977906466" lon="-7.262735031545162">
        <ele>795</ele>
        <time>2018-05-21T08:48:34Z</time>
      </trkpt>
      <trkpt lat="42.769873961806297" lon="-7.262685997411609">
        <ele>795</ele>
        <time>2018-05-21T08:48:36Z</time>
      </trkpt>
      <trkpt lat="42.769914027303457" lon="-7.262650039047003">
        <ele>795</ele>
        <time>2018-05-21T08:48:37Z</time>
      </trkpt>
      <trkpt lat="42.769949985668063" lon="-7.262592958286405">
        <ele>795</ele>
        <time>2018-05-21T08:48:39Z</time>
      </trkpt>
      <trkpt lat="42.769983010366559" lon="-7.262526992708445">
        <ele>795</ele>
        <time>2018-05-21T08:48:41Z</time>
      </trkpt>
      <trkpt lat="42.770016035065055" lon="-7.262461027130485">
        <ele>795</ele>
        <time>2018-05-21T08:48:42Z</time>
      </trkpt>
      <trkpt lat="42.770056016743183" lon="-7.262395983561873">
        <ele>795</ele>
        <time>2018-05-21T08:48:44Z</time>
      </trkpt>
      <trkpt lat="42.770116031169891" lon="-7.262321971356869">
        <ele>795</ele>
        <time>2018-05-21T08:48:47Z</time>
      </trkpt>
      <trkpt lat="42.770162969827652" lon="-7.262273021042347">
        <ele>795</ele>
        <time>2018-05-21T08:48:48Z</time>
      </trkpt>
      <trkpt lat="42.770209992304444" lon="-7.262232033535838">
        <ele>795</ele>
        <time>2018-05-21T08:48:50Z</time>
      </trkpt>
      <trkpt lat="42.770262965932488" lon="-7.262181993573904">
        <ele>795</ele>
        <time>2018-05-21T08:48:52Z</time>
      </trkpt>
      <trkpt lat="42.770306970924139" lon="-7.262135976925492">
        <ele>795</ele>
        <time>2018-05-21T08:48:54Z</time>
      </trkpt>
      <trkpt lat="42.770356005057693" lon="-7.262075040489435">
        <ele>795</ele>
        <time>2018-05-21T08:48:56Z</time>
      </trkpt>
      <trkpt lat="42.770403027534485" lon="-7.262002034112811">
        <ele>795</ele>
        <time>2018-05-21T08:48:58Z</time>
      </trkpt>
      <trkpt lat="42.770422976464033" lon="-7.261935984715819">
        <ele>803</ele>
        <time>2018-05-21T08:49:00Z</time>
      </trkpt>
      <trkpt lat="42.770456001162529" lon="-7.261870019137859">
        <ele>803</ele>
        <time>2018-05-21T08:49:01Z</time>
      </trkpt>
      <trkpt lat="42.770482990890741" lon="-7.261804975569248">
        <ele>781</ele>
        <time>2018-05-21T08:49:03Z</time>
      </trkpt>
      <trkpt lat="42.770509980618954" lon="-7.261730963364244">
        <ele>781</ele>
        <time>2018-05-21T08:49:05Z</time>
      </trkpt>
      <trkpt lat="42.77052297256887" lon="-7.261661980301142">
        <ele>781</ele>
        <time>2018-05-21T08:49:06Z</time>
      </trkpt>
      <trkpt lat="42.770535964518785" lon="-7.261580005288124">
        <ele>781</ele>
        <time>2018-05-21T08:49:08Z</time>
      </trkpt>
      <trkpt lat="42.770535964518785" lon="-7.261489983648062">
        <ele>781</ele>
        <time>2018-05-21T08:49:10Z</time>
      </trkpt>
      <trkpt lat="42.770535964518785" lon="-7.261408008635044">
        <ele>781</ele>
        <time>2018-05-21T08:49:12Z</time>
      </trkpt>
      <trkpt lat="42.770535964518785" lon="-7.261317986994982">
        <ele>781</ele>
        <time>2018-05-21T08:49:14Z</time>
      </trkpt>
      <trkpt lat="42.770509980618954" lon="-7.261169962584972">
        <ele>768</ele>
        <time>2018-05-21T08:49:17Z</time>
      </trkpt>
      <trkpt lat="42.770503023639321" lon="-7.261096034198999">
        <ele>768</ele>
        <time>2018-05-21T08:49:19Z</time>
      </trkpt>
      <trkpt lat="42.770490031689405" lon="-7.26101397536695">
        <ele>768</ele>
        <time>2018-05-21T08:49:20Z</time>
      </trkpt>
      <trkpt lat="42.770482990890741" lon="-7.260932000353932">
        <ele>768</ele>
        <time>2018-05-21T08:49:22Z</time>
      </trkpt>
      <trkpt lat="42.770474022254348" lon="-7.260854970663786">
        <ele>768</ele>
        <time>2018-05-21T08:49:24Z</time>
      </trkpt>
      <trkpt lat="42.770453989505768" lon="-7.260789005085826">
        <ele>798</ele>
        <time>2018-05-21T08:49:26Z</time>
      </trkpt>
      <trkpt lat="42.770426999777555" lon="-7.260698983445764">
        <ele>798</ele>
        <time>2018-05-21T08:49:28Z</time>
      </trkpt>
      <trkpt lat="42.77041400782764" lon="-7.260592030361295">
        <ele>798</ele>
        <time>2018-05-21T08:49:30Z</time>
      </trkpt>
      <trkpt lat="42.770366985350847" lon="-7.260484993457794">
        <ele>798</ele>
        <time>2018-05-21T08:49:33Z</time>
      </trkpt>
      <trkpt lat="42.770347036421299" lon="-7.260394971817732">
        <ele>798</ele>
        <time>2018-05-21T08:49:35Z</time>
      </trkpt>
      <trkpt lat="42.770320968702435" lon="-7.260289024561644">
        <ele>782</ele>
        <time>2018-05-21T08:49:37Z</time>
      </trkpt>
      <trkpt lat="42.770301019772887" lon="-7.260197997093201">
        <ele>782</ele>
        <time>2018-05-21T08:49:39Z</time>
      </trkpt>
      <trkpt lat="42.770274030044675" lon="-7.260100012645125">
        <ele>782</ele>
        <time>2018-05-21T08:49:42Z</time>
      </trkpt>
      <trkpt lat="42.770267995074391" lon="-7.260026000440121">
        <ele>782</ele>
        <time>2018-05-21T08:49:43Z</time>
      </trkpt>
      <trkpt lat="42.770241005346179" lon="-7.259960034862161">
        <ele>782</ele>
        <time>2018-05-21T08:49:45Z</time>
      </trkpt>
      <trkpt lat="42.770207980647683" lon="-7.259861966595054">
        <ele>782</ele>
        <time>2018-05-21T08:49:47Z</time>
      </trkpt>
      <trkpt lat="42.770188031718135" lon="-7.259788038209081">
        <ele>782</ele>
        <time>2018-05-21T08:49:49Z</time>
      </trkpt>
      <trkpt lat="42.770147966220975" lon="-7.259698016569018">
        <ele>782</ele>
        <time>2018-05-21T08:49:51Z</time>
      </trkpt>
      <trkpt lat="42.770128017291427" lon="-7.259624004364014">
        <ele>782</ele>
        <time>2018-05-21T08:49:53Z</time>
      </trkpt>
      <trkpt lat="42.770077977329493" lon="-7.259494001045823">
        <ele>764</ele>
        <time>2018-05-21T08:49:56Z</time>
      </trkpt>
      <trkpt lat="42.770045036450028" lon="-7.259371038526297">
        <ele>764</ele>
        <time>2018-05-21T08:49:59Z</time>
      </trkpt>
      <trkpt lat="42.769991979002953" lon="-7.259240029379726">
        <ele>764</ele>
        <time>2018-05-21T08:50:02Z</time>
      </trkpt>
      <trkpt lat="42.769959038123488" lon="-7.259141961112618">
        <ele>764</ele>
        <time>2018-05-21T08:50:05Z</time>
      </trkpt>
      <trkpt lat="42.769904974848032" lon="-7.25903500802815">
        <ele>764</ele>
        <time>2018-05-21T08:50:07Z</time>
      </trkpt>
      <trkpt lat="42.7698789909482" lon="-7.258968958631158">
        <ele>764</ele>
        <time>2018-05-21T08:50:09Z</time>
      </trkpt>
      <trkpt lat="42.769844960421324" lon="-7.258911961689591">
        <ele>764</ele>
        <time>2018-05-21T08:50:11Z</time>
      </trkpt>
      <trkpt lat="42.769804978743196" lon="-7.258838033303618">
        <ele>764</ele>
        <time>2018-05-21T08:50:13Z</time>
      </trkpt>
      <trkpt lat="42.769762985408306" lon="-7.258761003613472">
        <ele>764</ele>
        <time>2018-05-21T08:50:15Z</time>
      </trkpt>
      <trkpt lat="42.769710011780262" lon="-7.258686991408467">
        <ele>751</ele>
        <time>2018-05-21T08:50:17Z</time>
      </trkpt>
      <trkpt lat="42.769652009010315" lon="-7.258626976981759">
        <ele>751</ele>
        <time>2018-05-21T08:50:19Z</time>
      </trkpt>
      <trkpt lat="42.769612027332187" lon="-7.25856201723218">
        <ele>766</ele>
        <time>2018-05-21T08:50:21Z</time>
      </trkpt>
      <trkpt lat="42.769565004855394" lon="-7.258479036390781">
        <ele>766</ele>
        <time>2018-05-21T08:50:23Z</time>
      </trkpt>
      <trkpt lat="42.769518988206983" lon="-7.258422039449215">
        <ele>766</ele>
        <time>2018-05-21T08:50:25Z</time>
      </trkpt>
      <trkpt lat="42.769473977386951" lon="-7.258378034457564">
        <ele>766</ele>
        <time>2018-05-21T08:50:27Z</time>
      </trkpt>
      <trkpt lat="42.769433995708823" lon="-7.258321037515998">
        <ele>766</ele>
        <time>2018-05-21T08:50:28Z</time>
      </trkpt>
      <trkpt lat="42.769407005980611" lon="-7.258260017260909">
        <ele>766</ele>
        <time>2018-05-21T08:50:30Z</time>
      </trkpt>
      <trkpt lat="42.769367024302483" lon="-7.2582190297544">
        <ele>766</ele>
        <time>2018-05-21T08:50:31Z</time>
      </trkpt>
      <trkpt lat="42.769321007654071" lon="-7.258162032812834">
        <ele>766</ele>
        <time>2018-05-21T08:50:33Z</time>
      </trkpt>
      <trkpt lat="42.769273985177279" lon="-7.258095983415842">
        <ele>766</ele>
        <time>2018-05-21T08:50:35Z</time>
      </trkpt>
      <trkpt lat="42.769226962700486" lon="-7.258054995909333">
        <ele>766</ele>
        <time>2018-05-21T08:50:37Z</time>
      </trkpt>
      <trkpt lat="42.769181029871106" lon="-7.258021971210837">
        <ele>766</ele>
        <time>2018-05-21T08:50:38Z</time>
      </trkpt>
      <trkpt lat="42.76914800517261" lon="-7.257964974269271">
        <ele>766</ele>
        <time>2018-05-21T08:50:40Z</time>
      </trkpt>
      <trkpt lat="42.769100982695818" lon="-7.257932033389807">
        <ele>766</ele>
        <time>2018-05-21T08:50:42Z</time>
      </trkpt>
      <trkpt lat="42.769071981310844" lon="-7.257863972336054">
        <ele>748</ele>
        <time>2018-05-21T08:50:43Z</time>
      </trkpt>
      <trkpt lat="42.76903904043138" lon="-7.257805969566107">
        <ele>748</ele>
        <time>2018-05-21T08:50:45Z</time>
      </trkpt>
      <trkpt lat="42.769011966884136" lon="-7.25774897262454">
        <ele>748</ele>
        <time>2018-05-21T08:50:46Z</time>
      </trkpt>
      <trkpt lat="42.768969973549247" lon="-7.25770496763289">
        <ele>748</ele>
        <time>2018-05-21T08:50:48Z</time>
      </trkpt>
      <trkpt lat="42.76895597577095" lon="-7.257564989849925">
        <ele>748</ele>
        <time>2018-05-21T08:50:51Z</time>
      </trkpt>
      <trkpt lat="42.768842987716198" lon="-7.257311018183827">
        <ele>748</ele>
        <time>2018-05-21T08:50:58Z</time>
      </trkpt>
      <trkpt lat="42.768790014088154" lon="-7.257175985723734">
        <ele>748</ele>
        <time>2018-05-21T08:51:01Z</time>
      </trkpt>
      <trkpt lat="42.768750032410026" lon="-7.25703701376915">
        <ele>751</ele>
        <time>2018-05-21T08:51:04Z</time>
      </trkpt>
      <trkpt lat="42.768729999661446" lon="-7.256987979635596">
        <ele>751</ele>
        <time>2018-05-21T08:51:05Z</time>
      </trkpt>
      <trkpt lat="42.768729999661446" lon="-7.256906004622579">
        <ele>751</ele>
        <time>2018-05-21T08:51:07Z</time>
      </trkpt>
      <trkpt lat="42.768729999661446" lon="-7.256796034052968">
        <ele>751</ele>
        <time>2018-05-21T08:51:10Z</time>
      </trkpt>
      <trkpt lat="42.768722958862782" lon="-7.256725039333105">
        <ele>751</ele>
        <time>2018-05-21T08:51:11Z</time>
      </trkpt>
      <trkpt lat="42.768722958862782" lon="-7.256614984944463">
        <ele>751</ele>
        <time>2018-05-21T08:51:14Z</time>
      </trkpt>
      <trkpt lat="42.768690017983317" lon="-7.2565439902246">
        <ele>751</ele>
        <time>2018-05-21T08:51:16Z</time>
      </trkpt>
      <trkpt lat="42.768650036305189" lon="-7.256495039910078">
        <ele>751</ele>
        <time>2018-05-21T08:51:17Z</time>
      </trkpt>
      <trkpt lat="42.768603013828397" lon="-7.256453968584538">
        <ele>751</ele>
        <time>2018-05-21T08:51:19Z</time>
      </trkpt>
      <trkpt lat="42.768563032150269" lon="-7.256421027705073">
        <ele>751</ele>
        <time>2018-05-21T08:51:20Z</time>
      </trkpt>
      <trkpt lat="42.768522966653109" lon="-7.256354978308082">
        <ele>751</ele>
        <time>2018-05-21T08:51:22Z</time>
      </trkpt>
      <trkpt lat="42.768469993025064" lon="-7.256232015788555">
        <ele>731</ele>
        <time>2018-05-21T08:51:25Z</time>
      </trkpt>
      <trkpt lat="42.768430011346936" lon="-7.256195973604918">
        <ele>731</ele>
        <time>2018-05-21T08:51:27Z</time>
      </trkpt>
      <trkpt lat="42.768409978598356" lon="-7.256131013855338">
        <ele>731</ele>
        <time>2018-05-21T08:51:28Z</time>
      </trkpt>
      <trkpt lat="42.768409978598356" lon="-7.256046021357179">
        <ele>731</ele>
        <time>2018-05-21T08:51:30Z</time>
      </trkpt>
      <trkpt lat="42.768403021618724" lon="-7.255963962525129">
        <ele>731</ele>
        <time>2018-05-21T08:51:32Z</time>
      </trkpt>
      <trkpt lat="42.76839698664844" lon="-7.255881987512112">
        <ele>731</ele>
        <time>2018-05-21T08:51:34Z</time>
      </trkpt>
      <trkpt lat="42.768349964171648" lon="-7.255782997235656">
        <ele>738</ele>
        <time>2018-05-21T08:51:37Z</time>
      </trkpt>
      <trkpt lat="42.768328003585339" lon="-7.255715020000935">
        <ele>731</ele>
        <time>2018-05-21T08:51:38Z</time>
      </trkpt>
      <trkpt lat="42.768278969451785" lon="-7.255671015009284">
        <ele>731</ele>
        <time>2018-05-21T08:51:40Z</time>
      </trkpt>
      <trkpt lat="42.768237981945276" lon="-7.255637990310788">
        <ele>731</ele>
        <time>2018-05-21T08:51:42Z</time>
      </trkpt>
      <trkpt lat="42.768182996660471" lon="-7.255597002804279">
        <ele>731</ele>
        <time>2018-05-21T08:51:43Z</time>
      </trkpt>
      <trkpt lat="42.768127005547285" lon="-7.255589039996266">
        <ele>731</ele>
        <time>2018-05-21T08:51:45Z</time>
      </trkpt>
      <trkpt lat="42.76807595975697" lon="-7.255570013076067">
        <ele>731</ele>
        <time>2018-05-21T08:51:47Z</time>
      </trkpt>
      <trkpt lat="42.768023991957307" lon="-7.255545035004616">
        <ele>731</ele>
        <time>2018-05-21T08:51:48Z</time>
      </trkpt>
      <trkpt lat="42.767963977530599" lon="-7.255519973114133">
        <ele>731</ele>
        <time>2018-05-21T08:51:50Z</time>
      </trkpt>
      <trkpt lat="42.767917960882187" lon="-7.255478985607624">
        <ele>738</ele>
        <time>2018-05-21T08:51:52Z</time>
      </trkpt>
      <trkpt lat="42.767808996140957" lon="-7.255407990887761">
        <ele>738</ele>
        <time>2018-05-21T08:51:55Z</time>
      </trkpt>
      <trkpt lat="42.76775099337101" lon="-7.255359040573239">
        <ele>738</ele>
        <time>2018-05-21T08:51:57Z</time>
      </trkpt>
      <trkpt lat="42.767711011692882" lon="-7.255310006439686">
        <ele>738</ele>
        <time>2018-05-21T08:51:59Z</time>
      </trkpt>
      <trkpt lat="42.767661977559328" lon="-7.255259966477752">
        <ele>730</ele>
        <time>2018-05-21T08:52:01Z</time>
      </trkpt>
      <trkpt lat="42.767615038901567" lon="-7.25521101616323">
        <ele>730</ele>
        <time>2018-05-21T08:52:02Z</time>
      </trkpt>
      <trkpt lat="42.767561981454492" lon="-7.255170028656721">
        <ele>730</ele>
        <time>2018-05-21T08:52:04Z</time>
      </trkpt>
      <trkpt lat="42.767521999776363" lon="-7.255120994523168">
        <ele>730</ele>
        <time>2018-05-21T08:52:06Z</time>
      </trkpt>
      <trkpt lat="42.767461985349655" lon="-7.255062991753221">
        <ele>730</ele>
        <time>2018-05-21T08:52:08Z</time>
      </trkpt>
      <trkpt lat="42.767409011721611" lon="-7.255030972883105">
        <ele>730</ele>
        <time>2018-05-21T08:52:10Z</time>
      </trkpt>
      <trkpt lat="42.767356960102916" lon="-7.255011023953557">
        <ele>730</ele>
        <time>2018-05-21T08:52:11Z</time>
      </trkpt>
      <trkpt lat="42.767303986474872" lon="-7.254979005083442">
        <ele>730</ele>
        <time>2018-05-21T08:52:13Z</time>
      </trkpt>
      <trkpt lat="42.767251012846828" lon="-7.254897030070424">
        <ele>730</ele>
        <time>2018-05-21T08:52:15Z</time>
      </trkpt>
      <trkpt lat="42.767195021733642" lon="-7.254830980673432">
        <ele>730</ele>
        <time>2018-05-21T08:52:18Z</time>
      </trkpt>
      <trkpt lat="42.767155040055513" lon="-7.254765015095472">
        <ele>730</ele>
        <time>2018-05-21T08:52:20Z</time>
      </trkpt>
      <trkpt lat="42.767109023407102" lon="-7.254715980961919">
        <ele>728</ele>
        <time>2018-05-21T08:52:21Z</time>
      </trkpt>
      <trkpt lat="42.767045991495252" lon="-7.254671975970268">
        <ele>728</ele>
        <time>2018-05-21T08:52:23Z</time>
      </trkpt>
      <trkpt lat="42.767006009817123" lon="-7.254623025655747">
        <ele>728</ele>
        <time>2018-05-21T08:52:25Z</time>
      </trkpt>
      <trkpt lat="42.766959993168712" lon="-7.254549013450742">
        <ele>728</ele>
        <time>2018-05-21T08:52:27Z</time>
      </trkpt>
      <trkpt lat="42.76691498234868" lon="-7.254494028165937">
        <ele>728</ele>
        <time>2018-05-21T08:52:29Z</time>
      </trkpt>
      <trkpt lat="42.766882041469216" lon="-7.254420015960932">
        <ele>719</ele>
        <time>2018-05-21T08:52:31Z</time>
      </trkpt>
      <trkpt lat="42.766845999285579" lon="-7.254333011806011">
        <ele>719</ele>
        <time>2018-05-21T08:52:33Z</time>
      </trkpt>
      <trkpt lat="42.766812974587083" lon="-7.254275009036064">
        <ele>719</ele>
        <time>2018-05-21T08:52:35Z</time>
      </trkpt>
      <trkpt lat="42.766772992908955" lon="-7.254184987396002">
        <ele>719</ele>
        <time>2018-05-21T08:52:37Z</time>
      </trkpt>
      <trkpt lat="42.766730999574065" lon="-7.25413796491921">
        <ele>719</ele>
        <time>2018-05-21T08:52:38Z</time>
      </trkpt>
      <trkpt lat="42.766683977097273" lon="-7.254064036533237">
        <ele>719</ele>
        <time>2018-05-21T08:52:41Z</time>
      </trkpt>
      <trkpt lat="42.766643995419145" lon="-7.25400703959167">
        <ele>719</ele>
        <time>2018-05-21T08:52:42Z</time>
      </trkpt>
      <trkpt lat="42.766581969335675" lon="-7.25396303460002">
        <ele>719</ele>
        <time>2018-05-21T08:52:44Z</time>
      </trkpt>
      <trkpt lat="42.766527989879251" lon="-7.253921963274479">
        <ele>719</ele>
        <time>2018-05-21T08:52:46Z</time>
      </trkpt>
      <trkpt lat="42.766377031803131" lon="-7.253850968554616">
        <ele>719</ele>
        <time>2018-05-21T08:52:51Z</time>
      </trkpt>
      <trkpt lat="42.766250967979431" lon="-7.253825990483165">
        <ele>717</ele>
        <time>2018-05-21T08:52:55Z</time>
      </trkpt>
      <trkpt lat="42.766241999343038" lon="-7.253825990483165">
        <ele>717</ele>
        <time>2018-05-21T08:52:55Z</time>
      </trkpt>
      <trkpt lat="42.766138985753059" lon="-7.253785002976656">
        <ele>717</ele>
        <time>2018-05-21T08:52:58Z</time>
      </trkpt>
      <trkpt lat="42.766105961054564" lon="-7.253785002976656">
        <ele>717</ele>
        <time>2018-05-21T08:52:59Z</time>
      </trkpt>
      <trkpt lat="42.766015017405152" lon="-7.25362298078835">
        <ele>709</ele>
        <time>2018-05-21T08:53:04Z</time>
      </trkpt>
      <trkpt lat="42.765934970229864" lon="-7.253351993858814">
        <ele>709</ele>
        <time>2018-05-21T08:53:10Z</time>
      </trkpt>
      <trkpt lat="42.765899011865258" lon="-7.253134986385703">
        <ele>709</ele>
        <time>2018-05-21T08:53:15Z</time>
      </trkpt>
      <trkpt lat="42.765892976894975" lon="-7.253134986385703">
        <ele>709</ele>
        <time>2018-05-21T08:53:15Z</time>
      </trkpt>
      <trkpt lat="42.765878979116678" lon="-7.25301998667419">
        <ele>709</ele>
        <time>2018-05-21T08:53:18Z</time>
      </trkpt>
      <trkpt lat="42.765863975510001" lon="-7.252908004447818">
        <ele>709</ele>
        <time>2018-05-21T08:53:20Z</time>
      </trkpt>
      <trkpt lat="42.765844026580453" lon="-7.252833992242813">
        <ele>709</ele>
        <time>2018-05-21T08:53:22Z</time>
      </trkpt>
      <trkpt lat="42.765830028802156" lon="-7.252735001966357">
        <ele>709</ele>
        <time>2018-05-21T08:53:24Z</time>
      </trkpt>
      <trkpt lat="42.765797004103661" lon="-7.252587983384728">
        <ele>709</ele>
        <time>2018-05-21T08:53:27Z</time>
      </trkpt>
      <trkpt lat="42.765776971355081" lon="-7.252488993108273">
        <ele>709</ele>
        <time>2018-05-21T08:53:30Z</time>
      </trkpt>
      <trkpt lat="42.765744030475616" lon="-7.252373993396759">
        <ele>709</ele>
        <time>2018-05-21T08:53:32Z</time>
      </trkpt>
      <trkpt lat="42.76573003269732" lon="-7.252292018383741">
        <ele>709</ele>
        <time>2018-05-21T08:53:34Z</time>
      </trkpt>
      <trkpt lat="42.765703964978456" lon="-7.252218006178737">
        <ele>709</ele>
        <time>2018-05-21T08:53:36Z</time>
      </trkpt>
      <trkpt lat="42.765674963593483" lon="-7.252134019508958">
        <ele>709</ele>
        <time>2018-05-21T08:53:38Z</time>
      </trkpt>
      <trkpt lat="42.765641016885638" lon="-7.252076016739011">
        <ele>709</ele>
        <time>2018-05-21T08:53:40Z</time>
      </trkpt>
      <trkpt lat="42.765615032985806" lon="-7.252009967342019">
        <ele>709</ele>
        <time>2018-05-21T08:53:41Z</time>
      </trkpt>
      <trkpt lat="42.76556096971035" lon="-7.251936960965395">
        <ele>719</ele>
        <time>2018-05-21T08:53:44Z</time>
      </trkpt>
      <trkpt lat="42.765513025224209" lon="-7.251876024529338">
        <ele>719</ele>
        <time>2018-05-21T08:53:45Z</time>
      </trkpt>
      <trkpt lat="42.765478994697332" lon="-7.251819027587771">
        <ele>719</ele>
        <time>2018-05-21T08:53:47Z</time>
      </trkpt>
      <trkpt lat="42.765432978048921" lon="-7.251761024817824">
        <ele>701</ele>
        <time>2018-05-21T08:53:49Z</time>
      </trkpt>
      <trkpt lat="42.765392996370792" lon="-7.251711990684271">
        <ele>701</ele>
        <time>2018-05-21T08:53:51Z</time>
      </trkpt>
      <trkpt lat="42.765357038006186" lon="-7.251651976257563">
        <ele>701</ele>
        <time>2018-05-21T08:53:52Z</time>
      </trkpt>
      <trkpt lat="42.765324013307691" lon="-7.251562038436532">
        <ele>701</ele>
        <time>2018-05-21T08:53:54Z</time>
      </trkpt>
      <trkpt lat="42.765297023579478" lon="-7.251447038725019">
        <ele>701</ele>
        <time>2018-05-21T08:53:57Z</time>
      </trkpt>
      <trkpt lat="42.765268022194505" lon="-7.251370009034872">
        <ele>701</ele>
        <time>2018-05-21T08:53:59Z</time>
      </trkpt>
      <trkpt lat="42.765241032466292" lon="-7.2512580268085">
        <ele>701</ele>
        <time>2018-05-21T08:54:01Z</time>
      </trkpt>
      <trkpt lat="42.765214964747429" lon="-7.251200024038553">
        <ele>701</ele>
        <time>2018-05-21T08:54:03Z</time>
      </trkpt>
      <trkpt lat="42.765185963362455" lon="-7.251136992126703">
        <ele>710</ele>
        <time>2018-05-21T08:54:05Z</time>
      </trkpt>
      <trkpt lat="42.765145981684327" lon="-7.251088041812182">
        <ele>710</ele>
        <time>2018-05-21T08:54:06Z</time>
      </trkpt>
      <trkpt lat="42.765132989734411" lon="-7.251088041812182">
        <ele>710</ele>
        <time>2018-05-21T08:54:07Z</time>
      </trkpt>
      <trkpt lat="42.765110023319721" lon="-7.251028027385473">
        <ele>710</ele>
        <time>2018-05-21T08:54:08Z</time>
      </trkpt>
      <trkpt lat="42.765076998621225" lon="-7.250901963561773">
        <ele>710</ele>
        <time>2018-05-21T08:54:11Z</time>
      </trkpt>
      <trkpt lat="42.764966022223234" lon="-7.250680010765791">
        <ele>710</ele>
        <time>2018-05-21T08:54:17Z</time>
      </trkpt>
      <trkpt lat="42.764813974499702" lon="-7.250393014401197">
        <ele>710</ele>
        <time>2018-05-21T08:54:24Z</time>
      </trkpt>
      <trkpt lat="42.764667039737105" lon="-7.250065030530095">
        <ele>717</ele>
        <time>2018-05-21T08:54:33Z</time>
      </trkpt>
      <trkpt lat="42.764563020318747" lon="-7.249880963936448">
        <ele>699</ele>
        <time>2018-05-21T08:54:38Z</time>
      </trkpt>
      <trkpt lat="42.76454902254045" lon="-7.249853974208236">
        <ele>699</ele>
        <time>2018-05-21T08:54:39Z</time>
      </trkpt>
      <trkpt lat="42.764495965093374" lon="-7.249802006408572">
        <ele>699</ele>
        <time>2018-05-21T08:54:40Z</time>
      </trkpt>
      <trkpt lat="42.764450032263994" lon="-7.249768981710076">
        <ele>699</ele>
        <time>2018-05-21T08:54:42Z</time>
      </trkpt>
      <trkpt lat="42.764395968988538" lon="-7.249727994203568">
        <ele>699</ele>
        <time>2018-05-21T08:54:44Z</time>
      </trkpt>
      <trkpt lat="42.764350036159158" lon="-7.249670997262001">
        <ele>699</ele>
        <time>2018-05-21T08:54:46Z</time>
      </trkpt>
      <trkpt lat="42.764280969277024" lon="-7.249637972563505">
        <ele>699</ele>
        <time>2018-05-21T08:54:48Z</time>
      </trkpt>
      <trkpt lat="42.7642269898206" lon="-7.249621041119099">
        <ele>699</ele>
        <time>2018-05-21T08:54:50Z</time>
      </trkpt>
      <trkpt lat="42.764174016192555" lon="-7.249612994492054">
        <ele>699</ele>
        <time>2018-05-21T08:54:51Z</time>
      </trkpt>
      <trkpt lat="42.764111990109086" lon="-7.249612994492054">
        <ele>699</ele>
        <time>2018-05-21T08:54:53Z</time>
      </trkpt>
      <trkpt lat="42.764059016481042" lon="-7.249596985056996">
        <ele>699</ele>
        <time>2018-05-21T08:54:55Z</time>
      </trkpt>
      <trkpt lat="42.763993972912431" lon="-7.249596985056996">
        <ele>699</ele>
        <time>2018-05-21T08:54:57Z</time>
      </trkpt>
      <trkpt lat="42.763940999284387" lon="-7.249579969793558">
        <ele>699</ele>
        <time>2018-05-21T08:54:58Z</time>
      </trkpt>
      <trkpt lat="42.763880984857678" lon="-7.249563960358501">
        <ele>699</ele>
        <time>2018-05-21T08:55:00Z</time>
      </trkpt>
      <trkpt lat="42.763827005401254" lon="-7.249531019479036">
        <ele>699</ele>
        <time>2018-05-21T08:55:02Z</time>
      </trkpt>
      <trkpt lat="42.763793980702758" lon="-7.24947402253747">
        <ele>701</ele>
        <time>2018-05-21T08:55:03Z</time>
      </trkpt>
      <trkpt lat="42.763762967661023" lon="-7.249409984797239">
        <ele>701</ele>
        <time>2018-05-21T08:55:05Z</time>
      </trkpt>
      <trkpt lat="42.763716029003263" lon="-7.249377965927124">
        <ele>696</ele>
        <time>2018-05-21T08:55:07Z</time>
      </trkpt>
      <trkpt lat="42.763670012354851" lon="-7.24934502504766">
        <ele>696</ele>
        <time>2018-05-21T08:55:08Z</time>
      </trkpt>
      <trkpt lat="42.763616032898426" lon="-7.249312000349164">
        <ele>696</ele>
        <time>2018-05-21T08:55:10Z</time>
      </trkpt>
      <trkpt lat="42.763566998764873" lon="-7.249267995357513">
        <ele>696</ele>
        <time>2018-05-21T08:55:12Z</time>
      </trkpt>
      <trkpt lat="42.763517964631319" lon="-7.24921602755785">
        <ele>696</ele>
        <time>2018-05-21T08:55:13Z</time>
      </trkpt>
      <trkpt lat="42.763472031801939" lon="-7.249159030616283">
        <ele>696</ele>
        <time>2018-05-21T08:55:15Z</time>
      </trkpt>
      <trkpt lat="42.763417968526483" lon="-7.249133968725801">
        <ele>696</ele>
        <time>2018-05-21T08:55:17Z</time>
      </trkpt>
      <trkpt lat="42.7633670065552" lon="-7.249126005917788">
        <ele>696</ele>
        <time>2018-05-21T08:55:18Z</time>
      </trkpt>
      <trkpt lat="42.763306992128491" lon="-7.249092981219292">
        <ele>696</ele>
        <time>2018-05-21T08:55:20Z</time>
      </trkpt>
      <trkpt lat="42.763254018500447" lon="-7.249076971784234">
        <ele>696</ele>
        <time>2018-05-21T08:55:22Z</time>
      </trkpt>
      <trkpt lat="42.763181012123823" lon="-7.249027015641332">
        <ele>696</ele>
        <time>2018-05-21T08:55:24Z</time>
      </trkpt>
      <trkpt lat="42.763127032667398" lon="-7.249002959579229">
        <ele>696</ele>
        <time>2018-05-21T08:55:26Z</time>
      </trkpt>
      <trkpt lat="42.763073975220323" lon="-7.248986028134823">
        <ele>696</ele>
        <time>2018-05-21T08:55:28Z</time>
      </trkpt>
      <trkpt lat="42.763019995763898" lon="-7.248974964022636">
        <ele>696</ele>
        <time>2018-05-21T08:55:29Z</time>
      </trkpt>
      <trkpt lat="42.76295998133719" lon="-7.248967001214624">
        <ele>696</ele>
        <time>2018-05-21T08:55:31Z</time>
      </trkpt>
      <trkpt lat="42.762899966910481" lon="-7.248959038406611">
        <ele>707</ele>
        <time>2018-05-21T08:55:33Z</time>
      </trkpt>
      <trkpt lat="42.762840958312154" lon="-7.248959038406611">
        <ele>707</ele>
        <time>2018-05-21T08:55:35Z</time>
      </trkpt>
      <trkpt lat="42.762767029926181" lon="-7.248942023143172">
        <ele>707</ele>
        <time>2018-05-21T08:55:37Z</time>
      </trkpt>
      <trkpt lat="42.762713972479105" lon="-7.248933976516128">
        <ele>707</ele>
        <time>2018-05-21T08:55:38Z</time>
      </trkpt>
      <trkpt lat="42.762654041871428" lon="-7.248933976516128">
        <ele>707</ele>
        <time>2018-05-21T08:55:40Z</time>
      </trkpt>
      <trkpt lat="42.76259402744472" lon="-7.248933976516128">
        <ele>707</ele>
        <time>2018-05-21T08:55:42Z</time>
      </trkpt>
      <trkpt lat="42.762526972219348" lon="-7.248933976516128">
        <ele>707</ele>
        <time>2018-05-21T08:55:44Z</time>
      </trkpt>
      <trkpt lat="42.762461006641388" lon="-7.24891796708107">
        <ele>707</ele>
        <time>2018-05-21T08:55:46Z</time>
      </trkpt>
      <trkpt lat="42.762394035235047" lon="-7.24891796708107">
        <ele>707</ele>
        <time>2018-05-21T08:55:48Z</time>
      </trkpt>
      <trkpt lat="42.762334020808339" lon="-7.24891796708107">
        <ele>707</ele>
        <time>2018-05-21T08:55:50Z</time>
      </trkpt>
      <trkpt lat="42.762274006381631" lon="-7.248910004273057">
        <ele>707</ele>
        <time>2018-05-21T08:55:51Z</time>
      </trkpt>
      <trkpt lat="42.762213991954923" lon="-7.248910004273057">
        <ele>707</ele>
        <time>2018-05-21T08:55:53Z</time>
      </trkpt>
      <trkpt lat="42.762153977528214" lon="-7.248901035636663">
        <ele>707</ele>
        <time>2018-05-21T08:55:55Z</time>
      </trkpt>
      <trkpt lat="42.762088011950254" lon="-7.248876979574561">
        <ele>710</ele>
        <time>2018-05-21T08:55:57Z</time>
      </trkpt>
      <trkpt lat="42.76203503832221" lon="-7.248869016766548">
        <ele>710</ele>
        <time>2018-05-21T08:55:59Z</time>
      </trkpt>
      <trkpt lat="42.761988015845418" lon="-7.248844038695097">
        <ele>710</ele>
        <time>2018-05-21T08:56:00Z</time>
      </trkpt>
      <trkpt lat="42.76190796867013" lon="-7.248802967369556">
        <ele>710</ele>
        <time>2018-05-21T08:56:03Z</time>
      </trkpt>
      <trkpt lat="42.761848038062453" lon="-7.248787041753531">
        <ele>710</ele>
        <time>2018-05-21T08:56:04Z</time>
      </trkpt>
      <trkpt lat="42.761788023635745" lon="-7.248777989298105">
        <ele>710</ele>
        <time>2018-05-21T08:56:06Z</time>
      </trkpt>
      <trkpt lat="42.761728009209037" lon="-7.248770026490092">
        <ele>710</ele>
        <time>2018-05-21T08:56:08Z</time>
      </trkpt>
      <trkpt lat="42.761667994782329" lon="-7.248754017055035">
        <ele>710</ele>
        <time>2018-05-21T08:56:10Z</time>
      </trkpt>
      <trkpt lat="42.76160798035562" lon="-7.24874597042799">
        <ele>710</ele>
        <time>2018-05-21T08:56:12Z</time>
      </trkpt>
      <trkpt lat="42.761561963707209" lon="-7.248703977093101">
        <ele>684</ele>
        <time>2018-05-21T08:56:13Z</time>
      </trkpt>
      <trkpt lat="42.761507984250784" lon="-7.248687967658043">
        <ele>684</ele>
        <time>2018-05-21T08:56:15Z</time>
      </trkpt>
      <trkpt lat="42.761461967602372" lon="-7.248655026778579">
        <ele>684</ele>
        <time>2018-05-21T08:56:17Z</time>
      </trkpt>
      <trkpt lat="42.761407988145947" lon="-7.248630970716476">
        <ele>684</ele>
        <time>2018-05-21T08:56:18Z</time>
      </trkpt>
      <trkpt lat="42.761355014517903" lon="-7.24861403927207">
        <ele>684</ele>
        <time>2018-05-21T08:56:20Z</time>
      </trkpt>
      <trkpt lat="42.761302040889859" lon="-7.248598029837012">
        <ele>684</ele>
        <time>2018-05-21T08:56:22Z</time>
      </trkpt>
      <trkpt lat="42.761268010362983" lon="-7.248540027067065">
        <ele>706</ele>
        <time>2018-05-21T08:56:23Z</time>
      </trkpt>
      <trkpt lat="42.761195003986359" lon="-7.248433995991945">
        <ele>706</ele>
        <time>2018-05-21T08:56:26Z</time>
      </trkpt>
      <trkpt lat="42.761157033964992" lon="-7.248386973515153">
        <ele>706</ele>
        <time>2018-05-21T08:56:28Z</time>
      </trkpt>
      <trkpt lat="42.76111101731658" lon="-7.248345986008644">
        <ele>706</ele>
        <time>2018-05-21T08:56:29Z</time>
      </trkpt>
      <trkpt lat="42.761057037860155" lon="-7.248288989067078">
        <ele>706</ele>
        <time>2018-05-21T08:56:31Z</time>
      </trkpt>
      <trkpt lat="42.761016972362995" lon="-7.248239032924175">
        <ele>706</ele>
        <time>2018-05-21T08:56:33Z</time>
      </trkpt>
      <trkpt lat="42.760971039533615" lon="-7.248197961598635">
        <ele>706</ele>
        <time>2018-05-21T08:56:35Z</time>
      </trkpt>
      <trkpt lat="42.76089702732861" lon="-7.248124033212662">
        <ele>706</ele>
        <time>2018-05-21T08:56:37Z</time>
      </trkpt>
      <trkpt lat="42.760851010680199" lon="-7.248058989644051">
        <ele>706</ele>
        <time>2018-05-21T08:56:39Z</time>
      </trkpt>
      <trkpt lat="42.760824020951986" lon="-7.247984977439046">
        <ele>706</ele>
        <time>2018-05-21T08:56:41Z</time>
      </trkpt>
      <trkpt lat="42.760784039273858" lon="-7.24788598716259">
        <ele>706</ele>
        <time>2018-05-21T08:56:44Z</time>
      </trkpt>
      <trkpt lat="42.76077096350491" lon="-7.247821027413011">
        <ele>685</ele>
        <time>2018-05-21T08:56:45Z</time>
      </trkpt>
      <trkpt lat="42.760738022625446" lon="-7.247754978016019">
        <ele>685</ele>
        <time>2018-05-21T08:56:47Z</time>
      </trkpt>
      <trkpt lat="42.760698040947318" lon="-7.247697981074452">
        <ele>685</ele>
        <time>2018-05-21T08:56:49Z</time>
      </trkpt>
      <trkpt lat="42.760669039562345" lon="-7.247636960819364">
        <ele>685</ele>
        <time>2018-05-21T08:56:50Z</time>
      </trkpt>
      <trkpt lat="42.7606419660151" lon="-7.247572001069784">
        <ele>685</ele>
        <time>2018-05-21T08:56:52Z</time>
      </trkpt>
      <trkpt lat="42.760601984336972" lon="-7.247490026056767">
        <ele>685</ele>
        <time>2018-05-21T08:56:54Z</time>
      </trkpt>
      <trkpt lat="42.760585974901915" lon="-7.247416013851762">
        <ele>685</ele>
        <time>2018-05-21T08:56:56Z</time>
      </trkpt>
      <trkpt lat="42.76055303402245" lon="-7.247308976948261">
        <ele>685</ele>
        <time>2018-05-21T08:56:58Z</time>
      </trkpt>
      <trkpt lat="42.76053300127387" lon="-7.247209986671805">
        <ele>685</ele>
        <time>2018-05-21T08:57:00Z</time>
      </trkpt>
      <trkpt lat="42.760520009323955" lon="-7.247128011658788">
        <ele>685</ele>
        <time>2018-05-21T08:57:02Z</time>
      </trkpt>
      <trkpt lat="42.760499976575375" lon="-7.247055005282164">
        <ele>675</ele>
        <time>2018-05-21T08:57:04Z</time>
      </trkpt>
      <trkpt lat="42.760472986847162" lon="-7.246973030269146">
        <ele>675</ele>
        <time>2018-05-21T08:57:06Z</time>
      </trkpt>
      <trkpt lat="42.760430993512273" lon="-7.246903963387013">
        <ele>689</ele>
        <time>2018-05-21T08:57:08Z</time>
      </trkpt>
      <trkpt lat="42.760329991579056" lon="-7.246705982834101">
        <ele>689</ele>
        <time>2018-05-21T08:57:13Z</time>
      </trkpt>
      <trkpt lat="42.760290009900928" lon="-7.246657032519579">
        <ele>689</ele>
        <time>2018-05-21T08:57:15Z</time>
      </trkpt>
      <trkpt lat="42.760237036272883" lon="-7.246600035578013">
        <ele>689</ele>
        <time>2018-05-21T08:57:17Z</time>
      </trkpt>
      <trkpt lat="42.760169981047511" lon="-7.246500961482525">
        <ele>689</ele>
        <time>2018-05-21T08:57:20Z</time>
      </trkpt>
      <trkpt lat="42.760083982720971" lon="-7.246395014226437">
        <ele>689</ele>
        <time>2018-05-21T08:57:23Z</time>
      </trkpt>
      <trkpt lat="42.760044001042843" lon="-7.246354026719928">
        <ele>689</ele>
        <time>2018-05-21T08:57:25Z</time>
      </trkpt>
      <trkpt lat="42.759996978566051" lon="-7.246303986757994">
        <ele>689</ele>
        <time>2018-05-21T08:57:27Z</time>
      </trkpt>
      <trkpt lat="42.759948028251529" lon="-7.246243972331286">
        <ele>689</ele>
        <time>2018-05-21T08:57:29Z</time>
      </trkpt>
      <trkpt lat="42.759892959147692" lon="-7.246211031451821">
        <ele>669</ele>
        <time>2018-05-21T08:57:30Z</time>
      </trkpt>
      <trkpt lat="42.759762033820152" lon="-7.246064012870193">
        <ele>669</ele>
        <time>2018-05-21T08:57:35Z</time>
      </trkpt>
      <trkpt lat="42.759520970284939" lon="-7.245945995673537">
        <ele>675</ele>
        <time>2018-05-21T08:57:43Z</time>
      </trkpt>
      <trkpt lat="42.759313015267253" lon="-7.24577902816236">
        <ele>675</ele>
        <time>2018-05-21T08:57:50Z</time>
      </trkpt>
      <trkpt lat="42.759171025827527" lon="-7.245638966560364">
        <ele>675</ele>
        <time>2018-05-21T08:57:55Z</time>
      </trkpt>
      <trkpt lat="42.758976984769106" lon="-7.245438974350691">
        <ele>675</ele>
        <time>2018-05-21T08:58:03Z</time>
      </trkpt>
      <trkpt lat="42.758697029203176" lon="-7.245236970484257">
        <ele>671</ele>
        <time>2018-05-21T08:58:12Z</time>
      </trkpt>
      <trkpt lat="42.758486978709698" lon="-7.245015017688274">
        <ele>671</ele>
        <time>2018-05-21T08:58:20Z</time>
      </trkpt>
      <trkpt lat="42.758315987884998" lon="-7.244863975793123">
        <ele>671</ele>
        <time>2018-05-21T08:58:26Z</time>
      </trkpt>
      <trkpt lat="42.758076013997197" lon="-7.244624001905322">
        <ele>671</ele>
        <time>2018-05-21T08:58:35Z</time>
      </trkpt>
      <trkpt lat="42.75784500874579" lon="-7.244454016909003">
        <ele>658</ele>
        <time>2018-05-21T08:58:43Z</time>
      </trkpt>
      <trkpt lat="42.757668988779187" lon="-7.244288977235556">
        <ele>658</ele>
        <time>2018-05-21T08:58:49Z</time>
      </trkpt>
      <trkpt lat="42.757526999339461" lon="-7.244199039414525">
        <ele>658</ele>
        <time>2018-05-21T08:58:54Z</time>
      </trkpt>
      <trkpt lat="42.757323989644647" lon="-7.244171965867281">
        <ele>658</ele>
        <time>2018-05-21T08:59:00Z</time>
      </trkpt>
      <trkpt lat="42.757316026836634" lon="-7.244171965867281">
        <ele>658</ele>
        <time>2018-05-21T08:59:00Z</time>
      </trkpt>
      <trkpt lat="42.75698502548039" lon="-7.244069958105683">
        <ele>655</ele>
        <time>2018-05-21T08:59:10Z</time>
      </trkpt>
      <trkpt lat="42.756685959175229" lon="-7.243943978101015">
        <ele>655</ele>
        <time>2018-05-21T08:59:19Z</time>
      </trkpt>
      <trkpt lat="42.75645000860095" lon="-7.243848005309701">
        <ele>655</ele>
        <time>2018-05-21T08:59:26Z</time>
      </trkpt>
      <trkpt lat="42.756273988634348" lon="-7.243773993104696">
        <ele>660</ele>
        <time>2018-05-21T08:59:32Z</time>
      </trkpt>
      <trkpt lat="42.756140967831016" lon="-7.24369796924293">
        <ele>660</ele>
        <time>2018-05-21T08:59:36Z</time>
      </trkpt>
      <trkpt lat="42.755997972562909" lon="-7.243665028363466">
        <ele>660</ele>
        <time>2018-05-21T08:59:40Z</time>
      </trkpt>
      <trkpt lat="42.755980035290122" lon="-7.243665028363466">
        <ele>660</ele>
        <time>2018-05-21T08:59:41Z</time>
      </trkpt>
      <trkpt lat="42.755924966186285" lon="-7.243672991171479">
        <ele>660</ele>
        <time>2018-05-21T08:59:43Z</time>
      </trkpt>
      <trkpt lat="42.75587098672986" lon="-7.243689000606537">
        <ele>660</ele>
        <time>2018-05-21T08:59:44Z</time>
      </trkpt>
      <trkpt lat="42.755837962031364" lon="-7.243736023083329">
        <ele>660</ele>
        <time>2018-05-21T08:59:46Z</time>
      </trkpt>
      <trkpt lat="42.755791023373604" lon="-7.24376100115478">
        <ele>660</ele>
        <time>2018-05-21T08:59:47Z</time>
      </trkpt>
      <trkpt lat="42.755739977583289" lon="-7.243787990882993">
        <ele>660</ele>
        <time>2018-05-21T08:59:49Z</time>
      </trkpt>
      <trkpt lat="42.755693038925529" lon="-7.243798971176148">
        <ele>660</ele>
        <time>2018-05-21T08:59:50Z</time>
      </trkpt>
      <trkpt lat="42.75563302449882" lon="-7.243815986439586">
        <ele>660</ele>
        <time>2018-05-21T08:59:52Z</time>
      </trkpt>
      <trkpt lat="42.755573010072112" lon="-7.243815986439586">
        <ele>660</ele>
        <time>2018-05-21T08:59:54Z</time>
      </trkpt>
      <trkpt lat="42.755518024787307" lon="-7.243815986439586">
        <ele>658</ele>
        <time>2018-05-21T08:59:55Z</time>
      </trkpt>
      <trkpt lat="42.755475025624037" lon="-7.243798971176148">
        <ele>660</ele>
        <time>2018-05-21T08:59:57Z</time>
      </trkpt>
      <trkpt lat="42.755421968176961" lon="-7.243791008368135">
        <ele>657</ele>
        <time>2018-05-21T08:59:58Z</time>
      </trkpt>
      <trkpt lat="42.755365977063775" lon="-7.243750020861626">
        <ele>657</ele>
        <time>2018-05-21T09:00:00Z</time>
      </trkpt>
      <trkpt lat="42.755294982343912" lon="-7.243713978677988">
        <ele>657</ele>
        <time>2018-05-21T09:00:02Z</time>
      </trkpt>
      <trkpt lat="42.755194986239076" lon="-7.24369503557682">
        <ele>657</ele>
        <time>2018-05-21T09:00:05Z</time>
      </trkpt>
      <trkpt lat="42.755114017054439" lon="-7.243569977581501">
        <ele>658</ele>
        <time>2018-05-21T09:00:09Z</time>
      </trkpt>
      <trkpt lat="42.755188029259443" lon="-7.243423964828253">
        <ele>658</ele>
        <time>2018-05-21T09:00:13Z</time>
      </trkpt>
      <trkpt lat="42.755228010937572" lon="-7.243347018957138">
        <ele>658</ele>
        <time>2018-05-21T09:00:15Z</time>
      </trkpt>
      <trkpt lat="42.755276961252093" lon="-7.243225984275341">
        <ele>658</ele>
        <time>2018-05-21T09:00:18Z</time>
      </trkpt>
      <trkpt lat="42.755350973457098" lon="-7.243065973743796">
        <ele>658</ele>
        <time>2018-05-21T09:00:22Z</time>
      </trkpt>
      <trkpt lat="42.755425991490483" lon="-7.242868999019265">
        <ele>658</ele>
        <time>2018-05-21T09:00:27Z</time>
      </trkpt>
      <trkpt lat="42.755517018958926" lon="-7.242672024294734">
        <ele>660</ele>
        <time>2018-05-21T09:00:32Z</time>
      </trkpt>
      <trkpt lat="42.755606034770608" lon="-7.242401037365198">
        <ele>660</ele>
        <time>2018-05-21T09:00:38Z</time>
      </trkpt>
      <trkpt lat="42.755693038925529" lon="-7.242184029892087">
        <ele>660</ele>
        <time>2018-05-21T09:00:44Z</time>
      </trkpt>
      <trkpt lat="42.755796974524856" lon="-7.241883035749197">
        <ele>665</ele>
        <time>2018-05-21T09:00:51Z</time>
      </trkpt>
      <trkpt lat="42.755904011428356" lon="-7.241599978879094">
        <ele>665</ele>
        <time>2018-05-21T09:00:58Z</time>
      </trkpt>
      <trkpt lat="42.755910968407989" lon="-7.241369979456067">
        <ele>665</ele>
        <time>2018-05-21T09:01:03Z</time>
      </trkpt>
      <trkpt lat="42.755910968407989" lon="-7.241351036354899">
        <ele>665</ele>
        <time>2018-05-21T09:01:03Z</time>
      </trkpt>
      <trkpt lat="42.755917003378272" lon="-7.241167975589633">
        <ele>667</ele>
        <time>2018-05-21T09:01:07Z</time>
      </trkpt>
      <trkpt lat="42.755925972014666" lon="-7.240943005308509">
        <ele>667</ele>
        <time>2018-05-21T09:01:12Z</time>
      </trkpt>
      <trkpt lat="42.755925972014666" lon="-7.240716023370624">
        <ele>667</ele>
        <time>2018-05-21T09:01:17Z</time>
      </trkpt>
      <trkpt lat="42.755939969792962" lon="-7.240548972040415">
        <ele>667</ele>
        <time>2018-05-21T09:01:21Z</time>
      </trkpt>
      <trkpt lat="42.755952961742878" lon="-7.240403965115547">
        <ele>667</ele>
        <time>2018-05-21T09:01:24Z</time>
      </trkpt>
      <trkpt lat="42.755952961742878" lon="-7.240330036729574">
        <ele>666</ele>
        <time>2018-05-21T09:01:25Z</time>
      </trkpt>
      <trkpt lat="42.755952961742878" lon="-7.240244960412383">
        <ele>666</ele>
        <time>2018-05-21T09:01:27Z</time>
      </trkpt>
      <trkpt lat="42.755952961742878" lon="-7.240168014541268">
        <ele>666</ele>
        <time>2018-05-21T09:01:29Z</time>
      </trkpt>
      <trkpt lat="42.755960002541542" lon="-7.2400420345366">
        <ele>666</ele>
        <time>2018-05-21T09:01:32Z</time>
      </trkpt>
      <trkpt lat="42.755966959521174" lon="-7.240009009838104">
        <ele>666</ele>
        <time>2018-05-21T09:01:32Z</time>
      </trkpt>
      <trkpt lat="42.755972994491458" lon="-7.239918988198042">
        <ele>666</ele>
        <time>2018-05-21T09:01:34Z</time>
      </trkpt>
      <trkpt lat="42.755972994491458" lon="-7.239837013185024">
        <ele>666</ele>
        <time>2018-05-21T09:01:36Z</time>
      </trkpt>
      <trkpt lat="42.75599998421967" lon="-7.239755038172007">
        <ele>666</ele>
        <time>2018-05-21T09:01:38Z</time>
      </trkpt>
      <trkpt lat="42.756012976169586" lon="-7.239681025967002">
        <ele>666</ele>
        <time>2018-05-21T09:01:40Z</time>
      </trkpt>
      <trkpt lat="42.75602001696825" lon="-7.239583041518927">
        <ele>666</ele>
        <time>2018-05-21T09:01:42Z</time>
      </trkpt>
      <trkpt lat="42.756026973947883" lon="-7.239500982686877">
        <ele>668</ele>
        <time>2018-05-21T09:01:44Z</time>
      </trkpt>
      <trkpt lat="42.756033008918166" lon="-7.239394029602408">
        <ele>668</ele>
        <time>2018-05-21T09:01:46Z</time>
      </trkpt>
      <trkpt lat="42.756033008918166" lon="-7.239320017397404">
        <ele>668</ele>
        <time>2018-05-21T09:01:48Z</time>
      </trkpt>
      <trkpt lat="42.756033008918166" lon="-7.239246005192399">
        <ele>668</ele>
        <time>2018-05-21T09:01:49Z</time>
      </trkpt>
      <trkpt lat="42.756039965897799" lon="-7.239164030179381">
        <ele>668</ele>
        <time>2018-05-21T09:01:51Z</time>
      </trkpt>
      <trkpt lat="42.756039965897799" lon="-7.239081971347332">
        <ele>668</ele>
        <time>2018-05-21T09:01:53Z</time>
      </trkpt>
      <trkpt lat="42.756039965897799" lon="-7.239007959142327">
        <ele>668</ele>
        <time>2018-05-21T09:01:54Z</time>
      </trkpt>
      <trkpt lat="42.756039965897799" lon="-7.238918021321297">
        <ele>668</ele>
        <time>2018-05-21T09:01:56Z</time>
      </trkpt>
      <trkpt lat="42.756039965897799" lon="-7.238820036873221">
        <ele>668</ele>
        <time>2018-05-21T09:01:58Z</time>
      </trkpt>
      <trkpt lat="42.756039965897799" lon="-7.238746024668217">
        <ele>668</ele>
        <time>2018-05-21T09:02:00Z</time>
      </trkpt>
      <trkpt lat="42.756039965897799" lon="-7.238672012463212">
        <ele>669</ele>
        <time>2018-05-21T09:02:02Z</time>
      </trkpt>
      <trkpt lat="42.756039965897799" lon="-7.23858199082315">
        <ele>669</ele>
        <time>2018-05-21T09:02:04Z</time>
      </trkpt>
      <trkpt lat="42.756047006696463" lon="-7.238500015810132">
        <ele>669</ele>
        <time>2018-05-21T09:02:05Z</time>
      </trkpt>
      <trkpt lat="42.756047006696463" lon="-7.238426003605127">
        <ele>669</ele>
        <time>2018-05-21T09:02:07Z</time>
      </trkpt>
      <trkpt lat="42.756047006696463" lon="-7.238335981965065">
        <ele>669</ele>
        <time>2018-05-21T09:02:09Z</time>
      </trkpt>
      <trkpt lat="42.756053041666746" lon="-7.238254006952047">
        <ele>669</ele>
        <time>2018-05-21T09:02:11Z</time>
      </trkpt>
      <trkpt lat="42.756053041666746" lon="-7.238179994747043">
        <ele>669</ele>
        <time>2018-05-21T09:02:12Z</time>
      </trkpt>
      <trkpt lat="42.756067039445043" lon="-7.238098019734025">
        <ele>669</ele>
        <time>2018-05-21T09:02:14Z</time>
      </trkpt>
      <trkpt lat="42.756067039445043" lon="-7.238015960901976">
        <ele>669</ele>
        <time>2018-05-21T09:02:16Z</time>
      </trkpt>
      <trkpt lat="42.756067039445043" lon="-7.237942032516003">
        <ele>669</ele>
        <time>2018-05-21T09:02:18Z</time>
      </trkpt>
      <trkpt lat="42.756067039445043" lon="-7.237868020310998">
        <ele>670</ele>
        <time>2018-05-21T09:02:19Z</time>
      </trkpt>
      <trkpt lat="42.756080031394958" lon="-7.237794008105993">
        <ele>670</ele>
        <time>2018-05-21T09:02:21Z</time>
      </trkpt>
      <trkpt lat="42.756093023344874" lon="-7.237719995900989">
        <ele>670</ele>
        <time>2018-05-21T09:02:22Z</time>
      </trkpt>
      <trkpt lat="42.756099980324507" lon="-7.237645983695984">
        <ele>670</ele>
        <time>2018-05-21T09:02:24Z</time>
      </trkpt>
      <trkpt lat="42.756112972274423" lon="-7.237571971490979">
        <ele>670</ele>
        <time>2018-05-21T09:02:26Z</time>
      </trkpt>
      <trkpt lat="42.756112972274423" lon="-7.237489996477962">
        <ele>670</ele>
        <time>2018-05-21T09:02:27Z</time>
      </trkpt>
      <trkpt lat="42.756120013073087" lon="-7.237399974837899">
        <ele>670</ele>
        <time>2018-05-21T09:02:29Z</time>
      </trkpt>
      <trkpt lat="42.756126970052719" lon="-7.237325962632895">
        <ele>670</ele>
        <time>2018-05-21T09:02:31Z</time>
      </trkpt>
      <trkpt lat="42.756126970052719" lon="-7.23725002259016">
        <ele>670</ele>
        <time>2018-05-21T09:02:33Z</time>
      </trkpt>
      <trkpt lat="42.756126970052719" lon="-7.237176010385156">
        <ele>670</ele>
        <time>2018-05-21T09:02:34Z</time>
      </trkpt>
      <trkpt lat="42.756126970052719" lon="-7.237101998180151">
        <ele>670</ele>
        <time>2018-05-21T09:02:36Z</time>
      </trkpt>
      <trkpt lat="42.756126970052719" lon="-7.23701398819685">
        <ele>674</ele>
        <time>2018-05-21T09:02:38Z</time>
      </trkpt>
      <trkpt lat="42.756126970052719" lon="-7.236932013183832">
        <ele>674</ele>
        <time>2018-05-21T09:02:40Z</time>
      </trkpt>
      <trkpt lat="42.756126970052719" lon="-7.236854983493686">
        <ele>674</ele>
        <time>2018-05-21T09:02:41Z</time>
      </trkpt>
      <trkpt lat="42.756126970052719" lon="-7.236773008480668">
        <ele>674</ele>
        <time>2018-05-21T09:02:43Z</time>
      </trkpt>
      <trkpt lat="42.756126970052719" lon="-7.236698996275663">
        <ele>674</ele>
        <time>2018-05-21T09:02:45Z</time>
      </trkpt>
      <trkpt lat="42.756126970052719" lon="-7.236618027091026">
        <ele>674</ele>
        <time>2018-05-21T09:02:46Z</time>
      </trkpt>
      <trkpt lat="42.756126970052719" lon="-7.236534962430596">
        <ele>674</ele>
        <time>2018-05-21T09:02:48Z</time>
      </trkpt>
      <trkpt lat="42.756126970052719" lon="-7.236462039873004">
        <ele>674</ele>
        <time>2018-05-21T09:02:50Z</time>
      </trkpt>
      <trkpt lat="42.756126970052719" lon="-7.236388027667999">
        <ele>674</ele>
        <time>2018-05-21T09:02:51Z</time>
      </trkpt>
      <trkpt lat="42.756120013073087" lon="-7.236289037391543">
        <ele>674</ele>
        <time>2018-05-21T09:02:54Z</time>
      </trkpt>
      <trkpt lat="42.756120013073087" lon="-7.236215025186539">
        <ele>677</ele>
        <time>2018-05-21T09:02:55Z</time>
      </trkpt>
      <trkpt lat="42.756120013073087" lon="-7.236132966354489">
        <ele>677</ele>
        <time>2018-05-21T09:02:57Z</time>
      </trkpt>
      <trkpt lat="42.756120013073087" lon="-7.236059959977865">
        <ele>677</ele>
        <time>2018-05-21T09:02:59Z</time>
      </trkpt>
      <trkpt lat="42.756120013073087" lon="-7.235986031591892">
        <ele>677</ele>
        <time>2018-05-21T09:03:00Z</time>
      </trkpt>
      <trkpt lat="42.756120013073087" lon="-7.235901039093733">
        <ele>677</ele>
        <time>2018-05-21T09:03:02Z</time>
      </trkpt>
      <trkpt lat="42.756112972274423" lon="-7.235824009403586">
        <ele>677</ele>
        <time>2018-05-21T09:03:04Z</time>
      </trkpt>
      <trkpt lat="42.756112972274423" lon="-7.235735999420285">
        <ele>677</ele>
        <time>2018-05-21T09:03:06Z</time>
      </trkpt>
      <trkpt lat="42.756089000031352" lon="-7.23568101413548">
        <ele>677</ele>
        <time>2018-05-21T09:03:07Z</time>
      </trkpt>
      <trkpt lat="42.756035020574927" lon="-7.235665004700422">
        <ele>677</ele>
        <time>2018-05-21T09:03:09Z</time>
      </trkpt>
      <trkpt lat="42.755975006148219" lon="-7.235665004700422">
        <ele>677</ele>
        <time>2018-05-21T09:03:10Z</time>
      </trkpt>
      <trkpt lat="42.755909040570259" lon="-7.235656036064029">
        <ele>677</ele>
        <time>2018-05-21T09:03:12Z</time>
      </trkpt>
      <trkpt lat="42.755864029750228" lon="-7.235640026628971">
        <ele>677</ele>
        <time>2018-05-21T09:03:14Z</time>
      </trkpt>
      <trkpt lat="42.755810972303152" lon="-7.235631980001926">
        <ele>677</ele>
        <time>2018-05-21T09:03:15Z</time>
      </trkpt>
      <trkpt lat="42.755756992846727" lon="-7.235614964738488">
        <ele>677</ele>
        <time>2018-05-21T09:03:17Z</time>
      </trkpt>
      <trkpt lat="42.755683986470103" lon="-7.235607001930475">
        <ele>677</ele>
        <time>2018-05-21T09:03:19Z</time>
      </trkpt>
      <trkpt lat="42.755621960386634" lon="-7.235607001930475">
        <ele>677</ele>
        <time>2018-05-21T09:03:21Z</time>
      </trkpt>
      <trkpt lat="42.755581978708506" lon="-7.235583029687405">
        <ele>677</ele>
        <time>2018-05-21T09:03:22Z</time>
      </trkpt>
      <trkpt lat="42.755539985373616" lon="-7.235566014423966">
        <ele>677</ele>
        <time>2018-05-21T09:03:24Z</time>
      </trkpt>
      <trkpt lat="42.755481982603669" lon="-7.235557967796922">
        <ele>677</ele>
        <time>2018-05-21T09:03:25Z</time>
      </trkpt>
      <trkpt lat="42.755447030067444" lon="-7.235475992783904">
        <ele>669</ele>
        <time>2018-05-21T09:03:27Z</time>
      </trkpt>
      <trkpt lat="42.755486005917192" lon="-7.235475992783904">
        <ele>677</ele>
        <time>2018-05-21T09:03:28Z</time>
      </trkpt>
      <trkpt lat="42.755529005080462" lon="-7.235481021925807">
        <ele>677</ele>
        <time>2018-05-21T09:03:30Z</time>
      </trkpt>
      <trkpt lat="42.755570998415351" lon="-7.235486973077059">
        <ele>677</ele>
        <time>2018-05-21T09:03:31Z</time>
      </trkpt>
      <trkpt lat="42.755608968436718" lon="-7.235495019704104">
        <ele>677</ele>
        <time>2018-05-21T09:03:32Z</time>
      </trkpt>
      <trkpt lat="42.755640987306833" lon="-7.235505999997258">
        <ele>677</ele>
        <time>2018-05-21T09:03:33Z</time>
      </trkpt>
      <trkpt lat="42.755668982863426" lon="-7.235528966411948">
        <ele>677</ele>
        <time>2018-05-21T09:03:34Z</time>
      </trkpt>
      <trkpt lat="42.755707036703825" lon="-7.235535001382232">
        <ele>677</ele>
        <time>2018-05-21T09:03:35Z</time>
      </trkpt>
      <trkpt lat="42.755746012553573" lon="-7.235545981675386">
        <ele>677</ele>
        <time>2018-05-21T09:03:36Z</time>
      </trkpt>
      <trkpt lat="42.755782976746559" lon="-7.23555201664567">
        <ele>677</ele>
        <time>2018-05-21T09:03:38Z</time>
      </trkpt>
      <trkpt lat="42.755820024758577" lon="-7.235557967796922">
        <ele>677</ele>
        <time>2018-05-21T09:03:39Z</time>
      </trkpt>
      <trkpt lat="42.755861012265086" lon="-7.235557967796922">
        <ele>677</ele>
        <time>2018-05-21T09:03:40Z</time>
      </trkpt>
      <trkpt lat="42.755896970629692" lon="-7.235566014423966">
        <ele>677</ele>
        <time>2018-05-21T09:03:41Z</time>
      </trkpt>
      <trkpt lat="42.755938963964581" lon="-7.235576994717121">
        <ele>677</ele>
        <time>2018-05-21T09:03:42Z</time>
      </trkpt>
      <trkpt lat="42.755978023633361" lon="-7.235583029687405">
        <ele>677</ele>
        <time>2018-05-21T09:03:43Z</time>
      </trkpt>
      <trkpt lat="42.75602001696825" lon="-7.235583029687405">
        <ele>677</ele>
        <time>2018-05-21T09:03:45Z</time>
      </trkpt>
      <trkpt lat="42.75606201030314" lon="-7.235583029687405">
        <ele>677</ele>
        <time>2018-05-21T09:03:46Z</time>
      </trkpt>
      <trkpt lat="42.756097968667746" lon="-7.23557498306036">
        <ele>677</ele>
        <time>2018-05-21T09:03:47Z</time>
      </trkpt>
      <trkpt lat="42.7561279758811" lon="-7.235564002767205">
        <ele>677</ele>
        <time>2018-05-21T09:03:48Z</time>
      </trkpt>
      <trkpt lat="42.756139962002635" lon="-7.235517986118794">
        <ele>677</ele>
        <time>2018-05-21T09:03:49Z</time>
      </trkpt>
      <trkpt lat="42.756150020286441" lon="-7.235472975298762">
        <ele>677</ele>
        <time>2018-05-21T09:03:50Z</time>
      </trkpt>
      <trkpt lat="42.756150020286441" lon="-7.235418995842338">
        <ele>677</ele>
        <time>2018-05-21T09:03:51Z</time>
      </trkpt>
      <trkpt lat="42.756161000579596" lon="-7.235360993072391">
        <ele>677</ele>
        <time>2018-05-21T09:03:52Z</time>
      </trkpt>
      <trkpt lat="42.756161000579596" lon="-7.235310031101108">
        <ele>677</ele>
        <time>2018-05-21T09:03:53Z</time>
      </trkpt>
      <trkpt lat="42.756161000579596" lon="-7.235252028331161">
        <ele>682</ele>
        <time>2018-05-21T09:03:55Z</time>
      </trkpt>
      <trkpt lat="42.756161000579596" lon="-7.235188996419311">
        <ele>682</ele>
        <time>2018-05-21T09:03:56Z</time>
      </trkpt>
      <trkpt lat="42.756161000579596" lon="-7.235120013356209">
        <ele>682</ele>
        <time>2018-05-21T09:03:58Z</time>
      </trkpt>
      <trkpt lat="42.756161000579596" lon="-7.235051030293107">
        <ele>682</ele>
        <time>2018-05-21T09:03:59Z</time>
      </trkpt>
      <trkpt lat="42.756161000579596" lon="-7.234994033351541">
        <ele>682</ele>
        <time>2018-05-21T09:04:00Z</time>
      </trkpt>
      <trkpt lat="42.756161000579596" lon="-7.234931001439691">
        <ele>682</ele>
        <time>2018-05-21T09:04:02Z</time>
      </trkpt>
      <trkpt lat="42.756161000579596" lon="-7.234879033640027">
        <ele>682</ele>
        <time>2018-05-21T09:04:03Z</time>
      </trkpt>
      <trkpt lat="42.756161000579596" lon="-7.234822036698461">
        <ele>682</ele>
        <time>2018-05-21T09:04:04Z</time>
      </trkpt>
      <trkpt lat="42.756161000579596" lon="-7.234769985079765">
        <ele>682</ele>
        <time>2018-05-21T09:04:05Z</time>
      </trkpt>
      <trkpt lat="42.756161000579596" lon="-7.234707036986947">
        <ele>682</ele>
        <time>2018-05-21T09:04:07Z</time>
      </trkpt>
      <trkpt lat="42.756161000579596" lon="-7.234654985368252">
        <ele>682</ele>
        <time>2018-05-21T09:04:08Z</time>
      </trkpt>
      <trkpt lat="42.756161000579596" lon="-7.234597988426685">
        <ele>682</ele>
        <time>2018-05-21T09:04:09Z</time>
      </trkpt>
      <trkpt lat="42.756161000579596" lon="-7.234534034505487">
        <ele>682</ele>
        <time>2018-05-21T09:04:10Z</time>
      </trkpt>
      <trkpt lat="42.756161000579596" lon="-7.234482988715172">
        <ele>682</ele>
        <time>2018-05-21T09:04:11Z</time>
      </trkpt>
      <trkpt lat="42.756161000579596" lon="-7.234431020915508">
        <ele>685</ele>
        <time>2018-05-21T09:04:13Z</time>
      </trkpt>
      <trkpt lat="42.756161000579596" lon="-7.234367989003658">
        <ele>685</ele>
        <time>2018-05-21T09:04:14Z</time>
      </trkpt>
      <trkpt lat="42.756161000579596" lon="-7.23430504091084">
        <ele>685</ele>
        <time>2018-05-21T09:04:15Z</time>
      </trkpt>
      <trkpt lat="42.756161000579596" lon="-7.23424200899899">
        <ele>685</ele>
        <time>2018-05-21T09:04:17Z</time>
      </trkpt>
      <trkpt lat="42.756161000579596" lon="-7.23417797125876">
        <ele>685</ele>
        <time>2018-05-21T09:04:18Z</time>
      </trkpt>
      <trkpt lat="42.756161000579596" lon="-7.234120974317193">
        <ele>685</ele>
        <time>2018-05-21T09:04:19Z</time>
      </trkpt>
      <trkpt lat="42.756161000579596" lon="-7.23406900651753">
        <ele>685</ele>
        <time>2018-05-21T09:04:20Z</time>
      </trkpt>
      <trkpt lat="42.756161000579596" lon="-7.23400597460568">
        <ele>685</ele>
        <time>2018-05-21T09:04:22Z</time>
      </trkpt>
      <trkpt lat="42.756161000579596" lon="-7.233954006806016">
        <ele>685</ele>
        <time>2018-05-21T09:04:23Z</time>
      </trkpt>
      <trkpt lat="42.756161000579596" lon="-7.23389700986445">
        <ele>685</ele>
        <time>2018-05-21T09:04:24Z</time>
      </trkpt>
      <trkpt lat="42.756161000579596" lon="-7.233821991831064">
        <ele>685</ele>
        <time>2018-05-21T09:04:26Z</time>
      </trkpt>
      <trkpt lat="42.756161000579596" lon="-7.233764994889498">
        <ele>685</ele>
        <time>2018-05-21T09:04:27Z</time>
      </trkpt>
      <trkpt lat="42.756161000579596" lon="-7.233706992119551">
        <ele>685</ele>
        <time>2018-05-21T09:04:28Z</time>
      </trkpt>
      <trkpt lat="42.756151026114821" lon="-7.233656030148268">
        <ele>685</ele>
        <time>2018-05-21T09:04:29Z</time>
      </trkpt>
      <trkpt lat="42.756151026114821" lon="-7.233603978529573">
        <ele>693</ele>
        <time>2018-05-21T09:04:31Z</time>
      </trkpt>
      <trkpt lat="42.756141973659396" lon="-7.233549999073148">
        <ele>693</ele>
        <time>2018-05-21T09:04:32Z</time>
      </trkpt>
      <trkpt lat="42.7561279758811" lon="-7.233499037101865">
        <ele>693</ele>
        <time>2018-05-21T09:04:33Z</time>
      </trkpt>
      <trkpt lat="42.756113978102803" lon="-7.233457965776324">
        <ele>693</ele>
        <time>2018-05-21T09:04:34Z</time>
      </trkpt>
      <trkpt lat="42.756095035001636" lon="-7.233407003805041">
        <ele>693</ele>
        <time>2018-05-21T09:04:35Z</time>
      </trkpt>
      <trkpt lat="42.756071984767914" lon="-7.233367022126913">
        <ele>693</ele>
        <time>2018-05-21T09:04:36Z</time>
      </trkpt>
      <trkpt lat="42.756047006696463" lon="-7.233329974114895">
        <ele>693</ele>
        <time>2018-05-21T09:04:37Z</time>
      </trkpt>
      <trkpt lat="42.75601901113987" lon="-7.233289992436767">
        <ele>693</ele>
        <time>2018-05-21T09:04:39Z</time>
      </trkpt>
      <trkpt lat="42.755995960906148" lon="-7.233250010758638">
        <ele>693</ele>
        <time>2018-05-21T09:04:40Z</time>
      </trkpt>
      <trkpt lat="42.755981963127851" lon="-7.233197959139943">
        <ele>693</ele>
        <time>2018-05-21T09:04:41Z</time>
      </trkpt>
      <trkpt lat="42.755954973399639" lon="-7.233150014653802">
        <ele>693</ele>
        <time>2018-05-21T09:04:42Z</time>
      </trkpt>
      <trkpt lat="42.75589101947844" lon="-7.232947004958987">
        <ele>693</ele>
        <time>2018-05-21T09:04:47Z</time>
      </trkpt>
      <trkpt lat="42.75589101947844" lon="-7.232927978038788">
        <ele>693</ele>
        <time>2018-05-21T09:04:47Z</time>
      </trkpt>
      <trkpt lat="42.755862018093467" lon="-7.232766961678863">
        <ele>695</ele>
        <time>2018-05-21T09:04:51Z</time>
      </trkpt>
      <trkpt lat="42.755823964253068" lon="-7.232570992782712">
        <ele>695</ele>
        <time>2018-05-21T09:04:55Z</time>
      </trkpt>
      <trkpt lat="42.755753975361586" lon="-7.232344010844827">
        <ele>695</ele>
        <time>2018-05-21T09:05:01Z</time>
      </trkpt>
      <trkpt lat="42.755692033097148" lon="-7.232134966179729">
        <ele>695</ele>
        <time>2018-05-21T09:05:06Z</time>
      </trkpt>
      <trkpt lat="42.755652973428369" lon="-7.231992976740003">
        <ele>696</ele>
        <time>2018-05-21T09:05:09Z</time>
      </trkpt>
      <trkpt lat="42.755649033933878" lon="-7.231941008940339">
        <ele>696</ele>
        <time>2018-05-21T09:05:10Z</time>
      </trkpt>
      <trkpt lat="42.755644004791975" lon="-7.231889041140676">
        <ele>696</ele>
        <time>2018-05-21T09:05:11Z</time>
      </trkpt>
      <trkpt lat="42.755635036155581" lon="-7.231815028935671">
        <ele>696</ele>
        <time>2018-05-21T09:05:13Z</time>
      </trkpt>
      <trkpt lat="42.755630007013679" lon="-7.231762977316976">
        <ele>696</ele>
        <time>2018-05-21T09:05:14Z</time>
      </trkpt>
      <trkpt lat="42.755616009235382" lon="-7.231700029224157">
        <ele>696</ele>
        <time>2018-05-21T09:05:15Z</time>
      </trkpt>
      <trkpt lat="42.755607040598989" lon="-7.231647977605462">
        <ele>696</ele>
        <time>2018-05-21T09:05:17Z</time>
      </trkpt>
      <trkpt lat="42.755596982315183" lon="-7.231597015634179">
        <ele>696</ele>
        <time>2018-05-21T09:05:18Z</time>
      </trkpt>
      <trkpt lat="42.755596982315183" lon="-7.231528032571077">
        <ele>696</ele>
        <time>2018-05-21T09:05:19Z</time>
      </trkpt>
      <trkpt lat="42.755596982315183" lon="-7.23147002980113">
        <ele>696</ele>
        <time>2018-05-21T09:05:20Z</time>
      </trkpt>
      <trkpt lat="42.755596982315183" lon="-7.231413032859564">
        <ele>696</ele>
        <time>2018-05-21T09:05:22Z</time>
      </trkpt>
      <trkpt lat="42.755607040598989" lon="-7.231355030089617">
        <ele>696</ele>
        <time>2018-05-21T09:05:23Z</time>
      </trkpt>
      <trkpt lat="42.755616009235382" lon="-7.231309013441205">
        <ele>696</ele>
        <time>2018-05-21T09:05:24Z</time>
      </trkpt>
      <trkpt lat="42.755638975650072" lon="-7.23125796765089">
        <ele>696</ele>
        <time>2018-05-21T09:05:25Z</time>
      </trkpt>
      <trkpt lat="42.755664037540555" lon="-7.231215974316001">
        <ele>696</ele>
        <time>2018-05-21T09:05:26Z</time>
      </trkpt>
      <trkpt lat="42.755687003955245" lon="-7.231174986809492">
        <ele>696</ele>
        <time>2018-05-21T09:05:28Z</time>
      </trkpt>
      <trkpt lat="42.755706030875444" lon="-7.231135005131364">
        <ele>693</ele>
        <time>2018-05-21T09:05:29Z</time>
      </trkpt>
      <trkpt lat="42.755734026432037" lon="-7.231088988482952">
        <ele>693</ele>
        <time>2018-05-21T09:05:30Z</time>
      </trkpt>
      <trkpt lat="42.755756992846727" lon="-7.231037020683289">
        <ele>693</ele>
        <time>2018-05-21T09:05:31Z</time>
      </trkpt>
      <trkpt lat="42.755780965089798" lon="-7.230992009863257">
        <ele>693</ele>
        <time>2018-05-21T09:05:32Z</time>
      </trkpt>
      <trkpt lat="42.75580401532352" lon="-7.230951022356749">
        <ele>693</ele>
        <time>2018-05-21T09:05:34Z</time>
      </trkpt>
      <trkpt lat="42.755832010880113" lon="-7.230905005708337">
        <ele>693</ele>
        <time>2018-05-21T09:05:35Z</time>
      </trkpt>
      <trkpt lat="42.755840979516506" lon="-7.230853959918022">
        <ele>693</ele>
        <time>2018-05-21T09:05:36Z</time>
      </trkpt>
      <trkpt lat="42.755846008658409" lon="-7.230801992118359">
        <ele>693</ele>
        <time>2018-05-21T09:05:37Z</time>
      </trkpt>
      <trkpt lat="42.755846008658409" lon="-7.230738960206509">
        <ele>693</ele>
        <time>2018-05-21T09:05:39Z</time>
      </trkpt>
      <trkpt lat="42.755846008658409" lon="-7.230681041255593">
        <ele>693</ele>
        <time>2018-05-21T09:05:40Z</time>
      </trkpt>
      <trkpt lat="42.755846008658409" lon="-7.230629995465279">
        <ele>693</ele>
        <time>2018-05-21T09:05:41Z</time>
      </trkpt>
      <trkpt lat="42.755846008658409" lon="-7.230566963553429">
        <ele>693</ele>
        <time>2018-05-21T09:05:42Z</time>
      </trkpt>
      <trkpt lat="42.755840979516506" lon="-7.230497980490327">
        <ele>693</ele>
        <time>2018-05-21T09:05:44Z</time>
      </trkpt>
      <trkpt lat="42.755822958424687" lon="-7.230451963841915">
        <ele>693</ele>
        <time>2018-05-21T09:05:45Z</time>
      </trkpt>
      <trkpt lat="42.755808960646391" lon="-7.230406031012535">
        <ele>693</ele>
        <time>2018-05-21T09:05:46Z</time>
      </trkpt>
      <trkpt lat="42.755790017545223" lon="-7.23035397939384">
        <ele>693</ele>
        <time>2018-05-21T09:05:47Z</time>
      </trkpt>
      <trkpt lat="42.75576202198863" lon="-7.230307962745428">
        <ele>695</ele>
        <time>2018-05-21T09:05:49Z</time>
      </trkpt>
      <trkpt lat="42.755734026432037" lon="-7.2302679810673">
        <ele>695</ele>
        <time>2018-05-21T09:05:50Z</time>
      </trkpt>
      <trkpt lat="42.755714999511838" lon="-7.230221964418888">
        <ele>695</ele>
        <time>2018-05-21T09:05:51Z</time>
      </trkpt>
      <trkpt lat="42.755696978420019" lon="-7.230176031589508">
        <ele>695</ele>
        <time>2018-05-21T09:05:52Z</time>
      </trkpt>
      <trkpt lat="42.755674012005329" lon="-7.230119034647942">
        <ele>695</ele>
        <time>2018-05-21T09:05:53Z</time>
      </trkpt>
      <trkpt lat="42.755659008398652" lon="-7.230077963322401">
        <ele>700</ele>
        <time>2018-05-21T09:05:54Z</time>
      </trkpt>
      <trkpt lat="42.755659008398652" lon="-7.230020966380835">
        <ele>695</ele>
        <time>2018-05-21T09:05:56Z</time>
      </trkpt>
      <trkpt lat="42.755659008398652" lon="-7.229968998581171">
        <ele>695</ele>
        <time>2018-05-21T09:05:57Z</time>
      </trkpt>
      <trkpt lat="42.755659008398652" lon="-7.229912001639605">
        <ele>695</ele>
        <time>2018-05-21T09:05:58Z</time>
      </trkpt>
      <trkpt lat="42.755659008398652" lon="-7.229853998869658">
        <ele>695</ele>
        <time>2018-05-21T09:05:59Z</time>
      </trkpt>
      <trkpt lat="42.755659008398652" lon="-7.229797001928091">
        <ele>695</ele>
        <time>2018-05-21T09:06:00Z</time>
      </trkpt>
      <trkpt lat="42.755659008398652" lon="-7.229740004986525">
        <ele>695</ele>
        <time>2018-05-21T09:06:02Z</time>
      </trkpt>
      <trkpt lat="42.755659008398652" lon="-7.229682002216578">
        <ele>695</ele>
        <time>2018-05-21T09:06:03Z</time>
      </trkpt>
      <trkpt lat="42.755659008398652" lon="-7.229625005275011">
        <ele>695</ele>
        <time>2018-05-21T09:06:04Z</time>
      </trkpt>
      <trkpt lat="42.755659008398652" lon="-7.229573037475348">
        <ele>695</ele>
        <time>2018-05-21T09:06:05Z</time>
      </trkpt>
      <trkpt lat="42.755659008398652" lon="-7.229520985856652">
        <ele>700</ele>
        <time>2018-05-21T09:06:06Z</time>
      </trkpt>
      <trkpt lat="42.755650039762259" lon="-7.229463988915086">
        <ele>700</ele>
        <time>2018-05-21T09:06:08Z</time>
      </trkpt>
      <trkpt lat="42.75563595816493" lon="-7.229417972266674">
        <ele>700</ele>
        <time>2018-05-21T09:06:09Z</time>
      </trkpt>
      <trkpt lat="42.755621960386634" lon="-7.229366004467011">
        <ele>700</ele>
        <time>2018-05-21T09:06:10Z</time>
      </trkpt>
      <trkpt lat="42.75561299175024" lon="-7.229309007525444">
        <ele>700</ele>
        <time>2018-05-21T09:06:11Z</time>
      </trkpt>
      <trkpt lat="42.755598993971944" lon="-7.229257039725781">
        <ele>700</ele>
        <time>2018-05-21T09:06:13Z</time>
      </trkpt>
      <trkpt lat="42.755584996193647" lon="-7.229204988107085">
        <ele>700</ele>
        <time>2018-05-21T09:06:14Z</time>
      </trkpt>
      <trkpt lat="42.755570998415351" lon="-7.229154026135802">
        <ele>700</ele>
        <time>2018-05-21T09:06:15Z</time>
      </trkpt>
      <trkpt lat="42.755551971495152" lon="-7.229101974517107">
        <ele>700</ele>
        <time>2018-05-21T09:06:16Z</time>
      </trkpt>
      <trkpt lat="42.755523975938559" lon="-7.229061992838979">
        <ele>700</ele>
        <time>2018-05-21T09:06:17Z</time>
      </trkpt>
      <trkpt lat="42.755495980381966" lon="-7.229015976190567">
        <ele>700</ele>
        <time>2018-05-21T09:06:19Z</time>
      </trkpt>
      <trkpt lat="42.75546396151185" lon="-7.228975994512439">
        <ele>696</ele>
        <time>2018-05-21T09:06:20Z</time>
      </trkpt>
      <trkpt lat="42.755435965955257" lon="-7.22893500700593">
        <ele>696</ele>
        <time>2018-05-21T09:06:21Z</time>
      </trkpt>
      <trkpt lat="42.75539799593389" lon="-7.228888990357518">
        <ele>696</ele>
        <time>2018-05-21T09:06:23Z</time>
      </trkpt>
      <trkpt lat="42.755370000377297" lon="-7.228842973709106">
        <ele>696</ele>
        <time>2018-05-21T09:06:24Z</time>
      </trkpt>
      <trkpt lat="42.755342004820704" lon="-7.228802992030978">
        <ele>696</ele>
        <time>2018-05-21T09:06:25Z</time>
      </trkpt>
      <trkpt lat="42.755309985950589" lon="-7.228756975382567">
        <ele>696</ele>
        <time>2018-05-21T09:06:27Z</time>
      </trkpt>
      <trkpt lat="42.755275033414364" lon="-7.228728979825974">
        <ele>696</ele>
        <time>2018-05-21T09:06:28Z</time>
      </trkpt>
      <trkpt lat="42.755147041752934" lon="-7.228522030636668">
        <ele>714</ele>
        <time>2018-05-21T09:06:34Z</time>
      </trkpt>
      <trkpt lat="42.75500999763608" lon="-7.228418011218309">
        <ele>714</ele>
        <time>2018-05-21T09:06:38Z</time>
      </trkpt>
      <trkpt lat="42.754863984882832" lon="-7.228314997628331">
        <ele>714</ele>
        <time>2018-05-21T09:06:43Z</time>
      </trkpt>
      <trkpt lat="42.754735993221402" lon="-7.228193962946534">
        <ele>714</ele>
        <time>2018-05-21T09:06:48Z</time>
      </trkpt>
      <trkpt lat="42.75464303791523" lon="-7.228062031790614">
        <ele>706</ele>
        <time>2018-05-21T09:06:52Z</time>
      </trkpt>
      <trkpt lat="42.754637002944946" lon="-7.228050967678428">
        <ele>706</ele>
        <time>2018-05-21T09:06:52Z</time>
      </trkpt>
      <trkpt lat="42.754548992961645" lon="-7.22788198851049">
        <ele>725</ele>
        <time>2018-05-21T09:06:57Z</time>
      </trkpt>
      <trkpt lat="42.754486966878176" lon="-7.227804036810994">
        <ele>725</ele>
        <time>2018-05-21T09:06:59Z</time>
      </trkpt>
      <trkpt lat="42.754403986036777" lon="-7.22768995910883">
        <ele>725</ele>
        <time>2018-05-21T09:07:03Z</time>
      </trkpt>
      <trkpt lat="42.754398034885526" lon="-7.22768995910883">
        <ele>725</ele>
        <time>2018-05-21T09:07:03Z</time>
      </trkpt>
      <trkpt lat="42.754286974668503" lon="-7.227509999647737">
        <ele>725</ele>
        <time>2018-05-21T09:07:08Z</time>
      </trkpt>
      <trkpt lat="42.75421597994864" lon="-7.22738896496594">
        <ele>725</ele>
        <time>2018-05-21T09:07:11Z</time>
      </trkpt>
      <trkpt lat="42.754110032692552" lon="-7.227176986634731">
        <ele>725</ele>
        <time>2018-05-21T09:07:17Z</time>
      </trkpt>
      <trkpt lat="42.754020011052489" lon="-7.227028962224722">
        <ele>744</ele>
        <time>2018-05-21T09:07:21Z</time>
      </trkpt>
      <trkpt lat="42.753923032432795" lon="-7.226822013035417">
        <ele>744</ele>
        <time>2018-05-21T09:07:27Z</time>
      </trkpt>
      <trkpt lat="42.753835022449493" lon="-7.226648004725575">
        <ele>744</ele>
        <time>2018-05-21T09:07:31Z</time>
      </trkpt>
      <trkpt lat="42.753708958625793" lon="-7.226428985595703">
        <ele>734</ele>
        <time>2018-05-21T09:07:37Z</time>
      </trkpt>
      <trkpt lat="42.753688003867865" lon="-7.22639998421073">
        <ele>734</ele>
        <time>2018-05-21T09:07:38Z</time>
      </trkpt>
      <trkpt lat="42.753660008311272" lon="-7.226366037502885">
        <ele>734</ele>
        <time>2018-05-21T09:07:39Z</time>
      </trkpt>
      <trkpt lat="42.753632012754679" lon="-7.226331001147628">
        <ele>734</ele>
        <time>2018-05-21T09:07:41Z</time>
      </trkpt>
      <trkpt lat="42.753599993884563" lon="-7.226303005591035">
        <ele>734</ele>
        <time>2018-05-21T09:07:42Z</time>
      </trkpt>
      <trkpt lat="42.753566969186068" lon="-7.226274004206061">
        <ele>734</ele>
        <time>2018-05-21T09:07:43Z</time>
      </trkpt>
      <trkpt lat="42.753538973629475" lon="-7.226245002821088">
        <ele>734</ele>
        <time>2018-05-21T09:07:44Z</time>
      </trkpt>
      <trkpt lat="42.753499997779727" lon="-7.226238967850804">
        <ele>755</ele>
        <time>2018-05-21T09:07:45Z</time>
      </trkpt>
      <trkpt lat="42.75346303358674" lon="-7.22622798755765">
        <ele>755</ele>
        <time>2018-05-21T09:07:46Z</time>
      </trkpt>
      <trkpt lat="42.753425985574722" lon="-7.226217007264495">
        <ele>755</ele>
        <time>2018-05-21T09:07:47Z</time>
      </trkpt>
      <trkpt lat="42.753388015553355" lon="-7.226194040849805">
        <ele>755</ele>
        <time>2018-05-21T09:07:49Z</time>
      </trkpt>
      <trkpt lat="42.753346022218466" lon="-7.226176019757986">
        <ele>755</ele>
        <time>2018-05-21T09:07:50Z</time>
      </trkpt>
      <trkpt lat="42.753308974206448" lon="-7.226165039464831">
        <ele>755</ele>
        <time>2018-05-21T09:07:51Z</time>
      </trkpt>
      <trkpt lat="42.753272010013461" lon="-7.226152969524264">
        <ele>755</ele>
        <time>2018-05-21T09:07:52Z</time>
      </trkpt>
      <trkpt lat="42.753235967829823" lon="-7.226148024201393">
        <ele>755</ele>
        <time>2018-05-21T09:07:53Z</time>
      </trkpt>
      <trkpt lat="42.753199003636837" lon="-7.22614198923111">
        <ele>755</ele>
        <time>2018-05-21T09:07:54Z</time>
      </trkpt>
      <trkpt lat="42.753151981160045" lon="-7.22614198923111">
        <ele>755</ele>
        <time>2018-05-21T09:07:56Z</time>
      </trkpt>
      <trkpt lat="42.753099007532001" lon="-7.22614198923111">
        <ele>755</ele>
        <time>2018-05-21T09:07:57Z</time>
      </trkpt>
      <trkpt lat="42.752957018092275" lon="-7.226079041138291">
        <ele>755</ele>
        <time>2018-05-21T09:08:02Z</time>
      </trkpt>
      <trkpt lat="42.752808993682265" lon="-7.226016009226441">
        <ele>756</ele>
        <time>2018-05-21T09:08:06Z</time>
      </trkpt>
      <trkpt lat="42.752630040049553" lon="-7.22592699341476">
        <ele>756</ele>
        <time>2018-05-21T09:08:12Z</time>
      </trkpt>
      <trkpt lat="42.752455025911331" lon="-7.225850969552994">
        <ele>756</ele>
        <time>2018-05-21T09:08:17Z</time>
      </trkpt>
      <trkpt lat="42.752304989844561" lon="-7.22579900175333">
        <ele>756</ele>
        <time>2018-05-21T09:08:22Z</time>
      </trkpt>
      <trkpt lat="42.752069039270282" lon="-7.225637985393405">
        <ele>749</ele>
        <time>2018-05-21T09:08:30Z</time>
      </trkpt>
      <trkpt lat="42.751952027902007" lon="-7.225591968744993">
        <ele>749</ele>
        <time>2018-05-21T09:08:33Z</time>
      </trkpt>
      <trkpt lat="42.751926966011524" lon="-7.225580988451839">
        <ele>749</ele>
        <time>2018-05-21T09:08:34Z</time>
      </trkpt>
      <trkpt lat="42.751778019592166" lon="-7.225460037589073">
        <ele>749</ele>
        <time>2018-05-21T09:08:39Z</time>
      </trkpt>
      <trkpt lat="42.75176502764225" lon="-7.225451990962029">
        <ele>749</ele>
        <time>2018-05-21T09:08:40Z</time>
      </trkpt>
      <trkpt lat="42.75161599740386" lon="-7.22534897737205">
        <ele>749</ele>
        <time>2018-05-21T09:08:45Z</time>
      </trkpt>
      <trkpt lat="42.751603005453944" lon="-7.225341014564037">
        <ele>749</ele>
        <time>2018-05-21T09:08:45Z</time>
      </trkpt>
      <trkpt lat="42.751484988257289" lon="-7.225250992923975">
        <ele>767</ele>
        <time>2018-05-21T09:08:49Z</time>
      </trkpt>
      <trkpt lat="42.751454981043935" lon="-7.225224003195763">
        <ele>767</ele>
        <time>2018-05-21T09:08:50Z</time>
      </trkpt>
      <trkpt lat="42.751436959952116" lon="-7.225184021517634">
        <ele>767</ele>
        <time>2018-05-21T09:08:51Z</time>
      </trkpt>
      <trkpt lat="42.751409970223904" lon="-7.225131969898939">
        <ele>767</ele>
        <time>2018-05-21T09:08:52Z</time>
      </trkpt>
      <trkpt lat="42.751391027122736" lon="-7.225080002099276">
        <ele>767</ele>
        <time>2018-05-21T09:08:54Z</time>
      </trkpt>
      <trkpt lat="42.751373006030917" lon="-7.225033985450864">
        <ele>767</ele>
        <time>2018-05-21T09:08:55Z</time>
      </trkpt>
      <trkpt lat="42.751353979110718" lon="-7.224983023479581">
        <ele>767</ele>
        <time>2018-05-21T09:08:56Z</time>
      </trkpt>
      <trkpt lat="42.75133503600955" lon="-7.224947987124324">
        <ele>767</ele>
        <time>2018-05-21T09:08:57Z</time>
      </trkpt>
      <trkpt lat="42.751321038231254" lon="-7.224885039031506">
        <ele>767</ele>
        <time>2018-05-21T09:08:59Z</time>
      </trkpt>
      <trkpt lat="42.751297987997532" lon="-7.224844973534346">
        <ele>767</ele>
        <time>2018-05-21T09:09:00Z</time>
      </trkpt>
      <trkpt lat="42.751269992440939" lon="-7.224804991856217">
        <ele>757</ele>
        <time>2018-05-21T09:09:01Z</time>
      </trkpt>
      <trkpt lat="42.751247026026249" lon="-7.224764004349709">
        <ele>757</ele>
        <time>2018-05-21T09:09:02Z</time>
      </trkpt>
      <trkpt lat="42.751214001327753" lon="-7.224717987701297">
        <ele>757</ele>
        <time>2018-05-21T09:09:03Z</time>
      </trkpt>
      <trkpt lat="42.751181982457638" lon="-7.22466099075973">
        <ele>757</ele>
        <time>2018-05-21T09:09:05Z</time>
      </trkpt>
      <trkpt lat="42.751149041578174" lon="-7.224621009081602">
        <ele>757</ele>
        <time>2018-05-21T09:09:06Z</time>
      </trkpt>
      <trkpt lat="42.751120962202549" lon="-7.224581027403474">
        <ele>757</ele>
        <time>2018-05-21T09:09:07Z</time>
      </trkpt>
      <trkpt lat="42.751097995787859" lon="-7.224535010755062">
        <ele>757</ele>
        <time>2018-05-21T09:09:09Z</time>
      </trkpt>
      <trkpt lat="42.751074023544788" lon="-7.22448899410665">
        <ele>757</ele>
        <time>2018-05-21T09:09:10Z</time>
      </trkpt>
      <trkpt lat="42.751046027988195" lon="-7.224454041570425">
        <ele>767</ele>
        <time>2018-05-21T09:09:11Z</time>
      </trkpt>
      <trkpt lat="42.75101400911808" lon="-7.224413976073265">
        <ele>767</ele>
        <time>2018-05-21T09:09:12Z</time>
      </trkpt>
      <trkpt lat="42.75099003687501" lon="-7.224367959424853">
        <ele>767</ele>
        <time>2018-05-21T09:09:14Z</time>
      </trkpt>
      <trkpt lat="42.750958018004894" lon="-7.224327977746725">
        <ele>767</ele>
        <time>2018-05-21T09:09:15Z</time>
      </trkpt>
      <trkpt lat="42.750936979427934" lon="-7.224280033260584">
        <ele>767</ele>
        <time>2018-05-21T09:09:16Z</time>
      </trkpt>
      <trkpt lat="42.750908983871341" lon="-7.224234016612172">
        <ele>767</ele>
        <time>2018-05-21T09:09:17Z</time>
      </trkpt>
      <trkpt lat="42.750900015234947" lon="-7.224185988306999">
        <ele>767</ele>
        <time>2018-05-21T09:09:18Z</time>
      </trkpt>
      <trkpt lat="42.750812005251646" lon="-7.224009968340397">
        <ele>767</ele>
        <time>2018-05-21T09:09:23Z</time>
      </trkpt>
      <trkpt lat="42.750791972503066" lon="-7.223967975005508">
        <ele>767</ele>
        <time>2018-05-21T09:09:24Z</time>
      </trkpt>
      <trkpt lat="42.750768000259995" lon="-7.223920030519366">
        <ele>767</ele>
        <time>2018-05-21T09:09:25Z</time>
      </trkpt>
      <trkpt lat="42.750763976946473" lon="-7.223868984729052">
        <ele>767</ele>
        <time>2018-05-21T09:09:26Z</time>
      </trkpt>
      <trkpt lat="42.750754002481699" lon="-7.223827997222543">
        <ele>767</ele>
        <time>2018-05-21T09:09:27Z</time>
      </trkpt>
      <trkpt lat="42.750754002481699" lon="-7.22377703525126">
        <ele>767</ele>
        <time>2018-05-21T09:09:29Z</time>
      </trkpt>
      <trkpt lat="42.750754002481699" lon="-7.223724983632565">
        <ele>767</ele>
        <time>2018-05-21T09:09:30Z</time>
      </trkpt>
      <trkpt lat="42.750754002481699" lon="-7.223673015832901">
        <ele>767</ele>
        <time>2018-05-21T09:09:31Z</time>
      </trkpt>
      <trkpt lat="42.750754002481699" lon="-7.223614007234573">
        <ele>772</ele>
        <time>2018-05-21T09:09:32Z</time>
      </trkpt>
      <trkpt lat="42.750754002481699" lon="-7.22356203943491">
        <ele>772</ele>
        <time>2018-05-21T09:09:33Z</time>
      </trkpt>
      <trkpt lat="42.750754002481699" lon="-7.223504958674312">
        <ele>772</ele>
        <time>2018-05-21T09:09:34Z</time>
      </trkpt>
      <trkpt lat="42.750754002481699" lon="-7.223447039723396">
        <ele>772</ele>
        <time>2018-05-21T09:09:36Z</time>
      </trkpt>
      <trkpt lat="42.750754002481699" lon="-7.223389958962798">
        <ele>772</ele>
        <time>2018-05-21T09:09:37Z</time>
      </trkpt>
      <trkpt lat="42.750759031623602" lon="-7.223332962021232">
        <ele>772</ele>
        <time>2018-05-21T09:09:38Z</time>
      </trkpt>
      <trkpt lat="42.750768000259995" lon="-7.223280994221568">
        <ele>772</ele>
        <time>2018-05-21T09:09:39Z</time>
      </trkpt>
      <trkpt lat="42.75077797472477" lon="-7.223217962309718">
        <ele>772</ele>
        <time>2018-05-21T09:09:41Z</time>
      </trkpt>
      <trkpt lat="42.750787027180195" lon="-7.223165994510055">
        <ele>772</ele>
        <time>2018-05-21T09:09:42Z</time>
      </trkpt>
      <trkpt lat="42.750791972503066" lon="-7.223114026710391">
        <ele>772</ele>
        <time>2018-05-21T09:09:43Z</time>
      </trkpt>
      <trkpt lat="42.750795995816588" lon="-7.223062980920076">
        <ele>772</ele>
        <time>2018-05-21T09:09:44Z</time>
      </trkpt>
      <trkpt lat="42.750795995816588" lon="-7.223004978150129">
        <ele>772</ele>
        <time>2018-05-21T09:09:45Z</time>
      </trkpt>
      <trkpt lat="42.750795995816588" lon="-7.222953010350466">
        <ele>772</ele>
        <time>2018-05-21T09:09:47Z</time>
      </trkpt>
      <trkpt lat="42.750801024958491" lon="-7.222901964560151">
        <ele>772</ele>
        <time>2018-05-21T09:09:48Z</time>
      </trkpt>
      <trkpt lat="42.750801024958491" lon="-7.222849996760488">
        <ele>772</ele>
        <time>2018-05-21T09:09:49Z</time>
      </trkpt>
      <trkpt lat="42.750805970281363" lon="-7.222798028960824">
        <ele>777</ele>
        <time>2018-05-21T09:09:50Z</time>
      </trkpt>
      <trkpt lat="42.750815022736788" lon="-7.222741032019258">
        <ele>777</ele>
        <time>2018-05-21T09:09:51Z</time>
      </trkpt>
      <trkpt lat="42.750819968059659" lon="-7.222688980400562">
        <ele>777</ele>
        <time>2018-05-21T09:09:52Z</time>
      </trkpt>
      <trkpt lat="42.750819968059659" lon="-7.222636006772518">
        <ele>777</ele>
        <time>2018-05-21T09:09:54Z</time>
      </trkpt>
      <trkpt lat="42.750819968059659" lon="-7.222578004002571">
        <ele>777</ele>
        <time>2018-05-21T09:09:55Z</time>
      </trkpt>
      <trkpt lat="42.750819968059659" lon="-7.222514972090721">
        <ele>777</ele>
        <time>2018-05-21T09:09:56Z</time>
      </trkpt>
      <trkpt lat="42.750819968059659" lon="-7.222452023997903">
        <ele>777</ele>
        <time>2018-05-21T09:09:58Z</time>
      </trkpt>
      <trkpt lat="42.750819968059659" lon="-7.222399972379208">
        <ele>777</ele>
        <time>2018-05-21T09:09:59Z</time>
      </trkpt>
      <trkpt lat="42.750819968059659" lon="-7.222348004579544">
        <ele>777</ele>
        <time>2018-05-21T09:10:00Z</time>
      </trkpt>
      <trkpt lat="42.750823991373181" lon="-7.222291007637978">
        <ele>777</ele>
        <time>2018-05-21T09:10:01Z</time>
      </trkpt>
      <trkpt lat="42.750833965837955" lon="-7.222244990989566">
        <ele>777</ele>
        <time>2018-05-21T09:10:02Z</time>
      </trkpt>
      <trkpt lat="42.750843018293381" lon="-7.222187994047999">
        <ele>777</ele>
        <time>2018-05-21T09:10:04Z</time>
      </trkpt>
      <trkpt lat="42.750851986929774" lon="-7.222129991278052">
        <ele>777</ele>
        <time>2018-05-21T09:10:05Z</time>
      </trkpt>
      <trkpt lat="42.750865984708071" lon="-7.222072994336486">
        <ele>777</ele>
        <time>2018-05-21T09:10:06Z</time>
      </trkpt>
      <trkpt lat="42.750875959172845" lon="-7.222026977688074">
        <ele>777</ele>
        <time>2018-05-21T09:10:07Z</time>
      </trkpt>
      <trkpt lat="42.75088501162827" lon="-7.221968974918127">
        <ele>787</ele>
        <time>2018-05-21T09:10:09Z</time>
      </trkpt>
      <trkpt lat="42.750890040770173" lon="-7.221918012946844">
        <ele>787</ele>
        <time>2018-05-21T09:10:10Z</time>
      </trkpt>
      <trkpt lat="42.750893980264664" lon="-7.221860010176897">
        <ele>787</ele>
        <time>2018-05-21T09:10:11Z</time>
      </trkpt>
      <trkpt lat="42.750893980264664" lon="-7.221808964386582">
        <ele>787</ele>
        <time>2018-05-21T09:10:12Z</time>
      </trkpt>
      <trkpt lat="42.750899009406567" lon="-7.221739981323481">
        <ele>787</ele>
        <time>2018-05-21T09:10:14Z</time>
      </trkpt>
      <trkpt lat="42.750899009406567" lon="-7.221681978553534">
        <ele>787</ele>
        <time>2018-05-21T09:10:15Z</time>
      </trkpt>
      <trkpt lat="42.750899009406567" lon="-7.221631016582251">
        <ele>787</ele>
        <time>2018-05-21T09:10:16Z</time>
      </trkpt>
      <trkpt lat="42.750899009406567" lon="-7.221573013812304">
        <ele>787</ele>
        <time>2018-05-21T09:10:17Z</time>
      </trkpt>
      <trkpt lat="42.750899009406567" lon="-7.221516016870737">
        <ele>787</ele>
        <time>2018-05-21T09:10:18Z</time>
      </trkpt>
      <trkpt lat="42.750893980264664" lon="-7.221463965252042">
        <ele>787</ele>
        <time>2018-05-21T09:10:20Z</time>
      </trkpt>
      <trkpt lat="42.750890040770173" lon="-7.221409985795617">
        <ele>787</ele>
        <time>2018-05-21T09:10:21Z</time>
      </trkpt>
      <trkpt lat="42.750874031335115" lon="-7.221348965540528">
        <ele>787</ele>
        <time>2018-05-21T09:10:22Z</time>
      </trkpt>
      <trkpt lat="42.750858021900058" lon="-7.221312001347542">
        <ele>787</ele>
        <time>2018-05-21T09:10:23Z</time>
      </trkpt>
      <trkpt lat="42.750840000808239" lon="-7.221275959163904">
        <ele>787</ele>
        <time>2018-05-21T09:10:24Z</time>
      </trkpt>
      <trkpt lat="42.750812005251646" lon="-7.221234971657395">
        <ele>787</ele>
        <time>2018-05-21T09:10:25Z</time>
      </trkpt>
      <trkpt lat="42.750784009695053" lon="-7.221201024949551">
        <ele>787</ele>
        <time>2018-05-21T09:10:26Z</time>
      </trkpt>
      <trkpt lat="42.750750984996557" lon="-7.221172023564577">
        <ele>795</ele>
        <time>2018-05-21T09:10:28Z</time>
      </trkpt>
      <trkpt lat="42.750728018581867" lon="-7.221132041886449">
        <ele>795</ele>
        <time>2018-05-21T09:10:29Z</time>
      </trkpt>
      <trkpt lat="42.750694993883371" lon="-7.221098011359572">
        <ele>795</ele>
        <time>2018-05-21T09:10:30Z</time>
      </trkpt>
      <trkpt lat="42.750675966963172" lon="-7.221057023853064">
        <ele>795</ele>
        <time>2018-05-21T09:10:31Z</time>
      </trkpt>
      <trkpt lat="42.75064897723496" lon="-7.220988040789962">
        <ele>795</ele>
        <time>2018-05-21T09:10:33Z</time>
      </trkpt>
      <trkpt lat="42.750616036355495" lon="-7.220925008878112">
        <ele>795</ele>
        <time>2018-05-21T09:10:34Z</time>
      </trkpt>
      <trkpt lat="42.750590974465013" lon="-7.220876980572939">
        <ele>795</ele>
        <time>2018-05-21T09:10:36Z</time>
      </trkpt>
      <trkpt lat="42.750558033585548" lon="-7.220836998894811">
        <ele>795</ele>
        <time>2018-05-21T09:10:37Z</time>
      </trkpt>
      <trkpt lat="42.750526014715433" lon="-7.220814032480121">
        <ele>795</ele>
        <time>2018-05-21T09:10:38Z</time>
      </trkpt>
      <trkpt lat="42.750496007502079" lon="-7.220761980861425">
        <ele>795</ele>
        <time>2018-05-21T09:10:39Z</time>
      </trkpt>
      <trkpt lat="42.750468011945486" lon="-7.220711018890142">
        <ele>785</ele>
        <time>2018-05-21T09:10:41Z</time>
      </trkpt>
      <trkpt lat="42.75045401416719" lon="-7.220665002241731">
        <ele>785</ele>
        <time>2018-05-21T09:10:42Z</time>
      </trkpt>
      <trkpt lat="42.750444961711764" lon="-7.220618985593319">
        <ele>785</ele>
        <time>2018-05-21T09:10:43Z</time>
      </trkpt>
      <trkpt lat="42.750426018610597" lon="-7.220567017793655">
        <ele>785</ele>
        <time>2018-05-21T09:10:44Z</time>
      </trkpt>
      <trkpt lat="42.750415038317442" lon="-7.22051496617496">
        <ele>785</ele>
        <time>2018-05-21T09:10:45Z</time>
      </trkpt>
      <trkpt lat="42.750351000577211" lon="-7.220413964241743">
        <ele>785</ele>
        <time>2018-05-21T09:10:48Z</time>
      </trkpt>
      <trkpt lat="42.750281011685729" lon="-7.220335006713867">
        <ele>799</ele>
        <time>2018-05-21T09:10:51Z</time>
      </trkpt>
      <trkpt lat="42.75026198476553" lon="-7.220312040299177">
        <ele>799</ele>
        <time>2018-05-21T09:10:52Z</time>
      </trkpt>
      <trkpt lat="42.75023901835084" lon="-7.220271974802017">
        <ele>799</ele>
        <time>2018-05-21T09:10:53Z</time>
      </trkpt>
      <trkpt lat="42.750215968117118" lon="-7.220237022265792">
        <ele>799</ele>
        <time>2018-05-21T09:10:54Z</time>
      </trkpt>
      <trkpt lat="42.750183027237654" lon="-7.220197040587664">
        <ele>799</ele>
        <time>2018-05-21T09:10:55Z</time>
      </trkpt>
      <trkpt lat="42.750145979225636" lon="-7.220163010060787">
        <ele>799</ele>
        <time>2018-05-21T09:10:57Z</time>
      </trkpt>
      <trkpt lat="42.750109015032649" lon="-7.220151023939252">
        <ele>799</ele>
        <time>2018-05-21T09:10:58Z</time>
      </trkpt>
      <trkpt lat="42.750075990334153" lon="-7.22012797370553">
        <ele>799</ele>
        <time>2018-05-21T09:10:59Z</time>
      </trkpt>
      <trkpt lat="42.750039026141167" lon="-7.22010500729084">
        <ele>799</ele>
        <time>2018-05-21T09:11:00Z</time>
      </trkpt>
      <trkpt lat="42.749997032806277" lon="-7.220070976763964">
        <ele>799</ele>
        <time>2018-05-21T09:11:01Z</time>
      </trkpt>
      <trkpt lat="42.749958978965878" lon="-7.22004197537899">
        <ele>799</ele>
        <time>2018-05-21T09:11:03Z</time>
      </trkpt>
      <trkpt lat="42.749924026429653" lon="-7.220012973994017">
        <ele>799</ele>
        <time>2018-05-21T09:11:04Z</time>
      </trkpt>
      <trkpt lat="42.749885972589254" lon="-7.219995958730578">
        <ele>799</ele>
        <time>2018-05-21T09:11:05Z</time>
      </trkpt>
      <trkpt lat="42.749857977032661" lon="-7.219972992315888">
        <ele>799</ele>
        <time>2018-05-21T09:11:06Z</time>
      </trkpt>
      <trkpt lat="42.749821012839675" lon="-7.219962012022734">
        <ele>799</ele>
        <time>2018-05-21T09:11:07Z</time>
      </trkpt>
      <trkpt lat="42.749783964827657" lon="-7.21993301063776">
        <ele>799</ele>
        <time>2018-05-21T09:11:08Z</time>
      </trkpt>
      <trkpt lat="42.749737026169896" lon="-7.219904009252787">
        <ele>799</ele>
        <time>2018-05-21T09:11:10Z</time>
      </trkpt>
      <trkpt lat="42.749695032835007" lon="-7.21986997872591">
        <ele>799</ele>
        <time>2018-05-21T09:11:11Z</time>
      </trkpt>
      <trkpt lat="42.749657984822989" lon="-7.219852041453123">
        <ele>799</ele>
        <time>2018-05-21T09:11:13Z</time>
      </trkpt>
      <trkpt lat="42.749615991488099" lon="-7.219840977340937">
        <ele>798</ele>
        <time>2018-05-21T09:11:14Z</time>
      </trkpt>
      <trkpt lat="42.74957399815321" lon="-7.219811975955963">
        <ele>798</ele>
        <time>2018-05-21T09:11:15Z</time>
      </trkpt>
      <trkpt lat="42.749526975676417" lon="-7.219794960692525">
        <ele>798</ele>
        <time>2018-05-21T09:11:17Z</time>
      </trkpt>
      <trkpt lat="42.749490011483431" lon="-7.219778029248118">
        <ele>798</ele>
        <time>2018-05-21T09:11:18Z</time>
      </trkpt>
      <trkpt lat="42.74944600649178" lon="-7.219771994277835">
        <ele>798</ele>
        <time>2018-05-21T09:11:19Z</time>
      </trkpt>
      <trkpt lat="42.749413987621665" lon="-7.219754979014397">
        <ele>798</ele>
        <time>2018-05-21T09:11:20Z</time>
      </trkpt>
      <trkpt lat="42.749371994286776" lon="-7.219749027863145">
        <ele>798</ele>
        <time>2018-05-21T09:11:21Z</time>
      </trkpt>
      <trkpt lat="42.749324971809983" lon="-7.219725977629423">
        <ele>798</ele>
        <time>2018-05-21T09:11:23Z</time>
      </trkpt>
      <trkpt lat="42.749282978475094" lon="-7.219708962365985">
        <ele>798</ele>
        <time>2018-05-21T09:11:24Z</time>
      </trkpt>
      <trkpt lat="42.749241990968585" lon="-7.219700999557972">
        <ele>798</ele>
        <time>2018-05-21T09:11:25Z</time>
      </trkpt>
      <trkpt lat="42.749199997633696" lon="-7.219683984294534">
        <ele>798</ele>
        <time>2018-05-21T09:11:27Z</time>
      </trkpt>
      <trkpt lat="42.749158004298806" lon="-7.219671998172998">
        <ele>798</ele>
        <time>2018-05-21T09:11:28Z</time>
      </trkpt>
      <trkpt lat="42.749115005135536" lon="-7.219659006223083">
        <ele>813</ele>
        <time>2018-05-21T09:11:29Z</time>
      </trkpt>
      <trkpt lat="42.749073011800647" lon="-7.219647020101547">
        <ele>798</ele>
        <time>2018-05-21T09:11:31Z</time>
      </trkpt>
      <trkpt lat="42.74903504177928" lon="-7.219630004838109">
        <ele>798</ele>
        <time>2018-05-21T09:11:32Z</time>
      </trkpt>
      <trkpt lat="42.748991958796978" lon="-7.219602009281516">
        <ele>798</ele>
        <time>2018-05-21T09:11:33Z</time>
      </trkpt>
      <trkpt lat="42.748961029574275" lon="-7.219581976532936">
        <ele>798</ele>
        <time>2018-05-21T09:11:34Z</time>
      </trkpt>
      <trkpt lat="42.748928004875779" lon="-7.219559010118246">
        <ele>798</ele>
        <time>2018-05-21T09:11:35Z</time>
      </trkpt>
      <trkpt lat="42.748894980177283" lon="-7.219535959884524">
        <ele>798</ele>
        <time>2018-05-21T09:11:36Z</time>
      </trkpt>
      <trkpt lat="42.74886698462069" lon="-7.21950201317668">
        <ele>813</ele>
        <time>2018-05-21T09:11:37Z</time>
      </trkpt>
      <trkpt lat="42.748838989064097" lon="-7.219455996528268">
        <ele>813</ele>
        <time>2018-05-21T09:11:39Z</time>
      </trkpt>
      <trkpt lat="42.748816022649407" lon="-7.219409979879856">
        <ele>813</ele>
        <time>2018-05-21T09:11:40Z</time>
      </trkpt>
      <trkpt lat="42.748796995729208" lon="-7.219358012080193">
        <ele>813</ele>
        <time>2018-05-21T09:11:41Z</time>
      </trkpt>
      <trkpt lat="42.748778974637389" lon="-7.219311995431781">
        <ele>813</ele>
        <time>2018-05-21T09:11:42Z</time>
      </trkpt>
      <trkpt lat="42.748756008222699" lon="-7.219243012368679">
        <ele>811</ele>
        <time>2018-05-21T09:11:44Z</time>
      </trkpt>
      <trkpt lat="42.748746033757925" lon="-7.219190038740635">
        <ele>811</ele>
        <time>2018-05-21T09:11:45Z</time>
      </trkpt>
      <trkpt lat="42.748661963269114" lon="-7.219076966866851">
        <ele>811</ele>
        <time>2018-05-21T09:11:49Z</time>
      </trkpt>
      <trkpt lat="42.748661963269114" lon="-7.219064980745316">
        <ele>811</ele>
        <time>2018-05-21T09:11:49Z</time>
      </trkpt>
      <trkpt lat="42.748644025996327" lon="-7.219007983803749">
        <ele>811</ele>
        <time>2018-05-21T09:11:50Z</time>
      </trkpt>
      <trkpt lat="42.748633967712522" lon="-7.218956016004086">
        <ele>811</ele>
        <time>2018-05-21T09:11:52Z</time>
      </trkpt>
      <trkpt lat="42.74860898964107" lon="-7.218897007405758">
        <ele>811</ele>
        <time>2018-05-21T09:11:53Z</time>
      </trkpt>
      <trkpt lat="42.748574959114194" lon="-7.218819977715612">
        <ele>811</ele>
        <time>2018-05-21T09:11:55Z</time>
      </trkpt>
      <trkpt lat="42.748488038778305" lon="-7.218716964125633">
        <ele>811</ele>
        <time>2018-05-21T09:11:58Z</time>
      </trkpt>
      <trkpt lat="42.748343031853437" lon="-7.218554019927979">
        <ele>821</ele>
        <time>2018-05-21T09:12:04Z</time>
      </trkpt>
      <trkpt lat="42.74817799217999" lon="-7.218397026881576">
        <ele>821</ele>
        <time>2018-05-21T09:12:10Z</time>
      </trkpt>
      <trkpt lat="42.7480289619416" lon="-7.218265011906624">
        <ele>821</ele>
        <time>2018-05-21T09:12:15Z</time>
      </trkpt>
      <trkpt lat="42.747866017743945" lon="-7.218187982216477">
        <ele>811</ele>
        <time>2018-05-21T09:12:20Z</time>
      </trkpt>
      <trkpt lat="42.7477250341326" lon="-7.218111036345363">
        <ele>811</ele>
        <time>2018-05-21T09:12:25Z</time>
      </trkpt>
      <trkpt lat="42.747602993622422" lon="-7.218011962249875">
        <ele>811</ele>
        <time>2018-05-21T09:12:29Z</time>
      </trkpt>
      <trkpt lat="42.747539961710572" lon="-7.217886988073587">
        <ele>811</ele>
        <time>2018-05-21T09:12:32Z</time>
      </trkpt>
      <trkpt lat="42.747516995295882" lon="-7.217776011675596">
        <ele>826</ele>
        <time>2018-05-21T09:12:35Z</time>
      </trkpt>
      <trkpt lat="42.747510960325599" lon="-7.217776011675596">
        <ele>826</ele>
        <time>2018-05-21T09:12:35Z</time>
      </trkpt>
      <trkpt lat="42.747464021667838" lon="-7.217639973387122">
        <ele>826</ele>
        <time>2018-05-21T09:12:38Z</time>
      </trkpt>
      <trkpt lat="42.747419010847807" lon="-7.217431012541056">
        <ele>826</ele>
        <time>2018-05-21T09:12:43Z</time>
      </trkpt>
      <trkpt lat="42.747409958392382" lon="-7.217402011156082">
        <ele>826</ele>
        <time>2018-05-21T09:12:44Z</time>
      </trkpt>
      <trkpt lat="42.747399983927608" lon="-7.21735599450767">
        <ele>826</ele>
        <time>2018-05-21T09:12:45Z</time>
      </trkpt>
      <trkpt lat="42.747391015291214" lon="-7.217316012829542">
        <ele>826</ele>
        <time>2018-05-21T09:12:46Z</time>
      </trkpt>
      <trkpt lat="42.747391015291214" lon="-7.217264967039228">
        <ele>826</ele>
        <time>2018-05-21T09:12:47Z</time>
      </trkpt>
      <trkpt lat="42.747391015291214" lon="-7.21720696426928">
        <ele>826</ele>
        <time>2018-05-21T09:12:48Z</time>
      </trkpt>
      <trkpt lat="42.747395960614085" lon="-7.217154996469617">
        <ele>826</ele>
        <time>2018-05-21T09:12:49Z</time>
      </trkpt>
      <trkpt lat="42.747399983927608" lon="-7.217102022841573">
        <ele>826</ele>
        <time>2018-05-21T09:12:51Z</time>
      </trkpt>
      <trkpt lat="42.747419010847807" lon="-7.217062041163445">
        <ele>835</ele>
        <time>2018-05-21T09:12:52Z</time>
      </trkpt>
      <trkpt lat="42.747438037768006" lon="-7.216998003423214">
        <ele>835</ele>
        <time>2018-05-21T09:12:53Z</time>
      </trkpt>
      <trkpt lat="42.7474470064044" lon="-7.21694796346128">
        <ele>835</ele>
        <time>2018-05-21T09:12:54Z</time>
      </trkpt>
      <trkpt lat="42.7474470064044" lon="-7.216895995661616">
        <ele>835</ele>
        <time>2018-05-21T09:12:56Z</time>
      </trkpt>
      <trkpt lat="42.747441977262497" lon="-7.216835981234908">
        <ele>835</ele>
        <time>2018-05-21T09:12:57Z</time>
      </trkpt>
      <trkpt lat="42.747433008626103" lon="-7.216788958758116">
        <ele>835</ele>
        <time>2018-05-21T09:12:58Z</time>
      </trkpt>
      <trkpt lat="42.747433008626103" lon="-7.21673296764493">
        <ele>835</ele>
        <time>2018-05-21T09:12:59Z</time>
      </trkpt>
      <trkpt lat="42.747433008626103" lon="-7.216674964874983">
        <ele>835</ele>
        <time>2018-05-21T09:13:00Z</time>
      </trkpt>
      <trkpt lat="42.747433008626103" lon="-7.2166240029037">
        <ele>835</ele>
        <time>2018-05-21T09:13:02Z</time>
      </trkpt>
      <trkpt lat="42.747433008626103" lon="-7.216566000133753">
        <ele>835</ele>
        <time>2018-05-21T09:13:03Z</time>
      </trkpt>
      <trkpt lat="42.747433008626103" lon="-7.21651503816247">
        <ele>835</ele>
        <time>2018-05-21T09:13:04Z</time>
      </trkpt>
      <trkpt lat="42.747433008626103" lon="-7.216458963230252">
        <ele>835</ele>
        <time>2018-05-21T09:13:05Z</time>
      </trkpt>
      <trkpt lat="42.747433008626103" lon="-7.216400960460305">
        <ele>835</ele>
        <time>2018-05-21T09:13:06Z</time>
      </trkpt>
      <trkpt lat="42.747438037768006" lon="-7.216347986832261">
        <ele>835</ele>
        <time>2018-05-21T09:13:08Z</time>
      </trkpt>
      <trkpt lat="42.747455975040793" lon="-7.216309010982513">
        <ele>835</ele>
        <time>2018-05-21T09:13:09Z</time>
      </trkpt>
      <trkpt lat="42.74746997281909" lon="-7.216262994334102">
        <ele>835</ele>
        <time>2018-05-21T09:13:10Z</time>
      </trkpt>
      <trkpt lat="42.747494028881192" lon="-7.216228963807225">
        <ele>847</ele>
        <time>2018-05-21T09:13:11Z</time>
      </trkpt>
      <trkpt lat="42.747521018609405" lon="-7.216194011271">
        <ele>847</ele>
        <time>2018-05-21T09:13:12Z</time>
      </trkpt>
      <trkpt lat="42.747535016387701" lon="-7.216142965480685">
        <ele>847</ele>
        <time>2018-05-21T09:13:13Z</time>
      </trkpt>
      <trkpt lat="42.747544990852475" lon="-7.216090997681022">
        <ele>847</ele>
        <time>2018-05-21T09:13:14Z</time>
      </trkpt>
      <trkpt lat="42.747539961710572" lon="-7.216031989082694">
        <ele>847</ele>
        <time>2018-05-21T09:13:16Z</time>
      </trkpt>
      <trkpt lat="42.747539961710572" lon="-7.215969962999225">
        <ele>847</ele>
        <time>2018-05-21T09:13:17Z</time>
      </trkpt>
      <trkpt lat="42.747530993074179" lon="-7.215922018513084">
        <ele>847</ele>
        <time>2018-05-21T09:13:18Z</time>
      </trkpt>
      <trkpt lat="42.747525963932276" lon="-7.215870972722769">
        <ele>847</ele>
        <time>2018-05-21T09:13:19Z</time>
      </trkpt>
      <trkpt lat="42.747516995295882" lon="-7.215812969952822">
        <ele>847</ele>
        <time>2018-05-21T09:13:21Z</time>
      </trkpt>
      <trkpt lat="42.747502997517586" lon="-7.215767037123442">
        <ele>847</ele>
        <time>2018-05-21T09:13:22Z</time>
      </trkpt>
      <trkpt lat="42.747480031102896" lon="-7.215714985504746">
        <ele>847</ele>
        <time>2018-05-21T09:13:23Z</time>
      </trkpt>
      <trkpt lat="42.747475001960993" lon="-7.215669974684715">
        <ele>847</ele>
        <time>2018-05-21T09:13:24Z</time>
      </trkpt>
      <trkpt lat="42.747466033324599" lon="-7.215609960258007">
        <ele>847</ele>
        <time>2018-05-21T09:13:25Z</time>
      </trkpt>
      <trkpt lat="42.747455975040793" lon="-7.215564027428627">
        <ele>847</ele>
        <time>2018-05-21T09:13:26Z</time>
      </trkpt>
      <trkpt lat="42.747450023889542" lon="-7.215515999123454">
        <ele>847</ele>
        <time>2018-05-21T09:13:27Z</time>
      </trkpt>
      <trkpt lat="42.747444994747639" lon="-7.215464031323791">
        <ele>847</ele>
        <time>2018-05-21T09:13:29Z</time>
      </trkpt>
      <trkpt lat="42.747440971434116" lon="-7.215410973876715">
        <ele>847</ele>
        <time>2018-05-21T09:13:30Z</time>
      </trkpt>
      <trkpt lat="42.74742697365582" lon="-7.215359006077051">
        <ele>847</ele>
        <time>2018-05-21T09:13:31Z</time>
      </trkpt>
      <trkpt lat="42.747416999191046" lon="-7.215308966115117">
        <ele>847</ele>
        <time>2018-05-21T09:13:32Z</time>
      </trkpt>
      <trkpt lat="42.747406018897891" lon="-7.215259009972215">
        <ele>861</ele>
        <time>2018-05-21T09:13:33Z</time>
      </trkpt>
      <trkpt lat="42.747392021119595" lon="-7.215212993323803">
        <ele>861</ele>
        <time>2018-05-21T09:13:34Z</time>
      </trkpt>
      <trkpt lat="42.747378023341298" lon="-7.215166976675391">
        <ele>861</ele>
        <time>2018-05-21T09:13:35Z</time>
      </trkpt>
      <trkpt lat="42.747364025563002" lon="-7.215109979733825">
        <ele>861</ele>
        <time>2018-05-21T09:13:37Z</time>
      </trkpt>
      <trkpt lat="42.747346004471183" lon="-7.215062035247684">
        <ele>861</ele>
        <time>2018-05-21T09:13:38Z</time>
      </trkpt>
      <trkpt lat="42.747336030006409" lon="-7.215016018599272">
        <ele>861</ele>
        <time>2018-05-21T09:13:39Z</time>
      </trkpt>
      <trkpt lat="42.747308034449816" lon="-7.214952986687422">
        <ele>861</ele>
        <time>2018-05-21T09:13:40Z</time>
      </trkpt>
      <trkpt lat="42.747284984216094" lon="-7.214894983917475">
        <ele>861</ele>
        <time>2018-05-21T09:13:42Z</time>
      </trkpt>
      <trkpt lat="42.747256988659501" lon="-7.214826000854373">
        <ele>861</ele>
        <time>2018-05-21T09:13:44Z</time>
      </trkpt>
      <trkpt lat="42.747234022244811" lon="-7.214762968942523">
        <ele>861</ele>
        <time>2018-05-21T09:13:45Z</time>
      </trkpt>
      <trkpt lat="42.747209966182709" lon="-7.214700020849705">
        <ele>861</ele>
        <time>2018-05-21T09:13:47Z</time>
      </trkpt>
      <trkpt lat="42.747176019474864" lon="-7.214664984494448">
        <ele>861</ele>
        <time>2018-05-21T09:13:48Z</time>
      </trkpt>
      <trkpt lat="42.747156992554665" lon="-7.21462500281632">
        <ele>861</ele>
        <time>2018-05-21T09:13:49Z</time>
      </trkpt>
      <trkpt lat="42.747138971462846" lon="-7.214578986167908">
        <ele>861</ele>
        <time>2018-05-21T09:13:50Z</time>
      </trkpt>
      <trkpt lat="42.747120028361678" lon="-7.214532969519496">
        <ele>861</ele>
        <time>2018-05-21T09:13:51Z</time>
      </trkpt>
      <trkpt lat="42.747092032805085" lon="-7.214463986456394">
        <ele>838</ele>
        <time>2018-05-21T09:13:53Z</time>
      </trkpt>
      <trkpt lat="42.747074011713266" lon="-7.214406989514828">
        <ele>854</ele>
        <time>2018-05-21T09:13:54Z</time>
      </trkpt>
      <trkpt lat="42.747050039470196" lon="-7.2143670078367">
        <ele>854</ele>
        <time>2018-05-21T09:13:55Z</time>
      </trkpt>
      <trkpt lat="42.747021960094571" lon="-7.214327026158571">
        <ele>854</ele>
        <time>2018-05-21T09:13:57Z</time>
      </trkpt>
      <trkpt lat="42.746998993679881" lon="-7.214274974539876">
        <ele>854</ele>
        <time>2018-05-21T09:13:58Z</time>
      </trkpt>
      <trkpt lat="42.746976027265191" lon="-7.214223006740212">
        <ele>854</ele>
        <time>2018-05-21T09:13:59Z</time>
      </trkpt>
      <trkpt lat="42.746962029486895" lon="-7.214176990091801">
        <ele>854</ele>
        <time>2018-05-21T09:14:00Z</time>
      </trkpt>
      <trkpt lat="42.746934033930302" lon="-7.214126028120518">
        <ele>854</ele>
        <time>2018-05-21T09:14:02Z</time>
      </trkpt>
      <trkpt lat="42.746906960383058" lon="-7.2140889801085">
        <ele>854</ele>
        <time>2018-05-21T09:14:03Z</time>
      </trkpt>
      <trkpt lat="42.746883993968368" lon="-7.214048998430371">
        <ele>854</ele>
        <time>2018-05-21T09:14:04Z</time>
      </trkpt>
      <trkpt lat="42.746864967048168" lon="-7.21400298178196">
        <ele>854</ele>
        <time>2018-05-21T09:14:05Z</time>
      </trkpt>
      <trkpt lat="42.746836971491575" lon="-7.213944979012013">
        <ele>854</ele>
        <time>2018-05-21T09:14:07Z</time>
      </trkpt>
      <trkpt lat="42.746819034218788" lon="-7.213887982070446">
        <ele>854</ele>
        <time>2018-05-21T09:14:08Z</time>
      </trkpt>
      <trkpt lat="42.746800007298589" lon="-7.213841965422034">
        <ele>854</ele>
        <time>2018-05-21T09:14:09Z</time>
      </trkpt>
      <trkpt lat="42.746766982600093" lon="-7.213789997622371">
        <ele>854</ele>
        <time>2018-05-21T09:14:11Z</time>
      </trkpt>
      <trkpt lat="42.746748961508274" lon="-7.213743980973959">
        <ele>854</ele>
        <time>2018-05-21T09:14:12Z</time>
      </trkpt>
      <trkpt lat="42.746723983436823" lon="-7.213684972375631">
        <ele>854</ele>
        <time>2018-05-21T09:14:13Z</time>
      </trkpt>
      <trkpt lat="42.746705040335655" lon="-7.213644990697503">
        <ele>854</ele>
        <time>2018-05-21T09:14:14Z</time>
      </trkpt>
      <trkpt lat="42.746672015637159" lon="-7.213610038161278">
        <ele>870</ele>
        <time>2018-05-21T09:14:16Z</time>
      </trkpt>
      <trkpt lat="42.746639996767044" lon="-7.213569972664118">
        <ele>870</ele>
        <time>2018-05-21T09:14:17Z</time>
      </trkpt>
      <trkpt lat="42.746606972068548" lon="-7.21352999098599">
        <ele>870</ele>
        <time>2018-05-21T09:14:18Z</time>
      </trkpt>
      <trkpt lat="42.746578976511955" lon="-7.213490009307861">
        <ele>870</ele>
        <time>2018-05-21T09:14:19Z</time>
      </trkpt>
      <trkpt lat="42.746550980955362" lon="-7.21344399265945">
        <ele>870</ele>
        <time>2018-05-21T09:14:21Z</time>
      </trkpt>
      <trkpt lat="42.746518040075898" lon="-7.213409040123224">
        <ele>870</ele>
        <time>2018-05-21T09:14:22Z</time>
      </trkpt>
      <trkpt lat="42.746490966528654" lon="-7.213368974626064">
        <ele>870</ele>
        <time>2018-05-21T09:14:23Z</time>
      </trkpt>
      <trkpt lat="42.74645802564919" lon="-7.213323041796684">
        <ele>870</ele>
        <time>2018-05-21T09:14:24Z</time>
      </trkpt>
      <trkpt lat="42.746425000950694" lon="-7.213282976299524">
        <ele>870</ele>
        <time>2018-05-21T09:14:26Z</time>
      </trkpt>
      <trkpt lat="42.746397005394101" lon="-7.213242994621396">
        <ele>870</ele>
        <time>2018-05-21T09:14:27Z</time>
      </trkpt>
      <trkpt lat="42.746364986523986" lon="-7.213207958266139">
        <ele>870</ele>
        <time>2018-05-21T09:14:28Z</time>
      </trkpt>
      <trkpt lat="42.74633196182549" lon="-7.213182980194688">
        <ele>870</ele>
        <time>2018-05-21T09:14:29Z</time>
      </trkpt>
      <trkpt lat="42.746231965720654" lon="-7.213055994361639">
        <ele>854</ele>
        <time>2018-05-21T09:14:33Z</time>
      </trkpt>
      <trkpt lat="42.746148984879255" lon="-7.212935965508223">
        <ele>854</ele>
        <time>2018-05-21T09:14:37Z</time>
      </trkpt>
      <trkpt lat="42.746143033728004" lon="-7.212923979386687">
        <ele>854</ele>
        <time>2018-05-21T09:14:37Z</time>
      </trkpt>
      <trkpt lat="42.745998026803136" lon="-7.212780984118581">
        <ele>877</ele>
        <time>2018-05-21T09:14:43Z</time>
      </trkpt>
      <trkpt lat="42.745911022648215" lon="-7.212700014933944">
        <ele>877</ele>
        <time>2018-05-21T09:14:46Z</time>
      </trkpt>
      <trkpt lat="42.745831981301308" lon="-7.212603958323598">
        <ele>877</ele>
        <time>2018-05-21T09:14:49Z</time>
      </trkpt>
      <trkpt lat="42.745827035978436" lon="-7.212603958323598">
        <ele>877</ele>
        <time>2018-05-21T09:14:49Z</time>
      </trkpt>
      <trkpt lat="42.745808009058237" lon="-7.212558025494218">
        <ele>877</ele>
        <time>2018-05-21T09:14:50Z</time>
      </trkpt>
      <trkpt lat="42.745784958824515" lon="-7.212513014674187">
        <ele>877</ele>
        <time>2018-05-21T09:14:51Z</time>
      </trkpt>
      <trkpt lat="42.745761992409825" lon="-7.21247797831893">
        <ele>877</ele>
        <time>2018-05-21T09:14:52Z</time>
      </trkpt>
      <trkpt lat="42.745737014338374" lon="-7.212448976933956">
        <ele>877</ele>
        <time>2018-05-21T09:14:53Z</time>
      </trkpt>
      <trkpt lat="42.745723016560078" lon="-7.212397009134293">
        <ele>877</ele>
        <time>2018-05-21T09:14:55Z</time>
      </trkpt>
      <trkpt lat="42.745695021003485" lon="-7.212345963343978">
        <ele>877</ele>
        <time>2018-05-21T09:14:56Z</time>
      </trkpt>
      <trkpt lat="42.745661996304989" lon="-7.212293995544314">
        <ele>877</ele>
        <time>2018-05-21T09:14:57Z</time>
      </trkpt>
      <trkpt lat="42.745634000748396" lon="-7.212247978895903">
        <ele>877</ele>
        <time>2018-05-21T09:14:59Z</time>
      </trkpt>
      <trkpt lat="42.745606005191803" lon="-7.212189976125956">
        <ele>877</ele>
        <time>2018-05-21T09:15:00Z</time>
      </trkpt>
      <trkpt lat="42.74557800963521" lon="-7.212132979184389">
        <ele>877</ele>
        <time>2018-05-21T09:15:02Z</time>
      </trkpt>
      <trkpt lat="42.745544984936714" lon="-7.212098026648164">
        <ele>877</ele>
        <time>2018-05-21T09:15:03Z</time>
      </trkpt>
      <trkpt lat="42.745526963844895" lon="-7.212063996121287">
        <ele>877</ele>
        <time>2018-05-21T09:15:04Z</time>
      </trkpt>
      <trkpt lat="42.745499974116683" lon="-7.212032983079553">
        <ele>877</ele>
        <time>2018-05-21T09:15:05Z</time>
      </trkpt>
      <trkpt lat="42.745474996045232" lon="-7.211980009451509">
        <ele>897</ele>
        <time>2018-05-21T09:15:06Z</time>
      </trkpt>
      <trkpt lat="42.7454490121454" lon="-7.21194296143949">
        <ele>870</ele>
        <time>2018-05-21T09:15:07Z</time>
      </trkpt>
      <trkpt lat="42.745425039902329" lon="-7.211909014731646">
        <ele>870</ele>
        <time>2018-05-21T09:15:08Z</time>
      </trkpt>
      <trkpt lat="42.745407018810511" lon="-7.211869033053517">
        <ele>870</ele>
        <time>2018-05-21T09:15:09Z</time>
      </trkpt>
      <trkpt lat="42.745382040739059" lon="-7.211831985041499">
        <ele>870</ele>
        <time>2018-05-21T09:15:11Z</time>
      </trkpt>
      <trkpt lat="42.745371982455254" lon="-7.211774988099933">
        <ele>870</ele>
        <time>2018-05-21T09:15:12Z</time>
      </trkpt>
      <trkpt lat="42.745357984676957" lon="-7.211723020300269">
        <ele>870</ele>
        <time>2018-05-21T09:15:13Z</time>
      </trkpt>
      <trkpt lat="42.745339963585138" lon="-7.211665017530322">
        <ele>870</ele>
        <time>2018-05-21T09:15:14Z</time>
      </trkpt>
      <trkpt lat="42.745321020483971" lon="-7.211597040295601">
        <ele>870</ele>
        <time>2018-05-21T09:15:16Z</time>
      </trkpt>
      <trkpt lat="42.745297970250249" lon="-7.21153300255537">
        <ele>870</ele>
        <time>2018-05-21T09:15:18Z</time>
      </trkpt>
      <trkpt lat="42.745283972471952" lon="-7.211459996178746">
        <ele>870</ele>
        <time>2018-05-21T09:15:19Z</time>
      </trkpt>
      <trkpt lat="42.745230998843908" lon="-7.211256986483932">
        <ele>870</ele>
        <time>2018-05-21T09:15:24Z</time>
      </trkpt>
      <trkpt lat="42.745158998295665" lon="-7.211062023416162">
        <ele>886</ele>
        <time>2018-05-21T09:15:29Z</time>
      </trkpt>
      <trkpt lat="42.745111975818872" lon="-7.210878040641546">
        <ele>886</ele>
        <time>2018-05-21T09:15:33Z</time>
      </trkpt>
      <trkpt lat="42.745065959170461" lon="-7.210754994302988">
        <ele>886</ele>
        <time>2018-05-21T09:15:36Z</time>
      </trkpt>
      <trkpt lat="42.745065959170461" lon="-7.210747031494975">
        <ele>886</ele>
        <time>2018-05-21T09:15:36Z</time>
      </trkpt>
      <trkpt lat="42.745022037997842" lon="-7.210625996813178">
        <ele>886</ele>
        <time>2018-05-21T09:15:39Z</time>
      </trkpt>
      <trkpt lat="42.744982978329062" lon="-7.210528012365103">
        <ele>886</ele>
        <time>2018-05-21T09:15:41Z</time>
      </trkpt>
      <trkpt lat="42.744982978329062" lon="-7.2105229832232">
        <ele>886</ele>
        <time>2018-05-21T09:15:41Z</time>
      </trkpt>
      <trkpt lat="42.744974009692669" lon="-7.210464980453253">
        <ele>886</ele>
        <time>2018-05-21T09:15:43Z</time>
      </trkpt>
      <trkpt lat="42.744968980550766" lon="-7.21041401848197">
        <ele>886</ele>
        <time>2018-05-21T09:15:44Z</time>
      </trkpt>
      <trkpt lat="42.744964035227895" lon="-7.210361966863275">
        <ele>886</ele>
        <time>2018-05-21T09:15:45Z</time>
      </trkpt>
      <trkpt lat="42.744950037449598" lon="-7.210292983800173">
        <ele>897</ele>
        <time>2018-05-21T09:15:47Z</time>
      </trkpt>
      <trkpt lat="42.744940984994173" lon="-7.210253002122045">
        <ele>897</ele>
        <time>2018-05-21T09:15:48Z</time>
      </trkpt>
      <trkpt lat="42.74493201635778" lon="-7.210194999352098">
        <ele>897</ele>
        <time>2018-05-21T09:15:49Z</time>
      </trkpt>
      <trkpt lat="42.744922041893005" lon="-7.210144037380815">
        <ele>897</ele>
        <time>2018-05-21T09:15:50Z</time>
      </trkpt>
      <trkpt lat="42.744922041893005" lon="-7.210086034610868">
        <ele>897</ele>
        <time>2018-05-21T09:15:51Z</time>
      </trkpt>
      <trkpt lat="42.744922041893005" lon="-7.210029037669301">
        <ele>897</ele>
        <time>2018-05-21T09:15:53Z</time>
      </trkpt>
      <trkpt lat="42.744922041893005" lon="-7.209959970787168">
        <ele>897</ele>
        <time>2018-05-21T09:15:54Z</time>
      </trkpt>
      <trkpt lat="42.744922041893005" lon="-7.209897022694349">
        <ele>897</ele>
        <time>2018-05-21T09:15:55Z</time>
      </trkpt>
      <trkpt lat="42.744922041893005" lon="-7.209844971075654">
        <ele>897</ele>
        <time>2018-05-21T09:15:57Z</time>
      </trkpt>
      <trkpt lat="42.744922041893005" lon="-7.209787974134088">
        <ele>897</ele>
        <time>2018-05-21T09:15:58Z</time>
      </trkpt>
      <trkpt lat="42.744922041893005" lon="-7.209736006334424">
        <ele>897</ele>
        <time>2018-05-21T09:15:59Z</time>
      </trkpt>
      <trkpt lat="42.744918018579483" lon="-7.209678003564477">
        <ele>897</ele>
        <time>2018-05-21T09:16:00Z</time>
      </trkpt>
      <trkpt lat="42.744918018579483" lon="-7.209627041593194">
        <ele>897</ele>
        <time>2018-05-21T09:16:01Z</time>
      </trkpt>
      <trkpt lat="42.74491298943758" lon="-7.209574989974499">
        <ele>897</ele>
        <time>2018-05-21T09:16:03Z</time>
      </trkpt>
      <trkpt lat="42.744898991659284" lon="-7.209528973326087">
        <ele>897</ele>
        <time>2018-05-21T09:16:04Z</time>
      </trkpt>
      <trkpt lat="42.744884993880987" lon="-7.209477005526424">
        <ele>908</ele>
        <time>2018-05-21T09:16:05Z</time>
      </trkpt>
      <trkpt lat="42.744870996102691" lon="-7.209437023848295">
        <ele>908</ele>
        <time>2018-05-21T09:16:06Z</time>
      </trkpt>
      <trkpt lat="42.744862027466297" lon="-7.2093849722296">
        <ele>908</ele>
        <time>2018-05-21T09:16:07Z</time>
      </trkpt>
      <trkpt lat="42.744848029688001" lon="-7.209339961409569">
        <ele>908</ele>
        <time>2018-05-21T09:16:08Z</time>
      </trkpt>
      <trkpt lat="42.744824979454279" lon="-7.209281958639622">
        <ele>908</ele>
        <time>2018-05-21T09:16:10Z</time>
      </trkpt>
      <trkpt lat="42.744810981675982" lon="-7.209229990839958">
        <ele>908</ele>
        <time>2018-05-21T09:16:11Z</time>
      </trkpt>
      <trkpt lat="42.744792038574815" lon="-7.209179028868675">
        <ele>908</ele>
        <time>2018-05-21T09:16:12Z</time>
      </trkpt>
      <trkpt lat="42.744768988341093" lon="-7.209141980856657">
        <ele>908</ele>
        <time>2018-05-21T09:16:13Z</time>
      </trkpt>
      <trkpt lat="42.7447409927845" lon="-7.209084983915091">
        <ele>908</ele>
        <time>2018-05-21T09:16:15Z</time>
      </trkpt>
      <trkpt lat="42.744726995006204" lon="-7.209038967266679">
        <ele>908</ele>
        <time>2018-05-21T09:16:16Z</time>
      </trkpt>
      <trkpt lat="42.744707968086004" lon="-7.208986999467015">
        <ele>908</ele>
        <time>2018-05-21T09:16:17Z</time>
      </trkpt>
      <trkpt lat="42.744679972529411" lon="-7.208947017788887">
        <ele>908</ele>
        <time>2018-05-21T09:16:18Z</time>
      </trkpt>
      <trkpt lat="42.744661029428244" lon="-7.208890020847321">
        <ele>908</ele>
        <time>2018-05-21T09:16:19Z</time>
      </trkpt>
      <trkpt lat="42.744633033871651" lon="-7.208844004198909">
        <ele>891</ele>
        <time>2018-05-21T09:16:21Z</time>
      </trkpt>
      <trkpt lat="42.744606966152787" lon="-7.2088030166924">
        <ele>891</ele>
        <time>2018-05-21T09:16:22Z</time>
      </trkpt>
      <trkpt lat="42.744582993909717" lon="-7.208763035014272">
        <ele>891</ele>
        <time>2018-05-21T09:16:23Z</time>
      </trkpt>
      <trkpt lat="42.744556004181504" lon="-7.208711989223957">
        <ele>891</ele>
        <time>2018-05-21T09:16:24Z</time>
      </trkpt>
      <trkpt lat="42.744532031938434" lon="-7.208665972575545">
        <ele>911</ele>
        <time>2018-05-21T09:16:26Z</time>
      </trkpt>
      <trkpt lat="42.744508981704712" lon="-7.208624985069037">
        <ele>911</ele>
        <time>2018-05-21T09:16:27Z</time>
      </trkpt>
      <trkpt lat="42.744480986148119" lon="-7.208585003390908">
        <ele>911</ele>
        <time>2018-05-21T09:16:28Z</time>
      </trkpt>
      <trkpt lat="42.744447961449623" lon="-7.208528006449342">
        <ele>911</ele>
        <time>2018-05-21T09:16:30Z</time>
      </trkpt>
      <trkpt lat="42.744422983378172" lon="-7.208492970094085">
        <ele>911</ele>
        <time>2018-05-21T09:16:31Z</time>
      </trkpt>
      <trkpt lat="42.744394987821579" lon="-7.208457011729479">
        <ele>911</ele>
        <time>2018-05-21T09:16:32Z</time>
      </trkpt>
      <trkpt lat="42.744380990043283" lon="-7.208404960110784">
        <ele>911</ele>
        <time>2018-05-21T09:16:33Z</time>
      </trkpt>
      <trkpt lat="42.744372021406889" lon="-7.208347963169217">
        <ele>932</ele>
        <time>2018-05-21T09:16:34Z</time>
      </trkpt>
      <trkpt lat="42.744344025850296" lon="-7.208306975662708">
        <ele>911</ele>
        <time>2018-05-21T09:16:36Z</time>
      </trkpt>
      <trkpt lat="42.744330028072" lon="-7.208261964842677">
        <ele>911</ele>
        <time>2018-05-21T09:16:37Z</time>
      </trkpt>
      <trkpt lat="42.7443110011518" lon="-7.208227012306452">
        <ele>911</ele>
        <time>2018-05-21T09:16:38Z</time>
      </trkpt>
      <trkpt lat="42.7443110011518" lon="-7.208173032850027">
        <ele>911</ele>
        <time>2018-05-21T09:16:39Z</time>
      </trkpt>
      <trkpt lat="42.744302032515407" lon="-7.208121987059712">
        <ele>911</ele>
        <time>2018-05-21T09:16:40Z</time>
      </trkpt>
      <trkpt lat="42.744302032515407" lon="-7.208063984289765">
        <ele>911</ele>
        <time>2018-05-21T09:16:41Z</time>
      </trkpt>
      <trkpt lat="42.744292980059981" lon="-7.208001036196947">
        <ele>911</ele>
        <time>2018-05-21T09:16:43Z</time>
      </trkpt>
      <trkpt lat="42.74428803473711" lon="-7.207938004285097">
        <ele>911</ele>
        <time>2018-05-21T09:16:44Z</time>
      </trkpt>
      <trkpt lat="42.744278982281685" lon="-7.207881007343531">
        <ele>932</ele>
        <time>2018-05-21T09:16:45Z</time>
      </trkpt>
      <trkpt lat="42.744260039180517" lon="-7.207823004573584">
        <ele>932</ele>
        <time>2018-05-21T09:16:47Z</time>
      </trkpt>
      <trkpt lat="42.744255010038614" lon="-7.207766007632017">
        <ele>932</ele>
        <time>2018-05-21T09:16:48Z</time>
      </trkpt>
      <trkpt lat="42.74424402974546" lon="-7.207701969891787">
        <ele>932</ele>
        <time>2018-05-21T09:16:50Z</time>
      </trkpt>
      <trkpt lat="42.744230031967163" lon="-7.20764497295022">
        <ele>932</ele>
        <time>2018-05-21T09:16:51Z</time>
      </trkpt>
      <trkpt lat="42.744217040017247" lon="-7.207586970180273">
        <ele>932</ele>
        <time>2018-05-21T09:16:52Z</time>
      </trkpt>
      <trkpt lat="42.744206981733441" lon="-7.207517987117171">
        <ele>932</ele>
        <time>2018-05-21T09:16:54Z</time>
      </trkpt>
      <trkpt lat="42.744184015318751" lon="-7.20745000988245">
        <ele>932</ele>
        <time>2018-05-21T09:16:56Z</time>
      </trkpt>
      <trkpt lat="42.744156019762158" lon="-7.207392007112503">
        <ele>932</ele>
        <time>2018-05-21T09:16:57Z</time>
      </trkpt>
      <trkpt lat="42.744136992841959" lon="-7.207345990464091">
        <ele>932</ele>
        <time>2018-05-21T09:16:58Z</time>
      </trkpt>
      <trkpt lat="42.744108997285366" lon="-7.207306008785963">
        <ele>932</ele>
        <time>2018-05-21T09:17:00Z</time>
      </trkpt>
      <trkpt lat="42.744086030870676" lon="-7.207266027107835">
        <ele>932</ele>
        <time>2018-05-21T09:17:01Z</time>
      </trkpt>
      <trkpt lat="42.744067003950477" lon="-7.207208024337888">
        <ele>932</ele>
        <time>2018-05-21T09:17:02Z</time>
      </trkpt>
      <trkpt lat="42.744044037535787" lon="-7.207156978547573">
        <ele>932</ele>
        <time>2018-05-21T09:17:03Z</time>
      </trkpt>
      <trkpt lat="42.744025010615587" lon="-7.207093024626374">
        <ele>932</ele>
        <time>2018-05-21T09:17:05Z</time>
      </trkpt>
      <trkpt lat="42.744006989523768" lon="-7.207047007977963">
        <ele>944</ele>
        <time>2018-05-21T09:17:06Z</time>
      </trkpt>
      <trkpt lat="42.743992991745472" lon="-7.206995962187648">
        <ele>944</ele>
        <time>2018-05-21T09:17:07Z</time>
      </trkpt>
      <trkpt lat="42.743973964825273" lon="-7.206943994387984">
        <ele>944</ele>
        <time>2018-05-21T09:17:09Z</time>
      </trkpt>
      <trkpt lat="42.743955021724105" lon="-7.206875011324883">
        <ele>944</ele>
        <time>2018-05-21T09:17:10Z</time>
      </trkpt>
      <trkpt lat="42.743927026167512" lon="-7.206818014383316">
        <ele>944</ele>
        <time>2018-05-21T09:17:12Z</time>
      </trkpt>
      <trkpt lat="42.74390397593379" lon="-7.206753976643086">
        <ele>944</ele>
        <time>2018-05-21T09:17:13Z</time>
      </trkpt>
      <trkpt lat="42.7438810095191" lon="-7.206708965823054">
        <ele>944</ele>
        <time>2018-05-21T09:17:15Z</time>
      </trkpt>
      <trkpt lat="42.743861982598901" lon="-7.206663032993674">
        <ele>944</ele>
        <time>2018-05-21T09:17:16Z</time>
      </trkpt>
      <trkpt lat="42.743833987042308" lon="-7.206617016345263">
        <ele>944</ele>
        <time>2018-05-21T09:17:17Z</time>
      </trkpt>
      <trkpt lat="42.743811020627618" lon="-7.206570999696851">
        <ele>944</ele>
        <time>2018-05-21T09:17:18Z</time>
      </trkpt>
      <trkpt lat="42.743777995929122" lon="-7.206519031897187">
        <ele>944</ele>
        <time>2018-05-21T09:17:20Z</time>
      </trkpt>
      <trkpt lat="42.743750000372529" lon="-7.206485001370311">
        <ele>944</ele>
        <time>2018-05-21T09:17:21Z</time>
      </trkpt>
      <trkpt lat="42.743727033957839" lon="-7.206438984721899">
        <ele>944</ele>
        <time>2018-05-21T09:17:22Z</time>
      </trkpt>
      <trkpt lat="42.743703983724117" lon="-7.206399003043771">
        <ele>944</ele>
        <time>2018-05-21T09:17:23Z</time>
      </trkpt>
      <trkpt lat="42.743670959025621" lon="-7.206363966688514">
        <ele>944</ele>
        <time>2018-05-21T09:17:25Z</time>
      </trkpt>
      <trkpt lat="42.743647992610931" lon="-7.206309987232089">
        <ele>944</ele>
        <time>2018-05-21T09:17:26Z</time>
      </trkpt>
      <trkpt lat="42.743569035083055" lon="-7.206272017210722">
        <ele>944</ele>
        <time>2018-05-21T09:17:29Z</time>
      </trkpt>
      <trkpt lat="42.74355897679925" lon="-7.206265982240439">
        <ele>944</ele>
        <time>2018-05-21T09:17:29Z</time>
      </trkpt>
      <trkpt lat="42.743525030091405" lon="-7.206237986683846">
        <ele>958</ele>
        <time>2018-05-21T09:17:30Z</time>
      </trkpt>
      <trkpt lat="42.743479013442993" lon="-7.206220971420407">
        <ele>958</ele>
        <time>2018-05-21T09:17:32Z</time>
      </trkpt>
      <trkpt lat="42.743431990966201" lon="-7.206208985298872">
        <ele>958</ele>
        <time>2018-05-21T09:17:33Z</time>
      </trkpt>
      <trkpt lat="42.743389997631311" lon="-7.206208985298872">
        <ele>958</ele>
        <time>2018-05-21T09:17:34Z</time>
      </trkpt>
      <trkpt lat="42.743348004296422" lon="-7.206208985298872">
        <ele>958</ele>
        <time>2018-05-21T09:17:35Z</time>
      </trkpt>
      <trkpt lat="42.74330098181963" lon="-7.206208985298872">
        <ele>958</ele>
        <time>2018-05-21T09:17:37Z</time>
      </trkpt>
      <trkpt lat="42.743267035111785" lon="-7.206198005005717">
        <ele>958</ele>
        <time>2018-05-21T09:17:38Z</time>
      </trkpt>
      <trkpt lat="42.743267035111785" lon="-7.20618199557066">
        <ele>958</ele>
        <time>2018-05-21T09:17:38Z</time>
      </trkpt>
      <trkpt lat="42.74327801540494" lon="-7.206146037206054">
        <ele>958</ele>
        <time>2018-05-21T09:17:39Z</time>
      </trkpt>
      <trkpt lat="42.743307016789913" lon="-7.206121981143951">
        <ele>958</ele>
        <time>2018-05-21T09:17:40Z</time>
      </trkpt>
      <trkpt lat="42.743335012346506" lon="-7.206088034436107">
        <ele>958</ele>
        <time>2018-05-21T09:17:41Z</time>
      </trkpt>
      <trkpt lat="42.743358984589577" lon="-7.206046963110566">
        <ele>958</ele>
        <time>2018-05-21T09:17:42Z</time>
      </trkpt>
      <trkpt lat="42.743391003459692" lon="-7.206013016402721">
        <ele>958</ele>
        <time>2018-05-21T09:17:44Z</time>
      </trkpt>
      <trkpt lat="42.743414975702763" lon="-7.205973034724593">
        <ele>958</ele>
        <time>2018-05-21T09:17:45Z</time>
      </trkpt>
      <trkpt lat="42.743432996794581" lon="-7.205937998369336">
        <ele>958</ele>
        <time>2018-05-21T09:17:46Z</time>
      </trkpt>
      <trkpt lat="42.743456969037652" lon="-7.205896005034447">
        <ele>958</ele>
        <time>2018-05-21T09:17:47Z</time>
      </trkpt>
      <trkpt lat="42.743480019271374" lon="-7.205849988386035">
        <ele>958</ele>
        <time>2018-05-21T09:17:48Z</time>
      </trkpt>
      <trkpt lat="42.743499968200922" lon="-7.205807995051146">
        <ele>958</ele>
        <time>2018-05-21T09:17:49Z</time>
      </trkpt>
      <trkpt lat="42.743518995121121" lon="-7.205761978402734">
        <ele>958</ele>
        <time>2018-05-21T09:17:50Z</time>
      </trkpt>
      <trkpt lat="42.743543973192573" lon="-7.205724008381367">
        <ele>958</ele>
        <time>2018-05-21T09:17:51Z</time>
      </trkpt>
      <trkpt lat="42.743571968749166" lon="-7.205681009218097">
        <ele>958</ele>
        <time>2018-05-21T09:17:53Z</time>
      </trkpt>
      <trkpt lat="42.743595018982887" lon="-7.205651002004743">
        <ele>958</ele>
        <time>2018-05-21T09:17:54Z</time>
      </trkpt>
      <trkpt lat="42.7436220087111" lon="-7.205617977306247">
        <ele>958</ele>
        <time>2018-05-21T09:17:55Z</time>
      </trkpt>
      <trkpt lat="42.743646986782551" lon="-7.205586964264512">
        <ele>958</ele>
        <time>2018-05-21T09:17:56Z</time>
      </trkpt>
      <trkpt lat="42.743671964854002" lon="-7.20555704087019">
        <ele>958</ele>
        <time>2018-05-21T09:17:57Z</time>
      </trkpt>
      <trkpt lat="42.743689985945821" lon="-7.205515969544649">
        <ele>958</ele>
        <time>2018-05-21T09:17:58Z</time>
      </trkpt>
      <trkpt lat="42.743713958188891" lon="-7.205470036715269">
        <ele>958</ele>
        <time>2018-05-21T09:17:59Z</time>
      </trkpt>
      <trkpt lat="42.74373197928071" lon="-7.205424020066857">
        <ele>958</ele>
        <time>2018-05-21T09:18:00Z</time>
      </trkpt>
      <trkpt lat="42.743756035342813" lon="-7.205384038388729">
        <ele>958</ele>
        <time>2018-05-21T09:18:01Z</time>
      </trkpt>
      <trkpt lat="42.743784030899405" lon="-7.205338021740317">
        <ele>952</ele>
        <time>2018-05-21T09:18:03Z</time>
      </trkpt>
      <trkpt lat="42.743806997314095" lon="-7.205303991213441">
        <ele>952</ele>
        <time>2018-05-21T09:18:04Z</time>
      </trkpt>
      <trkpt lat="42.743826024234295" lon="-7.205252023413777">
        <ele>960</ele>
        <time>2018-05-21T09:18:05Z</time>
      </trkpt>
      <trkpt lat="42.743853013962507" lon="-7.205212041735649">
        <ele>960</ele>
        <time>2018-05-21T09:18:06Z</time>
      </trkpt>
      <trkpt lat="42.743872040882707" lon="-7.205177005380392">
        <ele>960</ele>
        <time>2018-05-21T09:18:07Z</time>
      </trkpt>
      <trkpt lat="42.743895007297397" lon="-7.20513098873198">
        <ele>960</ele>
        <time>2018-05-21T09:18:08Z</time>
      </trkpt>
      <trkpt lat="42.74392300285399" lon="-7.205091007053852">
        <ele>960</ele>
        <time>2018-05-21T09:18:09Z</time>
      </trkpt>
      <trkpt lat="42.74394697509706" lon="-7.205051025375724">
        <ele>960</ele>
        <time>2018-05-21T09:18:10Z</time>
      </trkpt>
      <trkpt lat="42.743964996188879" lon="-7.205005008727312">
        <ele>960</ele>
        <time>2018-05-21T09:18:12Z</time>
      </trkpt>
      <trkpt lat="42.743984023109078" lon="-7.2049589920789">
        <ele>960</ele>
        <time>2018-05-21T09:18:13Z</time>
      </trkpt>
      <trkpt lat="42.744002966210246" lon="-7.204908030107617">
        <ele>960</ele>
        <time>2018-05-21T09:18:14Z</time>
      </trkpt>
      <trkpt lat="42.744020987302065" lon="-7.204862013459206">
        <ele>960</ele>
        <time>2018-05-21T09:18:15Z</time>
      </trkpt>
      <trkpt lat="42.744044959545135" lon="-7.20480996184051">
        <ele>960</ele>
        <time>2018-05-21T09:18:16Z</time>
      </trkpt>
      <trkpt lat="42.744048982858658" lon="-7.204757994040847">
        <ele>960</ele>
        <time>2018-05-21T09:18:18Z</time>
      </trkpt>
      <trkpt lat="42.744038002565503" lon="-7.204718012362719">
        <ele>960</ele>
        <time>2018-05-21T09:18:19Z</time>
      </trkpt>
      <trkpt lat="42.744003972038627" lon="-7.204711977392435">
        <ele>960</ele>
        <time>2018-05-21T09:18:20Z</time>
      </trkpt>
      <trkpt lat="42.743961978703737" lon="-7.204711977392435">
        <ele>960</ele>
        <time>2018-05-21T09:18:21Z</time>
      </trkpt>
      <trkpt lat="42.743919985368848" lon="-7.204711977392435">
        <ele>960</ele>
        <time>2018-05-21T09:18:22Z</time>
      </trkpt>
      <trkpt lat="42.743883021175861" lon="-7.204705020412803">
        <ele>960</ele>
        <time>2018-05-21T09:18:23Z</time>
      </trkpt>
      <trkpt lat="42.743734996765852" lon="-7.204728992655873">
        <ele>971</ele>
        <time>2018-05-21T09:18:28Z</time>
      </trkpt>
      <trkpt lat="42.743607005104423" lon="-7.204740978777409">
        <ele>971</ele>
        <time>2018-05-21T09:18:31Z</time>
      </trkpt>
      <trkpt lat="42.743422016501427" lon="-7.204740978777409">
        <ele>971</ele>
        <time>2018-05-21T09:18:37Z</time>
      </trkpt>
      <trkpt lat="42.74325898848474" lon="-7.204747013747692">
        <ele>971</ele>
        <time>2018-05-21T09:18:42Z</time>
      </trkpt>
      <trkpt lat="42.743032006546855" lon="-7.20480602234602">
        <ele>971</ele>
        <time>2018-05-21T09:18:49Z</time>
      </trkpt>
      <trkpt lat="42.743024965748191" lon="-7.20480602234602">
        <ele>971</ele>
        <time>2018-05-21T09:18:49Z</time>
      </trkpt>
      <trkpt lat="42.742898985743523" lon="-7.204789007082582">
        <ele>979</ele>
        <time>2018-05-21T09:18:53Z</time>
      </trkpt>
      <trkpt lat="42.742874007672071" lon="-7.204789007082582">
        <ele>979</ele>
        <time>2018-05-21T09:18:53Z</time>
      </trkpt>
      <trkpt lat="42.742773005738854" lon="-7.204780960455537">
        <ele>979</ele>
        <time>2018-05-21T09:18:56Z</time>
      </trkpt>
      <trkpt lat="42.7427429985255" lon="-7.204769980162382">
        <ele>979</ele>
        <time>2018-05-21T09:18:57Z</time>
      </trkpt>
      <trkpt lat="42.742703016847372" lon="-7.204751959070563">
        <ele>979</ele>
        <time>2018-05-21T09:18:58Z</time>
      </trkpt>
      <trkpt lat="42.742664040997624" lon="-7.204747013747692">
        <ele>979</ele>
        <time>2018-05-21T09:19:00Z</time>
      </trkpt>
      <trkpt lat="42.742631016299129" lon="-7.204728992655873">
        <ele>979</ele>
        <time>2018-05-21T09:19:01Z</time>
      </trkpt>
      <trkpt lat="42.742592040449381" lon="-7.20472396351397">
        <ele>979</ele>
        <time>2018-05-21T09:19:02Z</time>
      </trkpt>
      <trkpt lat="42.742551974952221" lon="-7.204718012362719">
        <ele>979</ele>
        <time>2018-05-21T09:19:03Z</time>
      </trkpt>
      <trkpt lat="42.742519034072757" lon="-7.20470099709928">
        <ele>979</ele>
        <time>2018-05-21T09:19:04Z</time>
      </trkpt>
      <trkpt lat="42.742519034072757" lon="-7.204645005986095">
        <ele>979</ele>
        <time>2018-05-21T09:19:05Z</time>
      </trkpt>
      <trkpt lat="42.742519034072757" lon="-7.204587003216147">
        <ele>979</ele>
        <time>2018-05-21T09:19:07Z</time>
      </trkpt>
      <trkpt lat="42.742540994659066" lon="-7.204552972689271">
        <ele>979</ele>
        <time>2018-05-21T09:19:08Z</time>
      </trkpt>
      <trkpt lat="42.742559015750885" lon="-7.204516008496285">
        <ele>979</ele>
        <time>2018-05-21T09:19:09Z</time>
      </trkpt>
      <trkpt lat="42.742577036842704" lon="-7.204474015161395">
        <ele>979</ele>
        <time>2018-05-21T09:19:10Z</time>
      </trkpt>
      <trkpt lat="42.742604026570916" lon="-7.204435961320996">
        <ele>993</ele>
        <time>2018-05-21T09:19:11Z</time>
      </trkpt>
      <trkpt lat="42.74261400103569" lon="-7.204391034319997">
        <ele>993</ele>
        <time>2018-05-21T09:19:12Z</time>
      </trkpt>
      <trkpt lat="42.742627998813987" lon="-7.204339988529682">
        <ele>993</ele>
        <time>2018-05-21T09:19:13Z</time>
      </trkpt>
      <trkpt lat="42.742660017684102" lon="-7.204299001023173">
        <ele>993</ele>
        <time>2018-05-21T09:19:14Z</time>
      </trkpt>
      <trkpt lat="42.74272296577692" lon="-7.204200010746718">
        <ele>993</ele>
        <time>2018-05-21T09:19:17Z</time>
      </trkpt>
      <trkpt lat="42.742798989638686" lon="-7.20403497107327">
        <ele>993</ele>
        <time>2018-05-21T09:19:21Z</time>
      </trkpt>
      <trkpt lat="42.742874007672071" lon="-7.203912008553743">
        <ele>993</ele>
        <time>2018-05-21T09:19:25Z</time>
      </trkpt>
      <trkpt lat="42.742968974635005" lon="-7.203743029385805">
        <ele>987</ele>
        <time>2018-05-21T09:19:30Z</time>
      </trkpt>
      <trkpt lat="42.743022032082081" lon="-7.203598022460938">
        <ele>1003</ele>
        <time>2018-05-21T09:19:33Z</time>
      </trkpt>
      <trkpt lat="42.743022032082081" lon="-7.203591987490654">
        <ele>1003</ele>
        <time>2018-05-21T09:19:33Z</time>
      </trkpt>
      <trkpt lat="42.743073999881744" lon="-7.203400041908026">
        <ele>1003</ele>
        <time>2018-05-21T09:19:38Z</time>
      </trkpt>
      <trkpt lat="42.743118004873395" lon="-7.203178005293012">
        <ele>1003</ele>
        <time>2018-05-21T09:19:43Z</time>
      </trkpt>
      <trkpt lat="42.743155974894762" lon="-7.203028975054622">
        <ele>1003</ele>
        <time>2018-05-21T09:19:47Z</time>
      </trkpt>
      <trkpt lat="42.743155974894762" lon="-7.203011037781835">
        <ele>1003</ele>
        <time>2018-05-21T09:19:47Z</time>
      </trkpt>
      <trkpt lat="42.743173995986581" lon="-7.202965021133423">
        <ele>1003</ele>
        <time>2018-05-21T09:19:48Z</time>
      </trkpt>
      <trkpt lat="42.743197968229651" lon="-7.202908024191856">
        <ele>1003</ele>
        <time>2018-05-21T09:19:50Z</time>
      </trkpt>
      <trkpt lat="42.743207020685077" lon="-7.202862007543445">
        <ele>1003</ele>
        <time>2018-05-21T09:19:51Z</time>
      </trkpt>
      <trkpt lat="42.74321598932147" lon="-7.202810039743781">
        <ele>1017</ele>
        <time>2018-05-21T09:19:52Z</time>
      </trkpt>
      <trkpt lat="42.743225963786244" lon="-7.202764023095369">
        <ele>1017</ele>
        <time>2018-05-21T09:19:53Z</time>
      </trkpt>
      <trkpt lat="42.743239039555192" lon="-7.202718006446958">
        <ele>1017</ele>
        <time>2018-05-21T09:19:54Z</time>
      </trkpt>
      <trkpt lat="42.74325798265636" lon="-7.202666960656643">
        <ele>1017</ele>
        <time>2018-05-21T09:19:55Z</time>
      </trkpt>
      <trkpt lat="42.743277009576559" lon="-7.202626978978515">
        <ele>1017</ele>
        <time>2018-05-21T09:19:56Z</time>
      </trkpt>
      <trkpt lat="42.743295030668378" lon="-7.202585991472006">
        <ele>1017</ele>
        <time>2018-05-21T09:19:57Z</time>
      </trkpt>
      <trkpt lat="42.743313973769546" lon="-7.202546009793878">
        <ele>1017</ele>
        <time>2018-05-21T09:19:58Z</time>
      </trkpt>
      <trkpt lat="42.743333000689745" lon="-7.202506028115749">
        <ele>1017</ele>
        <time>2018-05-21T09:19:59Z</time>
      </trkpt>
      <trkpt lat="42.743355967104435" lon="-7.202460011467338">
        <ele>1017</ele>
        <time>2018-05-21T09:20:00Z</time>
      </trkpt>
      <trkpt lat="42.743383962661028" lon="-7.202413994818926">
        <ele>1017</ele>
        <time>2018-05-21T09:20:02Z</time>
      </trkpt>
      <trkpt lat="42.743397960439324" lon="-7.202362027019262">
        <ele>1017</ele>
        <time>2018-05-21T09:20:03Z</time>
      </trkpt>
      <trkpt lat="42.743411958217621" lon="-7.202316010370851">
        <ele>1017</ele>
        <time>2018-05-21T09:20:04Z</time>
      </trkpt>
      <trkpt lat="42.74343098513782" lon="-7.202259013429284">
        <ele>1017</ele>
        <time>2018-05-21T09:20:05Z</time>
      </trkpt>
      <trkpt lat="42.743444982916117" lon="-7.202206961810589">
        <ele>1017</ele>
        <time>2018-05-21T09:20:07Z</time>
      </trkpt>
      <trkpt lat="42.743454035371542" lon="-7.202155999839306">
        <ele>1017</ele>
        <time>2018-05-21T09:20:08Z</time>
      </trkpt>
      <trkpt lat="42.743477001786232" lon="-7.202109983190894">
        <ele>1017</ele>
        <time>2018-05-21T09:20:09Z</time>
      </trkpt>
      <trkpt lat="42.743500974029303" lon="-7.202063966542482">
        <ele>1017</ele>
        <time>2018-05-21T09:20:10Z</time>
      </trkpt>
      <trkpt lat="42.743524024263024" lon="-7.202018033713102">
        <ele>1017</ele>
        <time>2018-05-21T09:20:11Z</time>
      </trkpt>
      <trkpt lat="42.743532992899418" lon="-7.201972017064691">
        <ele>1029</ele>
        <time>2018-05-21T09:20:13Z</time>
      </trkpt>
      <trkpt lat="42.743542967364192" lon="-7.201914014294744">
        <ele>1029</ele>
        <time>2018-05-21T09:20:14Z</time>
      </trkpt>
      <trkpt lat="42.743552019819617" lon="-7.201867997646332">
        <ele>1029</ele>
        <time>2018-05-21T09:20:15Z</time>
      </trkpt>
      <trkpt lat="42.743560988456011" lon="-7.201828015968204">
        <ele>1029</ele>
        <time>2018-05-21T09:20:16Z</time>
      </trkpt>
      <trkpt lat="42.743560988456011" lon="-7.201771019026637">
        <ele>1029</ele>
        <time>2018-05-21T09:20:17Z</time>
      </trkpt>
      <trkpt lat="42.743570962920785" lon="-7.20171301625669">
        <ele>1029</ele>
        <time>2018-05-21T09:20:18Z</time>
      </trkpt>
      <trkpt lat="42.743570962920785" lon="-7.201661970466375">
        <ele>1029</ele>
        <time>2018-05-21T09:20:19Z</time>
      </trkpt>
      <trkpt lat="42.743570962920785" lon="-7.201607991009951">
        <ele>1029</ele>
        <time>2018-05-21T09:20:21Z</time>
      </trkpt>
      <trkpt lat="42.743570962920785" lon="-7.201539007946849">
        <ele>1029</ele>
        <time>2018-05-21T09:20:22Z</time>
      </trkpt>
      <trkpt lat="42.743570962920785" lon="-7.201487040147185">
        <ele>1029</ele>
        <time>2018-05-21T09:20:23Z</time>
      </trkpt>
      <trkpt lat="42.743570962920785" lon="-7.20143398270011">
        <ele>1029</ele>
        <time>2018-05-21T09:20:25Z</time>
      </trkpt>
      <trkpt lat="42.743566017597914" lon="-7.201375979930162">
        <ele>1029</ele>
        <time>2018-05-21T09:20:26Z</time>
      </trkpt>
      <trkpt lat="42.743556965142488" lon="-7.20132501795888">
        <ele>1029</ele>
        <time>2018-05-21T09:20:27Z</time>
      </trkpt>
      <trkpt lat="42.743546990677714" lon="-7.201279001310468">
        <ele>1029</ele>
        <time>2018-05-21T09:20:28Z</time>
      </trkpt>
      <trkpt lat="42.743538022041321" lon="-7.201220998540521">
        <ele>1029</ele>
        <time>2018-05-21T09:20:29Z</time>
      </trkpt>
      <trkpt lat="42.743528969585896" lon="-7.201157966628671">
        <ele>1034</ele>
        <time>2018-05-21T09:20:31Z</time>
      </trkpt>
      <trkpt lat="42.743514971807599" lon="-7.201105998829007">
        <ele>1034</ele>
        <time>2018-05-21T09:20:32Z</time>
      </trkpt>
      <trkpt lat="42.743504997342825" lon="-7.201049001887441">
        <ele>1034</ele>
        <time>2018-05-21T09:20:33Z</time>
      </trkpt>
      <trkpt lat="42.743496028706431" lon="-7.201002985239029">
        <ele>1034</ele>
        <time>2018-05-21T09:20:34Z</time>
      </trkpt>
      <trkpt lat="42.743486976251006" lon="-7.200951017439365">
        <ele>1034</ele>
        <time>2018-05-21T09:20:35Z</time>
      </trkpt>
      <trkpt lat="42.74347297847271" lon="-7.200905000790954">
        <ele>1034</ele>
        <time>2018-05-21T09:20:37Z</time>
      </trkpt>
      <trkpt lat="42.743458980694413" lon="-7.200858984142542">
        <ele>1034</ele>
        <time>2018-05-21T09:20:38Z</time>
      </trkpt>
      <trkpt lat="42.743440037593246" lon="-7.20081296749413">
        <ele>1034</ele>
        <time>2018-05-21T09:20:39Z</time>
      </trkpt>
      <trkpt lat="42.743426039814949" lon="-7.200762005522847">
        <ele>1034</ele>
        <time>2018-05-21T09:20:40Z</time>
      </trkpt>
      <trkpt lat="42.743402989581227" lon="-7.2007040027529">
        <ele>1034</ele>
        <time>2018-05-21T09:20:41Z</time>
      </trkpt>
      <trkpt lat="42.743374994024634" lon="-7.200653040781617">
        <ele>1034</ele>
        <time>2018-05-21T09:20:43Z</time>
      </trkpt>
      <trkpt lat="42.743351021781564" lon="-7.200600989162922">
        <ele>1034</ele>
        <time>2018-05-21T09:20:44Z</time>
      </trkpt>
      <trkpt lat="42.743333000689745" lon="-7.200542986392975">
        <ele>1034</ele>
        <time>2018-05-21T09:20:46Z</time>
      </trkpt>
      <trkpt lat="42.743313973769546" lon="-7.200496969744563">
        <ele>1034</ele>
        <time>2018-05-21T09:20:47Z</time>
      </trkpt>
      <trkpt lat="42.743297964334488" lon="-7.200450031086803">
        <ele>1034</ele>
        <time>2018-05-21T09:20:48Z</time>
      </trkpt>
      <trkpt lat="42.743213977664709" lon="-7.20025397837162">
        <ele>1034</ele>
        <time>2018-05-21T09:20:53Z</time>
      </trkpt>
      <trkpt lat="42.743065031245351" lon="-7.20003898255527">
        <ele>1034</ele>
        <time>2018-05-21T09:20:59Z</time>
      </trkpt>
      <trkpt lat="42.742939973250031" lon="-7.199819041416049">
        <ele>1034</ele>
        <time>2018-05-21T09:21:05Z</time>
      </trkpt>
      <trkpt lat="42.742799995467067" lon="-7.199511006474495">
        <ele>1053</ele>
        <time>2018-05-21T09:21:13Z</time>
      </trkpt>
      <trkpt lat="42.742691030725837" lon="-7.199290981516242">
        <ele>1053</ele>
        <time>2018-05-21T09:21:19Z</time>
      </trkpt>
      <trkpt lat="42.742561027407646" lon="-7.199042038992047">
        <ele>1053</ele>
        <time>2018-05-21T09:21:26Z</time>
      </trkpt>
      <trkpt lat="42.742429012432694" lon="-7.198752025142312">
        <ele>1053</ele>
        <time>2018-05-21T09:21:33Z</time>
      </trkpt>
      <trkpt lat="42.74228903464973" lon="-7.198477014899254">
        <ele>1049</ele>
        <time>2018-05-21T09:21:40Z</time>
      </trkpt>
      <trkpt lat="42.742157019674778" lon="-7.198137966915965">
        <ele>1049</ele>
        <time>2018-05-21T09:21:49Z</time>
      </trkpt>
      <trkpt lat="42.74207697249949" lon="-7.198041994124651">
        <ele>1062</ele>
        <time>2018-05-21T09:21:52Z</time>
      </trkpt>
      <trkpt lat="42.741992985829711" lon="-7.197882989421487">
        <ele>1066</ele>
        <time>2018-05-21T09:21:56Z</time>
      </trkpt>
      <trkpt lat="42.741890978068113" lon="-7.197687020525336">
        <ele>1066</ele>
        <time>2018-05-21T09:22:01Z</time>
      </trkpt>
      <trkpt lat="42.741786036640406" lon="-7.197442017495632">
        <ele>1066</ele>
        <time>2018-05-21T09:22:08Z</time>
      </trkpt>
      <trkpt lat="42.74169098585844" lon="-7.197247976437211">
        <ele>1066</ele>
        <time>2018-05-21T09:22:13Z</time>
      </trkpt>
      <trkpt lat="42.741576991975307" lon="-7.197066005319357">
        <ele>1066</ele>
        <time>2018-05-21T09:22:18Z</time>
      </trkpt>
      <trkpt lat="42.74151798337698" lon="-7.196956034749746">
        <ele>1072</ele>
        <time>2018-05-21T09:22:21Z</time>
      </trkpt>
      <trkpt lat="42.741501973941922" lon="-7.196917980909348">
        <ele>1072</ele>
        <time>2018-05-21T09:22:22Z</time>
      </trkpt>
      <trkpt lat="42.741473978385329" lon="-7.196886967867613">
        <ele>1072</ele>
        <time>2018-05-21T09:22:23Z</time>
      </trkpt>
      <trkpt lat="42.741454029455781" lon="-7.196844974532723">
        <ele>1072</ele>
        <time>2018-05-21T09:22:24Z</time>
      </trkpt>
      <trkpt lat="42.74143198505044" lon="-7.196808010339737">
        <ele>1072</ele>
        <time>2018-05-21T09:22:25Z</time>
      </trkpt>
      <trkpt lat="42.741417987272143" lon="-7.196755036711693">
        <ele>1072</ele>
        <time>2018-05-21T09:22:26Z</time>
      </trkpt>
      <trkpt lat="42.741394015029073" lon="-7.196702985092998">
        <ele>1072</ele>
        <time>2018-05-21T09:22:28Z</time>
      </trkpt>
      <trkpt lat="42.741379011422396" lon="-7.196665015071631">
        <ele>1072</ele>
        <time>2018-05-21T09:22:28Z</time>
      </trkpt>
      <trkpt lat="42.741359984502196" lon="-7.196629978716373">
        <ele>1072</ele>
        <time>2018-05-21T09:22:29Z</time>
      </trkpt>
      <trkpt lat="42.741341963410378" lon="-7.196583962067962">
        <ele>1086</ele>
        <time>2018-05-21T09:22:31Z</time>
      </trkpt>
      <trkpt lat="42.741327965632081" lon="-7.196538029238582">
        <ele>1072</ele>
        <time>2018-05-21T09:22:32Z</time>
      </trkpt>
      <trkpt lat="42.741317991167307" lon="-7.196486983448267">
        <ele>1072</ele>
        <time>2018-05-21T09:22:33Z</time>
      </trkpt>
      <trkpt lat="42.741299970075488" lon="-7.196452030912042">
        <ele>1072</ele>
        <time>2018-05-21T09:22:34Z</time>
      </trkpt>
      <trkpt lat="42.741285972297192" lon="-7.19640601426363">
        <ele>1081</ele>
        <time>2018-05-21T09:22:35Z</time>
      </trkpt>
      <trkpt lat="42.741267029196024" lon="-7.196366032585502">
        <ele>1081</ele>
        <time>2018-05-21T09:22:36Z</time>
      </trkpt>
      <trkpt lat="42.741243978962302" lon="-7.196325967088342">
        <ele>1081</ele>
        <time>2018-05-21T09:22:37Z</time>
      </trkpt>
      <trkpt lat="42.741225035861135" lon="-7.196273999288678">
        <ele>1081</ele>
        <time>2018-05-21T09:22:38Z</time>
      </trkpt>
      <trkpt lat="42.741164015606046" lon="-7.196134021505714">
        <ele>1086</ele>
        <time>2018-05-21T09:22:42Z</time>
      </trkpt>
      <trkpt lat="42.741098972037435" lon="-7.195990020409226">
        <ele>1086</ele>
        <time>2018-05-21T09:22:45Z</time>
      </trkpt>
      <trkpt lat="42.741040969267488" lon="-7.195836966857314">
        <ele>1086</ele>
        <time>2018-05-21T09:22:49Z</time>
      </trkpt>
      <trkpt lat="42.740991013124585" lon="-7.195685002952814">
        <ele>1086</ele>
        <time>2018-05-21T09:22:53Z</time>
      </trkpt>
      <trkpt lat="42.740946002304554" lon="-7.195601016283035">
        <ele>1086</ele>
        <time>2018-05-21T09:22:55Z</time>
      </trkpt>
      <trkpt lat="42.74091700091958" lon="-7.195547958835959">
        <ele>1086</ele>
        <time>2018-05-21T09:22:57Z</time>
      </trkpt>
      <trkpt lat="42.74091700091958" lon="-7.195539996027947">
        <ele>1086</ele>
        <time>2018-05-21T09:22:57Z</time>
      </trkpt>
      <trkpt lat="42.740868972614408" lon="-7.1954629663378">
        <ele>1086</ele>
        <time>2018-05-21T09:22:59Z</time>
      </trkpt>
      <trkpt lat="42.740813987329602" lon="-7.195405969396234">
        <ele>1086</ele>
        <time>2018-05-21T09:23:01Z</time>
      </trkpt>
      <trkpt lat="42.74080803617835" lon="-7.195405969396234">
        <ele>1086</ele>
        <time>2018-05-21T09:23:01Z</time>
      </trkpt>
      <trkpt lat="42.740761013701558" lon="-7.195314019918442">
        <ele>1086</ele>
        <time>2018-05-21T09:23:04Z</time>
      </trkpt>
      <trkpt lat="42.740761013701558" lon="-7.195305973291397">
        <ele>1086</ele>
        <time>2018-05-21T09:23:04Z</time>
      </trkpt>
      <trkpt lat="42.740682978183031" lon="-7.195229027420282">
        <ele>1090</ele>
        <time>2018-05-21T09:23:07Z</time>
      </trkpt>
      <trkpt lat="42.740682978183031" lon="-7.195220980793238">
        <ele>1090</ele>
        <time>2018-05-21T09:23:07Z</time>
      </trkpt>
      <trkpt lat="42.740650037303567" lon="-7.19520203769207">
        <ele>1090</ele>
        <time>2018-05-21T09:23:08Z</time>
      </trkpt>
      <trkpt lat="42.740644002333283" lon="-7.195149986073375">
        <ele>1090</ele>
        <time>2018-05-21T09:23:09Z</time>
      </trkpt>
      <trkpt lat="42.740644002333283" lon="-7.19509600661695">
        <ele>1090</ele>
        <time>2018-05-21T09:23:10Z</time>
      </trkpt>
      <trkpt lat="42.740644002333283" lon="-7.195042027160525">
        <ele>1090</ele>
        <time>2018-05-21T09:23:11Z</time>
      </trkpt>
      <trkpt lat="42.740644002333283" lon="-7.194985030218959">
        <ele>1090</ele>
        <time>2018-05-21T09:23:13Z</time>
      </trkpt>
      <trkpt lat="42.740644002333283" lon="-7.194930966943502">
        <ele>1090</ele>
        <time>2018-05-21T09:23:14Z</time>
      </trkpt>
      <trkpt lat="42.740644002333283" lon="-7.194873970001936">
        <ele>1090</ele>
        <time>2018-05-21T09:23:15Z</time>
      </trkpt>
      <trkpt lat="42.740644002333283" lon="-7.194822002202272">
        <ele>1090</ele>
        <time>2018-05-21T09:23:16Z</time>
      </trkpt>
      <trkpt lat="42.74063503369689" lon="-7.194770034402609">
        <ele>1090</ele>
        <time>2018-05-21T09:23:17Z</time>
      </trkpt>
      <trkpt lat="42.74063503369689" lon="-7.194713037461042">
        <ele>1090</ele>
        <time>2018-05-21T09:23:19Z</time>
      </trkpt>
      <trkpt lat="42.74063503369689" lon="-7.194660985842347">
        <ele>1090</ele>
        <time>2018-05-21T09:23:20Z</time>
      </trkpt>
      <trkpt lat="42.740630004554987" lon="-7.194603988900781">
        <ele>1090</ele>
        <time>2018-05-21T09:23:21Z</time>
      </trkpt>
      <trkpt lat="42.740630004554987" lon="-7.194541962817311">
        <ele>1090</ele>
        <time>2018-05-21T09:23:22Z</time>
      </trkpt>
      <trkpt lat="42.740621035918593" lon="-7.194492006674409">
        <ele>1090</ele>
        <time>2018-05-21T09:23:23Z</time>
      </trkpt>
      <trkpt lat="42.74061600677669" lon="-7.194440960884094">
        <ele>1094</ele>
        <time>2018-05-21T09:23:25Z</time>
      </trkpt>
      <trkpt lat="42.74061600677669" lon="-7.194382958114147">
        <ele>1094</ele>
        <time>2018-05-21T09:23:26Z</time>
      </trkpt>
      <trkpt lat="42.74061600677669" lon="-7.194330990314484">
        <ele>1094</ele>
        <time>2018-05-21T09:23:27Z</time>
      </trkpt>
      <trkpt lat="42.74061600677669" lon="-7.194280028343201">
        <ele>1094</ele>
        <time>2018-05-21T09:23:28Z</time>
      </trkpt>
      <trkpt lat="42.74061600677669" lon="-7.194227976724505">
        <ele>1094</ele>
        <time>2018-05-21T09:23:29Z</time>
      </trkpt>
      <trkpt lat="42.74061600677669" lon="-7.19415295869112">
        <ele>1094</ele>
        <time>2018-05-21T09:23:31Z</time>
      </trkpt>
      <trkpt lat="42.74061600677669" lon="-7.194101996719837">
        <ele>1094</ele>
        <time>2018-05-21T09:23:32Z</time>
      </trkpt>
      <trkpt lat="42.740622041746974" lon="-7.194048017263413">
        <ele>1094</ele>
        <time>2018-05-21T09:23:33Z</time>
      </trkpt>
      <trkpt lat="42.740622041746974" lon="-7.193991020321846">
        <ele>1094</ele>
        <time>2018-05-21T09:23:34Z</time>
      </trkpt>
      <trkpt lat="42.740622041746974" lon="-7.19393502920866">
        <ele>1094</ele>
        <time>2018-05-21T09:23:36Z</time>
      </trkpt>
      <trkpt lat="42.740622041746974" lon="-7.193877026438713">
        <ele>1094</ele>
        <time>2018-05-21T09:23:37Z</time>
      </trkpt>
      <trkpt lat="42.740626987069845" lon="-7.193825980648398">
        <ele>1094</ele>
        <time>2018-05-21T09:23:38Z</time>
      </trkpt>
      <trkpt lat="42.740626987069845" lon="-7.193774012848735">
        <ele>1094</ele>
        <time>2018-05-21T09:23:39Z</time>
      </trkpt>
      <trkpt lat="42.740633022040129" lon="-7.19372196123004">
        <ele>1094</ele>
        <time>2018-05-21T09:23:40Z</time>
      </trkpt>
      <trkpt lat="42.740650037303567" lon="-7.193563962355256">
        <ele>1102</ele>
        <time>2018-05-21T09:23:44Z</time>
      </trkpt>
      <trkpt lat="42.740650037303567" lon="-7.193540995940566">
        <ele>1102</ele>
        <time>2018-05-21T09:23:44Z</time>
      </trkpt>
      <trkpt lat="42.740650037303567" lon="-7.193482993170619">
        <ele>1102</ele>
        <time>2018-05-21T09:23:46Z</time>
      </trkpt>
      <trkpt lat="42.740650037303567" lon="-7.19341803342104">
        <ele>1102</ele>
        <time>2018-05-21T09:23:47Z</time>
      </trkpt>
      <trkpt lat="42.740646013990045" lon="-7.193365981802344">
        <ele>1102</ele>
        <time>2018-05-21T09:23:48Z</time>
      </trkpt>
      <trkpt lat="42.740646013990045" lon="-7.193310996517539">
        <ele>1102</ele>
        <time>2018-05-21T09:23:49Z</time>
      </trkpt>
      <trkpt lat="42.740606032311916" lon="-7.193247964605689">
        <ele>1102</ele>
        <time>2018-05-21T09:23:51Z</time>
      </trkpt>
      <trkpt lat="42.740606032311916" lon="-7.193218963220716">
        <ele>1102</ele>
        <time>2018-05-21T09:23:52Z</time>
      </trkpt>
      <trkpt lat="42.740596979856491" lon="-7.193164983764291">
        <ele>1102</ele>
        <time>2018-05-21T09:23:53Z</time>
      </trkpt>
      <trkpt lat="42.740582982078195" lon="-7.193118967115879">
        <ele>1102</ele>
        <time>2018-05-21T09:23:54Z</time>
      </trkpt>
      <trkpt lat="42.740560015663505" lon="-7.193078985437751">
        <ele>1102</ele>
        <time>2018-05-21T09:23:55Z</time>
      </trkpt>
      <trkpt lat="42.740526990965009" lon="-7.193039003759623">
        <ele>1102</ele>
        <time>2018-05-21T09:23:57Z</time>
      </trkpt>
      <trkpt lat="42.740493966266513" lon="-7.193010002374649">
        <ele>1102</ele>
        <time>2018-05-21T09:23:58Z</time>
      </trkpt>
      <trkpt lat="42.740464964881539" lon="-7.19296800903976">
        <ele>1116</ele>
        <time>2018-05-21T09:23:59Z</time>
      </trkpt>
      <trkpt lat="42.740432024002075" lon="-7.192928027361631">
        <ele>1116</ele>
        <time>2018-05-21T09:24:00Z</time>
      </trkpt>
      <trkpt lat="42.740404028445482" lon="-7.192892991006374">
        <ele>1116</ele>
        <time>2018-05-21T09:24:01Z</time>
      </trkpt>
      <trkpt lat="42.740386007353663" lon="-7.192846974357963">
        <ele>1116</ele>
        <time>2018-05-21T09:24:03Z</time>
      </trkpt>
      <trkpt lat="42.740358011797071" lon="-7.192806992679834">
        <ele>1128</ele>
        <time>2018-05-21T09:24:04Z</time>
      </trkpt>
      <trkpt lat="42.740330016240478" lon="-7.192767011001706">
        <ele>1128</ele>
        <time>2018-05-21T09:24:05Z</time>
      </trkpt>
      <trkpt lat="42.740305960178375" lon="-7.192720994353294">
        <ele>1128</ele>
        <time>2018-05-21T09:24:06Z</time>
      </trkpt>
      <trkpt lat="42.740282993763685" lon="-7.192686963826418">
        <ele>1128</ele>
        <time>2018-05-21T09:24:07Z</time>
      </trkpt>
      <trkpt lat="42.740260027348995" lon="-7.192652011290193">
        <ele>1128</ele>
        <time>2018-05-21T09:24:08Z</time>
      </trkpt>
      <trkpt lat="42.740238988772035" lon="-7.192623009905219">
        <ele>1128</ele>
        <time>2018-05-21T09:24:09Z</time>
      </trkpt>
      <trkpt lat="42.740209987387061" lon="-7.192595014348626">
        <ele>1128</ele>
        <time>2018-05-21T09:24:10Z</time>
      </trkpt>
      <trkpt lat="42.740188026800752" lon="-7.192557966336608">
        <ele>1128</ele>
        <time>2018-05-21T09:24:11Z</time>
      </trkpt>
      <trkpt lat="42.74016497656703" lon="-7.192515973001719">
        <ele>1128</ele>
        <time>2018-05-21T09:24:12Z</time>
      </trkpt>
      <trkpt lat="42.740160031244159" lon="-7.192464005202055">
        <ele>1128</ele>
        <time>2018-05-21T09:24:14Z</time>
      </trkpt>
      <trkpt lat="42.740160031244159" lon="-7.192407008260489">
        <ele>1128</ele>
        <time>2018-05-21T09:24:15Z</time>
      </trkpt>
      <trkpt lat="42.740160031244159" lon="-7.192353028804064">
        <ele>1128</ele>
        <time>2018-05-21T09:24:16Z</time>
      </trkpt>
      <trkpt lat="42.740160031244159" lon="-7.192300977185369">
        <ele>1128</ele>
        <time>2018-05-21T09:24:17Z</time>
      </trkpt>
      <trkpt lat="42.740160031244159" lon="-7.192243980243802">
        <ele>1128</ele>
        <time>2018-05-21T09:24:18Z</time>
      </trkpt>
      <trkpt lat="42.740165982395411" lon="-7.1921940241009">
        <ele>1128</ele>
        <time>2018-05-21T09:24:20Z</time>
      </trkpt>
      <trkpt lat="42.740171011537313" lon="-7.192141972482204">
        <ele>1128</ele>
        <time>2018-05-21T09:24:21Z</time>
      </trkpt>
      <trkpt lat="42.740179980173707" lon="-7.192096039652824">
        <ele>1128</ele>
        <time>2018-05-21T09:24:22Z</time>
      </trkpt>
      <trkpt lat="42.740190038457513" lon="-7.192055974155664">
        <ele>1128</ele>
        <time>2018-05-21T09:24:23Z</time>
      </trkpt>
      <trkpt lat="42.740203030407429" lon="-7.192004006356001">
        <ele>1128</ele>
        <time>2018-05-21T09:24:24Z</time>
      </trkpt>
      <trkpt lat="42.740221973508596" lon="-7.191957989707589">
        <ele>1142</ele>
        <time>2018-05-21T09:24:25Z</time>
      </trkpt>
      <trkpt lat="42.740245023742318" lon="-7.191911973059177">
        <ele>1142</ele>
        <time>2018-05-21T09:24:26Z</time>
      </trkpt>
      <trkpt lat="42.740273019298911" lon="-7.191883977502585">
        <ele>1142</ele>
        <time>2018-05-21T09:24:27Z</time>
      </trkpt>
      <trkpt lat="42.740291962400079" lon="-7.191837960854173">
        <ele>1142</ele>
        <time>2018-05-21T09:24:28Z</time>
      </trkpt>
      <trkpt lat="42.740317024290562" lon="-7.19180703163147">
        <ele>1142</ele>
        <time>2018-05-21T09:24:29Z</time>
      </trkpt>
      <trkpt lat="42.740342002362013" lon="-7.19176696613431">
        <ele>1142</ele>
        <time>2018-05-21T09:24:31Z</time>
      </trkpt>
      <trkpt lat="42.740356000140309" lon="-7.191714998334646">
        <ele>1142</ele>
        <time>2018-05-21T09:24:32Z</time>
      </trkpt>
      <trkpt lat="42.740378966554999" lon="-7.19168096780777">
        <ele>1142</ele>
        <time>2018-05-21T09:24:33Z</time>
      </trkpt>
      <trkpt lat="42.740403022617102" lon="-7.191639980301261">
        <ele>1142</ele>
        <time>2018-05-21T09:24:34Z</time>
      </trkpt>
      <trkpt lat="42.740435041487217" lon="-7.191599998623133">
        <ele>1142</ele>
        <time>2018-05-21T09:24:35Z</time>
      </trkpt>
      <trkpt lat="42.74046303704381" lon="-7.19157200306654">
        <ele>1142</ele>
        <time>2018-05-21T09:24:36Z</time>
      </trkpt>
      <trkpt lat="42.740495977923274" lon="-7.191543001681566">
        <ele>1128</ele>
        <time>2018-05-21T09:24:37Z</time>
      </trkpt>
      <trkpt lat="42.740527996793389" lon="-7.191514000296593">
        <ele>1128</ele>
        <time>2018-05-21T09:24:39Z</time>
      </trkpt>
      <trkpt lat="42.740565966814756" lon="-7.191474018618465">
        <ele>1128</ele>
        <time>2018-05-21T09:24:40Z</time>
      </trkpt>
      <trkpt lat="42.740597985684872" lon="-7.191445017233491">
        <ele>1128</ele>
        <time>2018-05-21T09:24:41Z</time>
      </trkpt>
      <trkpt lat="42.740633022040129" lon="-7.191410986706615">
        <ele>1128</ele>
        <time>2018-05-21T09:24:42Z</time>
      </trkpt>
      <trkpt lat="42.740664035081863" lon="-7.191386008635163">
        <ele>1128</ele>
        <time>2018-05-21T09:24:43Z</time>
      </trkpt>
      <trkpt lat="42.740696975961328" lon="-7.191362958401442">
        <ele>1128</ele>
        <time>2018-05-21T09:24:45Z</time>
      </trkpt>
      <trkpt lat="42.740728994831443" lon="-7.1913340408355">
        <ele>1128</ele>
        <time>2018-05-21T09:24:46Z</time>
      </trkpt>
      <trkpt lat="42.740762019529939" lon="-7.191300010308623">
        <ele>1128</ele>
        <time>2018-05-21T09:24:47Z</time>
      </trkpt>
      <trkpt lat="42.740941978991032" lon="-7.191135976463556">
        <ele>1152</ele>
        <time>2018-05-21T09:24:53Z</time>
      </trkpt>
      <trkpt lat="42.741095032542944" lon="-7.191012008115649">
        <ele>1152</ele>
        <time>2018-05-21T09:24:59Z</time>
      </trkpt>
      <trkpt lat="42.741242973133922" lon="-7.190943025052548">
        <ele>1152</ele>
        <time>2018-05-21T09:25:03Z</time>
      </trkpt>
      <trkpt lat="42.741468027234077" lon="-7.190806986764073">
        <ele>1138</ele>
        <time>2018-05-21T09:25:11Z</time>
      </trkpt>
      <trkpt lat="42.741687968373299" lon="-7.190638007596135">
        <ele>1138</ele>
        <time>2018-05-21T09:25:18Z</time>
      </trkpt>
      <trkpt lat="42.741832975298166" lon="-7.190557038411498">
        <ele>1138</ele>
        <time>2018-05-21T09:25:23Z</time>
      </trkpt>
      <trkpt lat="42.742107985541224" lon="-7.190385041758418">
        <ele>1138</ele>
        <time>2018-05-21T09:25:32Z</time>
      </trkpt>
      <trkpt lat="42.742123994976282" lon="-7.190385041758418">
        <ele>1130</ele>
        <time>2018-05-21T09:25:32Z</time>
      </trkpt>
      <trkpt lat="42.742496989667416" lon="-7.190246991813183">
        <ele>1160</ele>
        <time>2018-05-21T09:25:43Z</time>
      </trkpt>
      <trkpt lat="42.742831008508801" lon="-7.190081030130386">
        <ele>1160</ele>
        <time>2018-05-21T09:25:54Z</time>
      </trkpt>
      <trkpt lat="42.743178019300103" lon="-7.189925964921713">
        <ele>1148</ele>
        <time>2018-05-21T09:26:05Z</time>
      </trkpt>
      <trkpt lat="42.74349301122129" lon="-7.189778024330735">
        <ele>1148</ele>
        <time>2018-05-21T09:26:15Z</time>
      </trkpt>
      <trkpt lat="42.743759974837303" lon="-7.189661012962461">
        <ele>1148</ele>
        <time>2018-05-21T09:26:23Z</time>
      </trkpt>
      <trkpt lat="42.743970025330782" lon="-7.189538972452283">
        <ele>1142</ele>
        <time>2018-05-21T09:26:30Z</time>
      </trkpt>
      <trkpt lat="42.744172029197216" lon="-7.189423972740769">
        <ele>1162</ele>
        <time>2018-05-21T09:26:36Z</time>
      </trkpt>
      <trkpt lat="42.74433396756649" lon="-7.189305033534765">
        <ele>1162</ele>
        <time>2018-05-21T09:26:42Z</time>
      </trkpt>
      <trkpt lat="42.744449973106384" lon="-7.189190033823252">
        <ele>1162</ele>
        <time>2018-05-21T09:26:46Z</time>
      </trkpt>
      <trkpt lat="42.744533959776163" lon="-7.189055001363158">
        <ele>1162</ele>
        <time>2018-05-21T09:26:50Z</time>
      </trkpt>
      <trkpt lat="42.744576036930084" lon="-7.188946958631277">
        <ele>1162</ele>
        <time>2018-05-21T09:26:52Z</time>
      </trkpt>
      <trkpt lat="42.744586011394858" lon="-7.188935978338122">
        <ele>1162</ele>
        <time>2018-05-21T09:26:53Z</time>
      </trkpt>
      <trkpt lat="42.744604032486677" lon="-7.188901025801897">
        <ele>1162</ele>
        <time>2018-05-21T09:26:54Z</time>
      </trkpt>
      <trkpt lat="42.744629010558128" lon="-7.188857020810247">
        <ele>1162</ele>
        <time>2018-05-21T09:26:55Z</time>
      </trkpt>
      <trkpt lat="42.744648037478328" lon="-7.188808992505074">
        <ele>1162</ele>
        <time>2018-05-21T09:26:56Z</time>
      </trkpt>
      <trkpt lat="42.744665974751115" lon="-7.188769010826945">
        <ele>1150</ele>
        <time>2018-05-21T09:26:57Z</time>
      </trkpt>
      <trkpt lat="42.744690030813217" lon="-7.188727017492056">
        <ele>1150</ele>
        <time>2018-05-21T09:26:58Z</time>
      </trkpt>
      <trkpt lat="42.744707968086004" lon="-7.188691981136799">
        <ele>1158</ele>
        <time>2018-05-21T09:26:59Z</time>
      </trkpt>
      <trkpt lat="42.744721965864301" lon="-7.188647976145148">
        <ele>1158</ele>
        <time>2018-05-21T09:27:00Z</time>
      </trkpt>
      <trkpt lat="42.744733029976487" lon="-7.188598020002246">
        <ele>1158</ele>
        <time>2018-05-21T09:27:01Z</time>
      </trkpt>
      <trkpt lat="42.744751973077655" lon="-7.188562983646989">
        <ele>1158</ele>
        <time>2018-05-21T09:27:02Z</time>
      </trkpt>
      <trkpt lat="42.744770999997854" lon="-7.188512021675706">
        <ele>1158</ele>
        <time>2018-05-21T09:27:04Z</time>
      </trkpt>
      <trkpt lat="42.744779968634248" lon="-7.188459970057011">
        <ele>1158</ele>
        <time>2018-05-21T09:27:05Z</time>
      </trkpt>
      <trkpt lat="42.744784997776151" lon="-7.188408002257347">
        <ele>1158</ele>
        <time>2018-05-21T09:27:06Z</time>
      </trkpt>
      <trkpt lat="42.744784997776151" lon="-7.188355028629303">
        <ele>1158</ele>
        <time>2018-05-21T09:27:07Z</time>
      </trkpt>
      <trkpt lat="42.744784997776151" lon="-7.188297025859356">
        <ele>1158</ele>
        <time>2018-05-21T09:27:08Z</time>
      </trkpt>
      <trkpt lat="42.744784997776151" lon="-7.188245980069041">
        <ele>1158</ele>
        <time>2018-05-21T09:27:10Z</time>
      </trkpt>
      <trkpt lat="42.744784997776151" lon="-7.188192000612617">
        <ele>1158</ele>
        <time>2018-05-21T09:27:11Z</time>
      </trkpt>
      <trkpt lat="42.744784997776151" lon="-7.188140032812953">
        <ele>1158</ele>
        <time>2018-05-21T09:27:12Z</time>
      </trkpt>
      <trkpt lat="42.744784997776151" lon="-7.188083035871387">
        <ele>1158</ele>
        <time>2018-05-21T09:27:13Z</time>
      </trkpt>
      <trkpt lat="42.744775023311377" lon="-7.188037019222975">
        <ele>1158</ele>
        <time>2018-05-21T09:27:14Z</time>
      </trkpt>
      <trkpt lat="42.744765970855951" lon="-7.187995025888085">
        <ele>1158</ele>
        <time>2018-05-21T09:27:15Z</time>
      </trkpt>
      <trkpt lat="42.744749961420894" lon="-7.187952026724815">
        <ele>1158</ele>
        <time>2018-05-21T09:27:16Z</time>
      </trkpt>
      <trkpt lat="42.744733029976487" lon="-7.187908021733165">
        <ele>1158</ele>
        <time>2018-05-21T09:27:17Z</time>
      </trkpt>
      <trkpt lat="42.744709979742765" lon="-7.187874997034669">
        <ele>1145</ele>
        <time>2018-05-21T09:27:18Z</time>
      </trkpt>
      <trkpt lat="42.744695981964469" lon="-7.187829986214638">
        <ele>1145</ele>
        <time>2018-05-21T09:27:19Z</time>
      </trkpt>
      <trkpt lat="42.744667986407876" lon="-7.187783969566226">
        <ele>1145</ele>
        <time>2018-05-21T09:27:21Z</time>
      </trkpt>
      <trkpt lat="42.744639990851283" lon="-7.187749017030001">
        <ele>1167</ele>
        <time>2018-05-21T09:27:22Z</time>
      </trkpt>
      <trkpt lat="42.74461199529469" lon="-7.187714986503124">
        <ele>1167</ele>
        <time>2018-05-21T09:27:23Z</time>
      </trkpt>
      <trkpt lat="42.744578970596194" lon="-7.187675004824996">
        <ele>1167</ele>
        <time>2018-05-21T09:27:24Z</time>
      </trkpt>
      <trkpt lat="42.744550975039601" lon="-7.187639968469739">
        <ele>1167</ele>
        <time>2018-05-21T09:27:25Z</time>
      </trkpt>
      <trkpt lat="42.744519039988518" lon="-7.187594035640359">
        <ele>1167</ele>
        <time>2018-05-21T09:27:27Z</time>
      </trkpt>
      <trkpt lat="42.744484003633261" lon="-7.187539972364903">
        <ele>1167</ele>
        <time>2018-05-21T09:27:28Z</time>
      </trkpt>
      <trkpt lat="42.74439599364996" lon="-7.187497979030013">
        <ele>1167</ele>
        <time>2018-05-21T09:27:31Z</time>
      </trkpt>
      <trkpt lat="42.744233971461654" lon="-7.18740401789546">
        <ele>1167</ele>
        <time>2018-05-21T09:27:36Z</time>
      </trkpt>
      <trkpt lat="42.744081001728773" lon="-7.187272002920508">
        <ele>1167</ele>
        <time>2018-05-21T09:27:42Z</time>
      </trkpt>
      <trkpt lat="42.743927026167512" lon="-7.187104029580951">
        <ele>1167</ele>
        <time>2018-05-21T09:27:48Z</time>
      </trkpt>
      <trkpt lat="42.743855025619268" lon="-7.187007972970605">
        <ele>1151</ele>
        <time>2018-05-21T09:27:51Z</time>
      </trkpt>
      <trkpt lat="42.74383700452745" lon="-7.186965979635716">
        <ele>1151</ele>
        <time>2018-05-21T09:27:52Z</time>
      </trkpt>
      <trkpt lat="42.743813032284379" lon="-7.186918035149574">
        <ele>1151</ele>
        <time>2018-05-21T09:27:53Z</time>
      </trkpt>
      <trkpt lat="42.743792999535799" lon="-7.186861960217357">
        <ele>1151</ele>
        <time>2018-05-21T09:27:55Z</time>
      </trkpt>
      <trkpt lat="42.743784030899405" lon="-7.186809992417693">
        <ele>1151</ele>
        <time>2018-05-21T09:27:56Z</time>
      </trkpt>
      <trkpt lat="42.7437739726156" lon="-7.186763975769281">
        <ele>1151</ele>
        <time>2018-05-21T09:27:57Z</time>
      </trkpt>
      <trkpt lat="42.743759974837303" lon="-7.186701027676463">
        <ele>1199</ele>
        <time>2018-05-21T09:27:58Z</time>
      </trkpt>
      <trkpt lat="42.743756035342813" lon="-7.186644030734897">
        <ele>1199</ele>
        <time>2018-05-21T09:28:00Z</time>
      </trkpt>
      <trkpt lat="42.74375100620091" lon="-7.186591979116201">
        <ele>1199</ele>
        <time>2018-05-21T09:28:01Z</time>
      </trkpt>
      <trkpt lat="42.74375100620091" lon="-7.186541017144918">
        <ele>1199</ele>
        <time>2018-05-21T09:28:02Z</time>
      </trkpt>
      <trkpt lat="42.74375100620091" lon="-7.186472034081817">
        <ele>1199</ele>
        <time>2018-05-21T09:28:03Z</time>
      </trkpt>
      <trkpt lat="42.74375100620091" lon="-7.18641403131187">
        <ele>1199</ele>
        <time>2018-05-21T09:28:05Z</time>
      </trkpt>
      <trkpt lat="42.74375100620091" lon="-7.186357034370303">
        <ele>1199</ele>
        <time>2018-05-21T09:28:06Z</time>
      </trkpt>
      <trkpt lat="42.74375100620091" lon="-7.186294002458453">
        <ele>1199</ele>
        <time>2018-05-21T09:28:07Z</time>
      </trkpt>
      <trkpt lat="42.74375100620091" lon="-7.186225019395351">
        <ele>1196</ele>
        <time>2018-05-21T09:28:09Z</time>
      </trkpt>
      <trkpt lat="42.74375100620091" lon="-7.186172967776656">
        <ele>1196</ele>
        <time>2018-05-21T09:28:10Z</time>
      </trkpt>
      <trkpt lat="42.74375100620091" lon="-7.186114965006709">
        <ele>1196</ele>
        <time>2018-05-21T09:28:11Z</time>
      </trkpt>
      <trkpt lat="42.743756035342813" lon="-7.186057968065143">
        <ele>1196</ele>
        <time>2018-05-21T09:28:12Z</time>
      </trkpt>
      <trkpt lat="42.743756035342813" lon="-7.186006000265479">
        <ele>1196</ele>
        <time>2018-05-21T09:28:14Z</time>
      </trkpt>
      <trkpt lat="42.743765003979206" lon="-7.185955038294196">
        <ele>1146</ele>
        <time>2018-05-21T09:28:15Z</time>
      </trkpt>
      <trkpt lat="42.743770033121109" lon="-7.185902986675501">
        <ele>1146</ele>
        <time>2018-05-21T09:28:16Z</time>
      </trkpt>
      <trkpt lat="42.743779001757503" lon="-7.185840038582683">
        <ele>1146</ele>
        <time>2018-05-21T09:28:17Z</time>
      </trkpt>
      <trkpt lat="42.743792999535799" lon="-7.185770971700549">
        <ele>1146</ele>
        <time>2018-05-21T09:28:19Z</time>
      </trkpt>
      <trkpt lat="42.743806997314095" lon="-7.185719003900886">
        <ele>1146</ele>
        <time>2018-05-21T09:28:20Z</time>
      </trkpt>
      <trkpt lat="42.743827030062675" lon="-7.185659995302558">
        <ele>1146</ele>
        <time>2018-05-21T09:28:22Z</time>
      </trkpt>
      <trkpt lat="42.743855025619268" lon="-7.18551398254931">
        <ele>1146</ele>
        <time>2018-05-21T09:28:25Z</time>
      </trkpt>
      <trkpt lat="42.743949992582202" lon="-7.185292029753327">
        <ele>1146</ele>
        <time>2018-05-21T09:28:31Z</time>
      </trkpt>
      <trkpt lat="42.744026016443968" lon="-7.18510402366519">
        <ele>1165</ele>
        <time>2018-05-21T09:28:35Z</time>
      </trkpt>
      <trkpt lat="42.744126012548804" lon="-7.184908976778388">
        <ele>1165</ele>
        <time>2018-05-21T09:28:40Z</time>
      </trkpt>
      <trkpt lat="42.744192983955145" lon="-7.184744020923972">
        <ele>1165</ele>
        <time>2018-05-21T09:28:45Z</time>
      </trkpt>
      <trkpt lat="42.74420203641057" lon="-7.184704039245844">
        <ele>1165</ele>
        <time>2018-05-21T09:28:45Z</time>
      </trkpt>
      <trkpt lat="42.744220979511738" lon="-7.184646036475897">
        <ele>1165</ele>
        <time>2018-05-21T09:28:47Z</time>
      </trkpt>
      <trkpt lat="42.744240006431937" lon="-7.184605970978737">
        <ele>1165</ele>
        <time>2018-05-21T09:28:48Z</time>
      </trkpt>
      <trkpt lat="42.744254004210234" lon="-7.184560038149357">
        <ele>1165</ele>
        <time>2018-05-21T09:28:49Z</time>
      </trkpt>
      <trkpt lat="42.744272025302052" lon="-7.184519972652197">
        <ele>1165</ele>
        <time>2018-05-21T09:28:50Z</time>
      </trkpt>
      <trkpt lat="42.744286023080349" lon="-7.184474039822817">
        <ele>1165</ele>
        <time>2018-05-21T09:28:51Z</time>
      </trkpt>
      <trkpt lat="42.74429096840322" lon="-7.184421988204122">
        <ele>1170</ele>
        <time>2018-05-21T09:28:52Z</time>
      </trkpt>
      <trkpt lat="42.74429096840322" lon="-7.184364991262555">
        <ele>1170</ele>
        <time>2018-05-21T09:28:53Z</time>
      </trkpt>
      <trkpt lat="42.74429096840322" lon="-7.184306988492608">
        <ele>1170</ele>
        <time>2018-05-21T09:28:55Z</time>
      </trkpt>
      <trkpt lat="42.744286023080349" lon="-7.184254014864564">
        <ele>1170</ele>
        <time>2018-05-21T09:28:56Z</time>
      </trkpt>
      <trkpt lat="42.744276970624924" lon="-7.184207998216152">
        <ele>1170</ele>
        <time>2018-05-21T09:28:57Z</time>
      </trkpt>
      <trkpt lat="42.744262972846627" lon="-7.184156030416489">
        <ele>1170</ele>
        <time>2018-05-21T09:28:58Z</time>
      </trkpt>
      <trkpt lat="42.74424402974546" lon="-7.184110013768077">
        <ele>1170</ele>
        <time>2018-05-21T09:28:59Z</time>
      </trkpt>
      <trkpt lat="42.744230031967163" lon="-7.184063997119665">
        <ele>1170</ele>
        <time>2018-05-21T09:29:00Z</time>
      </trkpt>
      <trkpt lat="42.74420203641057" lon="-7.184007000178099">
        <ele>1170</ele>
        <time>2018-05-21T09:29:02Z</time>
      </trkpt>
      <trkpt lat="42.744192983955145" lon="-7.183960983529687">
        <ele>1170</ele>
        <time>2018-05-21T09:29:03Z</time>
      </trkpt>
      <trkpt lat="42.744170017540455" lon="-7.183926030993462">
        <ele>1170</ele>
        <time>2018-05-21T09:29:04Z</time>
      </trkpt>
      <trkpt lat="42.744148978963494" lon="-7.183884037658572">
        <ele>1170</ele>
        <time>2018-05-21T09:29:05Z</time>
      </trkpt>
      <trkpt lat="42.744116960093379" lon="-7.183855036273599">
        <ele>1170</ele>
        <time>2018-05-21T09:29:06Z</time>
      </trkpt>
      <trkpt lat="42.744079995900393" lon="-7.183821005746722">
        <ele>1170</ele>
        <time>2018-05-21T09:29:08Z</time>
      </trkpt>
      <trkpt lat="42.7440520003438" lon="-7.183781024068594">
        <ele>1170</ele>
        <time>2018-05-21T09:29:09Z</time>
      </trkpt>
      <trkpt lat="42.744028028100729" lon="-7.183745987713337">
        <ele>1170</ele>
        <time>2018-05-21T09:29:10Z</time>
      </trkpt>
      <trkpt lat="42.743996009230614" lon="-7.183716986328363">
        <ele>1170</ele>
        <time>2018-05-21T09:29:11Z</time>
      </trkpt>
      <trkpt lat="42.743968013674021" lon="-7.183683039620519">
        <ele>1170</ele>
        <time>2018-05-21T09:29:12Z</time>
      </trkpt>
      <trkpt lat="42.74394697509706" lon="-7.183649009093642">
        <ele>1170</ele>
        <time>2018-05-21T09:29:13Z</time>
      </trkpt>
      <trkpt lat="42.743929037824273" lon="-7.183597041293979">
        <ele>1160</ele>
        <time>2018-05-21T09:29:14Z</time>
      </trkpt>
      <trkpt lat="42.743904981762171" lon="-7.183544989675283">
        <ele>1160</ele>
        <time>2018-05-21T09:29:16Z</time>
      </trkpt>
      <trkpt lat="42.743886960670352" lon="-7.18349302187562">
        <ele>1160</ele>
        <time>2018-05-21T09:29:17Z</time>
      </trkpt>
      <trkpt lat="42.743868017569184" lon="-7.183441976085305">
        <ele>1160</ele>
        <time>2018-05-21T09:29:18Z</time>
      </trkpt>
      <trkpt lat="42.743844967335463" lon="-7.183379027992487">
        <ele>1160</ele>
        <time>2018-05-21T09:29:20Z</time>
      </trkpt>
      <trkpt lat="42.743830969557166" lon="-7.183301998302341">
        <ele>1160</ele>
        <time>2018-05-21T09:29:21Z</time>
      </trkpt>
      <trkpt lat="42.743797022849321" lon="-7.183167971670628">
        <ele>1160</ele>
        <time>2018-05-21T09:29:25Z</time>
      </trkpt>
      <trkpt lat="42.743754023686051" lon="-7.182854991406202">
        <ele>1191</ele>
        <time>2018-05-21T09:29:31Z</time>
      </trkpt>
      <trkpt lat="42.743715969845653" lon="-7.182660028338432">
        <ele>1190</ele>
        <time>2018-05-21T09:29:36Z</time>
      </trkpt>
      <trkpt lat="42.743641035631299" lon="-7.182256020605564">
        <ele>1190</ele>
        <time>2018-05-21T09:29:45Z</time>
      </trkpt>
      <trkpt lat="42.743637012317777" lon="-7.18222601339221">
        <ele>1190</ele>
        <time>2018-05-21T09:29:46Z</time>
      </trkpt>
      <trkpt lat="42.743627037853003" lon="-7.182168010622263">
        <ele>1190</ele>
        <time>2018-05-21T09:29:47Z</time>
      </trkpt>
      <trkpt lat="42.74362301453948" lon="-7.182111013680697">
        <ele>1190</ele>
        <time>2018-05-21T09:29:48Z</time>
      </trkpt>
      <trkpt lat="42.74362301453948" lon="-7.182057034224272">
        <ele>1190</ele>
        <time>2018-05-21T09:29:49Z</time>
      </trkpt>
      <trkpt lat="42.74362301453948" lon="-7.182000037282705">
        <ele>1190</ele>
        <time>2018-05-21T09:29:51Z</time>
      </trkpt>
      <trkpt lat="42.74362301453948" lon="-7.181942034512758">
        <ele>1196</ele>
        <time>2018-05-21T09:29:52Z</time>
      </trkpt>
      <trkpt lat="42.743631983175874" lon="-7.181885037571192">
        <ele>1196</ele>
        <time>2018-05-21T09:29:53Z</time>
      </trkpt>
      <trkpt lat="42.743631983175874" lon="-7.181815970689058">
        <ele>1196</ele>
        <time>2018-05-21T09:29:55Z</time>
      </trkpt>
      <trkpt lat="42.743637012317777" lon="-7.181764002889395">
        <ele>1196</ele>
        <time>2018-05-21T09:29:56Z</time>
      </trkpt>
      <trkpt lat="42.743641035631299" lon="-7.181707005947828">
        <ele>1196</ele>
        <time>2018-05-21T09:29:57Z</time>
      </trkpt>
      <trkpt lat="42.743655033409595" lon="-7.181655038148165">
        <ele>1196</ele>
        <time>2018-05-21T09:29:58Z</time>
      </trkpt>
      <trkpt lat="42.743673976510763" lon="-7.181621007621288">
        <ele>1196</ele>
        <time>2018-05-21T09:29:59Z</time>
      </trkpt>
      <trkpt lat="42.743699038401246" lon="-7.18158002011478">
        <ele>1196</ele>
        <time>2018-05-21T09:30:00Z</time>
      </trkpt>
      <trkpt lat="42.743741031736135" lon="-7.181415986269712">
        <ele>1196</ele>
        <time>2018-05-21T09:30:04Z</time>
      </trkpt>
      <trkpt lat="42.743812026455998" lon="-7.181178024038672">
        <ele>1167</ele>
        <time>2018-05-21T09:30:10Z</time>
      </trkpt>
      <trkpt lat="42.743858965113759" lon="-7.181008039042354">
        <ele>1175</ele>
        <time>2018-05-21T09:30:14Z</time>
      </trkpt>
      <trkpt lat="42.743872962892056" lon="-7.180962022393942">
        <ele>1175</ele>
        <time>2018-05-21T09:30:15Z</time>
      </trkpt>
      <trkpt lat="42.743890983983874" lon="-7.18089303933084">
        <ele>1175</ele>
        <time>2018-05-21T09:30:16Z</time>
      </trkpt>
      <trkpt lat="42.743904981762171" lon="-7.18083000741899">
        <ele>1175</ele>
        <time>2018-05-21T09:30:18Z</time>
      </trkpt>
      <trkpt lat="42.74392400868237" lon="-7.180782984942198">
        <ele>1175</ele>
        <time>2018-05-21T09:30:19Z</time>
      </trkpt>
      <trkpt lat="42.743932977318764" lon="-7.180732022970915">
        <ele>1175</ele>
        <time>2018-05-21T09:30:20Z</time>
      </trkpt>
      <trkpt lat="42.743952004238963" lon="-7.180690029636025">
        <ele>1175</ele>
        <time>2018-05-21T09:30:21Z</time>
      </trkpt>
      <trkpt lat="42.743957033380866" lon="-7.180632026866078">
        <ele>1175</ele>
        <time>2018-05-21T09:30:22Z</time>
      </trkpt>
      <trkpt lat="42.74396600201726" lon="-7.180586010217667">
        <ele>1175</ele>
        <time>2018-05-21T09:30:23Z</time>
      </trkpt>
      <trkpt lat="42.743971031159163" lon="-7.180517027154565">
        <ele>1175</ele>
        <time>2018-05-21T09:30:25Z</time>
      </trkpt>
      <trkpt lat="42.743985028937459" lon="-7.18044301494956">
        <ele>1175</ele>
        <time>2018-05-21T09:30:26Z</time>
      </trkpt>
      <trkpt lat="42.743999026715755" lon="-7.180372020229697">
        <ele>1175</ele>
        <time>2018-05-21T09:30:28Z</time>
      </trkpt>
      <trkpt lat="42.744007995352149" lon="-7.18031401745975">
        <ele>1179</ele>
        <time>2018-05-21T09:30:29Z</time>
      </trkpt>
      <trkpt lat="42.744016963988543" lon="-7.1802509855479">
        <ele>1179</ele>
        <time>2018-05-21T09:30:31Z</time>
      </trkpt>
      <trkpt lat="42.744021993130445" lon="-7.180193988606334">
        <ele>1179</ele>
        <time>2018-05-21T09:30:32Z</time>
      </trkpt>
      <trkpt lat="42.744027022272348" lon="-7.180131040513516">
        <ele>1179</ele>
        <time>2018-05-21T09:30:33Z</time>
      </trkpt>
      <trkpt lat="42.744030961766839" lon="-7.180073037743568">
        <ele>1179</ele>
        <time>2018-05-21T09:30:35Z</time>
      </trkpt>
      <trkpt lat="42.744041020050645" lon="-7.180010005831718">
        <ele>1179</ele>
        <time>2018-05-21T09:30:36Z</time>
      </trkpt>
      <trkpt lat="42.744055017828941" lon="-7.179958038032055">
        <ele>1179</ele>
        <time>2018-05-21T09:30:37Z</time>
      </trkpt>
      <trkpt lat="42.744059041142464" lon="-7.179895006120205">
        <ele>1179</ele>
        <time>2018-05-21T09:30:39Z</time>
      </trkpt>
      <trkpt lat="42.744063986465335" lon="-7.179814958944917">
        <ele>1179</ele>
        <time>2018-05-21T09:30:40Z</time>
      </trkpt>
      <trkpt lat="42.744083013385534" lon="-7.179745975881815">
        <ele>1179</ele>
        <time>2018-05-21T09:30:42Z</time>
      </trkpt>
      <trkpt lat="42.744091982021928" lon="-7.179694008082151">
        <ele>1179</ele>
        <time>2018-05-21T09:30:43Z</time>
      </trkpt>
      <trkpt lat="42.744101034477353" lon="-7.179630976170301">
        <ele>1179</ele>
        <time>2018-05-21T09:30:45Z</time>
      </trkpt>
      <trkpt lat="42.744111008942127" lon="-7.179579008370638">
        <ele>1179</ele>
        <time>2018-05-21T09:30:46Z</time>
      </trkpt>
      <trkpt lat="42.744119977578521" lon="-7.179532991722226">
        <ele>1179</ele>
        <time>2018-05-21T09:30:47Z</time>
      </trkpt>
      <trkpt lat="42.74413900449872" lon="-7.179482029750943">
        <ele>1185</ele>
        <time>2018-05-21T09:30:48Z</time>
      </trkpt>
      <trkpt lat="42.744151996448636" lon="-7.179429978132248">
        <ele>1185</ele>
        <time>2018-05-21T09:30:49Z</time>
      </trkpt>
      <trkpt lat="42.744165994226933" lon="-7.179378010332584">
        <ele>1185</ele>
        <time>2018-05-21T09:30:50Z</time>
      </trkpt>
      <trkpt lat="42.744171023368835" lon="-7.179321013391018">
        <ele>1185</ele>
        <time>2018-05-21T09:30:52Z</time>
      </trkpt>
      <trkpt lat="42.744179992005229" lon="-7.179268961772323">
        <ele>1185</ele>
        <time>2018-05-21T09:30:53Z</time>
      </trkpt>
      <trkpt lat="42.744189966470003" lon="-7.179216993972659">
        <ele>1185</ele>
        <time>2018-05-21T09:30:54Z</time>
      </trkpt>
      <trkpt lat="42.744193989783525" lon="-7.179148010909557">
        <ele>1185</ele>
        <time>2018-05-21T09:30:55Z</time>
      </trkpt>
      <trkpt lat="42.744207987561822" lon="-7.179091013967991">
        <ele>1185</ele>
        <time>2018-05-21T09:30:57Z</time>
      </trkpt>
      <trkpt lat="42.744213016703725" lon="-7.179038962349296">
        <ele>1185</ele>
        <time>2018-05-21T09:30:58Z</time>
      </trkpt>
      <trkpt lat="42.744221985340118" lon="-7.178981965407729">
        <ele>1185</ele>
        <time>2018-05-21T09:30:59Z</time>
      </trkpt>
      <trkpt lat="42.744235983118415" lon="-7.178941983729601">
        <ele>1185</ele>
        <time>2018-05-21T09:31:00Z</time>
      </trkpt>
      <trkpt lat="42.744249980896711" lon="-7.178898984566331">
        <ele>1185</ele>
        <time>2018-05-21T09:31:01Z</time>
      </trkpt>
      <trkpt lat="42.744263978675008" lon="-7.178859002888203">
        <ele>1185</ele>
        <time>2018-05-21T09:31:02Z</time>
      </trkpt>
      <trkpt lat="42.744269007816911" lon="-7.178799994289875">
        <ele>1185</ele>
        <time>2018-05-21T09:31:03Z</time>
      </trkpt>
      <trkpt lat="42.744269007816911" lon="-7.178736962378025">
        <ele>1185</ele>
        <time>2018-05-21T09:31:05Z</time>
      </trkpt>
      <trkpt lat="42.744269007816911" lon="-7.178684994578362">
        <ele>1186</ele>
        <time>2018-05-21T09:31:06Z</time>
      </trkpt>
      <trkpt lat="42.744269007816911" lon="-7.178626991808415">
        <ele>1186</ele>
        <time>2018-05-21T09:31:07Z</time>
      </trkpt>
      <trkpt lat="42.744269007816911" lon="-7.178576029837132">
        <ele>1186</ele>
        <time>2018-05-21T09:31:08Z</time>
      </trkpt>
      <trkpt lat="42.744269007816911" lon="-7.178523978218436">
        <ele>1186</ele>
        <time>2018-05-21T09:31:09Z</time>
      </trkpt>
      <trkpt lat="42.744269007816911" lon="-7.178469998762012">
        <ele>1186</ele>
        <time>2018-05-21T09:31:11Z</time>
      </trkpt>
      <trkpt lat="42.744260039180517" lon="-7.178415013477206">
        <ele>1186</ele>
        <time>2018-05-21T09:31:12Z</time>
      </trkpt>
      <trkpt lat="42.744246041402221" lon="-7.178376037627459">
        <ele>1186</ele>
        <time>2018-05-21T09:31:13Z</time>
      </trkpt>
      <trkpt lat="42.744220979511738" lon="-7.178330020979047">
        <ele>1186</ele>
        <time>2018-05-21T09:31:14Z</time>
      </trkpt>
      <trkpt lat="42.744188038632274" lon="-7.178310994058847">
        <ele>1186</ele>
        <time>2018-05-21T09:31:15Z</time>
      </trkpt>
      <trkpt lat="42.744156019762158" lon="-7.178281992673874">
        <ele>1186</ele>
        <time>2018-05-21T09:31:16Z</time>
      </trkpt>
      <trkpt lat="42.744128024205565" lon="-7.178259026259184">
        <ele>1186</ele>
        <time>2018-05-21T09:31:17Z</time>
      </trkpt>
      <trkpt lat="42.74409499950707" lon="-7.178239999338985">
        <ele>1186</ele>
        <time>2018-05-21T09:31:18Z</time>
      </trkpt>
      <trkpt lat="42.74405300617218" lon="-7.178222984075546">
        <ele>1186</ele>
        <time>2018-05-21T09:31:19Z</time>
      </trkpt>
      <trkpt lat="42.744015036150813" lon="-7.178193982690573">
        <ele>1186</ele>
        <time>2018-05-21T09:31:21Z</time>
      </trkpt>
      <trkpt lat="42.743981005623937" lon="-7.178164981305599">
        <ele>1186</ele>
        <time>2018-05-21T09:31:22Z</time>
      </trkpt>
      <trkpt lat="42.743806997314095" lon="-7.178078982979059">
        <ele>1186</ele>
        <time>2018-05-21T09:31:27Z</time>
      </trkpt>
      <trkpt lat="42.743684034794569" lon="-7.178007988259196">
        <ele>1194</ele>
        <time>2018-05-21T09:31:31Z</time>
      </trkpt>
      <trkpt lat="42.743561994284391" lon="-7.177985021844506">
        <ele>1194</ele>
        <time>2018-05-21T09:31:35Z</time>
      </trkpt>
      <trkpt lat="42.743432996794581" lon="-7.177985021844506">
        <ele>1194</ele>
        <time>2018-05-21T09:31:39Z</time>
      </trkpt>
      <trkpt lat="42.743310034275055" lon="-7.177963983267546">
        <ele>1194</ele>
        <time>2018-05-21T09:31:43Z</time>
      </trkpt>
      <trkpt lat="42.743297964334488" lon="-7.177963983267546">
        <ele>1194</ele>
        <time>2018-05-21T09:31:43Z</time>
      </trkpt>
      <trkpt lat="42.743256976827979" lon="-7.177980998530984">
        <ele>1194</ele>
        <time>2018-05-21T09:31:44Z</time>
      </trkpt>
      <trkpt lat="42.743231998756528" lon="-7.178009999915958">
        <ele>1194</ele>
        <time>2018-05-21T09:31:45Z</time>
      </trkpt>
      <trkpt lat="42.743195034563541" lon="-7.178016034886241">
        <ele>1194</ele>
        <time>2018-05-21T09:31:46Z</time>
      </trkpt>
      <trkpt lat="42.743153041228652" lon="-7.178020980209112">
        <ele>1194</ele>
        <time>2018-05-21T09:31:48Z</time>
      </trkpt>
      <trkpt lat="42.74310601875186" lon="-7.178020980209112">
        <ele>1194</ele>
        <time>2018-05-21T09:31:49Z</time>
      </trkpt>
      <trkpt lat="42.74306402541697" lon="-7.178020980209112">
        <ele>1194</ele>
        <time>2018-05-21T09:31:50Z</time>
      </trkpt>
      <trkpt lat="42.743031000718474" lon="-7.178009999915958">
        <ele>1194</ele>
        <time>2018-05-21T09:31:51Z</time>
      </trkpt>
      <trkpt lat="42.742993030697107" lon="-7.178003964945674">
        <ele>1194</ele>
        <time>2018-05-21T09:31:52Z</time>
      </trkpt>
      <trkpt lat="42.742953971028328" lon="-7.178003964945674">
        <ele>1194</ele>
        <time>2018-05-21T09:31:54Z</time>
      </trkpt>
      <trkpt lat="42.742825979366899" lon="-7.177998013794422">
        <ele>1208</ele>
        <time>2018-05-21T09:31:57Z</time>
      </trkpt>
      <trkpt lat="42.742680972442031" lon="-7.178003964945674">
        <ele>1208</ele>
        <time>2018-05-21T09:32:02Z</time>
      </trkpt>
      <trkpt lat="42.742525991052389" lon="-7.177992984652519">
        <ele>1208</ele>
        <time>2018-05-21T09:32:07Z</time>
      </trkpt>
      <trkpt lat="42.742324993014336" lon="-7.177959959954023">
        <ele>1208</ele>
        <time>2018-05-21T09:32:13Z</time>
      </trkpt>
      <trkpt lat="42.742188032716513" lon="-7.17793095856905">
        <ele>1208</ele>
        <time>2018-05-21T09:32:17Z</time>
      </trkpt>
      <trkpt lat="42.742147967219353" lon="-7.177926013246179">
        <ele>1208</ele>
        <time>2018-05-21T09:32:18Z</time>
      </trkpt>
      <trkpt lat="42.742115026339889" lon="-7.177914027124643">
        <ele>1227</ele>
        <time>2018-05-21T09:32:19Z</time>
      </trkpt>
      <trkpt lat="42.742085019126534" lon="-7.17788603156805">
        <ele>1227</ele>
        <time>2018-05-21T09:32:20Z</time>
      </trkpt>
      <trkpt lat="42.742051994428039" lon="-7.177857030183077">
        <ele>1217</ele>
        <time>2018-05-21T09:32:21Z</time>
      </trkpt>
      <trkpt lat="42.742019975557923" lon="-7.177816964685917">
        <ele>1217</ele>
        <time>2018-05-21T09:32:23Z</time>
      </trkpt>
      <trkpt lat="42.741997009143233" lon="-7.177782012149692">
        <ele>1217</ele>
        <time>2018-05-21T09:32:24Z</time>
      </trkpt>
      <trkpt lat="42.741961972787976" lon="-7.17775896191597">
        <ele>1217</ele>
        <time>2018-05-21T09:32:25Z</time>
      </trkpt>
      <trkpt lat="42.741834986954927" lon="-7.177601968869567">
        <ele>1217</ele>
        <time>2018-05-21T09:32:30Z</time>
      </trkpt>
      <trkpt lat="42.741706995293498" lon="-7.177402982488275">
        <ele>1217</ele>
        <time>2018-05-21T09:32:36Z</time>
      </trkpt>
      <trkpt lat="42.741566011682153" lon="-7.177273984998465">
        <ele>1217</ele>
        <time>2018-05-21T09:32:41Z</time>
      </trkpt>
      <trkpt lat="42.741365013644099" lon="-7.176986988633871">
        <ele>1206</ele>
        <time>2018-05-21T09:32:49Z</time>
      </trkpt>
      <trkpt lat="42.741212965920568" lon="-7.176795965060592">
        <ele>1231</ele>
        <time>2018-05-21T09:32:55Z</time>
      </trkpt>
      <trkpt lat="42.741084974259138" lon="-7.17657501809299">
        <ele>1231</ele>
        <time>2018-05-21T09:33:01Z</time>
      </trkpt>
      <trkpt lat="42.740965029224753" lon="-7.176392963156104">
        <ele>1231</ele>
        <time>2018-05-21T09:33:07Z</time>
      </trkpt>
      <trkpt lat="42.740854974836111" lon="-7.176230018958449">
        <ele>1219</ele>
        <time>2018-05-21T09:33:12Z</time>
      </trkpt>
      <trkpt lat="42.740836031734943" lon="-7.176213003695011">
        <ele>1219</ele>
        <time>2018-05-21T09:33:12Z</time>
      </trkpt>
      <trkpt lat="42.740798983722925" lon="-7.176190037280321">
        <ele>1219</ele>
        <time>2018-05-21T09:33:13Z</time>
      </trkpt>
      <trkpt lat="42.740765959024429" lon="-7.176161035895348">
        <ele>1219</ele>
        <time>2018-05-21T09:33:15Z</time>
      </trkpt>
      <trkpt lat="42.740732012316585" lon="-7.176136979833245">
        <ele>1219</ele>
        <time>2018-05-21T09:33:16Z</time>
      </trkpt>
      <trkpt lat="42.740704016759992" lon="-7.176095992326737">
        <ele>1219</ele>
        <time>2018-05-21T09:33:17Z</time>
      </trkpt>
      <trkpt lat="42.74067903868854" lon="-7.176060033962131">
        <ele>1219</ele>
        <time>2018-05-21T09:33:18Z</time>
      </trkpt>
      <trkpt lat="42.74057300761342" lon="-7.175955008715391">
        <ele>1219</ele>
        <time>2018-05-21T09:33:22Z</time>
      </trkpt>
      <trkpt lat="42.74044300429523" lon="-7.175819976255298">
        <ele>1239</ele>
        <time>2018-05-21T09:33:27Z</time>
      </trkpt>
      <trkpt lat="42.740266984328628" lon="-7.175664994865656">
        <ele>1239</ele>
        <time>2018-05-21T09:33:33Z</time>
      </trkpt>
      <trkpt lat="42.740064980462193" lon="-7.175440024584532">
        <ele>1239</ele>
        <time>2018-05-21T09:33:41Z</time>
      </trkpt>
      <trkpt lat="42.739983005449176" lon="-7.175295017659664">
        <ele>1239</ele>
        <time>2018-05-21T09:33:45Z</time>
      </trkpt>
      <trkpt lat="42.739864988252521" lon="-7.175173982977867">
        <ele>1225</ele>
        <time>2018-05-21T09:33:49Z</time>
      </trkpt>
      <trkpt lat="42.739800028502941" lon="-7.175088990479708">
        <ele>1225</ele>
        <time>2018-05-21T09:33:52Z</time>
      </trkpt>
      <trkpt lat="42.739619985222816" lon="-7.17500701546669">
        <ele>1239</ele>
        <time>2018-05-21T09:33:57Z</time>
      </trkpt>
      <trkpt lat="42.739503979682922" lon="-7.174950018525124">
        <ele>1239</ele>
        <time>2018-05-21T09:34:01Z</time>
      </trkpt>
      <trkpt lat="42.739480007439852" lon="-7.174950018525124">
        <ele>1239</ele>
        <time>2018-05-21T09:34:02Z</time>
      </trkpt>
      <trkpt lat="42.739430973306298" lon="-7.174925040453672">
        <ele>1239</ele>
        <time>2018-05-21T09:34:03Z</time>
      </trkpt>
      <trkpt lat="42.739397026598454" lon="-7.174892015755177">
        <ele>1239</ele>
        <time>2018-05-21T09:34:04Z</time>
      </trkpt>
      <trkpt lat="42.739361990243196" lon="-7.174858991056681">
        <ele>1239</ele>
        <time>2018-05-21T09:34:06Z</time>
      </trkpt>
      <trkpt lat="42.739335000514984" lon="-7.174793025478721">
        <ele>1239</ele>
        <time>2018-05-21T09:34:07Z</time>
      </trkpt>
      <trkpt lat="42.739303987473249" lon="-7.174754971638322">
        <ele>1239</ele>
        <time>2018-05-21T09:34:09Z</time>
      </trkpt>
      <trkpt lat="42.739260988309979" lon="-7.174722030758858">
        <ele>1239</ele>
        <time>2018-05-21T09:34:10Z</time>
      </trkpt>
      <trkpt lat="42.739187981933355" lon="-7.174680959433317">
        <ele>1239</ele>
        <time>2018-05-21T09:34:12Z</time>
      </trkpt>
      <trkpt lat="42.739058984443545" lon="-7.174538969993591">
        <ele>1239</ele>
        <time>2018-05-21T09:34:17Z</time>
      </trkpt>
      <trkpt lat="42.738879024982452" lon="-7.174368984997273">
        <ele>1226</ele>
        <time>2018-05-21T09:34:24Z</time>
      </trkpt>
      <trkpt lat="42.738721026107669" lon="-7.17427896335721">
        <ele>1235</ele>
        <time>2018-05-21T09:34:29Z</time>
      </trkpt>
      <trkpt lat="42.738578030839562" lon="-7.174264965578914">
        <ele>1235</ele>
        <time>2018-05-21T09:34:33Z</time>
      </trkpt>
      <trkpt lat="42.738408967852592" lon="-7.174300001934171">
        <ele>1235</ele>
        <time>2018-05-21T09:34:38Z</time>
      </trkpt>
      <trkpt lat="42.738262033089995" lon="-7.174310982227325">
        <ele>1235</ele>
        <time>2018-05-21T09:34:42Z</time>
      </trkpt>
      <trkpt lat="42.738071009516716" lon="-7.174202017486095">
        <ele>1235</ele>
        <time>2018-05-21T09:34:49Z</time>
      </trkpt>
      <trkpt lat="42.737840004265308" lon="-7.174076037481427">
        <ele>1241</ele>
        <time>2018-05-21T09:34:56Z</time>
      </trkpt>
      <trkpt lat="42.737531969323754" lon="-7.173889959231019">
        <ele>1241</ele>
        <time>2018-05-21T09:35:06Z</time>
      </trkpt>
      <trkpt lat="42.737374976277351" lon="-7.173791974782944">
        <ele>1241</ele>
        <time>2018-05-21T09:35:11Z</time>
      </trkpt>
      <trkpt lat="42.737258970737457" lon="-7.173682004213333">
        <ele>1241</ele>
        <time>2018-05-21T09:35:15Z</time>
      </trkpt>
      <trkpt lat="42.737223012372851" lon="-7.173644034191966">
        <ele>1241</ele>
        <time>2018-05-21T09:35:17Z</time>
      </trkpt>
      <trkpt lat="42.737186970189214" lon="-7.173604974523187">
        <ele>1236</ele>
        <time>2018-05-21T09:35:18Z</time>
      </trkpt>
      <trkpt lat="42.73715402930975" lon="-7.173558035865426">
        <ele>1236</ele>
        <time>2018-05-21T09:35:20Z</time>
      </trkpt>
      <trkpt lat="42.73713399656117" lon="-7.17350103892386">
        <ele>1236</ele>
        <time>2018-05-21T09:35:21Z</time>
      </trkpt>
      <trkpt lat="42.73711203597486" lon="-7.173443036153913">
        <ele>1256</ele>
        <time>2018-05-21T09:35:22Z</time>
      </trkpt>
      <trkpt lat="42.737098038196564" lon="-7.173360977321863">
        <ele>1256</ele>
        <time>2018-05-21T09:35:24Z</time>
      </trkpt>
      <trkpt lat="42.737084962427616" lon="-7.173286965116859">
        <ele>1256</ele>
        <time>2018-05-21T09:35:26Z</time>
      </trkpt>
      <trkpt lat="42.737079011276364" lon="-7.173213036730886">
        <ele>1256</ele>
        <time>2018-05-21T09:35:27Z</time>
      </trkpt>
      <trkpt lat="42.7370719704777" lon="-7.173147993162274">
        <ele>1256</ele>
        <time>2018-05-21T09:35:29Z</time>
      </trkpt>
      <trkpt lat="42.737057972699404" lon="-7.173066018149257">
        <ele>1256</ele>
        <time>2018-05-21T09:35:31Z</time>
      </trkpt>
      <trkpt lat="42.737031988799572" lon="-7.172992005944252">
        <ele>1256</ele>
        <time>2018-05-21T09:35:32Z</time>
      </trkpt>
      <trkpt lat="42.736998964101076" lon="-7.172926040366292">
        <ele>1256</ele>
        <time>2018-05-21T09:35:34Z</time>
      </trkpt>
      <trkpt lat="42.736992007121444" lon="-7.172852028161287">
        <ele>1256</ele>
        <time>2018-05-21T09:35:36Z</time>
      </trkpt>
      <trkpt lat="42.736971974372864" lon="-7.172769969329238">
        <ele>1249</ele>
        <time>2018-05-21T09:35:38Z</time>
      </trkpt>
      <trkpt lat="42.736952025443316" lon="-7.172680031508207">
        <ele>1249</ele>
        <time>2018-05-21T09:35:40Z</time>
      </trkpt>
      <trkpt lat="42.736944984644651" lon="-7.172595039010048">
        <ele>1249</ele>
        <time>2018-05-21T09:35:42Z</time>
      </trkpt>
      <trkpt lat="42.7369390334934" lon="-7.172521026805043">
        <ele>1249</ele>
        <time>2018-05-21T09:35:43Z</time>
      </trkpt>
      <trkpt lat="42.736925035715103" lon="-7.172438967972994">
        <ele>1249</ele>
        <time>2018-05-21T09:35:45Z</time>
      </trkpt>
      <trkpt lat="42.736925035715103" lon="-7.172356992959976">
        <ele>1249</ele>
        <time>2018-05-21T09:35:47Z</time>
      </trkpt>
      <trkpt lat="42.736925035715103" lon="-7.172282980754972">
        <ele>1249</ele>
        <time>2018-05-21T09:35:48Z</time>
      </trkpt>
      <trkpt lat="42.736925035715103" lon="-7.172201005741954">
        <ele>1249</ele>
        <time>2018-05-21T09:35:50Z</time>
      </trkpt>
      <trkpt lat="42.736925035715103" lon="-7.172119030728936">
        <ele>1249</ele>
        <time>2018-05-21T09:35:52Z</time>
      </trkpt>
      <trkpt lat="42.736925035715103" lon="-7.172045018523932">
        <ele>1249</ele>
        <time>2018-05-21T09:35:54Z</time>
      </trkpt>
      <trkpt lat="42.7369390334934" lon="-7.17197997495532">
        <ele>1248</ele>
        <time>2018-05-21T09:35:55Z</time>
      </trkpt>
      <trkpt lat="42.7369390334934" lon="-7.171905962750316">
        <ele>1248</ele>
        <time>2018-05-21T09:35:57Z</time>
      </trkpt>
      <trkpt lat="42.736958982422948" lon="-7.171836979687214">
        <ele>1248</ele>
        <time>2018-05-21T09:35:58Z</time>
      </trkpt>
      <trkpt lat="42.736979015171528" lon="-7.171776965260506">
        <ele>1248</ele>
        <time>2018-05-21T09:36:00Z</time>
      </trkpt>
      <trkpt lat="42.737017991021276" lon="-7.171712005510926">
        <ele>1248</ele>
        <time>2018-05-21T09:36:02Z</time>
      </trkpt>
      <trkpt lat="42.737044980749488" lon="-7.171637993305922">
        <ele>1248</ele>
        <time>2018-05-21T09:36:03Z</time>
      </trkpt>
      <trkpt lat="42.7370719704777" lon="-7.171593988314271">
        <ele>1248</ele>
        <time>2018-05-21T09:36:05Z</time>
      </trkpt>
      <trkpt lat="42.737104995176196" lon="-7.171535985544324">
        <ele>1248</ele>
        <time>2018-05-21T09:36:06Z</time>
      </trkpt>
      <trkpt lat="42.737131984904408" lon="-7.171471025794745">
        <ele>1248</ele>
        <time>2018-05-21T09:36:08Z</time>
      </trkpt>
      <trkpt lat="42.737165009602904" lon="-7.171413023024797">
        <ele>1248</ele>
        <time>2018-05-21T09:36:09Z</time>
      </trkpt>
      <trkpt lat="42.737184958532453" lon="-7.171347979456186">
        <ele>1248</ele>
        <time>2018-05-21T09:36:11Z</time>
      </trkpt>
      <trkpt lat="42.737204991281033" lon="-7.171282013878226">
        <ele>1256</ele>
        <time>2018-05-21T09:36:13Z</time>
      </trkpt>
      <trkpt lat="42.737227035686374" lon="-7.17120498418808">
        <ele>1248</ele>
        <time>2018-05-21T09:36:14Z</time>
      </trkpt>
      <trkpt lat="42.737233992666006" lon="-7.171123009175062">
        <ele>1256</ele>
        <time>2018-05-21T09:36:16Z</time>
      </trkpt>
      <trkpt lat="42.737233992666006" lon="-7.171043967828155">
        <ele>1256</ele>
        <time>2018-05-21T09:36:18Z</time>
      </trkpt>
      <trkpt lat="42.737233992666006" lon="-7.170960986986756">
        <ele>1256</ele>
        <time>2018-05-21T09:36:20Z</time>
      </trkpt>
      <trkpt lat="42.737233992666006" lon="-7.170884963124991">
        <ele>1256</ele>
        <time>2018-05-21T09:36:21Z</time>
      </trkpt>
      <trkpt lat="42.737233992666006" lon="-7.170811034739018">
        <ele>1256</ele>
        <time>2018-05-21T09:36:23Z</time>
      </trkpt>
      <trkpt lat="42.737227035686374" lon="-7.170730987563729">
        <ele>1256</ele>
        <time>2018-05-21T09:36:25Z</time>
      </trkpt>
      <trkpt lat="42.73722100071609" lon="-7.170656975358725">
        <ele>1256</ele>
        <time>2018-05-21T09:36:26Z</time>
      </trkpt>
      <trkpt lat="42.737213959917426" lon="-7.17058002948761">
        <ele>1256</ele>
        <time>2018-05-21T09:36:28Z</time>
      </trkpt>
      <trkpt lat="42.737204991281033" lon="-7.170514985918999">
        <ele>1256</ele>
        <time>2018-05-21T09:36:29Z</time>
      </trkpt>
      <trkpt lat="42.73717800155282" lon="-7.170463018119335">
        <ele>1256</ele>
        <time>2018-05-21T09:36:31Z</time>
      </trkpt>
      <trkpt lat="42.737152017652988" lon="-7.170396968722343">
        <ele>1256</ele>
        <time>2018-05-21T09:36:32Z</time>
      </trkpt>
      <trkpt lat="42.737128967419267" lon="-7.170325974002481">
        <ele>1267</ele>
        <time>2018-05-21T09:36:34Z</time>
      </trkpt>
      <trkpt lat="42.737102983519435" lon="-7.170260008424521">
        <ele>1250</ele>
        <time>2018-05-21T09:36:36Z</time>
      </trkpt>
      <trkpt lat="42.737069958820939" lon="-7.170219020918012">
        <ele>1250</ele>
        <time>2018-05-21T09:36:37Z</time>
      </trkpt>
      <trkpt lat="42.737036012113094" lon="-7.17015297152102">
        <ele>1250</ele>
        <time>2018-05-21T09:36:39Z</time>
      </trkpt>
      <trkpt lat="42.737015979364514" lon="-7.170088011771441">
        <ele>1250</ele>
        <time>2018-05-21T09:36:40Z</time>
      </trkpt>
      <trkpt lat="42.736981026828289" lon="-7.170035960152745">
        <ele>1250</ele>
        <time>2018-05-21T09:36:42Z</time>
      </trkpt>
      <trkpt lat="42.736946996301413" lon="-7.16997804120183">
        <ele>1250</ele>
        <time>2018-05-21T09:36:43Z</time>
      </trkpt>
      <trkpt lat="42.736921012401581" lon="-7.169888019561768">
        <ele>1250</ele>
        <time>2018-05-21T09:36:45Z</time>
      </trkpt>
      <trkpt lat="42.736900979653001" lon="-7.169810989871621">
        <ele>1250</ele>
        <time>2018-05-21T09:36:47Z</time>
      </trkpt>
      <trkpt lat="42.736765025183558" lon="-7.169465990737081">
        <ele>1262</ele>
        <time>2018-05-21T09:36:56Z</time>
      </trkpt>
      <trkpt lat="42.736644996330142" lon="-7.169124009087682">
        <ele>1262</ele>
        <time>2018-05-21T09:37:04Z</time>
      </trkpt>
      <trkpt lat="42.736536031588912" lon="-7.168803988024592">
        <ele>1262</ele>
        <time>2018-05-21T09:37:12Z</time>
      </trkpt>
      <trkpt lat="42.736353976652026" lon="-7.168451026082039">
        <ele>1275</ele>
        <time>2018-05-21T09:37:21Z</time>
      </trkpt>
      <trkpt lat="42.736126994714141" lon="-7.168023968115449">
        <ele>1256</ele>
        <time>2018-05-21T09:37:32Z</time>
      </trkpt>
      <trkpt lat="42.735950974747539" lon="-7.167634963989258">
        <ele>1268</ele>
        <time>2018-05-21T09:37:42Z</time>
      </trkpt>
      <trkpt lat="42.73573799058795" lon="-7.167173037305474">
        <ele>1268</ele>
        <time>2018-05-21T09:37:54Z</time>
      </trkpt>
      <trkpt lat="42.735596001148224" lon="-7.166782021522522">
        <ele>1279</ele>
        <time>2018-05-21T09:38:04Z</time>
      </trkpt>
      <trkpt lat="42.735469015315175" lon="-7.166333002969623">
        <ele>1258</ele>
        <time>2018-05-21T09:38:14Z</time>
      </trkpt>
      <trkpt lat="42.73530900478363" lon="-7.165850959718227">
        <ele>1269</ele>
        <time>2018-05-21T09:38:26Z</time>
      </trkpt>
      <trkpt lat="42.735185036435723" lon="-7.165434965863824">
        <ele>1269</ele>
        <time>2018-05-21T09:38:35Z</time>
      </trkpt>
      <trkpt lat="42.735091997310519" lon="-7.16508200392127">
        <ele>1278</ele>
        <time>2018-05-21T09:38:44Z</time>
      </trkpt>
      <trkpt lat="42.73496501147747" lon="-7.164747985079885">
        <ele>1278</ele>
        <time>2018-05-21T09:38:52Z</time>
      </trkpt>
      <trkpt lat="42.734843976795673" lon="-7.164309024810791">
        <ele>1286</ele>
        <time>2018-05-21T09:39:02Z</time>
      </trkpt>
      <trkpt lat="42.734774993732572" lon="-7.164067961275578">
        <ele>1286</ele>
        <time>2018-05-21T09:39:07Z</time>
      </trkpt>
      <trkpt lat="42.734656976535916" lon="-7.163676023483276">
        <ele>1286</ele>
        <time>2018-05-21T09:39:17Z</time>
      </trkpt>
      <trkpt lat="42.734522027894855" lon="-7.163276961073279">
        <ele>1280</ele>
        <time>2018-05-21T09:39:26Z</time>
      </trkpt>
      <trkpt lat="42.73440602235496" lon="-7.162937996909022">
        <ele>1280</ele>
        <time>2018-05-21T09:39:34Z</time>
      </trkpt>
      <trkpt lat="42.734346007928252" lon="-7.162582017481327">
        <ele>1285</ele>
        <time>2018-05-21T09:39:42Z</time>
      </trkpt>
      <trkpt lat="42.734248023480177" lon="-7.162294015288353">
        <ele>1285</ele>
        <time>2018-05-21T09:39:49Z</time>
      </trkpt>
      <trkpt lat="42.734160013496876" lon="-7.162080025300384">
        <ele>1285</ele>
        <time>2018-05-21T09:39:54Z</time>
      </trkpt>
      <trkpt lat="42.734036967158318" lon="-7.161811972036958">
        <ele>1294</ele>
        <time>2018-05-21T09:40:01Z</time>
      </trkpt>
      <trkpt lat="42.733923979103565" lon="-7.161595970392227">
        <ele>1294</ele>
        <time>2018-05-21T09:40:07Z</time>
      </trkpt>
      <trkpt lat="42.733859019353986" lon="-7.161489017307758">
        <ele>1294</ele>
        <time>2018-05-21T09:40:10Z</time>
      </trkpt>
      <trkpt lat="42.733763968572021" lon="-7.161220964044333">
        <ele>1294</ele>
        <time>2018-05-21T09:40:17Z</time>
      </trkpt>
      <trkpt lat="42.733657015487552" lon="-7.160958023741841">
        <ele>1282</ele>
        <time>2018-05-21T09:40:23Z</time>
      </trkpt>
      <trkpt lat="42.733541009947658" lon="-7.16067798435688">
        <ele>1282</ele>
        <time>2018-05-21T09:40:30Z</time>
      </trkpt>
      <trkpt lat="42.733470015227795" lon="-7.160502970218658">
        <ele>1282</ele>
        <time>2018-05-21T09:40:34Z</time>
      </trkpt>
      <trkpt lat="42.733360966667533" lon="-7.160284034907818">
        <ele>1291</ele>
        <time>2018-05-21T09:40:40Z</time>
      </trkpt>
      <trkpt lat="42.733270023018122" lon="-7.160100974142551">
        <ele>1291</ele>
        <time>2018-05-21T09:40:45Z</time>
      </trkpt>
      <trkpt lat="42.733144965022802" lon="-7.159843984991312">
        <ele>1291</ele>
        <time>2018-05-21T09:40:52Z</time>
      </trkpt>
      <trkpt lat="42.733135996386409" lon="-7.159843984991312">
        <ele>1291</ele>
        <time>2018-05-21T09:40:52Z</time>
      </trkpt>
      <trkpt lat="42.73305200971663" lon="-7.15966603718698">
        <ele>1291</ele>
        <time>2018-05-21T09:40:56Z</time>
      </trkpt>
      <trkpt lat="42.732841037213802" lon="-7.159479036927223">
        <ele>1289</ele>
        <time>2018-05-21T09:41:04Z</time>
      </trkpt>
      <trkpt lat="42.732712039723992" lon="-7.159329000860453">
        <ele>1289</ele>
        <time>2018-05-21T09:41:09Z</time>
      </trkpt>
      <trkpt lat="42.732698963955045" lon="-7.159311985597014">
        <ele>1289</ele>
        <time>2018-05-21T09:41:09Z</time>
      </trkpt>
      <trkpt lat="42.732650013640523" lon="-7.159251971170306">
        <ele>1289</ele>
        <time>2018-05-21T09:41:11Z</time>
      </trkpt>
      <trkpt lat="42.732623023912311" lon="-7.159203020855784">
        <ele>1289</ele>
        <time>2018-05-21T09:41:13Z</time>
      </trkpt>
      <trkpt lat="42.732578013092279" lon="-7.159166978672147">
        <ele>1289</ele>
        <time>2018-05-21T09:41:14Z</time>
      </trkpt>
      <trkpt lat="42.732538031414151" lon="-7.159118028357625">
        <ele>1289</ele>
        <time>2018-05-21T09:41:16Z</time>
      </trkpt>
      <trkpt lat="42.732484973967075" lon="-7.159077040851116">
        <ele>1289</ele>
        <time>2018-05-21T09:41:18Z</time>
      </trkpt>
      <trkpt lat="42.732442980632186" lon="-7.159024989232421">
        <ele>1289</ele>
        <time>2018-05-21T09:41:19Z</time>
      </trkpt>
      <trkpt lat="42.732365028932691" lon="-7.158946031704545">
        <ele>1289</ele>
        <time>2018-05-21T09:41:22Z</time>
      </trkpt>
      <trkpt lat="42.732255980372429" lon="-7.15874302200973">
        <ele>1289</ele>
        <time>2018-05-21T09:41:28Z</time>
      </trkpt>
      <trkpt lat="42.732110973447561" lon="-7.158474968746305">
        <ele>1287</ele>
        <time>2018-05-21T09:41:35Z</time>
      </trkpt>
      <trkpt lat="42.731941994279623" lon="-7.158173974603415">
        <ele>1287</ele>
        <time>2018-05-21T09:41:43Z</time>
      </trkpt>
      <trkpt lat="42.731806039810181" lon="-7.157881027087569">
        <ele>1293</ele>
        <time>2018-05-21T09:41:51Z</time>
      </trkpt>
      <trkpt lat="42.731707971543074" lon="-7.157683968544006">
        <ele>1293</ele>
        <time>2018-05-21T09:41:56Z</time>
      </trkpt>
      <trkpt lat="42.731707971543074" lon="-7.157672988250852">
        <ele>1293</ele>
        <time>2018-05-21T09:41:56Z</time>
      </trkpt>
      <trkpt lat="42.731590960174799" lon="-7.157499985769391">
        <ele>1293</ele>
        <time>2018-05-21T09:42:01Z</time>
      </trkpt>
      <trkpt lat="42.73150403983891" lon="-7.157350033521652">
        <ele>1293</ele>
        <time>2018-05-21T09:42:05Z</time>
      </trkpt>
      <trkpt lat="42.731389962136745" lon="-7.157184993848205">
        <ele>1293</ele>
        <time>2018-05-21T09:42:10Z</time>
      </trkpt>
      <trkpt lat="42.731301030144095" lon="-7.157009979709983">
        <ele>1300</ele>
        <time>2018-05-21T09:42:15Z</time>
      </trkpt>
      <trkpt lat="42.731202961876988" lon="-7.156825996935368">
        <ele>1288</ele>
        <time>2018-05-21T09:42:20Z</time>
      </trkpt>
      <trkpt lat="42.731197010725737" lon="-7.156818034127355">
        <ele>1288</ele>
        <time>2018-05-21T09:42:20Z</time>
      </trkpt>
      <trkpt lat="42.73116298019886" lon="-7.156751984730363">
        <ele>1288</ele>
        <time>2018-05-21T09:42:22Z</time>
      </trkpt>
      <trkpt lat="42.731122998520732" lon="-7.156687024980784">
        <ele>1288</ele>
        <time>2018-05-21T09:42:24Z</time>
      </trkpt>
      <trkpt lat="42.73107698187232" lon="-7.156629022210836">
        <ele>1288</ele>
        <time>2018-05-21T09:42:25Z</time>
      </trkpt>
      <trkpt lat="42.731043035164475" lon="-7.15657202526927">
        <ele>1288</ele>
        <time>2018-05-21T09:42:27Z</time>
      </trkpt>
      <trkpt lat="42.730997018516064" lon="-7.156498013064265">
        <ele>1288</ele>
        <time>2018-05-21T09:42:29Z</time>
      </trkpt>
      <trkpt lat="42.730949996039271" lon="-7.156448978930712">
        <ele>1288</ele>
        <time>2018-05-21T09:42:31Z</time>
      </trkpt>
      <trkpt lat="42.730914959684014" lon="-7.15640002861619">
        <ele>1288</ele>
        <time>2018-05-21T09:42:32Z</time>
      </trkpt>
      <trkpt lat="42.73086098022759" lon="-7.156383013352752">
        <ele>1288</ele>
        <time>2018-05-21T09:42:34Z</time>
      </trkpt>
      <trkpt lat="42.730814963579178" lon="-7.156349988654256">
        <ele>1288</ele>
        <time>2018-05-21T09:42:36Z</time>
      </trkpt>
      <trkpt lat="42.730768024921417" lon="-7.156309001147747">
        <ele>1288</ele>
        <time>2018-05-21T09:42:37Z</time>
      </trkpt>
      <trkpt lat="42.730726031586528" lon="-7.15627396479249">
        <ele>1288</ele>
        <time>2018-05-21T09:42:39Z</time>
      </trkpt>
      <trkpt lat="42.730681020766497" lon="-7.156245969235897">
        <ele>1288</ele>
        <time>2018-05-21T09:42:40Z</time>
      </trkpt>
      <trkpt lat="42.730641039088368" lon="-7.156204981729388">
        <ele>1296</ele>
        <time>2018-05-21T09:42:42Z</time>
      </trkpt>
      <trkpt lat="42.730613965541124" lon="-7.156156031414866">
        <ele>1296</ele>
        <time>2018-05-21T09:42:43Z</time>
      </trkpt>
      <trkpt lat="42.730568032711744" lon="-7.156114960089326">
        <ele>1296</ele>
        <time>2018-05-21T09:42:45Z</time>
      </trkpt>
      <trkpt lat="42.730535008013248" lon="-7.156057041138411">
        <ele>1296</ele>
        <time>2018-05-21T09:42:46Z</time>
      </trkpt>
      <trkpt lat="42.730481028556824" lon="-7.156008007004857">
        <ele>1296</ele>
        <time>2018-05-21T09:42:48Z</time>
      </trkpt>
      <trkpt lat="42.730435011908412" lon="-7.155984034761787">
        <ele>1285</ele>
        <time>2018-05-21T09:42:50Z</time>
      </trkpt>
      <trkpt lat="42.73038798943162" lon="-7.155951010063291">
        <ele>1285</ele>
        <time>2018-05-21T09:42:51Z</time>
      </trkpt>
      <trkpt lat="42.730335015803576" lon="-7.155910022556782">
        <ele>1285</ele>
        <time>2018-05-21T09:42:53Z</time>
      </trkpt>
      <trkpt lat="42.730287993326783" lon="-7.155852019786835">
        <ele>1285</ele>
        <time>2018-05-21T09:42:55Z</time>
      </trkpt>
      <trkpt lat="42.730235019698739" lon="-7.155811032280326">
        <ele>1285</ele>
        <time>2018-05-21T09:42:57Z</time>
      </trkpt>
      <trkpt lat="42.730185985565186" lon="-7.15577800758183">
        <ele>1285</ele>
        <time>2018-05-21T09:42:58Z</time>
      </trkpt>
      <trkpt lat="42.729960009455681" lon="-7.155609028413892">
        <ele>1285</ele>
        <time>2018-05-21T09:43:06Z</time>
      </trkpt>
      <trkpt lat="42.7297000028193" lon="-7.155427979305387">
        <ele>1285</ele>
        <time>2018-05-21T09:43:14Z</time>
      </trkpt>
      <trkpt lat="42.729329019784927" lon="-7.155223041772842">
        <ele>1286</ele>
        <time>2018-05-21T09:43:26Z</time>
      </trkpt>
      <trkpt lat="42.729082005098462" lon="-7.155059007927775">
        <ele>1286</ele>
        <time>2018-05-21T09:43:34Z</time>
      </trkpt>
      <trkpt lat="42.728753015398979" lon="-7.154717026278377">
        <ele>1279</ele>
        <time>2018-05-21T09:43:47Z</time>
      </trkpt>
      <trkpt lat="42.728443974629045" lon="-7.154393987730146">
        <ele>1290</ele>
        <time>2018-05-21T09:43:58Z</time>
      </trkpt>
      <trkpt lat="42.728145997971296" lon="-7.154173040762544">
        <ele>1290</ele>
        <time>2018-05-21T09:44:08Z</time>
      </trkpt>
      <trkpt lat="42.727822037413716" lon="-7.153813960030675">
        <ele>1282</ele>
        <time>2018-05-21T09:44:20Z</time>
      </trkpt>
      <trkpt lat="42.727598994970322" lon="-7.153549008071423">
        <ele>1290</ele>
        <time>2018-05-21T09:44:29Z</time>
      </trkpt>
      <trkpt lat="42.727407971397042" lon="-7.153359996154904">
        <ele>1290</ele>
        <time>2018-05-21T09:44:36Z</time>
      </trkpt>
      <trkpt lat="42.727245027199388" lon="-7.153034023940563">
        <ele>1290</ele>
        <time>2018-05-21T09:44:45Z</time>
      </trkpt>
      <trkpt lat="42.727089961990714" lon="-7.152735963463783">
        <ele>1280</ele>
        <time>2018-05-21T09:44:53Z</time>
      </trkpt>
      <trkpt lat="42.7269939891994" lon="-7.152500012889504">
        <ele>1280</ele>
        <time>2018-05-21T09:44:59Z</time>
      </trkpt>
      <trkpt lat="42.726912014186382" lon="-7.152257021516562">
        <ele>1280</ele>
        <time>2018-05-21T09:45:04Z</time>
      </trkpt>
      <trkpt lat="42.726904973387718" lon="-7.152240006253123">
        <ele>1280</ele>
        <time>2018-05-21T09:45:05Z</time>
      </trkpt>
      <trkpt lat="42.726872032508254" lon="-7.152174962684512">
        <ele>1280</ele>
        <time>2018-05-21T09:45:06Z</time>
      </trkpt>
      <trkpt lat="42.72684495896101" lon="-7.152101034298539">
        <ele>1280</ele>
        <time>2018-05-21T09:45:08Z</time>
      </trkpt>
      <trkpt lat="42.726818975061178" lon="-7.152027022093535">
        <ele>1280</ele>
        <time>2018-05-21T09:45:10Z</time>
      </trkpt>
      <trkpt lat="42.726786034181714" lon="-7.151960972696543">
        <ele>1287</ele>
        <time>2018-05-21T09:45:12Z</time>
      </trkpt>
      <trkpt lat="42.726764995604753" lon="-7.151912022382021">
        <ele>1287</ele>
        <time>2018-05-21T09:45:13Z</time>
      </trkpt>
      <trkpt lat="42.726739011704922" lon="-7.151843961328268">
        <ele>1287</ele>
        <time>2018-05-21T09:45:15Z</time>
      </trkpt>
      <trkpt lat="42.726712021976709" lon="-7.151777995750308">
        <ele>1287</ele>
        <time>2018-05-21T09:45:16Z</time>
      </trkpt>
      <trkpt lat="42.726691989228129" lon="-7.151710018515587">
        <ele>1287</ele>
        <time>2018-05-21T09:45:18Z</time>
      </trkpt>
      <trkpt lat="42.726666005328298" lon="-7.15165201574564">
        <ele>1287</ele>
        <time>2018-05-21T09:45:19Z</time>
      </trkpt>
      <trkpt lat="42.726639015600085" lon="-7.151578003540635">
        <ele>1287</ele>
        <time>2018-05-21T09:45:21Z</time>
      </trkpt>
      <trkpt lat="42.726599033921957" lon="-7.151496028527618">
        <ele>1287</ele>
        <time>2018-05-21T09:45:23Z</time>
      </trkpt>
      <trkpt lat="42.726566009223461" lon="-7.151439031586051">
        <ele>1287</ele>
        <time>2018-05-21T09:45:25Z</time>
      </trkpt>
      <trkpt lat="42.726531978696585" lon="-7.151372982189059">
        <ele>1287</ele>
        <time>2018-05-21T09:45:27Z</time>
      </trkpt>
      <trkpt lat="42.726512029767036" lon="-7.151298969984055">
        <ele>1287</ele>
        <time>2018-05-21T09:45:28Z</time>
      </trkpt>
      <trkpt lat="42.726479005068541" lon="-7.151241973042488">
        <ele>1287</ele>
        <time>2018-05-21T09:45:30Z</time>
      </trkpt>
      <trkpt lat="42.726452015340328" lon="-7.15115999802947">
        <ele>1295</ele>
        <time>2018-05-21T09:45:32Z</time>
      </trkpt>
      <trkpt lat="42.726418990641832" lon="-7.151101995259523">
        <ele>1295</ele>
        <time>2018-05-21T09:45:33Z</time>
      </trkpt>
      <trkpt lat="42.726385965943336" lon="-7.151027983054519">
        <ele>1295</ele>
        <time>2018-05-21T09:45:35Z</time>
      </trkpt>
      <trkpt lat="42.726352019235492" lon="-7.150963023304939">
        <ele>1295</ele>
        <time>2018-05-21T09:45:37Z</time>
      </trkpt>
      <trkpt lat="42.726318994536996" lon="-7.150905020534992">
        <ele>1295</ele>
        <time>2018-05-21T09:45:39Z</time>
      </trkpt>
      <trkpt lat="42.726279012858868" lon="-7.150832014158368">
        <ele>1275</ele>
        <time>2018-05-21T09:45:41Z</time>
      </trkpt>
      <trkpt lat="42.726237019523978" lon="-7.150798989459872">
        <ele>1275</ele>
        <time>2018-05-21T09:45:42Z</time>
      </trkpt>
      <trkpt lat="42.726098969578743" lon="-7.150659011676908">
        <ele>1275</ele>
        <time>2018-05-21T09:45:47Z</time>
      </trkpt>
      <trkpt lat="42.725927978754044" lon="-7.150349970906973">
        <ele>1286</ele>
        <time>2018-05-21T09:45:56Z</time>
      </trkpt>
      <trkpt lat="42.725729998201132" lon="-7.150004971772432">
        <ele>1286</ele>
        <time>2018-05-21T09:46:05Z</time>
      </trkpt>
      <trkpt lat="42.725546015426517" lon="-7.149729039520025">
        <ele>1286</ele>
        <time>2018-05-21T09:46:13Z</time>
      </trkpt>
      <trkpt lat="42.725314004346728" lon="-7.149321008473635">
        <ele>1284</ele>
        <time>2018-05-21T09:46:24Z</time>
      </trkpt>
      <trkpt lat="42.725045029073954" lon="-7.148972991853952">
        <ele>1284</ele>
        <time>2018-05-21T09:46:35Z</time>
      </trkpt>
      <trkpt lat="42.724869009107351" lon="-7.148689012974501">
        <ele>1295</ele>
        <time>2018-05-21T09:46:43Z</time>
      </trkpt>
      <trkpt lat="42.724692989140749" lon="-7.148459013551474">
        <ele>1295</ele>
        <time>2018-05-21T09:46:51Z</time>
      </trkpt>
      <trkpt lat="42.724486039951444" lon="-7.148217028006911">
        <ele>1283</ele>
        <time>2018-05-21T09:46:59Z</time>
      </trkpt>
      <trkpt lat="42.724245982244611" lon="-7.147927014157176">
        <ele>1283</ele>
        <time>2018-05-21T09:47:08Z</time>
      </trkpt>
      <trkpt lat="42.723993016406894" lon="-7.147626020014286">
        <ele>1293</ele>
        <time>2018-05-21T09:47:18Z</time>
      </trkpt>
      <trkpt lat="42.723743990063667" lon="-7.147289989516139">
        <ele>1283</ele>
        <time>2018-05-21T09:47:28Z</time>
      </trkpt>
      <trkpt lat="42.723608035594225" lon="-7.147049009799957">
        <ele>1291</ele>
        <time>2018-05-21T09:47:35Z</time>
      </trkpt>
      <trkpt lat="42.723590014502406" lon="-7.147026965394616">
        <ele>1291</ele>
        <time>2018-05-21T09:47:36Z</time>
      </trkpt>
      <trkpt lat="42.723471997305751" lon="-7.146796965971589">
        <ele>1291</ele>
        <time>2018-05-21T09:47:42Z</time>
      </trkpt>
      <trkpt lat="42.72334098815918" lon="-7.146550035104156">
        <ele>1291</ele>
        <time>2018-05-21T09:47:48Z</time>
      </trkpt>
      <trkpt lat="42.723266975954175" lon="-7.146372003480792">
        <ele>1291</ele>
        <time>2018-05-21T09:47:53Z</time>
      </trkpt>
      <trkpt lat="42.723148036748171" lon="-7.146057011559606">
        <ele>1299</ele>
        <time>2018-05-21T09:48:01Z</time>
      </trkpt>
      <trkpt lat="42.72306103259325" lon="-7.145823994651437">
        <ele>1299</ele>
        <time>2018-05-21T09:48:06Z</time>
      </trkpt>
      <trkpt lat="42.722941003739834" lon="-7.145370030775666">
        <ele>1299</ele>
        <time>2018-05-21T09:48:17Z</time>
      </trkpt>
      <trkpt lat="42.722812006250024" lon="-7.144954036921263">
        <ele>1282</ele>
        <time>2018-05-21T09:48:27Z</time>
      </trkpt>
      <trkpt lat="42.72269700653851" lon="-7.144590010866523">
        <ele>1282</ele>
        <time>2018-05-21T09:48:35Z</time>
      </trkpt>
      <trkpt lat="42.722604973241687" lon="-7.144203018397093">
        <ele>1288</ele>
        <time>2018-05-21T09:48:44Z</time>
      </trkpt>
      <trkpt lat="42.722448986023664" lon="-7.143732961267233">
        <ele>1288</ele>
        <time>2018-05-21T09:48:55Z</time>
      </trkpt>
      <trkpt lat="42.72232904098928" lon="-7.14340103790164">
        <ele>1294</ele>
        <time>2018-05-21T09:49:03Z</time>
      </trkpt>
      <trkpt lat="42.722207000479102" lon="-7.143128039315343">
        <ele>1294</ele>
        <time>2018-05-21T09:49:10Z</time>
      </trkpt>
      <trkpt lat="42.722078002989292" lon="-7.142886975780129">
        <ele>1276</ele>
        <time>2018-05-21T09:49:17Z</time>
      </trkpt>
      <trkpt lat="42.721886979416013" lon="-7.142550023272634">
        <ele>1288</ele>
        <time>2018-05-21T09:49:26Z</time>
      </trkpt>
      <trkpt lat="42.721667038276792" lon="-7.142196977511048">
        <ele>1288</ele>
        <time>2018-05-21T09:49:36Z</time>
      </trkpt>
      <trkpt lat="42.72149302996695" lon="-7.141874022781849">
        <ele>1300</ele>
        <time>2018-05-21T09:49:45Z</time>
      </trkpt>
      <trkpt lat="42.721288008615375" lon="-7.141570011153817">
        <ele>1285</ele>
        <time>2018-05-21T09:49:53Z</time>
      </trkpt>
      <trkpt lat="42.721279039978981" lon="-7.141546038910747">
        <ele>1285</ele>
        <time>2018-05-21T09:49:54Z</time>
      </trkpt>
      <trkpt lat="42.721246015280485" lon="-7.141472026705742">
        <ele>1285</ele>
        <time>2018-05-21T09:49:56Z</time>
      </trkpt>
      <trkpt lat="42.721219025552273" lon="-7.141419975087047">
        <ele>1285</ele>
        <time>2018-05-21T09:49:57Z</time>
      </trkpt>
      <trkpt lat="42.721178960055113" lon="-7.141338000074029">
        <ele>1285</ele>
        <time>2018-05-21T09:49:59Z</time>
      </trkpt>
      <trkpt lat="42.721159011125565" lon="-7.141269017010927">
        <ele>1285</ele>
        <time>2018-05-21T09:50:01Z</time>
      </trkpt>
      <trkpt lat="42.721067983657122" lon="-7.141205985099077">
        <ele>1285</ele>
        <time>2018-05-21T09:50:04Z</time>
      </trkpt>
      <trkpt lat="42.720932029187679" lon="-7.141056032851338">
        <ele>1296</ele>
        <time>2018-05-21T09:50:09Z</time>
      </trkpt>
      <trkpt lat="42.720722984522581" lon="-7.140809018164873">
        <ele>1296</ele>
        <time>2018-05-21T09:50:17Z</time>
      </trkpt>
      <trkpt lat="42.720514023676515" lon="-7.140596034005284">
        <ele>1296</ele>
        <time>2018-05-21T09:50:25Z</time>
      </trkpt>
      <trkpt lat="42.720304979011416" lon="-7.140444992110133">
        <ele>1285</ele>
        <time>2018-05-21T09:50:32Z</time>
      </trkpt>
      <trkpt lat="42.720054024830461" lon="-7.140262015163899">
        <ele>1295</ele>
        <time>2018-05-21T09:50:41Z</time>
      </trkpt>
      <trkpt lat="42.719759987667203" lon="-7.140053976327181">
        <ele>1295</ele>
        <time>2018-05-21T09:50:50Z</time>
      </trkpt>
      <trkpt lat="42.719597965478897" lon="-7.13996403850615">
        <ele>1285</ele>
        <time>2018-05-21T09:50:56Z</time>
      </trkpt>
      <trkpt lat="42.719412976875901" lon="-7.139747031033039">
        <ele>1285</ele>
        <time>2018-05-21T09:51:03Z</time>
      </trkpt>
      <trkpt lat="42.719260007143021" lon="-7.139572016894817">
        <ele>1285</ele>
        <time>2018-05-21T09:51:09Z</time>
      </trkpt>
      <trkpt lat="42.71923896856606" lon="-7.139545027166605">
        <ele>1285</ele>
        <time>2018-05-21T09:51:09Z</time>
      </trkpt>
      <trkpt lat="42.719199992716312" lon="-7.139501022174954">
        <ele>1294</ele>
        <time>2018-05-21T09:51:11Z</time>
      </trkpt>
      <trkpt lat="42.719170991331339" lon="-7.139441007748246">
        <ele>1294</ele>
        <time>2018-05-21T09:51:13Z</time>
      </trkpt>
      <trkpt lat="42.719136960804462" lon="-7.139366995543242">
        <ele>1294</ele>
        <time>2018-05-21T09:51:14Z</time>
      </trkpt>
      <trkpt lat="42.719123968854547" lon="-7.139292983338237">
        <ele>1294</ele>
        <time>2018-05-21T09:51:16Z</time>
      </trkpt>
      <trkpt lat="42.719104019924998" lon="-7.13923498056829">
        <ele>1294</ele>
        <time>2018-05-21T09:51:17Z</time>
      </trkpt>
      <trkpt lat="42.719091027975082" lon="-7.139153005555272">
        <ele>1294</ele>
        <time>2018-05-21T09:51:19Z</time>
      </trkpt>
      <trkpt lat="42.71906403824687" lon="-7.139076981693506">
        <ele>1294</ele>
        <time>2018-05-21T09:51:21Z</time>
      </trkpt>
      <trkpt lat="42.719036964699626" lon="-7.139002969488502">
        <ele>1294</ele>
        <time>2018-05-21T09:51:23Z</time>
      </trkpt>
      <trkpt lat="42.719015004113317" lon="-7.138920994475484">
        <ele>1294</ele>
        <time>2018-05-21T09:51:25Z</time>
      </trkpt>
      <trkpt lat="42.718940991908312" lon="-7.138655036687851">
        <ele>1302</ele>
        <time>2018-05-21T09:51:31Z</time>
      </trkpt>
      <trkpt lat="42.718862034380436" lon="-7.138383965939283">
        <ele>1302</ele>
        <time>2018-05-21T09:51:37Z</time>
      </trkpt>
      <trkpt lat="42.718770001083612" lon="-7.138014994561672">
        <ele>1302</ele>
        <time>2018-05-21T09:51:46Z</time>
      </trkpt>
      <trkpt lat="42.718670004978776" lon="-7.137587014585733">
        <ele>1298</ele>
        <time>2018-05-21T09:51:56Z</time>
      </trkpt>
      <trkpt lat="42.718565985560417" lon="-7.137222988530994">
        <ele>1298</ele>
        <time>2018-05-21T09:52:04Z</time>
      </trkpt>
      <trkpt lat="42.718468001112342" lon="-7.136856028810144">
        <ele>1306</ele>
        <time>2018-05-21T09:52:13Z</time>
      </trkpt>
      <trkpt lat="42.718350989744067" lon="-7.136478004977107">
        <ele>1306</ele>
        <time>2018-05-21T09:52:21Z</time>
      </trkpt>
      <trkpt lat="42.718253005295992" lon="-7.136173993349075">
        <ele>1307</ele>
        <time>2018-05-21T09:52:29Z</time>
      </trkpt>
      <trkpt lat="42.718246970325708" lon="-7.136166030541062">
        <ele>1316</ele>
        <time>2018-05-21T09:52:29Z</time>
      </trkpt>
      <trkpt lat="42.718154015019536" lon="-7.135970983654261">
        <ele>1316</ele>
        <time>2018-05-21T09:52:34Z</time>
      </trkpt>
      <trkpt lat="42.718147980049253" lon="-7.135963020846248">
        <ele>1316</ele>
        <time>2018-05-21T09:52:34Z</time>
      </trkpt>
      <trkpt lat="42.718073967844248" lon="-7.13584098033607">
        <ele>1316</ele>
        <time>2018-05-21T09:52:38Z</time>
      </trkpt>
      <trkpt lat="42.717936001718044" lon="-7.135608969256282">
        <ele>1298</ele>
        <time>2018-05-21T09:52:44Z</time>
      </trkpt>
      <trkpt lat="42.717770962044597" lon="-7.135380981490016">
        <ele>1298</ele>
        <time>2018-05-21T09:52:51Z</time>
      </trkpt>
      <trkpt lat="42.717552026733756" lon="-7.134986026212573">
        <ele>1311</ele>
        <time>2018-05-21T09:53:02Z</time>
      </trkpt>
      <trkpt lat="42.717320015653968" lon="-7.134628035128117">
        <ele>1311</ele>
        <time>2018-05-21T09:53:12Z</time>
      </trkpt>
      <trkpt lat="42.717157993465662" lon="-7.13433500379324">
        <ele>1323</ele>
        <time>2018-05-21T09:53:20Z</time>
      </trkpt>
      <trkpt lat="42.716984990984201" lon="-7.134016994386911">
        <ele>1307</ele>
        <time>2018-05-21T09:53:29Z</time>
      </trkpt>
      <trkpt lat="42.71683000959456" lon="-7.133809039369226">
        <ele>1307</ele>
        <time>2018-05-21T09:53:35Z</time>
      </trkpt>
      <trkpt lat="42.716720961034298" lon="-7.13356495834887">
        <ele>1319</ele>
        <time>2018-05-21T09:53:41Z</time>
      </trkpt>
      <trkpt lat="42.716645020991564" lon="-7.133328001946211">
        <ele>1319</ele>
        <time>2018-05-21T09:53:47Z</time>
      </trkpt>
      <trkpt lat="42.716578971594572" lon="-7.133113006129861">
        <ele>1319</ele>
        <time>2018-05-21T09:53:52Z</time>
      </trkpt>
      <trkpt lat="42.716519040986896" lon="-7.132892981171608">
        <ele>1319</ele>
        <time>2018-05-21T09:53:57Z</time>
      </trkpt>
      <trkpt lat="42.716474030166864" lon="-7.132679997012019">
        <ele>1330</ele>
        <time>2018-05-21T09:54:02Z</time>
      </trkpt>
      <trkpt lat="42.716432036831975" lon="-7.132454020902515">
        <ele>1330</ele>
        <time>2018-05-21T09:54:07Z</time>
      </trkpt>
      <trkpt lat="42.716394988819957" lon="-7.132140034809709">
        <ele>1330</ele>
        <time>2018-05-21T09:54:14Z</time>
      </trkpt>
      <trkpt lat="42.716366993263364" lon="-7.131849015131593">
        <ele>1340</ele>
        <time>2018-05-21T09:54:20Z</time>
      </trkpt>
      <trkpt lat="42.716338997706771" lon="-7.131646005436778">
        <ele>1340</ele>
        <time>2018-05-21T09:54:25Z</time>
      </trkpt>
      <trkpt lat="42.716277977451682" lon="-7.131420029327273">
        <ele>1311</ele>
        <time>2018-05-21T09:54:30Z</time>
      </trkpt>
      <trkpt lat="42.716174963861704" lon="-7.131163040176034">
        <ele>1322</ele>
        <time>2018-05-21T09:54:36Z</time>
      </trkpt>
      <trkpt lat="42.716107992455363" lon="-7.131014009937644">
        <ele>1322</ele>
        <time>2018-05-21T09:54:40Z</time>
      </trkpt>
      <trkpt lat="42.715984024107456" lon="-7.130801025778055">
        <ele>1322</ele>
        <time>2018-05-21T09:54:46Z</time>
      </trkpt>
      <trkpt lat="42.715905988588929" lon="-7.130644032731652">
        <ele>1322</ele>
        <time>2018-05-21T09:54:50Z</time>
      </trkpt>
      <trkpt lat="42.715813033282757" lon="-7.130524003878236">
        <ele>1322</ele>
        <time>2018-05-21T09:54:54Z</time>
      </trkpt>
      <trkpt lat="42.715667020529509" lon="-7.130280006676912">
        <ele>1334</ele>
        <time>2018-05-21T09:55:01Z</time>
      </trkpt>
      <trkpt lat="42.715575993061066" lon="-7.130066016688943">
        <ele>1334</ele>
        <time>2018-05-21T09:55:06Z</time>
      </trkpt>
      <trkpt lat="42.715438026934862" lon="-7.129887985065579">
        <ele>1315</ele>
        <time>2018-05-21T09:55:12Z</time>
      </trkpt>
      <trkpt lat="42.715315986424685" lon="-7.129741972312331">
        <ele>1315</ele>
        <time>2018-05-21T09:55:17Z</time>
      </trkpt>
      <trkpt lat="42.715207021683455" lon="-7.129601994529367">
        <ele>1315</ele>
        <time>2018-05-21T09:55:21Z</time>
      </trkpt>
      <trkpt lat="42.715189000591636" lon="-7.129577016457915">
        <ele>1315</ele>
        <time>2018-05-21T09:55:22Z</time>
      </trkpt>
      <trkpt lat="42.715169973671436" lon="-7.129537034779787">
        <ele>1315</ele>
        <time>2018-05-21T09:55:23Z</time>
      </trkpt>
      <trkpt lat="42.715147007256746" lon="-7.129484983161092">
        <ele>1330</ele>
        <time>2018-05-21T09:55:24Z</time>
      </trkpt>
      <trkpt lat="42.715119011700153" lon="-7.129456987604499">
        <ele>1330</ele>
        <time>2018-05-21T09:55:25Z</time>
      </trkpt>
      <trkpt lat="42.715094033628702" lon="-7.129434021189809">
        <ele>1330</ele>
        <time>2018-05-21T09:55:26Z</time>
      </trkpt>
      <trkpt lat="42.715043993666768" lon="-7.129346011206508">
        <ele>1330</ele>
        <time>2018-05-21T09:55:28Z</time>
      </trkpt>
      <trkpt lat="42.714912984520197" lon="-7.129299994558096">
        <ele>1330</ele>
        <time>2018-05-21T09:55:32Z</time>
      </trkpt>
      <trkpt lat="42.714912984520197" lon="-7.129292031750083">
        <ele>1330</ele>
        <time>2018-05-21T09:55:33Z</time>
      </trkpt>
      <trkpt lat="42.714762026444077" lon="-7.129206033423543">
        <ele>1330</ele>
        <time>2018-05-21T09:55:37Z</time>
      </trkpt>
      <trkpt lat="42.714605033397675" lon="-7.129062032327056">
        <ele>1317</ele>
        <time>2018-05-21T09:55:43Z</time>
      </trkpt>
      <trkpt lat="42.714460026472807" lon="-7.128952983766794">
        <ele>1317</ele>
        <time>2018-05-21T09:55:48Z</time>
      </trkpt>
      <trkpt lat="42.714258022606373" lon="-7.128817029297352">
        <ele>1317</ele>
        <time>2018-05-21T09:55:55Z</time>
      </trkpt>
      <trkpt lat="42.714131958782673" lon="-7.128758020699024">
        <ele>1317</ele>
        <time>2018-05-21T09:55:59Z</time>
      </trkpt>
      <trkpt lat="42.7140580303967" lon="-7.12866397574544">
        <ele>1334</ele>
        <time>2018-05-21T09:56:02Z</time>
      </trkpt>
      <trkpt lat="42.713989969342947" lon="-7.128541013225913">
        <ele>1334</ele>
        <time>2018-05-21T09:56:05Z</time>
      </trkpt>
      <trkpt lat="42.713919980451465" lon="-7.128399023786187">
        <ele>1334</ele>
        <time>2018-05-21T09:56:09Z</time>
      </trkpt>
      <trkpt lat="42.713813027366996" lon="-7.128218980506063">
        <ele>1334</ele>
        <time>2018-05-21T09:56:14Z</time>
      </trkpt>
      <trkpt lat="42.713622003793716" lon="-7.127912035211921">
        <ele>1318</ele>
        <time>2018-05-21T09:56:22Z</time>
      </trkpt>
      <trkpt lat="42.713556038215756" lon="-7.127775996923447">
        <ele>1333</ele>
        <time>2018-05-21T09:56:26Z</time>
      </trkpt>
      <trkpt lat="42.713396027684212" lon="-7.127491012215614">
        <ele>1333</ele>
        <time>2018-05-21T09:56:34Z</time>
      </trkpt>
      <trkpt lat="42.713237022981048" lon="-7.127252966165543">
        <ele>1333</ele>
        <time>2018-05-21T09:56:41Z</time>
      </trkpt>
      <trkpt lat="42.713095033541322" lon="-7.127040987834334">
        <ele>1343</ele>
        <time>2018-05-21T09:56:47Z</time>
      </trkpt>
      <trkpt lat="42.712912978604436" lon="-7.126735970377922">
        <ele>1333</ele>
        <time>2018-05-21T09:56:56Z</time>
      </trkpt>
      <trkpt lat="42.712775012478232" lon="-7.126501025632024">
        <ele>1333</ele>
        <time>2018-05-21T09:57:02Z</time>
      </trkpt>
      <trkpt lat="42.712649032473564" lon="-7.126316959038377">
        <ele>1333</ele>
        <time>2018-05-21T09:57:08Z</time>
      </trkpt>
      <trkpt lat="42.712577031925321" lon="-7.12621302343905">
        <ele>1333</ele>
        <time>2018-05-21T09:57:11Z</time>
      </trkpt>
      <trkpt lat="42.712570996955037" lon="-7.12619399651885">
        <ele>1333</ele>
        <time>2018-05-21T09:57:11Z</time>
      </trkpt>
      <trkpt lat="42.712554987519979" lon="-7.126155020669103">
        <ele>1333</ele>
        <time>2018-05-21T09:57:12Z</time>
      </trkpt>
      <trkpt lat="42.712554987519979" lon="-7.126097017899156">
        <ele>1333</ele>
        <time>2018-05-21T09:57:14Z</time>
      </trkpt>
      <trkpt lat="42.712564961984754" lon="-7.126057036221027">
        <ele>1333</ele>
        <time>2018-05-21T09:57:14Z</time>
      </trkpt>
      <trkpt lat="42.712574014440179" lon="-7.126012025400996">
        <ele>1333</ele>
        <time>2018-05-21T09:57:15Z</time>
      </trkpt>
      <trkpt lat="42.712588012218475" lon="-7.125960979610682">
        <ele>1333</ele>
        <time>2018-05-21T09:57:17Z</time>
      </trkpt>
      <trkpt lat="42.712602009996772" lon="-7.125916974619031">
        <ele>1333</ele>
        <time>2018-05-21T09:57:18Z</time>
      </trkpt>
      <trkpt lat="42.712616007775068" lon="-7.125875987112522">
        <ele>1333</ele>
        <time>2018-05-21T09:57:19Z</time>
      </trkpt>
      <trkpt lat="42.712635034695268" lon="-7.125844974070787">
        <ele>1333</ele>
        <time>2018-05-21T09:57:20Z</time>
      </trkpt>
      <trkpt lat="42.712650038301945" lon="-7.125802980735898">
        <ele>1333</ele>
        <time>2018-05-21T09:57:21Z</time>
      </trkpt>
      <trkpt lat="42.712668981403112" lon="-7.125758975744247">
        <ele>1333</ele>
        <time>2018-05-21T09:57:22Z</time>
      </trkpt>
      <trkpt lat="42.712683985009789" lon="-7.1257199998945">
        <ele>1333</ele>
        <time>2018-05-21T09:57:23Z</time>
      </trkpt>
      <trkpt lat="42.712703011929989" lon="-7.125673983246088">
        <ele>1333</ele>
        <time>2018-05-21T09:57:24Z</time>
      </trkpt>
      <trkpt lat="42.712717009708285" lon="-7.125623021274805">
        <ele>1333</ele>
        <time>2018-05-21T09:57:25Z</time>
      </trkpt>
      <trkpt lat="42.712731007486582" lon="-7.125582033768296">
        <ele>1333</ele>
        <time>2018-05-21T09:57:26Z</time>
      </trkpt>
      <trkpt lat="42.712736036628485" lon="-7.125531993806362">
        <ele>1333</ele>
        <time>2018-05-21T09:57:27Z</time>
      </trkpt>
      <trkpt lat="42.712760008871555" lon="-7.125492012128234">
        <ele>1333</ele>
        <time>2018-05-21T09:57:28Z</time>
      </trkpt>
      <trkpt lat="42.712760008871555" lon="-7.125443983823061">
        <ele>1333</ele>
        <time>2018-05-21T09:57:29Z</time>
      </trkpt>
      <trkpt lat="42.712755985558033" lon="-7.125394027680159">
        <ele>1333</ele>
        <time>2018-05-21T09:57:30Z</time>
      </trkpt>
      <trkpt lat="42.712741987779737" lon="-7.125345999374986">
        <ele>1333</ele>
        <time>2018-05-21T09:57:31Z</time>
      </trkpt>
      <trkpt lat="42.712718015536666" lon="-7.125322027131915">
        <ele>1333</ele>
        <time>2018-05-21T09:57:32Z</time>
      </trkpt>
      <trkpt lat="42.712676022201777" lon="-7.125315992161632">
        <ele>1333</ele>
        <time>2018-05-21T09:57:34Z</time>
      </trkpt>
      <trkpt lat="42.712633023038507" lon="-7.125315992161632">
        <ele>1333</ele>
        <time>2018-05-21T09:57:35Z</time>
      </trkpt>
      <trkpt lat="42.712586000561714" lon="-7.125315992161632">
        <ele>1333</ele>
        <time>2018-05-21T09:57:36Z</time>
      </trkpt>
      <trkpt lat="42.712541995570064" lon="-7.125315992161632">
        <ele>1333</ele>
        <time>2018-05-21T09:57:38Z</time>
      </trkpt>
      <trkpt lat="42.712502013891935" lon="-7.125315992161632">
        <ele>1333</ele>
        <time>2018-05-21T09:57:39Z</time>
      </trkpt>
      <trkpt lat="42.712457003071904" lon="-7.125315992161632">
        <ele>1333</ele>
        <time>2018-05-21T09:57:40Z</time>
      </trkpt>
      <trkpt lat="42.712415009737015" lon="-7.125315992161632">
        <ele>1333</ele>
        <time>2018-05-21T09:57:41Z</time>
      </trkpt>
      <trkpt lat="42.712382990866899" lon="-7.125304006040096">
        <ele>1333</ele>
        <time>2018-05-21T09:57:42Z</time>
      </trkpt>
      <trkpt lat="42.712357006967068" lon="-7.125279027968645">
        <ele>1314</ele>
        <time>2018-05-21T09:57:43Z</time>
      </trkpt>
      <trkpt lat="42.71234099753201" lon="-7.125240974128246">
        <ele>1314</ele>
        <time>2018-05-21T09:57:44Z</time>
      </trkpt>
      <trkpt lat="42.71232096478343" lon="-7.12520400993526">
        <ele>1314</ele>
        <time>2018-05-21T09:57:45Z</time>
      </trkpt>
      <trkpt lat="42.712307972833514" lon="-7.125151958316565">
        <ele>1314</ele>
        <time>2018-05-21T09:57:46Z</time>
      </trkpt>
      <trkpt lat="42.712304033339024" lon="-7.125089010223746">
        <ele>1314</ele>
        <time>2018-05-21T09:57:48Z</time>
      </trkpt>
      <trkpt lat="42.712304033339024" lon="-7.12503201328218">
        <ele>1314</ele>
        <time>2018-05-21T09:57:49Z</time>
      </trkpt>
      <trkpt lat="42.712304033339024" lon="-7.124978033825755">
        <ele>1314</ele>
        <time>2018-05-21T09:57:50Z</time>
      </trkpt>
      <trkpt lat="42.712293975055218" lon="-7.124921036884189">
        <ele>1314</ele>
        <time>2018-05-21T09:57:52Z</time>
      </trkpt>
      <trkpt lat="42.712285006418824" lon="-7.124863034114242">
        <ele>1314</ele>
        <time>2018-05-21T09:57:53Z</time>
      </trkpt>
      <trkpt lat="42.712285006418824" lon="-7.124806037172675">
        <ele>1314</ele>
        <time>2018-05-21T09:57:54Z</time>
      </trkpt>
      <trkpt lat="42.712279977276921" lon="-7.124748034402728">
        <ele>1314</ele>
        <time>2018-05-21T09:57:55Z</time>
      </trkpt>
      <trkpt lat="42.712276037782431" lon="-7.124696988612413">
        <ele>1314</ele>
        <time>2018-05-21T09:57:56Z</time>
      </trkpt>
      <trkpt lat="42.712271008640528" lon="-7.12464502081275">
        <ele>1314</ele>
        <time>2018-05-21T09:57:58Z</time>
      </trkpt>
      <trkpt lat="42.712271008640528" lon="-7.124592969194055">
        <ele>1314</ele>
        <time>2018-05-21T09:57:59Z</time>
      </trkpt>
      <trkpt lat="42.712271008640528" lon="-7.124535972252488">
        <ele>1314</ele>
        <time>2018-05-21T09:58:00Z</time>
      </trkpt>
      <trkpt lat="42.712271008640528" lon="-7.124477969482541">
        <ele>1314</ele>
        <time>2018-05-21T09:58:01Z</time>
      </trkpt>
      <trkpt lat="42.712271008640528" lon="-7.124427007511258">
        <ele>1292</ele>
        <time>2018-05-21T09:58:02Z</time>
      </trkpt>
      <trkpt lat="42.712279977276921" lon="-7.124380990862846">
        <ele>1292</ele>
        <time>2018-05-21T09:58:04Z</time>
      </trkpt>
      <trkpt lat="42.712299004197121" lon="-7.124322988092899">
        <ele>1292</ele>
        <time>2018-05-21T09:58:05Z</time>
      </trkpt>
      <trkpt lat="42.712304033339024" lon="-7.124272026121616">
        <ele>1292</ele>
        <time>2018-05-21T09:58:06Z</time>
      </trkpt>
      <trkpt lat="42.712304033339024" lon="-7.124214023351669">
        <ele>1292</ele>
        <time>2018-05-21T09:58:08Z</time>
      </trkpt>
      <trkpt lat="42.712299004197121" lon="-7.124157026410103">
        <ele>1292</ele>
        <time>2018-05-21T09:58:09Z</time>
      </trkpt>
      <trkpt lat="42.712299004197121" lon="-7.124104974791408">
        <ele>1292</ele>
        <time>2018-05-21T09:58:10Z</time>
      </trkpt>
      <trkpt lat="42.712288023903966" lon="-7.124057030305266">
        <ele>1292</ele>
        <time>2018-05-21T09:58:11Z</time>
      </trkpt>
      <trkpt lat="42.712288023903966" lon="-7.124001039192081">
        <ele>1292</ele>
        <time>2018-05-21T09:58:12Z</time>
      </trkpt>
      <trkpt lat="42.712288023903966" lon="-7.123948987573385">
        <ele>1292</ele>
        <time>2018-05-21T09:58:14Z</time>
      </trkpt>
      <trkpt lat="42.712288023903966" lon="-7.123898025602102">
        <ele>1292</ele>
        <time>2018-05-21T09:58:15Z</time>
      </trkpt>
      <trkpt lat="42.712288023903966" lon="-7.123845973983407">
        <ele>1292</ele>
        <time>2018-05-21T09:58:16Z</time>
      </trkpt>
      <trkpt lat="42.712288023903966" lon="-7.12378797121346">
        <ele>1292</ele>
        <time>2018-05-21T09:58:17Z</time>
      </trkpt>
      <trkpt lat="42.712288023903966" lon="-7.123737009242177">
        <ele>1292</ele>
        <time>2018-05-21T09:58:18Z</time>
      </trkpt>
      <trkpt lat="42.712288023903966" lon="-7.123681018128991">
        <ele>1292</ele>
        <time>2018-05-21T09:58:20Z</time>
      </trkpt>
      <trkpt lat="42.712282994762063" lon="-7.123628966510296">
        <ele>1278</ele>
        <time>2018-05-21T09:58:21Z</time>
      </trkpt>
      <trkpt lat="42.712282994762063" lon="-7.123570041731">
        <ele>1278</ele>
        <time>2018-05-21T09:58:22Z</time>
      </trkpt>
      <trkpt lat="42.712268996983767" lon="-7.123527964577079">
        <ele>1278</ele>
        <time>2018-05-21T09:58:23Z</time>
      </trkpt>
      <trkpt lat="42.712250975891948" lon="-7.123500974848867">
        <ele>1278</ele>
        <time>2018-05-21T09:58:24Z</time>
      </trkpt>
      <trkpt lat="42.712227003648877" lon="-7.123460993170738">
        <ele>1278</ele>
        <time>2018-05-21T09:58:25Z</time>
      </trkpt>
      <trkpt lat="42.712208982557058" lon="-7.123420005664229">
        <ele>1278</ele>
        <time>2018-05-21T09:58:26Z</time>
      </trkpt>
      <trkpt lat="42.712174030020833" lon="-7.12337801232934">
        <ele>1278</ele>
        <time>2018-05-21T09:58:28Z</time>
      </trkpt>
      <trkpt lat="42.712150979787111" lon="-7.123325960710645">
        <ele>1278</ele>
        <time>2018-05-21T09:58:29Z</time>
      </trkpt>
      <trkpt lat="42.712134970352054" lon="-7.123285979032517">
        <ele>1278</ele>
        <time>2018-05-21T09:58:30Z</time>
      </trkpt>
      <trkpt lat="42.712112003937364" lon="-7.123265024274588">
        <ele>1296</ele>
        <time>2018-05-21T09:58:31Z</time>
      </trkpt>
      <trkpt lat="42.712089037522674" lon="-7.123224958777428">
        <ele>1296</ele>
        <time>2018-05-21T09:58:32Z</time>
      </trkpt>
      <trkpt lat="42.712055006995797" lon="-7.123177014291287">
        <ele>1296</ele>
        <time>2018-05-21T09:58:33Z</time>
      </trkpt>
      <trkpt lat="42.712021982297301" lon="-7.123141977936029">
        <ele>1296</ele>
        <time>2018-05-21T09:58:34Z</time>
      </trkpt>
      <trkpt lat="42.711991975083947" lon="-7.12309998460114">
        <ele>1296</ele>
        <time>2018-05-21T09:58:36Z</time>
      </trkpt>
      <trkpt lat="42.711963979527354" lon="-7.123049022629857">
        <ele>1296</ele>
        <time>2018-05-21T09:58:37Z</time>
      </trkpt>
      <trkpt lat="42.711941013112664" lon="-7.123008035123348">
        <ele>1296</ele>
        <time>2018-05-21T09:58:38Z</time>
      </trkpt>
      <trkpt lat="42.711917962878942" lon="-7.122967969626188">
        <ele>1296</ele>
        <time>2018-05-21T09:58:39Z</time>
      </trkpt>
      <trkpt lat="42.711893990635872" lon="-7.122922036796808">
        <ele>1296</ele>
        <time>2018-05-21T09:58:41Z</time>
      </trkpt>
      <trkpt lat="42.711871024221182" lon="-7.122881971299648">
        <ele>1296</ele>
        <time>2018-05-21T09:58:42Z</time>
      </trkpt>
      <trkpt lat="42.71184797398746" lon="-7.122830003499985">
        <ele>1296</ele>
        <time>2018-05-21T09:58:43Z</time>
      </trkpt>
      <trkpt lat="42.711817966774106" lon="-7.12279798462987">
        <ele>1285</ele>
        <time>2018-05-21T09:58:44Z</time>
      </trkpt>
      <trkpt lat="42.711784020066261" lon="-7.1227549854666">
        <ele>1285</ele>
        <time>2018-05-21T09:58:46Z</time>
      </trkpt>
      <trkpt lat="42.711763987317681" lon="-7.122721038758755">
        <ele>1285</ele>
        <time>2018-05-21T09:58:46Z</time>
      </trkpt>
      <trkpt lat="42.711740015074611" lon="-7.122686002403498">
        <ele>1285</ele>
        <time>2018-05-21T09:58:48Z</time>
      </trkpt>
      <trkpt lat="42.711712019518018" lon="-7.122635040432215">
        <ele>1285</ele>
        <time>2018-05-21T09:58:49Z</time>
      </trkpt>
      <trkpt lat="42.711684023961425" lon="-7.122606039047241">
        <ele>1285</ele>
        <time>2018-05-21T09:58:50Z</time>
      </trkpt>
      <trkpt lat="42.711656028404832" lon="-7.122577037662268">
        <ele>1285</ele>
        <time>2018-05-21T09:58:51Z</time>
      </trkpt>
      <trkpt lat="42.711624009534717" lon="-7.122543007135391">
        <ele>1285</ele>
        <time>2018-05-21T09:58:52Z</time>
      </trkpt>
      <trkpt lat="42.71161001175642" lon="-7.122491039335728">
        <ele>1285</ele>
        <time>2018-05-21T09:58:53Z</time>
      </trkpt>
      <trkpt lat="42.71158603951335" lon="-7.122457008808851">
        <ele>1285</ele>
        <time>2018-05-21T09:58:54Z</time>
      </trkpt>
      <trkpt lat="42.711568018421531" lon="-7.12241099216044">
        <ele>1285</ele>
        <time>2018-05-21T09:58:56Z</time>
      </trkpt>
      <trkpt lat="42.711544968187809" lon="-7.122359024360776">
        <ele>1285</ele>
        <time>2018-05-21T09:58:57Z</time>
      </trkpt>
      <trkpt lat="42.711534993723035" lon="-7.122306972742081">
        <ele>1285</ele>
        <time>2018-05-21T09:58:58Z</time>
      </trkpt>
      <trkpt lat="42.711516972631216" lon="-7.122256010770798">
        <ele>1285</ele>
        <time>2018-05-21T09:58:59Z</time>
      </trkpt>
      <trkpt lat="42.711498029530048" lon="-7.122209994122386">
        <ele>1285</ele>
        <time>2018-05-21T09:59:01Z</time>
      </trkpt>
      <trkpt lat="42.711465004831553" lon="-7.122163977473974">
        <ele>1285</ele>
        <time>2018-05-21T09:59:02Z</time>
      </trkpt>
      <trkpt lat="42.71143700927496" lon="-7.122112009674311">
        <ele>1285</ele>
        <time>2018-05-21T09:59:03Z</time>
      </trkpt>
      <trkpt lat="42.711409013718367" lon="-7.122065993025899">
        <ele>1285</ele>
        <time>2018-05-21T09:59:05Z</time>
      </trkpt>
      <trkpt lat="42.711381018161774" lon="-7.122014025226235">
        <ele>1285</ele>
        <time>2018-05-21T09:59:06Z</time>
      </trkpt>
      <trkpt lat="42.711362997069955" lon="-7.121969014406204">
        <ele>1272</ele>
        <time>2018-05-21T09:59:07Z</time>
      </trkpt>
      <trkpt lat="42.711335001513362" lon="-7.121928026899695">
        <ele>1272</ele>
        <time>2018-05-21T09:59:08Z</time>
      </trkpt>
      <trkpt lat="42.711293008178473" lon="-7.121854014694691">
        <ele>1288</ele>
        <time>2018-05-21T09:59:10Z</time>
      </trkpt>
      <trkpt lat="42.711273981258273" lon="-7.121807998046279">
        <ele>1288</ele>
        <time>2018-05-21T09:59:12Z</time>
      </trkpt>
      <trkpt lat="42.711255038157105" lon="-7.121749995276332">
        <ele>1288</ele>
        <time>2018-05-21T09:59:13Z</time>
      </trkpt>
      <trkpt lat="42.711241040378809" lon="-7.121686963364482">
        <ele>1288</ele>
        <time>2018-05-21T09:59:14Z</time>
      </trkpt>
      <trkpt lat="42.711212961003184" lon="-7.121644970029593">
        <ele>1288</ele>
        <time>2018-05-21T09:59:16Z</time>
      </trkpt>
      <trkpt lat="42.711168034002185" lon="-7.121555032208562">
        <ele>1288</ele>
        <time>2018-05-21T09:59:18Z</time>
      </trkpt>
      <trkpt lat="42.711163004860282" lon="-7.121548997238278">
        <ele>1288</ele>
        <time>2018-05-21T09:59:18Z</time>
      </trkpt>
      <trkpt lat="42.711144983768463" lon="-7.121502980589867">
        <ele>1288</ele>
        <time>2018-05-21T09:59:19Z</time>
      </trkpt>
      <trkpt lat="42.711135009303689" lon="-7.121451012790203">
        <ele>1288</ele>
        <time>2018-05-21T09:59:21Z</time>
      </trkpt>
      <trkpt lat="42.711111959069967" lon="-7.121404996141791">
        <ele>1288</ele>
        <time>2018-05-21T09:59:22Z</time>
      </trkpt>
      <trkpt lat="42.711088992655277" lon="-7.121354034170508">
        <ele>1288</ele>
        <time>2018-05-21T09:59:23Z</time>
      </trkpt>
      <trkpt lat="42.711060997098684" lon="-7.121301982551813">
        <ele>1288</ele>
        <time>2018-05-21T09:59:25Z</time>
      </trkpt>
      <trkpt lat="42.711036019027233" lon="-7.121255965903401">
        <ele>1288</ele>
        <time>2018-05-21T09:59:26Z</time>
      </trkpt>
      <trkpt lat="42.711025038734078" lon="-7.12120802141726">
        <ele>1288</ele>
        <time>2018-05-21T09:59:27Z</time>
      </trkpt>
      <trkpt lat="42.711015986278653" lon="-7.121155969798565">
        <ele>1275</ele>
        <time>2018-05-21T09:59:28Z</time>
      </trkpt>
      <trkpt lat="42.711006011813879" lon="-7.121105007827282">
        <ele>1275</ele>
        <time>2018-05-21T09:59:29Z</time>
      </trkpt>
      <trkpt lat="42.710996959358454" lon="-7.12105899117887">
        <ele>1275</ele>
        <time>2018-05-21T09:59:30Z</time>
      </trkpt>
      <trkpt lat="42.710973992943764" lon="-7.121007023379207">
        <ele>1275</ele>
        <time>2018-05-21T09:59:32Z</time>
      </trkpt>
      <trkpt lat="42.710940968245268" lon="-7.120967041701078">
        <ele>1275</ele>
        <time>2018-05-21T09:59:33Z</time>
      </trkpt>
      <trkpt lat="42.710912972688675" lon="-7.120932005345821">
        <ele>1275</ele>
        <time>2018-05-21T09:59:34Z</time>
      </trkpt>
      <trkpt lat="42.710880031809211" lon="-7.120909038931131">
        <ele>1275</ele>
        <time>2018-05-21T09:59:35Z</time>
      </trkpt>
      <trkpt lat="42.710847007110715" lon="-7.120892023667693">
        <ele>1275</ele>
        <time>2018-05-21T09:59:36Z</time>
      </trkpt>
      <trkpt lat="42.710824040696025" lon="-7.120851958170533">
        <ele>1275</ele>
        <time>2018-05-21T09:59:37Z</time>
      </trkpt>
      <trkpt lat="42.710806019604206" lon="-7.120806025341153">
        <ele>1275</ele>
        <time>2018-05-21T09:59:38Z</time>
      </trkpt>
      <trkpt lat="42.71079202182591" lon="-7.120760008692741">
        <ele>1275</ele>
        <time>2018-05-21T09:59:39Z</time>
      </trkpt>
      <trkpt lat="42.71077299490571" lon="-7.120708040893078">
        <ele>1275</ele>
        <time>2018-05-21T09:59:41Z</time>
      </trkpt>
      <trkpt lat="42.710753967985511" lon="-7.120662024244666">
        <ele>1275</ele>
        <time>2018-05-21T09:59:42Z</time>
      </trkpt>
      <trkpt lat="42.710736030712724" lon="-7.120593963190913">
        <ele>1275</ele>
        <time>2018-05-21T09:59:43Z</time>
      </trkpt>
      <trkpt lat="42.710723038762808" lon="-7.120544007048011">
        <ele>1275</ele>
        <time>2018-05-21T09:59:45Z</time>
      </trkpt>
      <trkpt lat="42.710704011842608" lon="-7.120468989014626">
        <ele>1275</ele>
        <time>2018-05-21T09:59:46Z</time>
      </trkpt>
      <trkpt lat="42.710699988529086" lon="-7.120410986244679">
        <ele>1275</ele>
        <time>2018-05-21T09:59:48Z</time>
      </trkpt>
      <trkpt lat="42.710699988529086" lon="-7.120360024273396">
        <ele>1275</ele>
        <time>2018-05-21T09:59:49Z</time>
      </trkpt>
      <trkpt lat="42.710699988529086" lon="-7.120302021503449">
        <ele>1265</ele>
        <time>2018-05-21T09:59:50Z</time>
      </trkpt>
      <trkpt lat="42.710699988529086" lon="-7.120250975713134">
        <ele>1265</ele>
        <time>2018-05-21T09:59:51Z</time>
      </trkpt>
      <trkpt lat="42.710699988529086" lon="-7.120181992650032">
        <ele>1265</ele>
        <time>2018-05-21T09:59:53Z</time>
      </trkpt>
      <trkpt lat="42.710699988529086" lon="-7.120106974616647">
        <ele>1265</ele>
        <time>2018-05-21T09:59:54Z</time>
      </trkpt>
      <trkpt lat="42.710699988529086" lon="-7.120008990168572">
        <ele>1265</ele>
        <time>2018-05-21T09:59:56Z</time>
      </trkpt>
      <trkpt lat="42.710699988529086" lon="-7.119945958256722">
        <ele>1265</ele>
        <time>2018-05-21T09:59:58Z</time>
      </trkpt>
      <trkpt lat="42.710699988529086" lon="-7.11987697519362">
        <ele>1265</ele>
        <time>2018-05-21T09:59:59Z</time>
      </trkpt>
      <trkpt lat="42.710694959387183" lon="-7.119807992130518">
        <ele>1265</ele>
        <time>2018-05-21T10:00:01Z</time>
      </trkpt>
      <trkpt lat="42.710694959387183" lon="-7.119740014895797">
        <ele>1265</ele>
        <time>2018-05-21T10:00:02Z</time>
      </trkpt>
      <trkpt lat="42.710694959387183" lon="-7.11968201212585">
        <ele>1255</ele>
        <time>2018-05-21T10:00:03Z</time>
      </trkpt>
      <trkpt lat="42.710690014064312" lon="-7.119631972163916">
        <ele>1265</ele>
        <time>2018-05-21T10:00:05Z</time>
      </trkpt>
      <trkpt lat="42.710671992972493" lon="-7.119598025456071">
        <ele>1265</ele>
        <time>2018-05-21T10:00:06Z</time>
      </trkpt>
      <trkpt lat="42.710652966052294" lon="-7.119545973837376">
        <ele>1265</ele>
        <time>2018-05-21T10:00:07Z</time>
      </trkpt>
      <trkpt lat="42.710638968273997" lon="-7.119483025744557">
        <ele>1255</ele>
        <time>2018-05-21T10:00:08Z</time>
      </trkpt>
      <trkpt lat="42.710624970495701" lon="-7.11942502297461">
        <ele>1255</ele>
        <time>2018-05-21T10:00:10Z</time>
      </trkpt>
      <trkpt lat="42.71062002517283" lon="-7.119356039911509">
        <ele>1255</ele>
        <time>2018-05-21T10:00:11Z</time>
      </trkpt>
      <trkpt lat="42.710616001859307" lon="-7.119304994121194">
        <ele>1255</ele>
        <time>2018-05-21T10:00:12Z</time>
      </trkpt>
      <trkpt lat="42.710610972717404" lon="-7.119246991351247">
        <ele>1255</ele>
        <time>2018-05-21T10:00:13Z</time>
      </trkpt>
      <trkpt lat="42.710602004081011" lon="-7.119196029379964">
        <ele>1255</ele>
        <time>2018-05-21T10:00:15Z</time>
      </trkpt>
      <trkpt lat="42.710596974939108" lon="-7.119141966104507">
        <ele>1255</ele>
        <time>2018-05-21T10:00:16Z</time>
      </trkpt>
      <trkpt lat="42.710588006302714" lon="-7.119094021618366">
        <ele>1255</ele>
        <time>2018-05-21T10:00:17Z</time>
      </trkpt>
      <trkpt lat="42.71057803183794" lon="-7.119041969999671">
        <ele>1255</ele>
        <time>2018-05-21T10:00:18Z</time>
      </trkpt>
      <trkpt lat="42.710574008524418" lon="-7.118984973058105">
        <ele>1255</ele>
        <time>2018-05-21T10:00:19Z</time>
      </trkpt>
      <trkpt lat="42.710568979382515" lon="-7.118933005258441">
        <ele>1255</ele>
        <time>2018-05-21T10:00:20Z</time>
      </trkpt>
      <trkpt lat="42.710560010746121" lon="-7.118881037458777">
        <ele>1255</ele>
        <time>2018-05-21T10:00:22Z</time>
      </trkpt>
      <trkpt lat="42.710554981604218" lon="-7.118829991668463">
        <ele>1255</ele>
        <time>2018-05-21T10:00:23Z</time>
      </trkpt>
      <trkpt lat="42.710550036281347" lon="-7.118766959756613">
        <ele>1255</ele>
        <time>2018-05-21T10:00:24Z</time>
      </trkpt>
      <trkpt lat="42.710550036281347" lon="-7.118703005835414">
        <ele>1245</ele>
        <time>2018-05-21T10:00:25Z</time>
      </trkpt>
      <trkpt lat="42.710546012967825" lon="-7.118639973923564">
        <ele>1245</ele>
        <time>2018-05-21T10:00:27Z</time>
      </trkpt>
      <trkpt lat="42.710546012967825" lon="-7.118582976981998">
        <ele>1245</ele>
        <time>2018-05-21T10:00:28Z</time>
      </trkpt>
      <trkpt lat="42.710546012967825" lon="-7.118513993918896">
        <ele>1245</ele>
        <time>2018-05-21T10:00:30Z</time>
      </trkpt>
      <trkpt lat="42.710540983825922" lon="-7.118455991148949">
        <ele>1245</ele>
        <time>2018-05-21T10:00:31Z</time>
      </trkpt>
      <trkpt lat="42.710532015189528" lon="-7.118403017520905">
        <ele>1245</ele>
        <time>2018-05-21T10:00:32Z</time>
      </trkpt>
      <trkpt lat="42.710518017411232" lon="-7.118323976173997">
        <ele>1245</ele>
        <time>2018-05-21T10:00:34Z</time>
      </trkpt>
      <trkpt lat="42.71051399409771" lon="-7.118311990052462">
        <ele>1245</ele>
        <time>2018-05-21T10:00:34Z</time>
      </trkpt>
      <trkpt lat="42.71049496717751" lon="-7.118278965353966">
        <ele>1245</ele>
        <time>2018-05-21T10:00:35Z</time>
      </trkpt>
      <trkpt lat="42.710480969399214" lon="-7.118249963968992">
        <ele>1245</ele>
        <time>2018-05-21T10:00:36Z</time>
      </trkpt>
      <trkpt lat="42.710456997156143" lon="-7.118236972019076">
        <ele>1261</ele>
        <time>2018-05-21T10:00:37Z</time>
      </trkpt>
      <trkpt lat="42.710426989942789" lon="-7.118216017261148">
        <ele>1261</ele>
        <time>2018-05-21T10:00:38Z</time>
      </trkpt>
      <trkpt lat="42.710400000214577" lon="-7.118195984512568">
        <ele>1261</ele>
        <time>2018-05-21T10:00:39Z</time>
      </trkpt>
      <trkpt lat="42.710373010486364" lon="-7.118171006441116">
        <ele>1261</ele>
        <time>2018-05-21T10:00:40Z</time>
      </trkpt>
      <trkpt lat="42.710336968302727" lon="-7.118149967864156">
        <ele>1261</ele>
        <time>2018-05-21T10:00:41Z</time>
      </trkpt>
      <trkpt lat="42.710296986624599" lon="-7.118125995621085">
        <ele>1261</ele>
        <time>2018-05-21T10:00:42Z</time>
      </trkpt>
      <trkpt lat="42.710266979411244" lon="-7.118108980357647">
        <ele>1261</ele>
        <time>2018-05-21T10:00:43Z</time>
      </trkpt>
      <trkpt lat="42.710239989683032" lon="-7.118089031428099">
        <ele>1261</ele>
        <time>2018-05-21T10:00:44Z</time>
      </trkpt>
      <trkpt lat="42.710218029096723" lon="-7.118075033649802">
        <ele>1261</ele>
        <time>2018-05-21T10:00:45Z</time>
      </trkpt>
      <trkpt lat="42.710188021883368" lon="-7.118066987022758">
        <ele>1261</ele>
        <time>2018-05-21T10:00:45Z</time>
      </trkpt>
      <trkpt lat="42.710161032155156" lon="-7.118055000901222">
        <ele>1261</ele>
        <time>2018-05-21T10:00:46Z</time>
      </trkpt>
      <trkpt lat="42.71012800745666" lon="-7.118042008951306">
        <ele>1261</ele>
        <time>2018-05-21T10:00:47Z</time>
      </trkpt>
      <trkpt lat="42.710100011900067" lon="-7.118042008951306">
        <ele>1261</ele>
        <time>2018-05-21T10:00:48Z</time>
      </trkpt>
      <trkpt lat="42.709996998310089" lon="-7.118012001737952">
        <ele>1261</ele>
        <time>2018-05-21T10:00:51Z</time>
      </trkpt>
      <trkpt lat="42.709878981113434" lon="-7.117984006181359">
        <ele>1261</ele>
        <time>2018-05-21T10:00:55Z</time>
      </trkpt>
      <trkpt lat="42.709744032472372" lon="-7.117903959006071">
        <ele>1261</ele>
        <time>2018-05-21T10:00:59Z</time>
      </trkpt>
      <trkpt lat="42.709733974188566" lon="-7.117895996198058">
        <ele>1261</ele>
        <time>2018-05-21T10:01:00Z</time>
      </trkpt>
      <trkpt lat="42.709710001945496" lon="-7.117879986763001">
        <ele>1239</ele>
        <time>2018-05-21T10:01:00Z</time>
      </trkpt>
      <trkpt lat="42.709684018045664" lon="-7.117862971499562">
        <ele>1239</ele>
        <time>2018-05-21T10:01:01Z</time>
      </trkpt>
      <trkpt lat="42.709657028317451" lon="-7.117843022570014">
        <ele>1239</ele>
        <time>2018-05-21T10:01:02Z</time>
      </trkpt>
      <trkpt lat="42.709630038589239" lon="-7.117830030620098">
        <ele>1268</ele>
        <time>2018-05-21T10:01:03Z</time>
      </trkpt>
      <trkpt lat="42.709619980305433" lon="-7.117800023406744">
        <ele>1268</ele>
        <time>2018-05-21T10:01:04Z</time>
      </trkpt>
      <trkpt lat="42.709610005840659" lon="-7.117762975394726">
        <ele>1268</ele>
        <time>2018-05-21T10:01:05Z</time>
      </trkpt>
      <trkpt lat="42.709605982527137" lon="-7.117729028686881">
        <ele>1268</ele>
        <time>2018-05-21T10:01:05Z</time>
      </trkpt>
      <trkpt lat="42.709602965041995" lon="-7.117688041180372">
        <ele>1268</ele>
        <time>2018-05-21T10:01:06Z</time>
      </trkpt>
      <trkpt lat="42.709602965041995" lon="-7.117650993168354">
        <ele>1268</ele>
        <time>2018-05-21T10:01:07Z</time>
      </trkpt>
      <trkpt lat="42.709602965041995" lon="-7.117610005661845">
        <ele>1268</ele>
        <time>2018-05-21T10:01:08Z</time>
      </trkpt>
      <trkpt lat="42.709602965041995" lon="-7.117569018155336">
        <ele>1268</ele>
        <time>2018-05-21T10:01:09Z</time>
      </trkpt>
      <trkpt lat="42.709602965041995" lon="-7.117528030648828">
        <ele>1268</ele>
        <time>2018-05-21T10:01:10Z</time>
      </trkpt>
      <trkpt lat="42.709602965041995" lon="-7.117486037313938">
        <ele>1268</ele>
        <time>2018-05-21T10:01:11Z</time>
      </trkpt>
      <trkpt lat="42.709605982527137" lon="-7.11744898930192">
        <ele>1268</ele>
        <time>2018-05-21T10:01:12Z</time>
      </trkpt>
      <trkpt lat="42.709613023325801" lon="-7.117401966825128">
        <ele>1268</ele>
        <time>2018-05-21T10:01:13Z</time>
      </trkpt>
      <trkpt lat="42.709613023325801" lon="-7.117365002632141">
        <ele>1268</ele>
        <time>2018-05-21T10:01:13Z</time>
      </trkpt>
      <trkpt lat="42.709616040810943" lon="-7.117324015125632">
        <ele>1268</ele>
        <time>2018-05-21T10:01:14Z</time>
      </trkpt>
      <trkpt lat="42.709616040810943" lon="-7.117286967113614">
        <ele>1268</ele>
        <time>2018-05-21T10:01:15Z</time>
      </trkpt>
      <trkpt lat="42.709618974477053" lon="-7.117244973778725">
        <ele>1268</ele>
        <time>2018-05-21T10:01:16Z</time>
      </trkpt>
      <trkpt lat="42.70963498391211" lon="-7.117073982954025">
        <ele>1268</ele>
        <time>2018-05-21T10:01:20Z</time>
      </trkpt>
      <trkpt lat="42.709700027480721" lon="-7.116887988522649">
        <ele>1238</ele>
        <time>2018-05-21T10:01:25Z</time>
      </trkpt>
      <trkpt lat="42.709744032472372" lon="-7.11669797077775">
        <ele>1238</ele>
        <time>2018-05-21T10:01:29Z</time>
      </trkpt>
      <trkpt lat="42.709794994443655" lon="-7.116595963016152">
        <ele>1238</ele>
        <time>2018-05-21T10:01:32Z</time>
      </trkpt>
      <trkpt lat="42.709816033020616" lon="-7.116452967748046">
        <ele>1238</ele>
        <time>2018-05-21T10:01:35Z</time>
      </trkpt>
      <trkpt lat="42.709840005263686" lon="-7.116293041035533">
        <ele>1238</ele>
        <time>2018-05-21T10:01:38Z</time>
      </trkpt>
      <trkpt lat="42.709887027740479" lon="-7.116178041324019">
        <ele>1247</ele>
        <time>2018-05-21T10:01:41Z</time>
      </trkpt>
      <trkpt lat="42.709930026903749" lon="-7.116037979722023">
        <ele>1247</ele>
        <time>2018-05-21T10:01:44Z</time>
      </trkpt>
      <trkpt lat="42.709993980824947" lon="-7.115841004997492">
        <ele>1247</ele>
        <time>2018-05-21T10:01:49Z</time>
      </trkpt>
      <trkpt lat="42.710047038272023" lon="-7.115717958658934">
        <ele>1247</ele>
        <time>2018-05-21T10:01:52Z</time>
      </trkpt>
      <trkpt lat="42.710110992193222" lon="-7.115584015846252">
        <ele>1247</ele>
        <time>2018-05-21T10:01:56Z</time>
      </trkpt>
      <trkpt lat="42.710172012448311" lon="-7.115491982549429">
        <ele>1247</ele>
        <time>2018-05-21T10:01:58Z</time>
      </trkpt>
      <trkpt lat="42.710182992741466" lon="-7.115464992821217">
        <ele>1247</ele>
        <time>2018-05-21T10:01:59Z</time>
      </trkpt>
      <trkpt lat="42.710205959156156" lon="-7.115430040284991">
        <ele>1247</ele>
        <time>2018-05-21T10:02:00Z</time>
      </trkpt>
      <trkpt lat="42.71023403853178" lon="-7.11540699005127">
        <ele>1247</ele>
        <time>2018-05-21T10:02:01Z</time>
      </trkpt>
      <trkpt lat="42.71025700494647" lon="-7.115360973402858">
        <ele>1247</ele>
        <time>2018-05-21T10:02:02Z</time>
      </trkpt>
      <trkpt lat="42.710280977189541" lon="-7.11532099172473">
        <ele>1247</ele>
        <time>2018-05-21T10:02:03Z</time>
      </trkpt>
      <trkpt lat="42.710306961089373" lon="-7.115283021703363">
        <ele>1255</ele>
        <time>2018-05-21T10:02:05Z</time>
      </trkpt>
      <trkpt lat="42.710334034636617" lon="-7.11525795981288">
        <ele>1255</ele>
        <time>2018-05-21T10:02:06Z</time>
      </trkpt>
      <trkpt lat="42.710351971909404" lon="-7.1152120269835">
        <ele>1255</ele>
        <time>2018-05-21T10:02:07Z</time>
      </trkpt>
      <trkpt lat="42.710367981344461" lon="-7.115161987021565">
        <ele>1255</ele>
        <time>2018-05-21T10:02:08Z</time>
      </trkpt>
      <trkpt lat="42.710373010486364" lon="-7.115113958716393">
        <ele>1255</ele>
        <time>2018-05-21T10:02:09Z</time>
      </trkpt>
      <trkpt lat="42.710381979122758" lon="-7.115054028108716">
        <ele>1255</ele>
        <time>2018-05-21T10:02:10Z</time>
      </trkpt>
      <trkpt lat="42.710395976901054" lon="-7.115008011460304">
        <ele>1255</ele>
        <time>2018-05-21T10:02:11Z</time>
      </trkpt>
      <trkpt lat="42.710407041013241" lon="-7.114959983155131">
        <ele>1255</ele>
        <time>2018-05-21T10:02:12Z</time>
      </trkpt>
      <trkpt lat="42.710425984114408" lon="-7.114926036447287">
        <ele>1255</ele>
        <time>2018-05-21T10:02:13Z</time>
      </trkpt>
      <trkpt lat="42.710439981892705" lon="-7.114873984828591">
        <ele>1255</ele>
        <time>2018-05-21T10:02:15Z</time>
      </trkpt>
      <trkpt lat="42.71044903434813" lon="-7.114822017028928">
        <ele>1255</ele>
        <time>2018-05-21T10:02:16Z</time>
      </trkpt>
      <trkpt lat="42.71047200076282" lon="-7.114794021472335">
        <ele>1255</ele>
        <time>2018-05-21T10:02:17Z</time>
      </trkpt>
      <trkpt lat="42.71049102768302" lon="-7.114756973460317">
        <ele>1228</ele>
        <time>2018-05-21T10:02:18Z</time>
      </trkpt>
      <trkpt lat="42.710510976612568" lon="-7.114707017317414">
        <ele>1228</ele>
        <time>2018-05-21T10:02:19Z</time>
      </trkpt>
      <trkpt lat="42.710530003532767" lon="-7.114661000669003">
        <ele>1228</ele>
        <time>2018-05-21T10:02:20Z</time>
      </trkpt>
      <trkpt lat="42.710544001311064" lon="-7.114621018990874">
        <ele>1228</ele>
        <time>2018-05-21T10:02:21Z</time>
      </trkpt>
      <trkpt lat="42.71055799908936" lon="-7.114575002342463">
        <ele>1228</ele>
        <time>2018-05-21T10:02:22Z</time>
      </trkpt>
      <trkpt lat="42.710573002696037" lon="-7.114533009007573">
        <ele>1228</ele>
        <time>2018-05-21T10:02:23Z</time>
      </trkpt>
      <trkpt lat="42.710597980767488" lon="-7.114491015672684">
        <ele>1228</ele>
        <time>2018-05-21T10:02:24Z</time>
      </trkpt>
      <trkpt lat="42.710608039051294" lon="-7.114442987367511">
        <ele>1234</ele>
        <time>2018-05-21T10:02:25Z</time>
      </trkpt>
      <trkpt lat="42.710608039051294" lon="-7.114384984597564">
        <ele>1234</ele>
        <time>2018-05-21T10:02:27Z</time>
      </trkpt>
      <trkpt lat="42.710608039051294" lon="-7.114334022626281">
        <ele>1234</ele>
        <time>2018-05-21T10:02:28Z</time>
      </trkpt>
      <trkpt lat="42.710608039051294" lon="-7.114259004592896">
        <ele>1234</ele>
        <time>2018-05-21T10:02:29Z</time>
      </trkpt>
      <trkpt lat="42.710608039051294" lon="-7.114205025136471">
        <ele>1234</ele>
        <time>2018-05-21T10:02:30Z</time>
      </trkpt>
      <trkpt lat="42.710608039051294" lon="-7.114152973517776">
        <ele>1234</ele>
        <time>2018-05-21T10:02:32Z</time>
      </trkpt>
      <trkpt lat="42.710594041272998" lon="-7.114105029031634">
        <ele>1234</ele>
        <time>2018-05-21T10:02:33Z</time>
      </trkpt>
      <trkpt lat="42.71057803183794" lon="-7.114046020433307">
        <ele>1234</ele>
        <time>2018-05-21T10:02:34Z</time>
      </trkpt>
      <trkpt lat="42.710559004917741" lon="-7.113997992128134">
        <ele>1234</ele>
        <time>2018-05-21T10:02:35Z</time>
      </trkpt>
      <trkpt lat="42.710545007139444" lon="-7.113933032378554">
        <ele>1234</ele>
        <time>2018-05-21T10:02:37Z</time>
      </trkpt>
      <trkpt lat="42.710526986047626" lon="-7.113887015730143">
        <ele>1234</ele>
        <time>2018-05-21T10:02:38Z</time>
      </trkpt>
      <trkpt lat="42.710503013804555" lon="-7.113851979374886">
        <ele>1234</ele>
        <time>2018-05-21T10:02:39Z</time>
      </trkpt>
      <trkpt lat="42.710489016026258" lon="-7.113799005746841">
        <ele>1234</ele>
        <time>2018-05-21T10:02:40Z</time>
      </trkpt>
      <trkpt lat="42.710353983566165" lon="-7.113665984943509">
        <ele>1255</ele>
        <time>2018-05-21T10:02:45Z</time>
      </trkpt>
      <trkpt lat="42.71027603186667" lon="-7.113557020202279">
        <ele>1247</ele>
        <time>2018-05-21T10:02:48Z</time>
      </trkpt>
      <trkpt lat="42.710177041590214" lon="-7.113388041034341">
        <ele>1247</ele>
        <time>2018-05-21T10:02:53Z</time>
      </trkpt>
      <trkpt lat="42.710115015506744" lon="-7.11328100413084">
        <ele>1247</ele>
        <time>2018-05-21T10:02:56Z</time>
      </trkpt>
      <trkpt lat="42.710095988586545" lon="-7.113241022452712">
        <ele>1247</ele>
        <time>2018-05-21T10:02:57Z</time>
      </trkpt>
      <trkpt lat="42.710073022171855" lon="-7.1131950058043">
        <ele>1247</ele>
        <time>2018-05-21T10:02:58Z</time>
      </trkpt>
      <trkpt lat="42.710062963888049" lon="-7.113148989155889">
        <ele>1247</ele>
        <time>2018-05-21T10:02:59Z</time>
      </trkpt>
      <trkpt lat="42.710045026615262" lon="-7.113102972507477">
        <ele>1247</ele>
        <time>2018-05-21T10:03:01Z</time>
      </trkpt>
      <trkpt lat="42.710017031058669" lon="-7.113057039678097">
        <ele>1247</ele>
        <time>2018-05-21T10:03:02Z</time>
      </trkpt>
      <trkpt lat="42.710001021623611" lon="-7.113011023029685">
        <ele>1247</ele>
        <time>2018-05-21T10:03:03Z</time>
      </trkpt>
      <trkpt lat="42.709995992481709" lon="-7.11295897141099">
        <ele>1247</ele>
        <time>2018-05-21T10:03:04Z</time>
      </trkpt>
      <trkpt lat="42.709981994703412" lon="-7.11291303858161">
        <ele>1247</ele>
        <time>2018-05-21T10:03:05Z</time>
      </trkpt>
      <trkpt lat="42.70997797138989" lon="-7.112860986962915">
        <ele>1247</ele>
        <time>2018-05-21T10:03:06Z</time>
      </trkpt>
      <trkpt lat="42.709959028288722" lon="-7.112803990021348">
        <ele>1234</ele>
        <time>2018-05-21T10:03:08Z</time>
      </trkpt>
      <trkpt lat="42.709945030510426" lon="-7.112740958109498">
        <ele>1234</ele>
        <time>2018-05-21T10:03:09Z</time>
      </trkpt>
      <trkpt lat="42.709935978055" lon="-7.112695025280118">
        <ele>1234</ele>
        <time>2018-05-21T10:03:10Z</time>
      </trkpt>
      <trkpt lat="42.709927009418607" lon="-7.112642973661423">
        <ele>1234</ele>
        <time>2018-05-21T10:03:11Z</time>
      </trkpt>
      <trkpt lat="42.709927009418607" lon="-7.112584970891476">
        <ele>1234</ele>
        <time>2018-05-21T10:03:13Z</time>
      </trkpt>
      <trkpt lat="42.709927009418607" lon="-7.112527973949909">
        <ele>1234</ele>
        <time>2018-05-21T10:03:14Z</time>
      </trkpt>
      <trkpt lat="42.709927009418607" lon="-7.112453039735556">
        <ele>1234</ele>
        <time>2018-05-21T10:03:16Z</time>
      </trkpt>
      <trkpt lat="42.709927009418607" lon="-7.112401993945241">
        <ele>1234</ele>
        <time>2018-05-21T10:03:17Z</time>
      </trkpt>
      <trkpt lat="42.709927009418607" lon="-7.112350026145577">
        <ele>1234</ele>
        <time>2018-05-21T10:03:18Z</time>
      </trkpt>
      <trkpt lat="42.709927009418607" lon="-7.112297974526882">
        <ele>1234</ele>
        <time>2018-05-21T10:03:19Z</time>
      </trkpt>
      <trkpt lat="42.709935978055" lon="-7.112252041697502">
        <ele>1234</ele>
        <time>2018-05-21T10:03:20Z</time>
      </trkpt>
      <trkpt lat="42.709935978055" lon="-7.112189009785652">
        <ele>1234</ele>
        <time>2018-05-21T10:03:21Z</time>
      </trkpt>
      <trkpt lat="42.709945030510426" lon="-7.112137963995338">
        <ele>1234</ele>
        <time>2018-05-21T10:03:23Z</time>
      </trkpt>
      <trkpt lat="42.709959028288722" lon="-7.112090019509196">
        <ele>1234</ele>
        <time>2018-05-21T10:03:24Z</time>
      </trkpt>
      <trkpt lat="42.709973026067019" lon="-7.112037967890501">
        <ele>1234</ele>
        <time>2018-05-21T10:03:25Z</time>
      </trkpt>
      <trkpt lat="42.709991969168186" lon="-7.112003015354276">
        <ele>1234</ele>
        <time>2018-05-21T10:03:26Z</time>
      </trkpt>
      <trkpt lat="42.710005966946483" lon="-7.111954987049103">
        <ele>1228</ele>
        <time>2018-05-21T10:03:27Z</time>
      </trkpt>
      <trkpt lat="42.710009990260005" lon="-7.111897990107536">
        <ele>1228</ele>
        <time>2018-05-21T10:03:28Z</time>
      </trkpt>
      <trkpt lat="42.710009990260005" lon="-7.111846022307873">
        <ele>1228</ele>
        <time>2018-05-21T10:03:30Z</time>
      </trkpt>
      <trkpt lat="42.710009990260005" lon="-7.111794976517558">
        <ele>1228</ele>
        <time>2018-05-21T10:03:31Z</time>
      </trkpt>
      <trkpt lat="42.710009990260005" lon="-7.111743008717895">
        <ele>1228</ele>
        <time>2018-05-21T10:03:32Z</time>
      </trkpt>
      <trkpt lat="42.710009990260005" lon="-7.11168902926147">
        <ele>1228</ele>
        <time>2018-05-21T10:03:33Z</time>
      </trkpt>
      <trkpt lat="42.710001021623611" lon="-7.111637983471155">
        <ele>1228</ele>
        <time>2018-05-21T10:03:34Z</time>
      </trkpt>
      <trkpt lat="42.709991969168186" lon="-7.111591966822743">
        <ele>1228</ele>
        <time>2018-05-21T10:03:35Z</time>
      </trkpt>
      <trkpt lat="42.70997897721827" lon="-7.111541004851461">
        <ele>1228</ele>
        <time>2018-05-21T10:03:36Z</time>
      </trkpt>
      <trkpt lat="42.709964979439974" lon="-7.111504962667823">
        <ele>1228</ele>
        <time>2018-05-21T10:03:37Z</time>
      </trkpt>
      <trkpt lat="42.709947964176536" lon="-7.111465986818075">
        <ele>1228</ele>
        <time>2018-05-21T10:03:38Z</time>
      </trkpt>
      <trkpt lat="42.709923991933465" lon="-7.111435979604721">
        <ele>1228</ele>
        <time>2018-05-21T10:03:39Z</time>
      </trkpt>
      <trkpt lat="42.70982701331377" lon="-7.111372025683522">
        <ele>1228</ele>
        <time>2018-05-21T10:03:42Z</time>
      </trkpt>
      <trkpt lat="42.709819972515106" lon="-7.111372025683522">
        <ele>1228</ele>
        <time>2018-05-21T10:03:43Z</time>
      </trkpt>
      <trkpt lat="42.709718970581889" lon="-7.111302958801389">
        <ele>1228</ele>
        <time>2018-05-21T10:03:46Z</time>
      </trkpt>
      <trkpt lat="42.709648981690407" lon="-7.111286027356982">
        <ele>1237</ele>
        <time>2018-05-21T10:03:48Z</time>
      </trkpt>
      <trkpt lat="42.709616040810943" lon="-7.111286027356982">
        <ele>1237</ele>
        <time>2018-05-21T10:03:49Z</time>
      </trkpt>
      <trkpt lat="42.709573963657022" lon="-7.111286027356982">
        <ele>1237</ele>
        <time>2018-05-21T10:03:50Z</time>
      </trkpt>
      <trkpt lat="42.709545968100429" lon="-7.111302958801389">
        <ele>1237</ele>
        <time>2018-05-21T10:03:51Z</time>
      </trkpt>
      <trkpt lat="42.709513027220964" lon="-7.111326009035111">
        <ele>1237</ele>
        <time>2018-05-21T10:03:52Z</time>
      </trkpt>
      <trkpt lat="42.709484025835991" lon="-7.111357022076845">
        <ele>1237</ele>
        <time>2018-05-21T10:03:53Z</time>
      </trkpt>
      <trkpt lat="42.709451001137495" lon="-7.111371019855142">
        <ele>1237</ele>
        <time>2018-05-21T10:03:55Z</time>
      </trkpt>
      <trkpt lat="42.709414036944509" lon="-7.111375965178013">
        <ele>1237</ele>
        <time>2018-05-21T10:03:56Z</time>
      </trkpt>
      <trkpt lat="42.709373971447349" lon="-7.111375965178013">
        <ele>1237</ele>
        <time>2018-05-21T10:03:57Z</time>
      </trkpt>
      <trkpt lat="42.70933398976922" lon="-7.111375965178013">
        <ele>1237</ele>
        <time>2018-05-21T10:03:58Z</time>
      </trkpt>
      <trkpt lat="42.709293002262712" lon="-7.111375965178013">
        <ele>1237</ele>
        <time>2018-05-21T10:03:59Z</time>
      </trkpt>
      <trkpt lat="42.709214966744184" lon="-7.111384011805058">
        <ele>1237</ele>
        <time>2018-05-21T10:04:02Z</time>
      </trkpt>
      <trkpt lat="42.709085969254375" lon="-7.111391974613071">
        <ele>1237</ele>
        <time>2018-05-21T10:04:05Z</time>
      </trkpt>
      <trkpt lat="42.708974992856383" lon="-7.111391974613071">
        <ele>1237</ele>
        <time>2018-05-21T10:04:09Z</time>
      </trkpt>
      <trkpt lat="42.708806013688445" lon="-7.111398009583354">
        <ele>1237</ele>
        <time>2018-05-21T10:04:14Z</time>
      </trkpt>
      <trkpt lat="42.708641979843378" lon="-7.111400021240115">
        <ele>1243</ele>
        <time>2018-05-21T10:04:19Z</time>
      </trkpt>
      <trkpt lat="42.70847300067544" lon="-7.111400021240115">
        <ele>1243</ele>
        <time>2018-05-21T10:04:24Z</time>
      </trkpt>
      <trkpt lat="42.708347020670772" lon="-7.111393986269832">
        <ele>1243</ele>
        <time>2018-05-21T10:04:27Z</time>
      </trkpt>
      <trkpt lat="42.708217017352581" lon="-7.111371019855142">
        <ele>1243</ele>
        <time>2018-05-21T10:04:31Z</time>
      </trkpt>
      <trkpt lat="42.708205031231046" lon="-7.111371019855142">
        <ele>1243</ele>
        <time>2018-05-21T10:04:32Z</time>
      </trkpt>
      <trkpt lat="42.708165971562266" lon="-7.111371019855142">
        <ele>1243</ele>
        <time>2018-05-21T10:04:33Z</time>
      </trkpt>
      <trkpt lat="42.70812900736928" lon="-7.111364984884858">
        <ele>1243</ele>
        <time>2018-05-21T10:04:34Z</time>
      </trkpt>
      <trkpt lat="42.708081984892488" lon="-7.111364984884858">
        <ele>1243</ele>
        <time>2018-05-21T10:04:35Z</time>
      </trkpt>
      <trkpt lat="42.708036974072456" lon="-7.111364984884858">
        <ele>1243</ele>
        <time>2018-05-21T10:04:37Z</time>
      </trkpt>
      <trkpt lat="42.707994980737567" lon="-7.111364984884858">
        <ele>1243</ele>
        <time>2018-05-21T10:04:38Z</time>
      </trkpt>
      <trkpt lat="42.707959022372961" lon="-7.111354004591703">
        <ele>1243</ele>
        <time>2018-05-21T10:04:39Z</time>
      </trkpt>
      <trkpt lat="42.707925997674465" lon="-7.111296001821756">
        <ele>1256</ele>
        <time>2018-05-21T10:04:40Z</time>
      </trkpt>
      <trkpt lat="42.707898002117872" lon="-7.11126197129488">
        <ele>1256</ele>
        <time>2018-05-21T10:04:42Z</time>
      </trkpt>
      <trkpt lat="42.707870006561279" lon="-7.111221989616752">
        <ele>1256</ele>
        <time>2018-05-21T10:04:43Z</time>
      </trkpt>
      <trkpt lat="42.707836981862783" lon="-7.111178990453482">
        <ele>1256</ele>
        <time>2018-05-21T10:04:44Z</time>
      </trkpt>
      <trkpt lat="42.707819966599345" lon="-7.111139008775353">
        <ele>1246</ele>
        <time>2018-05-21T10:04:45Z</time>
      </trkpt>
      <trkpt lat="42.707797000184655" lon="-7.111095003783703">
        <ele>1246</ele>
        <time>2018-05-21T10:04:46Z</time>
      </trkpt>
      <trkpt lat="42.707774033769965" lon="-7.111052004620433">
        <ele>1246</ele>
        <time>2018-05-21T10:04:47Z</time>
      </trkpt>
      <trkpt lat="42.707749977707863" lon="-7.111005987972021">
        <ele>1246</ele>
        <time>2018-05-21T10:04:49Z</time>
      </trkpt>
      <trkpt lat="42.707732040435076" lon="-7.110966006293893">
        <ele>1246</ele>
        <time>2018-05-21T10:04:50Z</time>
      </trkpt>
      <trkpt lat="42.707707984372973" lon="-7.110914960503578">
        <ele>1246</ele>
        <time>2018-05-21T10:04:51Z</time>
      </trkpt>
      <trkpt lat="42.707689963281155" lon="-7.110873972997069">
        <ele>1246</ele>
        <time>2018-05-21T10:04:52Z</time>
      </trkpt>
      <trkpt lat="42.707675965502858" lon="-7.110828040167689">
        <ele>1246</ele>
        <time>2018-05-21T10:04:53Z</time>
      </trkpt>
      <trkpt lat="42.707651993259788" lon="-7.110783029347658">
        <ele>1246</ele>
        <time>2018-05-21T10:04:54Z</time>
      </trkpt>
      <trkpt lat="42.707631960511208" lon="-7.110740030184388">
        <ele>1246</ele>
        <time>2018-05-21T10:04:55Z</time>
      </trkpt>
      <trkpt lat="42.70761301741004" lon="-7.110712034627795">
        <ele>1246</ele>
        <time>2018-05-21T10:04:56Z</time>
      </trkpt>
      <trkpt lat="42.707584016025066" lon="-7.110674986615777">
        <ele>1246</ele>
        <time>2018-05-21T10:04:57Z</time>
      </trkpt>
      <trkpt lat="42.70754998549819" lon="-7.110645985230804">
        <ele>1246</ele>
        <time>2018-05-21T10:04:59Z</time>
      </trkpt>
      <trkpt lat="42.707526013255119" lon="-7.110612038522959">
        <ele>1248</ele>
        <time>2018-05-21T10:05:00Z</time>
      </trkpt>
      <trkpt lat="42.707502963021398" lon="-7.110571973025799">
        <ele>1246</ele>
        <time>2018-05-21T10:05:01Z</time>
      </trkpt>
      <trkpt lat="42.707481002435088" lon="-7.110527968034148">
        <ele>1246</ele>
        <time>2018-05-21T10:05:02Z</time>
      </trkpt>
      <trkpt lat="42.707467004656792" lon="-7.110482035204768">
        <ele>1246</ele>
        <time>2018-05-21T10:05:03Z</time>
      </trkpt>
      <trkpt lat="42.707467004656792" lon="-7.110424032434821">
        <ele>1246</ele>
        <time>2018-05-21T10:05:04Z</time>
      </trkpt>
      <trkpt lat="42.707472033798695" lon="-7.110369969159365">
        <ele>1246</ele>
        <time>2018-05-21T10:05:05Z</time>
      </trkpt>
      <trkpt lat="42.707481002435088" lon="-7.110324036329985">
        <ele>1248</ele>
        <time>2018-05-21T10:05:06Z</time>
      </trkpt>
      <trkpt lat="42.707489971071482" lon="-7.11027299053967">
        <ele>1248</ele>
        <time>2018-05-21T10:05:08Z</time>
      </trkpt>
      <trkpt lat="42.707503968849778" lon="-7.110226973891258">
        <ele>1248</ele>
        <time>2018-05-21T10:05:09Z</time>
      </trkpt>
      <trkpt lat="42.707522995769978" lon="-7.110175006091595">
        <ele>1248</ele>
        <time>2018-05-21T10:05:10Z</time>
      </trkpt>
      <trkpt lat="42.707531964406371" lon="-7.110118009150028">
        <ele>1248</ele>
        <time>2018-05-21T10:05:11Z</time>
      </trkpt>
      <trkpt lat="42.707550991326571" lon="-7.110066041350365">
        <ele>1248</ele>
        <time>2018-05-21T10:05:13Z</time>
      </trkpt>
      <trkpt lat="42.707564989104867" lon="-7.110008038580418">
        <ele>1248</ele>
        <time>2018-05-21T10:05:14Z</time>
      </trkpt>
      <trkpt lat="42.707584016025066" lon="-7.109956992790103">
        <ele>1248</ele>
        <time>2018-05-21T10:05:15Z</time>
      </trkpt>
      <trkpt lat="42.707598013803363" lon="-7.109905024990439">
        <ele>1248</ele>
        <time>2018-05-21T10:05:16Z</time>
      </trkpt>
      <trkpt lat="42.707616034895182" lon="-7.109852973371744">
        <ele>1248</ele>
        <time>2018-05-21T10:05:18Z</time>
      </trkpt>
      <trkpt lat="42.707634977996349" lon="-7.109807040542364">
        <ele>1248</ele>
        <time>2018-05-21T10:05:19Z</time>
      </trkpt>
      <trkpt lat="42.707654004916549" lon="-7.109761023893952">
        <ele>1248</ele>
        <time>2018-05-21T10:05:20Z</time>
      </trkpt>
      <trkpt lat="42.707658028230071" lon="-7.109709978103638">
        <ele>1248</ele>
        <time>2018-05-21T10:05:21Z</time>
      </trkpt>
      <trkpt lat="42.707672026008368" lon="-7.109647030010819">
        <ele>1248</ele>
        <time>2018-05-21T10:05:22Z</time>
      </trkpt>
      <trkpt lat="42.707690969109535" lon="-7.109594978392124">
        <ele>1248</ele>
        <time>2018-05-21T10:05:24Z</time>
      </trkpt>
      <trkpt lat="42.707704966887832" lon="-7.109548961743712">
        <ele>1248</ele>
        <time>2018-05-21T10:05:25Z</time>
      </trkpt>
      <trkpt lat="42.707714019343257" lon="-7.109503028914332">
        <ele>1252</ele>
        <time>2018-05-21T10:05:26Z</time>
      </trkpt>
      <trkpt lat="42.707736985757947" lon="-7.109457012265921">
        <ele>1252</ele>
        <time>2018-05-21T10:05:27Z</time>
      </trkpt>
      <trkpt lat="42.70776498131454" lon="-7.109393980354071">
        <ele>1252</ele>
        <time>2018-05-21T10:05:29Z</time>
      </trkpt>
      <trkpt lat="42.707778979092836" lon="-7.109347963705659">
        <ele>1252</ele>
        <time>2018-05-21T10:05:30Z</time>
      </trkpt>
      <trkpt lat="42.707789037376642" lon="-7.109295995905995">
        <ele>1252</ele>
        <time>2018-05-21T10:05:31Z</time>
      </trkpt>
      <trkpt lat="42.707798006013036" lon="-7.109249979257584">
        <ele>1252</ele>
        <time>2018-05-21T10:05:32Z</time>
      </trkpt>
      <trkpt lat="42.707806974649429" lon="-7.109180996194482">
        <ele>1252</ele>
        <time>2018-05-21T10:05:33Z</time>
      </trkpt>
      <trkpt lat="42.707806974649429" lon="-7.109130034223199">
        <ele>1252</ele>
        <time>2018-05-21T10:05:35Z</time>
      </trkpt>
      <trkpt lat="42.707806974649429" lon="-7.109063984826207">
        <ele>1252</ele>
        <time>2018-05-21T10:05:36Z</time>
      </trkpt>
      <trkpt lat="42.707806974649429" lon="-7.109013022854924">
        <ele>1252</ele>
        <time>2018-05-21T10:05:37Z</time>
      </trkpt>
      <trkpt lat="42.707801023498178" lon="-7.108958959579468">
        <ele>1252</ele>
        <time>2018-05-21T10:05:38Z</time>
      </trkpt>
      <trkpt lat="42.707787025719881" lon="-7.108904980123043">
        <ele>1252</ele>
        <time>2018-05-21T10:05:40Z</time>
      </trkpt>
      <trkpt lat="42.707773027941585" lon="-7.108864998444915">
        <ele>1252</ele>
        <time>2018-05-21T10:05:40Z</time>
      </trkpt>
      <trkpt lat="42.707758024334908" lon="-7.108813030645251">
        <ele>1252</ele>
        <time>2018-05-21T10:05:42Z</time>
      </trkpt>
      <trkpt lat="42.707738997414708" lon="-7.108761984854937">
        <ele>1252</ele>
        <time>2018-05-21T10:05:43Z</time>
      </trkpt>
      <trkpt lat="42.707719970494509" lon="-7.108715968206525">
        <ele>1252</ele>
        <time>2018-05-21T10:05:44Z</time>
      </trkpt>
      <trkpt lat="42.707689041271806" lon="-7.108671041205525">
        <ele>1242</ele>
        <time>2018-05-21T10:05:45Z</time>
      </trkpt>
      <trkpt lat="42.707660961896181" lon="-7.108630975708365">
        <ele>1242</ele>
        <time>2018-05-21T10:05:47Z</time>
      </trkpt>
      <trkpt lat="42.707623997703195" lon="-7.108580013737083">
        <ele>1242</ele>
        <time>2018-05-21T10:05:48Z</time>
      </trkpt>
      <trkpt lat="42.707596002146602" lon="-7.108551012352109">
        <ele>1242</ele>
        <time>2018-05-21T10:05:49Z</time>
      </trkpt>
      <trkpt lat="42.707562977448106" lon="-7.108527962118387">
        <ele>1242</ele>
        <time>2018-05-21T10:05:50Z</time>
      </trkpt>
      <trkpt lat="42.707520984113216" lon="-7.108511030673981">
        <ele>1242</ele>
        <time>2018-05-21T10:05:52Z</time>
      </trkpt>
      <trkpt lat="42.707488965243101" lon="-7.108475994318724">
        <ele>1242</ele>
        <time>2018-05-21T10:05:53Z</time>
      </trkpt>
      <trkpt lat="42.707456024363637" lon="-7.10844699293375">
        <ele>1242</ele>
        <time>2018-05-21T10:05:54Z</time>
      </trkpt>
      <trkpt lat="42.707428028807044" lon="-7.108412962406874">
        <ele>1242</ele>
        <time>2018-05-21T10:05:55Z</time>
      </trkpt>
      <trkpt lat="42.707401039078832" lon="-7.108377004042268">
        <ele>1242</ele>
        <time>2018-05-21T10:05:56Z</time>
      </trkpt>
      <trkpt lat="42.707383017987013" lon="-7.108341967687011">
        <ele>1242</ele>
        <time>2018-05-21T10:05:57Z</time>
      </trkpt>
      <trkpt lat="42.707353010773659" lon="-7.108325036242604">
        <ele>1242</ele>
        <time>2018-05-21T10:05:58Z</time>
      </trkpt>
      <trkpt lat="42.707318980246782" lon="-7.108308020979166">
        <ele>1242</ele>
        <time>2018-05-21T10:05:59Z</time>
      </trkpt>
      <trkpt lat="42.707276986911893" lon="-7.108296034857631">
        <ele>1242</ele>
        <time>2018-05-21T10:06:00Z</time>
      </trkpt>
      <trkpt lat="42.707238011062145" lon="-7.108277007937431">
        <ele>1242</ele>
        <time>2018-05-21T10:06:02Z</time>
      </trkpt>
      <trkpt lat="42.707199035212398" lon="-7.108277007937431">
        <ele>1242</ele>
        <time>2018-05-21T10:06:03Z</time>
      </trkpt>
      <trkpt lat="42.707159975543618" lon="-7.108277007937431">
        <ele>1242</ele>
        <time>2018-05-21T10:06:04Z</time>
      </trkpt>
      <trkpt lat="42.707120999693871" lon="-7.108277007937431">
        <ele>1242</ele>
        <time>2018-05-21T10:06:05Z</time>
      </trkpt>
      <trkpt lat="42.707073977217078" lon="-7.108277007937431">
        <ele>1246</ele>
        <time>2018-05-21T10:06:07Z</time>
      </trkpt>
      <trkpt lat="42.707031983882189" lon="-7.108277007937431">
        <ele>1246</ele>
        <time>2018-05-21T10:06:08Z</time>
      </trkpt>
      <trkpt lat="42.706978004425764" lon="-7.108282959088683">
        <ele>1246</ele>
        <time>2018-05-21T10:06:09Z</time>
      </trkpt>
      <trkpt lat="42.706940034404397" lon="-7.108289999887347">
        <ele>1246</ele>
        <time>2018-05-21T10:06:11Z</time>
      </trkpt>
      <trkpt lat="42.706908015534282" lon="-7.108301986008883">
        <ele>1246</ele>
        <time>2018-05-21T10:06:12Z</time>
      </trkpt>
      <trkpt lat="42.706866022199392" lon="-7.108308020979166">
        <ele>1246</ele>
        <time>2018-05-21T10:06:13Z</time>
      </trkpt>
      <trkpt lat="42.706828974187374" lon="-7.108312966302037">
        <ele>1246</ele>
        <time>2018-05-21T10:06:14Z</time>
      </trkpt>
      <trkpt lat="42.706782035529613" lon="-7.108312966302037">
        <ele>1246</ele>
        <time>2018-05-21T10:06:15Z</time>
      </trkpt>
      <trkpt lat="42.706744987517595" lon="-7.108319001272321">
        <ele>1246</ele>
        <time>2018-05-21T10:06:16Z</time>
      </trkpt>
      <trkpt lat="42.706706011667848" lon="-7.108325036242604">
        <ele>1246</ele>
        <time>2018-05-21T10:06:18Z</time>
      </trkpt>
      <trkpt lat="42.706668041646481" lon="-7.108330987393856">
        <ele>1246</ele>
        <time>2018-05-21T10:06:19Z</time>
      </trkpt>
      <trkpt lat="42.706625964492559" lon="-7.108348002657294">
        <ele>1246</ele>
        <time>2018-05-21T10:06:20Z</time>
      </trkpt>
      <trkpt lat="42.706580031663179" lon="-7.108348002657294">
        <ele>1246</ele>
        <time>2018-05-21T10:06:21Z</time>
      </trkpt>
      <trkpt lat="42.70653803832829" lon="-7.108354037627578">
        <ele>1246</ele>
        <time>2018-05-21T10:06:23Z</time>
      </trkpt>
      <trkpt lat="42.706498978659511" lon="-7.108354037627578">
        <ele>1246</ele>
        <time>2018-05-21T10:06:24Z</time>
      </trkpt>
      <trkpt lat="42.706362018361688" lon="-7.108371974900365">
        <ele>1246</ele>
        <time>2018-05-21T10:06:28Z</time>
      </trkpt>
      <trkpt lat="42.706257998943329" lon="-7.108346996828914">
        <ele>1251</ele>
        <time>2018-05-21T10:06:31Z</time>
      </trkpt>
      <trkpt lat="42.706168983131647" lon="-7.108312966302037">
        <ele>1251</ele>
        <time>2018-05-21T10:06:34Z</time>
      </trkpt>
      <trkpt lat="42.706093965098262" lon="-7.10825202986598">
        <ele>1251</ele>
        <time>2018-05-21T10:06:36Z</time>
      </trkpt>
      <trkpt lat="42.706003021448851" lon="-7.108175000175834">
        <ele>1251</ele>
        <time>2018-05-21T10:06:39Z</time>
      </trkpt>
      <trkpt lat="42.705921968445182" lon="-7.108006021007896">
        <ele>1251</ele>
        <time>2018-05-21T10:06:44Z</time>
      </trkpt>
      <trkpt lat="42.70591601729393" lon="-7.108006021007896">
        <ele>1251</ele>
        <time>2018-05-21T10:06:44Z</time>
      </trkpt>
      <trkpt lat="42.705859020352364" lon="-7.107890015468001">
        <ele>1251</ele>
        <time>2018-05-21T10:06:47Z</time>
      </trkpt>
      <trkpt lat="42.705808980390429" lon="-7.107768980786204">
        <ele>1240</ele>
        <time>2018-05-21T10:06:50Z</time>
      </trkpt>
      <trkpt lat="42.705808980390429" lon="-7.107741991057992">
        <ele>1240</ele>
        <time>2018-05-21T10:06:51Z</time>
      </trkpt>
      <trkpt lat="42.705790037289262" lon="-7.10769597440958">
        <ele>1240</ele>
        <time>2018-05-21T10:06:52Z</time>
      </trkpt>
      <trkpt lat="42.705776039510965" lon="-7.1076500415802">
        <ele>1240</ele>
        <time>2018-05-21T10:06:53Z</time>
      </trkpt>
      <trkpt lat="42.705757012590766" lon="-7.107604024931788">
        <ele>1240</ele>
        <time>2018-05-21T10:06:54Z</time>
      </trkpt>
      <trkpt lat="42.705743014812469" lon="-7.107540993019939">
        <ele>1240</ele>
        <time>2018-05-21T10:06:55Z</time>
      </trkpt>
      <trkpt lat="42.705729017034173" lon="-7.107482990249991">
        <ele>1240</ele>
        <time>2018-05-21T10:06:57Z</time>
      </trkpt>
      <trkpt lat="42.705719964578748" lon="-7.107425993308425">
        <ele>1240</ele>
        <time>2018-05-21T10:06:58Z</time>
      </trkpt>
      <trkpt lat="42.705705966800451" lon="-7.107379976660013">
        <ele>1240</ele>
        <time>2018-05-21T10:06:59Z</time>
      </trkpt>
      <trkpt lat="42.705696998164058" lon="-7.107322979718447">
        <ele>1240</ele>
        <time>2018-05-21T10:07:00Z</time>
      </trkpt>
      <trkpt lat="42.705687023699284" lon="-7.107271011918783">
        <ele>1240</ele>
        <time>2018-05-21T10:07:02Z</time>
      </trkpt>
      <trkpt lat="42.705683000385761" lon="-7.107218960300088">
        <ele>1240</ele>
        <time>2018-05-21T10:07:03Z</time>
      </trkpt>
      <trkpt lat="42.705677971243858" lon="-7.107165986672044">
        <ele>1240</ele>
        <time>2018-05-21T10:07:04Z</time>
      </trkpt>
      <trkpt lat="42.705663973465562" lon="-7.107094991952181">
        <ele>1240</ele>
        <time>2018-05-21T10:07:05Z</time>
      </trkpt>
      <trkpt lat="42.705659028142691" lon="-7.107031960040331">
        <ele>1233</ele>
        <time>2018-05-21T10:07:07Z</time>
      </trkpt>
      <trkpt lat="42.705655004829168" lon="-7.106968006119132">
        <ele>1233</ele>
        <time>2018-05-21T10:07:08Z</time>
      </trkpt>
      <trkpt lat="42.705645030364394" lon="-7.106904974207282">
        <ele>1233</ele>
        <time>2018-05-21T10:07:10Z</time>
      </trkpt>
      <trkpt lat="42.705641007050872" lon="-7.106847977265716">
        <ele>1233</ele>
        <time>2018-05-21T10:07:11Z</time>
      </trkpt>
      <trkpt lat="42.705635977908969" lon="-7.106796009466052">
        <ele>1233</ele>
        <time>2018-05-21T10:07:12Z</time>
      </trkpt>
      <trkpt lat="42.705618040636182" lon="-7.106744041666389">
        <ele>1233</ele>
        <time>2018-05-21T10:07:13Z</time>
      </trkpt>
      <trkpt lat="42.705599013715982" lon="-7.106698025017977">
        <ele>1233</ele>
        <time>2018-05-21T10:07:14Z</time>
      </trkpt>
      <trkpt lat="42.705579986795783" lon="-7.1066639944911">
        <ele>1233</ele>
        <time>2018-05-21T10:07:15Z</time>
      </trkpt>
      <trkpt lat="42.705561965703964" lon="-7.106617977842689">
        <ele>1233</ele>
        <time>2018-05-21T10:07:16Z</time>
      </trkpt>
      <trkpt lat="42.70555199123919" lon="-7.106571961194277">
        <ele>1233</ele>
        <time>2018-05-21T10:07:18Z</time>
      </trkpt>
      <trkpt lat="42.7055290248245" lon="-7.106531979516149">
        <ele>1233</ele>
        <time>2018-05-21T10:07:19Z</time>
      </trkpt>
      <trkpt lat="42.705505974590778" lon="-7.106497026979923">
        <ele>1233</ele>
        <time>2018-05-21T10:07:20Z</time>
      </trkpt>
      <trkpt lat="42.705487031489611" lon="-7.106451010331512">
        <ele>1233</ele>
        <time>2018-05-21T10:07:21Z</time>
      </trkpt>
      <trkpt lat="42.705459035933018" lon="-7.106411028653383">
        <ele>1261</ele>
        <time>2018-05-21T10:07:22Z</time>
      </trkpt>
      <trkpt lat="42.705440009012818" lon="-7.106354031711817">
        <ele>1261</ele>
        <time>2018-05-21T10:07:23Z</time>
      </trkpt>
      <trkpt lat="42.705412013456225" lon="-7.10631899535656">
        <ele>1261</ele>
        <time>2018-05-21T10:07:24Z</time>
      </trkpt>
      <trkpt lat="42.705384017899632" lon="-7.106272978708148">
        <ele>1261</ele>
        <time>2018-05-21T10:07:26Z</time>
      </trkpt>
      <trkpt lat="42.705360967665911" lon="-7.106244983151555">
        <ele>1261</ele>
        <time>2018-05-21T10:07:27Z</time>
      </trkpt>
      <trkpt lat="42.705338001251221" lon="-7.106203995645046">
        <ele>1246</ele>
        <time>2018-05-21T10:07:28Z</time>
      </trkpt>
      <trkpt lat="42.705311011523008" lon="-7.106166025623679">
        <ele>1246</ele>
        <time>2018-05-21T10:07:29Z</time>
      </trkpt>
      <trkpt lat="42.705297013744712" lon="-7.106113974004984">
        <ele>1246</ele>
        <time>2018-05-21T10:07:30Z</time>
      </trkpt>
      <trkpt lat="42.70527396351099" lon="-7.106068041175604">
        <ele>1246</ele>
        <time>2018-05-21T10:07:31Z</time>
      </trkpt>
      <trkpt lat="42.705255020409822" lon="-7.106027975678444">
        <ele>1246</ele>
        <time>2018-05-21T10:07:32Z</time>
      </trkpt>
      <trkpt lat="42.705245967954397" lon="-7.105977013707161">
        <ele>1246</ele>
        <time>2018-05-21T10:07:34Z</time>
      </trkpt>
      <trkpt lat="42.705231970176101" lon="-7.105936026200652">
        <ele>1246</ele>
        <time>2018-05-21T10:07:35Z</time>
      </trkpt>
      <trkpt lat="42.705199029296637" lon="-7.10582697764039">
        <ele>1246</ele>
        <time>2018-05-21T10:07:37Z</time>
      </trkpt>
      <trkpt lat="42.705189976841211" lon="-7.105769980698824">
        <ele>1246</ele>
        <time>2018-05-21T10:07:38Z</time>
      </trkpt>
      <trkpt lat="42.705181008204818" lon="-7.105723964050412">
        <ele>1246</ele>
        <time>2018-05-21T10:07:39Z</time>
      </trkpt>
      <trkpt lat="42.705175979062915" lon="-7.105661015957594">
        <ele>1246</ele>
        <time>2018-05-21T10:07:41Z</time>
      </trkpt>
      <trkpt lat="42.705175979062915" lon="-7.105603013187647">
        <ele>1246</ele>
        <time>2018-05-21T10:07:42Z</time>
      </trkpt>
      <trkpt lat="42.705175979062915" lon="-7.105539981275797">
        <ele>1246</ele>
        <time>2018-05-21T10:07:43Z</time>
      </trkpt>
      <trkpt lat="42.705175979062915" lon="-7.105470998212695">
        <ele>1246</ele>
        <time>2018-05-21T10:07:45Z</time>
      </trkpt>
      <trkpt lat="42.705175979062915" lon="-7.105407966300845">
        <ele>1246</ele>
        <time>2018-05-21T10:07:46Z</time>
      </trkpt>
      <trkpt lat="42.705175979062915" lon="-7.105349963530898">
        <ele>1246</ele>
        <time>2018-05-21T10:07:48Z</time>
      </trkpt>
      <trkpt lat="42.705175979062915" lon="-7.105299001559615">
        <ele>1246</ele>
        <time>2018-05-21T10:07:49Z</time>
      </trkpt>
      <trkpt lat="42.705189976841211" lon="-7.105240998789668">
        <ele>1246</ele>
        <time>2018-05-21T10:07:50Z</time>
      </trkpt>
      <trkpt lat="42.705199029296637" lon="-7.105177966877818">
        <ele>1246</ele>
        <time>2018-05-21T10:07:52Z</time>
      </trkpt>
      <trkpt lat="42.705217972397804" lon="-7.105120969936252">
        <ele>1246</ele>
        <time>2018-05-21T10:07:53Z</time>
      </trkpt>
      <trkpt lat="42.705236999318004" lon="-7.105062967166305">
        <ele>1246</ele>
        <time>2018-05-21T10:07:54Z</time>
      </trkpt>
      <trkpt lat="42.705259965732694" lon="-7.105017034336925">
        <ele>1246</ele>
        <time>2018-05-21T10:07:55Z</time>
      </trkpt>
      <trkpt lat="42.705287961289287" lon="-7.104991972446442">
        <ele>1246</ele>
        <time>2018-05-21T10:07:57Z</time>
      </trkpt>
      <trkpt lat="42.705304976552725" lon="-7.104954002425075">
        <ele>1246</ele>
        <time>2018-05-21T10:07:57Z</time>
      </trkpt>
      <trkpt lat="42.705324003472924" lon="-7.104918966069818">
        <ele>1246</ele>
        <time>2018-05-21T10:07:58Z</time>
      </trkpt>
      <trkpt lat="42.705346969887614" lon="-7.104868004098535">
        <ele>1246</ele>
        <time>2018-05-21T10:08:00Z</time>
      </trkpt>
      <trkpt lat="42.705360967665911" lon="-7.104816036298871">
        <ele>1246</ele>
        <time>2018-05-21T10:08:01Z</time>
      </trkpt>
      <trkpt lat="42.705370020121336" lon="-7.104759039357305">
        <ele>1246</ele>
        <time>2018-05-21T10:08:02Z</time>
      </trkpt>
      <trkpt lat="42.70537999458611" lon="-7.104701036587358">
        <ele>1246</ele>
        <time>2018-05-21T10:08:04Z</time>
      </trkpt>
      <trkpt lat="42.705388963222504" lon="-7.104648984968662">
        <ele>1246</ele>
        <time>2018-05-21T10:08:05Z</time>
      </trkpt>
      <trkpt lat="42.705398015677929" lon="-7.104591988027096">
        <ele>1246</ele>
        <time>2018-05-21T10:08:06Z</time>
      </trkpt>
      <trkpt lat="42.7054029610008" lon="-7.104534991085529">
        <ele>1246</ele>
        <time>2018-05-21T10:08:07Z</time>
      </trkpt>
      <trkpt lat="42.705416958779097" lon="-7.104471037164331">
        <ele>1246</ele>
        <time>2018-05-21T10:08:09Z</time>
      </trkpt>
      <trkpt lat="42.705426011234522" lon="-7.104417979717255">
        <ele>1252</ele>
        <time>2018-05-21T10:08:10Z</time>
      </trkpt>
      <trkpt lat="42.705431040376425" lon="-7.104359976947308">
        <ele>1252</ele>
        <time>2018-05-21T10:08:11Z</time>
      </trkpt>
      <trkpt lat="42.705435985699296" lon="-7.104309014976025">
        <ele>1252</ele>
        <time>2018-05-21T10:08:12Z</time>
      </trkpt>
      <trkpt lat="42.705440009012818" lon="-7.104256963357329">
        <ele>1252</ele>
        <time>2018-05-21T10:08:13Z</time>
      </trkpt>
      <trkpt lat="42.705440009012818" lon="-7.104199966415763">
        <ele>1252</ele>
        <time>2018-05-21T10:08:15Z</time>
      </trkpt>
      <trkpt lat="42.705440009012818" lon="-7.104140035808086">
        <ele>1252</ele>
        <time>2018-05-21T10:08:16Z</time>
      </trkpt>
      <trkpt lat="42.705440009012818" lon="-7.103986982256174">
        <ele>1252</ele>
        <time>2018-05-21T10:08:19Z</time>
      </trkpt>
      <trkpt lat="42.705433974042535" lon="-7.103986982256174">
        <ele>1252</ele>
        <time>2018-05-21T10:08:19Z</time>
      </trkpt>
      <trkpt lat="42.705397009849548" lon="-7.103807022795081">
        <ele>1252</ele>
        <time>2018-05-21T10:08:24Z</time>
      </trkpt>
      <trkpt lat="42.705390974879265" lon="-7.103783972561359">
        <ele>1252</ele>
        <time>2018-05-21T10:08:24Z</time>
      </trkpt>
      <trkpt lat="42.705355016514659" lon="-7.103631002828479">
        <ele>1253</ele>
        <time>2018-05-21T10:08:28Z</time>
      </trkpt>
      <trkpt lat="42.70527102984488" lon="-7.103408966213465">
        <ele>1253</ele>
        <time>2018-05-21T10:08:33Z</time>
      </trkpt>
      <trkpt lat="42.705229036509991" lon="-7.103241998702288">
        <ele>1253</ele>
        <time>2018-05-21T10:08:37Z</time>
      </trkpt>
      <trkpt lat="42.705229036509991" lon="-7.103234035894275">
        <ele>1253</ele>
        <time>2018-05-21T10:08:37Z</time>
      </trkpt>
      <trkpt lat="42.705175979062915" lon="-7.103075031191111">
        <ele>1253</ele>
        <time>2018-05-21T10:08:41Z</time>
      </trkpt>
      <trkpt lat="42.705130968242884" lon="-7.102948967367411">
        <ele>1253</ele>
        <time>2018-05-21T10:08:44Z</time>
      </trkpt>
      <trkpt lat="42.705106995999813" lon="-7.102855006232858">
        <ele>1253</ele>
        <time>2018-05-21T10:08:46Z</time>
      </trkpt>
      <trkpt lat="42.70509802736342" lon="-7.102801026776433">
        <ele>1246</ele>
        <time>2018-05-21T10:08:47Z</time>
      </trkpt>
      <trkpt lat="42.705088974907994" lon="-7.102675968781114">
        <ele>1246</ele>
        <time>2018-05-21T10:08:50Z</time>
      </trkpt>
      <trkpt lat="42.705088974907994" lon="-7.102642022073269">
        <ele>1246</ele>
        <time>2018-05-21T10:08:51Z</time>
      </trkpt>
      <trkpt lat="42.705088974907994" lon="-7.102584019303322">
        <ele>1246</ele>
        <time>2018-05-21T10:08:52Z</time>
      </trkpt>
      <trkpt lat="42.705088974907994" lon="-7.102531967684627">
        <ele>1246</ele>
        <time>2018-05-21T10:08:53Z</time>
      </trkpt>
      <trkpt lat="42.705088974907994" lon="-7.102481005713344">
        <ele>1246</ele>
        <time>2018-05-21T10:08:54Z</time>
      </trkpt>
      <trkpt lat="42.705088974907994" lon="-7.102423002943397">
        <ele>1246</ele>
        <time>2018-05-21T10:08:56Z</time>
      </trkpt>
      <trkpt lat="42.705092998221517" lon="-7.10236600600183">
        <ele>1246</ele>
        <time>2018-05-21T10:08:57Z</time>
      </trkpt>
      <trkpt lat="42.705102972686291" lon="-7.102319989353418">
        <ele>1246</ele>
        <time>2018-05-21T10:08:58Z</time>
      </trkpt>
      <trkpt lat="42.705102972686291" lon="-7.102262992411852">
        <ele>1246</ele>
        <time>2018-05-21T10:08:59Z</time>
      </trkpt>
      <trkpt lat="42.705106995999813" lon="-7.102204989641905">
        <ele>1246</ele>
        <time>2018-05-21T10:09:00Z</time>
      </trkpt>
      <trkpt lat="42.705106995999813" lon="-7.102153021842241">
        <ele>1246</ele>
        <time>2018-05-21T10:09:01Z</time>
      </trkpt>
      <trkpt lat="42.705116970464587" lon="-7.10210700519383">
        <ele>1246</ele>
        <time>2018-05-21T10:09:03Z</time>
      </trkpt>
      <trkpt lat="42.705116970464587" lon="-7.102055959403515">
        <ele>1246</ele>
        <time>2018-05-21T10:09:04Z</time>
      </trkpt>
      <trkpt lat="42.70512099377811" lon="-7.101993011310697">
        <ele>1243</ele>
        <time>2018-05-21T10:09:05Z</time>
      </trkpt>
      <trkpt lat="42.70512099377811" lon="-7.101940959692001">
        <ele>1243</ele>
        <time>2018-05-21T10:09:06Z</time>
      </trkpt>
      <trkpt lat="42.70512099377811" lon="-7.101878011599183">
        <ele>1243</ele>
        <time>2018-05-21T10:09:08Z</time>
      </trkpt>
      <trkpt lat="42.70512099377811" lon="-7.101825959980488">
        <ele>1243</ele>
        <time>2018-05-21T10:09:09Z</time>
      </trkpt>
      <trkpt lat="42.70512099377811" lon="-7.101767035201192">
        <ele>1243</ele>
        <time>2018-05-21T10:09:10Z</time>
      </trkpt>
      <trkpt lat="42.70512099377811" lon="-7.101714983582497">
        <ele>1243</ele>
        <time>2018-05-21T10:09:11Z</time>
      </trkpt>
      <trkpt lat="42.705116970464587" lon="-7.101658992469311">
        <ele>1243</ele>
        <time>2018-05-21T10:09:12Z</time>
      </trkpt>
      <trkpt lat="42.705116970464587" lon="-7.101601995527744">
        <ele>1243</ele>
        <time>2018-05-21T10:09:14Z</time>
      </trkpt>
      <trkpt lat="42.705106995999813" lon="-7.101560002192855">
        <ele>1243</ele>
        <time>2018-05-21T10:09:15Z</time>
      </trkpt>
      <trkpt lat="42.705106995999813" lon="-7.101508034393191">
        <ele>1243</ele>
        <time>2018-05-21T10:09:16Z</time>
      </trkpt>
      <trkpt lat="42.70509802736342" lon="-7.101450031623244">
        <ele>1243</ele>
        <time>2018-05-21T10:09:17Z</time>
      </trkpt>
      <trkpt lat="42.705088974907994" lon="-7.101405020803213">
        <ele>1243</ele>
        <time>2018-05-21T10:09:18Z</time>
      </trkpt>
      <trkpt lat="42.70507900044322" lon="-7.101352969184518">
        <ele>1243</ele>
        <time>2018-05-21T10:09:19Z</time>
      </trkpt>
      <trkpt lat="42.705070031806827" lon="-7.101303013041616">
        <ele>1243</ele>
        <time>2018-05-21T10:09:20Z</time>
      </trkpt>
      <trkpt lat="42.705065002664924" lon="-7.101237969473004">
        <ele>1243</ele>
        <time>2018-05-21T10:09:22Z</time>
      </trkpt>
      <trkpt lat="42.705065002664924" lon="-7.10118399001658">
        <ele>1243</ele>
        <time>2018-05-21T10:09:23Z</time>
      </trkpt>
      <trkpt lat="42.705060979351401" lon="-7.10112095810473">
        <ele>1241</ele>
        <time>2018-05-21T10:09:24Z</time>
      </trkpt>
      <trkpt lat="42.705060979351401" lon="-7.101064966991544">
        <ele>1241</ele>
        <time>2018-05-21T10:09:25Z</time>
      </trkpt>
      <trkpt lat="42.705060979351401" lon="-7.101007970049977">
        <ele>1241</ele>
        <time>2018-05-21T10:09:27Z</time>
      </trkpt>
      <trkpt lat="42.705060979351401" lon="-7.100953990593553">
        <ele>1241</ele>
        <time>2018-05-21T10:09:28Z</time>
      </trkpt>
      <trkpt lat="42.705060979351401" lon="-7.100902022793889">
        <ele>1241</ele>
        <time>2018-05-21T10:09:29Z</time>
      </trkpt>
      <trkpt lat="42.705060979351401" lon="-7.100850977003574">
        <ele>1241</ele>
        <time>2018-05-21T10:09:30Z</time>
      </trkpt>
      <trkpt lat="42.705051004886627" lon="-7.100799009203911">
        <ele>1241</ele>
        <time>2018-05-21T10:09:31Z</time>
      </trkpt>
      <trkpt lat="42.705051004886627" lon="-7.100747041404247">
        <ele>1241</ele>
        <time>2018-05-21T10:09:32Z</time>
      </trkpt>
      <trkpt lat="42.705051004886627" lon="-7.100689960643649">
        <ele>1241</ele>
        <time>2018-05-21T10:09:34Z</time>
      </trkpt>
      <trkpt lat="42.705051004886627" lon="-7.100632041692734">
        <ele>1241</ele>
        <time>2018-05-21T10:09:35Z</time>
      </trkpt>
      <trkpt lat="42.705051004886627" lon="-7.100580995902419">
        <ele>1241</ele>
        <time>2018-05-21T10:09:36Z</time>
      </trkpt>
      <trkpt lat="42.705046981573105" lon="-7.100522993132472">
        <ele>1241</ele>
        <time>2018-05-21T10:09:37Z</time>
      </trkpt>
      <trkpt lat="42.705046981573105" lon="-7.100465996190906">
        <ele>1241</ele>
        <time>2018-05-21T10:09:39Z</time>
      </trkpt>
      <trkpt lat="42.705046981573105" lon="-7.100414028391242">
        <ele>1241</ele>
        <time>2018-05-21T10:09:40Z</time>
      </trkpt>
      <trkpt lat="42.705032983794808" lon="-7.100373962894082">
        <ele>1241</ele>
        <time>2018-05-21T10:09:41Z</time>
      </trkpt>
      <trkpt lat="42.705023009330034" lon="-7.100332975387573">
        <ele>1241</ele>
        <time>2018-05-21T10:09:42Z</time>
      </trkpt>
      <trkpt lat="42.705009011551738" lon="-7.100286958739162">
        <ele>1241</ele>
        <time>2018-05-21T10:09:43Z</time>
      </trkpt>
      <trkpt lat="42.704985961318016" lon="-7.100241025909782">
        <ele>1241</ele>
        <time>2018-05-21T10:09:44Z</time>
      </trkpt>
      <trkpt lat="42.704976992681623" lon="-7.100177993997932">
        <ele>1241</ele>
        <time>2018-05-21T10:09:45Z</time>
      </trkpt>
      <trkpt lat="42.704962994903326" lon="-7.10013197734952">
        <ele>1241</ele>
        <time>2018-05-21T10:09:46Z</time>
      </trkpt>
      <trkpt lat="42.704957965761423" lon="-7.100074980407953">
        <ele>1241</ele>
        <time>2018-05-21T10:09:48Z</time>
      </trkpt>
      <trkpt lat="42.704939022660255" lon="-7.100040027871728">
        <ele>1241</ele>
        <time>2018-05-21T10:09:49Z</time>
      </trkpt>
      <trkpt lat="42.70492997020483" lon="-7.099988982081413">
        <ele>1241</ele>
        <time>2018-05-21T10:09:50Z</time>
      </trkpt>
      <trkpt lat="42.704921001568437" lon="-7.099935002624989">
        <ele>1241</ele>
        <time>2018-05-21T10:09:51Z</time>
      </trkpt>
      <trkpt lat="42.704872973263264" lon="-7.099763005971909">
        <ele>1241</ele>
        <time>2018-05-21T10:09:55Z</time>
      </trkpt>
      <trkpt lat="42.704854030162096" lon="-7.099728975445032">
        <ele>1241</ele>
        <time>2018-05-21T10:09:56Z</time>
      </trkpt>
      <trkpt lat="42.704844977706671" lon="-7.099681030958891">
        <ele>1241</ele>
        <time>2018-05-21T10:09:57Z</time>
      </trkpt>
      <trkpt lat="42.704826034605503" lon="-7.099635014310479">
        <ele>1241</ele>
        <time>2018-05-21T10:09:58Z</time>
      </trkpt>
      <trkpt lat="42.704812958836555" lon="-7.099588997662067">
        <ele>1241</ele>
        <time>2018-05-21T10:09:59Z</time>
      </trkpt>
      <trkpt lat="42.704798961058259" lon="-7.099537029862404">
        <ele>1241</ele>
        <time>2018-05-21T10:10:00Z</time>
      </trkpt>
      <trkpt lat="42.704780017957091" lon="-7.099496964365244">
        <ele>1242</ele>
        <time>2018-05-21T10:10:01Z</time>
      </trkpt>
      <trkpt lat="42.704746993258595" lon="-7.09944499656558">
        <ele>1242</ele>
        <time>2018-05-21T10:10:03Z</time>
      </trkpt>
      <trkpt lat="42.704724026843905" lon="-7.099410966038704">
        <ele>1242</ele>
        <time>2018-05-21T10:10:04Z</time>
      </trkpt>
      <trkpt lat="42.70469100214541" lon="-7.099370984360576">
        <ele>1242</ele>
        <time>2018-05-21T10:10:05Z</time>
      </trkpt>
      <trkpt lat="42.704658983275294" lon="-7.099324967712164">
        <ele>1242</ele>
        <time>2018-05-21T10:10:07Z</time>
      </trkpt>
      <trkpt lat="42.704630987718701" lon="-7.099294038489461">
        <ele>1242</ele>
        <time>2018-05-21T10:10:08Z</time>
      </trkpt>
      <trkpt lat="42.704593017697334" lon="-7.099277023226023">
        <ele>1242</ele>
        <time>2018-05-21T10:10:09Z</time>
      </trkpt>
      <trkpt lat="42.704564016312361" lon="-7.099241986870766">
        <ele>1227</ele>
        <time>2018-05-21T10:10:10Z</time>
      </trkpt>
      <trkpt lat="42.704536020755768" lon="-7.099208040162921">
        <ele>1227</ele>
        <time>2018-05-21T10:10:11Z</time>
      </trkpt>
      <trkpt lat="42.704502996057272" lon="-7.099179038777947">
        <ele>1227</ele>
        <time>2018-05-21T10:10:12Z</time>
      </trkpt>
      <trkpt lat="42.704475000500679" lon="-7.099145008251071">
        <ele>1227</ele>
        <time>2018-05-21T10:10:13Z</time>
      </trkpt>
      <trkpt lat="42.704444993287325" lon="-7.099116006866098">
        <ele>1227</ele>
        <time>2018-05-21T10:10:14Z</time>
      </trkpt>
      <trkpt lat="42.704426972195506" lon="-7.09908097051084">
        <ele>1227</ele>
        <time>2018-05-21T10:10:15Z</time>
      </trkpt>
      <trkpt lat="42.704408029094338" lon="-7.099030008539558">
        <ele>1227</ele>
        <time>2018-05-21T10:10:17Z</time>
      </trkpt>
      <trkpt lat="42.704382967203856" lon="-7.098988015204668">
        <ele>1227</ele>
        <time>2018-05-21T10:10:18Z</time>
      </trkpt>
      <trkpt lat="42.704340973868966" lon="-7.098910985514522">
        <ele>1227</ele>
        <time>2018-05-21T10:10:20Z</time>
      </trkpt>
      <trkpt lat="42.704318007454276" lon="-7.098857006058097">
        <ele>1227</ele>
        <time>2018-05-21T10:10:21Z</time>
      </trkpt>
      <trkpt lat="42.704309038817883" lon="-7.098788022994995">
        <ele>1227</ele>
        <time>2018-05-21T10:10:23Z</time>
      </trkpt>
      <trkpt lat="42.70430400967598" lon="-7.09873697720468">
        <ele>1227</ele>
        <time>2018-05-21T10:10:24Z</time>
      </trkpt>
      <trkpt lat="42.704298980534077" lon="-7.098685009405017">
        <ele>1229</ele>
        <time>2018-05-21T10:10:25Z</time>
      </trkpt>
      <trkpt lat="42.704298980534077" lon="-7.098633041605353">
        <ele>1229</ele>
        <time>2018-05-21T10:10:26Z</time>
      </trkpt>
      <trkpt lat="42.704295041039586" lon="-7.098575960844755">
        <ele>1229</ele>
        <time>2018-05-21T10:10:27Z</time>
      </trkpt>
      <trkpt lat="42.704295041039586" lon="-7.098523993045092">
        <ele>1229</ele>
        <time>2018-05-21T10:10:29Z</time>
      </trkpt>
      <trkpt lat="42.704290011897683" lon="-7.098472025245428">
        <ele>1229</ele>
        <time>2018-05-21T10:10:30Z</time>
      </trkpt>
      <trkpt lat="42.704270984977484" lon="-7.098417039960623">
        <ele>1229</ele>
        <time>2018-05-21T10:10:31Z</time>
      </trkpt>
      <trkpt lat="42.70426201634109" lon="-7.098362976685166">
        <ele>1229</ele>
        <time>2018-05-21T10:10:32Z</time>
      </trkpt>
      <trkpt lat="42.704256987199187" lon="-7.098315032199025">
        <ele>1229</ele>
        <time>2018-05-21T10:10:33Z</time>
      </trkpt>
      <trkpt lat="42.704242989420891" lon="-7.098258035257459">
        <ele>1229</ele>
        <time>2018-05-21T10:10:35Z</time>
      </trkpt>
      <trkpt lat="42.704234020784497" lon="-7.098212018609047">
        <ele>1229</ele>
        <time>2018-05-21T10:10:36Z</time>
      </trkpt>
      <trkpt lat="42.704220023006201" lon="-7.098166001960635">
        <ele>1229</ele>
        <time>2018-05-21T10:10:37Z</time>
      </trkpt>
      <trkpt lat="42.704208958894014" lon="-7.098117973655462">
        <ele>1229</ele>
        <time>2018-05-21T10:10:38Z</time>
      </trkpt>
      <trkpt lat="42.704199990257621" lon="-7.098061982542276">
        <ele>1229</ele>
        <time>2018-05-21T10:10:39Z</time>
      </trkpt>
      <trkpt lat="42.704191021621227" lon="-7.098014038056135">
        <ele>1229</ele>
        <time>2018-05-21T10:10:40Z</time>
      </trkpt>
      <trkpt lat="42.704166965559125" lon="-7.097922004759312">
        <ele>1229</ele>
        <time>2018-05-21T10:10:42Z</time>
      </trkpt>
      <trkpt lat="42.704143999144435" lon="-7.097870036959648">
        <ele>1220</ele>
        <time>2018-05-21T10:10:44Z</time>
      </trkpt>
      <trkpt lat="42.704121032729745" lon="-7.097842041403055">
        <ele>1220</ele>
        <time>2018-05-21T10:10:45Z</time>
      </trkpt>
      <trkpt lat="42.704105023294687" lon="-7.097797030583024">
        <ele>1220</ele>
        <time>2018-05-21T10:10:46Z</time>
      </trkpt>
      <trkpt lat="42.704085996374488" lon="-7.097756965085864">
        <ele>1220</ele>
        <time>2018-05-21T10:10:47Z</time>
      </trkpt>
      <trkpt lat="42.704060012474656" lon="-7.097711032256484">
        <ele>1220</ele>
        <time>2018-05-21T10:10:48Z</time>
      </trkpt>
      <trkpt lat="42.704032016918063" lon="-7.097654035314918">
        <ele>1220</ele>
        <time>2018-05-21T10:10:49Z</time>
      </trkpt>
      <trkpt lat="42.704007960855961" lon="-7.097608018666506">
        <ele>1220</ele>
        <time>2018-05-21T10:10:51Z</time>
      </trkpt>
      <trkpt lat="42.703976025804877" lon="-7.097567031159997">
        <ele>1220</ele>
        <time>2018-05-21T10:10:52Z</time>
      </trkpt>
      <trkpt lat="42.703937971964478" lon="-7.097526965662837">
        <ele>1220</ele>
        <time>2018-05-21T10:10:53Z</time>
      </trkpt>
      <trkpt lat="42.703906036913395" lon="-7.097486983984709">
        <ele>1220</ele>
        <time>2018-05-21T10:10:55Z</time>
      </trkpt>
      <trkpt lat="42.703873012214899" lon="-7.097453959286213">
        <ele>1220</ele>
        <time>2018-05-21T10:10:56Z</time>
      </trkpt>
      <trkpt lat="42.703747032210231" lon="-7.097309958189726">
        <ele>1216</ele>
        <time>2018-05-21T10:11:01Z</time>
      </trkpt>
      <trkpt lat="42.703648963943124" lon="-7.097169980406761">
        <ele>1216</ele>
        <time>2018-05-21T10:11:05Z</time>
      </trkpt>
      <trkpt lat="42.703545028343797" lon="-7.09705900400877">
        <ele>1214</ele>
        <time>2018-05-21T10:11:09Z</time>
      </trkpt>
      <trkpt lat="42.703389963135123" lon="-7.096884995698929">
        <ele>1214</ele>
        <time>2018-05-21T10:11:15Z</time>
      </trkpt>
      <trkpt lat="42.7032720297575" lon="-7.096733031794429">
        <ele>1214</ele>
        <time>2018-05-21T10:11:20Z</time>
      </trkpt>
      <trkpt lat="42.703084023669362" lon="-7.096555000171065">
        <ele>1214</ele>
        <time>2018-05-21T10:11:26Z</time>
      </trkpt>
      <trkpt lat="42.702925018966198" lon="-7.096344027668238">
        <ele>1211</ele>
        <time>2018-05-21T10:11:33Z</time>
      </trkpt>
      <trkpt lat="42.702842960134149" lon="-7.096231039613485">
        <ele>1212</ele>
        <time>2018-05-21T10:11:36Z</time>
      </trkpt>
      <trkpt lat="42.702751010656357" lon="-7.09613498300314">
        <ele>1212</ele>
        <time>2018-05-21T10:11:40Z</time>
      </trkpt>
      <trkpt lat="42.702632993459702" lon="-7.09596298635006">
        <ele>1212</ele>
        <time>2018-05-21T10:11:45Z</time>
      </trkpt>
      <trkpt lat="42.702407017350197" lon="-7.095613041892648">
        <ele>1212</ele>
        <time>2018-05-21T10:11:55Z</time>
      </trkpt>
      <trkpt lat="42.702250024303794" lon="-7.095401985570788">
        <ele>1212</ele>
        <time>2018-05-21T10:12:02Z</time>
      </trkpt>
      <trkpt lat="42.702250024303794" lon="-7.095394022762775">
        <ele>1212</ele>
        <time>2018-05-21T10:12:02Z</time>
      </trkpt>
      <trkpt lat="42.702119015157223" lon="-7.095201993361116">
        <ele>1204</ele>
        <time>2018-05-21T10:12:08Z</time>
      </trkpt>
      <trkpt lat="42.701946012675762" lon="-7.09497501142323">
        <ele>1202</ele>
        <time>2018-05-21T10:12:15Z</time>
      </trkpt>
      <trkpt lat="42.701798994094133" lon="-7.094747023656964">
        <ele>1202</ele>
        <time>2018-05-21T10:12:21Z</time>
      </trkpt>
      <trkpt lat="42.701685000211" lon="-7.094563040882349">
        <ele>1202</ele>
        <time>2018-05-21T10:12:26Z</time>
      </trkpt>
      <trkpt lat="42.701533958315849" lon="-7.094349972903729">
        <ele>1202</ele>
        <time>2018-05-21T10:12:33Z</time>
      </trkpt>
      <trkpt lat="42.70140596665442" lon="-7.094159033149481">
        <ele>1202</ele>
        <time>2018-05-21T10:12:39Z</time>
      </trkpt>
      <trkpt lat="42.701390963047743" lon="-7.094148974865675">
        <ele>1202</ele>
        <time>2018-05-21T10:12:39Z</time>
      </trkpt>
      <trkpt lat="42.701370008289814" lon="-7.094125002622604">
        <ele>1202</ele>
        <time>2018-05-21T10:12:40Z</time>
      </trkpt>
      <trkpt lat="42.701348969712853" lon="-7.094102958217263">
        <ele>1202</ele>
        <time>2018-05-21T10:12:41Z</time>
      </trkpt>
      <trkpt lat="42.701332038268447" lon="-7.094074040651321">
        <ele>1202</ele>
        <time>2018-05-21T10:12:41Z</time>
      </trkpt>
      <trkpt lat="42.701305970549583" lon="-7.094044033437967">
        <ele>1202</ele>
        <time>2018-05-21T10:12:42Z</time>
      </trkpt>
      <trkpt lat="42.701265988871455" lon="-7.093959040939808">
        <ele>1204</ele>
        <time>2018-05-21T10:12:45Z</time>
      </trkpt>
      <trkpt lat="42.701246039941907" lon="-7.093854015693069">
        <ele>1204</ele>
        <time>2018-05-21T10:12:47Z</time>
      </trkpt>
      <trkpt lat="42.701195999979973" lon="-7.093655029311776">
        <ele>1204</ele>
        <time>2018-05-21T10:12:52Z</time>
      </trkpt>
      <trkpt lat="42.701128022745252" lon="-7.093487977981567">
        <ele>1217</ele>
        <time>2018-05-21T10:12:56Z</time>
      </trkpt>
      <trkpt lat="42.701088041067123" lon="-7.093301983550191">
        <ele>1217</ele>
        <time>2018-05-21T10:13:00Z</time>
      </trkpt>
      <trkpt lat="42.701038001105189" lon="-7.093130992725492">
        <ele>1217</ele>
        <time>2018-05-21T10:13:04Z</time>
      </trkpt>
      <trkpt lat="42.700970023870468" lon="-7.092983974143863">
        <ele>1217</ele>
        <time>2018-05-21T10:13:08Z</time>
      </trkpt>
      <trkpt lat="42.700957031920552" lon="-7.092950027436018">
        <ele>1217</ele>
        <time>2018-05-21T10:13:09Z</time>
      </trkpt>
      <trkpt lat="42.700940016657114" lon="-7.092905016615987">
        <ele>1217</ele>
        <time>2018-05-21T10:13:10Z</time>
      </trkpt>
      <trkpt lat="42.70091000944376" lon="-7.092838967218995">
        <ele>1217</ele>
        <time>2018-05-21T10:13:12Z</time>
      </trkpt>
      <trkpt lat="42.70088997669518" lon="-7.092822035774589">
        <ele>1217</ele>
        <time>2018-05-21T10:13:12Z</time>
      </trkpt>
      <trkpt lat="42.700830968096852" lon="-7.092722961679101">
        <ele>1221</ele>
        <time>2018-05-21T10:13:15Z</time>
      </trkpt>
      <trkpt lat="42.700718985870481" lon="-7.092578038573265">
        <ele>1221</ele>
        <time>2018-05-21T10:13:20Z</time>
      </trkpt>
      <trkpt lat="42.700623013079166" lon="-7.092420039698482">
        <ele>1221</ele>
        <time>2018-05-21T10:13:24Z</time>
      </trkpt>
      <trkpt lat="42.700498038902879" lon="-7.092243013903499">
        <ele>1221</ele>
        <time>2018-05-21T10:13:29Z</time>
      </trkpt>
      <trkpt lat="42.700377004221082" lon="-7.092102030292153">
        <ele>1221</ele>
        <time>2018-05-21T10:13:34Z</time>
      </trkpt>
      <trkpt lat="42.700262004509568" lon="-7.091940008103848">
        <ele>1233</ele>
        <time>2018-05-21T10:13:39Z</time>
      </trkpt>
      <trkpt lat="42.700159996747971" lon="-7.09177203476429">
        <ele>1233</ele>
        <time>2018-05-21T10:13:44Z</time>
      </trkpt>
      <trkpt lat="42.700109034776688" lon="-7.091649994254112">
        <ele>1233</ele>
        <time>2018-05-21T10:13:47Z</time>
      </trkpt>
      <trkpt lat="42.700057988986373" lon="-7.091504987329245">
        <ele>1233</ele>
        <time>2018-05-21T10:13:50Z</time>
      </trkpt>
      <trkpt lat="42.700014989823103" lon="-7.091345982626081">
        <ele>1233</ele>
        <time>2018-05-21T10:13:54Z</time>
      </trkpt>
      <trkpt lat="42.700014989823103" lon="-7.091341959312558">
        <ele>1233</ele>
        <time>2018-05-21T10:13:54Z</time>
      </trkpt>
      <trkpt lat="42.699974002316594" lon="-7.091225031763315">
        <ele>1233</ele>
        <time>2018-05-21T10:13:57Z</time>
      </trkpt>
      <trkpt lat="42.699946006760001" lon="-7.091050017625094">
        <ele>1238</ele>
        <time>2018-05-21T10:14:01Z</time>
      </trkpt>
      <trkpt lat="42.699925974011421" lon="-7.090933006256819">
        <ele>1238</ele>
        <time>2018-05-21T10:14:04Z</time>
      </trkpt>
      <trkpt lat="42.699919017031789" lon="-7.090926971286535">
        <ele>1238</ele>
        <time>2018-05-21T10:14:04Z</time>
      </trkpt>
      <trkpt lat="42.699906025081873" lon="-7.090902999043465">
        <ele>1238</ele>
        <time>2018-05-21T10:14:04Z</time>
      </trkpt>
      <trkpt lat="42.699893033131957" lon="-7.090869974344969">
        <ele>1238</ele>
        <time>2018-05-21T10:14:05Z</time>
      </trkpt>
      <trkpt lat="42.699879035353661" lon="-7.090839967131615">
        <ele>1238</ele>
        <time>2018-05-21T10:14:06Z</time>
      </trkpt>
      <trkpt lat="42.699855985119939" lon="-7.090807026252151">
        <ele>1238</ele>
        <time>2018-05-21T10:14:07Z</time>
      </trkpt>
      <trkpt lat="42.69983503036201" lon="-7.090781964361668">
        <ele>1238</ele>
        <time>2018-05-21T10:14:08Z</time>
      </trkpt>
      <trkpt lat="42.699822038412094" lon="-7.090753968805075">
        <ele>1238</ele>
        <time>2018-05-21T10:14:09Z</time>
      </trkpt>
      <trkpt lat="42.699802005663514" lon="-7.090724967420101">
        <ele>1238</ele>
        <time>2018-05-21T10:14:09Z</time>
      </trkpt>
      <trkpt lat="42.699781972914934" lon="-7.090688003227115">
        <ele>1238</ele>
        <time>2018-05-21T10:14:11Z</time>
      </trkpt>
      <trkpt lat="42.699765041470528" lon="-7.090659001842141">
        <ele>1238</ele>
        <time>2018-05-21T10:14:11Z</time>
      </trkpt>
      <trkpt lat="42.699750959873199" lon="-7.090633017942309">
        <ele>1238</ele>
        <time>2018-05-21T10:14:12Z</time>
      </trkpt>
      <trkpt lat="42.699734028428793" lon="-7.090603010728955">
        <ele>1238</ele>
        <time>2018-05-21T10:14:13Z</time>
      </trkpt>
      <trkpt lat="42.699721036478877" lon="-7.090565962716937">
        <ele>1238</ele>
        <time>2018-05-21T10:14:14Z</time>
      </trkpt>
      <trkpt lat="42.699704021215439" lon="-7.090533021837473">
        <ele>1238</ele>
        <time>2018-05-21T10:14:15Z</time>
      </trkpt>
      <trkpt lat="42.699687005952001" lon="-7.09050502628088">
        <ele>1238</ele>
        <time>2018-05-21T10:14:15Z</time>
      </trkpt>
      <trkpt lat="42.699670996516943" lon="-7.090480970218778">
        <ele>1238</ele>
        <time>2018-05-21T10:14:16Z</time>
      </trkpt>
      <trkpt lat="42.699651969596744" lon="-7.090450963005424">
        <ele>1238</ele>
        <time>2018-05-21T10:14:17Z</time>
      </trkpt>
      <trkpt lat="42.699637971818447" lon="-7.09042196162045">
        <ele>1238</ele>
        <time>2018-05-21T10:14:18Z</time>
      </trkpt>
      <trkpt lat="42.699635038152337" lon="-7.090380974113941">
        <ele>1238</ele>
        <time>2018-05-21T10:14:19Z</time>
      </trkpt>
      <trkpt lat="42.699632020667195" lon="-7.090345015749335">
        <ele>1245</ele>
        <time>2018-05-21T10:14:20Z</time>
      </trkpt>
      <trkpt lat="42.699627997353673" lon="-7.090304028242827">
        <ele>1245</ele>
        <time>2018-05-21T10:14:20Z</time>
      </trkpt>
      <trkpt lat="42.699627997353673" lon="-7.090266980230808">
        <ele>1245</ele>
        <time>2018-05-21T10:14:21Z</time>
      </trkpt>
      <trkpt lat="42.699627997353673" lon="-7.090225992724299">
        <ele>1245</ele>
        <time>2018-05-21T10:14:22Z</time>
      </trkpt>
      <trkpt lat="42.699627997353673" lon="-7.090185005217791">
        <ele>1245</ele>
        <time>2018-05-21T10:14:23Z</time>
      </trkpt>
      <trkpt lat="42.699627997353673" lon="-7.090131025761366">
        <ele>1245</ele>
        <time>2018-05-21T10:14:24Z</time>
      </trkpt>
      <trkpt lat="42.699627997353673" lon="-7.090081991627812">
        <ele>1245</ele>
        <time>2018-05-21T10:14:25Z</time>
      </trkpt>
      <trkpt lat="42.699627997353673" lon="-7.090036980807781">
        <ele>1245</ele>
        <time>2018-05-21T10:14:26Z</time>
      </trkpt>
      <trkpt lat="42.699627997353673" lon="-7.08999196998775">
        <ele>1245</ele>
        <time>2018-05-21T10:14:27Z</time>
      </trkpt>
      <trkpt lat="42.699627997353673" lon="-7.089955005794764">
        <ele>1245</ele>
        <time>2018-05-21T10:14:28Z</time>
      </trkpt>
      <trkpt lat="42.699627997353673" lon="-7.089914018288255">
        <ele>1245</ele>
        <time>2018-05-21T10:14:29Z</time>
      </trkpt>
      <trkpt lat="42.699627997353673" lon="-7.089873030781746">
        <ele>1245</ele>
        <time>2018-05-21T10:14:30Z</time>
      </trkpt>
      <trkpt lat="42.699627997353673" lon="-7.089835982769728">
        <ele>1245</ele>
        <time>2018-05-21T10:14:31Z</time>
      </trkpt>
      <trkpt lat="42.699627997353673" lon="-7.089794995263219">
        <ele>1245</ele>
        <time>2018-05-21T10:14:32Z</time>
      </trkpt>
      <trkpt lat="42.699627997353673" lon="-7.08975400775671">
        <ele>1245</ele>
        <time>2018-05-21T10:14:33Z</time>
      </trkpt>
      <trkpt lat="42.699627997353673" lon="-7.089716959744692">
        <ele>1245</ele>
        <time>2018-05-21T10:14:33Z</time>
      </trkpt>
      <trkpt lat="42.699627997353673" lon="-7.089678989723325">
        <ele>1245</ele>
        <time>2018-05-21T10:14:34Z</time>
      </trkpt>
      <trkpt lat="42.699638977646828" lon="-7.089589973911643">
        <ele>1245</ele>
        <time>2018-05-21T10:14:36Z</time>
      </trkpt>
      <trkpt lat="42.699641995131969" lon="-7.08955803886056">
        <ele>1245</ele>
        <time>2018-05-21T10:14:37Z</time>
      </trkpt>
      <trkpt lat="42.699641995131969" lon="-7.089520990848541">
        <ele>1258</ele>
        <time>2018-05-21T10:14:38Z</time>
      </trkpt>
      <trkpt lat="42.699641995131969" lon="-7.089484026655555">
        <ele>1258</ele>
        <time>2018-05-21T10:14:39Z</time>
      </trkpt>
      <trkpt lat="42.699641995131969" lon="-7.089446978643537">
        <ele>1258</ele>
        <time>2018-05-21T10:14:39Z</time>
      </trkpt>
      <trkpt lat="42.699635038152337" lon="-7.089417977258563">
        <ele>1258</ele>
        <time>2018-05-21T10:14:40Z</time>
      </trkpt>
      <trkpt lat="42.699632020667195" lon="-7.089382018893957">
        <ele>1258</ele>
        <time>2018-05-21T10:14:41Z</time>
      </trkpt>
      <trkpt lat="42.699617017060518" lon="-7.089357040822506">
        <ele>1258</ele>
        <time>2018-05-21T10:14:42Z</time>
      </trkpt>
      <trkpt lat="42.699606958776712" lon="-7.089318986982107">
        <ele>1258</ele>
        <time>2018-05-21T10:14:42Z</time>
      </trkpt>
      <trkpt lat="42.699592960998416" lon="-7.089276993647218">
        <ele>1258</ele>
        <time>2018-05-21T10:14:43Z</time>
      </trkpt>
      <trkpt lat="42.699554990977049" lon="-7.089169034734368">
        <ele>1259</ele>
        <time>2018-05-21T10:14:46Z</time>
      </trkpt>
      <trkpt lat="42.699494976550341" lon="-7.088984968140721">
        <ele>1259</ele>
        <time>2018-05-21T10:14:50Z</time>
      </trkpt>
      <trkpt lat="42.699442002922297" lon="-7.088782964274287">
        <ele>1259</ele>
        <time>2018-05-21T10:14:55Z</time>
      </trkpt>
      <trkpt lat="42.699442002922297" lon="-7.088777013123035">
        <ele>1259</ele>
        <time>2018-05-21T10:14:55Z</time>
      </trkpt>
      <trkpt lat="42.699375031515956" lon="-7.088585989549756">
        <ele>1260</ele>
        <time>2018-05-21T10:15:00Z</time>
      </trkpt>
      <trkpt lat="42.699334966018796" lon="-7.08842396736145">
        <ele>1260</ele>
        <time>2018-05-21T10:15:03Z</time>
      </trkpt>
      <trkpt lat="42.699320968240499" lon="-7.088265968486667">
        <ele>1260</ele>
        <time>2018-05-21T10:15:07Z</time>
      </trkpt>
      <trkpt lat="42.699284004047513" lon="-7.08799296990037">
        <ele>1260</ele>
        <time>2018-05-21T10:15:13Z</time>
      </trkpt>
      <trkpt lat="42.699284004047513" lon="-7.087988024577498">
        <ele>1260</ele>
        <time>2018-05-21T10:15:13Z</time>
      </trkpt>
      <trkpt lat="42.699266988784075" lon="-7.087793983519077">
        <ele>1261</ele>
        <time>2018-05-21T10:15:17Z</time>
      </trkpt>
      <trkpt lat="42.699236981570721" lon="-7.087620981037617">
        <ele>1261</ele>
        <time>2018-05-21T10:15:21Z</time>
      </trkpt>
      <trkpt lat="42.699220972135663" lon="-7.087443033233285">
        <ele>1261</ele>
        <time>2018-05-21T10:15:25Z</time>
      </trkpt>
      <trkpt lat="42.699181996285915" lon="-7.087268019095063">
        <ele>1261</ele>
        <time>2018-05-21T10:15:29Z</time>
      </trkpt>
      <trkpt lat="42.699155006557703" lon="-7.087093004956842">
        <ele>1261</ele>
        <time>2018-05-21T10:15:33Z</time>
      </trkpt>
      <trkpt lat="42.699146959930658" lon="-7.087084958329797">
        <ele>1261</ele>
        <time>2018-05-21T10:15:33Z</time>
      </trkpt>
      <trkpt lat="42.699108989909291" lon="-7.086911033838987">
        <ele>1269</ele>
        <time>2018-05-21T10:15:37Z</time>
      </trkpt>
      <trkpt lat="42.699079988524318" lon="-7.086657984182239">
        <ele>1269</ele>
        <time>2018-05-21T10:15:43Z</time>
      </trkpt>
      <trkpt lat="42.699027014896274" lon="-7.086340980604291">
        <ele>1269</ele>
        <time>2018-05-21T10:15:50Z</time>
      </trkpt>
      <trkpt lat="42.698983009904623" lon="-7.086060019209981">
        <ele>1278</ele>
        <time>2018-05-21T10:15:56Z</time>
      </trkpt>
      <trkpt lat="42.698947973549366" lon="-7.085833037272096">
        <ele>1278</ele>
        <time>2018-05-21T10:16:01Z</time>
      </trkpt>
      <trkpt lat="42.698916038498282" lon="-7.085574958473444">
        <ele>1278</ele>
        <time>2018-05-21T10:16:07Z</time>
      </trkpt>
      <trkpt lat="42.698886031284928" lon="-7.085372032597661">
        <ele>1278</ele>
        <time>2018-05-21T10:16:11Z</time>
      </trkpt>
      <trkpt lat="42.698857029899955" lon="-7.08515795879066">
        <ele>1282</ele>
        <time>2018-05-21T10:16:16Z</time>
      </trkpt>
      <trkpt lat="42.698839008808136" lon="-7.085077995434403">
        <ele>1282</ele>
        <time>2018-05-21T10:16:18Z</time>
      </trkpt>
      <trkpt lat="42.69882601685822" lon="-7.084981016814709">
        <ele>1282</ele>
        <time>2018-05-21T10:16:20Z</time>
      </trkpt>
      <trkpt lat="42.698815036565065" lon="-7.084910022094846">
        <ele>1282</ele>
        <time>2018-05-21T10:16:22Z</time>
      </trkpt>
      <trkpt lat="42.698806989938021" lon="-7.084826035425067">
        <ele>1282</ele>
        <time>2018-05-21T10:16:23Z</time>
      </trkpt>
      <trkpt lat="42.698791986331344" lon="-7.084730984643102">
        <ele>1282</ele>
        <time>2018-05-21T10:16:26Z</time>
      </trkpt>
      <trkpt lat="42.698785029351711" lon="-7.084677005186677">
        <ele>1282</ele>
        <time>2018-05-21T10:16:27Z</time>
      </trkpt>
      <trkpt lat="42.698769019916654" lon="-7.084608022123575">
        <ele>1282</ele>
        <time>2018-05-21T10:16:28Z</time>
      </trkpt>
      <trkpt lat="42.698757033795118" lon="-7.084543984383345">
        <ele>1257</ele>
        <time>2018-05-21T10:16:30Z</time>
      </trkpt>
      <trkpt lat="42.698748987168074" lon="-7.084482964128256">
        <ele>1257</ele>
        <time>2018-05-21T10:16:31Z</time>
      </trkpt>
      <trkpt lat="42.698747981339693" lon="-7.084473995491862">
        <ele>1257</ele>
        <time>2018-05-21T10:16:31Z</time>
      </trkpt>
      <trkpt lat="42.698744963854551" lon="-7.084456980228424">
        <ele>1266</ele>
        <time>2018-05-21T10:16:32Z</time>
      </trkpt>
      <trkpt lat="42.69874001853168" lon="-7.084438959136605">
        <ele>1266</ele>
        <time>2018-05-21T10:16:32Z</time>
      </trkpt>
      <trkpt lat="42.698731971904635" lon="-7.084428984671831">
        <ele>1266</ele>
        <time>2018-05-21T10:16:32Z</time>
      </trkpt>
      <trkpt lat="42.698725014925003" lon="-7.084418004378676">
        <ele>1266</ele>
        <time>2018-05-21T10:16:33Z</time>
      </trkpt>
      <trkpt lat="42.698716968297958" lon="-7.084408029913902">
        <ele>1266</ele>
        <time>2018-05-21T10:16:33Z</time>
      </trkpt>
      <trkpt lat="42.698709005489945" lon="-7.084398977458477">
        <ele>1266</ele>
        <time>2018-05-21T10:16:33Z</time>
      </trkpt>
      <trkpt lat="42.698701964691281" lon="-7.084391014650464">
        <ele>1266</ele>
        <time>2018-05-21T10:16:34Z</time>
      </trkpt>
      <trkpt lat="42.698691990226507" lon="-7.084382968023419">
        <ele>1266</ele>
        <time>2018-05-21T10:16:34Z</time>
      </trkpt>
      <trkpt lat="42.698681009933352" lon="-7.084372993558645">
        <ele>1266</ele>
        <time>2018-05-21T10:16:34Z</time>
      </trkpt>
      <trkpt lat="42.698669023811817" lon="-7.084365030750632">
        <ele>1266</ele>
        <time>2018-05-21T10:16:35Z</time>
      </trkpt>
      <trkpt lat="42.698657037690282" lon="-7.084357989951968">
        <ele>1266</ele>
        <time>2018-05-21T10:16:35Z</time>
      </trkpt>
      <trkpt lat="42.698644967749715" lon="-7.084352038800716">
        <ele>1266</ele>
        <time>2018-05-21T10:16:36Z</time>
      </trkpt>
      <trkpt lat="42.69863298162818" lon="-7.084348015487194">
        <ele>1266</ele>
        <time>2018-05-21T10:16:36Z</time>
      </trkpt>
      <trkpt lat="42.698623007163405" lon="-7.084341980516911">
        <ele>1266</ele>
        <time>2018-05-21T10:16:36Z</time>
      </trkpt>
      <trkpt lat="42.698612026870251" lon="-7.084337035194039">
        <ele>1266</ele>
        <time>2018-05-21T10:16:37Z</time>
      </trkpt>
      <trkpt lat="42.698601968586445" lon="-7.084334017708898">
        <ele>1266</ele>
        <time>2018-05-21T10:16:37Z</time>
      </trkpt>
      <trkpt lat="42.698591994121671" lon="-7.084326976910234">
        <ele>1266</ele>
        <time>2018-05-21T10:16:37Z</time>
      </trkpt>
      <trkpt lat="42.698581013828516" lon="-7.084313984960318">
        <ele>1266</ele>
        <time>2018-05-21T10:16:38Z</time>
      </trkpt>
      <trkpt lat="42.698569027706981" lon="-7.084304010495544">
        <ele>1266</ele>
        <time>2018-05-21T10:16:38Z</time>
      </trkpt>
      <trkpt lat="42.698558969423175" lon="-7.084296969696879">
        <ele>1266</ele>
        <time>2018-05-21T10:16:38Z</time>
      </trkpt>
      <trkpt lat="42.698552012443542" lon="-7.084286995232105">
        <ele>1266</ele>
        <time>2018-05-21T10:16:39Z</time>
      </trkpt>
      <trkpt lat="42.698542037978768" lon="-7.084280038252473">
        <ele>1266</ele>
        <time>2018-05-21T10:16:39Z</time>
      </trkpt>
      <trkpt lat="42.698533991351724" lon="-7.084268974140286">
        <ele>1266</ele>
        <time>2018-05-21T10:16:39Z</time>
      </trkpt>
      <trkpt lat="42.698528040200472" lon="-7.084261011332274">
        <ele>1266</ele>
        <time>2018-05-21T10:16:40Z</time>
      </trkpt>
      <trkpt lat="42.698523011058569" lon="-7.084247013553977">
        <ele>1266</ele>
        <time>2018-05-21T10:16:40Z</time>
      </trkpt>
      <trkpt lat="42.698520999401808" lon="-7.084229998290539">
        <ele>1266</ele>
        <time>2018-05-21T10:16:40Z</time>
      </trkpt>
      <trkpt lat="42.69852401688695" lon="-7.084218012169004">
        <ele>1266</ele>
        <time>2018-05-21T10:16:41Z</time>
      </trkpt>
      <trkpt lat="42.698528040200472" lon="-7.084208037704229">
        <ele>1266</ele>
        <time>2018-05-21T10:16:41Z</time>
      </trkpt>
      <trkpt lat="42.698537008836865" lon="-7.084199991077185">
        <ele>1266</ele>
        <time>2018-05-21T10:16:41Z</time>
      </trkpt>
      <trkpt lat="42.698542959988117" lon="-7.08418901078403">
        <ele>1266</ele>
        <time>2018-05-21T10:16:42Z</time>
      </trkpt>
      <trkpt lat="42.69854798913002" lon="-7.084179036319256">
        <ele>1266</ele>
        <time>2018-05-21T10:16:42Z</time>
      </trkpt>
      <trkpt lat="42.698551006615162" lon="-7.084166966378689">
        <ele>1266</ele>
        <time>2018-05-21T10:16:42Z</time>
      </trkpt>
      <trkpt lat="42.698552012443542" lon="-7.084153974428773">
        <ele>1266</ele>
        <time>2018-05-21T10:16:42Z</time>
      </trkpt>
      <trkpt lat="42.698552012443542" lon="-7.084136959165335">
        <ele>1266</ele>
        <time>2018-05-21T10:16:43Z</time>
      </trkpt>
      <trkpt lat="42.698554024100304" lon="-7.084122039377689">
        <ele>1266</ele>
        <time>2018-05-21T10:16:43Z</time>
      </trkpt>
      <trkpt lat="42.698554024100304" lon="-7.084107035771012">
        <ele>1266</ele>
        <time>2018-05-21T10:16:43Z</time>
      </trkpt>
      <trkpt lat="42.698554024100304" lon="-7.084091026335955">
        <ele>1266</ele>
        <time>2018-05-21T10:16:44Z</time>
      </trkpt>
      <trkpt lat="42.698556035757065" lon="-7.084078034386039">
        <ele>1266</ele>
        <time>2018-05-21T10:16:44Z</time>
      </trkpt>
      <trkpt lat="42.698558969423175" lon="-7.084061019122601">
        <ele>1266</ele>
        <time>2018-05-21T10:16:44Z</time>
      </trkpt>
      <trkpt lat="42.698561986908317" lon="-7.084042998030782">
        <ele>1266</ele>
        <time>2018-05-21T10:16:45Z</time>
      </trkpt>
      <trkpt lat="42.698566010221839" lon="-7.084030006080866">
        <ele>1266</ele>
        <time>2018-05-21T10:16:45Z</time>
      </trkpt>
      <trkpt lat="42.698571961373091" lon="-7.084019025787711">
        <ele>1266</ele>
        <time>2018-05-21T10:16:46Z</time>
      </trkpt>
      <trkpt lat="42.698579002171755" lon="-7.084007961675525">
        <ele>1266</ele>
        <time>2018-05-21T10:16:46Z</time>
      </trkpt>
      <trkpt lat="42.698583025485277" lon="-7.083994969725609">
        <ele>1266</ele>
        <time>2018-05-21T10:16:46Z</time>
      </trkpt>
      <trkpt lat="42.698587970808148" lon="-7.083981977775693">
        <ele>1266</ele>
        <time>2018-05-21T10:16:46Z</time>
      </trkpt>
      <trkpt lat="42.698595011606812" lon="-7.083964962512255">
        <ele>1266</ele>
        <time>2018-05-21T10:16:47Z</time>
      </trkpt>
      <trkpt lat="42.698602974414825" lon="-7.083951970562339">
        <ele>1266</ele>
        <time>2018-05-21T10:16:47Z</time>
      </trkpt>
      <trkpt lat="42.698609009385109" lon="-7.083936966955662">
        <ele>1266</ele>
        <time>2018-05-21T10:16:48Z</time>
      </trkpt>
      <trkpt lat="42.698613032698631" lon="-7.083923975005746">
        <ele>1266</ele>
        <time>2018-05-21T10:16:48Z</time>
      </trkpt>
      <trkpt lat="42.698619989678264" lon="-7.083907965570688">
        <ele>1266</ele>
        <time>2018-05-21T10:16:48Z</time>
      </trkpt>
      <trkpt lat="42.698623007163405" lon="-7.083892961964011">
        <ele>1266</ele>
        <time>2018-05-21T10:16:49Z</time>
      </trkpt>
      <trkpt lat="42.698630969971418" lon="-7.083874018862844">
        <ele>1266</ele>
        <time>2018-05-21T10:16:49Z</time>
      </trkpt>
      <trkpt lat="42.698635999113321" lon="-7.083860021084547">
        <ele>1266</ele>
        <time>2018-05-21T10:16:50Z</time>
      </trkpt>
      <trkpt lat="42.698640022426844" lon="-7.083847029134631">
        <ele>1266</ele>
        <time>2018-05-21T10:16:50Z</time>
      </trkpt>
      <trkpt lat="42.698645973578095" lon="-7.083834037184715">
        <ele>1266</ele>
        <time>2018-05-21T10:16:50Z</time>
      </trkpt>
      <trkpt lat="42.69865402020514" lon="-7.083821967244148">
        <ele>1266</ele>
        <time>2018-05-21T10:16:51Z</time>
      </trkpt>
      <trkpt lat="42.698662988841534" lon="-7.083804029971361">
        <ele>1266</ele>
        <time>2018-05-21T10:16:51Z</time>
      </trkpt>
      <trkpt lat="42.698672041296959" lon="-7.083791038021445">
        <ele>1266</ele>
        <time>2018-05-21T10:16:51Z</time>
      </trkpt>
      <trkpt lat="42.698678998276591" lon="-7.083778968080878">
        <ele>1266</ele>
        <time>2018-05-21T10:16:52Z</time>
      </trkpt>
      <trkpt lat="42.698686961084604" lon="-7.083764970302582">
        <ele>1266</ele>
        <time>2018-05-21T10:16:52Z</time>
      </trkpt>
      <trkpt lat="42.69869601354003" lon="-7.083752984181047">
        <ele>1266</ele>
        <time>2018-05-21T10:16:53Z</time>
      </trkpt>
      <trkpt lat="42.698703976348042" lon="-7.083740998059511">
        <ele>1266</ele>
        <time>2018-05-21T10:16:53Z</time>
      </trkpt>
      <trkpt lat="42.698710011318326" lon="-7.083731023594737">
        <ele>1266</ele>
        <time>2018-05-21T10:16:53Z</time>
      </trkpt>
      <trkpt lat="42.698715962469578" lon="-7.083714008331299">
        <ele>1266</ele>
        <time>2018-05-21T10:16:54Z</time>
      </trkpt>
      <trkpt lat="42.69871897995472" lon="-7.083702022209764">
        <ele>1266</ele>
        <time>2018-05-21T10:16:54Z</time>
      </trkpt>
      <trkpt lat="42.698721997439861" lon="-7.083690036088228">
        <ele>1266</ele>
        <time>2018-05-21T10:16:54Z</time>
      </trkpt>
      <trkpt lat="42.698724009096622" lon="-7.083675032481551">
        <ele>1266</ele>
        <time>2018-05-21T10:16:55Z</time>
      </trkpt>
      <trkpt lat="42.698729038238525" lon="-7.083656005561352">
        <ele>1266</ele>
        <time>2018-05-21T10:16:55Z</time>
      </trkpt>
      <trkpt lat="42.698733983561397" lon="-7.083638990297914">
        <ele>1272</ele>
        <time>2018-05-21T10:16:55Z</time>
      </trkpt>
      <trkpt lat="42.698741024360061" lon="-7.083621975034475">
        <ele>1272</ele>
        <time>2018-05-21T10:16:56Z</time>
      </trkpt>
      <trkpt lat="42.698744963854551" lon="-7.083605965599418">
        <ele>1272</ele>
        <time>2018-05-21T10:16:56Z</time>
      </trkpt>
      <trkpt lat="42.698745969682932" lon="-7.083590961992741">
        <ele>1272</ele>
        <time>2018-05-21T10:16:56Z</time>
      </trkpt>
      <trkpt lat="42.698746975511312" lon="-7.083575958386064">
        <ele>1272</ele>
        <time>2018-05-21T10:16:57Z</time>
      </trkpt>
      <trkpt lat="42.698748987168074" lon="-7.083557015284896">
        <ele>1272</ele>
        <time>2018-05-21T10:16:57Z</time>
      </trkpt>
      <trkpt lat="42.698752004653215" lon="-7.083536982536316">
        <ele>1272</ele>
        <time>2018-05-21T10:16:58Z</time>
      </trkpt>
      <trkpt lat="42.698755022138357" lon="-7.083522984758019">
        <ele>1272</ele>
        <time>2018-05-21T10:16:58Z</time>
      </trkpt>
      <trkpt lat="42.698757033795118" lon="-7.083506975322962">
        <ele>1272</ele>
        <time>2018-05-21T10:16:58Z</time>
      </trkpt>
      <trkpt lat="42.698757033795118" lon="-7.083489960059524">
        <ele>1272</ele>
        <time>2018-05-21T10:16:59Z</time>
      </trkpt>
      <trkpt lat="42.698758039623499" lon="-7.083475962281227">
        <ele>1272</ele>
        <time>2018-05-21T10:16:59Z</time>
      </trkpt>
      <trkpt lat="42.698760973289609" lon="-7.08346095867455">
        <ele>1272</ele>
        <time>2018-05-21T10:16:59Z</time>
      </trkpt>
      <trkpt lat="42.69876298494637" lon="-7.083447966724634">
        <ele>1249</ele>
        <time>2018-05-21T10:17:00Z</time>
      </trkpt>
      <trkpt lat="42.698764996603131" lon="-7.083431035280228">
        <ele>1249</ele>
        <time>2018-05-21T10:17:00Z</time>
      </trkpt>
      <trkpt lat="42.698767008259892" lon="-7.083413014188409">
        <ele>1249</ele>
        <time>2018-05-21T10:17:00Z</time>
      </trkpt>
      <trkpt lat="42.698767008259892" lon="-7.083398010581732">
        <ele>1249</ele>
        <time>2018-05-21T10:17:01Z</time>
      </trkpt>
      <trkpt lat="42.698770025745034" lon="-7.083383006975055">
        <ele>1249</ele>
        <time>2018-05-21T10:17:01Z</time>
      </trkpt>
      <trkpt lat="42.698770025745034" lon="-7.083362974226475">
        <ele>1249</ele>
        <time>2018-05-21T10:17:02Z</time>
      </trkpt>
      <trkpt lat="42.698771031573415" lon="-7.083344031125307">
        <ele>1249</ele>
        <time>2018-05-21T10:17:02Z</time>
      </trkpt>
      <trkpt lat="42.698771031573415" lon="-7.083318969234824">
        <ele>1249</ele>
        <time>2018-05-21T10:17:02Z</time>
      </trkpt>
      <trkpt lat="42.698771031573415" lon="-7.083301031962037">
        <ele>1249</ele>
        <time>2018-05-21T10:17:03Z</time>
      </trkpt>
      <trkpt lat="42.698771031573415" lon="-7.08328602835536">
        <ele>1249</ele>
        <time>2018-05-21T10:17:03Z</time>
      </trkpt>
      <trkpt lat="42.698771031573415" lon="-7.083267001435161">
        <ele>1249</ele>
        <time>2018-05-21T10:17:04Z</time>
      </trkpt>
      <trkpt lat="42.698772959411144" lon="-7.083245040848851">
        <ele>1249</ele>
        <time>2018-05-21T10:17:04Z</time>
      </trkpt>
      <trkpt lat="42.698772959411144" lon="-7.083230959251523">
        <ele>1249</ele>
        <time>2018-05-21T10:17:04Z</time>
      </trkpt>
      <trkpt lat="42.698772959411144" lon="-7.083214027807117">
        <ele>1249</ele>
        <time>2018-05-21T10:17:05Z</time>
      </trkpt>
      <trkpt lat="42.698772959411144" lon="-7.083189971745014">
        <ele>1249</ele>
        <time>2018-05-21T10:17:05Z</time>
      </trkpt>
      <trkpt lat="42.698772959411144" lon="-7.083170022815466">
        <ele>1249</ele>
        <time>2018-05-21T10:17:06Z</time>
      </trkpt>
      <trkpt lat="42.698772959411144" lon="-7.083146972581744">
        <ele>1249</ele>
        <time>2018-05-21T10:17:06Z</time>
      </trkpt>
      <trkpt lat="42.698772959411144" lon="-7.083127023652196">
        <ele>1249</ele>
        <time>2018-05-21T10:17:07Z</time>
      </trkpt>
      <trkpt lat="42.698773965239525" lon="-7.083112020045519">
        <ele>1249</ele>
        <time>2018-05-21T10:17:07Z</time>
      </trkpt>
      <trkpt lat="42.698773965239525" lon="-7.083088969811797">
        <ele>1249</ele>
        <time>2018-05-21T10:17:07Z</time>
      </trkpt>
      <trkpt lat="42.698773965239525" lon="-7.083062985911965">
        <ele>1249</ele>
        <time>2018-05-21T10:17:08Z</time>
      </trkpt>
      <trkpt lat="42.698773965239525" lon="-7.083043958991766">
        <ele>1249</ele>
        <time>2018-05-21T10:17:08Z</time>
      </trkpt>
      <trkpt lat="42.698773965239525" lon="-7.083024010062218">
        <ele>1249</ele>
        <time>2018-05-21T10:17:09Z</time>
      </trkpt>
      <trkpt lat="42.698773965239525" lon="-7.083009006455541">
        <ele>1249</ele>
        <time>2018-05-21T10:17:09Z</time>
      </trkpt>
      <trkpt lat="42.698773965239525" lon="-7.082988973706961">
        <ele>1249</ele>
        <time>2018-05-21T10:17:10Z</time>
      </trkpt>
      <trkpt lat="42.698773965239525" lon="-7.082972964271903">
        <ele>1249</ele>
        <time>2018-05-21T10:17:10Z</time>
      </trkpt>
      <trkpt lat="42.698773965239525" lon="-7.082957038655877">
        <ele>1249</ele>
        <time>2018-05-21T10:17:10Z</time>
      </trkpt>
      <trkpt lat="42.698773965239525" lon="-7.082939017564058">
        <ele>1249</ele>
        <time>2018-05-21T10:17:11Z</time>
      </trkpt>
      <trkpt lat="42.698774971067905" lon="-7.082919990643859">
        <ele>1249</ele>
        <time>2018-05-21T10:17:11Z</time>
      </trkpt>
      <trkpt lat="42.698774971067905" lon="-7.082893000915647">
        <ele>1249</ele>
        <time>2018-05-21T10:17:12Z</time>
      </trkpt>
      <trkpt lat="42.698774971067905" lon="-7.082865005359054">
        <ele>1249</ele>
        <time>2018-05-21T10:17:12Z</time>
      </trkpt>
      <trkpt lat="42.698771031573415" lon="-7.082865005359054">
        <ele>1249</ele>
        <time>2018-05-21T10:17:12Z</time>
      </trkpt>
      <trkpt lat="42.698771031573415" lon="-7.082756962627173">
        <ele>1233</ele>
        <time>2018-05-21T10:17:15Z</time>
      </trkpt>
      <trkpt lat="42.698771031573415" lon="-7.082751011475921">
        <ele>1233</ele>
        <time>2018-05-21T10:17:15Z</time>
      </trkpt>
      <trkpt lat="42.698787041008472" lon="-7.082583960145712">
        <ele>1233</ele>
        <time>2018-05-21T10:17:19Z</time>
      </trkpt>
      <trkpt lat="42.698790980502963" lon="-7.082501985132694">
        <ele>1233</ele>
        <time>2018-05-21T10:17:20Z</time>
      </trkpt>
      <trkpt lat="42.698790980502963" lon="-7.082478012889624">
        <ele>1233</ele>
        <time>2018-05-21T10:17:21Z</time>
      </trkpt>
      <trkpt lat="42.698795003816485" lon="-7.082442976534367">
        <ele>1233</ele>
        <time>2018-05-21T10:17:22Z</time>
      </trkpt>
      <trkpt lat="42.698795003816485" lon="-7.082300987094641">
        <ele>1233</ele>
        <time>2018-05-21T10:17:25Z</time>
      </trkpt>
      <trkpt lat="42.698795003816485" lon="-7.082295035943389">
        <ele>1233</ele>
        <time>2018-05-21T10:17:25Z</time>
      </trkpt>
      <trkpt lat="42.698799027130008" lon="-7.082150029018521">
        <ele>1233</ele>
        <time>2018-05-21T10:17:28Z</time>
      </trkpt>
      <trkpt lat="42.69880497828126" lon="-7.082051038742065">
        <ele>1233</ele>
        <time>2018-05-21T10:17:30Z</time>
      </trkpt>
      <trkpt lat="42.69882501102984" lon="-7.081892034038901">
        <ele>1236</ele>
        <time>2018-05-21T10:17:34Z</time>
      </trkpt>
      <trkpt lat="42.698829034343362" lon="-7.081762030720711">
        <ele>1236</ele>
        <time>2018-05-21T10:17:37Z</time>
      </trkpt>
      <trkpt lat="42.698844959959388" lon="-7.081629009917378">
        <ele>1236</ele>
        <time>2018-05-21T10:17:39Z</time>
      </trkpt>
      <trkpt lat="42.698844959959388" lon="-7.081515016034246">
        <ele>1236</ele>
        <time>2018-05-21T10:17:42Z</time>
      </trkpt>
      <trkpt lat="42.698858035728335" lon="-7.081405967473984">
        <ele>1236</ele>
        <time>2018-05-21T10:17:44Z</time>
      </trkpt>
      <trkpt lat="42.698858035728335" lon="-7.081385012716055">
        <ele>1236</ele>
        <time>2018-05-21T10:17:45Z</time>
      </trkpt>
      <trkpt lat="42.698858035728335" lon="-7.081347964704037">
        <ele>1236</ele>
        <time>2018-05-21T10:17:46Z</time>
      </trkpt>
      <trkpt lat="42.698858035728335" lon="-7.08131100051105">
        <ele>1236</ele>
        <time>2018-05-21T10:17:46Z</time>
      </trkpt>
      <trkpt lat="42.698858035728335" lon="-7.081265989691019">
        <ele>1236</ele>
        <time>2018-05-21T10:17:47Z</time>
      </trkpt>
      <trkpt lat="42.698858035728335" lon="-7.081229025498033">
        <ele>1236</ele>
        <time>2018-05-21T10:17:48Z</time>
      </trkpt>
      <trkpt lat="42.698858035728335" lon="-7.081191977486014">
        <ele>1236</ele>
        <time>2018-05-21T10:17:49Z</time>
      </trkpt>
      <trkpt lat="42.698858035728335" lon="-7.081155013293028">
        <ele>1235</ele>
        <time>2018-05-21T10:17:50Z</time>
      </trkpt>
      <trkpt lat="42.698855018243194" lon="-7.081114025786519">
        <ele>1235</ele>
        <time>2018-05-21T10:17:51Z</time>
      </trkpt>
      <trkpt lat="42.698844959959388" lon="-7.081069014966488">
        <ele>1235</ele>
        <time>2018-05-21T10:17:52Z</time>
      </trkpt>
      <trkpt lat="42.698834985494614" lon="-7.081024004146457">
        <ele>1235</ele>
        <time>2018-05-21T10:17:53Z</time>
      </trkpt>
      <trkpt lat="42.698831968009472" lon="-7.08098603412509">
        <ele>1235</ele>
        <time>2018-05-21T10:17:54Z</time>
      </trkpt>
      <trkpt lat="42.698828028514981" lon="-7.080942029133439">
        <ele>1235</ele>
        <time>2018-05-21T10:17:55Z</time>
      </trkpt>
      <trkpt lat="42.698817970231175" lon="-7.08090104162693">
        <ele>1235</ele>
        <time>2018-05-21T10:17:55Z</time>
      </trkpt>
      <trkpt lat="42.698801960796118" lon="-7.080852007493377">
        <ele>1235</ele>
        <time>2018-05-21T10:17:57Z</time>
      </trkpt>
      <trkpt lat="42.69878201186657" lon="-7.080805990844965">
        <ele>1235</ele>
        <time>2018-05-21T10:17:58Z</time>
      </trkpt>
      <trkpt lat="42.698768014088273" lon="-7.08077397197485">
        <ele>1235</ele>
        <time>2018-05-21T10:17:59Z</time>
      </trkpt>
      <trkpt lat="42.698752004653215" lon="-7.080737007781863">
        <ele>1270</ele>
        <time>2018-05-21T10:18:00Z</time>
      </trkpt>
      <trkpt lat="42.698734989389777" lon="-7.080699959769845">
        <ele>1270</ele>
        <time>2018-05-21T10:18:00Z</time>
      </trkpt>
      <trkpt lat="42.698725014925003" lon="-7.080662995576859">
        <ele>1270</ele>
        <time>2018-05-21T10:18:01Z</time>
      </trkpt>
      <trkpt lat="42.698709005489945" lon="-7.080629970878363">
        <ele>1270</ele>
        <time>2018-05-21T10:18:02Z</time>
      </trkpt>
      <trkpt lat="42.698701964691281" lon="-7.080581020563841">
        <ele>1270</ele>
        <time>2018-05-21T10:18:03Z</time>
      </trkpt>
      <trkpt lat="42.698695007711649" lon="-7.080540033057332">
        <ele>1270</ele>
        <time>2018-05-21T10:18:04Z</time>
      </trkpt>
      <trkpt lat="42.698685033246875" lon="-7.080502985045314">
        <ele>1270</ele>
        <time>2018-05-21T10:18:05Z</time>
      </trkpt>
      <trkpt lat="42.698685033246875" lon="-7.080466020852327">
        <ele>1270</ele>
        <time>2018-05-21T10:18:06Z</time>
      </trkpt>
      <trkpt lat="42.698685033246875" lon="-7.080428972840309">
        <ele>1270</ele>
        <time>2018-05-21T10:18:07Z</time>
      </trkpt>
      <trkpt lat="42.698685033246875" lon="-7.080392008647323">
        <ele>1270</ele>
        <time>2018-05-21T10:18:08Z</time>
      </trkpt>
      <trkpt lat="42.698685033246875" lon="-7.080346997827292">
        <ele>1261</ele>
        <time>2018-05-21T10:18:08Z</time>
      </trkpt>
      <trkpt lat="42.698685033246875" lon="-7.080294024199247">
        <ele>1261</ele>
        <time>2018-05-21T10:18:10Z</time>
      </trkpt>
      <trkpt lat="42.698685033246875" lon="-7.080253036692739">
        <ele>1261</ele>
        <time>2018-05-21T10:18:11Z</time>
      </trkpt>
      <trkpt lat="42.698685033246875" lon="-7.080202996730804">
        <ele>1261</ele>
        <time>2018-05-21T10:18:12Z</time>
      </trkpt>
      <trkpt lat="42.698685033246875" lon="-7.080162009224296">
        <ele>1261</ele>
        <time>2018-05-21T10:18:13Z</time>
      </trkpt>
      <trkpt lat="42.698685033246875" lon="-7.080105012282729">
        <ele>1261</ele>
        <time>2018-05-21T10:18:14Z</time>
      </trkpt>
      <trkpt lat="42.698685033246875" lon="-7.080067964270711">
        <ele>1261</ele>
        <time>2018-05-21T10:18:15Z</time>
      </trkpt>
      <trkpt lat="42.698685033246875" lon="-7.080026976764202">
        <ele>1261</ele>
        <time>2018-05-21T10:18:15Z</time>
      </trkpt>
      <trkpt lat="42.698691990226507" lon="-7.07997802644968">
        <ele>1261</ele>
        <time>2018-05-21T10:18:17Z</time>
      </trkpt>
      <trkpt lat="42.698695007711649" lon="-7.079940978437662">
        <ele>1261</ele>
        <time>2018-05-21T10:18:17Z</time>
      </trkpt>
      <trkpt lat="42.698695007711649" lon="-7.079904014244676">
        <ele>1261</ele>
        <time>2018-05-21T10:18:18Z</time>
      </trkpt>
      <trkpt lat="42.698701964691281" lon="-7.079863026738167">
        <ele>1261</ele>
        <time>2018-05-21T10:18:19Z</time>
      </trkpt>
      <trkpt lat="42.698709005489945" lon="-7.079825978726149">
        <ele>1261</ele>
        <time>2018-05-21T10:18:20Z</time>
      </trkpt>
      <trkpt lat="42.698717974126339" lon="-7.079789014533162">
        <ele>1261</ele>
        <time>2018-05-21T10:18:21Z</time>
      </trkpt>
      <trkpt lat="42.698731971904635" lon="-7.079744003713131">
        <ele>1261</ele>
        <time>2018-05-21T10:18:22Z</time>
      </trkpt>
      <trkpt lat="42.698747981339693" lon="-7.079710979014635">
        <ele>1261</ele>
        <time>2018-05-21T10:18:23Z</time>
      </trkpt>
      <trkpt lat="42.698764996603131" lon="-7.079678038135171">
        <ele>1230</ele>
        <time>2018-05-21T10:18:24Z</time>
      </trkpt>
      <trkpt lat="42.698787963017821" lon="-7.079640990123153">
        <ele>1230</ele>
        <time>2018-05-21T10:18:25Z</time>
      </trkpt>
      <trkpt lat="42.698807995766401" lon="-7.07961299456656">
        <ele>1230</ele>
        <time>2018-05-21T10:18:26Z</time>
      </trkpt>
      <trkpt lat="42.698834985494614" lon="-7.079583993181586">
        <ele>1230</ele>
        <time>2018-05-21T10:18:27Z</time>
      </trkpt>
      <trkpt lat="42.698861975222826" lon="-7.079559015110135">
        <ele>1230</ele>
        <time>2018-05-21T10:18:28Z</time>
      </trkpt>
      <trkpt lat="42.698878990486264" lon="-7.079529007896781">
        <ele>1227</ele>
        <time>2018-05-21T10:18:29Z</time>
      </trkpt>
      <trkpt lat="42.698892988264561" lon="-7.079495983198285">
        <ele>1227</ele>
        <time>2018-05-21T10:18:30Z</time>
      </trkpt>
      <trkpt lat="42.698905980214477" lon="-7.079454995691776">
        <ele>1227</ele>
        <time>2018-05-21T10:18:30Z</time>
      </trkpt>
      <trkpt lat="42.698922995477915" lon="-7.079409984871745">
        <ele>1227</ele>
        <time>2018-05-21T10:18:32Z</time>
      </trkpt>
      <trkpt lat="42.698926012963057" lon="-7.079373020678759">
        <ele>1227</ele>
        <time>2018-05-21T10:18:32Z</time>
      </trkpt>
      <trkpt lat="42.698935987427831" lon="-7.079339995980263">
        <ele>1227</ele>
        <time>2018-05-21T10:18:33Z</time>
      </trkpt>
      <trkpt lat="42.698943028226495" lon="-7.079307977110148">
        <ele>1227</ele>
        <time>2018-05-21T10:18:34Z</time>
      </trkpt>
      <trkpt lat="42.698943028226495" lon="-7.079271012917161">
        <ele>1227</ele>
        <time>2018-05-21T10:18:35Z</time>
      </trkpt>
      <trkpt lat="42.698943028226495" lon="-7.079230025410652">
        <ele>1227</ele>
        <time>2018-05-21T10:18:36Z</time>
      </trkpt>
      <trkpt lat="42.698948979377747" lon="-7.079201024025679">
        <ele>1227</ele>
        <time>2018-05-21T10:18:36Z</time>
      </trkpt>
      <trkpt lat="42.698948979377747" lon="-7.07916397601366">
        <ele>1227</ele>
        <time>2018-05-21T10:18:37Z</time>
      </trkpt>
      <trkpt lat="42.698948979377747" lon="-7.079127011820674">
        <ele>1227</ele>
        <time>2018-05-21T10:18:38Z</time>
      </trkpt>
      <trkpt lat="42.698948979377747" lon="-7.079089963808656">
        <ele>1227</ele>
        <time>2018-05-21T10:18:39Z</time>
      </trkpt>
      <trkpt lat="42.698948979377747" lon="-7.079052999615669">
        <ele>1227</ele>
        <time>2018-05-21T10:18:39Z</time>
      </trkpt>
      <trkpt lat="42.698948979377747" lon="-7.07901201210916">
        <ele>1227</ele>
        <time>2018-05-21T10:18:40Z</time>
      </trkpt>
      <trkpt lat="42.698948979377747" lon="-7.078971024602652">
        <ele>1227</ele>
        <time>2018-05-21T10:18:41Z</time>
      </trkpt>
      <trkpt lat="42.698948979377747" lon="-7.078930037096143">
        <ele>1227</ele>
        <time>2018-05-21T10:18:42Z</time>
      </trkpt>
      <trkpt lat="42.698948979377747" lon="-7.078887959942222">
        <ele>1227</ele>
        <time>2018-05-21T10:18:43Z</time>
      </trkpt>
      <trkpt lat="42.698948979377747" lon="-7.078844960778952">
        <ele>1227</ele>
        <time>2018-05-21T10:18:44Z</time>
      </trkpt>
      <trkpt lat="42.698948979377747" lon="-7.078795004636049">
        <ele>1227</ele>
        <time>2018-05-21T10:18:45Z</time>
      </trkpt>
      <trkpt lat="42.69895501434803" lon="-7.078663995489478">
        <ele>1218</ele>
        <time>2018-05-21T10:18:48Z</time>
      </trkpt>
      <trkpt lat="42.69895501434803" lon="-7.078651003539562">
        <ele>1218</ele>
        <time>2018-05-21T10:18:48Z</time>
      </trkpt>
      <trkpt lat="42.69895501434803" lon="-7.078610016033053">
        <ele>1218</ele>
        <time>2018-05-21T10:18:49Z</time>
      </trkpt>
      <trkpt lat="42.69895501434803" lon="-7.078569028526545">
        <ele>1218</ele>
        <time>2018-05-21T10:18:50Z</time>
      </trkpt>
      <trkpt lat="42.69895501434803" lon="-7.078531980514526">
        <ele>1218</ele>
        <time>2018-05-21T10:18:51Z</time>
      </trkpt>
      <trkpt lat="42.69895501434803" lon="-7.078485963866115">
        <ele>1218</ele>
        <time>2018-05-21T10:18:52Z</time>
      </trkpt>
      <trkpt lat="42.69895501434803" lon="-7.078441036865115">
        <ele>1218</ele>
        <time>2018-05-21T10:18:53Z</time>
      </trkpt>
      <trkpt lat="42.69895501434803" lon="-7.078399965539575">
        <ele>1218</ele>
        <time>2018-05-21T10:18:54Z</time>
      </trkpt>
      <trkpt lat="42.69895501434803" lon="-7.078363001346588">
        <ele>1218</ele>
        <time>2018-05-21T10:18:55Z</time>
      </trkpt>
      <trkpt lat="42.69895501434803" lon="-7.078326037153602">
        <ele>1218</ele>
        <time>2018-05-21T10:18:55Z</time>
      </trkpt>
      <trkpt lat="42.698950991034508" lon="-7.078289994969964">
        <ele>1218</ele>
        <time>2018-05-21T10:18:56Z</time>
      </trkpt>
      <trkpt lat="42.698950991034508" lon="-7.078243978321552">
        <ele>1218</ele>
        <time>2018-05-21T10:18:57Z</time>
      </trkpt>
      <trkpt lat="42.698942022398114" lon="-7.078202990815043">
        <ele>1205</ele>
        <time>2018-05-21T10:18:58Z</time>
      </trkpt>
      <trkpt lat="42.69893498159945" lon="-7.078157979995012">
        <ele>1218</ele>
        <time>2018-05-21T10:18:59Z</time>
      </trkpt>
      <trkpt lat="42.698931964114308" lon="-7.078121015802026">
        <ele>1218</ele>
        <time>2018-05-21T10:19:00Z</time>
      </trkpt>
      <trkpt lat="42.698925007134676" lon="-7.078083967790008">
        <ele>1218</ele>
        <time>2018-05-21T10:19:01Z</time>
      </trkpt>
      <trkpt lat="42.698917966336012" lon="-7.078048009425402">
        <ele>1218</ele>
        <time>2018-05-21T10:19:01Z</time>
      </trkpt>
      <trkpt lat="42.698904974386096" lon="-7.078019008040428">
        <ele>1218</ele>
        <time>2018-05-21T10:19:02Z</time>
      </trkpt>
      <trkpt lat="42.698894999921322" lon="-7.077985983341932">
        <ele>1218</ele>
        <time>2018-05-21T10:19:03Z</time>
      </trkpt>
      <trkpt lat="42.698882007971406" lon="-7.077952958643436">
        <ele>1218</ele>
        <time>2018-05-21T10:19:04Z</time>
      </trkpt>
      <trkpt lat="42.698872033506632" lon="-7.077920017763972">
        <ele>1218</ele>
        <time>2018-05-21T10:19:05Z</time>
      </trkpt>
      <trkpt lat="42.698858035728335" lon="-7.077886993065476">
        <ele>1205</ele>
        <time>2018-05-21T10:19:05Z</time>
      </trkpt>
      <trkpt lat="42.698844037950039" lon="-7.0778529625386">
        <ele>1205</ele>
        <time>2018-05-21T10:19:06Z</time>
      </trkpt>
      <trkpt lat="42.698830040171742" lon="-7.077820021659136">
        <ele>1205</ele>
        <time>2018-05-21T10:19:07Z</time>
      </trkpt>
      <trkpt lat="42.69880598410964" lon="-7.077794037759304">
        <ele>1205</ele>
        <time>2018-05-21T10:19:08Z</time>
      </trkpt>
      <trkpt lat="42.69878301769495" lon="-7.077748021110892">
        <ele>1205</ele>
        <time>2018-05-21T10:19:09Z</time>
      </trkpt>
      <trkpt lat="42.6987199857831" lon="-7.077648025006056">
        <ele>1235</ele>
        <time>2018-05-21T10:19:12Z</time>
      </trkpt>
      <trkpt lat="42.698667012155056" lon="-7.07755196839571">
        <ele>1235</ele>
        <time>2018-05-21T10:19:15Z</time>
      </trkpt>
      <trkpt lat="42.69865402020514" lon="-7.077530007809401">
        <ele>1235</ele>
        <time>2018-05-21T10:19:15Z</time>
      </trkpt>
      <trkpt lat="42.698587970808148" lon="-7.077420959249139">
        <ele>1235</ele>
        <time>2018-05-21T10:19:18Z</time>
      </trkpt>
      <trkpt lat="42.698533991351724" lon="-7.077308977022767">
        <ele>1235</ele>
        <time>2018-05-21T10:19:21Z</time>
      </trkpt>
      <trkpt lat="42.69850398413837" lon="-7.077172016724944">
        <ele>1235</ele>
        <time>2018-05-21T10:19:24Z</time>
      </trkpt>
      <trkpt lat="42.698483029380441" lon="-7.077098004519939">
        <ele>1235</ele>
        <time>2018-05-21T10:19:26Z</time>
      </trkpt>
      <trkpt lat="42.698462996631861" lon="-7.07701301202178">
        <ele>1226</ele>
        <time>2018-05-21T10:19:28Z</time>
      </trkpt>
      <trkpt lat="42.698432989418507" lon="-7.076938999816775">
        <ele>1226</ele>
        <time>2018-05-21T10:19:30Z</time>
      </trkpt>
      <trkpt lat="42.698426032438874" lon="-7.076917039230466">
        <ele>1226</ele>
        <time>2018-05-21T10:19:30Z</time>
      </trkpt>
      <trkpt lat="42.698388984426856" lon="-7.076825005933642">
        <ele>1226</ele>
        <time>2018-05-21T10:19:33Z</time>
      </trkpt>
      <trkpt lat="42.698384961113334" lon="-7.07681997679174">
        <ele>1226</ele>
        <time>2018-05-21T10:19:33Z</time>
      </trkpt>
      <trkpt lat="42.698359983041883" lon="-7.076747976243496">
        <ele>1226</ele>
        <time>2018-05-21T10:19:35Z</time>
      </trkpt>
      <trkpt lat="42.698354031890631" lon="-7.07673498429358">
        <ele>1226</ele>
        <time>2018-05-21T10:19:35Z</time>
      </trkpt>
      <trkpt lat="42.69831002689898" lon="-7.076639011502266">
        <ele>1226</ele>
        <time>2018-05-21T10:19:37Z</time>
      </trkpt>
      <trkpt lat="42.69831002689898" lon="-7.076632976531982">
        <ele>1226</ele>
        <time>2018-05-21T10:19:38Z</time>
      </trkpt>
      <trkpt lat="42.698270967230201" lon="-7.07653901539743">
        <ele>1226</ele>
        <time>2018-05-21T10:19:40Z</time>
      </trkpt>
      <trkpt lat="42.698230985552073" lon="-7.076405994594097">
        <ele>1226</ele>
        <time>2018-05-21T10:19:43Z</time>
      </trkpt>
      <trkpt lat="42.698225034400821" lon="-7.076391996815801">
        <ele>1226</ele>
        <time>2018-05-21T10:19:43Z</time>
      </trkpt>
      <trkpt lat="42.69818002358079" lon="-7.076279008761048">
        <ele>1226</ele>
        <time>2018-05-21T10:19:46Z</time>
      </trkpt>
      <trkpt lat="42.698168959468603" lon="-7.076256964355707">
        <ele>1226</ele>
        <time>2018-05-21T10:19:47Z</time>
      </trkpt>
      <trkpt lat="42.698125960305333" lon="-7.076144982129335">
        <ele>1223</ele>
        <time>2018-05-21T10:19:50Z</time>
      </trkpt>
      <trkpt lat="42.698125960305333" lon="-7.076139030978084">
        <ele>1223</ele>
        <time>2018-05-21T10:19:50Z</time>
      </trkpt>
      <trkpt lat="42.69809402525425" lon="-7.076031994074583">
        <ele>1223</ele>
        <time>2018-05-21T10:19:52Z</time>
      </trkpt>
      <trkpt lat="42.69809402525425" lon="-7.07602696493268">
        <ele>1223</ele>
        <time>2018-05-21T10:19:52Z</time>
      </trkpt>
      <trkpt lat="42.698083966970444" lon="-7.075997963547707">
        <ele>1223</ele>
        <time>2018-05-21T10:19:53Z</time>
      </trkpt>
      <trkpt lat="42.698080027475953" lon="-7.075944989919663">
        <ele>1223</ele>
        <time>2018-05-21T10:19:54Z</time>
      </trkpt>
      <trkpt lat="42.698080027475953" lon="-7.075906014069915">
        <ele>1223</ele>
        <time>2018-05-21T10:19:55Z</time>
      </trkpt>
      <trkpt lat="42.698080027475953" lon="-7.075867960229516">
        <ele>1223</ele>
        <time>2018-05-21T10:19:56Z</time>
      </trkpt>
      <trkpt lat="42.698080027475953" lon="-7.07583099603653">
        <ele>1223</ele>
        <time>2018-05-21T10:19:57Z</time>
      </trkpt>
      <trkpt lat="42.698084972798824" lon="-7.075798977166414">
        <ele>1223</ele>
        <time>2018-05-21T10:19:58Z</time>
      </trkpt>
      <trkpt lat="42.698087990283966" lon="-7.075763018801808">
        <ele>1223</ele>
        <time>2018-05-21T10:19:58Z</time>
      </trkpt>
      <trkpt lat="42.698091007769108" lon="-7.07572597078979">
        <ele>1223</ele>
        <time>2018-05-21T10:19:59Z</time>
      </trkpt>
      <trkpt lat="42.69809796474874" lon="-7.075684983283281">
        <ele>1223</ele>
        <time>2018-05-21T10:20:00Z</time>
      </trkpt>
      <trkpt lat="42.698108023032546" lon="-7.075651958584786">
        <ele>1223</ele>
        <time>2018-05-21T10:20:01Z</time>
      </trkpt>
      <trkpt lat="42.698114980012178" lon="-7.075614994391799">
        <ele>1223</ele>
        <time>2018-05-21T10:20:02Z</time>
      </trkpt>
      <trkpt lat="42.698121014982462" lon="-7.07557400688529">
        <ele>1223</ele>
        <time>2018-05-21T10:20:03Z</time>
      </trkpt>
      <trkpt lat="42.6981380302459" lon="-7.075528996065259">
        <ele>1223</ele>
        <time>2018-05-21T10:20:04Z</time>
      </trkpt>
      <trkpt lat="42.698153033852577" lon="-7.075504017993808">
        <ele>1223</ele>
        <time>2018-05-21T10:20:05Z</time>
      </trkpt>
      <trkpt lat="42.698174994438887" lon="-7.075409973040223">
        <ele>1223</ele>
        <time>2018-05-21T10:20:07Z</time>
      </trkpt>
      <trkpt lat="42.698174994438887" lon="-7.075390024110675">
        <ele>1223</ele>
        <time>2018-05-21T10:20:07Z</time>
      </trkpt>
      <trkpt lat="42.698182035237551" lon="-7.075352976098657">
        <ele>1223</ele>
        <time>2018-05-21T10:20:08Z</time>
      </trkpt>
      <trkpt lat="42.698192009702325" lon="-7.075320035219193">
        <ele>1223</ele>
        <time>2018-05-21T10:20:09Z</time>
      </trkpt>
      <trkpt lat="42.698208019137383" lon="-7.075287010520697">
        <ele>1223</ele>
        <time>2018-05-21T10:20:10Z</time>
      </trkpt>
      <trkpt lat="42.698217993602157" lon="-7.075253985822201">
        <ele>1225</ele>
        <time>2018-05-21T10:20:11Z</time>
      </trkpt>
      <trkpt lat="42.698235008865595" lon="-7.075221966952086">
        <ele>1225</ele>
        <time>2018-05-21T10:20:11Z</time>
      </trkpt>
      <trkpt lat="42.698252024129033" lon="-7.075179973617196">
        <ele>1225</ele>
        <time>2018-05-21T10:20:12Z</time>
      </trkpt>
      <trkpt lat="42.698265016078949" lon="-7.075148038566113">
        <ele>1225</ele>
        <time>2018-05-21T10:20:13Z</time>
      </trkpt>
      <trkpt lat="42.698278008028865" lon="-7.075110990554094">
        <ele>1225</ele>
        <time>2018-05-21T10:20:14Z</time>
      </trkpt>
      <trkpt lat="42.698295023292303" lon="-7.075074026361108">
        <ele>1225</ele>
        <time>2018-05-21T10:20:15Z</time>
      </trkpt>
      <trkpt lat="42.698304997757077" lon="-7.075041001662612">
        <ele>1225</ele>
        <time>2018-05-21T10:20:16Z</time>
      </trkpt>
      <trkpt lat="42.698308015242219" lon="-7.074995990842581">
        <ele>1225</ele>
        <time>2018-05-21T10:20:17Z</time>
      </trkpt>
      <trkpt lat="42.698314972221851" lon="-7.074959026649594">
        <ele>1225</ele>
        <time>2018-05-21T10:20:18Z</time>
      </trkpt>
      <trkpt lat="42.698322013020515" lon="-7.074921978637576">
        <ele>1225</ele>
        <time>2018-05-21T10:20:18Z</time>
      </trkpt>
      <trkpt lat="42.698322013020515" lon="-7.07488501444459">
        <ele>1225</ele>
        <time>2018-05-21T10:20:19Z</time>
      </trkpt>
      <trkpt lat="42.698325030505657" lon="-7.074847966432571">
        <ele>1225</ele>
        <time>2018-05-21T10:20:20Z</time>
      </trkpt>
      <trkpt lat="42.698325030505657" lon="-7.07479901611805">
        <ele>1225</ele>
        <time>2018-05-21T10:20:21Z</time>
      </trkpt>
      <trkpt lat="42.698327964171767" lon="-7.074758028611541">
        <ele>1225</ele>
        <time>2018-05-21T10:20:22Z</time>
      </trkpt>
      <trkpt lat="42.698327964171767" lon="-7.074720980599523">
        <ele>1225</ele>
        <time>2018-05-21T10:20:23Z</time>
      </trkpt>
      <trkpt lat="42.69833198748529" lon="-7.074683010578156">
        <ele>1225</ele>
        <time>2018-05-21T10:20:24Z</time>
      </trkpt>
      <trkpt lat="42.69833198748529" lon="-7.074642023071647">
        <ele>1225</ele>
        <time>2018-05-21T10:20:25Z</time>
      </trkpt>
      <trkpt lat="42.698335004970431" lon="-7.074601035565138">
        <ele>1225</ele>
        <time>2018-05-21T10:20:25Z</time>
      </trkpt>
      <trkpt lat="42.698344979435205" lon="-7.074556024745107">
        <ele>1225</ele>
        <time>2018-05-21T10:20:26Z</time>
      </trkpt>
      <trkpt lat="42.698355037719011" lon="-7.074523000046611">
        <ele>1225</ele>
        <time>2018-05-21T10:20:27Z</time>
      </trkpt>
      <trkpt lat="42.698365012183785" lon="-7.074487963691354">
        <ele>1225</ele>
        <time>2018-05-21T10:20:28Z</time>
      </trkpt>
      <trkpt lat="42.698369035497308" lon="-7.074453011155129">
        <ele>1225</ele>
        <time>2018-05-21T10:20:29Z</time>
      </trkpt>
      <trkpt lat="42.698379009962082" lon="-7.074418980628252">
        <ele>1225</ele>
        <time>2018-05-21T10:20:30Z</time>
      </trkpt>
      <trkpt lat="42.69839602522552" lon="-7.074382016435266">
        <ele>1225</ele>
        <time>2018-05-21T10:20:31Z</time>
      </trkpt>
      <trkpt lat="42.698413040488958" lon="-7.074337005615234">
        <ele>1225</ele>
        <time>2018-05-21T10:20:32Z</time>
      </trkpt>
      <trkpt lat="42.698426032438874" lon="-7.074303980916739">
        <ele>1225</ele>
        <time>2018-05-21T10:20:33Z</time>
      </trkpt>
      <trkpt lat="42.698445981368423" lon="-7.074256958439946">
        <ele>1225</ele>
        <time>2018-05-21T10:20:34Z</time>
      </trkpt>
      <trkpt lat="42.698467019945383" lon="-7.074214965105057">
        <ele>1225</ele>
        <time>2018-05-21T10:20:35Z</time>
      </trkpt>
      <trkpt lat="42.698486968874931" lon="-7.074182024225593">
        <ele>1225</ele>
        <time>2018-05-21T10:20:36Z</time>
      </trkpt>
      <trkpt lat="42.69850398413837" lon="-7.074153022840619">
        <ele>1225</ele>
        <time>2018-05-21T10:20:37Z</time>
      </trkpt>
      <trkpt lat="42.698527034372091" lon="-7.074124021455646">
        <ele>1225</ele>
        <time>2018-05-21T10:20:37Z</time>
      </trkpt>
      <trkpt lat="42.698543965816498" lon="-7.074096025899053">
        <ele>1225</ele>
        <time>2018-05-21T10:20:38Z</time>
      </trkpt>
      <trkpt lat="42.69856701605022" lon="-7.07407096400857">
        <ele>1225</ele>
        <time>2018-05-21T10:20:39Z</time>
      </trkpt>
      <trkpt lat="42.698586964979768" lon="-7.074052020907402">
        <ele>1225</ele>
        <time>2018-05-21T10:20:40Z</time>
      </trkpt>
      <trkpt lat="42.69861001521349" lon="-7.074030982330442">
        <ele>1225</ele>
        <time>2018-05-21T10:20:41Z</time>
      </trkpt>
      <trkpt lat="42.698637004941702" lon="-7.073998041450977">
        <ele>1225</ele>
        <time>2018-05-21T10:20:42Z</time>
      </trkpt>
      <trkpt lat="42.698659971356392" lon="-7.073973985388875">
        <ele>1225</ele>
        <time>2018-05-21T10:20:43Z</time>
      </trkpt>
      <trkpt lat="42.698680004104972" lon="-7.073953030630946">
        <ele>1225</ele>
        <time>2018-05-21T10:20:43Z</time>
      </trkpt>
      <trkpt lat="42.698703976348042" lon="-7.073925035074353">
        <ele>1225</ele>
        <time>2018-05-21T10:20:44Z</time>
      </trkpt>
      <trkpt lat="42.698737001046538" lon="-7.07389603368938">
        <ele>1225</ele>
        <time>2018-05-21T10:20:45Z</time>
      </trkpt>
      <trkpt lat="42.698758039623499" lon="-7.073882035911083">
        <ele>1225</ele>
        <time>2018-05-21T10:20:46Z</time>
      </trkpt>
      <trkpt lat="42.698781006038189" lon="-7.073862003162503">
        <ele>1223</ele>
        <time>2018-05-21T10:20:47Z</time>
      </trkpt>
      <trkpt lat="42.69880497828126" lon="-7.073828978464007">
        <ele>1223</ele>
        <time>2018-05-21T10:20:48Z</time>
      </trkpt>
      <trkpt lat="42.69882501102984" lon="-7.073804000392556">
        <ele>1223</ele>
        <time>2018-05-21T10:20:49Z</time>
      </trkpt>
      <trkpt lat="42.698844959959388" lon="-7.07377097569406">
        <ele>1223</ele>
        <time>2018-05-21T10:20:50Z</time>
      </trkpt>
      <trkpt lat="42.69886801019311" lon="-7.073751026764512">
        <ele>1223</ele>
        <time>2018-05-21T10:20:50Z</time>
      </trkpt>
      <trkpt lat="42.698882007971406" lon="-7.073721019551158">
        <ele>1223</ele>
        <time>2018-05-21T10:20:51Z</time>
      </trkpt>
      <trkpt lat="42.698903968557715" lon="-7.073691012337804">
        <ele>1223</ele>
        <time>2018-05-21T10:20:52Z</time>
      </trkpt>
      <trkpt lat="42.698924001306295" lon="-7.073673997074366">
        <ele>1223</ele>
        <time>2018-05-21T10:20:53Z</time>
      </trkpt>
      <trkpt lat="42.698941016569734" lon="-7.073652036488056">
        <ele>1223</ele>
        <time>2018-05-21T10:20:54Z</time>
      </trkpt>
      <trkpt lat="42.698964988812804" lon="-7.073624040931463">
        <ele>1224</ele>
        <time>2018-05-21T10:20:55Z</time>
      </trkpt>
      <trkpt lat="42.698990972712636" lon="-7.073610965162516">
        <ele>1224</ele>
        <time>2018-05-21T10:20:55Z</time>
      </trkpt>
      <trkpt lat="42.699015028774738" lon="-7.07359503954649">
        <ele>1224</ele>
        <time>2018-05-21T10:20:56Z</time>
      </trkpt>
      <trkpt lat="42.699045035988092" lon="-7.073586992919445">
        <ele>1224</ele>
        <time>2018-05-21T10:20:57Z</time>
      </trkpt>
      <trkpt lat="42.699068002402782" lon="-7.073572995141149">
        <ele>1224</ele>
        <time>2018-05-21T10:20:58Z</time>
      </trkpt>
      <trkpt lat="42.699089040979743" lon="-7.07355497404933">
        <ele>1224</ele>
        <time>2018-05-21T10:20:58Z</time>
      </trkpt>
      <trkpt lat="42.699113013222814" lon="-7.073535025119782">
        <ele>1224</ele>
        <time>2018-05-21T10:20:59Z</time>
      </trkpt>
      <trkpt lat="42.699138997122645" lon="-7.073522033169866">
        <ele>1224</ele>
        <time>2018-05-21T10:21:00Z</time>
      </trkpt>
      <trkpt lat="42.699163975194097" lon="-7.073509963229299">
        <ele>1224</ele>
        <time>2018-05-21T10:21:01Z</time>
      </trkpt>
      <trkpt lat="42.699176967144012" lon="-7.073484985157847">
        <ele>1224</ele>
        <time>2018-05-21T10:21:02Z</time>
      </trkpt>
      <trkpt lat="42.699190964922309" lon="-7.073454977944493">
        <ele>1224</ele>
        <time>2018-05-21T10:21:02Z</time>
      </trkpt>
      <trkpt lat="42.699210997670889" lon="-7.07342597655952">
        <ele>1224</ele>
        <time>2018-05-21T10:21:03Z</time>
      </trkpt>
      <trkpt lat="42.699224995449185" lon="-7.073402004316449">
        <ele>1224</ele>
        <time>2018-05-21T10:21:04Z</time>
      </trkpt>
      <trkpt lat="42.699238993227482" lon="-7.073371997103095">
        <ele>1224</ele>
        <time>2018-05-21T10:21:05Z</time>
      </trkpt>
      <trkpt lat="42.69925600849092" lon="-7.073350958526135">
        <ele>1224</ele>
        <time>2018-05-21T10:21:05Z</time>
      </trkpt>
      <trkpt lat="42.699269000440836" lon="-7.073322040960193">
        <ele>1224</ele>
        <time>2018-05-21T10:21:06Z</time>
      </trkpt>
      <trkpt lat="42.69927897490561" lon="-7.073290022090077">
        <ele>1224</ele>
        <time>2018-05-21T10:21:07Z</time>
      </trkpt>
      <trkpt lat="42.699295990169048" lon="-7.073265966027975">
        <ele>1224</ele>
        <time>2018-05-21T10:21:08Z</time>
      </trkpt>
      <trkpt lat="42.699310993775725" lon="-7.073239982128143">
        <ele>1224</ele>
        <time>2018-05-21T10:21:08Z</time>
      </trkpt>
      <trkpt lat="42.69931904040277" lon="-7.073208969086409">
        <ele>1224</ele>
        <time>2018-05-21T10:21:09Z</time>
      </trkpt>
      <trkpt lat="42.699322979897261" lon="-7.073172004893422">
        <ele>1224</ele>
        <time>2018-05-21T10:21:10Z</time>
      </trkpt>
      <trkpt lat="42.699333038181067" lon="-7.073120959103108">
        <ele>1224</ele>
        <time>2018-05-21T10:21:11Z</time>
      </trkpt>
      <trkpt lat="42.699343012645841" lon="-7.073092041537166">
        <ele>1224</ele>
        <time>2018-05-21T10:21:12Z</time>
      </trkpt>
      <trkpt lat="42.699349969625473" lon="-7.073058011010289">
        <ele>1224</ele>
        <time>2018-05-21T10:21:12Z</time>
      </trkpt>
      <trkpt lat="42.699366984888911" lon="-7.073033032938838">
        <ele>1224</ele>
        <time>2018-05-21T10:21:13Z</time>
      </trkpt>
      <trkpt lat="42.69938500598073" lon="-7.072999002411962">
        <ele>1224</ele>
        <time>2018-05-21T10:21:14Z</time>
      </trkpt>
      <trkpt lat="42.69940503872931" lon="-7.072978969663382">
        <ele>1224</ele>
        <time>2018-05-21T10:21:15Z</time>
      </trkpt>
      <trkpt lat="42.699432028457522" lon="-7.07295399159193">
        <ele>1224</ele>
        <time>2018-05-21T10:21:16Z</time>
      </trkpt>
      <trkpt lat="42.699456000700593" lon="-7.072923984378576">
        <ele>1224</ele>
        <time>2018-05-21T10:21:17Z</time>
      </trkpt>
      <trkpt lat="42.699482990428805" lon="-7.072894982993603">
        <ele>1224</ele>
        <time>2018-05-21T10:21:18Z</time>
      </trkpt>
      <trkpt lat="42.699506040662527" lon="-7.072870004922152">
        <ele>1224</ele>
        <time>2018-05-21T10:21:19Z</time>
      </trkpt>
      <trkpt lat="42.699529007077217" lon="-7.072852989658713">
        <ele>1224</ele>
        <time>2018-05-21T10:21:19Z</time>
      </trkpt>
      <trkpt lat="42.699554990977049" lon="-7.072838991880417">
        <ele>1224</ele>
        <time>2018-05-21T10:21:20Z</time>
      </trkpt>
      <trkpt lat="42.699578963220119" lon="-7.072827005758882">
        <ele>1224</ele>
        <time>2018-05-21T10:21:21Z</time>
      </trkpt>
      <trkpt lat="42.699605030938983" lon="-7.072809990495443">
        <ele>1226</ele>
        <time>2018-05-21T10:21:22Z</time>
      </trkpt>
      <trkpt lat="42.699624979868531" lon="-7.072790041565895">
        <ele>1226</ele>
        <time>2018-05-21T10:21:23Z</time>
      </trkpt>
      <trkpt lat="42.699639983475208" lon="-7.072767997160554">
        <ele>1226</ele>
        <time>2018-05-21T10:21:23Z</time>
      </trkpt>
      <trkpt lat="42.699653981253505" lon="-7.072746958583593">
        <ele>1226</ele>
        <time>2018-05-21T10:21:24Z</time>
      </trkpt>
      <trkpt lat="42.69974903203547" lon="-7.072668001055718">
        <ele>1226</ele>
        <time>2018-05-21T10:21:27Z</time>
      </trkpt>
      <trkpt lat="42.699886998161674" lon="-7.072531962767243">
        <ele>1226</ele>
        <time>2018-05-21T10:21:32Z</time>
      </trkpt>
      <trkpt lat="42.699989005923271" lon="-7.07243800163269">
        <ele>1226</ele>
        <time>2018-05-21T10:21:36Z</time>
      </trkpt>
      <trkpt lat="42.699995962902904" lon="-7.072432972490788">
        <ele>1226</ele>
        <time>2018-05-21T10:21:36Z</time>
      </trkpt>
      <trkpt lat="42.70011599175632" lon="-7.072315039113164">
        <ele>1226</ele>
        <time>2018-05-21T10:21:40Z</time>
      </trkpt>
      <trkpt lat="42.700230991467834" lon="-7.072172965854406">
        <ele>1226</ele>
        <time>2018-05-21T10:21:45Z</time>
      </trkpt>
      <trkpt lat="42.700408017262816" lon="-7.071981020271778">
        <ele>1233</ele>
        <time>2018-05-21T10:21:52Z</time>
      </trkpt>
      <trkpt lat="42.700522011145949" lon="-7.071846993640065">
        <ele>1236</ele>
        <time>2018-05-21T10:21:56Z</time>
      </trkpt>
      <trkpt lat="42.700627958402038" lon="-7.071713972836733">
        <ele>1236</ele>
        <time>2018-05-21T10:22:00Z</time>
      </trkpt>
      <trkpt lat="42.700722003355622" lon="-7.071597967296839">
        <ele>1236</ele>
        <time>2018-05-21T10:22:04Z</time>
      </trkpt>
      <trkpt lat="42.700829962268472" lon="-7.071446003392339">
        <ele>1236</ele>
        <time>2018-05-21T10:22:09Z</time>
      </trkpt>
      <trkpt lat="42.700886037200689" lon="-7.071354975923896">
        <ele>1236</ele>
        <time>2018-05-21T10:22:11Z</time>
      </trkpt>
      <trkpt lat="42.700905986130238" lon="-7.071329997852445">
        <ele>1236</ele>
        <time>2018-05-21T10:22:12Z</time>
      </trkpt>
      <trkpt lat="42.700926018878818" lon="-7.071300996467471">
        <ele>1236</ele>
        <time>2018-05-21T10:22:13Z</time>
      </trkpt>
      <trkpt lat="42.700948985293508" lon="-7.071268977597356">
        <ele>1236</ele>
        <time>2018-05-21T10:22:14Z</time>
      </trkpt>
      <trkpt lat="42.700969018042088" lon="-7.071239976212382">
        <ele>1236</ele>
        <time>2018-05-21T10:22:15Z</time>
      </trkpt>
      <trkpt lat="42.700992990285158" lon="-7.071207035332918">
        <ele>1236</ele>
        <time>2018-05-21T10:22:16Z</time>
      </trkpt>
      <trkpt lat="42.701008999720216" lon="-7.071178033947945">
        <ele>1236</ele>
        <time>2018-05-21T10:22:17Z</time>
      </trkpt>
      <trkpt lat="42.701029032468796" lon="-7.071158001199365">
        <ele>1248</ele>
        <time>2018-05-21T10:22:17Z</time>
      </trkpt>
      <trkpt lat="42.701056022197008" lon="-7.071128999814391">
        <ele>1248</ele>
        <time>2018-05-21T10:22:18Z</time>
      </trkpt>
      <trkpt lat="42.701088963076472" lon="-7.071099998429418">
        <ele>1248</ele>
        <time>2018-05-21T10:22:20Z</time>
      </trkpt>
      <trkpt lat="42.701112013310194" lon="-7.071067979559302">
        <ele>1248</ele>
        <time>2018-05-21T10:22:21Z</time>
      </trkpt>
      <trkpt lat="42.701135985553265" lon="-7.071043001487851">
        <ele>1248</ele>
        <time>2018-05-21T10:22:22Z</time>
      </trkpt>
      <trkpt lat="42.701161969453096" lon="-7.071014000102878">
        <ele>1248</ele>
        <time>2018-05-21T10:22:23Z</time>
      </trkpt>
      <trkpt lat="42.701182002201676" lon="-7.070990027859807">
        <ele>1248</ele>
        <time>2018-05-21T10:22:23Z</time>
      </trkpt>
      <trkpt lat="42.701208991929889" lon="-7.070961026474834">
        <ele>1248</ele>
        <time>2018-05-21T10:22:24Z</time>
      </trkpt>
      <trkpt lat="42.701238999143243" lon="-7.070935964584351">
        <ele>1248</ele>
        <time>2018-05-21T10:22:25Z</time>
      </trkpt>
      <trkpt lat="42.701259031891823" lon="-7.07091199234128">
        <ele>1248</ele>
        <time>2018-05-21T10:22:26Z</time>
      </trkpt>
      <trkpt lat="42.701289039105177" lon="-7.070882990956307">
        <ele>1248</ele>
        <time>2018-05-21T10:22:27Z</time>
      </trkpt>
      <trkpt lat="42.701316028833389" lon="-7.070866981521249">
        <ele>1246</ele>
        <time>2018-05-21T10:22:28Z</time>
      </trkpt>
      <trkpt lat="42.701338995248079" lon="-7.070842003449798">
        <ele>1246</ele>
        <time>2018-05-21T10:22:29Z</time>
      </trkpt>
      <trkpt lat="42.701365984976292" lon="-7.070820964872837">
        <ele>1246</ele>
        <time>2018-05-21T10:22:30Z</time>
      </trkpt>
      <trkpt lat="42.701391968876123" lon="-7.070801015943289">
        <ele>1246</ele>
        <time>2018-05-21T10:22:31Z</time>
      </trkpt>
      <trkpt lat="42.701416024938226" lon="-7.070785006508231">
        <ele>1246</ele>
        <time>2018-05-21T10:22:32Z</time>
      </trkpt>
      <trkpt lat="42.701442008838058" lon="-7.070767991244793">
        <ele>1246</ele>
        <time>2018-05-21T10:22:32Z</time>
      </trkpt>
      <trkpt lat="42.701464975252748" lon="-7.070751981809735">
        <ele>1246</ele>
        <time>2018-05-21T10:22:33Z</time>
      </trkpt>
      <trkpt lat="42.70148903131485" lon="-7.070731027051806">
        <ele>1246</ele>
        <time>2018-05-21T10:22:34Z</time>
      </trkpt>
      <trkpt lat="42.701519038528204" lon="-7.070719040930271">
        <ele>1246</ele>
        <time>2018-05-21T10:22:35Z</time>
      </trkpt>
      <trkpt lat="42.701548039913177" lon="-7.070708982646465">
        <ele>1246</ele>
        <time>2018-05-21T10:22:36Z</time>
      </trkpt>
      <trkpt lat="42.701568994671106" lon="-7.07069699652493">
        <ele>1246</ele>
        <time>2018-05-21T10:22:37Z</time>
      </trkpt>
      <trkpt lat="42.701595984399319" lon="-7.070689033716917">
        <ele>1246</ele>
        <time>2018-05-21T10:22:37Z</time>
      </trkpt>
      <trkpt lat="42.70162196829915" lon="-7.070679981261492">
        <ele>1246</ele>
        <time>2018-05-21T10:22:38Z</time>
      </trkpt>
      <trkpt lat="42.701651975512505" lon="-7.070666989311576">
        <ele>1246</ele>
        <time>2018-05-21T10:22:39Z</time>
      </trkpt>
      <trkpt lat="42.701679971069098" lon="-7.070649974048138">
        <ele>1246</ele>
        <time>2018-05-21T10:22:40Z</time>
      </trkpt>
      <trkpt lat="42.70170696079731" lon="-7.070637987926602">
        <ele>1246</ele>
        <time>2018-05-21T10:22:41Z</time>
      </trkpt>
      <trkpt lat="42.701739985495806" lon="-7.070630025118589">
        <ele>1246</ele>
        <time>2018-05-21T10:22:42Z</time>
      </trkpt>
      <trkpt lat="42.701772004365921" lon="-7.070626001805067">
        <ele>1246</ele>
        <time>2018-05-21T10:22:43Z</time>
      </trkpt>
      <trkpt lat="42.701798994094133" lon="-7.070613009855151">
        <ele>1246</ele>
        <time>2018-05-21T10:22:44Z</time>
      </trkpt>
      <trkpt lat="42.701827995479107" lon="-7.070595994591713">
        <ele>1246</ele>
        <time>2018-05-21T10:22:45Z</time>
      </trkpt>
      <trkpt lat="42.701850961893797" lon="-7.070562969893217">
        <ele>1246</ele>
        <time>2018-05-21T10:22:46Z</time>
      </trkpt>
      <trkpt lat="42.701878035441041" lon="-7.070533968508244">
        <ele>1246</ele>
        <time>2018-05-21T10:22:47Z</time>
      </trkpt>
      <trkpt lat="42.701897984370589" lon="-7.070508990436792">
        <ele>1246</ele>
        <time>2018-05-21T10:22:47Z</time>
      </trkpt>
      <trkpt lat="42.701918017119169" lon="-7.070489041507244">
        <ele>1246</ele>
        <time>2018-05-21T10:22:48Z</time>
      </trkpt>
      <trkpt lat="42.701937966048717" lon="-7.070466997101903">
        <ele>1246</ele>
        <time>2018-05-21T10:22:49Z</time>
      </trkpt>
      <trkpt lat="42.701951041817665" lon="-7.070433972403407">
        <ele>1261</ele>
        <time>2018-05-21T10:22:50Z</time>
      </trkpt>
      <trkpt lat="42.701967973262072" lon="-7.070397008210421">
        <ele>1246</ele>
        <time>2018-05-21T10:22:51Z</time>
      </trkpt>
      <trkpt lat="42.701979037374258" lon="-7.070350991562009">
        <ele>1261</ele>
        <time>2018-05-21T10:22:52Z</time>
      </trkpt>
      <trkpt lat="42.701995968818665" lon="-7.070316039025784">
        <ele>1261</ele>
        <time>2018-05-21T10:22:53Z</time>
      </trkpt>
      <trkpt lat="42.702011978253722" lon="-7.070291982963681">
        <ele>1261</ele>
        <time>2018-05-21T10:22:53Z</time>
      </trkpt>
      <trkpt lat="42.702016001567245" lon="-7.070254012942314">
        <ele>1261</ele>
        <time>2018-05-21T10:22:54Z</time>
      </trkpt>
      <trkpt lat="42.702016001567245" lon="-7.070216964930296">
        <ele>1261</ele>
        <time>2018-05-21T10:22:55Z</time>
      </trkpt>
      <trkpt lat="42.702016001567245" lon="-7.07018000073731">
        <ele>1261</ele>
        <time>2018-05-21T10:22:56Z</time>
      </trkpt>
      <trkpt lat="42.702016001567245" lon="-7.070141024887562">
        <ele>1261</ele>
        <time>2018-05-21T10:22:57Z</time>
      </trkpt>
      <trkpt lat="42.70200602710247" lon="-7.07009500823915">
        <ele>1261</ele>
        <time>2018-05-21T10:22:58Z</time>
      </trkpt>
      <trkpt lat="42.701992029324174" lon="-7.070066006854177">
        <ele>1261</ele>
        <time>2018-05-21T10:22:59Z</time>
      </trkpt>
      <trkpt lat="42.701977025717497" lon="-7.070043040439487">
        <ele>1261</ele>
        <time>2018-05-21T10:22:59Z</time>
      </trkpt>
      <trkpt lat="42.7019630279392" lon="-7.070017978549004">
        <ele>1261</ele>
        <time>2018-05-21T10:23:00Z</time>
      </trkpt>
      <trkpt lat="42.701940983533859" lon="-7.070005992427468">
        <ele>1261</ele>
        <time>2018-05-21T10:23:01Z</time>
      </trkpt>
      <trkpt lat="42.701912987977266" lon="-7.070005992427468">
        <ele>1261</ele>
        <time>2018-05-21T10:23:01Z</time>
      </trkpt>
      <trkpt lat="42.70187996327877" lon="-7.070005992427468">
        <ele>1261</ele>
        <time>2018-05-21T10:23:02Z</time>
      </trkpt>
      <trkpt lat="42.701850039884448" lon="-7.070005992427468">
        <ele>1261</ele>
        <time>2018-05-21T10:23:03Z</time>
      </trkpt>
      <trkpt lat="42.70181299187243" lon="-7.070005992427468">
        <ele>1261</ele>
        <time>2018-05-21T10:23:04Z</time>
      </trkpt>
      <trkpt lat="42.70179002545774" lon="-7.070014039054513">
        <ele>1261</ele>
        <time>2018-05-21T10:23:05Z</time>
      </trkpt>
      <trkpt lat="42.701760018244386" lon="-7.070014039054513">
        <ele>1261</ele>
        <time>2018-05-21T10:23:06Z</time>
      </trkpt>
      <trkpt lat="42.701722970232368" lon="-7.070014039054513">
        <ele>1261</ele>
        <time>2018-05-21T10:23:07Z</time>
      </trkpt>
      <trkpt lat="42.701692041009665" lon="-7.070022001862526">
        <ele>1261</ele>
        <time>2018-05-21T10:23:08Z</time>
      </trkpt>
      <trkpt lat="42.70166203379631" lon="-7.070022001862526">
        <ele>1261</ele>
        <time>2018-05-21T10:23:09Z</time>
      </trkpt>
      <trkpt lat="42.701635966077447" lon="-7.070026025176048">
        <ele>1261</ele>
        <time>2018-05-21T10:23:10Z</time>
      </trkpt>
      <trkpt lat="42.701611993834376" lon="-7.070033987984061">
        <ele>1261</ele>
        <time>2018-05-21T10:23:10Z</time>
      </trkpt>
      <trkpt lat="42.701582992449403" lon="-7.070033987984061">
        <ele>1261</ele>
        <time>2018-05-21T10:23:11Z</time>
      </trkpt>
      <trkpt lat="42.701552985236049" lon="-7.070033987984061">
        <ele>1261</ele>
        <time>2018-05-21T10:23:12Z</time>
      </trkpt>
      <trkpt lat="42.701521972194314" lon="-7.070033987984061">
        <ele>1261</ele>
        <time>2018-05-21T10:23:13Z</time>
      </trkpt>
      <trkpt lat="42.701493976637721" lon="-7.070029964670539">
        <ele>1261</ele>
        <time>2018-05-21T10:23:14Z</time>
      </trkpt>
      <trkpt lat="42.701461035758257" lon="-7.070026025176048">
        <ele>1261</ele>
        <time>2018-05-21T10:23:15Z</time>
      </trkpt>
      <trkpt lat="42.701425999403" lon="-7.070026025176048">
        <ele>1261</ele>
        <time>2018-05-21T10:23:16Z</time>
      </trkpt>
      <trkpt lat="42.701400015503168" lon="-7.070017978549004">
        <ele>1261</ele>
        <time>2018-05-21T10:23:17Z</time>
      </trkpt>
      <trkpt lat="42.701372019946575" lon="-7.070010015740991">
        <ele>1261</ele>
        <time>2018-05-21T10:23:18Z</time>
      </trkpt>
      <trkpt lat="42.701345030218363" lon="-7.069998029619455">
        <ele>1261</ele>
        <time>2018-05-21T10:23:18Z</time>
      </trkpt>
      <trkpt lat="42.70131996832788" lon="-7.069981014356017">
        <ele>1261</ele>
        <time>2018-05-21T10:23:19Z</time>
      </trkpt>
      <trkpt lat="42.70129700191319" lon="-7.069969028234482">
        <ele>1261</ele>
        <time>2018-05-21T10:23:20Z</time>
      </trkpt>
      <trkpt lat="42.701273029670119" lon="-7.069947989657521">
        <ele>1260</ele>
        <time>2018-05-21T10:23:21Z</time>
      </trkpt>
      <trkpt lat="42.701203962787986" lon="-7.069899961352348">
        <ele>1260</ele>
        <time>2018-05-21T10:23:23Z</time>
      </trkpt>
      <trkpt lat="42.701130034402013" lon="-7.069841036573052">
        <ele>1260</ele>
        <time>2018-05-21T10:23:26Z</time>
      </trkpt>
      <trkpt lat="42.701051998883486" lon="-7.069661999121308">
        <ele>1260</ele>
        <time>2018-05-21T10:23:30Z</time>
      </trkpt>
      <trkpt lat="42.700981004163623" lon="-7.069562003016472">
        <ele>1260</ele>
        <time>2018-05-21T10:23:33Z</time>
      </trkpt>
      <trkpt lat="42.700903974473476" lon="-7.069433005526662">
        <ele>1272</ele>
        <time>2018-05-21T10:23:37Z</time>
      </trkpt>
      <trkpt lat="42.700897017493844" lon="-7.069424958899617">
        <ele>1272</ele>
        <time>2018-05-21T10:23:37Z</time>
      </trkpt>
      <trkpt lat="42.700876984745264" lon="-7.069396041333675">
        <ele>1272</ele>
        <time>2018-05-21T10:23:38Z</time>
      </trkpt>
      <trkpt lat="42.700856029987335" lon="-7.069355975836515">
        <ele>1272</ele>
        <time>2018-05-21T10:23:39Z</time>
      </trkpt>
      <trkpt lat="42.700842032209039" lon="-7.069323034957051">
        <ele>1272</ele>
        <time>2018-05-21T10:23:40Z</time>
      </trkpt>
      <trkpt lat="42.700820993632078" lon="-7.06930099055171">
        <ele>1272</ele>
        <time>2018-05-21T10:23:41Z</time>
      </trkpt>
      <trkpt lat="42.700800038874149" lon="-7.069274000823498">
        <ele>1272</ele>
        <time>2018-05-21T10:23:41Z</time>
      </trkpt>
      <trkpt lat="42.700784029439092" lon="-7.069244999438524">
        <ele>1272</ele>
        <time>2018-05-21T10:23:42Z</time>
      </trkpt>
      <trkpt lat="42.700770031660795" lon="-7.069211974740028">
        <ele>1272</ele>
        <time>2018-05-21T10:23:43Z</time>
      </trkpt>
      <trkpt lat="42.700756033882499" lon="-7.069181967526674">
        <ele>1272</ele>
        <time>2018-05-21T10:23:44Z</time>
      </trkpt>
      <trkpt lat="42.700739018619061" lon="-7.069153971970081">
        <ele>1272</ele>
        <time>2018-05-21T10:23:45Z</time>
      </trkpt>
      <trkpt lat="42.700722003355622" lon="-7.069121031090617">
        <ele>1272</ele>
        <time>2018-05-21T10:23:46Z</time>
      </trkpt>
      <trkpt lat="42.700705993920565" lon="-7.069083983078599">
        <ele>1272</ele>
        <time>2018-05-21T10:23:46Z</time>
      </trkpt>
      <trkpt lat="42.700691996142268" lon="-7.069059005007148">
        <ele>1272</ele>
        <time>2018-05-21T10:23:47Z</time>
      </trkpt>
      <trkpt lat="42.700677998363972" lon="-7.069025980308652">
        <ele>1272</ele>
        <time>2018-05-21T10:23:48Z</time>
      </trkpt>
      <trkpt lat="42.700657965615392" lon="-7.069002008065581">
        <ele>1272</ele>
        <time>2018-05-21T10:23:49Z</time>
      </trkpt>
      <trkpt lat="42.700634999200702" lon="-7.068968983367086">
        <ele>1272</ele>
        <time>2018-05-21T10:23:50Z</time>
      </trkpt>
      <trkpt lat="42.700614966452122" lon="-7.06893595866859">
        <ele>1272</ele>
        <time>2018-05-21T10:23:51Z</time>
      </trkpt>
      <trkpt lat="42.700598035007715" lon="-7.068907041102648">
        <ele>1272</ele>
        <time>2018-05-21T10:23:51Z</time>
      </trkpt>
      <trkpt lat="42.700584959238768" lon="-7.068875022232533">
        <ele>1272</ele>
        <time>2018-05-21T10:23:52Z</time>
      </trkpt>
      <trkpt lat="42.700570961460471" lon="-7.068846020847559">
        <ele>1272</ele>
        <time>2018-05-21T10:23:53Z</time>
      </trkpt>
      <trkpt lat="42.700556963682175" lon="-7.068811990320683">
        <ele>1272</ele>
        <time>2018-05-21T10:23:54Z</time>
      </trkpt>
      <trkpt lat="42.700546989217401" lon="-7.068778965622187">
        <ele>1272</ele>
        <time>2018-05-21T10:23:55Z</time>
      </trkpt>
      <trkpt lat="42.700540032237768" lon="-7.068737978115678">
        <ele>1272</ele>
        <time>2018-05-21T10:23:56Z</time>
      </trkpt>
      <trkpt lat="42.700529973953962" lon="-7.068692967295647">
        <ele>1282</ele>
        <time>2018-05-21T10:23:57Z</time>
      </trkpt>
      <trkpt lat="42.700513964518905" lon="-7.068660026416183">
        <ele>1282</ele>
        <time>2018-05-21T10:23:57Z</time>
      </trkpt>
      <trkpt lat="42.700499966740608" lon="-7.068622978404164">
        <ele>1282</ele>
        <time>2018-05-21T10:23:58Z</time>
      </trkpt>
      <trkpt lat="42.700486974790692" lon="-7.068581990897656">
        <ele>1282</ele>
        <time>2018-05-21T10:23:59Z</time>
      </trkpt>
      <trkpt lat="42.700473982840776" lon="-7.068551983684301">
        <ele>1282</ele>
        <time>2018-05-21T10:24:00Z</time>
      </trkpt>
      <trkpt lat="42.700423020869493" lon="-7.06835400313139">
        <ele>1271</ele>
        <time>2018-05-21T10:24:05Z</time>
      </trkpt>
      <trkpt lat="42.700383039191365" lon="-7.068165997043252">
        <ele>1271</ele>
        <time>2018-05-21T10:24:09Z</time>
      </trkpt>
      <trkpt lat="42.700343979522586" lon="-7.068017972633243">
        <ele>1271</ele>
        <time>2018-05-21T10:24:12Z</time>
      </trkpt>
      <trkpt lat="42.700297962874174" lon="-7.06786097958684">
        <ele>1281</ele>
        <time>2018-05-21T10:24:16Z</time>
      </trkpt>
      <trkpt lat="42.700259992852807" lon="-7.067751009017229">
        <ele>1281</ele>
        <time>2018-05-21T10:24:19Z</time>
      </trkpt>
      <trkpt lat="42.700254963710904" lon="-7.067751009017229">
        <ele>1281</ele>
        <time>2018-05-21T10:24:19Z</time>
      </trkpt>
      <trkpt lat="42.700219005346298" lon="-7.067598961293697">
        <ele>1281</ele>
        <time>2018-05-21T10:24:22Z</time>
      </trkpt>
      <trkpt lat="42.700171982869506" lon="-7.067467030137777">
        <ele>1281</ele>
        <time>2018-05-21T10:24:26Z</time>
      </trkpt>
      <trkpt lat="42.700171982869506" lon="-7.067456971853972">
        <ele>1281</ele>
        <time>2018-05-21T10:24:26Z</time>
      </trkpt>
      <trkpt lat="42.700162008404732" lon="-7.067419001832604">
        <ele>1281</ele>
        <time>2018-05-21T10:24:27Z</time>
      </trkpt>
      <trkpt lat="42.700155973434448" lon="-7.067382037639618">
        <ele>1281</ele>
        <time>2018-05-21T10:24:27Z</time>
      </trkpt>
      <trkpt lat="42.700145998969674" lon="-7.067340966314077">
        <ele>1281</ele>
        <time>2018-05-21T10:24:28Z</time>
      </trkpt>
      <trkpt lat="42.700145998969674" lon="-7.067304002121091">
        <ele>1281</ele>
        <time>2018-05-21T10:24:29Z</time>
      </trkpt>
      <trkpt lat="42.700141975656152" lon="-7.067263014614582">
        <ele>1281</ele>
        <time>2018-05-21T10:24:30Z</time>
      </trkpt>
      <trkpt lat="42.70013895817101" lon="-7.067220015451312">
        <ele>1281</ele>
        <time>2018-05-21T10:24:31Z</time>
      </trkpt>
      <trkpt lat="42.700132001191378" lon="-7.067185984924436">
        <ele>1281</ele>
        <time>2018-05-21T10:24:32Z</time>
      </trkpt>
      <trkpt lat="42.700127977877855" lon="-7.067142985761166">
        <ele>1281</ele>
        <time>2018-05-21T10:24:33Z</time>
      </trkpt>
      <trkpt lat="42.700118003413081" lon="-7.067093029618263">
        <ele>1281</ele>
        <time>2018-05-21T10:24:34Z</time>
      </trkpt>
      <trkpt lat="42.700118003413081" lon="-7.067040977999568">
        <ele>1286</ele>
        <time>2018-05-21T10:24:35Z</time>
      </trkpt>
      <trkpt lat="42.700118003413081" lon="-7.066995967179537">
        <ele>1286</ele>
        <time>2018-05-21T10:24:36Z</time>
      </trkpt>
      <trkpt lat="42.700118003413081" lon="-7.06695900298655">
        <ele>1286</ele>
        <time>2018-05-21T10:24:37Z</time>
      </trkpt>
      <trkpt lat="42.700124038383365" lon="-7.066925978288055">
        <ele>1286</ele>
        <time>2018-05-21T10:24:38Z</time>
      </trkpt>
      <trkpt lat="42.700130995362997" lon="-7.066889014095068">
        <ele>1286</ele>
        <time>2018-05-21T10:24:38Z</time>
      </trkpt>
      <trkpt lat="42.700138036161661" lon="-7.06685196608305">
        <ele>1286</ele>
        <time>2018-05-21T10:24:39Z</time>
      </trkpt>
      <trkpt lat="42.700143987312913" lon="-7.066810978576541">
        <ele>1286</ele>
        <time>2018-05-21T10:24:40Z</time>
      </trkpt>
      <trkpt lat="42.700148010626435" lon="-7.066769991070032">
        <ele>1286</ele>
        <time>2018-05-21T10:24:41Z</time>
      </trkpt>
      <trkpt lat="42.700151028111577" lon="-7.066733026877046">
        <ele>1286</ele>
        <time>2018-05-21T10:24:42Z</time>
      </trkpt>
      <trkpt lat="42.700161002576351" lon="-7.066683992743492">
        <ele>1286</ele>
        <time>2018-05-21T10:24:43Z</time>
      </trkpt>
      <trkpt lat="42.700167959555984" lon="-7.066647028550506">
        <ele>1286</ele>
        <time>2018-05-21T10:24:44Z</time>
      </trkpt>
      <trkpt lat="42.700183968991041" lon="-7.06661400385201">
        <ele>1286</ele>
        <time>2018-05-21T10:24:45Z</time>
      </trkpt>
      <trkpt lat="42.700194027274847" lon="-7.066580979153514">
        <ele>1286</ele>
        <time>2018-05-21T10:24:45Z</time>
      </trkpt>
      <trkpt lat="42.700197966769338" lon="-7.066544014960527">
        <ele>1286</ele>
        <time>2018-05-21T10:24:46Z</time>
      </trkpt>
      <trkpt lat="42.700213976204395" lon="-7.066511996090412">
        <ele>1286</ele>
        <time>2018-05-21T10:24:47Z</time>
      </trkpt>
      <trkpt lat="42.700224034488201" lon="-7.066475031897426">
        <ele>1286</ele>
        <time>2018-05-21T10:24:48Z</time>
      </trkpt>
      <trkpt lat="42.700243983417749" lon="-7.06644200719893">
        <ele>1286</ele>
        <time>2018-05-21T10:24:49Z</time>
      </trkpt>
      <trkpt lat="42.700258987024426" lon="-7.066411999985576">
        <ele>1286</ele>
        <time>2018-05-21T10:24:50Z</time>
      </trkpt>
      <trkpt lat="42.700271978974342" lon="-7.066382998600602">
        <ele>1286</ele>
        <time>2018-05-21T10:24:50Z</time>
      </trkpt>
      <trkpt lat="42.700279019773006" lon="-7.066346034407616">
        <ele>1286</ele>
        <time>2018-05-21T10:24:51Z</time>
      </trkpt>
      <trkpt lat="42.700292011722922" lon="-7.06631300970912">
        <ele>1286</ele>
        <time>2018-05-21T10:24:52Z</time>
      </trkpt>
      <trkpt lat="42.700320007279515" lon="-7.066213013604283">
        <ele>1287</ele>
        <time>2018-05-21T10:24:54Z</time>
      </trkpt>
      <trkpt lat="42.700326964259148" lon="-7.066172026097775">
        <ele>1287</ele>
        <time>2018-05-21T10:24:55Z</time>
      </trkpt>
      <trkpt lat="42.700332999229431" lon="-7.066131038591266">
        <ele>1287</ele>
        <time>2018-05-21T10:24:56Z</time>
      </trkpt>
      <trkpt lat="42.700342973694205" lon="-7.066088961437345">
        <ele>1287</ele>
        <time>2018-05-21T10:24:57Z</time>
      </trkpt>
      <trkpt lat="42.700359988957644" lon="-7.066059960052371">
        <ele>1287</ele>
        <time>2018-05-21T10:24:58Z</time>
      </trkpt>
      <trkpt lat="42.700372980907559" lon="-7.066022995859385">
        <ele>1287</ele>
        <time>2018-05-21T10:24:59Z</time>
      </trkpt>
      <trkpt lat="42.700383039191365" lon="-7.065986031666398">
        <ele>1287</ele>
        <time>2018-05-21T10:25:00Z</time>
      </trkpt>
      <trkpt lat="42.700397036969662" lon="-7.06594898365438">
        <ele>1287</ele>
        <time>2018-05-21T10:25:01Z</time>
      </trkpt>
      <trkpt lat="42.700410028919578" lon="-7.065912019461393">
        <ele>1287</ele>
        <time>2018-05-21T10:25:02Z</time>
      </trkpt>
      <trkpt lat="42.700423020869493" lon="-7.065871031954885">
        <ele>1287</ele>
        <time>2018-05-21T10:25:03Z</time>
      </trkpt>
      <trkpt lat="42.70043701864779" lon="-7.065826021134853">
        <ele>1287</ele>
        <time>2018-05-21T10:25:04Z</time>
      </trkpt>
      <trkpt lat="42.700455961748958" lon="-7.065796013921499">
        <ele>1287</ele>
        <time>2018-05-21T10:25:05Z</time>
      </trkpt>
      <trkpt lat="42.700488986447453" lon="-7.065670033916831">
        <ele>1307</ele>
        <time>2018-05-21T10:25:07Z</time>
      </trkpt>
      <trkpt lat="42.700524022802711" lon="-7.065494013950229">
        <ele>1307</ele>
        <time>2018-05-21T10:25:11Z</time>
      </trkpt>
      <trkpt lat="42.700564004480839" lon="-7.065343977883458">
        <ele>1307</ele>
        <time>2018-05-21T10:25:15Z</time>
      </trkpt>
      <trkpt lat="42.700603986158967" lon="-7.065198970958591">
        <ele>1310</ele>
        <time>2018-05-21T10:25:18Z</time>
      </trkpt>
      <trkpt lat="42.700603986158967" lon="-7.0651950314641">
        <ele>1310</ele>
        <time>2018-05-21T10:25:18Z</time>
      </trkpt>
      <trkpt lat="42.700648996978998" lon="-7.065078020095825">
        <ele>1310</ele>
        <time>2018-05-21T10:25:21Z</time>
      </trkpt>
      <trkpt lat="42.700648996978998" lon="-7.065071985125542">
        <ele>1310</ele>
        <time>2018-05-21T10:25:21Z</time>
      </trkpt>
      <trkpt lat="42.700680010020733" lon="-7.064942987635732">
        <ele>1310</ele>
        <time>2018-05-21T10:25:24Z</time>
      </trkpt>
      <trkpt lat="42.700713034719229" lon="-7.064759004861116">
        <ele>1310</ele>
        <time>2018-05-21T10:25:28Z</time>
      </trkpt>
      <trkpt lat="42.700739018619061" lon="-7.064626989886165">
        <ele>1310</ele>
        <time>2018-05-21T10:25:31Z</time>
      </trkpt>
      <trkpt lat="42.700742036104202" lon="-7.064593965187669">
        <ele>1310</ele>
        <time>2018-05-21T10:25:32Z</time>
      </trkpt>
      <trkpt lat="42.700744969770312" lon="-7.06455297768116">
        <ele>1310</ele>
        <time>2018-05-21T10:25:33Z</time>
      </trkpt>
      <trkpt lat="42.700752010568976" lon="-7.06450997851789">
        <ele>1310</ele>
        <time>2018-05-21T10:25:34Z</time>
      </trkpt>
      <trkpt lat="42.700752010568976" lon="-7.064471002668142">
        <ele>1310</ele>
        <time>2018-05-21T10:25:35Z</time>
      </trkpt>
      <trkpt lat="42.700755028054118" lon="-7.064430015161634">
        <ele>1311</ele>
        <time>2018-05-21T10:25:36Z</time>
      </trkpt>
      <trkpt lat="42.700758967548609" lon="-7.064385004341602">
        <ele>1311</ele>
        <time>2018-05-21T10:25:37Z</time>
      </trkpt>
      <trkpt lat="42.700761985033751" lon="-7.064335970208049">
        <ele>1311</ele>
        <time>2018-05-21T10:25:38Z</time>
      </trkpt>
      <trkpt lat="42.700765002518892" lon="-7.06429498270154">
        <ele>1311</ele>
        <time>2018-05-21T10:25:39Z</time>
      </trkpt>
      <trkpt lat="42.700774976983666" lon="-7.064253995195031">
        <ele>1311</ele>
        <time>2018-05-21T10:25:40Z</time>
      </trkpt>
      <trkpt lat="42.700782017782331" lon="-7.064220970496535">
        <ele>1311</ele>
        <time>2018-05-21T10:25:40Z</time>
      </trkpt>
      <trkpt lat="42.700785035267472" lon="-7.064179982990027">
        <ele>1311</ele>
        <time>2018-05-21T10:25:41Z</time>
      </trkpt>
      <trkpt lat="42.700791992247105" lon="-7.064138995483518">
        <ele>1311</ele>
        <time>2018-05-21T10:25:42Z</time>
      </trkpt>
      <trkpt lat="42.700801966711879" lon="-7.064105970785022">
        <ele>1311</ele>
        <time>2018-05-21T10:25:43Z</time>
      </trkpt>
      <trkpt lat="42.700812024995685" lon="-7.0640570204705">
        <ele>1311</ele>
        <time>2018-05-21T10:25:44Z</time>
      </trkpt>
      <trkpt lat="42.700821999460459" lon="-7.064023995772004">
        <ele>1311</ele>
        <time>2018-05-21T10:25:45Z</time>
      </trkpt>
      <trkpt lat="42.700829040259123" lon="-7.063988037407398">
        <ele>1311</ele>
        <time>2018-05-21T10:25:46Z</time>
      </trkpt>
      <trkpt lat="42.700842032209039" lon="-7.063939003273845">
        <ele>1311</ele>
        <time>2018-05-21T10:25:47Z</time>
      </trkpt>
      <trkpt lat="42.700855024158955" lon="-7.063889969140291">
        <ele>1311</ele>
        <time>2018-05-21T10:25:48Z</time>
      </trkpt>
      <trkpt lat="42.700869021937251" lon="-7.063853004947305">
        <ele>1311</ele>
        <time>2018-05-21T10:25:49Z</time>
      </trkpt>
      <trkpt lat="42.700885031372309" lon="-7.063815034925938">
        <ele>1311</ele>
        <time>2018-05-21T10:25:50Z</time>
      </trkpt>
      <trkpt lat="42.700926018878818" lon="-7.063729958608747">
        <ele>1311</ele>
        <time>2018-05-21T10:25:52Z</time>
      </trkpt>
      <trkpt lat="42.700977986678481" lon="-7.063626023009419">
        <ele>1309</ele>
        <time>2018-05-21T10:25:55Z</time>
      </trkpt>
      <trkpt lat="42.701025009155273" lon="-7.063531978055835">
        <ele>1309</ele>
        <time>2018-05-21T10:25:57Z</time>
      </trkpt>
      <trkpt lat="42.701064990833402" lon="-7.063439022749662">
        <ele>1309</ele>
        <time>2018-05-21T10:26:00Z</time>
      </trkpt>
      <trkpt lat="42.701091980561614" lon="-7.063364004716277">
        <ele>1309</ele>
        <time>2018-05-21T10:26:01Z</time>
      </trkpt>
      <trkpt lat="42.701122993603349" lon="-7.063273983076215">
        <ele>1309</ele>
        <time>2018-05-21T10:26:04Z</time>
      </trkpt>
      <trkpt lat="42.701162975281477" lon="-7.063172981142998">
        <ele>1309</ele>
        <time>2018-05-21T10:26:06Z</time>
      </trkpt>
      <trkpt lat="42.701205974444747" lon="-7.063088994473219">
        <ele>1309</ele>
        <time>2018-05-21T10:26:08Z</time>
      </trkpt>
      <trkpt lat="42.701251991093159" lon="-7.06298497505486">
        <ele>1309</ele>
        <time>2018-05-21T10:26:11Z</time>
      </trkpt>
      <trkpt lat="42.701299013569951" lon="-7.062847008928657">
        <ele>1328</ele>
        <time>2018-05-21T10:26:14Z</time>
      </trkpt>
      <trkpt lat="42.701335977762938" lon="-7.062728991732001">
        <ele>1327</ele>
        <time>2018-05-21T10:26:17Z</time>
      </trkpt>
      <trkpt lat="42.701370008289814" lon="-7.062614997848868">
        <ele>1327</ele>
        <time>2018-05-21T10:26:20Z</time>
      </trkpt>
      <trkpt lat="42.701413007453084" lon="-7.062440989539027">
        <ele>1327</ele>
        <time>2018-05-21T10:26:24Z</time>
      </trkpt>
      <trkpt lat="42.701435973867774" lon="-7.062260024249554">
        <ele>1327</ele>
        <time>2018-05-21T10:26:28Z</time>
      </trkpt>
      <trkpt lat="42.701450977474451" lon="-7.062170002609491">
        <ele>1327</ele>
        <time>2018-05-21T10:26:30Z</time>
      </trkpt>
      <trkpt lat="42.701457012444735" lon="-7.062146030366421">
        <ele>1327</ele>
        <time>2018-05-21T10:26:30Z</time>
      </trkpt>
      <trkpt lat="42.701466986909509" lon="-7.062108982354403">
        <ele>1327</ele>
        <time>2018-05-21T10:26:31Z</time>
      </trkpt>
      <trkpt lat="42.701474027708173" lon="-7.062076041474938">
        <ele>1327</ele>
        <time>2018-05-21T10:26:32Z</time>
      </trkpt>
      <trkpt lat="42.701480984687805" lon="-7.06203899346292">
        <ele>1327</ele>
        <time>2018-05-21T10:26:33Z</time>
      </trkpt>
      <trkpt lat="42.701487019658089" lon="-7.062002029269934">
        <ele>1327</ele>
        <time>2018-05-21T10:26:34Z</time>
      </trkpt>
      <trkpt lat="42.701487019658089" lon="-7.061961041763425">
        <ele>1327</ele>
        <time>2018-05-21T10:26:34Z</time>
      </trkpt>
      <trkpt lat="42.701480984687805" lon="-7.061923993751407">
        <ele>1327</ele>
        <time>2018-05-21T10:26:35Z</time>
      </trkpt>
      <trkpt lat="42.701480984687805" lon="-7.06188602373004">
        <ele>1327</ele>
        <time>2018-05-21T10:26:36Z</time>
      </trkpt>
      <trkpt lat="42.701474027708173" lon="-7.061828020960093">
        <ele>1327</ele>
        <time>2018-05-21T10:26:37Z</time>
      </trkpt>
      <trkpt lat="42.701474027708173" lon="-7.061774963513017">
        <ele>1327</ele>
        <time>2018-05-21T10:26:39Z</time>
      </trkpt>
      <trkpt lat="42.701471010223031" lon="-7.06173799932003">
        <ele>1327</ele>
        <time>2018-05-21T10:26:39Z</time>
      </trkpt>
      <trkpt lat="42.701463969424367" lon="-7.061697011813521">
        <ele>1327</ele>
        <time>2018-05-21T10:26:40Z</time>
      </trkpt>
      <trkpt lat="42.701461035758257" lon="-7.061659041792154">
        <ele>1327</ele>
        <time>2018-05-21T10:26:41Z</time>
      </trkpt>
      <trkpt lat="42.70144703797996" lon="-7.061617970466614">
        <ele>1327</ele>
        <time>2018-05-21T10:26:42Z</time>
      </trkpt>
      <trkpt lat="42.701436979696155" lon="-7.061567008495331">
        <ele>1327</ele>
        <time>2018-05-21T10:26:43Z</time>
      </trkpt>
      <trkpt lat="42.701433962211013" lon="-7.061529960483313">
        <ele>1327</ele>
        <time>2018-05-21T10:26:44Z</time>
      </trkpt>
      <trkpt lat="42.701420970261097" lon="-7.06149903126061">
        <ele>1327</ele>
        <time>2018-05-21T10:26:45Z</time>
      </trkpt>
      <trkpt lat="42.701389035210013" lon="-7.061400040984154">
        <ele>1327</ele>
        <time>2018-05-21T10:26:47Z</time>
      </trkpt>
      <trkpt lat="42.701335977762938" lon="-7.061224021017551">
        <ele>1327</ele>
        <time>2018-05-21T10:26:51Z</time>
      </trkpt>
      <trkpt lat="42.701330026611686" lon="-7.061202982440591">
        <ele>1327</ele>
        <time>2018-05-21T10:26:52Z</time>
      </trkpt>
      <trkpt lat="42.701294990256429" lon="-7.061101980507374">
        <ele>1319</ele>
        <time>2018-05-21T10:26:54Z</time>
      </trkpt>
      <trkpt lat="42.701261965557933" lon="-7.060997961089015">
        <ele>1319</ele>
        <time>2018-05-21T10:26:57Z</time>
      </trkpt>
      <trkpt lat="42.701231958344579" lon="-7.060861000791192">
        <ele>1319</ele>
        <time>2018-05-21T10:27:00Z</time>
      </trkpt>
      <trkpt lat="42.701193988323212" lon="-7.060714988037944">
        <ele>1319</ele>
        <time>2018-05-21T10:27:03Z</time>
      </trkpt>
      <trkpt lat="42.701153000816703" lon="-7.060551960021257">
        <ele>1319</ele>
        <time>2018-05-21T10:27:07Z</time>
      </trkpt>
      <trkpt lat="42.701102960854769" lon="-7.060369988903403">
        <ele>1319</ele>
        <time>2018-05-21T10:27:11Z</time>
      </trkpt>
      <trkpt lat="42.70106197334826" lon="-7.060219030827284">
        <ele>1327</ele>
        <time>2018-05-21T10:27:15Z</time>
      </trkpt>
      <trkpt lat="42.701024003326893" lon="-7.060051979497075">
        <ele>1327</ele>
        <time>2018-05-21T10:27:18Z</time>
      </trkpt>
      <trkpt lat="42.700984021648765" lon="-7.059887023642659">
        <ele>1327</ele>
        <time>2018-05-21T10:27:22Z</time>
      </trkpt>
      <trkpt lat="42.700939010828733" lon="-7.059733970090747">
        <ele>1327</ele>
        <time>2018-05-21T10:27:26Z</time>
      </trkpt>
      <trkpt lat="42.700891988351941" lon="-7.059582006186247">
        <ele>1327</ele>
        <time>2018-05-21T10:27:29Z</time>
      </trkpt>
      <trkpt lat="42.700858041644096" lon="-7.059436999261379">
        <ele>1333</ele>
        <time>2018-05-21T10:27:33Z</time>
      </trkpt>
      <trkpt lat="42.700801966711879" lon="-7.059238012880087">
        <ele>1333</ele>
        <time>2018-05-21T10:27:37Z</time>
      </trkpt>
      <trkpt lat="42.700769025832415" lon="-7.059133993461728">
        <ele>1333</ele>
        <time>2018-05-21T10:27:40Z</time>
      </trkpt>
      <trkpt lat="42.700728960335255" lon="-7.058958979323506">
        <ele>1337</ele>
        <time>2018-05-21T10:27:44Z</time>
      </trkpt>
      <trkpt lat="42.700693001970649" lon="-7.058835010975599">
        <ele>1333</ele>
        <time>2018-05-21T10:27:47Z</time>
      </trkpt>
      <trkpt lat="42.700657965615392" lon="-7.058744989335537">
        <ele>1333</ele>
        <time>2018-05-21T10:27:49Z</time>
      </trkpt>
      <trkpt lat="42.700636005029082" lon="-7.058599982410669">
        <ele>1337</ele>
        <time>2018-05-21T10:27:52Z</time>
      </trkpt>
      <trkpt lat="42.700623013079166" lon="-7.05847199074924">
        <ele>1337</ele>
        <time>2018-05-21T10:27:55Z</time>
      </trkpt>
      <trkpt lat="42.700600968673825" lon="-7.058334024623036">
        <ele>1337</ele>
        <time>2018-05-21T10:27:58Z</time>
      </trkpt>
      <trkpt lat="42.700594011694193" lon="-7.058262024074793">
        <ele>1337</ele>
        <time>2018-05-21T10:27:59Z</time>
      </trkpt>
      <trkpt lat="42.700589988380671" lon="-7.058177031576634">
        <ele>1337</ele>
        <time>2018-05-21T10:28:01Z</time>
      </trkpt>
      <trkpt lat="42.700589988380671" lon="-7.05814803019166">
        <ele>1337</ele>
        <time>2018-05-21T10:28:02Z</time>
      </trkpt>
      <trkpt lat="42.700589988380671" lon="-7.058110982179642">
        <ele>1337</ele>
        <time>2018-05-21T10:28:03Z</time>
      </trkpt>
      <trkpt lat="42.700585965067148" lon="-7.058069994673133">
        <ele>1337</ele>
        <time>2018-05-21T10:28:04Z</time>
      </trkpt>
      <trkpt lat="42.700580013915896" lon="-7.058036969974637">
        <ele>1337</ele>
        <time>2018-05-21T10:28:04Z</time>
      </trkpt>
      <trkpt lat="42.7005660161376" lon="-7.058000005781651">
        <ele>1337</ele>
        <time>2018-05-21T10:28:05Z</time>
      </trkpt>
      <trkpt lat="42.700556041672826" lon="-7.057974021881819">
        <ele>1337</ele>
        <time>2018-05-21T10:28:06Z</time>
      </trkpt>
      <trkpt lat="42.70054598338902" lon="-7.057942003011704">
        <ele>1337</ele>
        <time>2018-05-21T10:28:07Z</time>
      </trkpt>
      <trkpt lat="42.700532991439104" lon="-7.05791300162673">
        <ele>1337</ele>
        <time>2018-05-21T10:28:07Z</time>
      </trkpt>
      <trkpt lat="42.70052301697433" lon="-7.057879976928234">
        <ele>1343</ele>
        <time>2018-05-21T10:28:08Z</time>
      </trkpt>
      <trkpt lat="42.700510025024414" lon="-7.05784996971488">
        <ele>1343</ele>
        <time>2018-05-21T10:28:09Z</time>
      </trkpt>
      <trkpt lat="42.700507007539272" lon="-7.057817028835416">
        <ele>1343</ele>
        <time>2018-05-21T10:28:10Z</time>
      </trkpt>
      <trkpt lat="42.700498960912228" lon="-7.057778974995017">
        <ele>1343</ele>
        <time>2018-05-21T10:28:11Z</time>
      </trkpt>
      <trkpt lat="42.700495021417737" lon="-7.057739999145269">
        <ele>1343</ele>
        <time>2018-05-21T10:28:11Z</time>
      </trkpt>
      <trkpt lat="42.700488986447453" lon="-7.057704962790012">
        <ele>1343</ele>
        <time>2018-05-21T10:28:12Z</time>
      </trkpt>
      <trkpt lat="42.700488986447453" lon="-7.057666992768645">
        <ele>1343</ele>
        <time>2018-05-21T10:28:13Z</time>
      </trkpt>
      <trkpt lat="42.700498038902879" lon="-7.057643020525575">
        <ele>1343</ele>
        <time>2018-05-21T10:28:14Z</time>
      </trkpt>
      <trkpt lat="42.700521005317569" lon="-7.057629022747278">
        <ele>1343</ele>
        <time>2018-05-21T10:28:14Z</time>
      </trkpt>
      <trkpt lat="42.700546989217401" lon="-7.05761200748384">
        <ele>1343</ele>
        <time>2018-05-21T10:28:15Z</time>
      </trkpt>
      <trkpt lat="42.700570961460471" lon="-7.057603960856795">
        <ele>1343</ele>
        <time>2018-05-21T10:28:16Z</time>
      </trkpt>
      <trkpt lat="42.700598035007715" lon="-7.057588035240769">
        <ele>1343</ele>
        <time>2018-05-21T10:28:17Z</time>
      </trkpt>
      <trkpt lat="42.700625024735928" lon="-7.057574959471822">
        <ele>1343</ele>
        <time>2018-05-21T10:28:18Z</time>
      </trkpt>
      <trkpt lat="42.700651008635759" lon="-7.057566996663809">
        <ele>1343</ele>
        <time>2018-05-21T10:28:19Z</time>
      </trkpt>
      <trkpt lat="42.700681015849113" lon="-7.057550987228751">
        <ele>1343</ele>
        <time>2018-05-21T10:28:19Z</time>
      </trkpt>
      <trkpt lat="42.700708005577326" lon="-7.057543024420738">
        <ele>1343</ele>
        <time>2018-05-21T10:28:20Z</time>
      </trkpt>
      <trkpt lat="42.700731977820396" lon="-7.057530032470822">
        <ele>1343</ele>
        <time>2018-05-21T10:28:21Z</time>
      </trkpt>
      <trkpt lat="42.700752010568976" lon="-7.057509999722242">
        <ele>1343</ele>
        <time>2018-05-21T10:28:22Z</time>
      </trkpt>
      <trkpt lat="42.700769025832415" lon="-7.057485021650791">
        <ele>1343</ele>
        <time>2018-05-21T10:28:23Z</time>
      </trkpt>
      <trkpt lat="42.700794003903866" lon="-7.057460965588689">
        <ele>1343</ele>
        <time>2018-05-21T10:28:24Z</time>
      </trkpt>
      <trkpt lat="42.700849995017052" lon="-7.057402040809393">
        <ele>1343</ele>
        <time>2018-05-21T10:28:26Z</time>
      </trkpt>
      <trkpt lat="42.700892994180322" lon="-7.057359041646123">
        <ele>1343</ele>
        <time>2018-05-21T10:28:27Z</time>
      </trkpt>
      <trkpt lat="42.700948985293508" lon="-7.057303972542286">
        <ele>1343</ele>
        <time>2018-05-21T10:28:29Z</time>
      </trkpt>
      <trkpt lat="42.701008999720216" lon="-7.057235995307565">
        <ele>1343</ele>
        <time>2018-05-21T10:28:32Z</time>
      </trkpt>
      <trkpt lat="42.701014028862119" lon="-7.057235995307565">
        <ele>1343</ele>
        <time>2018-05-21T10:28:32Z</time>
      </trkpt>
      <trkpt lat="42.701068008318543" lon="-7.057172963395715">
        <ele>1343</ele>
        <time>2018-05-21T10:28:34Z</time>
      </trkpt>
      <trkpt lat="42.701112013310194" lon="-7.057126024737954">
        <ele>1343</ele>
        <time>2018-05-21T10:28:36Z</time>
      </trkpt>
      <trkpt lat="42.701159035786986" lon="-7.057072967290878">
        <ele>1343</ele>
        <time>2018-05-21T10:28:37Z</time>
      </trkpt>
      <trkpt lat="42.701214021071792" lon="-7.056965008378029">
        <ele>1350</ele>
        <time>2018-05-21T10:28:40Z</time>
      </trkpt>
      <trkpt lat="42.701275963336229" lon="-7.056865012273192">
        <ele>1350</ele>
        <time>2018-05-21T10:28:43Z</time>
      </trkpt>
      <trkpt lat="42.701335977762938" lon="-7.056801980361342">
        <ele>1344</ele>
        <time>2018-05-21T10:28:45Z</time>
      </trkpt>
      <trkpt lat="42.701400015503168" lon="-7.056743977591395">
        <ele>1344</ele>
        <time>2018-05-21T10:28:48Z</time>
      </trkpt>
      <trkpt lat="42.701464975252748" lon="-7.056664014235139">
        <ele>1344</ele>
        <time>2018-05-21T10:28:50Z</time>
      </trkpt>
      <trkpt lat="42.701529012992978" lon="-7.056568963453174">
        <ele>1344</ele>
        <time>2018-05-21T10:28:53Z</time>
      </trkpt>
      <trkpt lat="42.701529012992978" lon="-7.056564018130302">
        <ele>1344</ele>
        <time>2018-05-21T10:28:53Z</time>
      </trkpt>
      <trkpt lat="42.701596990227699" lon="-7.056467961519957">
        <ele>1344</ele>
        <time>2018-05-21T10:28:56Z</time>
      </trkpt>
      <trkpt lat="42.701622974127531" lon="-7.05640803091228">
        <ele>1344</ele>
        <time>2018-05-21T10:28:58Z</time>
      </trkpt>
      <trkpt lat="42.701658010482788" lon="-7.056311974301934">
        <ele>1344</ele>
        <time>2018-05-21T10:29:00Z</time>
      </trkpt>
      <trkpt lat="42.701677959412336" lon="-7.056205021217465">
        <ele>1355</ele>
        <time>2018-05-21T10:29:02Z</time>
      </trkpt>
      <trkpt lat="42.701701009646058" lon="-7.056120028719306">
        <ele>1355</ele>
        <time>2018-05-21T10:29:04Z</time>
      </trkpt>
      <trkpt lat="42.701729005202651" lon="-7.056033024564385">
        <ele>1355</ele>
        <time>2018-05-21T10:29:06Z</time>
      </trkpt>
      <trkpt lat="42.701729005202651" lon="-7.056026989594102">
        <ele>1355</ele>
        <time>2018-05-21T10:29:07Z</time>
      </trkpt>
      <trkpt lat="42.701757000759244" lon="-7.05593504011631">
        <ele>1355</ele>
        <time>2018-05-21T10:29:09Z</time>
      </trkpt>
      <trkpt lat="42.701789019629359" lon="-7.055836971849203">
        <ele>1355</ele>
        <time>2018-05-21T10:29:11Z</time>
      </trkpt>
      <trkpt lat="42.701795976608992" lon="-7.055800007656217">
        <ele>1355</ele>
        <time>2018-05-21T10:29:12Z</time>
      </trkpt>
      <trkpt lat="42.701803017407656" lon="-7.055766982957721">
        <ele>1355</ele>
        <time>2018-05-21T10:29:13Z</time>
      </trkpt>
      <trkpt lat="42.701819026842713" lon="-7.055730018764734">
        <ele>1355</ele>
        <time>2018-05-21T10:29:14Z</time>
      </trkpt>
      <trkpt lat="42.701832018792629" lon="-7.055701017379761">
        <ele>1355</ele>
        <time>2018-05-21T10:29:14Z</time>
      </trkpt>
      <trkpt lat="42.701839981600642" lon="-7.055673021823168">
        <ele>1355</ele>
        <time>2018-05-21T10:29:15Z</time>
      </trkpt>
      <trkpt lat="42.70185699686408" lon="-7.055639997124672">
        <ele>1355</ele>
        <time>2018-05-21T10:29:16Z</time>
      </trkpt>
      <trkpt lat="42.701866971328855" lon="-7.055594986304641">
        <ele>1355</ele>
        <time>2018-05-21T10:29:17Z</time>
      </trkpt>
      <trkpt lat="42.70187996327877" lon="-7.055561961606145">
        <ele>1355</ele>
        <time>2018-05-21T10:29:18Z</time>
      </trkpt>
      <trkpt lat="42.701896978542209" lon="-7.055513011291623">
        <ele>1355</ele>
        <time>2018-05-21T10:29:19Z</time>
      </trkpt>
      <trkpt lat="42.701917011290789" lon="-7.055455008521676">
        <ele>1355</ele>
        <time>2018-05-21T10:29:20Z</time>
      </trkpt>
      <trkpt lat="42.701936960220337" lon="-7.055417960509658">
        <ele>1355</ele>
        <time>2018-05-21T10:29:21Z</time>
      </trkpt>
      <trkpt lat="42.701950035989285" lon="-7.055376973003149">
        <ele>1355</ele>
        <time>2018-05-21T10:29:22Z</time>
      </trkpt>
      <trkpt lat="42.701966967433691" lon="-7.055347971618176">
        <ele>1355</ele>
        <time>2018-05-21T10:29:23Z</time>
      </trkpt>
      <trkpt lat="42.701980965211987" lon="-7.055314024910331">
        <ele>1355</ele>
        <time>2018-05-21T10:29:24Z</time>
      </trkpt>
      <trkpt lat="42.702000997960567" lon="-7.055285023525357">
        <ele>1364</ele>
        <time>2018-05-21T10:29:25Z</time>
      </trkpt>
      <trkpt lat="42.702020024880767" lon="-7.055254010483623">
        <ele>1364</ele>
        <time>2018-05-21T10:29:26Z</time>
      </trkpt>
      <trkpt lat="42.702056989073753" lon="-7.055187039077282">
        <ele>1364</ele>
        <time>2018-05-21T10:29:28Z</time>
      </trkpt>
      <trkpt lat="42.702064029872417" lon="-7.055170023813844">
        <ele>1364</ele>
        <time>2018-05-21T10:29:28Z</time>
      </trkpt>
      <trkpt lat="42.702080039307475" lon="-7.055142028257251">
        <ele>1364</ele>
        <time>2018-05-21T10:29:29Z</time>
      </trkpt>
      <trkpt lat="42.702096970751882" lon="-7.055109003558755">
        <ele>1364</ele>
        <time>2018-05-21T10:29:30Z</time>
      </trkpt>
      <trkpt lat="42.702107029035687" lon="-7.055075978860259">
        <ele>1364</ele>
        <time>2018-05-21T10:29:30Z</time>
      </trkpt>
      <trkpt lat="42.702120020985603" lon="-7.055051000788808">
        <ele>1330</ele>
        <time>2018-05-21T10:29:31Z</time>
      </trkpt>
      <trkpt lat="42.702137036249042" lon="-7.055030968040228">
        <ele>1330</ele>
        <time>2018-05-21T10:29:32Z</time>
      </trkpt>
      <trkpt lat="42.70215698517859" lon="-7.055005989968777">
        <ele>1330</ele>
        <time>2018-05-21T10:29:33Z</time>
      </trkpt>
      <trkpt lat="42.70217701792717" lon="-7.054976988583803">
        <ele>1330</ele>
        <time>2018-05-21T10:29:33Z</time>
      </trkpt>
      <trkpt lat="42.702196966856718" lon="-7.054941030219197">
        <ele>1330</ele>
        <time>2018-05-21T10:29:34Z</time>
      </trkpt>
      <trkpt lat="42.702207025140524" lon="-7.054908005520701">
        <ele>1330</ele>
        <time>2018-05-21T10:29:35Z</time>
      </trkpt>
      <trkpt lat="42.70222001709044" lon="-7.05486299470067">
        <ele>1330</ele>
        <time>2018-05-21T10:29:36Z</time>
      </trkpt>
      <trkpt lat="42.702237032353878" lon="-7.054827958345413">
        <ele>1330</ele>
        <time>2018-05-21T10:29:37Z</time>
      </trkpt>
      <trkpt lat="42.702256981283426" lon="-7.05479602329433">
        <ele>1330</ele>
        <time>2018-05-21T10:29:38Z</time>
      </trkpt>
      <trkpt lat="42.702269973233342" lon="-7.05475402995944">
        <ele>1330</ele>
        <time>2018-05-21T10:29:39Z</time>
      </trkpt>
      <trkpt lat="42.702280031517148" lon="-7.054717987775803">
        <ele>1330</ele>
        <time>2018-05-21T10:29:40Z</time>
      </trkpt>
      <trkpt lat="42.702290005981922" lon="-7.054684963077307">
        <ele>1330</ele>
        <time>2018-05-21T10:29:41Z</time>
      </trkpt>
      <trkpt lat="42.702296962961555" lon="-7.05464799888432">
        <ele>1330</ele>
        <time>2018-05-21T10:29:41Z</time>
      </trkpt>
      <trkpt lat="42.70230702124536" lon="-7.054611034691334">
        <ele>1330</ele>
        <time>2018-05-21T10:29:42Z</time>
      </trkpt>
      <trkpt lat="42.702320013195276" lon="-7.054569963365793">
        <ele>1330</ele>
        <time>2018-05-21T10:29:43Z</time>
      </trkpt>
      <trkpt lat="42.702337028458714" lon="-7.054528975859284">
        <ele>1330</ele>
        <time>2018-05-21T10:29:44Z</time>
      </trkpt>
      <trkpt lat="42.70235002040863" lon="-7.054483965039253">
        <ele>1330</ele>
        <time>2018-05-21T10:29:45Z</time>
      </trkpt>
      <trkpt lat="42.702367035672069" lon="-7.054447000846267">
        <ele>1344</ele>
        <time>2018-05-21T10:29:46Z</time>
      </trkpt>
      <trkpt lat="42.702381033450365" lon="-7.05441297031939">
        <ele>1344</ele>
        <time>2018-05-21T10:29:47Z</time>
      </trkpt>
      <trkpt lat="42.702384972944856" lon="-7.054376006126404">
        <ele>1344</ele>
        <time>2018-05-21T10:29:48Z</time>
      </trkpt>
      <trkpt lat="42.702391007915139" lon="-7.054335018619895">
        <ele>1344</ele>
        <time>2018-05-21T10:29:49Z</time>
      </trkpt>
      <trkpt lat="42.702397964894772" lon="-7.054297970607877">
        <ele>1344</ele>
        <time>2018-05-21T10:29:50Z</time>
      </trkpt>
      <trkpt lat="42.702408023178577" lon="-7.054256983101368">
        <ele>1344</ele>
        <time>2018-05-21T10:29:51Z</time>
      </trkpt>
      <trkpt lat="42.702408023178577" lon="-7.054220018908382">
        <ele>1344</ele>
        <time>2018-05-21T10:29:51Z</time>
      </trkpt>
      <trkpt lat="42.702411040663719" lon="-7.054179031401873">
        <ele>1344</ele>
        <time>2018-05-21T10:29:52Z</time>
      </trkpt>
      <trkpt lat="42.702411040663719" lon="-7.054134020581842">
        <ele>1344</ele>
        <time>2018-05-21T10:29:53Z</time>
      </trkpt>
      <trkpt lat="42.702413974329829" lon="-7.05408800393343">
        <ele>1344</ele>
        <time>2018-05-21T10:29:54Z</time>
      </trkpt>
      <trkpt lat="42.702417997643352" lon="-7.054047016426921">
        <ele>1344</ele>
        <time>2018-05-21T10:29:55Z</time>
      </trkpt>
      <trkpt lat="42.702424032613635" lon="-7.054006028920412">
        <ele>1344</ele>
        <time>2018-05-21T10:29:56Z</time>
      </trkpt>
      <trkpt lat="42.702438030391932" lon="-7.053974010050297">
        <ele>1344</ele>
        <time>2018-05-21T10:29:57Z</time>
      </trkpt>
      <trkpt lat="42.702448004856706" lon="-7.053940985351801">
        <ele>1344</ele>
        <time>2018-05-21T10:29:58Z</time>
      </trkpt>
      <trkpt lat="42.702464014291763" lon="-7.053907960653305">
        <ele>1344</ele>
        <time>2018-05-21T10:29:59Z</time>
      </trkpt>
      <trkpt lat="42.70247801207006" lon="-7.053870996460319">
        <ele>1344</ele>
        <time>2018-05-21T10:30:00Z</time>
      </trkpt>
      <trkpt lat="42.702497960999608" lon="-7.053834032267332">
        <ele>1344</ele>
        <time>2018-05-21T10:30:01Z</time>
      </trkpt>
      <trkpt lat="42.702511036768556" lon="-7.053801007568836">
        <ele>1344</ele>
        <time>2018-05-21T10:30:01Z</time>
      </trkpt>
      <trkpt lat="42.702527968212962" lon="-7.053773012012243">
        <ele>1344</ele>
        <time>2018-05-21T10:30:02Z</time>
      </trkpt>
      <trkpt lat="42.702548000961542" lon="-7.05374401062727">
        <ele>1344</ele>
        <time>2018-05-21T10:30:03Z</time>
      </trkpt>
      <trkpt lat="42.702573984861374" lon="-7.053710985928774">
        <ele>1344</ele>
        <time>2018-05-21T10:30:04Z</time>
      </trkpt>
      <trkpt lat="42.702591000124812" lon="-7.053677961230278">
        <ele>1344</ele>
        <time>2018-05-21T10:30:05Z</time>
      </trkpt>
      <trkpt lat="42.702611032873392" lon="-7.053648959845305">
        <ele>1344</ele>
        <time>2018-05-21T10:30:06Z</time>
      </trkpt>
      <trkpt lat="42.702624024823308" lon="-7.053620964288712">
        <ele>1361</ele>
        <time>2018-05-21T10:30:07Z</time>
      </trkpt>
      <trkpt lat="42.702641040086746" lon="-7.053591962903738">
        <ele>1361</ele>
        <time>2018-05-21T10:30:07Z</time>
      </trkpt>
      <trkpt lat="42.702664006501436" lon="-7.053566984832287">
        <ele>1361</ele>
        <time>2018-05-21T10:30:08Z</time>
      </trkpt>
      <trkpt lat="42.702684039250016" lon="-7.053534965962172">
        <ele>1361</ele>
        <time>2018-05-21T10:30:09Z</time>
      </trkpt>
      <trkpt lat="42.702707005664706" lon="-7.053514011204243">
        <ele>1361</ele>
        <time>2018-05-21T10:30:10Z</time>
      </trkpt>
      <trkpt lat="42.702729972079396" lon="-7.053498001769185">
        <ele>1361</ele>
        <time>2018-05-21T10:30:11Z</time>
      </trkpt>
      <trkpt lat="42.702756961807609" lon="-7.053476963192225">
        <ele>1361</ele>
        <time>2018-05-21T10:30:12Z</time>
      </trkpt>
      <trkpt lat="42.702786969020963" lon="-7.053464977070689">
        <ele>1361</ele>
        <time>2018-05-21T10:30:13Z</time>
      </trkpt>
      <trkpt lat="42.702813036739826" lon="-7.053452990949154">
        <ele>1361</ele>
        <time>2018-05-21T10:30:13Z</time>
      </trkpt>
      <trkpt lat="42.702832985669374" lon="-7.053431030362845">
        <ele>1361</ele>
        <time>2018-05-21T10:30:14Z</time>
      </trkpt>
      <trkpt lat="42.702857041731477" lon="-7.053405968472362">
        <ele>1361</ele>
        <time>2018-05-21T10:30:15Z</time>
      </trkpt>
      <trkpt lat="42.702876990661025" lon="-7.05338099040091">
        <ele>1361</ele>
        <time>2018-05-21T10:30:16Z</time>
      </trkpt>
      <trkpt lat="42.702894005924463" lon="-7.053359029814601">
        <ele>1361</ele>
        <time>2018-05-21T10:30:17Z</time>
      </trkpt>
      <trkpt lat="42.70292803645134" lon="-7.053343020379543">
        <ele>1361</ele>
        <time>2018-05-21T10:30:18Z</time>
      </trkpt>
      <trkpt lat="42.702954020351171" lon="-7.053327010944486">
        <ele>1340</ele>
        <time>2018-05-21T10:30:18Z</time>
      </trkpt>
      <trkpt lat="42.702977992594242" lon="-7.053309995681047">
        <ele>1340</ele>
        <time>2018-05-21T10:30:19Z</time>
      </trkpt>
      <trkpt lat="42.703003976494074" lon="-7.05329398624599">
        <ele>1340</ele>
        <time>2018-05-21T10:30:20Z</time>
      </trkpt>
      <trkpt lat="42.703030966222286" lon="-7.053273031488061">
        <ele>1340</ele>
        <time>2018-05-21T10:30:21Z</time>
      </trkpt>
      <trkpt lat="42.70306097343564" lon="-7.053248975425959">
        <ele>1340</ele>
        <time>2018-05-21T10:30:22Z</time>
      </trkpt>
      <trkpt lat="42.703078994527459" lon="-7.05322802066803">
        <ele>1340</ele>
        <time>2018-05-21T10:30:23Z</time>
      </trkpt>
      <trkpt lat="42.703106990084052" lon="-7.053212011232972">
        <ele>1340</ele>
        <time>2018-05-21T10:30:24Z</time>
      </trkpt>
      <trkpt lat="42.703129034489393" lon="-7.053199019283056">
        <ele>1340</ele>
        <time>2018-05-21T10:30:24Z</time>
      </trkpt>
      <trkpt lat="42.703152000904083" lon="-7.053178986534476">
        <ele>1340</ele>
        <time>2018-05-21T10:30:25Z</time>
      </trkpt>
      <trkpt lat="42.703179996460676" lon="-7.053167000412941">
        <ele>1340</ele>
        <time>2018-05-21T10:30:26Z</time>
      </trkpt>
      <trkpt lat="42.703200029209256" lon="-7.053154008463025">
        <ele>1340</ele>
        <time>2018-05-21T10:30:27Z</time>
      </trkpt>
      <trkpt lat="42.703227018937469" lon="-7.053126012906432">
        <ele>1340</ele>
        <time>2018-05-21T10:30:28Z</time>
      </trkpt>
      <trkpt lat="42.703249985352159" lon="-7.053092988207936">
        <ele>1340</ele>
        <time>2018-05-21T10:30:29Z</time>
      </trkpt>
      <trkpt lat="42.70327303558588" lon="-7.053072033450007">
        <ele>1340</ele>
        <time>2018-05-21T10:30:30Z</time>
      </trkpt>
      <trkpt lat="42.703306982293725" lon="-7.053044037893415">
        <ele>1340</ele>
        <time>2018-05-21T10:30:31Z</time>
      </trkpt>
      <trkpt lat="42.703332966193557" lon="-7.053018976002932">
        <ele>1340</ele>
        <time>2018-05-21T10:30:32Z</time>
      </trkpt>
      <trkpt lat="42.703357022255659" lon="-7.052989974617958">
        <ele>1340</ele>
        <time>2018-05-21T10:30:33Z</time>
      </trkpt>
      <trkpt lat="42.703389963135123" lon="-7.052961979061365">
        <ele>1340</ele>
        <time>2018-05-21T10:30:34Z</time>
      </trkpt>
      <trkpt lat="42.703414019197226" lon="-7.052937000989914">
        <ele>1340</ele>
        <time>2018-05-21T10:30:35Z</time>
      </trkpt>
      <trkpt lat="42.703489037230611" lon="-7.05286500044167">
        <ele>1340</ele>
        <time>2018-05-21T10:30:37Z</time>
      </trkpt>
      <trkpt lat="42.703516026958823" lon="-7.0528410281986">
        <ele>1340</ele>
        <time>2018-05-21T10:30:38Z</time>
      </trkpt>
      <trkpt lat="42.703542010858655" lon="-7.052812026813626">
        <ele>1359</ele>
        <time>2018-05-21T10:30:39Z</time>
      </trkpt>
      <trkpt lat="42.703569000586867" lon="-7.052786964923143">
        <ele>1359</ele>
        <time>2018-05-21T10:30:40Z</time>
      </trkpt>
      <trkpt lat="42.703589033335447" lon="-7.052762992680073">
        <ele>1359</ele>
        <time>2018-05-21T10:30:41Z</time>
      </trkpt>
      <trkpt lat="42.703611999750137" lon="-7.052733991295099">
        <ele>1359</ele>
        <time>2018-05-21T10:30:42Z</time>
      </trkpt>
      <trkpt lat="42.70363898947835" lon="-7.05271303653717">
        <ele>1359</ele>
        <time>2018-05-21T10:30:43Z</time>
      </trkpt>
      <trkpt lat="42.703654998913407" lon="-7.05269300378859">
        <ele>1359</ele>
        <time>2018-05-21T10:30:44Z</time>
      </trkpt>
      <trkpt lat="42.703678971156478" lon="-7.05267196521163">
        <ele>1359</ele>
        <time>2018-05-21T10:30:44Z</time>
      </trkpt>
      <trkpt lat="42.7037020213902" lon="-7.052652016282082">
        <ele>1359</ele>
        <time>2018-05-21T10:30:45Z</time>
      </trkpt>
      <trkpt lat="42.703729011118412" lon="-7.05262703821063">
        <ele>1359</ele>
        <time>2018-05-21T10:30:46Z</time>
      </trkpt>
      <trkpt lat="42.703754995018244" lon="-7.052602982148528">
        <ele>1359</ele>
        <time>2018-05-21T10:30:47Z</time>
      </trkpt>
      <trkpt lat="42.703775027766824" lon="-7.052582027390599">
        <ele>1336</ele>
        <time>2018-05-21T10:30:48Z</time>
      </trkpt>
      <trkpt lat="42.703802017495036" lon="-7.052553026005626">
        <ele>1336</ele>
        <time>2018-05-21T10:30:49Z</time>
      </trkpt>
      <trkpt lat="42.703824983909726" lon="-7.052532993257046">
        <ele>1336</ele>
        <time>2018-05-21T10:30:50Z</time>
      </trkpt>
      <trkpt lat="42.703851973637938" lon="-7.05249996855855">
        <ele>1336</ele>
        <time>2018-05-21T10:30:51Z</time>
      </trkpt>
      <trkpt lat="42.703872006386518" lon="-7.052474990487099">
        <ele>1336</ele>
        <time>2018-05-21T10:30:52Z</time>
      </trkpt>
      <trkpt lat="42.703892039135098" lon="-7.052446994930506">
        <ele>1336</ele>
        <time>2018-05-21T10:30:52Z</time>
      </trkpt>
      <trkpt lat="42.703915005549788" lon="-7.052426040172577">
        <ele>1336</ele>
        <time>2018-05-21T10:30:53Z</time>
      </trkpt>
      <trkpt lat="42.703941995278001" lon="-7.052388992160559">
        <ele>1336</ele>
        <time>2018-05-21T10:30:54Z</time>
      </trkpt>
      <trkpt lat="42.703962028026581" lon="-7.052355967462063">
        <ele>1336</ele>
        <time>2018-05-21T10:30:55Z</time>
      </trkpt>
      <trkpt lat="42.703981976956129" lon="-7.052331995218992">
        <ele>1336</ele>
        <time>2018-05-21T10:30:56Z</time>
      </trkpt>
      <trkpt lat="42.704005027189851" lon="-7.052307017147541">
        <ele>1336</ele>
        <time>2018-05-21T10:30:57Z</time>
      </trkpt>
      <trkpt lat="42.704021958634257" lon="-7.052279021590948">
        <ele>1336</ele>
        <time>2018-05-21T10:30:58Z</time>
      </trkpt>
      <trkpt lat="42.704049032181501" lon="-7.052253959700465">
        <ele>1336</ele>
        <time>2018-05-21T10:30:59Z</time>
      </trkpt>
      <trkpt lat="42.704071998596191" lon="-7.052221018821001">
        <ele>1336</ele>
        <time>2018-05-21T10:31:00Z</time>
      </trkpt>
      <trkpt lat="42.704097982496023" lon="-7.05219604074955">
        <ele>1336</ele>
        <time>2018-05-21T10:31:01Z</time>
      </trkpt>
      <trkpt lat="42.704127989709377" lon="-7.052158992737532">
        <ele>1336</ele>
        <time>2018-05-21T10:31:02Z</time>
      </trkpt>
      <trkpt lat="42.704151961952448" lon="-7.052126973867416">
        <ele>1336</ele>
        <time>2018-05-21T10:31:03Z</time>
      </trkpt>
      <trkpt lat="42.704178029671311" lon="-7.052101995795965">
        <ele>1336</ele>
        <time>2018-05-21T10:31:04Z</time>
      </trkpt>
      <trkpt lat="42.704205019399524" lon="-7.052068971097469">
        <ele>1336</ele>
        <time>2018-05-21T10:31:05Z</time>
      </trkpt>
      <trkpt lat="42.704232009127736" lon="-7.052040975540876">
        <ele>1336</ele>
        <time>2018-05-21T10:31:06Z</time>
      </trkpt>
      <trkpt lat="42.704250030219555" lon="-7.052009962499142">
        <ele>1336</ele>
        <time>2018-05-21T10:31:07Z</time>
      </trkpt>
      <trkpt lat="42.704272996634245" lon="-7.051981966942549">
        <ele>1351</ele>
        <time>2018-05-21T10:31:08Z</time>
      </trkpt>
      <trkpt lat="42.704298980534077" lon="-7.051952965557575">
        <ele>1351</ele>
        <time>2018-05-21T10:31:09Z</time>
      </trkpt>
      <trkpt lat="42.704323036596179" lon="-7.051933016628027">
        <ele>1351</ele>
        <time>2018-05-21T10:31:09Z</time>
      </trkpt>
      <trkpt lat="42.704342985525727" lon="-7.051899991929531">
        <ele>1351</ele>
        <time>2018-05-21T10:31:10Z</time>
      </trkpt>
      <trkpt lat="42.704368969425559" lon="-7.051870990544558">
        <ele>1351</ele>
        <time>2018-05-21T10:31:11Z</time>
      </trkpt>
      <trkpt lat="42.704389002174139" lon="-7.051846012473106">
        <ele>1351</ele>
        <time>2018-05-21T10:31:12Z</time>
      </trkpt>
      <trkpt lat="42.704409034922719" lon="-7.051822040230036">
        <ele>1351</ele>
        <time>2018-05-21T10:31:13Z</time>
      </trkpt>
      <trkpt lat="42.704425966367126" lon="-7.051793038845062">
        <ele>1351</ele>
        <time>2018-05-21T10:31:14Z</time>
      </trkpt>
      <trkpt lat="42.704445999115705" lon="-7.051767976954579">
        <ele>1351</ele>
        <time>2018-05-21T10:31:15Z</time>
      </trkpt>
      <trkpt lat="42.704463014379144" lon="-7.051739981397986">
        <ele>1351</ele>
        <time>2018-05-21T10:31:15Z</time>
      </trkpt>
      <trkpt lat="42.704483969137073" lon="-7.051719026640058">
        <ele>1351</ele>
        <time>2018-05-21T10:31:16Z</time>
      </trkpt>
      <trkpt lat="42.704507019370794" lon="-7.051693964749575">
        <ele>1351</ele>
        <time>2018-05-21T10:31:17Z</time>
      </trkpt>
      <trkpt lat="42.704526968300343" lon="-7.051669992506504">
        <ele>1351</ele>
        <time>2018-05-21T10:31:18Z</time>
      </trkpt>
      <trkpt lat="42.704547001048923" lon="-7.051640991121531">
        <ele>1310</ele>
        <time>2018-05-21T10:31:19Z</time>
      </trkpt>
      <trkpt lat="42.704568039625883" lon="-7.051621964201331">
        <ele>1351</ele>
        <time>2018-05-21T10:31:19Z</time>
      </trkpt>
      <trkpt lat="42.704581031575799" lon="-7.051587011665106">
        <ele>1351</ele>
        <time>2018-05-21T10:31:20Z</time>
      </trkpt>
      <trkpt lat="42.704594023525715" lon="-7.05155398696661">
        <ele>1310</ele>
        <time>2018-05-21T10:31:21Z</time>
      </trkpt>
      <trkpt lat="42.704607015475631" lon="-7.051521968096495">
        <ele>1310</ele>
        <time>2018-05-21T10:31:22Z</time>
      </trkpt>
      <trkpt lat="42.704621013253927" lon="-7.051489027217031">
        <ele>1310</ele>
        <time>2018-05-21T10:31:23Z</time>
      </trkpt>
      <trkpt lat="42.704629981890321" lon="-7.051456002518535">
        <ele>1310</ele>
        <time>2018-05-21T10:31:23Z</time>
      </trkpt>
      <trkpt lat="42.704646997153759" lon="-7.051408980041742">
        <ele>1310</ele>
        <time>2018-05-21T10:31:25Z</time>
      </trkpt>
      <trkpt lat="42.704659989103675" lon="-7.051373021677136">
        <ele>1310</ele>
        <time>2018-05-21T10:31:25Z</time>
      </trkpt>
      <trkpt lat="42.704673986881971" lon="-7.051345026120544">
        <ele>1310</ele>
        <time>2018-05-21T10:31:26Z</time>
      </trkpt>
      <trkpt lat="42.70469200797379" lon="-7.05131602473557">
        <ele>1310</ele>
        <time>2018-05-21T10:31:27Z</time>
      </trkpt>
      <trkpt lat="42.704709023237228" lon="-7.051246035844088">
        <ele>1310</ele>
        <time>2018-05-21T10:31:29Z</time>
      </trkpt>
      <trkpt lat="42.704736012965441" lon="-7.051148973405361">
        <ele>1318</ele>
        <time>2018-05-21T10:31:31Z</time>
      </trkpt>
      <trkpt lat="42.704742969945073" lon="-7.051118966192007">
        <ele>1318</ele>
        <time>2018-05-21T10:31:32Z</time>
      </trkpt>
      <trkpt lat="42.704745987430215" lon="-7.051074039191008">
        <ele>1318</ele>
        <time>2018-05-21T10:31:33Z</time>
      </trkpt>
      <trkpt lat="42.704753028228879" lon="-7.051007989794016">
        <ele>1318</ele>
        <time>2018-05-21T10:31:34Z</time>
      </trkpt>
      <trkpt lat="42.704763002693653" lon="-7.050956021994352">
        <ele>1318</ele>
        <time>2018-05-21T10:31:35Z</time>
      </trkpt>
      <trkpt lat="42.704769959673285" lon="-7.050922997295857">
        <ele>1318</ele>
        <time>2018-05-21T10:31:36Z</time>
      </trkpt>
      <trkpt lat="42.704783035442233" lon="-7.050895001739264">
        <ele>1318</ele>
        <time>2018-05-21T10:31:37Z</time>
      </trkpt>
      <trkpt lat="42.704785969108343" lon="-7.050858037546277">
        <ele>1318</ele>
        <time>2018-05-21T10:31:37Z</time>
      </trkpt>
      <trkpt lat="42.704796027392149" lon="-7.050813026726246">
        <ele>1318</ele>
        <time>2018-05-21T10:31:38Z</time>
      </trkpt>
      <trkpt lat="42.704810025170445" lon="-7.050762986764312">
        <ele>1318</ele>
        <time>2018-05-21T10:31:40Z</time>
      </trkpt>
      <trkpt lat="42.704812958836555" lon="-7.050721999257803">
        <ele>1318</ele>
        <time>2018-05-21T10:31:41Z</time>
      </trkpt>
      <trkpt lat="42.704828968271613" lon="-7.050685035064817">
        <ele>1318</ele>
        <time>2018-05-21T10:31:41Z</time>
      </trkpt>
      <trkpt lat="42.70484296604991" lon="-7.050660979002714">
        <ele>1318</ele>
        <time>2018-05-21T10:31:42Z</time>
      </trkpt>
      <trkpt lat="42.704845983535051" lon="-7.050623008981347">
        <ele>1318</ele>
        <time>2018-05-21T10:31:43Z</time>
      </trkpt>
      <trkpt lat="42.704858975484967" lon="-7.050594007596374">
        <ele>1318</ele>
        <time>2018-05-21T10:31:44Z</time>
      </trkpt>
      <trkpt lat="42.70486299879849" lon="-7.050556959584355">
        <ele>1318</ele>
        <time>2018-05-21T10:31:45Z</time>
      </trkpt>
      <trkpt lat="42.704866016283631" lon="-7.050519995391369">
        <ele>1318</ele>
        <time>2018-05-21T10:31:45Z</time>
      </trkpt>
      <trkpt lat="42.704872973263264" lon="-7.050486970692873">
        <ele>1318</ele>
        <time>2018-05-21T10:31:46Z</time>
      </trkpt>
      <trkpt lat="42.704896023496985" lon="-7.050460986793041">
        <ele>1318</ele>
        <time>2018-05-21T10:31:47Z</time>
      </trkpt>
      <trkpt lat="42.704923013225198" lon="-7.05043600872159">
        <ele>1318</ele>
        <time>2018-05-21T10:31:48Z</time>
      </trkpt>
      <trkpt lat="42.704956037923694" lon="-7.050408013164997">
        <ele>1318</ele>
        <time>2018-05-21T10:31:49Z</time>
      </trkpt>
      <trkpt lat="42.704979004338384" lon="-7.050374988466501">
        <ele>1318</ele>
        <time>2018-05-21T10:31:50Z</time>
      </trkpt>
      <trkpt lat="42.705005994066596" lon="-7.050354033708572">
        <ele>1330</ele>
        <time>2018-05-21T10:31:51Z</time>
      </trkpt>
      <trkpt lat="42.705028960481286" lon="-7.050338024273515">
        <ele>1330</ele>
        <time>2018-05-21T10:31:52Z</time>
      </trkpt>
      <trkpt lat="42.705045975744724" lon="-7.050316985696554">
        <ele>1330</ele>
        <time>2018-05-21T10:31:53Z</time>
      </trkpt>
      <trkpt lat="42.705072965472937" lon="-7.050300976261497">
        <ele>1330</ele>
        <time>2018-05-21T10:31:54Z</time>
      </trkpt>
      <trkpt lat="42.7050990331918" lon="-7.050293013453484">
        <ele>1330</ele>
        <time>2018-05-21T10:31:54Z</time>
      </trkpt>
      <trkpt lat="42.705129040405154" lon="-7.050275998190045">
        <ele>1330</ele>
        <time>2018-05-21T10:31:55Z</time>
      </trkpt>
      <trkpt lat="42.705158963799477" lon="-7.050271974876523">
        <ele>1330</ele>
        <time>2018-05-21T10:31:56Z</time>
      </trkpt>
      <trkpt lat="42.705186037346721" lon="-7.05026401206851">
        <ele>1330</ele>
        <time>2018-05-21T10:31:57Z</time>
      </trkpt>
      <trkpt lat="42.705213027074933" lon="-7.050259988754988">
        <ele>1330</ele>
        <time>2018-05-21T10:31:58Z</time>
      </trkpt>
      <trkpt lat="42.705240016803145" lon="-7.050254959613085">
        <ele>1330</ele>
        <time>2018-05-21T10:31:59Z</time>
      </trkpt>
      <trkpt lat="42.705267006531358" lon="-7.050241967663169">
        <ele>1330</ele>
        <time>2018-05-21T10:32:00Z</time>
      </trkpt>
      <trkpt lat="42.705279998481274" lon="-7.050217995420098">
        <ele>1330</ele>
        <time>2018-05-21T10:32:00Z</time>
      </trkpt>
      <trkpt lat="42.705306988209486" lon="-7.050209026783705">
        <ele>1330</ele>
        <time>2018-05-21T10:32:01Z</time>
      </trkpt>
      <trkpt lat="42.705333977937698" lon="-7.050205003470182">
        <ele>1330</ele>
        <time>2018-05-21T10:32:02Z</time>
      </trkpt>
      <trkpt lat="42.70535996183753" lon="-7.05019704066217">
        <ele>1330</ele>
        <time>2018-05-21T10:32:03Z</time>
      </trkpt>
      <trkpt lat="42.705393992364407" lon="-7.05019704066217">
        <ele>1330</ele>
        <time>2018-05-21T10:32:04Z</time>
      </trkpt>
      <trkpt lat="42.70542299374938" lon="-7.05019704066217">
        <ele>1330</ele>
        <time>2018-05-21T10:32:05Z</time>
      </trkpt>
      <trkpt lat="42.705457024276257" lon="-7.05019704066217">
        <ele>1330</ele>
        <time>2018-05-21T10:32:06Z</time>
      </trkpt>
      <trkpt lat="42.705488037317991" lon="-7.05019704066217">
        <ele>1317</ele>
        <time>2018-05-21T10:32:07Z</time>
      </trkpt>
      <trkpt lat="42.705540005117655" lon="-7.050174996256828">
        <ele>1317</ele>
        <time>2018-05-21T10:32:09Z</time>
      </trkpt>
      <trkpt lat="42.705661039799452" lon="-7.050141971558332">
        <ele>1317</ele>
        <time>2018-05-21T10:32:12Z</time>
      </trkpt>
      <trkpt lat="42.705760030075908" lon="-7.050108024850488">
        <ele>1317</ele>
        <time>2018-05-21T10:32:15Z</time>
      </trkpt>
      <trkpt lat="42.705851979553699" lon="-7.050083968788385">
        <ele>1317</ele>
        <time>2018-05-21T10:32:18Z</time>
      </trkpt>
      <trkpt lat="42.705918028950691" lon="-7.050059996545315">
        <ele>1317</ele>
        <time>2018-05-21T10:32:20Z</time>
      </trkpt>
      <trkpt lat="42.706025987863541" lon="-7.050041975453496">
        <ele>1317</ele>
        <time>2018-05-21T10:32:23Z</time>
      </trkpt>
      <trkpt lat="42.706092037260532" lon="-7.049986990168691">
        <ele>1317</ele>
        <time>2018-05-21T10:32:26Z</time>
      </trkpt>
      <trkpt lat="42.706202007830143" lon="-7.04989898018539">
        <ele>1317</ele>
        <time>2018-05-21T10:32:29Z</time>
      </trkpt>
      <trkpt lat="42.706225980073214" lon="-7.04983402043581">
        <ele>1317</ele>
        <time>2018-05-21T10:32:31Z</time>
      </trkpt>
      <trkpt lat="42.706259004771709" lon="-7.049766965210438">
        <ele>1317</ele>
        <time>2018-05-21T10:32:33Z</time>
      </trkpt>
      <trkpt lat="42.706289011985064" lon="-7.049702005460858">
        <ele>1317</ele>
        <time>2018-05-21T10:32:34Z</time>
      </trkpt>
      <trkpt lat="42.70634600892663" lon="-7.049587005749345">
        <ele>1290</ele>
        <time>2018-05-21T10:32:37Z</time>
      </trkpt>
      <trkpt lat="42.70634600892663" lon="-7.049581976607442">
        <ele>1290</ele>
        <time>2018-05-21T10:32:38Z</time>
      </trkpt>
      <trkpt lat="42.706396970897913" lon="-7.049496984109283">
        <ele>1299</ele>
        <time>2018-05-21T10:32:40Z</time>
      </trkpt>
      <trkpt lat="42.706429995596409" lon="-7.049445016309619">
        <ele>1299</ele>
        <time>2018-05-21T10:32:41Z</time>
      </trkpt>
      <trkpt lat="42.706464026123285" lon="-7.049328004941344">
        <ele>1299</ele>
        <time>2018-05-21T10:32:44Z</time>
      </trkpt>
      <trkpt lat="42.706498978659511" lon="-7.049220968037844">
        <ele>1299</ele>
        <time>2018-05-21T10:32:47Z</time>
      </trkpt>
      <trkpt lat="42.706506019458175" lon="-7.049213005229831">
        <ele>1299</ele>
        <time>2018-05-21T10:32:47Z</time>
      </trkpt>
      <trkpt lat="42.706509036943316" lon="-7.0491679944098">
        <ele>1299</ele>
        <time>2018-05-21T10:32:48Z</time>
      </trkpt>
      <trkpt lat="42.706515993922949" lon="-7.049131030216813">
        <ele>1299</ele>
        <time>2018-05-21T10:32:49Z</time>
      </trkpt>
      <trkpt lat="42.706519011408091" lon="-7.049089958891273">
        <ele>1299</ele>
        <time>2018-05-21T10:32:50Z</time>
      </trkpt>
      <trkpt lat="42.706529991701245" lon="-7.049051988869906">
        <ele>1299</ele>
        <time>2018-05-21T10:32:51Z</time>
      </trkpt>
      <trkpt lat="42.706539966166019" lon="-7.049015024676919">
        <ele>1299</ele>
        <time>2018-05-21T10:32:51Z</time>
      </trkpt>
      <trkpt lat="42.706556981429458" lon="-7.048965990543366">
        <ele>1299</ele>
        <time>2018-05-21T10:32:53Z</time>
      </trkpt>
      <trkpt lat="42.706572990864515" lon="-7.048919973894954">
        <ele>1299</ele>
        <time>2018-05-21T10:32:54Z</time>
      </trkpt>
      <trkpt lat="42.706586988642812" lon="-7.04888803884387">
        <ele>1299</ele>
        <time>2018-05-21T10:32:55Z</time>
      </trkpt>
      <trkpt lat="42.706596963107586" lon="-7.048843028023839">
        <ele>1299</ele>
        <time>2018-05-21T10:32:56Z</time>
      </trkpt>
      <trkpt lat="42.706607021391392" lon="-7.048797011375427">
        <ele>1299</ele>
        <time>2018-05-21T10:32:57Z</time>
      </trkpt>
      <trkpt lat="42.706612972542644" lon="-7.04876096919179">
        <ele>1299</ele>
        <time>2018-05-21T10:32:57Z</time>
      </trkpt>
      <trkpt lat="42.70662697032094" lon="-7.0487189758569">
        <ele>1299</ele>
        <time>2018-05-21T10:32:58Z</time>
      </trkpt>
      <trkpt lat="42.706637028604746" lon="-7.048687040805817">
        <ele>1308</ele>
        <time>2018-05-21T10:32:59Z</time>
      </trkpt>
      <trkpt lat="42.706653038039804" lon="-7.048658039420843">
        <ele>1308</ele>
        <time>2018-05-21T10:33:00Z</time>
      </trkpt>
      <trkpt lat="42.70666996948421" lon="-7.048625014722347">
        <ele>1308</ele>
        <time>2018-05-21T10:33:01Z</time>
      </trkpt>
      <trkpt lat="42.706682961434126" lon="-7.048591990023851">
        <ele>1308</ele>
        <time>2018-05-21T10:33:02Z</time>
      </trkpt>
      <trkpt lat="42.706702994182706" lon="-7.048575980588794">
        <ele>1308</ele>
        <time>2018-05-21T10:33:02Z</time>
      </trkpt>
      <trkpt lat="42.706720009446144" lon="-7.04854697920382">
        <ele>1308</ele>
        <time>2018-05-21T10:33:03Z</time>
      </trkpt>
      <trkpt lat="42.706729983910918" lon="-7.048514038324356">
        <ele>1308</ele>
        <time>2018-05-21T10:33:04Z</time>
      </trkpt>
      <trkpt lat="42.706750016659498" lon="-7.048485958948731">
        <ele>1308</ele>
        <time>2018-05-21T10:33:05Z</time>
      </trkpt>
      <trkpt lat="42.706769965589046" lon="-7.048448994755745">
        <ele>1308</ele>
        <time>2018-05-21T10:33:06Z</time>
      </trkpt>
      <trkpt lat="42.706789998337626" lon="-7.048419993370771">
        <ele>1308</ele>
        <time>2018-05-21T10:33:07Z</time>
      </trkpt>
      <trkpt lat="42.706810031086206" lon="-7.048399960622191">
        <ele>1308</ele>
        <time>2018-05-21T10:33:07Z</time>
      </trkpt>
      <trkpt lat="42.706829980015755" lon="-7.048367019742727">
        <ele>1308</ele>
        <time>2018-05-21T10:33:08Z</time>
      </trkpt>
      <trkpt lat="42.706853030249476" lon="-7.048333995044231">
        <ele>1308</ele>
        <time>2018-05-21T10:33:09Z</time>
      </trkpt>
      <trkpt lat="42.706867028027773" lon="-7.048297030851245">
        <ele>1308</ele>
        <time>2018-05-21T10:33:10Z</time>
      </trkpt>
      <trkpt lat="42.706883959472179" lon="-7.048263000324369">
        <ele>1308</ele>
        <time>2018-05-21T10:33:11Z</time>
      </trkpt>
      <trkpt lat="42.706903992220759" lon="-7.048229975625873">
        <ele>1308</ele>
        <time>2018-05-21T10:33:12Z</time>
      </trkpt>
      <trkpt lat="42.706915978342295" lon="-7.048197034746409">
        <ele>1308</ele>
        <time>2018-05-21T10:33:13Z</time>
      </trkpt>
      <trkpt lat="42.706931987777352" lon="-7.048164010047913">
        <ele>1308</ele>
        <time>2018-05-21T10:33:14Z</time>
      </trkpt>
      <trkpt lat="42.706952020525932" lon="-7.048140037804842">
        <ele>1308</ele>
        <time>2018-05-21T10:33:15Z</time>
      </trkpt>
      <trkpt lat="42.706966018304229" lon="-7.048102989792824">
        <ele>1308</ele>
        <time>2018-05-21T10:33:15Z</time>
      </trkpt>
      <trkpt lat="42.706982027739286" lon="-7.04807398840785">
        <ele>1308</ele>
        <time>2018-05-21T10:33:16Z</time>
      </trkpt>
      <trkpt lat="42.707001976668835" lon="-7.048055967316032">
        <ele>1308</ele>
        <time>2018-05-21T10:33:17Z</time>
      </trkpt>
      <trkpt lat="42.707018991932273" lon="-7.048037024214864">
        <ele>1308</ele>
        <time>2018-05-21T10:33:18Z</time>
      </trkpt>
      <trkpt lat="42.707039024680853" lon="-7.048011040315032">
        <ele>1308</ele>
        <time>2018-05-21T10:33:18Z</time>
      </trkpt>
      <trkpt lat="42.707058973610401" lon="-7.047973992303014">
        <ele>1308</ele>
        <time>2018-05-21T10:33:19Z</time>
      </trkpt>
      <trkpt lat="42.707071965560317" lon="-7.04794398508966">
        <ele>1308</ele>
        <time>2018-05-21T10:33:20Z</time>
      </trkpt>
      <trkpt lat="42.707086969166994" lon="-7.047919007018209">
        <ele>1308</ele>
        <time>2018-05-21T10:33:21Z</time>
      </trkpt>
      <trkpt lat="42.707100966945291" lon="-7.047888999804854">
        <ele>1313</ele>
        <time>2018-05-21T10:33:22Z</time>
      </trkpt>
      <trkpt lat="42.707112031057477" lon="-7.047859998419881">
        <ele>1313</ele>
        <time>2018-05-21T10:33:22Z</time>
      </trkpt>
      <trkpt lat="42.707126028835773" lon="-7.047825967893004">
        <ele>1289</ele>
        <time>2018-05-21T10:33:23Z</time>
      </trkpt>
      <trkpt lat="42.707148995250463" lon="-7.047806018963456">
        <ele>1289</ele>
        <time>2018-05-21T10:33:24Z</time>
      </trkpt>
      <trkpt lat="42.707171961665154" lon="-7.047784980386496">
        <ele>1289</ele>
        <time>2018-05-21T10:33:25Z</time>
      </trkpt>
      <trkpt lat="42.707191994413733" lon="-7.047766959294677">
        <ele>1289</ele>
        <time>2018-05-21T10:33:26Z</time>
      </trkpt>
      <trkpt lat="42.707212027162313" lon="-7.047747010365129">
        <ele>1289</ele>
        <time>2018-05-21T10:33:26Z</time>
      </trkpt>
      <trkpt lat="42.707231976091862" lon="-7.047717003151774">
        <ele>1289</ele>
        <time>2018-05-21T10:33:27Z</time>
      </trkpt>
      <trkpt lat="42.707283021882176" lon="-7.047632010653615">
        <ele>1289</ele>
        <time>2018-05-21T10:33:30Z</time>
      </trkpt>
      <trkpt lat="42.707342030480504" lon="-7.047532014548779">
        <ele>1289</ele>
        <time>2018-05-21T10:33:32Z</time>
      </trkpt>
      <trkpt lat="42.707405984401703" lon="-7.047425983473659">
        <ele>1289</ele>
        <time>2018-05-21T10:33:35Z</time>
      </trkpt>
      <trkpt lat="42.707458036020398" lon="-7.0473219640553">
        <ele>1289</ele>
        <time>2018-05-21T10:33:38Z</time>
      </trkpt>
      <trkpt lat="42.707477984949946" lon="-7.047302015125752">
        <ele>1289</ele>
        <time>2018-05-21T10:33:39Z</time>
      </trkpt>
      <trkpt lat="42.707499023526907" lon="-7.04727997072041">
        <ele>1289</ele>
        <time>2018-05-21T10:33:40Z</time>
      </trkpt>
      <trkpt lat="42.707521989941597" lon="-7.047254992648959">
        <ele>1289</ele>
        <time>2018-05-21T10:33:41Z</time>
      </trkpt>
      <trkpt lat="42.707542022690177" lon="-7.047230014577508">
        <ele>1289</ele>
        <time>2018-05-21T10:33:41Z</time>
      </trkpt>
      <trkpt lat="42.707555014640093" lon="-7.047205958515406">
        <ele>1289</ele>
        <time>2018-05-21T10:33:42Z</time>
      </trkpt>
      <trkpt lat="42.707572029903531" lon="-7.047173017635942">
        <ele>1289</ele>
        <time>2018-05-21T10:33:43Z</time>
      </trkpt>
      <trkpt lat="42.707582004368305" lon="-7.047135969623923">
        <ele>1289</ele>
        <time>2018-05-21T10:33:44Z</time>
      </trkpt>
      <trkpt lat="42.707591978833079" lon="-7.047103028744459">
        <ele>1289</ele>
        <time>2018-05-21T10:33:45Z</time>
      </trkpt>
      <trkpt lat="42.707608994096518" lon="-7.047075033187866">
        <ele>1289</ele>
        <time>2018-05-21T10:33:45Z</time>
      </trkpt>
      <trkpt lat="42.707618968561292" lon="-7.047046031802893">
        <ele>1299</ele>
        <time>2018-05-21T10:33:46Z</time>
      </trkpt>
      <trkpt lat="42.707634977996349" lon="-7.047017030417919">
        <ele>1299</ele>
        <time>2018-05-21T10:33:47Z</time>
      </trkpt>
      <trkpt lat="42.707645036280155" lon="-7.046979982405901">
        <ele>1299</ele>
        <time>2018-05-21T10:33:48Z</time>
      </trkpt>
      <trkpt lat="42.707662973552942" lon="-7.046937989071012">
        <ele>1299</ele>
        <time>2018-05-21T10:33:49Z</time>
      </trkpt>
      <trkpt lat="42.707683006301522" lon="-7.046908987686038">
        <ele>1299</ele>
        <time>2018-05-21T10:33:50Z</time>
      </trkpt>
      <trkpt lat="42.707695998251438" lon="-7.046879986301065">
        <ele>1299</ele>
        <time>2018-05-21T10:33:50Z</time>
      </trkpt>
      <trkpt lat="42.707709996029735" lon="-7.046843022108078">
        <ele>1299</ele>
        <time>2018-05-21T10:33:51Z</time>
      </trkpt>
      <trkpt lat="42.70772298797965" lon="-7.046817038208246">
        <ele>1299</ele>
        <time>2018-05-21T10:33:52Z</time>
      </trkpt>
      <trkpt lat="42.707735979929566" lon="-7.046787030994892">
        <ele>1299</ele>
        <time>2018-05-21T10:33:53Z</time>
      </trkpt>
      <trkpt lat="42.707746038213372" lon="-7.046754006296396">
        <ele>1299</ele>
        <time>2018-05-21T10:33:53Z</time>
      </trkpt>
      <trkpt lat="42.707767998799682" lon="-7.046708995476365">
        <ele>1299</ele>
        <time>2018-05-21T10:33:55Z</time>
      </trkpt>
      <trkpt lat="42.707780990749598" lon="-7.046672031283379">
        <ele>1299</ele>
        <time>2018-05-21T10:33:56Z</time>
      </trkpt>
      <trkpt lat="42.707790965214372" lon="-7.046630959957838">
        <ele>1299</ele>
        <time>2018-05-21T10:33:56Z</time>
      </trkpt>
      <trkpt lat="42.707798006013036" lon="-7.046588966622949">
        <ele>1299</ele>
        <time>2018-05-21T10:33:57Z</time>
      </trkpt>
      <trkpt lat="42.70780798047781" lon="-7.046544039621949">
        <ele>1299</ele>
        <time>2018-05-21T10:33:58Z</time>
      </trkpt>
      <trkpt lat="42.707814015448093" lon="-7.046515038236976">
        <ele>1299</ele>
        <time>2018-05-21T10:33:59Z</time>
      </trkpt>
      <trkpt lat="42.707823989912868" lon="-7.04648201353848">
        <ele>1299</ele>
        <time>2018-05-21T10:34:00Z</time>
      </trkpt>
      <trkpt lat="42.70782801322639" lon="-7.046444965526462">
        <ele>1299</ele>
        <time>2018-05-21T10:34:01Z</time>
      </trkpt>
      <trkpt lat="42.707833964377642" lon="-7.046406995505095">
        <ele>1299</ele>
        <time>2018-05-21T10:34:02Z</time>
      </trkpt>
      <trkpt lat="42.707841005176306" lon="-7.046369025483728">
        <ele>1299</ele>
        <time>2018-05-21T10:34:02Z</time>
      </trkpt>
      <trkpt lat="42.707845028489828" lon="-7.046314040198922">
        <ele>1299</ele>
        <time>2018-05-21T10:34:04Z</time>
      </trkpt>
      <trkpt lat="42.707845028489828" lon="-7.046272968873382">
        <ele>1299</ele>
        <time>2018-05-21T10:34:04Z</time>
      </trkpt>
      <trkpt lat="42.707845028489828" lon="-7.046214966103435">
        <ele>1300</ele>
        <time>2018-05-21T10:34:06Z</time>
      </trkpt>
      <trkpt lat="42.707815021276474" lon="-7.046132991090417">
        <ele>1300</ele>
        <time>2018-05-21T10:34:08Z</time>
      </trkpt>
      <trkpt lat="42.707855002954602" lon="-7.046083034947515">
        <ele>1300</ele>
        <time>2018-05-21T10:34:09Z</time>
      </trkpt>
      <trkpt lat="42.70785198546946" lon="-7.046020003035665">
        <ele>1300</ele>
        <time>2018-05-21T10:34:11Z</time>
      </trkpt>
      <trkpt lat="42.707848967984319" lon="-7.045940961688757">
        <ele>1300</ele>
        <time>2018-05-21T10:34:12Z</time>
      </trkpt>
      <trkpt lat="42.707848967984319" lon="-7.045853035524488">
        <ele>1300</ele>
        <time>2018-05-21T10:34:14Z</time>
      </trkpt>
      <trkpt lat="42.70782901905477" lon="-7.045785980299115">
        <ele>1300</ele>
        <time>2018-05-21T10:34:16Z</time>
      </trkpt>
      <trkpt lat="42.707815021276474" lon="-7.045702999457717">
        <ele>1300</ele>
        <time>2018-05-21T10:34:18Z</time>
      </trkpt>
      <trkpt lat="42.707804962992668" lon="-7.045598980039358">
        <ele>1300</ele>
        <time>2018-05-21T10:34:20Z</time>
      </trkpt>
      <trkpt lat="42.70778501406312" lon="-7.04551599919796">
        <ele>1300</ele>
        <time>2018-05-21T10:34:22Z</time>
      </trkpt>
      <trkpt lat="42.70776498131454" lon="-7.045392030850053">
        <ele>1300</ele>
        <time>2018-05-21T10:34:25Z</time>
      </trkpt>
      <trkpt lat="42.707746960222721" lon="-7.045330004766583">
        <ele>1300</ele>
        <time>2018-05-21T10:34:26Z</time>
      </trkpt>
      <trkpt lat="42.707736985757947" lon="-7.045244006440043">
        <ele>1292</ele>
        <time>2018-05-21T10:34:28Z</time>
      </trkpt>
      <trkpt lat="42.707717036828399" lon="-7.045164965093136">
        <ele>1292</ele>
        <time>2018-05-21T10:34:30Z</time>
      </trkpt>
      <trkpt lat="42.707703961059451" lon="-7.045077038928866">
        <ele>1292</ele>
        <time>2018-05-21T10:34:32Z</time>
      </trkpt>
      <trkpt lat="42.707679988816381" lon="-7.045004032552242">
        <ele>1292</ele>
        <time>2018-05-21T10:34:34Z</time>
      </trkpt>
      <trkpt lat="42.707673031836748" lon="-7.044918034225702">
        <ele>1292</ele>
        <time>2018-05-21T10:34:36Z</time>
      </trkpt>
      <trkpt lat="42.707669008523226" lon="-7.044918034225702">
        <ele>1292</ele>
        <time>2018-05-21T10:34:36Z</time>
      </trkpt>
      <trkpt lat="42.707664985209703" lon="-7.044789958745241">
        <ele>1292</ele>
        <time>2018-05-21T10:34:39Z</time>
      </trkpt>
      <trkpt lat="42.707664985209703" lon="-7.044714018702507">
        <ele>1292</ele>
        <time>2018-05-21T10:34:40Z</time>
      </trkpt>
      <trkpt lat="42.707664985209703" lon="-7.04465601593256">
        <ele>1292</ele>
        <time>2018-05-21T10:34:41Z</time>
      </trkpt>
      <trkpt lat="42.707672026008368" lon="-7.044599018990994">
        <ele>1292</ele>
        <time>2018-05-21T10:34:43Z</time>
      </trkpt>
      <trkpt lat="42.707674959674478" lon="-7.044568005949259">
        <ele>1292</ele>
        <time>2018-05-21T10:34:43Z</time>
      </trkpt>
      <trkpt lat="42.707682000473142" lon="-7.044475972652435">
        <ele>1292</ele>
        <time>2018-05-21T10:34:45Z</time>
      </trkpt>
      <trkpt lat="42.707688035443425" lon="-7.044387962669134">
        <ele>1291</ele>
        <time>2018-05-21T10:34:47Z</time>
      </trkpt>
      <trkpt lat="42.707702033221722" lon="-7.044329959899187">
        <ele>1291</ele>
        <time>2018-05-21T10:34:49Z</time>
      </trkpt>
      <trkpt lat="42.707715025171638" lon="-7.044263994321227">
        <ele>1291</ele>
        <time>2018-05-21T10:34:50Z</time>
      </trkpt>
      <trkpt lat="42.707717958837748" lon="-7.044190987944603">
        <ele>1291</ele>
        <time>2018-05-21T10:34:52Z</time>
      </trkpt>
      <trkpt lat="42.707732962444425" lon="-7.044153017923236">
        <ele>1291</ele>
        <time>2018-05-21T10:34:53Z</time>
      </trkpt>
      <trkpt lat="42.707746960222721" lon="-7.044110018759966">
        <ele>1291</ele>
        <time>2018-05-21T10:34:54Z</time>
      </trkpt>
      <trkpt lat="42.707769004628062" lon="-7.044025026261807">
        <ele>1291</ele>
        <time>2018-05-21T10:34:56Z</time>
      </trkpt>
      <trkpt lat="42.707789959385991" lon="-7.043974986299872">
        <ele>1291</ele>
        <time>2018-05-21T10:34:57Z</time>
      </trkpt>
      <trkpt lat="42.707804962992668" lon="-7.043908014893532">
        <ele>1291</ele>
        <time>2018-05-21T10:34:58Z</time>
      </trkpt>
      <trkpt lat="42.707815021276474" lon="-7.043836014345288">
        <ele>1291</ele>
        <time>2018-05-21T10:35:00Z</time>
      </trkpt>
      <trkpt lat="42.707818960770965" lon="-7.043771976605058">
        <ele>1291</ele>
        <time>2018-05-21T10:35:01Z</time>
      </trkpt>
      <trkpt lat="42.707812003791332" lon="-7.04371196217835">
        <ele>1291</ele>
        <time>2018-05-21T10:35:03Z</time>
      </trkpt>
      <trkpt lat="42.707791971042752" lon="-7.043639039620757">
        <ele>1292</ele>
        <time>2018-05-21T10:35:04Z</time>
      </trkpt>
      <trkpt lat="42.707754001021385" lon="-7.043587993830442">
        <ele>1292</ele>
        <time>2018-05-21T10:35:06Z</time>
      </trkpt>
      <trkpt lat="42.707692980766296" lon="-7.043542983010411">
        <ele>1292</ele>
        <time>2018-05-21T10:35:08Z</time>
      </trkpt>
      <trkpt lat="42.707645036280155" lon="-7.043509958311915">
        <ele>1292</ele>
        <time>2018-05-21T10:35:10Z</time>
      </trkpt>
      <trkpt lat="42.707579992711544" lon="-7.043438963592053">
        <ele>1292</ele>
        <time>2018-05-21T10:35:12Z</time>
      </trkpt>
      <trkpt lat="42.707529030740261" lon="-7.043351959437132">
        <ele>1292</ele>
        <time>2018-05-21T10:35:15Z</time>
      </trkpt>
      <trkpt lat="42.707493994385004" lon="-7.043268978595734">
        <ele>1292</ele>
        <time>2018-05-21T10:35:17Z</time>
      </trkpt>
      <trkpt lat="42.707486031576991" lon="-7.043193038553">
        <ele>1292</ele>
        <time>2018-05-21T10:35:19Z</time>
      </trkpt>
      <trkpt lat="42.707460969686508" lon="-7.043116008862853">
        <ele>1292</ele>
        <time>2018-05-21T10:35:21Z</time>
      </trkpt>
      <trkpt lat="42.707460969686508" lon="-7.043097987771034">
        <ele>1292</ele>
        <time>2018-05-21T10:35:21Z</time>
      </trkpt>
      <trkpt lat="42.707467004656792" lon="-7.043061023578048">
        <ele>1292</ele>
        <time>2018-05-21T10:35:22Z</time>
      </trkpt>
      <trkpt lat="42.707476979121566" lon="-7.043029004707933">
        <ele>1287</ele>
        <time>2018-05-21T10:35:23Z</time>
      </trkpt>
      <trkpt lat="42.707479996606708" lon="-7.042982988059521">
        <ele>1292</ele>
        <time>2018-05-21T10:35:24Z</time>
      </trkpt>
      <trkpt lat="42.70748401992023" lon="-7.04293797723949">
        <ele>1292</ele>
        <time>2018-05-21T10:35:25Z</time>
      </trkpt>
      <trkpt lat="42.707489971071482" lon="-7.042905036360025">
        <ele>1292</ele>
        <time>2018-05-21T10:35:25Z</time>
      </trkpt>
      <trkpt lat="42.707497011870146" lon="-7.042860025539994">
        <ele>1292</ele>
        <time>2018-05-21T10:35:26Z</time>
      </trkpt>
      <trkpt lat="42.707514027133584" lon="-7.042835969477892">
        <ele>1292</ele>
        <time>2018-05-21T10:35:27Z</time>
      </trkpt>
      <trkpt lat="42.707530036568642" lon="-7.04276698641479">
        <ele>1287</ele>
        <time>2018-05-21T10:35:29Z</time>
      </trkpt>
      <trkpt lat="42.707563983276486" lon="-7.04267998225987">
        <ele>1287</ele>
        <time>2018-05-21T10:35:31Z</time>
      </trkpt>
      <trkpt lat="42.707617040723562" lon="-7.042575962841511">
        <ele>1287</ele>
        <time>2018-05-21T10:35:34Z</time>
      </trkpt>
      <trkpt lat="42.70765601657331" lon="-7.042509997263551">
        <ele>1287</ele>
        <time>2018-05-21T10:35:35Z</time>
      </trkpt>
      <trkpt lat="42.707662973552942" lon="-7.042385023087263">
        <ele>1287</ele>
        <time>2018-05-21T10:35:38Z</time>
      </trkpt>
      <trkpt lat="42.707662973552942" lon="-7.042321991175413">
        <ele>1287</ele>
        <time>2018-05-21T10:35:40Z</time>
      </trkpt>
      <trkpt lat="42.707669008523226" lon="-7.042229035869241">
        <ele>1287</ele>
        <time>2018-05-21T10:35:42Z</time>
      </trkpt>
      <trkpt lat="42.707669008523226" lon="-7.04218503087759">
        <ele>1287</ele>
        <time>2018-05-21T10:35:43Z</time>
      </trkpt>
      <trkpt lat="42.707695998251438" lon="-7.042137002572417">
        <ele>1287</ele>
        <time>2018-05-21T10:35:44Z</time>
      </trkpt>
      <trkpt lat="42.707706978544593" lon="-7.042069025337696">
        <ele>1287</ele>
        <time>2018-05-21T10:35:45Z</time>
      </trkpt>
      <trkpt lat="42.707706978544593" lon="-7.041998030617833">
        <ele>1286</ele>
        <time>2018-05-21T10:35:47Z</time>
      </trkpt>
      <trkpt lat="42.707706978544593" lon="-7.041898034512997">
        <ele>1286</ele>
        <time>2018-05-21T10:35:49Z</time>
      </trkpt>
      <trkpt lat="42.707706978544593" lon="-7.041858974844217">
        <ele>1286</ele>
        <time>2018-05-21T10:35:50Z</time>
      </trkpt>
      <trkpt lat="42.707706978544593" lon="-7.041786974295974">
        <ele>1286</ele>
        <time>2018-05-21T10:35:52Z</time>
      </trkpt>
      <trkpt lat="42.707706978544593" lon="-7.041783034801483">
        <ele>1286</ele>
        <time>2018-05-21T10:35:52Z</time>
      </trkpt>
      <trkpt lat="42.707706978544593" lon="-7.041741041466594">
        <ele>1286</ele>
        <time>2018-05-21T10:35:53Z</time>
      </trkpt>
      <trkpt lat="42.707706978544593" lon="-7.041702987626195">
        <ele>1286</ele>
        <time>2018-05-21T10:35:53Z</time>
      </trkpt>
      <trkpt lat="42.707706978544593" lon="-7.041662000119686">
        <ele>1286</ele>
        <time>2018-05-21T10:35:54Z</time>
      </trkpt>
      <trkpt lat="42.70770002156496" lon="-7.0416250359267">
        <ele>1286</ele>
        <time>2018-05-21T10:35:55Z</time>
      </trkpt>
      <trkpt lat="42.70770002156496" lon="-7.041581030935049">
        <ele>1286</ele>
        <time>2018-05-21T10:35:56Z</time>
      </trkpt>
      <trkpt lat="42.707695998251438" lon="-7.041492015123367">
        <ele>1286</ele>
        <time>2018-05-21T10:35:58Z</time>
      </trkpt>
      <trkpt lat="42.707670014351606" lon="-7.041286993771792">
        <ele>1286</ele>
        <time>2018-05-21T10:36:03Z</time>
      </trkpt>
      <trkpt lat="42.70765601657331" lon="-7.041027992963791">
        <ele>1287</ele>
        <time>2018-05-21T10:36:08Z</time>
      </trkpt>
      <trkpt lat="42.707642018795013" lon="-7.040809979662299">
        <ele>1287</ele>
        <time>2018-05-21T10:36:13Z</time>
      </trkpt>
      <trkpt lat="42.70761402323842" lon="-7.040566988289356">
        <ele>1287</ele>
        <time>2018-05-21T10:36:18Z</time>
      </trkpt>
      <trkpt lat="42.707596002146602" lon="-7.04040396027267">
        <ele>1287</ele>
        <time>2018-05-21T10:36:22Z</time>
      </trkpt>
      <trkpt lat="42.707558032125235" lon="-7.040194999426603">
        <ele>1294</ele>
        <time>2018-05-21T10:36:27Z</time>
      </trkpt>
      <trkpt lat="42.707501035183668" lon="-7.039981009438634">
        <ele>1294</ele>
        <time>2018-05-21T10:36:31Z</time>
      </trkpt>
      <trkpt lat="42.707467004656792" lon="-7.039815969765186">
        <ele>1294</ele>
        <time>2018-05-21T10:36:35Z</time>
      </trkpt>
      <trkpt lat="42.707415036857128" lon="-7.039641039445996">
        <ele>1294</ele>
        <time>2018-05-21T10:36:39Z</time>
      </trkpt>
      <trkpt lat="42.707409001886845" lon="-7.039641039445996">
        <ele>1294</ele>
        <time>2018-05-21T10:36:39Z</time>
      </trkpt>
      <trkpt lat="42.707360973581672" lon="-7.039497960358858">
        <ele>1296</ele>
        <time>2018-05-21T10:36:43Z</time>
      </trkpt>
      <trkpt lat="42.707284027710557" lon="-7.039299979805946">
        <ele>1296</ele>
        <time>2018-05-21T10:36:48Z</time>
      </trkpt>
      <trkpt lat="42.707280004397035" lon="-7.039266033098102">
        <ele>1296</ele>
        <time>2018-05-21T10:36:48Z</time>
      </trkpt>
      <trkpt lat="42.707266006618738" lon="-7.039218004792929">
        <ele>1296</ele>
        <time>2018-05-21T10:36:50Z</time>
      </trkpt>
      <trkpt lat="42.707256032153964" lon="-7.039142986759543">
        <ele>1296</ele>
        <time>2018-05-21T10:36:51Z</time>
      </trkpt>
      <trkpt lat="42.707242034375668" lon="-7.03909101895988">
        <ele>1296</ele>
        <time>2018-05-21T10:36:52Z</time>
      </trkpt>
      <trkpt lat="42.707238011062145" lon="-7.039022035896778">
        <ele>1296</ele>
        <time>2018-05-21T10:36:54Z</time>
      </trkpt>
      <trkpt lat="42.707224013283849" lon="-7.038927990943193">
        <ele>1296</ele>
        <time>2018-05-21T10:36:56Z</time>
      </trkpt>
      <trkpt lat="42.707224013283849" lon="-7.038667984306812">
        <ele>1297</ele>
        <time>2018-05-21T10:37:02Z</time>
      </trkpt>
      <trkpt lat="42.707224013283849" lon="-7.038366990163922">
        <ele>1297</ele>
        <time>2018-05-21T10:37:08Z</time>
      </trkpt>
      <trkpt lat="42.707231976091862" lon="-7.038008999079466">
        <ele>1297</ele>
        <time>2018-05-21T10:37:16Z</time>
      </trkpt>
      <trkpt lat="42.707231976091862" lon="-7.037788974121213">
        <ele>1293</ele>
        <time>2018-05-21T10:37:21Z</time>
      </trkpt>
      <trkpt lat="42.707220995798707" lon="-7.037507006898522">
        <ele>1293</ele>
        <time>2018-05-21T10:37:27Z</time>
      </trkpt>
      <trkpt lat="42.707220995798707" lon="-7.037301985546947">
        <ele>1293</ele>
        <time>2018-05-21T10:37:32Z</time>
      </trkpt>
      <trkpt lat="42.707220995798707" lon="-7.037272984161973">
        <ele>1293</ele>
        <time>2018-05-21T10:37:32Z</time>
      </trkpt>
      <trkpt lat="42.707220995798707" lon="-7.037215987220407">
        <ele>1293</ele>
        <time>2018-05-21T10:37:33Z</time>
      </trkpt>
      <trkpt lat="42.707220995798707" lon="-7.037164019420743">
        <ele>1293</ele>
        <time>2018-05-21T10:37:35Z</time>
      </trkpt>
      <trkpt lat="42.707220995798707" lon="-7.037100987508893">
        <ele>1293</ele>
        <time>2018-05-21T10:37:36Z</time>
      </trkpt>
      <trkpt lat="42.707220995798707" lon="-7.037038039416075">
        <ele>1280</ele>
        <time>2018-05-21T10:37:37Z</time>
      </trkpt>
      <trkpt lat="42.707225019112229" lon="-7.036968972533941">
        <ele>1280</ele>
        <time>2018-05-21T10:37:39Z</time>
      </trkpt>
      <trkpt lat="42.707243962213397" lon="-7.036917004734278">
        <ele>1280</ele>
        <time>2018-05-21T10:37:40Z</time>
      </trkpt>
      <trkpt lat="42.707257959991693" lon="-7.036853972822428">
        <ele>1280</ele>
        <time>2018-05-21T10:37:42Z</time>
      </trkpt>
      <trkpt lat="42.707262989133596" lon="-7.03679102472961">
        <ele>1280</ele>
        <time>2018-05-21T10:37:43Z</time>
      </trkpt>
      <trkpt lat="42.707281010225415" lon="-7.036738973110914">
        <ele>1280</ele>
        <time>2018-05-21T10:37:44Z</time>
      </trkpt>
      <trkpt lat="42.707309005782008" lon="-7.036698991432786">
        <ele>1280</ele>
        <time>2018-05-21T10:37:45Z</time>
      </trkpt>
      <trkpt lat="42.707345969974995" lon="-7.036659009754658">
        <ele>1280</ele>
        <time>2018-05-21T10:37:47Z</time>
      </trkpt>
      <trkpt lat="42.707378994673491" lon="-7.03661902807653">
        <ele>1280</ele>
        <time>2018-05-21T10:37:48Z</time>
      </trkpt>
      <trkpt lat="42.707412019371986" lon="-7.036583991721273">
        <ele>1280</ele>
        <time>2018-05-21T10:37:49Z</time>
      </trkpt>
      <trkpt lat="42.707440014928579" lon="-7.036554990336299">
        <ele>1280</ele>
        <time>2018-05-21T10:37:50Z</time>
      </trkpt>
      <trkpt lat="42.707472033798695" lon="-7.036515008658171">
        <ele>1280</ele>
        <time>2018-05-21T10:37:52Z</time>
      </trkpt>
      <trkpt lat="42.707504974678159" lon="-7.036487013101578">
        <ele>1280</ele>
        <time>2018-05-21T10:37:53Z</time>
      </trkpt>
      <trkpt lat="42.707532970234752" lon="-7.036463962867856">
        <ele>1280</ele>
        <time>2018-05-21T10:37:54Z</time>
      </trkpt>
      <trkpt lat="42.707565994933248" lon="-7.036440996453166">
        <ele>1280</ele>
        <time>2018-05-21T10:37:55Z</time>
      </trkpt>
      <trkpt lat="42.707594996318221" lon="-7.036422975361347">
        <ele>1280</ele>
        <time>2018-05-21T10:37:56Z</time>
      </trkpt>
      <trkpt lat="42.707633972167969" lon="-7.036411995068193">
        <ele>1280</ele>
        <time>2018-05-21T10:37:57Z</time>
      </trkpt>
      <trkpt lat="42.707672026008368" lon="-7.036394979804754">
        <ele>1280</ele>
        <time>2018-05-21T10:37:59Z</time>
      </trkpt>
      <trkpt lat="42.707705972716212" lon="-7.036370001733303">
        <ele>1280</ele>
        <time>2018-05-21T10:38:00Z</time>
      </trkpt>
      <trkpt lat="42.707729022949934" lon="-7.036334965378046">
        <ele>1280</ele>
        <time>2018-05-21T10:38:01Z</time>
      </trkpt>
      <trkpt lat="42.707761963829398" lon="-7.036294983699918">
        <ele>1280</ele>
        <time>2018-05-21T10:38:02Z</time>
      </trkpt>
      <trkpt lat="42.707789959385991" lon="-7.036261036992073">
        <ele>1280</ele>
        <time>2018-05-21T10:38:03Z</time>
      </trkpt>
      <trkpt lat="42.707818038761616" lon="-7.036215020343661">
        <ele>1255</ele>
        <time>2018-05-21T10:38:05Z</time>
      </trkpt>
      <trkpt lat="42.707846034318209" lon="-7.036186018958688">
        <ele>1255</ele>
        <time>2018-05-21T10:38:06Z</time>
      </trkpt>
      <trkpt lat="42.707869000732899" lon="-7.036140002310276">
        <ele>1255</ele>
        <time>2018-05-21T10:38:07Z</time>
      </trkpt>
      <trkpt lat="42.707891967147589" lon="-7.036100020632148">
        <ele>1255</ele>
        <time>2018-05-21T10:38:08Z</time>
      </trkpt>
      <trkpt lat="42.707916023209691" lon="-7.036054003983736">
        <ele>1255</ele>
        <time>2018-05-21T10:38:09Z</time>
      </trkpt>
      <trkpt lat="42.707938989624381" lon="-7.036014022305608">
        <ele>1255</ele>
        <time>2018-05-21T10:38:10Z</time>
      </trkpt>
      <trkpt lat="42.707952987402678" lon="-7.035968005657196">
        <ele>1293</ele>
        <time>2018-05-21T10:38:11Z</time>
      </trkpt>
      <trkpt lat="42.707962039858103" lon="-7.035910002887249">
        <ele>1293</ele>
        <time>2018-05-21T10:38:13Z</time>
      </trkpt>
      <trkpt lat="42.707972014322877" lon="-7.035859040915966">
        <ele>1293</ele>
        <time>2018-05-21T10:38:14Z</time>
      </trkpt>
      <trkpt lat="42.707976037636399" lon="-7.035806989297271">
        <ele>1293</ele>
        <time>2018-05-21T10:38:15Z</time>
      </trkpt>
      <trkpt lat="42.707986012101173" lon="-7.035748986527324">
        <ele>1293</ele>
        <time>2018-05-21T10:38:16Z</time>
      </trkpt>
      <trkpt lat="42.707990035414696" lon="-7.035691989585757">
        <ele>1293</ele>
        <time>2018-05-21T10:38:18Z</time>
      </trkpt>
      <trkpt lat="42.707990035414696" lon="-7.035634992644191">
        <ele>1293</ele>
        <time>2018-05-21T10:38:19Z</time>
      </trkpt>
      <trkpt lat="42.707990035414696" lon="-7.035576989874244">
        <ele>1293</ele>
        <time>2018-05-21T10:38:20Z</time>
      </trkpt>
      <trkpt lat="42.707990035414696" lon="-7.035501971840859">
        <ele>1293</ele>
        <time>2018-05-21T10:38:22Z</time>
      </trkpt>
      <trkpt lat="42.707990035414696" lon="-7.035444974899292">
        <ele>1293</ele>
        <time>2018-05-21T10:38:23Z</time>
      </trkpt>
      <trkpt lat="42.707986012101173" lon="-7.035387977957726">
        <ele>1293</ele>
        <time>2018-05-21T10:38:25Z</time>
      </trkpt>
      <trkpt lat="42.707972014322877" lon="-7.035336010158062">
        <ele>1293</ele>
        <time>2018-05-21T10:38:26Z</time>
      </trkpt>
      <trkpt lat="42.707962039858103" lon="-7.035272978246212">
        <ele>1284</ele>
        <time>2018-05-21T10:38:27Z</time>
      </trkpt>
      <trkpt lat="42.70795801654458" lon="-7.035214975476265">
        <ele>1284</ele>
        <time>2018-05-21T10:38:29Z</time>
      </trkpt>
      <trkpt lat="42.707947958260775" lon="-7.035164013504982">
        <ele>1284</ele>
        <time>2018-05-21T10:38:30Z</time>
      </trkpt>
      <trkpt lat="42.707933960482478" lon="-7.03511799685657">
        <ele>1243</ele>
        <time>2018-05-21T10:38:31Z</time>
      </trkpt>
      <trkpt lat="42.707919962704182" lon="-7.035064017400146">
        <ele>1243</ele>
        <time>2018-05-21T10:38:32Z</time>
      </trkpt>
      <trkpt lat="42.707910994067788" lon="-7.03501196578145">
        <ele>1243</ele>
        <time>2018-05-21T10:38:33Z</time>
      </trkpt>
      <trkpt lat="42.707905964925885" lon="-7.034953041002154">
        <ele>1243</ele>
        <time>2018-05-21T10:38:35Z</time>
      </trkpt>
      <trkpt lat="42.707848967984319" lon="-7.034728992730379">
        <ele>1243</ele>
        <time>2018-05-21T10:38:40Z</time>
      </trkpt>
      <trkpt lat="42.7077860198915" lon="-7.034531012177467">
        <ele>1243</ele>
        <time>2018-05-21T10:38:45Z</time>
      </trkpt>
      <trkpt lat="42.707691974937916" lon="-7.034209985285997">
        <ele>1249</ele>
        <time>2018-05-21T10:38:53Z</time>
      </trkpt>
      <trkpt lat="42.707641012966633" lon="-7.033998006954789">
        <ele>1249</ele>
        <time>2018-05-21T10:38:57Z</time>
      </trkpt>
      <trkpt lat="42.707577981054783" lon="-7.033771025016904">
        <ele>1249</ele>
        <time>2018-05-21T10:39:03Z</time>
      </trkpt>
      <trkpt lat="42.707498017698526" lon="-7.033586036413908">
        <ele>1260</ele>
        <time>2018-05-21T10:39:07Z</time>
      </trkpt>
      <trkpt lat="42.707433979958296" lon="-7.033382020890713">
        <ele>1260</ele>
        <time>2018-05-21T10:39:12Z</time>
      </trkpt>
      <trkpt lat="42.707357034087181" lon="-7.033252017572522">
        <ele>1260</ele>
        <time>2018-05-21T10:39:16Z</time>
      </trkpt>
      <trkpt lat="42.707270029932261" lon="-7.033137017861009">
        <ele>1260</ele>
        <time>2018-05-21T10:39:19Z</time>
      </trkpt>
      <trkpt lat="42.707199035212398" lon="-7.033027969300747">
        <ele>1260</ele>
        <time>2018-05-21T10:39:23Z</time>
      </trkpt>
      <trkpt lat="42.707112031057477" lon="-7.032880028709769">
        <ele>1225</ele>
        <time>2018-05-21T10:39:27Z</time>
      </trkpt>
      <trkpt lat="42.707000970840454" lon="-7.032792018726468">
        <ele>1249</ele>
        <time>2018-05-21T10:39:31Z</time>
      </trkpt>
      <trkpt lat="42.706869961693883" lon="-7.032693028450012">
        <ele>1249</ele>
        <time>2018-05-21T10:39:35Z</time>
      </trkpt>
      <trkpt lat="42.706740964204073" lon="-7.032618010416627">
        <ele>1249</ele>
        <time>2018-05-21T10:39:39Z</time>
      </trkpt>
      <trkpt lat="42.706663012504578" lon="-7.032565958797932">
        <ele>1249</ele>
        <time>2018-05-21T10:39:42Z</time>
      </trkpt>
      <trkpt lat="42.706555975601077" lon="-7.032422963529825">
        <ele>1249</ele>
        <time>2018-05-21T10:39:46Z</time>
      </trkpt>
      <trkpt lat="42.706450028344989" lon="-7.032319027930498">
        <ele>1249</ele>
        <time>2018-05-21T10:39:50Z</time>
      </trkpt>
      <trkpt lat="42.70634600892663" lon="-7.03215298242867">
        <ele>1249</ele>
        <time>2018-05-21T10:39:55Z</time>
      </trkpt>
      <trkpt lat="42.706312984228134" lon="-7.03213001601398">
        <ele>1249</ele>
        <time>2018-05-21T10:39:56Z</time>
      </trkpt>
      <trkpt lat="42.706237966194749" lon="-7.032010992988944">
        <ele>1227</ele>
        <time>2018-05-21T10:39:59Z</time>
      </trkpt>
      <trkpt lat="42.706156997010112" lon="-7.031895993277431">
        <ele>1242</ele>
        <time>2018-05-21T10:40:03Z</time>
      </trkpt>
      <trkpt lat="42.706152973696589" lon="-7.031889958307147">
        <ele>1242</ele>
        <time>2018-05-21T10:40:03Z</time>
      </trkpt>
      <trkpt lat="42.706124978139997" lon="-7.031832961365581">
        <ele>1242</ele>
        <time>2018-05-21T10:40:04Z</time>
      </trkpt>
      <trkpt lat="42.706101005896926" lon="-7.031780993565917">
        <ele>1242</ele>
        <time>2018-05-21T10:40:06Z</time>
      </trkpt>
      <trkpt lat="42.706082984805107" lon="-7.031734976917505">
        <ele>1242</ele>
        <time>2018-05-21T10:40:07Z</time>
      </trkpt>
      <trkpt lat="42.706054989248514" lon="-7.031677979975939">
        <ele>1242</ele>
        <time>2018-05-21T10:40:08Z</time>
      </trkpt>
      <trkpt lat="42.706031017005444" lon="-7.031626012176275">
        <ele>1242</ele>
        <time>2018-05-21T10:40:10Z</time>
      </trkpt>
      <trkpt lat="42.706016013398767" lon="-7.031594999134541">
        <ele>1242</ele>
        <time>2018-05-21T10:40:11Z</time>
      </trkpt>
      <trkpt lat="42.705992963165045" lon="-7.031567003577948">
        <ele>1242</ele>
        <time>2018-05-21T10:40:11Z</time>
      </trkpt>
      <trkpt lat="42.705974020063877" lon="-7.031520986929536">
        <ele>1242</ele>
        <time>2018-05-21T10:40:13Z</time>
      </trkpt>
      <trkpt lat="42.705950969830155" lon="-7.031452003866434">
        <ele>1242</ele>
        <time>2018-05-21T10:40:14Z</time>
      </trkpt>
      <trkpt lat="42.705926997587085" lon="-7.031400036066771">
        <ele>1242</ele>
        <time>2018-05-21T10:40:16Z</time>
      </trkpt>
      <trkpt lat="42.705912999808788" lon="-7.031343039125204">
        <ele>1242</ele>
        <time>2018-05-21T10:40:17Z</time>
      </trkpt>
      <trkpt lat="42.705892967060208" lon="-7.031295010820031">
        <ele>1242</ele>
        <time>2018-05-21T10:40:18Z</time>
      </trkpt>
      <trkpt lat="42.705864971503615" lon="-7.031237008050084">
        <ele>1242</ele>
        <time>2018-05-21T10:40:20Z</time>
      </trkpt>
      <trkpt lat="42.705845022574067" lon="-7.031185962259769">
        <ele>1242</ele>
        <time>2018-05-21T10:40:21Z</time>
      </trkpt>
      <trkpt lat="42.705831024795771" lon="-7.031140029430389">
        <ele>1239</ele>
        <time>2018-05-21T10:40:22Z</time>
      </trkpt>
      <trkpt lat="42.705820966511965" lon="-7.031087977811694">
        <ele>1239</ele>
        <time>2018-05-21T10:40:23Z</time>
      </trkpt>
      <trkpt lat="42.705806968733668" lon="-7.031025029718876">
        <ele>1239</ele>
        <time>2018-05-21T10:40:25Z</time>
      </trkpt>
      <trkpt lat="42.705792970955372" lon="-7.030960991978645">
        <ele>1239</ele>
        <time>2018-05-21T10:40:26Z</time>
      </trkpt>
      <trkpt lat="42.705792970955372" lon="-7.030891003087163">
        <ele>1239</ele>
        <time>2018-05-21T10:40:27Z</time>
      </trkpt>
      <trkpt lat="42.705792970955372" lon="-7.030833000317216">
        <ele>1239</ele>
        <time>2018-05-21T10:40:29Z</time>
      </trkpt>
      <trkpt lat="42.705792970955372" lon="-7.030781032517552">
        <ele>1239</ele>
        <time>2018-05-21T10:40:30Z</time>
      </trkpt>
      <trkpt lat="42.705792970955372" lon="-7.030727975070477">
        <ele>1239</ele>
        <time>2018-05-21T10:40:31Z</time>
      </trkpt>
      <trkpt lat="42.705803029239178" lon="-7.030667960643768">
        <ele>1239</ele>
        <time>2018-05-21T10:40:32Z</time>
      </trkpt>
      <trkpt lat="42.705803029239178" lon="-7.030616998672485">
        <ele>1239</ele>
        <time>2018-05-21T10:40:33Z</time>
      </trkpt>
      <trkpt lat="42.705825995653868" lon="-7.030576011165977">
        <ele>1239</ele>
        <time>2018-05-21T10:40:35Z</time>
      </trkpt>
      <trkpt lat="42.705839993432164" lon="-7.030536029487848">
        <ele>1239</ele>
        <time>2018-05-21T10:40:36Z</time>
      </trkpt>
      <trkpt lat="42.70587301813066" lon="-7.030490012839437">
        <ele>1239</ele>
        <time>2018-05-21T10:40:37Z</time>
      </trkpt>
      <trkpt lat="42.705892967060208" lon="-7.030453970655799">
        <ele>1239</ele>
        <time>2018-05-21T10:40:38Z</time>
      </trkpt>
      <trkpt lat="42.705920962616801" lon="-7.030419018119574">
        <ele>1239</ele>
        <time>2018-05-21T10:40:39Z</time>
      </trkpt>
      <trkpt lat="42.705948958173394" lon="-7.030379036441445">
        <ele>1239</ele>
        <time>2018-05-21T10:40:40Z</time>
      </trkpt>
      <trkpt lat="42.705979971215129" lon="-7.03034601174295">
        <ele>1221</ele>
        <time>2018-05-21T10:40:41Z</time>
      </trkpt>
      <trkpt lat="42.706017019227147" lon="-7.030318016186357">
        <ele>1221</ele>
        <time>2018-05-21T10:40:43Z</time>
      </trkpt>
      <trkpt lat="42.706049960106611" lon="-7.0302829798311">
        <ele>1221</ele>
        <time>2018-05-21T10:40:44Z</time>
      </trkpt>
      <trkpt lat="42.706078039482236" lon="-7.030236963182688">
        <ele>1221</ele>
        <time>2018-05-21T10:40:45Z</time>
      </trkpt>
      <trkpt lat="42.706101005896926" lon="-7.03019698150456">
        <ele>1221</ele>
        <time>2018-05-21T10:40:46Z</time>
      </trkpt>
      <trkpt lat="42.706129001453519" lon="-7.030167980119586">
        <ele>1221</ele>
        <time>2018-05-21T10:40:47Z</time>
      </trkpt>
      <trkpt lat="42.706152973696589" lon="-7.030134033411741">
        <ele>1221</ele>
        <time>2018-05-21T10:40:48Z</time>
      </trkpt>
      <trkpt lat="42.706180969253182" lon="-7.03011098317802">
        <ele>1221</ele>
        <time>2018-05-21T10:40:49Z</time>
      </trkpt>
      <trkpt lat="42.706214999780059" lon="-7.030093967914581">
        <ele>1221</ele>
        <time>2018-05-21T10:40:50Z</time>
      </trkpt>
      <trkpt lat="42.706248024478555" lon="-7.030064966529608">
        <ele>1221</ele>
        <time>2018-05-21T10:40:52Z</time>
      </trkpt>
      <trkpt lat="42.706279959529638" lon="-7.030031019821763">
        <ele>1221</ele>
        <time>2018-05-21T10:40:53Z</time>
      </trkpt>
      <trkpt lat="42.706318013370037" lon="-7.03000201843679">
        <ele>1247</ele>
        <time>2018-05-21T10:40:54Z</time>
      </trkpt>
      <trkpt lat="42.706350032240152" lon="-7.029978968203068">
        <ele>1247</ele>
        <time>2018-05-21T10:40:55Z</time>
      </trkpt>
      <trkpt lat="42.7063890080899" lon="-7.029942004010081">
        <ele>1247</ele>
        <time>2018-05-21T10:40:57Z</time>
      </trkpt>
      <trkpt lat="42.706425972282887" lon="-7.029924988746643">
        <ele>1247</ele>
        <time>2018-05-21T10:40:58Z</time>
      </trkpt>
      <trkpt lat="42.706458996981382" lon="-7.029902022331953">
        <ele>1247</ele>
        <time>2018-05-21T10:40:59Z</time>
      </trkpt>
      <trkpt lat="42.706495961174369" lon="-7.029878972098231">
        <ele>1247</ele>
        <time>2018-05-21T10:41:00Z</time>
      </trkpt>
      <trkpt lat="42.706520017236471" lon="-7.029838990420103">
        <ele>1247</ele>
        <time>2018-05-21T10:41:01Z</time>
      </trkpt>
      <trkpt lat="42.706542983651161" lon="-7.029792973771691">
        <ele>1247</ele>
        <time>2018-05-21T10:41:02Z</time>
      </trkpt>
      <trkpt lat="42.706567961722612" lon="-7.029757015407085">
        <ele>1247</ele>
        <time>2018-05-21T10:41:04Z</time>
      </trkpt>
      <trkpt lat="42.706581959500909" lon="-7.02970496378839">
        <ele>1247</ele>
        <time>2018-05-21T10:41:05Z</time>
      </trkpt>
      <trkpt lat="42.706597968935966" lon="-7.02966095879674">
        <ele>1247</ele>
        <time>2018-05-21T10:41:06Z</time>
      </trkpt>
      <trkpt lat="42.706587994471192" lon="-7.029608990997076">
        <ele>1247</ele>
        <time>2018-05-21T10:41:07Z</time>
      </trkpt>
      <trkpt lat="42.706587994471192" lon="-7.029547970741987">
        <ele>1247</ele>
        <time>2018-05-21T10:41:08Z</time>
      </trkpt>
      <trkpt lat="42.706565028056502" lon="-7.029484016820788">
        <ele>1235</ele>
        <time>2018-05-21T10:41:10Z</time>
      </trkpt>
      <trkpt lat="42.706551030278206" lon="-7.029410004615784">
        <ele>1235</ele>
        <time>2018-05-21T10:41:12Z</time>
      </trkpt>
      <trkpt lat="42.706537032499909" lon="-7.029361976310611">
        <ele>1235</ele>
        <time>2018-05-21T10:41:13Z</time>
      </trkpt>
      <trkpt lat="42.706485986709595" lon="-7.029219986870885">
        <ele>1235</ele>
        <time>2018-05-21T10:41:17Z</time>
      </trkpt>
      <trkpt lat="42.706366963684559" lon="-7.028958974406123">
        <ele>1235</ele>
        <time>2018-05-21T10:41:24Z</time>
      </trkpt>
      <trkpt lat="42.706274008378386" lon="-7.028761999681592">
        <ele>1198</ele>
        <time>2018-05-21T10:41:30Z</time>
      </trkpt>
      <trkpt lat="42.706202007830143" lon="-7.028573993593454">
        <ele>1205</ele>
        <time>2018-05-21T10:41:34Z</time>
      </trkpt>
      <trkpt lat="42.706115003675222" lon="-7.028350029140711">
        <ele>1205</ele>
        <time>2018-05-21T10:41:40Z</time>
      </trkpt>
      <trkpt lat="42.706031017005444" lon="-7.028150958940387">
        <ele>1205</ele>
        <time>2018-05-21T10:41:45Z</time>
      </trkpt>
      <trkpt lat="42.705942001193762" lon="-7.027908973395824">
        <ele>1205</ele>
        <time>2018-05-21T10:41:51Z</time>
      </trkpt>
      <trkpt lat="42.705933032557368" lon="-7.027868991717696">
        <ele>1211</ele>
        <time>2018-05-21T10:41:52Z</time>
      </trkpt>
      <trkpt lat="42.705909982323647" lon="-7.02781199477613">
        <ele>1211</ele>
        <time>2018-05-21T10:41:53Z</time>
      </trkpt>
      <trkpt lat="42.70589598454535" lon="-7.027765978127718">
        <ele>1211</ele>
        <time>2018-05-21T10:41:54Z</time>
      </trkpt>
      <trkpt lat="42.705877041444182" lon="-7.027696995064616">
        <ele>1211</ele>
        <time>2018-05-21T10:41:56Z</time>
      </trkpt>
      <trkpt lat="42.705853991210461" lon="-7.027599010616541">
        <ele>1211</ele>
        <time>2018-05-21T10:41:58Z</time>
      </trkpt>
      <trkpt lat="42.705831024795771" lon="-7.027528015896678">
        <ele>1211</ele>
        <time>2018-05-21T10:42:00Z</time>
      </trkpt>
      <trkpt lat="42.705825995653868" lon="-7.027471018955112">
        <ele>1211</ele>
        <time>2018-05-21T10:42:01Z</time>
      </trkpt>
      <trkpt lat="42.705825995653868" lon="-7.027418967336416">
        <ele>1211</ele>
        <time>2018-05-21T10:42:02Z</time>
      </trkpt>
      <trkpt lat="42.705825995653868" lon="-7.02736197039485">
        <ele>1211</ele>
        <time>2018-05-21T10:42:03Z</time>
      </trkpt>
      <trkpt lat="42.705820966511965" lon="-7.027258034795523">
        <ele>1211</ele>
        <time>2018-05-21T10:42:06Z</time>
      </trkpt>
      <trkpt lat="42.705820966511965" lon="-7.027201037853956">
        <ele>1211</ele>
        <time>2018-05-21T10:42:07Z</time>
      </trkpt>
      <trkpt lat="42.705820966511965" lon="-7.027148986235261">
        <ele>1211</ele>
        <time>2018-05-21T10:42:08Z</time>
      </trkpt>
      <trkpt lat="42.705820966511965" lon="-7.027089977636933">
        <ele>1210</ele>
        <time>2018-05-21T10:42:09Z</time>
      </trkpt>
      <trkpt lat="42.705820966511965" lon="-7.02703800983727">
        <ele>1210</ele>
        <time>2018-05-21T10:42:10Z</time>
      </trkpt>
      <trkpt lat="42.705825995653868" lon="-7.02697497792542">
        <ele>1210</ele>
        <time>2018-05-21T10:42:12Z</time>
      </trkpt>
      <trkpt lat="42.705825995653868" lon="-7.026923010125756">
        <ele>1210</ele>
        <time>2018-05-21T10:42:13Z</time>
      </trkpt>
      <trkpt lat="42.705831024795771" lon="-7.026870036497712">
        <ele>1210</ele>
        <time>2018-05-21T10:42:14Z</time>
      </trkpt>
      <trkpt lat="42.705839993432164" lon="-7.026812033727765">
        <ele>1210</ele>
        <time>2018-05-21T10:42:15Z</time>
      </trkpt>
      <trkpt lat="42.705853991210461" lon="-7.026755036786199">
        <ele>1210</ele>
        <time>2018-05-21T10:42:17Z</time>
      </trkpt>
      <trkpt lat="42.705862959846854" lon="-7.026702985167503">
        <ele>1210</ele>
        <time>2018-05-21T10:42:18Z</time>
      </trkpt>
      <trkpt lat="42.70587301813066" lon="-7.026645988225937">
        <ele>1210</ele>
        <time>2018-05-21T10:42:19Z</time>
      </trkpt>
      <trkpt lat="42.705881986767054" lon="-7.026599971577525">
        <ele>1210</ele>
        <time>2018-05-21T10:42:20Z</time>
      </trkpt>
      <trkpt lat="42.705881986767054" lon="-7.026519002392888">
        <ele>1210</ele>
        <time>2018-05-21T10:42:22Z</time>
      </trkpt>
      <trkpt lat="42.705877041444182" lon="-7.026466028764844">
        <ele>1210</ele>
        <time>2018-05-21T10:42:23Z</time>
      </trkpt>
      <trkpt lat="42.705867988988757" lon="-7.026413977146149">
        <ele>1210</ele>
        <time>2018-05-21T10:42:24Z</time>
      </trkpt>
      <trkpt lat="42.705854997038841" lon="-7.026369972154498">
        <ele>1210</ele>
        <time>2018-05-21T10:42:25Z</time>
      </trkpt>
      <trkpt lat="42.705822978168726" lon="-7.026335019618273">
        <ele>1210</ele>
        <time>2018-05-21T10:42:26Z</time>
      </trkpt>
      <trkpt lat="42.705794982612133" lon="-7.02630702406168">
        <ele>1210</ele>
        <time>2018-05-21T10:42:27Z</time>
      </trkpt>
      <trkpt lat="42.705762041732669" lon="-7.026278022676706">
        <ele>1210</ele>
        <time>2018-05-21T10:42:29Z</time>
      </trkpt>
      <trkpt lat="42.705733962357044" lon="-7.026242986321449">
        <ele>1219</ele>
        <time>2018-05-21T10:42:30Z</time>
      </trkpt>
      <trkpt lat="42.70570102147758" lon="-7.026220019906759">
        <ele>1219</ele>
        <time>2018-05-21T10:42:31Z</time>
      </trkpt>
      <trkpt lat="42.705672020092607" lon="-7.026183977723122">
        <ele>1219</ele>
        <time>2018-05-21T10:42:32Z</time>
      </trkpt>
      <trkpt lat="42.705647964030504" lon="-7.026149025186896">
        <ele>1219</ele>
        <time>2018-05-21T10:42:33Z</time>
      </trkpt>
      <trkpt lat="42.705619968473911" lon="-7.02611499466002">
        <ele>1219</ele>
        <time>2018-05-21T10:42:34Z</time>
      </trkpt>
      <trkpt lat="42.705588033422828" lon="-7.026075012981892">
        <ele>1219</ele>
        <time>2018-05-21T10:42:36Z</time>
      </trkpt>
      <trkpt lat="42.705555008724332" lon="-7.026041988283396">
        <ele>1219</ele>
        <time>2018-05-21T10:42:37Z</time>
      </trkpt>
      <trkpt lat="42.705474039539695" lon="-7.025975016877055">
        <ele>1219</ele>
        <time>2018-05-21T10:42:40Z</time>
      </trkpt>
      <trkpt lat="42.705344958230853" lon="-7.02589999884367">
        <ele>1193</ele>
        <time>2018-05-21T10:42:44Z</time>
      </trkpt>
      <trkpt lat="42.705169022083282" lon="-7.025736970826984">
        <ele>1193</ele>
        <time>2018-05-21T10:42:50Z</time>
      </trkpt>
      <trkpt lat="42.705065002664924" lon="-7.025632029399276">
        <ele>1193</ele>
        <time>2018-05-21T10:42:54Z</time>
      </trkpt>
      <trkpt lat="42.704975986853242" lon="-7.025561034679413">
        <ele>1193</ele>
        <time>2018-05-21T10:42:57Z</time>
      </trkpt>
      <trkpt lat="42.704865010455251" lon="-7.025432037189603">
        <ele>1193</ele>
        <time>2018-05-21T10:43:01Z</time>
      </trkpt>
      <trkpt lat="42.704741964116693" lon="-7.025300022214651">
        <ele>1193</ele>
        <time>2018-05-21T10:43:06Z</time>
      </trkpt>
      <trkpt lat="42.704623024910688" lon="-7.025163983926177">
        <ele>1203</ele>
        <time>2018-05-21T10:43:11Z</time>
      </trkpt>
      <trkpt lat="42.704495033249259" lon="-7.024987963959575">
        <ele>1177</ele>
        <time>2018-05-21T10:43:16Z</time>
      </trkpt>
      <trkpt lat="42.704319013282657" lon="-7.024785038083792">
        <ele>1177</ele>
        <time>2018-05-21T10:43:23Z</time>
      </trkpt>
      <trkpt lat="42.704178029671311" lon="-7.024598959833384">
        <ele>1177</ele>
        <time>2018-05-21T10:43:29Z</time>
      </trkpt>
      <trkpt lat="42.704045008867979" lon="-7.024469040334225">
        <ele>1177</ele>
        <time>2018-05-21T10:43:34Z</time>
      </trkpt>
      <trkpt lat="42.703895978629589" lon="-7.024272987619042">
        <ele>1191</ele>
        <time>2018-05-21T10:43:40Z</time>
      </trkpt>
      <trkpt lat="42.703815009444952" lon="-7.02420199289918">
        <ele>1191</ele>
        <time>2018-05-21T10:43:43Z</time>
      </trkpt>
      <trkpt lat="42.7037020213902" lon="-7.024101996794343">
        <ele>1169</ele>
        <time>2018-05-21T10:43:47Z</time>
      </trkpt>
      <trkpt lat="42.703656004741788" lon="-7.02409696765244">
        <ele>1169</ele>
        <time>2018-05-21T10:43:48Z</time>
      </trkpt>
      <trkpt lat="42.703499011695385" lon="-7.023963024839759">
        <ele>1169</ele>
        <time>2018-05-21T10:43:54Z</time>
      </trkpt>
      <trkpt lat="42.703336989507079" lon="-7.023856993764639">
        <ele>1169</ele>
        <time>2018-05-21T10:43:59Z</time>
      </trkpt>
      <trkpt lat="42.703331038355827" lon="-7.023856993764639">
        <ele>1169</ele>
        <time>2018-05-21T10:43:59Z</time>
      </trkpt>
      <trkpt lat="42.703185025602579" lon="-7.023760015144944">
        <ele>1169</ele>
        <time>2018-05-21T10:44:04Z</time>
      </trkpt>
      <trkpt lat="42.703073965385556" lon="-7.023689020425081">
        <ele>1169</ele>
        <time>2018-05-21T10:44:07Z</time>
      </trkpt>
      <trkpt lat="42.703056028112769" lon="-7.02366597019136">
        <ele>1169</ele>
        <time>2018-05-21T10:44:08Z</time>
      </trkpt>
      <trkpt lat="42.703023003414273" lon="-7.023624982684851">
        <ele>1182</ele>
        <time>2018-05-21T10:44:09Z</time>
      </trkpt>
      <trkpt lat="42.702984027564526" lon="-7.023596987128258">
        <ele>1182</ele>
        <time>2018-05-21T10:44:11Z</time>
      </trkpt>
      <trkpt lat="42.702957959845662" lon="-7.023565974086523">
        <ele>1182</ele>
        <time>2018-05-21T10:44:12Z</time>
      </trkpt>
      <trkpt lat="42.702933987602592" lon="-7.023532027378678">
        <ele>1165</ele>
        <time>2018-05-21T10:44:13Z</time>
      </trkpt>
      <trkpt lat="42.702901968732476" lon="-7.023486010730267">
        <ele>1165</ele>
        <time>2018-05-21T10:44:14Z</time>
      </trkpt>
      <trkpt lat="42.702869027853012" lon="-7.023439994081855">
        <ele>1165</ele>
        <time>2018-05-21T10:44:16Z</time>
      </trkpt>
      <trkpt lat="42.702827034518123" lon="-7.023410992696881">
        <ele>1165</ele>
        <time>2018-05-21T10:44:17Z</time>
      </trkpt>
      <trkpt lat="42.702775988727808" lon="-7.02336497604847">
        <ele>1165</ele>
        <time>2018-05-21T10:44:19Z</time>
      </trkpt>
      <trkpt lat="42.702733995392919" lon="-7.02334200963378">
        <ele>1165</ele>
        <time>2018-05-21T10:44:20Z</time>
      </trkpt>
      <trkpt lat="42.702692002058029" lon="-7.023335974663496">
        <ele>1165</ele>
        <time>2018-05-21T10:44:21Z</time>
      </trkpt>
      <trkpt lat="42.702654032036662" lon="-7.023307979106903">
        <ele>1165</ele>
        <time>2018-05-21T10:44:23Z</time>
      </trkpt>
      <trkpt lat="42.702612038701773" lon="-7.023290041834116">
        <ele>1165</ele>
        <time>2018-05-21T10:44:24Z</time>
      </trkpt>
      <trkpt lat="42.702580019831657" lon="-7.023261962458491">
        <ele>1165</ele>
        <time>2018-05-21T10:44:25Z</time>
      </trkpt>
      <trkpt lat="42.7025449834764" lon="-7.02323698438704">
        <ele>1165</ele>
        <time>2018-05-21T10:44:26Z</time>
      </trkpt>
      <trkpt lat="42.702518999576569" lon="-7.023198008537293">
        <ele>1165</ele>
        <time>2018-05-21T10:44:27Z</time>
      </trkpt>
      <trkpt lat="42.702499972656369" lon="-7.023158026859164">
        <ele>1165</ele>
        <time>2018-05-21T10:44:28Z</time>
      </trkpt>
      <trkpt lat="42.702468037605286" lon="-7.023117961362004">
        <ele>1165</ele>
        <time>2018-05-21T10:44:30Z</time>
      </trkpt>
      <trkpt lat="42.702443981543183" lon="-7.023072028532624">
        <ele>1165</ele>
        <time>2018-05-21T10:44:31Z</time>
      </trkpt>
      <trkpt lat="42.702411962673068" lon="-7.023036992177367">
        <ele>1165</ele>
        <time>2018-05-21T10:44:32Z</time>
      </trkpt>
      <trkpt lat="42.702387990429997" lon="-7.022997010499239">
        <ele>1165</ele>
        <time>2018-05-21T10:44:33Z</time>
      </trkpt>
      <trkpt lat="42.702363012358546" lon="-7.022969014942646">
        <ele>1165</ele>
        <time>2018-05-21T10:44:34Z</time>
      </trkpt>
      <trkpt lat="42.702339962124825" lon="-7.022928027436137">
        <ele>1165</ele>
        <time>2018-05-21T10:44:35Z</time>
      </trkpt>
      <trkpt lat="42.702311966568232" lon="-7.022887961938977">
        <ele>1165</ele>
        <time>2018-05-21T10:44:37Z</time>
      </trkpt>
      <trkpt lat="42.702279025688767" lon="-7.022847980260849">
        <ele>1165</ele>
        <time>2018-05-21T10:44:38Z</time>
      </trkpt>
      <trkpt lat="42.702251030132174" lon="-7.022825013846159">
        <ele>1165</ele>
        <time>2018-05-21T10:44:39Z</time>
      </trkpt>
      <trkpt lat="42.702227979898453" lon="-7.022785032168031">
        <ele>1173</ele>
        <time>2018-05-21T10:44:40Z</time>
      </trkpt>
      <trkpt lat="42.702128989621997" lon="-7.022701967507601">
        <ele>1173</ele>
        <time>2018-05-21T10:44:43Z</time>
      </trkpt>
      <trkpt lat="42.702053971588612" lon="-7.022630972787738">
        <ele>1163</ele>
        <time>2018-05-21T10:44:46Z</time>
      </trkpt>
      <trkpt lat="42.701914999634027" lon="-7.022536005824804">
        <ele>1163</ele>
        <time>2018-05-21T10:44:51Z</time>
      </trkpt>
      <trkpt lat="42.70176999270916" lon="-7.022438021376729">
        <ele>1163</ele>
        <time>2018-05-21T10:44:56Z</time>
      </trkpt>
      <trkpt lat="42.70164099521935" lon="-7.022303994745016">
        <ele>1163</ele>
        <time>2018-05-21T10:45:00Z</time>
      </trkpt>
      <trkpt lat="42.701537981629372" lon="-7.022210033610463">
        <ele>1163</ele>
        <time>2018-05-21T10:45:04Z</time>
      </trkpt>
      <trkpt lat="42.701418036594987" lon="-7.02209503389895">
        <ele>1163</ele>
        <time>2018-05-21T10:45:08Z</time>
      </trkpt>
      <trkpt lat="42.701321979984641" lon="-7.0220320019871">
        <ele>1163</ele>
        <time>2018-05-21T10:45:11Z</time>
      </trkpt>
      <trkpt lat="42.701237993314862" lon="-7.021832009777427">
        <ele>1153</ele>
        <time>2018-05-21T10:45:16Z</time>
      </trkpt>
      <trkpt lat="42.701218966394663" lon="-7.021755985915661">
        <ele>1153</ele>
        <time>2018-05-21T10:45:18Z</time>
      </trkpt>
      <trkpt lat="42.70116800442338" lon="-7.02156001701951">
        <ele>1153</ele>
        <time>2018-05-21T10:45:23Z</time>
      </trkpt>
      <trkpt lat="42.701140008866787" lon="-7.021486004814506">
        <ele>1153</ele>
        <time>2018-05-21T10:45:25Z</time>
      </trkpt>
      <trkpt lat="42.701120981946588" lon="-7.021428002044559">
        <ele>1153</ele>
        <time>2018-05-21T10:45:26Z</time>
      </trkpt>
      <trkpt lat="42.70110203884542" lon="-7.021331023424864">
        <ele>1153</ele>
        <time>2018-05-21T10:45:28Z</time>
      </trkpt>
      <trkpt lat="42.701084017753601" lon="-7.021251982077956">
        <ele>1153</ele>
        <time>2018-05-21T10:45:30Z</time>
      </trkpt>
      <trkpt lat="42.701078988611698" lon="-7.021198002621532">
        <ele>1153</ele>
        <time>2018-05-21T10:45:31Z</time>
      </trkpt>
      <trkpt lat="42.701056022197008" lon="-7.021134970709682">
        <ele>1150</ele>
        <time>2018-05-21T10:45:33Z</time>
      </trkpt>
      <trkpt lat="42.701028026640415" lon="-7.021105969324708">
        <ele>1150</ele>
        <time>2018-05-21T10:45:34Z</time>
      </trkpt>
      <trkpt lat="42.700995001941919" lon="-7.021076967939735">
        <ele>1150</ele>
        <time>2018-05-21T10:45:35Z</time>
      </trkpt>
      <trkpt lat="42.700957031920552" lon="-7.021051989868283">
        <ele>1150</ele>
        <time>2018-05-21T10:45:36Z</time>
      </trkpt>
      <trkpt lat="42.700916966423392" lon="-7.021027011796832">
        <ele>1150</ele>
        <time>2018-05-21T10:45:37Z</time>
      </trkpt>
      <trkpt lat="42.700883019715548" lon="-7.021009996533394">
        <ele>1150</ele>
        <time>2018-05-21T10:45:39Z</time>
      </trkpt>
      <trkpt lat="42.700847983360291" lon="-7.020992981269956">
        <ele>1150</ele>
        <time>2018-05-21T10:45:40Z</time>
      </trkpt>
      <trkpt lat="42.700802972540259" lon="-7.02098099514842">
        <ele>1150</ele>
        <time>2018-05-21T10:45:41Z</time>
      </trkpt>
      <trkpt lat="42.700769025832415" lon="-7.02095802873373">
        <ele>1150</ele>
        <time>2018-05-21T10:45:42Z</time>
      </trkpt>
      <trkpt lat="42.700739018619061" lon="-7.020934978500009">
        <ele>1150</ele>
        <time>2018-05-21T10:45:43Z</time>
      </trkpt>
      <trkpt lat="42.700710017234087" lon="-7.020901031792164">
        <ele>1150</ele>
        <time>2018-05-21T10:45:44Z</time>
      </trkpt>
      <trkpt lat="42.70067498087883" lon="-7.020859038457274">
        <ele>1150</ele>
        <time>2018-05-21T10:45:46Z</time>
      </trkpt>
      <trkpt lat="42.700597029179335" lon="-7.020790977403522">
        <ele>1150</ele>
        <time>2018-05-21T10:45:48Z</time>
      </trkpt>
      <trkpt lat="42.700527040287852" lon="-7.020726017653942">
        <ele>1150</ele>
        <time>2018-05-21T10:45:51Z</time>
      </trkpt>
      <trkpt lat="42.700352026149631" lon="-7.020584028214216">
        <ele>1139</ele>
        <time>2018-05-21T10:45:57Z</time>
      </trkpt>
      <trkpt lat="42.70020199008286" lon="-7.020472967997193">
        <ele>1139</ele>
        <time>2018-05-21T10:46:02Z</time>
      </trkpt>
      <trkpt lat="42.700099982321262" lon="-7.020385041832924">
        <ele>1139</ele>
        <time>2018-05-21T10:46:06Z</time>
      </trkpt>
      <trkpt lat="42.700084978714585" lon="-7.020385041832924">
        <ele>1139</ele>
        <time>2018-05-21T10:46:06Z</time>
      </trkpt>
      <trkpt lat="42.699937038123608" lon="-7.020327961072326">
        <ele>1137</ele>
        <time>2018-05-21T10:46:11Z</time>
      </trkpt>
      <trkpt lat="42.699831007048488" lon="-7.020275993272662">
        <ele>1137</ele>
        <time>2018-05-21T10:46:14Z</time>
      </trkpt>
      <trkpt lat="42.699732016772032" lon="-7.020189994946122">
        <ele>1137</ele>
        <time>2018-05-21T10:46:18Z</time>
      </trkpt>
      <trkpt lat="42.699612993746996" lon="-7.020092010498047">
        <ele>1137</ele>
        <time>2018-05-21T10:46:22Z</time>
      </trkpt>
      <trkpt lat="42.699506040662527" lon="-7.019997965544462">
        <ele>1125</ele>
        <time>2018-05-21T10:46:26Z</time>
      </trkpt>
      <trkpt lat="42.699403027072549" lon="-7.019891012459993">
        <ele>1125</ele>
        <time>2018-05-21T10:46:29Z</time>
      </trkpt>
      <trkpt lat="42.699295990169048" lon="-7.019830998033285">
        <ele>1125</ele>
        <time>2018-05-21T10:46:33Z</time>
      </trkpt>
      <trkpt lat="42.699218038469553" lon="-7.019778024405241">
        <ele>1125</ele>
        <time>2018-05-21T10:46:35Z</time>
      </trkpt>
      <trkpt lat="42.699193982407451" lon="-7.019771989434958">
        <ele>1125</ele>
        <time>2018-05-21T10:46:36Z</time>
      </trkpt>
      <trkpt lat="42.699151989072561" lon="-7.019771989434958">
        <ele>1125</ele>
        <time>2018-05-21T10:46:37Z</time>
      </trkpt>
      <trkpt lat="42.69910597242415" lon="-7.019771989434958">
        <ele>1125</ele>
        <time>2018-05-21T10:46:39Z</time>
      </trkpt>
      <trkpt lat="42.699066996574402" lon="-7.019771989434958">
        <ele>1125</ele>
        <time>2018-05-21T10:46:40Z</time>
      </trkpt>
      <trkpt lat="42.699025003239512" lon="-7.019778024405241">
        <ele>1125</ele>
        <time>2018-05-21T10:46:41Z</time>
      </trkpt>
      <trkpt lat="42.698992984369397" lon="-7.019789004698396">
        <ele>1125</ele>
        <time>2018-05-21T10:46:42Z</time>
      </trkpt>
      <trkpt lat="42.698953002691269" lon="-7.019795039668679">
        <ele>1125</ele>
        <time>2018-05-21T10:46:43Z</time>
      </trkpt>
      <trkpt lat="42.698915032669902" lon="-7.019806019961834">
        <ele>1125</ele>
        <time>2018-05-21T10:46:45Z</time>
      </trkpt>
      <trkpt lat="42.698873039335012" lon="-7.019828986376524">
        <ele>1125</ele>
        <time>2018-05-21T10:46:46Z</time>
      </trkpt>
      <trkpt lat="42.698831968009472" lon="-7.019864022731781">
        <ele>1125</ele>
        <time>2018-05-21T10:46:47Z</time>
      </trkpt>
      <trkpt lat="42.698793997988105" lon="-7.019893024116755">
        <ele>1125</ele>
        <time>2018-05-21T10:46:49Z</time>
      </trkpt>
      <trkpt lat="42.69876197911799" lon="-7.019921019673348">
        <ele>1125</ele>
        <time>2018-05-21T10:46:50Z</time>
      </trkpt>
      <trkpt lat="42.698729038238525" lon="-7.019955972209573">
        <ele>1112</ele>
        <time>2018-05-21T10:46:51Z</time>
      </trkpt>
      <trkpt lat="42.69869601354003" lon="-7.019990002736449">
        <ele>1112</ele>
        <time>2018-05-21T10:46:52Z</time>
      </trkpt>
      <trkpt lat="42.69865402020514" lon="-7.020007017999888">
        <ele>1112</ele>
        <time>2018-05-21T10:46:54Z</time>
      </trkpt>
      <trkpt lat="42.698616972193122" lon="-7.020019004121423">
        <ele>1112</ele>
        <time>2018-05-21T10:46:55Z</time>
      </trkpt>
      <trkpt lat="42.698580008000135" lon="-7.020029984414578">
        <ele>1112</ele>
        <time>2018-05-21T10:46:56Z</time>
      </trkpt>
      <trkpt lat="42.698542037978768" lon="-7.020041970536113">
        <ele>1112</ele>
        <time>2018-05-21T10:46:57Z</time>
      </trkpt>
      <trkpt lat="42.698490992188454" lon="-7.020065020769835">
        <ele>1112</ele>
        <time>2018-05-21T10:46:59Z</time>
      </trkpt>
      <trkpt lat="42.698454027995467" lon="-7.020070971921086">
        <ele>1112</ele>
        <time>2018-05-21T10:47:00Z</time>
      </trkpt>
      <trkpt lat="42.698402982205153" lon="-7.020094022154808">
        <ele>1112</ele>
        <time>2018-05-21T10:47:01Z</time>
      </trkpt>
      <trkpt lat="42.69835302606225" lon="-7.020098967477679">
        <ele>1112</ele>
        <time>2018-05-21T10:47:03Z</time>
      </trkpt>
      <trkpt lat="42.698312038555741" lon="-7.020098967477679">
        <ele>1112</ele>
        <time>2018-05-21T10:47:04Z</time>
      </trkpt>
      <trkpt lat="42.69826996140182" lon="-7.020098967477679">
        <ele>1112</ele>
        <time>2018-05-21T10:47:05Z</time>
      </trkpt>
      <trkpt lat="42.698213970288634" lon="-7.020098967477679">
        <ele>1112</ele>
        <time>2018-05-21T10:47:07Z</time>
      </trkpt>
      <trkpt lat="42.698170971125364" lon="-7.020098967477679">
        <ele>1112</ele>
        <time>2018-05-21T10:47:08Z</time>
      </trkpt>
      <trkpt lat="42.698133001103997" lon="-7.020076001062989">
        <ele>1112</ele>
        <time>2018-05-21T10:47:09Z</time>
      </trkpt>
      <trkpt lat="42.698091007769108" lon="-7.020065020769835">
        <ele>1112</ele>
        <time>2018-05-21T10:47:11Z</time>
      </trkpt>
      <trkpt lat="42.698035016655922" lon="-7.020041970536113">
        <ele>1112</ele>
        <time>2018-05-21T10:47:12Z</time>
      </trkpt>
      <trkpt lat="42.697997968643904" lon="-7.020019004121423">
        <ele>1112</ele>
        <time>2018-05-21T10:47:14Z</time>
      </trkpt>
      <trkpt lat="42.697961004450917" lon="-7.020005006343126">
        <ele>1112</ele>
        <time>2018-05-21T10:47:15Z</time>
      </trkpt>
      <trkpt lat="42.69792303442955" lon="-7.019987991079688">
        <ele>1099</ele>
        <time>2018-05-21T10:47:16Z</time>
      </trkpt>
      <trkpt lat="42.697889003902674" lon="-7.019958989694715">
        <ele>1099</ele>
        <time>2018-05-21T10:47:17Z</time>
      </trkpt>
      <trkpt lat="42.697813985869288" lon="-7.019910961389542">
        <ele>1099</ele>
        <time>2018-05-21T10:47:20Z</time>
      </trkpt>
      <trkpt lat="42.697808034718037" lon="-7.019910961389542">
        <ele>1099</ele>
        <time>2018-05-21T10:47:20Z</time>
      </trkpt>
      <trkpt lat="42.697698986157775" lon="-7.019835021346808">
        <ele>1099</ele>
        <time>2018-05-21T10:47:24Z</time>
      </trkpt>
      <trkpt lat="42.697614999487996" lon="-7.019791016355157">
        <ele>1099</ele>
        <time>2018-05-21T10:47:26Z</time>
      </trkpt>
      <trkpt lat="42.6974490378052" lon="-7.019608961418271">
        <ele>1099</ele>
        <time>2018-05-21T10:47:33Z</time>
      </trkpt>
      <trkpt lat="42.697321968153119" lon="-7.019444005563855">
        <ele>1091</ele>
        <time>2018-05-21T10:47:38Z</time>
      </trkpt>
      <trkpt lat="42.697117030620575" lon="-7.019195985049009">
        <ele>1083</ele>
        <time>2018-05-21T10:47:46Z</time>
      </trkpt>
      <trkpt lat="42.697053998708725" lon="-7.019065981730819">
        <ele>1083</ele>
        <time>2018-05-21T10:47:49Z</time>
      </trkpt>
      <trkpt lat="42.697037989273667" lon="-7.019065981730819">
        <ele>1083</ele>
        <time>2018-05-21T10:47:50Z</time>
      </trkpt>
      <trkpt lat="42.696976969018579" lon="-7.018957016989589">
        <ele>1083</ele>
        <time>2018-05-21T10:47:53Z</time>
      </trkpt>
      <trkpt lat="42.696971017867327" lon="-7.018948970362544">
        <ele>1083</ele>
        <time>2018-05-21T10:47:53Z</time>
      </trkpt>
      <trkpt lat="42.696875967085361" lon="-7.018829025328159">
        <ele>1083</ele>
        <time>2018-05-21T10:47:57Z</time>
      </trkpt>
      <trkpt lat="42.696797009557486" lon="-7.018762975931168">
        <ele>1083</ele>
        <time>2018-05-21T10:48:00Z</time>
      </trkpt>
      <trkpt lat="42.696690978482366" lon="-7.018687035888434">
        <ele>1073</ele>
        <time>2018-05-21T10:48:03Z</time>
      </trkpt>
      <trkpt lat="42.696567010134459" lon="-7.018568012863398">
        <ele>1073</ele>
        <time>2018-05-21T10:48:08Z</time>
      </trkpt>
      <trkpt lat="42.696543959900737" lon="-7.018556026741862">
        <ele>1073</ele>
        <time>2018-05-21T10:48:09Z</time>
      </trkpt>
      <trkpt lat="42.696511019021273" lon="-7.018511015921831">
        <ele>1073</ele>
        <time>2018-05-21T10:48:10Z</time>
      </trkpt>
      <trkpt lat="42.69648302346468" lon="-7.01848603785038">
        <ele>1073</ele>
        <time>2018-05-21T10:48:11Z</time>
      </trkpt>
      <trkpt lat="42.696451004594564" lon="-7.018457036465406">
        <ele>1073</ele>
        <time>2018-05-21T10:48:12Z</time>
      </trkpt>
      <trkpt lat="42.696417979896069" lon="-7.018433986231685">
        <ele>1073</ele>
        <time>2018-05-21T10:48:13Z</time>
      </trkpt>
      <trkpt lat="42.696375986561179" lon="-7.018411019816995">
        <ele>1073</ele>
        <time>2018-05-21T10:48:15Z</time>
      </trkpt>
      <trkpt lat="42.696332987397909" lon="-7.018411019816995">
        <ele>1073</ele>
        <time>2018-05-21T10:48:16Z</time>
      </trkpt>
      <trkpt lat="42.69629099406302" lon="-7.018411019816995">
        <ele>1074</ele>
        <time>2018-05-21T10:48:17Z</time>
      </trkpt>
      <trkpt lat="42.69624900072813" lon="-7.018411019816995">
        <ele>1074</ele>
        <time>2018-05-21T10:48:18Z</time>
      </trkpt>
      <trkpt lat="42.696207007393241" lon="-7.018416970968247">
        <ele>1074</ele>
        <time>2018-05-21T10:48:20Z</time>
      </trkpt>
      <trkpt lat="42.696159984916449" lon="-7.018416970968247">
        <ele>1074</ele>
        <time>2018-05-21T10:48:21Z</time>
      </trkpt>
      <trkpt lat="42.696123020723462" lon="-7.018422000110149">
        <ele>1074</ele>
        <time>2018-05-21T10:48:22Z</time>
      </trkpt>
      <trkpt lat="42.696081027388573" lon="-7.018422000110149">
        <ele>1074</ele>
        <time>2018-05-21T10:48:23Z</time>
      </trkpt>
      <trkpt lat="42.696039034053683" lon="-7.018422000110149">
        <ele>1074</ele>
        <time>2018-05-21T10:48:25Z</time>
      </trkpt>
      <trkpt lat="42.695997040718794" lon="-7.018422000110149">
        <ele>1074</ele>
        <time>2018-05-21T10:48:26Z</time>
      </trkpt>
      <trkpt lat="42.695950018242002" lon="-7.018422000110149">
        <ele>1074</ele>
        <time>2018-05-21T10:48:27Z</time>
      </trkpt>
      <trkpt lat="42.695908024907112" lon="-7.018422000110149">
        <ele>1074</ele>
        <time>2018-05-21T10:48:29Z</time>
      </trkpt>
      <trkpt lat="42.6958620082587" lon="-7.018422000110149">
        <ele>1074</ele>
        <time>2018-05-21T10:48:30Z</time>
      </trkpt>
      <trkpt lat="42.69581800326705" lon="-7.018433986231685">
        <ele>1074</ele>
        <time>2018-05-21T10:48:31Z</time>
      </trkpt>
      <trkpt lat="42.695779027417302" lon="-7.018433986231685">
        <ele>1074</ele>
        <time>2018-05-21T10:48:32Z</time>
      </trkpt>
      <trkpt lat="42.695737034082413" lon="-7.018433986231685">
        <ele>1074</ele>
        <time>2018-05-21T10:48:34Z</time>
      </trkpt>
      <trkpt lat="42.695697974413633" lon="-7.018433986231685">
        <ele>1074</ele>
        <time>2018-05-21T10:48:35Z</time>
      </trkpt>
      <trkpt lat="42.695666961371899" lon="-7.018451001495123">
        <ele>1074</ele>
        <time>2018-05-21T10:48:36Z</time>
      </trkpt>
      <trkpt lat="42.695628991350532" lon="-7.018473967909813">
        <ele>1074</ele>
        <time>2018-05-21T10:48:37Z</time>
      </trkpt>
      <trkpt lat="42.695578029379249" lon="-7.01850900426507">
        <ele>1074</ele>
        <time>2018-05-21T10:48:39Z</time>
      </trkpt>
      <trkpt lat="42.695536036044359" lon="-7.018530964851379">
        <ele>1074</ele>
        <time>2018-05-21T10:48:40Z</time>
      </trkpt>
      <trkpt lat="42.695503011345863" lon="-7.018554015085101">
        <ele>1074</ele>
        <time>2018-05-21T10:48:41Z</time>
      </trkpt>
      <trkpt lat="42.695465963333845" lon="-7.018566001206636">
        <ele>1070</ele>
        <time>2018-05-21T10:48:42Z</time>
      </trkpt>
      <trkpt lat="42.695433022454381" lon="-7.018588967621326">
        <ele>1070</ele>
        <time>2018-05-21T10:48:43Z</time>
      </trkpt>
      <trkpt lat="42.695393962785602" lon="-7.018600031733513">
        <ele>1070</ele>
        <time>2018-05-21T10:48:45Z</time>
      </trkpt>
      <trkpt lat="42.695356998592615" lon="-7.018612017855048">
        <ele>1070</ele>
        <time>2018-05-21T10:48:46Z</time>
      </trkpt>
      <trkpt lat="42.695320034399629" lon="-7.018622998148203">
        <ele>1070</ele>
        <time>2018-05-21T10:48:47Z</time>
      </trkpt>
      <trkpt lat="42.69528298638761" lon="-7.018629033118486">
        <ele>1070</ele>
        <time>2018-05-21T10:48:48Z</time>
      </trkpt>
      <trkpt lat="42.695235963910818" lon="-7.018634984269738">
        <ele>1070</ele>
        <time>2018-05-21T10:48:49Z</time>
      </trkpt>
      <trkpt lat="42.695189025253057" lon="-7.018634984269738">
        <ele>1070</ele>
        <time>2018-05-21T10:48:51Z</time>
      </trkpt>
      <trkpt lat="42.695147031918168" lon="-7.018634984269738">
        <ele>1070</ele>
        <time>2018-05-21T10:48:52Z</time>
      </trkpt>
      <trkpt lat="42.695105038583279" lon="-7.018634984269738">
        <ele>1070</ele>
        <time>2018-05-21T10:48:53Z</time>
      </trkpt>
      <trkpt lat="42.695062961429358" lon="-7.018634984269738">
        <ele>1070</ele>
        <time>2018-05-21T10:48:55Z</time>
      </trkpt>
      <trkpt lat="42.695022979751229" lon="-7.018634984269738">
        <ele>1070</ele>
        <time>2018-05-21T10:48:56Z</time>
      </trkpt>
      <trkpt lat="42.694985009729862" lon="-7.018627021461725">
        <ele>1070</ele>
        <time>2018-05-21T10:48:57Z</time>
      </trkpt>
      <trkpt lat="42.694952990859747" lon="-7.018603971228004">
        <ele>1070</ele>
        <time>2018-05-21T10:48:58Z</time>
      </trkpt>
      <trkpt lat="42.694910997524858" lon="-7.01857496984303">
        <ele>1070</ele>
        <time>2018-05-21T10:48:59Z</time>
      </trkpt>
      <trkpt lat="42.694877972826362" lon="-7.018546974286437">
        <ele>1070</ele>
        <time>2018-05-21T10:49:01Z</time>
      </trkpt>
      <trkpt lat="42.694844026118517" lon="-7.018515961244702">
        <ele>1070</ele>
        <time>2018-05-21T10:49:02Z</time>
      </trkpt>
      <trkpt lat="42.69480999559164" lon="-7.018499029800296">
        <ele>1070</ele>
        <time>2018-05-21T10:49:03Z</time>
      </trkpt>
      <trkpt lat="42.694776970893145" lon="-7.018475979566574">
        <ele>1070</ele>
        <time>2018-05-21T10:49:04Z</time>
      </trkpt>
      <trkpt lat="42.694734977558255" lon="-7.018453013151884">
        <ele>1070</ele>
        <time>2018-05-21T10:49:05Z</time>
      </trkpt>
      <trkpt lat="42.694702036678791" lon="-7.018441027030349">
        <ele>1070</ele>
        <time>2018-05-21T10:49:06Z</time>
      </trkpt>
      <trkpt lat="42.694664988666773" lon="-7.018424011766911">
        <ele>1070</ele>
        <time>2018-05-21T10:49:07Z</time>
      </trkpt>
      <trkpt lat="42.694628024473786" lon="-7.018406996503472">
        <ele>1070</ele>
        <time>2018-05-21T10:49:09Z</time>
      </trkpt>
      <trkpt lat="42.694589970633388" lon="-7.018384030088782">
        <ele>1070</ele>
        <time>2018-05-21T10:49:10Z</time>
      </trkpt>
      <trkpt lat="42.694544037804008" lon="-7.018371960148215">
        <ele>1061</ele>
        <time>2018-05-21T10:49:11Z</time>
      </trkpt>
      <trkpt lat="42.694504978135228" lon="-7.018348993733525">
        <ele>1061</ele>
        <time>2018-05-21T10:49:13Z</time>
      </trkpt>
      <trkpt lat="42.694468013942242" lon="-7.018331978470087">
        <ele>1061</ele>
        <time>2018-05-21T10:49:14Z</time>
      </trkpt>
      <trkpt lat="42.694420991465449" lon="-7.018314963206649">
        <ele>1061</ele>
        <time>2018-05-21T10:49:15Z</time>
      </trkpt>
      <trkpt lat="42.694372963160276" lon="-7.018302977085114">
        <ele>1061</ele>
        <time>2018-05-21T10:49:17Z</time>
      </trkpt>
      <trkpt lat="42.694331975653768" lon="-7.018291996791959">
        <ele>1061</ele>
        <time>2018-05-21T10:49:18Z</time>
      </trkpt>
      <trkpt lat="42.69429299980402" lon="-7.018269030377269">
        <ele>1061</ele>
        <time>2018-05-21T10:49:19Z</time>
      </trkpt>
      <trkpt lat="42.694195015355945" lon="-7.018227037042379">
        <ele>1061</ele>
        <time>2018-05-21T10:49:22Z</time>
      </trkpt>
      <trkpt lat="42.694090995937586" lon="-7.018181020393968">
        <ele>1061</ele>
        <time>2018-05-21T10:49:25Z</time>
      </trkpt>
      <trkpt lat="42.693982031196356" lon="-7.018155958503485">
        <ele>1061</ele>
        <time>2018-05-21T10:49:29Z</time>
      </trkpt>
      <trkpt lat="42.693940037861466" lon="-7.018143972381949">
        <ele>1061</ele>
        <time>2018-05-21T10:49:30Z</time>
      </trkpt>
      <trkpt lat="42.693900978192687" lon="-7.018143972381949">
        <ele>1061</ele>
        <time>2018-05-21T10:49:31Z</time>
      </trkpt>
      <trkpt lat="42.693864013999701" lon="-7.018132992088795">
        <ele>1061</ele>
        <time>2018-05-21T10:49:32Z</time>
      </trkpt>
      <trkpt lat="42.693825960159302" lon="-7.018127040937543">
        <ele>1061</ele>
        <time>2018-05-21T10:49:33Z</time>
      </trkpt>
      <trkpt lat="42.693786984309554" lon="-7.018121005967259">
        <ele>1061</ele>
        <time>2018-05-21T10:49:34Z</time>
      </trkpt>
      <trkpt lat="42.693595960736275" lon="-7.018038025125861">
        <ele>1044</ele>
        <time>2018-05-21T10:49:40Z</time>
      </trkpt>
      <trkpt lat="42.693532006815076" lon="-7.017968958243728">
        <ele>1044</ele>
        <time>2018-05-21T10:49:43Z</time>
      </trkpt>
      <trkpt lat="42.693395968526602" lon="-7.017871979624033">
        <ele>1064</ele>
        <time>2018-05-21T10:49:47Z</time>
      </trkpt>
      <trkpt lat="42.693301001563668" lon="-7.01777801848948">
        <ele>1064</ele>
        <time>2018-05-21T10:49:51Z</time>
      </trkpt>
      <trkpt lat="42.693206034600735" lon="-7.01771498657763">
        <ele>1064</ele>
        <time>2018-05-21T10:49:54Z</time>
      </trkpt>
      <trkpt lat="42.693115007132292" lon="-7.017623037099838">
        <ele>1064</ele>
        <time>2018-05-21T10:49:57Z</time>
      </trkpt>
      <trkpt lat="42.693011993542314" lon="-7.017470989376307">
        <ele>1064</ele>
        <time>2018-05-21T10:50:02Z</time>
      </trkpt>
      <trkpt lat="42.692905962467194" lon="-7.01730502769351">
        <ele>1037</ele>
        <time>2018-05-21T10:50:07Z</time>
      </trkpt>
      <trkpt lat="42.692752992734313" lon="-7.017071004956961">
        <ele>1037</ele>
        <time>2018-05-21T10:50:13Z</time>
      </trkpt>
      <trkpt lat="42.692674035206437" lon="-7.016906971111894">
        <ele>1048</ele>
        <time>2018-05-21T10:50:18Z</time>
      </trkpt>
      <trkpt lat="42.692600023001432" lon="-7.016772022470832">
        <ele>1048</ele>
        <time>2018-05-21T10:50:21Z</time>
      </trkpt>
      <trkpt lat="42.692547971382737" lon="-7.016637995839119">
        <ele>1048</ele>
        <time>2018-05-21T10:50:25Z</time>
      </trkpt>
      <trkpt lat="42.692544031888247" lon="-7.01649097725749">
        <ele>1048</ele>
        <time>2018-05-21T10:50:28Z</time>
      </trkpt>
      <trkpt lat="42.692500026896596" lon="-7.016444960609078">
        <ele>1048</ele>
        <time>2018-05-21T10:50:30Z</time>
      </trkpt>
      <trkpt lat="42.692430038005114" lon="-7.016372038051486">
        <ele>1048</ele>
        <time>2018-05-21T10:50:32Z</time>
      </trkpt>
      <trkpt lat="42.692384021356702" lon="-7.016288973391056">
        <ele>1048</ele>
        <time>2018-05-21T10:50:35Z</time>
      </trkpt>
      <trkpt lat="42.692344961687922" lon="-7.016171040013433">
        <ele>1058</ele>
        <time>2018-05-21T10:50:37Z</time>
      </trkpt>
      <trkpt lat="42.692309003323317" lon="-7.016089987009764">
        <ele>1058</ele>
        <time>2018-05-21T10:50:39Z</time>
      </trkpt>
      <trkpt lat="42.692257035523653" lon="-7.015967024490237">
        <ele>1058</ele>
        <time>2018-05-21T10:50:42Z</time>
      </trkpt>
      <trkpt lat="42.692217975854874" lon="-7.015870967879891">
        <ele>1058</ele>
        <time>2018-05-21T10:50:45Z</time>
      </trkpt>
      <trkpt lat="42.692161984741688" lon="-7.015800978988409">
        <ele>1058</ele>
        <time>2018-05-21T10:50:47Z</time>
      </trkpt>
      <trkpt lat="42.692153016105294" lon="-7.015788992866874">
        <ele>1058</ele>
        <time>2018-05-21T10:50:47Z</time>
      </trkpt>
      <trkpt lat="42.692129965871572" lon="-7.015742976218462">
        <ele>1058</ele>
        <time>2018-05-21T10:50:49Z</time>
      </trkpt>
      <trkpt lat="42.692115968093276" lon="-7.015691008418798">
        <ele>1024</ele>
        <time>2018-05-21T10:50:50Z</time>
      </trkpt>
      <trkpt lat="42.692097024992108" lon="-7.01565102674067">
        <ele>1024</ele>
        <time>2018-05-21T10:50:51Z</time>
      </trkpt>
      <trkpt lat="42.692071963101625" lon="-7.015609033405781">
        <ele>1024</ele>
        <time>2018-05-21T10:50:52Z</time>
      </trkpt>
      <trkpt lat="42.692048996686935" lon="-7.015563016757369">
        <ele>1024</ele>
        <time>2018-05-21T10:50:53Z</time>
      </trkpt>
      <trkpt lat="42.692026030272245" lon="-7.015528986230493">
        <ele>1024</ele>
        <time>2018-05-21T10:50:54Z</time>
      </trkpt>
      <trkpt lat="42.691996023058891" lon="-7.015494033694267">
        <ele>1024</ele>
        <time>2018-05-21T10:50:55Z</time>
      </trkpt>
      <trkpt lat="42.691958975046873" lon="-7.015460003167391">
        <ele>1024</ele>
        <time>2018-05-21T10:50:57Z</time>
      </trkpt>
      <trkpt lat="42.691921005025506" lon="-7.015441982075572">
        <ele>1024</ele>
        <time>2018-05-21T10:50:58Z</time>
      </trkpt>
      <trkpt lat="42.691885968670249" lon="-7.015406023710966">
        <ele>1024</ele>
        <time>2018-05-21T10:50:59Z</time>
      </trkpt>
      <trkpt lat="42.691847998648882" lon="-7.015382973477244">
        <ele>1024</ele>
        <time>2018-05-21T10:51:01Z</time>
      </trkpt>
      <trkpt lat="42.691820003092289" lon="-7.015355983749032">
        <ele>1024</ele>
        <time>2018-05-21T10:51:02Z</time>
      </trkpt>
      <trkpt lat="42.691737022250891" lon="-7.015302004292607">
        <ele>1024</ele>
        <time>2018-05-21T10:51:04Z</time>
      </trkpt>
      <trkpt lat="42.691730987280607" lon="-7.015302004292607">
        <ele>1024</ele>
        <time>2018-05-21T10:51:05Z</time>
      </trkpt>
      <trkpt lat="42.691666027531028" lon="-7.015267973765731">
        <ele>1034</ele>
        <time>2018-05-21T10:51:07Z</time>
      </trkpt>
      <trkpt lat="42.691635014489293" lon="-7.015255987644196">
        <ele>1034</ele>
        <time>2018-05-21T10:51:08Z</time>
      </trkpt>
      <trkpt lat="42.691591009497643" lon="-7.015245007351041">
        <ele>1034</ele>
        <time>2018-05-21T10:51:09Z</time>
      </trkpt>
      <trkpt lat="42.691566031426191" lon="-7.015245007351041">
        <ele>1034</ele>
        <time>2018-05-21T10:51:10Z</time>
      </trkpt>
      <trkpt lat="42.691493025049567" lon="-7.015216005966067">
        <ele>1034</ele>
        <time>2018-05-21T10:51:12Z</time>
      </trkpt>
      <trkpt lat="42.691481960937381" lon="-7.015209970995784">
        <ele>1034</ele>
        <time>2018-05-21T10:51:12Z</time>
      </trkpt>
      <trkpt lat="42.691393028944731" lon="-7.015193039551377">
        <ele>1034</ele>
        <time>2018-05-21T10:51:15Z</time>
      </trkpt>
      <trkpt lat="42.691378025338054" lon="-7.015193039551377">
        <ele>1034</ele>
        <time>2018-05-21T10:51:15Z</time>
      </trkpt>
      <trkpt lat="42.69128599204123" lon="-7.015169989317656">
        <ele>1019</ele>
        <time>2018-05-21T10:51:18Z</time>
      </trkpt>
      <trkpt lat="42.691269982606173" lon="-7.015169989317656">
        <ele>1019</ele>
        <time>2018-05-21T10:51:19Z</time>
      </trkpt>
      <trkpt lat="42.691185995936394" lon="-7.015147022902966">
        <ele>1019</ele>
        <time>2018-05-21T10:51:21Z</time>
      </trkpt>
      <trkpt lat="42.691161017864943" lon="-7.015147022902966">
        <ele>1019</ele>
        <time>2018-05-21T10:51:22Z</time>
      </trkpt>
      <trkpt lat="42.691119024530053" lon="-7.015123972669244">
        <ele>1019</ele>
        <time>2018-05-21T10:51:23Z</time>
      </trkpt>
      <trkpt lat="42.691107038408518" lon="-7.015117015689611">
        <ele>1019</ele>
        <time>2018-05-21T10:51:24Z</time>
      </trkpt>
      <trkpt lat="42.691049035638571" lon="-7.015105029568076">
        <ele>1019</ele>
        <time>2018-05-21T10:51:26Z</time>
      </trkpt>
      <trkpt lat="42.691023973748088" lon="-7.015105029568076">
        <ele>1019</ele>
        <time>2018-05-21T10:51:26Z</time>
      </trkpt>
      <trkpt lat="42.690959013998508" lon="-7.015098994597793">
        <ele>1019</ele>
        <time>2018-05-21T10:51:28Z</time>
      </trkpt>
      <trkpt lat="42.690938981249928" lon="-7.015088014304638">
        <ele>1019</ele>
        <time>2018-05-21T10:51:29Z</time>
      </trkpt>
      <trkpt lat="42.690821969881654" lon="-7.015076028183103">
        <ele>1019</ele>
        <time>2018-05-21T10:51:32Z</time>
      </trkpt>
      <trkpt lat="42.690805960446596" lon="-7.015076028183103">
        <ele>1019</ele>
        <time>2018-05-21T10:51:33Z</time>
      </trkpt>
      <trkpt lat="42.690656008198857" lon="-7.0150709990412">
        <ele>1019</ele>
        <time>2018-05-21T10:51:37Z</time>
      </trkpt>
      <trkpt lat="42.69049197435379" lon="-7.015041997656226">
        <ele>1019</ele>
        <time>2018-05-21T10:51:42Z</time>
      </trkpt>
      <trkpt lat="42.690355014055967" lon="-7.015019031241536">
        <ele>1003</ele>
        <time>2018-05-21T10:51:46Z</time>
      </trkpt>
      <trkpt lat="42.690327018499374" lon="-7.015006961300969">
        <ele>1003</ele>
        <time>2018-05-21T10:51:47Z</time>
      </trkpt>
      <trkpt lat="42.690252000465989" lon="-7.014977037906647">
        <ele>1003</ele>
        <time>2018-05-21T10:51:50Z</time>
      </trkpt>
      <trkpt lat="42.690213024616241" lon="-7.01496496796608">
        <ele>1003</ele>
        <time>2018-05-21T10:51:51Z</time>
      </trkpt>
      <trkpt lat="42.690175976604223" lon="-7.014953987672925">
        <ele>1003</ele>
        <time>2018-05-21T10:51:52Z</time>
      </trkpt>
      <trkpt lat="42.690139012411237" lon="-7.014935966581106">
        <ele>1003</ele>
        <time>2018-05-21T10:51:53Z</time>
      </trkpt>
      <trkpt lat="42.690100958570838" lon="-7.014902019873262">
        <ele>1003</ele>
        <time>2018-05-21T10:51:55Z</time>
      </trkpt>
      <trkpt lat="42.690072963014245" lon="-7.01487896963954">
        <ele>1003</ele>
        <time>2018-05-21T10:51:56Z</time>
      </trkpt>
      <trkpt lat="42.690058965235949" lon="-7.01483303681016">
        <ele>1003</ele>
        <time>2018-05-21T10:51:57Z</time>
      </trkpt>
      <trkpt lat="42.690027030184865" lon="-7.014799006283283">
        <ele>1003</ele>
        <time>2018-05-21T10:51:58Z</time>
      </trkpt>
      <trkpt lat="42.689997022971511" lon="-7.014776039868593">
        <ele>1003</ele>
        <time>2018-05-21T10:51:59Z</time>
      </trkpt>
      <trkpt lat="42.689962992444634" lon="-7.01475097797811">
        <ele>1003</ele>
        <time>2018-05-21T10:52:00Z</time>
      </trkpt>
      <trkpt lat="42.689832989126444" lon="-7.014593984931707">
        <ele>1003</ele>
        <time>2018-05-21T10:52:05Z</time>
      </trkpt>
      <trkpt lat="42.689768029376864" lon="-7.014459958299995">
        <ele>1010</ele>
        <time>2018-05-21T10:52:09Z</time>
      </trkpt>
      <trkpt lat="42.689712960273027" lon="-7.014295002445579">
        <ele>1010</ele>
        <time>2018-05-21T10:52:13Z</time>
      </trkpt>
      <trkpt lat="42.689635008573532" lon="-7.014163993299007">
        <ele>1010</ele>
        <time>2018-05-21T10:52:16Z</time>
      </trkpt>
      <trkpt lat="42.689540041610599" lon="-7.013965006917715">
        <ele>982</ele>
        <time>2018-05-21T10:52:21Z</time>
      </trkpt>
      <trkpt lat="42.689516991376877" lon="-7.013918990269303">
        <ele>982</ele>
        <time>2018-05-21T10:52:23Z</time>
      </trkpt>
      <trkpt lat="42.689492013305426" lon="-7.013859981670976">
        <ele>982</ele>
        <time>2018-05-21T10:52:24Z</time>
      </trkpt>
      <trkpt lat="42.689468963071704" lon="-7.013813965022564">
        <ele>982</ele>
        <time>2018-05-21T10:52:25Z</time>
      </trkpt>
      <trkpt lat="42.689454965293407" lon="-7.0137619972229">
        <ele>982</ele>
        <time>2018-05-21T10:52:27Z</time>
      </trkpt>
      <trkpt lat="42.689425041899085" lon="-7.013713968917728">
        <ele>982</ele>
        <time>2018-05-21T10:52:28Z</time>
      </trkpt>
      <trkpt lat="42.689406014978886" lon="-7.013668036088347">
        <ele>982</ele>
        <time>2018-05-21T10:52:29Z</time>
      </trkpt>
      <trkpt lat="42.689378019422293" lon="-7.01360902749002">
        <ele>986</ele>
        <time>2018-05-21T10:52:31Z</time>
      </trkpt>
      <trkpt lat="42.689359998330474" lon="-7.013556975871325">
        <ele>986</ele>
        <time>2018-05-21T10:52:32Z</time>
      </trkpt>
      <trkpt lat="42.68932999111712" lon="-7.0135029964149">
        <ele>986</ele>
        <time>2018-05-21T10:52:33Z</time>
      </trkpt>
      <trkpt lat="42.689321022480726" lon="-7.013452034443617">
        <ele>986</ele>
        <time>2018-05-21T10:52:34Z</time>
      </trkpt>
      <trkpt lat="42.689296966418624" lon="-7.013382967561483">
        <ele>986</ele>
        <time>2018-05-21T10:52:36Z</time>
      </trkpt>
      <trkpt lat="42.689283974468708" lon="-7.013342985883355">
        <ele>986</ele>
        <time>2018-05-21T10:52:37Z</time>
      </trkpt>
      <trkpt lat="42.689260002225637" lon="-7.013279031962156">
        <ele>986</ele>
        <time>2018-05-21T10:52:39Z</time>
      </trkpt>
      <trkpt lat="42.689249021932483" lon="-7.013228992000222">
        <ele>986</ele>
        <time>2018-05-21T10:52:40Z</time>
      </trkpt>
      <trkpt lat="42.689235024154186" lon="-7.013178030028939">
        <ele>986</ele>
        <time>2018-05-21T10:52:41Z</time>
      </trkpt>
      <trkpt lat="42.689209962263703" lon="-7.013130001723766">
        <ele>986</ele>
        <time>2018-05-21T10:52:42Z</time>
      </trkpt>
      <trkpt lat="42.689184984192252" lon="-7.013076022267342">
        <ele>986</ele>
        <time>2018-05-21T10:52:44Z</time>
      </trkpt>
      <trkpt lat="42.689166963100433" lon="-7.013036040589213">
        <ele>986</ele>
        <time>2018-05-21T10:52:45Z</time>
      </trkpt>
      <trkpt lat="42.689132010564208" lon="-7.013010978698731">
        <ele>986</ele>
        <time>2018-05-21T10:52:46Z</time>
      </trkpt>
      <trkpt lat="42.689094040542841" lon="-7.012988012284041">
        <ele>986</ele>
        <time>2018-05-21T10:52:47Z</time>
      </trkpt>
      <trkpt lat="42.68905003555119" lon="-7.012964962050319">
        <ele>986</ele>
        <time>2018-05-21T10:52:48Z</time>
      </trkpt>
      <trkpt lat="42.689017010852695" lon="-7.012941995635629">
        <ele>986</ele>
        <time>2018-05-21T10:52:50Z</time>
      </trkpt>
      <trkpt lat="42.688979962840676" lon="-7.012912994250655">
        <ele>986</ele>
        <time>2018-05-21T10:52:51Z</time>
      </trkpt>
      <trkpt lat="42.688946016132832" lon="-7.012895978987217">
        <ele>986</ele>
        <time>2018-05-21T10:52:52Z</time>
      </trkpt>
      <trkpt lat="42.68883696757257" lon="-7.012853985652328">
        <ele>986</ele>
        <time>2018-05-21T10:52:55Z</time>
      </trkpt>
      <trkpt lat="42.688703024759889" lon="-7.012814003974199">
        <ele>975</ele>
        <time>2018-05-21T10:52:59Z</time>
      </trkpt>
      <trkpt lat="42.688543014228344" lon="-7.012795982882381">
        <ele>975</ele>
        <time>2018-05-21T10:53:04Z</time>
      </trkpt>
      <trkpt lat="42.688370011746883" lon="-7.012748960405588">
        <ele>975</ele>
        <time>2018-05-21T10:53:09Z</time>
      </trkpt>
      <trkpt lat="42.68825501203537" lon="-7.012731023132801">
        <ele>975</ele>
        <time>2018-05-21T10:53:13Z</time>
      </trkpt>
      <trkpt lat="42.688071029260755" lon="-7.012679977342486">
        <ele>975</ele>
        <time>2018-05-21T10:53:18Z</time>
      </trkpt>
      <trkpt lat="42.687944965437055" lon="-7.012650975957513">
        <ele>975</ele>
        <time>2018-05-21T10:53:22Z</time>
      </trkpt>
      <trkpt lat="42.687849998474121" lon="-7.012650975957513">
        <ele>967</ele>
        <time>2018-05-21T10:53:25Z</time>
      </trkpt>
      <trkpt lat="42.687830971553922" lon="-7.012650975957513">
        <ele>967</ele>
        <time>2018-05-21T10:53:26Z</time>
      </trkpt>
      <trkpt lat="42.687786966562271" lon="-7.012659022584558">
        <ele>967</ele>
        <time>2018-05-21T10:53:27Z</time>
      </trkpt>
      <trkpt lat="42.687743967399001" lon="-7.012659022584558">
        <ele>967</ele>
        <time>2018-05-21T10:53:28Z</time>
      </trkpt>
      <trkpt lat="42.687719995155931" lon="-7.012687018141151">
        <ele>967</ele>
        <time>2018-05-21T10:53:29Z</time>
      </trkpt>
      <trkpt lat="42.687698034569621" lon="-7.012711996212602">
        <ele>967</ele>
        <time>2018-05-21T10:53:30Z</time>
      </trkpt>
      <trkpt lat="42.687666015699506" lon="-7.012736974284053">
        <ele>967</ele>
        <time>2018-05-21T10:53:31Z</time>
      </trkpt>
      <trkpt lat="42.687609018757939" lon="-7.012783996760845">
        <ele>967</ele>
        <time>2018-05-21T10:53:33Z</time>
      </trkpt>
      <trkpt lat="42.687544981017709" lon="-7.012838982045651">
        <ele>960</ele>
        <time>2018-05-21T10:53:35Z</time>
      </trkpt>
      <trkpt lat="42.687471974641085" lon="-7.012938978150487">
        <ele>960</ele>
        <time>2018-05-21T10:53:39Z</time>
      </trkpt>
      <trkpt lat="42.687465017661452" lon="-7.012947024777532">
        <ele>960</ele>
        <time>2018-05-21T10:53:39Z</time>
      </trkpt>
      <trkpt lat="42.687380025163293" lon="-7.012989018112421">
        <ele>960</ele>
        <time>2018-05-21T10:53:42Z</time>
      </trkpt>
      <trkpt lat="42.687263013795018" lon="-7.013035034760833">
        <ele>960</ele>
        <time>2018-05-21T10:53:45Z</time>
      </trkpt>
      <trkpt lat="42.687256978824735" lon="-7.013035034760833">
        <ele>960</ele>
        <time>2018-05-21T10:53:46Z</time>
      </trkpt>
      <trkpt lat="42.687128987163305" lon="-7.013035034760833">
        <ele>960</ele>
        <time>2018-05-21T10:53:49Z</time>
      </trkpt>
      <trkpt lat="42.687023039907217" lon="-7.013001004233956">
        <ele>944</ele>
        <time>2018-05-21T10:53:53Z</time>
      </trkpt>
      <trkpt lat="42.686937963590026" lon="-7.012932021170855">
        <ele>944</ele>
        <time>2018-05-21T10:53:56Z</time>
      </trkpt>
      <trkpt lat="42.686916003003716" lon="-7.012920035049319">
        <ele>944</ele>
        <time>2018-05-21T10:53:56Z</time>
      </trkpt>
      <trkpt lat="42.686860011890531" lon="-7.01283797621727">
        <ele>944</ele>
        <time>2018-05-21T10:53:59Z</time>
      </trkpt>
      <trkpt lat="42.686852971091866" lon="-7.012830013409257">
        <ele>944</ele>
        <time>2018-05-21T10:53:59Z</time>
      </trkpt>
      <trkpt lat="42.686776025220752" lon="-7.012744015082717">
        <ele>956</ele>
        <time>2018-05-21T10:54:02Z</time>
      </trkpt>
      <trkpt lat="42.686708969995379" lon="-7.012620968744159">
        <ele>956</ele>
        <time>2018-05-21T10:54:05Z</time>
      </trkpt>
      <trkpt lat="42.686624983325601" lon="-7.012531030923128">
        <ele>956</ele>
        <time>2018-05-21T10:54:09Z</time>
      </trkpt>
      <trkpt lat="42.686605034396052" lon="-7.012489037588239">
        <ele>956</ele>
        <time>2018-05-21T10:54:10Z</time>
      </trkpt>
      <trkpt lat="42.686586007475853" lon="-7.012406978756189">
        <ele>956</ele>
        <time>2018-05-21T10:54:12Z</time>
      </trkpt>
      <trkpt lat="42.686586007475853" lon="-7.012352999299765">
        <ele>956</ele>
        <time>2018-05-21T10:54:13Z</time>
      </trkpt>
      <trkpt lat="42.686605034396052" lon="-7.01229901984334">
        <ele>956</ele>
        <time>2018-05-21T10:54:14Z</time>
      </trkpt>
      <trkpt lat="42.686622971668839" lon="-7.012262977659702">
        <ele>956</ele>
        <time>2018-05-21T10:54:15Z</time>
      </trkpt>
      <trkpt lat="42.686655996367335" lon="-7.012240011245012">
        <ele>956</ele>
        <time>2018-05-21T10:54:16Z</time>
      </trkpt>
      <trkpt lat="42.686683991923928" lon="-7.012204974889755">
        <ele>956</ele>
        <time>2018-05-21T10:54:18Z</time>
      </trkpt>
      <trkpt lat="42.686711987480521" lon="-7.012158958241344">
        <ele>956</ele>
        <time>2018-05-21T10:54:19Z</time>
      </trkpt>
      <trkpt lat="42.686735037714243" lon="-7.012114031240344">
        <ele>956</ele>
        <time>2018-05-21T10:54:20Z</time>
      </trkpt>
      <trkpt lat="42.686750963330269" lon="-7.012066002935171">
        <ele>956</ele>
        <time>2018-05-21T10:54:21Z</time>
      </trkpt>
      <trkpt lat="42.686774013563991" lon="-7.012029038742185">
        <ele>956</ele>
        <time>2018-05-21T10:54:22Z</time>
      </trkpt>
      <trkpt lat="42.686796979978681" lon="-7.011988973245025">
        <ele>946</ele>
        <time>2018-05-21T10:54:23Z</time>
      </trkpt>
      <trkpt lat="42.68681600689888" lon="-7.011943040415645">
        <ele>946</ele>
        <time>2018-05-21T10:54:25Z</time>
      </trkpt>
      <trkpt lat="42.686835033819079" lon="-7.011888977140188">
        <ele>946</ele>
        <time>2018-05-21T10:54:26Z</time>
      </trkpt>
      <trkpt lat="42.686849031597376" lon="-7.011838015168905">
        <ele>946</ele>
        <time>2018-05-21T10:54:27Z</time>
      </trkpt>
      <trkpt lat="42.686858000233769" lon="-7.01178596355021">
        <ele>946</ele>
        <time>2018-05-21T10:54:28Z</time>
      </trkpt>
      <trkpt lat="42.686871998012066" lon="-7.011745981872082">
        <ele>946</ele>
        <time>2018-05-21T10:54:29Z</time>
      </trkpt>
      <trkpt lat="42.686871998012066" lon="-7.011689990758896">
        <ele>946</ele>
        <time>2018-05-21T10:54:30Z</time>
      </trkpt>
      <trkpt lat="42.686871998012066" lon="-7.011636011302471">
        <ele>946</ele>
        <time>2018-05-21T10:54:32Z</time>
      </trkpt>
      <trkpt lat="42.686821036040783" lon="-7.011518999934197">
        <ele>946</ele>
        <time>2018-05-21T10:54:35Z</time>
      </trkpt>
      <trkpt lat="42.686779964715242" lon="-7.011411963030696">
        <ele>946</ele>
        <time>2018-05-21T10:54:37Z</time>
      </trkpt>
      <trkpt lat="42.686723973602057" lon="-7.01126997359097">
        <ele>946</ele>
        <time>2018-05-21T10:54:41Z</time>
      </trkpt>
      <trkpt lat="42.686652978882194" lon="-7.011172994971275">
        <ele>940</ele>
        <time>2018-05-21T10:54:44Z</time>
      </trkpt>
      <trkpt lat="42.686587013304234" lon="-7.011050032451749">
        <ele>940</ele>
        <time>2018-05-21T10:54:47Z</time>
      </trkpt>
      <trkpt lat="42.686582989990711" lon="-7.011050032451749">
        <ele>940</ele>
        <time>2018-05-21T10:54:47Z</time>
      </trkpt>
      <trkpt lat="42.68649498000741" lon="-7.010891027748585">
        <ele>940</ele>
        <time>2018-05-21T10:54:52Z</time>
      </trkpt>
      <trkpt lat="42.686480982229114" lon="-7.010855991393328">
        <ele>940</ele>
        <time>2018-05-21T10:54:53Z</time>
      </trkpt>
      <trkpt lat="42.686458015814424" lon="-7.0108160097152">
        <ele>940</ele>
        <time>2018-05-21T10:54:54Z</time>
      </trkpt>
      <trkpt lat="42.686424991115928" lon="-7.010792959481478">
        <ele>940</ele>
        <time>2018-05-21T10:54:55Z</time>
      </trkpt>
      <trkpt lat="42.686388026922941" lon="-7.01075297780335">
        <ele>940</ele>
        <time>2018-05-21T10:54:56Z</time>
      </trkpt>
      <trkpt lat="42.686364976689219" lon="-7.010706961154938">
        <ele>940</ele>
        <time>2018-05-21T10:54:58Z</time>
      </trkpt>
      <trkpt lat="42.686334969475865" lon="-7.010671002790332">
        <ele>940</ele>
        <time>2018-05-21T10:54:59Z</time>
      </trkpt>
      <trkpt lat="42.686301022768021" lon="-7.010639989748597">
        <ele>940</ele>
        <time>2018-05-21T10:55:00Z</time>
      </trkpt>
      <trkpt lat="42.686266992241144" lon="-7.010610988363624">
        <ele>921</ele>
        <time>2018-05-21T10:55:01Z</time>
      </trkpt>
      <trkpt lat="42.686219969764352" lon="-7.010593973100185">
        <ele>921</ele>
        <time>2018-05-21T10:55:03Z</time>
      </trkpt>
      <trkpt lat="42.686183005571365" lon="-7.01058198697865">
        <ele>921</ele>
        <time>2018-05-21T10:55:04Z</time>
      </trkpt>
      <trkpt lat="42.686139000579715" lon="-7.010564971715212">
        <ele>921</ele>
        <time>2018-05-21T10:55:05Z</time>
      </trkpt>
      <trkpt lat="42.686104970052838" lon="-7.010548040270805">
        <ele>921</ele>
        <time>2018-05-21T10:55:06Z</time>
      </trkpt>
      <trkpt lat="42.686062976717949" lon="-7.010514009743929">
        <ele>921</ele>
        <time>2018-05-21T10:55:08Z</time>
      </trkpt>
      <trkpt lat="42.686024000868201" lon="-7.010482996702194">
        <ele>921</ele>
        <time>2018-05-21T10:55:09Z</time>
      </trkpt>
      <trkpt lat="42.685987036675215" lon="-7.010476961731911">
        <ele>921</ele>
        <time>2018-05-21T10:55:10Z</time>
      </trkpt>
      <trkpt lat="42.685940014198422" lon="-7.010453995317221">
        <ele>921</ele>
        <time>2018-05-21T10:55:12Z</time>
      </trkpt>
      <trkpt lat="42.685898020863533" lon="-7.010436980053783">
        <ele>921</ele>
        <time>2018-05-21T10:55:13Z</time>
      </trkpt>
      <trkpt lat="42.685846975073218" lon="-7.010414013639092">
        <ele>921</ele>
        <time>2018-05-21T10:55:15Z</time>
      </trkpt>
      <trkpt lat="42.685813028365374" lon="-7.010378977283835">
        <ele>921</ele>
        <time>2018-05-21T10:55:16Z</time>
      </trkpt>
      <trkpt lat="42.685777992010117" lon="-7.010348970070481">
        <ele>921</ele>
        <time>2018-05-21T10:55:17Z</time>
      </trkpt>
      <trkpt lat="42.685748990625143" lon="-7.010314017534256">
        <ele>921</ele>
        <time>2018-05-21T10:55:18Z</time>
      </trkpt>
      <trkpt lat="42.685711020603776" lon="-7.010303037241101">
        <ele>921</ele>
        <time>2018-05-21T10:55:19Z</time>
      </trkpt>
      <trkpt lat="42.685668021440506" lon="-7.010265989229083">
        <ele>921</ele>
        <time>2018-05-21T10:55:21Z</time>
      </trkpt>
      <trkpt lat="42.68563499674201" lon="-7.010231958702207">
        <ele>921</ele>
        <time>2018-05-21T10:55:22Z</time>
      </trkpt>
      <trkpt lat="42.685600966215134" lon="-7.01019499450922">
        <ele>921</ele>
        <time>2018-05-21T10:55:23Z</time>
      </trkpt>
      <trkpt lat="42.68557095900178" lon="-7.010164987295866">
        <ele>921</ele>
        <time>2018-05-21T10:55:25Z</time>
      </trkpt>
      <trkpt lat="42.685539023950696" lon="-7.010142020881176">
        <ele>921</ele>
        <time>2018-05-21T10:55:26Z</time>
      </trkpt>
      <trkpt lat="42.685495018959045" lon="-7.010113019496203">
        <ele>921</ele>
        <time>2018-05-21T10:55:27Z</time>
      </trkpt>
      <trkpt lat="42.68546199426055" lon="-7.010084018111229">
        <ele>914</ele>
        <time>2018-05-21T10:55:28Z</time>
      </trkpt>
      <trkpt lat="42.685425030067563" lon="-7.010038001462817">
        <ele>914</ele>
        <time>2018-05-21T10:55:30Z</time>
      </trkpt>
      <trkpt lat="42.685383036732674" lon="-7.010003970935941">
        <ele>914</ele>
        <time>2018-05-21T10:55:31Z</time>
      </trkpt>
      <trkpt lat="42.685352023690939" lon="-7.009991984814405">
        <ele>914</ele>
        <time>2018-05-21T10:55:32Z</time>
      </trkpt>
      <trkpt lat="42.685318998992443" lon="-7.009974969550967">
        <ele>914</ele>
        <time>2018-05-21T10:55:33Z</time>
      </trkpt>
      <trkpt lat="42.685280023142695" lon="-7.009952003136277">
        <ele>914</ele>
        <time>2018-05-21T10:55:34Z</time>
      </trkpt>
      <trkpt lat="42.685245992615819" lon="-7.009924007579684">
        <ele>914</ele>
        <time>2018-05-21T10:55:36Z</time>
      </trkpt>
      <trkpt lat="42.685211962088943" lon="-7.009899029508233">
        <ele>914</ele>
        <time>2018-05-21T10:55:37Z</time>
      </trkpt>
      <trkpt lat="42.685179021209478" lon="-7.009875979274511">
        <ele>914</ele>
        <time>2018-05-21T10:55:38Z</time>
      </trkpt>
      <trkpt lat="42.68513803370297" lon="-7.009856030344963">
        <ele>914</ele>
        <time>2018-05-21T10:55:39Z</time>
      </trkpt>
      <trkpt lat="42.685106014832854" lon="-7.00982803478837">
        <ele>914</ele>
        <time>2018-05-21T10:55:40Z</time>
      </trkpt>
      <trkpt lat="42.685070978477597" lon="-7.009799033403397">
        <ele>914</ele>
        <time>2018-05-21T10:55:41Z</time>
      </trkpt>
      <trkpt lat="42.685048012062907" lon="-7.009758967906237">
        <ele>914</ele>
        <time>2018-05-21T10:55:43Z</time>
      </trkpt>
      <trkpt lat="42.685029990971088" lon="-7.009713035076857">
        <ele>914</ele>
        <time>2018-05-21T10:55:44Z</time>
      </trkpt>
      <trkpt lat="42.685006018728018" lon="-7.009667018428445">
        <ele>914</ele>
        <time>2018-05-21T10:55:45Z</time>
      </trkpt>
      <trkpt lat="42.684975005686283" lon="-7.009616978466511">
        <ele>914</ele>
        <time>2018-05-21T10:55:46Z</time>
      </trkpt>
      <trkpt lat="42.68494701012969" lon="-7.009594012051821">
        <ele>914</ele>
        <time>2018-05-21T10:55:47Z</time>
      </trkpt>
      <trkpt lat="42.684913985431194" lon="-7.009576996788383">
        <ele>914</ele>
        <time>2018-05-21T10:55:48Z</time>
      </trkpt>
      <trkpt lat="42.684875009581447" lon="-7.009565010666847">
        <ele>914</ele>
        <time>2018-05-21T10:55:49Z</time>
      </trkpt>
      <trkpt lat="42.684842990711331" lon="-7.009552018716931">
        <ele>914</ele>
        <time>2018-05-21T10:55:50Z</time>
      </trkpt>
      <trkpt lat="42.684808960184455" lon="-7.009531985968351">
        <ele>912</ele>
        <time>2018-05-21T10:55:52Z</time>
      </trkpt>
      <trkpt lat="42.684777025133371" lon="-7.009512959048152">
        <ele>912</ele>
        <time>2018-05-21T10:55:53Z</time>
      </trkpt>
      <trkpt lat="42.684749029576778" lon="-7.009472977370024">
        <ele>912</ele>
        <time>2018-05-21T10:55:54Z</time>
      </trkpt>
      <trkpt lat="42.684720028191805" lon="-7.009441964328289">
        <ele>912</ele>
        <time>2018-05-21T10:55:55Z</time>
      </trkpt>
      <trkpt lat="42.684676023200154" lon="-7.009362000972033">
        <ele>912</ele>
        <time>2018-05-21T10:55:57Z</time>
      </trkpt>
      <trkpt lat="42.684666970744729" lon="-7.009230991825461">
        <ele>912</ele>
        <time>2018-05-21T10:56:00Z</time>
      </trkpt>
      <trkpt lat="42.684652972966433" lon="-7.009136024862528">
        <ele>912</ele>
        <time>2018-05-21T10:56:02Z</time>
      </trkpt>
      <trkpt lat="42.684649033471942" lon="-7.00899001210928">
        <ele>912</ele>
        <time>2018-05-21T10:56:05Z</time>
      </trkpt>
      <trkpt lat="42.684630006551743" lon="-7.008821032941341">
        <ele>912</ele>
        <time>2018-05-21T10:56:09Z</time>
      </trkpt>
      <trkpt lat="42.684575021266937" lon="-7.008821032941341">
        <ele>903</ele>
        <time>2018-05-21T10:56:11Z</time>
      </trkpt>
      <trkpt lat="42.684575021266937" lon="-7.008821032941341">
        <ele>903</ele>
        <time>2018-05-22T06:00:00Z</time>
      </trkpt>
      <trkpt lat="42.684563035145402" lon="-7.008821032941341">
        <ele>903</ele>
        <time>2018-05-22T06:00:00Z</time>
      </trkpt>
      <trkpt lat="42.684471001848578" lon="-7.008802006021142">
        <ele>903</ele>
        <time>2018-05-22T06:00:03Z</time>
      </trkpt>
      <trkpt lat="42.684395983815193" lon="-7.008784990757704">
        <ele>903</ele>
        <time>2018-05-22T06:00:05Z</time>
      </trkpt>
      <trkpt lat="42.684320965781808" lon="-7.008724976330996">
        <ele>903</ele>
        <time>2018-05-22T06:00:07Z</time>
      </trkpt>
      <trkpt lat="42.68430202268064" lon="-7.008652975782752">
        <ele>896</ele>
        <time>2018-05-22T06:00:09Z</time>
      </trkpt>
      <trkpt lat="42.684291964396834" lon="-7.008638978004456">
        <ele>896</ele>
        <time>2018-05-22T06:00:10Z</time>
      </trkpt>
      <trkpt lat="42.684267992153764" lon="-7.008607964962721">
        <ele>896</ele>
        <time>2018-05-22T06:00:11Z</time>
      </trkpt>
      <trkpt lat="42.684263968840241" lon="-7.008554991334677">
        <ele>896</ele>
        <time>2018-05-22T06:00:12Z</time>
      </trkpt>
      <trkpt lat="42.684253994375467" lon="-7.008503023535013">
        <ele>896</ele>
        <time>2018-05-22T06:00:13Z</time>
      </trkpt>
      <trkpt lat="42.684249971061945" lon="-7.008434040471911">
        <ele>896</ele>
        <time>2018-05-22T06:00:14Z</time>
      </trkpt>
      <trkpt lat="42.684249971061945" lon="-7.008376959711313">
        <ele>896</ele>
        <time>2018-05-22T06:00:16Z</time>
      </trkpt>
      <trkpt lat="42.684249971061945" lon="-7.008317029103637">
        <ele>896</ele>
        <time>2018-05-22T06:00:17Z</time>
      </trkpt>
      <trkpt lat="42.684249971061945" lon="-7.008258020505309">
        <ele>896</ele>
        <time>2018-05-22T06:00:18Z</time>
      </trkpt>
      <trkpt lat="42.684239996597171" lon="-7.008200017735362">
        <ele>896</ele>
        <time>2018-05-22T06:00:20Z</time>
      </trkpt>
      <trkpt lat="42.684235973283648" lon="-7.008145032450557">
        <ele>896</ele>
        <time>2018-05-22T06:00:21Z</time>
      </trkpt>
      <trkpt lat="42.684225998818874" lon="-7.008097004145384">
        <ele>896</ele>
        <time>2018-05-22T06:00:22Z</time>
      </trkpt>
      <trkpt lat="42.684203032404184" lon="-7.00804503634572">
        <ele>896</ele>
        <time>2018-05-22T06:00:23Z</time>
      </trkpt>
      <trkpt lat="42.68417302519083" lon="-7.008014023303986">
        <ele>896</ele>
        <time>2018-05-22T06:00:24Z</time>
      </trkpt>
      <trkpt lat="42.684062970802188" lon="-7.007855018600822">
        <ele>893</ele>
        <time>2018-05-22T06:00:29Z</time>
      </trkpt>
      <trkpt lat="42.683988036587834" lon="-7.007727026939392">
        <ele>893</ele>
        <time>2018-05-22T06:00:33Z</time>
      </trkpt>
      <trkpt lat="42.68391503021121" lon="-7.007643962278962">
        <ele>893</ele>
        <time>2018-05-22T06:00:36Z</time>
      </trkpt>
      <trkpt lat="42.683839006349444" lon="-7.0075280405581">
        <ele>893</ele>
        <time>2018-05-22T06:00:39Z</time>
      </trkpt>
      <trkpt lat="42.683819979429245" lon="-7.007493004202843">
        <ele>893</ele>
        <time>2018-05-22T06:00:40Z</time>
      </trkpt>
      <trkpt lat="42.68378896638751" lon="-7.007459979504347">
        <ele>893</ele>
        <time>2018-05-22T06:00:41Z</time>
      </trkpt>
      <trkpt lat="42.683760970830917" lon="-7.007426032796502">
        <ele>882</ele>
        <time>2018-05-22T06:00:42Z</time>
      </trkpt>
      <trkpt lat="42.683728029951453" lon="-7.007385967299342">
        <ele>882</ele>
        <time>2018-05-22T06:00:44Z</time>
      </trkpt>
      <trkpt lat="42.68370003439486" lon="-7.00735897757113">
        <ele>882</ele>
        <time>2018-05-22T06:00:45Z</time>
      </trkpt>
      <trkpt lat="42.683658041059971" lon="-7.007353026419878">
        <ele>882</ele>
        <time>2018-05-22T06:00:46Z</time>
      </trkpt>
      <trkpt lat="42.68361596390605" lon="-7.007353026419878">
        <ele>882</ele>
        <time>2018-05-22T06:00:47Z</time>
      </trkpt>
      <trkpt lat="42.68357296474278" lon="-7.007353026419878">
        <ele>882</ele>
        <time>2018-05-22T06:00:48Z</time>
      </trkpt>
      <trkpt lat="42.683538012206554" lon="-7.00735897757113">
        <ele>882</ele>
        <time>2018-05-22T06:00:49Z</time>
      </trkpt>
      <trkpt lat="42.683509010821581" lon="-7.007384039461613">
        <ele>882</ele>
        <time>2018-05-22T06:00:50Z</time>
      </trkpt>
      <trkpt lat="42.683468023315072" lon="-7.007407005876303">
        <ele>882</ele>
        <time>2018-05-22T06:00:52Z</time>
      </trkpt>
      <trkpt lat="42.683451008051634" lon="-7.00744497589767">
        <ele>882</ele>
        <time>2018-05-22T06:00:53Z</time>
      </trkpt>
      <trkpt lat="42.683451008051634" lon="-7.007497027516365">
        <ele>882</ele>
        <time>2018-05-22T06:00:54Z</time>
      </trkpt>
      <trkpt lat="42.68344203941524" lon="-7.007553018629551">
        <ele>882</ele>
        <time>2018-05-22T06:00:55Z</time>
      </trkpt>
      <trkpt lat="42.683431981131434" lon="-7.007605992257595">
        <ele>882</ele>
        <time>2018-05-22T06:00:56Z</time>
      </trkpt>
      <trkpt lat="42.683417983353138" lon="-7.007674975320697">
        <ele>882</ele>
        <time>2018-05-22T06:00:58Z</time>
      </trkpt>
      <trkpt lat="42.683409014716744" lon="-7.007720991969109">
        <ele>882</ele>
        <time>2018-05-22T06:00:59Z</time>
      </trkpt>
      <trkpt lat="42.683388981968164" lon="-7.007762985303998">
        <ele>882</ele>
        <time>2018-05-22T06:01:00Z</time>
      </trkpt>
      <trkpt lat="42.683353023603559" lon="-7.007771031931043">
        <ele>882</ele>
        <time>2018-05-22T06:01:01Z</time>
      </trkpt>
      <trkpt lat="42.68331496976316" lon="-7.007764996960759">
        <ele>882</ele>
        <time>2018-05-22T06:01:02Z</time>
      </trkpt>
      <trkpt lat="42.683278005570173" lon="-7.007759967818856">
        <ele>882</ele>
        <time>2018-05-22T06:01:03Z</time>
      </trkpt>
      <trkpt lat="42.683238023892045" lon="-7.007742030546069">
        <ele>882</ele>
        <time>2018-05-22T06:01:05Z</time>
      </trkpt>
      <trkpt lat="42.683204999193549" lon="-7.007714034989476">
        <ele>882</ele>
        <time>2018-05-22T06:01:06Z</time>
      </trkpt>
      <trkpt lat="42.68318597227335" lon="-7.007668018341065">
        <ele>882</ele>
        <time>2018-05-22T06:01:07Z</time>
      </trkpt>
      <trkpt lat="42.683171974495053" lon="-7.007601968944073">
        <ele>882</ele>
        <time>2018-05-22T06:01:08Z</time>
      </trkpt>
      <trkpt lat="42.683149008080363" lon="-7.007561987265945">
        <ele>882</ele>
        <time>2018-05-22T06:01:10Z</time>
      </trkpt>
      <trkpt lat="42.68312101252377" lon="-7.0075280405581">
        <ele>882</ele>
        <time>2018-05-22T06:01:11Z</time>
      </trkpt>
      <trkpt lat="42.683093016967177" lon="-7.007504990324378">
        <ele>882</ele>
        <time>2018-05-22T06:01:12Z</time>
      </trkpt>
      <trkpt lat="42.683065021410584" lon="-7.007475988939405">
        <ele>882</ele>
        <time>2018-05-22T06:01:13Z</time>
      </trkpt>
      <trkpt lat="42.683037025853992" lon="-7.00744497589767">
        <ele>882</ele>
        <time>2018-05-22T06:01:14Z</time>
      </trkpt>
      <trkpt lat="42.682999977841973" lon="-7.007411029189825">
        <ele>882</ele>
        <time>2018-05-22T06:01:15Z</time>
      </trkpt>
      <trkpt lat="42.68297198228538" lon="-7.007370963692665">
        <ele>882</ele>
        <time>2018-05-22T06:01:16Z</time>
      </trkpt>
      <trkpt lat="42.682935018092394" lon="-7.00733601115644">
        <ele>863</ele>
        <time>2018-05-22T06:01:18Z</time>
      </trkpt>
      <trkpt lat="42.682907022535801" lon="-7.007296029478312">
        <ele>863</ele>
        <time>2018-05-22T06:01:19Z</time>
      </trkpt>
      <trkpt lat="42.682873997837305" lon="-7.007261998951435">
        <ele>863</ele>
        <time>2018-05-22T06:01:20Z</time>
      </trkpt>
      <trkpt lat="42.682849019765854" lon="-7.007226962596178">
        <ele>863</ele>
        <time>2018-05-22T06:01:21Z</time>
      </trkpt>
      <trkpt lat="42.682814989238977" lon="-7.007179018110037">
        <ele>863</ele>
        <time>2018-05-22T06:01:23Z</time>
      </trkpt>
      <trkpt lat="42.68277601338923" lon="-7.007150016725063">
        <ele>863</ele>
        <time>2018-05-22T06:01:24Z</time>
      </trkpt>
      <trkpt lat="42.682742988690734" lon="-7.007110035046935">
        <ele>863</ele>
        <time>2018-05-22T06:01:25Z</time>
      </trkpt>
      <trkpt lat="42.682714993134141" lon="-7.007076004520059">
        <ele>863</ele>
        <time>2018-05-22T06:01:27Z</time>
      </trkpt>
      <trkpt lat="42.68269001506269" lon="-7.007044991478324">
        <ele>861</ele>
        <time>2018-05-22T06:01:28Z</time>
      </trkpt>
      <trkpt lat="42.682656990364194" lon="-7.007010960951448">
        <ele>861</ele>
        <time>2018-05-22T06:01:29Z</time>
      </trkpt>
      <trkpt lat="42.682634023949504" lon="-7.006976008415222">
        <ele>861</ele>
        <time>2018-05-22T06:01:30Z</time>
      </trkpt>
      <trkpt lat="42.682616002857685" lon="-7.006924040615559">
        <ele>861</ele>
        <time>2018-05-22T06:01:31Z</time>
      </trkpt>
      <trkpt lat="42.682588007301092" lon="-7.006883975118399">
        <ele>861</ele>
        <time>2018-05-22T06:01:32Z</time>
      </trkpt>
      <trkpt lat="42.682563029229641" lon="-7.00684399344027">
        <ele>861</ele>
        <time>2018-05-22T06:01:33Z</time>
      </trkpt>
      <trkpt lat="42.682492034509778" lon="-7.006726982071996">
        <ele>861</ele>
        <time>2018-05-22T06:01:37Z</time>
      </trkpt>
      <trkpt lat="42.682395977899432" lon="-7.006616005674005">
        <ele>861</ele>
        <time>2018-05-22T06:01:41Z</time>
      </trkpt>
      <trkpt lat="42.682300005108118" lon="-7.006351975724101">
        <ele>861</ele>
        <time>2018-05-22T06:01:47Z</time>
      </trkpt>
      <trkpt lat="42.682286007329822" lon="-7.006329009309411">
        <ele>861</ele>
        <time>2018-05-22T06:01:48Z</time>
      </trkpt>
      <trkpt lat="42.682230016216636" lon="-7.006231024861336">
        <ele>865</ele>
        <time>2018-05-22T06:01:51Z</time>
      </trkpt>
      <trkpt lat="42.682205960154533" lon="-7.006190959364176">
        <ele>865</ele>
        <time>2018-05-22T06:01:52Z</time>
      </trkpt>
      <trkpt lat="42.682168995961547" lon="-7.006156006827951">
        <ele>865</ele>
        <time>2018-05-22T06:01:53Z</time>
      </trkpt>
      <trkpt lat="42.682118033990264" lon="-7.006109990179539">
        <ele>834</ele>
        <time>2018-05-22T06:01:55Z</time>
      </trkpt>
      <trkpt lat="42.682079980149865" lon="-7.006070008501411">
        <ele>834</ele>
        <time>2018-05-22T06:01:57Z</time>
      </trkpt>
      <trkpt lat="42.68204796127975" lon="-7.006023991852999">
        <ele>834</ele>
        <time>2018-05-22T06:01:58Z</time>
      </trkpt>
      <trkpt lat="42.682015020400286" lon="-7.005989961326122">
        <ele>834</ele>
        <time>2018-05-22T06:01:59Z</time>
      </trkpt>
      <trkpt lat="42.681977972388268" lon="-7.005955008789897">
        <ele>834</ele>
        <time>2018-05-22T06:02:01Z</time>
      </trkpt>
      <trkpt lat="42.681936984881759" lon="-7.005960959941149">
        <ele>834</ele>
        <time>2018-05-22T06:02:02Z</time>
      </trkpt>
      <trkpt lat="42.68189700320363" lon="-7.005973029881716">
        <ele>834</ele>
        <time>2018-05-22T06:02:03Z</time>
      </trkpt>
      <trkpt lat="42.68187596462667" lon="-7.006013011559844">
        <ele>834</ele>
        <time>2018-05-22T06:02:04Z</time>
      </trkpt>
      <trkpt lat="42.68187596462667" lon="-7.006064979359508">
        <ele>834</ele>
        <time>2018-05-22T06:02:05Z</time>
      </trkpt>
      <trkpt lat="42.68187596462667" lon="-7.006123987957835">
        <ele>834</ele>
        <time>2018-05-22T06:02:07Z</time>
      </trkpt>
      <trkpt lat="42.68187596462667" lon="-7.006180984899402">
        <ele>834</ele>
        <time>2018-05-22T06:02:08Z</time>
      </trkpt>
      <trkpt lat="42.681886022910476" lon="-7.006233036518097">
        <ele>834</ele>
        <time>2018-05-22T06:02:09Z</time>
      </trkpt>
      <trkpt lat="42.681886022910476" lon="-7.006302019581199">
        <ele>850</ele>
        <time>2018-05-22T06:02:11Z</time>
      </trkpt>
      <trkpt lat="42.681886022910476" lon="-7.006353987380862">
        <ele>850</ele>
        <time>2018-05-22T06:02:12Z</time>
      </trkpt>
      <trkpt lat="42.681866995990276" lon="-7.006400004029274">
        <ele>850</ele>
        <time>2018-05-22T06:02:13Z</time>
      </trkpt>
      <trkpt lat="42.6818329654634" lon="-7.006419030949473">
        <ele>850</ele>
        <time>2018-05-22T06:02:14Z</time>
      </trkpt>
      <trkpt lat="42.68179097212851" lon="-7.006402015686035">
        <ele>850</ele>
        <time>2018-05-22T06:02:16Z</time>
      </trkpt>
      <trkpt lat="42.681754007935524" lon="-7.006361028179526">
        <ele>850</ele>
        <time>2018-05-22T06:02:17Z</time>
      </trkpt>
      <trkpt lat="42.681718971580267" lon="-7.00632699765265">
        <ele>850</ele>
        <time>2018-05-22T06:02:18Z</time>
      </trkpt>
      <trkpt lat="42.681687036529183" lon="-7.006297996267676">
        <ele>850</ele>
        <time>2018-05-22T06:02:20Z</time>
      </trkpt>
      <trkpt lat="42.68165904097259" lon="-7.0062639657408">
        <ele>850</ele>
        <time>2018-05-22T06:02:21Z</time>
      </trkpt>
      <trkpt lat="42.681626016274095" lon="-7.00621803291142">
        <ele>834</ele>
        <time>2018-05-22T06:02:22Z</time>
      </trkpt>
      <trkpt lat="42.681602966040373" lon="-7.00617796741426">
        <ele>834</ele>
        <time>2018-05-22T06:02:23Z</time>
      </trkpt>
      <trkpt lat="42.681570025160909" lon="-7.00613203458488">
        <ele>834</ele>
        <time>2018-05-22T06:02:25Z</time>
      </trkpt>
      <trkpt lat="42.681546974927187" lon="-7.006090041249991">
        <ele>834</ele>
        <time>2018-05-22T06:02:26Z</time>
      </trkpt>
      <trkpt lat="42.681528031826019" lon="-7.006037989631295">
        <ele>834</ele>
        <time>2018-05-22T06:02:27Z</time>
      </trkpt>
      <trkpt lat="42.681516967713833" lon="-7.005984010174871">
        <ele>834</ele>
        <time>2018-05-22T06:02:28Z</time>
      </trkpt>
      <trkpt lat="42.681502969935536" lon="-7.005931958556175">
        <ele>834</ele>
        <time>2018-05-22T06:02:29Z</time>
      </trkpt>
      <trkpt lat="42.681483021005988" lon="-7.005878984928131">
        <ele>834</ele>
        <time>2018-05-22T06:02:31Z</time>
      </trkpt>
      <trkpt lat="42.681463994085789" lon="-7.005832968279719">
        <ele>834</ele>
        <time>2018-05-22T06:02:32Z</time>
      </trkpt>
      <trkpt lat="42.681441027671099" lon="-7.005751999095082">
        <ele>834</ele>
        <time>2018-05-22T06:02:34Z</time>
      </trkpt>
      <trkpt lat="42.681413032114506" lon="-7.005705982446671">
        <ele>834</ele>
        <time>2018-05-22T06:02:35Z</time>
      </trkpt>
      <trkpt lat="42.681389981880784" lon="-7.005666000768542">
        <ele>834</ele>
        <time>2018-05-22T06:02:36Z</time>
      </trkpt>
      <trkpt lat="42.681371038779616" lon="-7.005615038797259">
        <ele>834</ele>
        <time>2018-05-22T06:02:38Z</time>
      </trkpt>
      <trkpt lat="42.681361986324191" lon="-7.005569022148848">
        <ele>834</ele>
        <time>2018-05-22T06:02:39Z</time>
      </trkpt>
      <trkpt lat="42.68133801408112" lon="-7.005528034642339">
        <ele>834</ele>
        <time>2018-05-22T06:02:40Z</time>
      </trkpt>
      <trkpt lat="42.681317981332541" lon="-7.005486041307449">
        <ele>834</ele>
        <time>2018-05-22T06:02:41Z</time>
      </trkpt>
      <trkpt lat="42.68129501491785" lon="-7.005452010780573">
        <ele>850</ele>
        <time>2018-05-22T06:02:42Z</time>
      </trkpt>
      <trkpt lat="42.681259978562593" lon="-7.005412029102445">
        <ele>850</ele>
        <time>2018-05-22T06:02:43Z</time>
      </trkpt>
      <trkpt lat="42.681231983006001" lon="-7.005376992747188">
        <ele>850</ele>
        <time>2018-05-22T06:02:44Z</time>
      </trkpt>
      <trkpt lat="42.681189989671111" lon="-7.005342962220311">
        <ele>850</ele>
        <time>2018-05-22T06:02:46Z</time>
      </trkpt>
      <trkpt lat="42.681155959144235" lon="-7.005319995805621">
        <ele>850</ele>
        <time>2018-05-22T06:02:47Z</time>
      </trkpt>
      <trkpt lat="42.681116983294487" lon="-7.005299963057041">
        <ele>850</ele>
        <time>2018-05-22T06:02:48Z</time>
      </trkpt>
      <trkpt lat="42.681088987737894" lon="-7.005259981378913">
        <ele>820</ele>
        <time>2018-05-22T06:02:49Z</time>
      </trkpt>
      <trkpt lat="42.681052023544908" lon="-7.005213964730501">
        <ele>820</ele>
        <time>2018-05-22T06:02:51Z</time>
      </trkpt>
      <trkpt lat="42.681005001068115" lon="-7.005163002759218">
        <ele>820</ele>
        <time>2018-05-22T06:02:53Z</time>
      </trkpt>
      <trkpt lat="42.680962001904845" lon="-7.005126038566232">
        <ele>820</ele>
        <time>2018-05-22T06:02:54Z</time>
      </trkpt>
      <trkpt lat="42.680928977206349" lon="-7.00510298833251">
        <ele>820</ele>
        <time>2018-05-22T06:02:55Z</time>
      </trkpt>
      <trkpt lat="42.680900981649756" lon="-7.005051020532847">
        <ele>820</ele>
        <time>2018-05-22T06:02:57Z</time>
      </trkpt>
      <trkpt lat="42.680868962779641" lon="-7.005011038854718">
        <ele>820</ele>
        <time>2018-05-22T06:02:58Z</time>
      </trkpt>
      <trkpt lat="42.680840967223048" lon="-7.004987988620997">
        <ele>820</ele>
        <time>2018-05-22T06:02:59Z</time>
      </trkpt>
      <trkpt lat="42.680812971666455" lon="-7.00495395809412">
        <ele>820</ele>
        <time>2018-05-22T06:03:00Z</time>
      </trkpt>
      <trkpt lat="42.680785981938243" lon="-7.004919005557895">
        <ele>820</ele>
        <time>2018-05-22T06:03:01Z</time>
      </trkpt>
      <trkpt lat="42.680753041058779" lon="-7.004891010001302">
        <ele>820</ele>
        <time>2018-05-22T06:03:02Z</time>
      </trkpt>
      <trkpt lat="42.680729990825057" lon="-7.004850022494793">
        <ele>820</ele>
        <time>2018-05-22T06:03:04Z</time>
      </trkpt>
      <trkpt lat="42.680696966126561" lon="-7.004810040816665">
        <ele>820</ele>
        <time>2018-05-22T06:03:05Z</time>
      </trkpt>
      <trkpt lat="42.680663019418716" lon="-7.004769975319505">
        <ele>820</ele>
        <time>2018-05-22T06:03:06Z</time>
      </trkpt>
      <trkpt lat="42.680629994720221" lon="-7.004740973934531">
        <ele>820</ele>
        <time>2018-05-22T06:03:07Z</time>
      </trkpt>
      <trkpt lat="42.680603004992008" lon="-7.004707027226687">
        <ele>820</ele>
        <time>2018-05-22T06:03:08Z</time>
      </trkpt>
      <trkpt lat="42.680578026920557" lon="-7.004671990871429">
        <ele>820</ele>
        <time>2018-05-22T06:03:10Z</time>
      </trkpt>
      <trkpt lat="42.680550031363964" lon="-7.004632009193301">
        <ele>820</ele>
        <time>2018-05-22T06:03:11Z</time>
      </trkpt>
      <trkpt lat="42.680513989180326" lon="-7.004621028900147">
        <ele>820</ele>
        <time>2018-05-22T06:03:12Z</time>
      </trkpt>
      <trkpt lat="42.680476019158959" lon="-7.004580963402987">
        <ele>820</ele>
        <time>2018-05-22T06:03:13Z</time>
      </trkpt>
      <trkpt lat="42.680447017773986" lon="-7.004556991159916">
        <ele>846</ele>
        <time>2018-05-22T06:03:14Z</time>
      </trkpt>
      <trkpt lat="42.680407958105206" lon="-7.00452296063304">
        <ele>846</ele>
        <time>2018-05-22T06:03:16Z</time>
      </trkpt>
      <trkpt lat="42.680379962548614" lon="-7.004482978954911">
        <ele>846</ele>
        <time>2018-05-22T06:03:17Z</time>
      </trkpt>
      <trkpt lat="42.680342998355627" lon="-7.0044369623065">
        <ele>803</ele>
        <time>2018-05-22T06:03:18Z</time>
      </trkpt>
      <trkpt lat="42.680319026112556" lon="-7.004391029477119">
        <ele>803</ele>
        <time>2018-05-22T06:03:20Z</time>
      </trkpt>
      <trkpt lat="42.680298993363976" lon="-7.004347024485469">
        <ele>803</ele>
        <time>2018-05-22T06:03:21Z</time>
      </trkpt>
      <trkpt lat="42.680258005857468" lon="-7.004321962594986">
        <ele>803</ele>
        <time>2018-05-22T06:03:22Z</time>
      </trkpt>
      <trkpt lat="42.680229004472494" lon="-7.004287010058761">
        <ele>803</ele>
        <time>2018-05-22T06:03:23Z</time>
      </trkpt>
      <trkpt lat="42.680195979773998" lon="-7.004252979531884">
        <ele>803</ele>
        <time>2018-05-22T06:03:25Z</time>
      </trkpt>
      <trkpt lat="42.680167984217405" lon="-7.004218026995659">
        <ele>803</ele>
        <time>2018-05-22T06:03:26Z</time>
      </trkpt>
      <trkpt lat="42.680131020024419" lon="-7.004172010347247">
        <ele>803</ele>
        <time>2018-05-22T06:03:27Z</time>
      </trkpt>
      <trkpt lat="42.680111993104219" lon="-7.004125993698835">
        <ele>803</ele>
        <time>2018-05-22T06:03:29Z</time>
      </trkpt>
      <trkpt lat="42.680079974234104" lon="-7.004091963171959">
        <ele>803</ele>
        <time>2018-05-22T06:03:30Z</time>
      </trkpt>
      <trkpt lat="42.680054996162653" lon="-7.004058016464114">
        <ele>803</ele>
        <time>2018-05-22T06:03:31Z</time>
      </trkpt>
      <trkpt lat="42.68002700060606" lon="-7.004022980108857">
        <ele>803</ele>
        <time>2018-05-22T06:03:32Z</time>
      </trkpt>
      <trkpt lat="42.680003028362989" lon="-7.003982998430729">
        <ele>803</ele>
        <time>2018-05-22T06:03:33Z</time>
      </trkpt>
      <trkpt lat="42.679971009492874" lon="-7.003960032016039">
        <ele>803</ele>
        <time>2018-05-22T06:03:34Z</time>
      </trkpt>
      <trkpt lat="42.679937984794378" lon="-7.003936981782317">
        <ele>803</ele>
        <time>2018-05-22T06:03:35Z</time>
      </trkpt>
      <trkpt lat="42.679901020601392" lon="-7.003907980397344">
        <ele>803</ele>
        <time>2018-05-22T06:03:37Z</time>
      </trkpt>
      <trkpt lat="42.679881993681192" lon="-7.003861963748932">
        <ele>803</ele>
        <time>2018-05-22T06:03:38Z</time>
      </trkpt>
      <trkpt lat="42.679853998124599" lon="-7.003804966807365">
        <ele>803</ele>
        <time>2018-05-22T06:03:39Z</time>
      </trkpt>
      <trkpt lat="42.679829020053148" lon="-7.003768002614379">
        <ele>803</ele>
        <time>2018-05-22T06:03:40Z</time>
      </trkpt>
      <trkpt lat="42.679805969819427" lon="-7.003721985965967">
        <ele>803</ele>
        <time>2018-05-22T06:03:42Z</time>
      </trkpt>
      <trkpt lat="42.679787026718259" lon="-7.003676975145936">
        <ele>803</ele>
        <time>2018-05-22T06:03:43Z</time>
      </trkpt>
      <trkpt lat="42.679773028939962" lon="-7.003625007346273">
        <ele>770</ele>
        <time>2018-05-22T06:03:44Z</time>
      </trkpt>
      <trkpt lat="42.679773028939962" lon="-7.003547977656126">
        <ele>770</ele>
        <time>2018-05-22T06:03:46Z</time>
      </trkpt>
      <trkpt lat="42.679777974262834" lon="-7.00349198654294">
        <ele>770</ele>
        <time>2018-05-22T06:03:48Z</time>
      </trkpt>
      <trkpt lat="42.679807981476188" lon="-7.003459967672825">
        <ele>770</ele>
        <time>2018-05-22T06:03:49Z</time>
      </trkpt>
      <trkpt lat="42.679845029488206" lon="-7.003464996814728">
        <ele>770</ele>
        <time>2018-05-22T06:03:50Z</time>
      </trkpt>
      <trkpt lat="42.679887022823095" lon="-7.003471031785011">
        <ele>770</ele>
        <time>2018-05-22T06:03:51Z</time>
      </trkpt>
      <trkpt lat="42.679923987016082" lon="-7.003487963229418">
        <ele>770</ele>
        <time>2018-05-22T06:03:53Z</time>
      </trkpt>
      <trkpt lat="42.679962040856481" lon="-7.003493998199701">
        <ele>770</ele>
        <time>2018-05-22T06:03:54Z</time>
      </trkpt>
      <trkpt lat="42.68000403419137" lon="-7.003500033169985">
        <ele>770</ele>
        <time>2018-05-22T06:03:55Z</time>
      </trkpt>
      <trkpt lat="42.68004996702075" lon="-7.003500033169985">
        <ele>770</ele>
        <time>2018-05-22T06:03:56Z</time>
      </trkpt>
      <trkpt lat="42.680082991719246" lon="-7.003487963229418">
        <ele>770</ele>
        <time>2018-05-22T06:03:57Z</time>
      </trkpt>
      <trkpt lat="42.680105958133936" lon="-7.003459967672825">
        <ele>770</ele>
        <time>2018-05-22T06:03:59Z</time>
      </trkpt>
      <trkpt lat="42.680121967568994" lon="-7.003418980166316">
        <ele>770</ele>
        <time>2018-05-22T06:04:00Z</time>
      </trkpt>
      <trkpt lat="42.680147029459476" lon="-7.00338302180171">
        <ele>770</ele>
        <time>2018-05-22T06:04:01Z</time>
      </trkpt>
      <trkpt lat="42.680136971175671" lon="-7.003332981839776">
        <ele>770</ele>
        <time>2018-05-22T06:04:02Z</time>
      </trkpt>
      <trkpt lat="42.680122973397374" lon="-7.003279002383351">
        <ele>770</ele>
        <time>2018-05-22T06:04:04Z</time>
      </trkpt>
      <trkpt lat="42.680114004760981" lon="-7.003239020705223">
        <ele>770</ele>
        <time>2018-05-22T06:04:05Z</time>
      </trkpt>
      <trkpt lat="42.680114004760981" lon="-7.003180012106895">
        <ele>770</ele>
        <time>2018-05-22T06:04:06Z</time>
      </trkpt>
      <trkpt lat="42.680108975619078" lon="-7.0031279604882">
        <ele>770</ele>
        <time>2018-05-22T06:04:07Z</time>
      </trkpt>
      <trkpt lat="42.680094977840781" lon="-7.003080016002059">
        <ele>770</ele>
        <time>2018-05-22T06:04:08Z</time>
      </trkpt>
      <trkpt lat="42.680080980062485" lon="-7.003027964383364">
        <ele>770</ele>
        <time>2018-05-22T06:04:10Z</time>
      </trkpt>
      <trkpt lat="42.680065976455808" lon="-7.002980019897223">
        <ele>770</ele>
        <time>2018-05-22T06:04:11Z</time>
      </trkpt>
      <trkpt lat="42.68004703335464" lon="-7.002940038219094">
        <ele>770</ele>
        <time>2018-05-22T06:04:12Z</time>
      </trkpt>
      <trkpt lat="42.68002700060606" lon="-7.002892009913921">
        <ele>770</ele>
        <time>2018-05-22T06:04:13Z</time>
      </trkpt>
      <trkpt lat="42.680005040019751" lon="-7.002854039892554">
        <ele>770</ele>
        <time>2018-05-22T06:04:14Z</time>
      </trkpt>
      <trkpt lat="42.679972015321255" lon="-7.002825038507581">
        <ele>770</ele>
        <time>2018-05-22T06:04:16Z</time>
      </trkpt>
      <trkpt lat="42.679943013936281" lon="-7.002806011587381">
        <ele>772</ele>
        <time>2018-05-22T06:04:17Z</time>
      </trkpt>
      <trkpt lat="42.679790966212749" lon="-7.002621022984386">
        <ele>772</ele>
        <time>2018-05-22T06:04:23Z</time>
      </trkpt>
      <trkpt lat="42.679668003693223" lon="-7.00248297303915">
        <ele>772</ele>
        <time>2018-05-22T06:04:27Z</time>
      </trkpt>
      <trkpt lat="42.679539006203413" lon="-7.002338971942663">
        <ele>759</ele>
        <time>2018-05-22T06:04:32Z</time>
      </trkpt>
      <trkpt lat="42.679385030642152" lon="-7.002148032188416">
        <ele>759</ele>
        <time>2018-05-22T06:04:39Z</time>
      </trkpt>
      <trkpt lat="42.679228959605098" lon="-7.001973018050194">
        <ele>766</ele>
        <time>2018-05-22T06:04:45Z</time>
      </trkpt>
      <trkpt lat="42.679071966558695" lon="-7.001823987811804">
        <ele>766</ele>
        <time>2018-05-22T06:04:50Z</time>
      </trkpt>
      <trkpt lat="42.678954033181071" lon="-7.001662971451879">
        <ele>766</ele>
        <time>2018-05-22T06:04:55Z</time>
      </trkpt>
      <trkpt lat="42.678809026256204" lon="-7.001468008384109">
        <ele>766</ele>
        <time>2018-05-22T06:05:01Z</time>
      </trkpt>
      <trkpt lat="42.678677011281252" lon="-7.001238008961082">
        <ele>756</ele>
        <time>2018-05-22T06:05:08Z</time>
      </trkpt>
      <trkpt lat="42.678539967164397" lon="-7.001088978722692">
        <ele>761</ele>
        <time>2018-05-22T06:05:13Z</time>
      </trkpt>
      <trkpt lat="42.678380040451884" lon="-7.000959981232882">
        <ele>761</ele>
        <time>2018-05-22T06:05:19Z</time>
      </trkpt>
      <trkpt lat="42.67817803658545" lon="-7.00074004009366">
        <ele>761</ele>
        <time>2018-05-22T06:05:26Z</time>
      </trkpt>
      <trkpt lat="42.678030012175441" lon="-7.000577012076974">
        <ele>761</ele>
        <time>2018-05-22T06:05:32Z</time>
      </trkpt>
      <trkpt lat="42.677795989438891" lon="-7.000364027917385">
        <ele>749</ele>
        <time>2018-05-22T06:05:40Z</time>
      </trkpt>
      <trkpt lat="42.677669003605843" lon="-7.000293033197522">
        <ele>768</ele>
        <time>2018-05-22T06:05:44Z</time>
      </trkpt>
      <trkpt lat="42.677662968635559" lon="-7.000293033197522">
        <ele>768</ele>
        <time>2018-05-22T06:05:45Z</time>
      </trkpt>
      <trkpt lat="42.677568001672626" lon="-7.000230001285672">
        <ele>768</ele>
        <time>2018-05-22T06:05:48Z</time>
      </trkpt>
      <trkpt lat="42.677544029429555" lon="-7.000212986022234">
        <ele>768</ele>
        <time>2018-05-22T06:05:49Z</time>
      </trkpt>
      <trkpt lat="42.677412014454603" lon="-7.000178033486009">
        <ele>768</ele>
        <time>2018-05-22T06:05:52Z</time>
      </trkpt>
      <trkpt lat="42.677339008077979" lon="-7.000178033486009">
        <ele>768</ele>
        <time>2018-05-22T06:05:55Z</time>
      </trkpt>
      <trkpt lat="42.677157036960125" lon="-7.000178033486009">
        <ele>768</ele>
        <time>2018-05-22T06:06:00Z</time>
      </trkpt>
      <trkpt lat="42.676995014771819" lon="-7.000195970758796">
        <ele>756</ele>
        <time>2018-05-22T06:06:05Z</time>
      </trkpt>
      <trkpt lat="42.67686702311039" lon="-7.000190019607544">
        <ele>756</ele>
        <time>2018-05-22T06:06:09Z</time>
      </trkpt>
      <trkpt lat="42.676860988140106" lon="-7.000190019607544">
        <ele>756</ele>
        <time>2018-05-22T06:06:09Z</time>
      </trkpt>
      <trkpt lat="42.676722016185522" lon="-7.000159006565809">
        <ele>756</ele>
        <time>2018-05-22T06:06:13Z</time>
      </trkpt>
      <trkpt lat="42.676596036180854" lon="-7.000084994360805">
        <ele>756</ele>
        <time>2018-05-22T06:06:17Z</time>
      </trkpt>
      <trkpt lat="42.676485981792212" lon="-7.000002013519406">
        <ele>756</ele>
        <time>2018-05-22T06:06:21Z</time>
      </trkpt>
      <trkpt lat="42.676436025649309" lon="-6.999922972172499">
        <ele>756</ele>
        <time>2018-05-22T06:06:23Z</time>
      </trkpt>
      <trkpt lat="42.676364025101066" lon="-6.999799003824592">
        <ele>756</ele>
        <time>2018-05-22T06:06:27Z</time>
      </trkpt>
      <trkpt lat="42.676299987360835" lon="-6.999628012999892">
        <ele>756</ele>
        <time>2018-05-22T06:06:31Z</time>
      </trkpt>
      <trkpt lat="42.67622597515583" lon="-6.999417962506414">
        <ele>737</ele>
        <time>2018-05-22T06:06:36Z</time>
      </trkpt>
      <trkpt lat="42.67622597515583" lon="-6.999409999698401">
        <ele>737</ele>
        <time>2018-05-22T06:06:36Z</time>
      </trkpt>
      <trkpt lat="42.676147017627954" lon="-6.999167008325458">
        <ele>737</ele>
        <time>2018-05-22T06:06:42Z</time>
      </trkpt>
      <trkpt lat="42.676147017627954" lon="-6.9991509988904">
        <ele>737</ele>
        <time>2018-05-22T06:06:42Z</time>
      </trkpt>
      <trkpt lat="42.676097983494401" lon="-6.999003980308771">
        <ele>737</ele>
        <time>2018-05-22T06:06:46Z</time>
      </trkpt>
      <trkpt lat="42.676097983494401" lon="-6.998991994187236">
        <ele>737</ele>
        <time>2018-05-22T06:06:46Z</time>
      </trkpt>
      <trkpt lat="42.676079962402582" lon="-6.998945977538824">
        <ele>737</ele>
        <time>2018-05-22T06:06:47Z</time>
      </trkpt>
      <trkpt lat="42.676065964624286" lon="-6.998895015567541">
        <ele>737</ele>
        <time>2018-05-22T06:06:48Z</time>
      </trkpt>
      <trkpt lat="42.676047021523118" lon="-6.998837012797594">
        <ele>737</ele>
        <time>2018-05-22T06:06:50Z</time>
      </trkpt>
      <trkpt lat="42.676027994602919" lon="-6.998790996149182">
        <ele>737</ele>
        <time>2018-05-22T06:06:51Z</time>
      </trkpt>
      <trkpt lat="42.676005028188229" lon="-6.998744979500771">
        <ele>737</ele>
        <time>2018-05-22T06:06:52Z</time>
      </trkpt>
      <trkpt lat="42.675977032631636" lon="-6.998704997822642">
        <ele>744</ele>
        <time>2018-05-22T06:06:53Z</time>
      </trkpt>
      <trkpt lat="42.675931015983224" lon="-6.998653030022979">
        <ele>744</ele>
        <time>2018-05-22T06:06:55Z</time>
      </trkpt>
      <trkpt lat="42.675897991284728" lon="-6.998612964525819">
        <ele>744</ele>
        <time>2018-05-22T06:06:57Z</time>
      </trkpt>
      <trkpt lat="42.675869995728135" lon="-6.998579017817974">
        <ele>744</ele>
        <time>2018-05-22T06:06:58Z</time>
      </trkpt>
      <trkpt lat="42.675847029313445" lon="-6.998543981462717">
        <ele>744</ele>
        <time>2018-05-22T06:06:59Z</time>
      </trkpt>
      <trkpt lat="42.675819033756852" lon="-6.998510034754872">
        <ele>744</ele>
        <time>2018-05-22T06:07:00Z</time>
      </trkpt>
      <trkpt lat="42.675775028765202" lon="-6.998479021713138">
        <ele>744</ele>
        <time>2018-05-22T06:07:01Z</time>
      </trkpt>
      <trkpt lat="42.675742004066706" lon="-6.998439040035009">
        <ele>744</ele>
        <time>2018-05-22T06:07:03Z</time>
      </trkpt>
      <trkpt lat="42.675714008510113" lon="-6.998393023386598">
        <ele>744</ele>
        <time>2018-05-22T06:07:04Z</time>
      </trkpt>
      <trkpt lat="42.675700010731816" lon="-6.998336026445031">
        <ele>744</ele>
        <time>2018-05-22T06:07:05Z</time>
      </trkpt>
      <trkpt lat="42.675672015175223" lon="-6.998249022290111">
        <ele>744</ele>
        <time>2018-05-22T06:07:07Z</time>
      </trkpt>
      <trkpt lat="42.67564301379025" lon="-6.998178027570248">
        <ele>744</ele>
        <time>2018-05-22T06:07:09Z</time>
      </trkpt>
      <trkpt lat="42.67564301379025" lon="-6.998126981779933">
        <ele>744</ele>
        <time>2018-05-22T06:07:10Z</time>
      </trkpt>
      <trkpt lat="42.67564301379025" lon="-6.998064033687115">
        <ele>744</ele>
        <time>2018-05-22T06:07:12Z</time>
      </trkpt>
      <trkpt lat="42.67564301379025" lon="-6.998006030917168">
        <ele>744</ele>
        <time>2018-05-22T06:07:13Z</time>
      </trkpt>
      <trkpt lat="42.67564301379025" lon="-6.997953979298472">
        <ele>744</ele>
        <time>2018-05-22T06:07:14Z</time>
      </trkpt>
      <trkpt lat="42.675657011568546" lon="-6.997908968478441">
        <ele>744</ele>
        <time>2018-05-22T06:07:15Z</time>
      </trkpt>
      <trkpt lat="42.675671009346843" lon="-6.997863035649061">
        <ele>735</ele>
        <time>2018-05-22T06:07:16Z</time>
      </trkpt>
      <trkpt lat="42.675699004903436" lon="-6.997810984030366">
        <ele>735</ele>
        <time>2018-05-22T06:07:17Z</time>
      </trkpt>
      <trkpt lat="42.675717025995255" lon="-6.997764967381954">
        <ele>735</ele>
        <time>2018-05-22T06:07:19Z</time>
      </trkpt>
      <trkpt lat="42.675745021551847" lon="-6.99773102067411">
        <ele>735</ele>
        <time>2018-05-22T06:07:20Z</time>
      </trkpt>
      <trkpt lat="42.675782991573215" lon="-6.997685004025698">
        <ele>735</ele>
        <time>2018-05-22T06:07:21Z</time>
      </trkpt>
      <trkpt lat="42.67581501044333" lon="-6.997644016519189">
        <ele>735</ele>
        <time>2018-05-22T06:07:23Z</time>
      </trkpt>
      <trkpt lat="42.675843005999923" lon="-6.997604034841061">
        <ele>735</ele>
        <time>2018-05-22T06:07:24Z</time>
      </trkpt>
      <trkpt lat="42.67588097602129" lon="-6.997558018192649">
        <ele>735</ele>
        <time>2018-05-22T06:07:25Z</time>
      </trkpt>
      <trkpt lat="42.675908971577883" lon="-6.997512001544237">
        <ele>735</ele>
        <time>2018-05-22T06:07:27Z</time>
      </trkpt>
      <trkpt lat="42.675936967134476" lon="-6.997477971017361">
        <ele>735</ele>
        <time>2018-05-22T06:07:28Z</time>
      </trkpt>
      <trkpt lat="42.675960017368197" lon="-6.997437989339232">
        <ele>735</ele>
        <time>2018-05-22T06:07:29Z</time>
      </trkpt>
      <trkpt lat="42.675982983782887" lon="-6.997397001832724">
        <ele>735</ele>
        <time>2018-05-22T06:07:30Z</time>
      </trkpt>
      <trkpt lat="42.676020031794906" lon="-6.997362971305847">
        <ele>735</ele>
        <time>2018-05-22T06:07:31Z</time>
      </trkpt>
      <trkpt lat="42.676048027351499" lon="-6.997317038476467">
        <ele>735</ele>
        <time>2018-05-22T06:07:33Z</time>
      </trkpt>
      <trkpt lat="42.676071999594569" lon="-6.997271021828055">
        <ele>735</ele>
        <time>2018-05-22T06:07:34Z</time>
      </trkpt>
      <trkpt lat="42.676090020686388" lon="-6.997202038764954">
        <ele>735</ele>
        <time>2018-05-22T06:07:35Z</time>
      </trkpt>
      <trkpt lat="42.676094966009259" lon="-6.997145041823387">
        <ele>735</ele>
        <time>2018-05-22T06:07:37Z</time>
      </trkpt>
      <trkpt lat="42.676094966009259" lon="-6.997075974941254">
        <ele>735</ele>
        <time>2018-05-22T06:07:38Z</time>
      </trkpt>
      <trkpt lat="42.676085997372866" lon="-6.997004980221391">
        <ele>722</ele>
        <time>2018-05-22T06:07:40Z</time>
      </trkpt>
      <trkpt lat="42.676085997372866" lon="-6.996942032128573">
        <ele>722</ele>
        <time>2018-05-22T06:07:41Z</time>
      </trkpt>
      <trkpt lat="42.676085997372866" lon="-6.996887968853116">
        <ele>722</ele>
        <time>2018-05-22T06:07:42Z</time>
      </trkpt>
      <trkpt lat="42.676080968230963" lon="-6.996801970526576">
        <ele>722</ele>
        <time>2018-05-22T06:07:44Z</time>
      </trkpt>
      <trkpt lat="42.676076022908092" lon="-6.996715972200036">
        <ele>722</ele>
        <time>2018-05-22T06:07:46Z</time>
      </trkpt>
      <trkpt lat="42.676071999594569" lon="-6.996664004400373">
        <ele>722</ele>
        <time>2018-05-22T06:07:47Z</time>
      </trkpt>
      <trkpt lat="42.676071999594569" lon="-6.99659300968051">
        <ele>722</ele>
        <time>2018-05-22T06:07:49Z</time>
      </trkpt>
      <trkpt lat="42.676062025129795" lon="-6.996546993032098">
        <ele>722</ele>
        <time>2018-05-22T06:07:50Z</time>
      </trkpt>
      <trkpt lat="42.676058001816273" lon="-6.996483961120248">
        <ele>722</ele>
        <time>2018-05-22T06:07:51Z</time>
      </trkpt>
      <trkpt lat="42.676048027351499" lon="-6.996425958350301">
        <ele>722</ele>
        <time>2018-05-22T06:07:53Z</time>
      </trkpt>
      <trkpt lat="42.676038974896073" lon="-6.996368961408734">
        <ele>722</ele>
        <time>2018-05-22T06:07:54Z</time>
      </trkpt>
      <trkpt lat="42.676023971289396" lon="-6.996301990002394">
        <ele>722</ele>
        <time>2018-05-22T06:07:55Z</time>
      </trkpt>
      <trkpt lat="42.676013996824622" lon="-6.99625002220273">
        <ele>722</ele>
        <time>2018-05-22T06:07:57Z</time>
      </trkpt>
      <trkpt lat="42.675991030409932" lon="-6.996181039139628">
        <ele>727</ele>
        <time>2018-05-22T06:07:58Z</time>
      </trkpt>
      <trkpt lat="42.675977032631636" lon="-6.996095040813088">
        <ele>727</ele>
        <time>2018-05-22T06:08:00Z</time>
      </trkpt>
      <trkpt lat="42.67596798017621" lon="-6.99603796005249">
        <ele>727</ele>
        <time>2018-05-22T06:08:01Z</time>
      </trkpt>
      <trkpt lat="42.675949037075043" lon="-6.995985992252827">
        <ele>727</ele>
        <time>2018-05-22T06:08:03Z</time>
      </trkpt>
      <trkpt lat="42.67592104151845" lon="-6.995934024453163">
        <ele>727</ele>
        <time>2018-05-22T06:08:04Z</time>
      </trkpt>
      <trkpt lat="42.675888016819954" lon="-6.995899993926287">
        <ele>727</ele>
        <time>2018-05-22T06:08:05Z</time>
      </trkpt>
      <trkpt lat="42.675850968807936" lon="-6.995848026126623">
        <ele>727</ele>
        <time>2018-05-22T06:08:07Z</time>
      </trkpt>
      <trkpt lat="42.675814004614949" lon="-6.995784994214773">
        <ele>727</ele>
        <time>2018-05-22T06:08:09Z</time>
      </trkpt>
      <trkpt lat="42.675786009058356" lon="-6.99573302641511">
        <ele>727</ele>
        <time>2018-05-22T06:08:10Z</time>
      </trkpt>
      <trkpt lat="42.67575298435986" lon="-6.99569296091795">
        <ele>727</ele>
        <time>2018-05-22T06:08:11Z</time>
      </trkpt>
      <trkpt lat="42.675719959661365" lon="-6.995659014210105">
        <ele>727</ele>
        <time>2018-05-22T06:08:13Z</time>
      </trkpt>
      <trkpt lat="42.675688024610281" lon="-6.995594976469874">
        <ele>727</ele>
        <time>2018-05-22T06:08:14Z</time>
      </trkpt>
      <trkpt lat="42.675649970769882" lon="-6.99556102976203">
        <ele>727</ele>
        <time>2018-05-22T06:08:16Z</time>
      </trkpt>
      <trkpt lat="42.675618035718799" lon="-6.995537979528308">
        <ele>727</ele>
        <time>2018-05-22T06:08:17Z</time>
      </trkpt>
      <trkpt lat="42.67558098770678" lon="-6.995504032820463">
        <ele>727</ele>
        <time>2018-05-22T06:08:18Z</time>
      </trkpt>
      <trkpt lat="42.675547963008285" lon="-6.995480982586741">
        <ele>727</ele>
        <time>2018-05-22T06:08:19Z</time>
      </trkpt>
      <trkpt lat="42.675510998815298" lon="-6.995451981201768">
        <ele>727</ele>
        <time>2018-05-22T06:08:21Z</time>
      </trkpt>
      <trkpt lat="42.675473028793931" lon="-6.995429014787078">
        <ele>705</ele>
        <time>2018-05-22T06:08:22Z</time>
      </trkpt>
      <trkpt lat="42.675441009923816" lon="-6.995393978431821">
        <ele>705</ele>
        <time>2018-05-22T06:08:23Z</time>
      </trkpt>
      <trkpt lat="42.67540798522532" lon="-6.995360031723976">
        <ele>705</ele>
        <time>2018-05-22T06:08:24Z</time>
      </trkpt>
      <trkpt lat="42.675374960526824" lon="-6.995324995368719">
        <ele>705</ele>
        <time>2018-05-22T06:08:26Z</time>
      </trkpt>
      <trkpt lat="42.675341013818979" lon="-6.995290964841843">
        <ele>705</ele>
        <time>2018-05-22T06:08:27Z</time>
      </trkpt>
      <trkpt lat="42.675313018262386" lon="-6.995250983163714">
        <ele>712</ele>
        <time>2018-05-22T06:08:28Z</time>
      </trkpt>
      <trkpt lat="42.675276976078749" lon="-6.995233967900276">
        <ele>712</ele>
        <time>2018-05-22T06:08:29Z</time>
      </trkpt>
      <trkpt lat="42.675240011885762" lon="-6.995228016749024">
        <ele>712</ele>
        <time>2018-05-22T06:08:31Z</time>
      </trkpt>
      <trkpt lat="42.675202963873744" lon="-6.995211001485586">
        <ele>712</ele>
        <time>2018-05-22T06:08:32Z</time>
      </trkpt>
      <trkpt lat="42.675160970538855" lon="-6.995204966515303">
        <ele>712</ele>
        <time>2018-05-22T06:08:33Z</time>
      </trkpt>
      <trkpt lat="42.675114031881094" lon="-6.995182000100613">
        <ele>712</ele>
        <time>2018-05-22T06:08:34Z</time>
      </trkpt>
      <trkpt lat="42.675067009404302" lon="-6.995175965130329">
        <ele>712</ele>
        <time>2018-05-22T06:08:36Z</time>
      </trkpt>
      <trkpt lat="42.675015963613987" lon="-6.995146963745356">
        <ele>712</ele>
        <time>2018-05-22T06:08:38Z</time>
      </trkpt>
      <trkpt lat="42.674973970279098" lon="-6.995130032300949">
        <ele>712</ele>
        <time>2018-05-22T06:08:39Z</time>
      </trkpt>
      <trkpt lat="42.674940023571253" lon="-6.995113017037511">
        <ele>712</ele>
        <time>2018-05-22T06:08:40Z</time>
      </trkpt>
      <trkpt lat="42.674916973337531" lon="-6.995073035359383">
        <ele>712</ele>
        <time>2018-05-22T06:08:41Z</time>
      </trkpt>
      <trkpt lat="42.674898030236363" lon="-6.995020983740687">
        <ele>712</ele>
        <time>2018-05-22T06:08:42Z</time>
      </trkpt>
      <trkpt lat="42.674874980002642" lon="-6.994978990405798">
        <ele>712</ele>
        <time>2018-05-22T06:08:43Z</time>
      </trkpt>
      <trkpt lat="42.674856036901474" lon="-6.994932973757386">
        <ele>712</ele>
        <time>2018-05-22T06:08:45Z</time>
      </trkpt>
      <trkpt lat="42.674814965575933" lon="-6.994834989309311">
        <ele>712</ele>
        <time>2018-05-22T06:08:47Z</time>
      </trkpt>
      <trkpt lat="42.674791999161243" lon="-6.994777992367744">
        <ele>712</ele>
        <time>2018-05-22T06:08:49Z</time>
      </trkpt>
      <trkpt lat="42.674769032746553" lon="-6.994726024568081">
        <ele>712</ele>
        <time>2018-05-22T06:08:50Z</time>
      </trkpt>
      <trkpt lat="42.674736008048058" lon="-6.994669027626514">
        <ele>712</ele>
        <time>2018-05-22T06:08:51Z</time>
      </trkpt>
      <trkpt lat="42.674708012491465" lon="-6.994594009593129">
        <ele>712</ele>
        <time>2018-05-22T06:08:53Z</time>
      </trkpt>
      <trkpt lat="42.674684962257743" lon="-6.994518991559744">
        <ele>712</ele>
        <time>2018-05-22T06:08:55Z</time>
      </trkpt>
      <trkpt lat="42.674652021378279" lon="-6.994455959647894">
        <ele>726</ele>
        <time>2018-05-22T06:08:57Z</time>
      </trkpt>
      <trkpt lat="42.674618996679783" lon="-6.994410026818514">
        <ele>726</ele>
        <time>2018-05-22T06:08:58Z</time>
      </trkpt>
      <trkpt lat="42.674592006951571" lon="-6.994364010170102">
        <ele>726</ele>
        <time>2018-05-22T06:08:59Z</time>
      </trkpt>
      <trkpt lat="42.674558982253075" lon="-6.99431799352169">
        <ele>700</ele>
        <time>2018-05-22T06:09:01Z</time>
      </trkpt>
      <trkpt lat="42.674530986696482" lon="-6.994271976873279">
        <ele>700</ele>
        <time>2018-05-22T06:09:02Z</time>
      </trkpt>
      <trkpt lat="42.674495028331876" lon="-6.994225960224867">
        <ele>700</ele>
        <time>2018-05-22T06:09:04Z</time>
      </trkpt>
      <trkpt lat="42.674467032775283" lon="-6.994180027395487">
        <ele>700</ele>
        <time>2018-05-22T06:09:05Z</time>
      </trkpt>
      <trkpt lat="42.674443982541561" lon="-6.994127975776792">
        <ele>700</ele>
        <time>2018-05-22T06:09:06Z</time>
      </trkpt>
      <trkpt lat="42.674415986984968" lon="-6.994094029068947">
        <ele>700</ele>
        <time>2018-05-22T06:09:07Z</time>
      </trkpt>
      <trkpt lat="42.674377011135221" lon="-6.994070978835225">
        <ele>700</ele>
        <time>2018-05-22T06:09:09Z</time>
      </trkpt>
      <trkpt lat="42.674343986436725" lon="-6.994036026299">
        <ele>700</ele>
        <time>2018-05-22T06:09:10Z</time>
      </trkpt>
      <trkpt lat="42.674311967566609" lon="-6.993984980508685">
        <ele>700</ele>
        <time>2018-05-22T06:09:11Z</time>
      </trkpt>
      <trkpt lat="42.674283972010016" lon="-6.993944998830557">
        <ele>700</ele>
        <time>2018-05-22T06:09:13Z</time>
      </trkpt>
      <trkpt lat="42.674248013645411" lon="-6.993922032415867">
        <ele>700</ele>
        <time>2018-05-22T06:09:14Z</time>
      </trkpt>
      <trkpt lat="42.674141982570291" lon="-6.993795968592167">
        <ele>700</ele>
        <time>2018-05-22T06:09:18Z</time>
      </trkpt>
      <trkpt lat="42.674037963151932" lon="-6.993687003850937">
        <ele>700</ele>
        <time>2018-05-22T06:09:22Z</time>
      </trkpt>
      <trkpt lat="42.673933021724224" lon="-6.993592958897352">
        <ele>704</ele>
        <time>2018-05-22T06:09:26Z</time>
      </trkpt>
      <trkpt lat="42.673778040334582" lon="-6.993554988875985">
        <ele>704</ele>
        <time>2018-05-22T06:09:30Z</time>
      </trkpt>
      <trkpt lat="42.673673015087843" lon="-6.993532022461295">
        <ele>697</ele>
        <time>2018-05-22T06:09:33Z</time>
      </trkpt>
      <trkpt lat="42.673509987071157" lon="-6.993380980566144">
        <ele>697</ele>
        <time>2018-05-22T06:09:39Z</time>
      </trkpt>
      <trkpt lat="42.673415020108223" lon="-6.993287019431591">
        <ele>697</ele>
        <time>2018-05-22T06:09:43Z</time>
      </trkpt>
      <trkpt lat="42.673408985137939" lon="-6.993278972804546">
        <ele>697</ele>
        <time>2018-05-22T06:09:43Z</time>
      </trkpt>
      <trkpt lat="42.673319969326258" lon="-6.993185011669993">
        <ele>697</ele>
        <time>2018-05-22T06:09:46Z</time>
      </trkpt>
      <trkpt lat="42.673319969326258" lon="-6.993176965042949">
        <ele>697</ele>
        <time>2018-05-22T06:09:47Z</time>
      </trkpt>
      <trkpt lat="42.673272024840117" lon="-6.993077974766493">
        <ele>697</ele>
        <time>2018-05-22T06:09:49Z</time>
      </trkpt>
      <trkpt lat="42.673264984041452" lon="-6.99307001195848">
        <ele>697</ele>
        <time>2018-05-22T06:09:49Z</time>
      </trkpt>
      <trkpt lat="42.673213016241789" lon="-6.992959035560489">
        <ele>697</ele>
        <time>2018-05-22T06:09:52Z</time>
      </trkpt>
      <trkpt lat="42.673179991543293" lon="-6.992802964523435">
        <ele>703</ele>
        <time>2018-05-22T06:09:56Z</time>
      </trkpt>
      <trkpt lat="42.673141015693545" lon="-6.992590986192226">
        <ele>704</ele>
        <time>2018-05-22T06:10:01Z</time>
      </trkpt>
      <trkpt lat="42.673106985166669" lon="-6.992437010630965">
        <ele>704</ele>
        <time>2018-05-22T06:10:04Z</time>
      </trkpt>
      <trkpt lat="42.673102039843798" lon="-6.992292003706098">
        <ele>704</ele>
        <time>2018-05-22T06:10:07Z</time>
      </trkpt>
      <trkpt lat="42.673111008480191" lon="-6.992111960425973">
        <ele>704</ele>
        <time>2018-05-22T06:10:11Z</time>
      </trkpt>
      <trkpt lat="42.673139004036784" lon="-6.991873998194933">
        <ele>703</ele>
        <time>2018-05-22T06:10:17Z</time>
      </trkpt>
      <trkpt lat="42.673153001815081" lon="-6.991710970178247">
        <ele>703</ele>
        <time>2018-05-22T06:10:20Z</time>
      </trkpt>
      <trkpt lat="42.673183009028435" lon="-6.99152497574687">
        <ele>703</ele>
        <time>2018-05-22T06:10:24Z</time>
      </trkpt>
      <trkpt lat="42.673183009028435" lon="-6.991513995453715">
        <ele>703</ele>
        <time>2018-05-22T06:10:25Z</time>
      </trkpt>
      <trkpt lat="42.673188038170338" lon="-6.991462027654052">
        <ele>703</ele>
        <time>2018-05-22T06:10:26Z</time>
      </trkpt>
      <trkpt lat="42.673197006806731" lon="-6.991404024884105">
        <ele>703</ele>
        <time>2018-05-22T06:10:27Z</time>
      </trkpt>
      <trkpt lat="42.673197006806731" lon="-6.991347027942538">
        <ele>703</ele>
        <time>2018-05-22T06:10:28Z</time>
      </trkpt>
      <trkpt lat="42.673197006806731" lon="-6.991294976323843">
        <ele>703</ele>
        <time>2018-05-22T06:10:29Z</time>
      </trkpt>
      <trkpt lat="42.673197006806731" lon="-6.99122398160398">
        <ele>703</ele>
        <time>2018-05-22T06:10:31Z</time>
      </trkpt>
      <trkpt lat="42.673197006806731" lon="-6.991173019632697">
        <ele>692</ele>
        <time>2018-05-22T06:10:32Z</time>
      </trkpt>
      <trkpt lat="42.673197006806731" lon="-6.991120968014002">
        <ele>692</ele>
        <time>2018-05-22T06:10:33Z</time>
      </trkpt>
      <trkpt lat="42.673176974058151" lon="-6.991088027134538">
        <ele>692</ele>
        <time>2018-05-22T06:10:34Z</time>
      </trkpt>
      <trkpt lat="42.673144033178687" lon="-6.991060031577945">
        <ele>692</ele>
        <time>2018-05-22T06:10:35Z</time>
      </trkpt>
      <trkpt lat="42.673106985166669" lon="-6.991018960252404">
        <ele>692</ele>
        <time>2018-05-22T06:10:37Z</time>
      </trkpt>
      <trkpt lat="42.673068009316921" lon="-6.990983001887798">
        <ele>692</ele>
        <time>2018-05-22T06:10:38Z</time>
      </trkpt>
      <trkpt lat="42.67304303124547" lon="-6.990941008552909">
        <ele>692</ele>
        <time>2018-05-22T06:10:39Z</time>
      </trkpt>
      <trkpt lat="42.673029033467174" lon="-6.990877976641059">
        <ele>692</ele>
        <time>2018-05-22T06:10:41Z</time>
      </trkpt>
      <trkpt lat="42.673024004325271" lon="-6.990831959992647">
        <ele>692</ele>
        <time>2018-05-22T06:10:42Z</time>
      </trkpt>
      <trkpt lat="42.673015035688877" lon="-6.990784015506506">
        <ele>692</ele>
        <time>2018-05-22T06:10:43Z</time>
      </trkpt>
      <trkpt lat="42.673001037910581" lon="-6.990737998858094">
        <ele>692</ele>
        <time>2018-05-22T06:10:44Z</time>
      </trkpt>
      <trkpt lat="42.672977987676859" lon="-6.990691982209683">
        <ele>692</ele>
        <time>2018-05-22T06:10:45Z</time>
      </trkpt>
      <trkpt lat="42.672944962978363" lon="-6.990649988874793">
        <ele>692</ele>
        <time>2018-05-22T06:10:46Z</time>
      </trkpt>
      <trkpt lat="42.67291696742177" lon="-6.99059802107513">
        <ele>695</ele>
        <time>2018-05-22T06:10:48Z</time>
      </trkpt>
      <trkpt lat="42.67289400100708" lon="-6.990562984719873">
        <ele>695</ele>
        <time>2018-05-22T06:10:49Z</time>
      </trkpt>
      <trkpt lat="42.672866005450487" lon="-6.990523003041744">
        <ele>695</ele>
        <time>2018-05-22T06:10:50Z</time>
      </trkpt>
      <trkpt lat="42.672838009893894" lon="-6.990488972514868">
        <ele>695</ele>
        <time>2018-05-22T06:10:51Z</time>
      </trkpt>
      <trkpt lat="42.672788975760341" lon="-6.990437004715204">
        <ele>695</ele>
        <time>2018-05-22T06:10:53Z</time>
      </trkpt>
      <trkpt lat="42.672780007123947" lon="-6.990388976410031">
        <ele>695</ele>
        <time>2018-05-22T06:10:54Z</time>
      </trkpt>
      <trkpt lat="42.672766009345651" lon="-6.990309013053775">
        <ele>687</ele>
        <time>2018-05-22T06:10:56Z</time>
      </trkpt>
      <trkpt lat="42.672766009345651" lon="-6.99025696143508">
        <ele>687</ele>
        <time>2018-05-22T06:10:57Z</time>
      </trkpt>
      <trkpt lat="42.672766009345651" lon="-6.990204993635416">
        <ele>687</ele>
        <time>2018-05-22T06:10:58Z</time>
      </trkpt>
      <trkpt lat="42.672766009345651" lon="-6.99014799669385">
        <ele>687</ele>
        <time>2018-05-22T06:10:59Z</time>
      </trkpt>
      <trkpt lat="42.672766009345651" lon="-6.990079013630748">
        <ele>687</ele>
        <time>2018-05-22T06:11:01Z</time>
      </trkpt>
      <trkpt lat="42.672780007123947" lon="-6.990010030567646">
        <ele>687</ele>
        <time>2018-05-22T06:11:02Z</time>
      </trkpt>
      <trkpt lat="42.67278503626585" lon="-6.989946998655796">
        <ele>687</ele>
        <time>2018-05-22T06:11:04Z</time>
      </trkpt>
      <trkpt lat="42.672788975760341" lon="-6.989888995885849">
        <ele>687</ele>
        <time>2018-05-22T06:11:05Z</time>
      </trkpt>
      <trkpt lat="42.672799034044147" lon="-6.989842979237437">
        <ele>687</ele>
        <time>2018-05-22T06:11:06Z</time>
      </trkpt>
      <trkpt lat="42.67280800268054" lon="-6.989797968417406">
        <ele>687</ele>
        <time>2018-05-22T06:11:07Z</time>
      </trkpt>
      <trkpt lat="42.67280800268054" lon="-6.989739965647459">
        <ele>687</ele>
        <time>2018-05-22T06:11:08Z</time>
      </trkpt>
      <trkpt lat="42.672813031822443" lon="-6.989660002291203">
        <ele>687</ele>
        <time>2018-05-22T06:11:10Z</time>
      </trkpt>
      <trkpt lat="42.672816971316934" lon="-6.989579033106566">
        <ele>687</ele>
        <time>2018-05-22T06:11:12Z</time>
      </trkpt>
      <trkpt lat="42.67283096909523" lon="-6.989522036164999">
        <ele>689</ele>
        <time>2018-05-22T06:11:13Z</time>
      </trkpt>
      <trkpt lat="42.672835998237133" lon="-6.989464033395052">
        <ele>689</ele>
        <time>2018-05-22T06:11:15Z</time>
      </trkpt>
      <trkpt lat="42.672844966873527" lon="-6.989407036453486">
        <ele>689</ele>
        <time>2018-05-22T06:11:16Z</time>
      </trkpt>
      <trkpt lat="42.672855025157332" lon="-6.989337969571352">
        <ele>689</ele>
        <time>2018-05-22T06:11:17Z</time>
      </trkpt>
      <trkpt lat="42.672869022935629" lon="-6.989280972629786">
        <ele>689</ele>
        <time>2018-05-22T06:11:19Z</time>
      </trkpt>
      <trkpt lat="42.672877991572022" lon="-6.989229004830122">
        <ele>689</ele>
        <time>2018-05-22T06:11:20Z</time>
      </trkpt>
      <trkpt lat="42.672883020713925" lon="-6.989177037030459">
        <ele>689</ele>
        <time>2018-05-22T06:11:21Z</time>
      </trkpt>
      <trkpt lat="42.672891989350319" lon="-6.989118028432131">
        <ele>689</ele>
        <time>2018-05-22T06:11:22Z</time>
      </trkpt>
      <trkpt lat="42.672897018492222" lon="-6.989065976813436">
        <ele>689</ele>
        <time>2018-05-22T06:11:23Z</time>
      </trkpt>
      <trkpt lat="42.672905987128615" lon="-6.98899095878005">
        <ele>689</ele>
        <time>2018-05-22T06:11:25Z</time>
      </trkpt>
      <trkpt lat="42.672915039584041" lon="-6.988946031779051">
        <ele>689</ele>
        <time>2018-05-22T06:11:26Z</time>
      </trkpt>
      <trkpt lat="42.672915039584041" lon="-6.988866990432143">
        <ele>689</ele>
        <time>2018-05-22T06:11:28Z</time>
      </trkpt>
      <trkpt lat="42.672915039584041" lon="-6.98881502263248">
        <ele>689</ele>
        <time>2018-05-22T06:11:29Z</time>
      </trkpt>
      <trkpt lat="42.672915039584041" lon="-6.988746039569378">
        <ele>689</ele>
        <time>2018-05-22T06:11:30Z</time>
      </trkpt>
      <trkpt lat="42.672915039584041" lon="-6.988694993779063">
        <ele>689</ele>
        <time>2018-05-22T06:11:32Z</time>
      </trkpt>
      <trkpt lat="42.672915039584041" lon="-6.988631039857864">
        <ele>689</ele>
        <time>2018-05-22T06:11:33Z</time>
      </trkpt>
      <trkpt lat="42.672915039584041" lon="-6.98855702765286">
        <ele>689</ele>
        <time>2018-05-22T06:11:35Z</time>
      </trkpt>
      <trkpt lat="42.672915039584041" lon="-6.988504976034164">
        <ele>689</ele>
        <time>2018-05-22T06:11:36Z</time>
      </trkpt>
      <trkpt lat="42.672915039584041" lon="-6.988435992971063">
        <ele>689</ele>
        <time>2018-05-22T06:11:37Z</time>
      </trkpt>
      <trkpt lat="42.672915039584041" lon="-6.988376984372735">
        <ele>689</ele>
        <time>2018-05-22T06:11:38Z</time>
      </trkpt>
      <trkpt lat="42.672915039584041" lon="-6.988308001309633">
        <ele>689</ele>
        <time>2018-05-22T06:11:40Z</time>
      </trkpt>
      <trkpt lat="42.672915039584041" lon="-6.988244969397783">
        <ele>689</ele>
        <time>2018-05-22T06:11:41Z</time>
      </trkpt>
      <trkpt lat="42.672915039584041" lon="-6.988181015476584">
        <ele>689</ele>
        <time>2018-05-22T06:11:43Z</time>
      </trkpt>
      <trkpt lat="42.672905987128615" lon="-6.988088982179761">
        <ele>689</ele>
        <time>2018-05-22T06:11:45Z</time>
      </trkpt>
      <trkpt lat="42.672891989350319" lon="-6.988038020208478">
        <ele>689</ele>
        <time>2018-05-22T06:11:46Z</time>
      </trkpt>
      <trkpt lat="42.672883020713925" lon="-6.987992003560066">
        <ele>689</ele>
        <time>2018-05-22T06:11:47Z</time>
      </trkpt>
      <trkpt lat="42.672869022935629" lon="-6.987934000790119">
        <ele>689</ele>
        <time>2018-05-22T06:11:48Z</time>
      </trkpt>
      <trkpt lat="42.672849996015429" lon="-6.987883038818836">
        <ele>686</ele>
        <time>2018-05-22T06:11:50Z</time>
      </trkpt>
      <trkpt lat="42.67283096909523" lon="-6.987808020785451">
        <ele>686</ele>
        <time>2018-05-22T06:11:51Z</time>
      </trkpt>
      <trkpt lat="42.67280800268054" lon="-6.987755969166756">
        <ele>686</ele>
        <time>2018-05-22T06:11:53Z</time>
      </trkpt>
      <trkpt lat="42.67278503626585" lon="-6.987705007195473">
        <ele>686</ele>
        <time>2018-05-22T06:11:54Z</time>
      </trkpt>
      <trkpt lat="42.672771038487554" lon="-6.987653039395809">
        <ele>686</ele>
        <time>2018-05-22T06:11:55Z</time>
      </trkpt>
      <trkpt lat="42.672746982425451" lon="-6.987595958635211">
        <ele>686</ele>
        <time>2018-05-22T06:11:57Z</time>
      </trkpt>
      <trkpt lat="42.672718986868858" lon="-6.987550025805831">
        <ele>686</ele>
        <time>2018-05-22T06:11:58Z</time>
      </trkpt>
      <trkpt lat="42.672696020454168" lon="-6.987504009157419">
        <ele>686</ele>
        <time>2018-05-22T06:11:59Z</time>
      </trkpt>
      <trkpt lat="42.672664001584053" lon="-6.987457992509008">
        <ele>686</ele>
        <time>2018-05-22T06:12:00Z</time>
      </trkpt>
      <trkpt lat="42.67263600602746" lon="-6.98739998973906">
        <ele>686</ele>
        <time>2018-05-22T06:12:02Z</time>
      </trkpt>
      <trkpt lat="42.672608010470867" lon="-6.987360008060932">
        <ele>686</ele>
        <time>2018-05-22T06:12:03Z</time>
      </trkpt>
      <trkpt lat="42.672584038227797" lon="-6.987303011119366">
        <ele>686</ele>
        <time>2018-05-22T06:12:05Z</time>
      </trkpt>
      <trkpt lat="42.672552019357681" lon="-6.987256994470954">
        <ele>686</ele>
        <time>2018-05-22T06:12:06Z</time>
      </trkpt>
      <trkpt lat="42.672527963295579" lon="-6.987210977822542">
        <ele>686</ele>
        <time>2018-05-22T06:12:07Z</time>
      </trkpt>
      <trkpt lat="42.672504996880889" lon="-6.987159010022879">
        <ele>686</ele>
        <time>2018-05-22T06:12:09Z</time>
      </trkpt>
      <trkpt lat="42.672482030466199" lon="-6.98711902834475">
        <ele>686</ele>
        <time>2018-05-22T06:12:10Z</time>
      </trkpt>
      <trkpt lat="42.672456968575716" lon="-6.987077035009861">
        <ele>686</ele>
        <time>2018-05-22T06:12:11Z</time>
      </trkpt>
      <trkpt lat="42.672417992725968" lon="-6.986977038905025">
        <ele>681</ele>
        <time>2018-05-22T06:12:13Z</time>
      </trkpt>
      <trkpt lat="42.672323025763035" lon="-6.986809987574816">
        <ele>681</ele>
        <time>2018-05-22T06:12:18Z</time>
      </trkpt>
      <trkpt lat="42.672242978587747" lon="-6.986674033105373">
        <ele>681</ele>
        <time>2018-05-22T06:12:22Z</time>
      </trkpt>
      <trkpt lat="42.672191010788083" lon="-6.986531959846616">
        <ele>681</ele>
        <time>2018-05-22T06:12:25Z</time>
      </trkpt>
      <trkpt lat="42.672139964997768" lon="-6.98638703674078">
        <ele>681</ele>
        <time>2018-05-22T06:12:29Z</time>
      </trkpt>
      <trkpt lat="42.672064024955034" lon="-6.986279999837279">
        <ele>693</ele>
        <time>2018-05-22T06:12:32Z</time>
      </trkpt>
      <trkpt lat="42.671936033293605" lon="-6.986165000125766">
        <ele>680</ele>
        <time>2018-05-22T06:12:37Z</time>
      </trkpt>
      <trkpt lat="42.671832013875246" lon="-6.985974982380867">
        <ele>680</ele>
        <time>2018-05-22T06:12:42Z</time>
      </trkpt>
      <trkpt lat="42.671822039410472" lon="-6.985945980995894">
        <ele>680</ele>
        <time>2018-05-22T06:12:42Z</time>
      </trkpt>
      <trkpt lat="42.67179898917675" lon="-6.985899964347482">
        <ele>680</ele>
        <time>2018-05-22T06:12:44Z</time>
      </trkpt>
      <trkpt lat="42.671780968084931" lon="-6.985855037346482">
        <ele>680</ele>
        <time>2018-05-22T06:12:45Z</time>
      </trkpt>
      <trkpt lat="42.671762024983764" lon="-6.985785970464349">
        <ele>680</ele>
        <time>2018-05-22T06:12:46Z</time>
      </trkpt>
      <trkpt lat="42.671742998063564" lon="-6.985711036249995">
        <ele>680</ele>
        <time>2018-05-22T06:12:48Z</time>
      </trkpt>
      <trkpt lat="42.671734029427171" lon="-6.9856589846313">
        <ele>680</ele>
        <time>2018-05-22T06:12:49Z</time>
      </trkpt>
      <trkpt lat="42.671724976971745" lon="-6.985596036538482">
        <ele>680</ele>
        <time>2018-05-22T06:12:51Z</time>
      </trkpt>
      <trkpt lat="42.671715002506971" lon="-6.985548008233309">
        <ele>680</ele>
        <time>2018-05-22T06:12:52Z</time>
      </trkpt>
      <trkpt lat="42.671672003343701" lon="-6.985396966338158">
        <ele>680</ele>
        <time>2018-05-22T06:12:55Z</time>
      </trkpt>
      <trkpt lat="42.671627998352051" lon="-6.985223963856697">
        <ele>679</ele>
        <time>2018-05-22T06:12:59Z</time>
      </trkpt>
      <trkpt lat="42.671563038602471" lon="-6.985009973868728">
        <ele>679</ele>
        <time>2018-05-22T06:13:04Z</time>
      </trkpt>
      <trkpt lat="42.671501012519002" lon="-6.984860021620989">
        <ele>679</ele>
        <time>2018-05-22T06:13:08Z</time>
      </trkpt>
      <trkpt lat="42.671409985050559" lon="-6.984657011926174">
        <ele>679</ele>
        <time>2018-05-22T06:13:13Z</time>
      </trkpt>
      <trkpt lat="42.671363968402147" lon="-6.984447967261076">
        <ele>681</ele>
        <time>2018-05-22T06:13:18Z</time>
      </trkpt>
      <trkpt lat="42.671307977288961" lon="-6.984213022515178">
        <ele>681</ele>
        <time>2018-05-22T06:13:23Z</time>
      </trkpt>
      <trkpt lat="42.671247040852904" lon="-6.984010012820363">
        <ele>681</ele>
        <time>2018-05-22T06:13:28Z</time>
      </trkpt>
      <trkpt lat="42.671146038919687" lon="-6.98370298370719">
        <ele>681</ele>
        <time>2018-05-22T06:13:35Z</time>
      </trkpt>
      <trkpt lat="42.671045958995819" lon="-6.983469966799021">
        <ele>677</ele>
        <time>2018-05-22T06:13:41Z</time>
      </trkpt>
      <trkpt lat="42.670975970104337" lon="-6.983292018994689">
        <ele>677</ele>
        <time>2018-05-22T06:13:46Z</time>
      </trkpt>
      <trkpt lat="42.670904975384474" lon="-6.983128990978003">
        <ele>677</ele>
        <time>2018-05-22T06:13:50Z</time>
      </trkpt>
      <trkpt lat="42.67087203450501" lon="-6.982989013195038">
        <ele>677</ele>
        <time>2018-05-22T06:13:53Z</time>
      </trkpt>
      <trkpt lat="42.670804979279637" lon="-6.982881976291537">
        <ele>677</ele>
        <time>2018-05-22T06:13:56Z</time>
      </trkpt>
      <trkpt lat="42.670696014538407" lon="-6.982720959931612">
        <ele>674</ele>
        <time>2018-05-22T06:14:01Z</time>
      </trkpt>
      <trkpt lat="42.670619990676641" lon="-6.982541000470519">
        <ele>674</ele>
        <time>2018-05-22T06:14:05Z</time>
      </trkpt>
      <trkpt lat="42.670611022040248" lon="-6.982501018792391">
        <ele>674</ele>
        <time>2018-05-22T06:14:06Z</time>
      </trkpt>
      <trkpt lat="42.670601969584823" lon="-6.982447039335966">
        <ele>674</ele>
        <time>2018-05-22T06:14:08Z</time>
      </trkpt>
      <trkpt lat="42.670583026483655" lon="-6.982394987717271">
        <ele>674</ele>
        <time>2018-05-22T06:14:09Z</time>
      </trkpt>
      <trkpt lat="42.670569028705359" lon="-6.982348971068859">
        <ele>674</ele>
        <time>2018-05-22T06:14:10Z</time>
      </trkpt>
      <trkpt lat="42.670555030927062" lon="-6.982308989390731">
        <ele>674</ele>
        <time>2018-05-22T06:14:11Z</time>
      </trkpt>
      <trkpt lat="42.67053198069334" lon="-6.982246041297913">
        <ele>674</ele>
        <time>2018-05-22T06:14:12Z</time>
      </trkpt>
      <trkpt lat="42.670513037592173" lon="-6.982162976637483">
        <ele>674</ele>
        <time>2018-05-22T06:14:14Z</time>
      </trkpt>
      <trkpt lat="42.670517982915044" lon="-6.9821120146662">
        <ele>674</ele>
        <time>2018-05-22T06:14:15Z</time>
      </trkpt>
      <trkpt lat="42.670517982915044" lon="-6.982043031603098">
        <ele>674</ele>
        <time>2018-05-22T06:14:17Z</time>
      </trkpt>
      <trkpt lat="42.670522006228566" lon="-6.981990979984403">
        <ele>672</ele>
        <time>2018-05-22T06:14:18Z</time>
      </trkpt>
      <trkpt lat="42.67053198069334" lon="-6.981933983042836">
        <ele>672</ele>
        <time>2018-05-22T06:14:19Z</time>
      </trkpt>
      <trkpt lat="42.670541033148766" lon="-6.981887966394424">
        <ele>672</ele>
        <time>2018-05-22T06:14:20Z</time>
      </trkpt>
      <trkpt lat="42.670555030927062" lon="-6.981818983331323">
        <ele>672</ele>
        <time>2018-05-22T06:14:22Z</time>
      </trkpt>
      <trkpt lat="42.670563999563456" lon="-6.981760980561376">
        <ele>672</ele>
        <time>2018-05-22T06:14:23Z</time>
      </trkpt>
      <trkpt lat="42.67057397402823" lon="-6.981681017205119">
        <ele>672</ele>
        <time>2018-05-22T06:14:25Z</time>
      </trkpt>
      <trkpt lat="42.670587971806526" lon="-6.981617985293269">
        <ele>672</ele>
        <time>2018-05-22T06:14:27Z</time>
      </trkpt>
      <trkpt lat="42.670597024261951" lon="-6.981555037200451">
        <ele>672</ele>
        <time>2018-05-22T06:14:28Z</time>
      </trkpt>
      <trkpt lat="42.670605992898345" lon="-6.981497034430504">
        <ele>672</ele>
        <time>2018-05-22T06:14:29Z</time>
      </trkpt>
      <trkpt lat="42.670615967363119" lon="-6.981445988640189">
        <ele>672</ele>
        <time>2018-05-22T06:14:30Z</time>
      </trkpt>
      <trkpt lat="42.670633988454938" lon="-6.98138203471899">
        <ele>672</ele>
        <time>2018-05-22T06:14:32Z</time>
      </trkpt>
      <trkpt lat="42.670653015375137" lon="-6.981336018070579">
        <ele>672</ele>
        <time>2018-05-22T06:14:33Z</time>
      </trkpt>
      <trkpt lat="42.670671958476305" lon="-6.981285978108645">
        <ele>672</ele>
        <time>2018-05-22T06:14:34Z</time>
      </trkpt>
      <trkpt lat="42.670689979568124" lon="-6.981235016137362">
        <ele>672</ele>
        <time>2018-05-22T06:14:36Z</time>
      </trkpt>
      <trkpt lat="42.670717975124717" lon="-6.981195034459233">
        <ele>672</ele>
        <time>2018-05-22T06:14:37Z</time>
      </trkpt>
      <trkpt lat="42.670755023136735" lon="-6.981153963133693">
        <ele>670</ele>
        <time>2018-05-22T06:14:38Z</time>
      </trkpt>
      <trkpt lat="42.670783018693328" lon="-6.981120016425848">
        <ele>670</ele>
        <time>2018-05-22T06:14:39Z</time>
      </trkpt>
      <trkpt lat="42.670811014249921" lon="-6.981073999777436">
        <ele>670</ele>
        <time>2018-05-22T06:14:41Z</time>
      </trkpt>
      <trkpt lat="42.670834986492991" lon="-6.981034018099308">
        <ele>670</ele>
        <time>2018-05-22T06:14:42Z</time>
      </trkpt>
      <trkpt lat="42.670862982049584" lon="-6.98099403642118">
        <ele>670</ele>
        <time>2018-05-22T06:14:43Z</time>
      </trkpt>
      <trkpt lat="42.670886032283306" lon="-6.980936033651233">
        <ele>670</ele>
        <time>2018-05-22T06:14:44Z</time>
      </trkpt>
      <trkpt lat="42.670908998697996" lon="-6.980873001739383">
        <ele>670</ele>
        <time>2018-05-22T06:14:46Z</time>
      </trkpt>
      <trkpt lat="42.670925008133054" lon="-6.980819022282958">
        <ele>670</ele>
        <time>2018-05-22T06:14:47Z</time>
      </trkpt>
      <trkpt lat="42.670941017568111" lon="-6.980770993977785">
        <ele>670</ele>
        <time>2018-05-22T06:14:48Z</time>
      </trkpt>
      <trkpt lat="42.670949986204505" lon="-6.980731012299657">
        <ele>670</ele>
        <time>2018-05-22T06:14:49Z</time>
      </trkpt>
      <trkpt lat="42.67095903865993" lon="-6.980678960680962">
        <ele>670</ele>
        <time>2018-05-22T06:14:50Z</time>
      </trkpt>
      <trkpt lat="42.67095903865993" lon="-6.980621963739395">
        <ele>670</ele>
        <time>2018-05-22T06:14:52Z</time>
      </trkpt>
      <trkpt lat="42.67095903865993" lon="-6.980552980676293">
        <ele>670</ele>
        <time>2018-05-22T06:14:53Z</time>
      </trkpt>
      <trkpt lat="42.670949986204505" lon="-6.980495983734727">
        <ele>670</ele>
        <time>2018-05-22T06:14:55Z</time>
      </trkpt>
      <trkpt lat="42.670949986204505" lon="-6.980444015935063">
        <ele>670</ele>
        <time>2018-05-22T06:14:56Z</time>
      </trkpt>
      <trkpt lat="42.670949986204505" lon="-6.980387018993497">
        <ele>670</ele>
        <time>2018-05-22T06:14:57Z</time>
      </trkpt>
      <trkpt lat="42.670949986204505" lon="-6.980334967374802">
        <ele>670</ele>
        <time>2018-05-22T06:14:58Z</time>
      </trkpt>
      <trkpt lat="42.670949986204505" lon="-6.980272019281983">
        <ele>670</ele>
        <time>2018-05-22T06:14:59Z</time>
      </trkpt>
      <trkpt lat="42.670945040881634" lon="-6.980203036218882">
        <ele>670</ele>
        <time>2018-05-22T06:15:01Z</time>
      </trkpt>
      <trkpt lat="42.670935988426208" lon="-6.980140004307032">
        <ele>670</ele>
        <time>2018-05-22T06:15:02Z</time>
      </trkpt>
      <trkpt lat="42.670930959284306" lon="-6.980088036507368">
        <ele>670</ele>
        <time>2018-05-22T06:15:03Z</time>
      </trkpt>
      <trkpt lat="42.670921990647912" lon="-6.980035984888673">
        <ele>670</ele>
        <time>2018-05-22T06:15:05Z</time>
      </trkpt>
      <trkpt lat="42.670913022011518" lon="-6.979973036795855">
        <ele>670</ele>
        <time>2018-05-22T06:15:06Z</time>
      </trkpt>
      <trkpt lat="42.670907992869616" lon="-6.979916039854288">
        <ele>670</ele>
        <time>2018-05-22T06:15:07Z</time>
      </trkpt>
      <trkpt lat="42.670902963727713" lon="-6.979861976578832">
        <ele>670</ele>
        <time>2018-05-22T06:15:08Z</time>
      </trkpt>
      <trkpt lat="42.670899024233222" lon="-6.979803973808885">
        <ele>670</ele>
        <time>2018-05-22T06:15:10Z</time>
      </trkpt>
      <trkpt lat="42.670899024233222" lon="-6.979753011837602">
        <ele>670</ele>
        <time>2018-05-22T06:15:11Z</time>
      </trkpt>
      <trkpt lat="42.670902963727713" lon="-6.979689979925752">
        <ele>670</ele>
        <time>2018-05-22T06:15:12Z</time>
      </trkpt>
      <trkpt lat="42.670927019789815" lon="-6.979648992419243">
        <ele>670</ele>
        <time>2018-05-22T06:15:13Z</time>
      </trkpt>
      <trkpt lat="42.670936994254589" lon="-6.979596018791199">
        <ele>670</ele>
        <time>2018-05-22T06:15:14Z</time>
      </trkpt>
      <trkpt lat="42.670936994254589" lon="-6.979543967172504">
        <ele>670</ele>
        <time>2018-05-22T06:15:16Z</time>
      </trkpt>
      <trkpt lat="42.670942023396492" lon="-6.97949199937284">
        <ele>672</ele>
        <time>2018-05-22T06:15:17Z</time>
      </trkpt>
      <trkpt lat="42.670956021174788" lon="-6.979441037401557">
        <ele>672</ele>
        <time>2018-05-22T06:15:18Z</time>
      </trkpt>
      <trkpt lat="42.670974964275956" lon="-6.979395020753145">
        <ele>672</ele>
        <time>2018-05-22T06:15:19Z</time>
      </trkpt>
      <trkpt lat="42.670988962054253" lon="-6.97934296913445">
        <ele>672</ele>
        <time>2018-05-22T06:15:20Z</time>
      </trkpt>
      <trkpt lat="42.671006983146071" lon="-6.979291001334786">
        <ele>672</ele>
        <time>2018-05-22T06:15:22Z</time>
      </trkpt>
      <trkpt lat="42.671020980924368" lon="-6.97923400439322">
        <ele>672</ele>
        <time>2018-05-22T06:15:23Z</time>
      </trkpt>
      <trkpt lat="42.671031039208174" lon="-6.979182036593556">
        <ele>672</ele>
        <time>2018-05-22T06:15:24Z</time>
      </trkpt>
      <trkpt lat="42.67104503698647" lon="-6.979136019945145">
        <ele>672</ele>
        <time>2018-05-22T06:15:25Z</time>
      </trkpt>
      <trkpt lat="42.671059034764767" lon="-6.979087991639972">
        <ele>672</ele>
        <time>2018-05-22T06:15:26Z</time>
      </trkpt>
      <trkpt lat="42.67108703032136" lon="-6.979048009961844">
        <ele>672</ele>
        <time>2018-05-22T06:15:27Z</time>
      </trkpt>
      <trkpt lat="42.671115025877953" lon="-6.979008028283715">
        <ele>672</ele>
        <time>2018-05-22T06:15:29Z</time>
      </trkpt>
      <trkpt lat="42.671148972585797" lon="-6.978979026898742">
        <ele>672</ele>
        <time>2018-05-22T06:15:30Z</time>
      </trkpt>
      <trkpt lat="42.671178979799151" lon="-6.978943990543485">
        <ele>672</ele>
        <time>2018-05-22T06:15:31Z</time>
      </trkpt>
      <trkpt lat="42.671209992840886" lon="-6.978921024128795">
        <ele>672</ele>
        <time>2018-05-22T06:15:32Z</time>
      </trkpt>
      <trkpt lat="42.671247040852904" lon="-6.978897973895073">
        <ele>672</ele>
        <time>2018-05-22T06:15:33Z</time>
      </trkpt>
      <trkpt lat="42.671285010874271" lon="-6.97886997833848">
        <ele>672</ele>
        <time>2018-05-22T06:15:35Z</time>
      </trkpt>
      <trkpt lat="42.671328010037541" lon="-6.978857992216945">
        <ele>680</ele>
        <time>2018-05-22T06:15:36Z</time>
      </trkpt>
      <trkpt lat="42.671449966728687" lon="-6.978794038295746">
        <ele>680</ele>
        <time>2018-05-22T06:15:40Z</time>
      </trkpt>
      <trkpt lat="42.671477040275931" lon="-6.978778028860688">
        <ele>680</ele>
        <time>2018-05-22T06:15:41Z</time>
      </trkpt>
      <trkpt lat="42.671536970883608" lon="-6.978768976405263">
        <ele>680</ele>
        <time>2018-05-22T06:15:42Z</time>
      </trkpt>
      <trkpt lat="42.671598996967077" lon="-6.97876101359725">
        <ele>680</ele>
        <time>2018-05-22T06:15:44Z</time>
      </trkpt>
      <trkpt lat="42.671651970595121" lon="-6.978752966970205">
        <ele>680</ele>
        <time>2018-05-22T06:15:46Z</time>
      </trkpt>
      <trkpt lat="42.671698993071914" lon="-6.978720026090741">
        <ele>680</ele>
        <time>2018-05-22T06:15:47Z</time>
      </trkpt>
      <trkpt lat="42.671751966699958" lon="-6.978695970028639">
        <ele>691</ele>
        <time>2018-05-22T06:15:49Z</time>
      </trkpt>
      <trkpt lat="42.671811981126666" lon="-6.978670991957188">
        <ele>672</ele>
        <time>2018-05-22T06:15:51Z</time>
      </trkpt>
      <trkpt lat="42.671865960583091" lon="-6.978663029149175">
        <ele>672</ele>
        <time>2018-05-22T06:15:53Z</time>
      </trkpt>
      <trkpt lat="42.671919018030167" lon="-6.978646013885737">
        <ele>672</ele>
        <time>2018-05-22T06:15:54Z</time>
      </trkpt>
      <trkpt lat="42.671971991658211" lon="-6.978630004450679">
        <ele>672</ele>
        <time>2018-05-22T06:15:56Z</time>
      </trkpt>
      <trkpt lat="42.672032006084919" lon="-6.978622041642666">
        <ele>672</ele>
        <time>2018-05-22T06:15:58Z</time>
      </trkpt>
      <trkpt lat="42.67209897749126" lon="-6.978622041642666">
        <ele>672</ele>
        <time>2018-05-22T06:16:00Z</time>
      </trkpt>
      <trkpt lat="42.672152034938335" lon="-6.978613995015621">
        <ele>691</ele>
        <time>2018-05-22T06:16:01Z</time>
      </trkpt>
      <trkpt lat="42.67220500856638" lon="-6.978596979752183">
        <ele>691</ele>
        <time>2018-05-22T06:16:03Z</time>
      </trkpt>
      <trkpt lat="42.672256976366043" lon="-6.978580970317125">
        <ele>691</ele>
        <time>2018-05-22T06:16:04Z</time>
      </trkpt>
      <trkpt lat="42.672298969700933" lon="-6.978539982810617">
        <ele>691</ele>
        <time>2018-05-22T06:16:06Z</time>
      </trkpt>
      <trkpt lat="42.672331994399428" lon="-6.978498995304108">
        <ele>691</ele>
        <time>2018-05-22T06:16:07Z</time>
      </trkpt>
      <trkpt lat="42.672360995784402" lon="-6.978435963392258">
        <ele>691</ele>
        <time>2018-05-22T06:16:09Z</time>
      </trkpt>
      <trkpt lat="42.672360995784402" lon="-6.978320963680744">
        <ele>691</ele>
        <time>2018-05-22T06:16:11Z</time>
      </trkpt>
      <trkpt lat="42.672360995784402" lon="-6.978244017809629">
        <ele>691</ele>
        <time>2018-05-22T06:16:13Z</time>
      </trkpt>
      <trkpt lat="42.672368036583066" lon="-6.978166988119483">
        <ele>691</ele>
        <time>2018-05-22T06:16:15Z</time>
      </trkpt>
      <trkpt lat="42.672368036583066" lon="-6.978092975914478">
        <ele>691</ele>
        <time>2018-05-22T06:16:16Z</time>
      </trkpt>
      <trkpt lat="42.672374993562698" lon="-6.978011000901461">
        <ele>691</ele>
        <time>2018-05-22T06:16:18Z</time>
      </trkpt>
      <trkpt lat="42.672374993562698" lon="-6.977929025888443">
        <ele>691</ele>
        <time>2018-05-22T06:16:20Z</time>
      </trkpt>
      <trkpt lat="42.672383962199092" lon="-6.977844033390284">
        <ele>692</ele>
        <time>2018-05-22T06:16:22Z</time>
      </trkpt>
      <trkpt lat="42.672383962199092" lon="-6.977759962901473">
        <ele>692</ele>
        <time>2018-05-22T06:16:24Z</time>
      </trkpt>
      <trkpt lat="42.672383962199092" lon="-6.977677987888455">
        <ele>692</ele>
        <time>2018-05-22T06:16:25Z</time>
      </trkpt>
      <trkpt lat="42.672389997169375" lon="-6.977595007047057">
        <ele>692</ele>
        <time>2018-05-22T06:16:27Z</time>
      </trkpt>
      <trkpt lat="42.672402989119291" lon="-6.977522000670433">
        <ele>692</ele>
        <time>2018-05-22T06:16:29Z</time>
      </trkpt>
      <trkpt lat="42.672410029917955" lon="-6.977447988465428">
        <ele>692</ele>
        <time>2018-05-22T06:16:31Z</time>
      </trkpt>
      <trkpt lat="42.672410029917955" lon="-6.977373976260424">
        <ele>692</ele>
        <time>2018-05-22T06:16:32Z</time>
      </trkpt>
      <trkpt lat="42.672424027696252" lon="-6.977297030389309">
        <ele>692</ele>
        <time>2018-05-22T06:16:34Z</time>
      </trkpt>
      <trkpt lat="42.672424027696252" lon="-6.97721497155726">
        <ele>692</ele>
        <time>2018-05-22T06:16:36Z</time>
      </trkpt>
      <trkpt lat="42.672431990504265" lon="-6.977122016251087">
        <ele>692</ele>
        <time>2018-05-22T06:16:38Z</time>
      </trkpt>
      <trkpt lat="42.672431990504265" lon="-6.977048004046083">
        <ele>689</ele>
        <time>2018-05-22T06:16:39Z</time>
      </trkpt>
      <trkpt lat="42.672439031302929" lon="-6.976966029033065">
        <ele>689</ele>
        <time>2018-05-22T06:16:41Z</time>
      </trkpt>
      <trkpt lat="42.672452023252845" lon="-6.97689201682806">
        <ele>689</ele>
        <time>2018-05-22T06:16:43Z</time>
      </trkpt>
      <trkpt lat="42.672466021031141" lon="-6.976826973259449">
        <ele>689</ele>
        <time>2018-05-22T06:16:44Z</time>
      </trkpt>
      <trkpt lat="42.672479012981057" lon="-6.976744998246431">
        <ele>689</ele>
        <time>2018-05-22T06:16:46Z</time>
      </trkpt>
      <trkpt lat="42.672492004930973" lon="-6.976670986041427">
        <ele>689</ele>
        <time>2018-05-22T06:16:48Z</time>
      </trkpt>
      <trkpt lat="42.67250600270927" lon="-6.976596973836422">
        <ele>689</ele>
        <time>2018-05-22T06:16:49Z</time>
      </trkpt>
      <trkpt lat="42.672512037679553" lon="-6.976522961631417">
        <ele>689</ele>
        <time>2018-05-22T06:16:51Z</time>
      </trkpt>
      <trkpt lat="42.67252603545785" lon="-6.976449033245444">
        <ele>689</ele>
        <time>2018-05-22T06:16:53Z</time>
      </trkpt>
      <trkpt lat="42.67252603545785" lon="-6.976366974413395">
        <ele>689</ele>
        <time>2018-05-22T06:16:54Z</time>
      </trkpt>
      <trkpt lat="42.67252603545785" lon="-6.976284999400377">
        <ele>689</ele>
        <time>2018-05-22T06:16:56Z</time>
      </trkpt>
      <trkpt lat="42.67252603545785" lon="-6.976210987195373">
        <ele>682</ele>
        <time>2018-05-22T06:16:58Z</time>
      </trkpt>
      <trkpt lat="42.67252603545785" lon="-6.97612096555531">
        <ele>682</ele>
        <time>2018-05-22T06:17:00Z</time>
      </trkpt>
      <trkpt lat="42.672518994659185" lon="-6.976044019684196">
        <ele>682</ele>
        <time>2018-05-22T06:17:01Z</time>
      </trkpt>
      <trkpt lat="42.672512037679553" lon="-6.975961960852146">
        <ele>682</ele>
        <time>2018-05-22T06:17:03Z</time>
      </trkpt>
      <trkpt lat="42.67250600270927" lon="-6.975856013596058">
        <ele>682</ele>
        <time>2018-05-22T06:17:06Z</time>
      </trkpt>
      <trkpt lat="42.67250600270927" lon="-6.975782001391053">
        <ele>682</ele>
        <time>2018-05-22T06:17:07Z</time>
      </trkpt>
      <trkpt lat="42.672498961910605" lon="-6.975700026378036">
        <ele>682</ele>
        <time>2018-05-22T06:17:09Z</time>
      </trkpt>
      <trkpt lat="42.672498961910605" lon="-6.975626014173031">
        <ele>682</ele>
        <time>2018-05-22T06:17:11Z</time>
      </trkpt>
      <trkpt lat="42.672492004930973" lon="-6.975552001968026">
        <ele>682</ele>
        <time>2018-05-22T06:17:12Z</time>
      </trkpt>
      <trkpt lat="42.67248596996069" lon="-6.975454017519951">
        <ele>682</ele>
        <time>2018-05-22T06:17:14Z</time>
      </trkpt>
      <trkpt lat="42.672479012981057" lon="-6.975371958687902">
        <ele>682</ele>
        <time>2018-05-22T06:17:16Z</time>
      </trkpt>
      <trkpt lat="42.672471972182393" lon="-6.97528101503849">
        <ele>681</ele>
        <time>2018-05-22T06:17:18Z</time>
      </trkpt>
      <trkpt lat="42.672471972182393" lon="-6.975190993398428">
        <ele>681</ele>
        <time>2018-05-22T06:17:20Z</time>
      </trkpt>
      <trkpt lat="42.672466021031141" lon="-6.975116981193423">
        <ele>681</ele>
        <time>2018-05-22T06:17:22Z</time>
      </trkpt>
      <trkpt lat="42.672466021031141" lon="-6.975035006180406">
        <ele>681</ele>
        <time>2018-05-22T06:17:24Z</time>
      </trkpt>
      <trkpt lat="42.672458980232477" lon="-6.974960993975401">
        <ele>681</ele>
        <time>2018-05-22T06:17:25Z</time>
      </trkpt>
      <trkpt lat="42.672452023252845" lon="-6.974870972335339">
        <ele>681</ele>
        <time>2018-05-22T06:17:27Z</time>
      </trkpt>
      <trkpt lat="42.672452023252845" lon="-6.974796960130334">
        <ele>681</ele>
        <time>2018-05-22T06:17:29Z</time>
      </trkpt>
      <trkpt lat="42.672452023252845" lon="-6.97468196041882">
        <ele>681</ele>
        <time>2018-05-22T06:17:31Z</time>
      </trkpt>
      <trkpt lat="42.672452023252845" lon="-6.974558997899294">
        <ele>681</ele>
        <time>2018-05-22T06:17:34Z</time>
      </trkpt>
      <trkpt lat="42.672452023252845" lon="-6.974484985694289">
        <ele>681</ele>
        <time>2018-05-22T06:17:36Z</time>
      </trkpt>
      <trkpt lat="42.672466021031141" lon="-6.974403010681272">
        <ele>680</ele>
        <time>2018-05-22T06:17:37Z</time>
      </trkpt>
      <trkpt lat="42.672466021031141" lon="-6.974321035668254">
        <ele>680</ele>
        <time>2018-05-22T06:17:39Z</time>
      </trkpt>
      <trkpt lat="42.672466021031141" lon="-6.974238976836205">
        <ele>680</ele>
        <time>2018-05-22T06:17:41Z</time>
      </trkpt>
      <trkpt lat="42.672466021031141" lon="-6.974149039015174">
        <ele>680</ele>
        <time>2018-05-22T06:17:43Z</time>
      </trkpt>
      <trkpt lat="42.672471972182393" lon="-6.974066980183125">
        <ele>680</ele>
        <time>2018-05-22T06:17:45Z</time>
      </trkpt>
      <trkpt lat="42.67248596996069" lon="-6.97399296797812">
        <ele>680</ele>
        <time>2018-05-22T06:17:46Z</time>
      </trkpt>
      <trkpt lat="42.672492004930973" lon="-6.973903030157089">
        <ele>680</ele>
        <time>2018-05-22T06:17:48Z</time>
      </trkpt>
      <trkpt lat="42.67250600270927" lon="-6.973829017952085">
        <ele>680</ele>
        <time>2018-05-22T06:17:50Z</time>
      </trkpt>
      <trkpt lat="42.672512037679553" lon="-6.97375500574708">
        <ele>680</ele>
        <time>2018-05-22T06:17:52Z</time>
      </trkpt>
      <trkpt lat="42.672518994659185" lon="-6.973680993542075">
        <ele>680</ele>
        <time>2018-05-22T06:17:53Z</time>
      </trkpt>
      <trkpt lat="42.67252603545785" lon="-6.973599018529058">
        <ele>677</ele>
        <time>2018-05-22T06:17:55Z</time>
      </trkpt>
      <trkpt lat="42.672535004094243" lon="-6.973531041294336">
        <ele>677</ele>
        <time>2018-05-22T06:17:57Z</time>
      </trkpt>
      <trkpt lat="42.672547996044159" lon="-6.973448982462287">
        <ele>677</ele>
        <time>2018-05-22T06:17:58Z</time>
      </trkpt>
      <trkpt lat="42.672555036842823" lon="-6.973367007449269">
        <ele>677</ele>
        <time>2018-05-22T06:18:00Z</time>
      </trkpt>
      <trkpt lat="42.672560987994075" lon="-6.973292995244265">
        <ele>677</ele>
        <time>2018-05-22T06:18:02Z</time>
      </trkpt>
      <trkpt lat="42.672560987994075" lon="-6.973202973604202">
        <ele>677</ele>
        <time>2018-05-22T06:18:04Z</time>
      </trkpt>
      <trkpt lat="42.672560987994075" lon="-6.973120998591185">
        <ele>677</ele>
        <time>2018-05-22T06:18:06Z</time>
      </trkpt>
      <trkpt lat="42.672560987994075" lon="-6.973029971122742">
        <ele>677</ele>
        <time>2018-05-22T06:18:07Z</time>
      </trkpt>
      <trkpt lat="42.672560987994075" lon="-6.972931986674666">
        <ele>677</ele>
        <time>2018-05-22T06:18:10Z</time>
      </trkpt>
      <trkpt lat="42.672560987994075" lon="-6.972832996398211">
        <ele>677</ele>
        <time>2018-05-22T06:18:12Z</time>
      </trkpt>
      <trkpt lat="42.672555036842823" lon="-6.972751021385193">
        <ele>676</ele>
        <time>2018-05-22T06:18:14Z</time>
      </trkpt>
      <trkpt lat="42.672547996044159" lon="-6.972653036937118">
        <ele>676</ele>
        <time>2018-05-22T06:18:16Z</time>
      </trkpt>
      <trkpt lat="42.672547996044159" lon="-6.972579024732113">
        <ele>676</ele>
        <time>2018-05-22T06:18:17Z</time>
      </trkpt>
      <trkpt lat="42.672547996044159" lon="-6.972471987828612">
        <ele>676</ele>
        <time>2018-05-22T06:18:20Z</time>
      </trkpt>
      <trkpt lat="42.672547996044159" lon="-6.972398981451988">
        <ele>676</ele>
        <time>2018-05-22T06:18:21Z</time>
      </trkpt>
      <trkpt lat="42.672535004094243" lon="-6.972313988953829">
        <ele>676</ele>
        <time>2018-05-22T06:18:23Z</time>
      </trkpt>
      <trkpt lat="42.672535004094243" lon="-6.972039984539151">
        <ele>676</ele>
        <time>2018-05-22T06:18:29Z</time>
      </trkpt>
      <trkpt lat="42.672535004094243" lon="-6.971754999831319">
        <ele>673</ele>
        <time>2018-05-22T06:18:35Z</time>
      </trkpt>
      <trkpt lat="42.672535004094243" lon="-6.971487030386925">
        <ele>673</ele>
        <time>2018-05-22T06:18:41Z</time>
      </trkpt>
      <trkpt lat="42.672576997429132" lon="-6.971308998763561">
        <ele>673</ele>
        <time>2018-05-22T06:18:45Z</time>
      </trkpt>
      <trkpt lat="42.672645980492234" lon="-6.971095008775592">
        <ele>666</ele>
        <time>2018-05-22T06:18:50Z</time>
      </trkpt>
      <trkpt lat="42.672699959948659" lon="-6.970912031829357">
        <ele>666</ele>
        <time>2018-05-22T06:18:55Z</time>
      </trkpt>
      <trkpt lat="42.67270096577704" lon="-6.970707010477781">
        <ele>666</ele>
        <time>2018-05-22T06:18:59Z</time>
      </trkpt>
      <trkpt lat="42.67270096577704" lon="-6.970627969130874">
        <ele>666</ele>
        <time>2018-05-22T06:19:01Z</time>
      </trkpt>
      <trkpt lat="42.67270096577704" lon="-6.970538031309843">
        <ele>666</ele>
        <time>2018-05-22T06:19:03Z</time>
      </trkpt>
      <trkpt lat="42.67270096577704" lon="-6.970461001619697">
        <ele>666</ele>
        <time>2018-05-22T06:19:04Z</time>
      </trkpt>
      <trkpt lat="42.672694008797407" lon="-6.970386989414692">
        <ele>666</ele>
        <time>2018-05-22T06:19:06Z</time>
      </trkpt>
      <trkpt lat="42.672673976048827" lon="-6.970315994694829">
        <ele>670</ele>
        <time>2018-05-22T06:19:08Z</time>
      </trkpt>
      <trkpt lat="42.672641035169363" lon="-6.970257991924882">
        <ele>670</ele>
        <time>2018-05-22T06:19:09Z</time>
      </trkpt>
      <trkpt lat="42.672600969672203" lon="-6.97020904161036">
        <ele>670</ele>
        <time>2018-05-22T06:19:11Z</time>
      </trkpt>
      <trkpt lat="42.672538021579385" lon="-6.970149027183652">
        <ele>670</ele>
        <time>2018-05-22T06:19:13Z</time>
      </trkpt>
      <trkpt lat="42.672504996880889" lon="-6.97008297778666">
        <ele>670</ele>
        <time>2018-05-22T06:19:15Z</time>
      </trkpt>
      <trkpt lat="42.672469038516283" lon="-6.970015000551939">
        <ele>670</ele>
        <time>2018-05-22T06:19:17Z</time>
      </trkpt>
      <trkpt lat="42.672428973019123" lon="-6.969964960590005">
        <ele>670</ele>
        <time>2018-05-22T06:19:18Z</time>
      </trkpt>
      <trkpt lat="42.672383040189743" lon="-6.969900000840426">
        <ele>670</ele>
        <time>2018-05-22T06:19:20Z</time>
      </trkpt>
      <trkpt lat="42.672346998006105" lon="-6.969859013333917">
        <ele>670</ele>
        <time>2018-05-22T06:19:22Z</time>
      </trkpt>
      <trkpt lat="42.672300981357694" lon="-6.96980101056397">
        <ele>670</ele>
        <time>2018-05-22T06:19:23Z</time>
      </trkpt>
      <trkpt lat="42.672260999679565" lon="-6.969760023057461">
        <ele>670</ele>
        <time>2018-05-22T06:19:25Z</time>
      </trkpt>
      <trkpt lat="42.672209031879902" lon="-6.969723980873823">
        <ele>670</ele>
        <time>2018-05-22T06:19:27Z</time>
      </trkpt>
      <trkpt lat="42.672159997746348" lon="-6.969680981710553">
        <ele>670</ele>
        <time>2018-05-22T06:19:28Z</time>
      </trkpt>
      <trkpt lat="42.672118004411459" lon="-6.969611998647451">
        <ele>659</ele>
        <time>2018-05-22T06:19:30Z</time>
      </trkpt>
      <trkpt lat="42.672066958621144" lon="-6.969588026404381">
        <ele>659</ele>
        <time>2018-05-22T06:19:32Z</time>
      </trkpt>
      <trkpt lat="42.672010967507958" lon="-6.969562964513898">
        <ele>659</ele>
        <time>2018-05-22T06:19:34Z</time>
      </trkpt>
      <trkpt lat="42.671957993879914" lon="-6.969514014199376">
        <ele>659</ele>
        <time>2018-05-22T06:19:36Z</time>
      </trkpt>
      <trkpt lat="42.671908959746361" lon="-6.969473026692867">
        <ele>659</ele>
        <time>2018-05-22T06:19:37Z</time>
      </trkpt>
      <trkpt lat="42.671855986118317" lon="-6.969422986730933">
        <ele>659</ele>
        <time>2018-05-22T06:19:39Z</time>
      </trkpt>
      <trkpt lat="42.671816004440188" lon="-6.969381999224424">
        <ele>659</ele>
        <time>2018-05-22T06:19:41Z</time>
      </trkpt>
      <trkpt lat="42.67177602276206" lon="-6.969330031424761">
        <ele>659</ele>
        <time>2018-05-22T06:19:42Z</time>
      </trkpt>
      <trkpt lat="42.671721959486604" lon="-6.969261970371008">
        <ele>659</ele>
        <time>2018-05-22T06:19:45Z</time>
      </trkpt>
      <trkpt lat="42.671702010557055" lon="-6.969196004793048">
        <ele>659</ele>
        <time>2018-05-22T06:19:46Z</time>
      </trkpt>
      <trkpt lat="42.67168901860714" lon="-6.96911402978003">
        <ele>659</ele>
        <time>2018-05-22T06:19:48Z</time>
      </trkpt>
      <trkpt lat="42.67168901860714" lon="-6.969029037281871">
        <ele>659</ele>
        <time>2018-05-22T06:19:50Z</time>
      </trkpt>
      <trkpt lat="42.671710979193449" lon="-6.968935998156667">
        <ele>659</ele>
        <time>2018-05-22T06:19:52Z</time>
      </trkpt>
      <trkpt lat="42.671745009720325" lon="-6.968868020921946">
        <ele>659</ele>
        <time>2018-05-22T06:19:54Z</time>
      </trkpt>
      <trkpt lat="42.671784991398454" lon="-6.968824015930295">
        <ele>659</ele>
        <time>2018-05-22T06:19:55Z</time>
      </trkpt>
      <trkpt lat="42.671826984733343" lon="-6.968796020373702">
        <ele>659</ele>
        <time>2018-05-22T06:19:57Z</time>
      </trkpt>
      <trkpt lat="42.671882975846529" lon="-6.968746986240149">
        <ele>659</ele>
        <time>2018-05-22T06:19:59Z</time>
      </trkpt>
      <trkpt lat="42.671923041343689" lon="-6.968722008168697">
        <ele>659</ele>
        <time>2018-05-22T06:20:00Z</time>
      </trkpt>
      <trkpt lat="42.671976014971733" lon="-6.968689989298582">
        <ele>655</ele>
        <time>2018-05-22T06:20:02Z</time>
      </trkpt>
      <trkpt lat="42.672036029398441" lon="-6.968656964600086">
        <ele>655</ele>
        <time>2018-05-22T06:20:04Z</time>
      </trkpt>
      <trkpt lat="42.672078022733331" lon="-6.96862100623548">
        <ele>655</ele>
        <time>2018-05-22T06:20:05Z</time>
      </trkpt>
      <trkpt lat="42.672124961391091" lon="-6.968580018728972">
        <ele>661</ele>
        <time>2018-05-22T06:20:07Z</time>
      </trkpt>
      <trkpt lat="42.672180030494928" lon="-6.968543976545334">
        <ele>661</ele>
        <time>2018-05-22T06:20:09Z</time>
      </trkpt>
      <trkpt lat="42.672234009951353" lon="-6.968499971553683">
        <ele>661</ele>
        <time>2018-05-22T06:20:11Z</time>
      </trkpt>
      <trkpt lat="42.672286983579397" lon="-6.968451021239162">
        <ele>661</ele>
        <time>2018-05-22T06:20:12Z</time>
      </trkpt>
      <trkpt lat="42.672325037419796" lon="-6.968415984883905">
        <ele>661</ele>
        <time>2018-05-22T06:20:14Z</time>
      </trkpt>
      <trkpt lat="42.672368036583066" lon="-6.968382960185409">
        <ele>661</ele>
        <time>2018-05-22T06:20:15Z</time>
      </trkpt>
      <trkpt lat="42.672406006604433" lon="-6.968350019305944">
        <ele>661</ele>
        <time>2018-05-22T06:20:17Z</time>
      </trkpt>
      <trkpt lat="42.672440959140658" lon="-6.968290004879236">
        <ele>661</ele>
        <time>2018-05-22T06:20:18Z</time>
      </trkpt>
      <trkpt lat="42.672468032687902" lon="-6.968232002109289">
        <ele>661</ele>
        <time>2018-05-22T06:20:20Z</time>
      </trkpt>
      <trkpt lat="42.672500973567367" lon="-6.968175005167723">
        <ele>661</ele>
        <time>2018-05-22T06:20:21Z</time>
      </trkpt>
      <trkpt lat="42.672541039064527" lon="-6.968117002397776">
        <ele>661</ele>
        <time>2018-05-22T06:20:23Z</time>
      </trkpt>
      <trkpt lat="42.6725700404495" lon="-6.968056987971067">
        <ele>661</ele>
        <time>2018-05-22T06:20:25Z</time>
      </trkpt>
      <trkpt lat="42.672589989379048" lon="-6.967991022393107">
        <ele>661</ele>
        <time>2018-05-22T06:20:26Z</time>
      </trkpt>
      <trkpt lat="42.672621002420783" lon="-6.967920027673245">
        <ele>661</ele>
        <time>2018-05-22T06:20:28Z</time>
      </trkpt>
      <trkpt lat="42.672655032947659" lon="-6.967863030731678">
        <ele>655</ele>
        <time>2018-05-22T06:20:30Z</time>
      </trkpt>
      <trkpt lat="42.672697026282549" lon="-6.967812990769744">
        <ele>655</ele>
        <time>2018-05-22T06:20:31Z</time>
      </trkpt>
      <trkpt lat="42.672729967162013" lon="-6.967748031020165">
        <ele>655</ele>
        <time>2018-05-22T06:20:33Z</time>
      </trkpt>
      <trkpt lat="42.672762991860509" lon="-6.967688016593456">
        <ele>655</ele>
        <time>2018-05-22T06:20:35Z</time>
      </trkpt>
      <trkpt lat="42.672797022387385" lon="-6.967644011601806">
        <ele>655</ele>
        <time>2018-05-22T06:20:36Z</time>
      </trkpt>
      <trkpt lat="42.672837004065514" lon="-6.967569999396801">
        <ele>655</ele>
        <time>2018-05-22T06:20:38Z</time>
      </trkpt>
      <trkpt lat="42.672866005450487" lon="-6.967511996626854">
        <ele>655</ele>
        <time>2018-05-22T06:20:40Z</time>
      </trkpt>
      <trkpt lat="42.672899030148983" lon="-6.967451982200146">
        <ele>655</ele>
        <time>2018-05-22T06:20:41Z</time>
      </trkpt>
      <trkpt lat="42.672912022098899" lon="-6.967370007187128">
        <ele>655</ele>
        <time>2018-05-22T06:20:43Z</time>
      </trkpt>
      <trkpt lat="42.672926019877195" lon="-6.967304041609168">
        <ele>655</ele>
        <time>2018-05-22T06:20:44Z</time>
      </trkpt>
      <trkpt lat="42.672941023483872" lon="-6.967232963070273">
        <ele>668</ele>
        <time>2018-05-22T06:20:46Z</time>
      </trkpt>
      <trkpt lat="42.672941023483872" lon="-6.967156017199159">
        <ele>668</ele>
        <time>2018-05-22T06:20:48Z</time>
      </trkpt>
      <trkpt lat="42.672941023483872" lon="-6.967082004994154">
        <ele>668</ele>
        <time>2018-05-22T06:20:49Z</time>
      </trkpt>
      <trkpt lat="42.672941023483872" lon="-6.967000029981136">
        <ele>660</ele>
        <time>2018-05-22T06:20:51Z</time>
      </trkpt>
      <trkpt lat="42.672941023483872" lon="-6.966906990855932">
        <ele>660</ele>
        <time>2018-05-22T06:20:53Z</time>
      </trkpt>
      <trkpt lat="42.672928031533957" lon="-6.966842031106353">
        <ele>654</ele>
        <time>2018-05-22T06:20:55Z</time>
      </trkpt>
      <trkpt lat="42.672915039584041" lon="-6.966768018901348">
        <ele>654</ele>
        <time>2018-05-22T06:20:56Z</time>
      </trkpt>
      <trkpt lat="42.672895006835461" lon="-6.966676991432905">
        <ele>654</ele>
        <time>2018-05-22T06:20:58Z</time>
      </trkpt>
      <trkpt lat="42.672881009057164" lon="-6.966612031683326">
        <ele>654</ele>
        <time>2018-05-22T06:21:00Z</time>
      </trkpt>
      <trkpt lat="42.672868017107248" lon="-6.966542964801192">
        <ele>654</ele>
        <time>2018-05-22T06:21:01Z</time>
      </trkpt>
      <trkpt lat="42.67282803542912" lon="-6.966478005051613">
        <ele>654</ele>
        <time>2018-05-22T06:21:03Z</time>
      </trkpt>
      <trkpt lat="42.67278796993196" lon="-6.966406004503369">
        <ele>654</ele>
        <time>2018-05-22T06:21:05Z</time>
      </trkpt>
      <trkpt lat="42.672760980203748" lon="-6.966349007561803">
        <ele>654</ele>
        <time>2018-05-22T06:21:07Z</time>
      </trkpt>
      <trkpt lat="42.672714963555336" lon="-6.966299973428249">
        <ele>654</ele>
        <time>2018-05-22T06:21:08Z</time>
      </trkpt>
      <trkpt lat="42.672687973827124" lon="-6.966234007850289">
        <ele>654</ele>
        <time>2018-05-22T06:21:10Z</time>
      </trkpt>
      <trkpt lat="42.672642040997744" lon="-6.966143986210227">
        <ele>654</ele>
        <time>2018-05-22T06:21:12Z</time>
      </trkpt>
      <trkpt lat="42.672608010470867" lon="-6.966069974005222">
        <ele>654</ele>
        <time>2018-05-22T06:21:14Z</time>
      </trkpt>
      <trkpt lat="42.672574985772371" lon="-6.965987998992205">
        <ele>654</ele>
        <time>2018-05-22T06:21:16Z</time>
      </trkpt>
      <trkpt lat="42.672535004094243" lon="-6.965947011485696">
        <ele>654</ele>
        <time>2018-05-22T06:21:18Z</time>
      </trkpt>
      <trkpt lat="42.672495022416115" lon="-6.965890014544129">
        <ele>654</ele>
        <time>2018-05-22T06:21:20Z</time>
      </trkpt>
      <trkpt lat="42.672455040737987" lon="-6.965798987075687">
        <ele>654</ele>
        <time>2018-05-22T06:21:22Z</time>
      </trkpt>
      <trkpt lat="42.672422016039491" lon="-6.965724974870682">
        <ele>654</ele>
        <time>2018-05-22T06:21:24Z</time>
      </trkpt>
      <trkpt lat="42.672387985512614" lon="-6.965651968494058">
        <ele>654</ele>
        <time>2018-05-22T06:21:26Z</time>
      </trkpt>
      <trkpt lat="42.672362001612782" lon="-6.965578040108085">
        <ele>654</ele>
        <time>2018-05-22T06:21:27Z</time>
      </trkpt>
      <trkpt lat="42.672310033813119" lon="-6.965534035116434">
        <ele>654</ele>
        <time>2018-05-22T06:21:29Z</time>
      </trkpt>
      <trkpt lat="42.67222797498107" lon="-6.96537503041327">
        <ele>654</ele>
        <time>2018-05-22T06:21:33Z</time>
      </trkpt>
      <trkpt lat="42.672008033841848" lon="-6.964975968003273">
        <ele>652</ele>
        <time>2018-05-22T06:21:44Z</time>
      </trkpt>
      <trkpt lat="42.67181902192533" lon="-6.96462300606072">
        <ele>652</ele>
        <time>2018-05-22T06:21:54Z</time>
      </trkpt>
      <trkpt lat="42.671696981415153" lon="-6.964278006926179">
        <ele>653</ele>
        <time>2018-05-22T06:22:02Z</time>
      </trkpt>
      <trkpt lat="42.67156396061182" lon="-6.963954968377948">
        <ele>653</ele>
        <time>2018-05-22T06:22:10Z</time>
      </trkpt>
      <trkpt lat="42.671450972557068" lon="-6.963665038347244">
        <ele>653</ele>
        <time>2018-05-22T06:22:17Z</time>
      </trkpt>
      <trkpt lat="42.67132599838078" lon="-6.963368989527226">
        <ele>661</ele>
        <time>2018-05-22T06:22:25Z</time>
      </trkpt>
      <trkpt lat="42.671246035024524" lon="-6.963112000375986">
        <ele>652</ele>
        <time>2018-05-22T06:22:31Z</time>
      </trkpt>
      <trkpt lat="42.671142015606165" lon="-6.962834978476167">
        <ele>652</ele>
        <time>2018-05-22T06:22:38Z</time>
      </trkpt>
      <trkpt lat="42.671000026166439" lon="-6.962457960471511">
        <ele>650</ele>
        <time>2018-05-22T06:22:47Z</time>
      </trkpt>
      <trkpt lat="42.670905981212854" lon="-6.962041966617107">
        <ele>650</ele>
        <time>2018-05-22T06:22:56Z</time>
      </trkpt>
      <trkpt lat="42.670819982886314" lon="-6.961635025218129">
        <ele>652</ele>
        <time>2018-05-22T06:23:05Z</time>
      </trkpt>
      <trkpt lat="42.670713029801846" lon="-6.961246021091938">
        <ele>652</ele>
        <time>2018-05-22T06:23:15Z</time>
      </trkpt>
      <trkpt lat="42.67061797901988" lon="-6.961040999740362">
        <ele>661</ele>
        <time>2018-05-22T06:23:20Z</time>
      </trkpt>
      <trkpt lat="42.670479007065296" lon="-6.960658030584455">
        <ele>661</ele>
        <time>2018-05-22T06:23:29Z</time>
      </trkpt>
      <trkpt lat="42.67037901096046" lon="-6.960490979254246">
        <ele>645</ele>
        <time>2018-05-22T06:23:34Z</time>
      </trkpt>
      <trkpt lat="42.670243978500366" lon="-6.960242036730051">
        <ele>651</ele>
        <time>2018-05-22T06:23:41Z</time>
      </trkpt>
      <trkpt lat="42.670090002939105" lon="-6.959928972646594">
        <ele>651</ele>
        <time>2018-05-22T06:23:49Z</time>
      </trkpt>
      <trkpt lat="42.66988598741591" lon="-6.959491018205881">
        <ele>663</ele>
        <time>2018-05-22T06:24:00Z</time>
      </trkpt>
      <trkpt lat="42.669788002967834" lon="-6.959305023774505">
        <ele>644</ele>
        <time>2018-05-22T06:24:05Z</time>
      </trkpt>
      <trkpt lat="42.669619023799896" lon="-6.959041999652982">
        <ele>663</ele>
        <time>2018-05-22T06:24:13Z</time>
      </trkpt>
      <trkpt lat="42.66943596303463" lon="-6.958849970251322">
        <ele>645</ele>
        <time>2018-05-22T06:24:19Z</time>
      </trkpt>
      <trkpt lat="42.669099010527134" lon="-6.958570014685392">
        <ele>649</ele>
        <time>2018-05-22T06:24:31Z</time>
      </trkpt>
      <trkpt lat="42.668777983635664" lon="-6.95835099555552">
        <ele>649</ele>
        <time>2018-05-22T06:24:42Z</time>
      </trkpt>
      <trkpt lat="42.668542033061385" lon="-6.9580930005759">
        <ele>641</ele>
        <time>2018-05-22T06:24:51Z</time>
      </trkpt>
      <trkpt lat="42.668217988684773" lon="-6.957830982282758">
        <ele>644</ele>
        <time>2018-05-22T06:25:02Z</time>
      </trkpt>
      <trkpt lat="42.667849017307162" lon="-6.957583967596293">
        <ele>642</ele>
        <time>2018-05-22T06:25:14Z</time>
      </trkpt>
      <trkpt lat="42.667604014277458" lon="-6.957376012578607">
        <ele>642</ele>
        <time>2018-05-22T06:25:22Z</time>
      </trkpt>
      <trkpt lat="42.667261026799679" lon="-6.95704098790884">
        <ele>649</ele>
        <time>2018-05-22T06:25:35Z</time>
      </trkpt>
      <trkpt lat="42.666945029050112" lon="-6.95673999376595">
        <ele>644</ele>
        <time>2018-05-22T06:25:46Z</time>
      </trkpt>
      <trkpt lat="42.666651997715235" lon="-6.956476969644427">
        <ele>644</ele>
        <time>2018-05-22T06:25:57Z</time>
      </trkpt>
      <trkpt lat="42.666349997743964" lon="-6.956259040161967">
        <ele>644</ele>
        <time>2018-05-22T06:26:07Z</time>
      </trkpt>
      <trkpt lat="42.666110023856163" lon="-6.955957962200046">
        <ele>648</ele>
        <time>2018-05-22T06:26:17Z</time>
      </trkpt>
      <trkpt lat="42.665784973651171" lon="-6.955739026889205">
        <ele>648</ele>
        <time>2018-05-22T06:26:27Z</time>
      </trkpt>
      <trkpt lat="42.665539970621467" lon="-6.955569041892886">
        <ele>648</ele>
        <time>2018-05-22T06:26:35Z</time>
      </trkpt>
      <trkpt lat="42.66526403836906" lon="-6.955371983349323">
        <ele>649</ele>
        <time>2018-05-22T06:26:45Z</time>
      </trkpt>
      <trkpt lat="42.665246017277241" lon="-6.955371983349323">
        <ele>649</ele>
        <time>2018-05-22T06:26:45Z</time>
      </trkpt>
      <trkpt lat="42.664979975670576" lon="-6.955097978934646">
        <ele>652</ele>
        <time>2018-05-22T06:26:55Z</time>
      </trkpt>
      <trkpt lat="42.664809990674257" lon="-6.954863034188747">
        <ele>652</ele>
        <time>2018-05-22T06:27:02Z</time>
      </trkpt>
      <trkpt lat="42.66455702483654" lon="-6.95474199950695">
        <ele>644</ele>
        <time>2018-05-22T06:27:10Z</time>
      </trkpt>
      <trkpt lat="42.664512014016509" lon="-6.954692965373397">
        <ele>644</ele>
        <time>2018-05-22T06:27:12Z</time>
      </trkpt>
      <trkpt lat="42.664454011246562" lon="-6.954577965661883">
        <ele>644</ele>
        <time>2018-05-22T06:27:15Z</time>
      </trkpt>
      <trkpt lat="42.664435990154743" lon="-6.954418960958719">
        <ele>643</ele>
        <time>2018-05-22T06:27:19Z</time>
      </trkpt>
      <trkpt lat="42.664435990154743" lon="-6.954271020367742">
        <ele>643</ele>
        <time>2018-05-22T06:27:22Z</time>
      </trkpt>
      <trkpt lat="42.664462979882956" lon="-6.954090977087617">
        <ele>643</ele>
        <time>2018-05-22T06:27:26Z</time>
      </trkpt>
      <trkpt lat="42.664462979882956" lon="-6.953943036496639">
        <ele>643</ele>
        <time>2018-05-22T06:27:29Z</time>
      </trkpt>
      <trkpt lat="42.664489969611168" lon="-6.953761987388134">
        <ele>643</ele>
        <time>2018-05-22T06:27:33Z</time>
      </trkpt>
      <trkpt lat="42.664502961561084" lon="-6.953598037362099">
        <ele>644</ele>
        <time>2018-05-22T06:27:37Z</time>
      </trkpt>
      <trkpt lat="42.664530035108328" lon="-6.953467028215528">
        <ele>644</ele>
        <time>2018-05-22T06:27:40Z</time>
      </trkpt>
      <trkpt lat="42.66455601900816" lon="-6.953336019068956">
        <ele>644</ele>
        <time>2018-05-22T06:27:43Z</time>
      </trkpt>
      <trkpt lat="42.664583008736372" lon="-6.953205009922385">
        <ele>644</ele>
        <time>2018-05-22T06:27:45Z</time>
      </trkpt>
      <trkpt lat="42.664583008736372" lon="-6.953039970248938">
        <ele>644</ele>
        <time>2018-05-22T06:27:49Z</time>
      </trkpt>
      <trkpt lat="42.664583008736372" lon="-6.952876020222902">
        <ele>644</ele>
        <time>2018-05-22T06:27:53Z</time>
      </trkpt>
      <trkpt lat="42.664596000686288" lon="-6.952695976942778">
        <ele>667</ele>
        <time>2018-05-22T06:27:57Z</time>
      </trkpt>
      <trkpt lat="42.664596000686288" lon="-6.952532026916742">
        <ele>667</ele>
        <time>2018-05-22T06:28:00Z</time>
      </trkpt>
      <trkpt lat="42.664608992636204" lon="-6.952384002506733">
        <ele>667</ele>
        <time>2018-05-22T06:28:03Z</time>
      </trkpt>
      <trkpt lat="42.6646229904145" lon="-6.952203959226608">
        <ele>667</ele>
        <time>2018-05-22T06:28:07Z</time>
      </trkpt>
      <trkpt lat="42.664635982364416" lon="-6.952056018635631">
        <ele>667</ele>
        <time>2018-05-22T06:28:11Z</time>
      </trkpt>
      <trkpt lat="42.664662972092628" lon="-6.951925009489059">
        <ele>660</ele>
        <time>2018-05-22T06:28:14Z</time>
      </trkpt>
      <trkpt lat="42.664675964042544" lon="-6.951759969815612">
        <ele>660</ele>
        <time>2018-05-22T06:28:17Z</time>
      </trkpt>
      <trkpt lat="42.664716029539704" lon="-6.951613035053015">
        <ele>660</ele>
        <time>2018-05-22T06:28:21Z</time>
      </trkpt>
      <trkpt lat="42.664743019267917" lon="-6.951482025906444">
        <ele>660</ele>
        <time>2018-05-22T06:28:24Z</time>
      </trkpt>
      <trkpt lat="42.664756011217833" lon="-6.951334001496434">
        <ele>660</ele>
        <time>2018-05-22T06:28:27Z</time>
      </trkpt>
      <trkpt lat="42.664769003167748" lon="-6.951185977086425">
        <ele>660</ele>
        <time>2018-05-22T06:28:30Z</time>
      </trkpt>
      <trkpt lat="42.664808984845877" lon="-6.95102202706039">
        <ele>646</ele>
        <time>2018-05-22T06:28:34Z</time>
      </trkpt>
      <trkpt lat="42.664835974574089" lon="-6.95087400265038">
        <ele>646</ele>
        <time>2018-05-22T06:28:37Z</time>
      </trkpt>
      <trkpt lat="42.664848966524005" lon="-6.950677027925849">
        <ele>646</ele>
        <time>2018-05-22T06:28:41Z</time>
      </trkpt>
      <trkpt lat="42.664862964302301" lon="-6.950496984645724">
        <ele>646</ele>
        <time>2018-05-22T06:28:45Z</time>
      </trkpt>
      <trkpt lat="42.664903029799461" lon="-6.950365975499153">
        <ele>646</ele>
        <time>2018-05-22T06:28:48Z</time>
      </trkpt>
      <trkpt lat="42.664920967072248" lon="-6.95022901520133">
        <ele>639</ele>
        <time>2018-05-22T06:28:51Z</time>
      </trkpt>
      <trkpt lat="42.664947034791112" lon="-6.950097000226378">
        <ele>639</ele>
        <time>2018-05-22T06:28:54Z</time>
      </trkpt>
      <trkpt lat="42.664961032569408" lon="-6.94994998164475">
        <ele>639</ele>
        <time>2018-05-22T06:28:58Z</time>
      </trkpt>
      <trkpt lat="42.664961032569408" lon="-6.949802041053772">
        <ele>639</ele>
        <time>2018-05-22T06:29:01Z</time>
      </trkpt>
      <trkpt lat="42.66498701646924" lon="-6.949654016643763">
        <ele>639</ele>
        <time>2018-05-22T06:29:04Z</time>
      </trkpt>
      <trkpt lat="42.665000008419156" lon="-6.949489982798696">
        <ele>635</ele>
        <time>2018-05-22T06:29:08Z</time>
      </trkpt>
      <trkpt lat="42.665039990097284" lon="-6.949358973652124">
        <ele>635</ele>
        <time>2018-05-22T06:29:11Z</time>
      </trkpt>
      <trkpt lat="42.665053987875581" lon="-6.949195023626089">
        <ele>635</ele>
        <time>2018-05-22T06:29:15Z</time>
      </trkpt>
      <trkpt lat="42.665066979825497" lon="-6.949013974517584">
        <ele>635</ele>
        <time>2018-05-22T06:29:18Z</time>
      </trkpt>
      <trkpt lat="42.665066979825497" lon="-6.948834015056491">
        <ele>635</ele>
        <time>2018-05-22T06:29:22Z</time>
      </trkpt>
      <trkpt lat="42.665079971775413" lon="-6.948685990646482">
        <ele>637</ele>
        <time>2018-05-22T06:29:26Z</time>
      </trkpt>
      <trkpt lat="42.665106961503625" lon="-6.94855498149991">
        <ele>637</ele>
        <time>2018-05-22T06:29:29Z</time>
      </trkpt>
      <trkpt lat="42.665147027000785" lon="-6.948439981788397">
        <ele>637</ele>
        <time>2018-05-22T06:29:31Z</time>
      </trkpt>
      <trkpt lat="42.665174016728997" lon="-6.948308972641826">
        <ele>637</ele>
        <time>2018-05-22T06:29:34Z</time>
      </trkpt>
      <trkpt lat="42.665187008678913" lon="-6.94814502261579">
        <ele>637</ele>
        <time>2018-05-22T06:29:38Z</time>
      </trkpt>
      <trkpt lat="42.665213998407125" lon="-6.947980988770723">
        <ele>637</ele>
        <time>2018-05-22T06:29:42Z</time>
      </trkpt>
      <trkpt lat="42.665239982306957" lon="-6.947793988510966">
        <ele>631</ele>
        <time>2018-05-22T06:29:46Z</time>
      </trkpt>
      <trkpt lat="42.665258003398776" lon="-6.947634983807802">
        <ele>631</ele>
        <time>2018-05-22T06:29:49Z</time>
      </trkpt>
      <trkpt lat="42.665297985076904" lon="-6.947482014074922">
        <ele>631</ele>
        <time>2018-05-22T06:29:53Z</time>
      </trkpt>
      <trkpt lat="42.665297985076904" lon="-6.947317980229855">
        <ele>631</ele>
        <time>2018-05-22T06:29:56Z</time>
      </trkpt>
      <trkpt lat="42.665297985076904" lon="-6.947154030203819">
        <ele>631</ele>
        <time>2018-05-22T06:30:00Z</time>
      </trkpt>
      <trkpt lat="42.66531097702682" lon="-6.94700600579381">
        <ele>630</ele>
        <time>2018-05-22T06:30:03Z</time>
      </trkpt>
      <trkpt lat="42.66531097702682" lon="-6.946808025240898">
        <ele>630</ele>
        <time>2018-05-22T06:30:07Z</time>
      </trkpt>
      <trkpt lat="42.66531097702682" lon="-6.946626976132393">
        <ele>630</ele>
        <time>2018-05-22T06:30:11Z</time>
      </trkpt>
      <trkpt lat="42.665297985076904" lon="-6.9464470166713">
        <ele>630</ele>
        <time>2018-05-22T06:30:15Z</time>
      </trkpt>
      <trkpt lat="42.665279963985085" lon="-6.946315001696348">
        <ele>630</ele>
        <time>2018-05-22T06:30:18Z</time>
      </trkpt>
      <trkpt lat="42.665262026712298" lon="-6.946166977286339">
        <ele>630</ele>
        <time>2018-05-22T06:30:22Z</time>
      </trkpt>
      <trkpt lat="42.6650529820472" lon="-6.945909988135099">
        <ele>630</ele>
        <time>2018-05-22T06:30:30Z</time>
      </trkpt>
      <trkpt lat="42.6650529820472" lon="-6.945892972871661">
        <ele>630</ele>
        <time>2018-05-22T06:30:30Z</time>
      </trkpt>
      <trkpt lat="42.665033033117652" lon="-6.945819966495037">
        <ele>630</ele>
        <time>2018-05-22T06:30:32Z</time>
      </trkpt>
      <trkpt lat="42.665000008419156" lon="-6.945713013410568">
        <ele>630</ele>
        <time>2018-05-22T06:30:34Z</time>
      </trkpt>
      <trkpt lat="42.664992967620492" lon="-6.945639001205564">
        <ele>630</ele>
        <time>2018-05-22T06:30:36Z</time>
      </trkpt>
      <trkpt lat="42.664979975670576" lon="-6.945573035627604">
        <ele>630</ele>
        <time>2018-05-22T06:30:38Z</time>
      </trkpt>
      <trkpt lat="42.664979975670576" lon="-6.945483013987541">
        <ele>630</ele>
        <time>2018-05-22T06:30:39Z</time>
      </trkpt>
      <trkpt lat="42.66496698372066" lon="-6.945385029539466">
        <ele>630</ele>
        <time>2018-05-22T06:30:42Z</time>
      </trkpt>
      <trkpt lat="42.664960026741028" lon="-6.94530799984932">
        <ele>630</ele>
        <time>2018-05-22T06:30:43Z</time>
      </trkpt>
      <trkpt lat="42.664947034791112" lon="-6.945210015401244">
        <ele>637</ele>
        <time>2018-05-22T06:30:46Z</time>
      </trkpt>
      <trkpt lat="42.664913004264235" lon="-6.945042964071035">
        <ele>637</ele>
        <time>2018-05-22T06:30:49Z</time>
      </trkpt>
      <trkpt lat="42.664850978180766" lon="-6.944851018488407">
        <ele>637</ele>
        <time>2018-05-22T06:30:54Z</time>
      </trkpt>
      <trkpt lat="42.664763974025846" lon="-6.944626970216632">
        <ele>637</ele>
        <time>2018-05-22T06:30:59Z</time>
      </trkpt>
      <trkpt lat="42.66462198458612" lon="-6.944396970793605">
        <ele>645</ele>
        <time>2018-05-22T06:31:06Z</time>
      </trkpt>
      <trkpt lat="42.66462198458612" lon="-6.944389007985592">
        <ele>645</ele>
        <time>2018-05-22T06:31:06Z</time>
      </trkpt>
      <trkpt lat="42.664577979594469" lon="-6.944226985797286">
        <ele>625</ele>
        <time>2018-05-22T06:31:10Z</time>
      </trkpt>
      <trkpt lat="42.664490975439548" lon="-6.944051971659064">
        <ele>625</ele>
        <time>2018-05-22T06:31:14Z</time>
      </trkpt>
      <trkpt lat="42.664476977661252" lon="-6.943994974717498">
        <ele>625</ele>
        <time>2018-05-22T06:31:16Z</time>
      </trkpt>
      <trkpt lat="42.664444036781788" lon="-6.9439119938761">
        <ele>625</ele>
        <time>2018-05-22T06:31:18Z</time>
      </trkpt>
      <trkpt lat="42.664411012083292" lon="-6.94380596280098">
        <ele>625</ele>
        <time>2018-05-22T06:31:20Z</time>
      </trkpt>
      <trkpt lat="42.66438402235508" lon="-6.94373999722302">
        <ele>625</ele>
        <time>2018-05-22T06:31:22Z</time>
      </trkpt>
      <trkpt lat="42.664358038455248" lon="-6.943658022210002">
        <ele>625</ele>
        <time>2018-05-22T06:31:24Z</time>
      </trkpt>
      <trkpt lat="42.664344040676951" lon="-6.943589961156249">
        <ele>628</ele>
        <time>2018-05-22T06:31:25Z</time>
      </trkpt>
      <trkpt lat="42.664338005706668" lon="-6.94350496865809">
        <ele>628</ele>
        <time>2018-05-22T06:31:27Z</time>
      </trkpt>
      <trkpt lat="42.664338005706668" lon="-6.943431040272117">
        <ele>628</ele>
        <time>2018-05-22T06:31:29Z</time>
      </trkpt>
      <trkpt lat="42.664338005706668" lon="-6.943348981440067">
        <ele>628</ele>
        <time>2018-05-22T06:31:31Z</time>
      </trkpt>
      <trkpt lat="42.664338005706668" lon="-6.943274969235063">
        <ele>628</ele>
        <time>2018-05-22T06:31:32Z</time>
      </trkpt>
      <trkpt lat="42.664324007928371" lon="-6.94320104084909">
        <ele>628</ele>
        <time>2018-05-22T06:31:34Z</time>
      </trkpt>
      <trkpt lat="42.664311015978456" lon="-6.943127028644085">
        <ele>628</ele>
        <time>2018-05-22T06:31:36Z</time>
      </trkpt>
      <trkpt lat="42.66427799127996" lon="-6.943070031702519">
        <ele>628</ele>
        <time>2018-05-22T06:31:37Z</time>
      </trkpt>
      <trkpt lat="42.664238009601831" lon="-6.943028960376978">
        <ele>628</ele>
        <time>2018-05-22T06:31:39Z</time>
      </trkpt>
      <trkpt lat="42.664203979074955" lon="-6.942971041426063">
        <ele>628</ele>
        <time>2018-05-22T06:31:40Z</time>
      </trkpt>
      <trkpt lat="42.664177995175123" lon="-6.942888982594013">
        <ele>628</ele>
        <time>2018-05-22T06:31:42Z</time>
      </trkpt>
      <trkpt lat="42.664142036810517" lon="-6.942828968167305">
        <ele>628</ele>
        <time>2018-05-22T06:31:44Z</time>
      </trkpt>
      <trkpt lat="42.664114963263273" lon="-6.942755039781332">
        <ele>630</ele>
        <time>2018-05-22T06:31:46Z</time>
      </trkpt>
      <trkpt lat="42.664101971313357" lon="-6.942681027576327">
        <ele>630</ele>
        <time>2018-05-22T06:31:47Z</time>
      </trkpt>
      <trkpt lat="42.664082022383809" lon="-6.942615984007716">
        <ele>630</ele>
        <time>2018-05-22T06:31:49Z</time>
      </trkpt>
      <trkpt lat="42.664061989635229" lon="-6.942541971802712">
        <ele>630</ele>
        <time>2018-05-22T06:31:51Z</time>
      </trkpt>
      <trkpt lat="42.664034999907017" lon="-6.942467959597707">
        <ele>630</ele>
        <time>2018-05-22T06:31:52Z</time>
      </trkpt>
      <trkpt lat="42.664009016007185" lon="-6.942419009283185">
        <ele>630</ele>
        <time>2018-05-22T06:31:54Z</time>
      </trkpt>
      <trkpt lat="42.664009016007185" lon="-6.942328987643123">
        <ele>630</ele>
        <time>2018-05-22T06:31:56Z</time>
      </trkpt>
      <trkpt lat="42.664009016007185" lon="-6.942247012630105">
        <ele>630</ele>
        <time>2018-05-22T06:31:57Z</time>
      </trkpt>
      <trkpt lat="42.664009016007185" lon="-6.9421730004251">
        <ele>630</ele>
        <time>2018-05-22T06:31:59Z</time>
      </trkpt>
      <trkpt lat="42.664009016007185" lon="-6.9420659635216">
        <ele>630</ele>
        <time>2018-05-22T06:32:01Z</time>
      </trkpt>
      <trkpt lat="42.664017984643579" lon="-6.94198097102344">
        <ele>627</ele>
        <time>2018-05-22T06:32:03Z</time>
      </trkpt>
      <trkpt lat="42.664017984643579" lon="-6.941898996010423">
        <ele>627</ele>
        <time>2018-05-22T06:32:05Z</time>
      </trkpt>
      <trkpt lat="42.664017984643579" lon="-6.941801011562347">
        <ele>627</ele>
        <time>2018-05-22T06:32:07Z</time>
      </trkpt>
      <trkpt lat="42.664017984643579" lon="-6.941726999357343">
        <ele>627</ele>
        <time>2018-05-22T06:32:09Z</time>
      </trkpt>
      <trkpt lat="42.664017984643579" lon="-6.9416359718889">
        <ele>627</ele>
        <time>2018-05-22T06:32:11Z</time>
      </trkpt>
      <trkpt lat="42.664017984643579" lon="-6.941553996875882">
        <ele>627</ele>
        <time>2018-05-22T06:32:13Z</time>
      </trkpt>
      <trkpt lat="42.664017984643579" lon="-6.941466992720962">
        <ele>627</ele>
        <time>2018-05-22T06:32:14Z</time>
      </trkpt>
      <trkpt lat="42.664030976593494" lon="-6.941389963030815">
        <ele>627</ele>
        <time>2018-05-22T06:32:16Z</time>
      </trkpt>
      <trkpt lat="42.66404002904892" lon="-6.9413130171597">
        <ele>627</ele>
        <time>2018-05-22T06:32:18Z</time>
      </trkpt>
      <trkpt lat="42.66404002904892" lon="-6.941230958327651">
        <ele>627</ele>
        <time>2018-05-22T06:32:20Z</time>
      </trkpt>
      <trkpt lat="42.664046986028552" lon="-6.941157029941678">
        <ele>624</ele>
        <time>2018-05-22T06:32:21Z</time>
      </trkpt>
      <trkpt lat="42.664072969928384" lon="-6.941091986373067">
        <ele>624</ele>
        <time>2018-05-22T06:32:23Z</time>
      </trkpt>
      <trkpt lat="42.664093002676964" lon="-6.941017974168062">
        <ele>624</ele>
        <time>2018-05-22T06:32:25Z</time>
      </trkpt>
      <trkpt lat="42.66410700045526" lon="-6.940957959741354">
        <ele>624</ele>
        <time>2018-05-22T06:32:26Z</time>
      </trkpt>
      <trkpt lat="42.66412703320384" lon="-6.940891994163394">
        <ele>624</ele>
        <time>2018-05-22T06:32:27Z</time>
      </trkpt>
      <trkpt lat="42.664153017103672" lon="-6.940837008878589">
        <ele>624</ele>
        <time>2018-05-22T06:32:29Z</time>
      </trkpt>
      <trkpt lat="42.6641929987818" lon="-6.940803984180093">
        <ele>624</ele>
        <time>2018-05-22T06:32:30Z</time>
      </trkpt>
      <trkpt lat="42.664232980459929" lon="-6.940745981410146">
        <ele>624</ele>
        <time>2018-05-22T06:32:32Z</time>
      </trkpt>
      <trkpt lat="42.664280002936721" lon="-6.940697031095624">
        <ele>624</ele>
        <time>2018-05-22T06:32:34Z</time>
      </trkpt>
      <trkpt lat="42.664332976564765" lon="-6.940640034154058">
        <ele>624</ele>
        <time>2018-05-22T06:32:36Z</time>
      </trkpt>
      <trkpt lat="42.664382010698318" lon="-6.940607009455562">
        <ele>624</ele>
        <time>2018-05-22T06:32:37Z</time>
      </trkpt>
      <trkpt lat="42.664425009861588" lon="-6.940568033605814">
        <ele>624</ele>
        <time>2018-05-22T06:32:39Z</time>
      </trkpt>
      <trkpt lat="42.66447102651" lon="-6.940543977543712">
        <ele>624</ele>
        <time>2018-05-22T06:32:40Z</time>
      </trkpt>
      <trkpt lat="42.664531040936708" lon="-6.940526962280273">
        <ele>624</ele>
        <time>2018-05-22T06:32:42Z</time>
      </trkpt>
      <trkpt lat="42.664585020393133" lon="-6.940511036664248">
        <ele>650</ele>
        <time>2018-05-22T06:32:44Z</time>
      </trkpt>
      <trkpt lat="42.664631037041545" lon="-6.940478011965752">
        <ele>650</ele>
        <time>2018-05-22T06:32:46Z</time>
      </trkpt>
      <trkpt lat="42.66468501649797" lon="-6.940444987267256">
        <ele>650</ele>
        <time>2018-05-22T06:32:47Z</time>
      </trkpt>
      <trkpt lat="42.664737990126014" lon="-6.94041196256876">
        <ele>650</ele>
        <time>2018-05-22T06:32:49Z</time>
      </trkpt>
      <trkpt lat="42.664779983460903" lon="-6.940380027517676">
        <ele>650</ele>
        <time>2018-05-22T06:32:51Z</time>
      </trkpt>
      <trkpt lat="42.664827005937696" lon="-6.940343985334039">
        <ele>635</ele>
        <time>2018-05-22T06:32:52Z</time>
      </trkpt>
      <trkpt lat="42.66487997956574" lon="-6.940295035019517">
        <ele>635</ele>
        <time>2018-05-22T06:32:54Z</time>
      </trkpt>
      <trkpt lat="42.664927002042532" lon="-6.940262010321021">
        <ele>635</ele>
        <time>2018-05-22T06:32:56Z</time>
      </trkpt>
      <trkpt lat="42.664976036176085" lon="-6.940234014764428">
        <ele>635</ele>
        <time>2018-05-22T06:32:57Z</time>
      </trkpt>
      <trkpt lat="42.66502900980413" lon="-6.940201995894313">
        <ele>635</ele>
        <time>2018-05-22T06:32:59Z</time>
      </trkpt>
      <trkpt lat="42.6650720089674" lon="-6.940168971195817">
        <ele>635</ele>
        <time>2018-05-22T06:33:01Z</time>
      </trkpt>
      <trkpt lat="42.665124982595444" lon="-6.940127983689308">
        <ele>635</ele>
        <time>2018-05-22T06:33:02Z</time>
      </trkpt>
      <trkpt lat="42.665166975930333" lon="-6.940069980919361">
        <ele>635</ele>
        <time>2018-05-22T06:33:04Z</time>
      </trkpt>
      <trkpt lat="42.665213998407125" lon="-6.94000200368464">
        <ele>635</ele>
        <time>2018-05-22T06:33:06Z</time>
      </trkpt>
      <trkpt lat="42.665311982855201" lon="-6.939892033115029">
        <ele>635</ele>
        <time>2018-05-22T06:33:10Z</time>
      </trkpt>
      <trkpt lat="42.6654829736799" lon="-6.939678965136409">
        <ele>649</ele>
        <time>2018-05-22T06:33:17Z</time>
      </trkpt>
      <trkpt lat="42.665624963119626" lon="-6.939531024545431">
        <ele>626</ele>
        <time>2018-05-22T06:33:22Z</time>
      </trkpt>
      <trkpt lat="42.665813975036144" lon="-6.939324997365475">
        <ele>626</ele>
        <time>2018-05-22T06:33:29Z</time>
      </trkpt>
      <trkpt lat="42.666014973074198" lon="-6.939105978235602">
        <ele>626</ele>
        <time>2018-05-22T06:33:37Z</time>
      </trkpt>
      <trkpt lat="42.666047997772694" lon="-6.939081000164151">
        <ele>626</ele>
        <time>2018-05-22T06:33:38Z</time>
      </trkpt>
      <trkpt lat="42.666089991107583" lon="-6.939038001000881">
        <ele>626</ele>
        <time>2018-05-22T06:33:40Z</time>
      </trkpt>
      <trkpt lat="42.666126033291221" lon="-6.938976980745792">
        <ele>626</ele>
        <time>2018-05-22T06:33:41Z</time>
      </trkpt>
      <trkpt lat="42.666139025241137" lon="-6.938919983804226">
        <ele>626</ele>
        <time>2018-05-22T06:33:43Z</time>
      </trkpt>
      <trkpt lat="42.666153023019433" lon="-6.938838008791208">
        <ele>626</ele>
        <time>2018-05-22T06:33:45Z</time>
      </trkpt>
      <trkpt lat="42.666179006919265" lon="-6.938771959394217">
        <ele>626</ele>
        <time>2018-05-22T06:33:46Z</time>
      </trkpt>
      <trkpt lat="42.666212031617761" lon="-6.938698031008244">
        <ele>619</ele>
        <time>2018-05-22T06:33:48Z</time>
      </trkpt>
      <trkpt lat="42.666239021345973" lon="-6.938632987439632">
        <ele>619</ele>
        <time>2018-05-22T06:33:50Z</time>
      </trkpt>
      <trkpt lat="42.666271962225437" lon="-6.938567021861672">
        <ele>619</ele>
        <time>2018-05-22T06:33:52Z</time>
      </trkpt>
      <trkpt lat="42.666291994974017" lon="-6.938500972464681">
        <ele>619</ele>
        <time>2018-05-22T06:33:53Z</time>
      </trkpt>
      <trkpt lat="42.666312027722597" lon="-6.938427966088057">
        <ele>637</ele>
        <time>2018-05-22T06:33:55Z</time>
      </trkpt>
      <trkpt lat="42.666331976652145" lon="-6.938374992460012">
        <ele>637</ele>
        <time>2018-05-22T06:33:56Z</time>
      </trkpt>
      <trkpt lat="42.666352009400725" lon="-6.938301986083388">
        <ele>637</ele>
        <time>2018-05-22T06:33:58Z</time>
      </trkpt>
      <trkpt lat="42.666371958330274" lon="-6.93819503299892">
        <ele>637</ele>
        <time>2018-05-22T06:34:00Z</time>
      </trkpt>
      <trkpt lat="42.666399031877518" lon="-6.938128983601928">
        <ele>637</ele>
        <time>2018-05-22T06:34:02Z</time>
      </trkpt>
      <trkpt lat="42.666412023827434" lon="-6.938043991103768">
        <ele>637</ele>
        <time>2018-05-22T06:34:04Z</time>
      </trkpt>
      <trkpt lat="42.666412023827434" lon="-6.937970984727144">
        <ele>637</ele>
        <time>2018-05-22T06:34:05Z</time>
      </trkpt>
      <trkpt lat="42.666412023827434" lon="-6.93789403885603">
        <ele>637</ele>
        <time>2018-05-22T06:34:07Z</time>
      </trkpt>
      <trkpt lat="42.666386039927602" lon="-6.937836036086083">
        <ele>635</ele>
        <time>2018-05-22T06:34:08Z</time>
      </trkpt>
      <trkpt lat="42.666366007179022" lon="-6.937753977254033">
        <ele>635</ele>
        <time>2018-05-22T06:34:10Z</time>
      </trkpt>
      <trkpt lat="42.666339017450809" lon="-6.937655992805958">
        <ele>635</ele>
        <time>2018-05-22T06:34:13Z</time>
      </trkpt>
      <trkpt lat="42.666329964995384" lon="-6.937554990872741">
        <ele>635</ele>
        <time>2018-05-22T06:34:15Z</time>
      </trkpt>
      <trkpt lat="42.666316973045468" lon="-6.937463963404298">
        <ele>635</ele>
        <time>2018-05-22T06:34:17Z</time>
      </trkpt>
      <trkpt lat="42.666316973045468" lon="-6.937374025583267">
        <ele>635</ele>
        <time>2018-05-22T06:34:19Z</time>
      </trkpt>
      <trkpt lat="42.666316973045468" lon="-6.937296995893121">
        <ele>635</ele>
        <time>2018-05-22T06:34:20Z</time>
      </trkpt>
      <trkpt lat="42.666326025500894" lon="-6.937131034210324">
        <ele>635</ele>
        <time>2018-05-22T06:34:24Z</time>
      </trkpt>
      <trkpt lat="42.666332982480526" lon="-6.93705702200532">
        <ele>626</ele>
        <time>2018-05-22T06:34:26Z</time>
      </trkpt>
      <trkpt lat="42.666345974430442" lon="-6.936983009800315">
        <ele>626</ele>
        <time>2018-05-22T06:34:27Z</time>
      </trkpt>
      <trkpt lat="42.666358966380358" lon="-6.93690899759531">
        <ele>626</ele>
        <time>2018-05-22T06:34:29Z</time>
      </trkpt>
      <trkpt lat="42.666372964158654" lon="-6.936844037845731">
        <ele>626</ele>
        <time>2018-05-22T06:34:30Z</time>
      </trkpt>
      <trkpt lat="42.66640598885715" lon="-6.936770025640726">
        <ele>626</ele>
        <time>2018-05-22T06:34:32Z</time>
      </trkpt>
      <trkpt lat="42.666418980807066" lon="-6.936696013435721">
        <ele>626</ele>
        <time>2018-05-22T06:34:34Z</time>
      </trkpt>
      <trkpt lat="42.66642602160573" lon="-6.936622001230717">
        <ele>626</ele>
        <time>2018-05-22T06:34:36Z</time>
      </trkpt>
      <trkpt lat="42.666445970535278" lon="-6.936531979590654">
        <ele>626</ele>
        <time>2018-05-22T06:34:38Z</time>
      </trkpt>
      <trkpt lat="42.666445970535278" lon="-6.93645796738565">
        <ele>626</ele>
        <time>2018-05-22T06:34:39Z</time>
      </trkpt>
      <trkpt lat="42.666453011333942" lon="-6.936326958239079">
        <ele>626</ele>
        <time>2018-05-22T06:34:42Z</time>
      </trkpt>
      <trkpt lat="42.666453011333942" lon="-6.936253029853106">
        <ele>618</ele>
        <time>2018-05-22T06:34:44Z</time>
      </trkpt>
      <trkpt lat="42.666445970535278" lon="-6.93615403957665">
        <ele>630</ele>
        <time>2018-05-22T06:34:46Z</time>
      </trkpt>
      <trkpt lat="42.666445970535278" lon="-6.9360719807446">
        <ele>630</ele>
        <time>2018-05-22T06:34:48Z</time>
      </trkpt>
      <trkpt lat="42.666439013555646" lon="-6.936000986024737">
        <ele>630</ele>
        <time>2018-05-22T06:34:49Z</time>
      </trkpt>
      <trkpt lat="42.666432978585362" lon="-6.935921022668481">
        <ele>630</ele>
        <time>2018-05-22T06:34:51Z</time>
      </trkpt>
      <trkpt lat="42.666413029655814" lon="-6.935857990756631">
        <ele>630</ele>
        <time>2018-05-22T06:34:53Z</time>
      </trkpt>
      <trkpt lat="42.666392996907234" lon="-6.935783978551626">
        <ele>630</ele>
        <time>2018-05-22T06:34:54Z</time>
      </trkpt>
      <trkpt lat="42.666380004957318" lon="-6.935719018802047">
        <ele>630</ele>
        <time>2018-05-22T06:34:56Z</time>
      </trkpt>
      <trkpt lat="42.666353015229106" lon="-6.935604019090533">
        <ele>630</ele>
        <time>2018-05-22T06:34:58Z</time>
      </trkpt>
      <trkpt lat="42.666313033550978" lon="-6.935473009943962">
        <ele>630</ele>
        <time>2018-05-22T06:35:01Z</time>
      </trkpt>
      <trkpt lat="42.666293000802398" lon="-6.935381982475519">
        <ele>618</ele>
        <time>2018-05-22T06:35:03Z</time>
      </trkpt>
      <trkpt lat="42.666266011074185" lon="-6.935307970270515">
        <ele>618</ele>
        <time>2018-05-22T06:35:05Z</time>
      </trkpt>
      <trkpt lat="42.66623298637569" lon="-6.935202023014426">
        <ele>621</ele>
        <time>2018-05-22T06:35:08Z</time>
      </trkpt>
      <trkpt lat="42.666205996647477" lon="-6.935112001374364">
        <ele>621</ele>
        <time>2018-05-22T06:35:10Z</time>
      </trkpt>
      <trkpt lat="42.666185963898897" lon="-6.935020973905921">
        <ele>621</ele>
        <time>2018-05-22T06:35:12Z</time>
      </trkpt>
      <trkpt lat="42.666159979999065" lon="-6.934938998892903">
        <ele>621</ele>
        <time>2018-05-22T06:35:14Z</time>
      </trkpt>
      <trkpt lat="42.666140031069517" lon="-6.934841014444828">
        <ele>621</ele>
        <time>2018-05-22T06:35:16Z</time>
      </trkpt>
      <trkpt lat="42.666119998320937" lon="-6.93475903943181">
        <ele>621</ele>
        <time>2018-05-22T06:35:18Z</time>
      </trkpt>
      <trkpt lat="42.666099965572357" lon="-6.934676980599761">
        <ele>621</ele>
        <time>2018-05-22T06:35:20Z</time>
      </trkpt>
      <trkpt lat="42.666085967794061" lon="-6.934602968394756">
        <ele>621</ele>
        <time>2018-05-22T06:35:22Z</time>
      </trkpt>
      <trkpt lat="42.666072975844145" lon="-6.934496015310288">
        <ele>621</ele>
        <time>2018-05-22T06:35:24Z</time>
      </trkpt>
      <trkpt lat="42.666056966409087" lon="-6.93439501337707">
        <ele>618</ele>
        <time>2018-05-22T06:35:26Z</time>
      </trkpt>
      <trkpt lat="42.666006004437804" lon="-6.934181023389101">
        <ele>618</ele>
        <time>2018-05-22T06:35:31Z</time>
      </trkpt>
      <trkpt lat="42.665964011102915" lon="-6.93398698233068">
        <ele>618</ele>
        <time>2018-05-22T06:35:36Z</time>
      </trkpt>
      <trkpt lat="42.665938027203083" lon="-6.93355699069798">
        <ele>622</ele>
        <time>2018-05-22T06:35:45Z</time>
      </trkpt>
      <trkpt lat="42.66586602665484" lon="-6.933135967701674">
        <ele>622</ele>
        <time>2018-05-22T06:35:54Z</time>
      </trkpt>
      <trkpt lat="42.665820010006428" lon="-6.932894987985492">
        <ele>622</ele>
        <time>2018-05-22T06:36:00Z</time>
      </trkpt>
      <trkpt lat="42.665770975872874" lon="-6.932553006336093">
        <ele>622</ele>
        <time>2018-05-22T06:36:07Z</time>
      </trkpt>
      <trkpt lat="42.665743986144662" lon="-6.932312026619911">
        <ele>622</ele>
        <time>2018-05-22T06:36:13Z</time>
      </trkpt>
      <trkpt lat="42.665743986144662" lon="-6.932303979992867">
        <ele>622</ele>
        <time>2018-05-22T06:36:13Z</time>
      </trkpt>
      <trkpt lat="42.665683971717954" lon="-6.931931991130114">
        <ele>625</ele>
        <time>2018-05-22T06:36:21Z</time>
      </trkpt>
      <trkpt lat="42.66563099808991" lon="-6.931712972000241">
        <ele>625</ele>
        <time>2018-05-22T06:36:26Z</time>
      </trkpt>
      <trkpt lat="42.66556897200644" lon="-6.931509962305427">
        <ele>625</ele>
        <time>2018-05-22T06:36:31Z</time>
      </trkpt>
      <trkpt lat="42.665514992550015" lon="-6.931296978145838">
        <ele>625</ele>
        <time>2018-05-22T06:36:36Z</time>
      </trkpt>
      <trkpt lat="42.665506023913622" lon="-6.931296978145838">
        <ele>625</ele>
        <time>2018-05-22T06:36:36Z</time>
      </trkpt>
      <trkpt lat="42.665446009486914" lon="-6.931116012856364">
        <ele>618</ele>
        <time>2018-05-22T06:36:40Z</time>
      </trkpt>
      <trkpt lat="42.66543704085052" lon="-6.931116012856364">
        <ele>618</ele>
        <time>2018-05-22T06:36:41Z</time>
      </trkpt>
      <trkpt lat="42.665394963696599" lon="-6.930948961526156">
        <ele>618</ele>
        <time>2018-05-22T06:36:45Z</time>
      </trkpt>
      <trkpt lat="42.665333021432161" lon="-6.930788028985262">
        <ele>618</ele>
        <time>2018-05-22T06:36:48Z</time>
      </trkpt>
      <trkpt lat="42.665325980633497" lon="-6.930771013721824">
        <ele>618</ele>
        <time>2018-05-22T06:36:49Z</time>
      </trkpt>
      <trkpt lat="42.665293039754033" lon="-6.930687027052045">
        <ele>618</ele>
        <time>2018-05-22T06:36:51Z</time>
      </trkpt>
      <trkpt lat="42.665273007005453" lon="-6.930620977655053">
        <ele>618</ele>
        <time>2018-05-22T06:36:53Z</time>
      </trkpt>
      <trkpt lat="42.665259009227157" lon="-6.930519975721836">
        <ele>618</ele>
        <time>2018-05-22T06:36:55Z</time>
      </trkpt>
      <trkpt lat="42.665273007005453" lon="-6.930450992658734">
        <ele>618</ele>
        <time>2018-05-22T06:36:56Z</time>
      </trkpt>
      <trkpt lat="42.665285998955369" lon="-6.930393995717168">
        <ele>618</ele>
        <time>2018-05-22T06:36:58Z</time>
      </trkpt>
      <trkpt lat="42.665306031703949" lon="-6.930328030139208">
        <ele>614</ele>
        <time>2018-05-22T06:36:59Z</time>
      </trkpt>
      <trkpt lat="42.665346013382077" lon="-6.930271033197641">
        <ele>614</ele>
        <time>2018-05-22T06:37:01Z</time>
      </trkpt>
      <trkpt lat="42.665365962311625" lon="-6.93020498380065">
        <ele>614</ele>
        <time>2018-05-22T06:37:03Z</time>
      </trkpt>
      <trkpt lat="42.665385995060205" lon="-6.930130971595645">
        <ele>614</ele>
        <time>2018-05-22T06:37:04Z</time>
      </trkpt>
      <trkpt lat="42.665398987010121" lon="-6.93005695939064">
        <ele>614</ele>
        <time>2018-05-22T06:37:06Z</time>
      </trkpt>
      <trkpt lat="42.665425976738334" lon="-6.929981019347906">
        <ele>614</ele>
        <time>2018-05-22T06:37:08Z</time>
      </trkpt>
      <trkpt lat="42.665452966466546" lon="-6.929907007142901">
        <ele>614</ele>
        <time>2018-05-22T06:37:10Z</time>
      </trkpt>
      <trkpt lat="42.665465958416462" lon="-6.929845986887813">
        <ele>614</ele>
        <time>2018-05-22T06:37:11Z</time>
      </trkpt>
      <trkpt lat="42.665485991165042" lon="-6.929764011874795">
        <ele>625</ele>
        <time>2018-05-22T06:37:13Z</time>
      </trkpt>
      <trkpt lat="42.665506023913622" lon="-6.929682036861777">
        <ele>625</ele>
        <time>2018-05-22T06:37:15Z</time>
      </trkpt>
      <trkpt lat="42.665533013641834" lon="-6.929625039920211">
        <ele>625</ele>
        <time>2018-05-22T06:37:16Z</time>
      </trkpt>
      <trkpt lat="42.665552962571383" lon="-6.92953996360302">
        <ele>625</ele>
        <time>2018-05-22T06:37:18Z</time>
      </trkpt>
      <trkpt lat="42.665579030290246" lon="-6.929491013288498">
        <ele>616</ele>
        <time>2018-05-22T06:37:19Z</time>
      </trkpt>
      <trkpt lat="42.665593028068542" lon="-6.92940903827548">
        <ele>616</ele>
        <time>2018-05-22T06:37:21Z</time>
      </trkpt>
      <trkpt lat="42.665606020018458" lon="-6.929335026070476">
        <ele>616</ele>
        <time>2018-05-22T06:37:23Z</time>
      </trkpt>
      <trkpt lat="42.665619011968374" lon="-6.929268976673484">
        <ele>616</ele>
        <time>2018-05-22T06:37:24Z</time>
      </trkpt>
      <trkpt lat="42.665633009746671" lon="-6.929194964468479">
        <ele>616</ele>
        <time>2018-05-22T06:37:26Z</time>
      </trkpt>
      <trkpt lat="42.66565203666687" lon="-6.929112989455462">
        <ele>616</ele>
        <time>2018-05-22T06:37:28Z</time>
      </trkpt>
      <trkpt lat="42.665685983374715" lon="-6.929048029705882">
        <ele>616</ele>
        <time>2018-05-22T06:37:30Z</time>
      </trkpt>
      <trkpt lat="42.665698975324631" lon="-6.928957002237439">
        <ele>616</ele>
        <time>2018-05-22T06:37:32Z</time>
      </trkpt>
      <trkpt lat="42.665719008073211" lon="-6.928866980597377">
        <ele>616</ele>
        <time>2018-05-22T06:37:34Z</time>
      </trkpt>
      <trkpt lat="42.665739040821791" lon="-6.928802020847797">
        <ele>616</ele>
        <time>2018-05-22T06:37:35Z</time>
      </trkpt>
      <trkpt lat="42.665771981701255" lon="-6.928717028349638">
        <ele>616</ele>
        <time>2018-05-22T06:37:37Z</time>
      </trkpt>
      <trkpt lat="42.665792014449835" lon="-6.928643016144633">
        <ele>611</ele>
        <time>2018-05-22T06:37:39Z</time>
      </trkpt>
      <trkpt lat="42.665819004178047" lon="-6.928552994504571">
        <ele>611</ele>
        <time>2018-05-22T06:37:41Z</time>
      </trkpt>
      <trkpt lat="42.665831996127963" lon="-6.928461967036128">
        <ele>611</ele>
        <time>2018-05-22T06:37:43Z</time>
      </trkpt>
      <trkpt lat="42.665854962542653" lon="-6.928376974537969">
        <ele>611</ele>
        <time>2018-05-22T06:37:45Z</time>
      </trkpt>
      <trkpt lat="42.66586996614933" lon="-6.928308997303248">
        <ele>611</ele>
        <time>2018-05-22T06:37:47Z</time>
      </trkpt>
      <trkpt lat="42.665883963927627" lon="-6.92822702229023">
        <ele>611</ele>
        <time>2018-05-22T06:37:49Z</time>
      </trkpt>
      <trkpt lat="42.665903996676207" lon="-6.928153010085225">
        <ele>611</ele>
        <time>2018-05-22T06:37:50Z</time>
      </trkpt>
      <trkpt lat="42.665916988626122" lon="-6.92807899788022">
        <ele>611</ele>
        <time>2018-05-22T06:37:52Z</time>
      </trkpt>
      <trkpt lat="42.665937021374702" lon="-6.928014038130641">
        <ele>611</ele>
        <time>2018-05-22T06:37:53Z</time>
      </trkpt>
      <trkpt lat="42.665950013324618" lon="-6.927940025925636">
        <ele>611</ele>
        <time>2018-05-22T06:37:55Z</time>
      </trkpt>
      <trkpt lat="42.665956970304251" lon="-6.927857967093587">
        <ele>614</ele>
        <time>2018-05-22T06:37:57Z</time>
      </trkpt>
      <trkpt lat="42.665956970304251" lon="-6.927767023444176">
        <ele>614</ele>
        <time>2018-05-22T06:37:59Z</time>
      </trkpt>
      <trkpt lat="42.665956970304251" lon="-6.927653029561043">
        <ele>614</ele>
        <time>2018-05-22T06:38:01Z</time>
      </trkpt>
      <trkpt lat="42.665956970304251" lon="-6.927538029849529">
        <ele>614</ele>
        <time>2018-05-22T06:38:04Z</time>
      </trkpt>
      <trkpt lat="42.665956970304251" lon="-6.927447002381086">
        <ele>614</ele>
        <time>2018-05-22T06:38:06Z</time>
      </trkpt>
      <trkpt lat="42.665937021374702" lon="-6.927365027368069">
        <ele>614</ele>
        <time>2018-05-22T06:38:08Z</time>
      </trkpt>
      <trkpt lat="42.665914976969361" lon="-6.927294032648206">
        <ele>614</ele>
        <time>2018-05-22T06:38:09Z</time>
      </trkpt>
      <trkpt lat="42.665887987241149" lon="-6.927227983251214">
        <ele>614</ele>
        <time>2018-05-22T06:38:11Z</time>
      </trkpt>
      <trkpt lat="42.665835013613105" lon="-6.927170986309648">
        <ele>614</ele>
        <time>2018-05-22T06:38:13Z</time>
      </trkpt>
      <trkpt lat="42.665796959772706" lon="-6.927116001024842">
        <ele>614</ele>
        <time>2018-05-22T06:38:15Z</time>
      </trkpt>
      <trkpt lat="42.665750021114945" lon="-6.927066966891289">
        <ele>625</ele>
        <time>2018-05-22T06:38:16Z</time>
      </trkpt>
      <trkpt lat="42.665702998638153" lon="-6.927008964121342">
        <ele>625</ele>
        <time>2018-05-22T06:38:18Z</time>
      </trkpt>
      <trkpt lat="42.665650025010109" lon="-6.926984991878271">
        <ele>625</ele>
        <time>2018-05-22T06:38:20Z</time>
      </trkpt>
      <trkpt lat="42.665604008361697" lon="-6.926944004371762">
        <ele>625</ele>
        <time>2018-05-22T06:38:22Z</time>
      </trkpt>
      <trkpt lat="42.665556985884905" lon="-6.926886001601815">
        <ele>625</ele>
        <time>2018-05-22T06:38:23Z</time>
      </trkpt>
      <trkpt lat="42.665504012256861" lon="-6.926841996610165">
        <ele>625</ele>
        <time>2018-05-22T06:38:25Z</time>
      </trkpt>
      <trkpt lat="42.665454978123307" lon="-6.926806960254908">
        <ele>613</ele>
        <time>2018-05-22T06:38:27Z</time>
      </trkpt>
      <trkpt lat="42.665414996445179" lon="-6.926781982183456">
        <ele>613</ele>
        <time>2018-05-22T06:38:28Z</time>
      </trkpt>
      <trkpt lat="42.665363028645515" lon="-6.926765972748399">
        <ele>613</ele>
        <time>2018-05-22T06:38:30Z</time>
      </trkpt>
      <trkpt lat="42.665242999792099" lon="-6.926675029098988">
        <ele>613</ele>
        <time>2018-05-22T06:38:34Z</time>
      </trkpt>
      <trkpt lat="42.665148032829165" lon="-6.926602022722364">
        <ele>613</ele>
        <time>2018-05-22T06:38:37Z</time>
      </trkpt>
      <trkpt lat="42.665124982595444" lon="-6.926585007458925">
        <ele>613</ele>
        <time>2018-05-22T06:38:38Z</time>
      </trkpt>
      <trkpt lat="42.664974024519324" lon="-6.926568998023868">
        <ele>613</ele>
        <time>2018-05-22T06:38:42Z</time>
      </trkpt>
      <trkpt lat="42.664804961532354" lon="-6.926605040207505">
        <ele>613</ele>
        <time>2018-05-22T06:38:47Z</time>
      </trkpt>
      <trkpt lat="42.664766991510987" lon="-6.92661602050066">
        <ele>613</ele>
        <time>2018-05-22T06:38:49Z</time>
      </trkpt>
      <trkpt lat="42.664713012054563" lon="-6.926632029935718">
        <ele>613</ele>
        <time>2018-05-22T06:38:50Z</time>
      </trkpt>
      <trkpt lat="42.664663977921009" lon="-6.926648961380124">
        <ele>613</ele>
        <time>2018-05-22T06:38:52Z</time>
      </trkpt>
      <trkpt lat="42.664611004292965" lon="-6.926673017442226">
        <ele>613</ele>
        <time>2018-05-22T06:38:53Z</time>
      </trkpt>
      <trkpt lat="42.664558030664921" lon="-6.926680980250239">
        <ele>613</ele>
        <time>2018-05-22T06:38:55Z</time>
      </trkpt>
      <trkpt lat="42.664504973217845" lon="-6.926690032705665">
        <ele>613</ele>
        <time>2018-05-22T06:38:57Z</time>
      </trkpt>
      <trkpt lat="42.66445099376142" lon="-6.926705958321691">
        <ele>613</ele>
        <time>2018-05-22T06:38:58Z</time>
      </trkpt>
      <trkpt lat="42.664390979334712" lon="-6.926714004948735">
        <ele>613</ele>
        <time>2018-05-22T06:39:00Z</time>
      </trkpt>
      <trkpt lat="42.664330964908004" lon="-6.926731020212174">
        <ele>613</ele>
        <time>2018-05-22T06:39:02Z</time>
      </trkpt>
      <trkpt lat="42.664269022643566" lon="-6.926742000505328">
        <ele>613</ele>
        <time>2018-05-22T06:39:04Z</time>
      </trkpt>
      <trkpt lat="42.664080010727048" lon="-6.926752980798483">
        <ele>613</ele>
        <time>2018-05-22T06:39:09Z</time>
      </trkpt>
      <trkpt lat="42.664070958271623" lon="-6.926752980798483">
        <ele>613</ele>
        <time>2018-05-22T06:39:09Z</time>
      </trkpt>
      <trkpt lat="42.663936009630561" lon="-6.926720039919019">
        <ele>613</ele>
        <time>2018-05-22T06:39:14Z</time>
      </trkpt>
      <trkpt lat="42.663678014650941" lon="-6.926695983856916">
        <ele>615</ele>
        <time>2018-05-22T06:39:21Z</time>
      </trkpt>
      <trkpt lat="42.663422031328082" lon="-6.926678968593478">
        <ele>615</ele>
        <time>2018-05-22T06:39:29Z</time>
      </trkpt>
      <trkpt lat="42.663277024403214" lon="-6.926662959158421">
        <ele>615</ele>
        <time>2018-05-22T06:39:33Z</time>
      </trkpt>
      <trkpt lat="42.663259003311396" lon="-6.926662959158421">
        <ele>615</ele>
        <time>2018-05-22T06:39:34Z</time>
      </trkpt>
      <trkpt lat="42.663017017766833" lon="-6.926593976095319">
        <ele>615</ele>
        <time>2018-05-22T06:39:41Z</time>
      </trkpt>
      <trkpt lat="42.663004025816917" lon="-6.926586013287306">
        <ele>615</ele>
        <time>2018-05-22T06:39:41Z</time>
      </trkpt>
      <trkpt lat="42.662940993905067" lon="-6.926586013287306">
        <ele>615</ele>
        <time>2018-05-22T06:39:43Z</time>
      </trkpt>
      <trkpt lat="42.662886008620262" lon="-6.926586013287306">
        <ele>612</ele>
        <time>2018-05-22T06:39:45Z</time>
      </trkpt>
      <trkpt lat="42.662825994193554" lon="-6.926586013287306">
        <ele>612</ele>
        <time>2018-05-22T06:39:47Z</time>
      </trkpt>
      <trkpt lat="42.662759022787213" lon="-6.926577966660261">
        <ele>612</ele>
        <time>2018-05-22T06:39:49Z</time>
      </trkpt>
      <trkpt lat="42.662692973390222" lon="-6.926577966660261">
        <ele>612</ele>
        <time>2018-05-22T06:39:51Z</time>
      </trkpt>
      <trkpt lat="42.662638993933797" lon="-6.926562041044235">
        <ele>612</ele>
        <time>2018-05-22T06:39:52Z</time>
      </trkpt>
      <trkpt lat="42.662586020305753" lon="-6.92655298858881">
        <ele>612</ele>
        <time>2018-05-22T06:39:54Z</time>
      </trkpt>
      <trkpt lat="42.66251896508038" lon="-6.92655298858881">
        <ele>612</ele>
        <time>2018-05-22T06:39:56Z</time>
      </trkpt>
      <trkpt lat="42.66245299950242" lon="-6.92655298858881">
        <ele>612</ele>
        <time>2018-05-22T06:39:58Z</time>
      </trkpt>
      <trkpt lat="42.66238996759057" lon="-6.92655298858881">
        <ele>612</ele>
        <time>2018-05-22T06:40:00Z</time>
      </trkpt>
      <trkpt lat="42.662330958992243" lon="-6.92655298858881">
        <ele>612</ele>
        <time>2018-05-22T06:40:01Z</time>
      </trkpt>
      <trkpt lat="42.662263987585902" lon="-6.92655298858881">
        <ele>612</ele>
        <time>2018-05-22T06:40:03Z</time>
      </trkpt>
      <trkpt lat="42.662203973159194" lon="-6.92655298858881">
        <ele>612</ele>
        <time>2018-05-22T06:40:05Z</time>
      </trkpt>
      <trkpt lat="42.662143036723137" lon="-6.92655298858881">
        <ele>612</ele>
        <time>2018-05-22T06:40:07Z</time>
      </trkpt>
      <trkpt lat="42.662102971225977" lon="-6.926512001082301">
        <ele>609</ele>
        <time>2018-05-22T06:40:08Z</time>
      </trkpt>
      <trkpt lat="42.662047985941172" lon="-6.926455004140735">
        <ele>609</ele>
        <time>2018-05-22T06:40:10Z</time>
      </trkpt>
      <trkpt lat="42.662004986777902" lon="-6.926386021077633">
        <ele>609</ele>
        <time>2018-05-22T06:40:12Z</time>
      </trkpt>
      <trkpt lat="42.661971962079406" lon="-6.926345033571124">
        <ele>609</ele>
        <time>2018-05-22T06:40:14Z</time>
      </trkpt>
      <trkpt lat="42.661926029250026" lon="-6.926295999437571">
        <ele>609</ele>
        <time>2018-05-22T06:40:15Z</time>
      </trkpt>
      <trkpt lat="42.661858974024653" lon="-6.926189968362451">
        <ele>615</ele>
        <time>2018-05-22T06:40:18Z</time>
      </trkpt>
      <trkpt lat="42.661818992346525" lon="-6.926140012219548">
        <ele>615</ele>
        <time>2018-05-22T06:40:20Z</time>
      </trkpt>
      <trkpt lat="42.661779010668397" lon="-6.926058037206531">
        <ele>615</ele>
        <time>2018-05-22T06:40:22Z</time>
      </trkpt>
      <trkpt lat="42.661739028990269" lon="-6.926009003072977">
        <ele>615</ele>
        <time>2018-05-22T06:40:24Z</time>
      </trkpt>
      <trkpt lat="42.661698963493109" lon="-6.925934990867972">
        <ele>615</ele>
        <time>2018-05-22T06:40:26Z</time>
      </trkpt>
      <trkpt lat="42.661652024835348" lon="-6.925853015854955">
        <ele>615</ele>
        <time>2018-05-22T06:40:28Z</time>
      </trkpt>
      <trkpt lat="42.661619000136852" lon="-6.925786966457963">
        <ele>615</ele>
        <time>2018-05-22T06:40:30Z</time>
      </trkpt>
      <trkpt lat="42.661577006801963" lon="-6.925702979788184">
        <ele>615</ele>
        <time>2018-05-22T06:40:32Z</time>
      </trkpt>
      <trkpt lat="42.66155001707375" lon="-6.925637014210224">
        <ele>615</ele>
        <time>2018-05-22T06:40:34Z</time>
      </trkpt>
      <trkpt lat="42.661510035395622" lon="-6.925570964813232">
        <ele>615</ele>
        <time>2018-05-22T06:40:35Z</time>
      </trkpt>
      <trkpt lat="42.661467958241701" lon="-6.925511034205556">
        <ele>615</ele>
        <time>2018-05-22T06:40:37Z</time>
      </trkpt>
      <trkpt lat="42.661369973793626" lon="-6.925362003967166">
        <ele>615</ele>
        <time>2018-05-22T06:40:42Z</time>
      </trkpt>
      <trkpt lat="42.661265032365918" lon="-6.925201993435621">
        <ele>610</ele>
        <time>2018-05-22T06:40:46Z</time>
      </trkpt>
      <trkpt lat="42.661200994625688" lon="-6.925099985674024">
        <ele>610</ele>
        <time>2018-05-22T06:40:49Z</time>
      </trkpt>
      <trkpt lat="42.661111978814006" lon="-6.924893036484718">
        <ele>610</ele>
        <time>2018-05-22T06:40:54Z</time>
      </trkpt>
      <trkpt lat="42.661050958558917" lon="-6.924700001254678">
        <ele>610</ele>
        <time>2018-05-22T06:40:59Z</time>
      </trkpt>
      <trkpt lat="42.660998990759254" lon="-6.924592964351177">
        <ele>610</ele>
        <time>2018-05-22T06:41:02Z</time>
      </trkpt>
      <trkpt lat="42.660948028787971" lon="-6.924438988789916">
        <ele>611</ele>
        <time>2018-05-22T06:41:05Z</time>
      </trkpt>
      <trkpt lat="42.660900000482798" lon="-6.924269003793597">
        <ele>611</ele>
        <time>2018-05-22T06:41:09Z</time>
      </trkpt>
      <trkpt lat="42.660839986056089" lon="-6.924020983278751">
        <ele>611</ele>
        <time>2018-05-22T06:41:15Z</time>
      </trkpt>
      <trkpt lat="42.660802016034722" lon="-6.923854015767574">
        <ele>611</ele>
        <time>2018-05-22T06:41:19Z</time>
      </trkpt>
      <trkpt lat="42.660753987729549" lon="-6.923614041879773">
        <ele>607</ele>
        <time>2018-05-22T06:41:24Z</time>
      </trkpt>
      <trkpt lat="42.660704031586647" lon="-6.923355041071773">
        <ele>607</ele>
        <time>2018-05-22T06:41:30Z</time>
      </trkpt>
      <trkpt lat="42.660704031586647" lon="-6.92335001192987">
        <ele>607</ele>
        <time>2018-05-22T06:41:30Z</time>
      </trkpt>
      <trkpt lat="42.660663966089487" lon="-6.923180026933551">
        <ele>607</ele>
        <time>2018-05-22T06:41:34Z</time>
      </trkpt>
      <trkpt lat="42.660609986633062" lon="-6.922929994761944">
        <ele>607</ele>
        <time>2018-05-22T06:41:40Z</time>
      </trkpt>
      <trkpt lat="42.660576961934566" lon="-6.922722961753607">
        <ele>610</ele>
        <time>2018-05-22T06:41:44Z</time>
      </trkpt>
      <trkpt lat="42.660521976649761" lon="-6.922511989250779">
        <ele>610</ele>
        <time>2018-05-22T06:41:49Z</time>
      </trkpt>
      <trkpt lat="42.660495992749929" lon="-6.922373017296195">
        <ele>610</ele>
        <time>2018-05-22T06:41:52Z</time>
      </trkpt>
      <trkpt lat="42.660495992749929" lon="-6.922368993982673">
        <ele>610</ele>
        <time>2018-05-22T06:41:53Z</time>
      </trkpt>
      <trkpt lat="42.660486018285155" lon="-6.922322977334261">
        <ele>610</ele>
        <time>2018-05-22T06:41:54Z</time>
      </trkpt>
      <trkpt lat="42.660475960001349" lon="-6.922281989827752">
        <ele>610</ele>
        <time>2018-05-22T06:41:55Z</time>
      </trkpt>
      <trkpt lat="42.660461962223053" lon="-6.922217030078173">
        <ele>603</ele>
        <time>2018-05-22T06:41:56Z</time>
      </trkpt>
      <trkpt lat="42.660455005243421" lon="-6.922177970409393">
        <ele>603</ele>
        <time>2018-05-22T06:41:57Z</time>
      </trkpt>
      <trkpt lat="42.660437989979982" lon="-6.922129020094872">
        <ele>603</ele>
        <time>2018-05-22T06:41:58Z</time>
      </trkpt>
      <trkpt lat="42.660423992201686" lon="-6.922095995396376">
        <ele>603</ele>
        <time>2018-05-22T06:41:59Z</time>
      </trkpt>
      <trkpt lat="42.660401025786996" lon="-6.92206297069788">
        <ele>603</ele>
        <time>2018-05-22T06:42:00Z</time>
      </trkpt>
      <trkpt lat="42.660371018573642" lon="-6.922027012333274">
        <ele>603</ele>
        <time>2018-05-22T06:42:01Z</time>
      </trkpt>
      <trkpt lat="42.660355009138584" lon="-6.921993987634778">
        <ele>599</ele>
        <time>2018-05-22T06:42:02Z</time>
      </trkpt>
      <trkpt lat="42.660320978611708" lon="-6.921940008178353">
        <ele>599</ele>
        <time>2018-05-22T06:42:03Z</time>
      </trkpt>
      <trkpt lat="42.660288037732244" lon="-6.9218909740448">
        <ele>599</ele>
        <time>2018-05-22T06:42:05Z</time>
      </trkpt>
      <trkpt lat="42.660260964184999" lon="-6.921849986538291">
        <ele>599</ele>
        <time>2018-05-22T06:42:06Z</time>
      </trkpt>
      <trkpt lat="42.660237997770309" lon="-6.921808999031782">
        <ele>599</ele>
        <time>2018-05-22T06:42:07Z</time>
      </trkpt>
      <trkpt lat="42.660214025527239" lon="-6.921790977939963">
        <ele>599</ele>
        <time>2018-05-22T06:42:08Z</time>
      </trkpt>
      <trkpt lat="42.660197010263801" lon="-6.92176197655499">
        <ele>599</ele>
        <time>2018-05-22T06:42:09Z</time>
      </trkpt>
      <trkpt lat="42.660176977515221" lon="-6.921730041503906">
        <ele>599</ele>
        <time>2018-05-22T06:42:10Z</time>
      </trkpt>
      <trkpt lat="42.660159962251782" lon="-6.921692993491888">
        <ele>599</ele>
        <time>2018-05-22T06:42:11Z</time>
      </trkpt>
      <trkpt lat="42.660136995837092" lon="-6.921643959358335">
        <ele>599</ele>
        <time>2018-05-22T06:42:12Z</time>
      </trkpt>
      <trkpt lat="42.660124003887177" lon="-6.921606995165348">
        <ele>599</ele>
        <time>2018-05-22T06:42:13Z</time>
      </trkpt>
      <trkpt lat="42.660103971138597" lon="-6.921566007658839">
        <ele>599</ele>
        <time>2018-05-22T06:42:14Z</time>
      </trkpt>
      <trkpt lat="42.66008703969419" lon="-6.921528959646821">
        <ele>599</ele>
        <time>2018-05-22T06:42:15Z</time>
      </trkpt>
      <trkpt lat="42.66006700694561" lon="-6.921487972140312">
        <ele>599</ele>
        <time>2018-05-22T06:42:16Z</time>
      </trkpt>
      <trkpt lat="42.66004697419703" lon="-6.921442961320281">
        <ele>599</ele>
        <time>2018-05-22T06:42:17Z</time>
      </trkpt>
      <trkpt lat="42.660029958933592" lon="-6.921413959935308">
        <ele>599</ele>
        <time>2018-05-22T06:42:18Z</time>
      </trkpt>
      <trkpt lat="42.660015961155295" lon="-6.921370960772038">
        <ele>599</ele>
        <time>2018-05-22T06:42:19Z</time>
      </trkpt>
      <trkpt lat="42.660005986690521" lon="-6.921333996579051">
        <ele>599</ele>
        <time>2018-05-22T06:42:20Z</time>
      </trkpt>
      <trkpt lat="42.659988971427083" lon="-6.921265013515949">
        <ele>599</ele>
        <time>2018-05-22T06:42:21Z</time>
      </trkpt>
      <trkpt lat="42.659975979477167" lon="-6.921227965503931">
        <ele>599</ele>
        <time>2018-05-22T06:42:22Z</time>
      </trkpt>
      <trkpt lat="42.659968016669154" lon="-6.921194018796086">
        <ele>599</ele>
        <time>2018-05-22T06:42:23Z</time>
      </trkpt>
      <trkpt lat="42.65996097587049" lon="-6.921151019632816">
        <ele>599</ele>
        <time>2018-05-22T06:42:24Z</time>
      </trkpt>
      <trkpt lat="42.659957958385348" lon="-6.921106008812785">
        <ele>599</ele>
        <time>2018-05-22T06:42:25Z</time>
      </trkpt>
      <trkpt lat="42.659957958385348" lon="-6.921068960800767">
        <ele>599</ele>
        <time>2018-05-22T06:42:26Z</time>
      </trkpt>
      <trkpt lat="42.659955024719238" lon="-6.921020010486245">
        <ele>599</ele>
        <time>2018-05-22T06:42:27Z</time>
      </trkpt>
      <trkpt lat="42.659955024719238" lon="-6.920979022979736">
        <ele>599</ele>
        <time>2018-05-22T06:42:28Z</time>
      </trkpt>
      <trkpt lat="42.659955024719238" lon="-6.920938035473228">
        <ele>599</ele>
        <time>2018-05-22T06:42:29Z</time>
      </trkpt>
      <trkpt lat="42.659951001405716" lon="-6.920887995511293">
        <ele>599</ele>
        <time>2018-05-22T06:42:30Z</time>
      </trkpt>
      <trkpt lat="42.659951001405716" lon="-6.92083896137774">
        <ele>599</ele>
        <time>2018-05-22T06:42:31Z</time>
      </trkpt>
      <trkpt lat="42.659951001405716" lon="-6.920774001628161">
        <ele>599</ele>
        <time>2018-05-22T06:42:32Z</time>
      </trkpt>
      <trkpt lat="42.659951001405716" lon="-6.920727984979749">
        <ele>599</ele>
        <time>2018-05-22T06:42:33Z</time>
      </trkpt>
      <trkpt lat="42.659951001405716" lon="-6.920678028836846">
        <ele>599</ele>
        <time>2018-05-22T06:42:34Z</time>
      </trkpt>
      <trkpt lat="42.659944966435432" lon="-6.920479964464903">
        <ele>599</ele>
        <time>2018-05-22T06:42:39Z</time>
      </trkpt>
      <trkpt lat="42.659952007234097" lon="-6.92027703858912">
        <ele>599</ele>
        <time>2018-05-22T06:42:43Z</time>
      </trkpt>
      <trkpt lat="42.659964999184012" lon="-6.920059025287628">
        <ele>599</ele>
        <time>2018-05-22T06:42:48Z</time>
      </trkpt>
      <trkpt lat="42.659987965598702" lon="-6.919775968417525">
        <ele>599</ele>
        <time>2018-05-22T06:42:54Z</time>
      </trkpt>
      <trkpt lat="42.660007998347282" lon="-6.919576982036233">
        <ele>599</ele>
        <time>2018-05-22T06:42:58Z</time>
      </trkpt>
      <trkpt lat="42.660025013610721" lon="-6.919334996491671">
        <ele>598</ele>
        <time>2018-05-22T06:43:04Z</time>
      </trkpt>
      <trkpt lat="42.660055020824075" lon="-6.919078007340431">
        <ele>598</ele>
        <time>2018-05-22T06:43:09Z</time>
      </trkpt>
      <trkpt lat="42.660088967531919" lon="-6.91883702762425">
        <ele>598</ele>
        <time>2018-05-22T06:43:15Z</time>
      </trkpt>
      <trkpt lat="42.660103971138597" lon="-6.918551037088037">
        <ele>593</ele>
        <time>2018-05-22T06:43:21Z</time>
      </trkpt>
      <trkpt lat="42.660116963088512" lon="-6.918311985209584">
        <ele>593</ele>
        <time>2018-05-22T06:43:26Z</time>
      </trkpt>
      <trkpt lat="42.660120986402035" lon="-6.918036974966526">
        <ele>593</ele>
        <time>2018-05-22T06:43:32Z</time>
      </trkpt>
      <trkpt lat="42.660127021372318" lon="-6.91785098053515">
        <ele>597</ele>
        <time>2018-05-22T06:43:36Z</time>
      </trkpt>
      <trkpt lat="42.660130960866809" lon="-6.917676972225308">
        <ele>597</ele>
        <time>2018-05-22T06:43:40Z</time>
      </trkpt>
      <trkpt lat="42.660149987787008" lon="-6.917474968358874">
        <ele>597</ele>
        <time>2018-05-22T06:43:44Z</time>
      </trkpt>
      <trkpt lat="42.660146970301867" lon="-6.917271036654711">
        <ele>597</ele>
        <time>2018-05-22T06:43:49Z</time>
      </trkpt>
      <trkpt lat="42.660146970301867" lon="-6.917156036943197">
        <ele>597</ele>
        <time>2018-05-22T06:43:51Z</time>
      </trkpt>
      <trkpt lat="42.660122998058796" lon="-6.9170540291816">
        <ele>602</ele>
        <time>2018-05-22T06:43:54Z</time>
      </trkpt>
      <trkpt lat="42.660087961703539" lon="-6.916912039741874">
        <ele>602</ele>
        <time>2018-05-22T06:43:57Z</time>
      </trkpt>
      <trkpt lat="42.660027025267482" lon="-6.916717998683453">
        <ele>602</ele>
        <time>2018-05-22T06:44:01Z</time>
      </trkpt>
      <trkpt lat="42.659948989748955" lon="-6.916509959846735">
        <ele>602</ele>
        <time>2018-05-22T06:44:07Z</time>
      </trkpt>
      <trkpt lat="42.659891992807388" lon="-6.916396971791983">
        <ele>602</ele>
        <time>2018-05-22T06:44:09Z</time>
      </trkpt>
      <trkpt lat="42.659790990874171" lon="-6.91621801815927">
        <ele>601</ele>
        <time>2018-05-22T06:44:14Z</time>
      </trkpt>
      <trkpt lat="42.659716978669167" lon="-6.916023977100849">
        <ele>601</ele>
        <time>2018-05-22T06:44:19Z</time>
      </trkpt>
      <trkpt lat="42.659595021978021" lon="-6.915811998769641">
        <ele>601</ele>
        <time>2018-05-22T06:44:25Z</time>
      </trkpt>
      <trkpt lat="42.659467030316591" lon="-6.91557596437633">
        <ele>596</ele>
        <time>2018-05-22T06:44:31Z</time>
      </trkpt>
      <trkpt lat="42.659368040040135" lon="-6.915413020178676">
        <ele>596</ele>
        <time>2018-05-22T06:44:36Z</time>
      </trkpt>
      <trkpt lat="42.659235019236803" lon="-6.915189977735281">
        <ele>596</ele>
        <time>2018-05-22T06:44:42Z</time>
      </trkpt>
      <trkpt lat="42.659111972898245" lon="-6.915063997730613">
        <ele>596</ele>
        <time>2018-05-22T06:44:47Z</time>
      </trkpt>
      <trkpt lat="42.659027986228466" lon="-6.914944974705577">
        <ele>596</ele>
        <time>2018-05-22T06:44:50Z</time>
      </trkpt>
      <trkpt lat="42.658909969031811" lon="-6.914815977215767">
        <ele>596</ele>
        <time>2018-05-22T06:44:55Z</time>
      </trkpt>
      <trkpt lat="42.65877895988524" lon="-6.91469301469624">
        <ele>596</ele>
        <time>2018-05-22T06:45:00Z</time>
      </trkpt>
      <trkpt lat="42.658634958788753" lon="-6.914559993892908">
        <ele>597</ele>
        <time>2018-05-22T06:45:05Z</time>
      </trkpt>
      <trkpt lat="42.658528005704284" lon="-6.914432002231479">
        <ele>594</ele>
        <time>2018-05-22T06:45:09Z</time>
      </trkpt>
      <trkpt lat="42.658337987959385" lon="-6.914276015013456">
        <ele>594</ele>
        <time>2018-05-22T06:45:16Z</time>
      </trkpt>
      <trkpt lat="42.658206978812814" lon="-6.914150035008788">
        <ele>594</ele>
        <time>2018-05-22T06:45:20Z</time>
      </trkpt>
      <trkpt lat="42.658099019899964" lon="-6.914053978398442">
        <ele>594</ele>
        <time>2018-05-22T06:45:24Z</time>
      </trkpt>
      <trkpt lat="42.658072030171752" lon="-6.914034029468894">
        <ele>594</ele>
        <time>2018-05-22T06:45:25Z</time>
      </trkpt>
      <trkpt lat="42.65804897993803" lon="-6.914008967578411">
        <ele>594</ele>
        <time>2018-05-22T06:45:26Z</time>
      </trkpt>
      <trkpt lat="42.658012015745044" lon="-6.913976026698947">
        <ele>594</ele>
        <time>2018-05-22T06:45:27Z</time>
      </trkpt>
      <trkpt lat="42.657978991046548" lon="-6.913955993950367">
        <ele>594</ele>
        <time>2018-05-22T06:45:28Z</time>
      </trkpt>
      <trkpt lat="42.657952001318336" lon="-6.913935039192438">
        <ele>594</ele>
        <time>2018-05-22T06:45:29Z</time>
      </trkpt>
      <trkpt lat="42.657925011590123" lon="-6.913910983130336">
        <ele>598</ele>
        <time>2018-05-22T06:45:30Z</time>
      </trkpt>
      <trkpt lat="42.657901039347053" lon="-6.913865972310305">
        <ele>598</ele>
        <time>2018-05-22T06:45:31Z</time>
      </trkpt>
      <trkpt lat="42.657870026305318" lon="-6.913820039480925">
        <ele>598</ele>
        <time>2018-05-22T06:45:33Z</time>
      </trkpt>
      <trkpt lat="42.657846976071596" lon="-6.913795983418822">
        <ele>598</ele>
        <time>2018-05-22T06:45:34Z</time>
      </trkpt>
      <trkpt lat="42.657826021313667" lon="-6.913774022832513">
        <ele>598</ele>
        <time>2018-05-22T06:45:34Z</time>
      </trkpt>
      <trkpt lat="42.657799031585455" lon="-6.91374896094203">
        <ele>598</ele>
        <time>2018-05-22T06:45:35Z</time>
      </trkpt>
      <trkpt lat="42.657778998836875" lon="-6.913724988698959">
        <ele>598</ele>
        <time>2018-05-22T06:45:36Z</time>
      </trkpt>
      <trkpt lat="42.657758966088295" lon="-6.913704033941031">
        <ele>598</ele>
        <time>2018-05-22T06:45:37Z</time>
      </trkpt>
      <trkpt lat="42.657742034643888" lon="-6.913679977878928">
        <ele>598</ele>
        <time>2018-05-22T06:45:38Z</time>
      </trkpt>
      <trkpt lat="42.65772501938045" lon="-6.913645025342703">
        <ele>592</ele>
        <time>2018-05-22T06:45:39Z</time>
      </trkpt>
      <trkpt lat="42.657708004117012" lon="-6.913613006472588">
        <ele>592</ele>
        <time>2018-05-22T06:45:39Z</time>
      </trkpt>
      <trkpt lat="42.657693000510335" lon="-6.913581993430853">
        <ele>592</ele>
        <time>2018-05-22T06:45:40Z</time>
      </trkpt>
      <trkpt lat="42.657680008560419" lon="-6.913545029237866">
        <ele>592</ele>
        <time>2018-05-22T06:45:41Z</time>
      </trkpt>
      <trkpt lat="42.657670034095645" lon="-6.913504041731358">
        <ele>592</ele>
        <time>2018-05-22T06:45:42Z</time>
      </trkpt>
      <trkpt lat="42.657652013003826" lon="-6.913474034518004">
        <ele>592</ele>
        <time>2018-05-22T06:45:43Z</time>
      </trkpt>
      <trkpt lat="42.657645978033543" lon="-6.913436986505985">
        <ele>592</ele>
        <time>2018-05-22T06:45:44Z</time>
      </trkpt>
      <trkpt lat="42.657631980255246" lon="-6.913400022312999">
        <ele>592</ele>
        <time>2018-05-22T06:45:45Z</time>
      </trkpt>
      <trkpt lat="42.657626029103994" lon="-6.91335903480649">
        <ele>592</ele>
        <time>2018-05-22T06:45:46Z</time>
      </trkpt>
      <trkpt lat="42.657612031325698" lon="-6.913331039249897">
        <ele>592</ele>
        <time>2018-05-22T06:45:46Z</time>
      </trkpt>
      <trkpt lat="42.657609013840556" lon="-6.913286028429866">
        <ele>592</ele>
        <time>2018-05-22T06:45:47Z</time>
      </trkpt>
      <trkpt lat="42.657601973041892" lon="-6.913244035094976">
        <ele>592</ele>
        <time>2018-05-22T06:45:48Z</time>
      </trkpt>
      <trkpt lat="42.657599039375782" lon="-6.913202963769436">
        <ele>592</ele>
        <time>2018-05-22T06:45:49Z</time>
      </trkpt>
      <trkpt lat="42.65759602189064" lon="-6.913154013454914">
        <ele>592</ele>
        <time>2018-05-22T06:45:50Z</time>
      </trkpt>
      <trkpt lat="42.65759602189064" lon="-6.91310103982687">
        <ele>592</ele>
        <time>2018-05-22T06:45:51Z</time>
      </trkpt>
      <trkpt lat="42.65759602189064" lon="-6.913034990429878">
        <ele>592</ele>
        <time>2018-05-22T06:45:53Z</time>
      </trkpt>
      <trkpt lat="42.65759602189064" lon="-6.912998026236892">
        <ele>592</ele>
        <time>2018-05-22T06:45:54Z</time>
      </trkpt>
      <trkpt lat="42.65759602189064" lon="-6.912953015416861">
        <ele>592</ele>
        <time>2018-05-22T06:45:55Z</time>
      </trkpt>
      <trkpt lat="42.65759602189064" lon="-6.912903981283307">
        <ele>592</ele>
        <time>2018-05-22T06:45:56Z</time>
      </trkpt>
      <trkpt lat="42.65759602189064" lon="-6.912855030968785">
        <ele>592</ele>
        <time>2018-05-22T06:45:57Z</time>
      </trkpt>
      <trkpt lat="42.65759602189064" lon="-6.912817982956767">
        <ele>601</ele>
        <time>2018-05-22T06:45:58Z</time>
      </trkpt>
      <trkpt lat="42.657599039375782" lon="-6.912776995450258">
        <ele>601</ele>
        <time>2018-05-22T06:45:58Z</time>
      </trkpt>
      <trkpt lat="42.657599039375782" lon="-6.912731984630227">
        <ele>601</ele>
        <time>2018-05-22T06:45:59Z</time>
      </trkpt>
      <trkpt lat="42.657609013840556" lon="-6.912690997123718">
        <ele>601</ele>
        <time>2018-05-22T06:46:00Z</time>
      </trkpt>
      <trkpt lat="42.657612031325698" lon="-6.912654032930732">
        <ele>601</ele>
        <time>2018-05-22T06:46:01Z</time>
      </trkpt>
      <trkpt lat="42.657615970820189" lon="-6.912612961605191">
        <ele>601</ele>
        <time>2018-05-22T06:46:02Z</time>
      </trkpt>
      <trkpt lat="42.65761898830533" lon="-6.912575997412205">
        <ele>601</ele>
        <time>2018-05-22T06:46:03Z</time>
      </trkpt>
      <trkpt lat="42.657622005790472" lon="-6.912535009905696">
        <ele>601</ele>
        <time>2018-05-22T06:46:04Z</time>
      </trkpt>
      <trkpt lat="42.657631980255246" lon="-6.912485975772142">
        <ele>601</ele>
        <time>2018-05-22T06:46:05Z</time>
      </trkpt>
      <trkpt lat="42.65763902105391" lon="-6.912449011579156">
        <ele>601</ele>
        <time>2018-05-22T06:46:06Z</time>
      </trkpt>
      <trkpt lat="42.657656036317348" lon="-6.912420010194182">
        <ele>601</ele>
        <time>2018-05-22T06:46:07Z</time>
      </trkpt>
      <trkpt lat="42.657671961933374" lon="-6.912386985495687">
        <ele>601</ele>
        <time>2018-05-22T06:46:07Z</time>
      </trkpt>
      <trkpt lat="42.657691994681954" lon="-6.9123500213027">
        <ele>601</ele>
        <time>2018-05-22T06:46:08Z</time>
      </trkpt>
      <trkpt lat="42.657712027430534" lon="-6.912305010482669">
        <ele>601</ele>
        <time>2018-05-22T06:46:10Z</time>
      </trkpt>
      <trkpt lat="42.657731976360083" lon="-6.912267962470651">
        <ele>601</ele>
        <time>2018-05-22T06:46:11Z</time>
      </trkpt>
      <trkpt lat="42.657753014937043" lon="-6.912234015762806">
        <ele>601</ele>
        <time>2018-05-22T06:46:12Z</time>
      </trkpt>
      <trkpt lat="42.657829038798809" lon="-6.912100994959474">
        <ele>601</ele>
        <time>2018-05-22T06:46:15Z</time>
      </trkpt>
      <trkpt lat="42.657913025468588" lon="-6.911982977762818">
        <ele>594</ele>
        <time>2018-05-22T06:46:19Z</time>
      </trkpt>
      <trkpt lat="42.658014027401805" lon="-6.911854986101389">
        <ele>609</ele>
        <time>2018-05-22T06:46:23Z</time>
      </trkpt>
      <trkpt lat="42.658174959942698" lon="-6.91168500110507">
        <ele>609</ele>
        <time>2018-05-22T06:46:29Z</time>
      </trkpt>
      <trkpt lat="42.658279985189438" lon="-6.91153303720057">
        <ele>609</ele>
        <time>2018-05-22T06:46:33Z</time>
      </trkpt>
      <trkpt lat="42.65839297324419" lon="-6.911416025832295">
        <ele>609</ele>
        <time>2018-05-22T06:46:38Z</time>
      </trkpt>
      <trkpt lat="42.658446030691266" lon="-6.91134000197053">
        <ele>609</ele>
        <time>2018-05-22T06:46:40Z</time>
      </trkpt>
      <trkpt lat="42.658515013754368" lon="-6.911239000037313">
        <ele>609</ele>
        <time>2018-05-22T06:46:43Z</time>
      </trkpt>
      <trkpt lat="42.658579973503947" lon="-6.911140009760857">
        <ele>600</ele>
        <time>2018-05-22T06:46:46Z</time>
      </trkpt>
      <trkpt lat="42.658645017072558" lon="-6.911014029756188">
        <ele>600</ele>
        <time>2018-05-22T06:46:49Z</time>
      </trkpt>
      <trkpt lat="42.658645017072558" lon="-6.911009000614286">
        <ele>600</ele>
        <time>2018-05-22T06:46:49Z</time>
      </trkpt>
      <trkpt lat="42.658700002357364" lon="-6.91088997758925">
        <ele>600</ele>
        <time>2018-05-22T06:46:52Z</time>
      </trkpt>
      <trkpt lat="42.658725986257195" lon="-6.910776989534497">
        <ele>600</ele>
        <time>2018-05-22T06:46:55Z</time>
      </trkpt>
      <trkpt lat="42.65873302705586" lon="-6.910682022571564">
        <ele>600</ele>
        <time>2018-05-22T06:46:57Z</time>
      </trkpt>
      <trkpt lat="42.658750964328647" lon="-6.910558976233006">
        <ele>600</ele>
        <time>2018-05-22T06:47:00Z</time>
      </trkpt>
      <trkpt lat="42.658750964328647" lon="-6.910542966797948">
        <ele>600</ele>
        <time>2018-05-22T06:47:00Z</time>
      </trkpt>
      <trkpt lat="42.658753981813788" lon="-6.910501979291439">
        <ele>600</ele>
        <time>2018-05-22T06:47:01Z</time>
      </trkpt>
      <trkpt lat="42.658753981813788" lon="-6.910456968471408">
        <ele>600</ele>
        <time>2018-05-22T06:47:02Z</time>
      </trkpt>
      <trkpt lat="42.658753981813788" lon="-6.910412041470408">
        <ele>600</ele>
        <time>2018-05-22T06:47:03Z</time>
      </trkpt>
      <trkpt lat="42.658753981813788" lon="-6.91037499345839">
        <ele>600</ele>
        <time>2018-05-22T06:47:04Z</time>
      </trkpt>
      <trkpt lat="42.658753981813788" lon="-6.910329982638359">
        <ele>598</ele>
        <time>2018-05-22T06:47:05Z</time>
      </trkpt>
      <trkpt lat="42.658753981813788" lon="-6.910293018445373">
        <ele>598</ele>
        <time>2018-05-22T06:47:06Z</time>
      </trkpt>
      <trkpt lat="42.658753981813788" lon="-6.910255970433354">
        <ele>598</ele>
        <time>2018-05-22T06:47:06Z</time>
      </trkpt>
      <trkpt lat="42.658750964328647" lon="-6.910214982926846">
        <ele>598</ele>
        <time>2018-05-22T06:47:07Z</time>
      </trkpt>
      <trkpt lat="42.658748030662537" lon="-6.910173995420337">
        <ele>598</ele>
        <time>2018-05-22T06:47:08Z</time>
      </trkpt>
      <trkpt lat="42.658745013177395" lon="-6.910133007913828">
        <ele>598</ele>
        <time>2018-05-22T06:47:09Z</time>
      </trkpt>
      <trkpt lat="42.658740989863873" lon="-6.91009595990181">
        <ele>598</ele>
        <time>2018-05-22T06:47:10Z</time>
      </trkpt>
      <trkpt lat="42.658737972378731" lon="-6.910058995708823">
        <ele>598</ele>
        <time>2018-05-22T06:47:11Z</time>
      </trkpt>
      <trkpt lat="42.658731015399098" lon="-6.910005016252399">
        <ele>598</ele>
        <time>2018-05-22T06:47:12Z</time>
      </trkpt>
      <trkpt lat="42.658727997913957" lon="-6.909968974068761">
        <ele>598</ele>
        <time>2018-05-22T06:47:13Z</time>
      </trkpt>
      <trkpt lat="42.658723974600434" lon="-6.909914994612336">
        <ele>598</ele>
        <time>2018-05-22T06:47:14Z</time>
      </trkpt>
      <trkpt lat="42.658721040934324" lon="-6.909875012934208">
        <ele>598</ele>
        <time>2018-05-22T06:47:15Z</time>
      </trkpt>
      <trkpt lat="42.658718023449183" lon="-6.90983796492219">
        <ele>598</ele>
        <time>2018-05-22T06:47:16Z</time>
      </trkpt>
      <trkpt lat="42.658705031499267" lon="-6.909796977415681">
        <ele>598</ele>
        <time>2018-05-22T06:47:17Z</time>
      </trkpt>
      <trkpt lat="42.658696984872222" lon="-6.909759007394314">
        <ele>598</ele>
        <time>2018-05-22T06:47:17Z</time>
      </trkpt>
      <trkpt lat="42.658682987093925" lon="-6.909725982695818">
        <ele>598</ele>
        <time>2018-05-22T06:47:18Z</time>
      </trkpt>
      <trkpt lat="42.65866999514401" lon="-6.909684995189309">
        <ele>598</ele>
        <time>2018-05-22T06:47:19Z</time>
      </trkpt>
      <trkpt lat="42.658660020679235" lon="-6.9096440076828">
        <ele>598</ele>
        <time>2018-05-22T06:47:20Z</time>
      </trkpt>
      <trkpt lat="42.658639987930655" lon="-6.909610982984304">
        <ele>598</ele>
        <time>2018-05-22T06:47:21Z</time>
      </trkpt>
      <trkpt lat="42.658620039001107" lon="-6.909582987427712">
        <ele>598</ele>
        <time>2018-05-22T06:47:22Z</time>
      </trkpt>
      <trkpt lat="42.658603023737669" lon="-6.909546023234725">
        <ele>598</ele>
        <time>2018-05-22T06:47:23Z</time>
      </trkpt>
      <trkpt lat="42.658581985160708" lon="-6.909520039334893">
        <ele>600</ele>
        <time>2018-05-22T06:47:24Z</time>
      </trkpt>
      <trkpt lat="42.658565975725651" lon="-6.909487014636397">
        <ele>600</ele>
        <time>2018-05-22T06:47:25Z</time>
      </trkpt>
      <trkpt lat="42.658546026796103" lon="-6.909453989937902">
        <ele>600</ele>
        <time>2018-05-22T06:47:25Z</time>
      </trkpt>
      <trkpt lat="42.658523982390761" lon="-6.909416019916534">
        <ele>600</ele>
        <time>2018-05-22T06:47:27Z</time>
      </trkpt>
      <trkpt lat="42.658505039289594" lon="-6.909378971904516">
        <ele>600</ele>
        <time>2018-05-22T06:47:28Z</time>
      </trkpt>
      <trkpt lat="42.658482994884253" lon="-6.909332033246756">
        <ele>600</ele>
        <time>2018-05-22T06:47:29Z</time>
      </trkpt>
      <trkpt lat="42.658418035134673" lon="-6.909248968586326">
        <ele>600</ele>
        <time>2018-05-22T06:47:31Z</time>
      </trkpt>
      <trkpt lat="42.658356009051204" lon="-6.909179985523224">
        <ele>600</ele>
        <time>2018-05-22T06:47:34Z</time>
      </trkpt>
      <trkpt lat="42.65826397575438" lon="-6.909103961661458">
        <ele>600</ele>
        <time>2018-05-22T06:47:37Z</time>
      </trkpt>
      <trkpt lat="42.658129027113318" lon="-6.908974964171648">
        <ele>600</ele>
        <time>2018-05-22T06:47:42Z</time>
      </trkpt>
      <trkpt lat="42.658036993816495" lon="-6.908907992765307">
        <ele>600</ele>
        <time>2018-05-22T06:47:45Z</time>
      </trkpt>
      <trkpt lat="42.657881006598473" lon="-6.908829035237432">
        <ele>599</ele>
        <time>2018-05-22T06:47:50Z</time>
      </trkpt>
      <trkpt lat="42.657786039635539" lon="-6.908742031082511">
        <ele>599</ele>
        <time>2018-05-22T06:47:53Z</time>
      </trkpt>
      <trkpt lat="42.657631980255246" lon="-6.908646980300546">
        <ele>596</ele>
        <time>2018-05-22T06:47:58Z</time>
      </trkpt>
      <trkpt lat="42.657497031614184" lon="-6.90854799002409">
        <ele>596</ele>
        <time>2018-05-22T06:48:03Z</time>
      </trkpt>
      <trkpt lat="42.657396029680967" lon="-6.90844003111124">
        <ele>596</ele>
        <time>2018-05-22T06:48:07Z</time>
      </trkpt>
      <trkpt lat="42.657279018312693" lon="-6.908320002257824">
        <ele>596</ele>
        <time>2018-05-22T06:48:11Z</time>
      </trkpt>
      <trkpt lat="42.657178016379476" lon="-6.908209025859833">
        <ele>596</ele>
        <time>2018-05-22T06:48:15Z</time>
      </trkpt>
      <trkpt lat="42.657110039144754" lon="-6.908091008663178">
        <ele>599</ele>
        <time>2018-05-22T06:48:18Z</time>
      </trkpt>
      <trkpt lat="42.65703896060586" lon="-6.907942984253168">
        <ele>599</ele>
        <time>2018-05-22T06:48:22Z</time>
      </trkpt>
      <trkpt lat="42.656971989199519" lon="-6.907814992591739">
        <ele>592</ele>
        <time>2018-05-22T06:48:25Z</time>
      </trkpt>
      <trkpt lat="42.656928990036249" lon="-6.907663028687239">
        <ele>592</ele>
        <time>2018-05-22T06:48:29Z</time>
      </trkpt>
      <trkpt lat="42.656922033056617" lon="-6.907640984281898">
        <ele>592</ele>
        <time>2018-05-22T06:48:29Z</time>
      </trkpt>
      <trkpt lat="42.656881967559457" lon="-6.907472005113959">
        <ele>592</ele>
        <time>2018-05-22T06:48:33Z</time>
      </trkpt>
      <trkpt lat="42.656837962567806" lon="-6.907318029552698">
        <ele>592</ele>
        <time>2018-05-22T06:48:37Z</time>
      </trkpt>
      <trkpt lat="42.656833017244935" lon="-6.907313000410795">
        <ele>592</ele>
        <time>2018-05-22T06:48:37Z</time>
      </trkpt>
      <trkpt lat="42.656790018081665" lon="-6.907135974615812">
        <ele>592</ele>
        <time>2018-05-22T06:48:41Z</time>
      </trkpt>
      <trkpt lat="42.656747018918395" lon="-6.906929025426507">
        <ele>591</ele>
        <time>2018-05-22T06:48:46Z</time>
      </trkpt>
      <trkpt lat="42.656702008098364" lon="-6.906757028773427">
        <ele>591</ele>
        <time>2018-05-22T06:48:50Z</time>
      </trkpt>
      <trkpt lat="42.656684992834926" lon="-6.906624007970095">
        <ele>591</ele>
        <time>2018-05-22T06:48:53Z</time>
      </trkpt>
      <trkpt lat="42.656631013378501" lon="-6.906448993831873">
        <ele>591</ele>
        <time>2018-05-22T06:48:57Z</time>
      </trkpt>
      <trkpt lat="42.656579967588186" lon="-6.906296024098992">
        <ele>591</ele>
        <time>2018-05-22T06:49:00Z</time>
      </trkpt>
      <trkpt lat="42.656509978696704" lon="-6.906157974153757">
        <ele>585</ele>
        <time>2018-05-22T06:49:04Z</time>
      </trkpt>
      <trkpt lat="42.656463040038943" lon="-6.906079016625881">
        <ele>585</ele>
        <time>2018-05-22T06:49:06Z</time>
      </trkpt>
      <trkpt lat="42.65641501173377" lon="-6.90599100664258">
        <ele>585</ele>
        <time>2018-05-22T06:49:09Z</time>
      </trkpt>
      <trkpt lat="42.656343011185527" lon="-6.905912971124053">
        <ele>585</ele>
        <time>2018-05-22T06:49:11Z</time>
      </trkpt>
      <trkpt lat="42.656258018687367" lon="-6.905782967805862">
        <ele>595</ele>
        <time>2018-05-22T06:49:15Z</time>
      </trkpt>
      <trkpt lat="42.656167997047305" lon="-6.905688000842929">
        <ele>595</ele>
        <time>2018-05-22T06:49:19Z</time>
      </trkpt>
      <trkpt lat="42.656059032306075" lon="-6.905580963939428">
        <ele>595</ele>
        <time>2018-05-22T06:49:23Z</time>
      </trkpt>
      <trkpt lat="42.65598401427269" lon="-6.905491026118398">
        <ele>595</ele>
        <time>2018-05-22T06:49:26Z</time>
      </trkpt>
      <trkpt lat="42.655902961269021" lon="-6.905372003093362">
        <ele>595</ele>
        <time>2018-05-22T06:49:29Z</time>
      </trkpt>
      <trkpt lat="42.655807994306087" lon="-6.90523898229003">
        <ele>584</ele>
        <time>2018-05-22T06:49:33Z</time>
      </trkpt>
      <trkpt lat="42.655745968222618" lon="-6.90513102337718">
        <ele>584</ele>
        <time>2018-05-22T06:49:36Z</time>
      </trkpt>
      <trkpt lat="42.655674973502755" lon="-6.905042007565498">
        <ele>584</ele>
        <time>2018-05-22T06:49:39Z</time>
      </trkpt>
      <trkpt lat="42.655601967126131" lon="-6.904905969277024">
        <ele>584</ele>
        <time>2018-05-22T06:49:43Z</time>
      </trkpt>
      <trkpt lat="42.65559702180326" lon="-6.90489498898387">
        <ele>584</ele>
        <time>2018-05-22T06:49:43Z</time>
      </trkpt>
      <trkpt lat="42.655553016811609" lon="-6.904783006757498">
        <ele>584</ele>
        <time>2018-05-22T06:49:46Z</time>
      </trkpt>
      <trkpt lat="42.655495014041662" lon="-6.904664989560843">
        <ele>584</ele>
        <time>2018-05-22T06:49:49Z</time>
      </trkpt>
      <trkpt lat="42.655422007665038" lon="-6.904403977096081">
        <ele>594</ele>
        <time>2018-05-22T06:49:55Z</time>
      </trkpt>
      <trkpt lat="42.655355036258698" lon="-6.904124021530151">
        <ele>594</ele>
        <time>2018-05-22T06:50:01Z</time>
      </trkpt>
      <trkpt lat="42.655350007116795" lon="-6.90410197712481">
        <ele>594</ele>
        <time>2018-05-22T06:50:02Z</time>
      </trkpt>
      <trkpt lat="42.655267026275396" lon="-6.903768964111805">
        <ele>594</ele>
        <time>2018-05-22T06:50:09Z</time>
      </trkpt>
      <trkpt lat="42.655209023505449" lon="-6.903510969132185">
        <ele>596</ele>
        <time>2018-05-22T06:50:15Z</time>
      </trkpt>
      <trkpt lat="42.655209023505449" lon="-6.903507029637694">
        <ele>596</ele>
        <time>2018-05-22T06:50:15Z</time>
      </trkpt>
      <trkpt lat="42.65512503683567" lon="-6.903149960562587">
        <ele>596</ele>
        <time>2018-05-22T06:50:24Z</time>
      </trkpt>
      <trkpt lat="42.655039960518479" lon="-6.902816025540233">
        <ele>590</ele>
        <time>2018-05-22T06:50:31Z</time>
      </trkpt>
      <trkpt lat="42.654973994940519" lon="-6.902478989213705">
        <ele>590</ele>
        <time>2018-05-22T06:50:39Z</time>
      </trkpt>
      <trkpt lat="42.654968965798616" lon="-6.90246800892055">
        <ele>590</ele>
        <time>2018-05-22T06:50:39Z</time>
      </trkpt>
      <trkpt lat="42.654897971078753" lon="-6.902157962322235">
        <ele>590</ele>
        <time>2018-05-22T06:50:46Z</time>
      </trkpt>
      <trkpt lat="42.654894031584263" lon="-6.902157962322235">
        <ele>590</ele>
        <time>2018-05-22T06:50:46Z</time>
      </trkpt>
      <trkpt lat="42.654818007722497" lon="-6.901854034513235">
        <ele>584</ele>
        <time>2018-05-22T06:50:54Z</time>
      </trkpt>
      <trkpt lat="42.654764028266072" lon="-6.901631997898221">
        <ele>584</ele>
        <time>2018-05-22T06:50:59Z</time>
      </trkpt>
      <trkpt lat="42.654708037152886" lon="-6.901390012353659">
        <ele>584</ele>
        <time>2018-05-22T06:51:04Z</time>
      </trkpt>
      <trkpt lat="42.654670989140868" lon="-6.90117803402245">
        <ele>587</ele>
        <time>2018-05-22T06:51:09Z</time>
      </trkpt>
      <trkpt lat="42.654637964442372" lon="-6.900994973257184">
        <ele>592</ele>
        <time>2018-05-22T06:51:13Z</time>
      </trkpt>
      <trkpt lat="42.654604017734528" lon="-6.900786012411118">
        <ele>592</ele>
        <time>2018-05-22T06:51:18Z</time>
      </trkpt>
      <trkpt lat="42.654574010521173" lon="-6.900603035464883">
        <ele>583</ele>
        <time>2018-05-22T06:51:22Z</time>
      </trkpt>
      <trkpt lat="42.654537968337536" lon="-6.900315033271909">
        <ele>582</ele>
        <time>2018-05-22T06:51:28Z</time>
      </trkpt>
      <trkpt lat="42.654501004144549" lon="-6.900063995271921">
        <ele>582</ele>
        <time>2018-05-22T06:51:34Z</time>
      </trkpt>
      <trkpt lat="42.654480971395969" lon="-6.899851011112332">
        <ele>582</ele>
        <time>2018-05-22T06:51:39Z</time>
      </trkpt>
      <trkpt lat="42.654478037729859" lon="-6.899591004475951">
        <ele>582</ele>
        <time>2018-05-22T06:51:44Z</time>
      </trkpt>
      <trkpt lat="42.654480971395969" lon="-6.899358993396163">
        <ele>587</ele>
        <time>2018-05-22T06:51:49Z</time>
      </trkpt>
      <trkpt lat="42.654491029679775" lon="-6.899160007014871">
        <ele>587</ele>
        <time>2018-05-22T06:51:54Z</time>
      </trkpt>
      <trkpt lat="42.654526988044381" lon="-6.898983987048268">
        <ele>587</ele>
        <time>2018-05-22T06:51:58Z</time>
      </trkpt>
      <trkpt lat="42.654548026621342" lon="-6.89881500788033">
        <ele>587</ele>
        <time>2018-05-22T06:52:01Z</time>
      </trkpt>
      <trkpt lat="42.65456797555089" lon="-6.898630019277334">
        <ele>602</ele>
        <time>2018-05-22T06:52:05Z</time>
      </trkpt>
      <trkpt lat="42.654628995805979" lon="-6.898399014025927">
        <ele>581</ele>
        <time>2018-05-22T06:52:11Z</time>
      </trkpt>
      <trkpt lat="42.654669983312488" lon="-6.898217964917421">
        <ele>581</ele>
        <time>2018-05-22T06:52:15Z</time>
      </trkpt>
      <trkpt lat="42.654723962768912" lon="-6.898002969101071">
        <ele>581</ele>
        <time>2018-05-22T06:52:20Z</time>
      </trkpt>
      <trkpt lat="42.654790012165904" lon="-6.897747991606593">
        <ele>583</ele>
        <time>2018-05-22T06:52:26Z</time>
      </trkpt>
      <trkpt lat="42.654881961643696" lon="-6.897480022162199">
        <ele>583</ele>
        <time>2018-05-22T06:52:32Z</time>
      </trkpt>
      <trkpt lat="42.65495496802032" lon="-6.897291010245681">
        <ele>583</ele>
        <time>2018-05-22T06:52:37Z</time>
      </trkpt>
      <trkpt lat="42.655005007982254" lon="-6.897165030241013">
        <ele>583</ele>
        <time>2018-05-22T06:52:40Z</time>
      </trkpt>
      <trkpt lat="42.655068961903453" lon="-6.897013988345861">
        <ele>583</ele>
        <time>2018-05-22T06:52:44Z</time>
      </trkpt>
      <trkpt lat="42.655122019350529" lon="-6.896807961165905">
        <ele>583</ele>
        <time>2018-05-22T06:52:49Z</time>
      </trkpt>
      <trkpt lat="42.655165018513799" lon="-6.89664401113987">
        <ele>583</ele>
        <time>2018-05-22T06:52:53Z</time>
      </trkpt>
      <trkpt lat="42.655208017677069" lon="-6.896445024758577">
        <ele>583</ele>
        <time>2018-05-22T06:52:57Z</time>
      </trkpt>
      <trkpt lat="42.655249005183578" lon="-6.896318038925529">
        <ele>583</ele>
        <time>2018-05-22T06:53:00Z</time>
      </trkpt>
      <trkpt lat="42.655272977426648" lon="-6.8961519934237">
        <ele>582</ele>
        <time>2018-05-22T06:53:04Z</time>
      </trkpt>
      <trkpt lat="42.655314970761538" lon="-6.895921994000673">
        <ele>582</ele>
        <time>2018-05-22T06:53:09Z</time>
      </trkpt>
      <trkpt lat="42.655345983803272" lon="-6.895815962925553">
        <ele>582</ele>
        <time>2018-05-22T06:53:11Z</time>
      </trkpt>
      <trkpt lat="42.655366016551852" lon="-6.895790984854102">
        <ele>582</ele>
        <time>2018-05-22T06:53:12Z</time>
      </trkpt>
      <trkpt lat="42.65538303181529" lon="-6.895761983469129">
        <ele>582</ele>
        <time>2018-05-22T06:53:13Z</time>
      </trkpt>
      <trkpt lat="42.655401974916458" lon="-6.895735999569297">
        <ele>582</ele>
        <time>2018-05-22T06:53:14Z</time>
      </trkpt>
      <trkpt lat="42.655417984351516" lon="-6.895715966820717">
        <ele>582</ele>
        <time>2018-05-22T06:53:15Z</time>
      </trkpt>
      <trkpt lat="42.655436005443335" lon="-6.89569903537631">
        <ele>582</ele>
        <time>2018-05-22T06:53:15Z</time>
      </trkpt>
      <trkpt lat="42.655460983514786" lon="-6.895685959607363">
        <ele>582</ele>
        <time>2018-05-22T06:53:16Z</time>
      </trkpt>
      <trkpt lat="42.655484033748507" lon="-6.895676990970969">
        <ele>585</ele>
        <time>2018-05-22T06:53:17Z</time>
      </trkpt>
      <trkpt lat="42.655516974627972" lon="-6.895676990970969">
        <ele>585</ele>
        <time>2018-05-22T06:53:18Z</time>
      </trkpt>
      <trkpt lat="42.655546981841326" lon="-6.895676990970969">
        <ele>585</ele>
        <time>2018-05-22T06:53:19Z</time>
      </trkpt>
      <trkpt lat="42.65557698905468" lon="-6.895676990970969">
        <ele>585</ele>
        <time>2018-05-22T06:53:20Z</time>
      </trkpt>
      <trkpt lat="42.655609007924795" lon="-6.895672967657447">
        <ele>585</ele>
        <time>2018-05-22T06:53:21Z</time>
      </trkpt>
      <trkpt lat="42.655634991824627" lon="-6.895668022334576">
        <ele>585</ele>
        <time>2018-05-22T06:53:21Z</time>
      </trkpt>
      <trkpt lat="42.655657958239317" lon="-6.89565503038466">
        <ele>585</ele>
        <time>2018-05-22T06:53:22Z</time>
      </trkpt>
      <trkpt lat="42.655673967674375" lon="-6.895627034828067">
        <ele>585</ele>
        <time>2018-05-22T06:53:23Z</time>
      </trkpt>
      <trkpt lat="42.655698023736477" lon="-6.895605996251106">
        <ele>585</ele>
        <time>2018-05-22T06:53:24Z</time>
      </trkpt>
      <trkpt lat="42.655724007636309" lon="-6.895585963502526">
        <ele>585</ele>
        <time>2018-05-22T06:53:25Z</time>
      </trkpt>
      <trkpt lat="42.655754014849663" lon="-6.89556903205812">
        <ele>585</ele>
        <time>2018-05-22T06:53:26Z</time>
      </trkpt>
      <trkpt lat="42.655790979042649" lon="-6.895560985431075">
        <ele>585</ele>
        <time>2018-05-22T06:53:27Z</time>
      </trkpt>
      <trkpt lat="42.655822997912765" lon="-6.895560985431075">
        <ele>585</ele>
        <time>2018-05-22T06:53:28Z</time>
      </trkpt>
      <trkpt lat="42.655851999297738" lon="-6.895560985431075">
        <ele>585</ele>
        <time>2018-05-22T06:53:28Z</time>
      </trkpt>
      <trkpt lat="42.655882006511092" lon="-6.895560985431075">
        <ele>585</ele>
        <time>2018-05-22T06:53:29Z</time>
      </trkpt>
      <trkpt lat="42.655915031209588" lon="-6.895560985431075">
        <ele>585</ele>
        <time>2018-05-22T06:53:30Z</time>
      </trkpt>
      <trkpt lat="42.655945038422942" lon="-6.895560985431075">
        <ele>585</ele>
        <time>2018-05-22T06:53:31Z</time>
      </trkpt>
      <trkpt lat="42.655974961817265" lon="-6.895560985431075">
        <ele>585</ele>
        <time>2018-05-22T06:53:32Z</time>
      </trkpt>
      <trkpt lat="42.656003963202238" lon="-6.895556962117553">
        <ele>585</ele>
        <time>2018-05-22T06:53:33Z</time>
      </trkpt>
      <trkpt lat="42.65602801926434" lon="-6.895544975996018">
        <ele>585</ele>
        <time>2018-05-22T06:53:34Z</time>
      </trkpt>
      <trkpt lat="42.656048974022269" lon="-6.895530978217721">
        <ele>585</ele>
        <time>2018-05-22T06:53:34Z</time>
      </trkpt>
      <trkpt lat="42.656066995114088" lon="-6.895504994317889">
        <ele>585</ele>
        <time>2018-05-22T06:53:35Z</time>
      </trkpt>
      <trkpt lat="42.656076969578862" lon="-6.895471969619393">
        <ele>585</ele>
        <time>2018-05-22T06:53:36Z</time>
      </trkpt>
      <trkpt lat="42.656088033691049" lon="-6.895433999598026">
        <ele>585</ele>
        <time>2018-05-22T06:53:37Z</time>
      </trkpt>
      <trkpt lat="42.656111000105739" lon="-6.89539703540504">
        <ele>585</ele>
        <time>2018-05-22T06:53:38Z</time>
      </trkpt>
      <trkpt lat="42.656131032854319" lon="-6.895352024585009">
        <ele>585</ele>
        <time>2018-05-22T06:53:39Z</time>
      </trkpt>
      <trkpt lat="42.656144024804235" lon="-6.895318999886513">
        <ele>585</ele>
        <time>2018-05-22T06:53:40Z</time>
      </trkpt>
      <trkpt lat="42.656163973733783" lon="-6.895294021815062">
        <ele>585</ele>
        <time>2018-05-22T06:53:41Z</time>
      </trkpt>
      <trkpt lat="42.656180988997221" lon="-6.895260997116566">
        <ele>575</ele>
        <time>2018-05-22T06:53:42Z</time>
      </trkpt>
      <trkpt lat="42.656193980947137" lon="-6.89522897824645">
        <ele>575</ele>
        <time>2018-05-22T06:53:42Z</time>
      </trkpt>
      <trkpt lat="42.656210996210575" lon="-6.895196037366986">
        <ele>575</ele>
        <time>2018-05-22T06:53:43Z</time>
      </trkpt>
      <trkpt lat="42.656223988160491" lon="-6.89516301266849">
        <ele>575</ele>
        <time>2018-05-22T06:53:44Z</time>
      </trkpt>
      <trkpt lat="42.656247960403562" lon="-6.895134011283517">
        <ele>575</ele>
        <time>2018-05-22T06:53:45Z</time>
      </trkpt>
      <trkpt lat="42.656274028122425" lon="-6.895110039040446">
        <ele>575</ele>
        <time>2018-05-22T06:53:46Z</time>
      </trkpt>
      <trkpt lat="42.656301017850637" lon="-6.895093023777008">
        <ele>579</ele>
        <time>2018-05-22T06:53:47Z</time>
      </trkpt>
      <trkpt lat="42.656323984265327" lon="-6.89507701434195">
        <ele>579</ele>
        <time>2018-05-22T06:53:48Z</time>
      </trkpt>
      <trkpt lat="42.65634804032743" lon="-6.895052036270499">
        <ele>579</ele>
        <time>2018-05-22T06:53:48Z</time>
      </trkpt>
      <trkpt lat="42.656373018398881" lon="-6.895038038492203">
        <ele>579</ele>
        <time>2018-05-22T06:53:49Z</time>
      </trkpt>
      <trkpt lat="42.656395984813571" lon="-6.895029991865158">
        <ele>579</ele>
        <time>2018-05-22T06:53:50Z</time>
      </trkpt>
      <trkpt lat="42.656422974541783" lon="-6.895018005743623">
        <ele>579</ele>
        <time>2018-05-22T06:53:51Z</time>
      </trkpt>
      <trkpt lat="42.656452981755137" lon="-6.8950139824301">
        <ele>579</ele>
        <time>2018-05-22T06:53:52Z</time>
      </trkpt>
      <trkpt lat="42.65647997148335" lon="-6.895006019622088">
        <ele>579</ele>
        <time>2018-05-22T06:53:53Z</time>
      </trkpt>
      <trkpt lat="42.656512996181846" lon="-6.895001996308565">
        <ele>579</ele>
        <time>2018-05-22T06:53:53Z</time>
      </trkpt>
      <trkpt lat="42.656535962596536" lon="-6.894993027672172">
        <ele>579</ele>
        <time>2018-05-22T06:53:54Z</time>
      </trkpt>
      <trkpt lat="42.65656303614378" lon="-6.894989004358649">
        <ele>579</ele>
        <time>2018-05-22T06:53:55Z</time>
      </trkpt>
      <trkpt lat="42.656592959538102" lon="-6.894981041550636">
        <ele>579</ele>
        <time>2018-05-22T06:53:56Z</time>
      </trkpt>
      <trkpt lat="42.656625984236598" lon="-6.894972994923592">
        <ele>579</ele>
        <time>2018-05-22T06:53:57Z</time>
      </trkpt>
      <trkpt lat="42.65665297396481" lon="-6.894961008802056">
        <ele>579</ele>
        <time>2018-05-22T06:53:58Z</time>
      </trkpt>
      <trkpt lat="42.656682981178164" lon="-6.894943993538618">
        <ele>579</ele>
        <time>2018-05-22T06:53:59Z</time>
      </trkpt>
      <trkpt lat="42.656709970906377" lon="-6.89492798410356">
        <ele>579</ele>
        <time>2018-05-22T06:54:00Z</time>
      </trkpt>
      <trkpt lat="42.656730003654957" lon="-6.894910968840122">
        <ele>579</ele>
        <time>2018-05-22T06:54:00Z</time>
      </trkpt>
      <trkpt lat="42.656752970069647" lon="-6.894894959405065">
        <ele>579</ele>
        <time>2018-05-22T06:54:01Z</time>
      </trkpt>
      <trkpt lat="42.656776020303369" lon="-6.894869981333613">
        <ele>579</ele>
        <time>2018-05-22T06:54:02Z</time>
      </trkpt>
      <trkpt lat="42.656806027516723" lon="-6.894841985777021">
        <ele>579</ele>
        <time>2018-05-22T06:54:03Z</time>
      </trkpt>
      <trkpt lat="42.656828993931413" lon="-6.894812984392047">
        <ele>579</ele>
        <time>2018-05-22T06:54:04Z</time>
      </trkpt>
      <trkpt lat="42.656850032508373" lon="-6.894788006320596">
        <ele>579</ele>
        <time>2018-05-22T06:54:05Z</time>
      </trkpt>
      <trkpt lat="42.65686696395278" lon="-6.894765961915255">
        <ele>579</ele>
        <time>2018-05-22T06:54:05Z</time>
      </trkpt>
      <trkpt lat="42.656884985044599" lon="-6.894746012985706">
        <ele>579</ele>
        <time>2018-05-22T06:54:06Z</time>
      </trkpt>
      <trkpt lat="42.656902000308037" lon="-6.894721034914255">
        <ele>579</ele>
        <time>2018-05-22T06:54:07Z</time>
      </trkpt>
      <trkpt lat="42.656918009743094" lon="-6.894698990508914">
        <ele>579</ele>
        <time>2018-05-22T06:54:08Z</time>
      </trkpt>
      <trkpt lat="42.656932007521391" lon="-6.894669989123941">
        <ele>579</ele>
        <time>2018-05-22T06:54:08Z</time>
      </trkpt>
      <trkpt lat="42.656941981986165" lon="-6.894637970253825">
        <ele>579</ele>
        <time>2018-05-22T06:54:09Z</time>
      </trkpt>
      <trkpt lat="42.656948016956449" lon="-6.894605029374361">
        <ele>579</ele>
        <time>2018-05-22T06:54:10Z</time>
      </trkpt>
      <trkpt lat="42.656965032219887" lon="-6.894576027989388">
        <ele>579</ele>
        <time>2018-05-22T06:54:11Z</time>
      </trkpt>
      <trkpt lat="42.656975006684661" lon="-6.894541997462511">
        <ele>579</ele>
        <time>2018-05-22T06:54:12Z</time>
      </trkpt>
      <trkpt lat="42.656981963664293" lon="-6.89449698664248">
        <ele>579</ele>
        <time>2018-05-22T06:54:13Z</time>
      </trkpt>
      <trkpt lat="42.656987998634577" lon="-6.894455999135971">
        <ele>573</ele>
        <time>2018-05-22T06:54:13Z</time>
      </trkpt>
      <trkpt lat="42.656995039433241" lon="-6.894415011629462">
        <ele>573</ele>
        <time>2018-05-22T06:54:14Z</time>
      </trkpt>
      <trkpt lat="42.657008031383157" lon="-6.894381986930966">
        <ele>573</ele>
        <time>2018-05-22T06:54:15Z</time>
      </trkpt>
      <trkpt lat="42.657011970877647" lon="-6.894336976110935">
        <ele>573</ele>
        <time>2018-05-22T06:54:16Z</time>
      </trkpt>
      <trkpt lat="42.657022029161453" lon="-6.894300011917949">
        <ele>573</ele>
        <time>2018-05-22T06:54:17Z</time>
      </trkpt>
      <trkpt lat="42.657024962827563" lon="-6.894262963905931">
        <ele>573</ele>
        <time>2018-05-22T06:54:18Z</time>
      </trkpt>
      <trkpt lat="42.657024962827563" lon="-6.894225999712944">
        <ele>573</ele>
        <time>2018-05-22T06:54:19Z</time>
      </trkpt>
      <trkpt lat="42.657022029161453" lon="-6.894188029691577">
        <ele>573</ele>
        <time>2018-05-22T06:54:19Z</time>
      </trkpt>
      <trkpt lat="42.657018005847931" lon="-6.894137989729643">
        <ele>573</ele>
        <time>2018-05-22T06:54:21Z</time>
      </trkpt>
      <trkpt lat="42.657005013898015" lon="-6.894095996394754">
        <ele>573</ele>
        <time>2018-05-22T06:54:22Z</time>
      </trkpt>
      <trkpt lat="42.656995039433241" lon="-6.894058026373386">
        <ele>573</ele>
        <time>2018-05-22T06:54:22Z</time>
      </trkpt>
      <trkpt lat="42.656984981149435" lon="-6.894018966704607">
        <ele>573</ele>
        <time>2018-05-22T06:54:23Z</time>
      </trkpt>
      <trkpt lat="42.656971989199519" lon="-6.893977979198098">
        <ele>573</ele>
        <time>2018-05-22T06:54:24Z</time>
      </trkpt>
      <trkpt lat="42.656957991421223" lon="-6.893945038318634">
        <ele>573</ele>
        <time>2018-05-22T06:54:25Z</time>
      </trkpt>
      <trkpt lat="42.656944999471307" lon="-6.893913019448519">
        <ele>573</ele>
        <time>2018-05-22T06:54:26Z</time>
      </trkpt>
      <trkpt lat="42.656934019178152" lon="-6.893873037770391">
        <ele>573</ele>
        <time>2018-05-22T06:54:27Z</time>
      </trkpt>
      <trkpt lat="42.656917003914714" lon="-6.893835989758372">
        <ele>573</ele>
        <time>2018-05-22T06:54:28Z</time>
      </trkpt>
      <trkpt lat="42.656896971166134" lon="-6.893799025565386">
        <ele>573</ele>
        <time>2018-05-22T06:54:29Z</time>
      </trkpt>
      <trkpt lat="42.656880961731076" lon="-6.89376600086689">
        <ele>573</ele>
        <time>2018-05-22T06:54:30Z</time>
      </trkpt>
      <trkpt lat="42.656865958124399" lon="-6.893729036673904">
        <ele>573</ele>
        <time>2018-05-22T06:54:31Z</time>
      </trkpt>
      <trkpt lat="42.656852966174483" lon="-6.893687965348363">
        <ele>573</ele>
        <time>2018-05-22T06:54:32Z</time>
      </trkpt>
      <trkpt lat="42.656836034730077" lon="-6.893658963963389">
        <ele>573</ele>
        <time>2018-05-22T06:54:32Z</time>
      </trkpt>
      <trkpt lat="42.656820025295019" lon="-6.893627028912306">
        <ele>579</ele>
        <time>2018-05-22T06:54:33Z</time>
      </trkpt>
      <trkpt lat="42.656797980889678" lon="-6.893587969243527">
        <ele>579</ele>
        <time>2018-05-22T06:54:34Z</time>
      </trkpt>
      <trkpt lat="42.65678197145462" lon="-6.893539018929005">
        <ele>579</ele>
        <time>2018-05-22T06:54:35Z</time>
      </trkpt>
      <trkpt lat="42.656767973676324" lon="-6.893494008108974">
        <ele>579</ele>
        <time>2018-05-22T06:54:37Z</time>
      </trkpt>
      <trkpt lat="42.656754981726408" lon="-6.893441034480929">
        <ele>579</ele>
        <time>2018-05-22T06:54:38Z</time>
      </trkpt>
      <trkpt lat="42.656741989776492" lon="-6.893367022275925">
        <ele>579</ele>
        <time>2018-05-22T06:54:39Z</time>
      </trkpt>
      <trkpt lat="42.656732015311718" lon="-6.893327962607145">
        <ele>579</ele>
        <time>2018-05-22T06:54:40Z</time>
      </trkpt>
      <trkpt lat="42.656724974513054" lon="-6.893286975100637">
        <ele>579</ele>
        <time>2018-05-22T06:54:41Z</time>
      </trkpt>
      <trkpt lat="42.656718017533422" lon="-6.893241964280605">
        <ele>579</ele>
        <time>2018-05-22T06:54:42Z</time>
      </trkpt>
      <trkpt lat="42.656711982563138" lon="-6.893193013966084">
        <ele>579</ele>
        <time>2018-05-22T06:54:43Z</time>
      </trkpt>
      <trkpt lat="42.656697984784842" lon="-6.893119001761079">
        <ele>579</ele>
        <time>2018-05-22T06:54:45Z</time>
      </trkpt>
      <trkpt lat="42.65669203363359" lon="-6.893082037568092">
        <ele>579</ele>
        <time>2018-05-22T06:54:46Z</time>
      </trkpt>
      <trkpt lat="42.656684992834926" lon="-6.893044989556074">
        <ele>579</ele>
        <time>2018-05-22T06:54:47Z</time>
      </trkpt>
      <trkpt lat="42.656681975349784" lon="-6.893004002049565">
        <ele>579</ele>
        <time>2018-05-22T06:54:48Z</time>
      </trkpt>
      <trkpt lat="42.65667200088501" lon="-6.892963014543057">
        <ele>579</ele>
        <time>2018-05-22T06:54:48Z</time>
      </trkpt>
      <trkpt lat="42.656659008935094" lon="-6.892929989844561">
        <ele>579</ele>
        <time>2018-05-22T06:54:49Z</time>
      </trkpt>
      <trkpt lat="42.656645011156797" lon="-6.892894031479955">
        <ele>579</ele>
        <time>2018-05-22T06:54:50Z</time>
      </trkpt>
      <trkpt lat="42.656632019206882" lon="-6.892852960154414">
        <ele>579</ele>
        <time>2018-05-22T06:54:51Z</time>
      </trkpt>
      <trkpt lat="42.656615003943443" lon="-6.89282001927495">
        <ele>596</ele>
        <time>2018-05-22T06:54:52Z</time>
      </trkpt>
      <trkpt lat="42.656602011993527" lon="-6.892779031768441">
        <ele>596</ele>
        <time>2018-05-22T06:54:53Z</time>
      </trkpt>
      <trkpt lat="42.656584996730089" lon="-6.892753969877958">
        <ele>596</ele>
        <time>2018-05-22T06:54:54Z</time>
      </trkpt>
      <trkpt lat="42.656564963981509" lon="-6.89271298237145">
        <ele>596</ele>
        <time>2018-05-22T06:54:55Z</time>
      </trkpt>
      <trkpt lat="42.656538980081677" lon="-6.892671994864941">
        <ele>596</ele>
        <time>2018-05-22T06:54:56Z</time>
      </trkpt>
      <trkpt lat="42.656519031152129" lon="-6.892642993479967">
        <ele>596</ele>
        <time>2018-05-22T06:54:57Z</time>
      </trkpt>
      <trkpt lat="42.656496986746788" lon="-6.892612986266613">
        <ele>596</ele>
        <time>2018-05-22T06:54:58Z</time>
      </trkpt>
      <trkpt lat="42.65647703781724" lon="-6.892596976831555">
        <ele>596</ele>
        <time>2018-05-22T06:54:58Z</time>
      </trkpt>
      <trkpt lat="42.656453987583518" lon="-6.892579961568117">
        <ele>596</ele>
        <time>2018-05-22T06:54:59Z</time>
      </trkpt>
      <trkpt lat="42.656423980370164" lon="-6.892564035952091">
        <ele>596</ele>
        <time>2018-05-22T06:55:00Z</time>
      </trkpt>
      <trkpt lat="42.656396990641952" lon="-6.892555989325047">
        <ele>596</ele>
        <time>2018-05-22T06:55:01Z</time>
      </trkpt>
      <trkpt lat="42.656367989256978" lon="-6.892548026517034">
        <ele>596</ele>
        <time>2018-05-22T06:55:02Z</time>
      </trkpt>
      <trkpt lat="42.656337982043624" lon="-6.892544003203511">
        <ele>596</ele>
        <time>2018-05-22T06:55:03Z</time>
      </trkpt>
      <trkpt lat="42.65630797483027" lon="-6.892535034567118">
        <ele>596</ele>
        <time>2018-05-22T06:55:04Z</time>
      </trkpt>
      <trkpt lat="42.656280985102057" lon="-6.892526987940073">
        <ele>575</ele>
        <time>2018-05-22T06:55:05Z</time>
      </trkpt>
      <trkpt lat="42.656250977888703" lon="-6.892515001818538">
        <ele>575</ele>
        <time>2018-05-22T06:55:05Z</time>
      </trkpt>
      <trkpt lat="42.656220970675349" lon="-6.892502009868622">
        <ele>575</ele>
        <time>2018-05-22T06:55:06Z</time>
      </trkpt>
      <trkpt lat="42.656184006482363" lon="-6.892486000433564">
        <ele>575</ele>
        <time>2018-05-22T06:55:08Z</time>
      </trkpt>
      <trkpt lat="42.656153999269009" lon="-6.892469990998507">
        <ele>575</ele>
        <time>2018-05-22T06:55:08Z</time>
      </trkpt>
      <trkpt lat="42.656123992055655" lon="-6.892461022362113">
        <ele>575</ele>
        <time>2018-05-22T06:55:09Z</time>
      </trkpt>
      <trkpt lat="42.656098008155823" lon="-6.892452975735068">
        <ele>575</ele>
        <time>2018-05-22T06:55:10Z</time>
      </trkpt>
      <trkpt lat="42.65607101842761" lon="-6.892436966300011">
        <ele>575</ele>
        <time>2018-05-22T06:55:11Z</time>
      </trkpt>
      <trkpt lat="42.656041011214256" lon="-6.892429003491998">
        <ele>575</ele>
        <time>2018-05-22T06:55:12Z</time>
      </trkpt>
      <trkpt lat="42.656011004000902" lon="-6.892420034855604">
        <ele>575</ele>
        <time>2018-05-22T06:55:13Z</time>
      </trkpt>
      <trkpt lat="42.65598502010107" lon="-6.89241198822856">
        <ele>575</ele>
        <time>2018-05-22T06:55:14Z</time>
      </trkpt>
      <trkpt lat="42.655960964038968" lon="-6.892395978793502">
        <ele>575</ele>
        <time>2018-05-22T06:55:14Z</time>
      </trkpt>
      <trkpt lat="42.655935985967517" lon="-6.892388015985489">
        <ele>575</ele>
        <time>2018-05-22T06:55:15Z</time>
      </trkpt>
      <trkpt lat="42.655825009569526" lon="-6.892363037914038">
        <ele>575</ele>
        <time>2018-05-22T06:55:19Z</time>
      </trkpt>
      <trkpt lat="42.655732976272702" lon="-6.89234702847898">
        <ele>575</ele>
        <time>2018-05-22T06:55:21Z</time>
      </trkpt>
      <trkpt lat="42.655621999874711" lon="-6.892268992960453">
        <ele>575</ele>
        <time>2018-05-22T06:55:25Z</time>
      </trkpt>
      <trkpt lat="42.655517980456352" lon="-6.892167991027236">
        <ele>575</ele>
        <time>2018-05-22T06:55:29Z</time>
      </trkpt>
      <trkpt lat="42.65542502515018" lon="-6.892114011570811">
        <ele>573</ele>
        <time>2018-05-22T06:55:32Z</time>
      </trkpt>
      <trkpt lat="42.655327962711453" lon="-6.892013009637594">
        <ele>573</ele>
        <time>2018-05-22T06:55:35Z</time>
      </trkpt>
      <trkpt lat="42.655263002961874" lon="-6.891930028796196">
        <ele>579</ele>
        <time>2018-05-22T06:55:38Z</time>
      </trkpt>
      <trkpt lat="42.655159989371896" lon="-6.891785021871328">
        <ele>579</ele>
        <time>2018-05-22T06:55:42Z</time>
      </trkpt>
      <trkpt lat="42.655155966058373" lon="-6.891785021871328">
        <ele>579</ele>
        <time>2018-05-22T06:55:42Z</time>
      </trkpt>
      <trkpt lat="42.655090000480413" lon="-6.891687037423253">
        <ele>579</ele>
        <time>2018-05-22T06:55:45Z</time>
      </trkpt>
      <trkpt lat="42.655029986053705" lon="-6.891567008569837">
        <ele>579</ele>
        <time>2018-05-22T06:55:49Z</time>
      </trkpt>
      <trkpt lat="42.654972989112139" lon="-6.891414038836956">
        <ele>579</ele>
        <time>2018-05-22T06:55:52Z</time>
      </trkpt>
      <trkpt lat="42.654972989112139" lon="-6.891409009695053">
        <ele>579</ele>
        <time>2018-05-22T06:55:52Z</time>
      </trkpt>
      <trkpt lat="42.654942981898785" lon="-6.891329968348146">
        <ele>579</ele>
        <time>2018-05-22T06:55:54Z</time>
      </trkpt>
      <trkpt lat="42.654905011877418" lon="-6.891258973628283">
        <ele>579</ele>
        <time>2018-05-22T06:55:56Z</time>
      </trkpt>
      <trkpt lat="42.654838040471077" lon="-6.891155960038304">
        <ele>591</ele>
        <time>2018-05-22T06:55:59Z</time>
      </trkpt>
      <trkpt lat="42.654761010780931" lon="-6.8910370208323">
        <ele>591</ele>
        <time>2018-05-22T06:56:03Z</time>
      </trkpt>
      <trkpt lat="42.654704013839364" lon="-6.890940964221954">
        <ele>591</ele>
        <time>2018-05-22T06:56:05Z</time>
      </trkpt>
      <trkpt lat="42.654649028554559" lon="-6.890828981995583">
        <ele>591</ele>
        <time>2018-05-22T06:56:08Z</time>
      </trkpt>
      <trkpt lat="42.654570993036032" lon="-6.890707025304437">
        <ele>570</ele>
        <time>2018-05-22T06:56:12Z</time>
      </trkpt>
      <trkpt lat="42.654521958902478" lon="-6.890643993392587">
        <ele>570</ele>
        <time>2018-05-22T06:56:14Z</time>
      </trkpt>
      <trkpt lat="42.654461022466421" lon="-6.890548020601273">
        <ele>570</ele>
        <time>2018-05-22T06:56:17Z</time>
      </trkpt>
      <trkpt lat="42.654389021918178" lon="-6.890455987304449">
        <ele>570</ele>
        <time>2018-05-22T06:56:19Z</time>
      </trkpt>
      <trkpt lat="42.654341999441385" lon="-6.890380969271064">
        <ele>570</ele>
        <time>2018-05-22T06:56:22Z</time>
      </trkpt>
      <trkpt lat="42.654269998893142" lon="-6.890279967337847">
        <ele>576</ele>
        <time>2018-05-22T06:56:25Z</time>
      </trkpt>
      <trkpt lat="42.654199004173279" lon="-6.890220958739519">
        <ele>576</ele>
        <time>2018-05-22T06:56:27Z</time>
      </trkpt>
      <trkpt lat="42.654188023880124" lon="-6.890212995931506">
        <ele>576</ele>
        <time>2018-05-22T06:56:27Z</time>
      </trkpt>
      <trkpt lat="42.654117029160261" lon="-6.890153987333179">
        <ele>576</ele>
        <time>2018-05-22T06:56:30Z</time>
      </trkpt>
      <trkpt lat="42.654028013348579" lon="-6.890076035633683">
        <ele>576</ele>
        <time>2018-05-22T06:56:33Z</time>
      </trkpt>
      <trkpt lat="42.653961963951588" lon="-6.890042005106807">
        <ele>576</ele>
        <time>2018-05-22T06:56:35Z</time>
      </trkpt>
      <trkpt lat="42.653917958959937" lon="-6.889959024265409">
        <ele>576</ele>
        <time>2018-05-22T06:56:37Z</time>
      </trkpt>
      <trkpt lat="42.653845036402345" lon="-6.889816028997302">
        <ele>576</ele>
        <time>2018-05-22T06:56:41Z</time>
      </trkpt>
      <trkpt lat="42.653792984783649" lon="-6.889764983206987">
        <ele>576</ele>
        <time>2018-05-22T06:56:43Z</time>
      </trkpt>
      <trkpt lat="42.653756020590663" lon="-6.889682002365589">
        <ele>580</ele>
        <time>2018-05-22T06:56:45Z</time>
      </trkpt>
      <trkpt lat="42.653710003942251" lon="-6.889594998210669">
        <ele>568</ele>
        <time>2018-05-22T06:56:48Z</time>
      </trkpt>
      <trkpt lat="42.653656024485826" lon="-6.889521991834045">
        <ele>580</ele>
        <time>2018-05-22T06:56:50Z</time>
      </trkpt>
      <trkpt lat="42.653646972030401" lon="-6.88951101154089">
        <ele>580</ele>
        <time>2018-05-22T06:56:50Z</time>
      </trkpt>
      <trkpt lat="42.653606990352273" lon="-6.889457032084465">
        <ele>580</ele>
        <time>2018-05-22T06:56:52Z</time>
      </trkpt>
      <trkpt lat="42.653589975088835" lon="-6.889441022649407">
        <ele>580</ele>
        <time>2018-05-22T06:56:52Z</time>
      </trkpt>
      <trkpt lat="42.653542030602694" lon="-6.889424007385969">
        <ele>580</ele>
        <time>2018-05-22T06:56:54Z</time>
      </trkpt>
      <trkpt lat="42.653521997854114" lon="-6.889424007385969">
        <ele>580</ele>
        <time>2018-05-22T06:56:54Z</time>
      </trkpt>
      <trkpt lat="42.65349299646914" lon="-6.889424007385969">
        <ele>580</ele>
        <time>2018-05-22T06:56:55Z</time>
      </trkpt>
      <trkpt lat="42.65344999730587" lon="-6.889424007385969">
        <ele>580</ele>
        <time>2018-05-22T06:56:57Z</time>
      </trkpt>
      <trkpt lat="42.653433987870812" lon="-6.889424007385969">
        <ele>580</ele>
        <time>2018-05-22T06:56:57Z</time>
      </trkpt>
      <trkpt lat="42.653372967615724" lon="-6.889428030699492">
        <ele>580</ele>
        <time>2018-05-22T06:56:59Z</time>
      </trkpt>
      <trkpt lat="42.653356958180666" lon="-6.889428030699492">
        <ele>580</ele>
        <time>2018-05-22T06:56:59Z</time>
      </trkpt>
      <trkpt lat="42.653270959854126" lon="-6.889441022649407">
        <ele>580</ele>
        <time>2018-05-22T06:57:02Z</time>
      </trkpt>
      <trkpt lat="42.653266014531255" lon="-6.889441022649407">
        <ele>580</ele>
        <time>2018-05-22T06:57:02Z</time>
      </trkpt>
      <trkpt lat="42.653201976791024" lon="-6.889458959922195">
        <ele>580</ele>
        <time>2018-05-22T06:57:04Z</time>
      </trkpt>
      <trkpt lat="42.653190996497869" lon="-6.889458959922195">
        <ele>580</ele>
        <time>2018-05-22T06:57:04Z</time>
      </trkpt>
      <trkpt lat="42.653109021484852" lon="-6.889421995729208">
        <ele>580</ele>
        <time>2018-05-22T06:57:07Z</time>
      </trkpt>
      <trkpt lat="42.653045989573002" lon="-6.889388971030712">
        <ele>580</ele>
        <time>2018-05-22T06:57:09Z</time>
      </trkpt>
      <trkpt lat="42.653037020936608" lon="-6.889388971030712">
        <ele>580</ele>
        <time>2018-05-22T06:57:09Z</time>
      </trkpt>
      <trkpt lat="42.652967032045126" lon="-6.889343960210681">
        <ele>580</ele>
        <time>2018-05-22T06:57:11Z</time>
      </trkpt>
      <trkpt lat="42.652885979041457" lon="-6.889263996854425">
        <ele>570</ele>
        <time>2018-05-22T06:57:14Z</time>
      </trkpt>
      <trkpt lat="42.652877010405064" lon="-6.88925301656127">
        <ele>570</ele>
        <time>2018-05-22T06:57:15Z</time>
      </trkpt>
      <trkpt lat="42.652799980714917" lon="-6.889161989092827">
        <ele>570</ele>
        <time>2018-05-22T06:57:18Z</time>
      </trkpt>
      <trkpt lat="42.652691015973687" lon="-6.889062998816371">
        <ele>570</ele>
        <time>2018-05-22T06:57:22Z</time>
      </trkpt>
      <trkpt lat="42.652617003768682" lon="-6.888967026025057">
        <ele>570</ele>
        <time>2018-05-22T06:57:25Z</time>
      </trkpt>
      <trkpt lat="42.65248297713697" lon="-6.888887984678149">
        <ele>570</ele>
        <time>2018-05-22T06:57:29Z</time>
      </trkpt>
      <trkpt lat="42.652382981032133" lon="-6.88880299217999">
        <ele>570</ele>
        <time>2018-05-22T06:57:32Z</time>
      </trkpt>
      <trkpt lat="42.652284996584058" lon="-6.888736020773649">
        <ele>570</ele>
        <time>2018-05-22T06:57:36Z</time>
      </trkpt>
      <trkpt lat="42.652094978839159" lon="-6.888634013012052">
        <ele>579</ele>
        <time>2018-05-22T06:57:42Z</time>
      </trkpt>
      <trkpt lat="42.65194502659142" lon="-6.888538962230086">
        <ele>579</ele>
        <time>2018-05-22T06:57:47Z</time>
      </trkpt>
      <trkpt lat="42.651820974424481" lon="-6.888404013589025">
        <ele>579</ele>
        <time>2018-05-22T06:57:51Z</time>
      </trkpt>
      <trkpt lat="42.651676973327994" lon="-6.888249032199383">
        <ele>579</ele>
        <time>2018-05-22T06:57:57Z</time>
      </trkpt>
      <trkpt lat="42.6515609677881" lon="-6.888098996132612">
        <ele>579</ele>
        <time>2018-05-22T06:58:02Z</time>
      </trkpt>
      <trkpt lat="42.65147102996707" lon="-6.887944014742971">
        <ele>579</ele>
        <time>2018-05-22T06:58:06Z</time>
      </trkpt>
      <trkpt lat="42.651402968913317" lon="-6.887834966182709">
        <ele>593</ele>
        <time>2018-05-22T06:58:09Z</time>
      </trkpt>
      <trkpt lat="42.651399029418826" lon="-6.887831026688218">
        <ele>593</ele>
        <time>2018-05-22T06:58:09Z</time>
      </trkpt>
      <trkpt lat="42.651375979185104" lon="-6.887802025303245">
        <ele>593</ele>
        <time>2018-05-22T06:58:10Z</time>
      </trkpt>
      <trkpt lat="42.651353012770414" lon="-6.887780986726284">
        <ele>593</ele>
        <time>2018-05-22T06:58:11Z</time>
      </trkpt>
      <trkpt lat="42.651329040527344" lon="-6.887752991169691">
        <ele>593</ele>
        <time>2018-05-22T06:58:12Z</time>
      </trkpt>
      <trkpt lat="42.651305990293622" lon="-6.887732036411762">
        <ele>593</ele>
        <time>2018-05-22T06:58:13Z</time>
      </trkpt>
      <trkpt lat="42.651286041364074" lon="-6.887703035026789">
        <ele>590</ele>
        <time>2018-05-22T06:58:14Z</time>
      </trkpt>
      <trkpt lat="42.65125603415072" lon="-6.887678978964686">
        <ele>590</ele>
        <time>2018-05-22T06:58:15Z</time>
      </trkpt>
      <trkpt lat="42.651228960603476" lon="-6.887661963701248">
        <ele>590</ele>
        <time>2018-05-22T06:58:15Z</time>
      </trkpt>
      <trkpt lat="42.651207000017166" lon="-6.887649977579713">
        <ele>590</ele>
        <time>2018-05-22T06:58:16Z</time>
      </trkpt>
      <trkpt lat="42.651123013347387" lon="-6.887597003951669">
        <ele>590</ele>
        <time>2018-05-22T06:58:19Z</time>
      </trkpt>
      <trkpt lat="42.650984041392803" lon="-6.88751301728189">
        <ele>590</ele>
        <time>2018-05-22T06:58:23Z</time>
      </trkpt>
      <trkpt lat="42.650860995054245" lon="-6.887459959834814">
        <ele>590</ele>
        <time>2018-05-22T06:58:27Z</time>
      </trkpt>
      <trkpt lat="42.650719005614519" lon="-6.887365998700261">
        <ele>590</ele>
        <time>2018-05-22T06:58:32Z</time>
      </trkpt>
      <trkpt lat="42.650623032823205" lon="-6.887247981503606">
        <ele>590</ele>
        <time>2018-05-22T06:58:36Z</time>
      </trkpt>
      <trkpt lat="42.650543991476297" lon="-6.887145973742008">
        <ele>590</ele>
        <time>2018-05-22T06:58:39Z</time>
      </trkpt>
      <trkpt lat="42.65052898786962" lon="-6.887138010933995">
        <ele>590</ele>
        <time>2018-05-22T06:58:39Z</time>
      </trkpt>
      <trkpt lat="42.650509038940072" lon="-6.887100962921977">
        <ele>590</ele>
        <time>2018-05-22T06:58:40Z</time>
      </trkpt>
      <trkpt lat="42.650495963171124" lon="-6.887052012607455">
        <ele>602</ele>
        <time>2018-05-22T06:58:42Z</time>
      </trkpt>
      <trkpt lat="42.650476014241576" lon="-6.887014964595437">
        <ele>602</ele>
        <time>2018-05-22T06:58:43Z</time>
      </trkpt>
      <trkpt lat="42.65046302229166" lon="-6.886978000402451">
        <ele>575</ele>
        <time>2018-05-22T06:58:43Z</time>
      </trkpt>
      <trkpt lat="42.650455981492996" lon="-6.886914968490601">
        <ele>575</ele>
        <time>2018-05-22T06:58:45Z</time>
      </trkpt>
      <trkpt lat="42.65046302229166" lon="-6.88684799708426">
        <ele>575</ele>
        <time>2018-05-22T06:58:46Z</time>
      </trkpt>
      <trkpt lat="42.650466039776802" lon="-6.886807009577751">
        <ele>575</ele>
        <time>2018-05-22T06:58:47Z</time>
      </trkpt>
      <trkpt lat="42.650466039776802" lon="-6.886769039556384">
        <ele>575</ele>
        <time>2018-05-22T06:58:48Z</time>
      </trkpt>
      <trkpt lat="42.650466039776802" lon="-6.886727968230844">
        <ele>575</ele>
        <time>2018-05-22T06:58:49Z</time>
      </trkpt>
      <trkpt lat="42.650466039776802" lon="-6.886691004037857">
        <ele>575</ele>
        <time>2018-05-22T06:58:50Z</time>
      </trkpt>
      <trkpt lat="42.650466039776802" lon="-6.886641969904304">
        <ele>575</ele>
        <time>2018-05-22T06:58:51Z</time>
      </trkpt>
      <trkpt lat="42.650466039776802" lon="-6.886596959084272">
        <ele>575</ele>
        <time>2018-05-22T06:58:52Z</time>
      </trkpt>
      <trkpt lat="42.650466039776802" lon="-6.886559994891286">
        <ele>575</ele>
        <time>2018-05-22T06:58:53Z</time>
      </trkpt>
      <trkpt lat="42.65046302229166" lon="-6.886514984071255">
        <ele>575</ele>
        <time>2018-05-22T06:58:54Z</time>
      </trkpt>
      <trkpt lat="42.650458998978138" lon="-6.886478019878268">
        <ele>575</ele>
        <time>2018-05-22T06:58:54Z</time>
      </trkpt>
      <trkpt lat="42.650451958179474" lon="-6.886437032371759">
        <ele>575</ele>
        <time>2018-05-22T06:58:55Z</time>
      </trkpt>
      <trkpt lat="42.650445001199841" lon="-6.88639503903687">
        <ele>575</ele>
        <time>2018-05-22T06:58:56Z</time>
      </trkpt>
      <trkpt lat="42.650437960401177" lon="-6.88635396771133">
        <ele>575</ele>
        <time>2018-05-22T06:58:57Z</time>
      </trkpt>
      <trkpt lat="42.650431003421545" lon="-6.886288002133369">
        <ele>575</ele>
        <time>2018-05-22T06:58:59Z</time>
      </trkpt>
      <trkpt lat="42.650421028956771" lon="-6.886255983263254">
        <ele>575</ele>
        <time>2018-05-22T06:58:59Z</time>
      </trkpt>
      <trkpt lat="42.650410970672965" lon="-6.886213989928365">
        <ele>578</ele>
        <time>2018-05-22T06:59:00Z</time>
      </trkpt>
      <trkpt lat="42.650408037006855" lon="-6.88618197105825">
        <ele>578</ele>
        <time>2018-05-22T06:59:01Z</time>
      </trkpt>
      <trkpt lat="42.650397978723049" lon="-6.886149030178785">
        <ele>578</ele>
        <time>2018-05-22T06:59:02Z</time>
      </trkpt>
      <trkpt lat="42.650391021743417" lon="-6.886107958853245">
        <ele>578</ele>
        <time>2018-05-22T06:59:03Z</time>
      </trkpt>
      <trkpt lat="42.65037702396512" lon="-6.8860740121454">
        <ele>578</ele>
        <time>2018-05-22T06:59:04Z</time>
      </trkpt>
      <trkpt lat="42.650364032015204" lon="-6.886020032688975">
        <ele>578</ele>
        <time>2018-05-22T06:59:05Z</time>
      </trkpt>
      <trkpt lat="42.650349028408527" lon="-6.885990025475621">
        <ele>578</ele>
        <time>2018-05-22T06:59:06Z</time>
      </trkpt>
      <trkpt lat="42.650335030630231" lon="-6.885952977463603">
        <ele>578</ele>
        <time>2018-05-22T06:59:06Z</time>
      </trkpt>
      <trkpt lat="42.650321032851934" lon="-6.885911989957094">
        <ele>578</ele>
        <time>2018-05-22T06:59:07Z</time>
      </trkpt>
      <trkpt lat="42.650305023416877" lon="-6.885882988572121">
        <ele>578</ele>
        <time>2018-05-22T06:59:08Z</time>
      </trkpt>
      <trkpt lat="42.650287002325058" lon="-6.885861027985811">
        <ele>578</ele>
        <time>2018-05-22T06:59:09Z</time>
      </trkpt>
      <trkpt lat="42.65026998706162" lon="-6.885833032429218">
        <ele>578</ele>
        <time>2018-05-22T06:59:10Z</time>
      </trkpt>
      <trkpt lat="42.650256995111704" lon="-6.885804031044245">
        <ele>578</ele>
        <time>2018-05-22T06:59:10Z</time>
      </trkpt>
      <trkpt lat="42.650236962363124" lon="-6.885771006345749">
        <ele>578</ele>
        <time>2018-05-22T06:59:11Z</time>
      </trkpt>
      <trkpt lat="42.650217013433576" lon="-6.885742004960775">
        <ele>578</ele>
        <time>2018-05-22T06:59:12Z</time>
      </trkpt>
      <trkpt lat="42.650186000391841" lon="-6.885704034939408">
        <ele>578</ele>
        <time>2018-05-22T06:59:14Z</time>
      </trkpt>
      <trkpt lat="42.650168985128403" lon="-6.885671010240912">
        <ele>578</ele>
        <time>2018-05-22T06:59:14Z</time>
      </trkpt>
      <trkpt lat="42.650149036198854" lon="-6.885630022734404">
        <ele>578</ele>
        <time>2018-05-22T06:59:15Z</time>
      </trkpt>
      <trkpt lat="42.650138977915049" lon="-6.885592974722385">
        <ele>578</ele>
        <time>2018-05-22T06:59:16Z</time>
      </trkpt>
      <trkpt lat="42.650116011500359" lon="-6.885547963902354">
        <ele>578</ele>
        <time>2018-05-22T06:59:18Z</time>
      </trkpt>
      <trkpt lat="42.650079969316721" lon="-6.885474035516381">
        <ele>578</ele>
        <time>2018-05-22T06:59:19Z</time>
      </trkpt>
      <trkpt lat="42.650063959881663" lon="-6.885441010817885">
        <ele>578</ele>
        <time>2018-05-22T06:59:20Z</time>
      </trkpt>
      <trkpt lat="42.650047028437257" lon="-6.88540798611939">
        <ele>578</ele>
        <time>2018-05-22T06:59:21Z</time>
      </trkpt>
      <trkpt lat="42.650036970153451" lon="-6.885366998612881">
        <ele>578</ele>
        <time>2018-05-22T06:59:22Z</time>
      </trkpt>
      <trkpt lat="42.650023978203535" lon="-6.885334979742765">
        <ele>578</ele>
        <time>2018-05-22T06:59:23Z</time>
      </trkpt>
      <trkpt lat="42.650009980425239" lon="-6.885293992236257">
        <ele>578</ele>
        <time>2018-05-22T06:59:24Z</time>
      </trkpt>
      <trkpt lat="42.649996988475323" lon="-6.885253004729748">
        <ele>586</ele>
        <time>2018-05-22T06:59:25Z</time>
      </trkpt>
      <trkpt lat="42.64996999874711" lon="-6.885202964767814">
        <ele>586</ele>
        <time>2018-05-22T06:59:26Z</time>
      </trkpt>
      <trkpt lat="42.64994703233242" lon="-6.885164994746447">
        <ele>586</ele>
        <time>2018-05-22T06:59:27Z</time>
      </trkpt>
      <trkpt lat="42.649930017068982" lon="-6.885124007239938">
        <ele>586</ele>
        <time>2018-05-22T06:59:28Z</time>
      </trkpt>
      <trkpt lat="42.649917025119066" lon="-6.885078996419907">
        <ele>586</ele>
        <time>2018-05-22T06:59:29Z</time>
      </trkpt>
      <trkpt lat="42.64990403316915" lon="-6.88504203222692">
        <ele>586</ele>
        <time>2018-05-22T06:59:30Z</time>
      </trkpt>
      <trkpt lat="42.649887017905712" lon="-6.884992998093367">
        <ele>586</ele>
        <time>2018-05-22T06:59:31Z</time>
      </trkpt>
      <trkpt lat="42.649866985157132" lon="-6.884939018636942">
        <ele>586</ele>
        <time>2018-05-22T06:59:33Z</time>
      </trkpt>
      <trkpt lat="42.649856004863977" lon="-6.884909011423588">
        <ele>586</ele>
        <time>2018-05-22T06:59:33Z</time>
      </trkpt>
      <trkpt lat="42.649846030399203" lon="-6.88487196341157">
        <ele>586</ele>
        <time>2018-05-22T06:59:34Z</time>
      </trkpt>
      <trkpt lat="42.649835972115397" lon="-6.884823013097048">
        <ele>586</ele>
        <time>2018-05-22T06:59:35Z</time>
      </trkpt>
      <trkpt lat="42.649822980165482" lon="-6.884778002277017">
        <ele>586</ele>
        <time>2018-05-22T06:59:36Z</time>
      </trkpt>
      <trkpt lat="42.649813005700707" lon="-6.884725028648973">
        <ele>586</ele>
        <time>2018-05-22T06:59:38Z</time>
      </trkpt>
      <trkpt lat="42.649808982387185" lon="-6.884687980636954">
        <ele>586</ele>
        <time>2018-05-22T06:59:38Z</time>
      </trkpt>
      <trkpt lat="42.649799007922411" lon="-6.884651016443968">
        <ele>586</ele>
        <time>2018-05-22T06:59:39Z</time>
      </trkpt>
      <trkpt lat="42.649789033457637" lon="-6.88461396843195">
        <ele>586</ele>
        <time>2018-05-22T06:59:40Z</time>
      </trkpt>
      <trkpt lat="42.649782998487353" lon="-6.884577004238963">
        <ele>586</ele>
        <time>2018-05-22T06:59:41Z</time>
      </trkpt>
      <trkpt lat="42.649778975173831" lon="-6.884540040045977">
        <ele>586</ele>
        <time>2018-05-22T06:59:42Z</time>
      </trkpt>
      <trkpt lat="42.649776041507721" lon="-6.884491005912423">
        <ele>586</ele>
        <time>2018-05-22T06:59:43Z</time>
      </trkpt>
      <trkpt lat="42.649773024022579" lon="-6.884450018405914">
        <ele>589</ele>
        <time>2018-05-22T06:59:44Z</time>
      </trkpt>
      <trkpt lat="42.649769000709057" lon="-6.884392015635967">
        <ele>589</ele>
        <time>2018-05-22T06:59:45Z</time>
      </trkpt>
      <trkpt lat="42.649762965738773" lon="-6.884335018694401">
        <ele>589</ele>
        <time>2018-05-22T06:59:46Z</time>
      </trkpt>
      <trkpt lat="42.649756008759141" lon="-6.884294031187892">
        <ele>589</ele>
        <time>2018-05-22T06:59:47Z</time>
      </trkpt>
      <trkpt lat="42.649752991273999" lon="-6.884256983175874">
        <ele>589</ele>
        <time>2018-05-22T06:59:48Z</time>
      </trkpt>
      <trkpt lat="42.649752991273999" lon="-6.884195040911436">
        <ele>589</ele>
        <time>2018-05-22T06:59:49Z</time>
      </trkpt>
      <trkpt lat="42.649752991273999" lon="-6.884152963757515">
        <ele>589</ele>
        <time>2018-05-22T06:59:50Z</time>
      </trkpt>
      <trkpt lat="42.649752991273999" lon="-6.884111976251006">
        <ele>589</ele>
        <time>2018-05-22T06:59:51Z</time>
      </trkpt>
      <trkpt lat="42.649752991273999" lon="-6.884066965430975">
        <ele>589</ele>
        <time>2018-05-22T06:59:52Z</time>
      </trkpt>
      <trkpt lat="42.649752991273999" lon="-6.884030001237989">
        <ele>589</ele>
        <time>2018-05-22T06:59:53Z</time>
      </trkpt>
      <trkpt lat="42.649752991273999" lon="-6.883987002074719">
        <ele>589</ele>
        <time>2018-05-22T06:59:54Z</time>
      </trkpt>
      <trkpt lat="42.649715021252632" lon="-6.883792961016297">
        <ele>589</ele>
        <time>2018-05-22T06:59:58Z</time>
      </trkpt>
      <trkpt lat="42.649715021252632" lon="-6.883755996823311">
        <ele>589</ele>
        <time>2018-05-22T06:59:59Z</time>
      </trkpt>
      <trkpt lat="42.649704962968826" lon="-6.88371098600328">
        <ele>589</ele>
        <time>2018-05-22T07:00:00Z</time>
      </trkpt>
      <trkpt lat="42.649704962968826" lon="-6.883669998496771">
        <ele>589</ele>
        <time>2018-05-22T07:00:01Z</time>
      </trkpt>
      <trkpt lat="42.649698005989194" lon="-6.883608978241682">
        <ele>590</ele>
        <time>2018-05-22T07:00:02Z</time>
      </trkpt>
      <trkpt lat="42.649694988504052" lon="-6.883567990735173">
        <ele>590</ele>
        <time>2018-05-22T07:00:03Z</time>
      </trkpt>
      <trkpt lat="42.64969197101891" lon="-6.883531026542187">
        <ele>590</ele>
        <time>2018-05-22T07:00:04Z</time>
      </trkpt>
      <trkpt lat="42.649677973240614" lon="-6.883480986580253">
        <ele>590</ele>
        <time>2018-05-22T07:00:05Z</time>
      </trkpt>
      <trkpt lat="42.64966799877584" lon="-6.883445028215647">
        <ele>590</ele>
        <time>2018-05-22T07:00:06Z</time>
      </trkpt>
      <trkpt lat="42.649664981290698" lon="-6.883393982425332">
        <ele>590</ele>
        <time>2018-05-22T07:00:07Z</time>
      </trkpt>
      <trkpt lat="42.649655006825924" lon="-6.883357018232346">
        <ele>590</ele>
        <time>2018-05-22T07:00:08Z</time>
      </trkpt>
      <trkpt lat="42.649637991562486" lon="-6.883307984098792">
        <ele>590</ele>
        <time>2018-05-22T07:00:09Z</time>
      </trkpt>
      <trkpt lat="42.649621982127428" lon="-6.883274959400296">
        <ele>590</ele>
        <time>2018-05-22T07:00:10Z</time>
      </trkpt>
      <trkpt lat="42.649607984349132" lon="-6.88323799520731">
        <ele>590</ele>
        <time>2018-05-22T07:00:11Z</time>
      </trkpt>
      <trkpt lat="42.649588035419583" lon="-6.883197007700801">
        <ele>590</ele>
        <time>2018-05-22T07:00:12Z</time>
      </trkpt>
      <trkpt lat="42.649572025984526" lon="-6.883159959688783">
        <ele>564</ele>
        <time>2018-05-22T07:00:13Z</time>
      </trkpt>
      <trkpt lat="42.64956196770072" lon="-6.883122995495796">
        <ele>564</ele>
        <time>2018-05-22T07:00:14Z</time>
      </trkpt>
      <trkpt lat="42.649551993235946" lon="-6.883077984675765">
        <ele>564</ele>
        <time>2018-05-22T07:00:15Z</time>
      </trkpt>
      <trkpt lat="42.649546964094043" lon="-6.883035991340876">
        <ele>564</ele>
        <time>2018-05-22T07:00:16Z</time>
      </trkpt>
      <trkpt lat="42.649529026821256" lon="-6.882863994687796">
        <ele>564</ele>
        <time>2018-05-22T07:00:20Z</time>
      </trkpt>
      <trkpt lat="42.649488961324096" lon="-6.882726028561592">
        <ele>564</ele>
        <time>2018-05-22T07:00:23Z</time>
      </trkpt>
      <trkpt lat="42.649486027657986" lon="-6.88270197249949">
        <ele>564</ele>
        <time>2018-05-22T07:00:23Z</time>
      </trkpt>
      <trkpt lat="42.64947303570807" lon="-6.882656961679459">
        <ele>564</ele>
        <time>2018-05-22T07:00:24Z</time>
      </trkpt>
      <trkpt lat="42.649456020444632" lon="-6.882624020799995">
        <ele>564</ele>
        <time>2018-05-22T07:00:25Z</time>
      </trkpt>
      <trkpt lat="42.64945300295949" lon="-6.882583033293486">
        <ele>564</ele>
        <time>2018-05-22T07:00:26Z</time>
      </trkpt>
      <trkpt lat="42.649443028494716" lon="-6.882541961967945">
        <ele>564</ele>
        <time>2018-05-22T07:00:27Z</time>
      </trkpt>
      <trkpt lat="42.649435987696052" lon="-6.882504997774959">
        <ele>564</ele>
        <time>2018-05-22T07:00:28Z</time>
      </trkpt>
      <trkpt lat="42.64943297021091" lon="-6.882468033581972">
        <ele>564</ele>
        <time>2018-05-22T07:00:29Z</time>
      </trkpt>
      <trkpt lat="42.6494300365448" lon="-6.882418999448419">
        <ele>564</ele>
        <time>2018-05-22T07:00:30Z</time>
      </trkpt>
      <trkpt lat="42.649426013231277" lon="-6.882360996678472">
        <ele>564</ele>
        <time>2018-05-22T07:00:31Z</time>
      </trkpt>
      <trkpt lat="42.649426013231277" lon="-6.882324032485485">
        <ele>564</ele>
        <time>2018-05-22T07:00:32Z</time>
      </trkpt>
      <trkpt lat="42.649422995746136" lon="-6.882263012230396">
        <ele>564</ele>
        <time>2018-05-22T07:00:33Z</time>
      </trkpt>
      <trkpt lat="42.649418972432613" lon="-6.882225964218378">
        <ele>564</ele>
        <time>2018-05-22T07:00:34Z</time>
      </trkpt>
      <trkpt lat="42.649413021281362" lon="-6.882190005853772">
        <ele>564</ele>
        <time>2018-05-22T07:00:35Z</time>
      </trkpt>
      <trkpt lat="42.649413021281362" lon="-6.882149018347263">
        <ele>564</ele>
        <time>2018-05-22T07:00:36Z</time>
      </trkpt>
      <trkpt lat="42.64941000379622" lon="-6.88209998421371">
        <ele>564</ele>
        <time>2018-05-22T07:00:37Z</time>
      </trkpt>
      <trkpt lat="42.64941000379622" lon="-6.882058996707201">
        <ele>564</ele>
        <time>2018-05-22T07:00:38Z</time>
      </trkpt>
      <trkpt lat="42.64941000379622" lon="-6.88201398588717">
        <ele>564</ele>
        <time>2018-05-22T07:00:39Z</time>
      </trkpt>
      <trkpt lat="42.64941000379622" lon="-6.881961012259126">
        <ele>564</ele>
        <time>2018-05-22T07:00:40Z</time>
      </trkpt>
      <trkpt lat="42.64941000379622" lon="-6.881920024752617">
        <ele>564</ele>
        <time>2018-05-22T07:00:41Z</time>
      </trkpt>
      <trkpt lat="42.64941000379622" lon="-6.88186202198267">
        <ele>564</ele>
        <time>2018-05-22T07:00:42Z</time>
      </trkpt>
      <trkpt lat="42.64941000379622" lon="-6.881816005334258">
        <ele>564</ele>
        <time>2018-05-22T07:00:43Z</time>
      </trkpt>
      <trkpt lat="42.64941000379622" lon="-6.881779041141272">
        <ele>564</ele>
        <time>2018-05-22T07:00:44Z</time>
      </trkpt>
      <trkpt lat="42.64941000379622" lon="-6.881724977865815">
        <ele>564</ele>
        <time>2018-05-22T07:00:45Z</time>
      </trkpt>
      <trkpt lat="42.64941000379622" lon="-6.881683990359306">
        <ele>564</ele>
        <time>2018-05-22T07:00:46Z</time>
      </trkpt>
      <trkpt lat="42.64941000379622" lon="-6.881635040044785">
        <ele>564</ele>
        <time>2018-05-22T07:00:47Z</time>
      </trkpt>
      <trkpt lat="42.64941000379622" lon="-6.881590029224753">
        <ele>564</ele>
        <time>2018-05-22T07:00:48Z</time>
      </trkpt>
      <trkpt lat="42.649405980482697" lon="-6.881545018404722">
        <ele>564</ele>
        <time>2018-05-22T07:00:49Z</time>
      </trkpt>
      <trkpt lat="42.649405980482697" lon="-6.881507970392704">
        <ele>564</ele>
        <time>2018-05-22T07:00:50Z</time>
      </trkpt>
      <trkpt lat="42.649405980482697" lon="-6.881462959572673">
        <ele>564</ele>
        <time>2018-05-22T07:00:51Z</time>
      </trkpt>
      <trkpt lat="42.649402962997556" lon="-6.88141199760139">
        <ele>564</ele>
        <time>2018-05-22T07:00:52Z</time>
      </trkpt>
      <trkpt lat="42.649392988532782" lon="-6.881366986781359">
        <ele>564</ele>
        <time>2018-05-22T07:00:53Z</time>
      </trkpt>
      <trkpt lat="42.649375973269343" lon="-6.881281994283199">
        <ele>564</ele>
        <time>2018-05-22T07:00:55Z</time>
      </trkpt>
      <trkpt lat="42.649370022118092" lon="-6.881241006776691">
        <ele>564</ele>
        <time>2018-05-22T07:00:56Z</time>
      </trkpt>
      <trkpt lat="42.649362981319427" lon="-6.881203958764672">
        <ele>564</ele>
        <time>2018-05-22T07:00:56Z</time>
      </trkpt>
      <trkpt lat="42.649356024339795" lon="-6.881166994571686">
        <ele>566</ele>
        <time>2018-05-22T07:00:57Z</time>
      </trkpt>
      <trkpt lat="42.649345966055989" lon="-6.881130030378699">
        <ele>566</ele>
        <time>2018-05-22T07:00:58Z</time>
      </trkpt>
      <trkpt lat="42.649332974106073" lon="-6.881102034822106">
        <ele>566</ele>
        <time>2018-05-22T07:00:59Z</time>
      </trkpt>
      <trkpt lat="42.649326017126441" lon="-6.881069010123611">
        <ele>566</ele>
        <time>2018-05-22T07:01:00Z</time>
      </trkpt>
      <trkpt lat="42.649315958842635" lon="-6.881028022617102">
        <ele>566</ele>
        <time>2018-05-22T07:01:01Z</time>
      </trkpt>
      <trkpt lat="42.649313025176525" lon="-6.880983011797071">
        <ele>566</ele>
        <time>2018-05-22T07:01:02Z</time>
      </trkpt>
      <trkpt lat="42.649300033226609" lon="-6.880949987098575">
        <ele>566</ele>
        <time>2018-05-22T07:01:02Z</time>
      </trkpt>
      <trkpt lat="42.649286035448313" lon="-6.880908999592066">
        <ele>566</ele>
        <time>2018-05-22T07:01:03Z</time>
      </trkpt>
      <trkpt lat="42.649272959679365" lon="-6.880879998207092">
        <ele>566</ele>
        <time>2018-05-22T07:01:04Z</time>
      </trkpt>
      <trkpt lat="42.649262985214591" lon="-6.880839010700584">
        <ele>566</ele>
        <time>2018-05-22T07:01:05Z</time>
      </trkpt>
      <trkpt lat="42.649249993264675" lon="-6.880793999880552">
        <ele>566</ele>
        <time>2018-05-22T07:01:06Z</time>
      </trkpt>
      <trkpt lat="42.649245969951153" lon="-6.880754018202424">
        <ele>566</ele>
        <time>2018-05-22T07:01:07Z</time>
      </trkpt>
      <trkpt lat="42.649245969951153" lon="-6.880716970190406">
        <ele>566</ele>
        <time>2018-05-22T07:01:08Z</time>
      </trkpt>
      <trkpt lat="42.649245969951153" lon="-6.880675982683897">
        <ele>566</ele>
        <time>2018-05-22T07:01:09Z</time>
      </trkpt>
      <trkpt lat="42.649245969951153" lon="-6.880630971863866">
        <ele>566</ele>
        <time>2018-05-22T07:01:10Z</time>
      </trkpt>
      <trkpt lat="42.649245969951153" lon="-6.880589984357357">
        <ele>566</ele>
        <time>2018-05-22T07:01:11Z</time>
      </trkpt>
      <trkpt lat="42.649245969951153" lon="-6.880548996850848">
        <ele>566</ele>
        <time>2018-05-22T07:01:11Z</time>
      </trkpt>
      <trkpt lat="42.649253010749817" lon="-6.880518989637494">
        <ele>557</ele>
        <time>2018-05-22T07:01:12Z</time>
      </trkpt>
      <trkpt lat="42.649220991879702" lon="-6.880457969382405">
        <ele>566</ele>
        <time>2018-05-22T07:01:14Z</time>
      </trkpt>
      <trkpt lat="42.649206994101405" lon="-6.880369959399104">
        <ele>566</ele>
        <time>2018-05-22T07:01:16Z</time>
      </trkpt>
      <trkpt lat="42.649139016866684" lon="-6.880198968574405">
        <ele>569</ele>
        <time>2018-05-22T07:01:20Z</time>
      </trkpt>
      <trkpt lat="42.649072967469692" lon="-6.880065025761724">
        <ele>569</ele>
        <time>2018-05-22T07:01:23Z</time>
      </trkpt>
      <trkpt lat="42.649028040468693" lon="-6.879981039091945">
        <ele>569</ele>
        <time>2018-05-22T07:01:26Z</time>
      </trkpt>
      <trkpt lat="42.648915974423289" lon="-6.879818011075258">
        <ele>569</ele>
        <time>2018-05-22T07:01:31Z</time>
      </trkpt>
      <trkpt lat="42.648771973326802" lon="-6.879519028589129">
        <ele>578</ele>
        <time>2018-05-22T07:01:38Z</time>
      </trkpt>
      <trkpt lat="42.648685975000262" lon="-6.879406040534377">
        <ele>557</ele>
        <time>2018-05-22T07:01:42Z</time>
      </trkpt>
      <trkpt lat="42.648671977221966" lon="-6.879133963957429">
        <ele>557</ele>
        <time>2018-05-22T07:01:48Z</time>
      </trkpt>
      <trkpt lat="42.648588996380568" lon="-6.878969008103013">
        <ele>557</ele>
        <time>2018-05-22T07:01:52Z</time>
      </trkpt>
      <trkpt lat="42.648518001660705" lon="-6.87874898314476">
        <ele>557</ele>
        <time>2018-05-22T07:01:57Z</time>
      </trkpt>
      <trkpt lat="42.648459998890758" lon="-6.878633983433247">
        <ele>561</ele>
        <time>2018-05-22T07:02:00Z</time>
      </trkpt>
      <trkpt lat="42.648361008614302" lon="-6.87844798900187">
        <ele>561</ele>
        <time>2018-05-22T07:02:05Z</time>
      </trkpt>
      <trkpt lat="42.648233016952872" lon="-6.878226036205888">
        <ele>561</ele>
        <time>2018-05-22T07:02:12Z</time>
      </trkpt>
      <trkpt lat="42.648139977827668" lon="-6.878048004582524">
        <ele>561</ele>
        <time>2018-05-22T07:02:16Z</time>
      </trkpt>
      <trkpt lat="42.648074012249708" lon="-6.877916995435953">
        <ele>561</ele>
        <time>2018-05-22T07:02:20Z</time>
      </trkpt>
      <trkpt lat="42.648068983107805" lon="-6.877882964909077">
        <ele>569</ele>
        <time>2018-05-22T07:02:21Z</time>
      </trkpt>
      <trkpt lat="42.648054985329509" lon="-6.87782496213913">
        <ele>569</ele>
        <time>2018-05-22T07:02:22Z</time>
      </trkpt>
      <trkpt lat="42.648031013086438" lon="-6.877749022096396">
        <ele>569</ele>
        <time>2018-05-22T07:02:24Z</time>
      </trkpt>
      <trkpt lat="42.648017015308142" lon="-6.87767400406301">
        <ele>569</ele>
        <time>2018-05-22T07:02:25Z</time>
      </trkpt>
      <trkpt lat="42.648003017529845" lon="-6.877605020999908">
        <ele>569</ele>
        <time>2018-05-22T07:02:27Z</time>
      </trkpt>
      <trkpt lat="42.647992959246039" lon="-6.877546012401581">
        <ele>569</ele>
        <time>2018-05-22T07:02:28Z</time>
      </trkpt>
      <trkpt lat="42.647992959246039" lon="-6.877493960782886">
        <ele>569</ele>
        <time>2018-05-22T07:02:29Z</time>
      </trkpt>
      <trkpt lat="42.647992959246039" lon="-6.877434030175209">
        <ele>569</ele>
        <time>2018-05-22T07:02:31Z</time>
      </trkpt>
      <trkpt lat="42.647992959246039" lon="-6.877377033233643">
        <ele>569</ele>
        <time>2018-05-22T07:02:32Z</time>
      </trkpt>
      <trkpt lat="42.648003017529845" lon="-6.877320036292076">
        <ele>569</ele>
        <time>2018-05-22T07:02:33Z</time>
      </trkpt>
      <trkpt lat="42.648003017529845" lon="-6.877253986895084">
        <ele>569</ele>
        <time>2018-05-22T07:02:35Z</time>
      </trkpt>
      <trkpt lat="42.648007040843368" lon="-6.877203024923801">
        <ele>569</ele>
        <time>2018-05-22T07:02:36Z</time>
      </trkpt>
      <trkpt lat="42.648017015308142" lon="-6.877154996618629">
        <ele>569</ele>
        <time>2018-05-22T07:02:37Z</time>
      </trkpt>
      <trkpt lat="42.648025983944535" lon="-6.877091964706779">
        <ele>569</ele>
        <time>2018-05-22T07:02:38Z</time>
      </trkpt>
      <trkpt lat="42.648035036399961" lon="-6.877032034099102">
        <ele>571</ele>
        <time>2018-05-22T07:02:40Z</time>
      </trkpt>
      <trkpt lat="42.648039981722832" lon="-6.876969002187252">
        <ele>571</ele>
        <time>2018-05-22T07:02:41Z</time>
      </trkpt>
      <trkpt lat="42.648039981722832" lon="-6.876917034387589">
        <ele>571</ele>
        <time>2018-05-22T07:02:42Z</time>
      </trkpt>
      <trkpt lat="42.648044005036354" lon="-6.876858025789261">
        <ele>571</ele>
        <time>2018-05-22T07:02:43Z</time>
      </trkpt>
      <trkpt lat="42.648044005036354" lon="-6.876800023019314">
        <ele>571</ele>
        <time>2018-05-22T07:02:45Z</time>
      </trkpt>
      <trkpt lat="42.648044005036354" lon="-6.876736991107464">
        <ele>571</ele>
        <time>2018-05-22T07:02:46Z</time>
      </trkpt>
      <trkpt lat="42.648049034178257" lon="-6.8766850233078">
        <ele>571</ele>
        <time>2018-05-22T07:02:47Z</time>
      </trkpt>
      <trkpt lat="42.648053979501128" lon="-6.876628026366234">
        <ele>571</ele>
        <time>2018-05-22T07:02:48Z</time>
      </trkpt>
      <trkpt lat="42.648053979501128" lon="-6.876575974747539">
        <ele>571</ele>
        <time>2018-05-22T07:02:49Z</time>
      </trkpt>
      <trkpt lat="42.648067977279425" lon="-6.876501962542534">
        <ele>571</ele>
        <time>2018-05-22T07:02:51Z</time>
      </trkpt>
      <trkpt lat="42.648072000592947" lon="-6.876447983086109">
        <ele>571</ele>
        <time>2018-05-22T07:02:52Z</time>
      </trkpt>
      <trkpt lat="42.648081975057721" lon="-6.876408001407981">
        <ele>571</ele>
        <time>2018-05-22T07:02:53Z</time>
      </trkpt>
      <trkpt lat="42.648085998371243" lon="-6.876343041658402">
        <ele>571</ele>
        <time>2018-05-22T07:02:55Z</time>
      </trkpt>
      <trkpt lat="42.648085998371243" lon="-6.876288978382945">
        <ele>571</ele>
        <time>2018-05-22T07:02:56Z</time>
      </trkpt>
      <trkpt lat="42.64807702973485" lon="-6.876248996704817">
        <ele>574</ele>
        <time>2018-05-22T07:02:57Z</time>
      </trkpt>
      <trkpt lat="42.648058002814651" lon="-6.876200968399644">
        <ele>574</ele>
        <time>2018-05-22T07:02:58Z</time>
      </trkpt>
      <trkpt lat="42.648049034178257" lon="-6.876142965629697">
        <ele>574</ele>
        <time>2018-05-22T07:02:59Z</time>
      </trkpt>
      <trkpt lat="42.648031013086438" lon="-6.87608596868813">
        <ele>574</ele>
        <time>2018-05-22T07:03:01Z</time>
      </trkpt>
      <trkpt lat="42.648003017529845" lon="-6.876006005331874">
        <ele>574</ele>
        <time>2018-05-22T07:03:02Z</time>
      </trkpt>
      <trkpt lat="42.647981978952885" lon="-6.875960994511843">
        <ele>574</ele>
        <time>2018-05-22T07:03:04Z</time>
      </trkpt>
      <trkpt lat="42.647964041680098" lon="-6.875921012833715">
        <ele>574</ele>
        <time>2018-05-22T07:03:05Z</time>
      </trkpt>
      <trkpt lat="42.647939985617995" lon="-6.875881031155586">
        <ele>554</ele>
        <time>2018-05-22T07:03:06Z</time>
      </trkpt>
      <trkpt lat="42.647917019203305" lon="-6.875828979536891">
        <ele>554</ele>
        <time>2018-05-22T07:03:07Z</time>
      </trkpt>
      <trkpt lat="42.647879971191287" lon="-6.875759996473789">
        <ele>554</ele>
        <time>2018-05-22T07:03:09Z</time>
      </trkpt>
      <trkpt lat="42.647855998948216" lon="-6.875713979825378">
        <ele>554</ele>
        <time>2018-05-22T07:03:10Z</time>
      </trkpt>
      <trkpt lat="42.647828003391623" lon="-6.875663017854095">
        <ele>554</ele>
        <time>2018-05-22T07:03:12Z</time>
      </trkpt>
      <trkpt lat="42.647800007835031" lon="-6.875625969842076">
        <ele>554</ele>
        <time>2018-05-22T07:03:13Z</time>
      </trkpt>
      <trkpt lat="42.647765977308154" lon="-6.875566961243749">
        <ele>554</ele>
        <time>2018-05-22T07:03:14Z</time>
      </trkpt>
      <trkpt lat="42.647737981751561" lon="-6.875514993444085">
        <ele>554</ele>
        <time>2018-05-22T07:03:16Z</time>
      </trkpt>
      <trkpt lat="42.647709986194968" lon="-6.875480962917209">
        <ele>554</ele>
        <time>2018-05-22T07:03:17Z</time>
      </trkpt>
      <trkpt lat="42.647681990638375" lon="-6.875428995117545">
        <ele>554</ele>
        <time>2018-05-22T07:03:18Z</time>
      </trkpt>
      <trkpt lat="42.64764997176826" lon="-6.875399993732572">
        <ele>554</ele>
        <time>2018-05-22T07:03:19Z</time>
      </trkpt>
      <trkpt lat="42.647621976211667" lon="-6.875360012054443">
        <ele>554</ele>
        <time>2018-05-22T07:03:21Z</time>
      </trkpt>
      <trkpt lat="42.647593980655074" lon="-6.87533101066947">
        <ele>554</ele>
        <time>2018-05-22T07:03:22Z</time>
      </trkpt>
      <trkpt lat="42.64756397344172" lon="-6.875294968485832">
        <ele>554</ele>
        <time>2018-05-22T07:03:23Z</time>
      </trkpt>
      <trkpt lat="42.647527009248734" lon="-6.875260015949607">
        <ele>562</ele>
        <time>2018-05-22T07:03:24Z</time>
      </trkpt>
      <trkpt lat="42.647493984550238" lon="-6.875236965715885">
        <ele>562</ele>
        <time>2018-05-22T07:03:25Z</time>
      </trkpt>
      <trkpt lat="42.647393988445401" lon="-6.87509598210454">
        <ele>562</ele>
        <time>2018-05-22T07:03:30Z</time>
      </trkpt>
      <trkpt lat="42.647264990955591" lon="-6.874931026250124">
        <ele>562</ele>
        <time>2018-05-22T07:03:35Z</time>
      </trkpt>
      <trkpt lat="42.647134987637401" lon="-6.874734973534942">
        <ele>562</ele>
        <time>2018-05-22T07:03:41Z</time>
      </trkpt>
      <trkpt lat="42.64706801623106" lon="-6.874570017680526">
        <ele>551</ele>
        <time>2018-05-22T07:03:45Z</time>
      </trkpt>
      <trkpt lat="42.647017976269126" lon="-6.874435991048813">
        <ele>553</ele>
        <time>2018-05-22T07:03:48Z</time>
      </trkpt>
      <trkpt lat="42.647008001804352" lon="-6.874425010755658">
        <ele>553</ele>
        <time>2018-05-22T07:03:48Z</time>
      </trkpt>
      <trkpt lat="42.646989980712533" lon="-6.874372959136963">
        <ele>553</ele>
        <time>2018-05-22T07:03:50Z</time>
      </trkpt>
      <trkpt lat="42.646971037611365" lon="-6.874327026307583">
        <ele>553</ele>
        <time>2018-05-22T07:03:51Z</time>
      </trkpt>
      <trkpt lat="42.646952010691166" lon="-6.874274974688888">
        <ele>553</ele>
        <time>2018-05-22T07:03:52Z</time>
      </trkpt>
      <trkpt lat="42.646933989599347" lon="-6.874229041859508">
        <ele>553</ele>
        <time>2018-05-22T07:03:53Z</time>
      </trkpt>
      <trkpt lat="42.646911023184657" lon="-6.874188976362348">
        <ele>553</ele>
        <time>2018-05-22T07:03:54Z</time>
      </trkpt>
      <trkpt lat="42.646897025406361" lon="-6.874142959713936">
        <ele>553</ele>
        <time>2018-05-22T07:03:55Z</time>
      </trkpt>
      <trkpt lat="42.646869029849768" lon="-6.874091997742653">
        <ele>553</ele>
        <time>2018-05-22T07:03:57Z</time>
      </trkpt>
      <trkpt lat="42.646850002929568" lon="-6.874051010236144">
        <ele>553</ele>
        <time>2018-05-22T07:03:58Z</time>
      </trkpt>
      <trkpt lat="42.646836005151272" lon="-6.873999964445829">
        <ele>553</ele>
        <time>2018-05-22T07:03:59Z</time>
      </trkpt>
      <trkpt lat="42.646822007372975" lon="-6.873947996646166">
        <ele>553</ele>
        <time>2018-05-22T07:04:00Z</time>
      </trkpt>
      <trkpt lat="42.646813038736582" lon="-6.873901979997754">
        <ele>553</ele>
        <time>2018-05-22T07:04:01Z</time>
      </trkpt>
      <trkpt lat="42.646794011816382" lon="-6.873839031904936">
        <ele>553</ele>
        <time>2018-05-22T07:04:03Z</time>
      </trkpt>
      <trkpt lat="42.646780014038086" lon="-6.873786980286241">
        <ele>553</ele>
        <time>2018-05-22T07:04:04Z</time>
      </trkpt>
      <trkpt lat="42.646760987117887" lon="-6.873729983344674">
        <ele>553</ele>
        <time>2018-05-22T07:04:05Z</time>
      </trkpt>
      <trkpt lat="42.646742966026068" lon="-6.873671980574727">
        <ele>553</ele>
        <time>2018-05-22T07:04:07Z</time>
      </trkpt>
      <trkpt lat="42.6467240229249" lon="-6.873614983633161">
        <ele>558</ele>
        <time>2018-05-22T07:04:08Z</time>
      </trkpt>
      <trkpt lat="42.646714970469475" lon="-6.873552035540342">
        <ele>558</ele>
        <time>2018-05-22T07:04:09Z</time>
      </trkpt>
      <trkpt lat="42.646696027368307" lon="-6.873499983921647">
        <ele>558</ele>
        <time>2018-05-22T07:04:11Z</time>
      </trkpt>
      <trkpt lat="42.646672977134585" lon="-6.873452039435506">
        <ele>558</ele>
        <time>2018-05-22T07:04:12Z</time>
      </trkpt>
      <trkpt lat="42.646649004891515" lon="-6.873399987816811">
        <ele>558</ele>
        <time>2018-05-22T07:04:13Z</time>
      </trkpt>
      <trkpt lat="42.646616986021399" lon="-6.873332010582089">
        <ele>558</ele>
        <time>2018-05-22T07:04:15Z</time>
      </trkpt>
      <trkpt lat="42.646588990464807" lon="-6.873291023075581">
        <ele>558</ele>
        <time>2018-05-22T07:04:16Z</time>
      </trkpt>
      <trkpt lat="42.646560994908214" lon="-6.873245006427169">
        <ele>558</ele>
        <time>2018-05-22T07:04:17Z</time>
      </trkpt>
      <trkpt lat="42.646537022665143" lon="-6.873198989778757">
        <ele>558</ele>
        <time>2018-05-22T07:04:19Z</time>
      </trkpt>
      <trkpt lat="42.646513972431421" lon="-6.873152973130345">
        <ele>558</ele>
        <time>2018-05-22T07:04:20Z</time>
      </trkpt>
      <trkpt lat="42.646491006016731" lon="-6.873107962310314">
        <ele>558</ele>
        <time>2018-05-22T07:04:21Z</time>
      </trkpt>
      <trkpt lat="42.646468039602041" lon="-6.873066974803805">
        <ele>558</ele>
        <time>2018-05-22T07:04:22Z</time>
      </trkpt>
      <trkpt lat="42.646439960226417" lon="-6.873004026710987">
        <ele>558</ele>
        <time>2018-05-22T07:04:24Z</time>
      </trkpt>
      <trkpt lat="42.646411964669824" lon="-6.872951975092292">
        <ele>558</ele>
        <time>2018-05-22T07:04:25Z</time>
      </trkpt>
      <trkpt lat="42.646379023790359" lon="-6.872901013121009">
        <ele>558</ele>
        <time>2018-05-22T07:04:27Z</time>
      </trkpt>
      <trkpt lat="42.646351028233767" lon="-6.872837981209159">
        <ele>558</ele>
        <time>2018-05-22T07:04:28Z</time>
      </trkpt>
      <trkpt lat="42.646323032677174" lon="-6.872786013409495">
        <ele>580</ele>
        <time>2018-05-22T07:04:30Z</time>
      </trkpt>
      <trkpt lat="42.646299982443452" lon="-6.8727339617908">
        <ele>580</ele>
        <time>2018-05-22T07:04:31Z</time>
      </trkpt>
      <trkpt lat="42.646271986886859" lon="-6.87268802896142">
        <ele>559</ele>
        <time>2018-05-22T07:04:32Z</time>
      </trkpt>
      <trkpt lat="42.646243991330266" lon="-6.872660033404827">
        <ele>559</ele>
        <time>2018-05-22T07:04:33Z</time>
      </trkpt>
      <trkpt lat="42.646219013258815" lon="-6.87262499704957">
        <ele>559</ele>
        <time>2018-05-22T07:04:34Z</time>
      </trkpt>
      <trkpt lat="42.646185988560319" lon="-6.872595995664597">
        <ele>559</ele>
        <time>2018-05-22T07:04:36Z</time>
      </trkpt>
      <trkpt lat="42.646149024367332" lon="-6.872556013986468">
        <ele>559</ele>
        <time>2018-05-22T07:04:37Z</time>
      </trkpt>
      <trkpt lat="42.64610200189054" lon="-6.87251603230834">
        <ele>559</ele>
        <time>2018-05-22T07:04:39Z</time>
      </trkpt>
      <trkpt lat="42.646074006333947" lon="-6.872480995953083">
        <ele>559</ele>
        <time>2018-05-22T07:04:40Z</time>
      </trkpt>
      <trkpt lat="42.646041987463832" lon="-6.87245300039649">
        <ele>559</ele>
        <time>2018-05-22T07:04:41Z</time>
      </trkpt>
      <trkpt lat="42.646008962765336" lon="-6.872417964041233">
        <ele>559</ele>
        <time>2018-05-22T07:04:42Z</time>
      </trkpt>
      <trkpt lat="42.645967975258827" lon="-6.872382005676627">
        <ele>559</ele>
        <time>2018-05-22T07:04:43Z</time>
      </trkpt>
      <trkpt lat="42.645931011065841" lon="-6.87234696932137">
        <ele>559</ele>
        <time>2018-05-22T07:04:45Z</time>
      </trkpt>
      <trkpt lat="42.645897986367345" lon="-6.872313022613525">
        <ele>559</ele>
        <time>2018-05-22T07:04:46Z</time>
      </trkpt>
      <trkpt lat="42.645851969718933" lon="-6.872284021228552">
        <ele>559</ele>
        <time>2018-05-22T07:04:48Z</time>
      </trkpt>
      <trkpt lat="42.645819028839469" lon="-6.87226097099483">
        <ele>559</ele>
        <time>2018-05-22T07:04:49Z</time>
      </trkpt>
      <trkpt lat="42.645781980827451" lon="-6.872232975438237">
        <ele>559</ele>
        <time>2018-05-22T07:04:50Z</time>
      </trkpt>
      <trkpt lat="42.645753985270858" lon="-6.872191987931728">
        <ele>559</ele>
        <time>2018-05-22T07:04:51Z</time>
      </trkpt>
      <trkpt lat="42.645720960572362" lon="-6.872169021517038">
        <ele>559</ele>
        <time>2018-05-22T07:04:52Z</time>
      </trkpt>
      <trkpt lat="42.645683996379375" lon="-6.872141025960445">
        <ele>559</ele>
        <time>2018-05-22T07:04:53Z</time>
      </trkpt>
      <trkpt lat="42.645647032186389" lon="-6.872117975726724">
        <ele>559</ele>
        <time>2018-05-22T07:04:55Z</time>
      </trkpt>
      <trkpt lat="42.6456050388515" lon="-6.872100038453937">
        <ele>559</ele>
        <time>2018-05-22T07:04:56Z</time>
      </trkpt>
      <trkpt lat="42.645562961697578" lon="-6.872095009312034">
        <ele>559</ele>
        <time>2018-05-22T07:04:57Z</time>
      </trkpt>
      <trkpt lat="42.645520968362689" lon="-6.872083023190498">
        <ele>559</ele>
        <time>2018-05-22T07:04:58Z</time>
      </trkpt>
      <trkpt lat="42.6454789750278" lon="-6.872071959078312">
        <ele>559</ele>
        <time>2018-05-22T07:05:00Z</time>
      </trkpt>
      <trkpt lat="42.64543698169291" lon="-6.872059972956777">
        <ele>552</ele>
        <time>2018-05-22T07:05:01Z</time>
      </trkpt>
      <trkpt lat="42.645389959216118" lon="-6.87204304151237">
        <ele>552</ele>
        <time>2018-05-22T07:05:02Z</time>
      </trkpt>
      <trkpt lat="42.645352995023131" lon="-6.872019991278648">
        <ele>552</ele>
        <time>2018-05-22T07:05:04Z</time>
      </trkpt>
      <trkpt lat="42.645316030830145" lon="-6.871997024863958">
        <ele>558</ele>
        <time>2018-05-22T07:05:05Z</time>
      </trkpt>
      <trkpt lat="42.645269008353353" lon="-6.871968023478985">
        <ele>558</ele>
        <time>2018-05-22T07:05:06Z</time>
      </trkpt>
      <trkpt lat="42.645235983654857" lon="-6.871951008215547">
        <ele>558</ele>
        <time>2018-05-22T07:05:07Z</time>
      </trkpt>
      <trkpt lat="42.645192984491587" lon="-6.871942961588502">
        <ele>558</ele>
        <time>2018-05-22T07:05:09Z</time>
      </trkpt>
      <trkpt lat="42.645086031407118" lon="-6.871844977140427">
        <ele>558</ele>
        <time>2018-05-22T07:05:13Z</time>
      </trkpt>
      <trkpt lat="42.645071027800441" lon="-6.871828967705369">
        <ele>558</ele>
        <time>2018-05-22T07:05:13Z</time>
      </trkpt>
      <trkpt lat="42.645035991445184" lon="-6.871793009340763">
        <ele>558</ele>
        <time>2018-05-22T07:05:14Z</time>
      </trkpt>
      <trkpt lat="42.645001960918307" lon="-6.871757972985506">
        <ele>558</ele>
        <time>2018-05-22T07:05:16Z</time>
      </trkpt>
      <trkpt lat="42.644971031695604" lon="-6.871728971600533">
        <ele>558</ele>
        <time>2018-05-22T07:05:17Z</time>
      </trkpt>
      <trkpt lat="42.644892996177077" lon="-6.871595028787851">
        <ele>558</ele>
        <time>2018-05-22T07:05:20Z</time>
      </trkpt>
      <trkpt lat="42.644772967323661" lon="-6.871416997164488">
        <ele>558</ele>
        <time>2018-05-22T07:05:26Z</time>
      </trkpt>
      <trkpt lat="42.644667020067573" lon="-6.871237037703395">
        <ele>558</ele>
        <time>2018-05-22T07:05:31Z</time>
      </trkpt>
      <trkpt lat="42.644465016201138" lon="-6.871002009138465">
        <ele>556</ele>
        <time>2018-05-22T07:05:39Z</time>
      </trkpt>
      <trkpt lat="42.644316991791129" lon="-6.870844010263681">
        <ele>556</ele>
        <time>2018-05-22T07:05:44Z</time>
      </trkpt>
      <trkpt lat="42.644124962389469" lon="-6.8706030305475">
        <ele>556</ele>
        <time>2018-05-22T07:05:52Z</time>
      </trkpt>
      <trkpt lat="42.64401700347662" lon="-6.870478978380561">
        <ele>556</ele>
        <time>2018-05-22T07:05:56Z</time>
      </trkpt>
      <trkpt lat="42.643839977681637" lon="-6.870279991999269">
        <ele>563</ele>
        <time>2018-05-22T07:06:03Z</time>
      </trkpt>
      <trkpt lat="42.643686002120376" lon="-6.870087962597609">
        <ele>550</ele>
        <time>2018-05-22T07:06:09Z</time>
      </trkpt>
      <trkpt lat="42.64352397993207" lon="-6.869897022843361">
        <ele>550</ele>
        <time>2018-05-22T07:06:15Z</time>
      </trkpt>
      <trkpt lat="42.643357012420893" lon="-6.869731983169913">
        <ele>550</ele>
        <time>2018-05-22T07:06:22Z</time>
      </trkpt>
      <trkpt lat="42.643123995512724" lon="-6.869477005675435">
        <ele>559</ele>
        <time>2018-05-22T07:06:30Z</time>
      </trkpt>
      <trkpt lat="42.642843034118414" lon="-6.869152961298823">
        <ele>552</ele>
        <time>2018-05-22T07:06:41Z</time>
      </trkpt>
      <trkpt lat="42.642671959474683" lon="-6.868940982967615">
        <ele>552</ele>
        <time>2018-05-22T07:06:48Z</time>
      </trkpt>
      <trkpt lat="42.642561988905072" lon="-6.868845010176301">
        <ele>552</ele>
        <time>2018-05-22T07:06:52Z</time>
      </trkpt>
      <trkpt lat="42.642397033050656" lon="-6.868637977167964">
        <ele>564</ele>
        <time>2018-05-22T07:06:59Z</time>
      </trkpt>
      <trkpt lat="42.642222018912435" lon="-6.868419963866472">
        <ele>564</ele>
        <time>2018-05-22T07:07:06Z</time>
      </trkpt>
      <trkpt lat="42.642024038359523" lon="-6.868232041597366">
        <ele>550</ele>
        <time>2018-05-22T07:07:13Z</time>
      </trkpt>
      <trkpt lat="42.641825973987579" lon="-6.868049986660481">
        <ele>550</ele>
        <time>2018-05-22T07:07:20Z</time>
      </trkpt>
      <trkpt lat="42.641706028953195" lon="-6.867958037182689">
        <ele>550</ele>
        <time>2018-05-22T07:07:24Z</time>
      </trkpt>
      <trkpt lat="42.641593040898442" lon="-6.867931969463825">
        <ele>550</ele>
        <time>2018-05-22T07:07:27Z</time>
      </trkpt>
      <trkpt lat="42.641560016199946" lon="-6.86791998334229">
        <ele>550</ele>
        <time>2018-05-22T07:07:28Z</time>
      </trkpt>
      <trkpt lat="42.641518022865057" lon="-6.867902968078852">
        <ele>550</ele>
        <time>2018-05-22T07:07:30Z</time>
      </trkpt>
      <trkpt lat="42.641477035358548" lon="-6.867880001664162">
        <ele>574</ele>
        <time>2018-05-22T07:07:31Z</time>
      </trkpt>
      <trkpt lat="42.641438981518149" lon="-6.867862986400724">
        <ele>574</ele>
        <time>2018-05-22T07:07:32Z</time>
      </trkpt>
      <trkpt lat="42.641392964869738" lon="-6.867862986400724">
        <ele>574</ele>
        <time>2018-05-22T07:07:33Z</time>
      </trkpt>
      <trkpt lat="42.641350971534848" lon="-6.867862986400724">
        <ele>574</ele>
        <time>2018-05-22T07:07:35Z</time>
      </trkpt>
      <trkpt lat="42.641304032877088" lon="-6.867862986400724">
        <ele>574</ele>
        <time>2018-05-22T07:07:36Z</time>
      </trkpt>
      <trkpt lat="42.641262039542198" lon="-6.867869021371007">
        <ele>558</ele>
        <time>2018-05-22T07:07:37Z</time>
      </trkpt>
      <trkpt lat="42.641215017065406" lon="-6.867869021371007">
        <ele>558</ele>
        <time>2018-05-22T07:07:39Z</time>
      </trkpt>
      <trkpt lat="42.641173023730516" lon="-6.867869021371007">
        <ele>558</ele>
        <time>2018-05-22T07:07:40Z</time>
      </trkpt>
      <trkpt lat="42.641131030395627" lon="-6.867869021371007">
        <ele>558</ele>
        <time>2018-05-22T07:07:41Z</time>
      </trkpt>
      <trkpt lat="42.641079984605312" lon="-6.867869021371007">
        <ele>558</ele>
        <time>2018-05-22T07:07:43Z</time>
      </trkpt>
      <trkpt lat="42.64103296212852" lon="-6.867874972522259">
        <ele>558</ele>
        <time>2018-05-22T07:07:44Z</time>
      </trkpt>
      <trkpt lat="42.640991974622011" lon="-6.867874972522259">
        <ele>558</ele>
        <time>2018-05-22T07:07:46Z</time>
      </trkpt>
      <trkpt lat="42.640945035964251" lon="-6.867874972522259">
        <ele>558</ele>
        <time>2018-05-22T07:07:47Z</time>
      </trkpt>
      <trkpt lat="42.640888961032033" lon="-6.867874972522259">
        <ele>558</ele>
        <time>2018-05-22T07:07:49Z</time>
      </trkpt>
      <trkpt lat="42.640833975747228" lon="-6.867874972522259">
        <ele>558</ele>
        <time>2018-05-22T07:07:50Z</time>
      </trkpt>
      <trkpt lat="42.640791982412338" lon="-6.867874972522259">
        <ele>558</ele>
        <time>2018-05-22T07:07:52Z</time>
      </trkpt>
      <trkpt lat="42.640755018219352" lon="-6.867862986400724">
        <ele>558</ele>
        <time>2018-05-22T07:07:53Z</time>
      </trkpt>
      <trkpt lat="42.640707995742559" lon="-6.867852006107569">
        <ele>558</ele>
        <time>2018-05-22T07:07:54Z</time>
      </trkpt>
      <trkpt lat="42.640664996579289" lon="-6.867852006107569">
        <ele>558</ele>
        <time>2018-05-22T07:07:55Z</time>
      </trkpt>
      <trkpt lat="42.6406230032444" lon="-6.867845971137285">
        <ele>558</ele>
        <time>2018-05-22T07:07:57Z</time>
      </trkpt>
      <trkpt lat="42.640586039051414" lon="-6.86783398501575">
        <ele>558</ele>
        <time>2018-05-22T07:07:58Z</time>
      </trkpt>
      <trkpt lat="42.640549996867776" lon="-6.867823004722595">
        <ele>558</ele>
        <time>2018-05-22T07:07:59Z</time>
      </trkpt>
      <trkpt lat="42.640512026846409" lon="-6.867816969752312">
        <ele>558</ele>
        <time>2018-05-22T07:08:00Z</time>
      </trkpt>
      <trkpt lat="42.640469027683139" lon="-6.867816969752312">
        <ele>552</ele>
        <time>2018-05-22T07:08:01Z</time>
      </trkpt>
      <trkpt lat="42.64042804017663" lon="-6.867816969752312">
        <ele>552</ele>
        <time>2018-05-22T07:08:03Z</time>
      </trkpt>
      <trkpt lat="42.640388980507851" lon="-6.867805989459157">
        <ele>552</ele>
        <time>2018-05-22T07:08:04Z</time>
      </trkpt>
      <trkpt lat="42.640352016314864" lon="-6.867794003337622">
        <ele>552</ele>
        <time>2018-05-22T07:08:05Z</time>
      </trkpt>
      <trkpt lat="42.640318991616368" lon="-6.867771036922932">
        <ele>552</ele>
        <time>2018-05-22T07:08:06Z</time>
      </trkpt>
      <trkpt lat="42.640290996059775" lon="-6.86774798668921">
        <ele>552</ele>
        <time>2018-05-22T07:08:07Z</time>
      </trkpt>
      <trkpt lat="42.640261994674802" lon="-6.867718985304236">
        <ele>552</ele>
        <time>2018-05-22T07:08:08Z</time>
      </trkpt>
      <trkpt lat="42.640231987461448" lon="-6.867654025554657">
        <ele>552</ele>
        <time>2018-05-22T07:08:10Z</time>
      </trkpt>
      <trkpt lat="42.640203991904855" lon="-6.867590993642807">
        <ele>552</ele>
        <time>2018-05-22T07:08:11Z</time>
      </trkpt>
      <trkpt lat="42.640195023268461" lon="-6.867561992257834">
        <ele>552</ele>
        <time>2018-05-22T07:08:12Z</time>
      </trkpt>
      <trkpt lat="42.64017297886312" lon="-6.867524022236466">
        <ele>552</ele>
        <time>2018-05-22T07:08:13Z</time>
      </trkpt>
      <trkpt lat="42.640078011900187" lon="-6.867301985621452">
        <ele>552</ele>
        <time>2018-05-22T07:08:19Z</time>
      </trkpt>
      <trkpt lat="42.639968963339925" lon="-6.867040973156691">
        <ele>551</ele>
        <time>2018-05-22T07:08:25Z</time>
      </trkpt>
      <trkpt lat="42.639859998598695" lon="-6.866810973733664">
        <ele>555</ele>
        <time>2018-05-22T07:08:31Z</time>
      </trkpt>
      <trkpt lat="42.639713985845447" lon="-6.866505034267902">
        <ele>555</ele>
        <time>2018-05-22T07:08:39Z</time>
      </trkpt>
      <trkpt lat="42.639588005840778" lon="-6.866244021803141">
        <ele>555</ele>
        <time>2018-05-22T07:08:46Z</time>
      </trkpt>
      <trkpt lat="42.639422966167331" lon="-6.865936992689967">
        <ele>548</ele>
        <time>2018-05-22T07:08:55Z</time>
      </trkpt>
      <trkpt lat="42.639279970899224" lon="-6.86566399410367">
        <ele>548</ele>
        <time>2018-05-22T07:09:02Z</time>
      </trkpt>
      <trkpt lat="42.639156002551317" lon="-6.865369034931064">
        <ele>548</ele>
        <time>2018-05-22T07:09:09Z</time>
      </trkpt>
      <trkpt lat="42.638999009504914" lon="-6.865052031353116">
        <ele>551</ele>
        <time>2018-05-22T07:09:18Z</time>
      </trkpt>
      <trkpt lat="42.63886003755033" lon="-6.864777021110058">
        <ele>551</ele>
        <time>2018-05-22T07:09:25Z</time>
      </trkpt>
      <trkpt lat="42.638707989826798" lon="-6.864469991996884">
        <ele>554</ele>
        <time>2018-05-22T07:09:33Z</time>
      </trkpt>
      <trkpt lat="42.638544039800763" lon="-6.864168997853994">
        <ele>551</ele>
        <time>2018-05-22T07:09:41Z</time>
      </trkpt>
      <trkpt lat="42.63838998042047" lon="-6.863863980397582">
        <ele>551</ele>
        <time>2018-05-22T07:09:49Z</time>
      </trkpt>
      <trkpt lat="42.638251008465886" lon="-6.863615037873387">
        <ele>559</ele>
        <time>2018-05-22T07:09:56Z</time>
      </trkpt>
      <trkpt lat="42.638111030682921" lon="-6.863348996266723">
        <ele>559</ele>
        <time>2018-05-22T07:10:03Z</time>
      </trkpt>
      <trkpt lat="42.638016985729337" lon="-6.86321304179728">
        <ele>559</ele>
        <time>2018-05-22T07:10:07Z</time>
      </trkpt>
      <trkpt lat="42.637969041243196" lon="-6.86302000656724">
        <ele>559</ele>
        <time>2018-05-22T07:10:12Z</time>
      </trkpt>
      <trkpt lat="42.637950014322996" lon="-6.862829988822341">
        <ele>559</ele>
        <time>2018-05-22T07:10:16Z</time>
      </trkpt>
      <trkpt lat="42.637898968532681" lon="-6.862641982734203">
        <ele>552</ele>
        <time>2018-05-22T07:10:20Z</time>
      </trkpt>
      <trkpt lat="42.637898968532681" lon="-6.862595966085792">
        <ele>552</ele>
        <time>2018-05-22T07:10:21Z</time>
      </trkpt>
      <trkpt lat="42.637898968532681" lon="-6.862528994679451">
        <ele>552</ele>
        <time>2018-05-22T07:10:23Z</time>
      </trkpt>
      <trkpt lat="42.637898968532681" lon="-6.862470991909504">
        <ele>552</ele>
        <time>2018-05-22T07:10:24Z</time>
      </trkpt>
      <trkpt lat="42.637902991846204" lon="-6.862413994967938">
        <ele>552</ele>
        <time>2018-05-22T07:10:25Z</time>
      </trkpt>
      <trkpt lat="42.637922018766403" lon="-6.862367978319526">
        <ele>552</ele>
        <time>2018-05-22T07:10:26Z</time>
      </trkpt>
      <trkpt lat="42.637930987402797" lon="-6.862321961671114">
        <ele>552</ele>
        <time>2018-05-22T07:10:27Z</time>
      </trkpt>
      <trkpt lat="42.637954959645867" lon="-6.862276028841734">
        <ele>571</ele>
        <time>2018-05-22T07:10:28Z</time>
      </trkpt>
      <trkpt lat="42.637978009879589" lon="-6.862223977223039">
        <ele>571</ele>
        <time>2018-05-22T07:10:30Z</time>
      </trkpt>
      <trkpt lat="42.638000976294279" lon="-6.862166980281472">
        <ele>571</ele>
        <time>2018-05-22T07:10:31Z</time>
      </trkpt>
      <trkpt lat="42.638025032356381" lon="-6.862132027745247">
        <ele>571</ele>
        <time>2018-05-22T07:10:32Z</time>
      </trkpt>
      <trkpt lat="42.638042969629169" lon="-6.862086011096835">
        <ele>571</ele>
        <time>2018-05-22T07:10:33Z</time>
      </trkpt>
      <trkpt lat="42.638056967407465" lon="-6.862034965306521">
        <ele>571</ele>
        <time>2018-05-22T07:10:35Z</time>
      </trkpt>
      <trkpt lat="42.638075994327664" lon="-6.86198903247714">
        <ele>566</ele>
        <time>2018-05-22T07:10:36Z</time>
      </trkpt>
      <trkpt lat="42.638084962964058" lon="-6.861943015828729">
        <ele>566</ele>
        <time>2018-05-22T07:10:37Z</time>
      </trkpt>
      <trkpt lat="42.638103989884257" lon="-6.861890964210033">
        <ele>566</ele>
        <time>2018-05-22T07:10:38Z</time>
      </trkpt>
      <trkpt lat="42.638122010976076" lon="-6.861850982531905">
        <ele>566</ele>
        <time>2018-05-22T07:10:39Z</time>
      </trkpt>
      <trkpt lat="42.638141037896276" lon="-6.861804965883493">
        <ele>566</ele>
        <time>2018-05-22T07:10:40Z</time>
      </trkpt>
      <trkpt lat="42.638159980997443" lon="-6.86175299808383">
        <ele>566</ele>
        <time>2018-05-22T07:10:42Z</time>
      </trkpt>
      <trkpt lat="42.638187976554036" lon="-6.861696001142263">
        <ele>566</ele>
        <time>2018-05-22T07:10:43Z</time>
      </trkpt>
      <trkpt lat="42.638215972110629" lon="-6.861656019464135">
        <ele>566</ele>
        <time>2018-05-22T07:10:44Z</time>
      </trkpt>
      <trkpt lat="42.638239022344351" lon="-6.861610002815723">
        <ele>566</ele>
        <time>2018-05-22T07:10:45Z</time>
      </trkpt>
      <trkpt lat="42.638271963223815" lon="-6.861563986167312">
        <ele>566</ele>
        <time>2018-05-22T07:10:47Z</time>
      </trkpt>
      <trkpt lat="42.638299958780408" lon="-6.8615179695189">
        <ele>566</ele>
        <time>2018-05-22T07:10:48Z</time>
      </trkpt>
      <trkpt lat="42.638331977650523" lon="-6.861483016982675">
        <ele>566</ele>
        <time>2018-05-22T07:10:49Z</time>
      </trkpt>
      <trkpt lat="42.638359973207116" lon="-6.861455021426082">
        <ele>566</ele>
        <time>2018-05-22T07:10:50Z</time>
      </trkpt>
      <trkpt lat="42.638398027047515" lon="-6.861419985070825">
        <ele>566</ele>
        <time>2018-05-22T07:10:52Z</time>
      </trkpt>
      <trkpt lat="42.638434991240501" lon="-6.861380003392696">
        <ele>566</ele>
        <time>2018-05-22T07:10:53Z</time>
      </trkpt>
      <trkpt lat="42.638476984575391" lon="-6.861333986744285">
        <ele>566</ele>
        <time>2018-05-22T07:10:55Z</time>
      </trkpt>
      <trkpt lat="42.638504980131984" lon="-6.861299034208059">
        <ele>566</ele>
        <time>2018-05-22T07:10:56Z</time>
      </trkpt>
      <trkpt lat="42.638528030365705" lon="-6.861258968710899">
        <ele>566</ele>
        <time>2018-05-22T07:10:57Z</time>
      </trkpt>
      <trkpt lat="42.638556025922298" lon="-6.861230973154306">
        <ele>566</ele>
        <time>2018-05-22T07:10:58Z</time>
      </trkpt>
      <trkpt lat="42.638584021478891" lon="-6.861179005354643">
        <ele>554</ele>
        <time>2018-05-22T07:10:59Z</time>
      </trkpt>
      <trkpt lat="42.638606987893581" lon="-6.861139023676515">
        <ele>554</ele>
        <time>2018-05-22T07:11:01Z</time>
      </trkpt>
      <trkpt lat="42.638634983450174" lon="-6.861081020906568">
        <ele>554</ele>
        <time>2018-05-22T07:11:02Z</time>
      </trkpt>
      <trkpt lat="42.638673037290573" lon="-6.861029975116253">
        <ele>554</ele>
        <time>2018-05-22T07:11:04Z</time>
      </trkpt>
      <trkpt lat="42.638696003705263" lon="-6.860978007316589">
        <ele>554</ele>
        <time>2018-05-22T07:11:05Z</time>
      </trkpt>
      <trkpt lat="42.638716036453843" lon="-6.8609360139817">
        <ele>554</ele>
        <time>2018-05-22T07:11:06Z</time>
      </trkpt>
      <trkpt lat="42.638734979555011" lon="-6.860883962363005">
        <ele>554</ele>
        <time>2018-05-22T07:11:07Z</time>
      </trkpt>
      <trkpt lat="42.63875400647521" lon="-6.860831994563341">
        <ele>554</ele>
        <time>2018-05-22T07:11:09Z</time>
      </trkpt>
      <trkpt lat="42.638768004253507" lon="-6.860785977914929">
        <ele>564</ele>
        <time>2018-05-22T07:11:10Z</time>
      </trkpt>
      <trkpt lat="42.638790970668197" lon="-6.860735015943646">
        <ele>564</ele>
        <time>2018-05-22T07:11:11Z</time>
      </trkpt>
      <trkpt lat="42.638814020901918" lon="-6.860682964324951">
        <ele>564</ele>
        <time>2018-05-22T07:11:12Z</time>
      </trkpt>
      <trkpt lat="42.638846961781383" lon="-6.860613981261849">
        <ele>564</ele>
        <time>2018-05-22T07:11:14Z</time>
      </trkpt>
      <trkpt lat="42.638856014236808" lon="-6.860573999583721">
        <ele>564</ele>
        <time>2018-05-22T07:11:15Z</time>
      </trkpt>
      <trkpt lat="42.638870012015104" lon="-6.860515996813774">
        <ele>564</ele>
        <time>2018-05-22T07:11:16Z</time>
      </trkpt>
      <trkpt lat="42.638878980651498" lon="-6.860465034842491">
        <ele>564</ele>
        <time>2018-05-22T07:11:18Z</time>
      </trkpt>
      <trkpt lat="42.638878980651498" lon="-6.860402002930641">
        <ele>564</ele>
        <time>2018-05-22T07:11:19Z</time>
      </trkpt>
      <trkpt lat="42.638878980651498" lon="-6.860333019867539">
        <ele>558</ele>
        <time>2018-05-22T07:11:20Z</time>
      </trkpt>
      <trkpt lat="42.638878980651498" lon="-6.860280968248844">
        <ele>558</ele>
        <time>2018-05-22T07:11:22Z</time>
      </trkpt>
      <trkpt lat="42.638878980651498" lon="-6.860229000449181">
        <ele>558</ele>
        <time>2018-05-22T07:11:23Z</time>
      </trkpt>
      <trkpt lat="42.638870012015104" lon="-6.860172003507614">
        <ele>558</ele>
        <time>2018-05-22T07:11:24Z</time>
      </trkpt>
      <trkpt lat="42.638870012015104" lon="-6.860050968825817">
        <ele>558</ele>
        <time>2018-05-22T07:11:27Z</time>
      </trkpt>
      <trkpt lat="42.638870012015104" lon="-6.859999001026154">
        <ele>558</ele>
        <time>2018-05-22T07:11:28Z</time>
      </trkpt>
      <trkpt lat="42.638864982873201" lon="-6.859935969114304">
        <ele>558</ele>
        <time>2018-05-22T07:11:29Z</time>
      </trkpt>
      <trkpt lat="42.638864982873201" lon="-6.859873021021485">
        <ele>558</ele>
        <time>2018-05-22T07:11:30Z</time>
      </trkpt>
      <trkpt lat="42.638860959559679" lon="-6.859815018251538">
        <ele>558</ele>
        <time>2018-05-22T07:11:32Z</time>
      </trkpt>
      <trkpt lat="42.638856014236808" lon="-6.859749974682927">
        <ele>558</ele>
        <time>2018-05-22T07:11:33Z</time>
      </trkpt>
      <trkpt lat="42.638846961781383" lon="-6.859704041853547">
        <ele>558</ele>
        <time>2018-05-22T07:11:34Z</time>
      </trkpt>
      <trkpt lat="42.638842016458511" lon="-6.859646961092949">
        <ele>558</ele>
        <time>2018-05-22T07:11:35Z</time>
      </trkpt>
      <trkpt lat="42.638832964003086" lon="-6.859587030485272">
        <ele>558</ele>
        <time>2018-05-22T07:11:37Z</time>
      </trkpt>
      <trkpt lat="42.638802034780383" lon="-6.859241025522351">
        <ele>563</ele>
        <time>2018-05-22T07:11:44Z</time>
      </trkpt>
      <trkpt lat="42.638745959848166" lon="-6.858869036659598">
        <ele>551</ele>
        <time>2018-05-22T07:11:53Z</time>
      </trkpt>
      <trkpt lat="42.638693992048502" lon="-6.858539963141084">
        <ele>546</ele>
        <time>2018-05-22T07:12:00Z</time>
      </trkpt>
      <trkpt lat="42.638645963743329" lon="-6.858220025897026">
        <ele>546</ele>
        <time>2018-05-22T07:12:07Z</time>
      </trkpt>
      <trkpt lat="42.638617968186736" lon="-6.857919031754136">
        <ele>546</ele>
        <time>2018-05-22T07:12:14Z</time>
      </trkpt>
      <trkpt lat="42.638617968186736" lon="-6.857910985127091">
        <ele>546</ele>
        <time>2018-05-22T07:12:14Z</time>
      </trkpt>
      <trkpt lat="42.638574969023466" lon="-6.857660030946136">
        <ele>543</ele>
        <time>2018-05-22T07:12:19Z</time>
      </trkpt>
      <trkpt lat="42.638536999002099" lon="-6.857446040958166">
        <ele>543</ele>
        <time>2018-05-22T07:12:24Z</time>
      </trkpt>
      <trkpt lat="42.63849500566721" lon="-6.85724101960659">
        <ele>543</ele>
        <time>2018-05-22T07:12:29Z</time>
      </trkpt>
      <trkpt lat="42.638428034260869" lon="-6.857046978548169">
        <ele>548</ele>
        <time>2018-05-22T07:12:34Z</time>
      </trkpt>
      <trkpt lat="42.638418981805444" lon="-6.857000961899757">
        <ele>548</ele>
        <time>2018-05-22T07:12:35Z</time>
      </trkpt>
      <trkpt lat="42.638400038704276" lon="-6.856931978836656">
        <ele>548</ele>
        <time>2018-05-22T07:12:36Z</time>
      </trkpt>
      <trkpt lat="42.63838604092598" lon="-6.856885962188244">
        <ele>548</ele>
        <time>2018-05-22T07:12:37Z</time>
      </trkpt>
      <trkpt lat="42.638357961550355" lon="-6.856823014095426">
        <ele>548</ele>
        <time>2018-05-22T07:12:39Z</time>
      </trkpt>
      <trkpt lat="42.638334995135665" lon="-6.856742966920137">
        <ele>548</ele>
        <time>2018-05-22T07:12:41Z</time>
      </trkpt>
      <trkpt lat="42.638315968215466" lon="-6.856697034090757">
        <ele>548</ele>
        <time>2018-05-22T07:12:42Z</time>
      </trkpt>
      <trkpt lat="42.638298030942678" lon="-6.856622016057372">
        <ele>548</ele>
        <time>2018-05-22T07:12:44Z</time>
      </trkpt>
      <trkpt lat="42.638279004022479" lon="-6.856569964438677">
        <ele>548</ele>
        <time>2018-05-22T07:12:45Z</time>
      </trkpt>
      <trkpt lat="42.638251008465886" lon="-6.856507016345859">
        <ele>548</ele>
        <time>2018-05-22T07:12:46Z</time>
      </trkpt>
      <trkpt lat="42.638223012909293" lon="-6.856450019404292">
        <ele>548</ele>
        <time>2018-05-22T07:12:48Z</time>
      </trkpt>
      <trkpt lat="42.638204991817474" lon="-6.856392016634345">
        <ele>548</ele>
        <time>2018-05-22T07:12:49Z</time>
      </trkpt>
      <trkpt lat="42.638181019574404" lon="-6.856345999985933">
        <ele>548</ele>
        <time>2018-05-22T07:12:51Z</time>
      </trkpt>
      <trkpt lat="42.638162998482585" lon="-6.856299983337522">
        <ele>548</ele>
        <time>2018-05-22T07:12:52Z</time>
      </trkpt>
      <trkpt lat="42.638143971562386" lon="-6.856242986395955">
        <ele>548</ele>
        <time>2018-05-22T07:12:53Z</time>
      </trkpt>
      <trkpt lat="42.638115976005793" lon="-6.856191018596292">
        <ele>548</ele>
        <time>2018-05-22T07:12:54Z</time>
      </trkpt>
      <trkpt lat="42.638093009591103" lon="-6.85614500194788">
        <ele>548</ele>
        <time>2018-05-22T07:12:56Z</time>
      </trkpt>
      <trkpt lat="42.638059984892607" lon="-6.856088005006313">
        <ele>566</ele>
        <time>2018-05-22T07:12:57Z</time>
      </trkpt>
      <trkpt lat="42.638031989336014" lon="-6.856052968651056">
        <ele>566</ele>
        <time>2018-05-22T07:12:58Z</time>
      </trkpt>
      <trkpt lat="42.638003993779421" lon="-6.856012986972928">
        <ele>566</ele>
        <time>2018-05-22T07:13:00Z</time>
      </trkpt>
      <trkpt lat="42.637981027364731" lon="-6.855966970324516">
        <ele>566</ele>
        <time>2018-05-22T07:13:01Z</time>
      </trkpt>
      <trkpt lat="42.637948002666235" lon="-6.855921037495136">
        <ele>566</ele>
        <time>2018-05-22T07:13:02Z</time>
      </trkpt>
      <trkpt lat="42.637925036251545" lon="-6.855875020846725">
        <ele>545</ele>
        <time>2018-05-22T07:13:03Z</time>
      </trkpt>
      <trkpt lat="42.637897040694952" lon="-6.855835039168596">
        <ele>545</ele>
        <time>2018-05-22T07:13:05Z</time>
      </trkpt>
      <trkpt lat="42.637878013774753" lon="-6.855789022520185">
        <ele>545</ele>
        <time>2018-05-22T07:13:06Z</time>
      </trkpt>
      <trkpt lat="42.63785001821816" lon="-6.855749040842056">
        <ele>545</ele>
        <time>2018-05-22T07:13:07Z</time>
      </trkpt>
      <trkpt lat="42.637822022661567" lon="-6.855708975344896">
        <ele>545</ele>
        <time>2018-05-22T07:13:08Z</time>
      </trkpt>
      <trkpt lat="42.637784974649549" lon="-6.855662958696485">
        <ele>545</ele>
        <time>2018-05-22T07:13:10Z</time>
      </trkpt>
      <trkpt lat="42.637752033770084" lon="-6.855622977018356">
        <ele>545</ele>
        <time>2018-05-22T07:13:11Z</time>
      </trkpt>
      <trkpt lat="42.637720014899969" lon="-6.855581989511848">
        <ele>545</ele>
        <time>2018-05-22T07:13:12Z</time>
      </trkpt>
      <trkpt lat="42.637695958837867" lon="-6.855542007833719">
        <ele>545</ele>
        <time>2018-05-22T07:13:13Z</time>
      </trkpt>
      <trkpt lat="42.637664023786783" lon="-6.855495991185308">
        <ele>545</ele>
        <time>2018-05-22T07:13:15Z</time>
      </trkpt>
      <trkpt lat="42.63763602823019" lon="-6.855456009507179">
        <ele>545</ele>
        <time>2018-05-22T07:13:16Z</time>
      </trkpt>
      <trkpt lat="42.637603003531694" lon="-6.855409992858768">
        <ele>545</ele>
        <time>2018-05-22T07:13:17Z</time>
      </trkpt>
      <trkpt lat="42.637569978833199" lon="-6.855380991473794">
        <ele>545</ele>
        <time>2018-05-22T07:13:19Z</time>
      </trkpt>
      <trkpt lat="42.637537959963083" lon="-6.855330029502511">
        <ele>545</ele>
        <time>2018-05-22T07:13:20Z</time>
      </trkpt>
      <trkpt lat="42.637505019083619" lon="-6.855289964005351">
        <ele>552</ele>
        <time>2018-05-22T07:13:21Z</time>
      </trkpt>
      <trkpt lat="42.637467971071601" lon="-6.855237996205688">
        <ele>552</ele>
        <time>2018-05-22T07:13:23Z</time>
      </trkpt>
      <trkpt lat="42.637425977736712" lon="-6.855186028406024">
        <ele>552</ele>
        <time>2018-05-22T07:13:25Z</time>
      </trkpt>
      <trkpt lat="42.637393036857247" lon="-6.855151997879148">
        <ele>552</ele>
        <time>2018-05-22T07:13:26Z</time>
      </trkpt>
      <trkpt lat="42.637355988845229" lon="-6.855122996494174">
        <ele>552</ele>
        <time>2018-05-22T07:13:27Z</time>
      </trkpt>
      <trkpt lat="42.637327993288636" lon="-6.855088965967298">
        <ele>552</ele>
        <time>2018-05-22T07:13:28Z</time>
      </trkpt>
      <trkpt lat="42.63729102909565" lon="-6.855054013431072">
        <ele>552</ele>
        <time>2018-05-22T07:13:29Z</time>
      </trkpt>
      <trkpt lat="42.637252975255251" lon="-6.855001961812377">
        <ele>552</ele>
        <time>2018-05-22T07:13:31Z</time>
      </trkpt>
      <trkpt lat="42.637216011062264" lon="-6.854956028982997">
        <ele>552</ele>
        <time>2018-05-22T07:13:33Z</time>
      </trkpt>
      <trkpt lat="42.637192960828543" lon="-6.854915963485837">
        <ele>552</ele>
        <time>2018-05-22T07:13:34Z</time>
      </trkpt>
      <trkpt lat="42.637150967493653" lon="-6.854875981807709">
        <ele>552</ele>
        <time>2018-05-22T07:13:35Z</time>
      </trkpt>
      <trkpt lat="42.637118026614189" lon="-6.854836000129581">
        <ele>545</ele>
        <time>2018-05-22T07:13:37Z</time>
      </trkpt>
      <trkpt lat="42.637080978602171" lon="-6.854789983481169">
        <ele>545</ele>
        <time>2018-05-22T07:13:38Z</time>
      </trkpt>
      <trkpt lat="42.63703403994441" lon="-6.854750001803041">
        <ele>545</ele>
        <time>2018-05-22T07:13:40Z</time>
      </trkpt>
      <trkpt lat="42.636996991932392" lon="-6.854709014296532">
        <ele>545</ele>
        <time>2018-05-22T07:13:41Z</time>
      </trkpt>
      <trkpt lat="42.636960027739406" lon="-6.854664003476501">
        <ele>545</ele>
        <time>2018-05-22T07:13:43Z</time>
      </trkpt>
      <trkpt lat="42.636921973899007" lon="-6.854635002091527">
        <ele>545</ele>
        <time>2018-05-22T07:13:44Z</time>
      </trkpt>
      <trkpt lat="42.636890038847923" lon="-6.854606000706554">
        <ele>545</ele>
        <time>2018-05-22T07:13:45Z</time>
      </trkpt>
      <trkpt lat="42.636851985007524" lon="-6.854566019028425">
        <ele>545</ele>
        <time>2018-05-22T07:13:46Z</time>
      </trkpt>
      <trkpt lat="42.636815020814538" lon="-6.854530982673168">
        <ele>545</ele>
        <time>2018-05-22T07:13:48Z</time>
      </trkpt>
      <trkpt lat="42.636775961145759" lon="-6.854488989338279">
        <ele>545</ele>
        <time>2018-05-22T07:13:49Z</time>
      </trkpt>
      <trkpt lat="42.636604970321059" lon="-6.854323027655482">
        <ele>544</ele>
        <time>2018-05-22T07:13:55Z</time>
      </trkpt>
      <trkpt lat="42.636358961462975" lon="-6.854100991040468">
        <ele>544</ele>
        <time>2018-05-22T07:14:04Z</time>
      </trkpt>
      <trkpt lat="42.636165004223585" lon="-6.853934023529291">
        <ele>546</ele>
        <time>2018-05-22T07:14:11Z</time>
      </trkpt>
      <trkpt lat="42.635979009792209" lon="-6.853775018826127">
        <ele>546</ele>
        <time>2018-05-22T07:14:18Z</time>
      </trkpt>
      <trkpt lat="42.635808018967509" lon="-6.853606039658189">
        <ele>544</ele>
        <time>2018-05-22T07:14:24Z</time>
      </trkpt>
      <trkpt lat="42.635516999289393" lon="-6.853382997214794">
        <ele>544</ele>
        <time>2018-05-22T07:14:34Z</time>
      </trkpt>
      <trkpt lat="42.635352965444326" lon="-6.853260034695268">
        <ele>545</ele>
        <time>2018-05-22T07:14:39Z</time>
      </trkpt>
      <trkpt lat="42.635198989883065" lon="-6.853135982528329">
        <ele>545</ele>
        <time>2018-05-22T07:14:44Z</time>
      </trkpt>
      <trkpt lat="42.635087007656693" lon="-6.853054007515311">
        <ele>545</ele>
        <time>2018-05-22T07:14:48Z</time>
      </trkpt>
      <trkpt lat="42.634977959096432" lon="-6.853006985038519">
        <ele>545</ele>
        <time>2018-05-22T07:14:52Z</time>
      </trkpt>
      <trkpt lat="42.634870000183582" lon="-6.852949988096952">
        <ele>545</ele>
        <time>2018-05-22T07:14:55Z</time>
      </trkpt>
      <trkpt lat="42.634728010743856" lon="-6.852844040840864">
        <ele>545</ele>
        <time>2018-05-22T07:15:00Z</time>
      </trkpt>
      <trkpt lat="42.634610999375582" lon="-6.85277396813035">
        <ele>553</ele>
        <time>2018-05-22T07:15:04Z</time>
      </trkpt>
      <trkpt lat="42.634601024910808" lon="-6.85277002863586">
        <ele>553</ele>
        <time>2018-05-22T07:15:04Z</time>
      </trkpt>
      <trkpt lat="42.634577974677086" lon="-6.852754019200802">
        <ele>543</ele>
        <time>2018-05-22T07:15:05Z</time>
      </trkpt>
      <trkpt lat="42.634550984948874" lon="-6.852742033079267">
        <ele>543</ele>
        <time>2018-05-22T07:15:06Z</time>
      </trkpt>
      <trkpt lat="42.634520977735519" lon="-6.852738009765744">
        <ele>543</ele>
        <time>2018-05-22T07:15:06Z</time>
      </trkpt>
      <trkpt lat="42.634494993835688" lon="-6.852729041129351">
        <ele>543</ele>
        <time>2018-05-22T07:15:07Z</time>
      </trkpt>
      <trkpt lat="42.634464986622334" lon="-6.852716971188784">
        <ele>543</ele>
        <time>2018-05-22T07:15:08Z</time>
      </trkpt>
      <trkpt lat="42.634428022429347" lon="-6.852709008380771">
        <ele>543</ele>
        <time>2018-05-22T07:15:09Z</time>
      </trkpt>
      <trkpt lat="42.634390974417329" lon="-6.852697022259235">
        <ele>543</ele>
        <time>2018-05-22T07:15:10Z</time>
      </trkpt>
      <trkpt lat="42.634360967203975" lon="-6.85268796980381">
        <ele>543</ele>
        <time>2018-05-22T07:15:11Z</time>
      </trkpt>
      <trkpt lat="42.634334983304143" lon="-6.852675983682275">
        <ele>543</ele>
        <time>2018-05-22T07:15:12Z</time>
      </trkpt>
      <trkpt lat="42.634304976090789" lon="-6.852659974247217">
        <ele>543</ele>
        <time>2018-05-22T07:15:13Z</time>
      </trkpt>
      <trkpt lat="42.634274968877435" lon="-6.852639019489288">
        <ele>543</ele>
        <time>2018-05-22T07:15:14Z</time>
      </trkpt>
      <trkpt lat="42.634242027997971" lon="-6.852623010054231">
        <ele>543</ele>
        <time>2018-05-22T07:15:15Z</time>
      </trkpt>
      <trkpt lat="42.634215038269758" lon="-6.852618986740708">
        <ele>543</ele>
        <time>2018-05-22T07:15:16Z</time>
      </trkpt>
      <trkpt lat="42.634187964722514" lon="-6.852605994790793">
        <ele>543</ele>
        <time>2018-05-22T07:15:17Z</time>
      </trkpt>
      <trkpt lat="42.63415502384305" lon="-6.85259803198278">
        <ele>543</ele>
        <time>2018-05-22T07:15:18Z</time>
      </trkpt>
      <trkpt lat="42.634121999144554" lon="-6.852582022547722">
        <ele>543</ele>
        <time>2018-05-22T07:15:19Z</time>
      </trkpt>
      <trkpt lat="42.6340919919312" lon="-6.852560983970761">
        <ele>543</ele>
        <time>2018-05-22T07:15:20Z</time>
      </trkpt>
      <trkpt lat="42.634065002202988" lon="-6.852544974535704">
        <ele>543</ele>
        <time>2018-05-22T07:15:21Z</time>
      </trkpt>
      <trkpt lat="42.634038012474775" lon="-6.852541035041213">
        <ele>543</ele>
        <time>2018-05-22T07:15:21Z</time>
      </trkpt>
      <trkpt lat="42.634012028574944" lon="-6.852527959272265">
        <ele>543</ele>
        <time>2018-05-22T07:15:22Z</time>
      </trkpt>
      <trkpt lat="42.633982021361589" lon="-6.852519996464253">
        <ele>543</ele>
        <time>2018-05-22T07:15:23Z</time>
      </trkpt>
      <trkpt lat="42.633952014148235" lon="-6.85251597315073">
        <ele>543</ele>
        <time>2018-05-22T07:15:24Z</time>
      </trkpt>
      <trkpt lat="42.633925024420023" lon="-6.85251203365624">
        <ele>543</ele>
        <time>2018-05-22T07:15:25Z</time>
      </trkpt>
      <trkpt lat="42.633899040520191" lon="-6.852508010342717">
        <ele>543</ele>
        <time>2018-05-22T07:15:26Z</time>
      </trkpt>
      <trkpt lat="42.633871966972947" lon="-6.852498035877943">
        <ele>543</ele>
        <time>2018-05-22T07:15:27Z</time>
      </trkpt>
      <trkpt lat="42.633847994729877" lon="-6.852478003129363">
        <ele>543</ele>
        <time>2018-05-22T07:15:27Z</time>
      </trkpt>
      <trkpt lat="42.633814970031381" lon="-6.852465011179447">
        <ele>543</ele>
        <time>2018-05-22T07:15:28Z</time>
      </trkpt>
      <trkpt lat="42.633784962818027" lon="-6.85244900174439">
        <ele>543</ele>
        <time>2018-05-22T07:15:29Z</time>
      </trkpt>
      <trkpt lat="42.633761996403337" lon="-6.852427963167429">
        <ele>545</ele>
        <time>2018-05-22T07:15:30Z</time>
      </trkpt>
      <trkpt lat="42.633742969483137" lon="-6.852409020066261">
        <ele>545</ele>
        <time>2018-05-22T07:15:31Z</time>
      </trkpt>
      <trkpt lat="42.633714973926544" lon="-6.852397033944726">
        <ele>545</ele>
        <time>2018-05-22T07:15:32Z</time>
      </trkpt>
      <trkpt lat="42.63368496671319" lon="-6.852384964004159">
        <ele>545</ele>
        <time>2018-05-22T07:15:33Z</time>
      </trkpt>
      <trkpt lat="42.633646996691823" lon="-6.852368032559753">
        <ele>545</ele>
        <time>2018-05-22T07:15:34Z</time>
      </trkpt>
      <trkpt lat="42.633517999202013" lon="-6.85225697234273">
        <ele>545</ele>
        <time>2018-05-22T07:15:38Z</time>
      </trkpt>
      <trkpt lat="42.633395036682487" lon="-6.852140966802836">
        <ele>545</ele>
        <time>2018-05-22T07:15:43Z</time>
      </trkpt>
      <trkpt lat="42.633292023092508" lon="-6.852018004283309">
        <ele>545</ele>
        <time>2018-05-22T07:15:47Z</time>
      </trkpt>
      <trkpt lat="42.633136035874486" lon="-6.851808959618211">
        <ele>554</ele>
        <time>2018-05-22T07:15:53Z</time>
      </trkpt>
      <trkpt lat="42.63303603976965" lon="-6.851681973785162">
        <ele>554</ele>
        <time>2018-05-22T07:15:57Z</time>
      </trkpt>
      <trkpt lat="42.632907964289188" lon="-6.851502014324069">
        <ele>550</ele>
        <time>2018-05-22T07:16:03Z</time>
      </trkpt>
      <trkpt lat="42.632681988179684" lon="-6.851193979382515">
        <ele>550</ele>
        <time>2018-05-22T07:16:13Z</time>
      </trkpt>
      <trkpt lat="42.632496999576688" lon="-6.850985018536449">
        <ele>545</ele>
        <time>2018-05-22T07:16:20Z</time>
      </trkpt>
      <trkpt lat="42.632291978225112" lon="-6.850706990808249">
        <ele>545</ele>
        <time>2018-05-22T07:16:28Z</time>
      </trkpt>
      <trkpt lat="42.632173961028457" lon="-6.850541029125452">
        <ele>553</ele>
        <time>2018-05-22T07:16:34Z</time>
      </trkpt>
      <trkpt lat="42.632054015994072" lon="-6.850402979180217">
        <ele>537</ele>
        <time>2018-05-22T07:16:38Z</time>
      </trkpt>
      <trkpt lat="42.631953014060855" lon="-6.850252021104097">
        <ele>535</ele>
        <time>2018-05-22T07:16:43Z</time>
      </trkpt>
      <trkpt lat="42.631797026842833" lon="-6.850046999752522">
        <ele>535</ele>
        <time>2018-05-22T07:16:49Z</time>
      </trkpt>
      <trkpt lat="42.631668029353023" lon="-6.849878020584583">
        <ele>535</ele>
        <time>2018-05-22T07:16:54Z</time>
      </trkpt>
      <trkpt lat="42.631460996344686" lon="-6.84963502921164">
        <ele>535</ele>
        <time>2018-05-22T07:17:02Z</time>
      </trkpt>
      <trkpt lat="42.631339961662889" lon="-6.849498990923166">
        <ele>549</ele>
        <time>2018-05-22T07:17:07Z</time>
      </trkpt>
      <trkpt lat="42.631186991930008" lon="-6.849310984835029">
        <ele>535</ele>
        <time>2018-05-22T07:17:13Z</time>
      </trkpt>
      <trkpt lat="42.631002003327012" lon="-6.849076962098479">
        <ele>535</ele>
        <time>2018-05-22T07:17:21Z</time>
      </trkpt>
      <trkpt lat="42.630799999460578" lon="-6.848842017352581">
        <ele>535</ele>
        <time>2018-05-22T07:17:29Z</time>
      </trkpt>
      <trkpt lat="42.630637977272272" lon="-6.848651999607682">
        <ele>553</ele>
        <time>2018-05-22T07:17:35Z</time>
      </trkpt>
      <trkpt lat="42.630422981455922" lon="-6.848422000184655">
        <ele>532</ele>
        <time>2018-05-22T07:17:43Z</time>
      </trkpt>
      <trkpt lat="42.630251990631223" lon="-6.848188983276486">
        <ele>532</ele>
        <time>2018-05-22T07:17:50Z</time>
      </trkpt>
      <trkpt lat="42.630112012848258" lon="-6.848051017150283">
        <ele>532</ele>
        <time>2018-05-22T07:17:55Z</time>
      </trkpt>
      <trkpt lat="42.629930041730404" lon="-6.847863011062145">
        <ele>545</ele>
        <time>2018-05-22T07:18:02Z</time>
      </trkpt>
      <trkpt lat="42.629700964316726" lon="-6.847646003589034">
        <ele>545</ele>
        <time>2018-05-22T07:18:10Z</time>
      </trkpt>
      <trkpt lat="42.629567021504045" lon="-6.847480041906238">
        <ele>535</ele>
        <time>2018-05-22T07:18:16Z</time>
      </trkpt>
      <trkpt lat="42.629423020407557" lon="-6.847348026931286">
        <ele>535</ele>
        <time>2018-05-22T07:18:21Z</time>
      </trkpt>
      <trkpt lat="42.629415979608893" lon="-6.847339980304241">
        <ele>535</ele>
        <time>2018-05-22T07:18:21Z</time>
      </trkpt>
      <trkpt lat="42.629241971299052" lon="-6.847207965329289">
        <ele>535</ele>
        <time>2018-05-22T07:18:27Z</time>
      </trkpt>
      <trkpt lat="42.629227973520756" lon="-6.847207965329289">
        <ele>535</ele>
        <time>2018-05-22T07:18:27Z</time>
      </trkpt>
      <trkpt lat="42.629185980185866" lon="-6.847195979207754">
        <ele>535</ele>
        <time>2018-05-22T07:18:29Z</time>
      </trkpt>
      <trkpt lat="42.62914901599288" lon="-6.847173012793064">
        <ele>535</ele>
        <time>2018-05-22T07:18:30Z</time>
      </trkpt>
      <trkpt lat="42.629115991294384" lon="-6.847149962559342">
        <ele>535</ele>
        <time>2018-05-22T07:18:31Z</time>
      </trkpt>
      <trkpt lat="42.629083972424269" lon="-6.847116015851498">
        <ele>535</ele>
        <time>2018-05-22T07:18:32Z</time>
      </trkpt>
      <trkpt lat="42.629047008231282" lon="-6.847087014466524">
        <ele>535</ele>
        <time>2018-05-22T07:18:33Z</time>
      </trkpt>
      <trkpt lat="42.629009038209915" lon="-6.847063964232802">
        <ele>549</ele>
        <time>2018-05-22T07:18:35Z</time>
      </trkpt>
      <trkpt lat="42.6289770193398" lon="-6.847034962847829">
        <ele>549</ele>
        <time>2018-05-22T07:18:36Z</time>
      </trkpt>
      <trkpt lat="42.62893502600491" lon="-6.847006967291236">
        <ele>549</ele>
        <time>2018-05-22T07:18:37Z</time>
      </trkpt>
      <trkpt lat="42.628896972164512" lon="-6.846984000876546">
        <ele>549</ele>
        <time>2018-05-22T07:18:38Z</time>
      </trkpt>
      <trkpt lat="42.628860007971525" lon="-6.846961034461856">
        <ele>549</ele>
        <time>2018-05-22T07:18:40Z</time>
      </trkpt>
      <trkpt lat="42.628818014636636" lon="-6.846932033076882">
        <ele>549</ele>
        <time>2018-05-22T07:18:41Z</time>
      </trkpt>
      <trkpt lat="42.628780966624618" lon="-6.846898002550006">
        <ele>549</ele>
        <time>2018-05-22T07:18:42Z</time>
      </trkpt>
      <trkpt lat="42.628738973289728" lon="-6.846886016428471">
        <ele>537</ele>
        <time>2018-05-22T07:18:44Z</time>
      </trkpt>
      <trkpt lat="42.628696979954839" lon="-6.846869001165032">
        <ele>537</ele>
        <time>2018-05-22T07:18:45Z</time>
      </trkpt>
      <trkpt lat="42.628662027418613" lon="-6.846857015043497">
        <ele>537</ele>
        <time>2018-05-22T07:18:46Z</time>
      </trkpt>
      <trkpt lat="42.628624979406595" lon="-6.846846034750342">
        <ele>537</ele>
        <time>2018-05-22T07:18:47Z</time>
      </trkpt>
      <trkpt lat="42.628582986071706" lon="-6.846833964809775">
        <ele>537</ele>
        <time>2018-05-22T07:18:48Z</time>
      </trkpt>
      <trkpt lat="42.6285470277071" lon="-6.84682097285986">
        <ele>537</ele>
        <time>2018-05-22T07:18:49Z</time>
      </trkpt>
      <trkpt lat="42.628509979695082" lon="-6.846791971474886">
        <ele>537</ele>
        <time>2018-05-22T07:18:51Z</time>
      </trkpt>
      <trkpt lat="42.628467986360192" lon="-6.846769005060196">
        <ele>537</ele>
        <time>2018-05-22T07:18:52Z</time>
      </trkpt>
      <trkpt lat="42.628431022167206" lon="-6.846758024767041">
        <ele>537</ele>
        <time>2018-05-22T07:18:53Z</time>
      </trkpt>
      <trkpt lat="42.628390034660697" lon="-6.846758024767041">
        <ele>537</ele>
        <time>2018-05-22T07:18:54Z</time>
      </trkpt>
      <trkpt lat="42.628250978887081" lon="-6.846690969541669">
        <ele>537</ele>
        <time>2018-05-22T07:18:59Z</time>
      </trkpt>
      <trkpt lat="42.628114018589258" lon="-6.846636990085244">
        <ele>537</ele>
        <time>2018-05-22T07:19:03Z</time>
      </trkpt>
      <trkpt lat="42.627907991409302" lon="-6.846573958173394">
        <ele>532</ele>
        <time>2018-05-22T07:19:09Z</time>
      </trkpt>
      <trkpt lat="42.627822998911142" lon="-6.846526013687253">
        <ele>532</ele>
        <time>2018-05-22T07:19:12Z</time>
      </trkpt>
      <trkpt lat="42.627609008923173" lon="-6.846491983160377">
        <ele>532</ele>
        <time>2018-05-22T07:19:18Z</time>
      </trkpt>
      <trkpt lat="42.627427037805319" lon="-6.846452001482248">
        <ele>532</ele>
        <time>2018-05-22T07:19:24Z</time>
      </trkpt>
      <trkpt lat="42.627265015617013" lon="-6.846393998712301">
        <ele>532</ele>
        <time>2018-05-22T07:19:29Z</time>
      </trkpt>
      <trkpt lat="42.627049013972282" lon="-6.846314035356045">
        <ele>528</ele>
        <time>2018-05-22T07:19:35Z</time>
      </trkpt>
      <trkpt lat="42.626900989562273" lon="-6.84626198373735">
        <ele>528</ele>
        <time>2018-05-22T07:19:40Z</time>
      </trkpt>
      <trkpt lat="42.626757994294167" lon="-6.846182020381093">
        <ele>528</ele>
        <time>2018-05-22T07:19:44Z</time>
      </trkpt>
      <trkpt lat="42.626639977097511" lon="-6.846094010397792">
        <ele>539</ele>
        <time>2018-05-22T07:19:48Z</time>
      </trkpt>
      <trkpt lat="42.62663503177464" lon="-6.846094010397792">
        <ele>539</ele>
        <time>2018-05-22T07:19:48Z</time>
      </trkpt>
      <trkpt lat="42.626601001247764" lon="-6.846051011234522">
        <ele>539</ele>
        <time>2018-05-22T07:19:50Z</time>
      </trkpt>
      <trkpt lat="42.626587003469467" lon="-6.845994014292955">
        <ele>539</ele>
        <time>2018-05-22T07:19:51Z</time>
      </trkpt>
      <trkpt lat="42.626577029004693" lon="-6.845936011523008">
        <ele>539</ele>
        <time>2018-05-22T07:19:52Z</time>
      </trkpt>
      <trkpt lat="42.626563031226397" lon="-6.845879014581442">
        <ele>539</ele>
        <time>2018-05-22T07:19:54Z</time>
      </trkpt>
      <trkpt lat="42.6265490334481" lon="-6.845826962962747">
        <ele>539</ele>
        <time>2018-05-22T07:19:55Z</time>
      </trkpt>
      <trkpt lat="42.626535035669804" lon="-6.845779018476605">
        <ele>539</ele>
        <time>2018-05-22T07:19:56Z</time>
      </trkpt>
      <trkpt lat="42.626521037891507" lon="-6.845710035413504">
        <ele>539</ele>
        <time>2018-05-22T07:19:58Z</time>
      </trkpt>
      <trkpt lat="42.626503016799688" lon="-6.84564096853137">
        <ele>539</ele>
        <time>2018-05-22T07:19:59Z</time>
      </trkpt>
      <trkpt lat="42.626492958515882" lon="-6.845572991296649">
        <ele>539</ele>
        <time>2018-05-22T07:20:01Z</time>
      </trkpt>
      <trkpt lat="42.626483989879489" lon="-6.845523035153747">
        <ele>539</ele>
        <time>2018-05-22T07:20:02Z</time>
      </trkpt>
      <trkpt lat="42.626475021243095" lon="-6.845441982150078">
        <ele>539</ele>
        <time>2018-05-22T07:20:04Z</time>
      </trkpt>
      <trkpt lat="42.626475021243095" lon="-6.845389008522034">
        <ele>539</ele>
        <time>2018-05-22T07:20:05Z</time>
      </trkpt>
      <trkpt lat="42.626469992101192" lon="-6.845331005752087">
        <ele>539</ele>
        <time>2018-05-22T07:20:06Z</time>
      </trkpt>
      <trkpt lat="42.626469992101192" lon="-6.845279037952423">
        <ele>555</ele>
        <time>2018-05-22T07:20:07Z</time>
      </trkpt>
      <trkpt lat="42.626469992101192" lon="-6.845222041010857">
        <ele>555</ele>
        <time>2018-05-22T07:20:08Z</time>
      </trkpt>
      <trkpt lat="42.626469992101192" lon="-6.845164960250258">
        <ele>555</ele>
        <time>2018-05-22T07:20:10Z</time>
      </trkpt>
      <trkpt lat="42.62646496295929" lon="-6.845110980793834">
        <ele>555</ele>
        <time>2018-05-22T07:20:11Z</time>
      </trkpt>
      <trkpt lat="42.626425987109542" lon="-6.845025988295674">
        <ele>555</ele>
        <time>2018-05-22T07:20:13Z</time>
      </trkpt>
      <trkpt lat="42.62642196379602" lon="-6.84499204158783">
        <ele>555</ele>
        <time>2018-05-22T07:20:14Z</time>
      </trkpt>
      <trkpt lat="42.626403020694852" lon="-6.844934038817883">
        <ele>555</ele>
        <time>2018-05-22T07:20:15Z</time>
      </trkpt>
      <trkpt lat="42.626375025138259" lon="-6.844831025227904">
        <ele>555</ele>
        <time>2018-05-22T07:20:18Z</time>
      </trkpt>
      <trkpt lat="42.62635599821806" lon="-6.844773022457957">
        <ele>555</ele>
        <time>2018-05-22T07:20:19Z</time>
      </trkpt>
      <trkpt lat="42.626337977126241" lon="-6.844716025516391">
        <ele>555</ele>
        <time>2018-05-22T07:20:20Z</time>
      </trkpt>
      <trkpt lat="42.626319034025073" lon="-6.844660034403205">
        <ele>555</ele>
        <time>2018-05-22T07:20:22Z</time>
      </trkpt>
      <trkpt lat="42.626309981569648" lon="-6.84460898861289">
        <ele>555</ele>
        <time>2018-05-22T07:20:23Z</time>
      </trkpt>
      <trkpt lat="42.626286009326577" lon="-6.844562971964479">
        <ele>534</ele>
        <time>2018-05-22T07:20:24Z</time>
      </trkpt>
      <trkpt lat="42.626262959092855" lon="-6.844511004164815">
        <ele>534</ele>
        <time>2018-05-22T07:20:25Z</time>
      </trkpt>
      <trkpt lat="42.62624703347683" lon="-6.84445702470839">
        <ele>537</ele>
        <time>2018-05-22T07:20:27Z</time>
      </trkpt>
      <trkpt lat="42.626229012385011" lon="-6.844405978918076">
        <ele>537</ele>
        <time>2018-05-22T07:20:28Z</time>
      </trkpt>
      <trkpt lat="42.626205962151289" lon="-6.844362979754806">
        <ele>537</ele>
        <time>2018-05-22T07:20:29Z</time>
      </trkpt>
      <trkpt lat="42.626187019050121" lon="-6.844300031661987">
        <ele>537</ele>
        <time>2018-05-22T07:20:31Z</time>
      </trkpt>
      <trkpt lat="42.626157011836767" lon="-6.844217972829938">
        <ele>537</ele>
        <time>2018-05-22T07:20:33Z</time>
      </trkpt>
      <trkpt lat="42.626147959381342" lon="-6.844159970059991">
        <ele>537</ele>
        <time>2018-05-22T07:20:34Z</time>
      </trkpt>
      <trkpt lat="42.626133961603045" lon="-6.844082018360496">
        <ele>537</ele>
        <time>2018-05-22T07:20:36Z</time>
      </trkpt>
      <trkpt lat="42.626119963824749" lon="-6.844022003933787">
        <ele>537</ele>
        <time>2018-05-22T07:20:37Z</time>
      </trkpt>
      <trkpt lat="42.626105966046453" lon="-6.843965006992221">
        <ele>537</ele>
        <time>2018-05-22T07:20:38Z</time>
      </trkpt>
      <trkpt lat="42.626096997410059" lon="-6.843901975080371">
        <ele>537</ele>
        <time>2018-05-22T07:20:40Z</time>
      </trkpt>
      <trkpt lat="42.62607797048986" lon="-6.84385403059423">
        <ele>537</ele>
        <time>2018-05-22T07:20:41Z</time>
      </trkpt>
      <trkpt lat="42.62605500407517" lon="-6.843808013945818">
        <ele>537</ele>
        <time>2018-05-22T07:20:42Z</time>
      </trkpt>
      <trkpt lat="42.626041006296873" lon="-6.843755962327123">
        <ele>537</ele>
        <time>2018-05-22T07:20:43Z</time>
      </trkpt>
      <trkpt lat="42.626017034053802" lon="-6.843699971213937">
        <ele>537</ele>
        <time>2018-05-22T07:20:45Z</time>
      </trkpt>
      <trkpt lat="42.625993983820081" lon="-6.843654038384557">
        <ele>537</ele>
        <time>2018-05-22T07:20:46Z</time>
      </trkpt>
      <trkpt lat="42.625975040718913" lon="-6.843602992594242">
        <ele>543</ele>
        <time>2018-05-22T07:20:47Z</time>
      </trkpt>
      <trkpt lat="42.625946961343288" lon="-6.843568040058017">
        <ele>543</ele>
        <time>2018-05-22T07:20:48Z</time>
      </trkpt>
      <trkpt lat="42.625915026292205" lon="-6.843527974560857">
        <ele>543</ele>
        <time>2018-05-22T07:20:49Z</time>
      </trkpt>
      <trkpt lat="42.625875966623425" lon="-6.843498973175883">
        <ele>543</ele>
        <time>2018-05-22T07:20:51Z</time>
      </trkpt>
      <trkpt lat="42.625831961631775" lon="-6.84347097761929">
        <ele>543</ele>
        <time>2018-05-22T07:20:52Z</time>
      </trkpt>
      <trkpt lat="42.625800026580691" lon="-6.843441976234317">
        <ele>543</ele>
        <time>2018-05-22T07:20:53Z</time>
      </trkpt>
      <trkpt lat="42.625772031024098" lon="-6.843401994556189">
        <ele>543</ele>
        <time>2018-05-22T07:20:55Z</time>
      </trkpt>
      <trkpt lat="42.625744035467505" lon="-6.843366958200932">
        <ele>543</ele>
        <time>2018-05-22T07:20:56Z</time>
      </trkpt>
      <trkpt lat="42.625725008547306" lon="-6.843321025371552">
        <ele>543</ele>
        <time>2018-05-22T07:20:57Z</time>
      </trkpt>
      <trkpt lat="42.62569097802043" lon="-6.84329797513783">
        <ele>543</ele>
        <time>2018-05-22T07:20:58Z</time>
      </trkpt>
      <trkpt lat="42.625662982463837" lon="-6.843264028429985">
        <ele>543</ele>
        <time>2018-05-22T07:20:59Z</time>
      </trkpt>
      <trkpt lat="42.625634986907244" lon="-6.843223962932825">
        <ele>543</ele>
        <time>2018-05-22T07:21:00Z</time>
      </trkpt>
      <trkpt lat="42.625606991350651" lon="-6.843182975426316">
        <ele>543</ele>
        <time>2018-05-22T07:21:02Z</time>
      </trkpt>
      <trkpt lat="42.625587964430451" lon="-6.843142993748188">
        <ele>543</ele>
        <time>2018-05-22T07:21:03Z</time>
      </trkpt>
      <trkpt lat="42.625559968873858" lon="-6.843108963221312">
        <ele>543</ele>
        <time>2018-05-22T07:21:04Z</time>
      </trkpt>
      <trkpt lat="42.625530967488885" lon="-6.843078033998609">
        <ele>543</ele>
        <time>2018-05-22T07:21:05Z</time>
      </trkpt>
      <trkpt lat="42.625512024387717" lon="-6.843032017350197">
        <ele>543</ele>
        <time>2018-05-22T07:21:06Z</time>
      </trkpt>
      <trkpt lat="42.625486962497234" lon="-6.842990024015307">
        <ele>543</ele>
        <time>2018-05-22T07:21:07Z</time>
      </trkpt>
      <trkpt lat="42.625463996082544" lon="-6.84295498766005">
        <ele>532</ele>
        <time>2018-05-22T07:21:08Z</time>
      </trkpt>
      <trkpt lat="42.62543398886919" lon="-6.842915005981922">
        <ele>532</ele>
        <time>2018-05-22T07:21:09Z</time>
      </trkpt>
      <trkpt lat="42.625405993312597" lon="-6.842880975455046">
        <ele>532</ele>
        <time>2018-05-22T07:21:10Z</time>
      </trkpt>
      <trkpt lat="42.625391995534301" lon="-6.842840993776918">
        <ele>532</ele>
        <time>2018-05-22T07:21:11Z</time>
      </trkpt>
      <trkpt lat="42.625369029119611" lon="-6.842794977128506">
        <ele>535</ele>
        <time>2018-05-22T07:21:13Z</time>
      </trkpt>
      <trkpt lat="42.625350002199411" lon="-6.842743009328842">
        <ele>535</ele>
        <time>2018-05-22T07:21:14Z</time>
      </trkpt>
      <trkpt lat="42.625322006642818" lon="-6.842679977416992">
        <ele>535</ele>
        <time>2018-05-22T07:21:16Z</time>
      </trkpt>
      <trkpt lat="42.625299040228128" lon="-6.842621974647045">
        <ele>535</ele>
        <time>2018-05-22T07:21:17Z</time>
      </trkpt>
      <trkpt lat="42.625274984166026" lon="-6.842574030160904">
        <ele>535</ele>
        <time>2018-05-22T07:21:18Z</time>
      </trkpt>
      <trkpt lat="42.625227039679885" lon="-6.842498006299138">
        <ele>535</ele>
        <time>2018-05-22T07:21:20Z</time>
      </trkpt>
      <trkpt lat="42.625163001939654" lon="-6.842320980504155">
        <ele>535</ele>
        <time>2018-05-22T07:21:25Z</time>
      </trkpt>
      <trkpt lat="42.625114973634481" lon="-6.842239005491138">
        <ele>535</ele>
        <time>2018-05-22T07:21:27Z</time>
      </trkpt>
      <trkpt lat="42.625037021934986" lon="-6.842139009386301">
        <ele>535</ele>
        <time>2018-05-22T07:21:30Z</time>
      </trkpt>
      <trkpt lat="42.624985976144671" lon="-6.84198796749115">
        <ele>537</ele>
        <time>2018-05-22T07:21:34Z</time>
      </trkpt>
      <trkpt lat="42.624905006960034" lon="-6.841779006645083">
        <ele>537</ele>
        <time>2018-05-22T07:21:39Z</time>
      </trkpt>
      <trkpt lat="42.624763017520308" lon="-6.841456973925233">
        <ele>537</ele>
        <time>2018-05-22T07:21:47Z</time>
      </trkpt>
      <trkpt lat="42.62463997118175" lon="-6.841169977560639">
        <ele>548</ele>
        <time>2018-05-22T07:21:54Z</time>
      </trkpt>
      <trkpt lat="42.624546010047197" lon="-6.840926986187697">
        <ele>531</ele>
        <time>2018-05-22T07:22:00Z</time>
      </trkpt>
      <trkpt lat="42.624440984800458" lon="-6.840687012299895">
        <ele>531</ele>
        <time>2018-05-22T07:22:06Z</time>
      </trkpt>
      <trkpt lat="42.62429497204721" lon="-6.840361962094903">
        <ele>531</ele>
        <time>2018-05-22T07:22:15Z</time>
      </trkpt>
      <trkpt lat="42.624167986214161" lon="-6.840045964345336">
        <ele>537</ele>
        <time>2018-05-22T07:22:22Z</time>
      </trkpt>
      <trkpt lat="42.624081987887621" lon="-6.839841026812792">
        <ele>537</ele>
        <time>2018-05-22T07:22:28Z</time>
      </trkpt>
      <trkpt lat="42.623979980126023" lon="-6.839660983532667">
        <ele>537</ele>
        <time>2018-05-22T07:22:32Z</time>
      </trkpt>
      <trkpt lat="42.623869003728032" lon="-6.839507007971406">
        <ele>555</ele>
        <time>2018-05-22T07:22:37Z</time>
      </trkpt>
      <trkpt lat="42.623835979029536" lon="-6.839467026293278">
        <ele>555</ele>
        <time>2018-05-22T07:22:38Z</time>
      </trkpt>
      <trkpt lat="42.623802032321692" lon="-6.839406006038189">
        <ele>555</ele>
        <time>2018-05-22T07:22:40Z</time>
      </trkpt>
      <trkpt lat="42.623764984309673" lon="-6.83936501853168">
        <ele>555</ele>
        <time>2018-05-22T07:22:42Z</time>
      </trkpt>
      <trkpt lat="42.623742017894983" lon="-6.839325036853552">
        <ele>534</ele>
        <time>2018-05-22T07:22:43Z</time>
      </trkpt>
      <trkpt lat="42.62371301651001" lon="-6.839306009933353">
        <ele>534</ele>
        <time>2018-05-22T07:22:44Z</time>
      </trkpt>
      <trkpt lat="42.623680997639894" lon="-6.839282959699631">
        <ele>534</ele>
        <time>2018-05-22T07:22:45Z</time>
      </trkpt>
      <trkpt lat="42.623633975163102" lon="-6.839259993284941">
        <ele>534</ele>
        <time>2018-05-22T07:22:46Z</time>
      </trkpt>
      <trkpt lat="42.623597010970116" lon="-6.839225962758064">
        <ele>534</ele>
        <time>2018-05-22T07:22:47Z</time>
      </trkpt>
      <trkpt lat="42.623567003756762" lon="-6.839196961373091">
        <ele>534</ele>
        <time>2018-05-22T07:22:49Z</time>
      </trkpt>
      <trkpt lat="42.623532973229885" lon="-6.839173994958401">
        <ele>534</ele>
        <time>2018-05-22T07:22:50Z</time>
      </trkpt>
      <trkpt lat="42.62343599461019" lon="-6.839065030217171">
        <ele>534</ele>
        <time>2018-05-22T07:22:53Z</time>
      </trkpt>
      <trkpt lat="42.62332602404058" lon="-6.838981965556741">
        <ele>534</ele>
        <time>2018-05-22T07:22:57Z</time>
      </trkpt>
      <trkpt lat="42.623108010739088" lon="-6.838866965845227">
        <ele>534</ele>
        <time>2018-05-22T07:23:04Z</time>
      </trkpt>
      <trkpt lat="42.622910030186176" lon="-6.838794965296984">
        <ele>528</ele>
        <time>2018-05-22T07:23:10Z</time>
      </trkpt>
      <trkpt lat="42.622827971354127" lon="-6.838708966970444">
        <ele>529</ele>
        <time>2018-05-22T07:23:13Z</time>
      </trkpt>
      <trkpt lat="42.622781032696366" lon="-6.838597990572453">
        <ele>529</ele>
        <time>2018-05-22T07:23:16Z</time>
      </trkpt>
      <trkpt lat="42.622681958600879" lon="-6.838404033333063">
        <ele>529</ele>
        <time>2018-05-22T07:23:21Z</time>
      </trkpt>
      <trkpt lat="42.622584979981184" lon="-6.838232958689332">
        <ele>529</ele>
        <time>2018-05-22T07:23:26Z</time>
      </trkpt>
      <trkpt lat="42.622479032725096" lon="-6.83807797729969">
        <ele>529</ele>
        <time>2018-05-22T07:23:30Z</time>
      </trkpt>
      <trkpt lat="42.62240401469171" lon="-6.837959038093686">
        <ele>529</ele>
        <time>2018-05-22T07:23:34Z</time>
      </trkpt>
      <trkpt lat="42.622249033302069" lon="-6.837842026725411">
        <ele>542</ele>
        <time>2018-05-22T07:23:39Z</time>
      </trkpt>
      <trkpt lat="42.622019033879042" lon="-6.837685033679009">
        <ele>529</ele>
        <time>2018-05-22T07:23:47Z</time>
      </trkpt>
      <trkpt lat="42.621841002255678" lon="-6.837551007047296">
        <ele>529</ele>
        <time>2018-05-22T07:23:53Z</time>
      </trkpt>
      <trkpt lat="42.621631035581231" lon="-6.837436007335782">
        <ele>529</ele>
        <time>2018-05-22T07:24:00Z</time>
      </trkpt>
      <trkpt lat="42.621625000610948" lon="-6.837436007335782">
        <ele>529</ele>
        <time>2018-05-22T07:24:00Z</time>
      </trkpt>
      <trkpt lat="42.621468007564545" lon="-6.837312038987875">
        <ele>529</ele>
        <time>2018-05-22T07:24:05Z</time>
      </trkpt>
      <trkpt lat="42.621445041149855" lon="-6.837283037602902">
        <ele>529</ele>
        <time>2018-05-22T07:24:06Z</time>
      </trkpt>
      <trkpt lat="42.621412016451359" lon="-6.83723702095449">
        <ele>529</ele>
        <time>2018-05-22T07:24:07Z</time>
      </trkpt>
      <trkpt lat="42.621384020894766" lon="-6.837197039276362">
        <ele>529</ele>
        <time>2018-05-22T07:24:09Z</time>
      </trkpt>
      <trkpt lat="42.621346972882748" lon="-6.837168037891388">
        <ele>529</ele>
        <time>2018-05-22T07:24:10Z</time>
      </trkpt>
      <trkpt lat="42.621318977326155" lon="-6.837134007364512">
        <ele>529</ele>
        <time>2018-05-22T07:24:11Z</time>
      </trkpt>
      <trkpt lat="42.621290981769562" lon="-6.837093019858003">
        <ele>536</ele>
        <time>2018-05-22T07:24:12Z</time>
      </trkpt>
      <trkpt lat="42.621272038668394" lon="-6.837048009037972">
        <ele>531</ele>
        <time>2018-05-22T07:24:13Z</time>
      </trkpt>
      <trkpt lat="42.621243959292769" lon="-6.837005009874702">
        <ele>531</ele>
        <time>2018-05-22T07:24:15Z</time>
      </trkpt>
      <trkpt lat="42.621220992878079" lon="-6.83695899322629">
        <ele>531</ele>
        <time>2018-05-22T07:24:16Z</time>
      </trkpt>
      <trkpt lat="42.621200038120151" lon="-6.836906019598246">
        <ele>531</ele>
        <time>2018-05-22T07:24:17Z</time>
      </trkpt>
      <trkpt lat="42.621182017028332" lon="-6.836848016828299">
        <ele>531</ele>
        <time>2018-05-22T07:24:18Z</time>
      </trkpt>
      <trkpt lat="42.621162990108132" lon="-6.836802000179887">
        <ele>531</ele>
        <time>2018-05-22T07:24:20Z</time>
      </trkpt>
      <trkpt lat="42.621132982894778" lon="-6.836737040430307">
        <ele>531</ele>
        <time>2018-05-22T07:24:21Z</time>
      </trkpt>
      <trkpt lat="42.621118985116482" lon="-6.83667803183198">
        <ele>531</ele>
        <time>2018-05-22T07:24:23Z</time>
      </trkpt>
      <trkpt lat="42.621100964024663" lon="-6.836632015183568">
        <ele>531</ele>
        <time>2018-05-22T07:24:24Z</time>
      </trkpt>
      <trkpt lat="42.621091995388269" lon="-6.836579963564873">
        <ele>531</ele>
        <time>2018-05-22T07:24:25Z</time>
      </trkpt>
      <trkpt lat="42.621077997609973" lon="-6.836527995765209">
        <ele>531</ele>
        <time>2018-05-22T07:24:26Z</time>
      </trkpt>
      <trkpt lat="42.621063999831676" lon="-6.836470998823643">
        <ele>531</ele>
        <time>2018-05-22T07:24:27Z</time>
      </trkpt>
      <trkpt lat="42.621054025366902" lon="-6.836424982175231">
        <ele>531</ele>
        <time>2018-05-22T07:24:28Z</time>
      </trkpt>
      <trkpt lat="42.62105000205338" lon="-6.836367985233665">
        <ele>531</ele>
        <time>2018-05-22T07:24:30Z</time>
      </trkpt>
      <trkpt lat="42.62105000205338" lon="-6.836311994120479">
        <ele>531</ele>
        <time>2018-05-22T07:24:31Z</time>
      </trkpt>
      <trkpt lat="42.62105000205338" lon="-6.836260026320815">
        <ele>531</ele>
        <time>2018-05-22T07:24:32Z</time>
      </trkpt>
      <trkpt lat="42.62105000205338" lon="-6.836179979145527">
        <ele>531</ele>
        <time>2018-05-22T07:24:34Z</time>
      </trkpt>
      <trkpt lat="42.62105000205338" lon="-6.836108984425664">
        <ele>527</ele>
        <time>2018-05-22T07:24:35Z</time>
      </trkpt>
      <trkpt lat="42.621054025366902" lon="-6.836048969998956">
        <ele>527</ele>
        <time>2018-05-22T07:24:37Z</time>
      </trkpt>
      <trkpt lat="42.621054025366902" lon="-6.835975041612983">
        <ele>527</ele>
        <time>2018-05-22T07:24:38Z</time>
      </trkpt>
      <trkpt lat="42.621063999831676" lon="-6.835922989994288">
        <ele>527</ele>
        <time>2018-05-22T07:24:39Z</time>
      </trkpt>
      <trkpt lat="42.621063999831676" lon="-6.835865993052721">
        <ele>527</ele>
        <time>2018-05-22T07:24:41Z</time>
      </trkpt>
      <trkpt lat="42.621068023145199" lon="-6.835814025253058">
        <ele>527</ele>
        <time>2018-05-22T07:24:42Z</time>
      </trkpt>
      <trkpt lat="42.621068023145199" lon="-6.835761973634362">
        <ele>527</ele>
        <time>2018-05-22T07:24:43Z</time>
      </trkpt>
      <trkpt lat="42.621082020923495" lon="-6.835711011663079">
        <ele>527</ele>
        <time>2018-05-22T07:24:44Z</time>
      </trkpt>
      <trkpt lat="42.621091995388269" lon="-6.835653008893132">
        <ele>527</ele>
        <time>2018-05-22T07:24:45Z</time>
      </trkpt>
      <trkpt lat="42.621110016480088" lon="-6.835601041093469">
        <ele>527</ele>
        <time>2018-05-22T07:24:47Z</time>
      </trkpt>
      <trkpt lat="42.621132982894778" lon="-6.835560975596309">
        <ele>527</ele>
        <time>2018-05-22T07:24:48Z</time>
      </trkpt>
      <trkpt lat="42.621160978451371" lon="-6.835520993918181">
        <ele>527</ele>
        <time>2018-05-22T07:24:49Z</time>
      </trkpt>
      <trkpt lat="42.621185034513474" lon="-6.835474977269769">
        <ele>529</ele>
        <time>2018-05-22T07:24:50Z</time>
      </trkpt>
      <trkpt lat="42.62122199870646" lon="-6.835428960621357">
        <ele>527</ele>
        <time>2018-05-22T07:24:52Z</time>
      </trkpt>
      <trkpt lat="42.621249994263053" lon="-6.835388978943229">
        <ele>527</ele>
        <time>2018-05-22T07:24:53Z</time>
      </trkpt>
      <trkpt lat="42.621277989819646" lon="-6.835354026407003">
        <ele>527</ele>
        <time>2018-05-22T07:24:54Z</time>
      </trkpt>
      <trkpt lat="42.621305985376239" lon="-6.835309015586972">
        <ele>541</ele>
        <time>2018-05-22T07:24:55Z</time>
      </trkpt>
      <trkpt lat="42.621333980932832" lon="-6.835273979231715">
        <ele>529</ele>
        <time>2018-05-22T07:24:57Z</time>
      </trkpt>
      <trkpt lat="42.62137102894485" lon="-6.835227962583304">
        <ele>529</ele>
        <time>2018-05-22T07:24:58Z</time>
      </trkpt>
      <trkpt lat="42.621408998966217" lon="-6.835182029753923">
        <ele>529</ele>
        <time>2018-05-22T07:25:00Z</time>
      </trkpt>
      <trkpt lat="42.621447974815965" lon="-6.835129978135228">
        <ele>529</ele>
        <time>2018-05-22T07:25:01Z</time>
      </trkpt>
      <trkpt lat="42.62160899117589" lon="-6.83498103171587">
        <ele>529</ele>
        <time>2018-05-22T07:25:07Z</time>
      </trkpt>
      <trkpt lat="42.62160899117589" lon="-6.834973990917206">
        <ele>529</ele>
        <time>2018-05-22T07:25:07Z</time>
      </trkpt>
      <trkpt lat="42.621718961745501" lon="-6.834862008690834">
        <ele>529</ele>
        <time>2018-05-22T07:25:11Z</time>
      </trkpt>
      <trkpt lat="42.621802026405931" lon="-6.834743991494179">
        <ele>529</ele>
        <time>2018-05-22T07:25:15Z</time>
      </trkpt>
      <trkpt lat="42.621915014460683" lon="-6.834592027589679">
        <ele>529</ele>
        <time>2018-05-22T07:25:20Z</time>
      </trkpt>
      <trkpt lat="42.622005958110094" lon="-6.834521032869816">
        <ele>529</ele>
        <time>2018-05-22T07:25:23Z</time>
      </trkpt>
      <trkpt lat="42.622149959206581" lon="-6.834384994581342">
        <ele>534</ele>
        <time>2018-05-22T07:25:28Z</time>
      </trkpt>
      <trkpt lat="42.622244004160166" lon="-6.834303019568324">
        <ele>534</ele>
        <time>2018-05-22T07:25:31Z</time>
      </trkpt>
      <trkpt lat="42.622345006093383" lon="-6.834194976836443">
        <ele>534</ele>
        <time>2018-05-22T07:25:35Z</time>
      </trkpt>
      <trkpt lat="42.622434021905065" lon="-6.834046030417085">
        <ele>534</ele>
        <time>2018-05-22T07:25:39Z</time>
      </trkpt>
      <trkpt lat="42.622538041323423" lon="-6.833918960765004">
        <ele>534</ele>
        <time>2018-05-22T07:25:43Z</time>
      </trkpt>
      <trkpt lat="42.62263803742826" lon="-6.833765991032124">
        <ele>534</ele>
        <time>2018-05-22T07:25:48Z</time>
      </trkpt>
      <trkpt lat="42.622759994119406" lon="-6.833573961630464">
        <ele>527</ele>
        <time>2018-05-22T07:25:53Z</time>
      </trkpt>
      <trkpt lat="42.622835012152791" lon="-6.833442030474544">
        <ele>527</ele>
        <time>2018-05-22T07:25:57Z</time>
      </trkpt>
      <trkpt lat="42.622893014922738" lon="-6.833296017721295">
        <ele>527</ele>
        <time>2018-05-22T07:26:01Z</time>
      </trkpt>
      <trkpt lat="42.622969038784504" lon="-6.833082027733326">
        <ele>553</ele>
        <time>2018-05-22T07:26:06Z</time>
      </trkpt>
      <trkpt lat="42.623020000755787" lon="-6.832997035235167">
        <ele>553</ele>
        <time>2018-05-22T07:26:08Z</time>
      </trkpt>
      <trkpt lat="42.623057970777154" lon="-6.83283400721848">
        <ele>553</ele>
        <time>2018-05-22T07:26:12Z</time>
      </trkpt>
      <trkpt lat="42.623075991868973" lon="-6.832782039418817">
        <ele>542</ele>
        <time>2018-05-22T07:26:13Z</time>
      </trkpt>
      <trkpt lat="42.623099964112043" lon="-6.832724958658218">
        <ele>542</ele>
        <time>2018-05-22T07:26:15Z</time>
      </trkpt>
      <trkpt lat="42.623109016567469" lon="-6.832655975595117">
        <ele>542</ele>
        <time>2018-05-22T07:26:16Z</time>
      </trkpt>
      <trkpt lat="42.623127959668636" lon="-6.832604007795453">
        <ele>542</ele>
        <time>2018-05-22T07:26:17Z</time>
      </trkpt>
      <trkpt lat="42.623145980760455" lon="-6.832564026117325">
        <ele>542</ele>
        <time>2018-05-22T07:26:18Z</time>
      </trkpt>
      <trkpt lat="42.623156039044261" lon="-6.832500994205475">
        <ele>542</ele>
        <time>2018-05-22T07:26:20Z</time>
      </trkpt>
      <trkpt lat="42.623159978538752" lon="-6.832449026405811">
        <ele>542</ele>
        <time>2018-05-22T07:26:21Z</time>
      </trkpt>
      <trkpt lat="42.623165007680655" lon="-6.832392029464245">
        <ele>542</ele>
        <time>2018-05-22T07:26:22Z</time>
      </trkpt>
      <trkpt lat="42.623179005458951" lon="-6.83233997784555">
        <ele>542</ele>
        <time>2018-05-22T07:26:23Z</time>
      </trkpt>
      <trkpt lat="42.623187974095345" lon="-6.832282980903983">
        <ele>542</ele>
        <time>2018-05-22T07:26:25Z</time>
      </trkpt>
      <trkpt lat="42.62319803237915" lon="-6.832224978134036">
        <ele>542</ele>
        <time>2018-05-22T07:26:26Z</time>
      </trkpt>
      <trkpt lat="42.623215969651937" lon="-6.83218901976943">
        <ele>542</ele>
        <time>2018-05-22T07:26:27Z</time>
      </trkpt>
      <trkpt lat="42.623229967430234" lon="-6.832143003121018">
        <ele>542</ele>
        <time>2018-05-22T07:26:28Z</time>
      </trkpt>
      <trkpt lat="42.623229967430234" lon="-6.832063039764762">
        <ele>542</ele>
        <time>2018-05-22T07:26:30Z</time>
      </trkpt>
      <trkpt lat="42.62324002571404" lon="-6.831981986761093">
        <ele>532</ele>
        <time>2018-05-22T07:26:31Z</time>
      </trkpt>
      <trkpt lat="42.623245976865292" lon="-6.831903029233217">
        <ele>532</ele>
        <time>2018-05-22T07:26:33Z</time>
      </trkpt>
      <trkpt lat="42.623250000178814" lon="-6.831850977614522">
        <ele>532</ele>
        <time>2018-05-22T07:26:34Z</time>
      </trkpt>
      <trkpt lat="42.623259974643588" lon="-6.831805966794491">
        <ele>532</ele>
        <time>2018-05-22T07:26:35Z</time>
      </trkpt>
      <trkpt lat="42.623259974643588" lon="-6.831753998994827">
        <ele>532</ele>
        <time>2018-05-22T07:26:37Z</time>
      </trkpt>
      <trkpt lat="42.623273972421885" lon="-6.83169599622488">
        <ele>532</ele>
        <time>2018-05-22T07:26:38Z</time>
      </trkpt>
      <trkpt lat="42.62328302487731" lon="-6.831628018990159">
        <ele>532</ele>
        <time>2018-05-22T07:26:39Z</time>
      </trkpt>
      <trkpt lat="42.623287970200181" lon="-6.831559035927057">
        <ele>532</ele>
        <time>2018-05-22T07:26:41Z</time>
      </trkpt>
      <trkpt lat="42.623305991292" lon="-6.831506984308362">
        <ele>532</ele>
        <time>2018-05-22T07:26:42Z</time>
      </trkpt>
      <trkpt lat="42.623315965756774" lon="-6.831444036215544">
        <ele>532</ele>
        <time>2018-05-22T07:26:44Z</time>
      </trkpt>
      <trkpt lat="42.623325018212199" lon="-6.831391984596849">
        <ele>532</ele>
        <time>2018-05-22T07:26:45Z</time>
      </trkpt>
      <trkpt lat="42.62332996353507" lon="-6.831340016797185">
        <ele>532</ele>
        <time>2018-05-22T07:26:46Z</time>
      </trkpt>
      <trkpt lat="42.62332996353507" lon="-6.831276984885335">
        <ele>532</ele>
        <time>2018-05-22T07:26:47Z</time>
      </trkpt>
      <trkpt lat="42.623339015990496" lon="-6.831219987943769">
        <ele>532</ele>
        <time>2018-05-22T07:26:48Z</time>
      </trkpt>
      <trkpt lat="42.623339015990496" lon="-6.831168020144105">
        <ele>526</ele>
        <time>2018-05-22T07:26:50Z</time>
      </trkpt>
      <trkpt lat="42.623339015990496" lon="-6.831104988232255">
        <ele>526</ele>
        <time>2018-05-22T07:26:51Z</time>
      </trkpt>
      <trkpt lat="42.623339015990496" lon="-6.831053020432591">
        <ele>526</ele>
        <time>2018-05-22T07:26:52Z</time>
      </trkpt>
      <trkpt lat="42.623339015990496" lon="-6.830996023491025">
        <ele>526</ele>
        <time>2018-05-22T07:26:53Z</time>
      </trkpt>
      <trkpt lat="42.623339015990496" lon="-6.830938020721078">
        <ele>526</ele>
        <time>2018-05-22T07:26:55Z</time>
      </trkpt>
      <trkpt lat="42.623339015990496" lon="-6.830881023779512">
        <ele>526</ele>
        <time>2018-05-22T07:26:56Z</time>
      </trkpt>
      <trkpt lat="42.623339015990496" lon="-6.830823021009564">
        <ele>526</ele>
        <time>2018-05-22T07:26:57Z</time>
      </trkpt>
      <trkpt lat="42.623333986848593" lon="-6.830766024067998">
        <ele>526</ele>
        <time>2018-05-22T07:26:58Z</time>
      </trkpt>
      <trkpt lat="42.623333986848593" lon="-6.830702992156148">
        <ele>526</ele>
        <time>2018-05-22T07:27:00Z</time>
      </trkpt>
      <trkpt lat="42.623333986848593" lon="-6.830639960244298">
        <ele>526</ele>
        <time>2018-05-22T07:27:01Z</time>
      </trkpt>
      <trkpt lat="42.623333986848593" lon="-6.830583969131112">
        <ele>526</ele>
        <time>2018-05-22T07:27:02Z</time>
      </trkpt>
      <trkpt lat="42.623319989070296" lon="-6.830532001331449">
        <ele>526</ele>
        <time>2018-05-22T07:27:04Z</time>
      </trkpt>
      <trkpt lat="42.623315965756774" lon="-6.830481039360166">
        <ele>526</ele>
        <time>2018-05-22T07:27:05Z</time>
      </trkpt>
      <trkpt lat="42.623291993513703" lon="-6.830439968034625">
        <ele>526</ele>
        <time>2018-05-22T07:27:06Z</time>
      </trkpt>
      <trkpt lat="42.623273972421885" lon="-6.830389006063342">
        <ele>526</ele>
        <time>2018-05-22T07:27:07Z</time>
      </trkpt>
      <trkpt lat="42.623255029320717" lon="-6.83034298941493">
        <ele>533</ele>
        <time>2018-05-22T07:27:08Z</time>
      </trkpt>
      <trkpt lat="42.623236002400517" lon="-6.830291021615267">
        <ele>533</ele>
        <time>2018-05-22T07:27:09Z</time>
      </trkpt>
      <trkpt lat="42.623223010450602" lon="-6.830245004966855">
        <ele>533</ele>
        <time>2018-05-22T07:27:11Z</time>
      </trkpt>
      <trkpt lat="42.623209012672305" lon="-6.830188008025289">
        <ele>533</ele>
        <time>2018-05-22T07:27:12Z</time>
      </trkpt>
      <trkpt lat="42.623185040429235" lon="-6.830141991376877">
        <ele>533</ele>
        <time>2018-05-22T07:27:13Z</time>
      </trkpt>
      <trkpt lat="42.623161990195513" lon="-6.830095974728465">
        <ele>533</ele>
        <time>2018-05-22T07:27:14Z</time>
      </trkpt>
      <trkpt lat="42.62313399463892" lon="-6.830055993050337">
        <ele>533</ele>
        <time>2018-05-22T07:27:15Z</time>
      </trkpt>
      <trkpt lat="42.623099964112043" lon="-6.830007964745164">
        <ele>533</ele>
        <time>2018-05-22T07:27:17Z</time>
      </trkpt>
      <trkpt lat="42.623067023232579" lon="-6.829973012208939">
        <ele>533</ele>
        <time>2018-05-22T07:27:18Z</time>
      </trkpt>
      <trkpt lat="42.623041961342096" lon="-6.829936970025301">
        <ele>533</ele>
        <time>2018-05-22T07:27:19Z</time>
      </trkpt>
      <trkpt lat="42.623009020462632" lon="-6.829907968640328">
        <ele>533</ele>
        <time>2018-05-22T07:27:20Z</time>
      </trkpt>
      <trkpt lat="42.622971972450614" lon="-6.829874021932483">
        <ele>533</ele>
        <time>2018-05-22T07:27:22Z</time>
      </trkpt>
      <trkpt lat="42.622943976894021" lon="-6.829838985577226">
        <ele>533</ele>
        <time>2018-05-22T07:27:23Z</time>
      </trkpt>
      <trkpt lat="42.622910030186176" lon="-6.829791041091085">
        <ele>522</ele>
        <time>2018-05-22T07:27:24Z</time>
      </trkpt>
      <trkpt lat="42.622870970517397" lon="-6.829765979200602">
        <ele>522</ele>
        <time>2018-05-22T07:27:26Z</time>
      </trkpt>
      <trkpt lat="42.622838029637933" lon="-6.829743012785912">
        <ele>522</ele>
        <time>2018-05-22T07:27:27Z</time>
      </trkpt>
      <trkpt lat="42.622800981625915" lon="-6.829732032492757">
        <ele>522</ele>
        <time>2018-05-22T07:27:28Z</time>
      </trkpt>
      <trkpt lat="42.622758988291025" lon="-6.829708982259035">
        <ele>522</ele>
        <time>2018-05-22T07:27:29Z</time>
      </trkpt>
      <trkpt lat="42.622722024098039" lon="-6.82967402972281">
        <ele>522</ele>
        <time>2018-05-22T07:27:31Z</time>
      </trkpt>
      <trkpt lat="42.62266100384295" lon="-6.829646034166217">
        <ele>522</ele>
        <time>2018-05-22T07:27:32Z</time>
      </trkpt>
      <trkpt lat="42.62261800467968" lon="-6.82963396422565">
        <ele>522</ele>
        <time>2018-05-22T07:27:34Z</time>
      </trkpt>
      <trkpt lat="42.622570982202888" lon="-6.82963396422565">
        <ele>522</ele>
        <time>2018-05-22T07:27:35Z</time>
      </trkpt>
      <trkpt lat="42.622520020231605" lon="-6.82963396422565">
        <ele>522</ele>
        <time>2018-05-22T07:27:37Z</time>
      </trkpt>
      <trkpt lat="42.622480960562825" lon="-6.829639999195933">
        <ele>522</ele>
        <time>2018-05-22T07:27:38Z</time>
      </trkpt>
      <trkpt lat="42.622442990541458" lon="-6.829646034166217">
        <ele>522</ele>
        <time>2018-05-22T07:27:39Z</time>
      </trkpt>
      <trkpt lat="42.622396973893046" lon="-6.829646034166217">
        <ele>522</ele>
        <time>2018-05-22T07:27:40Z</time>
      </trkpt>
      <trkpt lat="42.622359003871679" lon="-6.829650979489088">
        <ele>522</ele>
        <time>2018-05-22T07:27:41Z</time>
      </trkpt>
      <trkpt lat="42.622322039678693" lon="-6.829657014459372">
        <ele>522</ele>
        <time>2018-05-22T07:27:43Z</time>
      </trkpt>
      <trkpt lat="42.622284991666675" lon="-6.829662965610623">
        <ele>522</ele>
        <time>2018-05-22T07:27:44Z</time>
      </trkpt>
      <trkpt lat="42.622236963361502" lon="-6.829679980874062">
        <ele>522</ele>
        <time>2018-05-22T07:27:45Z</time>
      </trkpt>
      <trkpt lat="42.622198993340135" lon="-6.829688027501106">
        <ele>522</ele>
        <time>2018-05-22T07:27:46Z</time>
      </trkpt>
      <trkpt lat="42.622162029147148" lon="-6.829704958945513">
        <ele>522</ele>
        <time>2018-05-22T07:27:47Z</time>
      </trkpt>
      <trkpt lat="42.622120035812259" lon="-6.829716023057699">
        <ele>522</ele>
        <time>2018-05-22T07:27:49Z</time>
      </trkpt>
      <trkpt lat="42.62208198197186" lon="-6.829745024442673">
        <ele>529</ele>
        <time>2018-05-22T07:27:50Z</time>
      </trkpt>
      <trkpt lat="42.622044011950493" lon="-6.829762039706111">
        <ele>529</ele>
        <time>2018-05-22T07:27:51Z</time>
      </trkpt>
      <trkpt lat="42.622005958110094" lon="-6.829774025827646">
        <ele>529</ele>
        <time>2018-05-22T07:27:52Z</time>
      </trkpt>
      <trkpt lat="42.621963964775205" lon="-6.82980302721262">
        <ele>529</ele>
        <time>2018-05-22T07:27:54Z</time>
      </trkpt>
      <trkpt lat="42.621921971440315" lon="-6.829814007505775">
        <ele>529</ele>
        <time>2018-05-22T07:27:55Z</time>
      </trkpt>
      <trkpt lat="42.621885007247329" lon="-6.829843008890748">
        <ele>529</ele>
        <time>2018-05-22T07:27:56Z</time>
      </trkpt>
      <trkpt lat="42.621843013912439" lon="-6.829860024154186">
        <ele>529</ele>
        <time>2018-05-22T07:27:57Z</time>
      </trkpt>
      <trkpt lat="42.621809989213943" lon="-6.829882990568876">
        <ele>529</ele>
        <time>2018-05-22T07:27:59Z</time>
      </trkpt>
      <trkpt lat="42.621763972565532" lon="-6.829906040802598">
        <ele>529</ele>
        <time>2018-05-22T07:28:00Z</time>
      </trkpt>
      <trkpt lat="42.621726002544165" lon="-6.829929007217288">
        <ele>529</ele>
        <time>2018-05-22T07:28:01Z</time>
      </trkpt>
      <trkpt lat="42.621684009209275" lon="-6.829958008602262">
        <ele>529</ele>
        <time>2018-05-22T07:28:03Z</time>
      </trkpt>
      <trkpt lat="42.621642015874386" lon="-6.829980975016952">
        <ele>529</ele>
        <time>2018-05-22T07:28:04Z</time>
      </trkpt>
      <trkpt lat="42.621601028367877" lon="-6.830004025250673">
        <ele>529</ele>
        <time>2018-05-22T07:28:05Z</time>
      </trkpt>
      <trkpt lat="42.621562974527478" lon="-6.830026991665363">
        <ele>529</ele>
        <time>2018-05-22T07:28:07Z</time>
      </trkpt>
      <trkpt lat="42.621517041698098" lon="-6.830054987221956">
        <ele>529</ele>
        <time>2018-05-22T07:28:08Z</time>
      </trkpt>
      <trkpt lat="42.621478987857699" lon="-6.830078037455678">
        <ele>529</ele>
        <time>2018-05-22T07:28:09Z</time>
      </trkpt>
      <trkpt lat="42.621446968987584" lon="-6.830101003870368">
        <ele>529</ele>
        <time>2018-05-22T07:28:10Z</time>
      </trkpt>
      <trkpt lat="42.62141402810812" lon="-6.830123970285058">
        <ele>529</ele>
        <time>2018-05-22T07:28:11Z</time>
      </trkpt>
      <trkpt lat="42.621372034773231" lon="-6.83014702051878">
        <ele>529</ele>
        <time>2018-05-22T07:28:13Z</time>
      </trkpt>
      <trkpt lat="42.621330041438341" lon="-6.83016998693347">
        <ele>529</ele>
        <time>2018-05-22T07:28:14Z</time>
      </trkpt>
      <trkpt lat="42.621297016739845" lon="-6.830198988318443">
        <ele>540</ele>
        <time>2018-05-22T07:28:15Z</time>
      </trkpt>
      <trkpt lat="42.621259968727827" lon="-6.830216003581882">
        <ele>540</ele>
        <time>2018-05-22T07:28:16Z</time>
      </trkpt>
      <trkpt lat="42.621227027848363" lon="-6.830238969996572">
        <ele>540</ele>
        <time>2018-05-22T07:28:18Z</time>
      </trkpt>
      <trkpt lat="42.621189979836345" lon="-6.830262020230293">
        <ele>540</ele>
        <time>2018-05-22T07:28:19Z</time>
      </trkpt>
      <trkpt lat="42.621153015643358" lon="-6.830279035493732">
        <ele>540</ele>
        <time>2018-05-22T07:28:20Z</time>
      </trkpt>
      <trkpt lat="42.621118985116482" lon="-6.830296972766519">
        <ele>540</ele>
        <time>2018-05-22T07:28:21Z</time>
      </trkpt>
      <trkpt lat="42.621081015095115" lon="-6.830302001908422">
        <ele>540</ele>
        <time>2018-05-22T07:28:22Z</time>
      </trkpt>
      <trkpt lat="42.621039021760225" lon="-6.830324968323112">
        <ele>540</ele>
        <time>2018-05-22T07:28:23Z</time>
      </trkpt>
      <trkpt lat="42.621001973748207" lon="-6.83034198358655">
        <ele>540</ele>
        <time>2018-05-22T07:28:25Z</time>
      </trkpt>
      <trkpt lat="42.620959980413318" lon="-6.830360004678369">
        <ele>540</ele>
        <time>2018-05-22T07:28:26Z</time>
      </trkpt>
      <trkpt lat="42.620917987078428" lon="-6.830394035205245">
        <ele>522</ele>
        <time>2018-05-22T07:28:27Z</time>
      </trkpt>
      <trkpt lat="42.620884962379932" lon="-6.830417001619935">
        <ele>522</ele>
        <time>2018-05-22T07:28:29Z</time>
      </trkpt>
      <trkpt lat="42.620853027328849" lon="-6.830439968034625">
        <ele>522</ele>
        <time>2018-05-22T07:28:30Z</time>
      </trkpt>
      <trkpt lat="42.62081497348845" lon="-6.830463018268347">
        <ele>522</ele>
        <time>2018-05-22T07:28:31Z</time>
      </trkpt>
      <trkpt lat="42.620778009295464" lon="-6.830480033531785">
        <ele>522</ele>
        <time>2018-05-22T07:28:32Z</time>
      </trkpt>
      <trkpt lat="42.620731992647052" lon="-6.830480033531785">
        <ele>522</ele>
        <time>2018-05-22T07:28:33Z</time>
      </trkpt>
      <trkpt lat="42.620689999312162" lon="-6.830480033531785">
        <ele>522</ele>
        <time>2018-05-22T07:28:35Z</time>
      </trkpt>
      <trkpt lat="42.620649011805654" lon="-6.830480033531785">
        <ele>522</ele>
        <time>2018-05-22T07:28:36Z</time>
      </trkpt>
      <trkpt lat="42.620378024876118" lon="-6.830472992733121">
        <ele>522</ele>
        <time>2018-05-22T07:28:44Z</time>
      </trkpt>
      <trkpt lat="42.620200999081135" lon="-6.830430999398232">
        <ele>522</ele>
        <time>2018-05-22T07:28:49Z</time>
      </trkpt>
      <trkpt lat="42.620099997147918" lon="-6.830399986356497">
        <ele>522</ele>
        <time>2018-05-22T07:28:52Z</time>
      </trkpt>
      <trkpt lat="42.619871003553271" lon="-6.830280963331461">
        <ele>538</ele>
        <time>2018-05-22T07:28:59Z</time>
      </trkpt>
      <trkpt lat="42.619689032435417" lon="-6.83019001968205">
        <ele>538</ele>
        <time>2018-05-22T07:29:05Z</time>
      </trkpt>
      <trkpt lat="42.619513012468815" lon="-6.830086000263691">
        <ele>526</ele>
        <time>2018-05-22T07:29:11Z</time>
      </trkpt>
      <trkpt lat="42.619270021095872" lon="-6.829948034137487">
        <ele>526</ele>
        <time>2018-05-22T07:29:19Z</time>
      </trkpt>
      <trkpt lat="42.61896600946784" lon="-6.829823981970549">
        <ele>526</ele>
        <time>2018-05-22T07:29:28Z</time>
      </trkpt>
      <trkpt lat="42.618846986442804" lon="-6.829747036099434">
        <ele>526</ele>
        <time>2018-05-22T07:29:32Z</time>
      </trkpt>
      <trkpt lat="42.61864498257637" lon="-6.82965500280261">
        <ele>523</ele>
        <time>2018-05-22T07:29:38Z</time>
      </trkpt>
      <trkpt lat="42.618453959003091" lon="-6.829503960907459">
        <ele>526</ele>
        <time>2018-05-22T07:29:45Z</time>
      </trkpt>
      <trkpt lat="42.618348011747003" lon="-6.829427015036345">
        <ele>526</ele>
        <time>2018-05-22T07:29:48Z</time>
      </trkpt>
      <trkpt lat="42.61832001619041" lon="-6.829399019479752">
        <ele>526</ele>
        <time>2018-05-22T07:29:49Z</time>
      </trkpt>
      <trkpt lat="42.618286991491914" lon="-6.829363983124495">
        <ele>526</ele>
        <time>2018-05-22T07:29:51Z</time>
      </trkpt>
      <trkpt lat="42.61825698427856" lon="-6.829321989789605">
        <ele>526</ele>
        <time>2018-05-22T07:29:52Z</time>
      </trkpt>
      <trkpt lat="42.618237035349011" lon="-6.829279996454716">
        <ele>526</ele>
        <time>2018-05-22T07:29:53Z</time>
      </trkpt>
      <trkpt lat="42.618217002600431" lon="-6.829231968149543">
        <ele>526</ele>
        <time>2018-05-22T07:29:54Z</time>
      </trkpt>
      <trkpt lat="42.618189007043839" lon="-6.829186035320163">
        <ele>526</ele>
        <time>2018-05-22T07:29:56Z</time>
      </trkpt>
      <trkpt lat="42.618164028972387" lon="-6.829143958166242">
        <ele>526</ele>
        <time>2018-05-22T07:29:57Z</time>
      </trkpt>
      <trkpt lat="42.618143996223807" lon="-6.829100959002972">
        <ele>526</ele>
        <time>2018-05-22T07:29:58Z</time>
      </trkpt>
      <trkpt lat="42.618110971525311" lon="-6.829056032001972">
        <ele>526</ele>
        <time>2018-05-22T07:29:59Z</time>
      </trkpt>
      <trkpt lat="42.618082975968719" lon="-6.82901001535356">
        <ele>526</ele>
        <time>2018-05-22T07:30:01Z</time>
      </trkpt>
      <trkpt lat="42.618054980412126" lon="-6.828986965119839">
        <ele>526</ele>
        <time>2018-05-22T07:30:02Z</time>
      </trkpt>
      <trkpt lat="42.618032013997436" lon="-6.828928962349892">
        <ele>526</ele>
        <time>2018-05-22T07:30:03Z</time>
      </trkpt>
      <trkpt lat="42.618012987077236" lon="-6.828871965408325">
        <ele>526</ele>
        <time>2018-05-22T07:30:04Z</time>
      </trkpt>
      <trkpt lat="42.618004018440843" lon="-6.828819997608662">
        <ele>526</ele>
        <time>2018-05-22T07:30:06Z</time>
      </trkpt>
      <trkpt lat="42.617984991520643" lon="-6.82877398096025">
        <ele>526</ele>
        <time>2018-05-22T07:30:07Z</time>
      </trkpt>
      <trkpt lat="42.617962025105953" lon="-6.828722013160586">
        <ele>526</ele>
        <time>2018-05-22T07:30:08Z</time>
      </trkpt>
      <trkpt lat="42.61793402954936" lon="-6.828682031482458">
        <ele>516</ele>
        <time>2018-05-22T07:30:09Z</time>
      </trkpt>
      <trkpt lat="42.617920031771064" lon="-6.828629979863763">
        <ele>516</ele>
        <time>2018-05-22T07:30:11Z</time>
      </trkpt>
      <trkpt lat="42.617892036214471" lon="-6.828572982922196">
        <ele>516</ele>
        <time>2018-05-22T07:30:12Z</time>
      </trkpt>
      <trkpt lat="42.617878038436174" lon="-6.828533001244068">
        <ele>516</ele>
        <time>2018-05-22T07:30:13Z</time>
      </trkpt>
      <trkpt lat="42.61784803122282" lon="-6.828470975160599">
        <ele>516</ele>
        <time>2018-05-22T07:30:15Z</time>
      </trkpt>
      <trkpt lat="42.617830010131001" lon="-6.828424958512187">
        <ele>516</ele>
        <time>2018-05-22T07:30:16Z</time>
      </trkpt>
      <trkpt lat="42.617806037887931" lon="-6.828356981277466">
        <ele>516</ele>
        <time>2018-05-22T07:30:17Z</time>
      </trkpt>
      <trkpt lat="42.617782987654209" lon="-6.828287998214364">
        <ele>516</ele>
        <time>2018-05-22T07:30:19Z</time>
      </trkpt>
      <trkpt lat="42.61776396073401" lon="-6.828241981565952">
        <ele>516</ele>
        <time>2018-05-22T07:30:20Z</time>
      </trkpt>
      <trkpt lat="42.617754992097616" lon="-6.828188002109528">
        <ele>516</ele>
        <time>2018-05-22T07:30:21Z</time>
      </trkpt>
      <trkpt lat="42.61774099431932" lon="-6.828131005167961">
        <ele>516</ele>
        <time>2018-05-22T07:30:23Z</time>
      </trkpt>
      <trkpt lat="42.61771802790463" lon="-6.828073002398014">
        <ele>516</ele>
        <time>2018-05-22T07:30:24Z</time>
      </trkpt>
      <trkpt lat="42.61769900098443" lon="-6.828021034598351">
        <ele>516</ele>
        <time>2018-05-22T07:30:25Z</time>
      </trkpt>
      <trkpt lat="42.61767603456974" lon="-6.827964037656784">
        <ele>516</ele>
        <time>2018-05-22T07:30:27Z</time>
      </trkpt>
      <trkpt lat="42.617662036791444" lon="-6.827918021008372">
        <ele>516</ele>
        <time>2018-05-22T07:30:28Z</time>
      </trkpt>
      <trkpt lat="42.617643009871244" lon="-6.827861024066806">
        <ele>521</ele>
        <time>2018-05-22T07:30:29Z</time>
      </trkpt>
      <trkpt lat="42.617615014314651" lon="-6.827808972448111">
        <ele>521</ele>
        <time>2018-05-22T07:30:31Z</time>
      </trkpt>
      <trkpt lat="42.617601016536355" lon="-6.827757004648447">
        <ele>521</ele>
        <time>2018-05-22T07:30:32Z</time>
      </trkpt>
      <trkpt lat="42.617581989616156" lon="-6.827710988000035">
        <ele>521</ele>
        <time>2018-05-22T07:30:33Z</time>
      </trkpt>
      <trkpt lat="42.61756899766624" lon="-6.827660026028752">
        <ele>521</ele>
        <time>2018-05-22T07:30:34Z</time>
      </trkpt>
      <trkpt lat="42.617559023201466" lon="-6.827614009380341">
        <ele>521</ele>
        <time>2018-05-22T07:30:35Z</time>
      </trkpt>
      <trkpt lat="42.617545025423169" lon="-6.827567992731929">
        <ele>521</ele>
        <time>2018-05-22T07:30:36Z</time>
      </trkpt>
      <trkpt lat="42.617516024038196" lon="-6.827524993568659">
        <ele>521</ele>
        <time>2018-05-22T07:30:38Z</time>
      </trkpt>
      <trkpt lat="42.617491967976093" lon="-6.827479982748628">
        <ele>521</ele>
        <time>2018-05-22T07:30:39Z</time>
      </trkpt>
      <trkpt lat="42.61746296659112" lon="-6.827419968321919">
        <ele>521</ele>
        <time>2018-05-22T07:30:40Z</time>
      </trkpt>
      <trkpt lat="42.617444023489952" lon="-6.827368000522256">
        <ele>521</ele>
        <time>2018-05-22T07:30:42Z</time>
      </trkpt>
      <trkpt lat="42.617430025711656" lon="-6.827308991923928">
        <ele>521</ele>
        <time>2018-05-22T07:30:43Z</time>
      </trkpt>
      <trkpt lat="42.617316031828523" lon="-6.827078992500901">
        <ele>521</ele>
        <time>2018-05-22T07:30:49Z</time>
      </trkpt>
      <trkpt lat="42.617241013795137" lon="-6.826942032203078">
        <ele>540</ele>
        <time>2018-05-22T07:30:53Z</time>
      </trkpt>
      <trkpt lat="42.617241013795137" lon="-6.826926022768021">
        <ele>540</ele>
        <time>2018-05-22T07:30:53Z</time>
      </trkpt>
      <trkpt lat="42.617212012410164" lon="-6.826848993077874">
        <ele>540</ele>
        <time>2018-05-22T07:30:55Z</time>
      </trkpt>
      <trkpt lat="42.617177981883287" lon="-6.826751008629799">
        <ele>526</ele>
        <time>2018-05-22T07:30:57Z</time>
      </trkpt>
      <trkpt lat="42.617138000205159" lon="-6.826676996424794">
        <ele>540</ele>
        <time>2018-05-22T07:30:59Z</time>
      </trkpt>
      <trkpt lat="42.617098018527031" lon="-6.826599966734648">
        <ele>516</ele>
        <time>2018-05-22T07:31:02Z</time>
      </trkpt>
      <trkpt lat="42.617064993828535" lon="-6.826542969793081">
        <ele>516</ele>
        <time>2018-05-22T07:31:03Z</time>
      </trkpt>
      <trkpt lat="42.617038004100323" lon="-6.826484967023134">
        <ele>516</ele>
        <time>2018-05-22T07:31:05Z</time>
      </trkpt>
      <trkpt lat="42.616998022422194" lon="-6.826427970081568">
        <ele>516</ele>
        <time>2018-05-22T07:31:06Z</time>
      </trkpt>
      <trkpt lat="42.616958040744066" lon="-6.826367033645511">
        <ele>516</ele>
        <time>2018-05-22T07:31:08Z</time>
      </trkpt>
      <trkpt lat="42.61692501604557" lon="-6.8263019900769">
        <ele>516</ele>
        <time>2018-05-22T07:31:10Z</time>
      </trkpt>
      <trkpt lat="42.616891991347075" lon="-6.82623602449894">
        <ele>516</ele>
        <time>2018-05-22T07:31:12Z</time>
      </trkpt>
      <trkpt lat="42.616852009668946" lon="-6.826170980930328">
        <ele>516</ele>
        <time>2018-05-22T07:31:13Z</time>
      </trkpt>
      <trkpt lat="42.616802975535393" lon="-6.82610996067524">
        <ele>526</ele>
        <time>2018-05-22T07:31:15Z</time>
      </trkpt>
      <trkpt lat="42.616756036877632" lon="-6.826077019795775">
        <ele>526</ele>
        <time>2018-05-22T07:31:17Z</time>
      </trkpt>
      <trkpt lat="42.61671002022922" lon="-6.826020022854209">
        <ele>526</ele>
        <time>2018-05-22T07:31:19Z</time>
      </trkpt>
      <trkpt lat="42.616670038551092" lon="-6.825963025912643">
        <ele>526</ele>
        <time>2018-05-22T07:31:20Z</time>
      </trkpt>
      <trkpt lat="42.616629973053932" lon="-6.825912985950708">
        <ele>526</ele>
        <time>2018-05-22T07:31:22Z</time>
      </trkpt>
      <trkpt lat="42.61658102273941" lon="-6.825878033414483">
        <ele>526</ele>
        <time>2018-05-22T07:31:24Z</time>
      </trkpt>
      <trkpt lat="42.616534000262618" lon="-6.825827993452549">
        <ele>526</ele>
        <time>2018-05-22T07:31:25Z</time>
      </trkpt>
      <trkpt lat="42.616481026634574" lon="-6.82578700594604">
        <ele>526</ele>
        <time>2018-05-22T07:31:27Z</time>
      </trkpt>
      <trkpt lat="42.616427969187498" lon="-6.825754987075925">
        <ele>526</ele>
        <time>2018-05-22T07:31:29Z</time>
      </trkpt>
      <trkpt lat="42.616394022479653" lon="-6.825696984305978">
        <ele>526</ele>
        <time>2018-05-22T07:31:31Z</time>
      </trkpt>
      <trkpt lat="42.616310035809875" lon="-6.825604028999806">
        <ele>526</ele>
        <time>2018-05-22T07:31:34Z</time>
      </trkpt>
      <trkpt lat="42.616269970312715" lon="-6.825563041493297">
        <ele>512</ele>
        <time>2018-05-22T07:31:35Z</time>
      </trkpt>
      <trkpt lat="42.616229988634586" lon="-6.825521970167756">
        <ele>512</ele>
        <time>2018-05-22T07:31:37Z</time>
      </trkpt>
      <trkpt lat="42.616182966157794" lon="-6.825489029288292">
        <ele>512</ele>
        <time>2018-05-22T07:31:38Z</time>
      </trkpt>
      <trkpt lat="42.616134015843272" lon="-6.825429014861584">
        <ele>512</ele>
        <time>2018-05-22T07:31:40Z</time>
      </trkpt>
      <trkpt lat="42.616094034165144" lon="-6.82537998072803">
        <ele>512</ele>
        <time>2018-05-22T07:31:42Z</time>
      </trkpt>
      <trkpt lat="42.616061009466648" lon="-6.825338993221521">
        <ele>512</ele>
        <time>2018-05-22T07:31:43Z</time>
      </trkpt>
      <trkpt lat="42.616005018353462" lon="-6.825294988229871">
        <ele>512</ele>
        <time>2018-05-22T07:31:45Z</time>
      </trkpt>
      <trkpt lat="42.615930000320077" lon="-6.825277972966433">
        <ele>523</ele>
        <time>2018-05-22T07:31:47Z</time>
      </trkpt>
      <trkpt lat="42.615764960646629" lon="-6.825114022940397">
        <ele>523</ele>
        <time>2018-05-22T07:31:54Z</time>
      </trkpt>
      <trkpt lat="42.615647027269006" lon="-6.825024001300335">
        <ele>523</ele>
        <time>2018-05-22T07:31:58Z</time>
      </trkpt>
      <trkpt lat="42.615514006465673" lon="-6.824898021295667">
        <ele>523</ele>
        <time>2018-05-22T07:32:02Z</time>
      </trkpt>
      <trkpt lat="42.615477964282036" lon="-6.824857033789158">
        <ele>523</ele>
        <time>2018-05-22T07:32:04Z</time>
      </trkpt>
      <trkpt lat="42.615431025624275" lon="-6.824829960241914">
        <ele>511</ele>
        <time>2018-05-22T07:32:05Z</time>
      </trkpt>
      <trkpt lat="42.615385008975863" lon="-6.82479701936245">
        <ele>511</ele>
        <time>2018-05-22T07:32:07Z</time>
      </trkpt>
      <trkpt lat="42.61533597484231" lon="-6.824760977178812">
        <ele>511</ele>
        <time>2018-05-22T07:32:08Z</time>
      </trkpt>
      <trkpt lat="42.615306973457336" lon="-6.824703980237246">
        <ele>511</ele>
        <time>2018-05-22T07:32:10Z</time>
      </trkpt>
      <trkpt lat="42.615277972072363" lon="-6.824645977467299">
        <ele>511</ele>
        <time>2018-05-22T07:32:11Z</time>
      </trkpt>
      <trkpt lat="42.615237990394235" lon="-6.824597027152777">
        <ele>511</ele>
        <time>2018-05-22T07:32:13Z</time>
      </trkpt>
      <trkpt lat="42.615200020372868" lon="-6.824544975534082">
        <ele>511</ele>
        <time>2018-05-22T07:32:15Z</time>
      </trkpt>
      <trkpt lat="42.61516397818923" lon="-6.824503988027573">
        <ele>511</ele>
        <time>2018-05-22T07:32:16Z</time>
      </trkpt>
      <trkpt lat="42.615072028711438" lon="-6.824340038001537">
        <ele>517</ele>
        <time>2018-05-22T07:32:21Z</time>
      </trkpt>
      <trkpt lat="42.615046966820955" lon="-6.8242849688977">
        <ele>517</ele>
        <time>2018-05-22T07:32:22Z</time>
      </trkpt>
      <trkpt lat="42.615020982921124" lon="-6.82421900331974">
        <ele>517</ele>
        <time>2018-05-22T07:32:24Z</time>
      </trkpt>
      <trkpt lat="42.614987036213279" lon="-6.824137028306723">
        <ele>517</ele>
        <time>2018-05-22T07:32:26Z</time>
      </trkpt>
      <trkpt lat="42.614973960444331" lon="-6.824054969474673">
        <ele>517</ele>
        <time>2018-05-22T07:32:27Z</time>
      </trkpt>
      <trkpt lat="42.614946970716119" lon="-6.823956985026598">
        <ele>517</ele>
        <time>2018-05-22T07:32:30Z</time>
      </trkpt>
      <trkpt lat="42.614933978766203" lon="-6.823882972821593">
        <ele>517</ele>
        <time>2018-05-22T07:32:31Z</time>
      </trkpt>
      <trkpt lat="42.614927021786571" lon="-6.823797980323434">
        <ele>517</ele>
        <time>2018-05-22T07:32:33Z</time>
      </trkpt>
      <trkpt lat="42.614927021786571" lon="-6.823723968118429">
        <ele>517</ele>
        <time>2018-05-22T07:32:35Z</time>
      </trkpt>
      <trkpt lat="42.614927021786571" lon="-6.823647022247315">
        <ele>521</ele>
        <time>2018-05-22T07:32:37Z</time>
      </trkpt>
      <trkpt lat="42.614927021786571" lon="-6.82357401587069">
        <ele>521</ele>
        <time>2018-05-22T07:32:38Z</time>
      </trkpt>
      <trkpt lat="42.614927021786571" lon="-6.823500003665686">
        <ele>521</ele>
        <time>2018-05-22T07:32:40Z</time>
      </trkpt>
      <trkpt lat="42.614927021786571" lon="-6.823425991460681">
        <ele>521</ele>
        <time>2018-05-22T07:32:41Z</time>
      </trkpt>
      <trkpt lat="42.614927021786571" lon="-6.823344016447663">
        <ele>521</ele>
        <time>2018-05-22T07:32:43Z</time>
      </trkpt>
      <trkpt lat="42.614933978766203" lon="-6.823270004242659">
        <ele>521</ele>
        <time>2018-05-22T07:32:45Z</time>
      </trkpt>
      <trkpt lat="42.614946970716119" lon="-6.823195992037654">
        <ele>521</ele>
        <time>2018-05-22T07:32:46Z</time>
      </trkpt>
      <trkpt lat="42.614960968494415" lon="-6.823121979832649">
        <ele>521</ele>
        <time>2018-05-22T07:32:48Z</time>
      </trkpt>
      <trkpt lat="42.614981001242995" lon="-6.823064982891083">
        <ele>521</ele>
        <time>2018-05-22T07:32:49Z</time>
      </trkpt>
      <trkpt lat="42.614987036213279" lon="-6.822990970686078">
        <ele>521</ele>
        <time>2018-05-22T07:32:51Z</time>
      </trkpt>
      <trkpt lat="42.614993993192911" lon="-6.822916958481073">
        <ele>521</ele>
        <time>2018-05-22T07:32:53Z</time>
      </trkpt>
      <trkpt lat="42.615001033991575" lon="-6.822834983468056">
        <ele>521</ele>
        <time>2018-05-22T07:32:55Z</time>
      </trkpt>
      <trkpt lat="42.615016037598252" lon="-6.822767006233335">
        <ele>516</ele>
        <time>2018-05-22T07:32:56Z</time>
      </trkpt>
      <trkpt lat="42.615030035376549" lon="-6.822689976543188">
        <ele>516</ele>
        <time>2018-05-22T07:32:58Z</time>
      </trkpt>
      <trkpt lat="42.615035986527801" lon="-6.82260800153017">
        <ele>516</ele>
        <time>2018-05-22T07:33:00Z</time>
      </trkpt>
      <trkpt lat="42.615043027326465" lon="-6.822526026517153">
        <ele>516</ele>
        <time>2018-05-22T07:33:01Z</time>
      </trkpt>
      <trkpt lat="42.615056019276381" lon="-6.822441034018993">
        <ele>516</ele>
        <time>2018-05-22T07:33:03Z</time>
      </trkpt>
      <trkpt lat="42.615070017054677" lon="-6.822360986843705">
        <ele>516</ele>
        <time>2018-05-22T07:33:05Z</time>
      </trkpt>
      <trkpt lat="42.615070017054677" lon="-6.822275994345546">
        <ele>516</ele>
        <time>2018-05-22T07:33:07Z</time>
      </trkpt>
      <trkpt lat="42.615070017054677" lon="-6.822169963270426">
        <ele>516</ele>
        <time>2018-05-22T07:33:09Z</time>
      </trkpt>
      <trkpt lat="42.615070017054677" lon="-6.82207097299397">
        <ele>516</ele>
        <time>2018-05-22T07:33:11Z</time>
      </trkpt>
      <trkpt lat="42.615070017054677" lon="-6.821997966617346">
        <ele>520</ele>
        <time>2018-05-22T07:33:13Z</time>
      </trkpt>
      <trkpt lat="42.615056019276381" lon="-6.821932001039386">
        <ele>520</ele>
        <time>2018-05-22T07:33:14Z</time>
      </trkpt>
      <trkpt lat="42.615043027326465" lon="-6.821857988834381">
        <ele>520</ele>
        <time>2018-05-22T07:33:16Z</time>
      </trkpt>
      <trkpt lat="42.615035986527801" lon="-6.821776013821363">
        <ele>520</ele>
        <time>2018-05-22T07:33:18Z</time>
      </trkpt>
      <trkpt lat="42.615016037598252" lon="-6.821698984131217">
        <ele>520</ele>
        <time>2018-05-22T07:33:20Z</time>
      </trkpt>
      <trkpt lat="42.614993993192911" lon="-6.821611979976296">
        <ele>520</ele>
        <time>2018-05-22T07:33:22Z</time>
      </trkpt>
      <trkpt lat="42.614967003464699" lon="-6.821562023833394">
        <ele>520</ele>
        <time>2018-05-22T07:33:23Z</time>
      </trkpt>
      <trkpt lat="42.614946970716119" lon="-6.821496980264783">
        <ele>520</ele>
        <time>2018-05-22T07:33:25Z</time>
      </trkpt>
      <trkpt lat="42.614914029836655" lon="-6.821438977494836">
        <ele>520</ele>
        <time>2018-05-22T07:33:26Z</time>
      </trkpt>
      <trkpt lat="42.614870024845004" lon="-6.821401007473469">
        <ele>520</ele>
        <time>2018-05-22T07:33:28Z</time>
      </trkpt>
      <trkpt lat="42.614833982661366" lon="-6.82133998721838">
        <ele>520</ele>
        <time>2018-05-22T07:33:29Z</time>
      </trkpt>
      <trkpt lat="42.614800035953522" lon="-6.821285001933575">
        <ele>520</ele>
        <time>2018-05-22T07:33:31Z</time>
      </trkpt>
      <trkpt lat="42.614767011255026" lon="-6.821244014427066">
        <ele>520</ele>
        <time>2018-05-22T07:33:32Z</time>
      </trkpt>
      <trkpt lat="42.614738009870052" lon="-6.821194980293512">
        <ele>520</ele>
        <time>2018-05-22T07:33:34Z</time>
      </trkpt>
      <trkpt lat="42.61469098739326" lon="-6.821153992787004">
        <ele>543</ele>
        <time>2018-05-22T07:33:35Z</time>
      </trkpt>
      <trkpt lat="42.614644970744848" lon="-6.821130020543933">
        <ele>543</ele>
        <time>2018-05-22T07:33:37Z</time>
      </trkpt>
      <trkpt lat="42.614598032087088" lon="-6.821096995845437">
        <ele>543</ele>
        <time>2018-05-22T07:33:38Z</time>
      </trkpt>
      <trkpt lat="42.614538017660379" lon="-6.821063971146941">
        <ele>523</ele>
        <time>2018-05-22T07:33:40Z</time>
      </trkpt>
      <trkpt lat="42.614486971870065" lon="-6.821052990853787">
        <ele>523</ele>
        <time>2018-05-22T07:33:42Z</time>
      </trkpt>
      <trkpt lat="42.614430980756879" lon="-6.821045028045774">
        <ele>523</ele>
        <time>2018-05-22T07:33:43Z</time>
      </trkpt>
      <trkpt lat="42.614369038492441" lon="-6.821035975590348">
        <ele>523</ele>
        <time>2018-05-22T07:33:45Z</time>
      </trkpt>
      <trkpt lat="42.614309024065733" lon="-6.821035975590348">
        <ele>523</ele>
        <time>2018-05-22T07:33:47Z</time>
      </trkpt>
      <trkpt lat="42.614253032952547" lon="-6.821035975590348">
        <ele>523</ele>
        <time>2018-05-22T07:33:49Z</time>
      </trkpt>
      <trkpt lat="42.6141950301826" lon="-6.821045028045774">
        <ele>523</ele>
        <time>2018-05-22T07:33:50Z</time>
      </trkpt>
      <trkpt lat="42.614141972735524" lon="-6.821052990853787">
        <ele>523</ele>
        <time>2018-05-22T07:33:52Z</time>
      </trkpt>
      <trkpt lat="42.614085981622338" lon="-6.821069000288844">
        <ele>523</ele>
        <time>2018-05-22T07:33:54Z</time>
      </trkpt>
      <trkpt lat="42.614030996337533" lon="-6.821076963096857">
        <ele>523</ele>
        <time>2018-05-22T07:33:55Z</time>
      </trkpt>
      <trkpt lat="42.613970981910825" lon="-6.821086015552282">
        <ele>523</ele>
        <time>2018-05-22T07:33:57Z</time>
      </trkpt>
      <trkpt lat="42.613910967484117" lon="-6.821127003058791">
        <ele>523</ele>
        <time>2018-05-22T07:33:59Z</time>
      </trkpt>
      <trkpt lat="42.613872997462749" lon="-6.821157010272145">
        <ele>523</ele>
        <time>2018-05-22T07:34:00Z</time>
      </trkpt>
      <trkpt lat="42.613825974985957" lon="-6.821181988343597">
        <ele>523</ele>
        <time>2018-05-22T07:34:02Z</time>
      </trkpt>
      <trkpt lat="42.613773001357913" lon="-6.821197997778654">
        <ele>508</ele>
        <time>2018-05-22T07:34:04Z</time>
      </trkpt>
      <trkpt lat="42.613720027729869" lon="-6.821205960586667">
        <ele>508</ele>
        <time>2018-05-22T07:34:05Z</time>
      </trkpt>
      <trkpt lat="42.613665964454412" lon="-6.821238985285163">
        <ele>508</ele>
        <time>2018-05-22T07:34:07Z</time>
      </trkpt>
      <trkpt lat="42.613610979169607" lon="-6.821247031912208">
        <ele>508</ele>
        <time>2018-05-22T07:34:09Z</time>
      </trkpt>
      <trkpt lat="42.613550964742899" lon="-6.821272009983659">
        <ele>508</ele>
        <time>2018-05-22T07:34:10Z</time>
      </trkpt>
      <trkpt lat="42.613491034135222" lon="-6.821279972791672">
        <ele>508</ele>
        <time>2018-05-22T07:34:12Z</time>
      </trkpt>
      <trkpt lat="42.613436970859766" lon="-6.821305034682155">
        <ele>508</ele>
        <time>2018-05-22T07:34:14Z</time>
      </trkpt>
      <trkpt lat="42.613360024988651" lon="-6.821320960298181">
        <ele>508</ele>
        <time>2018-05-22T07:34:16Z</time>
      </trkpt>
      <trkpt lat="42.613305961713195" lon="-6.821329006925225">
        <ele>508</ele>
        <time>2018-05-22T07:34:18Z</time>
      </trkpt>
      <trkpt lat="42.613252988085151" lon="-6.821346022188664">
        <ele>508</ele>
        <time>2018-05-22T07:34:19Z</time>
      </trkpt>
      <trkpt lat="42.613192973658442" lon="-6.821346022188664">
        <ele>508</ele>
        <time>2018-05-22T07:34:21Z</time>
      </trkpt>
      <trkpt lat="42.613136982545257" lon="-6.821346022188664">
        <ele>508</ele>
        <time>2018-05-22T07:34:23Z</time>
      </trkpt>
      <trkpt lat="42.613088032230735" lon="-6.821325989440084">
        <ele>508</ele>
        <time>2018-05-22T07:34:24Z</time>
      </trkpt>
      <trkpt lat="42.613033968955278" lon="-6.821315009146929">
        <ele>508</ele>
        <time>2018-05-22T07:34:26Z</time>
      </trkpt>
      <trkpt lat="42.61297001503408" lon="-6.821315009146929">
        <ele>508</ele>
        <time>2018-05-22T07:34:28Z</time>
      </trkpt>
      <trkpt lat="42.612838000059128" lon="-6.821251977235079">
        <ele>508</ele>
        <time>2018-05-22T07:34:32Z</time>
      </trkpt>
      <trkpt lat="42.612720988690853" lon="-6.821173019707203">
        <ele>511</ele>
        <time>2018-05-22T07:34:36Z</time>
      </trkpt>
      <trkpt lat="42.612585034221411" lon="-6.821099007502198">
        <ele>511</ele>
        <time>2018-05-22T07:34:40Z</time>
      </trkpt>
      <trkpt lat="42.61249803006649" lon="-6.821032958105207">
        <ele>511</ele>
        <time>2018-05-22T07:34:43Z</time>
      </trkpt>
      <trkpt lat="42.612419994547963" lon="-6.821000017225742">
        <ele>511</ele>
        <time>2018-05-22T07:34:46Z</time>
      </trkpt>
      <trkpt lat="42.612388981506228" lon="-6.82097302749753">
        <ele>511</ele>
        <time>2018-05-22T07:34:47Z</time>
      </trkpt>
      <trkpt lat="42.61228202842176" lon="-6.820906978100538">
        <ele>511</ele>
        <time>2018-05-22T07:34:50Z</time>
      </trkpt>
      <trkpt lat="42.612124029546976" lon="-6.82080103084445">
        <ele>511</ele>
        <time>2018-05-22T07:34:55Z</time>
      </trkpt>
      <trkpt lat="42.612114977091551" lon="-6.82080103084445">
        <ele>507</ele>
        <time>2018-05-22T07:34:56Z</time>
      </trkpt>
      <trkpt lat="42.611913979053497" lon="-6.820653006434441">
        <ele>507</ele>
        <time>2018-05-22T07:35:02Z</time>
      </trkpt>
      <trkpt lat="42.611794034019113" lon="-6.820554016157985">
        <ele>507</ele>
        <time>2018-05-22T07:35:07Z</time>
      </trkpt>
      <trkpt lat="42.611752040684223" lon="-6.820534989237785">
        <ele>507</ele>
        <time>2018-05-22T07:35:08Z</time>
      </trkpt>
      <trkpt lat="42.61170300655067" lon="-6.820494001731277">
        <ele>507</ele>
        <time>2018-05-22T07:35:10Z</time>
      </trkpt>
      <trkpt lat="42.611686997115612" lon="-6.820426024496555">
        <ele>507</ele>
        <time>2018-05-22T07:35:11Z</time>
      </trkpt>
      <trkpt lat="42.611686997115612" lon="-6.820352012291551">
        <ele>508</ele>
        <time>2018-05-22T07:35:13Z</time>
      </trkpt>
      <trkpt lat="42.611694037914276" lon="-6.820270037278533">
        <ele>508</ele>
        <time>2018-05-22T07:35:15Z</time>
      </trkpt>
      <trkpt lat="42.611707029864192" lon="-6.820186972618103">
        <ele>508</ele>
        <time>2018-05-22T07:35:17Z</time>
      </trkpt>
      <trkpt lat="42.611713986843824" lon="-6.820101980119944">
        <ele>508</ele>
        <time>2018-05-22T07:35:18Z</time>
      </trkpt>
      <trkpt lat="42.61172697879374" lon="-6.820037020370364">
        <ele>508</ele>
        <time>2018-05-22T07:35:20Z</time>
      </trkpt>
      <trkpt lat="42.611753968521953" lon="-6.819993015378714">
        <ele>508</ele>
        <time>2018-05-22T07:35:21Z</time>
      </trkpt>
      <trkpt lat="42.611782969906926" lon="-6.819924032315612">
        <ele>508</ele>
        <time>2018-05-22T07:35:23Z</time>
      </trkpt>
      <trkpt lat="42.611828986555338" lon="-6.8198780156672">
        <ele>508</ele>
        <time>2018-05-22T07:35:25Z</time>
      </trkpt>
      <trkpt lat="42.611869974061847" lon="-6.81983401067555">
        <ele>508</ele>
        <time>2018-05-22T07:35:26Z</time>
      </trkpt>
      <trkpt lat="42.611908027902246" lon="-6.819783970713615">
        <ele>508</ele>
        <time>2018-05-22T07:35:28Z</time>
      </trkpt>
      <trkpt lat="42.611942980438471" lon="-6.819735020399094">
        <ele>508</ele>
        <time>2018-05-22T07:35:29Z</time>
      </trkpt>
      <trkpt lat="42.611987991258502" lon="-6.819711970165372">
        <ele>508</ele>
        <time>2018-05-22T07:35:31Z</time>
      </trkpt>
      <trkpt lat="42.61202797293663" lon="-6.819679029285908">
        <ele>508</ele>
        <time>2018-05-22T07:35:32Z</time>
      </trkpt>
      <trkpt lat="42.612082036212087" lon="-6.819667965173721">
        <ele>508</ele>
        <time>2018-05-22T07:35:34Z</time>
      </trkpt>
      <trkpt lat="42.612135009840131" lon="-6.819640975445509">
        <ele>518</ele>
        <time>2018-05-22T07:35:35Z</time>
      </trkpt>
      <trkpt lat="42.612191000953317" lon="-6.819633012637496">
        <ele>518</ele>
        <time>2018-05-22T07:35:37Z</time>
      </trkpt>
      <trkpt lat="42.612246992066503" lon="-6.819581966847181">
        <ele>518</ele>
        <time>2018-05-22T07:35:39Z</time>
      </trkpt>
      <trkpt lat="42.61228303425014" lon="-6.819572998210788">
        <ele>518</ele>
        <time>2018-05-22T07:35:40Z</time>
      </trkpt>
      <trkpt lat="42.612336007878184" lon="-6.819565035402775">
        <ele>518</ele>
        <time>2018-05-22T07:35:42Z</time>
      </trkpt>
      <trkpt lat="42.612388981506228" lon="-6.81955698877573">
        <ele>518</ele>
        <time>2018-05-22T07:35:43Z</time>
      </trkpt>
      <trkpt lat="42.612429969012737" lon="-6.819528993219137">
        <ele>512</ele>
        <time>2018-05-22T07:35:45Z</time>
      </trkpt>
      <trkpt lat="42.612470034509897" lon="-6.819489011541009">
        <ele>512</ele>
        <time>2018-05-22T07:35:46Z</time>
      </trkpt>
      <trkpt lat="42.612508004531264" lon="-6.819450035691261">
        <ele>512</ele>
        <time>2018-05-22T07:35:48Z</time>
      </trkpt>
      <trkpt lat="42.612533988431096" lon="-6.819408964365721">
        <ele>512</ele>
        <time>2018-05-22T07:35:49Z</time>
      </trkpt>
      <trkpt lat="42.61258302256465" lon="-6.81936495937407">
        <ele>512</ele>
        <time>2018-05-22T07:35:50Z</time>
      </trkpt>
      <trkpt lat="42.612610012292862" lon="-6.819312991574407">
        <ele>512</ele>
        <time>2018-05-22T07:35:52Z</time>
      </trkpt>
      <trkpt lat="42.612658962607384" lon="-6.819272004067898">
        <ele>512</ele>
        <time>2018-05-22T07:35:54Z</time>
      </trkpt>
      <trkpt lat="42.612701039761305" lon="-6.819219030439854">
        <ele>512</ele>
        <time>2018-05-22T07:35:55Z</time>
      </trkpt>
      <trkpt lat="42.61273498646915" lon="-6.819176031276584">
        <ele>512</ele>
        <time>2018-05-22T07:35:57Z</time>
      </trkpt>
      <trkpt lat="42.612781003117561" lon="-6.819143006578088">
        <ele>512</ele>
        <time>2018-05-22T07:35:58Z</time>
      </trkpt>
      <trkpt lat="42.612815033644438" lon="-6.819093972444534">
        <ele>512</ele>
        <time>2018-05-22T07:36:00Z</time>
      </trkpt>
      <trkpt lat="42.612857026979327" lon="-6.819058014079928">
        <ele>512</ele>
        <time>2018-05-22T07:36:01Z</time>
      </trkpt>
      <trkpt lat="42.612883010879159" lon="-6.819008979946375">
        <ele>512</ele>
        <time>2018-05-22T07:36:02Z</time>
      </trkpt>
      <trkpt lat="42.612922992557287" lon="-6.818967992439866">
        <ele>512</ele>
        <time>2018-05-22T07:36:04Z</time>
      </trkpt>
      <trkpt lat="42.612965991720557" lon="-6.818929016590118">
        <ele>518</ele>
        <time>2018-05-22T07:36:05Z</time>
      </trkpt>
      <trkpt lat="42.613020977005363" lon="-6.818929016590118">
        <ele>518</ele>
        <time>2018-05-22T07:36:07Z</time>
      </trkpt>
      <trkpt lat="42.613084008917212" lon="-6.818929016590118">
        <ele>518</ele>
        <time>2018-05-22T07:36:09Z</time>
      </trkpt>
      <trkpt lat="42.613136982545257" lon="-6.818945026025176">
        <ele>518</ele>
        <time>2018-05-22T07:36:11Z</time>
      </trkpt>
      <trkpt lat="42.613196996971965" lon="-6.818962041288614">
        <ele>518</ele>
        <time>2018-05-22T07:36:12Z</time>
      </trkpt>
      <trkpt lat="42.613257011398673" lon="-6.818962041288614">
        <ele>518</ele>
        <time>2018-05-22T07:36:14Z</time>
      </trkpt>
      <trkpt lat="42.613313002511859" lon="-6.818962041288614">
        <ele>518</ele>
        <time>2018-05-22T07:36:16Z</time>
      </trkpt>
      <trkpt lat="42.613373016938567" lon="-6.818962041288614">
        <ele>518</ele>
        <time>2018-05-22T07:36:18Z</time>
      </trkpt>
      <trkpt lat="42.613437976688147" lon="-6.818962041288614">
        <ele>518</ele>
        <time>2018-05-22T07:36:20Z</time>
      </trkpt>
      <trkpt lat="42.613496985286474" lon="-6.818962041288614">
        <ele>518</ele>
        <time>2018-05-22T07:36:21Z</time>
      </trkpt>
      <trkpt lat="42.613570997491479" lon="-6.818962041288614">
        <ele>518</ele>
        <time>2018-05-22T07:36:23Z</time>
      </trkpt>
      <trkpt lat="42.613631011918187" lon="-6.818962041288614">
        <ele>518</ele>
        <time>2018-05-22T07:36:25Z</time>
      </trkpt>
      <trkpt lat="42.613696977496147" lon="-6.818962041288614">
        <ele>518</ele>
        <time>2018-05-22T07:36:27Z</time>
      </trkpt>
      <trkpt lat="42.613756991922855" lon="-6.818962041288614">
        <ele>518</ele>
        <time>2018-05-22T07:36:29Z</time>
      </trkpt>
      <trkpt lat="42.613817006349564" lon="-6.818962041288614">
        <ele>528</ele>
        <time>2018-05-22T07:36:31Z</time>
      </trkpt>
      <trkpt lat="42.613877020776272" lon="-6.818962041288614">
        <ele>528</ele>
        <time>2018-05-22T07:36:33Z</time>
      </trkpt>
      <trkpt lat="42.613929994404316" lon="-6.818945026025176">
        <ele>528</ele>
        <time>2018-05-22T07:36:34Z</time>
      </trkpt>
      <trkpt lat="42.613996965810657" lon="-6.818945026025176">
        <ele>528</ele>
        <time>2018-05-22T07:36:36Z</time>
      </trkpt>
      <trkpt lat="42.614056980237365" lon="-6.818936979398131">
        <ele>528</ele>
        <time>2018-05-22T07:36:38Z</time>
      </trkpt>
      <trkpt lat="42.614110037684441" lon="-6.818929016590118">
        <ele>528</ele>
        <time>2018-05-22T07:36:40Z</time>
      </trkpt>
      <trkpt lat="42.614164017140865" lon="-6.818920969963074">
        <ele>528</ele>
        <time>2018-05-22T07:36:41Z</time>
      </trkpt>
      <trkpt lat="42.614224031567574" lon="-6.818895991891623">
        <ele>528</ele>
        <time>2018-05-22T07:36:43Z</time>
      </trkpt>
      <trkpt lat="42.61428396217525" lon="-6.818879982456565">
        <ele>528</ele>
        <time>2018-05-22T07:36:45Z</time>
      </trkpt>
      <trkpt lat="42.614331990480423" lon="-6.818862967193127">
        <ele>528</ele>
        <time>2018-05-22T07:36:46Z</time>
      </trkpt>
      <trkpt lat="42.614381024613976" lon="-6.818835977464914">
        <ele>528</ele>
        <time>2018-05-22T07:36:48Z</time>
      </trkpt>
      <trkpt lat="42.614435004070401" lon="-6.818819968029857">
        <ele>528</ele>
        <time>2018-05-22T07:36:49Z</time>
      </trkpt>
      <trkpt lat="42.614481020718813" lon="-6.818787027150393">
        <ele>528</ele>
        <time>2018-05-22T07:36:51Z</time>
      </trkpt>
      <trkpt lat="42.614535000175238" lon="-6.818770011886954">
        <ele>528</ele>
        <time>2018-05-22T07:36:53Z</time>
      </trkpt>
      <trkpt lat="42.614574981853366" lon="-6.818736987188458">
        <ele>528</ele>
        <time>2018-05-22T07:36:54Z</time>
      </trkpt>
      <trkpt lat="42.614628039300442" lon="-6.818713014945388">
        <ele>529</ele>
        <time>2018-05-22T07:36:56Z</time>
      </trkpt>
      <trkpt lat="42.61466802097857" lon="-6.818672027438879">
        <ele>529</ele>
        <time>2018-05-22T07:36:57Z</time>
      </trkpt>
      <trkpt lat="42.614710014313459" lon="-6.818635985255241">
        <ele>529</ele>
        <time>2018-05-22T07:36:59Z</time>
      </trkpt>
      <trkpt lat="42.614731974899769" lon="-6.818578988313675">
        <ele>529</ele>
        <time>2018-05-22T07:37:00Z</time>
      </trkpt>
      <trkpt lat="42.614778997376561" lon="-6.818530037999153">
        <ele>529</ele>
        <time>2018-05-22T07:37:02Z</time>
      </trkpt>
      <trkpt lat="42.614812022075057" lon="-6.818472035229206">
        <ele>529</ele>
        <time>2018-05-22T07:37:03Z</time>
      </trkpt>
      <trkpt lat="42.614845968782902" lon="-6.818423001095653">
        <ele>517</ele>
        <time>2018-05-22T07:37:05Z</time>
      </trkpt>
      <trkpt lat="42.614872036501765" lon="-6.818373966962099">
        <ele>529</ele>
        <time>2018-05-22T07:37:06Z</time>
      </trkpt>
      <trkpt lat="42.614901037886739" lon="-6.818313030526042">
        <ele>529</ele>
        <time>2018-05-22T07:37:08Z</time>
      </trkpt>
      <trkpt lat="42.614930039271712" lon="-6.818249998614192">
        <ele>529</ele>
        <time>2018-05-22T07:37:09Z</time>
      </trkpt>
      <trkpt lat="42.614963985979557" lon="-6.818209011107683">
        <ele>529</ele>
        <time>2018-05-22T07:37:11Z</time>
      </trkpt>
      <trkpt lat="42.614976977929473" lon="-6.818143967539072">
        <ele>529</ele>
        <time>2018-05-22T07:37:12Z</time>
      </trkpt>
      <trkpt lat="42.614999022334814" lon="-6.818083031103015">
        <ele>529</ele>
        <time>2018-05-22T07:37:14Z</time>
      </trkpt>
      <trkpt lat="42.615013020113111" lon="-6.81800901889801">
        <ele>529</ele>
        <time>2018-05-22T07:37:16Z</time>
      </trkpt>
      <trkpt lat="42.615018971264362" lon="-6.817936012521386">
        <ele>529</ele>
        <time>2018-05-22T07:37:17Z</time>
      </trkpt>
      <trkpt lat="42.615032969042659" lon="-6.817862000316382">
        <ele>517</ele>
        <time>2018-05-22T07:37:19Z</time>
      </trkpt>
      <trkpt lat="42.615045960992575" lon="-6.817787988111377">
        <ele>517</ele>
        <time>2018-05-22T07:37:21Z</time>
      </trkpt>
      <trkpt lat="42.615065993741155" lon="-6.817713975906372">
        <ele>517</ele>
        <time>2018-05-22T07:37:22Z</time>
      </trkpt>
      <trkpt lat="42.615073034539819" lon="-6.817632000893354">
        <ele>517</ele>
        <time>2018-05-22T07:37:24Z</time>
      </trkpt>
      <trkpt lat="42.615092983469367" lon="-6.817554971203208">
        <ele>517</ele>
        <time>2018-05-22T07:37:26Z</time>
      </trkpt>
      <trkpt lat="42.615113016217947" lon="-6.817497974261642">
        <ele>517</ele>
        <time>2018-05-22T07:37:27Z</time>
      </trkpt>
      <trkpt lat="42.615118967369199" lon="-6.817423962056637">
        <ele>517</ele>
        <time>2018-05-22T07:37:29Z</time>
      </trkpt>
      <trkpt lat="42.615146040916443" lon="-6.81736696511507">
        <ele>517</ele>
        <time>2018-05-22T07:37:30Z</time>
      </trkpt>
      <trkpt lat="42.615151992067695" lon="-6.817293036729097">
        <ele>517</ele>
        <time>2018-05-22T07:37:32Z</time>
      </trkpt>
      <trkpt lat="42.615165989845991" lon="-6.817219024524093">
        <ele>517</ele>
        <time>2018-05-22T07:37:34Z</time>
      </trkpt>
      <trkpt lat="42.615178981795907" lon="-6.817136965692043">
        <ele>517</ele>
        <time>2018-05-22T07:37:35Z</time>
      </trkpt>
      <trkpt lat="42.615186022594571" lon="-6.81706303730607">
        <ele>511</ele>
        <time>2018-05-22T07:37:37Z</time>
      </trkpt>
      <trkpt lat="42.615194991230965" lon="-6.816993970423937">
        <ele>511</ele>
        <time>2018-05-22T07:37:39Z</time>
      </trkpt>
      <trkpt lat="42.615220975130796" lon="-6.816942002624273">
        <ele>511</ele>
        <time>2018-05-22T07:37:40Z</time>
      </trkpt>
      <trkpt lat="42.615241007879376" lon="-6.816867990419269">
        <ele>511</ele>
        <time>2018-05-22T07:37:42Z</time>
      </trkpt>
      <trkpt lat="42.615247964859009" lon="-6.816775035113096">
        <ele>511</ele>
        <time>2018-05-22T07:37:44Z</time>
      </trkpt>
      <trkpt lat="42.615288030356169" lon="-6.816676966845989">
        <ele>511</ele>
        <time>2018-05-22T07:37:46Z</time>
      </trkpt>
      <trkpt lat="42.615294987335801" lon="-6.816600020974875">
        <ele>511</ele>
        <time>2018-05-22T07:37:48Z</time>
      </trkpt>
      <trkpt lat="42.615307979285717" lon="-6.816534977406263">
        <ele>511</ele>
        <time>2018-05-22T07:37:49Z</time>
      </trkpt>
      <trkpt lat="42.615307979285717" lon="-6.816460965201259">
        <ele>511</ele>
        <time>2018-05-22T07:37:51Z</time>
      </trkpt>
      <trkpt lat="42.615301022306085" lon="-6.816387036815286">
        <ele>511</ele>
        <time>2018-05-22T07:37:53Z</time>
      </trkpt>
      <trkpt lat="42.615288030356169" lon="-6.816297015175223">
        <ele>511</ele>
        <time>2018-05-22T07:37:55Z</time>
      </trkpt>
      <trkpt lat="42.615280989557505" lon="-6.816223002970219">
        <ele>511</ele>
        <time>2018-05-22T07:37:56Z</time>
      </trkpt>
      <trkpt lat="42.615259028971195" lon="-6.816145973280072">
        <ele>511</ele>
        <time>2018-05-22T07:37:58Z</time>
      </trkpt>
      <trkpt lat="42.615226004272699" lon="-6.816023010760546">
        <ele>511</ele>
        <time>2018-05-22T07:38:01Z</time>
      </trkpt>
      <trkpt lat="42.615191973745823" lon="-6.815948998555541">
        <ele>511</ele>
        <time>2018-05-22T07:38:03Z</time>
      </trkpt>
      <trkpt lat="42.615151992067695" lon="-6.815867023542523">
        <ele>511</ele>
        <time>2018-05-22T07:38:05Z</time>
      </trkpt>
      <trkpt lat="42.615118967369199" lon="-6.815801979973912">
        <ele>511</ele>
        <time>2018-05-22T07:38:07Z</time>
      </trkpt>
      <trkpt lat="42.615092983469367" lon="-6.815727967768908">
        <ele>511</ele>
        <time>2018-05-22T07:38:08Z</time>
      </trkpt>
      <trkpt lat="42.615065993741155" lon="-6.815662002190948">
        <ele>511</ele>
        <time>2018-05-22T07:38:10Z</time>
      </trkpt>
      <trkpt lat="42.615030035376549" lon="-6.815610034391284">
        <ele>511</ele>
        <time>2018-05-22T07:38:12Z</time>
      </trkpt>
      <trkpt lat="42.615003967657685" lon="-6.815557982772589">
        <ele>511</ele>
        <time>2018-05-22T07:38:13Z</time>
      </trkpt>
      <trkpt lat="42.614941019564867" lon="-6.815472990274429">
        <ele>511</ele>
        <time>2018-05-22T07:38:16Z</time>
      </trkpt>
      <trkpt lat="42.614895002916455" lon="-6.815428985282779">
        <ele>511</ele>
        <time>2018-05-22T07:38:17Z</time>
      </trkpt>
      <trkpt lat="42.614847980439663" lon="-6.815395960584283">
        <ele>511</ele>
        <time>2018-05-22T07:38:19Z</time>
      </trkpt>
      <trkpt lat="42.614795006811619" lon="-6.815347010269761">
        <ele>511</ele>
        <time>2018-05-22T07:38:21Z</time>
      </trkpt>
      <trkpt lat="42.614747984334826" lon="-6.815290013328195">
        <ele>534</ele>
        <time>2018-05-22T07:38:23Z</time>
      </trkpt>
      <trkpt lat="42.614701967686415" lon="-6.815239973366261">
        <ele>534</ele>
        <time>2018-05-22T07:38:24Z</time>
      </trkpt>
      <trkpt lat="42.614649999886751" lon="-6.815205020830035">
        <ele>534</ele>
        <time>2018-05-22T07:38:26Z</time>
      </trkpt>
      <trkpt lat="42.614589985460043" lon="-6.815164033323526">
        <ele>534</ele>
        <time>2018-05-22T07:38:28Z</time>
      </trkpt>
      <trkpt lat="42.614537011831999" lon="-6.815147018060088">
        <ele>507</ele>
        <time>2018-05-22T07:38:30Z</time>
      </trkpt>
      <trkpt lat="42.614484038203955" lon="-6.815106030553579">
        <ele>507</ele>
        <time>2018-05-22T07:38:32Z</time>
      </trkpt>
      <trkpt lat="42.614437015727162" lon="-6.815073005855084">
        <ele>507</ele>
        <time>2018-05-22T07:38:33Z</time>
      </trkpt>
      <trkpt lat="42.61438999325037" lon="-6.815040986984968">
        <ele>507</ele>
        <time>2018-05-22T07:38:35Z</time>
      </trkpt>
      <trkpt lat="42.614337019622326" lon="-6.814999999478459">
        <ele>507</ele>
        <time>2018-05-22T07:38:36Z</time>
      </trkpt>
      <trkpt lat="42.614277005195618" lon="-6.814959011971951">
        <ele>507</ele>
        <time>2018-05-22T07:38:38Z</time>
      </trkpt>
      <trkpt lat="42.614224031567574" lon="-6.814925987273455">
        <ele>507</ele>
        <time>2018-05-22T07:38:40Z</time>
      </trkpt>
      <trkpt lat="42.61415496468544" lon="-6.814906038343906">
        <ele>507</ele>
        <time>2018-05-22T07:38:42Z</time>
      </trkpt>
      <trkpt lat="42.614095034077764" lon="-6.814906038343906">
        <ele>507</ele>
        <time>2018-05-22T07:38:44Z</time>
      </trkpt>
      <trkpt lat="42.614035019651055" lon="-6.814906038343906">
        <ele>507</ele>
        <time>2018-05-22T07:38:46Z</time>
      </trkpt>
      <trkpt lat="42.613967964425683" lon="-6.814906038343906">
        <ele>507</ele>
        <time>2018-05-22T07:38:48Z</time>
      </trkpt>
      <trkpt lat="42.613910967484117" lon="-6.814906038343906">
        <ele>507</ele>
        <time>2018-05-22T07:38:49Z</time>
      </trkpt>
      <trkpt lat="42.613869979977608" lon="-6.814934033900499">
        <ele>507</ele>
        <time>2018-05-22T07:38:51Z</time>
      </trkpt>
      <trkpt lat="42.613817006349564" lon="-6.814941996708512">
        <ele>507</ele>
        <time>2018-05-22T07:38:52Z</time>
      </trkpt>
      <trkpt lat="42.613756991922855" lon="-6.814959011971951">
        <ele>498</ele>
        <time>2018-05-22T07:38:54Z</time>
      </trkpt>
      <trkpt lat="42.613696977496147" lon="-6.814975021407008">
        <ele>498</ele>
        <time>2018-05-22T07:38:56Z</time>
      </trkpt>
      <trkpt lat="42.613644003868103" lon="-6.814991030842066">
        <ele>498</ele>
        <time>2018-05-22T07:38:58Z</time>
      </trkpt>
      <trkpt lat="42.613590024411678" lon="-6.814999999478459">
        <ele>498</ele>
        <time>2018-05-22T07:38:59Z</time>
      </trkpt>
      <trkpt lat="42.613536966964602" lon="-6.815007962286472">
        <ele>498</ele>
        <time>2018-05-22T07:39:01Z</time>
      </trkpt>
      <trkpt lat="42.613483993336558" lon="-6.815016008913517">
        <ele>498</ele>
        <time>2018-05-22T07:39:02Z</time>
      </trkpt>
      <trkpt lat="42.61342397890985" lon="-6.81502397172153">
        <ele>498</ele>
        <time>2018-05-22T07:39:04Z</time>
      </trkpt>
      <trkpt lat="42.613383997231722" lon="-6.815056996420026">
        <ele>498</ele>
        <time>2018-05-22T07:39:06Z</time>
      </trkpt>
      <trkpt lat="42.613323982805014" lon="-6.815097983926535">
        <ele>498</ele>
        <time>2018-05-22T07:39:08Z</time>
      </trkpt>
      <trkpt lat="42.61327100917697" lon="-6.815106030553579">
        <ele>498</ele>
        <time>2018-05-22T07:39:09Z</time>
      </trkpt>
      <trkpt lat="42.613210994750261" lon="-6.815113993361592">
        <ele>498</ele>
        <time>2018-05-22T07:39:11Z</time>
      </trkpt>
      <trkpt lat="42.613158021122217" lon="-6.815138971433044">
        <ele>498</ele>
        <time>2018-05-22T07:39:13Z</time>
      </trkpt>
      <trkpt lat="42.613090965896845" lon="-6.815147018060088">
        <ele>498</ele>
        <time>2018-05-22T07:39:15Z</time>
      </trkpt>
      <trkpt lat="42.613037992268801" lon="-6.815171996131539">
        <ele>498</ele>
        <time>2018-05-22T07:39:16Z</time>
      </trkpt>
      <trkpt lat="42.612982001155615" lon="-6.815171996131539">
        <ele>498</ele>
        <time>2018-05-22T07:39:18Z</time>
      </trkpt>
      <trkpt lat="42.612921986728907" lon="-6.815171996131539">
        <ele>503</ele>
        <time>2018-05-22T07:39:20Z</time>
      </trkpt>
      <trkpt lat="42.612855015322566" lon="-6.815171996131539">
        <ele>503</ele>
        <time>2018-05-22T07:39:22Z</time>
      </trkpt>
      <trkpt lat="42.612795000895858" lon="-6.815171996131539">
        <ele>503</ele>
        <time>2018-05-22T07:39:23Z</time>
      </trkpt>
      <trkpt lat="42.61273498646915" lon="-6.815171996131539">
        <ele>503</ele>
        <time>2018-05-22T07:39:25Z</time>
      </trkpt>
      <trkpt lat="42.612674972042441" lon="-6.815171996131539">
        <ele>503</ele>
        <time>2018-05-22T07:39:27Z</time>
      </trkpt>
      <trkpt lat="42.612621998414397" lon="-6.815164033323526">
        <ele>503</ele>
        <time>2018-05-22T07:39:29Z</time>
      </trkpt>
      <trkpt lat="42.612561983987689" lon="-6.815147018060088">
        <ele>503</ele>
        <time>2018-05-22T07:39:30Z</time>
      </trkpt>
      <trkpt lat="42.612522002309561" lon="-6.815113993361592">
        <ele>503</ele>
        <time>2018-05-22T07:39:32Z</time>
      </trkpt>
      <trkpt lat="42.612482020631433" lon="-6.815081974491477">
        <ele>503</ele>
        <time>2018-05-22T07:39:33Z</time>
      </trkpt>
      <trkpt lat="42.612428963184357" lon="-6.815056996420026">
        <ele>503</ele>
        <time>2018-05-22T07:39:35Z</time>
      </trkpt>
      <trkpt lat="42.612382024526596" lon="-6.81502397172153">
        <ele>503</ele>
        <time>2018-05-22T07:39:36Z</time>
      </trkpt>
      <trkpt lat="42.612336007878184" lon="-6.814982984215021">
        <ele>503</ele>
        <time>2018-05-22T07:39:38Z</time>
      </trkpt>
      <trkpt lat="42.612296026200056" lon="-6.814934033900499">
        <ele>503</ele>
        <time>2018-05-22T07:39:40Z</time>
      </trkpt>
      <trkpt lat="42.612246992066503" lon="-6.814901009202004">
        <ele>503</ele>
        <time>2018-05-22T07:39:41Z</time>
      </trkpt>
      <trkpt lat="42.612136015668511" lon="-6.81478600949049">
        <ele>503</ele>
        <time>2018-05-22T07:39:45Z</time>
      </trkpt>
      <trkpt lat="42.611958989873528" lon="-6.814629016444087">
        <ele>501</ele>
        <time>2018-05-22T07:39:52Z</time>
      </trkpt>
      <trkpt lat="42.611711975187063" lon="-6.814413014799357">
        <ele>511</ele>
        <time>2018-05-22T07:40:00Z</time>
      </trkpt>
      <trkpt lat="42.611518017947674" lon="-6.814284017309547">
        <ele>511</ele>
        <time>2018-05-22T07:40:07Z</time>
      </trkpt>
      <trkpt lat="42.611365970224142" lon="-6.814186032861471">
        <ele>511</ele>
        <time>2018-05-22T07:40:12Z</time>
      </trkpt>
      <trkpt lat="42.6112300157547" lon="-6.814115960150957">
        <ele>496</ele>
        <time>2018-05-22T07:40:16Z</time>
      </trkpt>
      <trkpt lat="42.611052989959717" lon="-6.813949998468161">
        <ele>496</ele>
        <time>2018-05-22T07:40:22Z</time>
      </trkpt>
      <trkpt lat="42.610931033268571" lon="-6.813874980434775">
        <ele>496</ele>
        <time>2018-05-22T07:40:26Z</time>
      </trkpt>
      <trkpt lat="42.610850986093283" lon="-6.813779007643461">
        <ele>496</ele>
        <time>2018-05-22T07:40:30Z</time>
      </trkpt>
      <trkpt lat="42.61075995862484" lon="-6.81375302374363">
        <ele>496</ele>
        <time>2018-05-22T07:40:32Z</time>
      </trkpt>
      <trkpt lat="42.610419988632202" lon="-6.813663002103567">
        <ele>498</ele>
        <time>2018-05-22T07:40:43Z</time>
      </trkpt>
      <trkpt lat="42.61020096950233" lon="-6.813569040969014">
        <ele>504</ele>
        <time>2018-05-22T07:40:49Z</time>
      </trkpt>
      <trkpt lat="42.60998597368598" lon="-6.813536016270518">
        <ele>504</ele>
        <time>2018-05-22T07:40:56Z</time>
      </trkpt>
      <trkpt lat="42.609765026718378" lon="-6.813399977982044">
        <ele>504</ele>
        <time>2018-05-22T07:41:03Z</time>
      </trkpt>
      <trkpt lat="42.609755974262953" lon="-6.813399977982044">
        <ele>504</ele>
        <time>2018-05-22T07:41:03Z</time>
      </trkpt>
      <trkpt lat="42.609733007848263" lon="-6.813382962718606">
        <ele>504</ele>
        <time>2018-05-22T07:41:04Z</time>
      </trkpt>
      <trkpt lat="42.609710041433573" lon="-6.813350021839142">
        <ele>504</ele>
        <time>2018-05-22T07:41:05Z</time>
      </trkpt>
      <trkpt lat="42.609696965664625" lon="-6.813316997140646">
        <ele>504</ele>
        <time>2018-05-22T07:41:06Z</time>
      </trkpt>
      <trkpt lat="42.609680034220219" lon="-6.813276009634137">
        <ele>504</ele>
        <time>2018-05-22T07:41:07Z</time>
      </trkpt>
      <trkpt lat="42.609666958451271" lon="-6.813242984935641">
        <ele>504</ele>
        <time>2018-05-22T07:41:08Z</time>
      </trkpt>
      <trkpt lat="42.609656983986497" lon="-6.813201997429133">
        <ele>504</ele>
        <time>2018-05-22T07:41:09Z</time>
      </trkpt>
      <trkpt lat="42.6096429862082" lon="-6.813165033236146">
        <ele>504</ele>
        <time>2018-05-22T07:41:10Z</time>
      </trkpt>
      <trkpt lat="42.609629994258285" lon="-6.81313200853765">
        <ele>504</ele>
        <time>2018-05-22T07:41:10Z</time>
      </trkpt>
      <trkpt lat="42.609612978994846" lon="-6.813091021031141">
        <ele>504</ele>
        <time>2018-05-22T07:41:11Z</time>
      </trkpt>
      <trkpt lat="42.609604010358453" lon="-6.813057996332645">
        <ele>504</ele>
        <time>2018-05-22T07:41:12Z</time>
      </trkpt>
      <trkpt lat="42.609583977609873" lon="-6.813018014654517">
        <ele>497</ele>
        <time>2018-05-22T07:41:13Z</time>
      </trkpt>
      <trkpt lat="42.609566962346435" lon="-6.812989013269544">
        <ele>497</ele>
        <time>2018-05-22T07:41:14Z</time>
      </trkpt>
      <trkpt lat="42.609550030902028" lon="-6.812955988571048">
        <ele>497</ele>
        <time>2018-05-22T07:41:15Z</time>
      </trkpt>
      <trkpt lat="42.60953402146697" lon="-6.812926987186074">
        <ele>497</ele>
        <time>2018-05-22T07:41:16Z</time>
      </trkpt>
      <trkpt lat="42.609517006203532" lon="-6.812893962487578">
        <ele>497</ele>
        <time>2018-05-22T07:41:17Z</time>
      </trkpt>
      <trkpt lat="42.609507031738758" lon="-6.812858004122973">
        <ele>497</ele>
        <time>2018-05-22T07:41:17Z</time>
      </trkpt>
      <trkpt lat="42.609494039788842" lon="-6.812824979424477">
        <ele>502</ele>
        <time>2018-05-22T07:41:18Z</time>
      </trkpt>
      <trkpt lat="42.609483981505036" lon="-6.812779968604446">
        <ele>502</ele>
        <time>2018-05-22T07:41:19Z</time>
      </trkpt>
      <trkpt lat="42.609466966241598" lon="-6.812743004411459">
        <ele>502</ele>
        <time>2018-05-22T07:41:20Z</time>
      </trkpt>
      <trkpt lat="42.609464032575488" lon="-6.812706040218473">
        <ele>502</ele>
        <time>2018-05-22T07:41:21Z</time>
      </trkpt>
      <trkpt lat="42.609453974291682" lon="-6.812661029398441">
        <ele>502</ele>
        <time>2018-05-22T07:41:22Z</time>
      </trkpt>
      <trkpt lat="42.609453974291682" lon="-6.812614006921649">
        <ele>502</ele>
        <time>2018-05-22T07:41:23Z</time>
      </trkpt>
      <trkpt lat="42.609440982341766" lon="-6.81244402192533">
        <ele>502</ele>
        <time>2018-05-22T07:41:27Z</time>
      </trkpt>
      <trkpt lat="42.609434025362134" lon="-6.812434969469905">
        <ele>502</ele>
        <time>2018-05-22T07:41:27Z</time>
      </trkpt>
      <trkpt lat="42.609421033412218" lon="-6.812361963093281">
        <ele>502</ele>
        <time>2018-05-22T07:41:29Z</time>
      </trkpt>
      <trkpt lat="42.609387002885342" lon="-6.812303960323334">
        <ele>502</ele>
        <time>2018-05-22T07:41:30Z</time>
      </trkpt>
      <trkpt lat="42.609353978186846" lon="-6.812246963381767">
        <ele>502</ele>
        <time>2018-05-22T07:41:32Z</time>
      </trkpt>
      <trkpt lat="42.609334029257298" lon="-6.812180997803807">
        <ele>502</ele>
        <time>2018-05-22T07:41:33Z</time>
      </trkpt>
      <trkpt lat="42.609321037307382" lon="-6.812090976163745">
        <ele>502</ele>
        <time>2018-05-22T07:41:35Z</time>
      </trkpt>
      <trkpt lat="42.609301004558802" lon="-6.812009001150727">
        <ele>502</ele>
        <time>2018-05-22T07:41:37Z</time>
      </trkpt>
      <trkpt lat="42.609301004558802" lon="-6.811934988945723">
        <ele>499</ele>
        <time>2018-05-22T07:41:39Z</time>
      </trkpt>
      <trkpt lat="42.609280971810222" lon="-6.811872040852904">
        <ele>499</ele>
        <time>2018-05-22T07:41:40Z</time>
      </trkpt>
      <trkpt lat="42.609261022880673" lon="-6.811814038082957">
        <ele>499</ele>
        <time>2018-05-22T07:41:42Z</time>
      </trkpt>
      <trkpt lat="42.609234033152461" lon="-6.811748994514346">
        <ele>499</ele>
        <time>2018-05-22T07:41:43Z</time>
      </trkpt>
      <trkpt lat="42.609207965433598" lon="-6.811683028936386">
        <ele>499</ele>
        <time>2018-05-22T07:41:45Z</time>
      </trkpt>
      <trkpt lat="42.609167983755469" lon="-6.811633994802833">
        <ele>499</ele>
        <time>2018-05-22T07:41:47Z</time>
      </trkpt>
      <trkpt lat="42.609124984592199" lon="-6.811565011739731">
        <ele>499</ele>
        <time>2018-05-22T07:41:49Z</time>
      </trkpt>
      <trkpt lat="42.609099000692368" lon="-6.811508014798164">
        <ele>499</ele>
        <time>2018-05-22T07:41:50Z</time>
      </trkpt>
      <trkpt lat="42.609066981822252" lon="-6.811448000371456">
        <ele>499</ele>
        <time>2018-05-22T07:41:52Z</time>
      </trkpt>
      <trkpt lat="42.609040997922421" lon="-6.811389997601509">
        <ele>499</ele>
        <time>2018-05-22T07:41:53Z</time>
      </trkpt>
      <trkpt lat="42.609020965173841" lon="-6.811315985396504">
        <ele>499</ele>
        <time>2018-05-22T07:41:55Z</time>
      </trkpt>
      <trkpt lat="42.609014008194208" lon="-6.811234010383487">
        <ele>499</ele>
        <time>2018-05-22T07:41:57Z</time>
      </trkpt>
      <trkpt lat="42.608997998759151" lon="-6.811149017885327">
        <ele>498</ele>
        <time>2018-05-22T07:41:59Z</time>
      </trkpt>
      <trkpt lat="42.608997998759151" lon="-6.811115993186832">
        <ele>498</ele>
        <time>2018-05-22T07:41:59Z</time>
      </trkpt>
      <trkpt lat="42.608972014859319" lon="-6.811034018173814">
        <ele>498</ele>
        <time>2018-05-22T07:42:01Z</time>
      </trkpt>
      <trkpt lat="42.608951982110739" lon="-6.810968974605203">
        <ele>498</ele>
        <time>2018-05-22T07:42:03Z</time>
      </trkpt>
      <trkpt lat="42.608924992382526" lon="-6.810910971835256">
        <ele>498</ele>
        <time>2018-05-22T07:42:04Z</time>
      </trkpt>
      <trkpt lat="42.608899008482695" lon="-6.810846012085676">
        <ele>498</ele>
        <time>2018-05-22T07:42:06Z</time>
      </trkpt>
      <trkpt lat="42.608872018754482" lon="-6.810763031244278">
        <ele>498</ele>
        <time>2018-05-22T07:42:08Z</time>
      </trkpt>
      <trkpt lat="42.608851986005902" lon="-6.810673009604216">
        <ele>498</ele>
        <time>2018-05-22T07:42:10Z</time>
      </trkpt>
      <trkpt lat="42.608806975185871" lon="-6.810694970190525">
        <ele>498</ele>
        <time>2018-05-22T07:42:11Z</time>
      </trkpt>
      <trkpt lat="42.608746960759163" lon="-6.810694970190525">
        <ele>499</ele>
        <time>2018-05-22T07:42:13Z</time>
      </trkpt>
      <trkpt lat="42.608717959374189" lon="-6.810637973248959">
        <ele>499</ele>
        <time>2018-05-22T07:42:15Z</time>
      </trkpt>
      <trkpt lat="42.608669009059668" lon="-6.810568990185857">
        <ele>499</ele>
        <time>2018-05-22T07:42:17Z</time>
      </trkpt>
      <trkpt lat="42.608629027381539" lon="-6.810495983809233">
        <ele>499</ele>
        <time>2018-05-22T07:42:19Z</time>
      </trkpt>
      <trkpt lat="42.608596002683043" lon="-6.810427000746131">
        <ele>499</ele>
        <time>2018-05-22T07:42:20Z</time>
      </trkpt>
      <trkpt lat="42.608575969934464" lon="-6.810352988541126">
        <ele>505</ele>
        <time>2018-05-22T07:42:22Z</time>
      </trkpt>
      <trkpt lat="42.608548980206251" lon="-6.810285011306405">
        <ele>505</ele>
        <time>2018-05-22T07:42:24Z</time>
      </trkpt>
      <trkpt lat="42.608535988256335" lon="-6.8102109991014">
        <ele>505</ele>
        <time>2018-05-22T07:42:26Z</time>
      </trkpt>
      <trkpt lat="42.608508998528123" lon="-6.810136986896396">
        <ele>505</ele>
        <time>2018-05-22T07:42:27Z</time>
      </trkpt>
      <trkpt lat="42.608483014628291" lon="-6.810046965256333">
        <ele>505</ele>
        <time>2018-05-22T07:42:29Z</time>
      </trkpt>
      <trkpt lat="42.608469016849995" lon="-6.809967001900077">
        <ele>505</ele>
        <time>2018-05-22T07:42:31Z</time>
      </trkpt>
      <trkpt lat="42.608427023515105" lon="-6.809899024665356">
        <ele>505</ele>
        <time>2018-05-22T07:42:33Z</time>
      </trkpt>
      <trkpt lat="42.608371032401919" lon="-6.809858037158847">
        <ele>505</ele>
        <time>2018-05-22T07:42:35Z</time>
      </trkpt>
      <trkpt lat="42.608315963298082" lon="-6.809832975268364">
        <ele>505</ele>
        <time>2018-05-22T07:42:37Z</time>
      </trkpt>
      <trkpt lat="42.608261983841658" lon="-6.809816965833306">
        <ele>505</ele>
        <time>2018-05-22T07:42:38Z</time>
      </trkpt>
      <trkpt lat="42.608209010213614" lon="-6.8098000343889">
        <ele>505</ele>
        <time>2018-05-22T07:42:40Z</time>
      </trkpt>
      <trkpt lat="42.608157964423299" lon="-6.809784024953842">
        <ele>505</ele>
        <time>2018-05-22T07:42:42Z</time>
      </trkpt>
      <trkpt lat="42.608104990795255" lon="-6.809758963063359">
        <ele>505</ele>
        <time>2018-05-22T07:42:43Z</time>
      </trkpt>
      <trkpt lat="42.608040031045675" lon="-6.809731973335147">
        <ele>505</ele>
        <time>2018-05-22T07:42:45Z</time>
      </trkpt>
      <trkpt lat="42.607980016618967" lon="-6.809724010527134">
        <ele>505</ele>
        <time>2018-05-22T07:42:47Z</time>
      </trkpt>
      <trkpt lat="42.607920002192259" lon="-6.80971504189074">
        <ele>504</ele>
        <time>2018-05-22T07:42:49Z</time>
      </trkpt>
      <trkpt lat="42.607864011079073" lon="-6.809699032455683">
        <ele>504</ele>
        <time>2018-05-22T07:42:50Z</time>
      </trkpt>
      <trkpt lat="42.607809025794268" lon="-6.809690985828638">
        <ele>504</ele>
        <time>2018-05-22T07:42:52Z</time>
      </trkpt>
      <trkpt lat="42.607814976945519" lon="-6.809614039957523">
        <ele>504</ele>
        <time>2018-05-22T07:42:54Z</time>
      </trkpt>
      <trkpt lat="42.607825035229325" lon="-6.809551008045673">
        <ele>504</ele>
        <time>2018-05-22T07:42:55Z</time>
      </trkpt>
      <trkpt lat="42.607843978330493" lon="-6.809484958648682">
        <ele>511</ele>
        <time>2018-05-22T07:42:57Z</time>
      </trkpt>
      <trkpt lat="42.607857976108789" lon="-6.809425028041005">
        <ele>511</ele>
        <time>2018-05-22T07:42:58Z</time>
      </trkpt>
      <trkpt lat="42.607870968058705" lon="-6.809347998350859">
        <ele>511</ele>
        <time>2018-05-22T07:43:00Z</time>
      </trkpt>
      <trkpt lat="42.607870968058705" lon="-6.809266023337841">
        <ele>511</ele>
        <time>2018-05-22T07:43:02Z</time>
      </trkpt>
      <trkpt lat="42.607883960008621" lon="-6.809176001697779">
        <ele>511</ele>
        <time>2018-05-22T07:43:04Z</time>
      </trkpt>
      <trkpt lat="42.607898041605949" lon="-6.809101989492774">
        <ele>511</ele>
        <time>2018-05-22T07:43:05Z</time>
      </trkpt>
      <trkpt lat="42.607898041605949" lon="-6.809027977287769">
        <ele>511</ele>
        <time>2018-05-22T07:43:07Z</time>
      </trkpt>
      <trkpt lat="42.607911033555865" lon="-6.808949019759893">
        <ele>511</ele>
        <time>2018-05-22T07:43:09Z</time>
      </trkpt>
      <trkpt lat="42.607917990535498" lon="-6.808866960927844">
        <ele>511</ele>
        <time>2018-05-22T07:43:11Z</time>
      </trkpt>
      <trkpt lat="42.607917990535498" lon="-6.808786997571588">
        <ele>511</ele>
        <time>2018-05-22T07:43:12Z</time>
      </trkpt>
      <trkpt lat="42.607870968058705" lon="-6.808765036985278">
        <ele>511</ele>
        <time>2018-05-22T07:43:14Z</time>
      </trkpt>
      <trkpt lat="42.607786981388927" lon="-6.808765036985278">
        <ele>511</ele>
        <time>2018-05-22T07:43:16Z</time>
      </trkpt>
      <trkpt lat="42.607730990275741" lon="-6.808765036985278">
        <ele>511</ele>
        <time>2018-05-22T07:43:18Z</time>
      </trkpt>
      <trkpt lat="42.607670975849032" lon="-6.808765036985278">
        <ele>511</ele>
        <time>2018-05-22T07:43:20Z</time>
      </trkpt>
      <trkpt lat="42.607618002220988" lon="-6.808780962601304">
        <ele>511</ele>
        <time>2018-05-22T07:43:21Z</time>
      </trkpt>
      <trkpt lat="42.607554970309138" lon="-6.808780962601304">
        <ele>511</ele>
        <time>2018-05-22T07:43:23Z</time>
      </trkpt>
      <trkpt lat="42.607485987246037" lon="-6.808780962601304">
        <ele>511</ele>
        <time>2018-05-22T07:43:25Z</time>
      </trkpt>
      <trkpt lat="42.607431001961231" lon="-6.808806024491787">
        <ele>512</ele>
        <time>2018-05-22T07:43:27Z</time>
      </trkpt>
      <trkpt lat="42.607388002797961" lon="-6.808822033926845">
        <ele>511</ele>
        <time>2018-05-22T07:43:28Z</time>
      </trkpt>
      <trkpt lat="42.607335029169917" lon="-6.808833014219999">
        <ele>511</ele>
        <time>2018-05-22T07:43:30Z</time>
      </trkpt>
      <trkpt lat="42.607279038056731" lon="-6.808841982856393">
        <ele>511</ele>
        <time>2018-05-22T07:43:31Z</time>
      </trkpt>
      <trkpt lat="42.607219023630023" lon="-6.808850029483438">
        <ele>511</ele>
        <time>2018-05-22T07:43:33Z</time>
      </trkpt>
      <trkpt lat="42.607164038345218" lon="-6.808866038918495">
        <ele>511</ele>
        <time>2018-05-22T07:43:35Z</time>
      </trkpt>
      <trkpt lat="42.607107963413" lon="-6.808882970362902">
        <ele>512</ele>
        <time>2018-05-22T07:43:37Z</time>
      </trkpt>
      <trkpt lat="42.607048032805324" lon="-6.808914989233017">
        <ele>512</ele>
        <time>2018-05-22T07:43:38Z</time>
      </trkpt>
      <trkpt lat="42.60699899867177" lon="-6.808938039466739">
        <ele>512</ele>
        <time>2018-05-22T07:43:40Z</time>
      </trkpt>
      <trkpt lat="42.606949964538217" lon="-6.808956982567906">
        <ele>512</ele>
        <time>2018-05-22T07:43:42Z</time>
      </trkpt>
      <trkpt lat="42.606899002566934" lon="-6.808965029194951">
        <ele>512</ele>
        <time>2018-05-22T07:43:43Z</time>
      </trkpt>
      <trkpt lat="42.606857009232044" lon="-6.808993024751544">
        <ele>512</ele>
        <time>2018-05-22T07:43:44Z</time>
      </trkpt>
      <trkpt lat="42.606801018118858" lon="-6.808993024751544">
        <ele>512</ele>
        <time>2018-05-22T07:43:46Z</time>
      </trkpt>
      <trkpt lat="42.606705967336893" lon="-6.809068964794278">
        <ele>512</ele>
        <time>2018-05-22T07:43:49Z</time>
      </trkpt>
      <trkpt lat="42.606692975386977" lon="-6.809080028906465">
        <ele>512</ele>
        <time>2018-05-22T07:43:50Z</time>
      </trkpt>
      <trkpt lat="42.606650982052088" lon="-6.809121016412973">
        <ele>512</ele>
        <time>2018-05-22T07:43:51Z</time>
      </trkpt>
      <trkpt lat="42.606607982888818" lon="-6.809162003919482">
        <ele>512</ele>
        <time>2018-05-22T07:43:53Z</time>
      </trkpt>
      <trkpt lat="42.606573030352592" lon="-6.809229981154203">
        <ele>512</ele>
        <time>2018-05-22T07:43:55Z</time>
      </trkpt>
      <trkpt lat="42.606538999825716" lon="-6.809287983924151">
        <ele>512</ele>
        <time>2018-05-22T07:43:56Z</time>
      </trkpt>
      <trkpt lat="42.606494994834065" lon="-6.809351015836">
        <ele>512</ele>
        <time>2018-05-22T07:43:58Z</time>
      </trkpt>
      <trkpt lat="42.606451995670795" lon="-6.809374988079071">
        <ele>512</ele>
        <time>2018-05-22T07:44:00Z</time>
      </trkpt>
      <trkpt lat="42.6064189709723" lon="-6.80941597558558">
        <ele>512</ele>
        <time>2018-05-22T07:44:01Z</time>
      </trkpt>
      <trkpt lat="42.606370020657778" lon="-6.809443971142173">
        <ele>512</ele>
        <time>2018-05-22T07:44:02Z</time>
      </trkpt>
      <trkpt lat="42.606334984302521" lon="-6.809476995840669">
        <ele>512</ele>
        <time>2018-05-22T07:44:04Z</time>
      </trkpt>
      <trkpt lat="42.606287961825728" lon="-6.809509014710784">
        <ele>519</ele>
        <time>2018-05-22T07:44:05Z</time>
      </trkpt>
      <trkpt lat="42.606255020946264" lon="-6.809567017480731">
        <ele>511</ele>
        <time>2018-05-22T07:44:07Z</time>
      </trkpt>
      <trkpt lat="42.606215039268136" lon="-6.809615967795253">
        <ele>511</ele>
        <time>2018-05-22T07:44:08Z</time>
      </trkpt>
      <trkpt lat="42.606187965720892" lon="-6.809682017192245">
        <ele>511</ele>
        <time>2018-05-22T07:44:10Z</time>
      </trkpt>
      <trkpt lat="42.606168016791344" lon="-6.809749994426966">
        <ele>511</ele>
        <time>2018-05-22T07:44:12Z</time>
      </trkpt>
      <trkpt lat="42.60607497766614" lon="-6.80990899913013">
        <ele>511</ele>
        <time>2018-05-22T07:44:16Z</time>
      </trkpt>
      <trkpt lat="42.605995014309883" lon="-6.80992903187871">
        <ele>511</ele>
        <time>2018-05-22T07:44:19Z</time>
      </trkpt>
      <trkpt lat="42.60588102042675" lon="-6.81003799661994">
        <ele>511</ele>
        <time>2018-05-22T07:44:23Z</time>
      </trkpt>
      <trkpt lat="42.605842966586351" lon="-6.810045959427953">
        <ele>511</ele>
        <time>2018-05-22T07:44:24Z</time>
      </trkpt>
      <trkpt lat="42.605786975473166" lon="-6.810074038803577">
        <ele>511</ele>
        <time>2018-05-22T07:44:26Z</time>
      </trkpt>
      <trkpt lat="42.60573199018836" lon="-6.810074038803577">
        <ele>511</ele>
        <time>2018-05-22T07:44:27Z</time>
      </trkpt>
      <trkpt lat="42.605678010731936" lon="-6.810092981904745">
        <ele>511</ele>
        <time>2018-05-22T07:44:29Z</time>
      </trkpt>
      <trkpt lat="42.605638029053807" lon="-6.810126006603241">
        <ele>511</ele>
        <time>2018-05-22T07:44:30Z</time>
      </trkpt>
      <trkpt lat="42.605594024062157" lon="-6.810159031301737">
        <ele>511</ele>
        <time>2018-05-22T07:44:32Z</time>
      </trkpt>
      <trkpt lat="42.605557981878519" lon="-6.810214016586542">
        <ele>511</ele>
        <time>2018-05-22T07:44:33Z</time>
      </trkpt>
      <trkpt lat="42.605525040999055" lon="-6.810271013528109">
        <ele>511</ele>
        <time>2018-05-22T07:44:35Z</time>
      </trkpt>
      <trkpt lat="42.605491010472178" lon="-6.81031996384263">
        <ele>511</ele>
        <time>2018-05-22T07:44:36Z</time>
      </trkpt>
      <trkpt lat="42.605444993823767" lon="-6.810377966612577">
        <ele>516</ele>
        <time>2018-05-22T07:44:38Z</time>
      </trkpt>
      <trkpt lat="42.605395959690213" lon="-6.810363968834281">
        <ele>516</ele>
        <time>2018-05-22T07:44:40Z</time>
      </trkpt>
      <trkpt lat="42.605347009375691" lon="-6.81031996384263">
        <ele>518</ele>
        <time>2018-05-22T07:44:41Z</time>
      </trkpt>
      <trkpt lat="42.605299986898899" lon="-6.810271013528109">
        <ele>518</ele>
        <time>2018-05-22T07:44:43Z</time>
      </trkpt>
      <trkpt lat="42.60525799356401" lon="-6.810207981616259">
        <ele>518</ele>
        <time>2018-05-22T07:44:45Z</time>
      </trkpt>
      <trkpt lat="42.60525799356401" lon="-6.810133969411254">
        <ele>518</ele>
        <time>2018-05-22T07:44:47Z</time>
      </trkpt>
      <trkpt lat="42.60525799356401" lon="-6.810034979134798">
        <ele>518</ele>
        <time>2018-05-22T07:44:49Z</time>
      </trkpt>
      <trkpt lat="42.605270985513926" lon="-6.809959039092064">
        <ele>518</ele>
        <time>2018-05-22T07:44:51Z</time>
      </trkpt>
      <trkpt lat="42.605270985513926" lon="-6.809882009401918">
        <ele>518</ele>
        <time>2018-05-22T07:44:52Z</time>
      </trkpt>
      <trkpt lat="42.605270985513926" lon="-6.809801962226629">
        <ele>518</ele>
        <time>2018-05-22T07:44:54Z</time>
      </trkpt>
      <trkpt lat="42.605233015492558" lon="-6.809749994426966">
        <ele>518</ele>
        <time>2018-05-22T07:44:56Z</time>
      </trkpt>
      <trkpt lat="42.605180041864514" lon="-6.809700960293412">
        <ele>518</ele>
        <time>2018-05-22T07:44:57Z</time>
      </trkpt>
      <trkpt lat="42.605133019387722" lon="-6.80965200997889">
        <ele>518</ele>
        <time>2018-05-22T07:44:59Z</time>
      </trkpt>
      <trkpt lat="42.605094965547323" lon="-6.809599958360195">
        <ele>518</ele>
        <time>2018-05-22T07:45:01Z</time>
      </trkpt>
      <trkpt lat="42.605049032717943" lon="-6.809533992782235">
        <ele>518</ele>
        <time>2018-05-22T07:45:03Z</time>
      </trkpt>
      <trkpt lat="42.605008967220783" lon="-6.809493005275726">
        <ele>518</ele>
        <time>2018-05-22T07:45:04Z</time>
      </trkpt>
      <trkpt lat="42.604962028563023" lon="-6.809476995840669">
        <ele>518</ele>
        <time>2018-05-22T07:45:06Z</time>
      </trkpt>
      <trkpt lat="42.604902014136314" lon="-6.809443971142173">
        <ele>518</ele>
        <time>2018-05-22T07:45:08Z</time>
      </trkpt>
      <trkpt lat="42.604841999709606" lon="-6.809427039697766">
        <ele>518</ele>
        <time>2018-05-22T07:45:10Z</time>
      </trkpt>
      <trkpt lat="42.604781985282898" lon="-6.809402983635664">
        <ele>518</ele>
        <time>2018-05-22T07:45:11Z</time>
      </trkpt>
      <trkpt lat="42.60472197085619" lon="-6.809378005564213">
        <ele>518</ele>
        <time>2018-05-22T07:45:13Z</time>
      </trkpt>
      <trkpt lat="42.60465600527823" lon="-6.809369958937168">
        <ele>518</ele>
        <time>2018-05-22T07:45:15Z</time>
      </trkpt>
      <trkpt lat="42.604600014165044" lon="-6.809369958937168">
        <ele>518</ele>
        <time>2018-05-22T07:45:17Z</time>
      </trkpt>
      <trkpt lat="42.604545028880239" lon="-6.809369958937168">
        <ele>530</ele>
        <time>2018-05-22T07:45:19Z</time>
      </trkpt>
      <trkpt lat="42.604487026110291" lon="-6.809369958937168">
        <ele>530</ele>
        <time>2018-05-22T07:45:20Z</time>
      </trkpt>
      <trkpt lat="42.604431034997106" lon="-6.809369958937168">
        <ele>530</ele>
        <time>2018-05-22T07:45:22Z</time>
      </trkpt>
      <trkpt lat="42.604368003085256" lon="-6.809369958937168">
        <ele>530</ele>
        <time>2018-05-22T07:45:24Z</time>
      </trkpt>
      <trkpt lat="42.60431301780045" lon="-6.809361996129155">
        <ele>530</ele>
        <time>2018-05-22T07:45:25Z</time>
      </trkpt>
      <trkpt lat="42.604240011423826" lon="-6.809328971430659">
        <ele>530</ele>
        <time>2018-05-22T07:45:28Z</time>
      </trkpt>
      <trkpt lat="42.604207992553711" lon="-6.809287983924151">
        <ele>530</ele>
        <time>2018-05-22T07:45:29Z</time>
      </trkpt>
      <trkpt lat="42.604199023917317" lon="-6.809216989204288">
        <ele>530</ele>
        <time>2018-05-22T07:45:31Z</time>
      </trkpt>
      <trkpt lat="42.604192988947034" lon="-6.809117998927832">
        <ele>530</ele>
        <time>2018-05-22T07:45:33Z</time>
      </trkpt>
      <trkpt lat="42.604192988947034" lon="-6.809033006429672">
        <ele>530</ele>
        <time>2018-05-22T07:45:35Z</time>
      </trkpt>
      <trkpt lat="42.604192988947034" lon="-6.808958994224668">
        <ele>530</ele>
        <time>2018-05-22T07:45:36Z</time>
      </trkpt>
      <trkpt lat="42.604192988947034" lon="-6.808882970362902">
        <ele>530</ele>
        <time>2018-05-22T07:45:38Z</time>
      </trkpt>
      <trkpt lat="42.604178991168737" lon="-6.808800995349884">
        <ele>530</ele>
        <time>2018-05-22T07:45:40Z</time>
      </trkpt>
      <trkpt lat="42.604165999218822" lon="-6.808716002851725">
        <ele>531</ele>
        <time>2018-05-22T07:45:42Z</time>
      </trkpt>
      <trkpt lat="42.604165999218822" lon="-6.80864199064672">
        <ele>531</ele>
        <time>2018-05-22T07:45:43Z</time>
      </trkpt>
      <trkpt lat="42.604153007268906" lon="-6.808516010642052">
        <ele>531</ele>
        <time>2018-05-22T07:45:46Z</time>
      </trkpt>
      <trkpt lat="42.604139009490609" lon="-6.808434035629034">
        <ele>531</ele>
        <time>2018-05-22T07:45:48Z</time>
      </trkpt>
      <trkpt lat="42.604139009490609" lon="-6.808319035917521">
        <ele>531</ele>
        <time>2018-05-22T07:45:50Z</time>
      </trkpt>
      <trkpt lat="42.604139009490609" lon="-6.808229014277458">
        <ele>531</ele>
        <time>2018-05-22T07:45:52Z</time>
      </trkpt>
      <trkpt lat="42.604139009490609" lon="-6.808144021779299">
        <ele>531</ele>
        <time>2018-05-22T07:45:54Z</time>
      </trkpt>
      <trkpt lat="42.604139009490609" lon="-6.808059029281139">
        <ele>531</ele>
        <time>2018-05-22T07:45:56Z</time>
      </trkpt>
      <trkpt lat="42.604139009490609" lon="-6.807985017076135">
        <ele>531</ele>
        <time>2018-05-22T07:45:58Z</time>
      </trkpt>
      <trkpt lat="42.604139009490609" lon="-6.807902958244085">
        <ele>531</ele>
        <time>2018-05-22T07:45:59Z</time>
      </trkpt>
      <trkpt lat="42.604153007268906" lon="-6.807826012372971">
        <ele>537</ele>
        <time>2018-05-22T07:46:01Z</time>
      </trkpt>
      <trkpt lat="42.604173040017486" lon="-6.807773960754275">
        <ele>537</ele>
        <time>2018-05-22T07:46:02Z</time>
      </trkpt>
      <trkpt lat="42.604192988947034" lon="-6.807691985741258">
        <ele>537</ele>
        <time>2018-05-22T07:46:04Z</time>
      </trkpt>
      <trkpt lat="42.604213021695614" lon="-6.807617973536253">
        <ele>537</ele>
        <time>2018-05-22T07:46:06Z</time>
      </trkpt>
      <trkpt lat="42.604255015030503" lon="-6.807569023221731">
        <ele>537</ele>
        <time>2018-05-22T07:46:08Z</time>
      </trkpt>
      <trkpt lat="42.604289967566729" lon="-6.807528035715222">
        <ele>537</ele>
        <time>2018-05-22T07:46:09Z</time>
      </trkpt>
      <trkpt lat="42.604318968951702" lon="-6.807479001581669">
        <ele>537</ele>
        <time>2018-05-22T07:46:10Z</time>
      </trkpt>
      <trkpt lat="42.604352999478579" lon="-6.807429967448115">
        <ele>537</ele>
        <time>2018-05-22T07:46:12Z</time>
      </trkpt>
      <trkpt lat="42.604373032227159" lon="-6.807371964678168">
        <ele>537</ele>
        <time>2018-05-22T07:46:13Z</time>
      </trkpt>
      <trkpt lat="42.604402033612132" lon="-6.807319996878505">
        <ele>537</ele>
        <time>2018-05-22T07:46:15Z</time>
      </trkpt>
      <trkpt lat="42.604431034997106" lon="-6.807259982451797">
        <ele>537</ele>
        <time>2018-05-22T07:46:16Z</time>
      </trkpt>
      <trkpt lat="42.604452995583415" lon="-6.807199968025088">
        <ele>537</ele>
        <time>2018-05-22T07:46:18Z</time>
      </trkpt>
      <trkpt lat="42.604479985311627" lon="-6.807130984961987">
        <ele>537</ele>
        <time>2018-05-22T07:46:19Z</time>
      </trkpt>
      <trkpt lat="42.604500018060207" lon="-6.807065019384027">
        <ele>547</ele>
        <time>2018-05-22T07:46:21Z</time>
      </trkpt>
      <trkpt lat="42.604526001960039" lon="-6.806988995522261">
        <ele>547</ele>
        <time>2018-05-22T07:46:23Z</time>
      </trkpt>
      <trkpt lat="42.604552991688251" lon="-6.806927975267172">
        <ele>547</ele>
        <time>2018-05-22T07:46:24Z</time>
      </trkpt>
      <trkpt lat="42.604565983638167" lon="-6.806852035224438">
        <ele>547</ele>
        <time>2018-05-22T07:46:26Z</time>
      </trkpt>
      <trkpt lat="42.604565983638167" lon="-6.806761007755995">
        <ele>547</ele>
        <time>2018-05-22T07:46:28Z</time>
      </trkpt>
      <trkpt lat="42.604577969759703" lon="-6.806748015806079">
        <ele>547</ele>
        <time>2018-05-22T07:46:28Z</time>
      </trkpt>
      <trkpt lat="42.604585010558367" lon="-6.806744998320937">
        <ele>547</ele>
        <time>2018-05-22T07:46:29Z</time>
      </trkpt>
      <trkpt lat="42.604594985023141" lon="-6.806739969179034">
        <ele>530</ele>
        <time>2018-05-22T07:46:29Z</time>
      </trkpt>
      <trkpt lat="42.604603031650186" lon="-6.806731000542641">
        <ele>530</ele>
        <time>2018-05-22T07:46:29Z</time>
      </trkpt>
      <trkpt lat="42.604612000286579" lon="-6.806725971400738">
        <ele>530</ele>
        <time>2018-05-22T07:46:30Z</time>
      </trkpt>
      <trkpt lat="42.604619963094592" lon="-6.806718008592725">
        <ele>530</ele>
        <time>2018-05-22T07:46:30Z</time>
      </trkpt>
      <trkpt lat="42.604624992236495" lon="-6.806705016642809">
        <ele>530</ele>
        <time>2018-05-22T07:46:30Z</time>
      </trkpt>
      <trkpt lat="42.604632033035159" lon="-6.806695964187384">
        <ele>530</ele>
        <time>2018-05-22T07:46:30Z</time>
      </trkpt>
      <trkpt lat="42.60463697835803" lon="-6.806680038571358">
        <ele>530</ele>
        <time>2018-05-22T07:46:31Z</time>
      </trkpt>
      <trkpt lat="42.604642007499933" lon="-6.806665034964681">
        <ele>530</ele>
        <time>2018-05-22T07:46:31Z</time>
      </trkpt>
      <trkpt lat="42.604647036641836" lon="-6.806654976680875">
        <ele>530</ele>
        <time>2018-05-22T07:46:31Z</time>
      </trkpt>
      <trkpt lat="42.604647958651185" lon="-6.806637961417437">
        <ele>530</ele>
        <time>2018-05-22T07:46:32Z</time>
      </trkpt>
      <trkpt lat="42.604661034420133" lon="-6.806499995291233">
        <ele>530</ele>
        <time>2018-05-22T07:46:35Z</time>
      </trkpt>
      <trkpt lat="42.604665979743004" lon="-6.80649496614933">
        <ele>530</ele>
        <time>2018-05-22T07:46:35Z</time>
      </trkpt>
      <trkpt lat="42.60467603802681" lon="-6.806480968371034">
        <ele>530</ele>
        <time>2018-05-22T07:46:36Z</time>
      </trkpt>
      <trkpt lat="42.60467603802681" lon="-6.806459007784724">
        <ele>530</ele>
        <time>2018-05-22T07:46:36Z</time>
      </trkpt>
      <trkpt lat="42.60467603802681" lon="-6.806436963379383">
        <ele>530</ele>
        <time>2018-05-22T07:46:36Z</time>
      </trkpt>
      <trkpt lat="42.60467603802681" lon="-6.806410979479551">
        <ele>530</ele>
        <time>2018-05-22T07:46:37Z</time>
      </trkpt>
      <trkpt lat="42.60467603802681" lon="-6.80638499557972">
        <ele>530</ele>
        <time>2018-05-22T07:46:38Z</time>
      </trkpt>
      <trkpt lat="42.604672014713287" lon="-6.80636303499341">
        <ele>530</ele>
        <time>2018-05-22T07:46:38Z</time>
      </trkpt>
      <trkpt lat="42.604664973914623" lon="-6.80634300224483">
        <ele>530</ele>
        <time>2018-05-22T07:46:39Z</time>
      </trkpt>
      <trkpt lat="42.60465701110661" lon="-6.806324981153011">
        <ele>530</ele>
        <time>2018-05-22T07:46:39Z</time>
      </trkpt>
      <trkpt lat="42.604652987793088" lon="-6.806303020566702">
        <ele>530</ele>
        <time>2018-05-22T07:46:40Z</time>
      </trkpt>
      <trkpt lat="42.604652987793088" lon="-6.8062789645046">
        <ele>530</ele>
        <time>2018-05-22T07:46:40Z</time>
      </trkpt>
      <trkpt lat="42.604652987793088" lon="-6.80625599808991">
        <ele>530</ele>
        <time>2018-05-22T07:46:41Z</time>
      </trkpt>
      <trkpt lat="42.604654999449849" lon="-6.80623303167522">
        <ele>530</ele>
        <time>2018-05-22T07:46:41Z</time>
      </trkpt>
      <trkpt lat="42.604654999449849" lon="-6.806205036118627">
        <ele>530</ele>
        <time>2018-05-22T07:46:42Z</time>
      </trkpt>
      <trkpt lat="42.604654999449849" lon="-6.806181985884905">
        <ele>530</ele>
        <time>2018-05-22T07:46:42Z</time>
      </trkpt>
      <trkpt lat="42.604654999449849" lon="-6.806160025298595">
        <ele>530</ele>
        <time>2018-05-22T07:46:43Z</time>
      </trkpt>
      <trkpt lat="42.604654999449849" lon="-6.806137980893254">
        <ele>530</ele>
        <time>2018-05-22T07:46:43Z</time>
      </trkpt>
      <trkpt lat="42.604654999449849" lon="-6.806116020306945">
        <ele>530</ele>
        <time>2018-05-22T07:46:44Z</time>
      </trkpt>
      <trkpt lat="42.604654999449849" lon="-6.806092970073223">
        <ele>537</ele>
        <time>2018-05-22T07:46:44Z</time>
      </trkpt>
      <trkpt lat="42.604650976136327" lon="-6.80606497451663">
        <ele>537</ele>
        <time>2018-05-22T07:46:45Z</time>
      </trkpt>
      <trkpt lat="42.604650976136327" lon="-6.80604200810194">
        <ele>537</ele>
        <time>2018-05-22T07:46:45Z</time>
      </trkpt>
      <trkpt lat="42.604647036641836" lon="-6.80602197535336">
        <ele>537</ele>
        <time>2018-05-22T07:46:46Z</time>
      </trkpt>
      <trkpt lat="42.604647036641836" lon="-6.80599900893867">
        <ele>537</ele>
        <time>2018-05-22T07:46:46Z</time>
      </trkpt>
      <trkpt lat="42.604645024985075" lon="-6.8059750366956">
        <ele>537</ele>
        <time>2018-05-22T07:46:47Z</time>
      </trkpt>
      <trkpt lat="42.604645024985075" lon="-6.805943017825484">
        <ele>537</ele>
        <time>2018-05-22T07:46:48Z</time>
      </trkpt>
      <trkpt lat="42.604641001671553" lon="-6.805923990905285">
        <ele>537</ele>
        <time>2018-05-22T07:46:48Z</time>
      </trkpt>
      <trkpt lat="42.604638990014791" lon="-6.805902030318975">
        <ele>537</ele>
        <time>2018-05-22T07:46:48Z</time>
      </trkpt>
      <trkpt lat="42.604638990014791" lon="-6.805878980085254">
        <ele>537</ele>
        <time>2018-05-22T07:46:49Z</time>
      </trkpt>
      <trkpt lat="42.604634966701269" lon="-6.805859031155706">
        <ele>537</ele>
        <time>2018-05-22T07:46:49Z</time>
      </trkpt>
      <trkpt lat="42.604627003893256" lon="-6.805841010063887">
        <ele>537</ele>
        <time>2018-05-22T07:46:50Z</time>
      </trkpt>
      <trkpt lat="42.604624992236495" lon="-6.805817959830165">
        <ele>537</ele>
        <time>2018-05-22T07:46:50Z</time>
      </trkpt>
      <trkpt lat="42.604619041085243" lon="-6.805792981758714">
        <ele>537</ele>
        <time>2018-05-22T07:46:51Z</time>
      </trkpt>
      <trkpt lat="42.604617029428482" lon="-6.805770015344024">
        <ele>537</ele>
        <time>2018-05-22T07:46:51Z</time>
      </trkpt>
      <trkpt lat="42.604605965316296" lon="-6.805750988423824">
        <ele>537</ele>
        <time>2018-05-22T07:46:52Z</time>
      </trkpt>
      <trkpt lat="42.604602025821805" lon="-6.805730033665896">
        <ele>537</ele>
        <time>2018-05-22T07:46:53Z</time>
      </trkpt>
      <trkpt lat="42.604595990851521" lon="-6.805710000917316">
        <ele>537</ele>
        <time>2018-05-22T07:46:53Z</time>
      </trkpt>
      <trkpt lat="42.604588028043509" lon="-6.805686028674245">
        <ele>537</ele>
        <time>2018-05-22T07:46:54Z</time>
      </trkpt>
      <trkpt lat="42.604576963931322" lon="-6.805672030895948">
        <ele>556</ele>
        <time>2018-05-22T07:46:54Z</time>
      </trkpt>
      <trkpt lat="42.604562966153026" lon="-6.805664990097284">
        <ele>556</ele>
        <time>2018-05-22T07:46:54Z</time>
      </trkpt>
      <trkpt lat="42.60454997420311" lon="-6.805659960955381">
        <ele>556</ele>
        <time>2018-05-22T07:46:55Z</time>
      </trkpt>
      <trkpt lat="42.604539999738336" lon="-6.805646969005466">
        <ele>556</ele>
        <time>2018-05-22T07:46:55Z</time>
      </trkpt>
      <trkpt lat="42.604539999738336" lon="-6.805598018690944">
        <ele>556</ele>
        <time>2018-05-22T07:46:56Z</time>
      </trkpt>
      <trkpt lat="42.604539999738336" lon="-6.805557031184435">
        <ele>556</ele>
        <time>2018-05-22T07:46:57Z</time>
      </trkpt>
      <trkpt lat="42.604536982253194" lon="-6.805519983172417">
        <ele>556</ele>
        <time>2018-05-22T07:46:58Z</time>
      </trkpt>
      <trkpt lat="42.604536982253194" lon="-6.805466003715992">
        <ele>556</ele>
        <time>2018-05-22T07:46:59Z</time>
      </trkpt>
      <trkpt lat="42.604533964768052" lon="-6.805416969582439">
        <ele>556</ele>
        <time>2018-05-22T07:47:00Z</time>
      </trkpt>
      <trkpt lat="42.604533964768052" lon="-6.805371958762407">
        <ele>556</ele>
        <time>2018-05-22T07:47:01Z</time>
      </trkpt>
      <trkpt lat="42.604530025273561" lon="-6.805327031761408">
        <ele>556</ele>
        <time>2018-05-22T07:47:02Z</time>
      </trkpt>
      <trkpt lat="42.604530025273561" lon="-6.80528998374939">
        <ele>559</ele>
        <time>2018-05-22T07:47:03Z</time>
      </trkpt>
      <trkpt lat="42.604530025273561" lon="-6.805253019556403">
        <ele>559</ele>
        <time>2018-05-22T07:47:04Z</time>
      </trkpt>
      <trkpt lat="42.604530025273561" lon="-6.805201973766089">
        <ele>559</ele>
        <time>2018-05-22T07:47:05Z</time>
      </trkpt>
      <trkpt lat="42.604519966989756" lon="-6.804954959079623">
        <ele>559</ele>
        <time>2018-05-22T07:47:10Z</time>
      </trkpt>
      <trkpt lat="42.604517033323646" lon="-6.804743986576796">
        <ele>559</ele>
        <time>2018-05-22T07:47:15Z</time>
      </trkpt>
      <trkpt lat="42.604517033323646" lon="-6.80451599881053">
        <ele>559</ele>
        <time>2018-05-22T07:47:20Z</time>
      </trkpt>
      <trkpt lat="42.604510998353362" lon="-6.804305026307702">
        <ele>560</ele>
        <time>2018-05-22T07:47:25Z</time>
      </trkpt>
      <trkpt lat="42.604490965604782" lon="-6.804144009947777">
        <ele>560</ele>
        <time>2018-05-22T07:47:28Z</time>
      </trkpt>
      <trkpt lat="42.604460036382079" lon="-6.803910993039608">
        <ele>560</ele>
        <time>2018-05-22T07:47:33Z</time>
      </trkpt>
      <trkpt lat="42.604460036382079" lon="-6.803877968341112">
        <ele>560</ele>
        <time>2018-05-22T07:47:34Z</time>
      </trkpt>
      <trkpt lat="42.604457018896937" lon="-6.803836980834603">
        <ele>560</ele>
        <time>2018-05-22T07:47:35Z</time>
      </trkpt>
      <trkpt lat="42.604457018896937" lon="-6.803800016641617">
        <ele>560</ele>
        <time>2018-05-22T07:47:36Z</time>
      </trkpt>
      <trkpt lat="42.604452995583415" lon="-6.803762968629599">
        <ele>560</ele>
        <time>2018-05-22T07:47:37Z</time>
      </trkpt>
      <trkpt lat="42.604452995583415" lon="-6.80372198112309">
        <ele>560</ele>
        <time>2018-05-22T07:47:37Z</time>
      </trkpt>
      <trkpt lat="42.604452995583415" lon="-6.803664984181523">
        <ele>560</ele>
        <time>2018-05-22T07:47:39Z</time>
      </trkpt>
      <trkpt lat="42.604452995583415" lon="-6.803628019988537">
        <ele>562</ele>
        <time>2018-05-22T07:47:39Z</time>
      </trkpt>
      <trkpt lat="42.604452995583415" lon="-6.803583009168506">
        <ele>562</ele>
        <time>2018-05-22T07:47:40Z</time>
      </trkpt>
      <trkpt lat="42.604452995583415" lon="-6.803542021661997">
        <ele>562</ele>
        <time>2018-05-22T07:47:41Z</time>
      </trkpt>
      <trkpt lat="42.604452995583415" lon="-6.803497010841966">
        <ele>562</ele>
        <time>2018-05-22T07:47:42Z</time>
      </trkpt>
      <trkpt lat="42.604452995583415" lon="-6.803456023335457">
        <ele>562</ele>
        <time>2018-05-22T07:47:43Z</time>
      </trkpt>
      <trkpt lat="42.604452995583415" lon="-6.803411012515426">
        <ele>562</ele>
        <time>2018-05-22T07:47:44Z</time>
      </trkpt>
      <trkpt lat="42.604452995583415" lon="-6.803370025008917">
        <ele>562</ele>
        <time>2018-05-22T07:47:45Z</time>
      </trkpt>
      <trkpt lat="42.604452995583415" lon="-6.803325014188886">
        <ele>562</ele>
        <time>2018-05-22T07:47:46Z</time>
      </trkpt>
      <trkpt lat="42.604452995583415" lon="-6.803287966176868">
        <ele>562</ele>
        <time>2018-05-22T07:47:47Z</time>
      </trkpt>
      <trkpt lat="42.604460036382079" lon="-6.803242033347487">
        <ele>562</ele>
        <time>2018-05-22T07:47:48Z</time>
      </trkpt>
      <trkpt lat="42.604466993361712" lon="-6.803197022527456">
        <ele>562</ele>
        <time>2018-05-22T07:47:49Z</time>
      </trkpt>
      <trkpt lat="42.604470010846853" lon="-6.803159974515438">
        <ele>562</ele>
        <time>2018-05-22T07:47:50Z</time>
      </trkpt>
      <trkpt lat="42.604473028331995" lon="-6.803111024200916">
        <ele>562</ele>
        <time>2018-05-22T07:47:51Z</time>
      </trkpt>
      <trkpt lat="42.604483002796769" lon="-6.803073976188898">
        <ele>562</ele>
        <time>2018-05-22T07:47:52Z</time>
      </trkpt>
      <trkpt lat="42.604489959776402" lon="-6.803025025874376">
        <ele>562</ele>
        <time>2018-05-22T07:47:53Z</time>
      </trkpt>
      <trkpt lat="42.604489959776402" lon="-6.802984038367868">
        <ele>562</ele>
        <time>2018-05-22T07:47:54Z</time>
      </trkpt>
      <trkpt lat="42.604489959776402" lon="-6.802932992577553">
        <ele>562</ele>
        <time>2018-05-22T07:47:55Z</time>
      </trkpt>
      <trkpt lat="42.604489959776402" lon="-6.802883958443999">
        <ele>562</ele>
        <time>2018-05-22T07:47:56Z</time>
      </trkpt>
      <trkpt lat="42.604489959776402" lon="-6.802836013957858">
        <ele>562</ele>
        <time>2018-05-22T07:47:57Z</time>
      </trkpt>
      <trkpt lat="42.604489959776402" lon="-6.80279896594584">
        <ele>565</ele>
        <time>2018-05-22T07:47:58Z</time>
      </trkpt>
      <trkpt lat="42.604489959776402" lon="-6.80275303311646">
        <ele>565</ele>
        <time>2018-05-22T07:47:59Z</time>
      </trkpt>
      <trkpt lat="42.604489959776402" lon="-6.802708022296429">
        <ele>565</ele>
        <time>2018-05-22T07:48:00Z</time>
      </trkpt>
      <trkpt lat="42.604489959776402" lon="-6.802670974284411">
        <ele>565</ele>
        <time>2018-05-22T07:48:00Z</time>
      </trkpt>
      <trkpt lat="42.604487026110291" lon="-6.802629986777902">
        <ele>565</ele>
        <time>2018-05-22T07:48:01Z</time>
      </trkpt>
      <trkpt lat="42.604487026110291" lon="-6.802587993443012">
        <ele>565</ele>
        <time>2018-05-22T07:48:02Z</time>
      </trkpt>
      <trkpt lat="42.604479985311627" lon="-6.802538959309459">
        <ele>565</ele>
        <time>2018-05-22T07:48:03Z</time>
      </trkpt>
      <trkpt lat="42.604470010846853" lon="-6.802472993731499">
        <ele>565</ele>
        <time>2018-05-22T07:48:05Z</time>
      </trkpt>
      <trkpt lat="42.604466993361712" lon="-6.802429994568229">
        <ele>565</ele>
        <time>2018-05-22T07:48:06Z</time>
      </trkpt>
      <trkpt lat="42.604452995583415" lon="-6.802376015111804">
        <ele>565</ele>
        <time>2018-05-22T07:48:07Z</time>
      </trkpt>
      <trkpt lat="42.604446960613132" lon="-6.802338967099786">
        <ele>565</ele>
        <time>2018-05-22T07:48:08Z</time>
      </trkpt>
      <trkpt lat="42.604432962834835" lon="-6.802302002906799">
        <ele>565</ele>
        <time>2018-05-22T07:48:09Z</time>
      </trkpt>
      <trkpt lat="42.604427011683583" lon="-6.802265960723162">
        <ele>565</ele>
        <time>2018-05-22T07:48:10Z</time>
      </trkpt>
      <trkpt lat="42.604419970884919" lon="-6.802216004580259">
        <ele>565</ele>
        <time>2018-05-22T07:48:11Z</time>
      </trkpt>
      <trkpt lat="42.604409996420145" lon="-6.802179040387273">
        <ele>565</ele>
        <time>2018-05-22T07:48:12Z</time>
      </trkpt>
      <trkpt lat="42.604402033612132" lon="-6.802141992375255">
        <ele>565</ele>
        <time>2018-05-22T07:48:12Z</time>
      </trkpt>
      <trkpt lat="42.604382000863552" lon="-6.802064040675759">
        <ele>565</ele>
        <time>2018-05-22T07:48:14Z</time>
      </trkpt>
      <trkpt lat="42.604372026398778" lon="-6.802032021805644">
        <ele>565</ele>
        <time>2018-05-22T07:48:15Z</time>
      </trkpt>
      <trkpt lat="42.604369008913636" lon="-6.801987010985613">
        <ele>565</ele>
        <time>2018-05-22T07:48:16Z</time>
      </trkpt>
      <trkpt lat="42.604369008913636" lon="-6.801935965195298">
        <ele>565</ele>
        <time>2018-05-22T07:48:17Z</time>
      </trkpt>
      <trkpt lat="42.604341013357043" lon="-6.801752988249064">
        <ele>565</ele>
        <time>2018-05-22T07:48:21Z</time>
      </trkpt>
      <trkpt lat="42.604289967566729" lon="-6.801503961905837">
        <ele>565</ele>
        <time>2018-05-22T07:48:27Z</time>
      </trkpt>
      <trkpt lat="42.604222996160388" lon="-6.801241021603346">
        <ele>565</ele>
        <time>2018-05-22T07:48:33Z</time>
      </trkpt>
      <trkpt lat="42.604175973683596" lon="-6.800990989431739">
        <ele>563</ele>
        <time>2018-05-22T07:48:38Z</time>
      </trkpt>
      <trkpt lat="42.604130962863564" lon="-6.800742968916893">
        <ele>563</ele>
        <time>2018-05-22T07:48:44Z</time>
      </trkpt>
      <trkpt lat="42.604117970913649" lon="-6.800654036924243">
        <ele>563</ele>
        <time>2018-05-22T07:48:46Z</time>
      </trkpt>
      <trkpt lat="42.604101039469242" lon="-6.800538031384349">
        <ele>563</ele>
        <time>2018-05-22T07:48:49Z</time>
      </trkpt>
      <trkpt lat="42.604064997285604" lon="-6.800237037241459">
        <ele>565</ele>
        <time>2018-05-22T07:48:55Z</time>
      </trkpt>
      <trkpt lat="42.604038007557392" lon="-6.799921961501241">
        <ele>565</ele>
        <time>2018-05-22T07:49:02Z</time>
      </trkpt>
      <trkpt lat="42.60401101782918" lon="-6.799661032855511">
        <ele>565</ele>
        <time>2018-05-22T07:49:08Z</time>
      </trkpt>
      <trkpt lat="42.60401101782918" lon="-6.799654997885227">
        <ele>565</ele>
        <time>2018-05-22T07:49:08Z</time>
      </trkpt>
      <trkpt lat="42.603974975645542" lon="-6.799341011792421">
        <ele>566</ele>
        <time>2018-05-22T07:49:15Z</time>
      </trkpt>
      <trkpt lat="42.603942034766078" lon="-6.799021996557713">
        <ele>566</ele>
        <time>2018-05-22T07:49:22Z</time>
      </trkpt>
      <trkpt lat="42.603942034766078" lon="-6.798985032364726">
        <ele>566</ele>
        <time>2018-05-22T07:49:23Z</time>
      </trkpt>
      <trkpt lat="42.603939017280936" lon="-6.798943961039186">
        <ele>566</ele>
        <time>2018-05-22T07:49:24Z</time>
      </trkpt>
      <trkpt lat="42.603939017280936" lon="-6.798902973532677">
        <ele>566</ele>
        <time>2018-05-22T07:49:24Z</time>
      </trkpt>
      <trkpt lat="42.603939017280936" lon="-6.79886600933969">
        <ele>566</ele>
        <time>2018-05-22T07:49:25Z</time>
      </trkpt>
      <trkpt lat="42.603935999795794" lon="-6.798820998519659">
        <ele>566</ele>
        <time>2018-05-22T07:49:26Z</time>
      </trkpt>
      <trkpt lat="42.603935999795794" lon="-6.79878001101315">
        <ele>566</ele>
        <time>2018-05-22T07:49:27Z</time>
      </trkpt>
      <trkpt lat="42.603935999795794" lon="-6.798739023506641">
        <ele>566</ele>
        <time>2018-05-22T07:49:28Z</time>
      </trkpt>
      <trkpt lat="42.60392895899713" lon="-6.798701975494623">
        <ele>566</ele>
        <time>2018-05-22T07:49:29Z</time>
      </trkpt>
      <trkpt lat="42.60392895899713" lon="-6.798660987988114">
        <ele>566</ele>
        <time>2018-05-22T07:49:30Z</time>
      </trkpt>
      <trkpt lat="42.60392895899713" lon="-6.798624023795128">
        <ele>566</ele>
        <time>2018-05-22T07:49:31Z</time>
      </trkpt>
      <trkpt lat="42.60392895899713" lon="-6.798574989661574">
        <ele>566</ele>
        <time>2018-05-22T07:49:32Z</time>
      </trkpt>
      <trkpt lat="42.60392895899713" lon="-6.798534002155066">
        <ele>566</ele>
        <time>2018-05-22T07:49:33Z</time>
      </trkpt>
      <trkpt lat="42.60392895899713" lon="-6.798493014648557">
        <ele>566</ele>
        <time>2018-05-22T07:49:33Z</time>
      </trkpt>
      <trkpt lat="42.60392895899713" lon="-6.798455966636539">
        <ele>566</ele>
        <time>2018-05-22T07:49:34Z</time>
      </trkpt>
      <trkpt lat="42.60392895899713" lon="-6.798419002443552">
        <ele>566</ele>
        <time>2018-05-22T07:49:35Z</time>
      </trkpt>
      <trkpt lat="42.60392895899713" lon="-6.798356976360083">
        <ele>566</ele>
        <time>2018-05-22T07:49:36Z</time>
      </trkpt>
      <trkpt lat="42.60392895899713" lon="-6.798319006338716">
        <ele>566</ele>
        <time>2018-05-22T07:49:37Z</time>
      </trkpt>
      <trkpt lat="42.60392895899713" lon="-6.798278018832207">
        <ele>566</ele>
        <time>2018-05-22T07:49:38Z</time>
      </trkpt>
      <trkpt lat="42.60392895899713" lon="-6.798239964991808">
        <ele>566</ele>
        <time>2018-05-22T07:49:39Z</time>
      </trkpt>
      <trkpt lat="42.603935999795794" lon="-6.798198977485299">
        <ele>566</ele>
        <time>2018-05-22T07:49:40Z</time>
      </trkpt>
      <trkpt lat="42.603945974260569" lon="-6.79815798997879">
        <ele>566</ele>
        <time>2018-05-22T07:49:41Z</time>
      </trkpt>
      <trkpt lat="42.603958966210485" lon="-6.798128988593817">
        <ele>566</ele>
        <time>2018-05-22T07:49:42Z</time>
      </trkpt>
      <trkpt lat="42.603975981473923" lon="-6.798088001087308">
        <ele>566</ele>
        <time>2018-05-22T07:49:43Z</time>
      </trkpt>
      <trkpt lat="42.603986039757729" lon="-6.798054976388812">
        <ele>566</ele>
        <time>2018-05-22T07:49:43Z</time>
      </trkpt>
      <trkpt lat="42.603996014222503" lon="-6.798022035509348">
        <ele>566</ele>
        <time>2018-05-22T07:49:44Z</time>
      </trkpt>
      <trkpt lat="42.60401202365756" lon="-6.79798498749733">
        <ele>566</ele>
        <time>2018-05-22T07:49:45Z</time>
      </trkpt>
      <trkpt lat="42.604026021435857" lon="-6.797943999990821">
        <ele>566</ele>
        <time>2018-05-22T07:49:46Z</time>
      </trkpt>
      <trkpt lat="42.604042030870914" lon="-6.797907035797834">
        <ele>566</ele>
        <time>2018-05-22T07:49:47Z</time>
      </trkpt>
      <trkpt lat="42.604059968143702" lon="-6.797879040241242">
        <ele>567</ele>
        <time>2018-05-22T07:49:48Z</time>
      </trkpt>
      <trkpt lat="42.604124005883932" lon="-6.797749036923051">
        <ele>567</ele>
        <time>2018-05-22T07:49:51Z</time>
      </trkpt>
      <trkpt lat="42.604191983118653" lon="-6.797615010291338">
        <ele>567</ele>
        <time>2018-05-22T07:49:55Z</time>
      </trkpt>
      <trkpt lat="42.604280998930335" lon="-6.797402026131749">
        <ele>567</ele>
        <time>2018-05-22T07:50:00Z</time>
      </trkpt>
      <trkpt lat="42.604372026398778" lon="-6.797175966203213">
        <ele>567</ele>
        <time>2018-05-22T07:50:06Z</time>
      </trkpt>
      <trkpt lat="42.604438997805119" lon="-6.797027019783855">
        <ele>570</ele>
        <time>2018-05-22T07:50:10Z</time>
      </trkpt>
      <trkpt lat="42.604500018060207" lon="-6.796902967616916">
        <ele>570</ele>
        <time>2018-05-22T07:50:13Z</time>
      </trkpt>
      <trkpt lat="42.604567995294929" lon="-6.796745974570513">
        <ele>570</ele>
        <time>2018-05-22T07:50:17Z</time>
      </trkpt>
      <trkpt lat="42.604625998064876" lon="-6.796625023707748">
        <ele>570</ele>
        <time>2018-05-22T07:50:20Z</time>
      </trkpt>
      <trkpt lat="42.60463597252965" lon="-6.796613037586212">
        <ele>570</ele>
        <time>2018-05-22T07:50:20Z</time>
      </trkpt>
      <trkpt lat="42.604646030813456" lon="-6.796580012887716">
        <ele>570</ele>
        <time>2018-05-22T07:50:21Z</time>
      </trkpt>
      <trkpt lat="42.604660028591752" lon="-6.796543970704079">
        <ele>570</ele>
        <time>2018-05-22T07:50:22Z</time>
      </trkpt>
      <trkpt lat="42.604670003056526" lon="-6.796512035652995">
        <ele>570</ele>
        <time>2018-05-22T07:50:23Z</time>
      </trkpt>
      <trkpt lat="42.604690035805106" lon="-6.796485967934132">
        <ele>570</ele>
        <time>2018-05-22T07:50:24Z</time>
      </trkpt>
      <trkpt lat="42.604704033583403" lon="-6.796458978205919">
        <ele>570</ele>
        <time>2018-05-22T07:50:24Z</time>
      </trkpt>
      <trkpt lat="42.604714008048177" lon="-6.796340038999915">
        <ele>570</ele>
        <time>2018-05-22T07:50:27Z</time>
      </trkpt>
      <trkpt lat="42.604730017483234" lon="-6.796150021255016">
        <ele>570</ele>
        <time>2018-05-22T07:50:31Z</time>
      </trkpt>
      <trkpt lat="42.604736974462867" lon="-6.795958997681737">
        <ele>579</ele>
        <time>2018-05-22T07:50:35Z</time>
      </trkpt>
      <trkpt lat="42.604748038575053" lon="-6.795764034613967">
        <ele>579</ele>
        <time>2018-05-22T07:50:40Z</time>
      </trkpt>
      <trkpt lat="42.604761030524969" lon="-6.795574016869068">
        <ele>579</ele>
        <time>2018-05-22T07:50:44Z</time>
      </trkpt>
      <trkpt lat="42.604780979454517" lon="-6.795436972752214">
        <ele>579</ele>
        <time>2018-05-22T07:50:47Z</time>
      </trkpt>
      <trkpt lat="42.604780979454517" lon="-6.795423980802298">
        <ele>579</ele>
        <time>2018-05-22T07:50:47Z</time>
      </trkpt>
      <trkpt lat="42.60478600859642" lon="-6.795305041596293">
        <ele>579</ele>
        <time>2018-05-22T07:50:50Z</time>
      </trkpt>
      <trkpt lat="42.604778967797756" lon="-6.795046040788293">
        <ele>583</ele>
        <time>2018-05-22T07:50:55Z</time>
      </trkpt>
      <trkpt lat="42.604778967797756" lon="-6.794801037758589">
        <ele>583</ele>
        <time>2018-05-22T07:51:01Z</time>
      </trkpt>
      <trkpt lat="42.604778967797756" lon="-6.794585036113858">
        <ele>583</ele>
        <time>2018-05-22T07:51:05Z</time>
      </trkpt>
      <trkpt lat="42.604778967797756" lon="-6.794239031150937">
        <ele>582</ele>
        <time>2018-05-22T07:51:13Z</time>
      </trkpt>
      <trkpt lat="42.604778967797756" lon="-6.793921021744609">
        <ele>582</ele>
        <time>2018-05-22T07:51:20Z</time>
      </trkpt>
      <trkpt lat="42.604782991111279" lon="-6.793610975146294">
        <ele>581</ele>
        <time>2018-05-22T07:51:26Z</time>
      </trkpt>
      <trkpt lat="42.604789026081562" lon="-6.79328097961843">
        <ele>581</ele>
        <time>2018-05-22T07:51:34Z</time>
      </trkpt>
      <trkpt lat="42.604792965576053" lon="-6.793039999902248">
        <ele>581</ele>
        <time>2018-05-22T07:51:39Z</time>
      </trkpt>
      <trkpt lat="42.604768993332982" lon="-6.792898010462523">
        <ele>581</ele>
        <time>2018-05-22T07:51:42Z</time>
      </trkpt>
      <trkpt lat="42.604756001383066" lon="-6.792748980224133">
        <ele>579</ele>
        <time>2018-05-22T07:51:45Z</time>
      </trkpt>
      <trkpt lat="42.604737980291247" lon="-6.792571032419801">
        <ele>579</ele>
        <time>2018-05-22T07:51:49Z</time>
      </trkpt>
      <trkpt lat="42.604733034968376" lon="-6.79237799718976">
        <ele>579</ele>
        <time>2018-05-22T07:51:53Z</time>
      </trkpt>
      <trkpt lat="42.604733034968376" lon="-6.792348995804787">
        <ele>579</ele>
        <time>2018-05-22T07:51:54Z</time>
      </trkpt>
      <trkpt lat="42.604733034968376" lon="-6.792308008298278">
        <ele>579</ele>
        <time>2018-05-22T07:51:55Z</time>
      </trkpt>
      <trkpt lat="42.604735968634486" lon="-6.792258974164724">
        <ele>579</ele>
        <time>2018-05-22T07:51:56Z</time>
      </trkpt>
      <trkpt lat="42.604735968634486" lon="-6.792222009971738">
        <ele>579</ele>
        <time>2018-05-22T07:51:57Z</time>
      </trkpt>
      <trkpt lat="42.604735968634486" lon="-6.792171970009804">
        <ele>579</ele>
        <time>2018-05-22T07:51:58Z</time>
      </trkpt>
      <trkpt lat="42.604735968634486" lon="-6.792126959189773">
        <ele>579</ele>
        <time>2018-05-22T07:51:59Z</time>
      </trkpt>
      <trkpt lat="42.604735968634486" lon="-6.792089994996786">
        <ele>579</ele>
        <time>2018-05-22T07:52:00Z</time>
      </trkpt>
      <trkpt lat="42.604735968634486" lon="-6.79205403663218">
        <ele>579</ele>
        <time>2018-05-22T07:52:01Z</time>
      </trkpt>
      <trkpt lat="42.604735968634486" lon="-6.792016988620162">
        <ele>579</ele>
        <time>2018-05-22T07:52:01Z</time>
      </trkpt>
      <trkpt lat="42.604735968634486" lon="-6.79197097197175">
        <ele>577</ele>
        <time>2018-05-22T07:52:02Z</time>
      </trkpt>
      <trkpt lat="42.604735968634486" lon="-6.791935013607144">
        <ele>577</ele>
        <time>2018-05-22T07:52:03Z</time>
      </trkpt>
      <trkpt lat="42.604739991948009" lon="-6.791894026100636">
        <ele>577</ele>
        <time>2018-05-22T07:52:04Z</time>
      </trkpt>
      <trkpt lat="42.604739991948009" lon="-6.791847003623843">
        <ele>577</ele>
        <time>2018-05-22T07:52:05Z</time>
      </trkpt>
      <trkpt lat="42.60474300943315" lon="-6.791809033602476">
        <ele>577</ele>
        <time>2018-05-22T07:52:06Z</time>
      </trkpt>
      <trkpt lat="42.604746026918292" lon="-6.791767962276936">
        <ele>577</ele>
        <time>2018-05-22T07:52:07Z</time>
      </trkpt>
      <trkpt lat="42.604752983897924" lon="-6.791735021397471">
        <ele>577</ele>
        <time>2018-05-22T07:52:08Z</time>
      </trkpt>
      <trkpt lat="42.604738986119628" lon="-6.791686993092299">
        <ele>577</ele>
        <time>2018-05-22T07:52:09Z</time>
      </trkpt>
      <trkpt lat="42.604711996391416" lon="-6.791643993929029">
        <ele>577</ele>
        <time>2018-05-22T07:52:10Z</time>
      </trkpt>
      <trkpt lat="42.604705039411783" lon="-6.791638964787126">
        <ele>577</ele>
        <time>2018-05-22T07:52:10Z</time>
      </trkpt>
      <trkpt lat="42.604682995006442" lon="-6.791580962017179">
        <ele>577</ele>
        <time>2018-05-22T07:52:12Z</time>
      </trkpt>
      <trkpt lat="42.604673020541668" lon="-6.791565036401153">
        <ele>577</ele>
        <time>2018-05-22T07:52:12Z</time>
      </trkpt>
      <trkpt lat="42.604649970307946" lon="-6.791506027802825">
        <ele>577</ele>
        <time>2018-05-22T07:52:13Z</time>
      </trkpt>
      <trkpt lat="42.604647958651185" lon="-6.791502004489303">
        <ele>577</ele>
        <time>2018-05-22T07:52:14Z</time>
      </trkpt>
      <trkpt lat="42.604620968922973" lon="-6.791447019204497">
        <ele>577</ele>
        <time>2018-05-22T07:52:15Z</time>
      </trkpt>
      <trkpt lat="42.604618035256863" lon="-6.791444001719356">
        <ele>577</ele>
        <time>2018-05-22T07:52:15Z</time>
      </trkpt>
      <trkpt lat="42.604600014165044" lon="-6.791408965364099">
        <ele>577</ele>
        <time>2018-05-22T07:52:16Z</time>
      </trkpt>
      <trkpt lat="42.604596996679902" lon="-6.791405025869608">
        <ele>577</ele>
        <time>2018-05-22T07:52:16Z</time>
      </trkpt>
      <trkpt lat="42.604569001123309" lon="-6.79136797785759">
        <ele>568</ele>
        <time>2018-05-22T07:52:17Z</time>
      </trkpt>
      <trkpt lat="42.604565983638167" lon="-6.791364960372448">
        <ele>568</ele>
        <time>2018-05-22T07:52:17Z</time>
      </trkpt>
      <trkpt lat="42.6045280136168" lon="-6.791298994794488">
        <ele>568</ele>
        <time>2018-05-22T07:52:19Z</time>
      </trkpt>
      <trkpt lat="42.60448501445353" lon="-6.791206961497665">
        <ele>568</ele>
        <time>2018-05-22T07:52:22Z</time>
      </trkpt>
      <trkpt lat="42.604469005018473" lon="-6.791182989254594">
        <ele>567</ele>
        <time>2018-05-22T07:52:22Z</time>
      </trkpt>
      <trkpt lat="42.604435980319977" lon="-6.791117023676634">
        <ele>567</ele>
        <time>2018-05-22T07:52:24Z</time>
      </trkpt>
      <trkpt lat="42.604408990591764" lon="-6.791064972057939">
        <ele>567</ele>
        <time>2018-05-22T07:52:25Z</time>
      </trkpt>
      <trkpt lat="42.604348976165056" lon="-6.791004035621882">
        <ele>567</ele>
        <time>2018-05-22T07:52:28Z</time>
      </trkpt>
      <trkpt lat="42.604320980608463" lon="-6.790947038680315">
        <ele>567</ele>
        <time>2018-05-22T07:52:29Z</time>
      </trkpt>
      <trkpt lat="42.604298014193773" lon="-6.790881995111704">
        <ele>567</ele>
        <time>2018-05-22T07:52:31Z</time>
      </trkpt>
      <trkpt lat="42.604273036122322" lon="-6.790819969028235">
        <ele>567</ele>
        <time>2018-05-22T07:52:32Z</time>
      </trkpt>
      <trkpt lat="42.604247974231839" lon="-6.790748974308372">
        <ele>567</ele>
        <time>2018-05-22T07:52:34Z</time>
      </trkpt>
      <trkpt lat="42.604225007817149" lon="-6.790669010952115">
        <ele>567</ele>
        <time>2018-05-22T07:52:36Z</time>
      </trkpt>
      <trkpt lat="42.60420598089695" lon="-6.790588963776827">
        <ele>567</ele>
        <time>2018-05-22T07:52:38Z</time>
      </trkpt>
      <trkpt lat="42.60418301448226" lon="-6.790519980713725">
        <ele>567</ele>
        <time>2018-05-22T07:52:39Z</time>
      </trkpt>
      <trkpt lat="42.604155018925667" lon="-6.79044496268034">
        <ele>567</ele>
        <time>2018-05-22T07:52:41Z</time>
      </trkpt>
      <trkpt lat="42.604144960641861" lon="-6.790370028465986">
        <ele>567</ele>
        <time>2018-05-22T07:52:43Z</time>
      </trkpt>
      <trkpt lat="42.604130962863564" lon="-6.790299033746123">
        <ele>564</ele>
        <time>2018-05-22T07:52:44Z</time>
      </trkpt>
      <trkpt lat="42.604099027812481" lon="-6.790218986570835">
        <ele>564</ele>
        <time>2018-05-22T07:52:46Z</time>
      </trkpt>
      <trkpt lat="42.604074971750379" lon="-6.790132988244295">
        <ele>564</ele>
        <time>2018-05-22T07:52:48Z</time>
      </trkpt>
      <trkpt lat="42.604057034477592" lon="-6.790064005181193">
        <ele>564</ele>
        <time>2018-05-22T07:52:50Z</time>
      </trkpt>
      <trkpt lat="42.604046976193786" lon="-6.789985969662666">
        <ele>564</ele>
        <time>2018-05-22T07:52:52Z</time>
      </trkpt>
      <trkpt lat="42.604027027264237" lon="-6.789902988821268">
        <ele>564</ele>
        <time>2018-05-22T07:52:54Z</time>
      </trkpt>
      <trkpt lat="42.604006994515657" lon="-6.789832999929786">
        <ele>564</ele>
        <time>2018-05-22T07:52:55Z</time>
      </trkpt>
      <trkpt lat="42.603986961767077" lon="-6.789758987724781">
        <ele>564</ele>
        <time>2018-05-22T07:52:57Z</time>
      </trkpt>
      <trkpt lat="42.603958966210485" lon="-6.789694027975202">
        <ele>564</ele>
        <time>2018-05-22T07:52:59Z</time>
      </trkpt>
      <trkpt lat="42.603924013674259" lon="-6.789638958871365">
        <ele>564</ele>
        <time>2018-05-22T07:53:00Z</time>
      </trkpt>
      <trkpt lat="42.603890988975763" lon="-6.789565030485392">
        <ele>564</ele>
        <time>2018-05-22T07:53:02Z</time>
      </trkpt>
      <trkpt lat="42.603851007297635" lon="-6.789511973038316">
        <ele>568</ele>
        <time>2018-05-22T07:53:04Z</time>
      </trkpt>
      <trkpt lat="42.603809013962746" lon="-6.789453970268369">
        <ele>568</ele>
        <time>2018-05-22T07:53:06Z</time>
      </trkpt>
      <trkpt lat="42.603781018406153" lon="-6.789391022175551">
        <ele>568</ele>
        <time>2018-05-22T07:53:07Z</time>
      </trkpt>
      <trkpt lat="42.603748999536037" lon="-6.789339976385236">
        <ele>557</ele>
        <time>2018-05-22T07:53:09Z</time>
      </trkpt>
      <trkpt lat="42.603704994544387" lon="-6.789281973615289">
        <ele>557</ele>
        <time>2018-05-22T07:53:10Z</time>
      </trkpt>
      <trkpt lat="42.603600975126028" lon="-6.789124980568886">
        <ele>557</ele>
        <time>2018-05-22T07:53:15Z</time>
      </trkpt>
      <trkpt lat="42.60349796153605" lon="-6.789004029706121">
        <ele>557</ele>
        <time>2018-05-22T07:53:19Z</time>
      </trkpt>
      <trkpt lat="42.60347499512136" lon="-6.788963964208961">
        <ele>557</ele>
        <time>2018-05-22T07:53:20Z</time>
      </trkpt>
      <trkpt lat="42.60345596820116" lon="-6.788911996409297">
        <ele>557</ele>
        <time>2018-05-22T07:53:21Z</time>
      </trkpt>
      <trkpt lat="42.603427972644567" lon="-6.788877965882421">
        <ele>557</ele>
        <time>2018-05-22T07:53:23Z</time>
      </trkpt>
      <trkpt lat="42.603395031765103" lon="-6.788837984204292">
        <ele>557</ele>
        <time>2018-05-22T07:53:24Z</time>
      </trkpt>
      <trkpt lat="42.603353038430214" lon="-6.788796996697784">
        <ele>557</ele>
        <time>2018-05-22T07:53:25Z</time>
      </trkpt>
      <trkpt lat="42.60332403704524" lon="-6.788766989484429">
        <ele>557</ele>
        <time>2018-05-22T07:53:26Z</time>
      </trkpt>
      <trkpt lat="42.603291012346745" lon="-6.788732036948204">
        <ele>557</ele>
        <time>2018-05-22T07:53:28Z</time>
      </trkpt>
      <trkpt lat="42.603253964334726" lon="-6.788691971451044">
        <ele>558</ele>
        <time>2018-05-22T07:53:29Z</time>
      </trkpt>
      <trkpt lat="42.603211970999837" lon="-6.788651989772916">
        <ele>558</ele>
        <time>2018-05-22T07:53:31Z</time>
      </trkpt>
      <trkpt lat="42.603181963786483" lon="-6.788629023358226">
        <ele>558</ele>
        <time>2018-05-22T07:53:32Z</time>
      </trkpt>
      <trkpt lat="42.603148017078638" lon="-6.788591975346208">
        <ele>558</ele>
        <time>2018-05-22T07:53:33Z</time>
      </trkpt>
      <trkpt lat="42.603114992380142" lon="-6.788558028638363">
        <ele>558</ele>
        <time>2018-05-22T07:53:34Z</time>
      </trkpt>
      <trkpt lat="42.603066964074969" lon="-6.788534978404641">
        <ele>558</ele>
        <time>2018-05-22T07:53:36Z</time>
      </trkpt>
      <trkpt lat="42.603035029023886" lon="-6.788505977019668">
        <ele>558</ele>
        <time>2018-05-22T07:53:37Z</time>
      </trkpt>
      <trkpt lat="42.603007033467293" lon="-6.788477981463075">
        <ele>558</ele>
        <time>2018-05-22T07:53:38Z</time>
      </trkpt>
      <trkpt lat="42.602965040132403" lon="-6.788465995341539">
        <ele>558</ele>
        <time>2018-05-22T07:53:39Z</time>
      </trkpt>
      <trkpt lat="42.602937966585159" lon="-6.788441017270088">
        <ele>551</ele>
        <time>2018-05-22T07:53:40Z</time>
      </trkpt>
      <trkpt lat="42.602907037362456" lon="-6.788397012278438">
        <ele>551</ele>
        <time>2018-05-22T07:53:41Z</time>
      </trkpt>
      <trkpt lat="42.602887004613876" lon="-6.788355018943548">
        <ele>551</ele>
        <time>2018-05-22T07:53:42Z</time>
      </trkpt>
      <trkpt lat="42.602867977693677" lon="-6.78831797093153">
        <ele>551</ele>
        <time>2018-05-22T07:53:43Z</time>
      </trkpt>
      <trkpt lat="42.602845011278987" lon="-6.788277989253402">
        <ele>551</ele>
        <time>2018-05-22T07:53:45Z</time>
      </trkpt>
      <trkpt lat="42.602820033207536" lon="-6.788229960948229">
        <ele>551</ele>
        <time>2018-05-22T07:53:46Z</time>
      </trkpt>
      <trkpt lat="42.602792037650943" lon="-6.788196014240384">
        <ele>551</ele>
        <time>2018-05-22T07:53:47Z</time>
      </trkpt>
      <trkpt lat="42.602763958275318" lon="-6.788143962621689">
        <ele>551</ele>
        <time>2018-05-22T07:53:48Z</time>
      </trkpt>
      <trkpt lat="42.602725988253951" lon="-6.788098029792309">
        <ele>551</ele>
        <time>2018-05-22T07:53:50Z</time>
      </trkpt>
      <trkpt lat="42.602707967162132" lon="-6.788052013143897">
        <ele>551</ele>
        <time>2018-05-22T07:53:51Z</time>
      </trkpt>
      <trkpt lat="42.60268097743392" lon="-6.788010019809008">
        <ele>551</ele>
        <time>2018-05-22T07:53:52Z</time>
      </trkpt>
      <trkpt lat="42.602642001584172" lon="-6.787952017039061">
        <ele>551</ele>
        <time>2018-05-22T07:53:54Z</time>
      </trkpt>
      <trkpt lat="42.602547034621239" lon="-6.787809021770954">
        <ele>550</ele>
        <time>2018-05-22T07:53:58Z</time>
      </trkpt>
      <trkpt lat="42.602537982165813" lon="-6.787792006507516">
        <ele>550</ele>
        <time>2018-05-22T07:53:59Z</time>
      </trkpt>
      <trkpt lat="42.602507974952459" lon="-6.787743978202343">
        <ele>550</ele>
        <time>2018-05-22T07:54:00Z</time>
      </trkpt>
      <trkpt lat="42.602485008537769" lon="-6.787703996524215">
        <ele>550</ele>
        <time>2018-05-22T07:54:01Z</time>
      </trkpt>
      <trkpt lat="42.602471010759473" lon="-6.787655968219042">
        <ele>550</ele>
        <time>2018-05-22T07:54:02Z</time>
      </trkpt>
      <trkpt lat="42.602457012981176" lon="-6.787610035389662">
        <ele>550</ele>
        <time>2018-05-22T07:54:03Z</time>
      </trkpt>
      <trkpt lat="42.602457012981176" lon="-6.787555972114205">
        <ele>550</ele>
        <time>2018-05-22T07:54:04Z</time>
      </trkpt>
      <trkpt lat="42.602457012981176" lon="-6.78749998100102">
        <ele>550</ele>
        <time>2018-05-22T07:54:06Z</time>
      </trkpt>
      <trkpt lat="42.602457012981176" lon="-6.787442984059453">
        <ele>550</ele>
        <time>2018-05-22T07:54:07Z</time>
      </trkpt>
      <trkpt lat="42.602457012981176" lon="-6.787389004603028">
        <ele>550</ele>
        <time>2018-05-22T07:54:08Z</time>
      </trkpt>
      <trkpt lat="42.602461958304048" lon="-6.787320021539927">
        <ele>550</ele>
        <time>2018-05-22T07:54:10Z</time>
      </trkpt>
      <trkpt lat="42.602461958304048" lon="-6.78726302459836">
        <ele>550</ele>
        <time>2018-05-22T07:54:11Z</time>
      </trkpt>
      <trkpt lat="42.602461958304048" lon="-6.787206027656794">
        <ele>550</ele>
        <time>2018-05-22T07:54:12Z</time>
      </trkpt>
      <trkpt lat="42.60246598161757" lon="-6.787153976038098">
        <ele>550</ele>
        <time>2018-05-22T07:54:13Z</time>
      </trkpt>
      <trkpt lat="42.60246598161757" lon="-6.787102008238435">
        <ele>547</ele>
        <time>2018-05-22T07:54:14Z</time>
      </trkpt>
      <trkpt lat="42.602476039901376" lon="-6.787062026560307">
        <ele>547</ele>
        <time>2018-05-22T07:54:15Z</time>
      </trkpt>
      <trkpt lat="42.602485008537769" lon="-6.786998994648457">
        <ele>547</ele>
        <time>2018-05-22T07:54:17Z</time>
      </trkpt>
      <trkpt lat="42.602485008537769" lon="-6.786947026848793">
        <ele>547</ele>
        <time>2018-05-22T07:54:18Z</time>
      </trkpt>
      <trkpt lat="42.602493977174163" lon="-6.786901010200381">
        <ele>547</ele>
        <time>2018-05-22T07:54:19Z</time>
      </trkpt>
      <trkpt lat="42.602499006316066" lon="-6.786844013258815">
        <ele>547</ele>
        <time>2018-05-22T07:54:20Z</time>
      </trkpt>
      <trkpt lat="42.602499006316066" lon="-6.78679196164012">
        <ele>547</ele>
        <time>2018-05-22T07:54:21Z</time>
      </trkpt>
      <trkpt lat="42.602499006316066" lon="-6.786739993840456">
        <ele>547</ele>
        <time>2018-05-22T07:54:22Z</time>
      </trkpt>
      <trkpt lat="42.602504035457969" lon="-6.786689031869173">
        <ele>547</ele>
        <time>2018-05-22T07:54:23Z</time>
      </trkpt>
      <trkpt lat="42.602518033236265" lon="-6.786636980250478">
        <ele>547</ele>
        <time>2018-05-22T07:54:25Z</time>
      </trkpt>
      <trkpt lat="42.602532031014562" lon="-6.786585012450814">
        <ele>547</ele>
        <time>2018-05-22T07:54:26Z</time>
      </trkpt>
      <trkpt lat="42.602546028792858" lon="-6.7865339666605">
        <ele>547</ele>
        <time>2018-05-22T07:54:27Z</time>
      </trkpt>
      <trkpt lat="42.602549968287349" lon="-6.786481998860836">
        <ele>547</ele>
        <time>2018-05-22T07:54:28Z</time>
      </trkpt>
      <trkpt lat="42.602554997429252" lon="-6.786423996090889">
        <ele>547</ele>
        <time>2018-05-22T07:54:29Z</time>
      </trkpt>
      <trkpt lat="42.602554997429252" lon="-6.786364987492561">
        <ele>547</ele>
        <time>2018-05-22T07:54:31Z</time>
      </trkpt>
      <trkpt lat="42.602554997429252" lon="-6.786307990550995">
        <ele>547</ele>
        <time>2018-05-22T07:54:32Z</time>
      </trkpt>
      <trkpt lat="42.602554997429252" lon="-6.786240013316274">
        <ele>547</ele>
        <time>2018-05-22T07:54:33Z</time>
      </trkpt>
      <trkpt lat="42.602540999650955" lon="-6.786191985011101">
        <ele>547</ele>
        <time>2018-05-22T07:54:35Z</time>
      </trkpt>
      <trkpt lat="42.602521972730756" lon="-6.786144962534308">
        <ele>547</ele>
        <time>2018-05-22T07:54:36Z</time>
      </trkpt>
      <trkpt lat="42.602504035457969" lon="-6.786097018048167">
        <ele>546</ele>
        <time>2018-05-22T07:54:37Z</time>
      </trkpt>
      <trkpt lat="42.602485008537769" lon="-6.786051001399756">
        <ele>546</ele>
        <time>2018-05-22T07:54:38Z</time>
      </trkpt>
      <trkpt lat="42.602460030466318" lon="-6.786004984751344">
        <ele>546</ele>
        <time>2018-05-22T07:54:39Z</time>
      </trkpt>
      <trkpt lat="42.602436980232596" lon="-6.78595301695168">
        <ele>546</ele>
        <time>2018-05-22T07:54:41Z</time>
      </trkpt>
      <trkpt lat="42.602418037131429" lon="-6.785900965332985">
        <ele>546</ele>
        <time>2018-05-22T07:54:42Z</time>
      </trkpt>
      <trkpt lat="42.602394986897707" lon="-6.785855032503605">
        <ele>546</ele>
        <time>2018-05-22T07:54:43Z</time>
      </trkpt>
      <trkpt lat="42.602372020483017" lon="-6.785809015855193">
        <ele>546</ele>
        <time>2018-05-22T07:54:44Z</time>
      </trkpt>
      <trkpt lat="42.602352993562818" lon="-6.785757970064879">
        <ele>546</ele>
        <time>2018-05-22T07:54:46Z</time>
      </trkpt>
      <trkpt lat="42.602328015491366" lon="-6.785715976729989">
        <ele>546</ele>
        <time>2018-05-22T07:54:47Z</time>
      </trkpt>
      <trkpt lat="42.602312006056309" lon="-6.785666020587087">
        <ele>546</ele>
        <time>2018-05-22T07:54:48Z</time>
      </trkpt>
      <trkpt lat="42.60229398496449" lon="-6.785620003938675">
        <ele>546</ele>
        <time>2018-05-22T07:54:49Z</time>
      </trkpt>
      <trkpt lat="42.602270012721419" lon="-6.785555966198444">
        <ele>546</ele>
        <time>2018-05-22T07:54:51Z</time>
      </trkpt>
      <trkpt lat="42.602251991629601" lon="-6.785511039197445">
        <ele>546</ele>
        <time>2018-05-22T07:54:52Z</time>
      </trkpt>
      <trkpt lat="42.602245034649968" lon="-6.785454964265227">
        <ele>546</ele>
        <time>2018-05-22T07:54:53Z</time>
      </trkpt>
      <trkpt lat="42.602241011336446" lon="-6.78539696149528">
        <ele>546</ele>
        <time>2018-05-22T07:54:54Z</time>
      </trkpt>
      <trkpt lat="42.602241011336446" lon="-6.785309035331011">
        <ele>546</ele>
        <time>2018-05-22T07:54:56Z</time>
      </trkpt>
      <trkpt lat="42.602235982194543" lon="-6.785195963457227">
        <ele>550</ele>
        <time>2018-05-22T07:54:59Z</time>
      </trkpt>
      <trkpt lat="42.602217961102724" lon="-6.785086998715997">
        <ele>550</ele>
        <time>2018-05-22T07:55:01Z</time>
      </trkpt>
      <trkpt lat="42.602179991081357" lon="-6.784909972921014">
        <ele>550</ele>
        <time>2018-05-22T07:55:05Z</time>
      </trkpt>
      <trkpt lat="42.602145960554481" lon="-6.784789022058249">
        <ele>550</ele>
        <time>2018-05-22T07:55:08Z</time>
      </trkpt>
      <trkpt lat="42.602141015231609" lon="-6.78477200679481">
        <ele>550</ele>
        <time>2018-05-22T07:55:08Z</time>
      </trkpt>
      <trkpt lat="42.602127017453313" lon="-6.784725990146399">
        <ele>550</ele>
        <time>2018-05-22T07:55:09Z</time>
      </trkpt>
      <trkpt lat="42.602117964997888" lon="-6.784650972113013">
        <ele>538</ele>
        <time>2018-05-22T07:55:11Z</time>
      </trkpt>
      <trkpt lat="42.60209902189672" lon="-6.784571008756757">
        <ele>538</ele>
        <time>2018-05-22T07:55:13Z</time>
      </trkpt>
      <trkpt lat="42.602092986926436" lon="-6.784515017643571">
        <ele>538</ele>
        <time>2018-05-22T07:55:14Z</time>
      </trkpt>
      <trkpt lat="42.602088041603565" lon="-6.784451985731721">
        <ele>542</ele>
        <time>2018-05-22T07:55:16Z</time>
      </trkpt>
      <trkpt lat="42.602084018290043" lon="-6.784394988790155">
        <ele>542</ele>
        <time>2018-05-22T07:55:17Z</time>
      </trkpt>
      <trkpt lat="42.60207898914814" lon="-6.784336986020207">
        <ele>542</ele>
        <time>2018-05-22T07:55:18Z</time>
      </trkpt>
      <trkpt lat="42.602070020511746" lon="-6.784286024048924">
        <ele>542</ele>
        <time>2018-05-22T07:55:19Z</time>
      </trkpt>
      <trkpt lat="42.602070020511746" lon="-6.784228021278977">
        <ele>542</ele>
        <time>2018-05-22T07:55:20Z</time>
      </trkpt>
      <trkpt lat="42.602070020511746" lon="-6.784175969660282">
        <ele>542</ele>
        <time>2018-05-22T07:55:22Z</time>
      </trkpt>
      <trkpt lat="42.602073960006237" lon="-6.784125007688999">
        <ele>542</ele>
        <time>2018-05-22T07:55:23Z</time>
      </trkpt>
      <trkpt lat="42.602073960006237" lon="-6.784067004919052">
        <ele>542</ele>
        <time>2018-05-22T07:55:24Z</time>
      </trkpt>
      <trkpt lat="42.602084018290043" lon="-6.784015959128737">
        <ele>542</ele>
        <time>2018-05-22T07:55:25Z</time>
      </trkpt>
      <trkpt lat="42.602088041603565" lon="-6.783963991329074">
        <ele>542</ele>
        <time>2018-05-22T07:55:26Z</time>
      </trkpt>
      <trkpt lat="42.602098016068339" lon="-6.783900959417224">
        <ele>542</ele>
        <time>2018-05-22T07:55:28Z</time>
      </trkpt>
      <trkpt lat="42.602113019675016" lon="-6.783844968304038">
        <ele>542</ele>
        <time>2018-05-22T07:55:29Z</time>
      </trkpt>
      <trkpt lat="42.602122994139791" lon="-6.783793000504375">
        <ele>555</ele>
        <time>2018-05-22T07:55:30Z</time>
      </trkpt>
      <trkpt lat="42.602127017453313" lon="-6.783733991906047">
        <ele>555</ele>
        <time>2018-05-22T07:55:31Z</time>
      </trkpt>
      <trkpt lat="42.602141015231609" lon="-6.78367699496448">
        <ele>555</ele>
        <time>2018-05-22T07:55:33Z</time>
      </trkpt>
      <trkpt lat="42.602141015231609" lon="-6.783623015508056">
        <ele>559</ele>
        <time>2018-05-22T07:55:34Z</time>
      </trkpt>
      <trkpt lat="42.602141015231609" lon="-6.78357096388936">
        <ele>559</ele>
        <time>2018-05-22T07:55:35Z</time>
      </trkpt>
      <trkpt lat="42.602141015231609" lon="-6.783508015796542">
        <ele>559</ele>
        <time>2018-05-22T07:55:36Z</time>
      </trkpt>
      <trkpt lat="42.602136991918087" lon="-6.783444983884692">
        <ele>559</ele>
        <time>2018-05-22T07:55:38Z</time>
      </trkpt>
      <trkpt lat="42.602136991918087" lon="-6.783393016085029">
        <ele>559</ele>
        <time>2018-05-22T07:55:39Z</time>
      </trkpt>
      <trkpt lat="42.602120982483029" lon="-6.783349011093378">
        <ele>559</ele>
        <time>2018-05-22T07:55:40Z</time>
      </trkpt>
      <trkpt lat="42.602112013846636" lon="-6.783292014151812">
        <ele>544</ele>
        <time>2018-05-22T07:55:41Z</time>
      </trkpt>
      <trkpt lat="42.602098016068339" lon="-6.783234011381865">
        <ele>544</ele>
        <time>2018-05-22T07:55:43Z</time>
      </trkpt>
      <trkpt lat="42.602084018290043" lon="-6.783181959763169">
        <ele>544</ele>
        <time>2018-05-22T07:55:44Z</time>
      </trkpt>
      <trkpt lat="42.602073960006237" lon="-6.783119011670351">
        <ele>544</ele>
        <time>2018-05-22T07:55:45Z</time>
      </trkpt>
      <trkpt lat="42.602059962227941" lon="-6.783066960051656">
        <ele>544</ele>
        <time>2018-05-22T07:55:46Z</time>
      </trkpt>
      <trkpt lat="42.602045964449644" lon="-6.783004011958838">
        <ele>544</ele>
        <time>2018-05-22T07:55:48Z</time>
      </trkpt>
      <trkpt lat="42.602031966671348" lon="-6.782957995310426">
        <ele>544</ele>
        <time>2018-05-22T07:55:49Z</time>
      </trkpt>
      <trkpt lat="42.602014029398561" lon="-6.782907033339143">
        <ele>544</ele>
        <time>2018-05-22T07:55:50Z</time>
      </trkpt>
      <trkpt lat="42.601995002478361" lon="-6.782865962013602">
        <ele>544</ele>
        <time>2018-05-22T07:55:51Z</time>
      </trkpt>
      <trkpt lat="42.60197002440691" lon="-6.782807037234306">
        <ele>551</ele>
        <time>2018-05-22T07:55:53Z</time>
      </trkpt>
      <trkpt lat="42.601946974173188" lon="-6.782766971737146">
        <ele>551</ele>
        <time>2018-05-22T07:55:54Z</time>
      </trkpt>
      <trkpt lat="42.601918978616595" lon="-6.782704023644328">
        <ele>551</ele>
        <time>2018-05-22T07:55:55Z</time>
      </trkpt>
      <trkpt lat="42.601900035515428" lon="-6.782629005610943">
        <ele>551</ele>
        <time>2018-05-22T07:55:57Z</time>
      </trkpt>
      <trkpt lat="42.601882014423609" lon="-6.782582988962531">
        <ele>551</ele>
        <time>2018-05-22T07:55:58Z</time>
      </trkpt>
      <trkpt lat="42.601857958361506" lon="-6.782525992020965">
        <ele>551</ele>
        <time>2018-05-22T07:56:00Z</time>
      </trkpt>
      <trkpt lat="42.601829962804914" lon="-6.782482992857695">
        <ele>551</ele>
        <time>2018-05-22T07:56:01Z</time>
      </trkpt>
      <trkpt lat="42.601812025532126" lon="-6.782419960945845">
        <ele>551</ele>
        <time>2018-05-22T07:56:02Z</time>
      </trkpt>
      <trkpt lat="42.601801967248321" lon="-6.782368998974562">
        <ele>551</ele>
        <time>2018-05-22T07:56:04Z</time>
      </trkpt>
      <trkpt lat="42.601787969470024" lon="-6.782320970669389">
        <ele>551</ele>
        <time>2018-05-22T07:56:05Z</time>
      </trkpt>
      <trkpt lat="42.601770032197237" lon="-6.782275037840009">
        <ele>551</ele>
        <time>2018-05-22T07:56:06Z</time>
      </trkpt>
      <trkpt lat="42.601765003055334" lon="-6.782222986221314">
        <ele>551</ele>
        <time>2018-05-22T07:56:07Z</time>
      </trkpt>
      <trkpt lat="42.601751005277038" lon="-6.78217101842165">
        <ele>551</ele>
        <time>2018-05-22T07:56:08Z</time>
      </trkpt>
      <trkpt lat="42.601745976135135" lon="-6.782119972631335">
        <ele>551</ele>
        <time>2018-05-22T07:56:09Z</time>
      </trkpt>
      <trkpt lat="42.601728038862348" lon="-6.782068004831672">
        <ele>551</ele>
        <time>2018-05-22T07:56:11Z</time>
      </trkpt>
      <trkpt lat="42.601714041084051" lon="-6.782016037032008">
        <ele>551</ele>
        <time>2018-05-22T07:56:12Z</time>
      </trkpt>
      <trkpt lat="42.601703982800245" lon="-6.781970020383596">
        <ele>550</ele>
        <time>2018-05-22T07:56:13Z</time>
      </trkpt>
      <trkpt lat="42.601685961708426" lon="-6.781924003735185">
        <ele>550</ele>
        <time>2018-05-22T07:56:14Z</time>
      </trkpt>
      <trkpt lat="42.60167196393013" lon="-6.781864995136857">
        <ele>550</ele>
        <time>2018-05-22T07:56:15Z</time>
      </trkpt>
      <trkpt lat="42.601661989465356" lon="-6.78180699236691">
        <ele>550</ele>
        <time>2018-05-22T07:56:17Z</time>
      </trkpt>
      <trkpt lat="42.601647991687059" lon="-6.781749995425344">
        <ele>550</ele>
        <time>2018-05-22T07:56:18Z</time>
      </trkpt>
      <trkpt lat="42.601629970595241" lon="-6.781710013747215">
        <ele>550</ele>
        <time>2018-05-22T07:56:19Z</time>
      </trkpt>
      <trkpt lat="42.601615972816944" lon="-6.781632984057069">
        <ele>550</ele>
        <time>2018-05-22T07:56:21Z</time>
      </trkpt>
      <trkpt lat="42.601601975038648" lon="-6.781575987115502">
        <ele>550</ele>
        <time>2018-05-22T07:56:22Z</time>
      </trkpt>
      <trkpt lat="42.601601975038648" lon="-6.781517984345555">
        <ele>550</ele>
        <time>2018-05-22T07:56:23Z</time>
      </trkpt>
      <trkpt lat="42.601597029715776" lon="-6.781465010717511">
        <ele>550</ele>
        <time>2018-05-22T07:56:24Z</time>
      </trkpt>
      <trkpt lat="42.60158303193748" lon="-6.781279016286135">
        <ele>550</ele>
        <time>2018-05-22T07:56:28Z</time>
      </trkpt>
      <trkpt lat="42.60158303193748" lon="-6.78116200491786">
        <ele>543</ele>
        <time>2018-05-22T07:56:31Z</time>
      </trkpt>
      <trkpt lat="42.601570961996913" lon="-6.78088397718966">
        <ele>543</ele>
        <time>2018-05-22T07:56:37Z</time>
      </trkpt>
      <trkpt lat="42.601570961996913" lon="-6.78032498806715">
        <ele>536</ele>
        <time>2018-05-22T07:56:49Z</time>
      </trkpt>
      <trkpt lat="42.601570961996913" lon="-6.77991502918303">
        <ele>536</ele>
        <time>2018-05-22T07:56:58Z</time>
      </trkpt>
      <trkpt lat="42.601588983088732" lon="-6.779440026730299">
        <ele>529</ele>
        <time>2018-05-22T07:57:09Z</time>
      </trkpt>
      <trkpt lat="42.601588983088732" lon="-6.779012968763709">
        <ele>529</ele>
        <time>2018-05-22T07:57:18Z</time>
      </trkpt>
      <trkpt lat="42.601573979482055" lon="-6.778573002666235">
        <ele>525</ele>
        <time>2018-05-22T07:57:28Z</time>
      </trkpt>
      <trkpt lat="42.601567022502422" lon="-6.778062963858247">
        <ele>525</ele>
        <time>2018-05-22T07:57:39Z</time>
      </trkpt>
      <trkpt lat="42.6015629991889" lon="-6.777775967493653">
        <ele>523</ele>
        <time>2018-05-22T07:57:45Z</time>
      </trkpt>
      <trkpt lat="42.601557970046997" lon="-6.777540016919375">
        <ele>523</ele>
        <time>2018-05-22T07:57:50Z</time>
      </trkpt>
      <trkpt lat="42.601553024724126" lon="-6.777345975860953">
        <ele>523</ele>
        <time>2018-05-22T07:57:54Z</time>
      </trkpt>
      <trkpt lat="42.601555036380887" lon="-6.777283027768135">
        <ele>523</ele>
        <time>2018-05-22T07:57:56Z</time>
      </trkpt>
      <trkpt lat="42.601555036380887" lon="-6.777237011119723">
        <ele>523</ele>
        <time>2018-05-22T07:57:57Z</time>
      </trkpt>
      <trkpt lat="42.601555036380887" lon="-6.777184959501028">
        <ele>523</ele>
        <time>2018-05-22T07:57:58Z</time>
      </trkpt>
      <trkpt lat="42.601555036380887" lon="-6.777117988094688">
        <ele>523</ele>
        <time>2018-05-22T07:57:59Z</time>
      </trkpt>
      <trkpt lat="42.601550007238984" lon="-6.777053028345108">
        <ele>520</ele>
        <time>2018-05-22T07:58:01Z</time>
      </trkpt>
      <trkpt lat="42.601544978097081" lon="-6.776983961462975">
        <ele>520</ele>
        <time>2018-05-22T07:58:02Z</time>
      </trkpt>
      <trkpt lat="42.601536009460688" lon="-6.776926964521408">
        <ele>520</ele>
        <time>2018-05-22T07:58:04Z</time>
      </trkpt>
      <trkpt lat="42.601515976712108" lon="-6.776858987286687">
        <ele>520</ele>
        <time>2018-05-22T07:58:05Z</time>
      </trkpt>
      <trkpt lat="42.601493010297418" lon="-6.776790004223585">
        <ele>520</ele>
        <time>2018-05-22T07:58:07Z</time>
      </trkpt>
      <trkpt lat="42.601473983377218" lon="-6.776741975918412">
        <ele>520</ele>
        <time>2018-05-22T07:58:08Z</time>
      </trkpt>
      <trkpt lat="42.601455040276051" lon="-6.776696965098381">
        <ele>520</ele>
        <time>2018-05-22T07:58:09Z</time>
      </trkpt>
      <trkpt lat="42.601426960900426" lon="-6.776655977591872">
        <ele>520</ele>
        <time>2018-05-22T07:58:10Z</time>
      </trkpt>
      <trkpt lat="42.601398965343833" lon="-6.776609960943461">
        <ele>520</ele>
        <time>2018-05-22T07:58:12Z</time>
      </trkpt>
      <trkpt lat="42.60137096978724" lon="-6.776576014235616">
        <ele>520</ele>
        <time>2018-05-22T07:58:13Z</time>
      </trkpt>
      <trkpt lat="42.601341968402267" lon="-6.776540977880359">
        <ele>520</ele>
        <time>2018-05-22T07:58:14Z</time>
      </trkpt>
      <trkpt lat="42.601309027522802" lon="-6.776500996202231">
        <ele>520</ele>
        <time>2018-05-22T07:58:15Z</time>
      </trkpt>
      <trkpt lat="42.601281031966209" lon="-6.776473000645638">
        <ele>518</ele>
        <time>2018-05-22T07:58:16Z</time>
      </trkpt>
      <trkpt lat="42.601253036409616" lon="-6.776432013139129">
        <ele>518</ele>
        <time>2018-05-22T07:58:17Z</time>
      </trkpt>
      <trkpt lat="42.601221017539501" lon="-6.776392031461">
        <ele>518</ele>
        <time>2018-05-22T07:58:19Z</time>
      </trkpt>
      <trkpt lat="42.601210037246346" lon="-6.776351965963841">
        <ele>518</ele>
        <time>2018-05-22T07:58:20Z</time>
      </trkpt>
      <trkpt lat="42.601225040853024" lon="-6.776307038962841">
        <ele>518</ele>
        <time>2018-05-22T07:58:21Z</time>
      </trkpt>
      <trkpt lat="42.60123903863132" lon="-6.77626202814281">
        <ele>518</ele>
        <time>2018-05-22T07:58:22Z</time>
      </trkpt>
      <trkpt lat="42.60126200504601" lon="-6.776229003444314">
        <ele>518</ele>
        <time>2018-05-22T07:58:23Z</time>
      </trkpt>
      <trkpt lat="42.601276002824306" lon="-6.776187010109425">
        <ele>518</ele>
        <time>2018-05-22T07:58:24Z</time>
      </trkpt>
      <trkpt lat="42.601285977289081" lon="-6.776133030653">
        <ele>518</ele>
        <time>2018-05-22T07:58:25Z</time>
      </trkpt>
      <trkpt lat="42.601295029744506" lon="-6.776082990691066">
        <ele>517</ele>
        <time>2018-05-22T07:58:26Z</time>
      </trkpt>
      <trkpt lat="42.601303998380899" lon="-6.776036974042654">
        <ele>518</ele>
        <time>2018-05-22T07:58:27Z</time>
      </trkpt>
      <trkpt lat="42.601323025301099" lon="-6.775985006242991">
        <ele>518</ele>
        <time>2018-05-22T07:58:28Z</time>
      </trkpt>
      <trkpt lat="42.601341968402267" lon="-6.775950975716114">
        <ele>518</ele>
        <time>2018-05-22T07:58:29Z</time>
      </trkpt>
      <trkpt lat="42.601362001150846" lon="-6.775908982381225">
        <ele>518</ele>
        <time>2018-05-22T07:58:30Z</time>
      </trkpt>
      <trkpt lat="42.601384967565536" lon="-6.775867994874716">
        <ele>518</ele>
        <time>2018-05-22T07:58:32Z</time>
      </trkpt>
      <trkpt lat="42.601410029456019" lon="-6.775815021246672">
        <ele>518</ele>
        <time>2018-05-22T07:58:33Z</time>
      </trkpt>
      <trkpt lat="42.601428972557187" lon="-6.77576900459826">
        <ele>518</ele>
        <time>2018-05-22T07:58:34Z</time>
      </trkpt>
      <trkpt lat="42.601447999477386" lon="-6.775722987949848">
        <ele>518</ele>
        <time>2018-05-22T07:58:35Z</time>
      </trkpt>
      <trkpt lat="42.601470965892076" lon="-6.775671020150185">
        <ele>518</ele>
        <time>2018-05-22T07:58:37Z</time>
      </trkpt>
      <trkpt lat="42.601484963670373" lon="-6.775618968531489">
        <ele>518</ele>
        <time>2018-05-22T07:58:38Z</time>
      </trkpt>
      <trkpt lat="42.601498961448669" lon="-6.775568006560206">
        <ele>518</ele>
        <time>2018-05-22T07:58:39Z</time>
      </trkpt>
      <trkpt lat="42.601516982540488" lon="-6.775504974648356">
        <ele>518</ele>
        <time>2018-05-22T07:58:40Z</time>
      </trkpt>
      <trkpt lat="42.601527040824294" lon="-6.775453006848693">
        <ele>518</ele>
        <time>2018-05-22T07:58:42Z</time>
      </trkpt>
      <trkpt lat="42.601530980318785" lon="-6.775401039049029">
        <ele>518</ele>
        <time>2018-05-22T07:58:43Z</time>
      </trkpt>
      <trkpt lat="42.601552018895745" lon="-6.775342030450702">
        <ele>518</ele>
        <time>2018-05-22T07:58:44Z</time>
      </trkpt>
      <trkpt lat="42.601601975038648" lon="-6.775101972743869">
        <ele>518</ele>
        <time>2018-05-22T07:58:50Z</time>
      </trkpt>
      <trkpt lat="42.601643968373537" lon="-6.774915978312492">
        <ele>518</ele>
        <time>2018-05-22T07:58:54Z</time>
      </trkpt>
      <trkpt lat="42.601657966151834" lon="-6.774857975542545">
        <ele>518</ele>
        <time>2018-05-22T07:58:55Z</time>
      </trkpt>
      <trkpt lat="42.601667018607259" lon="-6.774807013571262">
        <ele>518</ele>
        <time>2018-05-22T07:58:56Z</time>
      </trkpt>
      <trkpt lat="42.601685961708426" lon="-6.774754961952567">
        <ele>518</ele>
        <time>2018-05-22T07:58:57Z</time>
      </trkpt>
      <trkpt lat="42.601689985021949" lon="-6.774697965011001">
        <ele>518</ele>
        <time>2018-05-22T07:58:59Z</time>
      </trkpt>
      <trkpt lat="42.601695014163852" lon="-6.774626970291138">
        <ele>518</ele>
        <time>2018-05-22T07:59:00Z</time>
      </trkpt>
      <trkpt lat="42.601695014163852" lon="-6.774575002491474">
        <ele>518</ele>
        <time>2018-05-22T07:59:01Z</time>
      </trkpt>
      <trkpt lat="42.601695014163852" lon="-6.774511970579624">
        <ele>518</ele>
        <time>2018-05-22T07:59:03Z</time>
      </trkpt>
      <trkpt lat="42.601695014163852" lon="-6.774453967809677">
        <ele>521</ele>
        <time>2018-05-22T07:59:04Z</time>
      </trkpt>
      <trkpt lat="42.601695014163852" lon="-6.774403005838394">
        <ele>521</ele>
        <time>2018-05-22T07:59:05Z</time>
      </trkpt>
      <trkpt lat="42.601685961708426" lon="-6.774354977533221">
        <ele>521</ele>
        <time>2018-05-22T07:59:06Z</time>
      </trkpt>
      <trkpt lat="42.601675987243652" lon="-6.774296974763274">
        <ele>521</ele>
        <time>2018-05-22T07:59:08Z</time>
      </trkpt>
      <trkpt lat="42.601667018607259" lon="-6.774250958114862">
        <ele>521</ele>
        <time>2018-05-22T07:59:09Z</time>
      </trkpt>
      <trkpt lat="42.601667018607259" lon="-6.774197984486818">
        <ele>521</ele>
        <time>2018-05-22T07:59:10Z</time>
      </trkpt>
      <trkpt lat="42.601657966151834" lon="-6.774131013080478">
        <ele>521</ele>
        <time>2018-05-22T07:59:11Z</time>
      </trkpt>
      <trkpt lat="42.601653020828962" lon="-6.774075021967292">
        <ele>521</ele>
        <time>2018-05-22T07:59:12Z</time>
      </trkpt>
      <trkpt lat="42.601639023050666" lon="-6.77400603890419">
        <ele>521</ele>
        <time>2018-05-22T07:59:14Z</time>
      </trkpt>
      <trkpt lat="42.601633993908763" lon="-6.773948958143592">
        <ele>521</ele>
        <time>2018-05-22T07:59:15Z</time>
      </trkpt>
      <trkpt lat="42.601625025272369" lon="-6.77387997508049">
        <ele>521</ele>
        <time>2018-05-22T07:59:17Z</time>
      </trkpt>
      <trkpt lat="42.601611027494073" lon="-6.773810992017388">
        <ele>521</ele>
        <time>2018-05-22T07:59:18Z</time>
      </trkpt>
      <trkpt lat="42.601601975038648" lon="-6.773735973984003">
        <ele>521</ele>
        <time>2018-05-22T07:59:20Z</time>
      </trkpt>
      <trkpt lat="42.601593006402254" lon="-6.773662967607379">
        <ele>521</ele>
        <time>2018-05-22T07:59:22Z</time>
      </trkpt>
      <trkpt lat="42.60158303193748" lon="-6.773593984544277">
        <ele>528</ele>
        <time>2018-05-22T07:59:23Z</time>
      </trkpt>
      <trkpt lat="42.60158303193748" lon="-6.773514021188021">
        <ele>528</ele>
        <time>2018-05-22T07:59:25Z</time>
      </trkpt>
      <trkpt lat="42.601579008623958" lon="-6.773450989276171">
        <ele>528</ele>
        <time>2018-05-22T07:59:26Z</time>
      </trkpt>
      <trkpt lat="42.601573979482055" lon="-6.773375971242786">
        <ele>528</ele>
        <time>2018-05-22T07:59:28Z</time>
      </trkpt>
      <trkpt lat="42.601504996418953" lon="-6.773010017350316">
        <ele>528</ele>
        <time>2018-05-22T07:59:36Z</time>
      </trkpt>
      <trkpt lat="42.60145696811378" lon="-6.772771971300244">
        <ele>536</ele>
        <time>2018-05-22T07:59:41Z</time>
      </trkpt>
      <trkpt lat="42.601407011970878" lon="-6.772413980215788">
        <ele>536</ele>
        <time>2018-05-22T07:59:49Z</time>
      </trkpt>
      <trkpt lat="42.601407011970878" lon="-6.772407023236156">
        <ele>536</ele>
        <time>2018-05-22T07:59:50Z</time>
      </trkpt>
      <trkpt lat="42.601393014192581" lon="-6.772135030478239">
        <ele>536</ele>
        <time>2018-05-22T07:59:56Z</time>
      </trkpt>
      <trkpt lat="42.601369963958859" lon="-6.771620968356729">
        <ele>537</ele>
        <time>2018-05-22T08:00:07Z</time>
      </trkpt>
      <trkpt lat="42.601306010037661" lon="-6.771227018907666">
        <ele>537</ele>
        <time>2018-05-22T08:00:16Z</time>
      </trkpt>
      <trkpt lat="42.601301986724138" lon="-6.771198017522693">
        <ele>537</ele>
        <time>2018-05-22T08:00:16Z</time>
      </trkpt>
      <trkpt lat="42.601301986724138" lon="-6.771141020581126">
        <ele>536</ele>
        <time>2018-05-22T08:00:17Z</time>
      </trkpt>
      <trkpt lat="42.601301986724138" lon="-6.771077988669276">
        <ele>536</ele>
        <time>2018-05-22T08:00:19Z</time>
      </trkpt>
      <trkpt lat="42.601301986724138" lon="-6.771019985899329">
        <ele>536</ele>
        <time>2018-05-22T08:00:20Z</time>
      </trkpt>
      <trkpt lat="42.601301986724138" lon="-6.770968018099666">
        <ele>536</ele>
        <time>2018-05-22T08:00:21Z</time>
      </trkpt>
      <trkpt lat="42.601306010037661" lon="-6.770916972309351">
        <ele>536</ele>
        <time>2018-05-22T08:00:22Z</time>
      </trkpt>
      <trkpt lat="42.601306010037661" lon="-6.770854024216533">
        <ele>536</ele>
        <time>2018-05-22T08:00:24Z</time>
      </trkpt>
      <trkpt lat="42.601306010037661" lon="-6.770796021446586">
        <ele>536</ele>
        <time>2018-05-22T08:00:25Z</time>
      </trkpt>
      <trkpt lat="42.601306010037661" lon="-6.77074396982789">
        <ele>536</ele>
        <time>2018-05-22T08:00:26Z</time>
      </trkpt>
      <trkpt lat="42.601306010037661" lon="-6.770693007856607">
        <ele>536</ele>
        <time>2018-05-22T08:00:27Z</time>
      </trkpt>
      <trkpt lat="42.601315984502435" lon="-6.77063500508666">
        <ele>536</ele>
        <time>2018-05-22T08:00:28Z</time>
      </trkpt>
      <trkpt lat="42.601320007815957" lon="-6.770582031458616">
        <ele>536</ele>
        <time>2018-05-22T08:00:30Z</time>
      </trkpt>
      <trkpt lat="42.601329982280731" lon="-6.770529979839921">
        <ele>536</ele>
        <time>2018-05-22T08:00:31Z</time>
      </trkpt>
      <trkpt lat="42.601344985887408" lon="-6.77048203535378">
        <ele>532</ele>
        <time>2018-05-22T08:00:32Z</time>
      </trkpt>
      <trkpt lat="42.601354038342834" lon="-6.770436018705368">
        <ele>536</ele>
        <time>2018-05-22T08:00:33Z</time>
      </trkpt>
      <trkpt lat="42.601360995322466" lon="-6.770380027592182">
        <ele>536</ele>
        <time>2018-05-22T08:00:34Z</time>
      </trkpt>
      <trkpt lat="42.601369963958859" lon="-6.770339962095022">
        <ele>532</ele>
        <time>2018-05-22T08:00:35Z</time>
      </trkpt>
      <trkpt lat="42.601374993100762" lon="-6.770282965153456">
        <ele>532</ele>
        <time>2018-05-22T08:00:36Z</time>
      </trkpt>
      <trkpt lat="42.601379016414285" lon="-6.770230997353792">
        <ele>532</ele>
        <time>2018-05-22T08:00:38Z</time>
      </trkpt>
      <trkpt lat="42.601389996707439" lon="-6.77018104121089">
        <ele>532</ele>
        <time>2018-05-22T08:00:39Z</time>
      </trkpt>
      <trkpt lat="42.601399971172214" lon="-6.770128989592195">
        <ele>532</ele>
        <time>2018-05-22T08:00:40Z</time>
      </trkpt>
      <trkpt lat="42.60141396895051" lon="-6.770071992650628">
        <ele>532</ele>
        <time>2018-05-22T08:00:41Z</time>
      </trkpt>
      <trkpt lat="42.601431990042329" lon="-6.770020024850965">
        <ele>532</ele>
        <time>2018-05-22T08:00:42Z</time>
      </trkpt>
      <trkpt lat="42.601445987820625" lon="-6.769979959353805">
        <ele>532</ele>
        <time>2018-05-22T08:00:43Z</time>
      </trkpt>
      <trkpt lat="42.601459985598922" lon="-6.769934026524425">
        <ele>532</ele>
        <time>2018-05-22T08:00:44Z</time>
      </trkpt>
      <trkpt lat="42.601484041661024" lon="-6.769893961027265">
        <ele>532</ele>
        <time>2018-05-22T08:00:46Z</time>
      </trkpt>
      <trkpt lat="42.601507008075714" lon="-6.769859008491039">
        <ele>532</ele>
        <time>2018-05-22T08:00:47Z</time>
      </trkpt>
      <trkpt lat="42.601526034995914" lon="-6.769819026812911">
        <ele>532</ele>
        <time>2018-05-22T08:00:48Z</time>
      </trkpt>
      <trkpt lat="42.601557970046997" lon="-6.769791031256318">
        <ele>532</ele>
        <time>2018-05-22T08:00:49Z</time>
      </trkpt>
      <trkpt lat="42.60158596560359" lon="-6.769765969365835">
        <ele>532</ele>
        <time>2018-05-22T08:00:50Z</time>
      </trkpt>
      <trkpt lat="42.601613961160183" lon="-6.769743002951145">
        <ele>532</ele>
        <time>2018-05-22T08:00:51Z</time>
      </trkpt>
      <trkpt lat="42.601642040535808" lon="-6.769707966595888">
        <ele>532</ele>
        <time>2018-05-22T08:00:52Z</time>
      </trkpt>
      <trkpt lat="42.60167196393013" lon="-6.769665973260999">
        <ele>532</ele>
        <time>2018-05-22T08:00:53Z</time>
      </trkpt>
      <trkpt lat="42.601699959486723" lon="-6.769625991582871">
        <ele>532</ele>
        <time>2018-05-22T08:00:54Z</time>
      </trkpt>
      <trkpt lat="42.601731978356838" lon="-6.769586009904742">
        <ele>532</ele>
        <time>2018-05-22T08:00:56Z</time>
      </trkpt>
      <trkpt lat="42.601756034418941" lon="-6.769550973549485">
        <ele>532</ele>
        <time>2018-05-22T08:00:57Z</time>
      </trkpt>
      <trkpt lat="42.601779000833631" lon="-6.769517026841641">
        <ele>527</ele>
        <time>2018-05-22T08:00:58Z</time>
      </trkpt>
      <trkpt lat="42.60179802775383" lon="-6.769471010193229">
        <ele>527</ele>
        <time>2018-05-22T08:00:59Z</time>
      </trkpt>
      <trkpt lat="42.601831974461675" lon="-6.769435973837972">
        <ele>527</ele>
        <time>2018-05-22T08:01:00Z</time>
      </trkpt>
      <trkpt lat="42.601953009143472" lon="-6.769287027418613">
        <ele>527</ele>
        <time>2018-05-22T08:01:05Z</time>
      </trkpt>
      <trkpt lat="42.602116959169507" lon="-6.769073959439993">
        <ele>527</ele>
        <time>2018-05-22T08:01:12Z</time>
      </trkpt>
      <trkpt lat="42.60222801938653" lon="-6.768913026899099">
        <ele>524</ele>
        <time>2018-05-22T08:01:16Z</time>
      </trkpt>
      <trkpt lat="42.602421976625919" lon="-6.76865603774786">
        <ele>517</ele>
        <time>2018-05-22T08:01:24Z</time>
      </trkpt>
      <trkpt lat="42.602639989927411" lon="-6.768394019454718">
        <ele>517</ele>
        <time>2018-05-22T08:01:33Z</time>
      </trkpt>
      <trkpt lat="42.602819027379155" lon="-6.76814298145473">
        <ele>517</ele>
        <time>2018-05-22T08:01:41Z</time>
      </trkpt>
      <trkpt lat="42.602993035688996" lon="-6.767851961776614">
        <ele>519</ele>
        <time>2018-05-22T08:01:49Z</time>
      </trkpt>
      <trkpt lat="42.603139970451593" lon="-6.767609976232052">
        <ele>519</ele>
        <time>2018-05-22T08:01:56Z</time>
      </trkpt>
      <trkpt lat="42.603264022618532" lon="-6.76738902926445">
        <ele>519</ele>
        <time>2018-05-22T08:02:02Z</time>
      </trkpt>
      <trkpt lat="42.603404000401497" lon="-6.767142014577985">
        <ele>519</ele>
        <time>2018-05-22T08:02:09Z</time>
      </trkpt>
      <trkpt lat="42.603487987071276" lon="-6.766985021531582">
        <ele>520</ele>
        <time>2018-05-22T08:02:13Z</time>
      </trkpt>
      <trkpt lat="42.603618996217847" lon="-6.766725014895201">
        <ele>520</ele>
        <time>2018-05-22T08:02:20Z</time>
      </trkpt>
      <trkpt lat="42.603751011192799" lon="-6.766470959410071">
        <ele>520</ele>
        <time>2018-05-22T08:02:26Z</time>
      </trkpt>
      <trkpt lat="42.603857964277267" lon="-6.766283959150314">
        <ele>520</ele>
        <time>2018-05-22T08:02:32Z</time>
      </trkpt>
      <trkpt lat="42.603937005624175" lon="-6.766127971932292">
        <ele>520</ele>
        <time>2018-05-22T08:02:36Z</time>
      </trkpt>
      <trkpt lat="42.604014035314322" lon="-6.765918005257845">
        <ele>520</ele>
        <time>2018-05-22T08:02:41Z</time>
      </trkpt>
      <trkpt lat="42.60403499007225" lon="-6.765767969191074">
        <ele>520</ele>
        <time>2018-05-22T08:02:44Z</time>
      </trkpt>
      <trkpt lat="42.604083018377423" lon="-6.76565196365118">
        <ele>520</ele>
        <time>2018-05-22T08:02:47Z</time>
      </trkpt>
      <trkpt lat="42.60414102114737" lon="-6.765491031110287">
        <ele>520</ele>
        <time>2018-05-22T08:02:51Z</time>
      </trkpt>
      <trkpt lat="42.604172034189105" lon="-6.765315011143684">
        <ele>520</ele>
        <time>2018-05-22T08:02:55Z</time>
      </trkpt>
      <trkpt lat="42.604214027523994" lon="-6.765122981742024">
        <ele>519</ele>
        <time>2018-05-22T08:02:59Z</time>
      </trkpt>
      <trkpt lat="42.604228025302291" lon="-6.765100015327334">
        <ele>519</ele>
        <time>2018-05-22T08:03:00Z</time>
      </trkpt>
      <trkpt lat="42.604256020858884" lon="-6.765063973143697">
        <ele>519</ele>
        <time>2018-05-22T08:03:01Z</time>
      </trkpt>
      <trkpt lat="42.604275969788432" lon="-6.765009993687272">
        <ele>519</ele>
        <time>2018-05-22T08:03:02Z</time>
      </trkpt>
      <trkpt lat="42.604286028072238" lon="-6.764946961775422">
        <ele>519</ele>
        <time>2018-05-22T08:03:04Z</time>
      </trkpt>
      <trkpt lat="42.604289967566729" lon="-6.764894993975759">
        <ele>519</ele>
        <time>2018-05-22T08:03:05Z</time>
      </trkpt>
      <trkpt lat="42.604294996708632" lon="-6.764837997034192">
        <ele>519</ele>
        <time>2018-05-22T08:03:06Z</time>
      </trkpt>
      <trkpt lat="42.604294996708632" lon="-6.764779994264245">
        <ele>519</ele>
        <time>2018-05-22T08:03:07Z</time>
      </trkpt>
      <trkpt lat="42.604300025850534" lon="-6.764729032292962">
        <ele>519</ele>
        <time>2018-05-22T08:03:08Z</time>
      </trkpt>
      <trkpt lat="42.604300025850534" lon="-6.764671029523015">
        <ele>519</ele>
        <time>2018-05-22T08:03:10Z</time>
      </trkpt>
      <trkpt lat="42.604300025850534" lon="-6.764607997611165">
        <ele>519</ele>
        <time>2018-05-22T08:03:11Z</time>
      </trkpt>
      <trkpt lat="42.604300025850534" lon="-6.764544965699315">
        <ele>519</ele>
        <time>2018-05-22T08:03:12Z</time>
      </trkpt>
      <trkpt lat="42.604300025850534" lon="-6.764487968757749">
        <ele>519</ele>
        <time>2018-05-22T08:03:14Z</time>
      </trkpt>
      <trkpt lat="42.604300025850534" lon="-6.764436000958085">
        <ele>521</ele>
        <time>2018-05-22T08:03:15Z</time>
      </trkpt>
      <trkpt lat="42.604300025850534" lon="-6.764384033158422">
        <ele>521</ele>
        <time>2018-05-22T08:03:16Z</time>
      </trkpt>
      <trkpt lat="42.604300025850534" lon="-6.764310020953417">
        <ele>521</ele>
        <time>2018-05-22T08:03:18Z</time>
      </trkpt>
      <trkpt lat="42.604300025850534" lon="-6.764241037890315">
        <ele>521</ele>
        <time>2018-05-22T08:03:19Z</time>
      </trkpt>
      <trkpt lat="42.604300025850534" lon="-6.76418898627162">
        <ele>521</ele>
        <time>2018-05-22T08:03:20Z</time>
      </trkpt>
      <trkpt lat="42.604300025850534" lon="-6.764137018471956">
        <ele>521</ele>
        <time>2018-05-22T08:03:21Z</time>
      </trkpt>
      <trkpt lat="42.604300025850534" lon="-6.764083039015532">
        <ele>521</ele>
        <time>2018-05-22T08:03:22Z</time>
      </trkpt>
      <trkpt lat="42.604296002537012" lon="-6.763768969103694">
        <ele>521</ele>
        <time>2018-05-22T08:03:29Z</time>
      </trkpt>
      <trkpt lat="42.604296002537012" lon="-6.763516003265977">
        <ele>523</ele>
        <time>2018-05-22T08:03:35Z</time>
      </trkpt>
      <trkpt lat="42.604296002537012" lon="-6.763508040457964">
        <ele>523</ele>
        <time>2018-05-22T08:03:35Z</time>
      </trkpt>
      <trkpt lat="42.60429197922349" lon="-6.763096991926432">
        <ele>523</ele>
        <time>2018-05-22T08:03:44Z</time>
      </trkpt>
      <trkpt lat="42.60429197922349" lon="-6.763089029118419">
        <ele>523</ele>
        <time>2018-05-22T08:03:44Z</time>
      </trkpt>
      <trkpt lat="42.604280998930335" lon="-6.762771019712091">
        <ele>532</ele>
        <time>2018-05-22T08:03:51Z</time>
      </trkpt>
      <trkpt lat="42.604299020022154" lon="-6.762576978653669">
        <ele>532</ele>
        <time>2018-05-22T08:03:55Z</time>
      </trkpt>
      <trkpt lat="42.604299020022154" lon="-6.762564992532134">
        <ele>532</ele>
        <time>2018-05-22T08:03:56Z</time>
      </trkpt>
      <trkpt lat="42.604299020022154" lon="-6.762514030560851">
        <ele>532</ele>
        <time>2018-05-22T08:03:57Z</time>
      </trkpt>
      <trkpt lat="42.604299020022154" lon="-6.762461978942156">
        <ele>532</ele>
        <time>2018-05-22T08:03:58Z</time>
      </trkpt>
      <trkpt lat="42.604299020022154" lon="-6.762382015585899">
        <ele>532</ele>
        <time>2018-05-22T08:04:00Z</time>
      </trkpt>
      <trkpt lat="42.604308994486928" lon="-6.762329963967204">
        <ele>532</ele>
        <time>2018-05-22T08:04:01Z</time>
      </trkpt>
      <trkpt lat="42.60431301780045" lon="-6.762277996167541">
        <ele>532</ele>
        <time>2018-05-22T08:04:02Z</time>
      </trkpt>
      <trkpt lat="42.604331960901618" lon="-6.762209013104439">
        <ele>532</ele>
        <time>2018-05-22T08:04:04Z</time>
      </trkpt>
      <trkpt lat="42.604341013357043" lon="-6.762157967314124">
        <ele>532</ele>
        <time>2018-05-22T08:04:05Z</time>
      </trkpt>
      <trkpt lat="42.60435501113534" lon="-6.762099964544177">
        <ele>532</ele>
        <time>2018-05-22T08:04:06Z</time>
      </trkpt>
      <trkpt lat="42.604364985600114" lon="-6.762042967602611">
        <ele>532</ele>
        <time>2018-05-22T08:04:07Z</time>
      </trkpt>
      <trkpt lat="42.604369008913636" lon="-6.761971972882748">
        <ele>535</ele>
        <time>2018-05-22T08:04:09Z</time>
      </trkpt>
      <trkpt lat="42.604392981156707" lon="-6.761926040053368">
        <ele>535</ele>
        <time>2018-05-22T08:04:10Z</time>
      </trkpt>
      <trkpt lat="42.604407984763384" lon="-6.761883962899447">
        <ele>535</ele>
        <time>2018-05-22T08:04:11Z</time>
      </trkpt>
      <trkpt lat="42.604423994198442" lon="-6.761839035898447">
        <ele>535</ele>
        <time>2018-05-22T08:04:12Z</time>
      </trkpt>
      <trkpt lat="42.604475039988756" lon="-6.761670978739858">
        <ele>535</ele>
        <time>2018-05-22T08:04:16Z</time>
      </trkpt>
      <trkpt lat="42.604544023051858" lon="-6.761453971266747">
        <ele>535</ele>
        <time>2018-05-22T08:04:21Z</time>
      </trkpt>
      <trkpt lat="42.60463597252965" lon="-6.761179966852069">
        <ele>548</ele>
        <time>2018-05-22T08:04:28Z</time>
      </trkpt>
      <trkpt lat="42.60472297668457" lon="-6.760908979922533">
        <ele>548</ele>
        <time>2018-05-22T08:04:34Z</time>
      </trkpt>
      <trkpt lat="42.604821966961026" lon="-6.760604968294501">
        <ele>548</ele>
        <time>2018-05-22T08:04:42Z</time>
      </trkpt>
      <trkpt lat="42.604917017742991" lon="-6.760329036042094">
        <ele>546</ele>
        <time>2018-05-22T08:04:48Z</time>
      </trkpt>
      <trkpt lat="42.605011984705925" lon="-6.760024018585682">
        <ele>546</ele>
        <time>2018-05-22T08:04:55Z</time>
      </trkpt>
      <trkpt lat="42.605105023831129" lon="-6.759693017229438">
        <ele>546</ele>
        <time>2018-05-22T08:05:03Z</time>
      </trkpt>
      <trkpt lat="42.605197979137301" lon="-6.759294038638473">
        <ele>549</ele>
        <time>2018-05-22T08:05:12Z</time>
      </trkpt>
      <trkpt lat="42.605285989120603" lon="-6.758952978998423">
        <ele>549</ele>
        <time>2018-05-22T08:05:20Z</time>
      </trkpt>
      <trkpt lat="42.605350026860833" lon="-6.758657013997436">
        <ele>555</ele>
        <time>2018-05-22T08:05:27Z</time>
      </trkpt>
      <trkpt lat="42.6054070238024" lon="-6.758305979892612">
        <ele>555</ele>
        <time>2018-05-22T08:05:35Z</time>
      </trkpt>
      <trkpt lat="42.60547298938036" lon="-6.758014960214496">
        <ele>555</ele>
        <time>2018-05-22T08:05:41Z</time>
      </trkpt>
      <trkpt lat="42.605547001585364" lon="-6.757759982720017">
        <ele>566</ele>
        <time>2018-05-22T08:05:47Z</time>
      </trkpt>
      <trkpt lat="42.60562201961875" lon="-6.757509028539062">
        <ele>566</ele>
        <time>2018-05-22T08:05:53Z</time>
      </trkpt>
      <trkpt lat="42.605696031823754" lon="-6.757213985547423">
        <ele>566</ele>
        <time>2018-05-22T08:06:00Z</time>
      </trkpt>
      <trkpt lat="42.605742970481515" lon="-6.756985997781158">
        <ele>567</ele>
        <time>2018-05-22T08:06:05Z</time>
      </trkpt>
      <trkpt lat="42.605800973251462" lon="-6.756811989471316">
        <ele>567</ele>
        <time>2018-05-22T08:06:10Z</time>
      </trkpt>
      <trkpt lat="42.605849001556635" lon="-6.756613003090024">
        <ele>567</ele>
        <time>2018-05-22T08:06:14Z</time>
      </trkpt>
      <trkpt lat="42.605907004326582" lon="-6.756449975073338">
        <ele>567</ele>
        <time>2018-05-22T08:06:18Z</time>
      </trkpt>
      <trkpt lat="42.606003982946277" lon="-6.756106987595558">
        <ele>571</ele>
        <time>2018-05-22T08:06:26Z</time>
      </trkpt>
      <trkpt lat="42.606065003201365" lon="-6.755901966243982">
        <ele>571</ele>
        <time>2018-05-22T08:06:31Z</time>
      </trkpt>
      <trkpt lat="42.606112025678158" lon="-6.755719995126128">
        <ele>571</ele>
        <time>2018-05-22T08:06:35Z</time>
      </trkpt>
      <trkpt lat="42.606125017628074" lon="-6.755671966820955">
        <ele>571</ele>
        <time>2018-05-22T08:06:36Z</time>
      </trkpt>
      <trkpt lat="42.606129962950945" lon="-6.755619999021292">
        <ele>571</ele>
        <time>2018-05-22T08:06:37Z</time>
      </trkpt>
      <trkpt lat="42.60613901540637" lon="-6.755569037050009">
        <ele>571</ele>
        <time>2018-05-22T08:06:38Z</time>
      </trkpt>
      <trkpt lat="42.606148989871144" lon="-6.755516985431314">
        <ele>571</ele>
        <time>2018-05-22T08:06:40Z</time>
      </trkpt>
      <trkpt lat="42.606167010962963" lon="-6.755454037338495">
        <ele>571</ele>
        <time>2018-05-22T08:06:41Z</time>
      </trkpt>
      <trkpt lat="42.606186037883162" lon="-6.7554019857198">
        <ele>571</ele>
        <time>2018-05-22T08:06:42Z</time>
      </trkpt>
      <trkpt lat="42.606190983206034" lon="-6.755350017920137">
        <ele>571</ele>
        <time>2018-05-22T08:06:43Z</time>
      </trkpt>
      <trkpt lat="42.606209004297853" lon="-6.75529302097857">
        <ele>569</ele>
        <time>2018-05-22T08:06:45Z</time>
      </trkpt>
      <trkpt lat="42.606214033439755" lon="-6.755236024037004">
        <ele>569</ele>
        <time>2018-05-22T08:06:46Z</time>
      </trkpt>
      <trkpt lat="42.606223002076149" lon="-6.755183972418308">
        <ele>569</ele>
        <time>2018-05-22T08:06:47Z</time>
      </trkpt>
      <trkpt lat="42.606228031218052" lon="-6.755120018497109">
        <ele>569</ele>
        <time>2018-05-22T08:06:49Z</time>
      </trkpt>
      <trkpt lat="42.606243034824729" lon="-6.755049023777247">
        <ele>569</ele>
        <time>2018-05-22T08:06:50Z</time>
      </trkpt>
      <trkpt lat="42.606243034824729" lon="-6.754985991865397">
        <ele>569</ele>
        <time>2018-05-22T08:06:52Z</time>
      </trkpt>
      <trkpt lat="42.606232976540923" lon="-6.754917008802295">
        <ele>569</ele>
        <time>2018-05-22T08:06:53Z</time>
      </trkpt>
      <trkpt lat="42.606229037046432" lon="-6.75486596301198">
        <ele>569</ele>
        <time>2018-05-22T08:06:54Z</time>
      </trkpt>
      <trkpt lat="42.606218978762627" lon="-6.754772001877427">
        <ele>569</ele>
        <time>2018-05-22T08:06:56Z</time>
      </trkpt>
      <trkpt lat="42.606210010126233" lon="-6.754707964137197">
        <ele>569</ele>
        <time>2018-05-22T08:06:58Z</time>
      </trkpt>
      <trkpt lat="42.60620104148984" lon="-6.754654990509152">
        <ele>569</ele>
        <time>2018-05-22T08:06:59Z</time>
      </trkpt>
      <trkpt lat="42.606195006519556" lon="-6.754452986642718">
        <ele>563</ele>
        <time>2018-05-22T08:07:03Z</time>
      </trkpt>
      <trkpt lat="42.60616198182106" lon="-6.754037998616695">
        <ele>563</ele>
        <time>2018-05-22T08:07:12Z</time>
      </trkpt>
      <trkpt lat="42.606130968779325" lon="-6.753576993942261">
        <ele>557</ele>
        <time>2018-05-22T08:07:23Z</time>
      </trkpt>
      <trkpt lat="42.6060960162431" lon="-6.753221014514566">
        <ele>557</ele>
        <time>2018-05-22T08:07:30Z</time>
      </trkpt>
      <trkpt lat="42.606047987937927" lon="-6.752891018986702">
        <ele>557</ele>
        <time>2018-05-22T08:07:38Z</time>
      </trkpt>
      <trkpt lat="42.606025021523237" lon="-6.752474019303918">
        <ele>548</ele>
        <time>2018-05-22T08:07:47Z</time>
      </trkpt>
      <trkpt lat="42.606011023744941" lon="-6.752118961885572">
        <ele>548</ele>
        <time>2018-05-22T08:07:55Z</time>
      </trkpt>
      <trkpt lat="42.605962995439768" lon="-6.75172702409327">
        <ele>544</ele>
        <time>2018-05-22T08:08:03Z</time>
      </trkpt>
      <trkpt lat="42.605929970741272" lon="-6.751115983352065">
        <ele>542</ele>
        <time>2018-05-22T08:08:17Z</time>
      </trkpt>
      <trkpt lat="42.605897029861808" lon="-6.750686997547746">
        <ele>542</ele>
        <time>2018-05-22T08:08:26Z</time>
      </trkpt>
      <trkpt lat="42.605835003778338" lon="-6.750424979254603">
        <ele>542</ele>
        <time>2018-05-22T08:08:32Z</time>
      </trkpt>
      <trkpt lat="42.605745987966657" lon="-6.749978978186846">
        <ele>539</ele>
        <time>2018-05-22T08:08:42Z</time>
      </trkpt>
      <trkpt lat="42.605660995468497" lon="-6.749494001269341">
        <ele>534</ele>
        <time>2018-05-22T08:08:53Z</time>
      </trkpt>
      <trkpt lat="42.605581032112241" lon="-6.748950015753508">
        <ele>534</ele>
        <time>2018-05-22T08:09:05Z</time>
      </trkpt>
      <trkpt lat="42.605501990765333" lon="-6.748362025246024">
        <ele>528</ele>
        <time>2018-05-22T08:09:18Z</time>
      </trkpt>
      <trkpt lat="42.605423033237457" lon="-6.74783798865974">
        <ele>531</ele>
        <time>2018-05-22T08:09:30Z</time>
      </trkpt>
      <trkpt lat="42.605342986062169" lon="-6.74732300452888">
        <ele>531</ele>
        <time>2018-05-22T08:09:41Z</time>
      </trkpt>
      <trkpt lat="42.605277020484209" lon="-6.74697800539434">
        <ele>524</ele>
        <time>2018-05-22T08:09:49Z</time>
      </trkpt>
      <trkpt lat="42.605198984965682" lon="-6.746458997949958">
        <ele>524</ele>
        <time>2018-05-22T08:10:01Z</time>
      </trkpt>
      <trkpt lat="42.605118015781045" lon="-6.74599003046751">
        <ele>517</ele>
        <time>2018-05-22T08:10:11Z</time>
      </trkpt>
      <trkpt lat="42.605048026889563" lon="-6.745601026341319">
        <ele>517</ele>
        <time>2018-05-22T08:10:20Z</time>
      </trkpt>
      <trkpt lat="42.605040986090899" lon="-6.745592979714274">
        <ele>517</ele>
        <time>2018-05-22T08:10:20Z</time>
      </trkpt>
      <trkpt lat="42.604966973885894" lon="-6.745106996968389">
        <ele>514</ele>
        <time>2018-05-22T08:10:31Z</time>
      </trkpt>
      <trkpt lat="42.604890028014779" lon="-6.744578015059233">
        <ele>514</ele>
        <time>2018-05-22T08:10:43Z</time>
      </trkpt>
      <trkpt lat="42.604890028014779" lon="-6.744571980088949">
        <ele>514</ele>
        <time>2018-05-22T08:10:43Z</time>
      </trkpt>
      <trkpt lat="42.604819033294916" lon="-6.74414299428463">
        <ele>507</ele>
        <time>2018-05-22T08:10:52Z</time>
      </trkpt>
      <trkpt lat="42.604709984734654" lon="-6.74364703707397">
        <ele>505</ele>
        <time>2018-05-22T08:11:04Z</time>
      </trkpt>
      <trkpt lat="42.604647958651185" lon="-6.743287034332752">
        <ele>505</ele>
        <time>2018-05-22T08:11:12Z</time>
      </trkpt>
      <trkpt lat="42.604643013328314" lon="-6.743275970220566">
        <ele>505</ele>
        <time>2018-05-22T08:11:12Z</time>
      </trkpt>
      <trkpt lat="42.60463697835803" lon="-6.743217967450619">
        <ele>505</ele>
        <time>2018-05-22T08:11:13Z</time>
      </trkpt>
      <trkpt lat="42.604632033035159" lon="-6.743155019357801">
        <ele>505</ele>
        <time>2018-05-22T08:11:15Z</time>
      </trkpt>
      <trkpt lat="42.60461401194334" lon="-6.743069021031261">
        <ele>505</ele>
        <time>2018-05-22T08:11:17Z</time>
      </trkpt>
      <trkpt lat="42.604600014165044" lon="-6.743005989119411">
        <ele>505</ele>
        <time>2018-05-22T08:11:18Z</time>
      </trkpt>
      <trkpt lat="42.604594985023141" lon="-6.742947986349464">
        <ele>505</ele>
        <time>2018-05-22T08:11:19Z</time>
      </trkpt>
      <trkpt lat="42.604575958102942" lon="-6.742885038256645">
        <ele>511</ele>
        <time>2018-05-22T08:11:21Z</time>
      </trkpt>
      <trkpt lat="42.604561960324645" lon="-6.742839021608234">
        <ele>511</ele>
        <time>2018-05-22T08:11:22Z</time>
      </trkpt>
      <trkpt lat="42.604547962546349" lon="-6.742775989696384">
        <ele>501</ele>
        <time>2018-05-22T08:11:23Z</time>
      </trkpt>
      <trkpt lat="42.604524996131659" lon="-6.74272402189672">
        <ele>501</ele>
        <time>2018-05-22T08:11:25Z</time>
      </trkpt>
      <trkpt lat="42.604505969211459" lon="-6.742672976106405">
        <ele>501</ele>
        <time>2018-05-22T08:11:26Z</time>
      </trkpt>
      <trkpt lat="42.604483002796769" lon="-6.742631988599896">
        <ele>501</ele>
        <time>2018-05-22T08:11:27Z</time>
      </trkpt>
      <trkpt lat="42.60446397587657" lon="-6.742598041892052">
        <ele>501</ele>
        <time>2018-05-22T08:11:28Z</time>
      </trkpt>
      <trkpt lat="42.60444100946188" lon="-6.742557976394892">
        <ele>501</ele>
        <time>2018-05-22T08:11:29Z</time>
      </trkpt>
      <trkpt lat="42.604416031390429" lon="-6.742516988888383">
        <ele>501</ele>
        <time>2018-05-22T08:11:30Z</time>
      </trkpt>
      <trkpt lat="42.604305977001786" lon="-6.742325965315104">
        <ele>501</ele>
        <time>2018-05-22T08:11:36Z</time>
      </trkpt>
      <trkpt lat="42.604091987013817" lon="-6.741903014481068">
        <ele>492</ele>
        <time>2018-05-22T08:11:47Z</time>
      </trkpt>
      <trkpt lat="42.603912027552724" lon="-6.741519961506128">
        <ele>492</ele>
        <time>2018-05-22T08:11:57Z</time>
      </trkpt>
      <trkpt lat="42.603707006201148" lon="-6.741159036755562">
        <ele>490</ele>
        <time>2018-05-22T08:12:07Z</time>
      </trkpt>
      <trkpt lat="42.603540038689971" lon="-6.740804985165596">
        <ele>490</ele>
        <time>2018-05-22T08:12:16Z</time>
      </trkpt>
      <trkpt lat="42.60334599763155" lon="-6.740398965775967">
        <ele>490</ele>
        <time>2018-05-22T08:12:26Z</time>
      </trkpt>
      <trkpt lat="42.603140976279974" lon="-6.740028988569975">
        <ele>485</ele>
        <time>2018-05-22T08:12:36Z</time>
      </trkpt>
      <trkpt lat="42.602902008220553" lon="-6.739543005824089">
        <ele>482</ele>
        <time>2018-05-22T08:12:49Z</time>
      </trkpt>
      <trkpt lat="42.60281098075211" lon="-6.739362962543964">
        <ele>481</ele>
        <time>2018-05-22T08:12:54Z</time>
      </trkpt>
      <trkpt lat="42.602632027119398" lon="-6.739043025299907">
        <ele>481</ele>
        <time>2018-05-22T08:13:03Z</time>
      </trkpt>
      <trkpt lat="42.602476961910725" lon="-6.738740019500256">
        <ele>481</ele>
        <time>2018-05-22T08:13:11Z</time>
      </trkpt>
      <trkpt lat="42.602289961650968" lon="-6.738368030637503">
        <ele>481</ele>
        <time>2018-05-22T08:13:21Z</time>
      </trkpt>
      <trkpt lat="42.602159036323428" lon="-6.738066030666232">
        <ele>481</ele>
        <time>2018-05-22T08:13:28Z</time>
      </trkpt>
      <trkpt lat="42.601944962516427" lon="-6.737631009891629">
        <ele>478</ele>
        <time>2018-05-22T08:13:40Z</time>
      </trkpt>
      <trkpt lat="42.601725021377206" lon="-6.737178973853588">
        <ele>478</ele>
        <time>2018-05-22T08:13:51Z</time>
      </trkpt>
      <trkpt lat="42.60167196393013" lon="-6.737004965543747">
        <ele>479</ele>
        <time>2018-05-22T08:13:55Z</time>
      </trkpt>
      <trkpt lat="42.601570039987564" lon="-6.736607998609543">
        <ele>479</ele>
        <time>2018-05-22T08:14:05Z</time>
      </trkpt>
      <trkpt lat="42.601435007527471" lon="-6.736161997541785">
        <ele>479</ele>
        <time>2018-05-22T08:14:15Z</time>
      </trkpt>
      <trkpt lat="42.6012849714607" lon="-6.735697975382209">
        <ele>478</ele>
        <time>2018-05-22T08:14:26Z</time>
      </trkpt>
      <trkpt lat="42.601152034476399" lon="-6.735286004841328">
        <ele>476</ele>
        <time>2018-05-22T08:14:36Z</time>
      </trkpt>
      <trkpt lat="42.60104700922966" lon="-6.734921978786588">
        <ele>476</ele>
        <time>2018-05-22T08:14:44Z</time>
      </trkpt>
      <trkpt lat="42.600932009518147" lon="-6.734462985768914">
        <ele>476</ele>
        <time>2018-05-22T08:14:55Z</time>
      </trkpt>
      <trkpt lat="42.600925974547863" lon="-6.734462985768914">
        <ele>476</ele>
        <time>2018-05-22T08:14:55Z</time>
      </trkpt>
      <trkpt lat="42.600814998149872" lon="-6.733951019123197">
        <ele>476</ele>
        <time>2018-05-22T08:15:07Z</time>
      </trkpt>
      <trkpt lat="42.600730005651712" lon="-6.733527984470129">
        <ele>474</ele>
        <time>2018-05-22T08:15:16Z</time>
      </trkpt>
      <trkpt lat="42.600626992061734" lon="-6.733151972293854">
        <ele>474</ele>
        <time>2018-05-22T08:15:25Z</time>
      </trkpt>
      <trkpt lat="42.600532025098801" lon="-6.732746036723256">
        <ele>473</ele>
        <time>2018-05-22T08:15:34Z</time>
      </trkpt>
      <trkpt lat="42.600415013730526" lon="-6.732311015948653">
        <ele>475</ele>
        <time>2018-05-22T08:15:44Z</time>
      </trkpt>
      <trkpt lat="42.600376037880778" lon="-6.73213298432529">
        <ele>475</ele>
        <time>2018-05-22T08:15:48Z</time>
      </trkpt>
      <trkpt lat="42.600322980433702" lon="-6.731953024864197">
        <ele>476</ele>
        <time>2018-05-22T08:15:53Z</time>
      </trkpt>
      <trkpt lat="42.600318035110831" lon="-6.731935003772378">
        <ele>476</ele>
        <time>2018-05-22T08:15:53Z</time>
      </trkpt>
      <trkpt lat="42.600290039554238" lon="-6.731878006830812">
        <ele>476</ele>
        <time>2018-05-22T08:15:55Z</time>
      </trkpt>
      <trkpt lat="42.600271012634039" lon="-6.7318129632622">
        <ele>476</ele>
        <time>2018-05-22T08:15:56Z</time>
      </trkpt>
      <trkpt lat="42.600247962400317" lon="-6.731760995462537">
        <ele>476</ele>
        <time>2018-05-22T08:15:57Z</time>
      </trkpt>
      <trkpt lat="42.600224995985627" lon="-6.73170399852097">
        <ele>476</ele>
        <time>2018-05-22T08:15:59Z</time>
      </trkpt>
      <trkpt lat="42.600197000429034" lon="-6.731635015457869">
        <ele>476</ele>
        <time>2018-05-22T08:16:01Z</time>
      </trkpt>
      <trkpt lat="42.600169004872441" lon="-6.731559997424483">
        <ele>476</ele>
        <time>2018-05-22T08:16:02Z</time>
      </trkpt>
      <trkpt lat="42.600149977952242" lon="-6.731501994654536">
        <ele>476</ele>
        <time>2018-05-22T08:16:04Z</time>
      </trkpt>
      <trkpt lat="42.600132040679455" lon="-6.731405016034842">
        <ele>476</ele>
        <time>2018-05-22T08:16:06Z</time>
      </trkpt>
      <trkpt lat="42.600127011537552" lon="-6.731352964416146">
        <ele>476</ele>
        <time>2018-05-22T08:16:07Z</time>
      </trkpt>
      <trkpt lat="42.600111002102494" lon="-6.731261014938355">
        <ele>476</ele>
        <time>2018-05-22T08:16:09Z</time>
      </trkpt>
      <trkpt lat="42.600111002102494" lon="-6.731197983026505">
        <ele>476</ele>
        <time>2018-05-22T08:16:10Z</time>
      </trkpt>
      <trkpt lat="42.600111002102494" lon="-6.73114400357008">
        <ele>475</ele>
        <time>2018-05-22T08:16:12Z</time>
      </trkpt>
      <trkpt lat="42.600106978788972" lon="-6.730842003598809">
        <ele>475</ele>
        <time>2018-05-22T08:16:18Z</time>
      </trkpt>
      <trkpt lat="42.600099015980959" lon="-6.730589037761092">
        <ele>475</ele>
        <time>2018-05-22T08:16:24Z</time>
      </trkpt>
      <trkpt lat="42.600085018202662" lon="-6.730455011129379">
        <ele>475</ele>
        <time>2018-05-22T08:16:27Z</time>
      </trkpt>
      <trkpt lat="42.60007998906076" lon="-6.730269016698003">
        <ele>475</ele>
        <time>2018-05-22T08:16:31Z</time>
      </trkpt>
      <trkpt lat="42.600074959918857" lon="-6.730054020881653">
        <ele>475</ele>
        <time>2018-05-22T08:16:35Z</time>
      </trkpt>
      <trkpt lat="42.600071020424366" lon="-6.729824021458626">
        <ele>475</ele>
        <time>2018-05-22T08:16:40Z</time>
      </trkpt>
      <trkpt lat="42.600051993504167" lon="-6.729570971801877">
        <ele>475</ele>
        <time>2018-05-22T08:16:46Z</time>
      </trkpt>
      <trkpt lat="42.60003799572587" lon="-6.729298979043961">
        <ele>477</ele>
        <time>2018-05-22T08:16:52Z</time>
      </trkpt>
      <trkpt lat="42.600018968805671" lon="-6.729089012369514">
        <ele>477</ele>
        <time>2018-05-22T08:16:57Z</time>
      </trkpt>
      <trkpt lat="42.60001502931118" lon="-6.728717023506761">
        <ele>476</ele>
        <time>2018-05-22T08:17:05Z</time>
      </trkpt>
      <trkpt lat="42.600007988512516" lon="-6.728320978581905">
        <ele>476</ele>
        <time>2018-05-22T08:17:13Z</time>
      </trkpt>
      <trkpt lat="42.599999019876122" lon="-6.728036999702454">
        <ele>476</ele>
        <time>2018-05-22T08:17:19Z</time>
      </trkpt>
      <trkpt lat="42.599983010441065" lon="-6.72787799499929">
        <ele>480</ele>
        <time>2018-05-22T08:17:23Z</time>
      </trkpt>
      <trkpt lat="42.599983010441065" lon="-6.727713039144874">
        <ele>480</ele>
        <time>2018-05-22T08:17:26Z</time>
      </trkpt>
      <trkpt lat="42.599978987127542" lon="-6.727584963664413">
        <ele>480</ele>
        <time>2018-05-22T08:17:29Z</time>
      </trkpt>
      <trkpt lat="42.599964989349246" lon="-6.727437023073435">
        <ele>480</ele>
        <time>2018-05-22T08:17:33Z</time>
      </trkpt>
      <trkpt lat="42.599924001842737" lon="-6.727270977571607">
        <ele>480</ele>
        <time>2018-05-22T08:17:36Z</time>
      </trkpt>
      <trkpt lat="42.599924001842737" lon="-6.727253962308168">
        <ele>480</ele>
        <time>2018-05-22T08:17:37Z</time>
      </trkpt>
      <trkpt lat="42.599915033206344" lon="-6.727201994508505">
        <ele>480</ele>
        <time>2018-05-22T08:17:38Z</time>
      </trkpt>
      <trkpt lat="42.599905980750918" lon="-6.727151032537222">
        <ele>480</ele>
        <time>2018-05-22T08:17:39Z</time>
      </trkpt>
      <trkpt lat="42.599891982972622" lon="-6.727098980918527">
        <ele>480</ele>
        <time>2018-05-22T08:17:40Z</time>
      </trkpt>
      <trkpt lat="42.599882008507848" lon="-6.727029997855425">
        <ele>482</ele>
        <time>2018-05-22T08:17:42Z</time>
      </trkpt>
      <trkpt lat="42.599863987416029" lon="-6.726978030055761">
        <ele>482</ele>
        <time>2018-05-22T08:17:43Z</time>
      </trkpt>
      <trkpt lat="42.59984496049583" lon="-6.726921033114195">
        <ele>482</ele>
        <time>2018-05-22T08:17:44Z</time>
      </trkpt>
      <trkpt lat="42.59982199408114" lon="-6.7268689814955">
        <ele>482</ele>
        <time>2018-05-22T08:17:46Z</time>
      </trkpt>
      <trkpt lat="42.599798021838069" lon="-6.726811984553933">
        <ele>482</ele>
        <time>2018-05-22T08:17:47Z</time>
      </trkpt>
      <trkpt lat="42.59978000074625" lon="-6.726770997047424">
        <ele>482</ele>
        <time>2018-05-22T08:17:48Z</time>
      </trkpt>
      <trkpt lat="42.599760973826051" lon="-6.726714000105858">
        <ele>482</ele>
        <time>2018-05-22T08:17:50Z</time>
      </trkpt>
      <trkpt lat="42.599732978269458" lon="-6.726667983457446">
        <ele>482</ele>
        <time>2018-05-22T08:17:51Z</time>
      </trkpt>
      <trkpt lat="42.599710011854768" lon="-6.726628001779318">
        <ele>482</ele>
        <time>2018-05-22T08:17:52Z</time>
      </trkpt>
      <trkpt lat="42.599690984934568" lon="-6.726581985130906">
        <ele>482</ele>
        <time>2018-05-22T08:17:53Z</time>
      </trkpt>
      <trkpt lat="42.59967296384275" lon="-6.726523982360959">
        <ele>482</ele>
        <time>2018-05-22T08:17:54Z</time>
      </trkpt>
      <trkpt lat="42.599662989377975" lon="-6.726473020389676">
        <ele>482</ele>
        <time>2018-05-22T08:17:56Z</time>
      </trkpt>
      <trkpt lat="42.599648991599679" lon="-6.726409988477826">
        <ele>482</ele>
        <time>2018-05-22T08:17:57Z</time>
      </trkpt>
      <trkpt lat="42.599640022963285" lon="-6.726351985707879">
        <ele>482</ele>
        <time>2018-05-22T08:17:58Z</time>
      </trkpt>
      <trkpt lat="42.599626025184989" lon="-6.726301023736596">
        <ele>482</ele>
        <time>2018-05-22T08:18:00Z</time>
      </trkpt>
      <trkpt lat="42.59960699826479" lon="-6.726236985996366">
        <ele>482</ele>
        <time>2018-05-22T08:18:01Z</time>
      </trkpt>
      <trkpt lat="42.599593000486493" lon="-6.726179989054799">
        <ele>482</ele>
        <time>2018-05-22T08:18:02Z</time>
      </trkpt>
      <trkpt lat="42.599574979394674" lon="-6.726111005991697">
        <ele>486</ele>
        <time>2018-05-22T08:18:04Z</time>
      </trkpt>
      <trkpt lat="42.599560981616378" lon="-6.726042022928596">
        <ele>486</ele>
        <time>2018-05-22T08:18:05Z</time>
      </trkpt>
      <trkpt lat="42.599556036293507" lon="-6.725961975753307">
        <ele>486</ele>
        <time>2018-05-22T08:18:07Z</time>
      </trkpt>
      <trkpt lat="42.599556036293507" lon="-6.725910007953644">
        <ele>486</ele>
        <time>2018-05-22T08:18:08Z</time>
      </trkpt>
      <trkpt lat="42.599556036293507" lon="-6.725853011012077">
        <ele>486</ele>
        <time>2018-05-22T08:18:10Z</time>
      </trkpt>
      <trkpt lat="42.599560981616378" lon="-6.725799031555653">
        <ele>486</ele>
        <time>2018-05-22T08:18:11Z</time>
      </trkpt>
      <trkpt lat="42.599570034071803" lon="-6.725755026564002">
        <ele>486</ele>
        <time>2018-05-22T08:18:12Z</time>
      </trkpt>
      <trkpt lat="42.599598029628396" lon="-6.725714039057493">
        <ele>483</ele>
        <time>2018-05-22T08:18:13Z</time>
      </trkpt>
      <trkpt lat="42.599626025184989" lon="-6.725673973560333">
        <ele>483</ele>
        <time>2018-05-22T08:18:14Z</time>
      </trkpt>
      <trkpt lat="42.599645974114537" lon="-6.725641032680869">
        <ele>483</ele>
        <time>2018-05-22T08:18:15Z</time>
      </trkpt>
      <trkpt lat="42.59967003017664" lon="-6.725600967183709">
        <ele>483</ele>
        <time>2018-05-22T08:18:16Z</time>
      </trkpt>
      <trkpt lat="42.599697019904852" lon="-6.725567020475864">
        <ele>483</ele>
        <time>2018-05-22T08:18:17Z</time>
      </trkpt>
      <trkpt lat="42.599720992147923" lon="-6.725521003827453">
        <ele>483</ele>
        <time>2018-05-22T08:18:19Z</time>
      </trkpt>
      <trkpt lat="42.599743958562613" lon="-6.725481022149324">
        <ele>483</ele>
        <time>2018-05-22T08:18:20Z</time>
      </trkpt>
      <trkpt lat="42.599758040159941" lon="-6.725435005500913">
        <ele>483</ele>
        <time>2018-05-22T08:18:21Z</time>
      </trkpt>
      <trkpt lat="42.599776983261108" lon="-6.725383037701249">
        <ele>483</ele>
        <time>2018-05-22T08:18:22Z</time>
      </trkpt>
      <trkpt lat="42.599786035716534" lon="-6.725337021052837">
        <ele>483</ele>
        <time>2018-05-22T08:18:23Z</time>
      </trkpt>
      <trkpt lat="42.599795004352927" lon="-6.725273989140987">
        <ele>483</ele>
        <time>2018-05-22T08:18:24Z</time>
      </trkpt>
      <trkpt lat="42.599818976595998" lon="-6.725209029391408">
        <ele>483</ele>
        <time>2018-05-22T08:18:26Z</time>
      </trkpt>
      <trkpt lat="42.599835991859436" lon="-6.725054970011115">
        <ele>483</ele>
        <time>2018-05-22T08:18:29Z</time>
      </trkpt>
      <trkpt lat="42.599835991859436" lon="-6.724850032478571">
        <ele>483</ele>
        <time>2018-05-22T08:18:34Z</time>
      </trkpt>
      <trkpt lat="42.599841021001339" lon="-6.72465699724853">
        <ele>483</ele>
        <time>2018-05-22T08:18:38Z</time>
      </trkpt>
      <trkpt lat="42.599863987416029" lon="-6.724405959248543">
        <ele>483</ele>
        <time>2018-05-22T08:18:44Z</time>
      </trkpt>
      <trkpt lat="42.599858958274126" lon="-6.724192975088954">
        <ele>483</ele>
        <time>2018-05-22T08:18:48Z</time>
      </trkpt>
      <trkpt lat="42.599858958274126" lon="-6.724079987034202">
        <ele>483</ele>
        <time>2018-05-22T08:18:51Z</time>
      </trkpt>
      <trkpt lat="42.59984496049583" lon="-6.723928023129702">
        <ele>483</ele>
        <time>2018-05-22T08:18:54Z</time>
      </trkpt>
      <trkpt lat="42.599827023223042" lon="-6.723644966259599">
        <ele>486</ele>
        <time>2018-05-22T08:19:00Z</time>
      </trkpt>
      <trkpt lat="42.599777989089489" lon="-6.723398035392165">
        <ele>486</ele>
        <time>2018-05-22T08:19:06Z</time>
      </trkpt>
      <trkpt lat="42.599749993532896" lon="-6.723102992400527">
        <ele>486</ele>
        <time>2018-05-22T08:19:12Z</time>
      </trkpt>
      <trkpt lat="42.599749993532896" lon="-6.722996961325407">
        <ele>486</ele>
        <time>2018-05-22T08:19:15Z</time>
      </trkpt>
      <trkpt lat="42.599731972441077" lon="-6.722664032131434">
        <ele>485</ele>
        <time>2018-05-22T08:19:22Z</time>
      </trkpt>
      <trkpt lat="42.599731972441077" lon="-6.722214007750154">
        <ele>485</ele>
        <time>2018-05-22T08:19:32Z</time>
      </trkpt>
      <trkpt lat="42.599727027118206" lon="-6.72181997448206">
        <ele>484</ele>
        <time>2018-05-22T08:19:40Z</time>
      </trkpt>
      <trkpt lat="42.599721997976303" lon="-6.721480004489422">
        <ele>484</ele>
        <time>2018-05-22T08:19:48Z</time>
      </trkpt>
      <trkpt lat="42.599703976884484" lon="-6.721007013693452">
        <ele>484</ele>
        <time>2018-05-22T08:19:58Z</time>
      </trkpt>
      <trkpt lat="42.59969400241971" lon="-6.720671989023686">
        <ele>484</ele>
        <time>2018-05-22T08:20:05Z</time>
      </trkpt>
      <trkpt lat="42.59969400241971" lon="-6.72038096934557">
        <ele>484</ele>
        <time>2018-05-22T08:20:12Z</time>
      </trkpt>
      <trkpt lat="42.599667012691498" lon="-6.719985008239746">
        <ele>483</ele>
        <time>2018-05-22T08:20:20Z</time>
      </trkpt>
      <trkpt lat="42.599667012691498" lon="-6.719721984118223">
        <ele>483</ele>
        <time>2018-05-22T08:20:26Z</time>
      </trkpt>
      <trkpt lat="42.599662989377975" lon="-6.71924295835197">
        <ele>484</ele>
        <time>2018-05-22T08:20:36Z</time>
      </trkpt>
      <trkpt lat="42.599657960236073" lon="-6.718797041103244">
        <ele>484</ele>
        <time>2018-05-22T08:20:46Z</time>
      </trkpt>
      <trkpt lat="42.599653014913201" lon="-6.718397978693247">
        <ele>486</ele>
        <time>2018-05-22T08:20:55Z</time>
      </trkpt>
      <trkpt lat="42.599643962457776" lon="-6.718063037842512">
        <ele>486</ele>
        <time>2018-05-22T08:21:02Z</time>
      </trkpt>
      <trkpt lat="42.599643962457776" lon="-6.717830020934343">
        <ele>485</ele>
        <time>2018-05-22T08:21:07Z</time>
      </trkpt>
      <trkpt lat="42.599643962457776" lon="-6.717509999871254">
        <ele>485</ele>
        <time>2018-05-22T08:21:14Z</time>
      </trkpt>
      <trkpt lat="42.599648991599679" lon="-6.71724496409297">
        <ele>485</ele>
        <time>2018-05-22T08:21:20Z</time>
      </trkpt>
      <trkpt lat="42.599657960236073" lon="-6.717060981318355">
        <ele>484</ele>
        <time>2018-05-22T08:21:24Z</time>
      </trkpt>
      <trkpt lat="42.599676987156272" lon="-6.716830981895328">
        <ele>484</ele>
        <time>2018-05-22T08:21:29Z</time>
      </trkpt>
      <trkpt lat="42.599662989377975" lon="-6.716654961928725">
        <ele>484</ele>
        <time>2018-05-22T08:21:33Z</time>
      </trkpt>
      <trkpt lat="42.599635999649763" lon="-6.716531999409199">
        <ele>484</ele>
        <time>2018-05-22T08:21:36Z</time>
      </trkpt>
      <trkpt lat="42.59960800409317" lon="-6.716481037437916">
        <ele>484</ele>
        <time>2018-05-22T08:21:37Z</time>
      </trkpt>
      <trkpt lat="42.599599035456777" lon="-6.716475002467632">
        <ele>484</ele>
        <time>2018-05-22T08:21:37Z</time>
      </trkpt>
      <trkpt lat="42.59954396635294" lon="-6.716377018019557">
        <ele>483</ele>
        <time>2018-05-22T08:21:40Z</time>
      </trkpt>
      <trkpt lat="42.599513037130237" lon="-6.716337036341429">
        <ele>483</ele>
        <time>2018-05-22T08:21:41Z</time>
      </trkpt>
      <trkpt lat="42.599509013816714" lon="-6.716313986107707">
        <ele>483</ele>
        <time>2018-05-22T08:21:42Z</time>
      </trkpt>
      <trkpt lat="42.59949903935194" lon="-6.716251038014889">
        <ele>483</ele>
        <time>2018-05-22T08:21:43Z</time>
      </trkpt>
      <trkpt lat="42.599481018260121" lon="-6.716188006103039">
        <ele>483</ele>
        <time>2018-05-22T08:21:45Z</time>
      </trkpt>
      <trkpt lat="42.599456962198019" lon="-6.716112988069654">
        <ele>488</ele>
        <time>2018-05-22T08:21:46Z</time>
      </trkpt>
      <trkpt lat="42.599439024925232" lon="-6.716050039976835">
        <ele>488</ele>
        <time>2018-05-22T08:21:48Z</time>
      </trkpt>
      <trkpt lat="42.599395019933581" lon="-6.715927999466658">
        <ele>488</ele>
        <time>2018-05-22T08:21:51Z</time>
      </trkpt>
      <trkpt lat="42.599370963871479" lon="-6.715888017788529">
        <ele>488</ele>
        <time>2018-05-22T08:21:52Z</time>
      </trkpt>
      <trkpt lat="42.599330982193351" lon="-6.715817023068667">
        <ele>488</ele>
        <time>2018-05-22T08:21:54Z</time>
      </trkpt>
      <trkpt lat="42.599302986636758" lon="-6.715771006420255">
        <ele>488</ele>
        <time>2018-05-22T08:21:55Z</time>
      </trkpt>
      <trkpt lat="42.599283959716558" lon="-6.715724989771843">
        <ele>488</ele>
        <time>2018-05-22T08:21:56Z</time>
      </trkpt>
      <trkpt lat="42.599255964159966" lon="-6.715685008093715">
        <ele>488</ele>
        <time>2018-05-22T08:21:57Z</time>
      </trkpt>
      <trkpt lat="42.599230986088514" lon="-6.715649971738458">
        <ele>488</ele>
        <time>2018-05-22T08:21:59Z</time>
      </trkpt>
      <trkpt lat="42.599197961390018" lon="-6.715587023645639">
        <ele>488</ele>
        <time>2018-05-22T08:22:00Z</time>
      </trkpt>
      <trkpt lat="42.599168960005045" lon="-6.715531032532454">
        <ele>488</ele>
        <time>2018-05-22T08:22:02Z</time>
      </trkpt>
      <trkpt lat="42.599140964448452" lon="-6.715490967035294">
        <ele>488</ele>
        <time>2018-05-22T08:22:03Z</time>
      </trkpt>
      <trkpt lat="42.599117998033762" lon="-6.715450985357165">
        <ele>488</ele>
        <time>2018-05-22T08:22:04Z</time>
      </trkpt>
      <trkpt lat="42.599090002477169" lon="-6.715421983972192">
        <ele>488</ele>
        <time>2018-05-22T08:22:05Z</time>
      </trkpt>
      <trkpt lat="42.599056977778673" lon="-6.71537596732378">
        <ele>488</ele>
        <time>2018-05-22T08:22:06Z</time>
      </trkpt>
      <trkpt lat="42.599023031070828" lon="-6.715346965938807">
        <ele>488</ele>
        <time>2018-05-22T08:22:08Z</time>
      </trkpt>
      <trkpt lat="42.598990006372333" lon="-6.715318970382214">
        <ele>488</ele>
        <time>2018-05-22T08:22:09Z</time>
      </trkpt>
      <trkpt lat="42.59896201081574" lon="-6.715284017845988">
        <ele>500</ele>
        <time>2018-05-22T08:22:10Z</time>
      </trkpt>
      <trkpt lat="42.598924962803721" lon="-6.715232972055674">
        <ele>500</ele>
        <time>2018-05-22T08:22:12Z</time>
      </trkpt>
      <trkpt lat="42.598890010267496" lon="-6.715185027569532">
        <ele>500</ele>
        <time>2018-05-22T08:22:13Z</time>
      </trkpt>
      <trkpt lat="42.598841981962323" lon="-6.715107997879386">
        <ele>500</ele>
        <time>2018-05-22T08:22:15Z</time>
      </trkpt>
      <trkpt lat="42.59881398640573" lon="-6.715072961524129">
        <ele>500</ele>
        <time>2018-05-22T08:22:16Z</time>
      </trkpt>
      <trkpt lat="42.59879101999104" lon="-6.71502803452313">
        <ele>500</ele>
        <time>2018-05-22T08:22:18Z</time>
      </trkpt>
      <trkpt lat="42.598763024434447" lon="-6.714970031753182">
        <ele>501</ele>
        <time>2018-05-22T08:22:19Z</time>
      </trkpt>
      <trkpt lat="42.598739974200726" lon="-6.714913034811616">
        <ele>501</ele>
        <time>2018-05-22T08:22:21Z</time>
      </trkpt>
      <trkpt lat="42.598700998350978" lon="-6.714827958494425">
        <ele>501</ele>
        <time>2018-05-22T08:22:23Z</time>
      </trkpt>
      <trkpt lat="42.598681971430779" lon="-6.714782025665045">
        <ele>501</ele>
        <time>2018-05-22T08:22:24Z</time>
      </trkpt>
      <trkpt lat="42.598659005016088" lon="-6.714736009016633">
        <ele>501</ele>
        <time>2018-05-22T08:22:25Z</time>
      </trkpt>
      <trkpt lat="42.598635032773018" lon="-6.714689992368221">
        <ele>501</ele>
        <time>2018-05-22T08:22:26Z</time>
      </trkpt>
      <trkpt lat="42.598611982539296" lon="-6.714626960456371">
        <ele>501</ele>
        <time>2018-05-22T08:22:28Z</time>
      </trkpt>
      <trkpt lat="42.598589016124606" lon="-6.714569963514805">
        <ele>501</ele>
        <time>2018-05-22T08:22:29Z</time>
      </trkpt>
      <trkpt lat="42.598569989204407" lon="-6.714500980451703">
        <ele>501</ele>
        <time>2018-05-22T08:22:31Z</time>
      </trkpt>
      <trkpt lat="42.598547022789717" lon="-6.714454963803291">
        <ele>505</ele>
        <time>2018-05-22T08:22:32Z</time>
      </trkpt>
      <trkpt lat="42.598523972555995" lon="-6.714409030973911">
        <ele>505</ele>
        <time>2018-05-22T08:22:33Z</time>
      </trkpt>
      <trkpt lat="42.598482985049486" lon="-6.714369971305132">
        <ele>505</ele>
        <time>2018-05-22T08:22:35Z</time>
      </trkpt>
      <trkpt lat="42.598449038341641" lon="-6.714348010718823">
        <ele>505</ele>
        <time>2018-05-22T08:22:36Z</time>
      </trkpt>
      <trkpt lat="42.598420958966017" lon="-6.714301994070411">
        <ele>505</ele>
        <time>2018-05-22T08:22:37Z</time>
      </trkpt>
      <trkpt lat="42.598392963409424" lon="-6.714267041534185">
        <ele>505</ele>
        <time>2018-05-22T08:22:38Z</time>
      </trkpt>
      <trkpt lat="42.598354993388057" lon="-6.71421498991549">
        <ele>505</ele>
        <time>2018-05-22T08:22:40Z</time>
      </trkpt>
      <trkpt lat="42.598326997831464" lon="-6.714190011844039">
        <ele>505</ele>
        <time>2018-05-22T08:22:41Z</time>
      </trkpt>
      <trkpt lat="42.598294978961349" lon="-6.714166961610317">
        <ele>505</ele>
        <time>2018-05-22T08:22:42Z</time>
      </trkpt>
      <trkpt lat="42.598252985626459" lon="-6.714133014902473">
        <ele>505</ele>
        <time>2018-05-22T08:22:43Z</time>
      </trkpt>
      <trkpt lat="42.598224990069866" lon="-6.714093033224344">
        <ele>505</ele>
        <time>2018-05-22T08:22:45Z</time>
      </trkpt>
      <trkpt lat="42.598196994513273" lon="-6.714040981605649">
        <ele>505</ele>
        <time>2018-05-22T08:22:46Z</time>
      </trkpt>
      <trkpt lat="42.59816899895668" lon="-6.713989013805986">
        <ele>505</ele>
        <time>2018-05-22T08:22:47Z</time>
      </trkpt>
      <trkpt lat="42.598141003400087" lon="-6.713959006592631">
        <ele>505</ele>
        <time>2018-05-22T08:22:49Z</time>
      </trkpt>
      <trkpt lat="42.598113007843494" lon="-6.713919024914503">
        <ele>505</ele>
        <time>2018-05-22T08:22:50Z</time>
      </trkpt>
      <trkpt lat="42.598075959831476" lon="-6.713878037407994">
        <ele>505</ele>
        <time>2018-05-22T08:22:51Z</time>
      </trkpt>
      <trkpt lat="42.598047964274883" lon="-6.713844006881118">
        <ele>505</ele>
        <time>2018-05-22T08:22:52Z</time>
      </trkpt>
      <trkpt lat="42.598015023395419" lon="-6.713821040466428">
        <ele>505</ele>
        <time>2018-05-22T08:22:53Z</time>
      </trkpt>
      <trkpt lat="42.597987027838826" lon="-6.713797990232706">
        <ele>505</ele>
        <time>2018-05-22T08:22:54Z</time>
      </trkpt>
      <trkpt lat="42.597959032282233" lon="-6.713758008554578">
        <ele>505</ele>
        <time>2018-05-22T08:22:56Z</time>
      </trkpt>
      <trkpt lat="42.597926007583737" lon="-6.713702017441392">
        <ele>503</ele>
        <time>2018-05-22T08:22:57Z</time>
      </trkpt>
      <trkpt lat="42.597891977056861" lon="-6.713683996349573">
        <ele>503</ele>
        <time>2018-05-22T08:22:58Z</time>
      </trkpt>
      <trkpt lat="42.597849983721972" lon="-6.713666981086135">
        <ele>503</ele>
        <time>2018-05-22T08:22:59Z</time>
      </trkpt>
      <trkpt lat="42.597802961245179" lon="-6.713638985529542">
        <ele>503</ele>
        <time>2018-05-22T08:23:01Z</time>
      </trkpt>
      <trkpt lat="42.597751999273896" lon="-6.713609984144568">
        <ele>503</ele>
        <time>2018-05-22T08:23:03Z</time>
      </trkpt>
      <trkpt lat="42.597690979018807" lon="-6.713575031608343">
        <ele>503</ele>
        <time>2018-05-22T08:23:05Z</time>
      </trkpt>
      <trkpt lat="42.597658960148692" lon="-6.713541001081467">
        <ele>503</ele>
        <time>2018-05-22T08:23:06Z</time>
      </trkpt>
      <trkpt lat="42.597620990127325" lon="-6.713529014959931">
        <ele>503</ele>
        <time>2018-05-22T08:23:07Z</time>
      </trkpt>
      <trkpt lat="42.597592994570732" lon="-6.713489033281803">
        <ele>503</ele>
        <time>2018-05-22T08:23:08Z</time>
      </trkpt>
      <trkpt lat="42.597549995407462" lon="-6.713430024683476">
        <ele>503</ele>
        <time>2018-05-22T08:23:10Z</time>
      </trkpt>
      <trkpt lat="42.597525017336011" lon="-6.713404962792993">
        <ele>503</ele>
        <time>2018-05-22T08:23:11Z</time>
      </trkpt>
      <trkpt lat="42.597491992637515" lon="-6.713370010256767">
        <ele>503</ele>
        <time>2018-05-22T08:23:12Z</time>
      </trkpt>
      <trkpt lat="42.597463997080922" lon="-6.713330028578639">
        <ele>503</ele>
        <time>2018-05-22T08:23:13Z</time>
      </trkpt>
      <trkpt lat="42.597436001524329" lon="-6.713289963081479">
        <ele>503</ele>
        <time>2018-05-22T08:23:14Z</time>
      </trkpt>
      <trkpt lat="42.597403982654214" lon="-6.713237995281816">
        <ele>503</ele>
        <time>2018-05-22T08:23:16Z</time>
      </trkpt>
      <trkpt lat="42.597385039553046" lon="-6.713187033310533">
        <ele>503</ele>
        <time>2018-05-22T08:23:17Z</time>
      </trkpt>
      <trkpt lat="42.597366012632847" lon="-6.713141016662121">
        <ele>503</ele>
        <time>2018-05-22T08:23:18Z</time>
      </trkpt>
      <trkpt lat="42.597342040389776" lon="-6.713095000013709">
        <ele>503</ele>
        <time>2018-05-22T08:23:20Z</time>
      </trkpt>
      <trkpt lat="42.59726601652801" lon="-6.712901964783669">
        <ele>503</ele>
        <time>2018-05-22T08:23:24Z</time>
      </trkpt>
      <trkpt lat="42.597200972959399" lon="-6.712750000879169">
        <ele>504</ele>
        <time>2018-05-22T08:23:28Z</time>
      </trkpt>
      <trkpt lat="42.597074992954731" lon="-6.712386980652809">
        <ele>505</ele>
        <time>2018-05-22T08:23:37Z</time>
      </trkpt>
      <trkpt lat="42.596904002130032" lon="-6.711961012333632">
        <ele>504</ele>
        <time>2018-05-22T08:23:47Z</time>
      </trkpt>
      <trkpt lat="42.596737034618855" lon="-6.71152800321579">
        <ele>504</ele>
        <time>2018-05-22T08:23:58Z</time>
      </trkpt>
      <trkpt lat="42.596610970795155" lon="-6.711183004081249">
        <ele>504</ele>
        <time>2018-05-22T08:24:06Z</time>
      </trkpt>
      <trkpt lat="42.596467975527048" lon="-6.710845967754722">
        <ele>504</ele>
        <time>2018-05-22T08:24:15Z</time>
      </trkpt>
      <trkpt lat="42.596353981643915" lon="-6.710522007197142">
        <ele>504</ele>
        <time>2018-05-22T08:24:23Z</time>
      </trkpt>
      <trkpt lat="42.596182990819216" lon="-6.710038958117366">
        <ele>503</ele>
        <time>2018-05-22T08:24:34Z</time>
      </trkpt>
      <trkpt lat="42.59602096863091" lon="-6.709625981748104">
        <ele>503</ele>
        <time>2018-05-22T08:24:45Z</time>
      </trkpt>
      <trkpt lat="42.595893982797861" lon="-6.709297997877002">
        <ele>505</ele>
        <time>2018-05-22T08:24:53Z</time>
      </trkpt>
      <trkpt lat="42.59576003998518" lon="-6.709026005119085">
        <ele>505</ele>
        <time>2018-05-22T08:25:00Z</time>
      </trkpt>
      <trkpt lat="42.595601035282016" lon="-6.708597019314766">
        <ele>508</ele>
        <time>2018-05-22T08:25:10Z</time>
      </trkpt>
      <trkpt lat="42.595595000311732" lon="-6.708597019314766">
        <ele>508</ele>
        <time>2018-05-22T08:25:10Z</time>
      </trkpt>
      <trkpt lat="42.595448987558484" lon="-6.708159986883402">
        <ele>511</ele>
        <time>2018-05-22T08:25:21Z</time>
      </trkpt>
      <trkpt lat="42.595285037532449" lon="-6.707752961665392">
        <ele>513</ele>
        <time>2018-05-22T08:25:31Z</time>
      </trkpt>
      <trkpt lat="42.595144975930452" lon="-6.707373009994626">
        <ele>513</ele>
        <time>2018-05-22T08:25:40Z</time>
      </trkpt>
      <trkpt lat="42.594965016469359" lon="-6.706980988383293">
        <ele>514</ele>
        <time>2018-05-22T08:25:50Z</time>
      </trkpt>
      <trkpt lat="42.59479402564466" lon="-6.706584021449089">
        <ele>514</ele>
        <time>2018-05-22T08:26:00Z</time>
      </trkpt>
      <trkpt lat="42.594652958214283" lon="-6.70624103397131">
        <ele>514</ele>
        <time>2018-05-22T08:26:09Z</time>
      </trkpt>
      <trkpt lat="42.594652958214283" lon="-6.706232987344265">
        <ele>514</ele>
        <time>2018-05-22T08:26:09Z</time>
      </trkpt>
      <trkpt lat="42.594479033723474" lon="-6.705796960741282">
        <ele>506</ele>
        <time>2018-05-22T08:26:20Z</time>
      </trkpt>
      <trkpt lat="42.594322040677071" lon="-6.705342996865511">
        <ele>512</ele>
        <time>2018-05-22T08:26:31Z</time>
      </trkpt>
      <trkpt lat="42.594181979075074" lon="-6.704917028546333">
        <ele>512</ele>
        <time>2018-05-22T08:26:41Z</time>
      </trkpt>
      <trkpt lat="42.594052981585264" lon="-6.704573035240173">
        <ele>512</ele>
        <time>2018-05-22T08:26:49Z</time>
      </trkpt>
      <trkpt lat="42.593939993530512" lon="-6.704290984198451">
        <ele>511</ele>
        <time>2018-05-22T08:26:56Z</time>
      </trkpt>
      <trkpt lat="42.593853995203972" lon="-6.70407397672534">
        <ele>511</ele>
        <time>2018-05-22T08:27:02Z</time>
      </trkpt>
      <trkpt lat="42.593793980777264" lon="-6.703863004222512">
        <ele>511</ele>
        <time>2018-05-22T08:27:07Z</time>
      </trkpt>
      <trkpt lat="42.593793980777264" lon="-6.703845988959074">
        <ele>511</ele>
        <time>2018-05-22T08:27:07Z</time>
      </trkpt>
      <trkpt lat="42.593775037676096" lon="-6.703799972310662">
        <ele>511</ele>
        <time>2018-05-22T08:27:08Z</time>
      </trkpt>
      <trkpt lat="42.593757016584277" lon="-6.703737024217844">
        <ele>506</ele>
        <time>2018-05-22T08:27:10Z</time>
      </trkpt>
      <trkpt lat="42.593737989664078" lon="-6.703668041154742">
        <ele>506</ele>
        <time>2018-05-22T08:27:11Z</time>
      </trkpt>
      <trkpt lat="42.593724997714162" lon="-6.703622024506331">
        <ele>507</ele>
        <time>2018-05-22T08:27:12Z</time>
      </trkpt>
      <trkpt lat="42.593710999935865" lon="-6.703569972887635">
        <ele>507</ele>
        <time>2018-05-22T08:27:13Z</time>
      </trkpt>
      <trkpt lat="42.593692978844047" lon="-6.703519010916352">
        <ele>507</ele>
        <time>2018-05-22T08:27:15Z</time>
      </trkpt>
      <trkpt lat="42.59367898106575" lon="-6.703470982611179">
        <ele>507</ele>
        <time>2018-05-22T08:27:16Z</time>
      </trkpt>
      <trkpt lat="42.59365500882268" lon="-6.703401999548078">
        <ele>507</ele>
        <time>2018-05-22T08:27:17Z</time>
      </trkpt>
      <trkpt lat="42.593636987730861" lon="-6.703333016484976">
        <ele>507</ele>
        <time>2018-05-22T08:27:19Z</time>
      </trkpt>
      <trkpt lat="42.593617960810661" lon="-6.703257998451591">
        <ele>507</ele>
        <time>2018-05-22T08:27:21Z</time>
      </trkpt>
      <trkpt lat="42.593599017709494" lon="-6.703206030651927">
        <ele>507</ele>
        <time>2018-05-22T08:27:22Z</time>
      </trkpt>
      <trkpt lat="42.593594994395971" lon="-6.703149033710361">
        <ele>507</ele>
        <time>2018-05-22T08:27:23Z</time>
      </trkpt>
      <trkpt lat="42.593594994395971" lon="-6.703096982091665">
        <ele>507</ele>
        <time>2018-05-22T08:27:24Z</time>
      </trkpt>
      <trkpt lat="42.593566998839378" lon="-6.702964967116714">
        <ele>507</ele>
        <time>2018-05-22T08:27:27Z</time>
      </trkpt>
      <trkpt lat="42.593547971919179" lon="-6.702907970175147">
        <ele>507</ele>
        <time>2018-05-22T08:27:29Z</time>
      </trkpt>
      <trkpt lat="42.593525005504489" lon="-6.702845022082329">
        <ele>507</ele>
        <time>2018-05-22T08:27:30Z</time>
      </trkpt>
      <trkpt lat="42.59350597858429" lon="-6.702792970463634">
        <ele>503</ele>
        <time>2018-05-22T08:27:32Z</time>
      </trkpt>
      <trkpt lat="42.593488041311502" lon="-6.70271803624928">
        <ele>503</ele>
        <time>2018-05-22T08:27:33Z</time>
      </trkpt>
      <trkpt lat="42.593473959714174" lon="-6.702652992680669">
        <ele>503</ele>
        <time>2018-05-22T08:27:35Z</time>
      </trkpt>
      <trkpt lat="42.593439007177949" lon="-6.702434979379177">
        <ele>503</ele>
        <time>2018-05-22T08:27:40Z</time>
      </trkpt>
      <trkpt lat="42.593418974429369" lon="-6.702317968010902">
        <ele>503</ele>
        <time>2018-05-22T08:27:42Z</time>
      </trkpt>
      <trkpt lat="42.593340016901493" lon="-6.702018985524774">
        <ele>503</ele>
        <time>2018-05-22T08:27:49Z</time>
      </trkpt>
      <trkpt lat="42.59326801635325" lon="-6.701691001653671">
        <ele>502</ele>
        <time>2018-05-22T08:27:57Z</time>
      </trkpt>
      <trkpt lat="42.593220993876457" lon="-6.701416997238994">
        <ele>502</ele>
        <time>2018-05-22T08:28:03Z</time>
      </trkpt>
      <trkpt lat="42.593192998319864" lon="-6.701203007251024">
        <ele>502</ele>
        <time>2018-05-22T08:28:07Z</time>
      </trkpt>
      <trkpt lat="42.593154022470117" lon="-6.70097703114152">
        <ele>500</ele>
        <time>2018-05-22T08:28:13Z</time>
      </trkpt>
      <trkpt lat="42.593112029135227" lon="-6.700778966769576">
        <ele>500</ele>
        <time>2018-05-22T08:28:17Z</time>
      </trkpt>
      <trkpt lat="42.593070035800338" lon="-6.700617028400302">
        <ele>500</ele>
        <time>2018-05-22T08:28:21Z</time>
      </trkpt>
      <trkpt lat="42.593070035800338" lon="-6.700601018965244">
        <ele>500</ele>
        <time>2018-05-22T08:28:21Z</time>
      </trkpt>
      <trkpt lat="42.59303298778832" lon="-6.700376970693469">
        <ele>500</ele>
        <time>2018-05-22T08:28:26Z</time>
      </trkpt>
      <trkpt lat="42.592972973361611" lon="-6.700161974877119">
        <ele>498</ele>
        <time>2018-05-22T08:28:31Z</time>
      </trkpt>
      <trkpt lat="42.592898039147258" lon="-6.699931975454092">
        <ele>493</ele>
        <time>2018-05-22T08:28:37Z</time>
      </trkpt>
      <trkpt lat="42.592814974486828" lon="-6.699640033766627">
        <ele>493</ele>
        <time>2018-05-22T08:28:43Z</time>
      </trkpt>
      <trkpt lat="42.592764012515545" lon="-6.699454039335251">
        <ele>493</ele>
        <time>2018-05-22T08:28:48Z</time>
      </trkpt>
      <trkpt lat="42.592686982825398" lon="-6.699209036305547">
        <ele>493</ele>
        <time>2018-05-22T08:28:54Z</time>
      </trkpt>
      <trkpt lat="42.59262696839869" lon="-6.698990017175674">
        <ele>493</ele>
        <time>2018-05-22T08:28:59Z</time>
      </trkpt>
      <trkpt lat="42.592526972293854" lon="-6.698720036074519">
        <ele>494</ele>
        <time>2018-05-22T08:29:05Z</time>
      </trkpt>
      <trkpt lat="42.59243200533092" lon="-6.698471009731293">
        <ele>494</ele>
        <time>2018-05-22T08:29:11Z</time>
      </trkpt>
      <trkpt lat="42.592343995347619" lon="-6.698150988668203">
        <ele>494</ele>
        <time>2018-05-22T08:29:19Z</time>
      </trkpt>
      <trkpt lat="42.592257997021079" lon="-6.697869021445513">
        <ele>493</ele>
        <time>2018-05-22T08:29:25Z</time>
      </trkpt>
      <trkpt lat="42.592162024229765" lon="-6.697622006759048">
        <ele>493</ele>
        <time>2018-05-22T08:29:31Z</time>
      </trkpt>
      <trkpt lat="42.592148026451468" lon="-6.697399970144033">
        <ele>493</ele>
        <time>2018-05-22T08:29:36Z</time>
      </trkpt>
      <trkpt lat="42.592106033116579" lon="-6.697306009009481">
        <ele>493</ele>
        <time>2018-05-22T08:29:39Z</time>
      </trkpt>
      <trkpt lat="42.591968988999724" lon="-6.696928991004825">
        <ele>495</ele>
        <time>2018-05-22T08:29:48Z</time>
      </trkpt>
      <trkpt lat="42.591813001781702" lon="-6.696493970230222">
        <ele>495</ele>
        <time>2018-05-22T08:29:58Z</time>
      </trkpt>
      <trkpt lat="42.591692972928286" lon="-6.696135979145765">
        <ele>495</ele>
        <time>2018-05-22T08:30:07Z</time>
      </trkpt>
      <trkpt lat="42.591570010408759" lon="-6.695718979462981">
        <ele>495</ele>
        <time>2018-05-22T08:30:17Z</time>
      </trkpt>
      <trkpt lat="42.591532962396741" lon="-6.695604985579848">
        <ele>495</ele>
        <time>2018-05-22T08:30:19Z</time>
      </trkpt>
      <trkpt lat="42.591423997655511" lon="-6.695268033072352">
        <ele>496</ele>
        <time>2018-05-22T08:30:27Z</time>
      </trkpt>
      <trkpt lat="42.591324001550674" lon="-6.69491901062429">
        <ele>496</ele>
        <time>2018-05-22T08:30:36Z</time>
      </trkpt>
      <trkpt lat="42.591205984354019" lon="-6.694561019539833">
        <ele>493</ele>
        <time>2018-05-22T08:30:44Z</time>
      </trkpt>
      <trkpt lat="42.591132977977395" lon="-6.694349963217974">
        <ele>494</ele>
        <time>2018-05-22T08:30:49Z</time>
      </trkpt>
      <trkpt lat="42.591029964387417" lon="-6.694008987396956">
        <ele>494</ele>
        <time>2018-05-22T08:30:57Z</time>
      </trkpt>
      <trkpt lat="42.590913036838174" lon="-6.693662982434034">
        <ele>494</ele>
        <time>2018-05-22T08:31:06Z</time>
      </trkpt>
      <trkpt lat="42.590816980227828" lon="-6.693385038524866">
        <ele>494</ele>
        <time>2018-05-22T08:31:12Z</time>
      </trkpt>
      <trkpt lat="42.590732993558049" lon="-6.69309401884675">
        <ele>494</ele>
        <time>2018-05-22T08:31:19Z</time>
      </trkpt>
      <trkpt lat="42.590646995231509" lon="-6.692820014432073">
        <ele>495</ele>
        <time>2018-05-22T08:31:25Z</time>
      </trkpt>
      <trkpt lat="42.590646995231509" lon="-6.692808028310537">
        <ele>495</ele>
        <time>2018-05-22T08:31:26Z</time>
      </trkpt>
      <trkpt lat="42.590624028816819" lon="-6.692744996398687">
        <ele>495</ele>
        <time>2018-05-22T08:31:27Z</time>
      </trkpt>
      <trkpt lat="42.59060500189662" lon="-6.692698979750276">
        <ele>495</ele>
        <time>2018-05-22T08:31:28Z</time>
      </trkpt>
      <trkpt lat="42.590591004118323" lon="-6.692641982808709">
        <ele>495</ele>
        <time>2018-05-22T08:31:30Z</time>
      </trkpt>
      <trkpt lat="42.590568037703633" lon="-6.692572999745607">
        <ele>495</ele>
        <time>2018-05-22T08:31:31Z</time>
      </trkpt>
      <trkpt lat="42.590549010783434" lon="-6.69251499697566">
        <ele>495</ele>
        <time>2018-05-22T08:31:33Z</time>
      </trkpt>
      <trkpt lat="42.590516991913319" lon="-6.692475015297532">
        <ele>495</ele>
        <time>2018-05-22T08:31:34Z</time>
      </trkpt>
      <trkpt lat="42.590472986921668" lon="-6.692412989214063">
        <ele>496</ele>
        <time>2018-05-22T08:31:36Z</time>
      </trkpt>
      <trkpt lat="42.590436022728682" lon="-6.692395973950625">
        <ele>496</ele>
        <time>2018-05-22T08:31:37Z</time>
      </trkpt>
      <trkpt lat="42.590397968888283" lon="-6.692367978394032">
        <ele>496</ele>
        <time>2018-05-22T08:31:38Z</time>
      </trkpt>
      <trkpt lat="42.590352036058903" lon="-6.692326990887523">
        <ele>496</ele>
        <time>2018-05-22T08:31:40Z</time>
      </trkpt>
      <trkpt lat="42.59032697416842" lon="-6.69229899533093">
        <ele>496</ele>
        <time>2018-05-22T08:31:41Z</time>
      </trkpt>
      <trkpt lat="42.590294033288956" lon="-6.692252978682518">
        <ele>496</ele>
        <time>2018-05-22T08:31:42Z</time>
      </trkpt>
      <trkpt lat="42.590260002762079" lon="-6.692197993397713">
        <ele>496</ele>
        <time>2018-05-22T08:31:44Z</time>
      </trkpt>
      <trkpt lat="42.590236030519009" lon="-6.692158011719585">
        <ele>496</ele>
        <time>2018-05-22T08:31:45Z</time>
      </trkpt>
      <trkpt lat="42.590204011648893" lon="-6.692123981192708">
        <ele>496</ele>
        <time>2018-05-22T08:31:46Z</time>
      </trkpt>
      <trkpt lat="42.590162018314004" lon="-6.69208399951458">
        <ele>496</ele>
        <time>2018-05-22T08:31:48Z</time>
      </trkpt>
      <trkpt lat="42.590120024979115" lon="-6.692037982866168">
        <ele>496</ele>
        <time>2018-05-22T08:31:49Z</time>
      </trkpt>
      <trkpt lat="42.590085994452238" lon="-6.692019961774349">
        <ele>496</ele>
        <time>2018-05-22T08:31:50Z</time>
      </trkpt>
      <trkpt lat="42.590052969753742" lon="-6.691957013681531">
        <ele>497</ele>
        <time>2018-05-22T08:31:52Z</time>
      </trkpt>
      <trkpt lat="42.590024974197149" lon="-6.691910997033119">
        <ele>497</ele>
        <time>2018-05-22T08:31:53Z</time>
      </trkpt>
      <trkpt lat="42.589996978640556" lon="-6.691854000091553">
        <ele>497</ele>
        <time>2018-05-22T08:31:55Z</time>
      </trkpt>
      <trkpt lat="42.589973006397486" lon="-6.691815024241805">
        <ele>497</ele>
        <time>2018-05-22T08:31:56Z</time>
      </trkpt>
      <trkpt lat="42.589944005012512" lon="-6.691778982058168">
        <ele>497</ele>
        <time>2018-05-22T08:31:57Z</time>
      </trkpt>
      <trkpt lat="42.589921038597822" lon="-6.691739000380039">
        <ele>497</ele>
        <time>2018-05-22T08:31:58Z</time>
      </trkpt>
      <trkpt lat="42.589892037212849" lon="-6.691705975681543">
        <ele>497</ele>
        <time>2018-05-22T08:31:59Z</time>
      </trkpt>
      <trkpt lat="42.589864041656256" lon="-6.69165400788188">
        <ele>497</ele>
        <time>2018-05-22T08:32:01Z</time>
      </trkpt>
      <trkpt lat="42.589826993644238" lon="-6.691629029810429">
        <ele>497</ele>
        <time>2018-05-22T08:32:02Z</time>
      </trkpt>
      <trkpt lat="42.589798998087645" lon="-6.691583013162017">
        <ele>497</ele>
        <time>2018-05-22T08:32:03Z</time>
      </trkpt>
      <trkpt lat="42.589776031672955" lon="-6.691541019827128">
        <ele>497</ele>
        <time>2018-05-22T08:32:04Z</time>
      </trkpt>
      <trkpt lat="42.5897460244596" lon="-6.691492991521955">
        <ele>497</ele>
        <time>2018-05-22T08:32:06Z</time>
      </trkpt>
      <trkpt lat="42.589709982275963" lon="-6.691400958225131">
        <ele>497</ele>
        <time>2018-05-22T08:32:08Z</time>
      </trkpt>
      <trkpt lat="42.589643010869622" lon="-6.691103987395763">
        <ele>496</ele>
        <time>2018-05-22T08:32:15Z</time>
      </trkpt>
      <trkpt lat="42.589563969522715" lon="-6.690854961052537">
        <ele>494</ele>
        <time>2018-05-22T08:32:21Z</time>
      </trkpt>
      <trkpt lat="42.589505966752768" lon="-6.690590009093285">
        <ele>494</ele>
        <time>2018-05-22T08:32:27Z</time>
      </trkpt>
      <trkpt lat="42.589452993124723" lon="-6.690359003841877">
        <ele>500</ele>
        <time>2018-05-22T08:32:32Z</time>
      </trkpt>
      <trkpt lat="42.589447963982821" lon="-6.690330002456904">
        <ele>500</ele>
        <time>2018-05-22T08:32:33Z</time>
      </trkpt>
      <trkpt lat="42.589430026710033" lon="-6.690266970545054">
        <ele>500</ele>
        <time>2018-05-22T08:32:34Z</time>
      </trkpt>
      <trkpt lat="42.589416028931737" lon="-6.690208967775106">
        <ele>500</ele>
        <time>2018-05-22T08:32:36Z</time>
      </trkpt>
      <trkpt lat="42.58940203115344" lon="-6.690156999975443">
        <ele>500</ele>
        <time>2018-05-22T08:32:37Z</time>
      </trkpt>
      <trkpt lat="42.589391972869635" lon="-6.690093968063593">
        <ele>500</ele>
        <time>2018-05-22T08:32:38Z</time>
      </trkpt>
      <trkpt lat="42.589391972869635" lon="-6.69004300609231">
        <ele>500</ele>
        <time>2018-05-22T08:32:39Z</time>
      </trkpt>
      <trkpt lat="42.589391972869635" lon="-6.689985003322363">
        <ele>500</ele>
        <time>2018-05-22T08:32:41Z</time>
      </trkpt>
      <trkpt lat="42.589391972869635" lon="-6.689928006380796">
        <ele>500</ele>
        <time>2018-05-22T08:32:42Z</time>
      </trkpt>
      <trkpt lat="42.589391972869635" lon="-6.689876038581133">
        <ele>500</ele>
        <time>2018-05-22T08:32:43Z</time>
      </trkpt>
      <trkpt lat="42.589391972869635" lon="-6.689806971698999">
        <ele>500</ele>
        <time>2018-05-22T08:32:44Z</time>
      </trkpt>
      <trkpt lat="42.589397002011538" lon="-6.689732037484646">
        <ele>500</ele>
        <time>2018-05-22T08:32:46Z</time>
      </trkpt>
      <trkpt lat="42.589397002011538" lon="-6.689675040543079">
        <ele>500</ele>
        <time>2018-05-22T08:32:47Z</time>
      </trkpt>
      <trkpt lat="42.58940203115344" lon="-6.689605973660946">
        <ele>500</ele>
        <time>2018-05-22T08:32:49Z</time>
      </trkpt>
      <trkpt lat="42.589405970647931" lon="-6.689548976719379">
        <ele>500</ele>
        <time>2018-05-22T08:32:50Z</time>
      </trkpt>
      <trkpt lat="42.589410999789834" lon="-6.689497008919716">
        <ele>501</ele>
        <time>2018-05-22T08:32:51Z</time>
      </trkpt>
      <trkpt lat="42.589410999789834" lon="-6.689440011978149">
        <ele>501</ele>
        <time>2018-05-22T08:32:52Z</time>
      </trkpt>
      <trkpt lat="42.589419968426228" lon="-6.689371028915048">
        <ele>501</ele>
        <time>2018-05-22T08:32:54Z</time>
      </trkpt>
      <trkpt lat="42.589430026710033" lon="-6.689325012266636">
        <ele>501</ele>
        <time>2018-05-22T08:32:55Z</time>
      </trkpt>
      <trkpt lat="42.589430026710033" lon="-6.689260974526405">
        <ele>501</ele>
        <time>2018-05-22T08:32:56Z</time>
      </trkpt>
      <trkpt lat="42.589430026710033" lon="-6.689198026433587">
        <ele>501</ele>
        <time>2018-05-22T08:32:58Z</time>
      </trkpt>
      <trkpt lat="42.589430026710033" lon="-6.689146980643272">
        <ele>501</ele>
        <time>2018-05-22T08:32:59Z</time>
      </trkpt>
      <trkpt lat="42.589430026710033" lon="-6.689088977873325">
        <ele>501</ele>
        <time>2018-05-22T08:33:00Z</time>
      </trkpt>
      <trkpt lat="42.589430026710033" lon="-6.689031980931759">
        <ele>501</ele>
        <time>2018-05-22T08:33:01Z</time>
      </trkpt>
      <trkpt lat="42.589419968426228" lon="-6.688940031453967">
        <ele>501</ele>
        <time>2018-05-22T08:33:03Z</time>
      </trkpt>
      <trkpt lat="42.589410999789834" lon="-6.688865013420582">
        <ele>501</ele>
        <time>2018-05-22T08:33:05Z</time>
      </trkpt>
      <trkpt lat="42.589388033375144" lon="-6.688806004822254">
        <ele>501</ele>
        <time>2018-05-22T08:33:07Z</time>
      </trkpt>
      <trkpt lat="42.589360037818551" lon="-6.688766023144126">
        <ele>501</ele>
        <time>2018-05-22T08:33:08Z</time>
      </trkpt>
      <trkpt lat="42.589334975928068" lon="-6.688723023980856">
        <ele>501</ele>
        <time>2018-05-22T08:33:09Z</time>
      </trkpt>
      <trkpt lat="42.589318966493011" lon="-6.688686981797218">
        <ele>501</ele>
        <time>2018-05-22T08:33:10Z</time>
      </trkpt>
      <trkpt lat="42.589296000078321" lon="-6.688635013997555">
        <ele>501</ele>
        <time>2018-05-22T08:33:11Z</time>
      </trkpt>
      <trkpt lat="42.58927202783525" lon="-6.688588997349143">
        <ele>501</ele>
        <time>2018-05-22T08:33:12Z</time>
      </trkpt>
      <trkpt lat="42.589247971773148" lon="-6.688536023721099">
        <ele>501</ele>
        <time>2018-05-22T08:33:14Z</time>
      </trkpt>
      <trkpt lat="42.5892089959234" lon="-6.688407026231289">
        <ele>501</ele>
        <time>2018-05-22T08:33:17Z</time>
      </trkpt>
      <trkpt lat="42.589131966233253" lon="-6.688211979344487">
        <ele>501</ele>
        <time>2018-05-22T08:33:22Z</time>
      </trkpt>
      <trkpt lat="42.589029036462307" lon="-6.687855999916792">
        <ele>503</ele>
        <time>2018-05-22T08:33:30Z</time>
      </trkpt>
      <trkpt lat="42.588946977630258" lon="-6.687506977468729">
        <ele>503</ele>
        <time>2018-05-22T08:33:38Z</time>
      </trkpt>
      <trkpt lat="42.588871959596872" lon="-6.687220986932516">
        <ele>503</ele>
        <time>2018-05-22T08:33:44Z</time>
      </trkpt>
      <trkpt lat="42.588788978755474" lon="-6.686882022768259">
        <ele>507</ele>
        <time>2018-05-22T08:33:52Z</time>
      </trkpt>
      <trkpt lat="42.588704992085695" lon="-6.686710026115179">
        <ele>511</ele>
        <time>2018-05-22T08:33:57Z</time>
      </trkpt>
      <trkpt lat="42.588619999587536" lon="-6.686414983123541">
        <ele>511</ele>
        <time>2018-05-22T08:34:04Z</time>
      </trkpt>
      <trkpt lat="42.588561996817589" lon="-6.686211973428726">
        <ele>511</ele>
        <time>2018-05-22T08:34:08Z</time>
      </trkpt>
      <trkpt lat="42.588506005704403" lon="-6.685934029519558">
        <ele>513</ele>
        <time>2018-05-22T08:34:15Z</time>
      </trkpt>
      <trkpt lat="42.588444985449314" lon="-6.68561602011323">
        <ele>513</ele>
        <time>2018-05-22T08:34:22Z</time>
      </trkpt>
      <trkpt lat="42.588401986286044" lon="-6.685385014861822">
        <ele>513</ele>
        <time>2018-05-22T08:34:27Z</time>
      </trkpt>
      <trkpt lat="42.588367033749819" lon="-6.685192985460162">
        <ele>517</ele>
        <time>2018-05-22T08:34:31Z</time>
      </trkpt>
      <trkpt lat="42.588349012658" lon="-6.685158032923937">
        <ele>517</ele>
        <time>2018-05-22T08:34:32Z</time>
      </trkpt>
      <trkpt lat="42.588325040414929" lon="-6.685095001012087">
        <ele>517</ele>
        <time>2018-05-22T08:34:34Z</time>
      </trkpt>
      <trkpt lat="42.588313976302743" lon="-6.685044961050153">
        <ele>517</ele>
        <time>2018-05-22T08:34:35Z</time>
      </trkpt>
      <trkpt lat="42.588310036808252" lon="-6.684987964108586">
        <ele>517</ele>
        <time>2018-05-22T08:34:36Z</time>
      </trkpt>
      <trkpt lat="42.588299978524446" lon="-6.684929961338639">
        <ele>517</ele>
        <time>2018-05-22T08:34:37Z</time>
      </trkpt>
      <trkpt lat="42.588291009888053" lon="-6.684878999367356">
        <ele>517</ele>
        <time>2018-05-22T08:34:39Z</time>
      </trkpt>
      <trkpt lat="42.588291009888053" lon="-6.684827031567693">
        <ele>517</ele>
        <time>2018-05-22T08:34:40Z</time>
      </trkpt>
      <trkpt lat="42.588282041251659" lon="-6.684774979948998">
        <ele>517</ele>
        <time>2018-05-22T08:34:41Z</time>
      </trkpt>
      <trkpt lat="42.588282041251659" lon="-6.684724017977715">
        <ele>517</ele>
        <time>2018-05-22T08:34:42Z</time>
      </trkpt>
      <trkpt lat="42.588282041251659" lon="-6.684671966359019">
        <ele>517</ele>
        <time>2018-05-22T08:34:43Z</time>
      </trkpt>
      <trkpt lat="42.588282041251659" lon="-6.684609018266201">
        <ele>517</ele>
        <time>2018-05-22T08:34:45Z</time>
      </trkpt>
      <trkpt lat="42.588282041251659" lon="-6.684540035203099">
        <ele>517</ele>
        <time>2018-05-22T08:34:46Z</time>
      </trkpt>
      <trkpt lat="42.588282041251659" lon="-6.684482032433152">
        <ele>517</ele>
        <time>2018-05-22T08:34:47Z</time>
      </trkpt>
      <trkpt lat="42.588282041251659" lon="-6.684408020228148">
        <ele>518</ele>
        <time>2018-05-22T08:34:49Z</time>
      </trkpt>
      <trkpt lat="42.588282041251659" lon="-6.684339037165046">
        <ele>518</ele>
        <time>2018-05-22T08:34:50Z</time>
      </trkpt>
      <trkpt lat="42.588282041251659" lon="-6.684281034395099">
        <ele>518</ele>
        <time>2018-05-22T08:34:52Z</time>
      </trkpt>
      <trkpt lat="42.588282041251659" lon="-6.684211967512965">
        <ele>518</ele>
        <time>2018-05-22T08:34:53Z</time>
      </trkpt>
      <trkpt lat="42.588282041251659" lon="-6.684149019420147">
        <ele>518</ele>
        <time>2018-05-22T08:34:55Z</time>
      </trkpt>
      <trkpt lat="42.588282041251659" lon="-6.684096967801452">
        <ele>518</ele>
        <time>2018-05-22T08:34:56Z</time>
      </trkpt>
      <trkpt lat="42.588282041251659" lon="-6.684034019708633">
        <ele>518</ele>
        <time>2018-05-22T08:34:57Z</time>
      </trkpt>
      <trkpt lat="42.588282041251659" lon="-6.683982973918319">
        <ele>518</ele>
        <time>2018-05-22T08:34:58Z</time>
      </trkpt>
      <trkpt lat="42.588282041251659" lon="-6.683924971148372">
        <ele>518</ele>
        <time>2018-05-22T08:34:59Z</time>
      </trkpt>
      <trkpt lat="42.588282041251659" lon="-6.683867974206805">
        <ele>518</ele>
        <time>2018-05-22T08:35:01Z</time>
      </trkpt>
      <trkpt lat="42.588282041251659" lon="-6.683816006407142">
        <ele>518</ele>
        <time>2018-05-22T08:35:02Z</time>
      </trkpt>
      <trkpt lat="42.588282041251659" lon="-6.683740988373756">
        <ele>518</ele>
        <time>2018-05-22T08:35:03Z</time>
      </trkpt>
      <trkpt lat="42.588282041251659" lon="-6.683678040280938">
        <ele>518</ele>
        <time>2018-05-22T08:35:05Z</time>
      </trkpt>
      <trkpt lat="42.588282041251659" lon="-6.68362095952034">
        <ele>520</ele>
        <time>2018-05-22T08:35:06Z</time>
      </trkpt>
      <trkpt lat="42.588277012109756" lon="-6.683531021699309">
        <ele>520</ele>
        <time>2018-05-22T08:35:08Z</time>
      </trkpt>
      <trkpt lat="42.588267959654331" lon="-6.683473018929362">
        <ele>520</ele>
        <time>2018-05-22T08:35:09Z</time>
      </trkpt>
      <trkpt lat="42.588257985189557" lon="-6.683414010331035">
        <ele>520</ele>
        <time>2018-05-22T08:35:11Z</time>
      </trkpt>
      <trkpt lat="42.588238036260009" lon="-6.683347038924694">
        <ele>520</ele>
        <time>2018-05-22T08:35:12Z</time>
      </trkpt>
      <trkpt lat="42.588214986026287" lon="-6.683289036154747">
        <ele>520</ele>
        <time>2018-05-22T08:35:14Z</time>
      </trkpt>
      <trkpt lat="42.588200988247991" lon="-6.683226004242897">
        <ele>520</ele>
        <time>2018-05-22T08:35:15Z</time>
      </trkpt>
      <trkpt lat="42.588181961327791" lon="-6.683172024786472">
        <ele>520</ele>
        <time>2018-05-22T08:35:16Z</time>
      </trkpt>
      <trkpt lat="42.588158994913101" lon="-6.683108992874622">
        <ele>520</ele>
        <time>2018-05-22T08:35:18Z</time>
      </trkpt>
      <trkpt lat="42.588139967992902" lon="-6.683051995933056">
        <ele>520</ele>
        <time>2018-05-22T08:35:19Z</time>
      </trkpt>
      <trkpt lat="42.588117001578212" lon="-6.683000028133392">
        <ele>520</ele>
        <time>2018-05-22T08:35:21Z</time>
      </trkpt>
      <trkpt lat="42.588097974658012" lon="-6.682947976514697">
        <ele>520</ele>
        <time>2018-05-22T08:35:22Z</time>
      </trkpt>
      <trkpt lat="42.588080037385225" lon="-6.682901959866285">
        <ele>520</ele>
        <time>2018-05-22T08:35:23Z</time>
      </trkpt>
      <trkpt lat="42.588055981323123" lon="-6.682850997895002">
        <ele>520</ele>
        <time>2018-05-22T08:35:24Z</time>
      </trkpt>
      <trkpt lat="42.58802798576653" lon="-6.682804981246591">
        <ele>526</ele>
        <time>2018-05-22T08:35:26Z</time>
      </trkpt>
      <trkpt lat="42.587999990209937" lon="-6.682735998183489">
        <ele>526</ele>
        <time>2018-05-22T08:35:27Z</time>
      </trkpt>
      <trkpt lat="42.587971994653344" lon="-6.682667015120387">
        <ele>526</ele>
        <time>2018-05-22T08:35:29Z</time>
      </trkpt>
      <trkpt lat="42.587949028238654" lon="-6.68260901235044">
        <ele>526</ele>
        <time>2018-05-22T08:35:30Z</time>
      </trkpt>
      <trkpt lat="42.587931007146835" lon="-6.682569030672312">
        <ele>517</ele>
        <time>2018-05-22T08:35:31Z</time>
      </trkpt>
      <trkpt lat="42.587907034903765" lon="-6.6825230140239">
        <ele>517</ele>
        <time>2018-05-22T08:35:33Z</time>
      </trkpt>
      <trkpt lat="42.587893037125468" lon="-6.682476997375488">
        <ele>517</ele>
        <time>2018-05-22T08:35:34Z</time>
      </trkpt>
      <trkpt lat="42.587865041568875" lon="-6.682430980727077">
        <ele>517</ele>
        <time>2018-05-22T08:35:35Z</time>
      </trkpt>
      <trkpt lat="42.587836962193251" lon="-6.682384964078665">
        <ele>517</ele>
        <time>2018-05-22T08:35:36Z</time>
      </trkpt>
      <trkpt lat="42.587805027142167" lon="-6.682334002107382">
        <ele>517</ele>
        <time>2018-05-22T08:35:38Z</time>
      </trkpt>
      <trkpt lat="42.587791029363871" lon="-6.682282034307718">
        <ele>517</ele>
        <time>2018-05-22T08:35:39Z</time>
      </trkpt>
      <trkpt lat="42.587763033807278" lon="-6.682225037366152">
        <ele>517</ele>
        <time>2018-05-22T08:35:41Z</time>
      </trkpt>
      <trkpt lat="42.587749036028981" lon="-6.682172985747457">
        <ele>517</ele>
        <time>2018-05-22T08:35:42Z</time>
      </trkpt>
      <trkpt lat="42.587721040472388" lon="-6.682121017947793">
        <ele>517</ele>
        <time>2018-05-22T08:35:43Z</time>
      </trkpt>
      <trkpt lat="42.587682986631989" lon="-6.682064021006227">
        <ele>518</ele>
        <time>2018-05-22T08:35:45Z</time>
      </trkpt>
      <trkpt lat="42.587639987468719" lon="-6.682018004357815">
        <ele>517</ele>
        <time>2018-05-22T08:35:46Z</time>
      </trkpt>
      <trkpt lat="42.587525993585587" lon="-6.681890012696385">
        <ele>523</ele>
        <time>2018-05-22T08:35:51Z</time>
      </trkpt>
      <trkpt lat="42.587447036057711" lon="-6.681778030470014">
        <ele>523</ele>
        <time>2018-05-22T08:35:54Z</time>
      </trkpt>
      <trkpt lat="42.587332036346197" lon="-6.681631011888385">
        <ele>523</ele>
        <time>2018-05-22T08:35:59Z</time>
      </trkpt>
      <trkpt lat="42.587227011099458" lon="-6.681412998586893">
        <ele>523</ele>
        <time>2018-05-22T08:36:05Z</time>
      </trkpt>
      <trkpt lat="42.587227011099458" lon="-6.68140503577888">
        <ele>523</ele>
        <time>2018-05-22T08:36:05Z</time>
      </trkpt>
      <trkpt lat="42.58712500333786" lon="-6.681161960586906">
        <ele>530</ele>
        <time>2018-05-22T08:36:11Z</time>
      </trkpt>
      <trkpt lat="42.587065994739532" lon="-6.681036986410618">
        <ele>518</ele>
        <time>2018-05-22T08:36:14Z</time>
      </trkpt>
      <trkpt lat="42.587051996961236" lon="-6.681008990854025">
        <ele>518</ele>
        <time>2018-05-22T08:36:15Z</time>
      </trkpt>
      <trkpt lat="42.587028024718165" lon="-6.680960962548852">
        <ele>518</ele>
        <time>2018-05-22T08:36:16Z</time>
      </trkpt>
      <trkpt lat="42.587010003626347" lon="-6.680901031941176">
        <ele>518</ele>
        <time>2018-05-22T08:36:17Z</time>
      </trkpt>
      <trkpt lat="42.58699600584805" lon="-6.680855015292764">
        <ele>518</ele>
        <time>2018-05-22T08:36:19Z</time>
      </trkpt>
      <trkpt lat="42.58697203360498" lon="-6.680798018351197">
        <ele>518</ele>
        <time>2018-05-22T08:36:20Z</time>
      </trkpt>
      <trkpt lat="42.586968010291457" lon="-6.680734986439347">
        <ele>518</ele>
        <time>2018-05-22T08:36:21Z</time>
      </trkpt>
      <trkpt lat="42.586958035826683" lon="-6.680669020861387">
        <ele>518</ele>
        <time>2018-05-22T08:36:23Z</time>
      </trkpt>
      <trkpt lat="42.586958035826683" lon="-6.680617975071073">
        <ele>518</ele>
        <time>2018-05-22T08:36:24Z</time>
      </trkpt>
      <trkpt lat="42.586958035826683" lon="-6.680559972301126">
        <ele>518</ele>
        <time>2018-05-22T08:36:25Z</time>
      </trkpt>
      <trkpt lat="42.586958035826683" lon="-6.680509010329843">
        <ele>518</ele>
        <time>2018-05-22T08:36:26Z</time>
      </trkpt>
      <trkpt lat="42.586958035826683" lon="-6.680440027266741">
        <ele>518</ele>
        <time>2018-05-22T08:36:28Z</time>
      </trkpt>
      <trkpt lat="42.586958035826683" lon="-6.680387975648046">
        <ele>518</ele>
        <time>2018-05-22T08:36:29Z</time>
      </trkpt>
      <trkpt lat="42.586962981149554" lon="-6.680325027555227">
        <ele>517</ele>
        <time>2018-05-22T08:36:30Z</time>
      </trkpt>
      <trkpt lat="42.58697203360498" lon="-6.680255960673094">
        <ele>517</ele>
        <time>2018-05-22T08:36:32Z</time>
      </trkpt>
      <trkpt lat="42.586982008069754" lon="-6.680198041722179">
        <ele>517</ele>
        <time>2018-05-22T08:36:33Z</time>
      </trkpt>
      <trkpt lat="42.586986031383276" lon="-6.68014096096158">
        <ele>517</ele>
        <time>2018-05-22T08:36:34Z</time>
      </trkpt>
      <trkpt lat="42.587010003626347" lon="-6.680078012868762">
        <ele>517</ele>
        <time>2018-05-22T08:36:36Z</time>
      </trkpt>
      <trkpt lat="42.587032970041037" lon="-6.68003199622035">
        <ele>517</ele>
        <time>2018-05-22T08:36:37Z</time>
      </trkpt>
      <trkpt lat="42.587051996961236" lon="-6.6799689643085">
        <ele>517</ele>
        <time>2018-05-22T08:36:39Z</time>
      </trkpt>
      <trkpt lat="42.587079992517829" lon="-6.67992303147912">
        <ele>517</ele>
        <time>2018-05-22T08:36:40Z</time>
      </trkpt>
      <trkpt lat="42.587106982246041" lon="-6.679865028709173">
        <ele>517</ele>
        <time>2018-05-22T08:36:41Z</time>
      </trkpt>
      <trkpt lat="42.587126009166241" lon="-6.679819012060762">
        <ele>529</ele>
        <time>2018-05-22T08:36:43Z</time>
      </trkpt>
      <trkpt lat="42.587148975580931" lon="-6.679767966270447">
        <ele>529</ele>
        <time>2018-05-22T08:36:44Z</time>
      </trkpt>
      <trkpt lat="42.587173031643033" lon="-6.679715998470783">
        <ele>529</ele>
        <time>2018-05-22T08:36:45Z</time>
      </trkpt>
      <trkpt lat="42.587195998057723" lon="-6.679676016792655">
        <ele>529</ele>
        <time>2018-05-22T08:36:46Z</time>
      </trkpt>
      <trkpt lat="42.587218964472413" lon="-6.679630000144243">
        <ele>529</ele>
        <time>2018-05-22T08:36:47Z</time>
      </trkpt>
      <trkpt lat="42.587243020534515" lon="-6.679566968232393">
        <ele>529</ele>
        <time>2018-05-22T08:36:49Z</time>
      </trkpt>
      <trkpt lat="42.587271016091108" lon="-6.67951500043273">
        <ele>517</ele>
        <time>2018-05-22T08:36:50Z</time>
      </trkpt>
      <trkpt lat="42.587289037182927" lon="-6.679458003491163">
        <ele>517</ele>
        <time>2018-05-22T08:36:52Z</time>
      </trkpt>
      <trkpt lat="42.587299011647701" lon="-6.6794060356915">
        <ele>517</ele>
        <time>2018-05-22T08:36:53Z</time>
      </trkpt>
      <trkpt lat="42.587313009425998" lon="-6.679353984072805">
        <ele>517</ele>
        <time>2018-05-22T08:36:54Z</time>
      </trkpt>
      <trkpt lat="42.587327007204294" lon="-6.679314002394676">
        <ele>517</ele>
        <time>2018-05-22T08:36:55Z</time>
      </trkpt>
      <trkpt lat="42.587331030517817" lon="-6.679254993796349">
        <ele>517</ele>
        <time>2018-05-22T08:36:56Z</time>
      </trkpt>
      <trkpt lat="42.587335975840688" lon="-6.679203025996685">
        <ele>517</ele>
        <time>2018-05-22T08:36:58Z</time>
      </trkpt>
      <trkpt lat="42.587335975840688" lon="-6.679093977436423">
        <ele>517</ele>
        <time>2018-05-22T08:37:00Z</time>
      </trkpt>
      <trkpt lat="42.587331030517817" lon="-6.679024994373322">
        <ele>517</ele>
        <time>2018-05-22T08:37:01Z</time>
      </trkpt>
      <trkpt lat="42.587316026911139" lon="-6.678960034623742">
        <ele>517</ele>
        <time>2018-05-22T08:37:03Z</time>
      </trkpt>
      <trkpt lat="42.58729699999094" lon="-6.67891401797533">
        <ele>517</ele>
        <time>2018-05-22T08:37:04Z</time>
      </trkpt>
      <trkpt lat="42.587280990555882" lon="-6.67887001298368">
        <ele>517</ele>
        <time>2018-05-22T08:37:05Z</time>
      </trkpt>
      <trkpt lat="42.587261041626334" lon="-6.678834976628423">
        <ele>517</ele>
        <time>2018-05-22T08:37:06Z</time>
      </trkpt>
      <trkpt lat="42.58723296225071" lon="-6.678805975243449">
        <ele>517</ele>
        <time>2018-05-22T08:37:07Z</time>
      </trkpt>
      <trkpt lat="42.587199015542865" lon="-6.678772028535605">
        <ele>517</ele>
        <time>2018-05-22T08:37:08Z</time>
      </trkpt>
      <trkpt lat="42.587099019438028" lon="-6.678663985803723">
        <ele>515</ele>
        <time>2018-05-22T08:37:12Z</time>
      </trkpt>
      <trkpt lat="42.586947977542877" lon="-6.678489977493882">
        <ele>515</ele>
        <time>2018-05-22T08:37:18Z</time>
      </trkpt>
      <trkpt lat="42.586569031700492" lon="-6.678083036094904">
        <ele>515</ele>
        <time>2018-05-22T08:37:32Z</time>
      </trkpt>
      <trkpt lat="42.586337020620704" lon="-6.677761003375053">
        <ele>511</ele>
        <time>2018-05-22T08:37:42Z</time>
      </trkpt>
      <trkpt lat="42.586161000654101" lon="-6.677502002567053">
        <ele>513</ele>
        <time>2018-05-22T08:37:50Z</time>
      </trkpt>
      <trkpt lat="42.586138034239411" lon="-6.67747400701046">
        <ele>513</ele>
        <time>2018-05-22T08:37:51Z</time>
      </trkpt>
      <trkpt lat="42.586096040904522" lon="-6.677438970655203">
        <ele>513</ele>
        <time>2018-05-22T08:37:52Z</time>
      </trkpt>
      <trkpt lat="42.586053963750601" lon="-6.677405023947358">
        <ele>513</ele>
        <time>2018-05-22T08:37:54Z</time>
      </trkpt>
      <trkpt lat="42.58600995875895" lon="-6.677364036440849">
        <ele>513</ele>
        <time>2018-05-22T08:37:55Z</time>
      </trkpt>
      <trkpt lat="42.58587802760303" lon="-6.677266974002123">
        <ele>513</ele>
        <time>2018-05-22T08:38:00Z</time>
      </trkpt>
      <trkpt lat="42.585735032334924" lon="-6.677144011482596">
        <ele>513</ele>
        <time>2018-05-22T08:38:05Z</time>
      </trkpt>
      <trkpt lat="42.585501009598374" lon="-6.676912000402808">
        <ele>506</ele>
        <time>2018-05-22T08:38:13Z</time>
      </trkpt>
      <trkpt lat="42.58521200157702" lon="-6.676580999046564">
        <ele>506</ele>
        <time>2018-05-22T08:38:25Z</time>
      </trkpt>
      <trkpt lat="42.584957024082541" lon="-6.676298025995493">
        <ele>506</ele>
        <time>2018-05-22T08:38:34Z</time>
      </trkpt>
      <trkpt lat="42.584713026881218" lon="-6.67607800103724">
        <ele>499</ele>
        <time>2018-05-22T08:38:43Z</time>
      </trkpt>
      <trkpt lat="42.584551004692912" lon="-6.675933999940753">
        <ele>497</ele>
        <time>2018-05-22T08:38:49Z</time>
      </trkpt>
      <trkpt lat="42.584317987784743" lon="-6.675699977204204">
        <ele>497</ele>
        <time>2018-05-22T08:38:57Z</time>
      </trkpt>
      <trkpt lat="42.584200976416469" lon="-6.675509037449956">
        <ele>497</ele>
        <time>2018-05-22T08:39:03Z</time>
      </trkpt>
      <trkpt lat="42.584108021110296" lon="-6.675405018031597">
        <ele>497</ele>
        <time>2018-05-22T08:39:06Z</time>
      </trkpt>
      <trkpt lat="42.584094023332" lon="-6.675399988889694">
        <ele>497</ele>
        <time>2018-05-22T08:39:07Z</time>
      </trkpt>
      <trkpt lat="42.583994027227163" lon="-6.675288006663322">
        <ele>494</ele>
        <time>2018-05-22T08:39:11Z</time>
      </trkpt>
      <trkpt lat="42.583865029737353" lon="-6.675125984475017">
        <ele>494</ele>
        <time>2018-05-22T08:39:16Z</time>
      </trkpt>
      <trkpt lat="42.583712982013822" lon="-6.674986006692052">
        <ele>495</ele>
        <time>2018-05-22T08:39:21Z</time>
      </trkpt>
      <trkpt lat="42.583670988678932" lon="-6.674986006692052">
        <ele>495</ele>
        <time>2018-05-22T08:39:23Z</time>
      </trkpt>
      <trkpt lat="42.583628995344043" lon="-6.674986006692052">
        <ele>495</ele>
        <time>2018-05-22T08:39:24Z</time>
      </trkpt>
      <trkpt lat="42.58358197286725" lon="-6.674986006692052">
        <ele>495</ele>
        <time>2018-05-22T08:39:25Z</time>
      </trkpt>
      <trkpt lat="42.583545008674264" lon="-6.674974020570517">
        <ele>495</ele>
        <time>2018-05-22T08:39:26Z</time>
      </trkpt>
      <trkpt lat="42.583503015339375" lon="-6.674963040277362">
        <ele>495</ele>
        <time>2018-05-22T08:39:28Z</time>
      </trkpt>
      <trkpt lat="42.583461022004485" lon="-6.674950970336795">
        <ele>495</ele>
        <time>2018-05-22T08:39:29Z</time>
      </trkpt>
      <trkpt lat="42.583433026447892" lon="-6.674928003922105">
        <ele>495</ele>
        <time>2018-05-22T08:39:30Z</time>
      </trkpt>
      <trkpt lat="42.583405030891299" lon="-6.674888022243977">
        <ele>495</ele>
        <time>2018-05-22T08:39:31Z</time>
      </trkpt>
      <trkpt lat="42.583381980657578" lon="-6.674842005595565">
        <ele>495</ele>
        <time>2018-05-22T08:39:32Z</time>
      </trkpt>
      <trkpt lat="42.583347028121352" lon="-6.674814010038972">
        <ele>495</ele>
        <time>2018-05-22T08:39:33Z</time>
      </trkpt>
      <trkpt lat="42.58332397788763" lon="-6.674776962026954">
        <ele>495</ele>
        <time>2018-05-22T08:39:34Z</time>
      </trkpt>
      <trkpt lat="42.58330101147294" lon="-6.674736980348826">
        <ele>495</ele>
        <time>2018-05-22T08:39:36Z</time>
      </trkpt>
      <trkpt lat="42.583287013694644" lon="-6.674696998670697">
        <ele>495</ele>
        <time>2018-05-22T08:39:37Z</time>
      </trkpt>
      <trkpt lat="42.58327703922987" lon="-6.674645030871034">
        <ele>495</ele>
        <time>2018-05-22T08:39:38Z</time>
      </trkpt>
      <trkpt lat="42.583262035623193" lon="-6.674577975645661">
        <ele>495</ele>
        <time>2018-05-22T08:39:39Z</time>
      </trkpt>
      <trkpt lat="42.583251977339387" lon="-6.67450899258256">
        <ele>495</ele>
        <time>2018-05-22T08:39:41Z</time>
      </trkpt>
      <trkpt lat="42.583243008702993" lon="-6.67444596067071">
        <ele>494</ele>
        <time>2018-05-22T08:39:42Z</time>
      </trkpt>
      <trkpt lat="42.583243008702993" lon="-6.674391981214285">
        <ele>494</ele>
        <time>2018-05-22T08:39:43Z</time>
      </trkpt>
      <trkpt lat="42.583133038133383" lon="-6.674267007037997">
        <ele>494</ele>
        <time>2018-05-22T08:39:48Z</time>
      </trkpt>
      <trkpt lat="42.582950983196497" lon="-6.674062991514802">
        <ele>494</ele>
        <time>2018-05-22T08:39:55Z</time>
      </trkpt>
      <trkpt lat="42.582786027342081" lon="-6.673879008740187">
        <ele>493</ele>
        <time>2018-05-22T08:40:01Z</time>
      </trkpt>
      <trkpt lat="42.582646971568465" lon="-6.6737159807235">
        <ele>493</ele>
        <time>2018-05-22T08:40:06Z</time>
      </trkpt>
      <trkpt lat="42.582423007115722" lon="-6.673464020714164">
        <ele>494</ele>
        <time>2018-05-22T08:40:15Z</time>
      </trkpt>
      <trkpt lat="42.582121007144451" lon="-6.673191022127867">
        <ele>492</ele>
        <time>2018-05-22T08:40:26Z</time>
      </trkpt>
      <trkpt lat="42.581894025206566" lon="-6.672948030754924">
        <ele>492</ele>
        <time>2018-05-22T08:40:34Z</time>
      </trkpt>
      <trkpt lat="42.581718005239964" lon="-6.672759018838406">
        <ele>492</ele>
        <time>2018-05-22T08:40:41Z</time>
      </trkpt>
      <trkpt lat="42.581477025523782" lon="-6.672515021637082">
        <ele>492</ele>
        <time>2018-05-22T08:40:50Z</time>
      </trkpt>
      <trkpt lat="42.581214001402259" lon="-6.672245040535927">
        <ele>491</ele>
        <time>2018-05-22T08:40:59Z</time>
      </trkpt>
      <trkpt lat="42.581080980598927" lon="-6.672032978385687">
        <ele>491</ele>
        <time>2018-05-22T08:41:05Z</time>
      </trkpt>
      <trkpt lat="42.580978972837329" lon="-6.671819994226098">
        <ele>492</ele>
        <time>2018-05-22T08:41:11Z</time>
      </trkpt>
      <trkpt lat="42.580898003652692" lon="-6.671685967594385">
        <ele>492</ele>
        <time>2018-05-22T08:41:15Z</time>
      </trkpt>
      <trkpt lat="42.580770011991262" lon="-6.671374998986721">
        <ele>492</ele>
        <time>2018-05-22T08:41:23Z</time>
      </trkpt>
      <trkpt lat="42.580687031149864" lon="-6.671211970970035">
        <ele>492</ele>
        <time>2018-05-22T08:41:27Z</time>
      </trkpt>
      <trkpt lat="42.580599021166563" lon="-6.670979037880898">
        <ele>490</ele>
        <time>2018-05-22T08:41:33Z</time>
      </trkpt>
      <trkpt lat="42.58048402145505" lon="-6.670692963525653">
        <ele>490</ele>
        <time>2018-05-22T08:41:40Z</time>
      </trkpt>
      <trkpt lat="42.580419983714819" lon="-6.670505041256547">
        <ele>492</ele>
        <time>2018-05-22T08:41:44Z</time>
      </trkpt>
      <trkpt lat="42.58035602979362" lon="-6.670351987704635">
        <ele>492</ele>
        <time>2018-05-22T08:41:48Z</time>
      </trkpt>
      <trkpt lat="42.580246981233358" lon="-6.670209998264909">
        <ele>492</ele>
        <time>2018-05-22T08:41:52Z</time>
      </trkpt>
      <trkpt lat="42.580148996785283" lon="-6.669944040477276">
        <ele>492</ele>
        <time>2018-05-22T08:41:59Z</time>
      </trkpt>
      <trkpt lat="42.580058975145221" lon="-6.669752011075616">
        <ele>492</ele>
        <time>2018-05-22T08:42:04Z</time>
      </trkpt>
      <trkpt lat="42.579960990697145" lon="-6.669538021087647">
        <ele>489</ele>
        <time>2018-05-22T08:42:09Z</time>
      </trkpt>
      <trkpt lat="42.579892007634044" lon="-6.669355966150761">
        <ele>489</ele>
        <time>2018-05-22T08:42:14Z</time>
      </trkpt>
      <trkpt lat="42.579805003479123" lon="-6.669167960062623">
        <ele>489</ele>
        <time>2018-05-22T08:42:19Z</time>
      </trkpt>
      <trkpt lat="42.57979603484273" lon="-6.669144993647933">
        <ele>489</ele>
        <time>2018-05-22T08:42:19Z</time>
      </trkpt>
      <trkpt lat="42.579771978780627" lon="-6.669098976999521">
        <ele>489</ele>
        <time>2018-05-22T08:42:20Z</time>
      </trkpt>
      <trkpt lat="42.579749012365937" lon="-6.66905296035111">
        <ele>489</ele>
        <time>2018-05-22T08:42:22Z</time>
      </trkpt>
      <trkpt lat="42.579721016809344" lon="-6.669019013643265">
        <ele>489</ele>
        <time>2018-05-22T08:42:23Z</time>
      </trkpt>
      <trkpt lat="42.579697966575623" lon="-6.668978026136756">
        <ele>489</ele>
        <time>2018-05-22T08:42:24Z</time>
      </trkpt>
      <trkpt lat="42.57966997101903" lon="-6.668932009488344">
        <ele>489</ele>
        <time>2018-05-22T08:42:25Z</time>
      </trkpt>
      <trkpt lat="42.579655973240733" lon="-6.668885992839932">
        <ele>489</ele>
        <time>2018-05-22T08:42:26Z</time>
      </trkpt>
      <trkpt lat="42.579641975462437" lon="-6.66883503086865">
        <ele>489</ele>
        <time>2018-05-22T08:42:27Z</time>
      </trkpt>
      <trkpt lat="42.579623032361269" lon="-6.668789014220238">
        <ele>489</ele>
        <time>2018-05-22T08:42:29Z</time>
      </trkpt>
      <trkpt lat="42.579609034582973" lon="-6.66872899979353">
        <ele>489</ele>
        <time>2018-05-22T08:42:30Z</time>
      </trkpt>
      <trkpt lat="42.579599982127547" lon="-6.668674014508724">
        <ele>488</ele>
        <time>2018-05-22T08:42:31Z</time>
      </trkpt>
      <trkpt lat="42.579547008499503" lon="-6.668538982048631">
        <ele>492</ele>
        <time>2018-05-22T08:42:35Z</time>
      </trkpt>
      <trkpt lat="42.579492023214698" lon="-6.66838601231575">
        <ele>492</ele>
        <time>2018-05-22T08:42:38Z</time>
      </trkpt>
      <trkpt lat="42.579399989917874" lon="-6.66823698207736">
        <ele>492</ele>
        <time>2018-05-22T08:42:42Z</time>
      </trkpt>
      <trkpt lat="42.579299993813038" lon="-6.667992984876037">
        <ele>492</ele>
        <time>2018-05-22T08:42:49Z</time>
      </trkpt>
      <trkpt lat="42.579223969951272" lon="-6.667831968516111">
        <ele>491</ele>
        <time>2018-05-22T08:42:53Z</time>
      </trkpt>
      <trkpt lat="42.579125985503197" lon="-6.667618984356523">
        <ele>491</ele>
        <time>2018-05-22T08:42:58Z</time>
      </trkpt>
      <trkpt lat="42.5791119877249" lon="-6.667585037648678">
        <ele>491</ele>
        <time>2018-05-22T08:42:59Z</time>
      </trkpt>
      <trkpt lat="42.57908902131021" lon="-6.667522005736828">
        <ele>491</ele>
        <time>2018-05-22T08:43:01Z</time>
      </trkpt>
      <trkpt lat="42.579069994390011" lon="-6.667470037937164">
        <ele>491</ele>
        <time>2018-05-22T08:43:02Z</time>
      </trkpt>
      <trkpt lat="42.579047027975321" lon="-6.667417986318469">
        <ele>491</ele>
        <time>2018-05-22T08:43:03Z</time>
      </trkpt>
      <trkpt lat="42.579028001055121" lon="-6.667331987991929">
        <ele>491</ele>
        <time>2018-05-22T08:43:05Z</time>
      </trkpt>
      <trkpt lat="42.579019032418728" lon="-6.667280020192266">
        <ele>491</ele>
        <time>2018-05-22T08:43:06Z</time>
      </trkpt>
      <trkpt lat="42.579009979963303" lon="-6.667223023250699">
        <ele>491</ele>
        <time>2018-05-22T08:43:08Z</time>
      </trkpt>
      <trkpt lat="42.57898198440671" lon="-6.667159991338849">
        <ele>491</ele>
        <time>2018-05-22T08:43:09Z</time>
      </trkpt>
      <trkpt lat="42.578963041305542" lon="-6.667120009660721">
        <ele>491</ele>
        <time>2018-05-22T08:43:10Z</time>
      </trkpt>
      <trkpt lat="42.578934961929917" lon="-6.667084973305464">
        <ele>491</ele>
        <time>2018-05-22T08:43:11Z</time>
      </trkpt>
      <trkpt lat="42.578903026878834" lon="-6.667051026597619">
        <ele>494</ele>
        <time>2018-05-22T08:43:12Z</time>
      </trkpt>
      <trkpt lat="42.578875031322241" lon="-6.66701003909111">
        <ele>494</ele>
        <time>2018-05-22T08:43:14Z</time>
      </trkpt>
      <trkpt lat="42.578833037987351" lon="-6.66701003909111">
        <ele>494</ele>
        <time>2018-05-22T08:43:15Z</time>
      </trkpt>
      <trkpt lat="42.578793978318572" lon="-6.666998974978924">
        <ele>494</ele>
        <time>2018-05-22T08:43:16Z</time>
      </trkpt>
      <trkpt lat="42.578756008297205" lon="-6.666986988857389">
        <ele>492</ele>
        <time>2018-05-22T08:43:17Z</time>
      </trkpt>
      <trkpt lat="42.57870496250689" lon="-6.66696997359395">
        <ele>492</ele>
        <time>2018-05-22T08:43:19Z</time>
      </trkpt>
      <trkpt lat="42.578655006363988" lon="-6.666958993300796">
        <ele>492</ele>
        <time>2018-05-22T08:43:20Z</time>
      </trkpt>
      <trkpt lat="42.578585017472506" lon="-6.666848016902804">
        <ele>492</ele>
        <time>2018-05-22T08:43:24Z</time>
      </trkpt>
      <trkpt lat="42.578578982502222" lon="-6.666848016902804">
        <ele>492</ele>
        <time>2018-05-22T08:43:24Z</time>
      </trkpt>
      <trkpt lat="42.57846700027585" lon="-6.666631009429693">
        <ele>492</ele>
        <time>2018-05-22T08:43:29Z</time>
      </trkpt>
      <trkpt lat="42.578310007229447" lon="-6.666417019441724">
        <ele>492</ele>
        <time>2018-05-22T08:43:36Z</time>
      </trkpt>
      <trkpt lat="42.57818603888154" lon="-6.666191965341568">
        <ele>492</ele>
        <time>2018-05-22T08:43:42Z</time>
      </trkpt>
      <trkpt lat="42.57805997505784" lon="-6.665923995897174">
        <ele>491</ele>
        <time>2018-05-22T08:43:49Z</time>
      </trkpt>
      <trkpt lat="42.577959978953004" lon="-6.665687961503863">
        <ele>491</ele>
        <time>2018-05-22T08:43:55Z</time>
      </trkpt>
      <trkpt lat="42.577956039458513" lon="-6.665671030059457">
        <ele>491</ele>
        <time>2018-05-22T08:43:55Z</time>
      </trkpt>
      <trkpt lat="42.577937012538314" lon="-6.66561403311789">
        <ele>492</ele>
        <time>2018-05-22T08:43:57Z</time>
      </trkpt>
      <trkpt lat="42.577917985618114" lon="-6.66555100120604">
        <ele>492</ele>
        <time>2018-05-22T08:43:58Z</time>
      </trkpt>
      <trkpt lat="42.577899964526296" lon="-6.665492998436093">
        <ele>492</ele>
        <time>2018-05-22T08:44:00Z</time>
      </trkpt>
      <trkpt lat="42.577889990061522" lon="-6.665436001494527">
        <ele>492</ele>
        <time>2018-05-22T08:44:01Z</time>
      </trkpt>
      <trkpt lat="42.577875992283225" lon="-6.665384033694863">
        <ele>492</ele>
        <time>2018-05-22T08:44:02Z</time>
      </trkpt>
      <trkpt lat="42.577857971191406" lon="-6.665331982076168">
        <ele>492</ele>
        <time>2018-05-22T08:44:03Z</time>
      </trkpt>
      <trkpt lat="42.577837016433477" lon="-6.665264004841447">
        <ele>492</ele>
        <time>2018-05-22T08:44:05Z</time>
      </trkpt>
      <trkpt lat="42.577756969258189" lon="-6.665124027058482">
        <ele>492</ele>
        <time>2018-05-22T08:44:09Z</time>
      </trkpt>
      <trkpt lat="42.577600982040167" lon="-6.66481900960207">
        <ele>492</ele>
        <time>2018-05-22T08:44:17Z</time>
      </trkpt>
      <trkpt lat="42.577471984550357" lon="-6.66443201713264">
        <ele>492</ele>
        <time>2018-05-22T08:44:26Z</time>
      </trkpt>
      <trkpt lat="42.577338963747025" lon="-6.664107972756028">
        <ele>492</ele>
        <time>2018-05-22T08:44:34Z</time>
      </trkpt>
      <trkpt lat="42.577208960428834" lon="-6.663707988336682">
        <ele>492</ele>
        <time>2018-05-22T08:44:44Z</time>
      </trkpt>
      <trkpt lat="42.577035035938025" lon="-6.663234997540712">
        <ele>495</ele>
        <time>2018-05-22T08:44:55Z</time>
      </trkpt>
      <trkpt lat="42.576881982386112" lon="-6.662780027836561">
        <ele>495</ele>
        <time>2018-05-22T08:45:06Z</time>
      </trkpt>
      <trkpt lat="42.576736975461245" lon="-6.66236998513341">
        <ele>495</ele>
        <time>2018-05-22T08:45:16Z</time>
      </trkpt>
      <trkpt lat="42.576547963544726" lon="-6.661933958530426">
        <ele>495</ele>
        <time>2018-05-22T08:45:27Z</time>
      </trkpt>
      <trkpt lat="42.576486021280289" lon="-6.661787023767829">
        <ele>495</ele>
        <time>2018-05-22T08:45:31Z</time>
      </trkpt>
      <trkpt lat="42.576470011845231" lon="-6.661751987412572">
        <ele>495</ele>
        <time>2018-05-22T08:45:32Z</time>
      </trkpt>
      <trkpt lat="42.576379990205169" lon="-6.661482006311417">
        <ele>495</ele>
        <time>2018-05-22T08:45:38Z</time>
      </trkpt>
      <trkpt lat="42.576273959130049" lon="-6.661247983574867">
        <ele>496</ele>
        <time>2018-05-22T08:45:44Z</time>
      </trkpt>
      <trkpt lat="42.576172035187483" lon="-6.661018989980221">
        <ele>498</ele>
        <time>2018-05-22T08:45:50Z</time>
      </trkpt>
      <trkpt lat="42.57610104046762" lon="-6.66084598749876">
        <ele>498</ele>
        <time>2018-05-22T08:45:54Z</time>
      </trkpt>
      <trkpt lat="42.576096011325717" lon="-6.660828972235322">
        <ele>498</ele>
        <time>2018-05-22T08:45:55Z</time>
      </trkpt>
      <trkpt lat="42.576077990233898" lon="-6.660783039405942">
        <ele>498</ele>
        <time>2018-05-22T08:45:56Z</time>
      </trkpt>
      <trkpt lat="42.576068015769124" lon="-6.660725036635995">
        <ele>498</ele>
        <time>2018-05-22T08:45:57Z</time>
      </trkpt>
      <trkpt lat="42.576077990233898" lon="-6.660668039694428">
        <ele>498</ele>
        <time>2018-05-22T08:45:58Z</time>
      </trkpt>
      <trkpt lat="42.576084025204182" lon="-6.66060701943934">
        <ele>498</ele>
        <time>2018-05-22T08:46:00Z</time>
      </trkpt>
      <trkpt lat="42.576112020760775" lon="-6.660423958674073">
        <ele>498</ele>
        <time>2018-05-22T08:46:04Z</time>
      </trkpt>
      <trkpt lat="42.576159965246916" lon="-6.66017702780664">
        <ele>498</ele>
        <time>2018-05-22T08:46:09Z</time>
      </trkpt>
      <trkpt lat="42.576169017702341" lon="-6.659977035596967">
        <ele>498</ele>
        <time>2018-05-22T08:46:14Z</time>
      </trkpt>
      <trkpt lat="42.576192989945412" lon="-6.659759022295475">
        <ele>498</ele>
        <time>2018-05-22T08:46:18Z</time>
      </trkpt>
      <trkpt lat="42.576229032129049" lon="-6.659509995952249">
        <ele>497</ele>
        <time>2018-05-22T08:46:24Z</time>
      </trkpt>
      <trkpt lat="42.576257027685642" lon="-6.659275973215699">
        <ele>497</ele>
        <time>2018-05-22T08:46:29Z</time>
      </trkpt>
      <trkpt lat="42.576285023242235" lon="-6.659023007377982">
        <ele>497</ele>
        <time>2018-05-22T08:46:35Z</time>
      </trkpt>
      <trkpt lat="42.576327016577125" lon="-6.658784039318562">
        <ele>501</ele>
        <time>2018-05-22T08:46:40Z</time>
      </trkpt>
      <trkpt lat="42.576370015740395" lon="-6.658554961904883">
        <ele>500</ele>
        <time>2018-05-22T08:46:45Z</time>
      </trkpt>
      <trkpt lat="42.576397005468607" lon="-6.658390006050468">
        <ele>500</ele>
        <time>2018-05-22T08:46:49Z</time>
      </trkpt>
      <trkpt lat="42.576397005468607" lon="-6.658372990787029">
        <ele>500</ele>
        <time>2018-05-22T08:46:49Z</time>
      </trkpt>
      <trkpt lat="42.576407985761762" lon="-6.658324962481856">
        <ele>500</ele>
        <time>2018-05-22T08:46:50Z</time>
      </trkpt>
      <trkpt lat="42.576421983540058" lon="-6.658279029652476">
        <ele>500</ele>
        <time>2018-05-22T08:46:51Z</time>
      </trkpt>
      <trkpt lat="42.576432963833213" lon="-6.658231001347303">
        <ele>500</ele>
        <time>2018-05-22T08:46:52Z</time>
      </trkpt>
      <trkpt lat="42.576450984925032" lon="-6.65817903354764">
        <ele>497</ele>
        <time>2018-05-22T08:46:54Z</time>
      </trkpt>
      <trkpt lat="42.576464982703328" lon="-6.658133016899228">
        <ele>500</ele>
        <time>2018-05-22T08:46:55Z</time>
      </trkpt>
      <trkpt lat="42.576484009623528" lon="-6.658079959452152">
        <ele>500</ele>
        <time>2018-05-22T08:46:56Z</time>
      </trkpt>
      <trkpt lat="42.576500019058585" lon="-6.658035032451153">
        <ele>500</ele>
        <time>2018-05-22T08:46:57Z</time>
      </trkpt>
      <trkpt lat="42.576518040150404" lon="-6.657989015802741">
        <ele>500</ele>
        <time>2018-05-22T08:46:58Z</time>
      </trkpt>
      <trkpt lat="42.576542012393475" lon="-6.657947022467852">
        <ele>500</ele>
        <time>2018-05-22T08:46:59Z</time>
      </trkpt>
      <trkpt lat="42.576565984636545" lon="-6.657912991940975">
        <ele>500</ele>
        <time>2018-05-22T08:47:01Z</time>
      </trkpt>
      <trkpt lat="42.576623987406492" lon="-6.657771002501249">
        <ele>497</ele>
        <time>2018-05-22T08:47:04Z</time>
      </trkpt>
      <trkpt lat="42.576681990176439" lon="-6.657661031931639">
        <ele>497</ele>
        <time>2018-05-22T08:47:07Z</time>
      </trkpt>
      <trkpt lat="42.576738987118006" lon="-6.657549971714616">
        <ele>497</ele>
        <time>2018-05-22T08:47:10Z</time>
      </trkpt>
      <trkpt lat="42.576758014038205" lon="-6.657508984208107">
        <ele>497</ele>
        <time>2018-05-22T08:47:11Z</time>
      </trkpt>
      <trkpt lat="42.576782992109656" lon="-6.657466990873218">
        <ele>497</ele>
        <time>2018-05-22T08:47:12Z</time>
      </trkpt>
      <trkpt lat="42.576805958524346" lon="-6.657415023073554">
        <ele>497</ele>
        <time>2018-05-22T08:47:13Z</time>
      </trkpt>
      <trkpt lat="42.576820040121675" lon="-6.657370012253523">
        <ele>497</ele>
        <time>2018-05-22T08:47:15Z</time>
      </trkpt>
      <trkpt lat="42.576829008758068" lon="-6.657323995605111">
        <ele>497</ele>
        <time>2018-05-22T08:47:16Z</time>
      </trkpt>
      <trkpt lat="42.576848035678267" lon="-6.657277978956699">
        <ele>497</ele>
        <time>2018-05-22T08:47:17Z</time>
      </trkpt>
      <trkpt lat="42.576857004314661" lon="-6.657226011157036">
        <ele>497</ele>
        <time>2018-05-22T08:47:18Z</time>
      </trkpt>
      <trkpt lat="42.57687603123486" lon="-6.657179994508624">
        <ele>497</ele>
        <time>2018-05-22T08:47:19Z</time>
      </trkpt>
      <trkpt lat="42.576890029013157" lon="-6.657133977860212">
        <ele>497</ele>
        <time>2018-05-22T08:47:20Z</time>
      </trkpt>
      <trkpt lat="42.576904026791453" lon="-6.657086033374071">
        <ele>497</ele>
        <time>2018-05-22T08:47:21Z</time>
      </trkpt>
      <trkpt lat="42.576912995427847" lon="-6.657031970098615">
        <ele>495</ele>
        <time>2018-05-22T08:47:22Z</time>
      </trkpt>
      <trkpt lat="42.57691802456975" lon="-6.656972961500287">
        <ele>495</ele>
        <time>2018-05-22T08:47:24Z</time>
      </trkpt>
      <trkpt lat="42.576926993206143" lon="-6.656903978437185">
        <ele>495</ele>
        <time>2018-05-22T08:47:25Z</time>
      </trkpt>
      <trkpt lat="42.57694099098444" lon="-6.656859973445535">
        <ele>495</ele>
        <time>2018-05-22T08:47:26Z</time>
      </trkpt>
      <trkpt lat="42.576946020126343" lon="-6.656801970675588">
        <ele>495</ele>
        <time>2018-05-22T08:47:28Z</time>
      </trkpt>
      <trkpt lat="42.576951971277595" lon="-6.656746985390782">
        <ele>495</ele>
        <time>2018-05-22T08:47:29Z</time>
      </trkpt>
      <trkpt lat="42.576963035389781" lon="-6.656586974859238">
        <ele>495</ele>
        <time>2018-05-22T08:47:32Z</time>
      </trkpt>
      <trkpt lat="42.576978961005807" lon="-6.656469963490963">
        <ele>495</ele>
        <time>2018-05-22T08:47:35Z</time>
      </trkpt>
      <trkpt lat="42.576978961005807" lon="-6.656348006799817">
        <ele>495</ele>
        <time>2018-05-22T08:47:38Z</time>
      </trkpt>
      <trkpt lat="42.576976027339697" lon="-6.656199982389808">
        <ele>495</ele>
        <time>2018-05-22T08:47:41Z</time>
      </trkpt>
      <trkpt lat="42.576970998197794" lon="-6.65614097379148">
        <ele>495</ele>
        <time>2018-05-22T08:47:42Z</time>
      </trkpt>
      <trkpt lat="42.576970998197794" lon="-6.656089005991817">
        <ele>495</ele>
        <time>2018-05-22T08:47:43Z</time>
      </trkpt>
      <trkpt lat="42.576970998197794" lon="-6.656037038192153">
        <ele>495</ele>
        <time>2018-05-22T08:47:44Z</time>
      </trkpt>
      <trkpt lat="42.576965969055891" lon="-6.655985992401838">
        <ele>495</ele>
        <time>2018-05-22T08:47:45Z</time>
      </trkpt>
      <trkpt lat="42.576965969055891" lon="-6.655934024602175">
        <ele>495</ele>
        <time>2018-05-22T08:47:47Z</time>
      </trkpt>
      <trkpt lat="42.576957000419497" lon="-6.655870992690325">
        <ele>495</ele>
        <time>2018-05-22T08:47:48Z</time>
      </trkpt>
      <trkpt lat="42.576951971277595" lon="-6.655812989920378">
        <ele>495</ele>
        <time>2018-05-22T08:47:49Z</time>
      </trkpt>
      <trkpt lat="42.576948031783104" lon="-6.655762027949095">
        <ele>495</ele>
        <time>2018-05-22T08:47:50Z</time>
      </trkpt>
      <trkpt lat="42.576943002641201" lon="-6.6557099763304">
        <ele>495</ele>
        <time>2018-05-22T08:47:51Z</time>
      </trkpt>
      <trkpt lat="42.576937973499298" lon="-6.655651973560453">
        <ele>495</ele>
        <time>2018-05-22T08:47:53Z</time>
      </trkpt>
      <trkpt lat="42.576929004862905" lon="-6.655594976618886">
        <ele>495</ele>
        <time>2018-05-22T08:47:54Z</time>
      </trkpt>
      <trkpt lat="42.576923975721002" lon="-6.65553797967732">
        <ele>495</ele>
        <time>2018-05-22T08:47:55Z</time>
      </trkpt>
      <trkpt lat="42.576920036226511" lon="-6.655468996614218">
        <ele>495</ele>
        <time>2018-05-22T08:47:57Z</time>
      </trkpt>
      <trkpt lat="42.576909977942705" lon="-6.655428009107709">
        <ele>495</ele>
        <time>2018-05-22T08:47:58Z</time>
      </trkpt>
      <trkpt lat="42.576909977942705" lon="-6.655376963317394">
        <ele>495</ele>
        <time>2018-05-22T08:47:59Z</time>
      </trkpt>
      <trkpt lat="42.576909977942705" lon="-6.655318960547447">
        <ele>495</ele>
        <time>2018-05-22T08:48:00Z</time>
      </trkpt>
      <trkpt lat="42.576909977942705" lon="-6.655267998576164">
        <ele>496</ele>
        <time>2018-05-22T08:48:01Z</time>
      </trkpt>
      <trkpt lat="42.576909977942705" lon="-6.655209995806217">
        <ele>496</ele>
        <time>2018-05-22T08:48:02Z</time>
      </trkpt>
      <trkpt lat="42.576909977942705" lon="-6.655141012743115">
        <ele>496</ele>
        <time>2018-05-22T08:48:04Z</time>
      </trkpt>
      <trkpt lat="42.576909977942705" lon="-6.655084015801549">
        <ele>496</ele>
        <time>2018-05-22T08:48:05Z</time>
      </trkpt>
      <trkpt lat="42.576909977942705" lon="-6.655026013031602">
        <ele>496</ele>
        <time>2018-05-22T08:48:06Z</time>
      </trkpt>
      <trkpt lat="42.576909977942705" lon="-6.654969016090035">
        <ele>496</ele>
        <time>2018-05-22T08:48:08Z</time>
      </trkpt>
      <trkpt lat="42.576909977942705" lon="-6.65491696447134">
        <ele>496</ele>
        <time>2018-05-22T08:48:09Z</time>
      </trkpt>
      <trkpt lat="42.576909977942705" lon="-6.654859967529774">
        <ele>496</ele>
        <time>2018-05-22T08:48:10Z</time>
      </trkpt>
      <trkpt lat="42.576909977942705" lon="-6.654797019436956">
        <ele>496</ele>
        <time>2018-05-22T08:48:11Z</time>
      </trkpt>
      <trkpt lat="42.576909977942705" lon="-6.654739016667008">
        <ele>496</ele>
        <time>2018-05-22T08:48:13Z</time>
      </trkpt>
      <trkpt lat="42.576909977942705" lon="-6.654675984755158">
        <ele>496</ele>
        <time>2018-05-22T08:48:14Z</time>
      </trkpt>
      <trkpt lat="42.576923975721002" lon="-6.654629968106747">
        <ele>496</ele>
        <time>2018-05-22T08:48:15Z</time>
      </trkpt>
      <trkpt lat="42.576923975721002" lon="-6.654578000307083">
        <ele>496</ele>
        <time>2018-05-22T08:48:16Z</time>
      </trkpt>
      <trkpt lat="42.576934034004807" lon="-6.6545270383358">
        <ele>496</ele>
        <time>2018-05-22T08:48:17Z</time>
      </trkpt>
      <trkpt lat="42.576948031783104" lon="-6.654474986717105">
        <ele>497</ele>
        <time>2018-05-22T08:48:19Z</time>
      </trkpt>
      <trkpt lat="42.576951971277595" lon="-6.654417989775538">
        <ele>497</ele>
        <time>2018-05-22T08:48:20Z</time>
      </trkpt>
      <trkpt lat="42.576976027339697" lon="-6.654371973127127">
        <ele>497</ele>
        <time>2018-05-22T08:48:21Z</time>
      </trkpt>
      <trkpt lat="42.576993964612484" lon="-6.654326040297747">
        <ele>497</ele>
        <time>2018-05-22T08:48:22Z</time>
      </trkpt>
      <trkpt lat="42.57700796239078" lon="-6.654280023649335">
        <ele>497</ele>
        <time>2018-05-22T08:48:23Z</time>
      </trkpt>
      <trkpt lat="42.577018020674586" lon="-6.654222020879388">
        <ele>497</ele>
        <time>2018-05-22T08:48:25Z</time>
      </trkpt>
      <trkpt lat="42.577032018452883" lon="-6.654165023937821">
        <ele>497</ele>
        <time>2018-05-22T08:48:26Z</time>
      </trkpt>
      <trkpt lat="42.577046016231179" lon="-6.654101992025971">
        <ele>497</ele>
        <time>2018-05-22T08:48:27Z</time>
      </trkpt>
      <trkpt lat="42.577054984867573" lon="-6.654043989256024">
        <ele>497</ele>
        <time>2018-05-22T08:48:29Z</time>
      </trkpt>
      <trkpt lat="42.577064037322998" lon="-6.653981041163206">
        <ele>497</ele>
        <time>2018-05-22T08:48:30Z</time>
      </trkpt>
      <trkpt lat="42.577068982645869" lon="-6.653928989544511">
        <ele>497</ele>
        <time>2018-05-22T08:48:31Z</time>
      </trkpt>
      <trkpt lat="42.577078035101295" lon="-6.653878027573228">
        <ele>497</ele>
        <time>2018-05-22T08:48:32Z</time>
      </trkpt>
      <trkpt lat="42.577096978202462" lon="-6.653808960691094">
        <ele>497</ele>
        <time>2018-05-22T08:48:34Z</time>
      </trkpt>
      <trkpt lat="42.577106030657887" lon="-6.653768979012966">
        <ele>497</ele>
        <time>2018-05-22T08:48:35Z</time>
      </trkpt>
      <trkpt lat="42.577110975980759" lon="-6.653710976243019">
        <ele>497</ele>
        <time>2018-05-22T08:48:36Z</time>
      </trkpt>
      <trkpt lat="42.577116005122662" lon="-6.653653979301453">
        <ele>497</ele>
        <time>2018-05-22T08:48:37Z</time>
      </trkpt>
      <trkpt lat="42.577120028436184" lon="-6.653602011501789">
        <ele>500</ele>
        <time>2018-05-22T08:48:39Z</time>
      </trkpt>
      <trkpt lat="42.577120028436184" lon="-6.653538979589939">
        <ele>500</ele>
        <time>2018-05-22T08:48:40Z</time>
      </trkpt>
      <trkpt lat="42.577120028436184" lon="-6.653469996526837">
        <ele>500</ele>
        <time>2018-05-22T08:48:41Z</time>
      </trkpt>
      <trkpt lat="42.577120028436184" lon="-6.653394978493452">
        <ele>500</ele>
        <time>2018-05-22T08:48:43Z</time>
      </trkpt>
      <trkpt lat="42.577116005122662" lon="-6.65330302901566">
        <ele>500</ele>
        <time>2018-05-22T08:48:45Z</time>
      </trkpt>
      <trkpt lat="42.577116005122662" lon="-6.653229016810656">
        <ele>500</ele>
        <time>2018-05-22T08:48:47Z</time>
      </trkpt>
      <trkpt lat="42.577102007344365" lon="-6.653107982128859">
        <ele>500</ele>
        <time>2018-05-22T08:48:49Z</time>
      </trkpt>
      <trkpt lat="42.577065965160728" lon="-6.652816040441394">
        <ele>502</ele>
        <time>2018-05-22T08:48:56Z</time>
      </trkpt>
      <trkpt lat="42.577041992917657" lon="-6.652677990496159">
        <ele>502</ele>
        <time>2018-05-22T08:48:59Z</time>
      </trkpt>
      <trkpt lat="42.57700796239078" lon="-6.652411026880145">
        <ele>502</ele>
        <time>2018-05-22T08:49:05Z</time>
      </trkpt>
      <trkpt lat="42.576989019289613" lon="-6.652217991650105">
        <ele>502</ele>
        <time>2018-05-22T08:49:09Z</time>
      </trkpt>
      <trkpt lat="42.576978038996458" lon="-6.651956979185343">
        <ele>501</ele>
        <time>2018-05-22T08:49:15Z</time>
      </trkpt>
      <trkpt lat="42.576949959620833" lon="-6.651639975607395">
        <ele>501</ele>
        <time>2018-05-22T08:49:22Z</time>
      </trkpt>
      <trkpt lat="42.576935961842537" lon="-6.651375023648143">
        <ele>501</ele>
        <time>2018-05-22T08:49:27Z</time>
      </trkpt>
      <trkpt lat="42.576932022348046" lon="-6.651108982041478">
        <ele>503</ele>
        <time>2018-05-22T08:49:33Z</time>
      </trkpt>
      <trkpt lat="42.576926993206143" lon="-6.650854004547">
        <ele>503</ele>
        <time>2018-05-22T08:49:39Z</time>
      </trkpt>
      <trkpt lat="42.576926993206143" lon="-6.650549992918968">
        <ele>503</ele>
        <time>2018-05-22T08:49:45Z</time>
      </trkpt>
      <trkpt lat="42.576926993206143" lon="-6.650242963805795">
        <ele>504</ele>
        <time>2018-05-22T08:49:52Z</time>
      </trkpt>
      <trkpt lat="42.576964041218162" lon="-6.649903999641538">
        <ele>504</ele>
        <time>2018-05-22T08:50:00Z</time>
      </trkpt>
      <trkpt lat="42.576978038996458" lon="-6.649605017155409">
        <ele>504</ele>
        <time>2018-05-22T08:50:06Z</time>
      </trkpt>
      <trkpt lat="42.57700796239078" lon="-6.649299999698997">
        <ele>502</ele>
        <time>2018-05-22T08:50:13Z</time>
      </trkpt>
      <trkpt lat="42.577021960169077" lon="-6.649032030254602">
        <ele>502</ele>
        <time>2018-05-22T08:50:19Z</time>
      </trkpt>
      <trkpt lat="42.57706998847425" lon="-6.648734975606203">
        <ele>502</ele>
        <time>2018-05-22T08:50:25Z</time>
      </trkpt>
      <trkpt lat="42.577094966545701" lon="-6.648430963978171">
        <ele>501</ele>
        <time>2018-05-22T08:50:32Z</time>
      </trkpt>
      <trkpt lat="42.577131008729339" lon="-6.648084037005901">
        <ele>504</ele>
        <time>2018-05-22T08:50:40Z</time>
      </trkpt>
      <trkpt lat="42.577136037871242" lon="-6.647815983742476">
        <ele>503</ele>
        <time>2018-05-22T08:50:45Z</time>
      </trkpt>
      <trkpt lat="42.577162021771073" lon="-6.647426979616284">
        <ele>503</ele>
        <time>2018-05-22T08:50:54Z</time>
      </trkpt>
      <trkpt lat="42.577188005670905" lon="-6.647188011556864">
        <ele>503</ele>
        <time>2018-05-22T08:50:59Z</time>
      </trkpt>
      <trkpt lat="42.577208960428834" lon="-6.646875031292439">
        <ele>503</ele>
        <time>2018-05-22T08:51:06Z</time>
      </trkpt>
      <trkpt lat="42.577226981520653" lon="-6.646657017990947">
        <ele>503</ele>
        <time>2018-05-22T08:51:11Z</time>
      </trkpt>
      <trkpt lat="42.577251037582755" lon="-6.64638502523303">
        <ele>503</ele>
        <time>2018-05-22T08:51:17Z</time>
      </trkpt>
      <trkpt lat="42.577282972633839" lon="-6.646100962534547">
        <ele>505</ele>
        <time>2018-05-22T08:51:23Z</time>
      </trkpt>
      <trkpt lat="42.577315997332335" lon="-6.645766021683812">
        <ele>505</ele>
        <time>2018-05-22T08:51:30Z</time>
      </trkpt>
      <trkpt lat="42.577341981232166" lon="-6.64541901089251">
        <ele>505</ele>
        <time>2018-05-22T08:51:38Z</time>
      </trkpt>
      <trkpt lat="42.577375005930662" lon="-6.645114999264479">
        <ele>504</ele>
        <time>2018-05-22T08:51:45Z</time>
      </trkpt>
      <trkpt lat="42.577416999265552" lon="-6.644824985414743">
        <ele>504</ele>
        <time>2018-05-22T08:51:51Z</time>
      </trkpt>
      <trkpt lat="42.577416999265552" lon="-6.644736975431442">
        <ele>504</ele>
        <time>2018-05-22T08:51:53Z</time>
      </trkpt>
      <trkpt lat="42.577383974567056" lon="-6.644594985991716">
        <ele>504</ele>
        <time>2018-05-22T08:51:56Z</time>
      </trkpt>
      <trkpt lat="42.577376011759043" lon="-6.644422989338636">
        <ele>503</ele>
        <time>2018-05-22T08:52:00Z</time>
      </trkpt>
      <trkpt lat="42.577376011759043" lon="-6.644226014614105">
        <ele>503</ele>
        <time>2018-05-22T08:52:04Z</time>
      </trkpt>
      <trkpt lat="42.57737098261714" lon="-6.644009007140994">
        <ele>503</ele>
        <time>2018-05-22T08:52:09Z</time>
      </trkpt>
      <trkpt lat="42.577356984838843" lon="-6.643798034638166">
        <ele>503</ele>
        <time>2018-05-22T08:52:14Z</time>
      </trkpt>
      <trkpt lat="42.577352961525321" lon="-6.643626037985086">
        <ele>504</ele>
        <time>2018-05-22T08:52:17Z</time>
      </trkpt>
      <trkpt lat="42.577357990667224" lon="-6.643365025520325">
        <ele>504</ele>
        <time>2018-05-22T08:52:23Z</time>
      </trkpt>
      <trkpt lat="42.577376011759043" lon="-6.643063025549054">
        <ele>504</ele>
        <time>2018-05-22T08:52:30Z</time>
      </trkpt>
      <trkpt lat="42.577366959303617" lon="-6.642743004485965">
        <ele>505</ele>
        <time>2018-05-22T08:52:37Z</time>
      </trkpt>
      <trkpt lat="42.577357990667224" lon="-6.642479980364442">
        <ele>505</ele>
        <time>2018-05-22T08:52:42Z</time>
      </trkpt>
      <trkpt lat="42.577357990667224" lon="-6.64213196374476">
        <ele>505</ele>
        <time>2018-05-22T08:52:50Z</time>
      </trkpt>
      <trkpt lat="42.57734801620245" lon="-6.641774978488684">
        <ele>505</ele>
        <time>2018-05-22T08:52:58Z</time>
      </trkpt>
      <trkpt lat="42.57734801620245" lon="-6.641545984894037">
        <ele>505</ele>
        <time>2018-05-22T08:53:03Z</time>
      </trkpt>
      <trkpt lat="42.57734801620245" lon="-6.641506003215909">
        <ele>505</ele>
        <time>2018-05-22T08:53:03Z</time>
      </trkpt>
      <trkpt lat="42.57734801620245" lon="-6.641413969919086">
        <ele>505</ele>
        <time>2018-05-22T08:53:05Z</time>
      </trkpt>
      <trkpt lat="42.57734801620245" lon="-6.641344986855984">
        <ele>505</ele>
        <time>2018-05-22T08:53:07Z</time>
      </trkpt>
      <trkpt lat="42.57734801620245" lon="-6.64129301905632">
        <ele>505</ele>
        <time>2018-05-22T08:53:08Z</time>
      </trkpt>
      <trkpt lat="42.57734801620245" lon="-6.641236022114754">
        <ele>505</ele>
        <time>2018-05-22T08:53:09Z</time>
      </trkpt>
      <trkpt lat="42.577343992888927" lon="-6.641183970496059">
        <ele>506</ele>
        <time>2018-05-22T08:53:11Z</time>
      </trkpt>
      <trkpt lat="42.577343992888927" lon="-6.641132002696395">
        <ele>506</ele>
        <time>2018-05-22T08:53:12Z</time>
      </trkpt>
      <trkpt lat="42.577329995110631" lon="-6.641081040725112">
        <ele>506</ele>
        <time>2018-05-22T08:53:13Z</time>
      </trkpt>
      <trkpt lat="42.577320020645857" lon="-6.641024965792894">
        <ele>506</ele>
        <time>2018-05-22T08:53:14Z</time>
      </trkpt>
      <trkpt lat="42.577315997332335" lon="-6.640962017700076">
        <ele>506</ele>
        <time>2018-05-22T08:53:15Z</time>
      </trkpt>
      <trkpt lat="42.577299987897277" lon="-6.640913989394903">
        <ele>506</ele>
        <time>2018-05-22T08:53:17Z</time>
      </trkpt>
      <trkpt lat="42.577278027310967" lon="-6.64086302742362">
        <ele>506</ele>
        <time>2018-05-22T08:53:18Z</time>
      </trkpt>
      <trkpt lat="42.577255982905626" lon="-6.640814999118447">
        <ele>506</ele>
        <time>2018-05-22T08:53:19Z</time>
      </trkpt>
      <trkpt lat="42.577205020934343" lon="-6.640667980536819">
        <ele>506</ele>
        <time>2018-05-22T08:53:23Z</time>
      </trkpt>
      <trkpt lat="42.577140983194113" lon="-6.640459019690752">
        <ele>506</ele>
        <time>2018-05-22T08:53:28Z</time>
      </trkpt>
      <trkpt lat="42.577051967382431" lon="-6.640247963368893">
        <ele>507</ele>
        <time>2018-05-22T08:53:33Z</time>
      </trkpt>
      <trkpt lat="42.576973009854555" lon="-6.639992985874414">
        <ele>507</ele>
        <time>2018-05-22T08:53:39Z</time>
      </trkpt>
      <trkpt lat="42.576868990436196" lon="-6.639683023095131">
        <ele>507</ele>
        <time>2018-05-22T08:53:46Z</time>
      </trkpt>
      <trkpt lat="42.576868990436196" lon="-6.639676988124847">
        <ele>507</ele>
        <time>2018-05-22T08:53:46Z</time>
      </trkpt>
      <trkpt lat="42.576849963515997" lon="-6.639614040032029">
        <ele>507</ele>
        <time>2018-05-22T08:53:48Z</time>
      </trkpt>
      <trkpt lat="42.576840994879603" lon="-6.639568023383617">
        <ele>507</ele>
        <time>2018-05-22T08:53:49Z</time>
      </trkpt>
      <trkpt lat="42.576826997101307" lon="-6.639515971764922">
        <ele>507</ele>
        <time>2018-05-22T08:53:50Z</time>
      </trkpt>
      <trkpt lat="42.576817022636533" lon="-6.639465009793639">
        <ele>507</ele>
        <time>2018-05-22T08:53:51Z</time>
      </trkpt>
      <trkpt lat="42.576807970181108" lon="-6.639418993145227">
        <ele>507</ele>
        <time>2018-05-22T08:53:52Z</time>
      </trkpt>
      <trkpt lat="42.576807970181108" lon="-6.639355039224029">
        <ele>507</ele>
        <time>2018-05-22T08:53:54Z</time>
      </trkpt>
      <trkpt lat="42.576807970181108" lon="-6.63929795846343">
        <ele>507</ele>
        <time>2018-05-22T08:53:55Z</time>
      </trkpt>
      <trkpt lat="42.576807970181108" lon="-6.639235010370612">
        <ele>507</ele>
        <time>2018-05-22T08:53:56Z</time>
      </trkpt>
      <trkpt lat="42.576807970181108" lon="-6.639177007600665">
        <ele>507</ele>
        <time>2018-05-22T08:53:58Z</time>
      </trkpt>
      <trkpt lat="42.576807970181108" lon="-6.639120010659099">
        <ele>507</ele>
        <time>2018-05-22T08:53:59Z</time>
      </trkpt>
      <trkpt lat="42.576807970181108" lon="-6.639067959040403">
        <ele>507</ele>
        <time>2018-05-22T08:54:00Z</time>
      </trkpt>
      <trkpt lat="42.576807970181108" lon="-6.639005010947585">
        <ele>507</ele>
        <time>2018-05-22T08:54:01Z</time>
      </trkpt>
      <trkpt lat="42.576807970181108" lon="-6.638948014006019">
        <ele>507</ele>
        <time>2018-05-22T08:54:03Z</time>
      </trkpt>
      <trkpt lat="42.576807970181108" lon="-6.638883976265788">
        <ele>507</ele>
        <time>2018-05-22T08:54:04Z</time>
      </trkpt>
      <trkpt lat="42.57681299932301" lon="-6.638826979324222">
        <ele>507</ele>
        <time>2018-05-22T08:54:05Z</time>
      </trkpt>
      <trkpt lat="42.57681299932301" lon="-6.638769982382655">
        <ele>507</ele>
        <time>2018-05-22T08:54:06Z</time>
      </trkpt>
      <trkpt lat="42.57681299932301" lon="-6.638706028461456">
        <ele>507</ele>
        <time>2018-05-22T08:54:08Z</time>
      </trkpt>
      <trkpt lat="42.576821967959404" lon="-6.638665962964296">
        <ele>507</ele>
        <time>2018-05-22T08:54:09Z</time>
      </trkpt>
      <trkpt lat="42.576831020414829" lon="-6.638620030134916">
        <ele>507</ele>
        <time>2018-05-22T08:54:10Z</time>
      </trkpt>
      <trkpt lat="42.5768549926579" lon="-6.638566972687841">
        <ele>507</ele>
        <time>2018-05-22T08:54:11Z</time>
      </trkpt>
      <trkpt lat="42.576863961294293" lon="-6.638510981574655">
        <ele>507</ele>
        <time>2018-05-22T08:54:12Z</time>
      </trkpt>
      <trkpt lat="42.576863961294293" lon="-6.638459013774991">
        <ele>507</ele>
        <time>2018-05-22T08:54:14Z</time>
      </trkpt>
      <trkpt lat="42.576863961294293" lon="-6.638406040146947">
        <ele>507</ele>
        <time>2018-05-22T08:54:15Z</time>
      </trkpt>
      <trkpt lat="42.576863961294293" lon="-6.638351976871491">
        <ele>507</ele>
        <time>2018-05-22T08:54:16Z</time>
      </trkpt>
      <trkpt lat="42.576859015971422" lon="-6.638300009071827">
        <ele>507</ele>
        <time>2018-05-22T08:54:17Z</time>
      </trkpt>
      <trkpt lat="42.576848035678267" lon="-6.638251980766654">
        <ele>507</ele>
        <time>2018-05-22T08:54:18Z</time>
      </trkpt>
      <trkpt lat="42.576844012364745" lon="-6.638194983825088">
        <ele>507</ele>
        <time>2018-05-22T08:54:19Z</time>
      </trkpt>
      <trkpt lat="42.576844012364745" lon="-6.638132035732269">
        <ele>507</ele>
        <time>2018-05-22T08:54:21Z</time>
      </trkpt>
      <trkpt lat="42.576844012364745" lon="-6.6380700096488">
        <ele>507</ele>
        <time>2018-05-22T08:54:22Z</time>
      </trkpt>
      <trkpt lat="42.576858010143042" lon="-6.637970013543963">
        <ele>507</ele>
        <time>2018-05-22T08:54:24Z</time>
      </trkpt>
      <trkpt lat="42.576904026791453" lon="-6.637747976928949">
        <ele>508</ele>
        <time>2018-05-22T08:54:29Z</time>
      </trkpt>
      <trkpt lat="42.576934034004807" lon="-6.637563994154334">
        <ele>508</ele>
        <time>2018-05-22T08:54:33Z</time>
      </trkpt>
      <trkpt lat="42.577018020674586" lon="-6.637324020266533">
        <ele>508</ele>
        <time>2018-05-22T08:54:39Z</time>
      </trkpt>
      <trkpt lat="42.577022965997458" lon="-6.637300970032811">
        <ele>508</ele>
        <time>2018-05-22T08:54:40Z</time>
      </trkpt>
      <trkpt lat="42.57702698931098" lon="-6.637231986969709">
        <ele>508</ele>
        <time>2018-05-22T08:54:41Z</time>
      </trkpt>
      <trkpt lat="42.577036963775754" lon="-6.637169038876891">
        <ele>508</ele>
        <time>2018-05-22T08:54:43Z</time>
      </trkpt>
      <trkpt lat="42.57705096155405" lon="-6.637111958116293">
        <ele>508</ele>
        <time>2018-05-22T08:54:44Z</time>
      </trkpt>
      <trkpt lat="42.577060014009476" lon="-6.637054039165378">
        <ele>509</ele>
        <time>2018-05-22T08:54:45Z</time>
      </trkpt>
      <trkpt lat="42.577060014009476" lon="-6.637002993375063">
        <ele>509</ele>
        <time>2018-05-22T08:54:46Z</time>
      </trkpt>
      <trkpt lat="42.577064959332347" lon="-6.636944990605116">
        <ele>509</ele>
        <time>2018-05-22T08:54:48Z</time>
      </trkpt>
      <trkpt lat="42.577064959332347" lon="-6.636887993663549">
        <ele>509</ele>
        <time>2018-05-22T08:54:49Z</time>
      </trkpt>
      <trkpt lat="42.577060014009476" lon="-6.636812975630164">
        <ele>509</ele>
        <time>2018-05-22T08:54:51Z</time>
      </trkpt>
      <trkpt lat="42.577054984867573" lon="-6.636755978688598">
        <ele>509</ele>
        <time>2018-05-22T08:54:52Z</time>
      </trkpt>
      <trkpt lat="42.577054984867573" lon="-6.636675009503961">
        <ele>509</ele>
        <time>2018-05-22T08:54:54Z</time>
      </trkpt>
      <trkpt lat="42.577054984867573" lon="-6.636623041704297">
        <ele>509</ele>
        <time>2018-05-22T08:54:55Z</time>
      </trkpt>
      <trkpt lat="42.577054984867573" lon="-6.636571995913982">
        <ele>509</ele>
        <time>2018-05-22T08:54:56Z</time>
      </trkpt>
      <trkpt lat="42.577054984867573" lon="-6.636520028114319">
        <ele>509</ele>
        <time>2018-05-22T08:54:57Z</time>
      </trkpt>
      <trkpt lat="42.577060014009476" lon="-6.636463031172752">
        <ele>509</ele>
        <time>2018-05-22T08:54:58Z</time>
      </trkpt>
      <trkpt lat="42.577060014009476" lon="-6.636410979554057">
        <ele>509</ele>
        <time>2018-05-22T08:54:59Z</time>
      </trkpt>
      <trkpt lat="42.577060014009476" lon="-6.636359011754394">
        <ele>509</ele>
        <time>2018-05-22T08:55:00Z</time>
      </trkpt>
      <trkpt lat="42.577060014009476" lon="-6.636295979842544">
        <ele>509</ele>
        <time>2018-05-22T08:55:02Z</time>
      </trkpt>
      <trkpt lat="42.577060014009476" lon="-6.636226996779442">
        <ele>509</ele>
        <time>2018-05-22T08:55:03Z</time>
      </trkpt>
      <trkpt lat="42.577068982645869" lon="-6.636163964867592">
        <ele>509</ele>
        <time>2018-05-22T08:55:05Z</time>
      </trkpt>
      <trkpt lat="42.577079040929675" lon="-6.636118032038212">
        <ele>508</ele>
        <time>2018-05-22T08:55:06Z</time>
      </trkpt>
      <trkpt lat="42.577088009566069" lon="-6.636061035096645">
        <ele>508</ele>
        <time>2018-05-22T08:55:07Z</time>
      </trkpt>
      <trkpt lat="42.577104019001126" lon="-6.636001020669937">
        <ele>507</ele>
        <time>2018-05-22T08:55:08Z</time>
      </trkpt>
      <trkpt lat="42.577142994850874" lon="-6.635820977389813">
        <ele>509</ele>
        <time>2018-05-22T08:55:12Z</time>
      </trkpt>
      <trkpt lat="42.577208960428834" lon="-6.635532975196838">
        <ele>509</ele>
        <time>2018-05-22T08:55:19Z</time>
      </trkpt>
      <trkpt lat="42.577323038130999" lon="-6.635208008810878">
        <ele>509</ele>
        <time>2018-05-22T08:55:27Z</time>
      </trkpt>
      <trkpt lat="42.577455975115299" lon="-6.634866027161479">
        <ele>509</ele>
        <time>2018-05-22T08:55:35Z</time>
      </trkpt>
      <trkpt lat="42.5775630120188" lon="-6.634552041068673">
        <ele>509</ele>
        <time>2018-05-22T08:55:43Z</time>
      </trkpt>
      <trkpt lat="42.577666025608778" lon="-6.634290022775531">
        <ele>508</ele>
        <time>2018-05-22T08:55:49Z</time>
      </trkpt>
      <trkpt lat="42.577729979529977" lon="-6.634082989767194">
        <ele>508</ele>
        <time>2018-05-22T08:55:54Z</time>
      </trkpt>
      <trkpt lat="42.577797034755349" lon="-6.633852990344167">
        <ele>508</ele>
        <time>2018-05-22T08:56:00Z</time>
      </trkpt>
      <trkpt lat="42.577872974798083" lon="-6.63360002450645">
        <ele>507</ele>
        <time>2018-05-22T08:56:05Z</time>
      </trkpt>
      <trkpt lat="42.577910022810102" lon="-6.633306993171573">
        <ele>507</ele>
        <time>2018-05-22T08:56:12Z</time>
      </trkpt>
      <trkpt lat="42.577970959246159" lon="-6.633035000413656">
        <ele>509</ele>
        <time>2018-05-22T08:56:18Z</time>
      </trkpt>
      <trkpt lat="42.577970959246159" lon="-6.633027037605643">
        <ele>509</ele>
        <time>2018-05-22T08:56:18Z</time>
      </trkpt>
      <trkpt lat="42.578038014471531" lon="-6.632769964635372">
        <ele>512</ele>
        <time>2018-05-22T08:56:24Z</time>
      </trkpt>
      <trkpt lat="42.578071961179376" lon="-6.632494032382965">
        <ele>512</ele>
        <time>2018-05-22T08:56:30Z</time>
      </trkpt>
      <trkpt lat="42.578081013634801" lon="-6.632286999374628">
        <ele>512</ele>
        <time>2018-05-22T08:56:35Z</time>
      </trkpt>
      <trkpt lat="42.578070033341646" lon="-6.632112991064787">
        <ele>512</ele>
        <time>2018-05-22T08:56:39Z</time>
      </trkpt>
      <trkpt lat="42.578070033341646" lon="-6.632102010771632">
        <ele>512</ele>
        <time>2018-05-22T08:56:39Z</time>
      </trkpt>
      <trkpt lat="42.578066010028124" lon="-6.632049959152937">
        <ele>512</ele>
        <time>2018-05-22T08:56:40Z</time>
      </trkpt>
      <trkpt lat="42.578060980886221" lon="-6.631997991353273">
        <ele>512</ele>
        <time>2018-05-22T08:56:41Z</time>
      </trkpt>
      <trkpt lat="42.578046983107924" lon="-6.631934959441423">
        <ele>512</ele>
        <time>2018-05-22T08:56:43Z</time>
      </trkpt>
      <trkpt lat="42.578042037785053" lon="-6.63188299164176">
        <ele>512</ele>
        <time>2018-05-22T08:56:44Z</time>
      </trkpt>
      <trkpt lat="42.578032985329628" lon="-6.631828006356955">
        <ele>512</ele>
        <time>2018-05-22T08:56:45Z</time>
      </trkpt>
      <trkpt lat="42.578024016693234" lon="-6.631770003587008">
        <ele>512</ele>
        <time>2018-05-22T08:56:46Z</time>
      </trkpt>
      <trkpt lat="42.578018987551332" lon="-6.631708983331919">
        <ele>512</ele>
        <time>2018-05-22T08:56:48Z</time>
      </trkpt>
      <trkpt lat="42.577990991994739" lon="-6.63164502941072">
        <ele>512</ele>
        <time>2018-05-22T08:56:49Z</time>
      </trkpt>
      <trkpt lat="42.577962996438146" lon="-6.631588032469153">
        <ele>512</ele>
        <time>2018-05-22T08:56:51Z</time>
      </trkpt>
      <trkpt lat="42.57792997173965" lon="-6.631531035527587">
        <ele>510</ele>
        <time>2018-05-22T08:56:52Z</time>
      </trkpt>
      <trkpt lat="42.577912034466863" lon="-6.63147303275764">
        <ele>510</ele>
        <time>2018-05-22T08:56:54Z</time>
      </trkpt>
      <trkpt lat="42.57788403891027" lon="-6.631416035816073">
        <ele>510</ele>
        <time>2018-05-22T08:56:55Z</time>
      </trkpt>
      <trkpt lat="42.577851014211774" lon="-6.63134696893394">
        <ele>510</ele>
        <time>2018-05-22T08:56:57Z</time>
      </trkpt>
      <trkpt lat="42.577823018655181" lon="-6.631295001134276">
        <ele>510</ele>
        <time>2018-05-22T08:56:58Z</time>
      </trkpt>
      <trkpt lat="42.577799968421459" lon="-6.631255019456148">
        <ele>510</ele>
        <time>2018-05-22T08:56:59Z</time>
      </trkpt>
      <trkpt lat="42.577774990350008" lon="-6.631201039999723">
        <ele>510</ele>
        <time>2018-05-22T08:57:01Z</time>
      </trkpt>
      <trkpt lat="42.577752023935318" lon="-6.631160974502564">
        <ele>511</ele>
        <time>2018-05-22T08:57:02Z</time>
      </trkpt>
      <trkpt lat="42.577726962044835" lon="-6.631106995046139">
        <ele>511</ele>
        <time>2018-05-22T08:57:03Z</time>
      </trkpt>
      <trkpt lat="42.577708018943667" lon="-6.631056033074856">
        <ele>511</ele>
        <time>2018-05-22T08:57:05Z</time>
      </trkpt>
      <trkpt lat="42.577684968709946" lon="-6.630981015041471">
        <ele>511</ele>
        <time>2018-05-22T08:57:06Z</time>
      </trkpt>
      <trkpt lat="42.577660996466875" lon="-6.630922006443143">
        <ele>511</ele>
        <time>2018-05-22T08:57:08Z</time>
      </trkpt>
      <trkpt lat="42.577633000910282" lon="-6.630870038643479">
        <ele>511</ele>
        <time>2018-05-22T08:57:09Z</time>
      </trkpt>
      <trkpt lat="42.577610034495592" lon="-6.630812035873532">
        <ele>511</ele>
        <time>2018-05-22T08:57:11Z</time>
      </trkpt>
      <trkpt lat="42.577582038938999" lon="-6.630755038931966">
        <ele>511</ele>
        <time>2018-05-22T08:57:12Z</time>
      </trkpt>
      <trkpt lat="42.5775630120188" lon="-6.630702987313271">
        <ele>511</ele>
        <time>2018-05-22T08:57:13Z</time>
      </trkpt>
      <trkpt lat="42.577525964006782" lon="-6.630640039220452">
        <ele>511</ele>
        <time>2018-05-22T08:57:15Z</time>
      </trkpt>
      <trkpt lat="42.577497968450189" lon="-6.630594022572041">
        <ele>511</ele>
        <time>2018-05-22T08:57:16Z</time>
      </trkpt>
      <trkpt lat="42.577469972893596" lon="-6.630541970953345">
        <ele>511</ele>
        <time>2018-05-22T08:57:18Z</time>
      </trkpt>
      <trkpt lat="42.577441977337003" lon="-6.630508024245501">
        <ele>511</ele>
        <time>2018-05-22T08:57:19Z</time>
      </trkpt>
      <trkpt lat="42.577419010922313" lon="-6.630471982061863">
        <ele>511</ele>
        <time>2018-05-22T08:57:20Z</time>
      </trkpt>
      <trkpt lat="42.57739101536572" lon="-6.630430994555354">
        <ele>511</ele>
        <time>2018-05-22T08:57:21Z</time>
      </trkpt>
      <trkpt lat="42.577363019809127" lon="-6.630380032584071">
        <ele>511</ele>
        <time>2018-05-22T08:57:23Z</time>
      </trkpt>
      <trkpt lat="42.577339969575405" lon="-6.630334015935659">
        <ele>510</ele>
        <time>2018-05-22T08:57:24Z</time>
      </trkpt>
      <trkpt lat="42.577311974018812" lon="-6.630294034257531">
        <ele>510</ele>
        <time>2018-05-22T08:57:25Z</time>
      </trkpt>
      <trkpt lat="42.577283978462219" lon="-6.630248017609119">
        <ele>510</ele>
        <time>2018-05-22T08:57:26Z</time>
      </trkpt>
      <trkpt lat="42.577265035361052" lon="-6.630202000960708">
        <ele>510</ele>
        <time>2018-05-22T08:57:28Z</time>
      </trkpt>
      <trkpt lat="42.577246008440852" lon="-6.630150033161044">
        <ele>510</ele>
        <time>2018-05-22T08:57:29Z</time>
      </trkpt>
      <trkpt lat="42.577218012884259" lon="-6.630104016512632">
        <ele>510</ele>
        <time>2018-05-22T08:57:30Z</time>
      </trkpt>
      <trkpt lat="42.577190017327666" lon="-6.630069985985756">
        <ele>510</ele>
        <time>2018-05-22T08:57:31Z</time>
      </trkpt>
      <trkpt lat="42.577152969315648" lon="-6.630035033449531">
        <ele>510</ele>
        <time>2018-05-22T08:57:33Z</time>
      </trkpt>
      <trkpt lat="42.577124973759055" lon="-6.629994967952371">
        <ele>510</ele>
        <time>2018-05-22T08:57:34Z</time>
      </trkpt>
      <trkpt lat="42.577088009566069" lon="-6.629943000152707">
        <ele>510</ele>
        <time>2018-05-22T08:57:35Z</time>
      </trkpt>
      <trkpt lat="42.577053979039192" lon="-6.629901006817818">
        <ele>510</ele>
        <time>2018-05-22T08:57:37Z</time>
      </trkpt>
      <trkpt lat="42.577021038159728" lon="-6.629872005432844">
        <ele>510</ele>
        <time>2018-05-22T08:57:38Z</time>
      </trkpt>
      <trkpt lat="42.576992958784103" lon="-6.629837974905968">
        <ele>510</ele>
        <time>2018-05-22T08:57:39Z</time>
      </trkpt>
      <trkpt lat="42.57696496322751" lon="-6.629803022369742">
        <ele>510</ele>
        <time>2018-05-22T08:57:40Z</time>
      </trkpt>
      <trkpt lat="42.576932022348046" lon="-6.62977502681315">
        <ele>510</ele>
        <time>2018-05-22T08:57:41Z</time>
      </trkpt>
      <trkpt lat="42.576900003477931" lon="-6.629734039306641">
        <ele>510</ele>
        <time>2018-05-22T08:57:42Z</time>
      </trkpt>
      <trkpt lat="42.576866978779435" lon="-6.62968902848661">
        <ele>510</ele>
        <time>2018-05-22T08:57:44Z</time>
      </trkpt>
      <trkpt lat="42.576844012364745" lon="-6.629653992131352">
        <ele>510</ele>
        <time>2018-05-22T08:57:45Z</time>
      </trkpt>
      <trkpt lat="42.576816016808152" lon="-6.629624990746379">
        <ele>510</ele>
        <time>2018-05-22T08:57:46Z</time>
      </trkpt>
      <trkpt lat="42.57679196074605" lon="-6.629578974097967">
        <ele>510</ele>
        <time>2018-05-22T08:57:47Z</time>
      </trkpt>
      <trkpt lat="42.576763965189457" lon="-6.629545027390122">
        <ele>510</ele>
        <time>2018-05-22T08:57:48Z</time>
      </trkpt>
      <trkpt lat="42.57672700099647" lon="-6.629487024620175">
        <ele>512</ele>
        <time>2018-05-22T08:57:50Z</time>
      </trkpt>
      <trkpt lat="42.57670403458178" lon="-6.629435978829861">
        <ele>512</ele>
        <time>2018-05-22T08:57:51Z</time>
      </trkpt>
      <trkpt lat="42.576679978519678" lon="-6.629395997151732">
        <ele>512</ele>
        <time>2018-05-22T08:57:52Z</time>
      </trkpt>
      <trkpt lat="42.576662041246891" lon="-6.629344029352069">
        <ele>512</ele>
        <time>2018-05-22T08:57:54Z</time>
      </trkpt>
      <trkpt lat="42.576636979356408" lon="-6.629280997440219">
        <ele>512</ele>
        <time>2018-05-22T08:57:55Z</time>
      </trkpt>
      <trkpt lat="42.57653396576643" lon="-6.629032976925373">
        <ele>512</ele>
        <time>2018-05-22T08:58:01Z</time>
      </trkpt>
      <trkpt lat="42.576456014066935" lon="-6.62887598387897">
        <ele>512</ele>
        <time>2018-05-22T08:58:06Z</time>
      </trkpt>
      <trkpt lat="42.576358029618859" lon="-6.628630980849266">
        <ele>513</ele>
        <time>2018-05-22T08:58:12Z</time>
      </trkpt>
      <trkpt lat="42.576348977163434" lon="-6.628609020262957">
        <ele>513</ele>
        <time>2018-05-22T08:58:12Z</time>
      </trkpt>
      <trkpt lat="42.576326010748744" lon="-6.628544982522726">
        <ele>513</ele>
        <time>2018-05-22T08:58:14Z</time>
      </trkpt>
      <trkpt lat="42.576306983828545" lon="-6.62848798558116">
        <ele>513</ele>
        <time>2018-05-22T08:58:15Z</time>
      </trkpt>
      <trkpt lat="42.576284017413855" lon="-6.628419002518058">
        <ele>512</ele>
        <time>2018-05-22T08:58:17Z</time>
      </trkpt>
      <trkpt lat="42.576264990493655" lon="-6.628350019454956">
        <ele>512</ele>
        <time>2018-05-22T08:58:18Z</time>
      </trkpt>
      <trkpt lat="42.576250992715359" lon="-6.628297967836261">
        <ele>512</ele>
        <time>2018-05-22T08:58:19Z</time>
      </trkpt>
      <trkpt lat="42.576231965795159" lon="-6.628247005864978">
        <ele>512</ele>
        <time>2018-05-22T08:58:21Z</time>
      </trkpt>
      <trkpt lat="42.576208999380469" lon="-6.628166036680341">
        <ele>512</ele>
        <time>2018-05-22T08:58:23Z</time>
      </trkpt>
      <trkpt lat="42.57618997246027" lon="-6.628113985061646">
        <ele>512</ele>
        <time>2018-05-22T08:58:24Z</time>
      </trkpt>
      <trkpt lat="42.576175974681973" lon="-6.628063023090363">
        <ele>512</ele>
        <time>2018-05-22T08:58:25Z</time>
      </trkpt>
      <trkpt lat="42.576158037409186" lon="-6.628010971471667">
        <ele>512</ele>
        <time>2018-05-22T08:58:26Z</time>
      </trkpt>
      <trkpt lat="42.576133981347084" lon="-6.627960009500384">
        <ele>512</ele>
        <time>2018-05-22T08:58:28Z</time>
      </trkpt>
      <trkpt lat="42.576115960255265" lon="-6.627891026437283">
        <ele>512</ele>
        <time>2018-05-22T08:58:29Z</time>
      </trkpt>
      <trkpt lat="42.576101962476969" lon="-6.627838974818587">
        <ele>512</ele>
        <time>2018-05-22T08:58:30Z</time>
      </trkpt>
      <trkpt lat="42.576087964698672" lon="-6.627787007018924">
        <ele>512</ele>
        <time>2018-05-22T08:58:32Z</time>
      </trkpt>
      <trkpt lat="42.576078996062279" lon="-6.62773503921926">
        <ele>512</ele>
        <time>2018-05-22T08:58:33Z</time>
      </trkpt>
      <trkpt lat="42.576055023819208" lon="-6.627683993428946">
        <ele>512</ele>
        <time>2018-05-22T08:58:34Z</time>
      </trkpt>
      <trkpt lat="42.576037002727389" lon="-6.627632025629282">
        <ele>512</ele>
        <time>2018-05-22T08:58:35Z</time>
      </trkpt>
      <trkpt lat="42.576018981635571" lon="-6.627581985667348">
        <ele>512</ele>
        <time>2018-05-22T08:58:37Z</time>
      </trkpt>
      <trkpt lat="42.576014958322048" lon="-6.62751903757453">
        <ele>512</ele>
        <time>2018-05-22T08:58:38Z</time>
      </trkpt>
      <trkpt lat="42.575994003564119" lon="-6.627481989562511">
        <ele>512</ele>
        <time>2018-05-22T08:58:39Z</time>
      </trkpt>
      <trkpt lat="42.575966008007526" lon="-6.627419041469693">
        <ele>512</ele>
        <time>2018-05-22T08:58:41Z</time>
      </trkpt>
      <trkpt lat="42.57595201022923" lon="-6.627373024821281">
        <ele>512</ele>
        <time>2018-05-22T08:58:42Z</time>
      </trkpt>
      <trkpt lat="42.575943041592836" lon="-6.627321979030967">
        <ele>512</ele>
        <time>2018-05-22T08:58:43Z</time>
      </trkpt>
      <trkpt lat="42.575928959995508" lon="-6.627270011231303">
        <ele>512</ele>
        <time>2018-05-22T08:58:44Z</time>
      </trkpt>
      <trkpt lat="42.575919991359115" lon="-6.627217959612608">
        <ele>512</ele>
        <time>2018-05-22T08:58:45Z</time>
      </trkpt>
      <trkpt lat="42.575905993580818" lon="-6.627166997641325">
        <ele>512</ele>
        <time>2018-05-22T08:58:46Z</time>
      </trkpt>
      <trkpt lat="42.575900964438915" lon="-6.627098014578223">
        <ele>512</ele>
        <time>2018-05-22T08:58:48Z</time>
      </trkpt>
      <trkpt lat="42.575900964438915" lon="-6.627045962959528">
        <ele>515</ele>
        <time>2018-05-22T08:58:49Z</time>
      </trkpt>
      <trkpt lat="42.575900964438915" lon="-6.62698301486671">
        <ele>515</ele>
        <time>2018-05-22T08:58:50Z</time>
      </trkpt>
      <trkpt lat="42.575897024944425" lon="-6.626925012096763">
        <ele>515</ele>
        <time>2018-05-22T08:58:52Z</time>
      </trkpt>
      <trkpt lat="42.575889984145761" lon="-6.626878995448351">
        <ele>515</ele>
        <time>2018-05-22T08:58:53Z</time>
      </trkpt>
      <trkpt lat="42.575879003852606" lon="-6.626716973260045">
        <ele>515</ele>
        <time>2018-05-22T08:58:56Z</time>
      </trkpt>
      <trkpt lat="42.575856037437916" lon="-6.626375997439027">
        <ele>515</ele>
        <time>2018-05-22T08:59:04Z</time>
      </trkpt>
      <trkpt lat="42.575828963890672" lon="-6.626015994697809">
        <ele>517</ele>
        <time>2018-05-22T08:59:12Z</time>
      </trkpt>
      <trkpt lat="42.575828963890672" lon="-6.626008031889796">
        <ele>517</ele>
        <time>2018-05-22T08:59:12Z</time>
      </trkpt>
      <trkpt lat="42.575766015797853" lon="-6.625677030533552">
        <ele>517</ele>
        <time>2018-05-22T08:59:19Z</time>
      </trkpt>
      <trkpt lat="42.575739026069641" lon="-6.625421969220042">
        <ele>517</ele>
        <time>2018-05-22T08:59:25Z</time>
      </trkpt>
      <trkpt lat="42.575714970007539" lon="-6.625217031687498">
        <ele>516</ele>
        <time>2018-05-22T08:59:29Z</time>
      </trkpt>
      <trkpt lat="42.575714970007539" lon="-6.625199010595679">
        <ele>516</ele>
        <time>2018-05-22T08:59:30Z</time>
      </trkpt>
      <trkpt lat="42.575697032734752" lon="-6.625124998390675">
        <ele>516</ele>
        <time>2018-05-22T08:59:31Z</time>
      </trkpt>
      <trkpt lat="42.575678005814552" lon="-6.625066995620728">
        <ele>516</ele>
        <time>2018-05-22T08:59:33Z</time>
      </trkpt>
      <trkpt lat="42.575669037178159" lon="-6.624998012557626">
        <ele>516</ele>
        <time>2018-05-22T08:59:34Z</time>
      </trkpt>
      <trkpt lat="42.575655039399862" lon="-6.624934980645776">
        <ele>516</ele>
        <time>2018-05-22T08:59:36Z</time>
      </trkpt>
      <trkpt lat="42.575636012479663" lon="-6.624870020896196">
        <ele>516</ele>
        <time>2018-05-22T08:59:37Z</time>
      </trkpt>
      <trkpt lat="42.57563098333776" lon="-6.62481302395463">
        <ele>516</ele>
        <time>2018-05-22T08:59:38Z</time>
      </trkpt>
      <trkpt lat="42.575616985559464" lon="-6.624755021184683">
        <ele>516</ele>
        <time>2018-05-22T08:59:40Z</time>
      </trkpt>
      <trkpt lat="42.575602987781167" lon="-6.624680003151298">
        <ele>516</ele>
        <time>2018-05-22T08:59:41Z</time>
      </trkpt>
      <trkpt lat="42.575588990002871" lon="-6.624616971239448">
        <ele>516</ele>
        <time>2018-05-22T08:59:43Z</time>
      </trkpt>
      <trkpt lat="42.575584966689348" lon="-6.624554023146629">
        <ele>516</ele>
        <time>2018-05-22T08:59:44Z</time>
      </trkpt>
      <trkpt lat="42.575574992224574" lon="-6.624488979578018">
        <ele>516</ele>
        <time>2018-05-22T08:59:46Z</time>
      </trkpt>
      <trkpt lat="42.575574992224574" lon="-6.624359982088208">
        <ele>515</ele>
        <time>2018-05-22T08:59:49Z</time>
      </trkpt>
      <trkpt lat="42.575556971132755" lon="-6.624090000987053">
        <ele>515</ele>
        <time>2018-05-22T08:59:54Z</time>
      </trkpt>
      <trkpt lat="42.575528975576162" lon="-6.623805016279221">
        <ele>515</ele>
        <time>2018-05-22T09:00:01Z</time>
      </trkpt>
      <trkpt lat="42.575528975576162" lon="-6.623796969652176">
        <ele>515</ele>
        <time>2018-05-22T09:00:01Z</time>
      </trkpt>
      <trkpt lat="42.575500980019569" lon="-6.623534029349685">
        <ele>517</ele>
        <time>2018-05-22T09:00:07Z</time>
      </trkpt>
      <trkpt lat="42.575486982241273" lon="-6.623208979144692">
        <ele>517</ele>
        <time>2018-05-22T09:00:14Z</time>
      </trkpt>
      <trkpt lat="42.575486982241273" lon="-6.62320101633668">
        <ele>517</ele>
        <time>2018-05-22T09:00:14Z</time>
      </trkpt>
      <trkpt lat="42.575470972806215" lon="-6.622902033850551">
        <ele>516</ele>
        <time>2018-05-22T09:00:20Z</time>
      </trkpt>
      <trkpt lat="42.575456975027919" lon="-6.622593998908997">
        <ele>514</ele>
        <time>2018-05-22T09:00:27Z</time>
      </trkpt>
      <trkpt lat="42.575456975027919" lon="-6.622586036100984">
        <ele>514</ele>
        <time>2018-05-22T09:00:27Z</time>
      </trkpt>
      <trkpt lat="42.575452029705048" lon="-6.622400041669607">
        <ele>514</ele>
        <time>2018-05-22T09:00:31Z</time>
      </trkpt>
      <trkpt lat="42.575434008613229" lon="-6.622082032263279">
        <ele>514</ele>
        <time>2018-05-22T09:00:38Z</time>
      </trkpt>
      <trkpt lat="42.575395032763481" lon="-6.621747007593513">
        <ele>515</ele>
        <time>2018-05-22T09:00:46Z</time>
      </trkpt>
      <trkpt lat="42.575371982529759" lon="-6.621468979865313">
        <ele>515</ele>
        <time>2018-05-22T09:00:52Z</time>
      </trkpt>
      <trkpt lat="42.575339041650295" lon="-6.621106965467334">
        <ele>514</ele>
        <time>2018-05-22T09:01:00Z</time>
      </trkpt>
      <trkpt lat="42.575339041650295" lon="-6.620759032666683">
        <ele>514</ele>
        <time>2018-05-22T09:01:07Z</time>
      </trkpt>
      <trkpt lat="42.575306016951799" lon="-6.620471030473709">
        <ele>514</ele>
        <time>2018-05-22T09:01:14Z</time>
      </trkpt>
      <trkpt lat="42.575278021395206" lon="-6.620101975277066">
        <ele>517</ele>
        <time>2018-05-22T09:01:22Z</time>
      </trkpt>
      <trkpt lat="42.575240973383188" lon="-6.619705008342862">
        <ele>517</ele>
        <time>2018-05-22T09:01:30Z</time>
      </trkpt>
      <trkpt lat="42.575207026675344" lon="-6.619261018931866">
        <ele>518</ele>
        <time>2018-05-22T09:01:40Z</time>
      </trkpt>
      <trkpt lat="42.575165033340454" lon="-6.618789033964276">
        <ele>518</ele>
        <time>2018-05-22T09:01:51Z</time>
      </trkpt>
      <trkpt lat="42.575165033340454" lon="-6.618781993165612">
        <ele>518</ele>
        <time>2018-05-22T09:01:51Z</time>
      </trkpt>
      <trkpt lat="42.575117005035281" lon="-6.618346972391009">
        <ele>518</ele>
        <time>2018-05-22T09:02:00Z</time>
      </trkpt>
      <trkpt lat="42.575079035013914" lon="-6.618040027096868">
        <ele>518</ele>
        <time>2018-05-22T09:02:07Z</time>
      </trkpt>
      <trkpt lat="42.575050033628941" lon="-6.617700979113579">
        <ele>518</ele>
        <time>2018-05-22T09:02:14Z</time>
      </trkpt>
      <trkpt lat="42.574994964525104" lon="-6.617300994694233">
        <ele>518</ele>
        <time>2018-05-22T09:02:23Z</time>
      </trkpt>
      <trkpt lat="42.574907960370183" lon="-6.616895981132984">
        <ele>517</ele>
        <time>2018-05-22T09:02:33Z</time>
      </trkpt>
      <trkpt lat="42.574892034754157" lon="-6.616742005571723">
        <ele>517</ele>
        <time>2018-05-22T09:02:36Z</time>
      </trkpt>
      <trkpt lat="42.574825985357165" lon="-6.616403963416815">
        <ele>517</ele>
        <time>2018-05-22T09:02:44Z</time>
      </trkpt>
      <trkpt lat="42.574778040871024" lon="-6.616082014515996">
        <ele>518</ele>
        <time>2018-05-22T09:02:51Z</time>
      </trkpt>
      <trkpt lat="42.574754990637302" lon="-6.61566199734807">
        <ele>518</ele>
        <time>2018-05-22T09:03:00Z</time>
      </trkpt>
      <trkpt lat="42.574722971767187" lon="-6.615271987393498">
        <ele>520</ele>
        <time>2018-05-22T09:03:08Z</time>
      </trkpt>
      <trkpt lat="42.574686007574201" lon="-6.614939980208874">
        <ele>520</ele>
        <time>2018-05-22T09:03:16Z</time>
      </trkpt>
      <trkpt lat="42.574659017845988" lon="-6.614623982459307">
        <ele>520</ele>
        <time>2018-05-22T09:03:23Z</time>
      </trkpt>
      <trkpt lat="42.57464200258255" lon="-6.614276971668005">
        <ele>521</ele>
        <time>2018-05-22T09:03:30Z</time>
      </trkpt>
      <trkpt lat="42.574629010632634" lon="-6.613896014168859">
        <ele>521</ele>
        <time>2018-05-22T09:03:38Z</time>
      </trkpt>
      <trkpt lat="42.574600009247661" lon="-6.613532993942499">
        <ele>521</ele>
        <time>2018-05-22T09:03:46Z</time>
      </trkpt>
      <trkpt lat="42.57457603700459" lon="-6.613279022276402">
        <ele>520</ele>
        <time>2018-05-22T09:03:52Z</time>
      </trkpt>
      <trkpt lat="42.574572013691068" lon="-6.612974004819989">
        <ele>520</ele>
        <time>2018-05-22T09:03:59Z</time>
      </trkpt>
      <trkpt lat="42.574565978720784" lon="-6.612924970686436">
        <ele>520</ele>
        <time>2018-05-22T09:04:00Z</time>
      </trkpt>
      <trkpt lat="42.574559021741152" lon="-6.612876020371914">
        <ele>520</ele>
        <time>2018-05-22T09:04:01Z</time>
      </trkpt>
      <trkpt lat="42.574551980942488" lon="-6.61282698623836">
        <ele>522</ele>
        <time>2018-05-22T09:04:02Z</time>
      </trkpt>
      <trkpt lat="42.574546029791236" lon="-6.6127610206604">
        <ele>522</ele>
        <time>2018-05-22T09:04:03Z</time>
      </trkpt>
      <trkpt lat="42.57453597150743" lon="-6.612711986526847">
        <ele>522</ele>
        <time>2018-05-22T09:04:04Z</time>
      </trkpt>
      <trkpt lat="42.574529014527798" lon="-6.612666975706816">
        <ele>522</ele>
        <time>2018-05-22T09:04:05Z</time>
      </trkpt>
      <trkpt lat="42.574516022577882" lon="-6.612620959058404">
        <ele>522</ele>
        <time>2018-05-22T09:04:07Z</time>
      </trkpt>
      <trkpt lat="42.574505964294076" lon="-6.612576032057405">
        <ele>522</ele>
        <time>2018-05-22T09:04:08Z</time>
      </trkpt>
      <trkpt lat="42.574499007314444" lon="-6.612538984045386">
        <ele>522</ele>
        <time>2018-05-22T09:04:08Z</time>
      </trkpt>
      <trkpt lat="42.57449297234416" lon="-6.61250302568078">
        <ele>522</ele>
        <time>2018-05-22T09:04:09Z</time>
      </trkpt>
      <trkpt lat="42.574486015364528" lon="-6.612465977668762">
        <ele>522</ele>
        <time>2018-05-22T09:04:10Z</time>
      </trkpt>
      <trkpt lat="42.574469000101089" lon="-6.612436976283789">
        <ele>522</ele>
        <time>2018-05-22T09:04:11Z</time>
      </trkpt>
      <trkpt lat="42.574452990666032" lon="-6.612400012090802">
        <ele>522</ele>
        <time>2018-05-22T09:04:12Z</time>
      </trkpt>
      <trkpt lat="42.574438992887735" lon="-6.612359024584293">
        <ele>522</ele>
        <time>2018-05-22T09:04:13Z</time>
      </trkpt>
      <trkpt lat="42.574422983452678" lon="-6.612325999885798">
        <ele>522</ele>
        <time>2018-05-22T09:04:14Z</time>
      </trkpt>
      <trkpt lat="42.57440596818924" lon="-6.612296998500824">
        <ele>522</ele>
        <time>2018-05-22T09:04:14Z</time>
      </trkpt>
      <trkpt lat="42.574389036744833" lon="-6.612264979630709">
        <ele>522</ele>
        <time>2018-05-22T09:04:15Z</time>
      </trkpt>
      <trkpt lat="42.574373027309775" lon="-6.612232038751245">
        <ele>522</ele>
        <time>2018-05-22T09:04:16Z</time>
      </trkpt>
      <trkpt lat="42.574359029531479" lon="-6.612190967425704">
        <ele>522</ele>
        <time>2018-05-22T09:04:17Z</time>
      </trkpt>
      <trkpt lat="42.574343020096421" lon="-6.612149979919195">
        <ele>522</ele>
        <time>2018-05-22T09:04:18Z</time>
      </trkpt>
      <trkpt lat="42.574328016489744" lon="-6.612119972705841">
        <ele>522</ele>
        <time>2018-05-22T09:04:19Z</time>
      </trkpt>
      <trkpt lat="42.574312007054687" lon="-6.612087031826377">
        <ele>522</ele>
        <time>2018-05-22T09:04:20Z</time>
      </trkpt>
      <trkpt lat="42.574288034811616" lon="-6.612054007127881">
        <ele>522</ele>
        <time>2018-05-22T09:04:21Z</time>
      </trkpt>
      <trkpt lat="42.574268002063036" lon="-6.61202902905643">
        <ele>522</ele>
        <time>2018-05-22T09:04:22Z</time>
      </trkpt>
      <trkpt lat="42.574245035648346" lon="-6.61200899630785">
        <ele>523</ele>
        <time>2018-05-22T09:04:22Z</time>
      </trkpt>
      <trkpt lat="42.574225002899766" lon="-6.611979994922876">
        <ele>523</ele>
        <time>2018-05-22T09:04:23Z</time>
      </trkpt>
      <trkpt lat="42.574194995686412" lon="-6.61194303072989">
        <ele>523</ele>
        <time>2018-05-22T09:04:24Z</time>
      </trkpt>
      <trkpt lat="42.574174962937832" lon="-6.611918974667788">
        <ele>523</ele>
        <time>2018-05-22T09:04:25Z</time>
      </trkpt>
      <trkpt lat="42.57414797320962" lon="-6.611893996596336">
        <ele>523</ele>
        <time>2018-05-22T09:04:26Z</time>
      </trkpt>
      <trkpt lat="42.57412500679493" lon="-6.611873041838408">
        <ele>523</ele>
        <time>2018-05-22T09:04:27Z</time>
      </trkpt>
      <trkpt lat="42.574098017066717" lon="-6.611848985776305">
        <ele>523</ele>
        <time>2018-05-22T09:04:28Z</time>
      </trkpt>
      <trkpt lat="42.574078990146518" lon="-6.611831970512867">
        <ele>525</ele>
        <time>2018-05-22T09:04:29Z</time>
      </trkpt>
      <trkpt lat="42.574056023731828" lon="-6.611812021583319">
        <ele>523</ele>
        <time>2018-05-22T09:04:29Z</time>
      </trkpt>
      <trkpt lat="42.574021993204951" lon="-6.611790983006358">
        <ele>523</ele>
        <time>2018-05-22T09:04:31Z</time>
      </trkpt>
      <trkpt lat="42.57391001097858" lon="-6.611700961366296">
        <ele>523</ele>
        <time>2018-05-22T09:04:34Z</time>
      </trkpt>
      <trkpt lat="42.573789982125163" lon="-6.611585039645433">
        <ele>523</ele>
        <time>2018-05-22T09:04:39Z</time>
      </trkpt>
      <trkpt lat="42.57369602099061" lon="-6.611481020227075">
        <ele>523</ele>
        <time>2018-05-22T09:04:42Z</time>
      </trkpt>
      <trkpt lat="42.573573980480433" lon="-6.611340036615729">
        <ele>523</ele>
        <time>2018-05-22T09:04:47Z</time>
      </trkpt>
      <trkpt lat="42.573475996032357" lon="-6.611224031075835">
        <ele>523</ele>
        <time>2018-05-22T09:04:51Z</time>
      </trkpt>
      <trkpt lat="42.573363007977605" lon="-6.611028984189034">
        <ele>525</ele>
        <time>2018-05-22T09:04:56Z</time>
      </trkpt>
      <trkpt lat="42.573290001600981" lon="-6.610851036384702">
        <ele>525</ele>
        <time>2018-05-22T09:05:01Z</time>
      </trkpt>
      <trkpt lat="42.573185982182622" lon="-6.610632017254829">
        <ele>525</ele>
        <time>2018-05-22T09:05:06Z</time>
      </trkpt>
      <trkpt lat="42.57307299412787" lon="-6.610450968146324">
        <ele>525</ele>
        <time>2018-05-22T09:05:12Z</time>
      </trkpt>
      <trkpt lat="42.572994958609343" lon="-6.610270002856851">
        <ele>527</ele>
        <time>2018-05-22T09:05:16Z</time>
      </trkpt>
      <trkpt lat="42.57292496971786" lon="-6.610090965405107">
        <ele>527</ele>
        <time>2018-05-22T09:05:21Z</time>
      </trkpt>
      <trkpt lat="42.572884988039732" lon="-6.609959034249187">
        <ele>527</ele>
        <time>2018-05-22T09:05:24Z</time>
      </trkpt>
      <trkpt lat="42.57285799831152" lon="-6.609830036759377">
        <ele>527</ele>
        <time>2018-05-22T09:05:27Z</time>
      </trkpt>
      <trkpt lat="42.572801001369953" lon="-6.609590984880924">
        <ele>527</ele>
        <time>2018-05-22T09:05:32Z</time>
      </trkpt>
      <trkpt lat="42.572744004428387" lon="-6.609399039298296">
        <ele>528</ele>
        <time>2018-05-22T09:05:37Z</time>
      </trkpt>
      <trkpt lat="42.572678038850427" lon="-6.609183037653565">
        <ele>528</ele>
        <time>2018-05-22T09:05:42Z</time>
      </trkpt>
      <trkpt lat="42.572631016373634" lon="-6.609016992151737">
        <ele>528</ele>
        <time>2018-05-22T09:05:46Z</time>
      </trkpt>
      <trkpt lat="42.57262397557497" lon="-6.608980027958751">
        <ele>528</ele>
        <time>2018-05-22T09:05:46Z</time>
      </trkpt>
      <trkpt lat="42.572610983625054" lon="-6.608939040452242">
        <ele>528</ele>
        <time>2018-05-22T09:05:47Z</time>
      </trkpt>
      <trkpt lat="42.572571001946926" lon="-6.608792021870613">
        <ele>528</ele>
        <time>2018-05-22T09:05:51Z</time>
      </trkpt>
      <trkpt lat="42.572548035532236" lon="-6.608734019100666">
        <ele>528</ele>
        <time>2018-05-22T09:05:52Z</time>
      </trkpt>
      <trkpt lat="42.572517022490501" lon="-6.608688002452254">
        <ele>531</ele>
        <time>2018-05-22T09:05:54Z</time>
      </trkpt>
      <trkpt lat="42.572490032762289" lon="-6.608680039644241">
        <ele>531</ele>
        <time>2018-05-22T09:05:54Z</time>
      </trkpt>
      <trkpt lat="42.572466982528567" lon="-6.608659001067281">
        <ele>531</ele>
        <time>2018-05-22T09:05:55Z</time>
      </trkpt>
      <trkpt lat="42.572436975315213" lon="-6.608638968318701">
        <ele>531</ele>
        <time>2018-05-22T09:05:56Z</time>
      </trkpt>
      <trkpt lat="42.572419960051775" lon="-6.608609966933727">
        <ele>531</ele>
        <time>2018-05-22T09:05:57Z</time>
      </trkpt>
      <trkpt lat="42.572406968101859" lon="-6.608579959720373">
        <ele>531</ele>
        <time>2018-05-22T09:05:58Z</time>
      </trkpt>
      <trkpt lat="42.572414008900523" lon="-6.608547018840909">
        <ele>531</ele>
        <time>2018-05-22T09:05:59Z</time>
      </trkpt>
      <trkpt lat="42.572419960051775" lon="-6.6085060313344">
        <ele>531</ele>
        <time>2018-05-22T09:05:59Z</time>
      </trkpt>
      <trkpt lat="42.572436975315213" lon="-6.608477029949427">
        <ele>531</ele>
        <time>2018-05-22T09:06:00Z</time>
      </trkpt>
      <trkpt lat="42.572452984750271" lon="-6.608448028564453">
        <ele>531</ele>
        <time>2018-05-22T09:06:01Z</time>
      </trkpt>
      <trkpt lat="42.572460025548935" lon="-6.608407041057944">
        <ele>531</ele>
        <time>2018-05-22T09:06:02Z</time>
      </trkpt>
      <trkpt lat="42.57247100584209" lon="-6.608372004702687">
        <ele>531</ele>
        <time>2018-05-22T09:06:03Z</time>
      </trkpt>
      <trkpt lat="42.572477962821722" lon="-6.608335040509701">
        <ele>531</ele>
        <time>2018-05-22T09:06:04Z</time>
      </trkpt>
      <trkpt lat="42.572477962821722" lon="-6.608286006376147">
        <ele>531</ele>
        <time>2018-05-22T09:06:05Z</time>
      </trkpt>
      <trkpt lat="42.572477962821722" lon="-6.608248958364129">
        <ele>531</ele>
        <time>2018-05-22T09:06:05Z</time>
      </trkpt>
      <trkpt lat="42.572477962821722" lon="-6.608211994171143">
        <ele>531</ele>
        <time>2018-05-22T09:06:06Z</time>
      </trkpt>
      <trkpt lat="42.57247100584209" lon="-6.608175029978156">
        <ele>531</ele>
        <time>2018-05-22T09:06:07Z</time>
      </trkpt>
      <trkpt lat="42.572462037205696" lon="-6.608115015551448">
        <ele>531</ele>
        <time>2018-05-22T09:06:08Z</time>
      </trkpt>
      <trkpt lat="42.572448961436749" lon="-6.608074028044939">
        <ele>531</ele>
        <time>2018-05-22T09:06:09Z</time>
      </trkpt>
      <trkpt lat="42.572435969486833" lon="-6.608028011396527">
        <ele>531</ele>
        <time>2018-05-22T09:06:11Z</time>
      </trkpt>
      <trkpt lat="42.57240797393024" lon="-6.607942013069987">
        <ele>531</ele>
        <time>2018-05-22T09:06:13Z</time>
      </trkpt>
      <trkpt lat="42.572393976151943" lon="-6.607917034998536">
        <ele>531</ele>
        <time>2018-05-22T09:06:13Z</time>
      </trkpt>
      <trkpt lat="42.57238500751555" lon="-6.607875963672996">
        <ele>533</ele>
        <time>2018-05-22T09:06:14Z</time>
      </trkpt>
      <trkpt lat="42.572377966716886" lon="-6.607838999480009">
        <ele>533</ele>
        <time>2018-05-22T09:06:15Z</time>
      </trkpt>
      <trkpt lat="42.572375033050776" lon="-6.607802035287023">
        <ele>533</ele>
        <time>2018-05-22T09:06:16Z</time>
      </trkpt>
      <trkpt lat="42.572375033050776" lon="-6.607760963961482">
        <ele>533</ele>
        <time>2018-05-22T09:06:17Z</time>
      </trkpt>
      <trkpt lat="42.572375033050776" lon="-6.607719976454973">
        <ele>533</ele>
        <time>2018-05-22T09:06:18Z</time>
      </trkpt>
      <trkpt lat="42.572371009737253" lon="-6.607678988948464">
        <ele>533</ele>
        <time>2018-05-22T09:06:18Z</time>
      </trkpt>
      <trkpt lat="42.57236497476697" lon="-6.607638001441956">
        <ele>533</ele>
        <time>2018-05-22T09:06:19Z</time>
      </trkpt>
      <trkpt lat="42.572358017787337" lon="-6.607597013935447">
        <ele>533</ele>
        <time>2018-05-22T09:06:20Z</time>
      </trkpt>
      <trkpt lat="42.572350976988673" lon="-6.607555020600557">
        <ele>533</ele>
        <time>2018-05-22T09:06:21Z</time>
      </trkpt>
      <trkpt lat="42.572347959503531" lon="-6.607488971203566">
        <ele>533</ele>
        <time>2018-05-22T09:06:23Z</time>
      </trkpt>
      <trkpt lat="42.572347959503531" lon="-6.607452007010579">
        <ele>533</ele>
        <time>2018-05-22T09:06:24Z</time>
      </trkpt>
      <trkpt lat="42.572347959503531" lon="-6.60741101950407">
        <ele>533</ele>
        <time>2018-05-22T09:06:24Z</time>
      </trkpt>
      <trkpt lat="42.572345025837421" lon="-6.607370031997562">
        <ele>533</ele>
        <time>2018-05-22T09:06:25Z</time>
      </trkpt>
      <trkpt lat="42.572345025837421" lon="-6.60732502117753">
        <ele>533</ele>
        <time>2018-05-22T09:06:26Z</time>
      </trkpt>
      <trkpt lat="42.572345025837421" lon="-6.607284033671022">
        <ele>533</ele>
        <time>2018-05-22T09:06:27Z</time>
      </trkpt>
      <trkpt lat="42.572345025837421" lon="-6.607234999537468">
        <ele>533</ele>
        <time>2018-05-22T09:06:28Z</time>
      </trkpt>
      <trkpt lat="42.572337985038757" lon="-6.607188982889056">
        <ele>533</ele>
        <time>2018-05-22T09:06:29Z</time>
      </trkpt>
      <trkpt lat="42.572337985038757" lon="-6.607147995382547">
        <ele>533</ele>
        <time>2018-05-22T09:06:30Z</time>
      </trkpt>
      <trkpt lat="42.572334967553616" lon="-6.607107007876039">
        <ele>533</ele>
        <time>2018-05-22T09:06:31Z</time>
      </trkpt>
      <trkpt lat="42.572334967553616" lon="-6.607061997056007">
        <ele>537</ele>
        <time>2018-05-22T09:06:32Z</time>
      </trkpt>
      <trkpt lat="42.572334967553616" lon="-6.607005000114441">
        <ele>537</ele>
        <time>2018-05-22T09:06:33Z</time>
      </trkpt>
      <trkpt lat="42.572331028059125" lon="-6.606968035921454">
        <ele>537</ele>
        <time>2018-05-22T09:06:34Z</time>
      </trkpt>
      <trkpt lat="42.572331028059125" lon="-6.606919001787901">
        <ele>537</ele>
        <time>2018-05-22T09:06:35Z</time>
      </trkpt>
      <trkpt lat="42.572328010573983" lon="-6.606882037594914">
        <ele>537</ele>
        <time>2018-05-22T09:06:36Z</time>
      </trkpt>
      <trkpt lat="42.572328010573983" lon="-6.606840966269374">
        <ele>537</ele>
        <time>2018-05-22T09:06:37Z</time>
      </trkpt>
      <trkpt lat="42.572328010573983" lon="-6.606804002076387">
        <ele>537</ele>
        <time>2018-05-22T09:06:38Z</time>
      </trkpt>
      <trkpt lat="42.572320969775319" lon="-6.606767037883401">
        <ele>537</ele>
        <time>2018-05-22T09:06:38Z</time>
      </trkpt>
      <trkpt lat="42.572320969775319" lon="-6.60672596655786">
        <ele>537</ele>
        <time>2018-05-22T09:06:39Z</time>
      </trkpt>
      <trkpt lat="42.572315018624067" lon="-6.606664024293423">
        <ele>537</ele>
        <time>2018-05-22T09:06:41Z</time>
      </trkpt>
      <trkpt lat="42.572315018624067" lon="-6.606619013473392">
        <ele>537</ele>
        <time>2018-05-22T09:06:42Z</time>
      </trkpt>
      <trkpt lat="42.572310995310545" lon="-6.606578025966883">
        <ele>537</ele>
        <time>2018-05-22T09:06:43Z</time>
      </trkpt>
      <trkpt lat="42.572307977825403" lon="-6.606533015146852">
        <ele>537</ele>
        <time>2018-05-22T09:06:44Z</time>
      </trkpt>
      <trkpt lat="42.572307977825403" lon="-6.606492027640343">
        <ele>537</ele>
        <time>2018-05-22T09:06:45Z</time>
      </trkpt>
      <trkpt lat="42.572301020845771" lon="-6.606451040133834">
        <ele>537</ele>
        <time>2018-05-22T09:06:45Z</time>
      </trkpt>
      <trkpt lat="42.572294985875487" lon="-6.606409968808293">
        <ele>537</ele>
        <time>2018-05-22T09:06:46Z</time>
      </trkpt>
      <trkpt lat="42.572290962561965" lon="-6.606368981301785">
        <ele>537</ele>
        <time>2018-05-22T09:06:47Z</time>
      </trkpt>
      <trkpt lat="42.572288028895855" lon="-6.606323970481753">
        <ele>537</ele>
        <time>2018-05-22T09:06:48Z</time>
      </trkpt>
      <trkpt lat="42.572280988097191" lon="-6.606275020167232">
        <ele>537</ele>
        <time>2018-05-22T09:06:49Z</time>
      </trkpt>
      <trkpt lat="42.572271013632417" lon="-6.60622900351882">
        <ele>537</ele>
        <time>2018-05-22T09:06:50Z</time>
      </trkpt>
      <trkpt lat="42.572271013632417" lon="-6.606188016012311">
        <ele>537</ele>
        <time>2018-05-22T09:06:51Z</time>
      </trkpt>
      <trkpt lat="42.572264978662133" lon="-6.60614300519228">
        <ele>537</ele>
        <time>2018-05-22T09:06:52Z</time>
      </trkpt>
      <trkpt lat="42.572261039167643" lon="-6.606093971058726">
        <ele>540</ele>
        <time>2018-05-22T09:06:53Z</time>
      </trkpt>
      <trkpt lat="42.572255004197359" lon="-6.606045020744205">
        <ele>540</ele>
        <time>2018-05-22T09:06:54Z</time>
      </trkpt>
      <trkpt lat="42.572250980883837" lon="-6.606004033237696">
        <ele>540</ele>
        <time>2018-05-22T09:06:55Z</time>
      </trkpt>
      <trkpt lat="42.572250980883837" lon="-6.605959022417665">
        <ele>540</ele>
        <time>2018-05-22T09:06:56Z</time>
      </trkpt>
      <trkpt lat="42.572250980883837" lon="-6.605918034911156">
        <ele>540</ele>
        <time>2018-05-22T09:06:57Z</time>
      </trkpt>
      <trkpt lat="42.572247963398695" lon="-6.605870006605983">
        <ele>540</ele>
        <time>2018-05-22T09:06:58Z</time>
      </trkpt>
      <trkpt lat="42.572232959792018" lon="-6.60582298412919">
        <ele>540</ele>
        <time>2018-05-22T09:06:59Z</time>
      </trkpt>
      <trkpt lat="42.572206975892186" lon="-6.605676971375942">
        <ele>540</ele>
        <time>2018-05-22T09:07:03Z</time>
      </trkpt>
      <trkpt lat="42.572203036397696" lon="-6.605644030496478">
        <ele>540</ele>
        <time>2018-05-22T09:07:03Z</time>
      </trkpt>
      <trkpt lat="42.572197001427412" lon="-6.605602959170938">
        <ele>540</ele>
        <time>2018-05-22T09:07:04Z</time>
      </trkpt>
      <trkpt lat="42.572197001427412" lon="-6.605565994977951">
        <ele>540</ele>
        <time>2018-05-22T09:07:05Z</time>
      </trkpt>
      <trkpt lat="42.57219297811389" lon="-6.605529030784965">
        <ele>540</ele>
        <time>2018-05-22T09:07:06Z</time>
      </trkpt>
      <trkpt lat="42.572189960628748" lon="-6.605487959459424">
        <ele>540</ele>
        <time>2018-05-22T09:07:07Z</time>
      </trkpt>
      <trkpt lat="42.572189960628748" lon="-6.605446971952915">
        <ele>540</ele>
        <time>2018-05-22T09:07:08Z</time>
      </trkpt>
      <trkpt lat="42.572189960628748" lon="-6.605405984446406">
        <ele>540</ele>
        <time>2018-05-22T09:07:09Z</time>
      </trkpt>
      <trkpt lat="42.572189960628748" lon="-6.60534898750484">
        <ele>540</ele>
        <time>2018-05-22T09:07:10Z</time>
      </trkpt>
      <trkpt lat="42.572187026962638" lon="-6.605312023311853">
        <ele>540</ele>
        <time>2018-05-22T09:07:11Z</time>
      </trkpt>
      <trkpt lat="42.572179986163974" lon="-6.605249997228384">
        <ele>541</ele>
        <time>2018-05-22T09:07:12Z</time>
      </trkpt>
      <trkpt lat="42.572173029184341" lon="-6.605200963094831">
        <ele>541</ele>
        <time>2018-05-22T09:07:13Z</time>
      </trkpt>
      <trkpt lat="42.572162970900536" lon="-6.605152012780309">
        <ele>541</ele>
        <time>2018-05-22T09:07:14Z</time>
      </trkpt>
      <trkpt lat="42.572146961465478" lon="-6.605094010010362">
        <ele>541</ele>
        <time>2018-05-22T09:07:16Z</time>
      </trkpt>
      <trkpt lat="42.572140004485846" lon="-6.605056039988995">
        <ele>541</ele>
        <time>2018-05-22T09:07:16Z</time>
      </trkpt>
      <trkpt lat="42.572122989222407" lon="-6.605018991976976">
        <ele>541</ele>
        <time>2018-05-22T09:07:17Z</time>
      </trkpt>
      <trkpt lat="42.572113014757633" lon="-6.60498202778399">
        <ele>542</ele>
        <time>2018-05-22T09:07:18Z</time>
      </trkpt>
      <trkpt lat="42.572100022807717" lon="-6.604953026399016">
        <ele>542</ele>
        <time>2018-05-22T09:07:19Z</time>
      </trkpt>
      <trkpt lat="42.572092982009053" lon="-6.604912038892508">
        <ele>542</ele>
        <time>2018-05-22T09:07:20Z</time>
      </trkpt>
      <trkpt lat="42.572076972573996" lon="-6.604883959516883">
        <ele>542</ele>
        <time>2018-05-22T09:07:21Z</time>
      </trkpt>
      <trkpt lat="42.572062974795699" lon="-6.604834003373981">
        <ele>542</ele>
        <time>2018-05-22T09:07:22Z</time>
      </trkpt>
      <trkpt lat="42.572049982845783" lon="-6.604788992553949">
        <ele>542</ele>
        <time>2018-05-22T09:07:23Z</time>
      </trkpt>
      <trkpt lat="42.572040008381009" lon="-6.604751022532582">
        <ele>542</ele>
        <time>2018-05-22T09:07:24Z</time>
      </trkpt>
      <trkpt lat="42.572027016431093" lon="-6.604713974520564">
        <ele>542</ele>
        <time>2018-05-22T09:07:25Z</time>
      </trkpt>
      <trkpt lat="42.572010001167655" lon="-6.604668963700533">
        <ele>542</ele>
        <time>2018-05-22T09:07:26Z</time>
      </trkpt>
      <trkpt lat="42.571992985904217" lon="-6.604631999507546">
        <ele>542</ele>
        <time>2018-05-22T09:07:27Z</time>
      </trkpt>
      <trkpt lat="42.571976976469159" lon="-6.604602998122573">
        <ele>542</ele>
        <time>2018-05-22T09:07:28Z</time>
      </trkpt>
      <trkpt lat="42.571962978690863" lon="-6.604569973424077">
        <ele>542</ele>
        <time>2018-05-22T09:07:28Z</time>
      </trkpt>
      <trkpt lat="42.571949986740947" lon="-6.604536026716232">
        <ele>542</ele>
        <time>2018-05-22T09:07:29Z</time>
      </trkpt>
      <trkpt lat="42.571933977305889" lon="-6.604486992582679">
        <ele>542</ele>
        <time>2018-05-22T09:07:30Z</time>
      </trkpt>
      <trkpt lat="42.571919979527593" lon="-6.604453967884183">
        <ele>544</ele>
        <time>2018-05-22T09:07:31Z</time>
      </trkpt>
      <trkpt lat="42.571910005062819" lon="-6.604417003691196">
        <ele>544</ele>
        <time>2018-05-22T09:07:32Z</time>
      </trkpt>
      <trkpt lat="42.571893995627761" lon="-6.604383978992701">
        <ele>544</ele>
        <time>2018-05-22T09:07:33Z</time>
      </trkpt>
      <trkpt lat="42.571876980364323" lon="-6.604351038113236">
        <ele>544</ele>
        <time>2018-05-22T09:07:34Z</time>
      </trkpt>
      <trkpt lat="42.571857031434774" lon="-6.604319019243121">
        <ele>544</ele>
        <time>2018-05-22T09:07:35Z</time>
      </trkpt>
      <trkpt lat="42.571836998686194" lon="-6.604300998151302">
        <ele>544</ele>
        <time>2018-05-22T09:07:35Z</time>
      </trkpt>
      <trkpt lat="42.571815960109234" lon="-6.604270990937948">
        <ele>544</ele>
        <time>2018-05-22T09:07:36Z</time>
      </trkpt>
      <trkpt lat="42.571788970381021" lon="-6.604230003431439">
        <ele>544</ele>
        <time>2018-05-22T09:07:37Z</time>
      </trkpt>
      <trkpt lat="42.571761980652809" lon="-6.604212988168001">
        <ele>544</ele>
        <time>2018-05-22T09:07:38Z</time>
      </trkpt>
      <trkpt lat="42.571739014238119" lon="-6.604198990389705">
        <ele>544</ele>
        <time>2018-05-22T09:07:39Z</time>
      </trkpt>
      <trkpt lat="42.571712024509907" lon="-6.604182980954647">
        <ele>544</ele>
        <time>2018-05-22T09:07:40Z</time>
      </trkpt>
      <trkpt lat="42.571688974276185" lon="-6.604159008711577">
        <ele>544</ele>
        <time>2018-05-22T09:07:41Z</time>
      </trkpt>
      <trkpt lat="42.571666007861495" lon="-6.604125984013081">
        <ele>544</ele>
        <time>2018-05-22T09:07:42Z</time>
      </trkpt>
      <trkpt lat="42.571641029790044" lon="-6.604092959314585">
        <ele>544</ele>
        <time>2018-05-22T09:07:43Z</time>
      </trkpt>
      <trkpt lat="42.57161496207118" lon="-6.604076027870178">
        <ele>544</ele>
        <time>2018-05-22T09:07:44Z</time>
      </trkpt>
      <trkpt lat="42.57159098982811" lon="-6.604060018435121">
        <ele>544</ele>
        <time>2018-05-22T09:07:45Z</time>
      </trkpt>
      <trkpt lat="42.57156802341342" lon="-6.604044009000063">
        <ele>544</ele>
        <time>2018-05-22T09:07:45Z</time>
      </trkpt>
      <trkpt lat="42.571541033685207" lon="-6.604019030928612">
        <ele>544</ele>
        <time>2018-05-22T09:07:46Z</time>
      </trkpt>
      <trkpt lat="42.571517983451486" lon="-6.603993969038129">
        <ele>544</ele>
        <time>2018-05-22T09:07:47Z</time>
      </trkpt>
      <trkpt lat="42.571490993723273" lon="-6.603969996795058">
        <ele>544</ele>
        <time>2018-05-22T09:07:48Z</time>
      </trkpt>
      <trkpt lat="42.571470960974693" lon="-6.603945018723607">
        <ele>544</ele>
        <time>2018-05-22T09:07:49Z</time>
      </trkpt>
      <trkpt lat="42.571447994560003" lon="-6.603916017338634">
        <ele>544</ele>
        <time>2018-05-22T09:07:50Z</time>
      </trkpt>
      <trkpt lat="42.571430979296565" lon="-6.603883998468518">
        <ele>544</ele>
        <time>2018-05-22T09:07:51Z</time>
      </trkpt>
      <trkpt lat="42.571404995396733" lon="-6.603837981820107">
        <ele>544</ele>
        <time>2018-05-22T09:07:52Z</time>
      </trkpt>
      <trkpt lat="42.571384962648153" lon="-6.603805962949991">
        <ele>544</ele>
        <time>2018-05-22T09:07:53Z</time>
      </trkpt>
      <trkpt lat="42.571357972919941" lon="-6.60378098487854">
        <ele>544</ele>
        <time>2018-05-22T09:07:54Z</time>
      </trkpt>
      <trkpt lat="42.571329977363348" lon="-6.603743014857173">
        <ele>544</ele>
        <time>2018-05-22T09:07:55Z</time>
      </trkpt>
      <trkpt lat="42.571309022605419" lon="-6.603724993765354">
        <ele>544</ele>
        <time>2018-05-22T09:07:56Z</time>
      </trkpt>
      <trkpt lat="42.571293013170362" lon="-6.603684006258845">
        <ele>543</ele>
        <time>2018-05-22T09:07:57Z</time>
      </trkpt>
      <trkpt lat="42.571266023442149" lon="-6.603643018752337">
        <ele>541</ele>
        <time>2018-05-22T09:07:58Z</time>
      </trkpt>
      <trkpt lat="42.571242973208427" lon="-6.603618040680885">
        <ele>541</ele>
        <time>2018-05-22T09:07:59Z</time>
      </trkpt>
      <trkpt lat="42.571219000965357" lon="-6.603589961305261">
        <ele>541</ele>
        <time>2018-05-22T09:08:00Z</time>
      </trkpt>
      <trkpt lat="42.571198968216777" lon="-6.603560959920287">
        <ele>541</ele>
        <time>2018-05-22T09:08:01Z</time>
      </trkpt>
      <trkpt lat="42.571185976266861" lon="-6.603528019040823">
        <ele>541</ele>
        <time>2018-05-22T09:08:01Z</time>
      </trkpt>
      <trkpt lat="42.571168961003423" lon="-6.603505974635482">
        <ele>541</ele>
        <time>2018-05-22T09:08:02Z</time>
      </trkpt>
      <trkpt lat="42.571145994588733" lon="-6.603469010442495">
        <ele>541</ele>
        <time>2018-05-22T09:08:03Z</time>
      </trkpt>
      <trkpt lat="42.571128979325294" lon="-6.603435985744">
        <ele>541</ele>
        <time>2018-05-22T09:08:04Z</time>
      </trkpt>
      <trkpt lat="42.571109030395746" lon="-6.603407990187407">
        <ele>541</ele>
        <time>2018-05-22T09:08:05Z</time>
      </trkpt>
      <trkpt lat="42.571088997647166" lon="-6.603367002680898">
        <ele>541</ele>
        <time>2018-05-22T09:08:06Z</time>
      </trkpt>
      <trkpt lat="42.571063013747334" lon="-6.603320986032486">
        <ele>541</ele>
        <time>2018-05-22T09:08:07Z</time>
      </trkpt>
      <trkpt lat="42.571038035675883" lon="-6.603287039324641">
        <ele>541</ele>
        <time>2018-05-22T09:08:08Z</time>
      </trkpt>
      <trkpt lat="42.570977015420794" lon="-6.603164998814464">
        <ele>541</ele>
        <time>2018-05-22T09:08:11Z</time>
      </trkpt>
      <trkpt lat="42.570915995165706" lon="-6.603045975789428">
        <ele>541</ele>
        <time>2018-05-22T09:08:15Z</time>
      </trkpt>
      <trkpt lat="42.570906020700932" lon="-6.603009011596441">
        <ele>541</ele>
        <time>2018-05-22T09:08:15Z</time>
      </trkpt>
      <trkpt lat="42.570889005437493" lon="-6.602981016039848">
        <ele>541</ele>
        <time>2018-05-22T09:08:16Z</time>
      </trkpt>
      <trkpt lat="42.570879030972719" lon="-6.602927036583424">
        <ele>541</ele>
        <time>2018-05-22T09:08:17Z</time>
      </trkpt>
      <trkpt lat="42.570858998224139" lon="-6.602870039641857">
        <ele>541</ele>
        <time>2018-05-22T09:08:19Z</time>
      </trkpt>
      <trkpt lat="42.570846006274223" lon="-6.602828968316317">
        <ele>540</ele>
        <time>2018-05-22T09:08:20Z</time>
      </trkpt>
      <trkpt lat="42.570835025981069" lon="-6.602793009951711">
        <ele>540</ele>
        <time>2018-05-22T09:08:21Z</time>
      </trkpt>
      <trkpt lat="42.570832008495927" lon="-6.602740036323667">
        <ele>540</ele>
        <time>2018-05-22T09:08:22Z</time>
      </trkpt>
      <trkpt lat="42.570822034031153" lon="-6.602695025503635">
        <ele>540</ele>
        <time>2018-05-22T09:08:23Z</time>
      </trkpt>
      <trkpt lat="42.570811975747347" lon="-6.602657977491617">
        <ele>540</ele>
        <time>2018-05-22T09:08:24Z</time>
      </trkpt>
      <trkpt lat="42.57079797796905" lon="-6.602605003863573">
        <ele>540</ele>
        <time>2018-05-22T09:08:25Z</time>
      </trkpt>
      <trkpt lat="42.570784986019135" lon="-6.602571979165077">
        <ele>540</ele>
        <time>2018-05-22T09:08:26Z</time>
      </trkpt>
      <trkpt lat="42.570771994069219" lon="-6.602517999708653">
        <ele>540</ele>
        <time>2018-05-22T09:08:27Z</time>
      </trkpt>
      <trkpt lat="42.57075497880578" lon="-6.602472988888621">
        <ele>540</ele>
        <time>2018-05-22T09:08:28Z</time>
      </trkpt>
      <trkpt lat="42.570741986855865" lon="-6.602420015260577">
        <ele>540</ele>
        <time>2018-05-22T09:08:29Z</time>
      </trkpt>
      <trkpt lat="42.570735029876232" lon="-6.602382967248559">
        <ele>540</ele>
        <time>2018-05-22T09:08:30Z</time>
      </trkpt>
      <trkpt lat="42.570722037926316" lon="-6.602350026369095">
        <ele>540</ele>
        <time>2018-05-22T09:08:31Z</time>
      </trkpt>
      <trkpt lat="42.57070804014802" lon="-6.602305015549064">
        <ele>540</ele>
        <time>2018-05-22T09:08:32Z</time>
      </trkpt>
      <trkpt lat="42.570694964379072" lon="-6.602264028042555">
        <ele>540</ele>
        <time>2018-05-22T09:08:33Z</time>
      </trkpt>
      <trkpt lat="42.570681972429156" lon="-6.602219017222524">
        <ele>540</ele>
        <time>2018-05-22T09:08:34Z</time>
      </trkpt>
      <trkpt lat="42.57066797465086" lon="-6.602181969210506">
        <ele>540</ele>
        <time>2018-05-22T09:08:35Z</time>
      </trkpt>
      <trkpt lat="42.570658000186086" lon="-6.602145005017519">
        <ele>540</ele>
        <time>2018-05-22T09:08:36Z</time>
      </trkpt>
      <trkpt lat="42.570637967437506" lon="-6.602107034996152">
        <ele>540</ele>
        <time>2018-05-22T09:08:37Z</time>
      </trkpt>
      <trkpt lat="42.570618018507957" lon="-6.602078033611178">
        <ele>540</ele>
        <time>2018-05-22T09:08:38Z</time>
      </trkpt>
      <trkpt lat="42.570594968274236" lon="-6.602056995034218">
        <ele>540</ele>
        <time>2018-05-22T09:08:39Z</time>
      </trkpt>
      <trkpt lat="42.570575019344687" lon="-6.602033022791147">
        <ele>540</ele>
        <time>2018-05-22T09:08:39Z</time>
      </trkpt>
      <trkpt lat="42.570551969110966" lon="-6.602007960900664">
        <ele>544</ele>
        <time>2018-05-22T09:08:40Z</time>
      </trkpt>
      <trkpt lat="42.570524979382753" lon="-6.601983988657594">
        <ele>544</ele>
        <time>2018-05-22T09:08:41Z</time>
      </trkpt>
      <trkpt lat="42.570494972169399" lon="-6.601959010586143">
        <ele>544</ele>
        <time>2018-05-22T09:08:42Z</time>
      </trkpt>
      <trkpt lat="42.570472005754709" lon="-6.601938977837563">
        <ele>543</ele>
        <time>2018-05-22T09:08:43Z</time>
      </trkpt>
      <trkpt lat="42.570445016026497" lon="-6.601925985887647">
        <ele>543</ele>
        <time>2018-05-22T09:08:44Z</time>
      </trkpt>
      <trkpt lat="42.570419032126665" lon="-6.601918023079634">
        <ele>543</ele>
        <time>2018-05-22T09:08:45Z</time>
      </trkpt>
      <trkpt lat="42.570385001599789" lon="-6.601909976452589">
        <ele>543</ele>
        <time>2018-05-22T09:08:46Z</time>
      </trkpt>
      <trkpt lat="42.570359017699957" lon="-6.601892961189151">
        <ele>543</ele>
        <time>2018-05-22T09:08:46Z</time>
      </trkpt>
      <trkpt lat="42.570329010486603" lon="-6.601880975067616">
        <ele>543</ele>
        <time>2018-05-22T09:08:47Z</time>
      </trkpt>
      <trkpt lat="42.57030202075839" lon="-6.60186898894608">
        <ele>543</ele>
        <time>2018-05-22T09:08:48Z</time>
      </trkpt>
      <trkpt lat="42.570264972746372" lon="-6.601861026138067">
        <ele>543</ele>
        <time>2018-05-22T09:08:49Z</time>
      </trkpt>
      <trkpt lat="42.570229014381766" lon="-6.601855996996164">
        <ele>543</ele>
        <time>2018-05-22T09:08:50Z</time>
      </trkpt>
      <trkpt lat="42.570199007168412" lon="-6.601844010874629">
        <ele>543</ele>
        <time>2018-05-22T09:08:51Z</time>
      </trkpt>
      <trkpt lat="42.570168999955058" lon="-6.601839987561107">
        <ele>543</ele>
        <time>2018-05-22T09:08:52Z</time>
      </trkpt>
      <trkpt lat="42.570134969428182" lon="-6.601832024753094">
        <ele>543</ele>
        <time>2018-05-22T09:08:53Z</time>
      </trkpt>
      <trkpt lat="42.570105968043208" lon="-6.601823978126049">
        <ele>543</ele>
        <time>2018-05-22T09:08:54Z</time>
      </trkpt>
      <trkpt lat="42.570078978314996" lon="-6.601815009489656">
        <ele>543</ele>
        <time>2018-05-22T09:08:55Z</time>
      </trkpt>
      <trkpt lat="42.570048971101642" lon="-6.60180302336812">
        <ele>543</ele>
        <time>2018-05-22T09:08:56Z</time>
      </trkpt>
      <trkpt lat="42.570021981373429" lon="-6.601799000054598">
        <ele>543</ele>
        <time>2018-05-22T09:08:57Z</time>
      </trkpt>
      <trkpt lat="42.569991974160075" lon="-6.601787013933063">
        <ele>543</ele>
        <time>2018-05-22T09:08:58Z</time>
      </trkpt>
      <trkpt lat="42.569961966946721" lon="-6.601769998669624">
        <ele>543</ele>
        <time>2018-05-22T09:08:59Z</time>
      </trkpt>
      <trkpt lat="42.569939000532031" lon="-6.601749965921044">
        <ele>543</ele>
        <time>2018-05-22T09:08:59Z</time>
      </trkpt>
      <trkpt lat="42.569912010803819" lon="-6.601733034476638">
        <ele>543</ele>
        <time>2018-05-22T09:09:00Z</time>
      </trkpt>
      <trkpt lat="42.569888960570097" lon="-6.60171702504158">
        <ele>543</ele>
        <time>2018-05-22T09:09:01Z</time>
      </trkpt>
      <trkpt lat="42.569861970841885" lon="-6.601691963151097">
        <ele>543</ele>
        <time>2018-05-22T09:09:02Z</time>
      </trkpt>
      <trkpt lat="42.569839004427195" lon="-6.601663967594504">
        <ele>543</ele>
        <time>2018-05-22T09:09:03Z</time>
      </trkpt>
      <trkpt lat="42.569818971678615" lon="-6.601638989523053">
        <ele>543</ele>
        <time>2018-05-22T09:09:04Z</time>
      </trkpt>
      <trkpt lat="42.569796005263925" lon="-6.601622980087996">
        <ele>543</ele>
        <time>2018-05-22T09:09:04Z</time>
      </trkpt>
      <trkpt lat="42.569772033020854" lon="-6.601586015895009">
        <ele>543</ele>
        <time>2018-05-22T09:09:06Z</time>
      </trkpt>
      <trkpt lat="42.569748982787132" lon="-6.601557014510036">
        <ele>543</ele>
        <time>2018-05-22T09:09:06Z</time>
      </trkpt>
      <trkpt lat="42.569718975573778" lon="-6.601541005074978">
        <ele>543</ele>
        <time>2018-05-22T09:09:07Z</time>
      </trkpt>
      <trkpt lat="42.569690980017185" lon="-6.601519966498017">
        <ele>543</ele>
        <time>2018-05-22T09:09:08Z</time>
      </trkpt>
      <trkpt lat="42.569658039137721" lon="-6.601516027003527">
        <ele>543</ele>
        <time>2018-05-22T09:09:09Z</time>
      </trkpt>
      <trkpt lat="42.569625014439225" lon="-6.601507980376482">
        <ele>543</ele>
        <time>2018-05-22T09:09:10Z</time>
      </trkpt>
      <trkpt lat="42.569595007225871" lon="-6.601507980376482">
        <ele>543</ele>
        <time>2018-05-22T09:09:11Z</time>
      </trkpt>
      <trkpt lat="42.569565000012517" lon="-6.601504040881991">
        <ele>545</ele>
        <time>2018-05-22T09:09:12Z</time>
      </trkpt>
      <trkpt lat="42.569534992799163" lon="-6.601500017568469">
        <ele>545</ele>
        <time>2018-05-22T09:09:13Z</time>
      </trkpt>
      <trkpt lat="42.569500962272286" lon="-6.601500017568469">
        <ele>545</ele>
        <time>2018-05-22T09:09:14Z</time>
      </trkpt>
      <trkpt lat="42.569468021392822" lon="-6.601500017568469">
        <ele>545</ele>
        <time>2018-05-22T09:09:15Z</time>
      </trkpt>
      <trkpt lat="42.569438014179468" lon="-6.601490965113044">
        <ele>545</ele>
        <time>2018-05-22T09:09:16Z</time>
      </trkpt>
      <trkpt lat="42.56939803250134" lon="-6.601490965113044">
        <ele>545</ele>
        <time>2018-05-22T09:09:17Z</time>
      </trkpt>
      <trkpt lat="42.569368025287986" lon="-6.601483002305031">
        <ele>545</ele>
        <time>2018-05-22T09:09:18Z</time>
      </trkpt>
      <trkpt lat="42.569338018074632" lon="-6.601483002305031">
        <ele>545</ele>
        <time>2018-05-22T09:09:19Z</time>
      </trkpt>
      <trkpt lat="42.5693120341748" lon="-6.601478978991509">
        <ele>545</ele>
        <time>2018-05-22T09:09:20Z</time>
      </trkpt>
      <trkpt lat="42.569284960627556" lon="-6.601471016183496">
        <ele>545</ele>
        <time>2018-05-22T09:09:20Z</time>
      </trkpt>
      <trkpt lat="42.569255037233233" lon="-6.601462969556451">
        <ele>545</ele>
        <time>2018-05-22T09:09:21Z</time>
      </trkpt>
      <trkpt lat="42.569227963685989" lon="-6.601446038112044">
        <ele>545</ele>
        <time>2018-05-22T09:09:22Z</time>
      </trkpt>
      <trkpt lat="42.569195022806525" lon="-6.601430028676987">
        <ele>545</ele>
        <time>2018-05-22T09:09:23Z</time>
      </trkpt>
      <trkpt lat="42.569165015593171" lon="-6.601404966786504">
        <ele>545</ele>
        <time>2018-05-22T09:09:24Z</time>
      </trkpt>
      <trkpt lat="42.569127967581153" lon="-6.601380994543433">
        <ele>545</ele>
        <time>2018-05-22T09:09:26Z</time>
      </trkpt>
      <trkpt lat="42.569097960367799" lon="-6.601360039785504">
        <ele>545</ele>
        <time>2018-05-22T09:09:27Z</time>
      </trkpt>
      <trkpt lat="42.569065019488335" lon="-6.601340007036924">
        <ele>545</ele>
        <time>2018-05-22T09:09:28Z</time>
      </trkpt>
      <trkpt lat="42.569044986739755" lon="-6.601322991773486">
        <ele>545</ele>
        <time>2018-05-22T09:09:28Z</time>
      </trkpt>
      <trkpt lat="42.569014979526401" lon="-6.601302959024906">
        <ele>545</ele>
        <time>2018-05-22T09:09:29Z</time>
      </trkpt>
      <trkpt lat="42.568988995626569" lon="-6.601293990388513">
        <ele>545</ele>
        <time>2018-05-22T09:09:30Z</time>
      </trkpt>
      <trkpt lat="42.568958988413215" lon="-6.601274041458964">
        <ele>545</ele>
        <time>2018-05-22T09:09:31Z</time>
      </trkpt>
      <trkpt lat="42.56892504170537" lon="-6.601253002882004">
        <ele>545</ele>
        <time>2018-05-22T09:09:32Z</time>
      </trkpt>
      <trkpt lat="42.568898973986506" lon="-6.601236993446946">
        <ele>545</ele>
        <time>2018-05-22T09:09:33Z</time>
      </trkpt>
      <trkpt lat="42.568871984258294" lon="-6.601207992061973">
        <ele>545</ele>
        <time>2018-05-22T09:09:34Z</time>
      </trkpt>
      <trkpt lat="42.56884197704494" lon="-6.601184019818902">
        <ele>549</ele>
        <time>2018-05-22T09:09:35Z</time>
      </trkpt>
      <trkpt lat="42.568811969831586" lon="-6.601159041747451">
        <ele>549</ele>
        <time>2018-05-22T09:09:36Z</time>
      </trkpt>
      <trkpt lat="42.568784980103374" lon="-6.601143032312393">
        <ele>549</ele>
        <time>2018-05-22T09:09:37Z</time>
      </trkpt>
      <trkpt lat="42.568758996203542" lon="-6.601121993735433">
        <ele>542</ele>
        <time>2018-05-22T09:09:38Z</time>
      </trkpt>
      <trkpt lat="42.568732006475329" lon="-6.601101960986853">
        <ele>542</ele>
        <time>2018-05-22T09:09:39Z</time>
      </trkpt>
      <trkpt lat="42.568698981776834" lon="-6.601075977087021">
        <ele>542</ele>
        <time>2018-05-22T09:09:40Z</time>
      </trkpt>
      <trkpt lat="42.568581970408559" lon="-6.600980004295707">
        <ele>542</ele>
        <time>2018-05-22T09:09:44Z</time>
      </trkpt>
      <trkpt lat="42.56843201816082" lon="-6.600838014855981">
        <ele>542</ele>
        <time>2018-05-22T09:09:49Z</time>
      </trkpt>
      <trkpt lat="42.568264966830611" lon="-6.600667024031282">
        <ele>542</ele>
        <time>2018-05-22T09:09:56Z</time>
      </trkpt>
      <trkpt lat="42.568152984604239" lon="-6.600528974086046">
        <ele>542</ele>
        <time>2018-05-22T09:10:00Z</time>
      </trkpt>
      <trkpt lat="42.568062040954828" lon="-6.60044901072979">
        <ele>542</ele>
        <time>2018-05-22T09:10:03Z</time>
      </trkpt>
      <trkpt lat="42.567915022373199" lon="-6.60038597881794">
        <ele>534</ele>
        <time>2018-05-22T09:10:08Z</time>
      </trkpt>
      <trkpt lat="42.567851990461349" lon="-6.60027801990509">
        <ele>537</ele>
        <time>2018-05-22T09:10:11Z</time>
      </trkpt>
      <trkpt lat="42.567587960511446" lon="-6.599971996620297">
        <ele>537</ele>
        <time>2018-05-22T09:10:21Z</time>
      </trkpt>
      <trkpt lat="42.567430967465043" lon="-6.599791031330824">
        <ele>537</ele>
        <time>2018-05-22T09:10:27Z</time>
      </trkpt>
      <trkpt lat="42.567193005234003" lon="-6.599544016644359">
        <ele>539</ele>
        <time>2018-05-22T09:10:36Z</time>
      </trkpt>
      <trkpt lat="42.567188981920481" lon="-6.599544016644359">
        <ele>539</ele>
        <time>2018-05-22T09:10:36Z</time>
      </trkpt>
      <trkpt lat="42.566978009417653" lon="-6.59929096698761">
        <ele>536</ele>
        <time>2018-05-22T09:10:44Z</time>
      </trkpt>
      <trkpt lat="42.566845994442701" lon="-6.599114025011659">
        <ele>536</ele>
        <time>2018-05-22T09:10:50Z</time>
      </trkpt>
      <trkpt lat="42.566730994731188" lon="-6.598971029743552">
        <ele>536</ele>
        <time>2018-05-22T09:10:55Z</time>
      </trkpt>
      <trkpt lat="42.566710961982608" lon="-6.598961977288127">
        <ele>536</ele>
        <time>2018-05-22T09:10:55Z</time>
      </trkpt>
      <trkpt lat="42.566687995567918" lon="-6.598929958418012">
        <ele>536</ele>
        <time>2018-05-22T09:10:56Z</time>
      </trkpt>
      <trkpt lat="42.566657988354564" lon="-6.598897017538548">
        <ele>536</ele>
        <time>2018-05-22T09:10:57Z</time>
      </trkpt>
      <trkpt lat="42.56662798114121" lon="-6.598868016153574">
        <ele>536</ele>
        <time>2018-05-22T09:10:58Z</time>
      </trkpt>
      <trkpt lat="42.566597973927855" lon="-6.598843038082123">
        <ele>536</ele>
        <time>2018-05-22T09:10:59Z</time>
      </trkpt>
      <trkpt lat="42.566574001684785" lon="-6.598818982020021">
        <ele>536</ele>
        <time>2018-05-22T09:11:00Z</time>
      </trkpt>
      <trkpt lat="42.566548017784953" lon="-6.598794003948569">
        <ele>536</ele>
        <time>2018-05-22T09:11:01Z</time>
      </trkpt>
      <trkpt lat="42.566521028056741" lon="-6.598773971199989">
        <ele>536</ele>
        <time>2018-05-22T09:11:02Z</time>
      </trkpt>
      <trkpt lat="42.566500995308161" lon="-6.598744969815016">
        <ele>536</ele>
        <time>2018-05-22T09:11:03Z</time>
      </trkpt>
      <trkpt lat="42.566470988094807" lon="-6.598719991743565">
        <ele>537</ele>
        <time>2018-05-22T09:11:04Z</time>
      </trkpt>
      <trkpt lat="42.566445004194975" lon="-6.598691996186972">
        <ele>537</ele>
        <time>2018-05-22T09:11:05Z</time>
      </trkpt>
      <trkpt lat="42.566418014466763" lon="-6.598667018115521">
        <ele>537</ele>
        <time>2018-05-22T09:11:06Z</time>
      </trkpt>
      <trkpt lat="42.566388007253408" lon="-6.598638016730547">
        <ele>537</ele>
        <time>2018-05-22T09:11:07Z</time>
      </trkpt>
      <trkpt lat="42.566367974504828" lon="-6.598613960668445">
        <ele>537</ele>
        <time>2018-05-22T09:11:08Z</time>
      </trkpt>
      <trkpt lat="42.566345008090138" lon="-6.598584959283471">
        <ele>537</ele>
        <time>2018-05-22T09:11:09Z</time>
      </trkpt>
      <trkpt lat="42.566324975341558" lon="-6.59855998121202">
        <ele>537</ele>
        <time>2018-05-22T09:11:10Z</time>
      </trkpt>
      <trkpt lat="42.566301003098488" lon="-6.598536008968949">
        <ele>537</ele>
        <time>2018-05-22T09:11:10Z</time>
      </trkpt>
      <trkpt lat="42.566280970349908" lon="-6.598511030897498">
        <ele>535</ele>
        <time>2018-05-22T09:11:11Z</time>
      </trkpt>
      <trkpt lat="42.566245011985302" lon="-6.598485969007015">
        <ele>535</ele>
        <time>2018-05-22T09:11:12Z</time>
      </trkpt>
      <trkpt lat="42.566221039742231" lon="-6.598466020077467">
        <ele>535</ele>
        <time>2018-05-22T09:11:13Z</time>
      </trkpt>
      <trkpt lat="42.566201006993651" lon="-6.598450010642409">
        <ele>535</ele>
        <time>2018-05-22T09:11:14Z</time>
      </trkpt>
      <trkpt lat="42.566170999780297" lon="-6.598428972065449">
        <ele>535</ele>
        <time>2018-05-22T09:11:15Z</time>
      </trkpt>
      <trkpt lat="42.566145015880466" lon="-6.598403993993998">
        <ele>535</ele>
        <time>2018-05-22T09:11:16Z</time>
      </trkpt>
      <trkpt lat="42.566107967868447" lon="-6.598392007872462">
        <ele>535</ele>
        <time>2018-05-22T09:11:17Z</time>
      </trkpt>
      <trkpt lat="42.566080978140235" lon="-6.598375998437405">
        <ele>535</ele>
        <time>2018-05-22T09:11:18Z</time>
      </trkpt>
      <trkpt lat="42.566048037260771" lon="-6.598354959860444">
        <ele>535</ele>
        <time>2018-05-22T09:11:19Z</time>
      </trkpt>
      <trkpt lat="42.566015012562275" lon="-6.598335010930896">
        <ele>535</ele>
        <time>2018-05-22T09:11:20Z</time>
      </trkpt>
      <trkpt lat="42.565988022834063" lon="-6.598317995667458">
        <ele>535</ele>
        <time>2018-05-22T09:11:21Z</time>
      </trkpt>
      <trkpt lat="42.565954998135567" lon="-6.598294023424387">
        <ele>535</ele>
        <time>2018-05-22T09:11:22Z</time>
      </trkpt>
      <trkpt lat="42.565927002578974" lon="-6.598277008160949">
        <ele>535</ele>
        <time>2018-05-22T09:11:23Z</time>
      </trkpt>
      <trkpt lat="42.565906969830394" lon="-6.598253035917878">
        <ele>535</ele>
        <time>2018-05-22T09:11:24Z</time>
      </trkpt>
      <trkpt lat="42.565879980102181" lon="-6.598231997340918">
        <ele>535</ele>
        <time>2018-05-22T09:11:25Z</time>
      </trkpt>
      <trkpt lat="42.565849972888827" lon="-6.598198972642422">
        <ele>535</ele>
        <time>2018-05-22T09:11:26Z</time>
      </trkpt>
      <trkpt lat="42.565827006474137" lon="-6.598175000399351">
        <ele>535</ele>
        <time>2018-05-22T09:11:27Z</time>
      </trkpt>
      <trkpt lat="42.565793981775641" lon="-6.598145999014378">
        <ele>535</ele>
        <time>2018-05-22T09:11:28Z</time>
      </trkpt>
      <trkpt lat="42.565763974562287" lon="-6.598121020942926">
        <ele>535</ele>
        <time>2018-05-22T09:11:29Z</time>
      </trkpt>
      <trkpt lat="42.565736984834075" lon="-6.598109034821391">
        <ele>535</ele>
        <time>2018-05-22T09:11:30Z</time>
      </trkpt>
      <trkpt lat="42.565720975399017" lon="-6.598083972930908">
        <ele>535</ele>
        <time>2018-05-22T09:11:30Z</time>
      </trkpt>
      <trkpt lat="42.565703960135579" lon="-6.598048014566302">
        <ele>535</ele>
        <time>2018-05-22T09:11:31Z</time>
      </trkpt>
      <trkpt lat="42.56568300537765" lon="-6.598009038716555">
        <ele>535</ele>
        <time>2018-05-22T09:11:32Z</time>
      </trkpt>
      <trkpt lat="42.565539004281163" lon="-6.597900995984674">
        <ele>535</ele>
        <time>2018-05-22T09:11:37Z</time>
      </trkpt>
      <trkpt lat="42.565356027334929" lon="-6.597660016268492">
        <ele>534</ele>
        <time>2018-05-22T09:11:45Z</time>
      </trkpt>
      <trkpt lat="42.565198028460145" lon="-6.597463041543961">
        <ele>534</ele>
        <time>2018-05-22T09:11:51Z</time>
      </trkpt>
      <trkpt lat="42.56499501876533" lon="-6.597203034907579">
        <ele>534</ele>
        <time>2018-05-22T09:11:59Z</time>
      </trkpt>
      <trkpt lat="42.56484598852694" lon="-6.596987033262849">
        <ele>534</ele>
        <time>2018-05-22T09:12:06Z</time>
      </trkpt>
      <trkpt lat="42.564595034345984" lon="-6.596678998321295">
        <ele>534</ele>
        <time>2018-05-22T09:12:16Z</time>
      </trkpt>
      <trkpt lat="42.564375009387732" lon="-6.596430977806449">
        <ele>534</ele>
        <time>2018-05-22T09:12:24Z</time>
      </trkpt>
      <trkpt lat="42.564224973320961" lon="-6.596214976161718">
        <ele>534</ele>
        <time>2018-05-22T09:12:31Z</time>
      </trkpt>
      <trkpt lat="42.564116008579731" lon="-6.596028981730342">
        <ele>536</ele>
        <time>2018-05-22T09:12:36Z</time>
      </trkpt>
      <trkpt lat="42.563932025805116" lon="-6.595753971487284">
        <ele>536</ele>
        <time>2018-05-22T09:12:44Z</time>
      </trkpt>
      <trkpt lat="42.563719963654876" lon="-6.595448032021523">
        <ele>535</ele>
        <time>2018-05-22T09:12:53Z</time>
      </trkpt>
      <trkpt lat="42.563703032210469" lon="-6.59542297013104">
        <ele>535</ele>
        <time>2018-05-22T09:12:54Z</time>
      </trkpt>
      <trkpt lat="42.563682999461889" lon="-6.595393968746066">
        <ele>535</ele>
        <time>2018-05-22T09:12:55Z</time>
      </trkpt>
      <trkpt lat="42.563662966713309" lon="-6.595349041745067">
        <ele>535</ele>
        <time>2018-05-22T09:12:56Z</time>
      </trkpt>
      <trkpt lat="42.563649974763393" lon="-6.595307970419526">
        <ele>535</ele>
        <time>2018-05-22T09:12:57Z</time>
      </trkpt>
      <trkpt lat="42.563649974763393" lon="-6.595262959599495">
        <ele>539</ele>
        <time>2018-05-22T09:12:58Z</time>
      </trkpt>
      <trkpt lat="42.563656009733677" lon="-6.595218032598496">
        <ele>539</ele>
        <time>2018-05-22T09:12:59Z</time>
      </trkpt>
      <trkpt lat="42.563670007511973" lon="-6.595180984586477">
        <ele>539</ele>
        <time>2018-05-22T09:13:00Z</time>
      </trkpt>
      <trkpt lat="42.563686016947031" lon="-6.595147959887981">
        <ele>539</ele>
        <time>2018-05-22T09:13:01Z</time>
      </trkpt>
      <trkpt lat="42.563695991411805" lon="-6.595103032886982">
        <ele>539</ele>
        <time>2018-05-22T09:13:02Z</time>
      </trkpt>
      <trkpt lat="42.563703032210469" lon="-6.595061961561441">
        <ele>539</ele>
        <time>2018-05-22T09:13:03Z</time>
      </trkpt>
      <trkpt lat="42.563700014725327" lon="-6.595024997368455">
        <ele>539</ele>
        <time>2018-05-22T09:13:03Z</time>
      </trkpt>
      <trkpt lat="42.563686016947031" lon="-6.594979986548424">
        <ele>539</ele>
        <time>2018-05-22T09:13:04Z</time>
      </trkpt>
      <trkpt lat="42.563665984198451" lon="-6.594943022355437">
        <ele>539</ele>
        <time>2018-05-22T09:13:05Z</time>
      </trkpt>
      <trkpt lat="42.563649974763393" lon="-6.594909997656941">
        <ele>539</ele>
        <time>2018-05-22T09:13:06Z</time>
      </trkpt>
      <trkpt lat="42.563632959499955" lon="-6.594877978786826">
        <ele>539</ele>
        <time>2018-05-22T09:13:07Z</time>
      </trkpt>
      <trkpt lat="42.563616028055549" lon="-6.594845037907362">
        <ele>539</ele>
        <time>2018-05-22T09:13:08Z</time>
      </trkpt>
      <trkpt lat="42.563600018620491" lon="-6.594807989895344">
        <ele>539</ele>
        <time>2018-05-22T09:13:09Z</time>
      </trkpt>
      <trkpt lat="42.563579985871911" lon="-6.59477898851037">
        <ele>539</ele>
        <time>2018-05-22T09:13:10Z</time>
      </trkpt>
      <trkpt lat="42.563560036942363" lon="-6.594749987125397">
        <ele>539</ele>
        <time>2018-05-22T09:13:11Z</time>
      </trkpt>
      <trkpt lat="42.56353598088026" lon="-6.59471302293241">
        <ele>539</ele>
        <time>2018-05-22T09:13:12Z</time>
      </trkpt>
      <trkpt lat="42.56351301446557" lon="-6.594672035425901">
        <ele>539</ele>
        <time>2018-05-22T09:13:13Z</time>
      </trkpt>
      <trkpt lat="42.563483007252216" lon="-6.594640016555786">
        <ele>539</ele>
        <time>2018-05-22T09:13:14Z</time>
      </trkpt>
      <trkpt lat="42.563460040837526" lon="-6.59460699185729">
        <ele>539</ele>
        <time>2018-05-22T09:13:15Z</time>
      </trkpt>
      <trkpt lat="42.563443025574088" lon="-6.594577990472317">
        <ele>539</ele>
        <time>2018-05-22T09:13:16Z</time>
      </trkpt>
      <trkpt lat="42.563413018360734" lon="-6.594548989087343">
        <ele>539</ele>
        <time>2018-05-22T09:13:17Z</time>
      </trkpt>
      <trkpt lat="42.563392985612154" lon="-6.59452099353075">
        <ele>539</ele>
        <time>2018-05-22T09:13:18Z</time>
      </trkpt>
      <trkpt lat="42.563370019197464" lon="-6.594491992145777">
        <ele>539</ele>
        <time>2018-05-22T09:13:19Z</time>
      </trkpt>
      <trkpt lat="42.563349986448884" lon="-6.594462990760803">
        <ele>541</ele>
        <time>2018-05-22T09:13:20Z</time>
      </trkpt>
      <trkpt lat="42.563330037519336" lon="-6.59443398937583">
        <ele>541</ele>
        <time>2018-05-22T09:13:20Z</time>
      </trkpt>
      <trkpt lat="42.563310004770756" lon="-6.594410017132759">
        <ele>541</ele>
        <time>2018-05-22T09:13:21Z</time>
      </trkpt>
      <trkpt lat="42.563283015042543" lon="-6.594376992434263">
        <ele>541</ele>
        <time>2018-05-22T09:13:22Z</time>
      </trkpt>
      <trkpt lat="42.563253007829189" lon="-6.594352014362812">
        <ele>541</ele>
        <time>2018-05-22T09:13:23Z</time>
      </trkpt>
      <trkpt lat="42.563230041414499" lon="-6.594331981614232">
        <ele>541</ele>
        <time>2018-05-22T09:13:24Z</time>
      </trkpt>
      <trkpt lat="42.563200034201145" lon="-6.594299040734768">
        <ele>541</ele>
        <time>2018-05-22T09:13:25Z</time>
      </trkpt>
      <trkpt lat="42.563172960653901" lon="-6.594279007986188">
        <ele>541</ele>
        <time>2018-05-22T09:13:26Z</time>
      </trkpt>
      <trkpt lat="42.563149994239211" lon="-6.594254029914737">
        <ele>541</ele>
        <time>2018-05-22T09:13:27Z</time>
      </trkpt>
      <trkpt lat="42.563119987025857" lon="-6.594228968024254">
        <ele>541</ele>
        <time>2018-05-22T09:13:28Z</time>
      </trkpt>
      <trkpt lat="42.563089979812503" lon="-6.594209019094706">
        <ele>541</ele>
        <time>2018-05-22T09:13:29Z</time>
      </trkpt>
      <trkpt lat="42.563057038933039" lon="-6.594184041023254">
        <ele>541</ele>
        <time>2018-05-22T09:13:30Z</time>
      </trkpt>
      <trkpt lat="42.563029965385795" lon="-6.594159984961152">
        <ele>541</ele>
        <time>2018-05-22T09:13:31Z</time>
      </trkpt>
      <trkpt lat="42.562999958172441" lon="-6.594139030203223">
        <ele>541</ele>
        <time>2018-05-22T09:13:32Z</time>
      </trkpt>
      <trkpt lat="42.562973974272609" lon="-6.59411396831274">
        <ele>541</ele>
        <time>2018-05-22T09:13:33Z</time>
      </trkpt>
      <trkpt lat="42.562940027564764" lon="-6.594094019383192">
        <ele>538</ele>
        <time>2018-05-22T09:13:34Z</time>
      </trkpt>
      <trkpt lat="42.562913959845901" lon="-6.594082033261657">
        <ele>538</ele>
        <time>2018-05-22T09:13:35Z</time>
      </trkpt>
      <trkpt lat="42.562884036451578" lon="-6.594044985249639">
        <ele>538</ele>
        <time>2018-05-22T09:13:36Z</time>
      </trkpt>
      <trkpt lat="42.562859980389476" lon="-6.594011960551143">
        <ele>538</ele>
        <time>2018-05-22T09:13:37Z</time>
      </trkpt>
      <trkpt lat="42.562840031459928" lon="-6.593974996358156">
        <ele>538</ele>
        <time>2018-05-22T09:13:38Z</time>
      </trkpt>
      <trkpt lat="42.562827039510012" lon="-6.59393803216517">
        <ele>538</ele>
        <time>2018-05-22T09:13:39Z</time>
      </trkpt>
      <trkpt lat="42.562810024246573" lon="-6.593905007466674">
        <ele>538</ele>
        <time>2018-05-22T09:13:40Z</time>
      </trkpt>
      <trkpt lat="42.562810024246573" lon="-6.593864019960165">
        <ele>538</ele>
        <time>2018-05-22T09:13:41Z</time>
      </trkpt>
      <trkpt lat="42.562816981226206" lon="-6.593814985826612">
        <ele>538</ele>
        <time>2018-05-22T09:13:42Z</time>
      </trkpt>
      <trkpt lat="42.562829973176122" lon="-6.59376603551209">
        <ele>538</ele>
        <time>2018-05-22T09:13:43Z</time>
      </trkpt>
      <trkpt lat="42.562837013974786" lon="-6.593717001378536">
        <ele>538</ele>
        <time>2018-05-22T09:13:44Z</time>
      </trkpt>
      <trkpt lat="42.56284698843956" lon="-6.593670984730125">
        <ele>538</ele>
        <time>2018-05-22T09:13:45Z</time>
      </trkpt>
      <trkpt lat="42.562850005924702" lon="-6.593628991395235">
        <ele>538</ele>
        <time>2018-05-22T09:13:46Z</time>
      </trkpt>
      <trkpt lat="42.562850005924702" lon="-6.593589009717107">
        <ele>538</ele>
        <time>2018-05-22T09:13:47Z</time>
      </trkpt>
      <trkpt lat="42.562850005924702" lon="-6.593547016382217">
        <ele>538</ele>
        <time>2018-05-22T09:13:48Z</time>
      </trkpt>
      <trkpt lat="42.562836008146405" lon="-6.593504017218947">
        <ele>538</ele>
        <time>2018-05-22T09:13:49Z</time>
      </trkpt>
      <trkpt lat="42.562821004539728" lon="-6.593469986692071">
        <ele>538</ele>
        <time>2018-05-22T09:13:50Z</time>
      </trkpt>
      <trkpt lat="42.562808012589812" lon="-6.593436961993575">
        <ele>538</ele>
        <time>2018-05-22T09:13:51Z</time>
      </trkpt>
      <trkpt lat="42.562787979841232" lon="-6.593417013064027">
        <ele>538</ele>
        <time>2018-05-22T09:13:51Z</time>
      </trkpt>
      <trkpt lat="42.562768030911684" lon="-6.593392034992576">
        <ele>538</ele>
        <time>2018-05-22T09:13:52Z</time>
      </trkpt>
      <trkpt lat="42.562744980677962" lon="-6.593363033607602">
        <ele>538</ele>
        <time>2018-05-22T09:13:53Z</time>
      </trkpt>
      <trkpt lat="42.562721008434892" lon="-6.593331014737487">
        <ele>538</ele>
        <time>2018-05-22T09:13:54Z</time>
      </trkpt>
      <trkpt lat="42.562692007049918" lon="-6.593293966725469">
        <ele>538</ele>
        <time>2018-05-22T09:13:55Z</time>
      </trkpt>
      <trkpt lat="42.562665017321706" lon="-6.593264965340495">
        <ele>538</ele>
        <time>2018-05-22T09:13:56Z</time>
      </trkpt>
      <trkpt lat="42.562635010108352" lon="-6.593232024461031">
        <ele>538</ele>
        <time>2018-05-22T09:13:57Z</time>
      </trkpt>
      <trkpt lat="42.562614977359772" lon="-6.593203023076057">
        <ele>538</ele>
        <time>2018-05-22T09:13:58Z</time>
      </trkpt>
      <trkpt lat="42.562584970146418" lon="-6.593162035569549">
        <ele>538</ele>
        <time>2018-05-22T09:14:00Z</time>
      </trkpt>
      <trkpt lat="42.562565021216869" lon="-6.593137979507446">
        <ele>538</ele>
        <time>2018-05-22T09:14:00Z</time>
      </trkpt>
      <trkpt lat="42.562544988468289" lon="-6.593108978122473">
        <ele>538</ele>
        <time>2018-05-22T09:14:01Z</time>
      </trkpt>
      <trkpt lat="42.562525039538741" lon="-6.593067990615964">
        <ele>538</ele>
        <time>2018-05-22T09:14:02Z</time>
      </trkpt>
      <trkpt lat="42.562487991526723" lon="-6.593005964532495">
        <ele>538</ele>
        <time>2018-05-22T09:14:04Z</time>
      </trkpt>
      <trkpt lat="42.562467036768794" lon="-6.592979980632663">
        <ele>538</ele>
        <time>2018-05-22T09:14:05Z</time>
      </trkpt>
      <trkpt lat="42.562447004020214" lon="-6.592944022268057">
        <ele>538</ele>
        <time>2018-05-22T09:14:06Z</time>
      </trkpt>
      <trkpt lat="42.56241699680686" lon="-6.5928899589926">
        <ele>538</ele>
        <time>2018-05-22T09:14:07Z</time>
      </trkpt>
      <trkpt lat="42.562385983765125" lon="-6.592857018113136">
        <ele>538</ele>
        <time>2018-05-22T09:14:09Z</time>
      </trkpt>
      <trkpt lat="42.562366034835577" lon="-6.592832962051034">
        <ele>541</ele>
        <time>2018-05-22T09:14:09Z</time>
      </trkpt>
      <trkpt lat="42.562342984601855" lon="-6.592815024778247">
        <ele>539</ele>
        <time>2018-05-22T09:14:10Z</time>
      </trkpt>
      <trkpt lat="42.562315994873643" lon="-6.592793986201286">
        <ele>541</ele>
        <time>2018-05-22T09:14:11Z</time>
      </trkpt>
      <trkpt lat="42.562289005145431" lon="-6.592782000079751">
        <ele>541</ele>
        <time>2018-05-22T09:14:12Z</time>
      </trkpt>
      <trkpt lat="42.562252962961793" lon="-6.592777976766229">
        <ele>541</ele>
        <time>2018-05-22T09:14:13Z</time>
      </trkpt>
      <trkpt lat="42.5622249674052" lon="-6.592770013958216">
        <ele>541</ele>
        <time>2018-05-22T09:14:14Z</time>
      </trkpt>
      <trkpt lat="42.562196971848607" lon="-6.592770013958216">
        <ele>541</ele>
        <time>2018-05-22T09:14:15Z</time>
      </trkpt>
      <trkpt lat="42.562169982120395" lon="-6.592765990644693">
        <ele>541</ele>
        <time>2018-05-22T09:14:15Z</time>
      </trkpt>
      <trkpt lat="42.562143998220563" lon="-6.5927570220083">
        <ele>541</ele>
        <time>2018-05-22T09:14:16Z</time>
      </trkpt>
      <trkpt lat="42.562107034027576" lon="-6.592748975381255">
        <ele>539</ele>
        <time>2018-05-22T09:14:17Z</time>
      </trkpt>
      <trkpt lat="42.562083983793855" lon="-6.592729026451707">
        <ele>539</ele>
        <time>2018-05-22T09:14:18Z</time>
      </trkpt>
      <trkpt lat="42.562061017379165" lon="-6.592707987874746">
        <ele>539</ele>
        <time>2018-05-22T09:14:19Z</time>
      </trkpt>
      <trkpt lat="42.562040984630585" lon="-6.592678986489773">
        <ele>539</ele>
        <time>2018-05-22T09:14:20Z</time>
      </trkpt>
      <trkpt lat="42.562013994902372" lon="-6.592643028125167">
        <ele>539</ele>
        <time>2018-05-22T09:14:21Z</time>
      </trkpt>
      <trkpt lat="42.561981976032257" lon="-6.59260799176991">
        <ele>539</ele>
        <time>2018-05-22T09:14:22Z</time>
      </trkpt>
      <trkpt lat="42.561958003789186" lon="-6.592591982334852">
        <ele>539</ele>
        <time>2018-05-22T09:14:23Z</time>
      </trkpt>
      <trkpt lat="42.561932019889355" lon="-6.592571027576923">
        <ele>539</ele>
        <time>2018-05-22T09:14:24Z</time>
      </trkpt>
      <trkpt lat="42.561911987140775" lon="-6.592550994828343">
        <ele>539</ele>
        <time>2018-05-22T09:14:25Z</time>
      </trkpt>
      <trkpt lat="42.561877034604549" lon="-6.592530040070415">
        <ele>539</ele>
        <time>2018-05-22T09:14:26Z</time>
      </trkpt>
      <trkpt lat="42.561631025746465" lon="-6.592227034270763">
        <ele>539</ele>
        <time>2018-05-22T09:14:35Z</time>
      </trkpt>
      <trkpt lat="42.56149398162961" lon="-6.592041039839387">
        <ele>539</ele>
        <time>2018-05-22T09:14:41Z</time>
      </trkpt>
      <trkpt lat="42.561334976926446" lon="-6.591840041801333">
        <ele>542</ele>
        <time>2018-05-22T09:14:48Z</time>
      </trkpt>
      <trkpt lat="42.561187036335468" lon="-6.591644994914532">
        <ele>535</ele>
        <time>2018-05-22T09:14:54Z</time>
      </trkpt>
      <trkpt lat="42.560994001105428" lon="-6.591336959972978">
        <ele>535</ele>
        <time>2018-05-22T09:15:03Z</time>
      </trkpt>
      <trkpt lat="42.560785040259361" lon="-6.591089023277164">
        <ele>536</ele>
        <time>2018-05-22T09:15:11Z</time>
      </trkpt>
      <trkpt lat="42.560614971444011" lon="-6.590857012197375">
        <ele>536</ele>
        <time>2018-05-22T09:15:18Z</time>
      </trkpt>
      <trkpt lat="42.56048102863133" lon="-6.59069599583745">
        <ele>536</ele>
        <time>2018-05-22T09:15:23Z</time>
      </trkpt>
      <trkpt lat="42.560356976464391" lon="-6.590539002791047">
        <ele>538</ele>
        <time>2018-05-22T09:15:28Z</time>
      </trkpt>
      <trkpt lat="42.560207024216652" lon="-6.590296011418104">
        <ele>537</ele>
        <time>2018-05-22T09:15:35Z</time>
      </trkpt>
      <trkpt lat="42.560058999806643" lon="-6.590099036693573">
        <ele>537</ele>
        <time>2018-05-22T09:15:41Z</time>
      </trkpt>
      <trkpt lat="42.559901000931859" lon="-6.589890997856855">
        <ele>537</ele>
        <time>2018-05-22T09:15:48Z</time>
      </trkpt>
      <trkpt lat="42.559739984571934" lon="-6.589672984555364">
        <ele>537</ele>
        <time>2018-05-22T09:15:54Z</time>
      </trkpt>
      <trkpt lat="42.559586009010673" lon="-6.589452959597111">
        <ele>538</ele>
        <time>2018-05-22T09:16:01Z</time>
      </trkpt>
      <trkpt lat="42.559367995709181" lon="-6.589222960174084">
        <ele>538</ele>
        <time>2018-05-22T09:16:09Z</time>
      </trkpt>
      <trkpt lat="42.559152999892831" lon="-6.588918026536703">
        <ele>538</ele>
        <time>2018-05-22T09:16:18Z</time>
      </trkpt>
      <trkpt lat="42.559028025716543" lon="-6.588777964934707">
        <ele>538</ele>
        <time>2018-05-22T09:16:23Z</time>
      </trkpt>
      <trkpt lat="42.559007992967963" lon="-6.588758016005158">
        <ele>538</ele>
        <time>2018-05-22T09:16:24Z</time>
      </trkpt>
      <trkpt lat="42.558985026553273" lon="-6.588724991306663">
        <ele>538</ele>
        <time>2018-05-22T09:16:25Z</time>
      </trkpt>
      <trkpt lat="42.558961976319551" lon="-6.588688027113676">
        <ele>541</ele>
        <time>2018-05-22T09:16:26Z</time>
      </trkpt>
      <trkpt lat="42.558944961056113" lon="-6.588659025728703">
        <ele>541</ele>
        <time>2018-05-22T09:16:27Z</time>
      </trkpt>
      <trkpt lat="42.558925012126565" lon="-6.588630024343729">
        <ele>541</ele>
        <time>2018-05-22T09:16:28Z</time>
      </trkpt>
      <trkpt lat="42.558903973549604" lon="-6.588604040443897">
        <ele>541</ele>
        <time>2018-05-22T09:16:29Z</time>
      </trkpt>
      <trkpt lat="42.558881007134914" lon="-6.588575961068273">
        <ele>541</ele>
        <time>2018-05-22T09:16:29Z</time>
      </trkpt>
      <trkpt lat="42.558857034891844" lon="-6.588546959683299">
        <ele>541</ele>
        <time>2018-05-22T09:16:30Z</time>
      </trkpt>
      <trkpt lat="42.558837002143264" lon="-6.588509995490313">
        <ele>541</ele>
        <time>2018-05-22T09:16:31Z</time>
      </trkpt>
      <trkpt lat="42.558820992708206" lon="-6.588476970791817">
        <ele>541</ele>
        <time>2018-05-22T09:16:32Z</time>
      </trkpt>
      <trkpt lat="42.558797020465136" lon="-6.588444029912353">
        <ele>541</ele>
        <time>2018-05-22T09:16:33Z</time>
      </trkpt>
      <trkpt lat="42.558773970231414" lon="-6.588402958586812">
        <ele>541</ele>
        <time>2018-05-22T09:16:34Z</time>
      </trkpt>
      <trkpt lat="42.558746980503201" lon="-6.588358031585813">
        <ele>525</ele>
        <time>2018-05-22T09:16:36Z</time>
      </trkpt>
      <trkpt lat="42.558730971068144" lon="-6.58833397552371">
        <ele>525</ele>
        <time>2018-05-22T09:16:36Z</time>
      </trkpt>
      <trkpt lat="42.558706998825073" lon="-6.588284019380808">
        <ele>525</ele>
        <time>2018-05-22T09:16:38Z</time>
      </trkpt>
      <trkpt lat="42.558675985783339" lon="-6.588248983025551">
        <ele>525</ele>
        <time>2018-05-22T09:16:39Z</time>
      </trkpt>
      <trkpt lat="42.558646984398365" lon="-6.588248983025551">
        <ele>525</ele>
        <time>2018-05-22T09:16:40Z</time>
      </trkpt>
      <trkpt lat="42.558616977185011" lon="-6.588257029652596">
        <ele>525</ele>
        <time>2018-05-22T09:16:41Z</time>
      </trkpt>
      <trkpt lat="42.558590993285179" lon="-6.588269015774131">
        <ele>525</ele>
        <time>2018-05-22T09:16:41Z</time>
      </trkpt>
      <trkpt lat="42.558564003556967" lon="-6.588286031037569">
        <ele>525</ele>
        <time>2018-05-22T09:16:42Z</time>
      </trkpt>
      <trkpt lat="42.558537013828754" lon="-6.58831000328064">
        <ele>525</ele>
        <time>2018-05-22T09:16:43Z</time>
      </trkpt>
      <trkpt lat="42.558513963595033" lon="-6.5883310418576">
        <ele>525</ele>
        <time>2018-05-22T09:16:44Z</time>
      </trkpt>
      <trkpt lat="42.55848697386682" lon="-6.588355014100671">
        <ele>525</ele>
        <time>2018-05-22T09:16:45Z</time>
      </trkpt>
      <trkpt lat="42.558467024937272" lon="-6.588379992172122">
        <ele>525</ele>
        <time>2018-05-22T09:16:46Z</time>
      </trkpt>
      <trkpt lat="42.55844397470355" lon="-6.588413016870618">
        <ele>525</ele>
        <time>2018-05-22T09:16:47Z</time>
      </trkpt>
      <trkpt lat="42.558426959440112" lon="-6.588432965800166">
        <ele>525</ele>
        <time>2018-05-22T09:16:48Z</time>
      </trkpt>
      <trkpt lat="42.558408016338944" lon="-6.58846196718514">
        <ele>525</ele>
        <time>2018-05-22T09:16:48Z</time>
      </trkpt>
      <trkpt lat="42.558387983590364" lon="-6.588487029075623">
        <ele>525</ele>
        <time>2018-05-22T09:16:49Z</time>
      </trkpt>
      <trkpt lat="42.558370968326926" lon="-6.588511001318693">
        <ele>525</ele>
        <time>2018-05-22T09:16:50Z</time>
      </trkpt>
      <trkpt lat="42.55835403688252" lon="-6.588540002703667">
        <ele>525</ele>
        <time>2018-05-22T09:16:51Z</time>
      </trkpt>
      <trkpt lat="42.558340961113572" lon="-6.588574033230543">
        <ele>525</ele>
        <time>2018-05-22T09:16:52Z</time>
      </trkpt>
      <trkpt lat="42.558324029669166" lon="-6.588604040443897">
        <ele>525</ele>
        <time>2018-05-22T09:16:52Z</time>
      </trkpt>
      <trkpt lat="42.558242976665497" lon="-6.588694984093308">
        <ele>525</ele>
        <time>2018-05-22T09:16:56Z</time>
      </trkpt>
      <trkpt lat="42.558165024966002" lon="-6.588838985189796">
        <ele>528</ele>
        <time>2018-05-22T09:16:59Z</time>
      </trkpt>
      <trkpt lat="42.558158989995718" lon="-6.588854994624853">
        <ele>528</ele>
        <time>2018-05-22T09:17:00Z</time>
      </trkpt>
      <trkpt lat="42.558135017752647" lon="-6.588879972696304">
        <ele>528</ele>
        <time>2018-05-22T09:17:01Z</time>
      </trkpt>
      <trkpt lat="42.558109033852816" lon="-6.588907968252897">
        <ele>528</ele>
        <time>2018-05-22T09:17:02Z</time>
      </trkpt>
      <trkpt lat="42.558084977790713" lon="-6.588936969637871">
        <ele>528</ele>
        <time>2018-05-22T09:17:03Z</time>
      </trkpt>
      <trkpt lat="42.558062011376023" lon="-6.588962031528354">
        <ele>528</ele>
        <time>2018-05-22T09:17:04Z</time>
      </trkpt>
      <trkpt lat="42.558044996112585" lon="-6.588990027084947">
        <ele>528</ele>
        <time>2018-05-22T09:17:04Z</time>
      </trkpt>
      <trkpt lat="42.558028986677527" lon="-6.58901902846992">
        <ele>528</ele>
        <time>2018-05-22T09:17:05Z</time>
      </trkpt>
      <trkpt lat="42.558006020262837" lon="-6.589051969349384">
        <ele>528</ele>
        <time>2018-05-22T09:17:06Z</time>
      </trkpt>
      <trkpt lat="42.557979030534625" lon="-6.589089017361403">
        <ele>528</ele>
        <time>2018-05-22T09:17:07Z</time>
      </trkpt>
      <trkpt lat="42.557958997786045" lon="-6.589118018746376">
        <ele>528</ele>
        <time>2018-05-22T09:17:08Z</time>
      </trkpt>
      <trkpt lat="42.557928990572691" lon="-6.589166969060898">
        <ele>513</ele>
        <time>2018-05-22T09:17:10Z</time>
      </trkpt>
      <trkpt lat="42.557902000844479" lon="-6.589204017072916">
        <ele>513</ele>
        <time>2018-05-22T09:17:11Z</time>
      </trkpt>
      <trkpt lat="42.557876016944647" lon="-6.589245004579425">
        <ele>513</ele>
        <time>2018-05-22T09:17:12Z</time>
      </trkpt>
      <trkpt lat="42.557855984196067" lon="-6.589268976822496">
        <ele>513</ele>
        <time>2018-05-22T09:17:13Z</time>
      </trkpt>
      <trkpt lat="42.557836035266519" lon="-6.589313987642527">
        <ele>513</ele>
        <time>2018-05-22T09:17:14Z</time>
      </trkpt>
      <trkpt lat="42.557816002517939" lon="-6.589360004290938">
        <ele>513</ele>
        <time>2018-05-22T09:17:15Z</time>
      </trkpt>
      <trkpt lat="42.557806028053164" lon="-6.589394034817815">
        <ele>513</ele>
        <time>2018-05-22T09:17:16Z</time>
      </trkpt>
      <trkpt lat="42.557785995304585" lon="-6.589423036202788">
        <ele>513</ele>
        <time>2018-05-22T09:17:17Z</time>
      </trkpt>
      <trkpt lat="42.557762023061514" lon="-6.589451031759381">
        <ele>513</ele>
        <time>2018-05-22T09:17:18Z</time>
      </trkpt>
      <trkpt lat="42.557741990312934" lon="-6.589480033144355">
        <ele>513</ele>
        <time>2018-05-22T09:17:18Z</time>
      </trkpt>
      <trkpt lat="42.557719023898244" lon="-6.589521020650864">
        <ele>513</ele>
        <time>2018-05-22T09:17:20Z</time>
      </trkpt>
      <trkpt lat="42.557698991149664" lon="-6.589553961530328">
        <ele>516</ele>
        <time>2018-05-22T09:17:20Z</time>
      </trkpt>
      <trkpt lat="42.557681975886226" lon="-6.589586986228824">
        <ele>516</ele>
        <time>2018-05-22T09:17:21Z</time>
      </trkpt>
      <trkpt lat="42.55766898393631" lon="-6.58962001092732">
        <ele>516</ele>
        <time>2018-05-22T09:17:22Z</time>
      </trkpt>
      <trkpt lat="42.55764601752162" lon="-6.589655969291925">
        <ele>516</ele>
        <time>2018-05-22T09:17:23Z</time>
      </trkpt>
      <trkpt lat="42.557621961459517" lon="-6.589693017303944">
        <ele>516</ele>
        <time>2018-05-22T09:17:24Z</time>
      </trkpt>
      <trkpt lat="42.557597989216447" lon="-6.589717995375395">
        <ele>516</ele>
        <time>2018-05-22T09:17:25Z</time>
      </trkpt>
      <trkpt lat="42.557507967576385" lon="-6.589896026998758">
        <ele>516</ele>
        <time>2018-05-22T09:17:30Z</time>
      </trkpt>
      <trkpt lat="42.557403026148677" lon="-6.590042039752007">
        <ele>516</ele>
        <time>2018-05-22T09:17:34Z</time>
      </trkpt>
      <trkpt lat="42.557387016713619" lon="-6.59007104113698">
        <ele>516</ele>
        <time>2018-05-22T09:17:35Z</time>
      </trkpt>
      <trkpt lat="42.557357009500265" lon="-6.590103982016444">
        <ele>516</ele>
        <time>2018-05-22T09:17:36Z</time>
      </trkpt>
      <trkpt lat="42.557336976751685" lon="-6.590131977573037">
        <ele>516</ele>
        <time>2018-05-22T09:17:37Z</time>
      </trkpt>
      <trkpt lat="42.557313004508615" lon="-6.590160978958011">
        <ele>516</ele>
        <time>2018-05-22T09:17:38Z</time>
      </trkpt>
      <trkpt lat="42.557290038093925" lon="-6.59020196646452">
        <ele>516</ele>
        <time>2018-05-22T09:17:39Z</time>
      </trkpt>
      <trkpt lat="42.557270005345345" lon="-6.590234991163015">
        <ele>516</ele>
        <time>2018-05-22T09:17:40Z</time>
      </trkpt>
      <trkpt lat="42.557247038930655" lon="-6.590263992547989">
        <ele>516</ele>
        <time>2018-05-22T09:17:41Z</time>
      </trkpt>
      <trkpt lat="42.557222982868552" lon="-6.590297017246485">
        <ele>516</ele>
        <time>2018-05-22T09:17:42Z</time>
      </trkpt>
      <trkpt lat="42.557200016453862" lon="-6.5903290361166">
        <ele>516</ele>
        <time>2018-05-22T09:17:43Z</time>
      </trkpt>
      <trkpt lat="42.557179983705282" lon="-6.590358037501574">
        <ele>516</ele>
        <time>2018-05-22T09:17:44Z</time>
      </trkpt>
      <trkpt lat="42.55715399980545" lon="-6.590387038886547">
        <ele>521</ele>
        <time>2018-05-22T09:17:45Z</time>
      </trkpt>
      <trkpt lat="42.557127010077238" lon="-6.590419979766011">
        <ele>521</ele>
        <time>2018-05-22T09:17:46Z</time>
      </trkpt>
      <trkpt lat="42.557106977328658" lon="-6.590447975322604">
        <ele>516</ele>
        <time>2018-05-22T09:17:47Z</time>
      </trkpt>
      <trkpt lat="42.557084010913968" lon="-6.590476976707578">
        <ele>516</ele>
        <time>2018-05-22T09:17:48Z</time>
      </trkpt>
      <trkpt lat="42.557060038670897" lon="-6.590502038598061">
        <ele>516</ele>
        <time>2018-05-22T09:17:49Z</time>
      </trkpt>
      <trkpt lat="42.557033970952034" lon="-6.590530034154654">
        <ele>516</ele>
        <time>2018-05-22T09:17:50Z</time>
      </trkpt>
      <trkpt lat="42.557014022022486" lon="-6.590562975034118">
        <ele>516</ele>
        <time>2018-05-22T09:17:51Z</time>
      </trkpt>
      <trkpt lat="42.556989965960383" lon="-6.590588036924601">
        <ele>516</ele>
        <time>2018-05-22T09:17:51Z</time>
      </trkpt>
      <trkpt lat="42.556970017030835" lon="-6.590613014996052">
        <ele>516</ele>
        <time>2018-05-22T09:17:52Z</time>
      </trkpt>
      <trkpt lat="42.556946966797113" lon="-6.590636987239122">
        <ele>516</ele>
        <time>2018-05-22T09:17:53Z</time>
      </trkpt>
      <trkpt lat="42.556919977068901" lon="-6.590661965310574">
        <ele>516</ele>
        <time>2018-05-22T09:17:54Z</time>
      </trkpt>
      <trkpt lat="42.556897010654211" lon="-6.590686021372676">
        <ele>516</ele>
        <time>2018-05-22T09:17:55Z</time>
      </trkpt>
      <trkpt lat="42.556867003440857" lon="-6.590703036636114">
        <ele>516</ele>
        <time>2018-05-22T09:17:56Z</time>
      </trkpt>
      <trkpt lat="42.556840013712645" lon="-6.590722985565662">
        <ele>516</ele>
        <time>2018-05-22T09:17:57Z</time>
      </trkpt>
      <trkpt lat="42.556811012327671" lon="-6.590747963637114">
        <ele>516</ele>
        <time>2018-05-22T09:17:58Z</time>
      </trkpt>
      <trkpt lat="42.556781005114317" lon="-6.590767996385694">
        <ele>516</ele>
        <time>2018-05-22T09:17:59Z</time>
      </trkpt>
      <trkpt lat="42.55674404092133" lon="-6.590792974457145">
        <ele>516</ele>
        <time>2018-05-22T09:18:00Z</time>
      </trkpt>
      <trkpt lat="42.556714033707976" lon="-6.590808983892202">
        <ele>516</ele>
        <time>2018-05-22T09:18:01Z</time>
      </trkpt>
      <trkpt lat="42.556686960160732" lon="-6.590837985277176">
        <ele>516</ele>
        <time>2018-05-22T09:18:02Z</time>
      </trkpt>
      <trkpt lat="42.55665703676641" lon="-6.590862963348627">
        <ele>516</ele>
        <time>2018-05-22T09:18:03Z</time>
      </trkpt>
      <trkpt lat="42.556627029553056" lon="-6.59089095890522">
        <ele>516</ele>
        <time>2018-05-22T09:18:04Z</time>
      </trkpt>
      <trkpt lat="42.556603979319334" lon="-6.590911997482181">
        <ele>516</ele>
        <time>2018-05-22T09:18:05Z</time>
      </trkpt>
      <trkpt lat="42.556576989591122" lon="-6.590919960290194">
        <ele>516</ele>
        <time>2018-05-22T09:18:06Z</time>
      </trkpt>
      <trkpt lat="42.556546982377768" lon="-6.590940998867154">
        <ele>516</ele>
        <time>2018-05-22T09:18:07Z</time>
      </trkpt>
      <trkpt lat="42.556524015963078" lon="-6.590961031615734">
        <ele>516</ele>
        <time>2018-05-22T09:18:08Z</time>
      </trkpt>
      <trkpt lat="42.556494008749723" lon="-6.590977963060141">
        <ele>516</ele>
        <time>2018-05-22T09:18:09Z</time>
      </trkpt>
      <trkpt lat="42.556470958516002" lon="-6.591002019122243">
        <ele>516</ele>
        <time>2018-05-22T09:18:09Z</time>
      </trkpt>
      <trkpt lat="42.556437011808157" lon="-6.591026997193694">
        <ele>516</ele>
        <time>2018-05-22T09:18:11Z</time>
      </trkpt>
      <trkpt lat="42.556413961574435" lon="-6.591050969436765">
        <ele>516</ele>
        <time>2018-05-22T09:18:11Z</time>
      </trkpt>
      <trkpt lat="42.556393006816506" lon="-6.591063961386681">
        <ele>516</ele>
        <time>2018-05-22T09:18:12Z</time>
      </trkpt>
      <trkpt lat="42.556256968528032" lon="-6.591188013553619">
        <ele>512</ele>
        <time>2018-05-22T09:18:17Z</time>
      </trkpt>
      <trkpt lat="42.556074997410178" lon="-6.591312987729907">
        <ele>514</ele>
        <time>2018-05-22T09:18:23Z</time>
      </trkpt>
      <trkpt lat="42.555938959121704" lon="-6.591421030461788">
        <ele>514</ele>
        <time>2018-05-22T09:18:28Z</time>
      </trkpt>
      <trkpt lat="42.555728992447257" lon="-6.591569976881146">
        <ele>514</ele>
        <time>2018-05-22T09:18:35Z</time>
      </trkpt>
      <trkpt lat="42.555525982752442" lon="-6.591691011562944">
        <ele>514</ele>
        <time>2018-05-22T09:18:41Z</time>
      </trkpt>
      <trkpt lat="42.555351974442601" lon="-6.591811962425709">
        <ele>512</ele>
        <time>2018-05-22T09:18:47Z</time>
      </trkpt>
      <trkpt lat="42.555164974182844" lon="-6.591898966580629">
        <ele>512</ele>
        <time>2018-05-22T09:18:53Z</time>
      </trkpt>
      <trkpt lat="42.555145025253296" lon="-6.591907013207674">
        <ele>512</ele>
        <time>2018-05-22T09:18:53Z</time>
      </trkpt>
      <trkpt lat="42.555119041353464" lon="-6.591918999329209">
        <ele>512</ele>
        <time>2018-05-22T09:18:54Z</time>
      </trkpt>
      <trkpt lat="42.555085010826588" lon="-6.591936014592648">
        <ele>512</ele>
        <time>2018-05-22T09:18:55Z</time>
      </trkpt>
      <trkpt lat="42.555051986128092" lon="-6.59194003790617">
        <ele>512</ele>
        <time>2018-05-22T09:18:56Z</time>
      </trkpt>
      <trkpt lat="42.555004963651299" lon="-6.591955963522196">
        <ele>512</ele>
        <time>2018-05-22T09:18:58Z</time>
      </trkpt>
      <trkpt lat="42.554975040256977" lon="-6.591964010149241">
        <ele>512</ele>
        <time>2018-05-22T09:18:59Z</time>
      </trkpt>
      <trkpt lat="42.554938998073339" lon="-6.591984964907169">
        <ele>512</ele>
        <time>2018-05-22T09:19:00Z</time>
      </trkpt>
      <trkpt lat="42.554912008345127" lon="-6.591993011534214">
        <ele>512</ele>
        <time>2018-05-22T09:19:01Z</time>
      </trkpt>
      <trkpt lat="42.554878983646631" lon="-6.592004997655749">
        <ele>512</ele>
        <time>2018-05-22T09:19:02Z</time>
      </trkpt>
      <trkpt lat="42.554842019453645" lon="-6.59202603623271">
        <ele>514</ele>
        <time>2018-05-22T09:19:03Z</time>
      </trkpt>
      <trkpt lat="42.554804971441627" lon="-6.592045985162258">
        <ele>514</ele>
        <time>2018-05-22T09:19:04Z</time>
      </trkpt>
      <trkpt lat="42.554774964228272" lon="-6.592055037617683">
        <ele>514</ele>
        <time>2018-05-22T09:19:05Z</time>
      </trkpt>
      <trkpt lat="42.554748980328441" lon="-6.592070963233709">
        <ele>514</ele>
        <time>2018-05-22T09:19:06Z</time>
      </trkpt>
      <trkpt lat="42.554718973115087" lon="-6.592086972668767">
        <ele>514</ele>
        <time>2018-05-22T09:19:07Z</time>
      </trkpt>
      <trkpt lat="42.5546820089221" lon="-6.592103987932205">
        <ele>514</ele>
        <time>2018-05-22T09:19:08Z</time>
      </trkpt>
      <trkpt lat="42.554656025022268" lon="-6.59211203455925">
        <ele>514</ele>
        <time>2018-05-22T09:19:09Z</time>
      </trkpt>
      <trkpt lat="42.55461897701025" lon="-6.592124020680785">
        <ele>514</ele>
        <time>2018-05-22T09:19:10Z</time>
      </trkpt>
      <trkpt lat="42.554582012817264" lon="-6.592137012630701">
        <ele>512</ele>
        <time>2018-05-22T09:19:11Z</time>
      </trkpt>
      <trkpt lat="42.554552005603909" lon="-6.592153022065759">
        <ele>512</ele>
        <time>2018-05-22T09:19:12Z</time>
      </trkpt>
      <trkpt lat="42.554521998390555" lon="-6.592156961560249">
        <ele>512</ele>
        <time>2018-05-22T09:19:13Z</time>
      </trkpt>
      <trkpt lat="42.554486040025949" lon="-6.592169031500816">
        <ele>512</ele>
        <time>2018-05-22T09:19:14Z</time>
      </trkpt>
      <trkpt lat="42.554452009499073" lon="-6.592182023450732">
        <ele>512</ele>
        <time>2018-05-22T09:19:15Z</time>
      </trkpt>
      <trkpt lat="42.554415967315435" lon="-6.592194009572268">
        <ele>512</ele>
        <time>2018-05-22T09:19:16Z</time>
      </trkpt>
      <trkpt lat="42.554385960102081" lon="-6.592210019007325">
        <ele>512</ele>
        <time>2018-05-22T09:19:17Z</time>
      </trkpt>
      <trkpt lat="42.554358970373869" lon="-6.592214964330196">
        <ele>512</ele>
        <time>2018-05-22T09:19:18Z</time>
      </trkpt>
      <trkpt lat="42.554331980645657" lon="-6.592227034270763">
        <ele>512</ele>
        <time>2018-05-22T09:19:19Z</time>
      </trkpt>
      <trkpt lat="42.554305996745825" lon="-6.592234997078776">
        <ele>512</ele>
        <time>2018-05-22T09:19:19Z</time>
      </trkpt>
      <trkpt lat="42.554271966218948" lon="-6.592242959886789">
        <ele>512</ele>
        <time>2018-05-22T09:19:20Z</time>
      </trkpt>
      <trkpt lat="42.554242964833975" lon="-6.592256035655737">
        <ele>512</ele>
        <time>2018-05-22T09:19:21Z</time>
      </trkpt>
      <trkpt lat="42.55420901812613" lon="-6.592268021777272">
        <ele>512</ele>
        <time>2018-05-22T09:19:22Z</time>
      </trkpt>
      <trkpt lat="42.554175993427634" lon="-6.592268021777272">
        <ele>512</ele>
        <time>2018-05-22T09:19:23Z</time>
      </trkpt>
      <trkpt lat="42.554139029234648" lon="-6.592280007898808">
        <ele>512</ele>
        <time>2018-05-22T09:19:24Z</time>
      </trkpt>
      <trkpt lat="42.554109022021294" lon="-6.59228403121233">
        <ele>512</ele>
        <time>2018-05-22T09:19:25Z</time>
      </trkpt>
      <trkpt lat="42.55407901480794" lon="-6.592287970706821">
        <ele>512</ele>
        <time>2018-05-22T09:19:26Z</time>
      </trkpt>
      <trkpt lat="42.554049007594585" lon="-6.592291994020343">
        <ele>512</ele>
        <time>2018-05-22T09:19:27Z</time>
      </trkpt>
      <trkpt lat="42.554019000381231" lon="-6.592304985970259">
        <ele>512</ele>
        <time>2018-05-22T09:19:28Z</time>
      </trkpt>
      <trkpt lat="42.553988993167877" lon="-6.592313032597303">
        <ele>512</ele>
        <time>2018-05-22T09:19:29Z</time>
      </trkpt>
      <trkpt lat="42.553963009268045" lon="-6.592316972091794">
        <ele>512</ele>
        <time>2018-05-22T09:19:30Z</time>
      </trkpt>
      <trkpt lat="42.553933002054691" lon="-6.592328958213329">
        <ele>512</ele>
        <time>2018-05-22T09:19:31Z</time>
      </trkpt>
      <trkpt lat="42.553906012326479" lon="-6.592332981526852">
        <ele>512</ele>
        <time>2018-05-22T09:19:31Z</time>
      </trkpt>
      <trkpt lat="42.553879022598267" lon="-6.592342033982277">
        <ele>512</ele>
        <time>2018-05-22T09:19:32Z</time>
      </trkpt>
      <trkpt lat="42.553850021213293" lon="-6.59234999679029">
        <ele>512</ele>
        <time>2018-05-22T09:19:33Z</time>
      </trkpt>
      <trkpt lat="42.553815990686417" lon="-6.592357959598303">
        <ele>512</ele>
        <time>2018-05-22T09:19:34Z</time>
      </trkpt>
      <trkpt lat="42.553790006786585" lon="-6.592366006225348">
        <ele>512</ele>
        <time>2018-05-22T09:19:35Z</time>
      </trkpt>
      <trkpt lat="42.553752958774567" lon="-6.592378998175263">
        <ele>510</ele>
        <time>2018-05-22T09:19:36Z</time>
      </trkpt>
      <trkpt lat="42.553712977096438" lon="-6.592390984296799">
        <ele>510</ele>
        <time>2018-05-22T09:19:37Z</time>
      </trkpt>
      <trkpt lat="42.553685987368226" lon="-6.592399030923843">
        <ele>510</ele>
        <time>2018-05-22T09:19:38Z</time>
      </trkpt>
      <trkpt lat="42.553655980154872" lon="-6.592402970418334">
        <ele>510</ele>
        <time>2018-05-22T09:19:39Z</time>
      </trkpt>
      <trkpt lat="42.553625972941518" lon="-6.592406993731856">
        <ele>510</ele>
        <time>2018-05-22T09:19:40Z</time>
      </trkpt>
      <trkpt lat="42.553582973778248" lon="-6.592411017045379">
        <ele>510</ele>
        <time>2018-05-22T09:19:41Z</time>
      </trkpt>
      <trkpt lat="42.553552966564894" lon="-6.592424008995295">
        <ele>510</ele>
        <time>2018-05-22T09:19:42Z</time>
      </trkpt>
      <trkpt lat="42.55352295935154" lon="-6.592428032308817">
        <ele>510</ele>
        <time>2018-05-22T09:19:43Z</time>
      </trkpt>
      <trkpt lat="42.553482977673411" lon="-6.592431971803308">
        <ele>510</ele>
        <time>2018-05-22T09:19:44Z</time>
      </trkpt>
      <trkpt lat="42.553448025137186" lon="-6.592440018430352">
        <ele>510</ele>
        <time>2018-05-22T09:19:45Z</time>
      </trkpt>
      <trkpt lat="42.553234035149217" lon="-6.592493997886777">
        <ele>510</ele>
        <time>2018-05-22T09:19:52Z</time>
      </trkpt>
      <trkpt lat="42.553223976865411" lon="-6.592498021200299">
        <ele>508</ele>
        <time>2018-05-22T09:19:52Z</time>
      </trkpt>
      <trkpt lat="42.553196987137198" lon="-6.592511013150215">
        <ele>510</ele>
        <time>2018-05-22T09:19:53Z</time>
      </trkpt>
      <trkpt lat="42.553163962438703" lon="-6.592530962079763">
        <ele>510</ele>
        <time>2018-05-22T09:19:54Z</time>
      </trkpt>
      <trkpt lat="42.55313697271049" lon="-6.592534985393286">
        <ele>510</ele>
        <time>2018-05-22T09:19:55Z</time>
      </trkpt>
      <trkpt lat="42.553106965497136" lon="-6.592539008706808">
        <ele>510</ele>
        <time>2018-05-22T09:19:56Z</time>
      </trkpt>
      <trkpt lat="42.553080981597304" lon="-6.59254303202033">
        <ele>510</ele>
        <time>2018-05-22T09:19:56Z</time>
      </trkpt>
      <trkpt lat="42.55305097438395" lon="-6.592546971514821">
        <ele>510</ele>
        <time>2018-05-22T09:19:57Z</time>
      </trkpt>
      <trkpt lat="42.553018033504486" lon="-6.592552000656724">
        <ele>510</ele>
        <time>2018-05-22T09:19:58Z</time>
      </trkpt>
      <trkpt lat="42.55298400297761" lon="-6.592556023970246">
        <ele>510</ele>
        <time>2018-05-22T09:19:59Z</time>
      </trkpt>
      <trkpt lat="42.552953995764256" lon="-6.592563986778259">
        <ele>510</ele>
        <time>2018-05-22T09:20:00Z</time>
      </trkpt>
      <trkpt lat="42.55292097106576" lon="-6.592568010091782">
        <ele>508</ele>
        <time>2018-05-22T09:20:01Z</time>
      </trkpt>
      <trkpt lat="42.552893981337547" lon="-6.592572033405304">
        <ele>508</ele>
        <time>2018-05-22T09:20:02Z</time>
      </trkpt>
      <trkpt lat="42.552867997437716" lon="-6.592579996213317">
        <ele>508</ele>
        <time>2018-05-22T09:20:03Z</time>
      </trkpt>
      <trkpt lat="42.552841007709503" lon="-6.592584019526839">
        <ele>508</ele>
        <time>2018-05-22T09:20:03Z</time>
      </trkpt>
      <trkpt lat="42.552818041294813" lon="-6.592601034790278">
        <ele>508</ele>
        <time>2018-05-22T09:20:04Z</time>
      </trkpt>
      <trkpt lat="42.552788034081459" lon="-6.59260899759829">
        <ele>508</ele>
        <time>2018-05-22T09:20:05Z</time>
      </trkpt>
      <trkpt lat="42.552758026868105" lon="-6.592633975669742">
        <ele>508</ele>
        <time>2018-05-22T09:20:06Z</time>
      </trkpt>
      <trkpt lat="42.552731037139893" lon="-6.592649985104799">
        <ele>508</ele>
        <time>2018-05-22T09:20:07Z</time>
      </trkpt>
      <trkpt lat="42.552711004391313" lon="-6.592665994539857">
        <ele>508</ele>
        <time>2018-05-22T09:20:08Z</time>
      </trkpt>
      <trkpt lat="42.552688037976623" lon="-6.592683009803295">
        <ele>508</ele>
        <time>2018-05-22T09:20:08Z</time>
      </trkpt>
      <trkpt lat="42.552655013278127" lon="-6.592706982046366">
        <ele>508</ele>
        <time>2018-05-22T09:20:10Z</time>
      </trkpt>
      <trkpt lat="42.552628023549914" lon="-6.592719973996282">
        <ele>508</ele>
        <time>2018-05-22T09:20:10Z</time>
      </trkpt>
      <trkpt lat="42.552604973316193" lon="-6.592744030058384">
        <ele>508</ele>
        <time>2018-05-22T09:20:11Z</time>
      </trkpt>
      <trkpt lat="42.55257798358798" lon="-6.592760961502791">
        <ele>508</ele>
        <time>2018-05-22T09:20:12Z</time>
      </trkpt>
      <trkpt lat="42.552550993859768" lon="-6.592789040878415">
        <ele>508</ele>
        <time>2018-05-22T09:20:13Z</time>
      </trkpt>
      <trkpt lat="42.552520986646414" lon="-6.592809995636344">
        <ele>508</ele>
        <time>2018-05-22T09:20:14Z</time>
      </trkpt>
      <trkpt lat="42.552495002746582" lon="-6.592834973707795">
        <ele>511</ele>
        <time>2018-05-22T09:20:15Z</time>
      </trkpt>
      <trkpt lat="42.552471030503511" lon="-6.592850983142853">
        <ele>511</ele>
        <time>2018-05-22T09:20:16Z</time>
      </trkpt>
      <trkpt lat="42.552444962784648" lon="-6.592872021719813">
        <ele>511</ele>
        <time>2018-05-22T09:20:17Z</time>
      </trkpt>
      <trkpt lat="42.552415039390326" lon="-6.592888031154871">
        <ele>511</ele>
        <time>2018-05-22T09:20:18Z</time>
      </trkpt>
      <trkpt lat="42.552390983328223" lon="-6.592907980084419">
        <ele>511</ele>
        <time>2018-05-22T09:20:19Z</time>
      </trkpt>
      <trkpt lat="42.552355024963617" lon="-6.59292901866138">
        <ele>511</ele>
        <time>2018-05-22T09:20:20Z</time>
      </trkpt>
      <trkpt lat="42.552317976951599" lon="-6.592948967590928">
        <ele>511</ele>
        <time>2018-05-22T09:20:21Z</time>
      </trkpt>
      <trkpt lat="42.552285036072135" lon="-6.592961959540844">
        <ele>511</ele>
        <time>2018-05-22T09:20:22Z</time>
      </trkpt>
      <trkpt lat="42.552255028858781" lon="-6.592974029481411">
        <ele>511</ele>
        <time>2018-05-22T09:20:23Z</time>
      </trkpt>
      <trkpt lat="42.552222004160285" lon="-6.592977968975902">
        <ele>511</ele>
        <time>2018-05-22T09:20:24Z</time>
      </trkpt>
      <trkpt lat="42.552195014432073" lon="-6.592986015602946">
        <ele>511</ele>
        <time>2018-05-22T09:20:25Z</time>
      </trkpt>
      <trkpt lat="42.552164001390338" lon="-6.592986015602946">
        <ele>511</ele>
        <time>2018-05-22T09:20:26Z</time>
      </trkpt>
      <trkpt lat="42.551973983645439" lon="-6.593074025586247">
        <ele>509</ele>
        <time>2018-05-22T09:20:32Z</time>
      </trkpt>
      <trkpt lat="42.551816990599036" lon="-6.59312498755753">
        <ele>509</ele>
        <time>2018-05-22T09:20:36Z</time>
      </trkpt>
      <trkpt lat="42.551535023376346" lon="-6.593234958127141">
        <ele>509</ele>
        <time>2018-05-22T09:20:45Z</time>
      </trkpt>
      <trkpt lat="42.551367972046137" lon="-6.593303019180894">
        <ele>509</ele>
        <time>2018-05-22T09:20:50Z</time>
      </trkpt>
      <trkpt lat="42.551172003149986" lon="-6.593370996415615">
        <ele>507</ele>
        <time>2018-05-22T09:20:56Z</time>
      </trkpt>
      <trkpt lat="42.550960024818778" lon="-6.593441991135478">
        <ele>507</ele>
        <time>2018-05-22T09:21:03Z</time>
      </trkpt>
      <trkpt lat="42.550718039274216" lon="-6.593548022210598">
        <ele>507</ele>
        <time>2018-05-22T09:21:10Z</time>
      </trkpt>
      <trkpt lat="42.550497008487582" lon="-6.593619016930461">
        <ele>507</ele>
        <time>2018-05-22T09:21:17Z</time>
      </trkpt>
      <trkpt lat="42.550232978537679" lon="-6.593705015257001">
        <ele>508</ele>
        <time>2018-05-22T09:21:25Z</time>
      </trkpt>
      <trkpt lat="42.550229039043188" lon="-6.593705015257001">
        <ele>508</ele>
        <time>2018-05-22T09:21:25Z</time>
      </trkpt>
      <trkpt lat="42.549866018816829" lon="-6.59380903467536">
        <ele>508</ele>
        <time>2018-05-22T09:21:36Z</time>
      </trkpt>
      <trkpt lat="42.549599977210164" lon="-6.593891009688377">
        <ele>508</ele>
        <time>2018-05-22T09:21:44Z</time>
      </trkpt>
      <trkpt lat="42.549596037715673" lon="-6.59389603883028">
        <ele>508</ele>
        <time>2018-05-22T09:21:44Z</time>
      </trkpt>
      <trkpt lat="42.549338964745402" lon="-6.593945994973183">
        <ele>507</ele>
        <time>2018-05-22T09:21:52Z</time>
      </trkpt>
      <trkpt lat="42.549250032752752" lon="-6.593974996358156">
        <ele>507</ele>
        <time>2018-05-22T09:21:54Z</time>
      </trkpt>
      <trkpt lat="42.549247015267611" lon="-6.593974996358156">
        <ele>507</ele>
        <time>2018-05-22T09:21:55Z</time>
      </trkpt>
      <trkpt lat="42.549217008054256" lon="-6.593979019671679">
        <ele>507</ele>
        <time>2018-05-22T09:21:55Z</time>
      </trkpt>
      <trkpt lat="42.549190018326044" lon="-6.593986982479692">
        <ele>507</ele>
        <time>2018-05-22T09:21:56Z</time>
      </trkpt>
      <trkpt lat="42.54916001111269" lon="-6.593991005793214">
        <ele>507</ele>
        <time>2018-05-22T09:21:57Z</time>
      </trkpt>
      <trkpt lat="42.549134027212858" lon="-6.593995029106736">
        <ele>507</ele>
        <time>2018-05-22T09:21:58Z</time>
      </trkpt>
      <trkpt lat="42.549099996685982" lon="-6.593995029106736">
        <ele>507</ele>
        <time>2018-05-22T09:21:59Z</time>
      </trkpt>
      <trkpt lat="42.549066971987486" lon="-6.593995029106736">
        <ele>507</ele>
        <time>2018-05-22T09:22:00Z</time>
      </trkpt>
      <trkpt lat="42.549036964774132" lon="-6.593991005793214">
        <ele>507</ele>
        <time>2018-05-22T09:22:01Z</time>
      </trkpt>
      <trkpt lat="42.549007041379809" lon="-6.593991005793214">
        <ele>507</ele>
        <time>2018-05-22T09:22:02Z</time>
      </trkpt>
      <trkpt lat="42.548977034166455" lon="-6.593982959166169">
        <ele>507</ele>
        <time>2018-05-22T09:22:03Z</time>
      </trkpt>
      <trkpt lat="42.548947026953101" lon="-6.593966027721763">
        <ele>507</ele>
        <time>2018-05-22T09:22:04Z</time>
      </trkpt>
      <trkpt lat="42.548909978941083" lon="-6.593957981094718">
        <ele>507</ele>
        <time>2018-05-22T09:22:05Z</time>
      </trkpt>
      <trkpt lat="42.548874020576477" lon="-6.593945994973183">
        <ele>507</ele>
        <time>2018-05-22T09:22:06Z</time>
      </trkpt>
      <trkpt lat="42.548844013363123" lon="-6.59393803216517">
        <ele>507</ele>
        <time>2018-05-22T09:22:07Z</time>
      </trkpt>
      <trkpt lat="42.548817023634911" lon="-6.593934008851647">
        <ele>507</ele>
        <time>2018-05-22T09:22:07Z</time>
      </trkpt>
      <trkpt lat="42.548791039735079" lon="-6.593916993588209">
        <ele>507</ele>
        <time>2018-05-22T09:22:08Z</time>
      </trkpt>
      <trkpt lat="42.548762960359454" lon="-6.593909030780196">
        <ele>509</ele>
        <time>2018-05-22T09:22:09Z</time>
      </trkpt>
      <trkpt lat="42.548733036965132" lon="-6.593900984153152">
        <ele>509</ele>
        <time>2018-05-22T09:22:10Z</time>
      </trkpt>
      <trkpt lat="42.548705963417888" lon="-6.593887992203236">
        <ele>509</ele>
        <time>2018-05-22T09:22:11Z</time>
      </trkpt>
      <trkpt lat="42.548676040023565" lon="-6.593883968889713">
        <ele>509</ele>
        <time>2018-05-22T09:22:12Z</time>
      </trkpt>
      <trkpt lat="42.548643015325069" lon="-6.593883968889713">
        <ele>509</ele>
        <time>2018-05-22T09:22:13Z</time>
      </trkpt>
      <trkpt lat="42.548613008111715" lon="-6.593883968889713">
        <ele>509</ele>
        <time>2018-05-22T09:22:14Z</time>
      </trkpt>
      <trkpt lat="42.548579983413219" lon="-6.593883968889713">
        <ele>509</ele>
        <time>2018-05-22T09:22:15Z</time>
      </trkpt>
      <trkpt lat="42.548546036705375" lon="-6.593883968889713">
        <ele>509</ele>
        <time>2018-05-22T09:22:16Z</time>
      </trkpt>
      <trkpt lat="42.548516029492021" lon="-6.593883968889713">
        <ele>509</ele>
        <time>2018-05-22T09:22:17Z</time>
      </trkpt>
      <trkpt lat="42.548479987308383" lon="-6.593883968889713">
        <ele>509</ele>
        <time>2018-05-22T09:22:18Z</time>
      </trkpt>
      <trkpt lat="42.548446040600538" lon="-6.593883968889713">
        <ele>509</ele>
        <time>2018-05-22T09:22:19Z</time>
      </trkpt>
      <trkpt lat="42.548413015902042" lon="-6.593883968889713">
        <ele>509</ele>
        <time>2018-05-22T09:22:20Z</time>
      </trkpt>
      <trkpt lat="42.54838602617383" lon="-6.593893021345139">
        <ele>509</ele>
        <time>2018-05-22T09:22:20Z</time>
      </trkpt>
      <trkpt lat="42.548359958454967" lon="-6.593896960839629">
        <ele>509</ele>
        <time>2018-05-22T09:22:21Z</time>
      </trkpt>
      <trkpt lat="42.548335986211896" lon="-6.593909030780196">
        <ele>509</ele>
        <time>2018-05-22T09:22:22Z</time>
      </trkpt>
      <trkpt lat="42.548313019797206" lon="-6.593925040215254">
        <ele>509</ele>
        <time>2018-05-22T09:22:23Z</time>
      </trkpt>
      <trkpt lat="42.548286030068994" lon="-6.59393803216517">
        <ele>509</ele>
        <time>2018-05-22T09:22:24Z</time>
      </trkpt>
      <trkpt lat="42.548262979835272" lon="-6.593954041600227">
        <ele>509</ele>
        <time>2018-05-22T09:22:24Z</time>
      </trkpt>
      <trkpt lat="42.548235990107059" lon="-6.593966027721763">
        <ele>509</ele>
        <time>2018-05-22T09:22:25Z</time>
      </trkpt>
      <trkpt lat="42.548200031742454" lon="-6.593982959166169">
        <ele>509</ele>
        <time>2018-05-22T09:22:26Z</time>
      </trkpt>
      <trkpt lat="42.54817295819521" lon="-6.593995029106736">
        <ele>509</ele>
        <time>2018-05-22T09:22:27Z</time>
      </trkpt>
      <trkpt lat="42.548146974295378" lon="-6.594011960551143">
        <ele>509</ele>
        <time>2018-05-22T09:22:28Z</time>
      </trkpt>
      <trkpt lat="42.548116967082024" lon="-6.594020007178187">
        <ele>509</ele>
        <time>2018-05-22T09:22:29Z</time>
      </trkpt>
      <trkpt lat="42.548089977353811" lon="-6.594031993299723">
        <ele>509</ele>
        <time>2018-05-22T09:22:30Z</time>
      </trkpt>
      <trkpt lat="42.548059970140457" lon="-6.594043979421258">
        <ele>509</ele>
        <time>2018-05-22T09:22:31Z</time>
      </trkpt>
      <trkpt lat="42.548032980412245" lon="-6.594053031876683">
        <ele>509</ele>
        <time>2018-05-22T09:22:32Z</time>
      </trkpt>
      <trkpt lat="42.548006996512413" lon="-6.594056971371174">
        <ele>509</ele>
        <time>2018-05-22T09:22:32Z</time>
      </trkpt>
      <trkpt lat="42.547972965985537" lon="-6.594060994684696">
        <ele>509</ele>
        <time>2018-05-22T09:22:33Z</time>
      </trkpt>
      <trkpt lat="42.547942958772182" lon="-6.594060994684696">
        <ele>512</ele>
        <time>2018-05-22T09:22:34Z</time>
      </trkpt>
      <trkpt lat="42.547910017892718" lon="-6.594060994684696">
        <ele>512</ele>
        <time>2018-05-22T09:22:35Z</time>
      </trkpt>
      <trkpt lat="42.547880010679364" lon="-6.594060994684696">
        <ele>512</ele>
        <time>2018-05-22T09:22:36Z</time>
      </trkpt>
      <trkpt lat="42.547854026779532" lon="-6.594056971371174">
        <ele>512</ele>
        <time>2018-05-22T09:22:37Z</time>
      </trkpt>
      <trkpt lat="42.547824019566178" lon="-6.594043979421258">
        <ele>512</ele>
        <time>2018-05-22T09:22:38Z</time>
      </trkpt>
      <trkpt lat="42.547796024009585" lon="-6.594036016613245">
        <ele>512</ele>
        <time>2018-05-22T09:22:39Z</time>
      </trkpt>
      <trkpt lat="42.547769034281373" lon="-6.594031993299723">
        <ele>512</ele>
        <time>2018-05-22T09:22:39Z</time>
      </trkpt>
      <trkpt lat="42.547739027068019" lon="-6.59402403049171">
        <ele>512</ele>
        <time>2018-05-22T09:22:40Z</time>
      </trkpt>
      <trkpt lat="42.547714971005917" lon="-6.594001986086369">
        <ele>512</ele>
        <time>2018-05-22T09:22:41Z</time>
      </trkpt>
      <trkpt lat="42.547603994607925" lon="-6.593915987759829">
        <ele>512</ele>
        <time>2018-05-22T09:22:45Z</time>
      </trkpt>
      <trkpt lat="42.547600977122784" lon="-6.593886986374855">
        <ele>512</ele>
        <time>2018-05-22T09:22:46Z</time>
      </trkpt>
      <trkpt lat="42.547583961859345" lon="-6.593850022181869">
        <ele>512</ele>
        <time>2018-05-22T09:22:47Z</time>
      </trkpt>
      <trkpt lat="42.547564012929797" lon="-6.593821020796895">
        <ele>512</ele>
        <time>2018-05-22T09:22:47Z</time>
      </trkpt>
      <trkpt lat="42.547537023201585" lon="-6.593793025240302">
        <ele>512</ele>
        <time>2018-05-22T09:22:48Z</time>
      </trkpt>
      <trkpt lat="42.547508021816611" lon="-6.593793025240302">
        <ele>512</ele>
        <time>2018-05-22T09:22:49Z</time>
      </trkpt>
      <trkpt lat="42.547478014603257" lon="-6.593793025240302">
        <ele>512</ele>
        <time>2018-05-22T09:22:50Z</time>
      </trkpt>
      <trkpt lat="42.547444989904761" lon="-6.593793025240302">
        <ele>512</ele>
        <time>2018-05-22T09:22:51Z</time>
      </trkpt>
      <trkpt lat="42.547414982691407" lon="-6.593793025240302">
        <ele>512</ele>
        <time>2018-05-22T09:22:52Z</time>
      </trkpt>
      <trkpt lat="42.547387992963195" lon="-6.593796964734793">
        <ele>512</ele>
        <time>2018-05-22T09:22:53Z</time>
      </trkpt>
      <trkpt lat="42.547362009063363" lon="-6.593793025240302">
        <ele>512</ele>
        <time>2018-05-22T09:22:54Z</time>
      </trkpt>
      <trkpt lat="42.547328984364867" lon="-6.593793025240302">
        <ele>512</ele>
        <time>2018-05-22T09:22:55Z</time>
      </trkpt>
      <trkpt lat="42.547298977151513" lon="-6.593793025240302">
        <ele>512</ele>
        <time>2018-05-22T09:22:55Z</time>
      </trkpt>
      <trkpt lat="42.547275004908442" lon="-6.593771986663342">
        <ele>512</ele>
        <time>2018-05-22T09:22:56Z</time>
      </trkpt>
      <trkpt lat="42.547249021008611" lon="-6.593738961964846">
        <ele>512</ele>
        <time>2018-05-22T09:22:57Z</time>
      </trkpt>
      <trkpt lat="42.547219013795257" lon="-6.59370300360024">
        <ele>512</ele>
        <time>2018-05-22T09:22:59Z</time>
      </trkpt>
      <trkpt lat="42.54720501601696" lon="-6.593662016093731">
        <ele>512</ele>
        <time>2018-05-22T09:22:59Z</time>
      </trkpt>
      <trkpt lat="42.547181965783238" lon="-6.593624968081713">
        <ele>513</ele>
        <time>2018-05-22T09:23:01Z</time>
      </trkpt>
      <trkpt lat="42.547165034338832" lon="-6.593595966696739">
        <ele>513</ele>
        <time>2018-05-22T09:23:01Z</time>
      </trkpt>
      <trkpt lat="42.547145001590252" lon="-6.593570988625288">
        <ele>513</ele>
        <time>2018-05-22T09:23:02Z</time>
      </trkpt>
      <trkpt lat="42.547123041003942" lon="-6.59355103969574">
        <ele>513</ele>
        <time>2018-05-22T09:23:03Z</time>
      </trkpt>
      <trkpt lat="42.547069983556867" lon="-6.593302013352513">
        <ele>515</ele>
        <time>2018-05-22T09:23:09Z</time>
      </trkpt>
      <trkpt lat="42.547024972736835" lon="-6.593047035858035">
        <ele>515</ele>
        <time>2018-05-22T09:23:14Z</time>
      </trkpt>
      <trkpt lat="42.546949032694101" lon="-6.592752998694778">
        <ele>516</ele>
        <time>2018-05-22T09:23:21Z</time>
      </trkpt>
      <trkpt lat="42.546911984682083" lon="-6.592556023970246">
        <ele>516</ele>
        <time>2018-05-22T09:23:26Z</time>
      </trkpt>
      <trkpt lat="42.546894969418645" lon="-6.592527022585273">
        <ele>516</ele>
        <time>2018-05-22T09:23:26Z</time>
      </trkpt>
      <trkpt lat="42.546868985518813" lon="-6.592473965138197">
        <ele>516</ele>
        <time>2018-05-22T09:23:28Z</time>
      </trkpt>
      <trkpt lat="42.546849036589265" lon="-6.592453010380268">
        <ele>516</ele>
        <time>2018-05-22T09:23:28Z</time>
      </trkpt>
      <trkpt lat="42.546829003840685" lon="-6.592437000945211">
        <ele>516</ele>
        <time>2018-05-22T09:23:29Z</time>
      </trkpt>
      <trkpt lat="42.546807965263724" lon="-6.592444963753223">
        <ele>516</ele>
        <time>2018-05-22T09:23:30Z</time>
      </trkpt>
      <trkpt lat="42.546780975535512" lon="-6.592453010380268">
        <ele>516</ele>
        <time>2018-05-22T09:23:31Z</time>
      </trkpt>
      <trkpt lat="42.546757003292441" lon="-6.592461979016662">
        <ele>516</ele>
        <time>2018-05-22T09:23:31Z</time>
      </trkpt>
      <trkpt lat="42.546730013564229" lon="-6.592470025643706">
        <ele>516</ele>
        <time>2018-05-22T09:23:32Z</time>
      </trkpt>
      <trkpt lat="42.546705035492778" lon="-6.592482011765242">
        <ele>516</ele>
        <time>2018-05-22T09:23:33Z</time>
      </trkpt>
      <trkpt lat="42.546675028279424" lon="-6.592486035078764">
        <ele>516</ele>
        <time>2018-05-22T09:23:34Z</time>
      </trkpt>
      <trkpt lat="42.546637980267406" lon="-6.592496009543538">
        <ele>516</ele>
        <time>2018-05-22T09:23:35Z</time>
      </trkpt>
      <trkpt lat="42.546617025509477" lon="-6.592512018978596">
        <ele>516</ele>
        <time>2018-05-22T09:23:36Z</time>
      </trkpt>
      <trkpt lat="42.546556005254388" lon="-6.592493997886777">
        <ele>516</ele>
        <time>2018-05-22T09:23:38Z</time>
      </trkpt>
      <trkpt lat="42.546533038839698" lon="-6.592502966523171">
        <ele>516</ele>
        <time>2018-05-22T09:23:38Z</time>
      </trkpt>
      <trkpt lat="42.546503031626344" lon="-6.592515036463738">
        <ele>516</ele>
        <time>2018-05-22T09:23:39Z</time>
      </trkpt>
      <trkpt lat="42.546476041898131" lon="-6.592518975958228">
        <ele>516</ele>
        <time>2018-05-22T09:23:40Z</time>
      </trkpt>
      <trkpt lat="42.546448968350887" lon="-6.592527022585273">
        <ele>516</ele>
        <time>2018-05-22T09:23:41Z</time>
      </trkpt>
      <trkpt lat="42.546422984451056" lon="-6.592530962079763">
        <ele>516</ele>
        <time>2018-05-22T09:23:42Z</time>
      </trkpt>
      <trkpt lat="42.54638995975256" lon="-6.592534985393286">
        <ele>516</ele>
        <time>2018-05-22T09:23:43Z</time>
      </trkpt>
      <trkpt lat="42.546356013044715" lon="-6.592540014535189">
        <ele>516</ele>
        <time>2018-05-22T09:23:44Z</time>
      </trkpt>
      <trkpt lat="42.546326005831361" lon="-6.592547977343202">
        <ele>516</ele>
        <time>2018-05-22T09:23:44Z</time>
      </trkpt>
      <trkpt lat="42.546289963647723" lon="-6.592547977343202">
        <ele>528</ele>
        <time>2018-05-22T09:23:46Z</time>
      </trkpt>
      <trkpt lat="42.546256016939878" lon="-6.592547977343202">
        <ele>528</ele>
        <time>2018-05-22T09:23:47Z</time>
      </trkpt>
      <trkpt lat="42.546226009726524" lon="-6.592547977343202">
        <ele>528</ele>
        <time>2018-05-22T09:23:47Z</time>
      </trkpt>
      <trkpt lat="42.546192985028028" lon="-6.592547977343202">
        <ele>528</ele>
        <time>2018-05-22T09:23:48Z</time>
      </trkpt>
      <trkpt lat="42.5461530033499" lon="-6.592547977343202">
        <ele>528</ele>
        <time>2018-05-22T09:23:50Z</time>
      </trkpt>
      <trkpt lat="42.546119978651404" lon="-6.592547977343202">
        <ele>528</ele>
        <time>2018-05-22T09:23:51Z</time>
      </trkpt>
      <trkpt lat="42.54608603194356" lon="-6.592547977343202">
        <ele>528</ele>
        <time>2018-05-22T09:23:52Z</time>
      </trkpt>
      <trkpt lat="42.546059964224696" lon="-6.592556023970246">
        <ele>528</ele>
        <time>2018-05-22T09:23:52Z</time>
      </trkpt>
      <trkpt lat="42.546030040830374" lon="-6.592556023970246">
        <ele>528</ele>
        <time>2018-05-22T09:23:53Z</time>
      </trkpt>
      <trkpt lat="42.545992992818356" lon="-6.592556023970246">
        <ele>528</ele>
        <time>2018-05-22T09:23:54Z</time>
      </trkpt>
      <trkpt lat="42.545962985605001" lon="-6.592559963464737">
        <ele>528</ele>
        <time>2018-05-22T09:23:55Z</time>
      </trkpt>
      <trkpt lat="42.545929960906506" lon="-6.592559963464737">
        <ele>528</ele>
        <time>2018-05-22T09:23:56Z</time>
      </trkpt>
      <trkpt lat="42.545902971178293" lon="-6.592563986778259">
        <ele>528</ele>
        <time>2018-05-22T09:23:57Z</time>
      </trkpt>
      <trkpt lat="42.545872963964939" lon="-6.592572033405304">
        <ele>528</ele>
        <time>2018-05-22T09:23:58Z</time>
      </trkpt>
      <trkpt lat="42.545843040570617" lon="-6.592575972899795">
        <ele>528</ele>
        <time>2018-05-22T09:23:59Z</time>
      </trkpt>
      <trkpt lat="42.545816972851753" lon="-6.592597011476755">
        <ele>528</ele>
        <time>2018-05-22T09:24:00Z</time>
      </trkpt>
      <trkpt lat="42.545789983123541" lon="-6.59260899759829">
        <ele>528</ele>
        <time>2018-05-22T09:24:01Z</time>
      </trkpt>
      <trkpt lat="42.545762993395329" lon="-6.592621989548206">
        <ele>528</ele>
        <time>2018-05-22T09:24:01Z</time>
      </trkpt>
      <trkpt lat="42.545732986181974" lon="-6.592633975669742">
        <ele>528</ele>
        <time>2018-05-22T09:24:02Z</time>
      </trkpt>
      <trkpt lat="42.54570297896862" lon="-6.592649985104799">
        <ele>528</ele>
        <time>2018-05-22T09:24:03Z</time>
      </trkpt>
      <trkpt lat="42.545676995068789" lon="-6.592654008418322">
        <ele>528</ele>
        <time>2018-05-22T09:24:04Z</time>
      </trkpt>
      <trkpt lat="42.545650005340576" lon="-6.592659037560225">
        <ele>528</ele>
        <time>2018-05-22T09:24:05Z</time>
      </trkpt>
      <trkpt lat="42.545619998127222" lon="-6.592662977054715">
        <ele>528</ele>
        <time>2018-05-22T09:24:06Z</time>
      </trkpt>
      <trkpt lat="42.545589990913868" lon="-6.592667000368238">
        <ele>528</ele>
        <time>2018-05-22T09:24:07Z</time>
      </trkpt>
      <trkpt lat="42.545556966215372" lon="-6.59267102368176">
        <ele>528</ele>
        <time>2018-05-22T09:24:08Z</time>
      </trkpt>
      <trkpt lat="42.545524025335908" lon="-6.59267102368176">
        <ele>528</ele>
        <time>2018-05-22T09:24:09Z</time>
      </trkpt>
      <trkpt lat="42.545489994809031" lon="-6.59267102368176">
        <ele>528</ele>
        <time>2018-05-22T09:24:10Z</time>
      </trkpt>
      <trkpt lat="42.545459987595677" lon="-6.59267102368176">
        <ele>539</ele>
        <time>2018-05-22T09:24:11Z</time>
      </trkpt>
      <trkpt lat="42.545430986210704" lon="-6.59267102368176">
        <ele>539</ele>
        <time>2018-05-22T09:24:12Z</time>
      </trkpt>
      <trkpt lat="42.545405002310872" lon="-6.592662977054715">
        <ele>539</ele>
        <time>2018-05-22T09:24:12Z</time>
      </trkpt>
      <trkpt lat="42.54537801258266" lon="-6.592659037560225">
        <ele>539</ele>
        <time>2018-05-22T09:24:13Z</time>
      </trkpt>
      <trkpt lat="42.545348005369306" lon="-6.592649985104799">
        <ele>539</ele>
        <time>2018-05-22T09:24:14Z</time>
      </trkpt>
      <trkpt lat="42.545321015641093" lon="-6.592645961791277">
        <ele>539</ele>
        <time>2018-05-22T09:24:15Z</time>
      </trkpt>
      <trkpt lat="42.545290002599359" lon="-6.592637998983264">
        <ele>539</ele>
        <time>2018-05-22T09:24:16Z</time>
      </trkpt>
      <trkpt lat="42.545262007042766" lon="-6.592633975669742">
        <ele>539</ele>
        <time>2018-05-22T09:24:17Z</time>
      </trkpt>
      <trkpt lat="42.545236023142934" lon="-6.592626012861729">
        <ele>539</ele>
        <time>2018-05-22T09:24:17Z</time>
      </trkpt>
      <trkpt lat="42.545212972909212" lon="-6.592616960406303">
        <ele>539</ele>
        <time>2018-05-22T09:24:18Z</time>
      </trkpt>
      <trkpt lat="42.545182965695858" lon="-6.592597011476755">
        <ele>539</ele>
        <time>2018-05-22T09:24:19Z</time>
      </trkpt>
      <trkpt lat="42.545153964310884" lon="-6.592592988163233">
        <ele>539</ele>
        <time>2018-05-22T09:24:20Z</time>
      </trkpt>
      <trkpt lat="42.545124040916562" lon="-6.592575972899795">
        <ele>539</ele>
        <time>2018-05-22T09:24:21Z</time>
      </trkpt>
      <trkpt lat="42.545090010389686" lon="-6.592575972899795">
        <ele>539</ele>
        <time>2018-05-22T09:24:22Z</time>
      </trkpt>
      <trkpt lat="42.54505698569119" lon="-6.592568010091782">
        <ele>539</ele>
        <time>2018-05-22T09:24:23Z</time>
      </trkpt>
      <trkpt lat="42.5450340192765" lon="-6.592559963464737">
        <ele>539</ele>
        <time>2018-05-22T09:24:24Z</time>
      </trkpt>
      <trkpt lat="42.545007029548287" lon="-6.592547977343202">
        <ele>539</ele>
        <time>2018-05-22T09:24:24Z</time>
      </trkpt>
      <trkpt lat="42.544980039820075" lon="-6.592540014535189">
        <ele>539</ele>
        <time>2018-05-22T09:24:25Z</time>
      </trkpt>
      <trkpt lat="42.544950032606721" lon="-6.592522999271751">
        <ele>539</ele>
        <time>2018-05-22T09:24:26Z</time>
      </trkpt>
      <trkpt lat="42.544923964887857" lon="-6.592511013150215">
        <ele>539</ele>
        <time>2018-05-22T09:24:27Z</time>
      </trkpt>
      <trkpt lat="42.544896975159645" lon="-6.592493997886777">
        <ele>539</ele>
        <time>2018-05-22T09:24:28Z</time>
      </trkpt>
      <trkpt lat="42.544874008744955" lon="-6.592477988451719">
        <ele>540</ele>
        <time>2018-05-22T09:24:29Z</time>
      </trkpt>
      <trkpt lat="42.544845007359982" lon="-6.592477988451719">
        <ele>539</ele>
        <time>2018-05-22T09:24:30Z</time>
      </trkpt>
      <trkpt lat="42.544739982113242" lon="-6.592418979853392">
        <ele>539</ele>
        <time>2018-05-22T09:24:33Z</time>
      </trkpt>
      <trkpt lat="42.544725984334946" lon="-6.592418979853392">
        <ele>539</ele>
        <time>2018-05-22T09:24:33Z</time>
      </trkpt>
      <trkpt lat="42.544673010706902" lon="-6.592402970418334">
        <ele>539</ele>
        <time>2018-05-22T09:24:35Z</time>
      </trkpt>
      <trkpt lat="42.5446040276438" lon="-6.592402970418334">
        <ele>539</ele>
        <time>2018-05-22T09:24:37Z</time>
      </trkpt>
      <trkpt lat="42.544536972418427" lon="-6.592402970418334">
        <ele>540</ele>
        <time>2018-05-22T09:24:39Z</time>
      </trkpt>
      <trkpt lat="42.544463966041803" lon="-6.592411017045379">
        <ele>540</ele>
        <time>2018-05-22T09:24:41Z</time>
      </trkpt>
      <trkpt lat="42.544407974928617" lon="-6.592411017045379">
        <ele>540</ele>
        <time>2018-05-22T09:24:43Z</time>
      </trkpt>
      <trkpt lat="42.544355001300573" lon="-6.592418979853392">
        <ele>540</ele>
        <time>2018-05-22T09:24:44Z</time>
      </trkpt>
      <trkpt lat="42.544302027672529" lon="-6.592427026480436">
        <ele>540</ele>
        <time>2018-05-22T09:24:46Z</time>
      </trkpt>
      <trkpt lat="42.544267997145653" lon="-6.592473965138197">
        <ele>540</ele>
        <time>2018-05-22T09:24:47Z</time>
      </trkpt>
      <trkpt lat="42.544226003810763" lon="-6.592506989836693">
        <ele>540</ele>
        <time>2018-05-22T09:24:49Z</time>
      </trkpt>
      <trkpt lat="42.54417696967721" lon="-6.592533979564905">
        <ele>540</ele>
        <time>2018-05-22T09:24:50Z</time>
      </trkpt>
      <trkpt lat="42.544126007705927" lon="-6.592588964849711">
        <ele>540</ele>
        <time>2018-05-22T09:24:52Z</time>
      </trkpt>
      <trkpt lat="42.54406800493598" lon="-6.592616960406303">
        <ele>540</ele>
        <time>2018-05-22T09:24:54Z</time>
      </trkpt>
      <trkpt lat="42.544001033529639" lon="-6.592616960406303">
        <ele>540</ele>
        <time>2018-05-22T09:24:56Z</time>
      </trkpt>
      <trkpt lat="42.543956022709608" lon="-6.592632969841361">
        <ele>540</ele>
        <time>2018-05-22T09:24:58Z</time>
      </trkpt>
      <trkpt lat="42.543902965262532" lon="-6.592641016468406">
        <ele>540</ele>
        <time>2018-05-22T09:24:59Z</time>
      </trkpt>
      <trkpt lat="42.543860971927643" lon="-6.592674041166902">
        <ele>540</ele>
        <time>2018-05-22T09:25:01Z</time>
      </trkpt>
      <trkpt lat="42.543825013563037" lon="-6.592722991481423">
        <ele>540</ele>
        <time>2018-05-22T09:25:02Z</time>
      </trkpt>
      <trkpt lat="42.543780002743006" lon="-6.592761967331171">
        <ele>540</ele>
        <time>2018-05-22T09:25:04Z</time>
      </trkpt>
      <trkpt lat="42.543742032721639" lon="-6.592817036435008">
        <ele>534</ele>
        <time>2018-05-22T09:25:05Z</time>
      </trkpt>
      <trkpt lat="42.54370397888124" lon="-6.592858023941517">
        <ele>534</ele>
        <time>2018-05-22T09:25:07Z</time>
      </trkpt>
      <trkpt lat="42.54366198554635" lon="-6.592892976477742">
        <ele>534</ele>
        <time>2018-05-22T09:25:08Z</time>
      </trkpt>
      <trkpt lat="42.543611023575068" lon="-6.592920972034335">
        <ele>534</ele>
        <time>2018-05-22T09:25:10Z</time>
      </trkpt>
      <trkpt lat="42.543571041896939" lon="-6.592946033924818">
        <ele>534</ele>
        <time>2018-05-22T09:25:11Z</time>
      </trkpt>
      <trkpt lat="42.543526031076908" lon="-6.592961959540844">
        <ele>534</ele>
        <time>2018-05-22T09:25:12Z</time>
      </trkpt>
      <trkpt lat="42.543461993336678" lon="-6.593017028644681">
        <ele>534</ele>
        <time>2018-05-22T09:25:15Z</time>
      </trkpt>
      <trkpt lat="42.543441960588098" lon="-6.593049969524145">
        <ele>534</ele>
        <time>2018-05-22T09:25:16Z</time>
      </trkpt>
      <trkpt lat="42.543406002223492" lon="-6.593082994222641">
        <ele>534</ele>
        <time>2018-05-22T09:25:17Z</time>
      </trkpt>
      <trkpt lat="42.543356968089938" lon="-6.593126999214292">
        <ele>534</ele>
        <time>2018-05-22T09:25:19Z</time>
      </trkpt>
      <trkpt lat="42.543311035260558" lon="-6.5931679867208">
        <ele>534</ele>
        <time>2018-05-22T09:25:20Z</time>
      </trkpt>
      <trkpt lat="42.543277004733682" lon="-6.593217020854354">
        <ele>534</ele>
        <time>2018-05-22T09:25:22Z</time>
      </trkpt>
      <trkpt lat="42.543248003348708" lon="-6.593258008360863">
        <ele>534</ele>
        <time>2018-05-22T09:25:23Z</time>
      </trkpt>
      <trkpt lat="42.543201986700296" lon="-6.593282986432314">
        <ele>534</ele>
        <time>2018-05-22T09:25:24Z</time>
      </trkpt>
      <trkpt lat="42.543148007243872" lon="-6.593291033059359">
        <ele>534</ele>
        <time>2018-05-22T09:25:26Z</time>
      </trkpt>
      <trkpt lat="42.543084975332022" lon="-6.593291033059359">
        <ele>534</ele>
        <time>2018-05-22T09:25:28Z</time>
      </trkpt>
      <trkpt lat="42.543055973947048" lon="-6.593251973390579">
        <ele>534</ele>
        <time>2018-05-22T09:25:29Z</time>
      </trkpt>
      <trkpt lat="42.543055973947048" lon="-6.593169998377562">
        <ele>534</ele>
        <time>2018-05-22T09:25:31Z</time>
      </trkpt>
      <trkpt lat="42.543069971725345" lon="-6.593099003657699">
        <ele>534</ele>
        <time>2018-05-22T09:25:33Z</time>
      </trkpt>
      <trkpt lat="42.543082963675261" lon="-6.593030020594597">
        <ele>534</ele>
        <time>2018-05-22T09:25:34Z</time>
      </trkpt>
      <trkpt lat="42.543102996423841" lon="-6.592957014217973">
        <ele>534</ele>
        <time>2018-05-22T09:25:36Z</time>
      </trkpt>
      <trkpt lat="42.543115988373756" lon="-6.592875039204955">
        <ele>534</ele>
        <time>2018-05-22T09:25:38Z</time>
      </trkpt>
      <trkpt lat="42.543054968118668" lon="-6.592881996184588">
        <ele>534</ele>
        <time>2018-05-22T09:25:39Z</time>
      </trkpt>
      <trkpt lat="42.543035019189119" lon="-6.592901023104787">
        <ele>534</ele>
        <time>2018-05-22T09:25:40Z</time>
      </trkpt>
      <trkpt lat="42.543006017804146" lon="-6.592901023104787">
        <ele>534</ele>
        <time>2018-05-22T09:25:41Z</time>
      </trkpt>
      <trkpt lat="42.542977016419172" lon="-6.592881996184588">
        <ele>534</ele>
        <time>2018-05-22T09:25:42Z</time>
      </trkpt>
      <trkpt lat="42.542923036962748" lon="-6.592918038368225">
        <ele>529</ele>
        <time>2018-05-22T09:25:44Z</time>
      </trkpt>
      <trkpt lat="42.542793033644557" lon="-6.592910997569561">
        <ele>529</ele>
        <time>2018-05-22T09:25:48Z</time>
      </trkpt>
      <trkpt lat="42.542776018381119" lon="-6.592905968427658">
        <ele>529</ele>
        <time>2018-05-22T09:25:48Z</time>
      </trkpt>
      <trkpt lat="42.542670993134379" lon="-6.592899011448026">
        <ele>529</ele>
        <time>2018-05-22T09:25:51Z</time>
      </trkpt>
      <trkpt lat="42.542549036443233" lon="-6.59284302033484">
        <ele>529</ele>
        <time>2018-05-22T09:25:55Z</time>
      </trkpt>
      <trkpt lat="42.542386008426547" lon="-6.592859029769898">
        <ele>529</ele>
        <time>2018-05-22T09:26:00Z</time>
      </trkpt>
      <trkpt lat="42.542336974292994" lon="-6.592862969264388">
        <ele>529</ele>
        <time>2018-05-22T09:26:01Z</time>
      </trkpt>
      <trkpt lat="42.542152991518378" lon="-6.592863975092769">
        <ele>529</ele>
        <time>2018-05-22T09:26:07Z</time>
      </trkpt>
      <trkpt lat="42.542147040367126" lon="-6.592863975092769">
        <ele>529</ele>
        <time>2018-05-22T09:26:07Z</time>
      </trkpt>
      <trkpt lat="42.541979989036918" lon="-6.592921977862716">
        <ele>527</ele>
        <time>2018-05-22T09:26:12Z</time>
      </trkpt>
      <trkpt lat="42.541808998212218" lon="-6.592959025874734">
        <ele>527</ele>
        <time>2018-05-22T09:26:17Z</time>
      </trkpt>
      <trkpt lat="42.541663991287351" lon="-6.592944022268057">
        <ele>527</ele>
        <time>2018-05-22T09:26:21Z</time>
      </trkpt>
      <trkpt lat="42.541609006002545" lon="-6.59293002448976">
        <ele>527</ele>
        <time>2018-05-22T09:26:23Z</time>
      </trkpt>
      <trkpt lat="42.541535999625921" lon="-6.592904040589929">
        <ele>527</ele>
        <time>2018-05-22T09:26:25Z</time>
      </trkpt>
      <trkpt lat="42.54144798964262" lon="-6.592898005619645">
        <ele>527</ele>
        <time>2018-05-22T09:26:28Z</time>
      </trkpt>
      <trkpt lat="42.541433991864324" lon="-6.592891970649362">
        <ele>527</ele>
        <time>2018-05-22T09:26:28Z</time>
      </trkpt>
      <trkpt lat="42.541287979111075" lon="-6.592776970937848">
        <ele>520</ele>
        <time>2018-05-22T09:26:33Z</time>
      </trkpt>
      <trkpt lat="42.541271969676018" lon="-6.592756016179919">
        <ele>520</ele>
        <time>2018-05-22T09:26:34Z</time>
      </trkpt>
      <trkpt lat="42.541268030181527" lon="-6.592742018401623">
        <ele>520</ele>
        <time>2018-05-22T09:26:34Z</time>
      </trkpt>
      <trkpt lat="42.541227964684367" lon="-6.592571027576923">
        <ele>520</ele>
        <time>2018-05-22T09:26:38Z</time>
      </trkpt>
      <trkpt lat="42.541199969127774" lon="-6.592475976794958">
        <ele>520</ele>
        <time>2018-05-22T09:26:41Z</time>
      </trkpt>
      <trkpt lat="42.541140038520098" lon="-6.592419985681772">
        <ele>520</ele>
        <time>2018-05-22T09:26:43Z</time>
      </trkpt>
      <trkpt lat="42.541048005223274" lon="-6.592288976535201">
        <ele>520</ele>
        <time>2018-05-22T09:26:47Z</time>
      </trkpt>
      <trkpt lat="42.540928982198238" lon="-6.592127960175276">
        <ele>520</ele>
        <time>2018-05-22T09:26:52Z</time>
      </trkpt>
      <trkpt lat="42.540834015235305" lon="-6.591986976563931">
        <ele>513</ele>
        <time>2018-05-22T09:26:56Z</time>
      </trkpt>
      <trkpt lat="42.540748016908765" lon="-6.591823026537895">
        <ele>513</ele>
        <time>2018-05-22T09:27:00Z</time>
      </trkpt>
      <trkpt lat="42.540743993595243" lon="-6.591810034587979">
        <ele>513</ele>
        <time>2018-05-22T09:27:01Z</time>
      </trkpt>
      <trkpt lat="42.54073603078723" lon="-6.591798970475793">
        <ele>513</ele>
        <time>2018-05-22T09:27:01Z</time>
      </trkpt>
      <trkpt lat="42.540732007473707" lon="-6.591786984354258">
        <ele>513</ele>
        <time>2018-05-22T09:27:01Z</time>
      </trkpt>
      <trkpt lat="42.540724966675043" lon="-6.591769969090819">
        <ele>513</ele>
        <time>2018-05-22T09:27:02Z</time>
      </trkpt>
      <trkpt lat="42.54071599803865" lon="-6.591753959655762">
        <ele>513</ele>
        <time>2018-05-22T09:27:02Z</time>
      </trkpt>
      <trkpt lat="42.54058700054884" lon="-6.591654969379306">
        <ele>513</ele>
        <time>2018-05-22T09:27:06Z</time>
      </trkpt>
      <trkpt lat="42.540507959201932" lon="-6.591595038771629">
        <ele>513</ele>
        <time>2018-05-22T09:27:09Z</time>
      </trkpt>
      <trkpt lat="42.540393965318799" lon="-6.591465035453439">
        <ele>507</ele>
        <time>2018-05-22T09:27:14Z</time>
      </trkpt>
      <trkpt lat="42.540296986699104" lon="-6.591362021863461">
        <ele>507</ele>
        <time>2018-05-22T09:27:17Z</time>
      </trkpt>
      <trkpt lat="42.540228003636003" lon="-6.591237969696522">
        <ele>507</ele>
        <time>2018-05-22T09:27:21Z</time>
      </trkpt>
      <trkpt lat="42.54007201641798" lon="-6.591063039377332">
        <ele>506</ele>
        <time>2018-05-22T09:27:27Z</time>
      </trkpt>
      <trkpt lat="42.540057012811303" lon="-6.591046024113894">
        <ele>506</ele>
        <time>2018-05-22T09:27:27Z</time>
      </trkpt>
      <trkpt lat="42.539975959807634" lon="-6.590943010523915">
        <ele>506</ele>
        <time>2018-05-22T09:27:30Z</time>
      </trkpt>
      <trkpt lat="42.539875963702798" lon="-6.590836979448795">
        <ele>506</ele>
        <time>2018-05-22T09:27:34Z</time>
      </trkpt>
      <trkpt lat="42.539861965924501" lon="-6.590822981670499">
        <ele>506</ele>
        <time>2018-05-22T09:27:35Z</time>
      </trkpt>
      <trkpt lat="42.539851991459727" lon="-6.590808983892202">
        <ele>506</ele>
        <time>2018-05-22T09:27:35Z</time>
      </trkpt>
      <trkpt lat="42.539823995903134" lon="-6.590766990557313">
        <ele>506</ele>
        <time>2018-05-22T09:27:36Z</time>
      </trkpt>
      <trkpt lat="42.539791977033019" lon="-6.590730026364327">
        <ele>506</ele>
        <time>2018-05-22T09:27:38Z</time>
      </trkpt>
      <trkpt lat="42.539697010070086" lon="-6.590564986690879">
        <ele>506</ele>
        <time>2018-05-22T09:27:42Z</time>
      </trkpt>
      <trkpt lat="42.539682006463408" lon="-6.590533973649144">
        <ele>506</ele>
        <time>2018-05-22T09:27:43Z</time>
      </trkpt>
      <trkpt lat="42.539654010906816" lon="-6.590444035828114">
        <ele>506</ele>
        <time>2018-05-22T09:27:45Z</time>
      </trkpt>
      <trkpt lat="42.539624003693461" lon="-6.59033096395433">
        <ele>508</ele>
        <time>2018-05-22T09:27:48Z</time>
      </trkpt>
      <trkpt lat="42.539573963731527" lon="-6.590125020593405">
        <ele>504</ele>
        <time>2018-05-22T09:27:52Z</time>
      </trkpt>
      <trkpt lat="42.539544040337205" lon="-6.59000800922513">
        <ele>504</ele>
        <time>2018-05-22T09:27:55Z</time>
      </trkpt>
      <trkpt lat="42.539514033123851" lon="-6.589870965108275">
        <ele>504</ele>
        <time>2018-05-22T09:27:58Z</time>
      </trkpt>
      <trkpt lat="42.539445972070098" lon="-6.589682037010789">
        <ele>504</ele>
        <time>2018-05-22T09:28:03Z</time>
      </trkpt>
      <trkpt lat="42.539404984563589" lon="-6.589465029537678">
        <ele>507</ele>
        <time>2018-05-22T09:28:08Z</time>
      </trkpt>
      <trkpt lat="42.539342036470771" lon="-6.589337037876248">
        <ele>507</ele>
        <time>2018-05-22T09:28:11Z</time>
      </trkpt>
      <trkpt lat="42.539203986525536" lon="-6.589189013466239">
        <ele>507</ele>
        <time>2018-05-22T09:28:16Z</time>
      </trkpt>
      <trkpt lat="42.539026038721204" lon="-6.589181972667575">
        <ele>507</ele>
        <time>2018-05-22T09:28:22Z</time>
      </trkpt>
      <trkpt lat="42.538871979340911" lon="-6.589240981265903">
        <ele>507</ele>
        <time>2018-05-22T09:28:26Z</time>
      </trkpt>
      <trkpt lat="42.538843983784318" lon="-6.58925699070096">
        <ele>507</ele>
        <time>2018-05-22T09:28:27Z</time>
      </trkpt>
      <trkpt lat="42.538767037913203" lon="-6.589308958500624">
        <ele>507</ele>
        <time>2018-05-22T09:28:30Z</time>
      </trkpt>
      <trkpt lat="42.538638040423393" lon="-6.589400991797447">
        <ele>508</ele>
        <time>2018-05-22T09:28:34Z</time>
      </trkpt>
      <trkpt lat="42.538626976311207" lon="-6.589408032596111">
        <ele>508</ele>
        <time>2018-05-22T09:28:34Z</time>
      </trkpt>
      <trkpt lat="42.538494961336255" lon="-6.589495958760381">
        <ele>508</ele>
        <time>2018-05-22T09:28:39Z</time>
      </trkpt>
      <trkpt lat="42.538387002423406" lon="-6.58957801759243">
        <ele>508</ele>
        <time>2018-05-22T09:28:42Z</time>
      </trkpt>
      <trkpt lat="42.53837501630187" lon="-6.589581035077572">
        <ele>508</ele>
        <time>2018-05-22T09:28:43Z</time>
      </trkpt>
      <trkpt lat="42.53831198439002" lon="-6.589463017880917">
        <ele>508</ele>
        <time>2018-05-22T09:28:46Z</time>
      </trkpt>
      <trkpt lat="42.538269991055131" lon="-6.589418007060885">
        <ele>508</ele>
        <time>2018-05-22T09:28:48Z</time>
      </trkpt>
      <trkpt lat="42.538177035748959" lon="-6.589422030374408">
        <ele>508</ele>
        <time>2018-05-22T09:28:50Z</time>
      </trkpt>
      <trkpt lat="42.538028005510569" lon="-6.589418007060885">
        <ele>508</ele>
        <time>2018-05-22T09:28:55Z</time>
      </trkpt>
      <trkpt lat="42.537850979715586" lon="-6.589441979303956">
        <ele>512</ele>
        <time>2018-05-22T09:29:00Z</time>
      </trkpt>
      <trkpt lat="42.537734974175692" lon="-6.589251961559057">
        <ele>512</ele>
        <time>2018-05-22T09:29:05Z</time>
      </trkpt>
      <trkpt lat="42.537636989727616" lon="-6.588987009599805">
        <ele>512</ele>
        <time>2018-05-22T09:29:12Z</time>
      </trkpt>
      <trkpt lat="42.537617962807417" lon="-6.588905034586787">
        <ele>512</ele>
        <time>2018-05-22T09:29:14Z</time>
      </trkpt>
      <trkpt lat="42.5375169608742" lon="-6.588647039607167">
        <ele>511</ele>
        <time>2018-05-22T09:29:20Z</time>
      </trkpt>
      <trkpt lat="42.53738896921277" lon="-6.588592976331711">
        <ele>511</ele>
        <time>2018-05-22T09:29:24Z</time>
      </trkpt>
      <trkpt lat="42.537268018350005" lon="-6.588446963578463">
        <ele>511</ele>
        <time>2018-05-22T09:29:29Z</time>
      </trkpt>
      <trkpt lat="42.53725603222847" lon="-6.588444029912353">
        <ele>511</ele>
        <time>2018-05-22T09:29:29Z</time>
      </trkpt>
      <trkpt lat="42.537190988659859" lon="-6.588379992172122">
        <ele>511</ele>
        <time>2018-05-22T09:29:32Z</time>
      </trkpt>
      <trkpt lat="42.537029972299933" lon="-6.588171031326056">
        <ele>514</ele>
        <time>2018-05-22T09:29:38Z</time>
      </trkpt>
      <trkpt lat="42.536898963153362" lon="-6.588034993037581">
        <ele>514</ele>
        <time>2018-05-22T09:29:43Z</time>
      </trkpt>
      <trkpt lat="42.536753034219146" lon="-6.587856039404869">
        <ele>513</ele>
        <time>2018-05-22T09:29:49Z</time>
      </trkpt>
      <trkpt lat="42.536724032834172" lon="-6.58783801831305">
        <ele>513</ele>
        <time>2018-05-22T09:29:50Z</time>
      </trkpt>
      <trkpt lat="42.536614984273911" lon="-6.587742967531085">
        <ele>513</ele>
        <time>2018-05-22T09:29:54Z</time>
      </trkpt>
      <trkpt lat="42.536581037566066" lon="-6.587703991681337">
        <ele>513</ele>
        <time>2018-05-22T09:29:55Z</time>
      </trkpt>
      <trkpt lat="42.536627976223826" lon="-6.587727963924408">
        <ele>513</ele>
        <time>2018-05-22T09:29:56Z</time>
      </trkpt>
      <trkpt lat="42.536638034507632" lon="-6.587723018601537">
        <ele>513</ele>
        <time>2018-05-22T09:29:57Z</time>
      </trkpt>
      <trkpt lat="42.536581959575415" lon="-6.587685970589519">
        <ele>513</ele>
        <time>2018-05-22T09:29:59Z</time>
      </trkpt>
      <trkpt lat="42.536577014252543" lon="-6.587615981698036">
        <ele>513</ele>
        <time>2018-05-22T09:30:00Z</time>
      </trkpt>
      <trkpt lat="42.536525968462229" lon="-6.587565019726753">
        <ele>513</ele>
        <time>2018-05-22T09:30:02Z</time>
      </trkpt>
      <trkpt lat="42.536513982340693" lon="-6.587376007810235">
        <ele>513</ele>
        <time>2018-05-22T09:30:06Z</time>
      </trkpt>
      <trkpt lat="42.536504007875919" lon="-6.587348012253642">
        <ele>513</ele>
        <time>2018-05-22T09:30:07Z</time>
      </trkpt>
      <trkpt lat="42.536490010097623" lon="-6.58732102252543">
        <ele>513</ele>
        <time>2018-05-22T09:30:07Z</time>
      </trkpt>
      <trkpt lat="42.536477018147707" lon="-6.587297972291708">
        <ele>513</ele>
        <time>2018-05-22T09:30:08Z</time>
      </trkpt>
      <trkpt lat="42.536466959863901" lon="-6.587277017533779">
        <ele>513</ele>
        <time>2018-05-22T09:30:09Z</time>
      </trkpt>
      <trkpt lat="42.536439970135689" lon="-6.587197976186872">
        <ele>513</ele>
        <time>2018-05-22T09:30:11Z</time>
      </trkpt>
      <trkpt lat="42.536425972357392" lon="-6.587193030864">
        <ele>513</ele>
        <time>2018-05-22T09:30:11Z</time>
      </trkpt>
      <trkpt lat="42.536407029256225" lon="-6.58719202503562">
        <ele>513</ele>
        <time>2018-05-22T09:30:12Z</time>
      </trkpt>
      <trkpt lat="42.536386996507645" lon="-6.587191019207239">
        <ele>513</ele>
        <time>2018-05-22T09:30:12Z</time>
      </trkpt>
      <trkpt lat="42.536370987072587" lon="-6.587182972580195">
        <ele>513</ele>
        <time>2018-05-22T09:30:13Z</time>
      </trkpt>
      <trkpt lat="42.536309966817498" lon="-6.587061015889049">
        <ele>507</ele>
        <time>2018-05-22T09:30:16Z</time>
      </trkpt>
      <trkpt lat="42.536237966269255" lon="-6.586964037269354">
        <ele>517</ele>
        <time>2018-05-22T09:30:19Z</time>
      </trkpt>
      <trkpt lat="42.536142999306321" lon="-6.586810983717442">
        <ele>517</ele>
        <time>2018-05-22T09:30:23Z</time>
      </trkpt>
      <trkpt lat="42.536020958796144" lon="-6.586628006771207">
        <ele>517</ele>
        <time>2018-05-22T09:30:29Z</time>
      </trkpt>
      <trkpt lat="42.53601199015975" lon="-6.58661300316453">
        <ele>517</ele>
        <time>2018-05-22T09:30:29Z</time>
      </trkpt>
      <trkpt lat="42.536006039008498" lon="-6.586603028699756">
        <ele>517</ele>
        <time>2018-05-22T09:30:29Z</time>
      </trkpt>
      <trkpt lat="42.535907970741391" lon="-6.58646397292614">
        <ele>517</ele>
        <time>2018-05-22T09:30:33Z</time>
      </trkpt>
      <trkpt lat="42.535791965201497" lon="-6.586318966001272">
        <ele>517</ele>
        <time>2018-05-22T09:30:38Z</time>
      </trkpt>
      <trkpt lat="42.535775033757091" lon="-6.586303962394595">
        <ele>517</ele>
        <time>2018-05-22T09:30:39Z</time>
      </trkpt>
      <trkpt lat="42.535760030150414" lon="-6.586290970444679">
        <ele>517</ele>
        <time>2018-05-22T09:30:39Z</time>
      </trkpt>
      <trkpt lat="42.535746032372117" lon="-6.586275966838002">
        <ele>517</ele>
        <time>2018-05-22T09:30:40Z</time>
      </trkpt>
      <trkpt lat="42.535734968259931" lon="-6.586261969059706">
        <ele>517</ele>
        <time>2018-05-22T09:30:40Z</time>
      </trkpt>
      <trkpt lat="42.535655004903674" lon="-6.586175970733166">
        <ele>517</ele>
        <time>2018-05-22T09:30:43Z</time>
      </trkpt>
      <trkpt lat="42.535548973828554" lon="-6.586091984063387">
        <ele>512</ele>
        <time>2018-05-22T09:30:47Z</time>
      </trkpt>
      <trkpt lat="42.535534976050258" lon="-6.586081003770232">
        <ele>512</ele>
        <time>2018-05-22T09:30:47Z</time>
      </trkpt>
      <trkpt lat="42.535489965230227" lon="-6.586025012657046">
        <ele>512</ele>
        <time>2018-05-22T09:30:49Z</time>
      </trkpt>
      <trkpt lat="42.535376977175474" lon="-6.585909007117152">
        <ele>518</ele>
        <time>2018-05-22T09:30:53Z</time>
      </trkpt>
      <trkpt lat="42.535359039902687" lon="-6.585896015167236">
        <ele>518</ele>
        <time>2018-05-22T09:30:54Z</time>
      </trkpt>
      <trkpt lat="42.535348981618881" lon="-6.58588302321732">
        <ele>518</ele>
        <time>2018-05-22T09:30:54Z</time>
      </trkpt>
      <trkpt lat="42.535311011597514" lon="-6.585799958556891">
        <ele>518</ele>
        <time>2018-05-22T09:30:56Z</time>
      </trkpt>
      <trkpt lat="42.535305982455611" lon="-6.585781015455723">
        <ele>518</ele>
        <time>2018-05-22T09:30:57Z</time>
      </trkpt>
      <trkpt lat="42.535301959142089" lon="-6.585760982707143">
        <ele>518</ele>
        <time>2018-05-22T09:30:57Z</time>
      </trkpt>
      <trkpt lat="42.535296007990837" lon="-6.585740027949214">
        <ele>518</ele>
        <time>2018-05-22T09:30:58Z</time>
      </trkpt>
      <trkpt lat="42.535286033526063" lon="-6.585722006857395">
        <ele>518</ele>
        <time>2018-05-22T09:30:58Z</time>
      </trkpt>
      <trkpt lat="42.535277986899018" lon="-6.585708009079099">
        <ele>518</ele>
        <time>2018-05-22T09:30:59Z</time>
      </trkpt>
      <trkpt lat="42.535273963585496" lon="-6.58571002073586">
        <ele>518</ele>
        <time>2018-05-22T09:30:59Z</time>
      </trkpt>
      <trkpt lat="42.535273963585496" lon="-6.585705997422338">
        <ele>518</ele>
        <time>2018-05-22T09:30:59Z</time>
      </trkpt>
      <trkpt lat="42.535173967480659" lon="-6.585445990785956">
        <ele>518</ele>
        <time>2018-05-22T09:31:05Z</time>
      </trkpt>
      <trkpt lat="42.535140020772815" lon="-6.585257984697819">
        <ele>517</ele>
        <time>2018-05-22T09:31:10Z</time>
      </trkpt>
      <trkpt lat="42.535132979974151" lon="-6.585242981091142">
        <ele>517</ele>
        <time>2018-05-22T09:31:10Z</time>
      </trkpt>
      <trkpt lat="42.535121999680996" lon="-6.585226971656084">
        <ele>517</ele>
        <time>2018-05-22T09:31:10Z</time>
      </trkpt>
      <trkpt lat="42.535112025216222" lon="-6.585209034383297">
        <ele>517</ele>
        <time>2018-05-22T09:31:11Z</time>
      </trkpt>
      <trkpt lat="42.535102972760797" lon="-6.585190007463098">
        <ele>517</ele>
        <time>2018-05-22T09:31:11Z</time>
      </trkpt>
      <trkpt lat="42.535092998296022" lon="-6.585168968886137">
        <ele>517</ele>
        <time>2018-05-22T09:31:12Z</time>
      </trkpt>
      <trkpt lat="42.535085035488009" lon="-6.585148014128208">
        <ele>517</ele>
        <time>2018-05-22T09:31:12Z</time>
      </trkpt>
      <trkpt lat="42.535080006346107" lon="-6.585128987208009">
        <ele>517</ele>
        <time>2018-05-22T09:31:13Z</time>
      </trkpt>
      <trkpt lat="42.535076988860965" lon="-6.585109960287809">
        <ele>517</ele>
        <time>2018-05-22T09:31:13Z</time>
      </trkpt>
      <trkpt lat="42.535019991919398" lon="-6.584910973906517">
        <ele>517</ele>
        <time>2018-05-22T09:31:18Z</time>
      </trkpt>
      <trkpt lat="42.535014040768147" lon="-6.58472103998065">
        <ele>517</ele>
        <time>2018-05-22T09:31:22Z</time>
      </trkpt>
      <trkpt lat="42.535010017454624" lon="-6.584704024717212">
        <ele>517</ele>
        <time>2018-05-22T09:31:23Z</time>
      </trkpt>
      <trkpt lat="42.535000964999199" lon="-6.584688015282154">
        <ele>517</ele>
        <time>2018-05-22T09:31:23Z</time>
      </trkpt>
      <trkpt lat="42.534989984706044" lon="-6.58452901057899">
        <ele>517</ele>
        <time>2018-05-22T09:31:26Z</time>
      </trkpt>
      <trkpt lat="42.534937011078" lon="-6.584280990064144">
        <ele>513</ele>
        <time>2018-05-22T09:31:32Z</time>
      </trkpt>
      <trkpt lat="42.534931981936097" lon="-6.584267998114228">
        <ele>513</ele>
        <time>2018-05-22T09:31:32Z</time>
      </trkpt>
      <trkpt lat="42.534922007471323" lon="-6.584251988679171">
        <ele>513</ele>
        <time>2018-05-22T09:31:33Z</time>
      </trkpt>
      <trkpt lat="42.534899041056633" lon="-6.584174036979675">
        <ele>513</ele>
        <time>2018-05-22T09:31:35Z</time>
      </trkpt>
      <trkpt lat="42.534817988052964" lon="-6.583930039778352">
        <ele>513</ele>
        <time>2018-05-22T09:31:40Z</time>
      </trkpt>
      <trkpt lat="42.534711034968495" lon="-6.583743961527944">
        <ele>513</ele>
        <time>2018-05-22T09:31:46Z</time>
      </trkpt>
      <trkpt lat="42.534645991399884" lon="-6.583573976531625">
        <ele>509</ele>
        <time>2018-05-22T09:31:50Z</time>
      </trkpt>
      <trkpt lat="42.53461497835815" lon="-6.583466017618775">
        <ele>509</ele>
        <time>2018-05-22T09:31:52Z</time>
      </trkpt>
      <trkpt lat="42.534598968923092" lon="-6.583226965740323">
        <ele>509</ele>
        <time>2018-05-22T09:31:58Z</time>
      </trkpt>
      <trkpt lat="42.534600980579853" lon="-6.583203999325633">
        <ele>509</ele>
        <time>2018-05-22T09:31:58Z</time>
      </trkpt>
      <trkpt lat="42.534603998064995" lon="-6.583181032910943">
        <ele>509</ele>
        <time>2018-05-22T09:31:59Z</time>
      </trkpt>
      <trkpt lat="42.534607015550137" lon="-6.583156976848841">
        <ele>509</ele>
        <time>2018-05-22T09:31:59Z</time>
      </trkpt>
      <trkpt lat="42.534608021378517" lon="-6.583138033747673">
        <ele>512</ele>
        <time>2018-05-22T09:32:00Z</time>
      </trkpt>
      <trkpt lat="42.534629981964827" lon="-6.583063015714288">
        <ele>509</ele>
        <time>2018-05-22T09:32:01Z</time>
      </trkpt>
      <trkpt lat="42.534698965027928" lon="-6.582808960229158">
        <ele>509</ele>
        <time>2018-05-22T09:32:07Z</time>
      </trkpt>
      <trkpt lat="42.53478798083961" lon="-6.582526993006468">
        <ele>509</ele>
        <time>2018-05-22T09:32:14Z</time>
      </trkpt>
      <trkpt lat="42.534867022186518" lon="-6.582305040210486">
        <ele>509</ele>
        <time>2018-05-22T09:32:19Z</time>
      </trkpt>
      <trkpt lat="42.534983027726412" lon="-6.582074034959078">
        <ele>509</ele>
        <time>2018-05-22T09:32:25Z</time>
      </trkpt>
      <trkpt lat="42.535076988860965" lon="-6.581920981407166">
        <ele>511</ele>
        <time>2018-05-22T09:32:30Z</time>
      </trkpt>
      <trkpt lat="42.535196011886001" lon="-6.581774968653917">
        <ele>511</ele>
        <time>2018-05-22T09:32:34Z</time>
      </trkpt>
      <trkpt lat="42.535314029082656" lon="-6.581596015021205">
        <ele>511</ele>
        <time>2018-05-22T09:32:40Z</time>
      </trkpt>
      <trkpt lat="42.535435985773802" lon="-6.581417983397842">
        <ele>511</ele>
        <time>2018-05-22T09:32:45Z</time>
      </trkpt>
      <trkpt lat="42.535629021003842" lon="-6.581295020878315">
        <ele>512</ele>
        <time>2018-05-22T09:32:51Z</time>
      </trkpt>
      <trkpt lat="42.535827001556754" lon="-6.581138027831912">
        <ele>518</ele>
        <time>2018-05-22T09:32:58Z</time>
      </trkpt>
      <trkpt lat="42.535953987389803" lon="-6.580902999266982">
        <ele>518</ele>
        <time>2018-05-22T09:33:04Z</time>
      </trkpt>
      <trkpt lat="42.5360750220716" lon="-6.580711975693703">
        <ele>518</ele>
        <time>2018-05-22T09:33:10Z</time>
      </trkpt>
      <trkpt lat="42.536087008193135" lon="-6.580708036199212">
        <ele>518</ele>
        <time>2018-05-22T09:33:10Z</time>
      </trkpt>
      <trkpt lat="42.536095976829529" lon="-6.580702001228929">
        <ele>518</ele>
        <time>2018-05-22T09:33:11Z</time>
      </trkpt>
      <trkpt lat="42.536162026226521" lon="-6.580544002354145">
        <ele>518</ele>
        <time>2018-05-22T09:33:15Z</time>
      </trkpt>
      <trkpt lat="42.536236960440874" lon="-6.580267986282706">
        <ele>518</ele>
        <time>2018-05-22T09:33:21Z</time>
      </trkpt>
      <trkpt lat="42.536238972097635" lon="-6.580244014039636">
        <ele>518</ele>
        <time>2018-05-22T09:33:21Z</time>
      </trkpt>
      <trkpt lat="42.536202007904649" lon="-6.579961962997913">
        <ele>518</ele>
        <time>2018-05-22T09:33:28Z</time>
      </trkpt>
      <trkpt lat="42.536167977377772" lon="-6.579692987725139">
        <ele>518</ele>
        <time>2018-05-22T09:33:34Z</time>
      </trkpt>
      <trkpt lat="42.536098994314671" lon="-6.579458964988589">
        <ele>519</ele>
        <time>2018-05-22T09:33:39Z</time>
      </trkpt>
      <trkpt lat="42.536038979887962" lon="-6.579149002209306">
        <ele>519</ele>
        <time>2018-05-22T09:33:46Z</time>
      </trkpt>
      <trkpt lat="42.535998998209834" lon="-6.578825041651726">
        <ele>519</ele>
        <time>2018-05-22T09:33:53Z</time>
      </trkpt>
      <trkpt lat="42.536022970452905" lon="-6.578467972576618">
        <ele>520</ele>
        <time>2018-05-22T09:34:01Z</time>
      </trkpt>
      <trkpt lat="42.536113997921348" lon="-6.578110987320542">
        <ele>520</ele>
        <time>2018-05-22T09:34:09Z</time>
      </trkpt>
      <trkpt lat="42.536251964047551" lon="-6.577746961265802">
        <ele>522</ele>
        <time>2018-05-22T09:34:18Z</time>
      </trkpt>
      <trkpt lat="42.536394959315658" lon="-6.577452002093196">
        <ele>519</ele>
        <time>2018-05-22T09:34:26Z</time>
      </trkpt>
      <trkpt lat="42.536554969847202" lon="-6.577255027368665">
        <ele>519</ele>
        <time>2018-05-22T09:34:32Z</time>
      </trkpt>
      <trkpt lat="42.536722021177411" lon="-6.577027039602399">
        <ele>522</ele>
        <time>2018-05-22T09:34:39Z</time>
      </trkpt>
      <trkpt lat="42.536875996738672" lon="-6.576802991330624">
        <ele>522</ele>
        <time>2018-05-22T09:34:46Z</time>
      </trkpt>
      <trkpt lat="42.537024021148682" lon="-6.576556982472539">
        <ele>522</ele>
        <time>2018-05-22T09:34:53Z</time>
      </trkpt>
      <trkpt lat="42.537198029458523" lon="-6.57632295973599">
        <ele>518</ele>
        <time>2018-05-22T09:35:00Z</time>
      </trkpt>
      <trkpt lat="42.537339013069868" lon="-6.576101006940007">
        <ele>521</ele>
        <time>2018-05-22T09:35:07Z</time>
      </trkpt>
      <trkpt lat="42.537357034161687" lon="-6.576080974191427">
        <ele>521</ele>
        <time>2018-05-22T09:35:07Z</time>
      </trkpt>
      <trkpt lat="42.537372959777713" lon="-6.576033029705286">
        <ele>521</ele>
        <time>2018-05-22T09:35:08Z</time>
      </trkpt>
      <trkpt lat="42.537545962259173" lon="-6.57576497644186">
        <ele>521</ele>
        <time>2018-05-22T09:35:16Z</time>
      </trkpt>
      <trkpt lat="42.537693986669183" lon="-6.575544029474258">
        <ele>521</ele>
        <time>2018-05-22T09:35:23Z</time>
      </trkpt>
      <trkpt lat="42.537801023572683" lon="-6.575273964554071">
        <ele>523</ele>
        <time>2018-05-22T09:35:29Z</time>
      </trkpt>
      <trkpt lat="42.537879981100559" lon="-6.574998032301664">
        <ele>523</ele>
        <time>2018-05-22T09:35:36Z</time>
      </trkpt>
      <trkpt lat="42.537925997748971" lon="-6.574644986540079">
        <ele>523</ele>
        <time>2018-05-22T09:35:44Z</time>
      </trkpt>
      <trkpt lat="42.537954999133945" lon="-6.574364025145769">
        <ele>519</ele>
        <time>2018-05-22T09:35:50Z</time>
      </trkpt>
      <trkpt lat="42.537992969155312" lon="-6.574105024337769">
        <ele>519</ele>
        <time>2018-05-22T09:35:55Z</time>
      </trkpt>
      <trkpt lat="42.538014007732272" lon="-6.573794977739453">
        <ele>519</ele>
        <time>2018-05-22T09:36:02Z</time>
      </trkpt>
      <trkpt lat="42.538048038259149" lon="-6.573478979989886">
        <ele>518</ele>
        <time>2018-05-22T09:36:09Z</time>
      </trkpt>
      <trkpt lat="42.538067987188697" lon="-6.573174968361855">
        <ele>518</ele>
        <time>2018-05-22T09:36:16Z</time>
      </trkpt>
      <trkpt lat="42.538069998845458" lon="-6.573160970583558">
        <ele>518</ele>
        <time>2018-05-22T09:36:16Z</time>
      </trkpt>
      <trkpt lat="42.538094976916909" lon="-6.573131969198585">
        <ele>518</ele>
        <time>2018-05-22T09:36:17Z</time>
      </trkpt>
      <trkpt lat="42.538105035200715" lon="-6.57312199473381">
        <ele>518</ele>
        <time>2018-05-22T09:36:18Z</time>
      </trkpt>
      <trkpt lat="42.538131019100547" lon="-6.572848996147513">
        <ele>518</ele>
        <time>2018-05-22T09:36:24Z</time>
      </trkpt>
      <trkpt lat="42.538173012435436" lon="-6.572524029761553">
        <ele>519</ele>
        <time>2018-05-22T09:36:31Z</time>
      </trkpt>
      <trkpt lat="42.538189021870494" lon="-6.572277015075088">
        <ele>519</ele>
        <time>2018-05-22T09:36:36Z</time>
      </trkpt>
      <trkpt lat="42.538192961364985" lon="-6.572264023125172">
        <ele>519</ele>
        <time>2018-05-22T09:36:36Z</time>
      </trkpt>
      <trkpt lat="42.538194973021746" lon="-6.572206020355225">
        <ele>519</ele>
        <time>2018-05-22T09:36:38Z</time>
      </trkpt>
      <trkpt lat="42.538247024640441" lon="-6.571899997070432">
        <ele>521</ele>
        <time>2018-05-22T09:36:45Z</time>
      </trkpt>
      <trkpt lat="42.538276026025414" lon="-6.57150998711586">
        <ele>521</ele>
        <time>2018-05-22T09:36:53Z</time>
      </trkpt>
      <trkpt lat="42.538295974954963" lon="-6.571205975487828">
        <ele>521</ele>
        <time>2018-05-22T09:37:00Z</time>
      </trkpt>
      <trkpt lat="42.538295974954963" lon="-6.57118896022439">
        <ele>522</ele>
        <time>2018-05-22T09:37:00Z</time>
      </trkpt>
      <trkpt lat="42.538293963298202" lon="-6.571173034608364">
        <ele>522</ele>
        <time>2018-05-22T09:37:00Z</time>
      </trkpt>
      <trkpt lat="42.538293963298202" lon="-6.571157025173307">
        <ele>522</ele>
        <time>2018-05-22T09:37:01Z</time>
      </trkpt>
      <trkpt lat="42.538293963298202" lon="-6.571139004081488">
        <ele>522</ele>
        <time>2018-05-22T09:37:01Z</time>
      </trkpt>
      <trkpt lat="42.538344003260136" lon="-6.570909004658461">
        <ele>522</ele>
        <time>2018-05-22T09:37:06Z</time>
      </trkpt>
      <trkpt lat="42.538370992988348" lon="-6.57062703743577">
        <ele>522</ele>
        <time>2018-05-22T09:37:13Z</time>
      </trkpt>
      <trkpt lat="42.538385996595025" lon="-6.570407012477517">
        <ele>522</ele>
        <time>2018-05-22T09:37:17Z</time>
      </trkpt>
      <trkpt lat="42.538408963009715" lon="-6.570092020556331">
        <ele>526</ele>
        <time>2018-05-22T09:37:24Z</time>
      </trkpt>
      <trkpt lat="42.53844098187983" lon="-6.569779962301254">
        <ele>526</ele>
        <time>2018-05-22T09:37:31Z</time>
      </trkpt>
      <trkpt lat="42.538486998528242" lon="-6.569462958723307">
        <ele>526</ele>
        <time>2018-05-22T09:37:38Z</time>
      </trkpt>
      <trkpt lat="42.538554975762963" lon="-6.569171017035842">
        <ele>526</ele>
        <time>2018-05-22T09:37:45Z</time>
      </trkpt>
      <trkpt lat="42.538640974089503" lon="-6.568826017901301">
        <ele>526</ele>
        <time>2018-05-22T09:37:53Z</time>
      </trkpt>
      <trkpt lat="42.538758991286159" lon="-6.568481018766761">
        <ele>526</ele>
        <time>2018-05-22T09:38:01Z</time>
      </trkpt>
      <trkpt lat="42.53886703401804" lon="-6.568166026845574">
        <ele>526</ele>
        <time>2018-05-22T09:38:09Z</time>
      </trkpt>
      <trkpt lat="42.538873990997672" lon="-6.568151023238897">
        <ele>526</ele>
        <time>2018-05-22T09:38:09Z</time>
      </trkpt>
      <trkpt lat="42.538898969069123" lon="-6.568013979122043">
        <ele>526</ele>
        <time>2018-05-22T09:38:12Z</time>
      </trkpt>
      <trkpt lat="42.538937022909522" lon="-6.567722959443927">
        <ele>527</ele>
        <time>2018-05-22T09:38:19Z</time>
      </trkpt>
      <trkpt lat="42.538920007646084" lon="-6.567460019141436">
        <ele>527</ele>
        <time>2018-05-22T09:38:24Z</time>
      </trkpt>
      <trkpt lat="42.538874996826053" lon="-6.567161036655307">
        <ele>527</ele>
        <time>2018-05-22T09:38:31Z</time>
      </trkpt>
      <trkpt lat="42.538795033469796" lon="-6.566788963973522">
        <ele>527</ele>
        <time>2018-05-22T09:38:39Z</time>
      </trkpt>
      <trkpt lat="42.538753962144256" lon="-6.566646974533796">
        <ele>528</ele>
        <time>2018-05-22T09:38:43Z</time>
      </trkpt>
      <trkpt lat="42.538752034306526" lon="-6.566399037837982">
        <ele>528</ele>
        <time>2018-05-22T09:38:48Z</time>
      </trkpt>
      <trkpt lat="42.538712974637747" lon="-6.566066024824977">
        <ele>528</ele>
        <time>2018-05-22T09:38:55Z</time>
      </trkpt>
      <trkpt lat="42.538679027929902" lon="-6.565764024853706">
        <ele>528</ele>
        <time>2018-05-22T09:39:02Z</time>
      </trkpt>
      <trkpt lat="42.538638040423393" lon="-6.565409973263741">
        <ele>528</ele>
        <time>2018-05-22T09:39:10Z</time>
      </trkpt>
      <trkpt lat="42.538592023774981" lon="-6.565146027132869">
        <ele>529</ele>
        <time>2018-05-22T09:39:16Z</time>
      </trkpt>
      <trkpt lat="42.538578025996685" lon="-6.564860036596656">
        <ele>529</ele>
        <time>2018-05-22T09:39:22Z</time>
      </trkpt>
      <trkpt lat="42.538554975762963" lon="-6.564627019688487">
        <ele>529</ele>
        <time>2018-05-22T09:39:27Z</time>
      </trkpt>
      <trkpt lat="42.538518011569977" lon="-6.564337005838752">
        <ele>533</ele>
        <time>2018-05-22T09:39:34Z</time>
      </trkpt>
      <trkpt lat="42.538481969386339" lon="-6.564142964780331">
        <ele>533</ele>
        <time>2018-05-22T09:39:38Z</time>
      </trkpt>
      <trkpt lat="42.538496972993016" lon="-6.564014973118901">
        <ele>533</ele>
        <time>2018-05-22T09:39:41Z</time>
      </trkpt>
      <trkpt lat="42.538502002134919" lon="-6.563975997269154">
        <ele>533</ele>
        <time>2018-05-22T09:39:42Z</time>
      </trkpt>
      <trkpt lat="42.538539972156286" lon="-6.563782040029764">
        <ele>533</ele>
        <time>2018-05-22T09:39:46Z</time>
      </trkpt>
      <trkpt lat="42.538585988804698" lon="-6.563566038385034">
        <ele>540</ele>
        <time>2018-05-22T09:39:51Z</time>
      </trkpt>
      <trkpt lat="42.538665030151606" lon="-6.563287004828453">
        <ele>540</ele>
        <time>2018-05-22T09:39:57Z</time>
      </trkpt>
      <trkpt lat="42.538706017658114" lon="-6.563101010397077">
        <ele>540</ele>
        <time>2018-05-22T09:40:02Z</time>
      </trkpt>
      <trkpt lat="42.538764020428061" lon="-6.562818037346005">
        <ele>549</ele>
        <time>2018-05-22T09:40:08Z</time>
      </trkpt>
      <trkpt lat="42.53880500793457" lon="-6.56252701766789">
        <ele>543</ele>
        <time>2018-05-22T09:40:15Z</time>
      </trkpt>
      <trkpt lat="42.538810959085822" lon="-6.562512014061213">
        <ele>543</ele>
        <time>2018-05-22T09:40:15Z</time>
      </trkpt>
      <trkpt lat="42.538860999047756" lon="-6.562374969944358">
        <ele>543</ele>
        <time>2018-05-22T09:40:18Z</time>
      </trkpt>
      <trkpt lat="42.53895596601069" lon="-6.562208002433181">
        <ele>543</ele>
        <time>2018-05-22T09:40:23Z</time>
      </trkpt>
      <trkpt lat="42.538992008194327" lon="-6.562117980793119">
        <ele>543</ele>
        <time>2018-05-22T09:40:25Z</time>
      </trkpt>
      <trkpt lat="42.539141038432717" lon="-6.562002981081605">
        <ele>561</ele>
        <time>2018-05-22T09:40:30Z</time>
      </trkpt>
      <trkpt lat="42.53925503231585" lon="-6.561857974156737">
        <ele>561</ele>
        <time>2018-05-22T09:40:35Z</time>
      </trkpt>
      <trkpt lat="42.53934103064239" lon="-6.561705004423857">
        <ele>561</ele>
        <time>2018-05-22T09:40:39Z</time>
      </trkpt>
      <trkpt lat="42.539460975676775" lon="-6.561602996662259">
        <ele>561</ele>
        <time>2018-05-22T09:40:43Z</time>
      </trkpt>
      <trkpt lat="42.539473967626691" lon="-6.561596039682627">
        <ele>561</ele>
        <time>2018-05-22T09:40:44Z</time>
      </trkpt>
      <trkpt lat="42.539487965404987" lon="-6.561585981398821">
        <ele>561</ele>
        <time>2018-05-22T09:40:44Z</time>
      </trkpt>
      <trkpt lat="42.539501963183284" lon="-6.561577012762427">
        <ele>561</ele>
        <time>2018-05-22T09:40:45Z</time>
      </trkpt>
      <trkpt lat="42.539515038952231" lon="-6.561567960307002">
        <ele>561</ele>
        <time>2018-05-22T09:40:45Z</time>
      </trkpt>
      <trkpt lat="42.539527025073767" lon="-6.561558991670609">
        <ele>561</ele>
        <time>2018-05-22T09:40:46Z</time>
      </trkpt>
      <trkpt lat="42.539540017023683" lon="-6.561552034690976">
        <ele>561</ele>
        <time>2018-05-22T09:40:46Z</time>
      </trkpt>
      <trkpt lat="42.539629032835364" lon="-6.561510963365436">
        <ele>553</ele>
        <time>2018-05-22T09:40:49Z</time>
      </trkpt>
      <trkpt lat="42.539800023660064" lon="-6.561377020552754">
        <ele>553</ele>
        <time>2018-05-22T09:40:55Z</time>
      </trkpt>
      <trkpt lat="42.539807986468077" lon="-6.5613660402596">
        <ele>553</ele>
        <time>2018-05-22T09:40:55Z</time>
      </trkpt>
      <trkpt lat="42.539854003116488" lon="-6.561319017782807">
        <ele>553</ele>
        <time>2018-05-22T09:40:57Z</time>
      </trkpt>
      <trkpt lat="42.539865989238024" lon="-6.561306025832892">
        <ele>553</ele>
        <time>2018-05-22T09:40:57Z</time>
      </trkpt>
      <trkpt lat="42.539875963702798" lon="-6.561292028054595">
        <ele>553</ele>
        <time>2018-05-22T09:40:58Z</time>
      </trkpt>
      <trkpt lat="42.539889039471745" lon="-6.561276018619537">
        <ele>553</ele>
        <time>2018-05-22T09:40:58Z</time>
      </trkpt>
      <trkpt lat="42.539901025593281" lon="-6.561265960335732">
        <ele>553</ele>
        <time>2018-05-22T09:40:58Z</time>
      </trkpt>
      <trkpt lat="42.539909994229674" lon="-6.561262020841241">
        <ele>553</ele>
        <time>2018-05-22T09:40:59Z</time>
      </trkpt>
      <trkpt lat="42.539998004212976" lon="-6.561163030564785">
        <ele>570</ele>
        <time>2018-05-22T09:41:02Z</time>
      </trkpt>
      <trkpt lat="42.540006972849369" lon="-6.561151966452599">
        <ele>570</ele>
        <time>2018-05-22T09:41:03Z</time>
      </trkpt>
      <trkpt lat="42.540018036961555" lon="-6.561136962845922">
        <ele>570</ele>
        <time>2018-05-22T09:41:03Z</time>
      </trkpt>
      <trkpt lat="42.54002801142633" lon="-6.561126988381147">
        <ele>570</ele>
        <time>2018-05-22T09:41:03Z</time>
      </trkpt>
      <trkpt lat="42.540057012811303" lon="-6.561108967289329">
        <ele>570</ele>
        <time>2018-05-22T09:41:04Z</time>
      </trkpt>
      <trkpt lat="42.54011400975287" lon="-6.561044007539749">
        <ele>570</ele>
        <time>2018-05-22T09:41:07Z</time>
      </trkpt>
      <trkpt lat="42.540253987535834" lon="-6.560920961201191">
        <ele>570</ele>
        <time>2018-05-22T09:41:11Z</time>
      </trkpt>
      <trkpt lat="42.540380973368883" lon="-6.560846026986837">
        <ele>570</ele>
        <time>2018-05-22T09:41:16Z</time>
      </trkpt>
      <trkpt lat="42.540507037192583" lon="-6.560737984254956">
        <ele>567</ele>
        <time>2018-05-22T09:41:20Z</time>
      </trkpt>
      <trkpt lat="42.540626982226968" lon="-6.560604963451624">
        <ele>567</ele>
        <time>2018-05-22T09:41:25Z</time>
      </trkpt>
      <trkpt lat="42.540729995816946" lon="-6.560473032295704">
        <ele>567</ele>
        <time>2018-05-22T09:41:29Z</time>
      </trkpt>
      <trkpt lat="42.54073896445334" lon="-6.560449982061982">
        <ele>567</ele>
        <time>2018-05-22T09:41:29Z</time>
      </trkpt>
      <trkpt lat="42.540747011080384" lon="-6.560432966798544">
        <ele>567</ele>
        <time>2018-05-22T09:41:30Z</time>
      </trkpt>
      <trkpt lat="42.540818005800247" lon="-6.560335988178849">
        <ele>579</ele>
        <time>2018-05-22T09:41:33Z</time>
      </trkpt>
      <trkpt lat="42.540829991921782" lon="-6.560318972915411">
        <ele>579</ele>
        <time>2018-05-22T09:41:33Z</time>
      </trkpt>
      <trkpt lat="42.540839966386557" lon="-6.560306986793876">
        <ele>579</ele>
        <time>2018-05-22T09:41:34Z</time>
      </trkpt>
      <trkpt lat="42.54086796194315" lon="-6.560287037864327">
        <ele>579</ele>
        <time>2018-05-22T09:41:35Z</time>
      </trkpt>
      <trkpt lat="42.540880031883717" lon="-6.560276979580522">
        <ele>579</ele>
        <time>2018-05-22T09:41:35Z</time>
      </trkpt>
      <trkpt lat="42.540895035490394" lon="-6.560260970145464">
        <ele>579</ele>
        <time>2018-05-22T09:41:36Z</time>
      </trkpt>
      <trkpt lat="42.54090802744031" lon="-6.560242027044296">
        <ele>579</ele>
        <time>2018-05-22T09:41:36Z</time>
      </trkpt>
      <trkpt lat="42.540919007733464" lon="-6.560227023437619">
        <ele>579</ele>
        <time>2018-05-22T09:41:37Z</time>
      </trkpt>
      <trkpt lat="42.540933005511761" lon="-6.560217970982194">
        <ele>579</ele>
        <time>2018-05-22T09:41:37Z</time>
      </trkpt>
      <trkpt lat="42.541027972474694" lon="-6.560096014291048">
        <ele>579</ele>
        <time>2018-05-22T09:41:41Z</time>
      </trkpt>
      <trkpt lat="42.541125034913421" lon="-6.559984032064676">
        <ele>579</ele>
        <time>2018-05-22T09:41:45Z</time>
      </trkpt>
      <trkpt lat="42.541217990219593" lon="-6.559854028746486">
        <ele>579</ele>
        <time>2018-05-22T09:41:49Z</time>
      </trkpt>
      <trkpt lat="42.541227964684367" lon="-6.559842964634299">
        <ele>579</ele>
        <time>2018-05-22T09:41:49Z</time>
      </trkpt>
      <trkpt lat="42.541270041838288" lon="-6.559730982407928">
        <ele>579</ele>
        <time>2018-05-22T09:41:52Z</time>
      </trkpt>
      <trkpt lat="42.541293008252978" lon="-6.559694018214941">
        <ele>579</ele>
        <time>2018-05-22T09:41:53Z</time>
      </trkpt>
      <trkpt lat="42.541300971060991" lon="-6.559679014608264">
        <ele>573</ele>
        <time>2018-05-22T09:41:53Z</time>
      </trkpt>
      <trkpt lat="42.541309017688036" lon="-6.559655964374542">
        <ele>573</ele>
        <time>2018-05-22T09:41:54Z</time>
      </trkpt>
      <trkpt lat="42.541315974667668" lon="-6.559626962989569">
        <ele>573</ele>
        <time>2018-05-22T09:41:55Z</time>
      </trkpt>
      <trkpt lat="42.541319997981191" lon="-6.559598967432976">
        <ele>573</ele>
        <time>2018-05-22T09:41:55Z</time>
      </trkpt>
      <trkpt lat="42.541322009637952" lon="-6.559576001018286">
        <ele>573</ele>
        <time>2018-05-22T09:41:56Z</time>
      </trkpt>
      <trkpt lat="42.541330978274345" lon="-6.559543982148171">
        <ele>577</ele>
        <time>2018-05-22T09:41:57Z</time>
      </trkpt>
      <trkpt lat="42.541390992701054" lon="-6.559347007423639">
        <ele>577</ele>
        <time>2018-05-22T09:42:01Z</time>
      </trkpt>
      <trkpt lat="42.541395016014576" lon="-6.559328986331821">
        <ele>577</ele>
        <time>2018-05-22T09:42:02Z</time>
      </trkpt>
      <trkpt lat="42.541402978822589" lon="-6.559298979118466">
        <ele>577</ele>
        <time>2018-05-22T09:42:02Z</time>
      </trkpt>
      <trkpt lat="42.541409013792872" lon="-6.559275006875396">
        <ele>577</ele>
        <time>2018-05-22T09:42:03Z</time>
      </trkpt>
      <trkpt lat="42.541413037106395" lon="-6.559254974126816">
        <ele>577</ele>
        <time>2018-05-22T09:42:03Z</time>
      </trkpt>
      <trkpt lat="42.5414680223912" lon="-6.559116002172232">
        <ele>577</ele>
        <time>2018-05-22T09:42:07Z</time>
      </trkpt>
      <trkpt lat="42.541543040424585" lon="-6.558970995247364">
        <ele>577</ele>
        <time>2018-05-22T09:42:11Z</time>
      </trkpt>
      <trkpt lat="42.541615040972829" lon="-6.558833029121161">
        <ele>577</ele>
        <time>2018-05-22T09:42:14Z</time>
      </trkpt>
      <trkpt lat="42.541626021265984" lon="-6.558816013857722">
        <ele>577</ele>
        <time>2018-05-22T09:42:15Z</time>
      </trkpt>
      <trkpt lat="42.541638007387519" lon="-6.558791035786271">
        <ele>577</ele>
        <time>2018-05-22T09:42:15Z</time>
      </trkpt>
      <trkpt lat="42.541646976023912" lon="-6.558767985552549">
        <ele>577</ele>
        <time>2018-05-22T09:42:16Z</time>
      </trkpt>
      <trkpt lat="42.541659967973828" lon="-6.558742001652718">
        <ele>577</ele>
        <time>2018-05-22T09:42:17Z</time>
      </trkpt>
      <trkpt lat="42.541669020429254" lon="-6.558726998046041">
        <ele>577</ele>
        <time>2018-05-22T09:42:17Z</time>
      </trkpt>
      <trkpt lat="42.541697015985847" lon="-6.558695985004306">
        <ele>579</ele>
        <time>2018-05-22T09:42:18Z</time>
      </trkpt>
      <trkpt lat="42.541772034019232" lon="-6.558505967259407">
        <ele>579</ele>
        <time>2018-05-22T09:42:23Z</time>
      </trkpt>
      <trkpt lat="42.541839005425572" lon="-6.558368001133204">
        <ele>579</ele>
        <time>2018-05-22T09:42:26Z</time>
      </trkpt>
      <trkpt lat="42.541926009580493" lon="-6.558202039450407">
        <ele>579</ele>
        <time>2018-05-22T09:42:31Z</time>
      </trkpt>
      <trkpt lat="42.541935984045267" lon="-6.558184018358588">
        <ele>579</ele>
        <time>2018-05-22T09:42:31Z</time>
      </trkpt>
      <trkpt lat="42.541969008743763" lon="-6.55810103751719">
        <ele>579</ele>
        <time>2018-05-22T09:42:33Z</time>
      </trkpt>
      <trkpt lat="42.541977977380157" lon="-6.558086033910513">
        <ele>579</ele>
        <time>2018-05-22T09:42:34Z</time>
      </trkpt>
      <trkpt lat="42.542002033442259" lon="-6.558048985898495">
        <ele>579</ele>
        <time>2018-05-22T09:42:35Z</time>
      </trkpt>
      <trkpt lat="42.542009996250272" lon="-6.558034988120198">
        <ele>579</ele>
        <time>2018-05-22T09:42:35Z</time>
      </trkpt>
      <trkpt lat="42.542019970715046" lon="-6.55801503919065">
        <ele>579</ele>
        <time>2018-05-22T09:42:36Z</time>
      </trkpt>
      <trkpt lat="42.542032962664962" lon="-6.557997018098831">
        <ele>579</ele>
        <time>2018-05-22T09:42:36Z</time>
      </trkpt>
      <trkpt lat="42.542043020948768" lon="-6.557983020320535">
        <ele>579</ele>
        <time>2018-05-22T09:42:37Z</time>
      </trkpt>
      <trkpt lat="42.54207001067698" lon="-6.557951001450419">
        <ele>579</ele>
        <time>2018-05-22T09:42:38Z</time>
      </trkpt>
      <trkpt lat="42.542079985141754" lon="-6.557937003672123">
        <ele>579</ele>
        <time>2018-05-22T09:42:38Z</time>
      </trkpt>
      <trkpt lat="42.542091971263289" lon="-6.557916970923543">
        <ele>579</ele>
        <time>2018-05-22T09:42:39Z</time>
      </trkpt>
      <trkpt lat="42.542102029547095" lon="-6.557900039479137">
        <ele>577</ele>
        <time>2018-05-22T09:42:39Z</time>
      </trkpt>
      <trkpt lat="42.542115021497011" lon="-6.557886963710189">
        <ele>577</ele>
        <time>2018-05-22T09:42:40Z</time>
      </trkpt>
      <trkpt lat="42.542124995961785" lon="-6.557884030044079">
        <ele>565</ele>
        <time>2018-05-22T09:42:40Z</time>
      </trkpt>
      <trkpt lat="42.542227003723383" lon="-6.557764001190662">
        <ele>565</ele>
        <time>2018-05-22T09:42:44Z</time>
      </trkpt>
      <trkpt lat="42.542235972359776" lon="-6.557747991755605">
        <ele>565</ele>
        <time>2018-05-22T09:42:45Z</time>
      </trkpt>
      <trkpt lat="42.542324988171458" lon="-6.557667022570968">
        <ele>565</ele>
        <time>2018-05-22T09:42:48Z</time>
      </trkpt>
      <trkpt lat="42.542334962636232" lon="-6.557658975943923">
        <ele>565</ele>
        <time>2018-05-22T09:42:48Z</time>
      </trkpt>
      <trkpt lat="42.542344015091658" lon="-6.557649001479149">
        <ele>565</ele>
        <time>2018-05-22T09:42:48Z</time>
      </trkpt>
      <trkpt lat="42.542353989556432" lon="-6.557632992044091">
        <ele>565</ele>
        <time>2018-05-22T09:42:49Z</time>
      </trkpt>
      <trkpt lat="42.542362036183476" lon="-6.557616982609034">
        <ele>565</ele>
        <time>2018-05-22T09:42:49Z</time>
      </trkpt>
      <trkpt lat="42.542407969012856" lon="-6.557547999545932">
        <ele>565</ele>
        <time>2018-05-22T09:42:51Z</time>
      </trkpt>
      <trkpt lat="42.542418027296662" lon="-6.557530984282494">
        <ele>565</ele>
        <time>2018-05-22T09:42:52Z</time>
      </trkpt>
      <trkpt lat="42.542517017573118" lon="-6.557419002056122">
        <ele>565</ele>
        <time>2018-05-22T09:42:56Z</time>
      </trkpt>
      <trkpt lat="42.542642997577786" lon="-6.557236025109887">
        <ele>565</ele>
        <time>2018-05-22T09:43:01Z</time>
      </trkpt>
      <trkpt lat="42.542663030326366" lon="-6.557213980704546">
        <ele>565</ele>
        <time>2018-05-22T09:43:02Z</time>
      </trkpt>
      <trkpt lat="42.542783981189132" lon="-6.557095041498542">
        <ele>565</ele>
        <time>2018-05-22T09:43:06Z</time>
      </trkpt>
      <trkpt lat="42.542900992557406" lon="-6.556956991553307">
        <ele>566</ele>
        <time>2018-05-22T09:43:11Z</time>
      </trkpt>
      <trkpt lat="42.543043987825513" lon="-6.556768985465169">
        <ele>558</ele>
        <time>2018-05-22T09:43:17Z</time>
      </trkpt>
      <trkpt lat="42.543191006407142" lon="-6.556582991033793">
        <ele>558</ele>
        <time>2018-05-22T09:43:23Z</time>
      </trkpt>
      <trkpt lat="42.543198969215155" lon="-6.556571004912257">
        <ele>558</ele>
        <time>2018-05-22T09:43:23Z</time>
      </trkpt>
      <trkpt lat="42.543206010013819" lon="-6.556560024619103">
        <ele>558</ele>
        <time>2018-05-22T09:43:24Z</time>
      </trkpt>
      <trkpt lat="42.543215984478593" lon="-6.556550972163677">
        <ele>558</ele>
        <time>2018-05-22T09:43:24Z</time>
      </trkpt>
      <trkpt lat="42.543225958943367" lon="-6.556543009355664">
        <ele>558</ele>
        <time>2018-05-22T09:43:24Z</time>
      </trkpt>
      <trkpt lat="42.543235011398792" lon="-6.55653303489089">
        <ele>558</ele>
        <time>2018-05-22T09:43:25Z</time>
      </trkpt>
      <trkpt lat="42.543254038318992" lon="-6.556509984657168">
        <ele>558</ele>
        <time>2018-05-22T09:43:25Z</time>
      </trkpt>
      <trkpt lat="42.54327398724854" lon="-6.556499004364014">
        <ele>558</ele>
        <time>2018-05-22T09:43:26Z</time>
      </trkpt>
      <trkpt lat="42.54335998557508" lon="-6.556386016309261">
        <ele>558</ele>
        <time>2018-05-22T09:43:30Z</time>
      </trkpt>
      <trkpt lat="42.543451013043523" lon="-6.556261964142323">
        <ele>558</ele>
        <time>2018-05-22T09:43:33Z</time>
      </trkpt>
      <trkpt lat="42.543459981679916" lon="-6.556251989677548">
        <ele>558</ele>
        <time>2018-05-22T09:43:34Z</time>
      </trkpt>
      <trkpt lat="42.543470039963722" lon="-6.556241009384394">
        <ele>558</ele>
        <time>2018-05-22T09:43:34Z</time>
      </trkpt>
      <trkpt lat="42.543480014428496" lon="-6.556229023262858">
        <ele>558</ele>
        <time>2018-05-22T09:43:34Z</time>
      </trkpt>
      <trkpt lat="42.543490994721651" lon="-6.55621100217104">
        <ele>558</ele>
        <time>2018-05-22T09:43:35Z</time>
      </trkpt>
      <trkpt lat="42.543499963358045" lon="-6.556193986907601">
        <ele>558</ele>
        <time>2018-05-22T09:43:35Z</time>
      </trkpt>
      <trkpt lat="42.54351002164185" lon="-6.556177977472544">
        <ele>558</ele>
        <time>2018-05-22T09:43:36Z</time>
      </trkpt>
      <trkpt lat="42.543524019420147" lon="-6.556166997179389">
        <ele>558</ele>
        <time>2018-05-22T09:43:36Z</time>
      </trkpt>
      <trkpt lat="42.543577998876572" lon="-6.556136989966035">
        <ele>558</ele>
        <time>2018-05-22T09:43:38Z</time>
      </trkpt>
      <trkpt lat="42.543752007186413" lon="-6.555978991091251">
        <ele>557</ele>
        <time>2018-05-22T09:43:44Z</time>
      </trkpt>
      <trkpt lat="42.543762987479568" lon="-6.555967004969716">
        <ele>557</ele>
        <time>2018-05-22T09:43:45Z</time>
      </trkpt>
      <trkpt lat="42.543774973601103" lon="-6.555958958342671">
        <ele>566</ele>
        <time>2018-05-22T09:43:45Z</time>
      </trkpt>
      <trkpt lat="42.543834988027811" lon="-6.55591101385653">
        <ele>566</ele>
        <time>2018-05-22T09:43:47Z</time>
      </trkpt>
      <trkpt lat="42.543844040483236" lon="-6.555901039391756">
        <ele>566</ele>
        <time>2018-05-22T09:43:48Z</time>
      </trkpt>
      <trkpt lat="42.543855020776391" lon="-6.55589098110795">
        <ele>566</ele>
        <time>2018-05-22T09:43:48Z</time>
      </trkpt>
      <trkpt lat="42.543904976919293" lon="-6.555838007479906">
        <ele>566</ele>
        <time>2018-05-22T09:43:50Z</time>
      </trkpt>
      <trkpt lat="42.543913023546338" lon="-6.555829038843513">
        <ele>566</ele>
        <time>2018-05-22T09:43:50Z</time>
      </trkpt>
      <trkpt lat="42.543943030759692" lon="-6.555812023580074">
        <ele>566</ele>
        <time>2018-05-22T09:43:51Z</time>
      </trkpt>
      <trkpt lat="42.543949987739325" lon="-6.555576995015144">
        <ele>566</ele>
        <time>2018-05-22T09:43:56Z</time>
      </trkpt>
      <trkpt lat="42.54394001327455" lon="-6.55535495840013">
        <ele>566</ele>
        <time>2018-05-22T09:44:01Z</time>
      </trkpt>
      <trkpt lat="42.543920986354351" lon="-6.555111967027187">
        <ele>572</ele>
        <time>2018-05-22T09:44:06Z</time>
      </trkpt>
      <trkpt lat="42.543949987739325" lon="-6.55485799536109">
        <ele>572</ele>
        <time>2018-05-22T09:44:12Z</time>
      </trkpt>
      <trkpt lat="42.543955016881227" lon="-6.55483896844089">
        <ele>572</ele>
        <time>2018-05-22T09:44:12Z</time>
      </trkpt>
      <trkpt lat="42.54395904019475" lon="-6.554822036996484">
        <ele>572</ele>
        <time>2018-05-22T09:44:13Z</time>
      </trkpt>
      <trkpt lat="42.543977983295918" lon="-6.55479496344924">
        <ele>572</ele>
        <time>2018-05-22T09:44:14Z</time>
      </trkpt>
      <trkpt lat="42.544012013822794" lon="-6.55455800704658">
        <ele>572</ele>
        <time>2018-05-22T09:44:19Z</time>
      </trkpt>
      <trkpt lat="42.544014025479555" lon="-6.554533028975129">
        <ele>572</ele>
        <time>2018-05-22T09:44:19Z</time>
      </trkpt>
      <trkpt lat="42.544018970802426" lon="-6.554498998448253">
        <ele>572</ele>
        <time>2018-05-22T09:44:20Z</time>
      </trkpt>
      <trkpt lat="42.544053001329303" lon="-6.554293977096677">
        <ele>575</ele>
        <time>2018-05-22T09:44:25Z</time>
      </trkpt>
      <trkpt lat="42.54413103684783" lon="-6.554043022915721">
        <ele>575</ele>
        <time>2018-05-22T09:44:31Z</time>
      </trkpt>
      <trkpt lat="42.544138999655843" lon="-6.554027013480663">
        <ele>575</ele>
        <time>2018-05-22T09:44:31Z</time>
      </trkpt>
      <trkpt lat="42.544175963848829" lon="-6.55399901792407">
        <ele>575</ele>
        <time>2018-05-22T09:44:32Z</time>
      </trkpt>
      <trkpt lat="42.544184010475874" lon="-6.553986025974155">
        <ele>575</ele>
        <time>2018-05-22T09:44:33Z</time>
      </trkpt>
      <trkpt lat="42.544229021295905" lon="-6.553785027936101">
        <ele>575</ele>
        <time>2018-05-22T09:44:37Z</time>
      </trkpt>
      <trkpt lat="42.54430303350091" lon="-6.553629962727428">
        <ele>575</ele>
        <time>2018-05-22T09:44:41Z</time>
      </trkpt>
      <trkpt lat="42.544308984652162" lon="-6.553605990484357">
        <ele>575</ele>
        <time>2018-05-22T09:44:42Z</time>
      </trkpt>
      <trkpt lat="42.544314013794065" lon="-6.553588975220919">
        <ele>575</ele>
        <time>2018-05-22T09:44:42Z</time>
      </trkpt>
      <trkpt lat="42.544322982430458" lon="-6.553563997149468">
        <ele>575</ele>
        <time>2018-05-22T09:44:43Z</time>
      </trkpt>
      <trkpt lat="42.544339997693896" lon="-6.553520997986198">
        <ele>575</ele>
        <time>2018-05-22T09:44:44Z</time>
      </trkpt>
      <trkpt lat="42.54434703849256" lon="-6.55350599437952">
        <ele>575</ele>
        <time>2018-05-22T09:44:44Z</time>
      </trkpt>
      <trkpt lat="42.544355001300573" lon="-6.553477998822928">
        <ele>575</ele>
        <time>2018-05-22T09:44:45Z</time>
      </trkpt>
      <trkpt lat="42.544359024614096" lon="-6.553443968296051">
        <ele>575</ele>
        <time>2018-05-22T09:44:46Z</time>
      </trkpt>
      <trkpt lat="42.544362964108586" lon="-6.553415972739458">
        <ele>575</ele>
        <time>2018-05-22T09:44:46Z</time>
      </trkpt>
      <trkpt lat="42.544367993250489" lon="-6.55339602380991">
        <ele>575</ele>
        <time>2018-05-22T09:44:47Z</time>
      </trkpt>
      <trkpt lat="42.544376039877534" lon="-6.553381020203233">
        <ele>575</ele>
        <time>2018-05-22T09:44:47Z</time>
      </trkpt>
      <trkpt lat="42.544386014342308" lon="-6.553365010768175">
        <ele>575</ele>
        <time>2018-05-22T09:44:48Z</time>
      </trkpt>
      <trkpt lat="42.544407974928617" lon="-6.553307007998228">
        <ele>575</ele>
        <time>2018-05-22T09:44:49Z</time>
      </trkpt>
      <trkpt lat="42.544438987970352" lon="-6.553279012441635">
        <ele>575</ele>
        <time>2018-05-22T09:44:50Z</time>
      </trkpt>
      <trkpt lat="42.544502019882202" lon="-6.553068039938808">
        <ele>575</ele>
        <time>2018-05-22T09:44:55Z</time>
      </trkpt>
      <trkpt lat="42.544549964368343" lon="-6.552900988608599">
        <ele>575</ele>
        <time>2018-05-22T09:44:59Z</time>
      </trkpt>
      <trkpt lat="42.544551976025105" lon="-6.552883973345161">
        <ele>575</ele>
        <time>2018-05-22T09:45:00Z</time>
      </trkpt>
      <trkpt lat="42.544555999338627" lon="-6.552867963910103">
        <ele>575</ele>
        <time>2018-05-22T09:45:00Z</time>
      </trkpt>
      <trkpt lat="42.544560022652149" lon="-6.552852038294077">
        <ele>575</ele>
        <time>2018-05-22T09:45:00Z</time>
      </trkpt>
      <trkpt lat="42.544563040137291" lon="-6.55283804051578">
        <ele>575</ele>
        <time>2018-05-22T09:45:01Z</time>
      </trkpt>
      <trkpt lat="42.544565973803401" lon="-6.552820019423962">
        <ele>577</ele>
        <time>2018-05-22T09:45:01Z</time>
      </trkpt>
      <trkpt lat="42.544587012380362" lon="-6.552797975018621">
        <ele>577</ele>
        <time>2018-05-22T09:45:02Z</time>
      </trkpt>
      <trkpt lat="42.544606039300561" lon="-6.552481977269054">
        <ele>592</ele>
        <time>2018-05-22T09:45:09Z</time>
      </trkpt>
      <trkpt lat="42.544653983786702" lon="-6.552349040284753">
        <ele>592</ele>
        <time>2018-05-22T09:45:12Z</time>
      </trkpt>
      <trkpt lat="42.544654989615083" lon="-6.552322972565889">
        <ele>592</ele>
        <time>2018-05-22T09:45:13Z</time>
      </trkpt>
      <trkpt lat="42.544688014313579" lon="-6.552085010334849">
        <ele>592</ele>
        <time>2018-05-22T09:45:18Z</time>
      </trkpt>
      <trkpt lat="42.544725984334946" lon="-6.551912007853389">
        <ele>596</ele>
        <time>2018-05-22T09:45:22Z</time>
      </trkpt>
      <trkpt lat="42.544724978506565" lon="-6.551890969276428">
        <ele>596</ele>
        <time>2018-05-22T09:45:22Z</time>
      </trkpt>
      <trkpt lat="42.544727995991707" lon="-6.551875965669751">
        <ele>596</ele>
        <time>2018-05-22T09:45:23Z</time>
      </trkpt>
      <trkpt lat="42.544731013476849" lon="-6.551861967891455">
        <ele>596</ele>
        <time>2018-05-22T09:45:23Z</time>
      </trkpt>
      <trkpt lat="42.544735036790371" lon="-6.551848975941539">
        <ele>596</ele>
        <time>2018-05-22T09:45:23Z</time>
      </trkpt>
      <trkpt lat="42.544737970456481" lon="-6.551832966506481">
        <ele>596</ele>
        <time>2018-05-22T09:45:24Z</time>
      </trkpt>
      <trkpt lat="42.544744005426764" lon="-6.551820980384946">
        <ele>596</ele>
        <time>2018-05-22T09:45:24Z</time>
      </trkpt>
      <trkpt lat="42.544750962406397" lon="-6.551813017576933">
        <ele>596</ele>
        <time>2018-05-22T09:45:24Z</time>
      </trkpt>
      <trkpt lat="42.544804019853473" lon="-6.551568014547229">
        <ele>596</ele>
        <time>2018-05-22T09:45:30Z</time>
      </trkpt>
      <trkpt lat="42.54484299570322" lon="-6.551455026492477">
        <ele>596</ele>
        <time>2018-05-22T09:45:32Z</time>
      </trkpt>
      <trkpt lat="42.544888006523252" lon="-6.551221003755927">
        <ele>596</ele>
        <time>2018-05-22T09:45:38Z</time>
      </trkpt>
      <trkpt lat="42.544924970716238" lon="-6.551025034859777">
        <ele>599</ele>
        <time>2018-05-22T09:45:42Z</time>
      </trkpt>
      <trkpt lat="42.544982973486185" lon="-6.550815990194678">
        <ele>599</ele>
        <time>2018-05-22T09:45:47Z</time>
      </trkpt>
      <trkpt lat="42.544985990971327" lon="-6.550790006294847">
        <ele>599</ele>
        <time>2018-05-22T09:45:48Z</time>
      </trkpt>
      <trkpt lat="42.544989008456469" lon="-6.550761004909873">
        <ele>599</ele>
        <time>2018-05-22T09:45:48Z</time>
      </trkpt>
      <trkpt lat="42.545046005398035" lon="-6.550631001591682">
        <ele>599</ele>
        <time>2018-05-22T09:45:52Z</time>
      </trkpt>
      <trkpt lat="42.545050028711557" lon="-6.550618009641767">
        <ele>599</ele>
        <time>2018-05-22T09:45:52Z</time>
      </trkpt>
      <trkpt lat="42.545054974034429" lon="-6.550606023520231">
        <ele>599</ele>
        <time>2018-05-22T09:45:52Z</time>
      </trkpt>
      <trkpt lat="42.545058997347951" lon="-6.550593031570315">
        <ele>599</ele>
        <time>2018-05-22T09:45:53Z</time>
      </trkpt>
      <trkpt lat="42.545065032318234" lon="-6.550578027963638">
        <ele>599</ele>
        <time>2018-05-22T09:45:53Z</time>
      </trkpt>
      <trkpt lat="42.545075006783009" lon="-6.550566041842103">
        <ele>599</ele>
        <time>2018-05-22T09:45:53Z</time>
      </trkpt>
      <trkpt lat="42.545082969591022" lon="-6.550555983558297">
        <ele>599</ele>
        <time>2018-05-22T09:45:54Z</time>
      </trkpt>
      <trkpt lat="42.545087998732924" lon="-6.55053704045713">
        <ele>599</ele>
        <time>2018-05-22T09:45:54Z</time>
      </trkpt>
      <trkpt lat="42.545089004561305" lon="-6.550519019365311">
        <ele>599</ele>
        <time>2018-05-22T09:45:54Z</time>
      </trkpt>
      <trkpt lat="42.545092022046447" lon="-6.550505021587014">
        <ele>599</ele>
        <time>2018-05-22T09:45:55Z</time>
      </trkpt>
      <trkpt lat="42.545098979026079" lon="-6.550494963303208">
        <ele>599</ele>
        <time>2018-05-22T09:45:55Z</time>
      </trkpt>
      <trkpt lat="42.545108031481504" lon="-6.550487000495195">
        <ele>599</ele>
        <time>2018-05-22T09:45:55Z</time>
      </trkpt>
      <trkpt lat="42.545119011774659" lon="-6.550479959696531">
        <ele>599</ele>
        <time>2018-05-22T09:45:56Z</time>
      </trkpt>
      <trkpt lat="42.545152036473155" lon="-6.55036898329854">
        <ele>599</ele>
        <time>2018-05-22T09:45:58Z</time>
      </trkpt>
      <trkpt lat="42.545210961252451" lon="-6.55008802190423">
        <ele>604</ele>
        <time>2018-05-22T09:46:05Z</time>
      </trkpt>
      <trkpt lat="42.54525002092123" lon="-6.54989498667419">
        <ele>604</ele>
        <time>2018-05-22T09:46:09Z</time>
      </trkpt>
      <trkpt lat="42.545273993164301" lon="-6.549659036099911">
        <ele>604</ele>
        <time>2018-05-22T09:46:14Z</time>
      </trkpt>
      <trkpt lat="42.545325038954616" lon="-6.549440016970038">
        <ele>610</ele>
        <time>2018-05-22T09:46:19Z</time>
      </trkpt>
      <trkpt lat="42.545398967340589" lon="-6.549267014488578">
        <ele>610</ele>
        <time>2018-05-22T09:46:24Z</time>
      </trkpt>
      <trkpt lat="42.545407013967633" lon="-6.549258967861533">
        <ele>610</ele>
        <time>2018-05-22T09:46:24Z</time>
      </trkpt>
      <trkpt lat="42.5454640109092" lon="-6.549074985086918">
        <ele>610</ele>
        <time>2018-05-22T09:46:28Z</time>
      </trkpt>
      <trkpt lat="42.545472979545593" lon="-6.549055958166719">
        <ele>610</ele>
        <time>2018-05-22T09:46:29Z</time>
      </trkpt>
      <trkpt lat="42.545482032001019" lon="-6.549041960388422">
        <ele>614</ele>
        <time>2018-05-22T09:46:29Z</time>
      </trkpt>
      <trkpt lat="42.545491000637412" lon="-6.549032991752029">
        <ele>614</ele>
        <time>2018-05-22T09:46:30Z</time>
      </trkpt>
      <trkpt lat="42.545561995357275" lon="-6.548892008140683">
        <ele>614</ele>
        <time>2018-05-22T09:46:33Z</time>
      </trkpt>
      <trkpt lat="42.54565897397697" lon="-6.548652034252882">
        <ele>614</ele>
        <time>2018-05-22T09:46:39Z</time>
      </trkpt>
      <trkpt lat="42.545736003667116" lon="-6.548403007909656">
        <ele>614</ele>
        <time>2018-05-22T09:46:45Z</time>
      </trkpt>
      <trkpt lat="42.545762993395329" lon="-6.548199998214841">
        <ele>614</ele>
        <time>2018-05-22T09:46:50Z</time>
      </trkpt>
      <trkpt lat="42.545784031972289" lon="-6.547962035983801">
        <ele>614</ele>
        <time>2018-05-22T09:46:55Z</time>
      </trkpt>
      <trkpt lat="42.545794006437063" lon="-6.54783496633172">
        <ele>606</ele>
        <time>2018-05-22T09:46:58Z</time>
      </trkpt>
      <trkpt lat="42.545816972851753" lon="-6.547609996050596">
        <ele>606</ele>
        <time>2018-05-22T09:47:03Z</time>
      </trkpt>
      <trkpt lat="42.545837005600333" lon="-6.54733900912106">
        <ele>606</ele>
        <time>2018-05-22T09:47:09Z</time>
      </trkpt>
      <trkpt lat="42.545865001156926" lon="-6.547087971121073">
        <ele>606</ele>
        <time>2018-05-22T09:47:14Z</time>
      </trkpt>
      <trkpt lat="42.545867012813687" lon="-6.547071961686015">
        <ele>603</ele>
        <time>2018-05-22T09:47:15Z</time>
      </trkpt>
      <trkpt lat="42.545870030298829" lon="-6.547058969736099">
        <ele>603</ele>
        <time>2018-05-22T09:47:15Z</time>
      </trkpt>
      <trkpt lat="42.545877993106842" lon="-6.546884961426258">
        <ele>603</ele>
        <time>2018-05-22T09:47:19Z</time>
      </trkpt>
      <trkpt lat="42.545888973399997" lon="-6.546625038608909">
        <ele>603</ele>
        <time>2018-05-22T09:47:24Z</time>
      </trkpt>
      <trkpt lat="42.5458940025419" lon="-6.54658799059689">
        <ele>603</ele>
        <time>2018-05-22T09:47:25Z</time>
      </trkpt>
      <trkpt lat="42.545927027240396" lon="-6.546357991173863">
        <ele>603</ele>
        <time>2018-05-22T09:47:30Z</time>
      </trkpt>
      <trkpt lat="42.545948987826705" lon="-6.54609396122396">
        <ele>603</ele>
        <time>2018-05-22T09:47:36Z</time>
      </trkpt>
      <trkpt lat="42.545964997261763" lon="-6.545843007043004">
        <ele>603</ele>
        <time>2018-05-22T09:47:42Z</time>
      </trkpt>
      <trkpt lat="42.545986035838723" lon="-6.545643014833331">
        <ele>603</ele>
        <time>2018-05-22T09:47:46Z</time>
      </trkpt>
      <trkpt lat="42.545984024181962" lon="-6.545615019276738">
        <ele>603</ele>
        <time>2018-05-22T09:47:47Z</time>
      </trkpt>
      <trkpt lat="42.545984024181962" lon="-6.545584006235004">
        <ele>603</ele>
        <time>2018-05-22T09:47:47Z</time>
      </trkpt>
      <trkpt lat="42.545997016131878" lon="-6.545358030125499">
        <ele>603</ele>
        <time>2018-05-22T09:47:52Z</time>
      </trkpt>
      <trkpt lat="42.546018976718187" lon="-6.545129958540201">
        <ele>601</ele>
        <time>2018-05-22T09:47:57Z</time>
      </trkpt>
      <trkpt lat="42.546021994203329" lon="-6.545115960761905">
        <ele>601</ele>
        <time>2018-05-22T09:47:58Z</time>
      </trkpt>
      <trkpt lat="42.546030040830374" lon="-6.544984029605985">
        <ele>601</ele>
        <time>2018-05-22T09:48:00Z</time>
      </trkpt>
      <trkpt lat="42.546030040830374" lon="-6.544960979372263">
        <ele>601</ele>
        <time>2018-05-22T09:48:01Z</time>
      </trkpt>
      <trkpt lat="42.546050995588303" lon="-6.544856959953904">
        <ele>601</ele>
        <time>2018-05-22T09:48:03Z</time>
      </trkpt>
      <trkpt lat="42.546070022508502" lon="-6.544612962752581">
        <ele>601</ele>
        <time>2018-05-22T09:48:09Z</time>
      </trkpt>
      <trkpt lat="42.546074967831373" lon="-6.544598964974284">
        <ele>601</ele>
        <time>2018-05-22T09:48:09Z</time>
      </trkpt>
      <trkpt lat="42.546079996973276" lon="-6.544583039358258">
        <ele>601</ele>
        <time>2018-05-22T09:48:09Z</time>
      </trkpt>
      <trkpt lat="42.546085026115179" lon="-6.544565018266439">
        <ele>601</ele>
        <time>2018-05-22T09:48:10Z</time>
      </trkpt>
      <trkpt lat="42.546101035550237" lon="-6.544410036876798">
        <ele>598</ele>
        <time>2018-05-22T09:48:13Z</time>
      </trkpt>
      <trkpt lat="42.546124001964927" lon="-6.544107031077147">
        <ele>598</ele>
        <time>2018-05-22T09:48:20Z</time>
      </trkpt>
      <trkpt lat="42.54615199752152" lon="-6.543823974207044">
        <ele>598</ele>
        <time>2018-05-22T09:48:26Z</time>
      </trkpt>
      <trkpt lat="42.54617303609848" lon="-6.543561033904553">
        <ele>598</ele>
        <time>2018-05-22T09:48:32Z</time>
      </trkpt>
      <trkpt lat="42.546193990856409" lon="-6.543350983411074">
        <ele>598</ele>
        <time>2018-05-22T09:48:36Z</time>
      </trkpt>
      <trkpt lat="42.54621796309948" lon="-6.542958961799741">
        <ele>598</ele>
        <time>2018-05-22T09:48:45Z</time>
      </trkpt>
      <trkpt lat="42.546234978362918" lon="-6.542803980410099">
        <ele>593</ele>
        <time>2018-05-22T09:48:48Z</time>
      </trkpt>
      <trkpt lat="42.546262973919511" lon="-6.542558977380395">
        <ele>593</ele>
        <time>2018-05-22T09:48:54Z</time>
      </trkpt>
      <trkpt lat="42.546290969476104" lon="-6.542320009320974">
        <ele>593</ele>
        <time>2018-05-22T09:48:59Z</time>
      </trkpt>
      <trkpt lat="42.546294992789626" lon="-6.542066037654877">
        <ele>593</ele>
        <time>2018-05-22T09:49:05Z</time>
      </trkpt>
      <trkpt lat="42.54628099501133" lon="-6.541723972186446">
        <ele>591</ele>
        <time>2018-05-22T09:49:12Z</time>
      </trkpt>
      <trkpt lat="42.546266997233033" lon="-6.541490033268929">
        <ele>591</ele>
        <time>2018-05-22T09:49:17Z</time>
      </trkpt>
      <trkpt lat="42.546251993626356" lon="-6.54128098860383">
        <ele>591</ele>
        <time>2018-05-22T09:49:22Z</time>
      </trkpt>
      <trkpt lat="42.546243024989963" lon="-6.540970019996166">
        <ele>591</ele>
        <time>2018-05-22T09:49:29Z</time>
      </trkpt>
      <trkpt lat="42.546241013333201" lon="-6.540755024179816">
        <ele>591</ele>
        <time>2018-05-22T09:49:33Z</time>
      </trkpt>
      <trkpt lat="42.546226009726524" lon="-6.540519995614886">
        <ele>591</ele>
        <time>2018-05-22T09:49:38Z</time>
      </trkpt>
      <trkpt lat="42.546206982806325" lon="-6.540207015350461">
        <ele>589</ele>
        <time>2018-05-22T09:49:45Z</time>
      </trkpt>
      <trkpt lat="42.546190973371267" lon="-6.540001993998885">
        <ele>589</ele>
        <time>2018-05-22T09:49:50Z</time>
      </trkpt>
      <trkpt lat="42.54617496393621" lon="-6.539756990969181">
        <ele>589</ele>
        <time>2018-05-22T09:49:55Z</time>
      </trkpt>
      <trkpt lat="42.546171024441719" lon="-6.539488015696406">
        <ele>585</ele>
        <time>2018-05-22T09:50:01Z</time>
      </trkpt>
      <trkpt lat="42.546127019450068" lon="-6.539252987131476">
        <ele>585</ele>
        <time>2018-05-22T09:50:06Z</time>
      </trkpt>
      <trkpt lat="42.546055018901825" lon="-6.539021981880069">
        <ele>585</ele>
        <time>2018-05-22T09:50:12Z</time>
      </trkpt>
      <trkpt lat="42.545949993655086" lon="-6.538797011598945">
        <ele>585</ele>
        <time>2018-05-22T09:50:18Z</time>
      </trkpt>
      <trkpt lat="42.54585200920701" lon="-6.538606993854046">
        <ele>580</ele>
        <time>2018-05-22T09:50:23Z</time>
      </trkpt>
      <trkpt lat="42.545737009495497" lon="-6.538403984159231">
        <ele>580</ele>
        <time>2018-05-22T09:50:28Z</time>
      </trkpt>
      <trkpt lat="42.545645982027054" lon="-6.538150012493134">
        <ele>580</ele>
        <time>2018-05-22T09:50:34Z</time>
      </trkpt>
      <trkpt lat="42.545582028105855" lon="-6.537920013070107">
        <ele>580</ele>
        <time>2018-05-22T09:50:40Z</time>
      </trkpt>
      <trkpt lat="42.545546991750598" lon="-6.537737958133221">
        <ele>577</ele>
        <time>2018-05-22T09:50:44Z</time>
      </trkpt>
      <trkpt lat="42.545499969273806" lon="-6.537485998123884">
        <ele>577</ele>
        <time>2018-05-22T09:50:49Z</time>
      </trkpt>
      <trkpt lat="42.545497035607696" lon="-6.537466971203685">
        <ele>577</ele>
        <time>2018-05-22T09:50:50Z</time>
      </trkpt>
      <trkpt lat="42.545498041436076" lon="-6.537451967597008">
        <ele>577</ele>
        <time>2018-05-22T09:50:50Z</time>
      </trkpt>
      <trkpt lat="42.545498963445425" lon="-6.537423972040415">
        <ele>577</ele>
        <time>2018-05-22T09:50:51Z</time>
      </trkpt>
      <trkpt lat="42.545478008687496" lon="-6.537125995382667">
        <ele>588</ele>
        <time>2018-05-22T09:50:57Z</time>
      </trkpt>
      <trkpt lat="42.545498963445425" lon="-6.536856014281511">
        <ele>572</ele>
        <time>2018-05-22T09:51:03Z</time>
      </trkpt>
      <trkpt lat="42.545526959002018" lon="-6.536659961566329">
        <ele>572</ele>
        <time>2018-05-22T09:51:08Z</time>
      </trkpt>
      <trkpt lat="42.545544980093837" lon="-6.536453012377024">
        <ele>572</ele>
        <time>2018-05-22T09:51:12Z</time>
      </trkpt>
      <trkpt lat="42.545559983700514" lon="-6.5362090151757">
        <ele>572</ele>
        <time>2018-05-22T09:51:18Z</time>
      </trkpt>
      <trkpt lat="42.545543974265456" lon="-6.535968035459518">
        <ele>570</ele>
        <time>2018-05-22T09:51:23Z</time>
      </trkpt>
      <trkpt lat="42.545514972880483" lon="-6.535850018262863">
        <ele>570</ele>
        <time>2018-05-22T09:51:26Z</time>
      </trkpt>
      <trkpt lat="42.545431992039084" lon="-6.535623036324978">
        <ele>574</ele>
        <time>2018-05-22T09:51:31Z</time>
      </trkpt>
      <trkpt lat="42.545320009812713" lon="-6.535382978618145">
        <ele>574</ele>
        <time>2018-05-22T09:51:37Z</time>
      </trkpt>
      <trkpt lat="42.545213978737593" lon="-6.535149961709976">
        <ele>569</ele>
        <time>2018-05-22T09:51:43Z</time>
      </trkpt>
      <trkpt lat="42.545108031481504" lon="-6.534913005307317">
        <ele>569</ele>
        <time>2018-05-22T09:51:49Z</time>
      </trkpt>
      <trkpt lat="42.545011974871159" lon="-6.534718964248896">
        <ele>569</ele>
        <time>2018-05-22T09:51:54Z</time>
      </trkpt>
      <trkpt lat="42.544940980151296" lon="-6.534545961767435">
        <ele>569</ele>
        <time>2018-05-22T09:51:59Z</time>
      </trkpt>
      <trkpt lat="42.54486596211791" lon="-6.534363990649581">
        <ele>568</ele>
        <time>2018-05-22T09:52:03Z</time>
      </trkpt>
      <trkpt lat="42.544724978506565" lon="-6.534110018983483">
        <ele>568</ele>
        <time>2018-05-22T09:52:10Z</time>
      </trkpt>
      <trkpt lat="42.544591035693884" lon="-6.53382402844727">
        <ele>568</ele>
        <time>2018-05-22T09:52:18Z</time>
      </trkpt>
      <trkpt lat="42.544490033760667" lon="-6.533600986003876">
        <ele>571</ele>
        <time>2018-05-22T09:52:23Z</time>
      </trkpt>
      <trkpt lat="42.544362964108586" lon="-6.533369980752468">
        <ele>571</ele>
        <time>2018-05-22T09:52:30Z</time>
      </trkpt>
      <trkpt lat="42.544271014630795" lon="-6.53313796967268">
        <ele>571</ele>
        <time>2018-05-22T09:52:35Z</time>
      </trkpt>
      <trkpt lat="42.544109998270869" lon="-6.532848961651325">
        <ele>571</ele>
        <time>2018-05-22T09:52:43Z</time>
      </trkpt>
      <trkpt lat="42.543936995789409" lon="-6.532500023022294">
        <ele>567</ele>
        <time>2018-05-22T09:52:52Z</time>
      </trkpt>
      <trkpt lat="42.543769022449851" lon="-6.532111018896103">
        <ele>567</ele>
        <time>2018-05-22T09:53:02Z</time>
      </trkpt>
      <trkpt lat="42.543648993596435" lon="-6.531796026974917">
        <ele>572</ele>
        <time>2018-05-22T09:53:10Z</time>
      </trkpt>
      <trkpt lat="42.543524019420147" lon="-6.531507018953562">
        <ele>572</ele>
        <time>2018-05-22T09:53:17Z</time>
      </trkpt>
      <trkpt lat="42.543456964194775" lon="-6.53139503672719">
        <ele>572</ele>
        <time>2018-05-22T09:53:20Z</time>
      </trkpt>
      <trkpt lat="42.543287985026836" lon="-6.53105397708714">
        <ele>570</ele>
        <time>2018-05-22T09:53:29Z</time>
      </trkpt>
      <trkpt lat="42.543127974495292" lon="-6.530710989609361">
        <ele>570</ele>
        <time>2018-05-22T09:53:38Z</time>
      </trkpt>
      <trkpt lat="42.542966958135366" lon="-6.530369007959962">
        <ele>568</ele>
        <time>2018-05-22T09:53:47Z</time>
      </trkpt>
      <trkpt lat="42.542857993394136" lon="-6.530095003545284">
        <ele>571</ele>
        <time>2018-05-22T09:53:54Z</time>
      </trkpt>
      <trkpt lat="42.542739976197481" lon="-6.529842037707567">
        <ele>571</ele>
        <time>2018-05-22T09:54:00Z</time>
      </trkpt>
      <trkpt lat="42.542615002021194" lon="-6.529587982222438">
        <ele>571</ele>
        <time>2018-05-22T09:54:07Z</time>
      </trkpt>
      <trkpt lat="42.542536966502666" lon="-6.529433000832796">
        <ele>571</ele>
        <time>2018-05-22T09:54:11Z</time>
      </trkpt>
      <trkpt lat="42.542443005368114" lon="-6.529221022501588">
        <ele>571</ele>
        <time>2018-05-22T09:54:16Z</time>
      </trkpt>
      <trkpt lat="42.542372010648251" lon="-6.529039973393083">
        <ele>571</ele>
        <time>2018-05-22T09:54:21Z</time>
      </trkpt>
      <trkpt lat="42.542222980409861" lon="-6.528762029483914">
        <ele>571</ele>
        <time>2018-05-22T09:54:28Z</time>
      </trkpt>
      <trkpt lat="42.5421760417521" lon="-6.528654992580414">
        <ele>570</ele>
        <time>2018-05-22T09:54:31Z</time>
      </trkpt>
      <trkpt lat="42.542110998183489" lon="-6.52851702645421">
        <ele>573</ele>
        <time>2018-05-22T09:54:35Z</time>
      </trkpt>
      <trkpt lat="42.54207001067698" lon="-6.528415018692613">
        <ele>573</ele>
        <time>2018-05-22T09:54:37Z</time>
      </trkpt>
      <trkpt lat="42.542016031220555" lon="-6.528161969035864">
        <ele>573</ele>
        <time>2018-05-22T09:54:43Z</time>
      </trkpt>
      <trkpt lat="42.542016031220555" lon="-6.528050992637873">
        <ele>573</ele>
        <time>2018-05-22T09:54:45Z</time>
      </trkpt>
      <trkpt lat="42.541985018178821" lon="-6.527975974604487">
        <ele>573</ele>
        <time>2018-05-22T09:54:47Z</time>
      </trkpt>
      <trkpt lat="42.541874041780829" lon="-6.527794003486633">
        <ele>571</ele>
        <time>2018-05-22T09:54:52Z</time>
      </trkpt>
      <trkpt lat="42.541813021525741" lon="-6.527688978239894">
        <ele>571</ele>
        <time>2018-05-22T09:54:55Z</time>
      </trkpt>
      <trkpt lat="42.541647981852293" lon="-6.527480017393827">
        <ele>571</ele>
        <time>2018-05-22T09:55:02Z</time>
      </trkpt>
      <trkpt lat="42.54149098880589" lon="-6.527227973565459">
        <ele>571</ele>
        <time>2018-05-22T09:55:09Z</time>
      </trkpt>
      <trkpt lat="42.541352016851306" lon="-6.527048014104366">
        <ele>570</ele>
        <time>2018-05-22T09:55:15Z</time>
      </trkpt>
      <trkpt lat="42.541201980784535" lon="-6.52686302550137">
        <ele>579</ele>
        <time>2018-05-22T09:55:21Z</time>
      </trkpt>
      <trkpt lat="42.541043981909752" lon="-6.52662699110806">
        <ele>579</ele>
        <time>2018-05-22T09:55:28Z</time>
      </trkpt>
      <trkpt lat="42.54086502827704" lon="-6.526372013613582">
        <ele>579</ele>
        <time>2018-05-22T09:55:35Z</time>
      </trkpt>
      <trkpt lat="42.540707029402256" lon="-6.526148971170187">
        <ele>579</ele>
        <time>2018-05-22T09:55:42Z</time>
      </trkpt>
      <trkpt lat="42.540676016360521" lon="-6.526106977835298">
        <ele>575</ele>
        <time>2018-05-22T09:55:43Z</time>
      </trkpt>
      <trkpt lat="42.54056403413415" lon="-6.525904973968864">
        <ele>575</ele>
        <time>2018-05-22T09:55:49Z</time>
      </trkpt>
      <trkpt lat="42.540398994460702" lon="-6.525609008967876">
        <ele>580</ele>
        <time>2018-05-22T09:55:57Z</time>
      </trkpt>
      <trkpt lat="42.540282988920808" lon="-6.525340033695102">
        <ele>580</ele>
        <time>2018-05-22T09:56:04Z</time>
      </trkpt>
      <trkpt lat="42.540277037769556" lon="-6.525327041745186">
        <ele>580</ele>
        <time>2018-05-22T09:56:04Z</time>
      </trkpt>
      <trkpt lat="42.540160026401281" lon="-6.525095030665398">
        <ele>575</ele>
        <time>2018-05-22T09:56:10Z</time>
      </trkpt>
      <trkpt lat="42.540018958970904" lon="-6.524846004322171">
        <ele>575</ele>
        <time>2018-05-22T09:56:17Z</time>
      </trkpt>
      <trkpt lat="42.539905970916152" lon="-6.524611981585622">
        <ele>575</ele>
        <time>2018-05-22T09:56:23Z</time>
      </trkpt>
      <trkpt lat="42.539777979254723" lon="-6.52434803545475">
        <ele>574</ele>
        <time>2018-05-22T09:56:30Z</time>
      </trkpt>
      <trkpt lat="42.539635989814997" lon="-6.524036983028054">
        <ele>574</ele>
        <time>2018-05-22T09:56:38Z</time>
      </trkpt>
      <trkpt lat="42.539467010647058" lon="-6.523631969466806">
        <ele>579</ele>
        <time>2018-05-22T09:56:48Z</time>
      </trkpt>
      <trkpt lat="42.539409007877111" lon="-6.523539014160633">
        <ele>579</ele>
        <time>2018-05-22T09:56:51Z</time>
      </trkpt>
      <trkpt lat="42.539299037307501" lon="-6.523457039147615">
        <ele>579</ele>
        <time>2018-05-22T09:56:55Z</time>
      </trkpt>
      <trkpt lat="42.539186971262097" lon="-6.523224022239447">
        <ele>579</ele>
        <time>2018-05-22T09:57:01Z</time>
      </trkpt>
      <trkpt lat="42.539157969877124" lon="-6.523172976449132">
        <ele>579</ele>
        <time>2018-05-22T09:57:02Z</time>
      </trkpt>
      <trkpt lat="42.539129974320531" lon="-6.523089995607734">
        <ele>579</ele>
        <time>2018-05-22T09:57:04Z</time>
      </trkpt>
      <trkpt lat="42.539070965722203" lon="-6.522896038368344">
        <ele>579</ele>
        <time>2018-05-22T09:57:09Z</time>
      </trkpt>
      <trkpt lat="42.539015980437398" lon="-6.522752959281206">
        <ele>577</ele>
        <time>2018-05-22T09:57:12Z</time>
      </trkpt>
      <trkpt lat="42.539010029286146" lon="-6.522755976766348">
        <ele>577</ele>
        <time>2018-05-22T09:57:12Z</time>
      </trkpt>
      <trkpt lat="42.538878014311194" lon="-6.52265296317637">
        <ele>577</ele>
        <time>2018-05-22T09:57:17Z</time>
      </trkpt>
      <trkpt lat="42.538776006549597" lon="-6.52250099927187">
        <ele>577</ele>
        <time>2018-05-22T09:57:21Z</time>
      </trkpt>
      <trkpt lat="42.538714986294508" lon="-6.522427992895246">
        <ele>583</ele>
        <time>2018-05-22T09:57:24Z</time>
      </trkpt>
      <trkpt lat="42.538650026544929" lon="-6.522338977083564">
        <ele>583</ele>
        <time>2018-05-22T09:57:26Z</time>
      </trkpt>
      <trkpt lat="42.538580037653446" lon="-6.522189024835825">
        <ele>583</ele>
        <time>2018-05-22T09:57:30Z</time>
      </trkpt>
      <trkpt lat="42.538554975762963" lon="-6.52204804122448">
        <ele>583</ele>
        <time>2018-05-22T09:57:33Z</time>
      </trkpt>
      <trkpt lat="42.538464032113552" lon="-6.521802032366395">
        <ele>581</ele>
        <time>2018-05-22T09:57:39Z</time>
      </trkpt>
      <trkpt lat="42.538394965231419" lon="-6.521630035713315">
        <ele>581</ele>
        <time>2018-05-22T09:57:44Z</time>
      </trkpt>
      <trkpt lat="42.538324976339936" lon="-6.521302973851562">
        <ele>581</ele>
        <time>2018-05-22T09:57:51Z</time>
      </trkpt>
      <trkpt lat="42.538266973569989" lon="-6.521222004666925">
        <ele>581</ele>
        <time>2018-05-22T09:57:54Z</time>
      </trkpt>
      <trkpt lat="42.538163959980011" lon="-6.521012960001826">
        <ele>582</ele>
        <time>2018-05-22T09:57:59Z</time>
      </trkpt>
      <trkpt lat="42.538123978301883" lon="-6.520752031356096">
        <ele>582</ele>
        <time>2018-05-22T09:58:05Z</time>
      </trkpt>
      <trkpt lat="42.538054995238781" lon="-6.520438967272639">
        <ele>582</ele>
        <time>2018-05-22T09:58:12Z</time>
      </trkpt>
      <trkpt lat="42.537972014397383" lon="-6.520250039175153">
        <ele>582</ele>
        <time>2018-05-22T09:58:17Z</time>
      </trkpt>
      <trkpt lat="42.537695998325944" lon="-6.519318977370858">
        <ele>585</ele>
        <time>2018-05-22T09:58:39Z</time>
      </trkpt>
      <trkpt lat="42.537631038576365" lon="-6.519161984324455">
        <ele>585</ele>
        <time>2018-05-22T09:58:43Z</time>
      </trkpt>
      <trkpt lat="42.537594996392727" lon="-6.519005997106433">
        <ele>585</ele>
        <time>2018-05-22T09:58:46Z</time>
      </trkpt>
      <trkpt lat="42.537593990564346" lon="-6.518786977976561">
        <ele>585</ele>
        <time>2018-05-22T09:58:51Z</time>
      </trkpt>
      <trkpt lat="42.537586027756333" lon="-6.518545998260379">
        <ele>585</ele>
        <time>2018-05-22T09:58:56Z</time>
      </trkpt>
      <trkpt lat="42.537531964480877" lon="-6.518085999414325">
        <ele>585</ele>
        <time>2018-05-22T09:59:06Z</time>
      </trkpt>
      <trkpt lat="42.537463987246156" lon="-6.518080970272422">
        <ele>585</ele>
        <time>2018-05-22T09:59:08Z</time>
      </trkpt>
      <trkpt lat="42.53743096254766" lon="-6.518093040212989">
        <ele>585</ele>
        <time>2018-05-22T09:59:09Z</time>
      </trkpt>
      <trkpt lat="42.537410007789731" lon="-6.518078036606312">
        <ele>585</ele>
        <time>2018-05-22T09:59:10Z</time>
      </trkpt>
      <trkpt lat="42.537403972819448" lon="-6.517943004146218">
        <ele>585</ele>
        <time>2018-05-22T09:59:13Z</time>
      </trkpt>
      <trkpt lat="42.537305988371372" lon="-6.517785005271435">
        <ele>602</ele>
        <time>2018-05-22T09:59:17Z</time>
      </trkpt>
      <trkpt lat="42.537185959517956" lon="-6.517665982246399">
        <ele>602</ele>
        <time>2018-05-22T09:59:22Z</time>
      </trkpt>
      <trkpt lat="42.536985967308283" lon="-6.517587024718523">
        <ele>593</ele>
        <time>2018-05-22T09:59:28Z</time>
      </trkpt>
      <trkpt lat="42.536799972876906" lon="-6.517490968108177">
        <ele>593</ele>
        <time>2018-05-22T09:59:34Z</time>
      </trkpt>
      <trkpt lat="42.536787986755371" lon="-6.517484011128545">
        <ele>593</ele>
        <time>2018-05-22T09:59:34Z</time>
      </trkpt>
      <trkpt lat="42.536776000633836" lon="-6.517479987815023">
        <ele>593</ele>
        <time>2018-05-22T09:59:35Z</time>
      </trkpt>
      <trkpt lat="42.5367640145123" lon="-6.517474036663771">
        <ele>593</ele>
        <time>2018-05-22T09:59:35Z</time>
      </trkpt>
      <trkpt lat="42.536659995093942" lon="-6.517455009743571">
        <ele>593</ele>
        <time>2018-05-22T09:59:38Z</time>
      </trkpt>
      <trkpt lat="42.536468971520662" lon="-6.517418967559934">
        <ele>593</ele>
        <time>2018-05-22T09:59:44Z</time>
      </trkpt>
      <trkpt lat="42.536456985399127" lon="-6.517418967559934">
        <ele>593</ele>
        <time>2018-05-22T09:59:44Z</time>
      </trkpt>
      <trkpt lat="42.53633301705122" lon="-6.517358031123877">
        <ele>593</ele>
        <time>2018-05-22T09:59:48Z</time>
      </trkpt>
      <trkpt lat="42.536127995699644" lon="-6.517253005877137">
        <ele>588</ele>
        <time>2018-05-22T09:59:55Z</time>
      </trkpt>
      <trkpt lat="42.535997992381454" lon="-6.5172169636935">
        <ele>588</ele>
        <time>2018-05-22T09:59:59Z</time>
      </trkpt>
      <trkpt lat="42.53601199015975" lon="-6.517203971743584">
        <ele>588</ele>
        <time>2018-05-22T09:59:59Z</time>
      </trkpt>
      <trkpt lat="42.535825995728374" lon="-6.51710900478065">
        <ele>588</ele>
        <time>2018-05-22T10:00:05Z</time>
      </trkpt>
      <trkpt lat="42.535751983523369" lon="-6.517062988132238">
        <ele>617</ele>
        <time>2018-05-22T10:00:07Z</time>
      </trkpt>
      <trkpt lat="42.535571018233895" lon="-6.516966009512544">
        <ele>617</ele>
        <time>2018-05-22T10:00:13Z</time>
      </trkpt>
      <trkpt lat="42.535386029630899" lon="-6.516855033114553">
        <ele>602</ele>
        <time>2018-05-22T10:00:19Z</time>
      </trkpt>
      <trkpt lat="42.535219984129071" lon="-6.516769034788013">
        <ele>602</ele>
        <time>2018-05-22T10:00:24Z</time>
      </trkpt>
      <trkpt lat="42.535207998007536" lon="-6.516761993989348">
        <ele>602</ele>
        <time>2018-05-22T10:00:25Z</time>
      </trkpt>
      <trkpt lat="42.535197017714381" lon="-6.516755037009716">
        <ele>602</ele>
        <time>2018-05-22T10:00:25Z</time>
      </trkpt>
      <trkpt lat="42.535183019936085" lon="-6.516745984554291">
        <ele>602</ele>
        <time>2018-05-22T10:00:26Z</time>
      </trkpt>
      <trkpt lat="42.535171033814549" lon="-6.516739027574658">
        <ele>602</ele>
        <time>2018-05-22T10:00:26Z</time>
      </trkpt>
      <trkpt lat="42.535121999680996" lon="-6.516696028411388">
        <ele>602</ele>
        <time>2018-05-22T10:00:28Z</time>
      </trkpt>
      <trkpt lat="42.535112025216222" lon="-6.516685970127583">
        <ele>602</ele>
        <time>2018-05-22T10:00:28Z</time>
      </trkpt>
      <trkpt lat="42.535101966932416" lon="-6.51667901314795">
        <ele>602</ele>
        <time>2018-05-22T10:00:29Z</time>
      </trkpt>
      <trkpt lat="42.535090986639261" lon="-6.516669038683176">
        <ele>602</ele>
        <time>2018-05-22T10:00:29Z</time>
      </trkpt>
      <trkpt lat="42.535043964162469" lon="-6.516588991507888">
        <ele>602</ele>
        <time>2018-05-22T10:00:31Z</time>
      </trkpt>
      <trkpt lat="42.534968024119735" lon="-6.516414983198047">
        <ele>602</ele>
        <time>2018-05-22T10:00:36Z</time>
      </trkpt>
      <trkpt lat="42.534927958622575" lon="-6.516324961557984">
        <ele>602</ele>
        <time>2018-05-22T10:00:38Z</time>
      </trkpt>
      <trkpt lat="42.534874984994531" lon="-6.516193030402064">
        <ele>602</ele>
        <time>2018-05-22T10:00:41Z</time>
      </trkpt>
      <trkpt lat="42.534869033843279" lon="-6.516180038452148">
        <ele>602</ele>
        <time>2018-05-22T10:00:41Z</time>
      </trkpt>
      <trkpt lat="42.53485101275146" lon="-6.516143996268511">
        <ele>602</ele>
        <time>2018-05-22T10:00:42Z</time>
      </trkpt>
      <trkpt lat="42.534841960296035" lon="-6.516133015975356">
        <ele>602</ele>
        <time>2018-05-22T10:00:43Z</time>
      </trkpt>
      <trkpt lat="42.534835003316402" lon="-6.516128992661834">
        <ele>602</ele>
        <time>2018-05-22T10:00:43Z</time>
      </trkpt>
      <trkpt lat="42.534814970567822" lon="-6.515981974080205">
        <ele>620</ele>
        <time>2018-05-22T10:00:46Z</time>
      </trkpt>
      <trkpt lat="42.534793009981513" lon="-6.515739988535643">
        <ele>620</ele>
        <time>2018-05-22T10:00:52Z</time>
      </trkpt>
      <trkpt lat="42.534798961132765" lon="-6.515501020476222">
        <ele>620</ele>
        <time>2018-05-22T10:00:57Z</time>
      </trkpt>
      <trkpt lat="42.534795021638274" lon="-6.515444023534656">
        <ele>620</ele>
        <time>2018-05-22T10:00:58Z</time>
      </trkpt>
      <trkpt lat="42.534835003316402" lon="-6.515250988304615">
        <ele>641</ele>
        <time>2018-05-22T10:01:03Z</time>
      </trkpt>
      <trkpt lat="42.534856041893363" lon="-6.515117967501283">
        <ele>641</ele>
        <time>2018-05-22T10:01:06Z</time>
      </trkpt>
      <trkpt lat="42.534836009144783" lon="-6.51496097445488">
        <ele>641</ele>
        <time>2018-05-22T10:01:09Z</time>
      </trkpt>
      <trkpt lat="42.534769959747791" lon="-6.514804987236857">
        <ele>641</ele>
        <time>2018-05-22T10:01:13Z</time>
      </trkpt>
      <trkpt lat="42.53476501442492" lon="-6.514785960316658">
        <ele>641</ele>
        <time>2018-05-22T10:01:13Z</time>
      </trkpt>
      <trkpt lat="42.534758979454637" lon="-6.514770034700632">
        <ele>641</ele>
        <time>2018-05-22T10:01:14Z</time>
      </trkpt>
      <trkpt lat="42.534754034131765" lon="-6.514662997797132">
        <ele>641</ele>
        <time>2018-05-22T10:01:16Z</time>
      </trkpt>
      <trkpt lat="42.534755039960146" lon="-6.51450902223587">
        <ele>641</ele>
        <time>2018-05-22T10:01:20Z</time>
      </trkpt>
      <trkpt lat="42.534740036353469" lon="-6.514371978119016">
        <ele>661</ele>
        <time>2018-05-22T10:01:23Z</time>
      </trkpt>
      <trkpt lat="42.534734001383185" lon="-6.514354962855578">
        <ele>661</ele>
        <time>2018-05-22T10:01:23Z</time>
      </trkpt>
      <trkpt lat="42.534729978069663" lon="-6.514339037239552">
        <ele>661</ele>
        <time>2018-05-22T10:01:23Z</time>
      </trkpt>
      <trkpt lat="42.534651020541787" lon="-6.514194030314684">
        <ele>661</ele>
        <time>2018-05-22T10:01:27Z</time>
      </trkpt>
      <trkpt lat="42.534501990303397" lon="-6.514119012281299">
        <ele>625</ele>
        <time>2018-05-22T10:01:32Z</time>
      </trkpt>
      <trkpt lat="42.534386990591884" lon="-6.514022033661604">
        <ele>625</ele>
        <time>2018-05-22T10:01:36Z</time>
      </trkpt>
      <trkpt lat="42.534358995035291" lon="-6.513986997306347">
        <ele>625</ele>
        <time>2018-05-22T10:01:37Z</time>
      </trkpt>
      <trkpt lat="42.534281965345144" lon="-6.513860011473298">
        <ele>625</ele>
        <time>2018-05-22T10:01:41Z</time>
      </trkpt>
      <trkpt lat="42.53427199088037" lon="-6.513850959017873">
        <ele>625</ele>
        <time>2018-05-22T10:01:41Z</time>
      </trkpt>
      <trkpt lat="42.5342289917171" lon="-6.513753980398178">
        <ele>625</ele>
        <time>2018-05-22T10:01:44Z</time>
      </trkpt>
      <trkpt lat="42.534218011423945" lon="-6.513740988448262">
        <ele>625</ele>
        <time>2018-05-22T10:01:44Z</time>
      </trkpt>
      <trkpt lat="42.534208036959171" lon="-6.513718022033572">
        <ele>625</ele>
        <time>2018-05-22T10:01:45Z</time>
      </trkpt>
      <trkpt lat="42.534213988110423" lon="-6.513510989025235">
        <ele>638</ele>
        <time>2018-05-22T10:01:49Z</time>
      </trkpt>
      <trkpt lat="42.534192027524114" lon="-6.513356007635593">
        <ele>638</ele>
        <time>2018-05-22T10:01:53Z</time>
      </trkpt>
      <trkpt lat="42.534191021695733" lon="-6.513337986543775">
        <ele>638</ele>
        <time>2018-05-22T10:01:53Z</time>
      </trkpt>
      <trkpt lat="42.534203007817268" lon="-6.513228015974164">
        <ele>638</ele>
        <time>2018-05-22T10:01:56Z</time>
      </trkpt>
      <trkpt lat="42.534300992265344" lon="-6.512984018772841">
        <ele>638</ele>
        <time>2018-05-22T10:02:02Z</time>
      </trkpt>
      <trkpt lat="42.534340973943472" lon="-6.512927021831274">
        <ele>638</ele>
        <time>2018-05-22T10:02:04Z</time>
      </trkpt>
      <trkpt lat="42.534432001411915" lon="-6.512752007693052">
        <ele>638</ele>
        <time>2018-05-22T10:02:08Z</time>
      </trkpt>
      <trkpt lat="42.534497966989875" lon="-6.512616975232959">
        <ele>638</ele>
        <time>2018-05-22T10:02:12Z</time>
      </trkpt>
      <trkpt lat="42.534523028880358" lon="-6.512544974684715">
        <ele>638</ele>
        <time>2018-05-22T10:02:14Z</time>
      </trkpt>
      <trkpt lat="42.534581031650305" lon="-6.512396028265357">
        <ele>638</ele>
        <time>2018-05-22T10:02:17Z</time>
      </trkpt>
      <trkpt lat="42.53459301777184" lon="-6.512370966374874">
        <ele>665</ele>
        <time>2018-05-22T10:02:18Z</time>
      </trkpt>
      <trkpt lat="42.534601986408234" lon="-6.512359986081719">
        <ele>665</ele>
        <time>2018-05-22T10:02:18Z</time>
      </trkpt>
      <trkpt lat="42.534662000834942" lon="-6.512205004692078">
        <ele>665</ele>
        <time>2018-05-22T10:02:22Z</time>
      </trkpt>
      <trkpt lat="42.534698965027928" lon="-6.512081036344171">
        <ele>665</ele>
        <time>2018-05-22T10:02:25Z</time>
      </trkpt>
      <trkpt lat="42.534712040796876" lon="-6.512047005817294">
        <ele>665</ele>
        <time>2018-05-22T10:02:26Z</time>
      </trkpt>
      <trkpt lat="42.534720003604889" lon="-6.512003000825644">
        <ele>654</ele>
        <time>2018-05-22T10:02:27Z</time>
      </trkpt>
      <trkpt lat="42.534729978069663" lon="-6.511995038017631">
        <ele>654</ele>
        <time>2018-05-22T10:02:27Z</time>
      </trkpt>
      <trkpt lat="42.534740036353469" lon="-6.511986991390586">
        <ele>654</ele>
        <time>2018-05-22T10:02:28Z</time>
      </trkpt>
      <trkpt lat="42.534753028303385" lon="-6.511966036632657">
        <ele>654</ele>
        <time>2018-05-22T10:02:28Z</time>
      </trkpt>
      <trkpt lat="42.534841038286686" lon="-6.511869980022311">
        <ele>654</ele>
        <time>2018-05-22T10:02:32Z</time>
      </trkpt>
      <trkpt lat="42.53485101275146" lon="-6.511862017214298">
        <ele>654</ele>
        <time>2018-05-22T10:02:32Z</time>
      </trkpt>
      <trkpt lat="42.534862998872995" lon="-6.511861011385918">
        <ele>654</ele>
        <time>2018-05-22T10:02:33Z</time>
      </trkpt>
      <trkpt lat="42.534861993044615" lon="-6.51186796836555">
        <ele>654</ele>
        <time>2018-05-22T10:02:33Z</time>
      </trkpt>
      <trkpt lat="42.534931981936097" lon="-6.511742994189262">
        <ele>654</ele>
        <time>2018-05-22T10:02:36Z</time>
      </trkpt>
      <trkpt lat="42.53495897166431" lon="-6.511568985879421">
        <ele>654</ele>
        <time>2018-05-22T10:02:40Z</time>
      </trkpt>
      <trkpt lat="42.534971963614225" lon="-6.511467983946204">
        <ele>654</ele>
        <time>2018-05-22T10:02:42Z</time>
      </trkpt>
      <trkpt lat="42.534993002191186" lon="-6.511295987293124">
        <ele>654</ele>
        <time>2018-05-22T10:02:46Z</time>
      </trkpt>
      <trkpt lat="42.534998031333089" lon="-6.511267991736531">
        <ele>654</ele>
        <time>2018-05-22T10:02:47Z</time>
      </trkpt>
      <trkpt lat="42.535001970827579" lon="-6.511252988129854">
        <ele>654</ele>
        <time>2018-05-22T10:02:47Z</time>
      </trkpt>
      <trkpt lat="42.535004988312721" lon="-6.511236978694797">
        <ele>654</ele>
        <time>2018-05-22T10:02:47Z</time>
      </trkpt>
      <trkpt lat="42.535091992467642" lon="-6.511037992313504">
        <ele>656</ele>
        <time>2018-05-22T10:02:53Z</time>
      </trkpt>
      <trkpt lat="42.53508604131639" lon="-6.510944031178951">
        <ele>656</ele>
        <time>2018-05-22T10:02:55Z</time>
      </trkpt>
      <trkpt lat="42.534938016906381" lon="-6.510853003710508">
        <ele>656</ele>
        <time>2018-05-22T10:02:59Z</time>
      </trkpt>
      <trkpt lat="42.534731989726424" lon="-6.510960962623358">
        <ele>656</ele>
        <time>2018-05-22T10:03:06Z</time>
      </trkpt>
      <trkpt lat="42.534606009721756" lon="-6.511017959564924">
        <ele>656</ele>
        <time>2018-05-22T10:03:10Z</time>
      </trkpt>
      <trkpt lat="42.534490004181862" lon="-6.511051990091801">
        <ele>670</ele>
        <time>2018-05-22T10:03:13Z</time>
      </trkpt>
      <trkpt lat="42.534362012520432" lon="-6.511117033660412">
        <ele>670</ele>
        <time>2018-05-22T10:03:17Z</time>
      </trkpt>
      <trkpt lat="42.5342480186373" lon="-6.511142011731863">
        <ele>670</ele>
        <time>2018-05-22T10:03:21Z</time>
      </trkpt>
      <trkpt lat="42.534125978127122" lon="-6.511141005903482">
        <ele>670</ele>
        <time>2018-05-22T10:03:25Z</time>
      </trkpt>
      <trkpt lat="42.534025982022285" lon="-6.511170007288456">
        <ele>670</ele>
        <time>2018-05-22T10:03:28Z</time>
      </trkpt>
      <trkpt lat="42.533878963440657" lon="-6.51121904142201">
        <ele>649</ele>
        <time>2018-05-22T10:03:32Z</time>
      </trkpt>
      <trkpt lat="42.533744014799595" lon="-6.511210994794965">
        <ele>664</ele>
        <time>2018-05-22T10:03:36Z</time>
      </trkpt>
      <trkpt lat="42.533579980954528" lon="-6.511214012280107">
        <ele>664</ele>
        <time>2018-05-22T10:03:41Z</time>
      </trkpt>
      <trkpt lat="42.533469004556537" lon="-6.511201020330191">
        <ele>664</ele>
        <time>2018-05-22T10:03:44Z</time>
      </trkpt>
      <trkpt lat="42.533457018435001" lon="-6.51120001450181">
        <ele>664</ele>
        <time>2018-05-22T10:03:45Z</time>
      </trkpt>
      <trkpt lat="42.533430028706789" lon="-6.511193979531527">
        <ele>664</ele>
        <time>2018-05-22T10:03:46Z</time>
      </trkpt>
      <trkpt lat="42.533319974318147" lon="-6.511202026158571">
        <ele>664</ele>
        <time>2018-05-22T10:03:49Z</time>
      </trkpt>
      <trkpt lat="42.533152000978589" lon="-6.511206971481443">
        <ele>664</ele>
        <time>2018-05-22T10:03:54Z</time>
      </trkpt>
      <trkpt lat="42.533029038459063" lon="-6.511205965653062">
        <ele>664</ele>
        <time>2018-05-22T10:03:58Z</time>
      </trkpt>
      <trkpt lat="42.532957959920168" lon="-6.511340998113155">
        <ele>664</ele>
        <time>2018-05-22T10:04:01Z</time>
      </trkpt>
      <trkpt lat="42.532885959371924" lon="-6.511368993669748">
        <ele>681</ele>
        <time>2018-05-22T10:04:04Z</time>
      </trkpt>
      <trkpt lat="42.532811025157571" lon="-6.51130797341466">
        <ele>681</ele>
        <time>2018-05-22T10:04:06Z</time>
      </trkpt>
      <trkpt lat="42.532716980203986" lon="-6.511065987870097">
        <ele>697</ele>
        <time>2018-05-22T10:04:12Z</time>
      </trkpt>
      <trkpt lat="42.532649002969265" lon="-6.510801035910845">
        <ele>697</ele>
        <time>2018-05-22T10:04:19Z</time>
      </trkpt>
      <trkpt lat="42.532645985484123" lon="-6.510784020647407">
        <ele>697</ele>
        <time>2018-05-22T10:04:19Z</time>
      </trkpt>
      <trkpt lat="42.532598040997982" lon="-6.51059702038765">
        <ele>697</ele>
        <time>2018-05-22T10:04:23Z</time>
      </trkpt>
      <trkpt lat="42.53253199160099" lon="-6.510529965162277">
        <ele>697</ele>
        <time>2018-05-22T10:04:26Z</time>
      </trkpt>
      <trkpt lat="42.532354965806007" lon="-6.510467017069459">
        <ele>697</ele>
        <time>2018-05-22T10:04:31Z</time>
      </trkpt>
      <trkpt lat="42.532342979684472" lon="-6.510456958785653">
        <ele>697</ele>
        <time>2018-05-22T10:04:32Z</time>
      </trkpt>
      <trkpt lat="42.532297968864441" lon="-6.510456958785653">
        <ele>697</ele>
        <time>2018-05-22T10:04:33Z</time>
      </trkpt>
      <trkpt lat="42.532234014943242" lon="-6.510461987927556">
        <ele>697</ele>
        <time>2018-05-22T10:04:35Z</time>
      </trkpt>
      <trkpt lat="42.532062018290162" lon="-6.510500963777304">
        <ele>703</ele>
        <time>2018-05-22T10:04:40Z</time>
      </trkpt>
      <trkpt lat="42.531998986378312" lon="-6.510513033717871">
        <ele>703</ele>
        <time>2018-05-22T10:04:42Z</time>
      </trkpt>
      <trkpt lat="42.531862026080489" lon="-6.510531976819038">
        <ele>703</ele>
        <time>2018-05-22T10:04:46Z</time>
      </trkpt>
      <trkpt lat="42.531850039958954" lon="-6.510532982647419">
        <ele>703</ele>
        <time>2018-05-22T10:04:47Z</time>
      </trkpt>
      <trkpt lat="42.531835958361626" lon="-6.510528959333897">
        <ele>703</ele>
        <time>2018-05-22T10:04:47Z</time>
      </trkpt>
      <trkpt lat="42.531819026917219" lon="-6.510519990697503">
        <ele>703</ele>
        <time>2018-05-22T10:04:48Z</time>
      </trkpt>
      <trkpt lat="42.531791031360626" lon="-6.510516973212361">
        <ele>703</ele>
        <time>2018-05-22T10:04:48Z</time>
      </trkpt>
      <trkpt lat="42.531772004440427" lon="-6.510514039546251">
        <ele>703</ele>
        <time>2018-05-22T10:04:49Z</time>
      </trkpt>
      <trkpt lat="42.531752977520227" lon="-6.510513033717871">
        <ele>703</ele>
        <time>2018-05-22T10:04:50Z</time>
      </trkpt>
      <trkpt lat="42.53173403441906" lon="-6.510514039546251">
        <ele>703</ele>
        <time>2018-05-22T10:04:50Z</time>
      </trkpt>
      <trkpt lat="42.53171500749886" lon="-6.51051202788949">
        <ele>703</ele>
        <time>2018-05-22T10:04:51Z</time>
      </trkpt>
      <trkpt lat="42.531619034707546" lon="-6.510538011789322">
        <ele>703</ele>
        <time>2018-05-22T10:04:54Z</time>
      </trkpt>
      <trkpt lat="42.53145701251924" lon="-6.510639013722539">
        <ele>703</ele>
        <time>2018-05-22T10:04:59Z</time>
      </trkpt>
      <trkpt lat="42.531324997544289" lon="-6.510724006220698">
        <ele>703</ele>
        <time>2018-05-22T10:05:03Z</time>
      </trkpt>
      <trkpt lat="42.531250985339284" lon="-6.510815033689141">
        <ele>694</ele>
        <time>2018-05-22T10:05:07Z</time>
      </trkpt>
      <trkpt lat="42.531251991167665" lon="-6.510812016204">
        <ele>694</ele>
        <time>2018-05-22T10:05:07Z</time>
      </trkpt>
      <trkpt lat="42.531142020598054" lon="-6.510789971798658">
        <ele>694</ele>
        <time>2018-05-22T10:05:10Z</time>
      </trkpt>
      <trkpt lat="42.531004976481199" lon="-6.510614035651088">
        <ele>694</ele>
        <time>2018-05-22T10:05:16Z</time>
      </trkpt>
      <trkpt lat="42.530998019501567" lon="-6.51060095988214">
        <ele>694</ele>
        <time>2018-05-22T10:05:16Z</time>
      </trkpt>
      <trkpt lat="42.530989972874522" lon="-6.510584028437734">
        <ele>719</ele>
        <time>2018-05-22T10:05:16Z</time>
      </trkpt>
      <trkpt lat="42.530985027551651" lon="-6.510569024831057">
        <ele>694</ele>
        <time>2018-05-22T10:05:17Z</time>
      </trkpt>
      <trkpt lat="42.530960971489549" lon="-6.510536000132561">
        <ele>694</ele>
        <time>2018-05-22T10:05:18Z</time>
      </trkpt>
      <trkpt lat="42.530972035601735" lon="-6.51044799014926">
        <ele>694</ele>
        <time>2018-05-22T10:05:20Z</time>
      </trkpt>
      <trkpt lat="42.530959965661168" lon="-6.510269958525896">
        <ele>719</ele>
        <time>2018-05-22T10:05:24Z</time>
      </trkpt>
      <trkpt lat="42.530894000083208" lon="-6.510096034035087">
        <ele>719</ele>
        <time>2018-05-22T10:05:28Z</time>
      </trkpt>
      <trkpt lat="42.530884025618434" lon="-6.510071977972984">
        <ele>719</ele>
        <time>2018-05-22T10:05:29Z</time>
      </trkpt>
      <trkpt lat="42.530829040333629" lon="-6.509958989918232">
        <ele>719</ele>
        <time>2018-05-22T10:05:32Z</time>
      </trkpt>
      <trkpt lat="42.530821999534965" lon="-6.509947003796697">
        <ele>719</ele>
        <time>2018-05-22T10:05:32Z</time>
      </trkpt>
      <trkpt lat="42.530816970393062" lon="-6.509935017675161">
        <ele>719</ele>
        <time>2018-05-22T10:05:33Z</time>
      </trkpt>
      <trkpt lat="42.530783023685217" lon="-6.509853964671493">
        <ele>719</ele>
        <time>2018-05-22T10:05:35Z</time>
      </trkpt>
      <trkpt lat="42.530742036178708" lon="-6.509720021858811">
        <ele>719</ele>
        <time>2018-05-22T10:05:38Z</time>
      </trkpt>
      <trkpt lat="42.530660983175039" lon="-6.509609967470169">
        <ele>719</ele>
        <time>2018-05-22T10:05:41Z</time>
      </trkpt>
      <trkpt lat="42.530628964304924" lon="-6.509566968306899">
        <ele>719</ele>
        <time>2018-05-22T10:05:43Z</time>
      </trkpt>
      <trkpt lat="42.530599040910602" lon="-6.509547019377351">
        <ele>747</ele>
        <time>2018-05-22T10:05:44Z</time>
      </trkpt>
      <trkpt lat="42.530587976798415" lon="-6.509531009942293">
        <ele>747</ele>
        <time>2018-05-22T10:05:44Z</time>
      </trkpt>
      <trkpt lat="42.530572973191738" lon="-6.509499996900559">
        <ele>747</ele>
        <time>2018-05-22T10:05:45Z</time>
      </trkpt>
      <trkpt lat="42.530586970970035" lon="-6.509507959708571">
        <ele>747</ele>
        <time>2018-05-22T10:05:45Z</time>
      </trkpt>
      <trkpt lat="42.530584037303925" lon="-6.509497985243797">
        <ele>747</ele>
        <time>2018-05-22T10:05:46Z</time>
      </trkpt>
      <trkpt lat="42.530595017597079" lon="-6.509419027715921">
        <ele>747</ele>
        <time>2018-05-22T10:05:47Z</time>
      </trkpt>
      <trkpt lat="42.530508013442159" lon="-6.509222975000739">
        <ele>747</ele>
        <time>2018-05-22T10:05:53Z</time>
      </trkpt>
      <trkpt lat="42.530394019559026" lon="-6.509035974740982">
        <ele>714</ele>
        <time>2018-05-22T10:05:58Z</time>
      </trkpt>
      <trkpt lat="42.530271979048848" lon="-6.508859032765031">
        <ele>714</ele>
        <time>2018-05-22T10:06:03Z</time>
      </trkpt>
      <trkpt lat="42.530196961015463" lon="-6.508722994476557">
        <ele>726</ele>
        <time>2018-05-22T10:06:07Z</time>
      </trkpt>
      <trkpt lat="42.53016603179276" lon="-6.508673960343003">
        <ele>726</ele>
        <time>2018-05-22T10:06:09Z</time>
      </trkpt>
      <trkpt lat="42.530187992379069" lon="-6.508633978664875">
        <ele>726</ele>
        <time>2018-05-22T10:06:10Z</time>
      </trkpt>
      <trkpt lat="42.530182041227818" lon="-6.508397022262216">
        <ele>726</ele>
        <time>2018-05-22T10:06:15Z</time>
      </trkpt>
      <trkpt lat="42.530182963237166" lon="-6.508376989513636">
        <ele>726</ele>
        <time>2018-05-22T10:06:15Z</time>
      </trkpt>
      <trkpt lat="42.530186986550689" lon="-6.508356034755707">
        <ele>726</ele>
        <time>2018-05-22T10:06:16Z</time>
      </trkpt>
      <trkpt lat="42.530191009864211" lon="-6.508337007835507">
        <ele>726</ele>
        <time>2018-05-22T10:06:16Z</time>
      </trkpt>
      <trkpt lat="42.53019000403583" lon="-6.508294008672237">
        <ele>726</ele>
        <time>2018-05-22T10:06:17Z</time>
      </trkpt>
      <trkpt lat="42.530177012085915" lon="-6.508227959275246">
        <ele>726</ele>
        <time>2018-05-22T10:06:19Z</time>
      </trkpt>
      <trkpt lat="42.530187992379069" lon="-6.507921013981104">
        <ele>726</ele>
        <time>2018-05-22T10:06:26Z</time>
      </trkpt>
      <trkpt lat="42.530144993215799" lon="-6.507607027888298">
        <ele>734</ele>
        <time>2018-05-22T10:06:33Z</time>
      </trkpt>
      <trkpt lat="42.530090007930994" lon="-6.50737602263689">
        <ele>734</ele>
        <time>2018-05-22T10:06:38Z</time>
      </trkpt>
      <trkpt lat="42.530062012374401" lon="-6.5072269923985">
        <ele>734</ele>
        <time>2018-05-22T10:06:42Z</time>
      </trkpt>
      <trkpt lat="42.530032005161047" lon="-6.506999004632235">
        <ele>742</ele>
        <time>2018-05-22T10:06:47Z</time>
      </trkpt>
      <trkpt lat="42.530072992667556" lon="-6.50690202601254">
        <ele>742</ele>
        <time>2018-05-22T10:06:49Z</time>
      </trkpt>
      <trkpt lat="42.530113980174065" lon="-6.506806975230575">
        <ele>742</ele>
        <time>2018-05-22T10:06:52Z</time>
      </trkpt>
      <trkpt lat="42.530204001814127" lon="-6.506554009392858">
        <ele>742</ele>
        <time>2018-05-22T10:06:58Z</time>
      </trkpt>
      <trkpt lat="42.530302992090583" lon="-6.506278999149799">
        <ele>742</ele>
        <time>2018-05-22T10:07:04Z</time>
      </trkpt>
      <trkpt lat="42.530348002910614" lon="-6.506180008873344">
        <ele>742</ele>
        <time>2018-05-22T10:07:07Z</time>
      </trkpt>
      <trkpt lat="42.530415980145335" lon="-6.505922013893724">
        <ele>752</ele>
        <time>2018-05-22T10:07:13Z</time>
      </trkpt>
      <trkpt lat="42.530421009287238" lon="-6.505907010287046">
        <ele>752</ele>
        <time>2018-05-22T10:07:13Z</time>
      </trkpt>
      <trkpt lat="42.53042696043849" lon="-6.50589301250875">
        <ele>752</ele>
        <time>2018-05-22T10:07:14Z</time>
      </trkpt>
      <trkpt lat="42.530436012893915" lon="-6.505883038043976">
        <ele>752</ele>
        <time>2018-05-22T10:07:14Z</time>
      </trkpt>
      <trkpt lat="42.530445987358689" lon="-6.505874991416931">
        <ele>752</ele>
        <time>2018-05-22T10:07:14Z</time>
      </trkpt>
      <trkpt lat="42.530492004007101" lon="-6.505817994475365">
        <ele>761</ele>
        <time>2018-05-22T10:07:16Z</time>
      </trkpt>
      <trkpt lat="42.53046702593565" lon="-6.505604004487395">
        <ele>752</ele>
        <time>2018-05-22T10:07:21Z</time>
      </trkpt>
      <trkpt lat="42.53046803176403" lon="-6.505587995052338">
        <ele>752</ele>
        <time>2018-05-22T10:07:21Z</time>
      </trkpt>
      <trkpt lat="42.53046995960176" lon="-6.505570979788899">
        <ele>752</ele>
        <time>2018-05-22T10:07:22Z</time>
      </trkpt>
      <trkpt lat="42.530481023713946" lon="-6.505426978692412">
        <ele>761</ele>
        <time>2018-05-22T10:07:25Z</time>
      </trkpt>
      <trkpt lat="42.530474988743663" lon="-6.505228998139501">
        <ele>762</ele>
        <time>2018-05-22T10:07:29Z</time>
      </trkpt>
      <trkpt lat="42.530508013442159" lon="-6.505063036456704">
        <ele>768</ele>
        <time>2018-05-22T10:07:33Z</time>
      </trkpt>
      <trkpt lat="42.530522011220455" lon="-6.504977038130164">
        <ele>768</ele>
        <time>2018-05-22T10:07:35Z</time>
      </trkpt>
      <trkpt lat="42.53051396459341" lon="-6.504917023703456">
        <ele>768</ele>
        <time>2018-05-22T10:07:36Z</time>
      </trkpt>
      <trkpt lat="42.5305110309273" lon="-6.50490302592516">
        <ele>768</ele>
        <time>2018-05-22T10:07:37Z</time>
      </trkpt>
      <trkpt lat="42.53053299151361" lon="-6.504822978749871">
        <ele>768</ele>
        <time>2018-05-22T10:07:38Z</time>
      </trkpt>
      <trkpt lat="42.530540032312274" lon="-6.504741003736854">
        <ele>768</ele>
        <time>2018-05-22T10:07:40Z</time>
      </trkpt>
      <trkpt lat="42.530524022877216" lon="-6.504623992368579">
        <ele>768</ele>
        <time>2018-05-22T10:07:43Z</time>
      </trkpt>
      <trkpt lat="42.530516982078552" lon="-6.504586022347212">
        <ele>768</ele>
        <time>2018-05-22T10:07:44Z</time>
      </trkpt>
      <trkpt lat="42.530474988743663" lon="-6.504460964351893">
        <ele>768</ele>
        <time>2018-05-22T10:07:47Z</time>
      </trkpt>
      <trkpt lat="42.530455961823463" lon="-6.5042810048908">
        <ele>768</ele>
        <time>2018-05-22T10:07:51Z</time>
      </trkpt>
      <trkpt lat="42.530444981530309" lon="-6.503995014354587">
        <ele>768</ele>
        <time>2018-05-22T10:07:57Z</time>
      </trkpt>
      <trkpt lat="42.530444981530309" lon="-6.50398101657629">
        <ele>768</ele>
        <time>2018-05-22T10:07:57Z</time>
      </trkpt>
      <trkpt lat="42.530440958216786" lon="-6.503966012969613">
        <ele>768</ele>
        <time>2018-05-22T10:07:58Z</time>
      </trkpt>
      <trkpt lat="42.530432995408773" lon="-6.503893006592989">
        <ele>768</ele>
        <time>2018-05-22T10:07:59Z</time>
      </trkpt>
      <trkpt lat="42.530451016500592" lon="-6.503732996061444">
        <ele>768</ele>
        <time>2018-05-22T10:08:03Z</time>
      </trkpt>
      <trkpt lat="42.530440958216786" lon="-6.503521017730236">
        <ele>778</ele>
        <time>2018-05-22T10:08:07Z</time>
      </trkpt>
      <trkpt lat="42.530431989580393" lon="-6.503407023847103">
        <ele>778</ele>
        <time>2018-05-22T10:08:10Z</time>
      </trkpt>
      <trkpt lat="42.530429977923632" lon="-6.503387996926904">
        <ele>778</ele>
        <time>2018-05-22T10:08:10Z</time>
      </trkpt>
      <trkpt lat="42.530426038429141" lon="-6.503346003592014">
        <ele>778</ele>
        <time>2018-05-22T10:08:11Z</time>
      </trkpt>
      <trkpt lat="42.53042503260076" lon="-6.503288000822067">
        <ele>778</ele>
        <time>2018-05-22T10:08:13Z</time>
      </trkpt>
      <trkpt lat="42.530412040650845" lon="-6.503045009449124">
        <ele>778</ele>
        <time>2018-05-22T10:08:18Z</time>
      </trkpt>
      <trkpt lat="42.530412962660193" lon="-6.503027994185686">
        <ele>778</ele>
        <time>2018-05-22T10:08:18Z</time>
      </trkpt>
      <trkpt lat="42.530412040650845" lon="-6.503009973093867">
        <ele>778</ele>
        <time>2018-05-22T10:08:19Z</time>
      </trkpt>
      <trkpt lat="42.53040499985218" lon="-6.502864966169">
        <ele>778</ele>
        <time>2018-05-22T10:08:22Z</time>
      </trkpt>
      <trkpt lat="42.53042402677238" lon="-6.502645025029779">
        <ele>786</ele>
        <time>2018-05-22T10:08:27Z</time>
      </trkpt>
      <trkpt lat="42.530502984300256" lon="-6.502479985356331">
        <ele>789</ele>
        <time>2018-05-22T10:08:31Z</time>
      </trkpt>
      <trkpt lat="42.530571967363358" lon="-6.502335984259844">
        <ele>789</ele>
        <time>2018-05-22T10:08:35Z</time>
      </trkpt>
      <trkpt lat="42.530584037303925" lon="-6.502268007025123">
        <ele>789</ele>
        <time>2018-05-22T10:08:36Z</time>
      </trkpt>
      <trkpt lat="42.530603986233473" lon="-6.502243028953672">
        <ele>789</ele>
        <time>2018-05-22T10:08:37Z</time>
      </trkpt>
      <trkpt lat="42.530613960698247" lon="-6.502099027857184">
        <ele>789</ele>
        <time>2018-05-22T10:08:40Z</time>
      </trkpt>
      <trkpt lat="42.530594011768699" lon="-6.501903980970383">
        <ele>788</ele>
        <time>2018-05-22T10:08:45Z</time>
      </trkpt>
      <trkpt lat="42.530573979020119" lon="-6.501645985990763">
        <ele>788</ele>
        <time>2018-05-22T10:08:50Z</time>
      </trkpt>
      <trkpt lat="42.530536008998752" lon="-6.501438030973077">
        <ele>788</ele>
        <time>2018-05-22T10:08:55Z</time>
      </trkpt>
      <trkpt lat="42.530420003458858" lon="-6.501536015421152">
        <ele>797</ele>
        <time>2018-05-22T10:08:59Z</time>
      </trkpt>
      <trkpt lat="42.530391002073884" lon="-6.501664007082582">
        <ele>797</ele>
        <time>2018-05-22T10:09:02Z</time>
      </trkpt>
      <trkpt lat="42.530388990417123" lon="-6.501698037609458">
        <ele>797</ele>
        <time>2018-05-22T10:09:03Z</time>
      </trkpt>
      <trkpt lat="42.530366024002433" lon="-6.501701977103949">
        <ele>797</ele>
        <time>2018-05-22T10:09:04Z</time>
      </trkpt>
      <trkpt lat="42.530315984040499" lon="-6.501880008727312">
        <ele>797</ele>
        <time>2018-05-22T10:09:08Z</time>
      </trkpt>
      <trkpt lat="42.530291005969048" lon="-6.501879002898932">
        <ele>797</ele>
        <time>2018-05-22T10:09:08Z</time>
      </trkpt>
      <trkpt lat="42.530257981270552" lon="-6.501799961552024">
        <ele>797</ele>
        <time>2018-05-22T10:09:11Z</time>
      </trkpt>
      <trkpt lat="42.530248006805778" lon="-6.501556970179081">
        <ele>797</ele>
        <time>2018-05-22T10:09:16Z</time>
      </trkpt>
      <trkpt lat="42.530239038169384" lon="-6.50120903737843">
        <ele>797</ele>
        <time>2018-05-22T10:09:24Z</time>
      </trkpt>
      <trkpt lat="42.530267033725977" lon="-6.500893961638212">
        <ele>809</ele>
        <time>2018-05-22T10:09:31Z</time>
      </trkpt>
      <trkpt lat="42.530288994312286" lon="-6.500638984143734">
        <ele>809</ele>
        <time>2018-05-22T10:09:36Z</time>
      </trkpt>
      <trkpt lat="42.53027499653399" lon="-6.500293985009193">
        <ele>810</ele>
        <time>2018-05-22T10:09:44Z</time>
      </trkpt>
      <trkpt lat="42.530263010412455" lon="-6.500228019431233">
        <ele>810</ele>
        <time>2018-05-22T10:09:45Z</time>
      </trkpt>
      <trkpt lat="42.530264016240835" lon="-6.500122994184494">
        <ele>810</ele>
        <time>2018-05-22T10:09:48Z</time>
      </trkpt>
      <trkpt lat="42.530206013470888" lon="-6.49996398948133">
        <ele>810</ele>
        <time>2018-05-22T10:09:51Z</time>
      </trkpt>
      <trkpt lat="42.530179023742676" lon="-6.499918978661299">
        <ele>810</ele>
        <time>2018-05-22T10:09:53Z</time>
      </trkpt>
      <trkpt lat="42.530111968517303" lon="-6.499856030568481">
        <ele>810</ele>
        <time>2018-05-22T10:09:55Z</time>
      </trkpt>
      <trkpt lat="42.529963022097945" lon="-6.4997289609164">
        <ele>810</ele>
        <time>2018-05-22T10:10:01Z</time>
      </trkpt>
      <trkpt lat="42.529946006834507" lon="-6.499609015882015">
        <ele>810</ele>
        <time>2018-05-22T10:10:03Z</time>
      </trkpt>
      <trkpt lat="42.529860008507967" lon="-6.499418998137116">
        <ele>812</ele>
        <time>2018-05-22T10:10:08Z</time>
      </trkpt>
      <trkpt lat="42.529799994081259" lon="-6.499321013689041">
        <ele>812</ele>
        <time>2018-05-22T10:10:11Z</time>
      </trkpt>
      <trkpt lat="42.529726987704635" lon="-6.499194027855992">
        <ele>812</ele>
        <time>2018-05-22T10:10:15Z</time>
      </trkpt>
      <trkpt lat="42.529680971056223" lon="-6.499123033136129">
        <ele>812</ele>
        <time>2018-05-22T10:10:17Z</time>
      </trkpt>
      <trkpt lat="42.529674014076591" lon="-6.499075004830957">
        <ele>812</ele>
        <time>2018-05-22T10:10:18Z</time>
      </trkpt>
      <trkpt lat="42.529672002419829" lon="-6.499054972082377">
        <ele>812</ele>
        <time>2018-05-22T10:10:18Z</time>
      </trkpt>
      <trkpt lat="42.529631014913321" lon="-6.498907031491399">
        <ele>812</ele>
        <time>2018-05-22T10:10:22Z</time>
      </trkpt>
      <trkpt lat="42.529627997428179" lon="-6.498893033713102">
        <ele>812</ele>
        <time>2018-05-22T10:10:22Z</time>
      </trkpt>
      <trkpt lat="42.529625985771418" lon="-6.498879035934806">
        <ele>812</ele>
        <time>2018-05-22T10:10:22Z</time>
      </trkpt>
      <trkpt lat="42.529611987993121" lon="-6.498740985989571">
        <ele>812</ele>
        <time>2018-05-22T10:10:25Z</time>
      </trkpt>
      <trkpt lat="42.529605031013489" lon="-6.498715002089739">
        <ele>825</ele>
        <time>2018-05-22T10:10:26Z</time>
      </trkpt>
      <trkpt lat="42.529590027406812" lon="-6.498688012361527">
        <ele>825</ele>
        <time>2018-05-22T10:10:27Z</time>
      </trkpt>
      <trkpt lat="42.52956697717309" lon="-6.498641995713115">
        <ele>835</ele>
        <time>2018-05-22T10:10:28Z</time>
      </trkpt>
      <trkpt lat="42.529526995494962" lon="-6.498514004051685">
        <ele>835</ele>
        <time>2018-05-22T10:10:31Z</time>
      </trkpt>
      <trkpt lat="42.529418030753732" lon="-6.498354999348521">
        <ele>835</ele>
        <time>2018-05-22T10:10:36Z</time>
      </trkpt>
      <trkpt lat="42.529330020770431" lon="-6.498230025172234">
        <ele>835</ele>
        <time>2018-05-22T10:10:39Z</time>
      </trkpt>
      <trkpt lat="42.529307976365089" lon="-6.498206974938512">
        <ele>835</ele>
        <time>2018-05-22T10:10:40Z</time>
      </trkpt>
      <trkpt lat="42.529295990243554" lon="-6.498185014352202">
        <ele>835</ele>
        <time>2018-05-22T10:10:41Z</time>
      </trkpt>
      <trkpt lat="42.529260031878948" lon="-6.498150983825326">
        <ele>835</ele>
        <time>2018-05-22T10:10:42Z</time>
      </trkpt>
      <trkpt lat="42.529249973595142" lon="-6.498142015188932">
        <ele>835</ele>
        <time>2018-05-22T10:10:42Z</time>
      </trkpt>
      <trkpt lat="42.529241004958749" lon="-6.498131034895778">
        <ele>835</ele>
        <time>2018-05-22T10:10:43Z</time>
      </trkpt>
      <trkpt lat="42.529210997745395" lon="-6.49807102046907">
        <ele>835</ele>
        <time>2018-05-22T10:10:44Z</time>
      </trkpt>
      <trkpt lat="42.529204962775111" lon="-6.498056016862392">
        <ele>835</ele>
        <time>2018-05-22T10:10:45Z</time>
      </trkpt>
      <trkpt lat="42.529191970825195" lon="-6.497989967465401">
        <ele>835</ele>
        <time>2018-05-22T10:10:46Z</time>
      </trkpt>
      <trkpt lat="42.529194988310337" lon="-6.497962977737188">
        <ele>835</ele>
        <time>2018-05-22T10:10:47Z</time>
      </trkpt>
      <trkpt lat="42.529196999967098" lon="-6.497947974130511">
        <ele>835</ele>
        <time>2018-05-22T10:10:47Z</time>
      </trkpt>
      <trkpt lat="42.529189959168434" lon="-6.497930036857724">
        <ele>835</ele>
        <time>2018-05-22T10:10:48Z</time>
      </trkpt>
      <trkpt lat="42.529185013845563" lon="-6.497910004109144">
        <ele>835</ele>
        <time>2018-05-22T10:10:48Z</time>
      </trkpt>
      <trkpt lat="42.529196999967098" lon="-6.497626025229693">
        <ele>835</ele>
        <time>2018-05-22T10:10:54Z</time>
      </trkpt>
      <trkpt lat="42.529204962775111" lon="-6.4973200019449">
        <ele>835</ele>
        <time>2018-05-22T10:11:01Z</time>
      </trkpt>
      <trkpt lat="42.529161963611841" lon="-6.497025964781642">
        <ele>840</ele>
        <time>2018-05-22T10:11:07Z</time>
      </trkpt>
      <trkpt lat="42.529037995263934" lon="-6.496743997558951">
        <ele>840</ele>
        <time>2018-05-22T10:11:15Z</time>
      </trkpt>
      <trkpt lat="42.528881002217531" lon="-6.496466975659132">
        <ele>840</ele>
        <time>2018-05-22T10:11:22Z</time>
      </trkpt>
      <trkpt lat="42.52874999307096" lon="-6.496211998164654">
        <ele>830</ele>
        <time>2018-05-22T10:11:29Z</time>
      </trkpt>
      <trkpt lat="42.528741024434566" lon="-6.496198000386357">
        <ele>830</ele>
        <time>2018-05-22T10:11:29Z</time>
      </trkpt>
      <trkpt lat="42.528733983635902" lon="-6.4961819909513">
        <ele>830</ele>
        <time>2018-05-22T10:11:30Z</time>
      </trkpt>
      <trkpt lat="42.528729038313031" lon="-6.496167993173003">
        <ele>830</ele>
        <time>2018-05-22T10:11:30Z</time>
      </trkpt>
      <trkpt lat="42.528724009171128" lon="-6.496152989566326">
        <ele>830</ele>
        <time>2018-05-22T10:11:30Z</time>
      </trkpt>
      <trkpt lat="42.528692996129394" lon="-6.496004965156317">
        <ele>833</ele>
        <time>2018-05-22T10:11:34Z</time>
      </trkpt>
      <trkpt lat="42.528715962544084" lon="-6.49570900015533">
        <ele>833</ele>
        <time>2018-05-22T10:11:40Z</time>
      </trkpt>
      <trkpt lat="42.528689978644252" lon="-6.495441030710936">
        <ele>833</ele>
        <time>2018-05-22T10:11:46Z</time>
      </trkpt>
      <trkpt lat="42.528657037764788" lon="-6.495305998250842">
        <ele>833</ele>
        <time>2018-05-22T10:11:49Z</time>
      </trkpt>
      <trkpt lat="42.528659971430898" lon="-6.495295017957687">
        <ele>836</ele>
        <time>2018-05-22T10:11:50Z</time>
      </trkpt>
      <trkpt lat="42.528654020279646" lon="-6.495249001309276">
        <ele>836</ele>
        <time>2018-05-22T10:11:51Z</time>
      </trkpt>
      <trkpt lat="42.528643039986491" lon="-6.495250007137656">
        <ele>836</ele>
        <time>2018-05-22T10:11:51Z</time>
      </trkpt>
      <trkpt lat="42.528631975874305" lon="-6.495097959414125">
        <ele>836</ele>
        <time>2018-05-22T10:11:54Z</time>
      </trkpt>
      <trkpt lat="42.528623007237911" lon="-6.495051020756364">
        <ele>836</ele>
        <time>2018-05-22T10:11:55Z</time>
      </trkpt>
      <trkpt lat="42.528623007237911" lon="-6.494991006329656">
        <ele>836</ele>
        <time>2018-05-22T10:11:57Z</time>
      </trkpt>
      <trkpt lat="42.528615966439247" lon="-6.494941972196102">
        <ele>836</ele>
        <time>2018-05-22T10:11:58Z</time>
      </trkpt>
      <trkpt lat="42.528593000024557" lon="-6.494869971647859">
        <ele>836</ele>
        <time>2018-05-22T10:11:59Z</time>
      </trkpt>
      <trkpt lat="42.528585959225893" lon="-6.494732005521655">
        <ele>836</ele>
        <time>2018-05-22T10:12:02Z</time>
      </trkpt>
      <trkpt lat="42.528583025559783" lon="-6.494667967781425">
        <ele>836</ele>
        <time>2018-05-22T10:12:04Z</time>
      </trkpt>
      <trkpt lat="42.528520999476314" lon="-6.494533019140363">
        <ele>836</ele>
        <time>2018-05-22T10:12:07Z</time>
      </trkpt>
      <trkpt lat="42.528507001698017" lon="-6.494479039683938">
        <ele>842</ele>
        <time>2018-05-22T10:12:09Z</time>
      </trkpt>
      <trkpt lat="42.528502978384495" lon="-6.494536958634853">
        <ele>836</ele>
        <time>2018-05-22T10:12:10Z</time>
      </trkpt>
      <trkpt lat="42.528503984212875" lon="-6.494481973350048">
        <ele>836</ele>
        <time>2018-05-22T10:12:11Z</time>
      </trkpt>
      <trkpt lat="42.528493003919721" lon="-6.494469987228513">
        <ele>842</ele>
        <time>2018-05-22T10:12:11Z</time>
      </trkpt>
      <trkpt lat="42.528498033061624" lon="-6.494510974735022">
        <ele>836</ele>
        <time>2018-05-22T10:12:12Z</time>
      </trkpt>
      <trkpt lat="42.528498033061624" lon="-6.49450602941215">
        <ele>836</ele>
        <time>2018-05-22T10:12:12Z</time>
      </trkpt>
      <trkpt lat="42.528414968401194" lon="-6.49433403275907">
        <ele>842</ele>
        <time>2018-05-22T10:12:17Z</time>
      </trkpt>
      <trkpt lat="42.528308015316725" lon="-6.494234958663583">
        <ele>842</ele>
        <time>2018-05-22T10:12:21Z</time>
      </trkpt>
      <trkpt lat="42.52819100394845" lon="-6.494047036394477">
        <ele>842</ele>
        <time>2018-05-22T10:12:26Z</time>
      </trkpt>
      <trkpt lat="42.528095031157136" lon="-6.493886020034552">
        <ele>842</ele>
        <time>2018-05-22T10:12:31Z</time>
      </trkpt>
      <trkpt lat="42.527942983433604" lon="-6.493768002837896">
        <ele>838</ele>
        <time>2018-05-22T10:12:36Z</time>
      </trkpt>
      <trkpt lat="42.527839969843626" lon="-6.493687033653259">
        <ele>838</ele>
        <time>2018-05-22T10:12:39Z</time>
      </trkpt>
      <trkpt lat="42.52782597206533" lon="-6.493680998682976">
        <ele>838</ele>
        <time>2018-05-22T10:12:40Z</time>
      </trkpt>
      <trkpt lat="42.527812980115414" lon="-6.493676975369453">
        <ele>838</ele>
        <time>2018-05-22T10:12:40Z</time>
      </trkpt>
      <trkpt lat="42.527795964851975" lon="-6.493675969541073">
        <ele>838</ele>
        <time>2018-05-22T10:12:41Z</time>
      </trkpt>
      <trkpt lat="42.527779033407569" lon="-6.493678987026215">
        <ele>838</ele>
        <time>2018-05-22T10:12:41Z</time>
      </trkpt>
      <trkpt lat="42.52776101231575" lon="-6.493683010339737">
        <ele>838</ele>
        <time>2018-05-22T10:12:42Z</time>
      </trkpt>
      <trkpt lat="42.527745002880692" lon="-6.493686027824879">
        <ele>838</ele>
        <time>2018-05-22T10:12:42Z</time>
      </trkpt>
      <trkpt lat="42.527727987617254" lon="-6.49369097314775">
        <ele>838</ele>
        <time>2018-05-22T10:12:43Z</time>
      </trkpt>
      <trkpt lat="42.527626985684037" lon="-6.493680998682976">
        <ele>838</ele>
        <time>2018-05-22T10:12:46Z</time>
      </trkpt>
      <trkpt lat="42.527478039264679" lon="-6.493630036711693">
        <ele>844</ele>
        <time>2018-05-22T10:12:50Z</time>
      </trkpt>
      <trkpt lat="42.527268994599581" lon="-6.493599023669958">
        <ele>844</ele>
        <time>2018-05-22T10:12:56Z</time>
      </trkpt>
      <trkpt lat="42.527207974344492" lon="-6.49358200840652">
        <ele>844</ele>
        <time>2018-05-22T10:12:58Z</time>
      </trkpt>
      <trkpt lat="42.526985015720129" lon="-6.493574967607856">
        <ele>846</ele>
        <time>2018-05-22T10:13:05Z</time>
      </trkpt>
      <trkpt lat="42.526974035426974" lon="-6.493577985092998">
        <ele>846</ele>
        <time>2018-05-22T10:13:05Z</time>
      </trkpt>
      <trkpt lat="42.526927012950182" lon="-6.493577985092998">
        <ele>846</ele>
        <time>2018-05-22T10:13:07Z</time>
      </trkpt>
      <trkpt lat="42.526915026828647" lon="-6.493575973436236">
        <ele>846</ele>
        <time>2018-05-22T10:13:07Z</time>
      </trkpt>
      <trkpt lat="42.526904968544841" lon="-6.493574967607856">
        <ele>846</ele>
        <time>2018-05-22T10:13:07Z</time>
      </trkpt>
      <trkpt lat="42.526892982423306" lon="-6.493574967607856">
        <ele>846</ele>
        <time>2018-05-22T10:13:08Z</time>
      </trkpt>
      <trkpt lat="42.526882002130151" lon="-6.493575973436236">
        <ele>846</ele>
        <time>2018-05-22T10:13:08Z</time>
      </trkpt>
      <trkpt lat="42.526835985481739" lon="-6.493571028113365">
        <ele>846</ele>
        <time>2018-05-22T10:13:09Z</time>
      </trkpt>
      <trkpt lat="42.526652002707124" lon="-6.493477988988161">
        <ele>846</ele>
        <time>2018-05-22T10:13:15Z</time>
      </trkpt>
      <trkpt lat="42.526533985510468" lon="-6.493205996230245">
        <ele>846</ele>
        <time>2018-05-22T10:13:22Z</time>
      </trkpt>
      <trkpt lat="42.526409011334181" lon="-6.492985971271992">
        <ele>846</ele>
        <time>2018-05-22T10:13:28Z</time>
      </trkpt>
      <trkpt lat="42.526399036869407" lon="-6.492972979322076">
        <ele>846</ele>
        <time>2018-05-22T10:13:28Z</time>
      </trkpt>
      <trkpt lat="42.526391996070743" lon="-6.492957975715399">
        <ele>846</ele>
        <time>2018-05-22T10:13:29Z</time>
      </trkpt>
      <trkpt lat="42.526373974978924" lon="-6.49293702095747">
        <ele>846</ele>
        <time>2018-05-22T10:13:30Z</time>
      </trkpt>
      <trkpt lat="42.526353020220995" lon="-6.4928940217942">
        <ele>846</ele>
        <time>2018-05-22T10:13:31Z</time>
      </trkpt>
      <trkpt lat="42.526345979422331" lon="-6.492880024015904">
        <ele>846</ele>
        <time>2018-05-22T10:13:31Z</time>
      </trkpt>
      <trkpt lat="42.526338016614318" lon="-6.492863008752465">
        <ele>846</ele>
        <time>2018-05-22T10:13:32Z</time>
      </trkpt>
      <trkpt lat="42.526327958330512" lon="-6.492846999317408">
        <ele>846</ele>
        <time>2018-05-22T10:13:32Z</time>
      </trkpt>
      <trkpt lat="42.52632100135088" lon="-6.49283098988235">
        <ele>856</ele>
        <time>2018-05-22T10:13:32Z</time>
      </trkpt>
      <trkpt lat="42.526313960552216" lon="-6.492812968790531">
        <ele>846</ele>
        <time>2018-05-22T10:13:33Z</time>
      </trkpt>
      <trkpt lat="42.526309015229344" lon="-6.492794025689364">
        <ele>856</ele>
        <time>2018-05-22T10:13:33Z</time>
      </trkpt>
      <trkpt lat="42.526302980259061" lon="-6.492772987112403">
        <ele>856</ele>
        <time>2018-05-22T10:13:34Z</time>
      </trkpt>
      <trkpt lat="42.526297029107809" lon="-6.492756977677345">
        <ele>846</ele>
        <time>2018-05-22T10:13:34Z</time>
      </trkpt>
      <trkpt lat="42.526264004409313" lon="-6.492686988785863">
        <ele>846</ele>
        <time>2018-05-22T10:13:36Z</time>
      </trkpt>
      <trkpt lat="42.526240032166243" lon="-6.492601996287704">
        <ele>846</ele>
        <time>2018-05-22T10:13:38Z</time>
      </trkpt>
      <trkpt lat="42.526232991367579" lon="-6.492582969367504">
        <ele>846</ele>
        <time>2018-05-22T10:13:38Z</time>
      </trkpt>
      <trkpt lat="42.526227040216327" lon="-6.492565032094717">
        <ele>846</ele>
        <time>2018-05-22T10:13:39Z</time>
      </trkpt>
      <trkpt lat="42.526223016902804" lon="-6.492544999346137">
        <ele>846</ele>
        <time>2018-05-22T10:13:39Z</time>
      </trkpt>
      <trkpt lat="42.526218993589282" lon="-6.492523960769177">
        <ele>846</ele>
        <time>2018-05-22T10:13:40Z</time>
      </trkpt>
      <trkpt lat="42.526212958618999" lon="-6.49250702932477">
        <ele>846</ele>
        <time>2018-05-22T10:13:40Z</time>
      </trkpt>
      <trkpt lat="42.526203989982605" lon="-6.492365961894393">
        <ele>846</ele>
        <time>2018-05-22T10:13:43Z</time>
      </trkpt>
      <trkpt lat="42.526211030781269" lon="-6.492164041846991">
        <ele>846</ele>
        <time>2018-05-22T10:13:48Z</time>
      </trkpt>
      <trkpt lat="42.526189992204309" lon="-6.491890037432313">
        <ele>850</ele>
        <time>2018-05-22T10:13:54Z</time>
      </trkpt>
      <trkpt lat="42.526188986375928" lon="-6.491867993026972">
        <ele>850</ele>
        <time>2018-05-22T10:13:54Z</time>
      </trkpt>
      <trkpt lat="42.52617297694087" lon="-6.491746958345175">
        <ele>850</ele>
        <time>2018-05-22T10:13:57Z</time>
      </trkpt>
      <trkpt lat="42.526096031069756" lon="-6.491500027477741">
        <ele>850</ele>
        <time>2018-05-22T10:14:03Z</time>
      </trkpt>
      <trkpt lat="42.525995029136539" lon="-6.491209007799625">
        <ele>850</ele>
        <time>2018-05-22T10:14:10Z</time>
      </trkpt>
      <trkpt lat="42.5258709769696" lon="-6.490901978686452">
        <ele>854</ele>
        <time>2018-05-22T10:14:17Z</time>
      </trkpt>
      <trkpt lat="42.525794031098485" lon="-6.49061699397862">
        <ele>854</ele>
        <time>2018-05-22T10:14:24Z</time>
      </trkpt>
      <trkpt lat="42.525781039148569" lon="-6.490342989563942">
        <ele>857</ele>
        <time>2018-05-22T10:14:30Z</time>
      </trkpt>
      <trkpt lat="42.525816997513175" lon="-6.490018023177981">
        <ele>857</ele>
        <time>2018-05-22T10:14:37Z</time>
      </trkpt>
      <trkpt lat="42.52584901638329" lon="-6.489677969366312">
        <ele>857</ele>
        <time>2018-05-22T10:14:45Z</time>
      </trkpt>
      <trkpt lat="42.52582797780633" lon="-6.489468002691865">
        <ele>862</ele>
        <time>2018-05-22T10:14:49Z</time>
      </trkpt>
      <trkpt lat="42.525773998349905" lon="-6.489224005490542">
        <ele>862</ele>
        <time>2018-05-22T10:14:55Z</time>
      </trkpt>
      <trkpt lat="42.525770980864763" lon="-6.489207996055484">
        <ele>862</ele>
        <time>2018-05-22T10:14:55Z</time>
      </trkpt>
      <trkpt lat="42.525768969208002" lon="-6.489188969135284">
        <ele>862</ele>
        <time>2018-05-22T10:14:56Z</time>
      </trkpt>
      <trkpt lat="42.525766035541892" lon="-6.489171031862497">
        <ele>862</ele>
        <time>2018-05-22T10:14:56Z</time>
      </trkpt>
      <trkpt lat="42.525761006399989" lon="-6.489154016599059">
        <ele>862</ele>
        <time>2018-05-22T10:14:56Z</time>
      </trkpt>
      <trkpt lat="42.525757988914847" lon="-6.48913599550724">
        <ele>862</ele>
        <time>2018-05-22T10:14:57Z</time>
      </trkpt>
      <trkpt lat="42.525755977258086" lon="-6.489116968587041">
        <ele>862</ele>
        <time>2018-05-22T10:14:57Z</time>
      </trkpt>
      <trkpt lat="42.525753965601325" lon="-6.489098025485873">
        <ele>862</ele>
        <time>2018-05-22T10:14:58Z</time>
      </trkpt>
      <trkpt lat="42.525743991136551" lon="-6.489068018272519">
        <ele>862</ele>
        <time>2018-05-22T10:14:58Z</time>
      </trkpt>
      <trkpt lat="42.525610970333219" lon="-6.488796025514603">
        <ele>862</ele>
        <time>2018-05-22T10:15:05Z</time>
      </trkpt>
      <trkpt lat="42.525604013353586" lon="-6.488781021907926">
        <ele>862</ele>
        <time>2018-05-22T10:15:06Z</time>
      </trkpt>
      <trkpt lat="42.525596972554922" lon="-6.488767024129629">
        <ele>862</ele>
        <time>2018-05-22T10:15:06Z</time>
      </trkpt>
      <trkpt lat="42.525565037503839" lon="-6.48866300471127">
        <ele>867</ele>
        <time>2018-05-22T10:15:09Z</time>
      </trkpt>
      <trkpt lat="42.525557996705174" lon="-6.488652024418116">
        <ele>867</ele>
        <time>2018-05-22T10:15:09Z</time>
      </trkpt>
      <trkpt lat="42.525549028068781" lon="-6.48864297196269">
        <ele>867</ele>
        <time>2018-05-22T10:15:09Z</time>
      </trkpt>
      <trkpt lat="42.525537963956594" lon="-6.488606007769704">
        <ele>867</ele>
        <time>2018-05-22T10:15:10Z</time>
      </trkpt>
      <trkpt lat="42.525480967015028" lon="-6.488324962556362">
        <ele>867</ele>
        <time>2018-05-22T10:15:17Z</time>
      </trkpt>
      <trkpt lat="42.52546202391386" lon="-6.488283975049853">
        <ele>853</ele>
        <time>2018-05-22T10:15:18Z</time>
      </trkpt>
      <trkpt lat="42.525456994771957" lon="-6.488272994756699">
        <ele>853</ele>
        <time>2018-05-22T10:15:18Z</time>
      </trkpt>
      <trkpt lat="42.525380970910192" lon="-6.488022040575743">
        <ele>853</ele>
        <time>2018-05-22T10:15:24Z</time>
      </trkpt>
      <trkpt lat="42.52533302642405" lon="-6.487711993977428">
        <ele>858</ele>
        <time>2018-05-22T10:15:31Z</time>
      </trkpt>
      <trkpt lat="42.525317016988993" lon="-6.487461961805821">
        <ele>858</ele>
        <time>2018-05-22T10:15:36Z</time>
      </trkpt>
      <trkpt lat="42.525305030867457" lon="-6.487320978194475">
        <ele>858</ele>
        <time>2018-05-22T10:15:39Z</time>
      </trkpt>
      <trkpt lat="42.525279968976974" lon="-6.487034987658262">
        <ele>866</ele>
        <time>2018-05-22T10:15:46Z</time>
      </trkpt>
      <trkpt lat="42.525296984240413" lon="-6.487010009586811">
        <ele>866</ele>
        <time>2018-05-22T10:15:46Z</time>
      </trkpt>
      <trkpt lat="42.525276029482484" lon="-6.486929040402174">
        <ele>866</ele>
        <time>2018-05-22T10:15:48Z</time>
      </trkpt>
      <trkpt lat="42.525273011997342" lon="-6.486913030967116">
        <ele>866</ele>
        <time>2018-05-22T10:15:49Z</time>
      </trkpt>
      <trkpt lat="42.525274017825723" lon="-6.486862991005182">
        <ele>866</ele>
        <time>2018-05-22T10:15:50Z</time>
      </trkpt>
      <trkpt lat="42.525323973968625" lon="-6.486703986302018">
        <ele>866</ele>
        <time>2018-05-22T10:15:53Z</time>
      </trkpt>
      <trkpt lat="42.525378037244081" lon="-6.486584041267633">
        <ele>866</ele>
        <time>2018-05-22T10:15:57Z</time>
      </trkpt>
      <trkpt lat="42.525380970910192" lon="-6.486569037660956">
        <ele>866</ele>
        <time>2018-05-22T10:15:57Z</time>
      </trkpt>
      <trkpt lat="42.525374013930559" lon="-6.48649200797081">
        <ele>866</ele>
        <time>2018-05-22T10:15:59Z</time>
      </trkpt>
      <trkpt lat="42.525350041687489" lon="-6.486224038526416">
        <ele>866</ele>
        <time>2018-05-22T10:16:05Z</time>
      </trkpt>
      <trkpt lat="42.525350963696837" lon="-6.486204005777836">
        <ele>866</ele>
        <time>2018-05-22T10:16:05Z</time>
      </trkpt>
      <trkpt lat="42.525340989232063" lon="-6.486152037978172">
        <ele>866</ele>
        <time>2018-05-22T10:16:06Z</time>
      </trkpt>
      <trkpt lat="42.525320034474134" lon="-6.485992027446628">
        <ele>869</ele>
        <time>2018-05-22T10:16:10Z</time>
      </trkpt>
      <trkpt lat="42.525320034474134" lon="-6.485973000526428">
        <ele>869</ele>
        <time>2018-05-22T10:16:10Z</time>
      </trkpt>
      <trkpt lat="42.525319028645754" lon="-6.485950034111738">
        <ele>869</ele>
        <time>2018-05-22T10:16:11Z</time>
      </trkpt>
      <trkpt lat="42.52531299367547" lon="-6.485924972221255">
        <ele>869</ele>
        <time>2018-05-22T10:16:11Z</time>
      </trkpt>
      <trkpt lat="42.525304025039077" lon="-6.485897982493043">
        <ele>869</ele>
        <time>2018-05-22T10:16:12Z</time>
      </trkpt>
      <trkpt lat="42.525294972583652" lon="-6.485873004421592">
        <ele>869</ele>
        <time>2018-05-22T10:16:12Z</time>
      </trkpt>
      <trkpt lat="42.525291033089161" lon="-6.485852971673012">
        <ele>869</ele>
        <time>2018-05-22T10:16:13Z</time>
      </trkpt>
      <trkpt lat="42.52529002726078" lon="-6.485835034400225">
        <ele>869</ele>
        <time>2018-05-22T10:16:13Z</time>
      </trkpt>
      <trkpt lat="42.525287009775639" lon="-6.485816007480025">
        <ele>869</ele>
        <time>2018-05-22T10:16:14Z</time>
      </trkpt>
      <trkpt lat="42.525217020884156" lon="-6.485704025253654">
        <ele>869</ele>
        <time>2018-05-22T10:16:17Z</time>
      </trkpt>
      <trkpt lat="42.52507695928216" lon="-6.485493974760175">
        <ele>869</ele>
        <time>2018-05-22T10:16:23Z</time>
      </trkpt>
      <trkpt lat="42.525068996474147" lon="-6.485473020002246">
        <ele>869</ele>
        <time>2018-05-22T10:16:24Z</time>
      </trkpt>
      <trkpt lat="42.525035971775651" lon="-6.4853959903121">
        <ele>869</ele>
        <time>2018-05-22T10:16:26Z</time>
      </trkpt>
      <trkpt lat="42.524917032569647" lon="-6.485235979780555">
        <ele>874</ele>
        <time>2018-05-22T10:16:31Z</time>
      </trkpt>
      <trkpt lat="42.524908985942602" lon="-6.485218964517117">
        <ele>874</ele>
        <time>2018-05-22T10:16:31Z</time>
      </trkpt>
      <trkpt lat="42.524811001494527" lon="-6.484983013942838">
        <ele>874</ele>
        <time>2018-05-22T10:16:37Z</time>
      </trkpt>
      <trkpt lat="42.524717040359974" lon="-6.484738010913134">
        <ele>874</ele>
        <time>2018-05-22T10:16:43Z</time>
      </trkpt>
      <trkpt lat="42.524651996791363" lon="-6.484496025368571">
        <ele>874</ele>
        <time>2018-05-22T10:16:49Z</time>
      </trkpt>
      <trkpt lat="42.524535991251469" lon="-6.484265020117164">
        <ele>889</ele>
        <time>2018-05-22T10:16:55Z</time>
      </trkpt>
      <trkpt lat="42.524441024288535" lon="-6.484099980443716">
        <ele>889</ele>
        <time>2018-05-22T10:17:00Z</time>
      </trkpt>
      <trkpt lat="42.524340022355318" lon="-6.483981963247061">
        <ele>889</ele>
        <time>2018-05-22T10:17:04Z</time>
      </trkpt>
      <trkpt lat="42.524263998493552" lon="-6.483863024041057">
        <ele>889</ele>
        <time>2018-05-22T10:17:07Z</time>
      </trkpt>
      <trkpt lat="42.524201972410083" lon="-6.483623972162604">
        <ele>891</ele>
        <time>2018-05-22T10:17:13Z</time>
      </trkpt>
      <trkpt lat="42.5241510104388" lon="-6.483486006036401">
        <ele>891</ele>
        <time>2018-05-22T10:17:16Z</time>
      </trkpt>
      <trkpt lat="42.524092001840472" lon="-6.483403025195003">
        <ele>891</ele>
        <time>2018-05-22T10:17:18Z</time>
      </trkpt>
      <trkpt lat="42.52402301877737" lon="-6.483300011605024">
        <ele>891</ele>
        <time>2018-05-22T10:17:22Z</time>
      </trkpt>
      <trkpt lat="42.523946994915605" lon="-6.483170008286834">
        <ele>891</ele>
        <time>2018-05-22T10:17:25Z</time>
      </trkpt>
      <trkpt lat="42.52385001629591" lon="-6.483051991090179">
        <ele>891</ele>
        <time>2018-05-22T10:17:29Z</time>
      </trkpt>
      <trkpt lat="42.523840041831136" lon="-6.483044028282166">
        <ele>891</ele>
        <time>2018-05-22T10:17:29Z</time>
      </trkpt>
      <trkpt lat="42.523771980777383" lon="-6.482841018587351">
        <ele>891</ele>
        <time>2018-05-22T10:17:34Z</time>
      </trkpt>
      <trkpt lat="42.523762006312609" lon="-6.482810005545616">
        <ele>909</ele>
        <time>2018-05-22T10:17:35Z</time>
      </trkpt>
      <trkpt lat="42.523720012977719" lon="-6.482628034427762">
        <ele>909</ele>
        <time>2018-05-22T10:17:39Z</time>
      </trkpt>
      <trkpt lat="42.52370098605752" lon="-6.482527032494545">
        <ele>909</ele>
        <time>2018-05-22T10:17:42Z</time>
      </trkpt>
      <trkpt lat="42.523667039349675" lon="-6.482384037226439">
        <ele>909</ele>
        <time>2018-05-22T10:17:45Z</time>
      </trkpt>
      <trkpt lat="42.523612976074219" lon="-6.482228972017765">
        <ele>909</ele>
        <time>2018-05-22T10:17:49Z</time>
      </trkpt>
      <trkpt lat="42.523554973304272" lon="-6.482077008113265">
        <ele>909</ele>
        <time>2018-05-22T10:17:52Z</time>
      </trkpt>
      <trkpt lat="42.523480039089918" lon="-6.48191599175334">
        <ele>910</ele>
        <time>2018-05-22T10:17:56Z</time>
      </trkpt>
      <trkpt lat="42.523373002186418" lon="-6.481778025627136">
        <ele>910</ele>
        <time>2018-05-22T10:18:01Z</time>
      </trkpt>
      <trkpt lat="42.523253979161382" lon="-6.481662020087242">
        <ele>910</ele>
        <time>2018-05-22T10:18:05Z</time>
      </trkpt>
      <trkpt lat="42.523163035511971" lon="-6.481504021212459">
        <ele>910</ele>
        <time>2018-05-22T10:18:09Z</time>
      </trkpt>
      <trkpt lat="42.523066978901625" lon="-6.481335964053869">
        <ele>910</ele>
        <time>2018-05-22T10:18:14Z</time>
      </trkpt>
      <trkpt lat="42.523036971688271" lon="-6.481273015961051">
        <ele>910</ele>
        <time>2018-05-22T10:18:16Z</time>
      </trkpt>
      <trkpt lat="42.522960025817156" lon="-6.481053996831179">
        <ele>913</ele>
        <time>2018-05-22T10:18:21Z</time>
      </trkpt>
      <trkpt lat="42.522847959771752" lon="-6.48082097992301">
        <ele>920</ele>
        <time>2018-05-22T10:18:27Z</time>
      </trkpt>
      <trkpt lat="42.522767996415496" lon="-6.48075602017343">
        <ele>920</ele>
        <time>2018-05-22T10:18:30Z</time>
      </trkpt>
      <trkpt lat="42.522723991423845" lon="-6.480667004361749">
        <ele>920</ele>
        <time>2018-05-22T10:18:32Z</time>
      </trkpt>
      <trkpt lat="42.522709993645549" lon="-6.480629034340382">
        <ele>920</ele>
        <time>2018-05-22T10:18:33Z</time>
      </trkpt>
      <trkpt lat="42.522651990875602" lon="-6.480447985231876">
        <ele>920</ele>
        <time>2018-05-22T10:18:37Z</time>
      </trkpt>
      <trkpt lat="42.522545959800482" lon="-6.480246987193823">
        <ele>925</ele>
        <time>2018-05-22T10:18:43Z</time>
      </trkpt>
      <trkpt lat="42.522488040849566" lon="-6.480037020519376">
        <ele>925</ele>
        <time>2018-05-22T10:18:48Z</time>
      </trkpt>
      <trkpt lat="42.522432971745729" lon="-6.479927971959114">
        <ele>925</ele>
        <time>2018-05-22T10:18:51Z</time>
      </trkpt>
      <trkpt lat="42.522288970649242" lon="-6.479678023606539">
        <ele>925</ele>
        <time>2018-05-22T10:18:58Z</time>
      </trkpt>
      <trkpt lat="42.522123008966446" lon="-6.479546008631587">
        <ele>934</ele>
        <time>2018-05-22T10:19:03Z</time>
      </trkpt>
      <trkpt lat="42.522013038396835" lon="-6.479447018355131">
        <ele>929</ele>
        <time>2018-05-22T10:19:07Z</time>
      </trkpt>
      <trkpt lat="42.521868031471968" lon="-6.479280972853303">
        <ele>929</ele>
        <time>2018-05-22T10:19:13Z</time>
      </trkpt>
      <trkpt lat="42.521736016497016" lon="-6.479200003668666">
        <ele>929</ele>
        <time>2018-05-22T10:19:17Z</time>
      </trkpt>
      <trkpt lat="42.521628979593515" lon="-6.479062959551811">
        <ele>929</ele>
        <time>2018-05-22T10:19:21Z</time>
      </trkpt>
      <trkpt lat="42.521472992375493" lon="-6.478912001475692">
        <ele>929</ele>
        <time>2018-05-22T10:19:27Z</time>
      </trkpt>
      <trkpt lat="42.521426975727081" lon="-6.478810999542475">
        <ele>929</ele>
        <time>2018-05-22T10:19:30Z</time>
      </trkpt>
      <trkpt lat="42.521284986287355" lon="-6.478773029521108">
        <ele>928</ele>
        <time>2018-05-22T10:19:34Z</time>
      </trkpt>
      <trkpt lat="42.521136961877346" lon="-6.47875702008605">
        <ele>928</ele>
        <time>2018-05-22T10:19:38Z</time>
      </trkpt>
      <trkpt lat="42.521038977429271" lon="-6.478752996772528">
        <ele>928</ele>
        <time>2018-05-22T10:19:41Z</time>
      </trkpt>
      <trkpt lat="42.521027997136116" lon="-6.478723995387554">
        <ele>940</ele>
        <time>2018-05-22T10:19:42Z</time>
      </trkpt>
      <trkpt lat="42.52086597494781" lon="-6.478573037311435">
        <ele>940</ele>
        <time>2018-05-22T10:19:48Z</time>
      </trkpt>
      <trkpt lat="42.520716022700071" lon="-6.478507993742824">
        <ele>940</ele>
        <time>2018-05-22T10:19:52Z</time>
      </trkpt>
      <trkpt lat="42.52056498080492" lon="-6.478460971266031">
        <ele>940</ele>
        <time>2018-05-22T10:19:57Z</time>
      </trkpt>
      <trkpt lat="42.520427014678717" lon="-6.478294003754854">
        <ele>937</ele>
        <time>2018-05-22T10:20:03Z</time>
      </trkpt>
      <trkpt lat="42.520324001088738" lon="-6.478036008775234">
        <ele>937</ele>
        <time>2018-05-22T10:20:09Z</time>
      </trkpt>
      <trkpt lat="42.520171031355858" lon="-6.477892007678747">
        <ele>948</ele>
        <time>2018-05-22T10:20:15Z</time>
      </trkpt>
      <trkpt lat="42.51991898752749" lon="-6.477717999368906">
        <ele>948</ele>
        <time>2018-05-22T10:20:23Z</time>
      </trkpt>
      <trkpt lat="42.51976702362299" lon="-6.477583972737193">
        <ele>948</ele>
        <time>2018-05-22T10:20:28Z</time>
      </trkpt>
      <trkpt lat="42.519652023911476" lon="-6.477453969419003">
        <ele>948</ele>
        <time>2018-05-22T10:20:33Z</time>
      </trkpt>
      <trkpt lat="42.519482960924506" lon="-6.477333018556237">
        <ele>943</ele>
        <time>2018-05-22T10:20:38Z</time>
      </trkpt>
      <trkpt lat="42.519411966204643" lon="-6.477192034944892">
        <ele>943</ele>
        <time>2018-05-22T10:20:42Z</time>
      </trkpt>
      <trkpt lat="42.519397968426347" lon="-6.47716797888279">
        <ele>943</ele>
        <time>2018-05-22T10:20:43Z</time>
      </trkpt>
      <trkpt lat="42.519256984815001" lon="-6.476935967803001">
        <ele>949</ele>
        <time>2018-05-22T10:20:49Z</time>
      </trkpt>
      <trkpt lat="42.519199987873435" lon="-6.476851981133223">
        <ele>949</ele>
        <time>2018-05-22T10:20:52Z</time>
      </trkpt>
      <trkpt lat="42.51916604116559" lon="-6.47676195949316">
        <ele>949</ele>
        <time>2018-05-22T10:20:54Z</time>
      </trkpt>
      <trkpt lat="42.5190360378474" lon="-6.476471023634076">
        <ele>949</ele>
        <time>2018-05-22T10:21:01Z</time>
      </trkpt>
      <trkpt lat="42.518937969580293" lon="-6.476085959002376">
        <ele>958</ele>
        <time>2018-05-22T10:21:10Z</time>
      </trkpt>
      <trkpt lat="42.518832022324204" lon="-6.475806003436446">
        <ele>958</ele>
        <time>2018-05-22T10:21:17Z</time>
      </trkpt>
      <trkpt lat="42.518734959885478" lon="-6.475516995415092">
        <ele>941</ele>
        <time>2018-05-22T10:21:24Z</time>
      </trkpt>
      <trkpt lat="42.518557012081146" lon="-6.475229999050498">
        <ele>950</ele>
        <time>2018-05-22T10:21:32Z</time>
      </trkpt>
      <trkpt lat="42.518408987671137" lon="-6.474946020171046">
        <ele>950</ele>
        <time>2018-05-22T10:21:40Z</time>
      </trkpt>
      <trkpt lat="42.518288036808372" lon="-6.474709985777736">
        <ele>950</ele>
        <time>2018-05-22T10:21:46Z</time>
      </trkpt>
      <trkpt lat="42.518164990469813" lon="-6.474443022161722">
        <ele>963</ele>
        <time>2018-05-22T10:21:53Z</time>
      </trkpt>
      <trkpt lat="42.518025012686849" lon="-6.47420103661716">
        <ele>963</ele>
        <time>2018-05-22T10:22:00Z</time>
      </trkpt>
      <trkpt lat="42.51800699159503" lon="-6.474154014140368">
        <ele>963</ele>
        <time>2018-05-22T10:22:01Z</time>
      </trkpt>
      <trkpt lat="42.517851004377007" lon="-6.473891995847225">
        <ele>946</ele>
        <time>2018-05-22T10:22:08Z</time>
      </trkpt>
      <trkpt lat="42.517689988017082" lon="-6.473718993365765">
        <ele>946</ele>
        <time>2018-05-22T10:22:14Z</time>
      </trkpt>
      <trkpt lat="42.517681019380689" lon="-6.473711030557752">
        <ele>946</ele>
        <time>2018-05-22T10:22:15Z</time>
      </trkpt>
      <trkpt lat="42.517489995807409" lon="-6.473481031134725">
        <ele>958</ele>
        <time>2018-05-22T10:22:22Z</time>
      </trkpt>
      <trkpt lat="42.517322022467852" lon="-6.473222030326724">
        <ele>958</ele>
        <time>2018-05-22T10:22:30Z</time>
      </trkpt>
      <trkpt lat="42.517139967530966" lon="-6.472939979285002">
        <ele>958</ele>
        <time>2018-05-22T10:22:38Z</time>
      </trkpt>
      <trkpt lat="42.51695497892797" lon="-6.472608977928758">
        <ele>954</ele>
        <time>2018-05-22T10:22:47Z</time>
      </trkpt>
      <trkpt lat="42.516762027516961" lon="-6.472358023747802">
        <ele>954</ele>
        <time>2018-05-22T10:22:55Z</time>
      </trkpt>
      <trkpt lat="42.51654502004385" lon="-6.472063986584544">
        <ele>954</ele>
        <time>2018-05-22T10:23:04Z</time>
      </trkpt>
      <trkpt lat="42.516431026160717" lon="-6.47199098020792">
        <ele>966</ele>
        <time>2018-05-22T10:23:08Z</time>
      </trkpt>
      <trkpt lat="42.516252994537354" lon="-6.471970025449991">
        <ele>966</ele>
        <time>2018-05-22T10:23:13Z</time>
      </trkpt>
      <trkpt lat="42.516102958470583" lon="-6.471983017399907">
        <ele>966</ele>
        <time>2018-05-22T10:23:18Z</time>
      </trkpt>
      <trkpt lat="42.516035987064242" lon="-6.471983017399907">
        <ele>966</ele>
        <time>2018-05-22T10:23:20Z</time>
      </trkpt>
      <trkpt lat="42.515928028151393" lon="-6.471926020458341">
        <ele>966</ele>
        <time>2018-05-22T10:23:23Z</time>
      </trkpt>
      <trkpt lat="42.515917969867587" lon="-6.471918979659677">
        <ele>966</ele>
        <time>2018-05-22T10:23:24Z</time>
      </trkpt>
      <trkpt lat="42.515784027054906" lon="-6.47196801379323">
        <ele>966</ele>
        <time>2018-05-22T10:23:28Z</time>
      </trkpt>
      <trkpt lat="42.51560197211802" lon="-6.472043031826615">
        <ele>960</ele>
        <time>2018-05-22T10:23:33Z</time>
      </trkpt>
      <trkpt lat="42.515441961586475" lon="-6.472059963271022">
        <ele>976</ele>
        <time>2018-05-22T10:23:38Z</time>
      </trkpt>
      <trkpt lat="42.515403991565108" lon="-6.472077984362841">
        <ele>976</ele>
        <time>2018-05-22T10:23:39Z</time>
      </trkpt>
      <trkpt lat="42.515222020447254" lon="-6.472129030153155">
        <ele>976</ele>
        <time>2018-05-22T10:23:45Z</time>
      </trkpt>
      <trkpt lat="42.515038959681988" lon="-6.472218967974186">
        <ele>976</ele>
        <time>2018-05-22T10:23:51Z</time>
      </trkpt>
      <trkpt lat="42.51482698135078" lon="-6.472220979630947">
        <ele>976</ele>
        <time>2018-05-22T10:23:57Z</time>
      </trkpt>
      <trkpt lat="42.514739977195859" lon="-6.472179992124438">
        <ele>976</ele>
        <time>2018-05-22T10:24:00Z</time>
      </trkpt>
      <trkpt lat="42.514560017734766" lon="-6.472086030989885">
        <ele>985</ele>
        <time>2018-05-22T10:24:05Z</time>
      </trkpt>
      <trkpt lat="42.514515006914735" lon="-6.472057029604912">
        <ele>985</ele>
        <time>2018-05-22T10:24:07Z</time>
      </trkpt>
      <trkpt lat="42.514405036345124" lon="-6.472001038491726">
        <ele>989</ele>
        <time>2018-05-22T10:24:10Z</time>
      </trkpt>
      <trkpt lat="42.514186017215252" lon="-6.47196801379323">
        <ele>989</ele>
        <time>2018-05-22T10:24:17Z</time>
      </trkpt>
      <trkpt lat="42.513998011127114" lon="-6.471894001588225">
        <ele>989</ele>
        <time>2018-05-22T10:24:23Z</time>
      </trkpt>
      <trkpt lat="42.513929028064013" lon="-6.471831975504756">
        <ele>989</ele>
        <time>2018-05-22T10:24:25Z</time>
      </trkpt>
      <trkpt lat="42.513862978667021" lon="-6.471758969128132">
        <ele>989</ele>
        <time>2018-05-22T10:24:28Z</time>
      </trkpt>
      <trkpt lat="42.513844035565853" lon="-6.471683029085398">
        <ele>989</ele>
        <time>2018-05-22T10:24:30Z</time>
      </trkpt>
      <trkpt lat="42.513787960633636" lon="-6.471478007733822">
        <ele>989</ele>
        <time>2018-05-22T10:24:34Z</time>
      </trkpt>
      <trkpt lat="42.513773962855339" lon="-6.471450012177229">
        <ele>989</ele>
        <time>2018-05-22T10:24:35Z</time>
      </trkpt>
      <trkpt lat="42.513630967587233" lon="-6.471338029950857">
        <ele>995</ele>
        <time>2018-05-22T10:24:40Z</time>
      </trkpt>
      <trkpt lat="42.513612024486065" lon="-6.471321014687419">
        <ele>995</ele>
        <time>2018-05-22T10:24:41Z</time>
      </trkpt>
      <trkpt lat="42.513563996180892" lon="-6.471291007474065">
        <ele>995</ele>
        <time>2018-05-22T10:24:42Z</time>
      </trkpt>
      <trkpt lat="42.513422006741166" lon="-6.471167039126158">
        <ele>992</ele>
        <time>2018-05-22T10:24:47Z</time>
      </trkpt>
      <trkpt lat="42.513242969289422" lon="-6.471075005829334">
        <ele>992</ele>
        <time>2018-05-22T10:24:53Z</time>
      </trkpt>
      <trkpt lat="42.513051023706794" lon="-6.470966041088104">
        <ele>992</ele>
        <time>2018-05-22T10:24:59Z</time>
      </trkpt>
      <trkpt lat="42.512889001518488" lon="-6.470831008628011">
        <ele>1006</ele>
        <time>2018-05-22T10:25:05Z</time>
      </trkpt>
      <trkpt lat="42.51272102817893" lon="-6.470708968117833">
        <ele>1006</ele>
        <time>2018-05-22T10:25:10Z</time>
      </trkpt>
      <trkpt lat="42.512603010982275" lon="-6.470625987276435">
        <ele>1006</ele>
        <time>2018-05-22T10:25:14Z</time>
      </trkpt>
      <trkpt lat="42.512461021542549" lon="-6.47046597674489">
        <ele>1006</ele>
        <time>2018-05-22T10:25:20Z</time>
      </trkpt>
      <trkpt lat="42.512289024889469" lon="-6.470318958163261">
        <ele>1001</ele>
        <time>2018-05-22T10:25:26Z</time>
      </trkpt>
      <trkpt lat="42.512133959680796" lon="-6.470204964280129">
        <ele>1001</ele>
        <time>2018-05-22T10:25:31Z</time>
      </trkpt>
      <trkpt lat="42.511999011039734" lon="-6.470041014254093">
        <ele>1019</ele>
        <time>2018-05-22T10:25:36Z</time>
      </trkpt>
      <trkpt lat="42.511990964412689" lon="-6.470031039789319">
        <ele>1019</ele>
        <time>2018-05-22T10:25:37Z</time>
      </trkpt>
      <trkpt lat="42.511986019089818" lon="-6.470022993162274">
        <ele>1019</ele>
        <time>2018-05-22T10:25:37Z</time>
      </trkpt>
      <trkpt lat="42.511881999671459" lon="-6.469935989007354">
        <ele>1019</ele>
        <time>2018-05-22T10:25:41Z</time>
      </trkpt>
      <trkpt lat="42.51175501383841" lon="-6.469839010387659">
        <ele>1019</ele>
        <time>2018-05-22T10:25:45Z</time>
      </trkpt>
      <trkpt lat="42.511654011905193" lon="-6.469788970425725">
        <ele>1019</ele>
        <time>2018-05-22T10:25:48Z</time>
      </trkpt>
      <trkpt lat="42.511543035507202" lon="-6.469704983755946">
        <ele>1019</ele>
        <time>2018-05-22T10:25:52Z</time>
      </trkpt>
      <trkpt lat="42.511533983051777" lon="-6.469697020947933">
        <ele>1019</ele>
        <time>2018-05-22T10:25:52Z</time>
      </trkpt>
      <trkpt lat="42.511524008587003" lon="-6.469688974320889">
        <ele>1024</ele>
        <time>2018-05-22T10:25:53Z</time>
      </trkpt>
      <trkpt lat="42.511511016637087" lon="-6.469680005684495">
        <ele>1019</ele>
        <time>2018-05-22T10:25:53Z</time>
      </trkpt>
      <trkpt lat="42.511494001373649" lon="-6.46966801956296">
        <ele>1019</ele>
        <time>2018-05-22T10:25:54Z</time>
      </trkpt>
      <trkpt lat="42.511482015252113" lon="-6.469658967107534">
        <ele>1019</ele>
        <time>2018-05-22T10:25:54Z</time>
      </trkpt>
      <trkpt lat="42.511467011645436" lon="-6.469657039269805">
        <ele>1019</ele>
        <time>2018-05-22T10:25:54Z</time>
      </trkpt>
      <trkpt lat="42.511419989168644" lon="-6.469628037884831">
        <ele>1019</ele>
        <time>2018-05-22T10:25:56Z</time>
      </trkpt>
      <trkpt lat="42.511397022753954" lon="-6.469591995701194">
        <ele>1019</ele>
        <time>2018-05-22T10:25:57Z</time>
      </trkpt>
      <trkpt lat="42.511251010000706" lon="-6.46949702873826">
        <ele>1024</ele>
        <time>2018-05-22T10:26:02Z</time>
      </trkpt>
      <trkpt lat="42.511240029707551" lon="-6.469486970454454">
        <ele>1024</ele>
        <time>2018-05-22T10:26:02Z</time>
      </trkpt>
      <trkpt lat="42.511224020272493" lon="-6.469473978504539">
        <ele>1024</ele>
        <time>2018-05-22T10:26:03Z</time>
      </trkpt>
      <trkpt lat="42.511205999180675" lon="-6.4694569632411">
        <ele>1024</ele>
        <time>2018-05-22T10:26:03Z</time>
      </trkpt>
      <trkpt lat="42.511188983917236" lon="-6.469441037625074">
        <ele>1024</ele>
        <time>2018-05-22T10:26:04Z</time>
      </trkpt>
      <trkpt lat="42.51117498613894" lon="-6.46943299099803">
        <ele>1024</ele>
        <time>2018-05-22T10:26:04Z</time>
      </trkpt>
      <trkpt lat="42.511163000017405" lon="-6.469427039846778">
        <ele>1024</ele>
        <time>2018-05-22T10:26:05Z</time>
      </trkpt>
      <trkpt lat="42.511050011962652" lon="-6.469296030700207">
        <ele>1024</ele>
        <time>2018-05-22T10:26:09Z</time>
      </trkpt>
      <trkpt lat="42.510968958958983" lon="-6.469182036817074">
        <ele>1024</ele>
        <time>2018-05-22T10:26:13Z</time>
      </trkpt>
      <trkpt lat="42.510876003652811" lon="-6.469092015177012">
        <ele>1024</ele>
        <time>2018-05-22T10:26:16Z</time>
      </trkpt>
      <trkpt lat="42.510750023648143" lon="-6.468943990767002">
        <ele>1024</ele>
        <time>2018-05-22T10:26:21Z</time>
      </trkpt>
      <trkpt lat="42.510666958987713" lon="-6.468850029632449">
        <ele>1024</ele>
        <time>2018-05-22T10:26:24Z</time>
      </trkpt>
      <trkpt lat="42.510555982589722" lon="-6.468706028535962">
        <ele>1012</ele>
        <time>2018-05-22T10:26:29Z</time>
      </trkpt>
      <trkpt lat="42.510549025610089" lon="-6.468693036586046">
        <ele>1012</ele>
        <time>2018-05-22T10:26:29Z</time>
      </trkpt>
      <trkpt lat="42.510465960949659" lon="-6.468577031046152">
        <ele>1029</ele>
        <time>2018-05-22T10:26:33Z</time>
      </trkpt>
      <trkpt lat="42.510370993986726" lon="-6.468462031334639">
        <ele>1029</ele>
        <time>2018-05-22T10:26:36Z</time>
      </trkpt>
      <trkpt lat="42.510257000103593" lon="-6.468307971954346">
        <ele>1029</ele>
        <time>2018-05-22T10:26:41Z</time>
      </trkpt>
      <trkpt lat="42.510140994563699" lon="-6.468260027468205">
        <ele>1029</ele>
        <time>2018-05-22T10:26:45Z</time>
      </trkpt>
      <trkpt lat="42.509948965162039" lon="-6.468210993334651">
        <ele>1029</ele>
        <time>2018-05-22T10:26:50Z</time>
      </trkpt>
      <trkpt lat="42.509893979877234" lon="-6.468205964192748">
        <ele>1029</ele>
        <time>2018-05-22T10:26:52Z</time>
      </trkpt>
      <trkpt lat="42.509784009307623" lon="-6.468173023313284">
        <ele>1029</ele>
        <time>2018-05-22T10:26:55Z</time>
      </trkpt>
      <trkpt lat="42.509703962132335" lon="-6.468109991401434">
        <ele>1029</ele>
        <time>2018-05-22T10:26:58Z</time>
      </trkpt>
      <trkpt lat="42.509640008211136" lon="-6.468050982803106">
        <ele>1029</ele>
        <time>2018-05-22T10:27:01Z</time>
      </trkpt>
      <trkpt lat="42.509343959391117" lon="-6.46788502112031">
        <ele>1040</ele>
        <time>2018-05-22T10:27:10Z</time>
      </trkpt>
      <trkpt lat="42.509134998545051" lon="-6.467839004471898">
        <ele>1040</ele>
        <time>2018-05-22T10:27:16Z</time>
      </trkpt>
      <trkpt lat="42.508911034092307" lon="-6.467794999480248">
        <ele>1040</ele>
        <time>2018-05-22T10:27:23Z</time>
      </trkpt>
      <trkpt lat="42.508710036054254" lon="-6.467773038893938">
        <ele>1055</ele>
        <time>2018-05-22T10:27:29Z</time>
      </trkpt>
      <trkpt lat="42.508469978347421" lon="-6.467770021408796">
        <ele>1055</ele>
        <time>2018-05-22T10:27:36Z</time>
      </trkpt>
      <trkpt lat="42.508260011672974" lon="-6.467805979773402">
        <ele>1055</ele>
        <time>2018-05-22T10:27:42Z</time>
      </trkpt>
      <trkpt lat="42.508079968392849" lon="-6.467962972819805">
        <ele>1041</ele>
        <time>2018-05-22T10:27:49Z</time>
      </trkpt>
      <trkpt lat="42.507830020040274" lon="-6.468004966154695">
        <ele>1048</ele>
        <time>2018-05-22T10:27:56Z</time>
      </trkpt>
      <trkpt lat="42.507646037265658" lon="-6.467921985313296">
        <ele>1048</ele>
        <time>2018-05-22T10:28:02Z</time>
      </trkpt>
      <trkpt lat="42.50745995901525" lon="-6.467742025852203">
        <ele>1063</ele>
        <time>2018-05-22T10:28:09Z</time>
      </trkpt>
      <trkpt lat="42.50728502869606" lon="-6.467555025592446">
        <ele>1063</ele>
        <time>2018-05-22T10:28:15Z</time>
      </trkpt>
      <trkpt lat="42.507086964324117" lon="-6.467350004240871">
        <ele>1054</ele>
        <time>2018-05-22T10:28:23Z</time>
      </trkpt>
      <trkpt lat="42.506923014298081" lon="-6.467086980119348">
        <ele>1054</ele>
        <time>2018-05-22T10:28:30Z</time>
      </trkpt>
      <trkpt lat="42.506886972114444" lon="-6.467024032026529">
        <ele>1071</ele>
        <time>2018-05-22T10:28:32Z</time>
      </trkpt>
      <trkpt lat="42.506852019578218" lon="-6.466974997892976">
        <ele>1071</ele>
        <time>2018-05-22T10:28:33Z</time>
      </trkpt>
      <trkpt lat="42.50677197240293" lon="-6.466787997633219">
        <ele>1071</ele>
        <time>2018-05-22T10:28:38Z</time>
      </trkpt>
      <trkpt lat="42.506670970469713" lon="-6.466564033180475">
        <ele>1071</ele>
        <time>2018-05-22T10:28:44Z</time>
      </trkpt>
      <trkpt lat="42.50655303709209" lon="-6.466344008222222">
        <ele>1071</ele>
        <time>2018-05-22T10:28:50Z</time>
      </trkpt>
      <trkpt lat="42.506399983540177" lon="-6.466072015464306">
        <ele>1084</ele>
        <time>2018-05-22T10:28:57Z</time>
      </trkpt>
      <trkpt lat="42.506249025464058" lon="-6.465792981907725">
        <ele>1068</ele>
        <time>2018-05-22T10:29:05Z</time>
      </trkpt>
      <trkpt lat="42.506079040467739" lon="-6.465492993593216">
        <ele>1068</ele>
        <time>2018-05-22T10:29:13Z</time>
      </trkpt>
      <trkpt lat="42.505940990522504" lon="-6.465210020542145">
        <ele>1084</ele>
        <time>2018-05-22T10:29:21Z</time>
      </trkpt>
      <trkpt lat="42.505806041881442" lon="-6.464923024177551">
        <ele>1084</ele>
        <time>2018-05-22T10:29:28Z</time>
      </trkpt>
      <trkpt lat="42.505647037178278" lon="-6.464669974520803">
        <ele>1084</ele>
        <time>2018-05-22T10:29:35Z</time>
      </trkpt>
      <trkpt lat="42.505488032475114" lon="-6.464392030611634">
        <ele>1095</ele>
        <time>2018-05-22T10:29:43Z</time>
      </trkpt>
      <trkpt lat="42.505454001948237" lon="-6.464287005364895">
        <ele>1078</ele>
        <time>2018-05-22T10:29:46Z</time>
      </trkpt>
      <trkpt lat="42.505448972806334" lon="-6.464274013414979">
        <ele>1078</ele>
        <time>2018-05-22T10:29:46Z</time>
      </trkpt>
      <trkpt lat="42.505292985588312" lon="-6.463983999565244">
        <ele>1078</ele>
        <time>2018-05-22T10:29:54Z</time>
      </trkpt>
      <trkpt lat="42.50515996478498" lon="-6.463657021522522">
        <ele>1091</ele>
        <time>2018-05-22T10:30:02Z</time>
      </trkpt>
      <trkpt lat="42.505129035562277" lon="-6.463563982397318">
        <ele>1091</ele>
        <time>2018-05-22T10:30:04Z</time>
      </trkpt>
      <trkpt lat="42.50500800088048" lon="-6.463287966325879">
        <ele>1091</ele>
        <time>2018-05-22T10:30:11Z</time>
      </trkpt>
      <trkpt lat="42.50485997647047" lon="-6.463027959689498">
        <ele>1091</ele>
        <time>2018-05-22T10:30:18Z</time>
      </trkpt>
      <trkpt lat="42.504829969257116" lon="-6.462978003546596">
        <ele>1091</ele>
        <time>2018-05-22T10:30:20Z</time>
      </trkpt>
      <trkpt lat="42.504655038937926" lon="-6.462728977203369">
        <ele>1104</ele>
        <time>2018-05-22T10:30:27Z</time>
      </trkpt>
      <trkpt lat="42.504507014527917" lon="-6.462568966671825">
        <ele>1093</ele>
        <time>2018-05-22T10:30:33Z</time>
      </trkpt>
      <trkpt lat="42.504341974854469" lon="-6.462324969470501">
        <ele>1093</ele>
        <time>2018-05-22T10:30:40Z</time>
      </trkpt>
      <trkpt lat="42.50414801761508" lon="-6.46215196698904">
        <ele>1093</ele>
        <time>2018-05-22T10:30:47Z</time>
      </trkpt>
      <trkpt lat="42.503964034840465" lon="-6.461993968114257">
        <ele>1109</ele>
        <time>2018-05-22T10:30:53Z</time>
      </trkpt>
      <trkpt lat="42.503787009045482" lon="-6.461820965632796">
        <ele>1109</ele>
        <time>2018-05-22T10:31:00Z</time>
      </trkpt>
      <trkpt lat="42.503615012392402" lon="-6.461604963988066">
        <ele>1098</ele>
        <time>2018-05-22T10:31:07Z</time>
      </trkpt>
      <trkpt lat="42.50350303016603" lon="-6.4615030400455">
        <ele>1098</ele>
        <time>2018-05-22T10:31:11Z</time>
      </trkpt>
      <trkpt lat="42.503324998542666" lon="-6.461230963468552">
        <ele>1098</ele>
        <time>2018-05-22T10:31:19Z</time>
      </trkpt>
      <trkpt lat="42.503231037408113" lon="-6.461156029254198">
        <ele>1111</ele>
        <time>2018-05-22T10:31:22Z</time>
      </trkpt>
      <trkpt lat="42.503173034638166" lon="-6.461077993735671">
        <ele>1111</ele>
        <time>2018-05-22T10:31:24Z</time>
      </trkpt>
      <trkpt lat="42.503173034638166" lon="-6.46107598207891">
        <ele>1111</ele>
        <time>2018-05-22T10:31:24Z</time>
      </trkpt>
      <trkpt lat="42.503187032416463" lon="-6.461040023714304">
        <ele>1111</ele>
        <time>2018-05-22T10:31:25Z</time>
      </trkpt>
      <trkpt lat="42.50303003937006" lon="-6.460841959342361">
        <ele>1111</ele>
        <time>2018-05-22T10:31:32Z</time>
      </trkpt>
      <trkpt lat="42.5028380099684" lon="-6.460665017366409">
        <ele>1104</ele>
        <time>2018-05-22T10:31:39Z</time>
      </trkpt>
      <trkpt lat="42.502650003880262" lon="-6.460533002391458">
        <ele>1104</ele>
        <time>2018-05-22T10:31:45Z</time>
      </trkpt>
      <trkpt lat="42.502477001398802" lon="-6.460368968546391">
        <ele>1116</ele>
        <time>2018-05-22T10:31:51Z</time>
      </trkpt>
      <trkpt lat="42.502308022230864" lon="-6.460219016298652">
        <ele>1116</ele>
        <time>2018-05-22T10:31:57Z</time>
      </trkpt>
      <trkpt lat="42.502144994214177" lon="-6.460041990503669">
        <ele>1116</ele>
        <time>2018-05-22T10:32:03Z</time>
      </trkpt>
      <trkpt lat="42.502100989222527" lon="-6.46000100299716">
        <ele>1117</ele>
        <time>2018-05-22T10:32:05Z</time>
      </trkpt>
      <trkpt lat="42.50198096036911" lon="-6.459861025214195">
        <ele>1117</ele>
        <time>2018-05-22T10:32:10Z</time>
      </trkpt>
      <trkpt lat="42.501794965937734" lon="-6.459653992205858">
        <ele>1117</ele>
        <time>2018-05-22T10:32:17Z</time>
      </trkpt>
      <trkpt lat="42.501740986481309" lon="-6.45961401052773">
        <ele>1117</ele>
        <time>2018-05-22T10:32:19Z</time>
      </trkpt>
      <trkpt lat="42.501667980104685" lon="-6.459545027464628">
        <ele>1119</ele>
        <time>2018-05-22T10:32:21Z</time>
      </trkpt>
      <trkpt lat="42.501618023961782" lon="-6.459527006372809">
        <ele>1119</ele>
        <time>2018-05-22T10:32:23Z</time>
      </trkpt>
      <trkpt lat="42.501546023413539" lon="-6.459546033293009">
        <ele>1119</ele>
        <time>2018-05-22T10:32:25Z</time>
      </trkpt>
      <trkpt lat="42.50135600566864" lon="-6.459656003862619">
        <ele>1117</ele>
        <time>2018-05-22T10:32:31Z</time>
      </trkpt>
      <trkpt lat="42.50129196792841" lon="-6.459628008306027">
        <ele>1128</ele>
        <time>2018-05-22T10:32:33Z</time>
      </trkpt>
      <trkpt lat="42.501288028433919" lon="-6.459605041891336">
        <ele>1128</ele>
        <time>2018-05-22T10:32:34Z</time>
      </trkpt>
      <trkpt lat="42.501251986250281" lon="-6.459492975845933">
        <ele>1130</ele>
        <time>2018-05-22T10:32:37Z</time>
      </trkpt>
      <trkpt lat="42.50120697543025" lon="-6.459337994456291">
        <ele>1130</ele>
        <time>2018-05-22T10:32:40Z</time>
      </trkpt>
      <trkpt lat="42.501138998195529" lon="-6.459192987531424">
        <ele>1130</ele>
        <time>2018-05-22T10:32:44Z</time>
      </trkpt>
      <trkpt lat="42.501042019575834" lon="-6.459097014740109">
        <ele>1130</ele>
        <time>2018-05-22T10:32:47Z</time>
      </trkpt>
      <trkpt lat="42.500874968245625" lon="-6.458918983116746">
        <ele>1130</ele>
        <time>2018-05-22T10:32:54Z</time>
      </trkpt>
      <trkpt lat="42.500657960772514" lon="-6.458655958995223">
        <ele>1126</ele>
        <time>2018-05-22T10:33:02Z</time>
      </trkpt>
      <trkpt lat="42.50053801573813" lon="-6.4585380256176">
        <ele>1126</ele>
        <time>2018-05-22T10:33:07Z</time>
      </trkpt>
      <trkpt lat="42.500298041850328" lon="-6.458451021462679">
        <ele>1135</ele>
        <time>2018-05-22T10:33:14Z</time>
      </trkpt>
      <trkpt lat="42.500053960829973" lon="-6.458386983722448">
        <ele>1135</ele>
        <time>2018-05-22T10:33:21Z</time>
      </trkpt>
      <trkpt lat="42.499834019690752" lon="-6.458343984559178">
        <ele>1135</ele>
        <time>2018-05-22T10:33:28Z</time>
      </trkpt>
      <trkpt lat="42.499564038589597" lon="-6.458296040073037">
        <ele>1141</ele>
        <time>2018-05-22T10:33:36Z</time>
      </trkpt>
      <trkpt lat="42.499435963109136" lon="-6.458138041198254">
        <ele>1141</ele>
        <time>2018-05-22T10:33:41Z</time>
      </trkpt>
      <trkpt lat="42.499321969226003" lon="-6.457951962947846">
        <ele>1141</ele>
        <time>2018-05-22T10:33:46Z</time>
      </trkpt>
      <trkpt lat="42.49922901391983" lon="-6.457657003775239">
        <ele>1142</ele>
        <time>2018-05-22T10:33:53Z</time>
      </trkpt>
      <trkpt lat="42.499151984229684" lon="-6.457429016008973">
        <ele>1142</ele>
        <time>2018-05-22T10:33:59Z</time>
      </trkpt>
      <trkpt lat="42.499008988961577" lon="-6.457206979393959">
        <ele>1142</ele>
        <time>2018-05-22T10:34:05Z</time>
      </trkpt>
      <trkpt lat="42.499002031981945" lon="-6.457175966352224">
        <ele>1142</ele>
        <time>2018-05-22T10:34:06Z</time>
      </trkpt>
      <trkpt lat="42.498975964263082" lon="-6.457103965803981">
        <ele>1142</ele>
        <time>2018-05-22T10:34:08Z</time>
      </trkpt>
      <trkpt lat="42.498932965099812" lon="-6.45703699439764">
        <ele>1142</ele>
        <time>2018-05-22T10:34:10Z</time>
      </trkpt>
      <trkpt lat="42.498898012563586" lon="-6.457025008276105">
        <ele>1142</ele>
        <time>2018-05-22T10:34:11Z</time>
      </trkpt>
      <trkpt lat="42.49892801977694" lon="-6.457068007439375">
        <ele>1142</ele>
        <time>2018-05-22T10:34:12Z</time>
      </trkpt>
      <trkpt lat="42.498858030885458" lon="-6.456975974142551">
        <ele>1142</ele>
        <time>2018-05-22T10:34:15Z</time>
      </trkpt>
      <trkpt lat="42.498779995366931" lon="-6.456848988309503">
        <ele>1141</ele>
        <time>2018-05-22T10:34:19Z</time>
      </trkpt>
      <trkpt lat="42.498711012303829" lon="-6.456780005246401">
        <ele>1148</ele>
        <time>2018-05-22T10:34:21Z</time>
      </trkpt>
      <trkpt lat="42.498686034232378" lon="-6.456753015518189">
        <ele>1148</ele>
        <time>2018-05-22T10:34:22Z</time>
      </trkpt>
      <trkpt lat="42.498594000935555" lon="-6.456609014421701">
        <ele>1148</ele>
        <time>2018-05-22T10:34:26Z</time>
      </trkpt>
      <trkpt lat="42.498537003993988" lon="-6.456558974459767">
        <ele>1148</ele>
        <time>2018-05-22T10:34:28Z</time>
      </trkpt>
      <trkpt lat="42.49841496348381" lon="-6.456378009170294">
        <ele>1148</ele>
        <time>2018-05-22T10:34:34Z</time>
      </trkpt>
      <trkpt lat="42.498400965705514" lon="-6.456358982250094">
        <ele>1148</ele>
        <time>2018-05-22T10:34:34Z</time>
      </trkpt>
      <trkpt lat="42.498256964609027" lon="-6.45617600530386">
        <ele>1148</ele>
        <time>2018-05-22T10:34:40Z</time>
      </trkpt>
      <trkpt lat="42.498189993202686" lon="-6.4560910128057">
        <ele>1157</ele>
        <time>2018-05-22T10:34:43Z</time>
      </trkpt>
      <trkpt lat="42.498142970725894" lon="-6.456035021692514">
        <ele>1157</ele>
        <time>2018-05-22T10:34:45Z</time>
      </trkpt>
      <trkpt lat="42.498014979064465" lon="-6.456028986722231">
        <ele>1157</ele>
        <time>2018-05-22T10:34:48Z</time>
      </trkpt>
      <trkpt lat="42.497905008494854" lon="-6.456001996994019">
        <ele>1161</ele>
        <time>2018-05-22T10:34:52Z</time>
      </trkpt>
      <trkpt lat="42.497879024595022" lon="-6.456043990328908">
        <ele>1161</ele>
        <time>2018-05-22T10:34:53Z</time>
      </trkpt>
      <trkpt lat="42.497842982411385" lon="-6.455975007265806">
        <ele>1161</ele>
        <time>2018-05-22T10:34:55Z</time>
      </trkpt>
      <trkpt lat="42.497849017381668" lon="-6.455957992002368">
        <ele>1161</ele>
        <time>2018-05-22T10:34:55Z</time>
      </trkpt>
      <trkpt lat="42.497867038473487" lon="-6.455894038081169">
        <ele>1161</ele>
        <time>2018-05-22T10:34:57Z</time>
      </trkpt>
      <trkpt lat="42.497867038473487" lon="-6.455895965918899">
        <ele>1161</ele>
        <time>2018-05-22T10:34:57Z</time>
      </trkpt>
      <trkpt lat="42.497844994068146" lon="-6.455931002274156">
        <ele>1161</ele>
        <time>2018-05-22T10:34:58Z</time>
      </trkpt>
      <trkpt lat="42.497779028490186" lon="-6.455980036407709">
        <ele>1161</ele>
        <time>2018-05-22T10:35:00Z</time>
      </trkpt>
      <trkpt lat="42.497757989913225" lon="-6.455966960638762">
        <ele>1161</ele>
        <time>2018-05-22T10:35:01Z</time>
      </trkpt>
      <trkpt lat="42.497691018506885" lon="-6.455893032252789">
        <ele>1161</ele>
        <time>2018-05-22T10:35:03Z</time>
      </trkpt>
      <trkpt lat="42.497590016573668" lon="-6.455735033378005">
        <ele>1161</ele>
        <time>2018-05-22T10:35:08Z</time>
      </trkpt>
      <trkpt lat="42.497455989941955" lon="-6.455705026164651">
        <ele>1161</ele>
        <time>2018-05-22T10:35:12Z</time>
      </trkpt>
      <trkpt lat="42.49740201048553" lon="-6.455675018951297">
        <ele>1161</ele>
        <time>2018-05-22T10:35:14Z</time>
      </trkpt>
      <trkpt lat="42.497326992452145" lon="-6.455692034214735">
        <ele>1161</ele>
        <time>2018-05-22T10:35:16Z</time>
      </trkpt>
      <trkpt lat="42.497233031317592" lon="-6.455602012574673">
        <ele>1161</ele>
        <time>2018-05-22T10:35:20Z</time>
      </trkpt>
      <trkpt lat="42.497073020786047" lon="-6.455429010093212">
        <ele>1153</ele>
        <time>2018-05-22T10:35:26Z</time>
      </trkpt>
      <trkpt lat="42.496963972225785" lon="-6.455318033695221">
        <ele>1153</ele>
        <time>2018-05-22T10:35:30Z</time>
      </trkpt>
      <trkpt lat="42.496963972225785" lon="-6.45523396320641">
        <ele>1172</ele>
        <time>2018-05-22T10:35:32Z</time>
      </trkpt>
      <trkpt lat="42.497007977217436" lon="-6.455228012055159">
        <ele>1172</ele>
        <time>2018-05-22T10:35:33Z</time>
      </trkpt>
      <trkpt lat="42.497016023844481" lon="-6.455232035368681">
        <ele>1172</ele>
        <time>2018-05-22T10:35:33Z</time>
      </trkpt>
      <trkpt lat="42.497132029384375" lon="-6.455229017883539">
        <ele>1182</ele>
        <time>2018-05-22T10:35:37Z</time>
      </trkpt>
      <trkpt lat="42.497216016054153" lon="-6.455244021490216">
        <ele>1182</ele>
        <time>2018-05-22T10:35:39Z</time>
      </trkpt>
      <trkpt lat="42.497268989682198" lon="-6.455236980691552">
        <ele>1182</ele>
        <time>2018-05-22T10:35:41Z</time>
      </trkpt>
      <trkpt lat="42.497384995222092" lon="-6.455214014276862">
        <ele>1182</ele>
        <time>2018-05-22T10:35:44Z</time>
      </trkpt>
      <trkpt lat="42.497397987172008" lon="-6.45518803037703">
        <ele>1182</ele>
        <time>2018-05-22T10:35:45Z</time>
      </trkpt>
      <trkpt lat="42.497404022142291" lon="-6.455126004293561">
        <ele>1182</ele>
        <time>2018-05-22T10:35:46Z</time>
      </trkpt>
      <trkpt lat="42.497410979121923" lon="-6.455084010958672">
        <ele>1182</ele>
        <time>2018-05-22T10:35:47Z</time>
      </trkpt>
      <trkpt lat="42.497405027970672" lon="-6.455057021230459">
        <ele>1182</ele>
        <time>2018-05-22T10:35:48Z</time>
      </trkpt>
      <trkpt lat="42.497298996895552" lon="-6.454940009862185">
        <ele>1182</ele>
        <time>2018-05-22T10:35:52Z</time>
      </trkpt>
      <trkpt lat="42.49729597941041" lon="-6.454898016527295">
        <ele>1182</ele>
        <time>2018-05-22T10:35:53Z</time>
      </trkpt>
      <trkpt lat="42.497264966368675" lon="-6.454848982393742">
        <ele>1182</ele>
        <time>2018-05-22T10:35:54Z</time>
      </trkpt>
      <trkpt lat="42.497258009389043" lon="-6.454840013757348">
        <ele>1182</ele>
        <time>2018-05-22T10:35:55Z</time>
      </trkpt>
      <trkpt lat="42.497190032154322" lon="-6.454682014882565">
        <ele>1182</ele>
        <time>2018-05-22T10:35:59Z</time>
      </trkpt>
      <trkpt lat="42.497116019949317" lon="-6.454499959945679">
        <ele>1172</ele>
        <time>2018-05-22T10:36:03Z</time>
      </trkpt>
      <trkpt lat="42.497050976380706" lon="-6.454341961070895">
        <ele>1192</ele>
        <time>2018-05-22T10:36:07Z</time>
      </trkpt>
      <trkpt lat="42.497020969167352" lon="-6.454255040735006">
        <ele>1192</ele>
        <time>2018-05-22T10:36:09Z</time>
      </trkpt>
      <trkpt lat="42.496986016631126" lon="-6.454043984413147">
        <ele>1192</ele>
        <time>2018-05-22T10:36:14Z</time>
      </trkpt>
      <trkpt lat="42.496975036337972" lon="-6.453965026885271">
        <ele>1192</ele>
        <time>2018-05-22T10:36:16Z</time>
      </trkpt>
      <trkpt lat="42.497000014409423" lon="-6.453782971948385">
        <ele>1192</ele>
        <time>2018-05-22T10:36:20Z</time>
      </trkpt>
      <trkpt lat="42.496986016631126" lon="-6.453717006370425">
        <ele>1192</ele>
        <time>2018-05-22T10:36:22Z</time>
      </trkpt>
      <trkpt lat="42.496982999145985" lon="-6.453607035800815">
        <ele>1208</ele>
        <time>2018-05-22T10:36:24Z</time>
      </trkpt>
      <trkpt lat="42.496976964175701" lon="-6.453416012227535">
        <ele>1208</ele>
        <time>2018-05-22T10:36:29Z</time>
      </trkpt>
      <trkpt lat="42.496990039944649" lon="-6.453219959512353">
        <ele>1208</ele>
        <time>2018-05-22T10:36:33Z</time>
      </trkpt>
      <trkpt lat="42.497008983045816" lon="-6.453117029741406">
        <ele>1208</ele>
        <time>2018-05-22T10:36:35Z</time>
      </trkpt>
      <trkpt lat="42.497032033279538" lon="-6.452925000339747">
        <ele>1208</ele>
        <time>2018-05-22T10:36:40Z</time>
      </trkpt>
      <trkpt lat="42.497050976380706" lon="-6.452715033665299">
        <ele>1221</ele>
        <time>2018-05-22T10:36:44Z</time>
      </trkpt>
      <trkpt lat="42.497067991644144" lon="-6.452590981498361">
        <ele>1221</ele>
        <time>2018-05-22T10:36:47Z</time>
      </trkpt>
      <trkpt lat="42.497094981372356" lon="-6.45237397402525">
        <ele>1221</ele>
        <time>2018-05-22T10:36:52Z</time>
      </trkpt>
      <trkpt lat="42.49710101634264" lon="-6.452114973217249">
        <ele>1221</ele>
        <time>2018-05-22T10:36:58Z</time>
      </trkpt>
      <trkpt lat="42.497087018564343" lon="-6.451911041513085">
        <ele>1234</ele>
        <time>2018-05-22T10:37:03Z</time>
      </trkpt>
      <trkpt lat="42.497044019401073" lon="-6.451671989634633">
        <ele>1234</ele>
        <time>2018-05-22T10:37:08Z</time>
      </trkpt>
      <trkpt lat="42.497035972774029" lon="-6.451655980199575">
        <ele>1234</ele>
        <time>2018-05-22T10:37:08Z</time>
      </trkpt>
      <trkpt lat="42.497027004137635" lon="-6.451638964936137">
        <ele>1234</ele>
        <time>2018-05-22T10:37:09Z</time>
      </trkpt>
      <trkpt lat="42.497017029672861" lon="-6.451622033491731">
        <ele>1234</ele>
        <time>2018-05-22T10:37:09Z</time>
      </trkpt>
      <trkpt lat="42.497008983045816" lon="-6.451609041541815">
        <ele>1234</ele>
        <time>2018-05-22T10:37:10Z</time>
      </trkpt>
      <trkpt lat="42.496984004974365" lon="-6.45151499658823">
        <ele>1234</ele>
        <time>2018-05-22T10:37:12Z</time>
      </trkpt>
      <trkpt lat="42.49695198610425" lon="-6.451372001320124">
        <ele>1234</ele>
        <time>2018-05-22T10:37:15Z</time>
      </trkpt>
      <trkpt lat="42.496931031346321" lon="-6.451131021603942">
        <ele>1242</ele>
        <time>2018-05-22T10:37:20Z</time>
      </trkpt>
      <trkpt lat="42.496915021911263" lon="-6.451017027720809">
        <ele>1242</ele>
        <time>2018-05-22T10:37:23Z</time>
      </trkpt>
      <trkpt lat="42.496894989162683" lon="-6.450772024691105">
        <ele>1242</ele>
        <time>2018-05-22T10:37:28Z</time>
      </trkpt>
      <trkpt lat="42.496904963627458" lon="-6.450675968080759">
        <ele>1242</ele>
        <time>2018-05-22T10:37:31Z</time>
      </trkpt>
      <trkpt lat="42.496904041618109" lon="-6.450343960896134">
        <ele>1248</ele>
        <time>2018-05-22T10:37:38Z</time>
      </trkpt>
      <trkpt lat="42.496912004426122" lon="-6.45018202252686">
        <ele>1248</ele>
        <time>2018-05-22T10:37:41Z</time>
      </trkpt>
      <trkpt lat="42.496913010254502" lon="-6.449939031153917">
        <ele>1248</ele>
        <time>2018-05-22T10:37:47Z</time>
      </trkpt>
      <trkpt lat="42.496915021911263" lon="-6.449927967041731">
        <ele>1248</ele>
        <time>2018-05-22T10:37:47Z</time>
      </trkpt>
      <trkpt lat="42.496915021911263" lon="-6.449912963435054">
        <ele>1248</ele>
        <time>2018-05-22T10:37:47Z</time>
      </trkpt>
      <trkpt lat="42.496912004426122" lon="-6.44968799315393">
        <ele>1248</ele>
        <time>2018-05-22T10:37:52Z</time>
      </trkpt>
      <trkpt lat="42.496915021911263" lon="-6.449673995375633">
        <ele>1248</ele>
        <time>2018-05-22T10:37:52Z</time>
      </trkpt>
      <trkpt lat="42.496918039396405" lon="-6.449656980112195">
        <ele>1248</ele>
        <time>2018-05-22T10:37:53Z</time>
      </trkpt>
      <trkpt lat="42.496920973062515" lon="-6.449634013697505">
        <ele>1248</ele>
        <time>2018-05-22T10:37:53Z</time>
      </trkpt>
      <trkpt lat="42.496917033568025" lon="-6.449612975120544">
        <ele>1248</ele>
        <time>2018-05-22T10:37:54Z</time>
      </trkpt>
      <trkpt lat="42.496909992769361" lon="-6.449589002877474">
        <ele>1248</ele>
        <time>2018-05-22T10:37:54Z</time>
      </trkpt>
      <trkpt lat="42.496905969455838" lon="-6.449564024806023">
        <ele>1248</ele>
        <time>2018-05-22T10:37:55Z</time>
      </trkpt>
      <trkpt lat="42.496921978890896" lon="-6.449461011216044">
        <ele>1251</ele>
        <time>2018-05-22T10:37:57Z</time>
      </trkpt>
      <trkpt lat="42.49695198610425" lon="-6.449245009571314">
        <ele>1251</ele>
        <time>2018-05-22T10:38:02Z</time>
      </trkpt>
      <trkpt lat="42.496927008032799" lon="-6.448962036520243">
        <ele>1271</ele>
        <time>2018-05-22T10:38:08Z</time>
      </trkpt>
      <trkpt lat="42.496906975284219" lon="-6.448823986575007">
        <ele>1251</ele>
        <time>2018-05-22T10:38:11Z</time>
      </trkpt>
      <trkpt lat="42.496875040233135" lon="-6.448623994365335">
        <ele>1258</ele>
        <time>2018-05-22T10:38:16Z</time>
      </trkpt>
      <trkpt lat="42.496841009706259" lon="-6.448325011879206">
        <ele>1258</ele>
        <time>2018-05-22T10:38:22Z</time>
      </trkpt>
      <trkpt lat="42.496816031634808" lon="-6.448047989979386">
        <ele>1258</ele>
        <time>2018-05-22T10:38:29Z</time>
      </trkpt>
      <trkpt lat="42.496776971966028" lon="-6.447766022756696">
        <ele>1264</ele>
        <time>2018-05-22T10:38:35Z</time>
      </trkpt>
      <trkpt lat="42.496741013601422" lon="-6.447529988363385">
        <ele>1264</ele>
        <time>2018-05-22T10:38:40Z</time>
      </trkpt>
      <trkpt lat="42.496717963367701" lon="-6.447264030575752">
        <ele>1264</ele>
        <time>2018-05-22T10:38:46Z</time>
      </trkpt>
      <trkpt lat="42.496701031923294" lon="-6.447188006713986">
        <ele>1264</ele>
        <time>2018-05-22T10:38:48Z</time>
      </trkpt>
      <trkpt lat="42.496657026931643" lon="-6.446994971483946">
        <ele>1264</ele>
        <time>2018-05-22T10:38:52Z</time>
      </trkpt>
      <trkpt lat="42.496604975312948" lon="-6.446814006194472">
        <ele>1271</ele>
        <time>2018-05-22T10:38:56Z</time>
      </trkpt>
      <trkpt lat="42.496588965877891" lon="-6.446678973734379">
        <ele>1271</ele>
        <time>2018-05-22T10:38:59Z</time>
      </trkpt>
      <trkpt lat="42.496573040261865" lon="-6.446518041193485">
        <ele>1271</ele>
        <time>2018-05-22T10:39:03Z</time>
      </trkpt>
      <trkpt lat="42.49654202722013" lon="-6.446302961558104">
        <ele>1271</ele>
        <time>2018-05-22T10:39:08Z</time>
      </trkpt>
      <trkpt lat="42.496550995856524" lon="-6.446111015975475">
        <ele>1280</ele>
        <time>2018-05-22T10:39:12Z</time>
      </trkpt>
      <trkpt lat="42.496530963107944" lon="-6.446045972406864">
        <ele>1280</ele>
        <time>2018-05-22T10:39:14Z</time>
      </trkpt>
      <trkpt lat="42.496531968936324" lon="-6.446003979071975">
        <ele>1280</ele>
        <time>2018-05-22T10:39:14Z</time>
      </trkpt>
      <trkpt lat="42.496547978371382" lon="-6.445866012945771">
        <ele>1280</ele>
        <time>2018-05-22T10:39:18Z</time>
      </trkpt>
      <trkpt lat="42.496518976986408" lon="-6.44577800296247">
        <ele>1280</ele>
        <time>2018-05-22T10:39:20Z</time>
      </trkpt>
      <trkpt lat="42.496480001136661" lon="-6.44564799964428">
        <ele>1280</ele>
        <time>2018-05-22T10:39:23Z</time>
      </trkpt>
      <trkpt lat="42.496468015015125" lon="-6.445511039346457">
        <ele>1280</ele>
        <time>2018-05-22T10:39:26Z</time>
      </trkpt>
      <trkpt lat="42.49639299698174" lon="-6.445264024659991">
        <ele>1287</ele>
        <time>2018-05-22T10:39:32Z</time>
      </trkpt>
      <trkpt lat="42.49634999781847" lon="-6.445180037990212">
        <ele>1287</ele>
        <time>2018-05-22T10:39:34Z</time>
      </trkpt>
      <trkpt lat="42.496310016140342" lon="-6.445066966116428">
        <ele>1287</ele>
        <time>2018-05-22T10:39:37Z</time>
      </trkpt>
      <trkpt lat="42.496260982006788" lon="-6.444944003596902">
        <ele>1288</ele>
        <time>2018-05-22T10:39:40Z</time>
      </trkpt>
      <trkpt lat="42.496223011985421" lon="-6.444856999441981">
        <ele>1288</ele>
        <time>2018-05-22T10:39:42Z</time>
      </trkpt>
      <trkpt lat="42.496205996721983" lon="-6.444820035248995">
        <ele>1288</ele>
        <time>2018-05-22T10:39:43Z</time>
      </trkpt>
      <trkpt lat="42.496187975630164" lon="-6.444798996672034">
        <ele>1288</ele>
        <time>2018-05-22T10:39:44Z</time>
      </trkpt>
      <trkpt lat="42.496153023093939" lon="-6.444728001952171">
        <ele>1288</ele>
        <time>2018-05-22T10:39:46Z</time>
      </trkpt>
      <trkpt lat="42.496063001453876" lon="-6.444543013349176">
        <ele>1288</ele>
        <time>2018-05-22T10:39:50Z</time>
      </trkpt>
      <trkpt lat="42.495983960106969" lon="-6.444306978955865">
        <ele>1301</ele>
        <time>2018-05-22T10:39:56Z</time>
      </trkpt>
      <trkpt lat="42.495891004800797" lon="-6.444098018109798">
        <ele>1301</ele>
        <time>2018-05-22T10:40:02Z</time>
      </trkpt>
      <trkpt lat="42.495827972888947" lon="-6.444000033661723">
        <ele>1301</ele>
        <time>2018-05-22T10:40:04Z</time>
      </trkpt>
      <trkpt lat="42.495811963453889" lon="-6.443967008963227">
        <ele>1301</ele>
        <time>2018-05-22T10:40:05Z</time>
      </trkpt>
      <trkpt lat="42.495694030076265" lon="-6.443696022033691">
        <ele>1301</ele>
        <time>2018-05-22T10:40:12Z</time>
      </trkpt>
      <trkpt lat="42.495625969022512" lon="-6.443541962653399">
        <ele>1311</ele>
        <time>2018-05-22T10:40:16Z</time>
      </trkpt>
      <trkpt lat="42.495567966252565" lon="-6.443338030949235">
        <ele>1311</ele>
        <time>2018-05-22T10:40:21Z</time>
      </trkpt>
      <trkpt lat="42.495498983189464" lon="-6.443179026246071">
        <ele>1311</ele>
        <time>2018-05-22T10:40:25Z</time>
      </trkpt>
      <trkpt lat="42.495399992913008" lon="-6.442951038479805">
        <ele>1310</ele>
        <time>2018-05-22T10:40:31Z</time>
      </trkpt>
      <trkpt lat="42.495299996808171" lon="-6.442681979387999">
        <ele>1320</ele>
        <time>2018-05-22T10:40:38Z</time>
      </trkpt>
      <trkpt lat="42.495174016803503" lon="-6.442571002990007">
        <ele>1320</ele>
        <time>2018-05-22T10:40:42Z</time>
      </trkpt>
      <trkpt lat="42.495120037347078" lon="-6.442514006048441">
        <ele>1320</ele>
        <time>2018-05-22T10:40:44Z</time>
      </trkpt>
      <trkpt lat="42.494956003502011" lon="-6.442343015223742">
        <ele>1320</ele>
        <time>2018-05-22T10:40:50Z</time>
      </trkpt>
      <trkpt lat="42.494896994903684" lon="-6.442324994131923">
        <ele>1320</ele>
        <time>2018-05-22T10:40:52Z</time>
      </trkpt>
      <trkpt lat="42.4947389960289" lon="-6.442223992198706">
        <ele>1320</ele>
        <time>2018-05-22T10:40:57Z</time>
      </trkpt>
      <trkpt lat="42.494727009907365" lon="-6.442218041047454">
        <ele>1320</ele>
        <time>2018-05-22T10:40:58Z</time>
      </trkpt>
      <trkpt lat="42.494542021304369" lon="-6.44210304133594">
        <ele>1326</ele>
        <time>2018-05-22T10:41:04Z</time>
      </trkpt>
      <trkpt lat="42.494516959413886" lon="-6.44208300858736">
        <ele>1326</ele>
        <time>2018-05-22T10:41:05Z</time>
      </trkpt>
      <trkpt lat="42.494426015764475" lon="-6.442060964182019">
        <ele>1326</ele>
        <time>2018-05-22T10:41:07Z</time>
      </trkpt>
      <trkpt lat="42.494412017986178" lon="-6.442046966403723">
        <ele>1326</ele>
        <time>2018-05-22T10:41:08Z</time>
      </trkpt>
      <trkpt lat="42.49428603798151" lon="-6.441979994997382">
        <ele>1342</ele>
        <time>2018-05-22T10:41:12Z</time>
      </trkpt>
      <trkpt lat="42.494153017178178" lon="-6.441940013319254">
        <ele>1342</ele>
        <time>2018-05-22T10:41:16Z</time>
      </trkpt>
      <trkpt lat="42.493958976119757" lon="-6.441876981407404">
        <ele>1342</ele>
        <time>2018-05-22T10:41:22Z</time>
      </trkpt>
      <trkpt lat="42.493916982784867" lon="-6.44186700694263">
        <ele>1342</ele>
        <time>2018-05-22T10:41:23Z</time>
      </trkpt>
      <trkpt lat="42.493811035528779" lon="-6.441821996122599">
        <ele>1342</ele>
        <time>2018-05-22T10:41:27Z</time>
      </trkpt>
      <trkpt lat="42.493740962818265" lon="-6.441783020272851">
        <ele>1354</ele>
        <time>2018-05-22T10:41:29Z</time>
      </trkpt>
      <trkpt lat="42.493711039423943" lon="-6.441794000566006">
        <ele>1354</ele>
        <time>2018-05-22T10:41:30Z</time>
      </trkpt>
      <trkpt lat="42.493648007512093" lon="-6.441769022494555">
        <ele>1354</ele>
        <time>2018-05-22T10:41:32Z</time>
      </trkpt>
      <trkpt lat="42.493466958403587" lon="-6.441711019724608">
        <ele>1354</ele>
        <time>2018-05-22T10:41:37Z</time>
      </trkpt>
      <trkpt lat="42.493275012820959" lon="-6.441598031669855">
        <ele>1354</ele>
        <time>2018-05-22T10:41:44Z</time>
      </trkpt>
      <trkpt lat="42.493115002289414" lon="-6.441471967846155">
        <ele>1354</ele>
        <time>2018-05-22T10:41:49Z</time>
      </trkpt>
      <trkpt lat="42.492987010627985" lon="-6.441335007548332">
        <ele>1354</ele>
        <time>2018-05-22T10:41:54Z</time>
      </trkpt>
      <trkpt lat="42.492878967896104" lon="-6.441174997016788">
        <ele>1379</ele>
        <time>2018-05-22T10:41:59Z</time>
      </trkpt>
      <trkpt lat="42.492764974012971" lon="-6.441051028668881">
        <ele>1379</ele>
        <time>2018-05-22T10:42:03Z</time>
      </trkpt>
      <trkpt lat="42.492627007886767" lon="-6.440938962623477">
        <ele>1379</ele>
        <time>2018-05-22T10:42:08Z</time>
      </trkpt>
      <trkpt lat="42.492563975974917" lon="-6.44085799343884">
        <ele>1379</ele>
        <time>2018-05-22T10:42:11Z</time>
      </trkpt>
      <trkpt lat="42.492475965991616" lon="-6.440780041739345">
        <ele>1379</ele>
        <time>2018-05-22T10:42:14Z</time>
      </trkpt>
      <trkpt lat="42.492371024563909" lon="-6.440716003999114">
        <ele>1379</ele>
        <time>2018-05-22T10:42:17Z</time>
      </trkpt>
      <trkpt lat="42.492321990430355" lon="-6.44070602953434">
        <ele>1379</ele>
        <time>2018-05-22T10:42:19Z</time>
      </trkpt>
      <trkpt lat="42.492284020408988" lon="-6.440670993179083">
        <ele>1379</ele>
        <time>2018-05-22T10:42:20Z</time>
      </trkpt>
      <trkpt lat="42.492130966857076" lon="-6.440582983195782">
        <ele>1379</ele>
        <time>2018-05-22T10:42:25Z</time>
      </trkpt>
      <trkpt lat="42.491982020437717" lon="-6.440489022061229">
        <ele>1382</ele>
        <time>2018-05-22T10:42:30Z</time>
      </trkpt>
      <trkpt lat="42.491885041818023" lon="-6.440389025956392">
        <ele>1382</ele>
        <time>2018-05-22T10:42:34Z</time>
      </trkpt>
      <trkpt lat="42.491760989651084" lon="-6.440304033458233">
        <ele>1396</ele>
        <time>2018-05-22T10:42:38Z</time>
      </trkpt>
      <trkpt lat="42.491609025746584" lon="-6.440085014328361">
        <ele>1396</ele>
        <time>2018-05-22T10:42:45Z</time>
      </trkpt>
      <trkpt lat="42.491469969972968" lon="-6.439929027110338">
        <ele>1396</ele>
        <time>2018-05-22T10:42:50Z</time>
      </trkpt>
      <trkpt lat="42.491425964981318" lon="-6.439859960228205">
        <ele>1396</ele>
        <time>2018-05-22T10:42:52Z</time>
      </trkpt>
      <trkpt lat="42.491342984139919" lon="-6.439666002988815">
        <ele>1396</ele>
        <time>2018-05-22T10:42:57Z</time>
      </trkpt>
      <trkpt lat="42.49123795889318" lon="-6.439317986369133">
        <ele>1385</ele>
        <time>2018-05-22T10:43:05Z</time>
      </trkpt>
      <trkpt lat="42.491142991930246" lon="-6.439014980569482">
        <ele>1385</ele>
        <time>2018-05-22T10:43:12Z</time>
      </trkpt>
      <trkpt lat="42.491065040230751" lon="-6.438728990033269">
        <ele>1385</ele>
        <time>2018-05-22T10:43:19Z</time>
      </trkpt>
      <trkpt lat="42.491032015532255" lon="-6.438444005325437">
        <ele>1389</ele>
        <time>2018-05-22T10:43:25Z</time>
      </trkpt>
      <trkpt lat="42.491022041067481" lon="-6.438392037525773">
        <ele>1389</ele>
        <time>2018-05-22T10:43:26Z</time>
      </trkpt>
      <trkpt lat="42.491022041067481" lon="-6.438350966200233">
        <ele>1389</ele>
        <time>2018-05-22T10:43:27Z</time>
      </trkpt>
      <trkpt lat="42.49102296307683" lon="-6.438205959275365">
        <ele>1389</ele>
        <time>2018-05-22T10:43:30Z</time>
      </trkpt>
      <trkpt lat="42.491028998047113" lon="-6.438177963718772">
        <ele>1389</ele>
        <time>2018-05-22T10:43:31Z</time>
      </trkpt>
      <trkpt lat="42.491019023582339" lon="-6.438088025897741">
        <ele>1389</ele>
        <time>2018-05-22T10:43:33Z</time>
      </trkpt>
      <trkpt lat="42.491078032180667" lon="-6.437758030369878">
        <ele>1390</ele>
        <time>2018-05-22T10:43:41Z</time>
      </trkpt>
      <trkpt lat="42.491178028285503" lon="-6.437409007921815">
        <ele>1390</ele>
        <time>2018-05-22T10:43:49Z</time>
      </trkpt>
      <trkpt lat="42.491177022457123" lon="-6.437113964930177">
        <ele>1390</ele>
        <time>2018-05-22T10:43:55Z</time>
      </trkpt>
      <trkpt lat="42.491208035498857" lon="-6.436777012422681">
        <ele>1393</ele>
        <time>2018-05-22T10:44:03Z</time>
      </trkpt>
      <trkpt lat="42.49123603105545" lon="-6.436442993581295">
        <ele>1393</ele>
        <time>2018-05-22T10:44:10Z</time>
      </trkpt>
      <trkpt lat="42.491295039653778" lon="-6.436021970584989">
        <ele>1396</ele>
        <time>2018-05-22T10:44:19Z</time>
      </trkpt>
      <trkpt lat="42.491342984139919" lon="-6.435689041391015">
        <ele>1411</ele>
        <time>2018-05-22T10:44:27Z</time>
      </trkpt>
      <trkpt lat="42.491406016051769" lon="-6.435412019491196">
        <ele>1411</ele>
        <time>2018-05-22T10:44:33Z</time>
      </trkpt>
      <trkpt lat="42.4914510268718" lon="-6.435117982327938">
        <ele>1410</ele>
        <time>2018-05-22T10:44:40Z</time>
      </trkpt>
      <trkpt lat="42.491461001336575" lon="-6.435023015365005">
        <ele>1410</ele>
        <time>2018-05-22T10:44:42Z</time>
      </trkpt>
      <trkpt lat="42.491482039913535" lon="-6.434794021770358">
        <ele>1410</ele>
        <time>2018-05-22T10:44:47Z</time>
      </trkpt>
      <trkpt lat="42.491523027420044" lon="-6.434524962678552">
        <ele>1410</ele>
        <time>2018-05-22T10:44:53Z</time>
      </trkpt>
      <trkpt lat="42.491525039076805" lon="-6.43449897877872">
        <ele>1410</ele>
        <time>2018-05-22T10:44:53Z</time>
      </trkpt>
      <trkpt lat="42.491556974127889" lon="-6.434225980192423">
        <ele>1410</ele>
        <time>2018-05-22T10:44:59Z</time>
      </trkpt>
      <trkpt lat="42.491598967462778" lon="-6.433885004371405">
        <ele>1410</ele>
        <time>2018-05-22T10:45:07Z</time>
      </trkpt>
      <trkpt lat="42.491631992161274" lon="-6.43370496109128">
        <ele>1410</ele>
        <time>2018-05-22T10:45:11Z</time>
      </trkpt>
      <trkpt lat="42.491677002981305" lon="-6.433457024395466">
        <ele>1406</ele>
        <time>2018-05-22T10:45:17Z</time>
      </trkpt>
      <trkpt lat="42.491697035729885" lon="-6.433223001658917">
        <ele>1406</ele>
        <time>2018-05-22T10:45:22Z</time>
      </trkpt>
      <trkpt lat="42.491724025458097" lon="-6.432952014729381">
        <ele>1406</ele>
        <time>2018-05-22T10:45:28Z</time>
      </trkpt>
      <trkpt lat="42.491764007136226" lon="-6.432666024193168">
        <ele>1407</ele>
        <time>2018-05-22T10:45:34Z</time>
      </trkpt>
      <trkpt lat="42.491787979379296" lon="-6.432386990636587">
        <ele>1407</ele>
        <time>2018-05-22T10:45:40Z</time>
      </trkpt>
      <trkpt lat="42.491833996027708" lon="-6.432114997878671">
        <ele>1407</ele>
        <time>2018-05-22T10:45:46Z</time>
      </trkpt>
      <trkpt lat="42.491853022947907" lon="-6.431998992338777">
        <ele>1412</ele>
        <time>2018-05-22T10:45:49Z</time>
      </trkpt>
      <trkpt lat="42.491854028776288" lon="-6.43198499456048">
        <ele>1412</ele>
        <time>2018-05-22T10:45:49Z</time>
      </trkpt>
      <trkpt lat="42.491856040433049" lon="-6.431968985125423">
        <ele>1412</ele>
        <time>2018-05-22T10:45:49Z</time>
      </trkpt>
      <trkpt lat="42.491856040433049" lon="-6.431949036195874">
        <ele>1412</ele>
        <time>2018-05-22T10:45:50Z</time>
      </trkpt>
      <trkpt lat="42.491858974099159" lon="-6.431780979037285">
        <ele>1412</ele>
        <time>2018-05-22T10:45:54Z</time>
      </trkpt>
      <trkpt lat="42.491858974099159" lon="-6.431765975430608">
        <ele>1412</ele>
        <time>2018-05-22T10:45:54Z</time>
      </trkpt>
      <trkpt lat="42.491856040433049" lon="-6.431690035387874">
        <ele>1412</ele>
        <time>2018-05-22T10:45:56Z</time>
      </trkpt>
      <trkpt lat="42.491856962442398" lon="-6.431662039831281">
        <ele>1412</ele>
        <time>2018-05-22T10:45:56Z</time>
      </trkpt>
      <trkpt lat="42.491857968270779" lon="-6.431647036224604">
        <ele>1412</ele>
        <time>2018-05-22T10:45:56Z</time>
      </trkpt>
      <trkpt lat="42.49186098575592" lon="-6.431632032617927">
        <ele>1412</ele>
        <time>2018-05-22T10:45:57Z</time>
      </trkpt>
      <trkpt lat="42.491864003241062" lon="-6.43161702901125">
        <ele>1412</ele>
        <time>2018-05-22T10:45:57Z</time>
      </trkpt>
      <trkpt lat="42.491866014897823" lon="-6.431601019576192">
        <ele>1412</ele>
        <time>2018-05-22T10:45:58Z</time>
      </trkpt>
      <trkpt lat="42.49186098575592" lon="-6.43153203651309">
        <ele>1412</ele>
        <time>2018-05-22T10:45:59Z</time>
      </trkpt>
      <trkpt lat="42.491856040433049" lon="-6.431521978229284">
        <ele>1412</ele>
        <time>2018-05-22T10:45:59Z</time>
      </trkpt>
      <trkpt lat="42.491844976320863" lon="-6.431452995166183">
        <ele>1412</ele>
        <time>2018-05-22T10:46:01Z</time>
      </trkpt>
      <trkpt lat="42.491845982149243" lon="-6.431437991559506">
        <ele>1412</ele>
        <time>2018-05-22T10:46:01Z</time>
      </trkpt>
      <trkpt lat="42.491843970492482" lon="-6.431422987952828">
        <ele>1412</ele>
        <time>2018-05-22T10:46:01Z</time>
      </trkpt>
      <trkpt lat="42.49183801934123" lon="-6.431406978517771">
        <ele>1412</ele>
        <time>2018-05-22T10:46:02Z</time>
      </trkpt>
      <trkpt lat="42.491833996027708" lon="-6.431393986567855">
        <ele>1412</ele>
        <time>2018-05-22T10:46:02Z</time>
      </trkpt>
      <trkpt lat="42.491827961057425" lon="-6.43129600211978">
        <ele>1412</ele>
        <time>2018-05-22T10:46:04Z</time>
      </trkpt>
      <trkpt lat="42.491770964115858" lon="-6.431040018796921">
        <ele>1420</ele>
        <time>2018-05-22T10:46:10Z</time>
      </trkpt>
      <trkpt lat="42.491768030449748" lon="-6.431025015190244">
        <ele>1420</ele>
        <time>2018-05-22T10:46:11Z</time>
      </trkpt>
      <trkpt lat="42.49175101518631" lon="-6.430972963571549">
        <ele>1420</ele>
        <time>2018-05-22T10:46:12Z</time>
      </trkpt>
      <trkpt lat="42.491746991872787" lon="-6.430959971621633">
        <ele>1420</ele>
        <time>2018-05-22T10:46:12Z</time>
      </trkpt>
      <trkpt lat="42.491741962730885" lon="-6.430946979671717">
        <ele>1420</ele>
        <time>2018-05-22T10:46:12Z</time>
      </trkpt>
      <trkpt lat="42.491704998537898" lon="-6.430794009938836">
        <ele>1420</ele>
        <time>2018-05-22T10:46:16Z</time>
      </trkpt>
      <trkpt lat="42.491701981052756" lon="-6.430778000503779">
        <ele>1420</ele>
        <time>2018-05-22T10:46:16Z</time>
      </trkpt>
      <trkpt lat="42.491698963567615" lon="-6.430765008553863">
        <ele>1420</ele>
        <time>2018-05-22T10:46:17Z</time>
      </trkpt>
      <trkpt lat="42.491696029901505" lon="-6.430751010775566">
        <ele>1420</ele>
        <time>2018-05-22T10:46:17Z</time>
      </trkpt>
      <trkpt lat="42.491692006587982" lon="-6.430739024654031">
        <ele>1420</ele>
        <time>2018-05-22T10:46:17Z</time>
      </trkpt>
      <trkpt lat="42.491675997152925" lon="-6.430680016055703">
        <ele>1420</ele>
        <time>2018-05-22T10:46:19Z</time>
      </trkpt>
      <trkpt lat="42.491627968847752" lon="-6.430445993319154">
        <ele>1420</ele>
        <time>2018-05-22T10:46:24Z</time>
      </trkpt>
      <trkpt lat="42.491611037403345" lon="-6.430359994992614">
        <ele>1428</ele>
        <time>2018-05-22T10:46:26Z</time>
      </trkpt>
      <trkpt lat="42.491609025746584" lon="-6.430342979729176">
        <ele>1428</ele>
        <time>2018-05-22T10:46:26Z</time>
      </trkpt>
      <trkpt lat="42.491607014089823" lon="-6.430324958637357">
        <ele>1428</ele>
        <time>2018-05-22T10:46:27Z</time>
      </trkpt>
      <trkpt lat="42.491603996604681" lon="-6.430305009707809">
        <ele>1428</ele>
        <time>2018-05-22T10:46:27Z</time>
      </trkpt>
      <trkpt lat="42.491603996604681" lon="-6.430279025807977">
        <ele>1428</ele>
        <time>2018-05-22T10:46:28Z</time>
      </trkpt>
      <trkpt lat="42.491552028805017" lon="-6.43011499196291">
        <ele>1428</ele>
        <time>2018-05-22T10:46:32Z</time>
      </trkpt>
      <trkpt lat="42.491482039913535" lon="-6.429907958954573">
        <ele>1428</ele>
        <time>2018-05-22T10:46:36Z</time>
      </trkpt>
      <trkpt lat="42.491467958316207" lon="-6.42988096922636">
        <ele>1428</ele>
        <time>2018-05-22T10:46:37Z</time>
      </trkpt>
      <trkpt lat="42.491424037143588" lon="-6.429697992280126">
        <ele>1428</ele>
        <time>2018-05-22T10:46:41Z</time>
      </trkpt>
      <trkpt lat="42.491404004395008" lon="-6.42966203391552">
        <ele>1428</ele>
        <time>2018-05-22T10:46:42Z</time>
      </trkpt>
      <trkpt lat="42.491371985524893" lon="-6.429499005898833">
        <ele>1437</ele>
        <time>2018-05-22T10:46:46Z</time>
      </trkpt>
      <trkpt lat="42.491318006068468" lon="-6.429310999810696">
        <ele>1437</ele>
        <time>2018-05-22T10:46:51Z</time>
      </trkpt>
      <trkpt lat="42.49128196388483" lon="-6.429203040897846">
        <ele>1430</ele>
        <time>2018-05-22T10:46:53Z</time>
      </trkpt>
      <trkpt lat="42.491267966106534" lon="-6.429143026471138">
        <ele>1430</ele>
        <time>2018-05-22T10:46:55Z</time>
      </trkpt>
      <trkpt lat="42.491263020783663" lon="-6.429129028692842">
        <ele>1430</ele>
        <time>2018-05-22T10:46:55Z</time>
      </trkpt>
      <trkpt lat="42.491190014407039" lon="-6.428930964320898">
        <ele>1430</ele>
        <time>2018-05-22T10:47:00Z</time>
      </trkpt>
      <trkpt lat="42.491181967779994" lon="-6.428864998742938">
        <ele>1430</ele>
        <time>2018-05-22T10:47:01Z</time>
      </trkpt>
      <trkpt lat="42.491121031343937" lon="-6.428714040666819">
        <ele>1440</ele>
        <time>2018-05-22T10:47:05Z</time>
      </trkpt>
      <trkpt lat="42.491090018302202" lon="-6.428580014035106">
        <ele>1440</ele>
        <time>2018-05-22T10:47:08Z</time>
      </trkpt>
      <trkpt lat="42.491008965298533" lon="-6.42839795909822">
        <ele>1440</ele>
        <time>2018-05-22T10:47:13Z</time>
      </trkpt>
      <trkpt lat="42.490950040519238" lon="-6.42830902710557">
        <ele>1440</ele>
        <time>2018-05-22T10:47:15Z</time>
      </trkpt>
      <trkpt lat="42.490861024707556" lon="-6.428273990750313">
        <ele>1440</ele>
        <time>2018-05-22T10:47:18Z</time>
      </trkpt>
      <trkpt lat="42.49082900583744" lon="-6.428254041820765">
        <ele>1440</ele>
        <time>2018-05-22T10:47:19Z</time>
      </trkpt>
      <trkpt lat="42.490682993084192" lon="-6.428119009360671">
        <ele>1440</ele>
        <time>2018-05-22T10:47:24Z</time>
      </trkpt>
      <trkpt lat="42.490586014464498" lon="-6.427991017699242">
        <ele>1440</ele>
        <time>2018-05-22T10:47:28Z</time>
      </trkpt>
      <trkpt lat="42.490474032238126" lon="-6.427888004109263">
        <ele>1454</ele>
        <time>2018-05-22T10:47:32Z</time>
      </trkpt>
      <trkpt lat="42.490330031141639" lon="-6.42773000523448">
        <ele>1454</ele>
        <time>2018-05-22T10:47:38Z</time>
      </trkpt>
      <trkpt lat="42.490147976204753" lon="-6.427533030509949">
        <ele>1454</ele>
        <time>2018-05-22T10:47:45Z</time>
      </trkpt>
      <trkpt lat="42.490139007568359" lon="-6.427486008033156">
        <ele>1454</ele>
        <time>2018-05-22T10:47:46Z</time>
      </trkpt>
      <trkpt lat="42.490112017840147" lon="-6.427448960021138">
        <ele>1454</ele>
        <time>2018-05-22T10:47:47Z</time>
      </trkpt>
      <trkpt lat="42.490001041442156" lon="-6.427301019430161">
        <ele>1454</ele>
        <time>2018-05-22T10:47:52Z</time>
      </trkpt>
      <trkpt lat="42.489886041730642" lon="-6.427144026383758">
        <ele>1454</ele>
        <time>2018-05-22T10:47:57Z</time>
      </trkpt>
      <trkpt lat="42.489781016483903" lon="-6.426989967003465">
        <ele>1454</ele>
        <time>2018-05-22T10:48:01Z</time>
      </trkpt>
      <trkpt lat="42.489747991785407" lon="-6.426920983940363">
        <ele>1461</ele>
        <time>2018-05-22T10:48:03Z</time>
      </trkpt>
      <trkpt lat="42.489659981802106" lon="-6.42672099173069">
        <ele>1461</ele>
        <time>2018-05-22T10:48:08Z</time>
      </trkpt>
      <trkpt lat="42.489642966538668" lon="-6.426672963425517">
        <ele>1461</ele>
        <time>2018-05-22T10:48:10Z</time>
      </trkpt>
      <trkpt lat="42.489584041759372" lon="-6.426490992307663">
        <ele>1472</ele>
        <time>2018-05-22T10:48:14Z</time>
      </trkpt>
      <trkpt lat="42.489511035382748" lon="-6.426295023411512">
        <ele>1472</ele>
        <time>2018-05-22T10:48:19Z</time>
      </trkpt>
      <trkpt lat="42.489441968500614" lon="-6.426156973466277">
        <ele>1472</ele>
        <time>2018-05-22T10:48:23Z</time>
      </trkpt>
      <trkpt lat="42.489386983215809" lon="-6.426015989854932">
        <ele>1480</ele>
        <time>2018-05-22T10:48:26Z</time>
      </trkpt>
      <trkpt lat="42.489342978224158" lon="-6.425906019285321">
        <ele>1480</ele>
        <time>2018-05-22T10:48:29Z</time>
      </trkpt>
      <trkpt lat="42.489310959354043" lon="-6.425740979611874">
        <ele>1480</ele>
        <time>2018-05-22T10:48:33Z</time>
      </trkpt>
      <trkpt lat="42.489247005432844" lon="-6.425548028200865">
        <ele>1480</ele>
        <time>2018-05-22T10:48:37Z</time>
      </trkpt>
      <trkpt lat="42.489235019311309" lon="-6.425486002117395">
        <ele>1480</ele>
        <time>2018-05-22T10:48:39Z</time>
      </trkpt>
      <trkpt lat="42.489229990169406" lon="-6.425469992682338">
        <ele>1480</ele>
        <time>2018-05-22T10:48:39Z</time>
      </trkpt>
      <trkpt lat="42.489176010712981" lon="-6.425274023786187">
        <ele>1481</ele>
        <time>2018-05-22T10:48:44Z</time>
      </trkpt>
      <trkpt lat="42.489091018214822" lon="-6.424962971359491">
        <ele>1481</ele>
        <time>2018-05-22T10:48:51Z</time>
      </trkpt>
      <trkpt lat="42.489036032930017" lon="-6.424641022458673">
        <ele>1481</ele>
        <time>2018-05-22T10:48:58Z</time>
      </trkpt>
      <trkpt lat="42.488935030996799" lon="-6.424470031633973">
        <ele>1485</ele>
        <time>2018-05-22T10:49:03Z</time>
      </trkpt>
      <trkpt lat="42.488913992419839" lon="-6.424385961145163">
        <ele>1485</ele>
        <time>2018-05-22T10:49:05Z</time>
      </trkpt>
      <trkpt lat="42.488876022398472" lon="-6.424284959211946">
        <ele>1485</ele>
        <time>2018-05-22T10:49:07Z</time>
      </trkpt>
      <trkpt lat="42.488825982436538" lon="-6.424111034721136">
        <ele>1485</ele>
        <time>2018-05-22T10:49:11Z</time>
      </trkpt>
      <trkpt lat="42.488810978829861" lon="-6.424051020294428">
        <ele>1485</ele>
        <time>2018-05-22T10:49:13Z</time>
      </trkpt>
      <trkpt lat="42.48880703933537" lon="-6.42394901253283">
        <ele>1485</ele>
        <time>2018-05-22T10:49:15Z</time>
      </trkpt>
      <trkpt lat="42.488868981599808" lon="-6.423618011176586">
        <ele>1491</ele>
        <time>2018-05-22T10:49:23Z</time>
      </trkpt>
      <trkpt lat="42.488912986591458" lon="-6.423330008983612">
        <ele>1491</ele>
        <time>2018-05-22T10:49:29Z</time>
      </trkpt>
      <trkpt lat="42.488902006298304" lon="-6.423084000125527">
        <ele>1491</ele>
        <time>2018-05-22T10:49:34Z</time>
      </trkpt>
      <trkpt lat="42.48885003849864" lon="-6.422791974619031">
        <ele>1499</ele>
        <time>2018-05-22T10:49:41Z</time>
      </trkpt>
      <trkpt lat="42.488759011030197" lon="-6.422471031546593">
        <ele>1488</ele>
        <time>2018-05-22T10:49:48Z</time>
      </trkpt>
      <trkpt lat="42.488729003816843" lon="-6.422378998249769">
        <ele>1504</ele>
        <time>2018-05-22T10:49:51Z</time>
      </trkpt>
      <trkpt lat="42.48872296884656" lon="-6.422334993258119">
        <ele>1488</ele>
        <time>2018-05-22T10:49:52Z</time>
      </trkpt>
      <trkpt lat="42.488717017695308" lon="-6.422320995479822">
        <ele>1488</ele>
        <time>2018-05-22T10:49:52Z</time>
      </trkpt>
      <trkpt lat="42.4886570032686" lon="-6.422082027420402">
        <ele>1488</ele>
        <time>2018-05-22T10:49:57Z</time>
      </trkpt>
      <trkpt lat="42.488647028803825" lon="-6.421955041587353">
        <ele>1497</ele>
        <time>2018-05-22T10:50:00Z</time>
      </trkpt>
      <trkpt lat="42.488608974963427" lon="-6.421770974993706">
        <ele>1497</ele>
        <time>2018-05-22T10:50:04Z</time>
      </trkpt>
      <trkpt lat="42.488590031862259" lon="-6.421572994440794">
        <ele>1497</ele>
        <time>2018-05-22T10:50:09Z</time>
      </trkpt>
      <trkpt lat="42.488518031314015" lon="-6.421330003067851">
        <ele>1497</ele>
        <time>2018-05-22T10:50:15Z</time>
      </trkpt>
      <trkpt lat="42.488484000787139" lon="-6.42124199308455">
        <ele>1497</ele>
        <time>2018-05-22T10:50:17Z</time>
      </trkpt>
      <trkpt lat="42.488468997180462" lon="-6.421180972829461">
        <ele>1504</ele>
        <time>2018-05-22T10:50:18Z</time>
      </trkpt>
      <trkpt lat="42.488436978310347" lon="-6.421089023351669">
        <ele>1504</ele>
        <time>2018-05-22T10:50:20Z</time>
      </trkpt>
      <trkpt lat="42.488423986360431" lon="-6.420995984226465">
        <ele>1504</ele>
        <time>2018-05-22T10:50:22Z</time>
      </trkpt>
      <trkpt lat="42.48841904103756" lon="-6.420932030305266">
        <ele>1504</ele>
        <time>2018-05-22T10:50:24Z</time>
      </trkpt>
      <trkpt lat="42.488359026610851" lon="-6.420657020062208">
        <ele>1504</ele>
        <time>2018-05-22T10:50:30Z</time>
      </trkpt>
      <trkpt lat="42.488349974155426" lon="-6.420355020090938">
        <ele>1507</ele>
        <time>2018-05-22T10:50:37Z</time>
      </trkpt>
      <trkpt lat="42.488408982753754" lon="-6.419950006529689">
        <ele>1507</ele>
        <time>2018-05-22T10:50:46Z</time>
      </trkpt>
      <trkpt lat="42.488476037979126" lon="-6.419609030708671">
        <ele>1507</ele>
        <time>2018-05-22T10:50:53Z</time>
      </trkpt>
      <trkpt lat="42.488544015213847" lon="-6.419296972453594">
        <ele>1501</ele>
        <time>2018-05-22T10:51:01Z</time>
      </trkpt>
      <trkpt lat="42.488673012703657" lon="-6.419043000787497">
        <ele>1501</ele>
        <time>2018-05-22T10:51:07Z</time>
      </trkpt>
      <trkpt lat="42.488827994093299" lon="-6.418885001912713">
        <ele>1516</ele>
        <time>2018-05-22T10:51:13Z</time>
      </trkpt>
      <trkpt lat="42.48897903598845" lon="-6.418710993602872">
        <ele>1504</ele>
        <time>2018-05-22T10:51:19Z</time>
      </trkpt>
      <trkpt lat="42.489144997671247" lon="-6.418572021648288">
        <ele>1504</ele>
        <time>2018-05-22T10:51:25Z</time>
      </trkpt>
      <trkpt lat="42.489330992102623" lon="-6.418458027765155">
        <ele>1504</ele>
        <time>2018-05-22T10:51:31Z</time>
      </trkpt>
      <trkpt lat="42.489438029006124" lon="-6.418306985870004">
        <ele>1504</ele>
        <time>2018-05-22T10:51:35Z</time>
      </trkpt>
      <trkpt lat="42.489481028169394" lon="-6.418144041672349">
        <ele>1504</ele>
        <time>2018-05-22T10:51:39Z</time>
      </trkpt>
      <trkpt lat="42.489511035382748" lon="-6.417907001450658">
        <ele>1504</ele>
        <time>2018-05-22T10:51:44Z</time>
      </trkpt>
      <trkpt lat="42.48954095877707" lon="-6.417577005922794">
        <ele>1497</ele>
        <time>2018-05-22T10:51:52Z</time>
      </trkpt>
      <trkpt lat="42.489555040374398" lon="-6.417305013164878">
        <ele>1497</ele>
        <time>2018-05-22T10:51:58Z</time>
      </trkpt>
      <trkpt lat="42.489567026495934" lon="-6.416958002373576">
        <ele>1497</ele>
        <time>2018-05-22T10:52:05Z</time>
      </trkpt>
      <trkpt lat="42.489575995132327" lon="-6.41666698269546">
        <ele>1496</ele>
        <time>2018-05-22T10:52:11Z</time>
      </trkpt>
      <trkpt lat="42.489570965990424" lon="-6.416372023522854">
        <ele>1496</ele>
        <time>2018-05-22T10:52:18Z</time>
      </trkpt>
      <trkpt lat="42.489597033709288" lon="-6.41604202799499">
        <ele>1498</ele>
        <time>2018-05-22T10:52:25Z</time>
      </trkpt>
      <trkpt lat="42.489629974588752" lon="-6.415768023580313">
        <ele>1498</ele>
        <time>2018-05-22T10:52:31Z</time>
      </trkpt>
      <trkpt lat="42.489632992073894" lon="-6.415714966133237">
        <ele>1498</ele>
        <time>2018-05-22T10:52:32Z</time>
      </trkpt>
      <trkpt lat="42.489642966538668" lon="-6.415432998910546">
        <ele>1498</ele>
        <time>2018-05-22T10:52:39Z</time>
      </trkpt>
      <trkpt lat="42.489640032872558" lon="-6.415133010596037">
        <ele>1503</ele>
        <time>2018-05-22T10:52:45Z</time>
      </trkpt>
      <trkpt lat="42.489617988467216" lon="-6.414877027273178">
        <ele>1503</ele>
        <time>2018-05-22T10:52:51Z</time>
      </trkpt>
      <trkpt lat="42.489614970982075" lon="-6.414540996775031">
        <ele>1503</ele>
        <time>2018-05-22T10:52:58Z</time>
      </trkpt>
      <trkpt lat="42.489613965153694" lon="-6.414276966825128">
        <ele>1506</ele>
        <time>2018-05-22T10:53:04Z</time>
      </trkpt>
      <trkpt lat="42.489594016224146" lon="-6.413984019309282">
        <ele>1506</ele>
        <time>2018-05-22T10:53:10Z</time>
      </trkpt>
      <trkpt lat="42.489586975425482" lon="-6.413731975480914">
        <ele>1495</ele>
        <time>2018-05-22T10:53:16Z</time>
      </trkpt>
      <trkpt lat="42.489600973203778" lon="-6.413511028513312">
        <ele>1504</ele>
        <time>2018-05-22T10:53:21Z</time>
      </trkpt>
      <trkpt lat="42.489659981802106" lon="-6.413200981914997">
        <ele>1504</ele>
        <time>2018-05-22T10:53:28Z</time>
      </trkpt>
      <trkpt lat="42.489746985957026" lon="-6.412978023290634">
        <ele>1504</ele>
        <time>2018-05-22T10:53:33Z</time>
      </trkpt>
      <trkpt lat="42.489874977618456" lon="-6.412836033850908">
        <ele>1498</ele>
        <time>2018-05-22T10:53:38Z</time>
      </trkpt>
      <trkpt lat="42.490001963451505" lon="-6.412650039419532">
        <ele>1498</ele>
        <time>2018-05-22T10:53:43Z</time>
      </trkpt>
      <trkpt lat="42.490099025890231" lon="-6.41251802444458">
        <ele>1498</ele>
        <time>2018-05-22T10:53:47Z</time>
      </trkpt>
      <trkpt lat="42.490202961489558" lon="-6.41234896145761">
        <ele>1498</ele>
        <time>2018-05-22T10:53:52Z</time>
      </trkpt>
      <trkpt lat="42.490303041413426" lon="-6.412137988954783">
        <ele>1498</ele>
        <time>2018-05-22T10:53:58Z</time>
      </trkpt>
      <trkpt lat="42.490387028083205" lon="-6.411923998966813">
        <ele>1486</ele>
        <time>2018-05-22T10:54:03Z</time>
      </trkpt>
      <trkpt lat="42.490447964519262" lon="-6.411773040890694">
        <ele>1486</ele>
        <time>2018-05-22T10:54:07Z</time>
      </trkpt>
      <trkpt lat="42.490516025573015" lon="-6.411506999284029">
        <ele>1502</ele>
        <time>2018-05-22T10:54:13Z</time>
      </trkpt>
      <trkpt lat="42.490580985322595" lon="-6.41131698153913">
        <ele>1502</ele>
        <time>2018-05-22T10:54:18Z</time>
      </trkpt>
      <trkpt lat="42.490590959787369" lon="-6.410988997668028">
        <ele>1503</ele>
        <time>2018-05-22T10:54:25Z</time>
      </trkpt>
      <trkpt lat="42.49059003777802" lon="-6.410752041265369">
        <ele>1503</ele>
        <time>2018-05-22T10:54:30Z</time>
      </trkpt>
      <trkpt lat="42.490572016686201" lon="-6.410466972738504">
        <ele>1503</ele>
        <time>2018-05-22T10:54:36Z</time>
      </trkpt>
      <trkpt lat="42.49054997228086" lon="-6.410228004679084">
        <ele>1507</ele>
        <time>2018-05-22T10:54:41Z</time>
      </trkpt>
      <trkpt lat="42.490533962845802" lon="-6.410146029666066">
        <ele>1507</ele>
        <time>2018-05-22T10:54:43Z</time>
      </trkpt>
      <trkpt lat="42.490533040836453" lon="-6.41013203188777">
        <ele>1507</ele>
        <time>2018-05-22T10:54:44Z</time>
      </trkpt>
      <trkpt lat="42.490500016137958" lon="-6.409945031628013">
        <ele>1507</ele>
        <time>2018-05-22T10:54:48Z</time>
      </trkpt>
      <trkpt lat="42.490475960075855" lon="-6.409806981682777">
        <ele>1481</ele>
        <time>2018-05-22T10:54:51Z</time>
      </trkpt>
      <trkpt lat="42.490430027246475" lon="-6.409484026953578">
        <ele>1488</ele>
        <time>2018-05-22T10:54:58Z</time>
      </trkpt>
      <trkpt lat="42.490390967577696" lon="-6.409340025857091">
        <ele>1488</ele>
        <time>2018-05-22T10:55:01Z</time>
      </trkpt>
      <trkpt lat="42.490331958979368" lon="-6.40908102504909">
        <ele>1488</ele>
        <time>2018-05-22T10:55:07Z</time>
      </trkpt>
      <trkpt lat="42.49031201004982" lon="-6.409025033935905">
        <ele>1488</ele>
        <time>2018-05-22T10:55:09Z</time>
      </trkpt>
      <trkpt lat="42.490199021995068" lon="-6.408783970400691">
        <ele>1488</ele>
        <time>2018-05-22T10:55:15Z</time>
      </trkpt>
      <trkpt lat="42.490170020610094" lon="-6.408728985115886">
        <ele>1488</ele>
        <time>2018-05-22T10:55:16Z</time>
      </trkpt>
      <trkpt lat="42.490072036162019" lon="-6.408484987914562">
        <ele>1496</ele>
        <time>2018-05-22T10:55:22Z</time>
      </trkpt>
      <trkpt lat="42.490013027563691" lon="-6.408317014575005">
        <ele>1496</ele>
        <time>2018-05-22T10:55:26Z</time>
      </trkpt>
      <trkpt lat="42.489940021187067" lon="-6.408146023750305">
        <ele>1496</ele>
        <time>2018-05-22T10:55:31Z</time>
      </trkpt>
      <trkpt lat="42.489867014810443" lon="-6.40800797380507">
        <ele>1496</ele>
        <time>2018-05-22T10:55:34Z</time>
      </trkpt>
      <trkpt lat="42.489801971241832" lon="-6.407972015440464">
        <ele>1496</ele>
        <time>2018-05-22T10:55:37Z</time>
      </trkpt>
      <trkpt lat="42.489741034805775" lon="-6.40787897631526">
        <ele>1498</ele>
        <time>2018-05-22T10:55:39Z</time>
      </trkpt>
      <trkpt lat="42.489686971530318" lon="-6.407569013535976">
        <ele>1498</ele>
        <time>2018-05-22T10:55:46Z</time>
      </trkpt>
      <trkpt lat="42.489682026207447" lon="-6.407453007996082">
        <ele>1498</ele>
        <time>2018-05-22T10:55:49Z</time>
      </trkpt>
      <trkpt lat="42.489660987630486" lon="-6.407386958599091">
        <ele>1498</ele>
        <time>2018-05-22T10:55:50Z</time>
      </trkpt>
      <trkpt lat="42.489626035094261" lon="-6.407086970284581">
        <ele>1498</ele>
        <time>2018-05-22T10:55:57Z</time>
      </trkpt>
      <trkpt lat="42.489625029265881" lon="-6.406897958368063">
        <ele>1491</ele>
        <time>2018-05-22T10:56:01Z</time>
      </trkpt>
      <trkpt lat="42.489627040922642" lon="-6.406710036098957">
        <ele>1491</ele>
        <time>2018-05-22T10:56:05Z</time>
      </trkpt>
      <trkpt lat="42.489740028977394" lon="-6.406570980325341">
        <ele>1491</ele>
        <time>2018-05-22T10:56:10Z</time>
      </trkpt>
      <trkpt lat="42.489777998998761" lon="-6.406484981998801">
        <ele>1491</ele>
        <time>2018-05-22T10:56:12Z</time>
      </trkpt>
      <trkpt lat="42.489815969020128" lon="-6.406453968957067">
        <ele>1491</ele>
        <time>2018-05-22T10:56:13Z</time>
      </trkpt>
      <trkpt lat="42.489888975396752" lon="-6.406386997550726">
        <ele>1491</ele>
        <time>2018-05-22T10:56:16Z</time>
      </trkpt>
      <trkpt lat="42.489976985380054" lon="-6.406354978680611">
        <ele>1491</ele>
        <time>2018-05-22T10:56:19Z</time>
      </trkpt>
      <trkpt lat="42.490081004798412" lon="-6.406325977295637">
        <ele>1491</ele>
        <time>2018-05-22T10:56:22Z</time>
      </trkpt>
      <trkpt lat="42.490246966481209" lon="-6.40630703419447">
        <ele>1491</ele>
        <time>2018-05-22T10:56:27Z</time>
      </trkpt>
      <trkpt lat="42.490404965355992" lon="-6.40626696869731">
        <ele>1491</ele>
        <time>2018-05-22T10:56:31Z</time>
      </trkpt>
      <trkpt lat="42.490589031949639" lon="-6.406163033097982">
        <ele>1501</ele>
        <time>2018-05-22T10:56:37Z</time>
      </trkpt>
      <trkpt lat="42.490759016945958" lon="-6.406041998416185">
        <ele>1474</ele>
        <time>2018-05-22T10:56:43Z</time>
      </trkpt>
      <trkpt lat="42.490794975310564" lon="-6.405995981767774">
        <ele>1474</ele>
        <time>2018-05-22T10:56:45Z</time>
      </trkpt>
      <trkpt lat="42.490904023870826" lon="-6.405921969562769">
        <ele>1474</ele>
        <time>2018-05-22T10:56:48Z</time>
      </trkpt>
      <trkpt lat="42.490931013599038" lon="-6.405916018411517">
        <ele>1474</ele>
        <time>2018-05-22T10:56:49Z</time>
      </trkpt>
      <trkpt lat="42.491008965298533" lon="-6.405936973169446">
        <ele>1474</ele>
        <time>2018-05-22T10:56:51Z</time>
      </trkpt>
      <trkpt lat="42.491057999432087" lon="-6.405936973169446">
        <ele>1474</ele>
        <time>2018-05-22T10:56:53Z</time>
      </trkpt>
      <trkpt lat="42.491225972771645" lon="-6.405929010361433">
        <ele>1474</ele>
        <time>2018-05-22T10:56:58Z</time>
      </trkpt>
      <trkpt lat="42.491355976089835" lon="-6.405877964571118">
        <ele>1479</ele>
        <time>2018-05-22T10:57:02Z</time>
      </trkpt>
      <trkpt lat="42.491480028256774" lon="-6.405828008428216">
        <ele>1479</ele>
        <time>2018-05-22T10:57:06Z</time>
      </trkpt>
      <trkpt lat="42.491641966626048" lon="-6.40575097873807">
        <ele>1479</ele>
        <time>2018-05-22T10:57:11Z</time>
      </trkpt>
      <trkpt lat="42.491801977157593" lon="-6.4057079795748">
        <ele>1479</ele>
        <time>2018-05-22T10:57:16Z</time>
      </trkpt>
      <trkpt lat="42.491916976869106" lon="-6.405675038695335">
        <ele>1479</ele>
        <time>2018-05-22T10:57:19Z</time>
      </trkpt>
      <trkpt lat="42.492114035412669" lon="-6.405580993741751">
        <ele>1479</ele>
        <time>2018-05-22T10:57:25Z</time>
      </trkpt>
      <trkpt lat="42.492149993777275" lon="-6.405548974871635">
        <ele>1483</ele>
        <time>2018-05-22T10:57:26Z</time>
      </trkpt>
      <trkpt lat="42.492299024015665" lon="-6.405325010418892">
        <ele>1483</ele>
        <time>2018-05-22T10:57:33Z</time>
      </trkpt>
      <trkpt lat="42.492414023727179" lon="-6.405139015987515">
        <ele>1470</ele>
        <time>2018-05-22T10:57:39Z</time>
      </trkpt>
      <trkpt lat="42.492493987083435" lon="-6.404917985200882">
        <ele>1470</ele>
        <time>2018-05-22T10:57:44Z</time>
      </trkpt>
      <trkpt lat="42.492538997903466" lon="-6.404752023518086">
        <ele>1470</ele>
        <time>2018-05-22T10:57:48Z</time>
      </trkpt>
      <trkpt lat="42.492532040923834" lon="-6.404637023806572">
        <ele>1470</ele>
        <time>2018-05-22T10:57:51Z</time>
      </trkpt>
      <trkpt lat="42.492557018995285" lon="-6.404467960819602">
        <ele>1463</ele>
        <time>2018-05-22T10:57:54Z</time>
      </trkpt>
      <trkpt lat="42.492575962096453" lon="-6.404348015785217">
        <ele>1463</ele>
        <time>2018-05-22T10:57:57Z</time>
      </trkpt>
      <trkpt lat="42.492580991238356" lon="-6.404283978044987">
        <ele>1463</ele>
        <time>2018-05-22T10:57:58Z</time>
      </trkpt>
      <trkpt lat="42.492621978744864" lon="-6.404059007763863">
        <ele>1463</ele>
        <time>2018-05-22T10:58:04Z</time>
      </trkpt>
      <trkpt lat="42.492538997903466" lon="-6.403831019997597">
        <ele>1463</ele>
        <time>2018-05-22T10:58:09Z</time>
      </trkpt>
      <trkpt lat="42.492533968761563" lon="-6.403814004734159">
        <ele>1463</ele>
        <time>2018-05-22T10:58:10Z</time>
      </trkpt>
      <trkpt lat="42.492476971819997" lon="-6.403536982834339">
        <ele>1461</ele>
        <time>2018-05-22T10:58:16Z</time>
      </trkpt>
      <trkpt lat="42.492455011233687" lon="-6.403273036703467">
        <ele>1461</ele>
        <time>2018-05-22T10:58:22Z</time>
      </trkpt>
      <trkpt lat="42.492477977648377" lon="-6.403141021728516">
        <ele>1461</ele>
        <time>2018-05-22T10:58:25Z</time>
      </trkpt>
      <trkpt lat="42.492484012618661" lon="-6.402928037568927">
        <ele>1461</ele>
        <time>2018-05-22T10:58:29Z</time>
      </trkpt>
      <trkpt lat="42.492477977648377" lon="-6.40263500623405">
        <ele>1459</ele>
        <time>2018-05-22T10:58:36Z</time>
      </trkpt>
      <trkpt lat="42.492444030940533" lon="-6.402445994317532">
        <ele>1459</ele>
        <time>2018-05-22T10:58:40Z</time>
      </trkpt>
      <trkpt lat="42.492391979321837" lon="-6.402235021814704">
        <ele>1459</ele>
        <time>2018-05-22T10:58:45Z</time>
      </trkpt>
      <trkpt lat="42.492301035672426" lon="-6.401975015178323">
        <ele>1463</ele>
        <time>2018-05-22T10:58:51Z</time>
      </trkpt>
      <trkpt lat="42.492235992103815" lon="-6.401682989671826">
        <ele>1463</ele>
        <time>2018-05-22T10:58:58Z</time>
      </trkpt>
      <trkpt lat="42.492176983505487" lon="-6.401405967772007">
        <ele>1463</ele>
        <time>2018-05-22T10:59:04Z</time>
      </trkpt>
      <trkpt lat="42.492084028199315" lon="-6.401141015812755">
        <ele>1450</ele>
        <time>2018-05-22T10:59:11Z</time>
      </trkpt>
      <trkpt lat="42.492014961317182" lon="-6.400921996682882">
        <ele>1450</ele>
        <time>2018-05-22T10:59:16Z</time>
      </trkpt>
      <trkpt lat="42.491954024881124" lon="-6.400671964511275">
        <ele>1450</ele>
        <time>2018-05-22T10:59:21Z</time>
      </trkpt>
      <trkpt lat="42.491879006847739" lon="-6.400396032258868">
        <ele>1450</ele>
        <time>2018-05-22T10:59:28Z</time>
      </trkpt>
      <trkpt lat="42.491842964664102" lon="-6.400273991748691">
        <ele>1449</ele>
        <time>2018-05-22T10:59:31Z</time>
      </trkpt>
      <trkpt lat="42.491785967722535" lon="-6.400065030902624">
        <ele>1449</ele>
        <time>2018-05-22T10:59:36Z</time>
      </trkpt>
      <trkpt lat="42.491741040721536" lon="-6.399865038692951">
        <ele>1449</ele>
        <time>2018-05-22T10:59:40Z</time>
      </trkpt>
      <trkpt lat="42.491742968559265" lon="-6.399694969877601">
        <ele>1449</ele>
        <time>2018-05-22T10:59:44Z</time>
      </trkpt>
      <trkpt lat="42.491799965500832" lon="-6.399427000433207">
        <ele>1441</ele>
        <time>2018-05-22T10:59:50Z</time>
      </trkpt>
      <trkpt lat="42.491908008232713" lon="-6.399123994633555">
        <ele>1441</ele>
        <time>2018-05-22T10:59:57Z</time>
      </trkpt>
      <trkpt lat="42.491928962990642" lon="-6.399063980206847">
        <ele>1441</ele>
        <time>2018-05-22T10:59:59Z</time>
      </trkpt>
      <trkpt lat="42.491937009617686" lon="-6.399039002135396">
        <ele>1441</ele>
        <time>2018-05-22T10:59:59Z</time>
      </trkpt>
      <trkpt lat="42.491950001567602" lon="-6.398801039904356">
        <ele>1441</ele>
        <time>2018-05-22T11:00:05Z</time>
      </trkpt>
      <trkpt lat="42.491995012387633" lon="-6.398695008829236">
        <ele>1441</ele>
        <time>2018-05-22T11:00:07Z</time>
      </trkpt>
      <trkpt lat="42.492068018764257" lon="-6.398494010791183">
        <ele>1441</ele>
        <time>2018-05-22T11:00:12Z</time>
      </trkpt>
      <trkpt lat="42.492094002664089" lon="-6.398328971117735">
        <ele>1441</ele>
        <time>2018-05-22T11:00:16Z</time>
      </trkpt>
      <trkpt lat="42.49209601432085" lon="-6.398315979167819">
        <ele>1441</ele>
        <time>2018-05-22T11:00:16Z</time>
      </trkpt>
      <trkpt lat="42.492102971300483" lon="-6.398253031075001">
        <ele>1441</ele>
        <time>2018-05-22T11:00:18Z</time>
      </trkpt>
      <trkpt lat="42.492073969915509" lon="-6.398088997229934">
        <ele>1441</ele>
        <time>2018-05-22T11:00:21Z</time>
      </trkpt>
      <trkpt lat="42.49198897741735" lon="-6.398041974753141">
        <ele>1441</ele>
        <time>2018-05-22T11:00:24Z</time>
      </trkpt>
      <trkpt lat="42.491850005462766" lon="-6.397925969213247">
        <ele>1441</ele>
        <time>2018-05-22T11:00:29Z</time>
      </trkpt>
      <trkpt lat="42.491661999374628" lon="-6.397682977840304">
        <ele>1448</ele>
        <time>2018-05-22T11:00:37Z</time>
      </trkpt>
      <trkpt lat="42.491500983014703" lon="-6.397489020600915">
        <ele>1448</ele>
        <time>2018-05-22T11:00:43Z</time>
      </trkpt>
      <trkpt lat="42.491400986909866" lon="-6.397313000634313">
        <ele>1448</ele>
        <time>2018-05-22T11:00:48Z</time>
      </trkpt>
      <trkpt lat="42.491312976926565" lon="-6.397104961797595">
        <ele>1448</ele>
        <time>2018-05-22T11:00:53Z</time>
      </trkpt>
      <trkpt lat="42.491248017176986" lon="-6.396843027323484">
        <ele>1426</ele>
        <time>2018-05-22T11:00:59Z</time>
      </trkpt>
      <trkpt lat="42.491226978600025" lon="-6.396751999855042">
        <ele>1426</ele>
        <time>2018-05-22T11:01:01Z</time>
      </trkpt>
      <trkpt lat="42.491180961951613" lon="-6.396543039008975">
        <ele>1426</ele>
        <time>2018-05-22T11:01:06Z</time>
      </trkpt>
      <trkpt lat="42.491120025515556" lon="-6.396313961595297">
        <ele>1426</ele>
        <time>2018-05-22T11:01:11Z</time>
      </trkpt>
      <trkpt lat="42.491049030795693" lon="-6.396059989929199">
        <ele>1432</ele>
        <time>2018-05-22T11:01:17Z</time>
      </trkpt>
      <trkpt lat="42.490993961691856" lon="-6.395775005221367">
        <ele>1432</ele>
        <time>2018-05-22T11:01:24Z</time>
      </trkpt>
      <trkpt lat="42.490927996113896" lon="-6.39546001330018">
        <ele>1432</ele>
        <time>2018-05-22T11:01:31Z</time>
      </trkpt>
      <trkpt lat="42.490898994728923" lon="-6.395343001931906">
        <ele>1432</ele>
        <time>2018-05-22T11:01:34Z</time>
      </trkpt>
      <trkpt lat="42.49084803275764" lon="-6.395073020830751">
        <ele>1438</ele>
        <time>2018-05-22T11:01:40Z</time>
      </trkpt>
      <trkpt lat="42.490823976695538" lon="-6.394851990044117">
        <ele>1438</ele>
        <time>2018-05-22T11:01:44Z</time>
      </trkpt>
      <trkpt lat="42.490768991410732" lon="-6.394626013934612">
        <ele>1438</ele>
        <time>2018-05-22T11:01:50Z</time>
      </trkpt>
      <trkpt lat="42.490771003067493" lon="-6.394608998671174">
        <ele>1438</ele>
        <time>2018-05-22T11:01:50Z</time>
      </trkpt>
      <trkpt lat="42.490787012502551" lon="-6.394302975386381">
        <ele>1436</ele>
        <time>2018-05-22T11:01:57Z</time>
      </trkpt>
      <trkpt lat="42.490890026092529" lon="-6.394021008163691">
        <ele>1436</ele>
        <time>2018-05-22T11:02:04Z</time>
      </trkpt>
      <trkpt lat="42.490998990833759" lon="-6.393824033439159">
        <ele>1436</ele>
        <time>2018-05-22T11:02:09Z</time>
      </trkpt>
      <trkpt lat="42.491047019138932" lon="-6.393768964335322">
        <ele>1436</ele>
        <time>2018-05-22T11:02:11Z</time>
      </trkpt>
      <trkpt lat="42.491099992766976" lon="-6.393680032342672">
        <ele>1436</ele>
        <time>2018-05-22T11:02:14Z</time>
      </trkpt>
      <trkpt lat="42.491202000528574" lon="-6.393540976569057">
        <ele>1432</ele>
        <time>2018-05-22T11:02:18Z</time>
      </trkpt>
      <trkpt lat="42.491246005520225" lon="-6.393436035141349">
        <ele>1432</ele>
        <time>2018-05-22T11:02:21Z</time>
      </trkpt>
      <trkpt lat="42.49123603105545" lon="-6.393212992697954">
        <ele>1432</ele>
        <time>2018-05-22T11:02:25Z</time>
      </trkpt>
      <trkpt lat="42.491136034950614" lon="-6.392950974404812">
        <ele>1432</ele>
        <time>2018-05-22T11:02:32Z</time>
      </trkpt>
      <trkpt lat="42.490994967520237" lon="-6.392790963873267">
        <ele>1442</ele>
        <time>2018-05-22T11:02:37Z</time>
      </trkpt>
      <trkpt lat="42.49082900583744" lon="-6.392614021897316">
        <ele>1442</ele>
        <time>2018-05-22T11:02:44Z</time>
      </trkpt>
      <trkpt lat="42.490776032209396" lon="-6.392554007470608">
        <ele>1442</ele>
        <time>2018-05-22T11:02:46Z</time>
      </trkpt>
      <trkpt lat="42.490625996142626" lon="-6.392318978905678">
        <ele>1442</ele>
        <time>2018-05-22T11:02:52Z</time>
      </trkpt>
      <trkpt lat="42.490436984226108" lon="-6.392125021666288">
        <ele>1433</ele>
        <time>2018-05-22T11:02:59Z</time>
      </trkpt>
      <trkpt lat="42.490258030593395" lon="-6.39195797033608">
        <ele>1437</ele>
        <time>2018-05-22T11:03:06Z</time>
      </trkpt>
      <trkpt lat="42.490081004798412" lon="-6.391726965084672">
        <ele>1437</ele>
        <time>2018-05-22T11:03:13Z</time>
      </trkpt>
      <trkpt lat="42.490071030333638" lon="-6.391684971749783">
        <ele>1437</ele>
        <time>2018-05-22T11:03:14Z</time>
      </trkpt>
      <trkpt lat="42.490015039220452" lon="-6.39146201312542">
        <ele>1437</ele>
        <time>2018-05-22T11:03:19Z</time>
      </trkpt>
      <trkpt lat="42.489973967894912" lon="-6.39116495847702">
        <ele>1435</ele>
        <time>2018-05-22T11:03:26Z</time>
      </trkpt>
      <trkpt lat="42.490015039220452" lon="-6.390976030379534">
        <ele>1435</ele>
        <time>2018-05-22T11:03:30Z</time>
      </trkpt>
      <trkpt lat="42.490095002576709" lon="-6.390703031793237">
        <ele>1435</ele>
        <time>2018-05-22T11:03:37Z</time>
      </trkpt>
      <trkpt lat="42.490116963163018" lon="-6.390554001554847">
        <ele>1435</ele>
        <time>2018-05-22T11:03:40Z</time>
      </trkpt>
      <trkpt lat="42.490117968991399" lon="-6.390534974634647">
        <ele>1435</ele>
        <time>2018-05-22T11:03:40Z</time>
      </trkpt>
      <trkpt lat="42.490083016455173" lon="-6.390426009893417">
        <ele>1435</ele>
        <time>2018-05-22T11:03:43Z</time>
      </trkpt>
      <trkpt lat="42.490081004798412" lon="-6.390342023223639">
        <ele>1433</ele>
        <time>2018-05-22T11:03:45Z</time>
      </trkpt>
      <trkpt lat="42.49007698148489" lon="-6.390116969123483">
        <ele>1433</ele>
        <time>2018-05-22T11:03:50Z</time>
      </trkpt>
      <trkpt lat="42.49007698148489" lon="-6.389979002997279">
        <ele>1433</ele>
        <time>2018-05-22T11:03:53Z</time>
      </trkpt>
      <trkpt lat="42.490068012848496" lon="-6.389844976365566">
        <ele>1433</ele>
        <time>2018-05-22T11:03:56Z</time>
      </trkpt>
      <trkpt lat="42.490074969828129" lon="-6.38976601883769">
        <ele>1433</ele>
        <time>2018-05-22T11:03:57Z</time>
      </trkpt>
      <trkpt lat="42.490120986476541" lon="-6.389521015807986">
        <ele>1427</ele>
        <time>2018-05-22T11:04:03Z</time>
      </trkpt>
      <trkpt lat="42.490174965932965" lon="-6.389238964766264">
        <ele>1427</ele>
        <time>2018-05-22T11:04:09Z</time>
      </trkpt>
      <trkpt lat="42.490197010338306" lon="-6.389180039986968">
        <ele>1427</ele>
        <time>2018-05-22T11:04:11Z</time>
      </trkpt>
      <trkpt lat="42.490301029756665" lon="-6.388963032513857">
        <ele>1427</ele>
        <time>2018-05-22T11:04:16Z</time>
      </trkpt>
      <trkpt lat="42.490317961201072" lon="-6.388932019472122">
        <ele>1427</ele>
        <time>2018-05-22T11:04:17Z</time>
      </trkpt>
      <trkpt lat="42.490372024476528" lon="-6.388762034475803">
        <ele>1427</ele>
        <time>2018-05-22T11:04:21Z</time>
      </trkpt>
      <trkpt lat="42.490375963971019" lon="-6.388705959543586">
        <ele>1424</ele>
        <time>2018-05-22T11:04:22Z</time>
      </trkpt>
      <trkpt lat="42.490423992276192" lon="-6.388535974547267">
        <ele>1424</ele>
        <time>2018-05-22T11:04:26Z</time>
      </trkpt>
      <trkpt lat="42.490450982004404" lon="-6.388480989262462">
        <ele>1424</ele>
        <time>2018-05-22T11:04:28Z</time>
      </trkpt>
      <trkpt lat="42.490489035844803" lon="-6.388168008998036">
        <ele>1442</ele>
        <time>2018-05-22T11:04:35Z</time>
      </trkpt>
      <trkpt lat="42.490544021129608" lon="-6.387857040390372">
        <ele>1443</ele>
        <time>2018-05-22T11:04:42Z</time>
      </trkpt>
      <trkpt lat="42.490552989766002" lon="-6.387769030407071">
        <ele>1439</ele>
        <time>2018-05-22T11:04:44Z</time>
      </trkpt>
      <trkpt lat="42.490515019744635" lon="-6.387566020712256">
        <ele>1443</ele>
        <time>2018-05-22T11:04:48Z</time>
      </trkpt>
      <trkpt lat="42.490406977012753" lon="-6.387329986318946">
        <ele>1430</ele>
        <time>2018-05-22T11:04:54Z</time>
      </trkpt>
      <trkpt lat="42.490384010598063" lon="-6.387095963582397">
        <ele>1430</ele>
        <time>2018-05-22T11:04:59Z</time>
      </trkpt>
      <trkpt lat="42.490351991727948" lon="-6.386889014393091">
        <ele>1439</ele>
        <time>2018-05-22T11:05:04Z</time>
      </trkpt>
      <trkpt lat="42.490352997556329" lon="-6.386871999129653">
        <ele>1439</ele>
        <time>2018-05-22T11:05:05Z</time>
      </trkpt>
      <trkpt lat="42.490352997556329" lon="-6.386869987472892">
        <ele>1439</ele>
        <time>2018-05-22T11:05:05Z</time>
      </trkpt>
      <trkpt lat="42.490358026698232" lon="-6.386862024664879">
        <ele>1439</ele>
        <time>2018-05-22T11:05:05Z</time>
      </trkpt>
      <trkpt lat="42.490360960364342" lon="-6.386848026886582">
        <ele>1439</ele>
        <time>2018-05-22T11:05:05Z</time>
      </trkpt>
      <trkpt lat="42.490366995334625" lon="-6.386834029108286">
        <ele>1439</ele>
        <time>2018-05-22T11:05:05Z</time>
      </trkpt>
      <trkpt lat="42.490374036133289" lon="-6.386824976652861">
        <ele>1439</ele>
        <time>2018-05-22T11:05:06Z</time>
      </trkpt>
      <trkpt lat="42.490381998941302" lon="-6.386817013844848">
        <ele>1439</ele>
        <time>2018-05-22T11:05:06Z</time>
      </trkpt>
      <trkpt lat="42.490388033911586" lon="-6.386805027723312">
        <ele>1439</ele>
        <time>2018-05-22T11:05:06Z</time>
      </trkpt>
      <trkpt lat="42.490391973406076" lon="-6.386792035773397">
        <ele>1439</ele>
        <time>2018-05-22T11:05:07Z</time>
      </trkpt>
      <trkpt lat="42.490386022254825" lon="-6.386783989146352">
        <ele>1439</ele>
        <time>2018-05-22T11:05:07Z</time>
      </trkpt>
      <trkpt lat="42.490381998941302" lon="-6.386772003024817">
        <ele>1439</ele>
        <time>2018-05-22T11:05:07Z</time>
      </trkpt>
      <trkpt lat="42.490376969799399" lon="-6.386761022731662">
        <ele>1439</ele>
        <time>2018-05-22T11:05:07Z</time>
      </trkpt>
      <trkpt lat="42.490369006991386" lon="-6.386754987761378">
        <ele>1439</ele>
        <time>2018-05-22T11:05:08Z</time>
      </trkpt>
      <trkpt lat="42.490361966192722" lon="-6.386748030781746">
        <ele>1439</ele>
        <time>2018-05-22T11:05:08Z</time>
      </trkpt>
      <trkpt lat="42.490352997556329" lon="-6.386741995811462">
        <ele>1439</ele>
        <time>2018-05-22T11:05:08Z</time>
      </trkpt>
      <trkpt lat="42.490343023091555" lon="-6.38673696666956">
        <ele>1439</ele>
        <time>2018-05-22T11:05:09Z</time>
      </trkpt>
      <trkpt lat="42.490331036970019" lon="-6.386727998033166">
        <ele>1439</ele>
        <time>2018-05-22T11:05:09Z</time>
      </trkpt>
      <trkpt lat="42.490276973694563" lon="-6.386647028848529">
        <ele>1439</ele>
        <time>2018-05-22T11:05:11Z</time>
      </trkpt>
      <trkpt lat="42.490069018676877" lon="-6.386502021923661">
        <ele>1439</ele>
        <time>2018-05-22T11:05:18Z</time>
      </trkpt>
      <trkpt lat="42.489992994815111" lon="-6.386442007496953">
        <ele>1439</ele>
        <time>2018-05-22T11:05:21Z</time>
      </trkpt>
      <trkpt lat="42.489986959844828" lon="-6.386400014162064">
        <ele>1439</ele>
        <time>2018-05-22T11:05:22Z</time>
      </trkpt>
      <trkpt lat="42.489896016195416" lon="-6.386291971430183">
        <ele>1439</ele>
        <time>2018-05-22T11:05:25Z</time>
      </trkpt>
      <trkpt lat="42.489757966250181" lon="-6.386076975613833">
        <ele>1445</ele>
        <time>2018-05-22T11:05:32Z</time>
      </trkpt>
      <trkpt lat="42.489614970982075" lon="-6.385817974805832">
        <ele>1445</ele>
        <time>2018-05-22T11:05:39Z</time>
      </trkpt>
      <trkpt lat="42.489501982927322" lon="-6.385572971776128">
        <ele>1443</ele>
        <time>2018-05-22T11:05:45Z</time>
      </trkpt>
      <trkpt lat="42.489436017349362" lon="-6.385436011478305">
        <ele>1443</ele>
        <time>2018-05-22T11:05:49Z</time>
      </trkpt>
      <trkpt lat="42.489359993487597" lon="-6.385264014825225">
        <ele>1448</ele>
        <time>2018-05-22T11:05:53Z</time>
      </trkpt>
      <trkpt lat="42.489179028198123" lon="-6.384979030117393">
        <ele>1448</ele>
        <time>2018-05-22T11:06:01Z</time>
      </trkpt>
      <trkpt lat="42.488991022109985" lon="-6.384809967130423">
        <ele>1448</ele>
        <time>2018-05-22T11:06:08Z</time>
      </trkpt>
      <trkpt lat="42.488945005461574" lon="-6.384754981845617">
        <ele>1448</ele>
        <time>2018-05-22T11:06:10Z</time>
      </trkpt>
      <trkpt lat="42.488882979378104" lon="-6.384708965197206">
        <ele>1448</ele>
        <time>2018-05-22T11:06:12Z</time>
      </trkpt>
      <trkpt lat="42.488695979118347" lon="-6.384555995464325">
        <ele>1448</ele>
        <time>2018-05-22T11:06:18Z</time>
      </trkpt>
      <trkpt lat="42.488650968298316" lon="-6.38445801101625">
        <ele>1451</ele>
        <time>2018-05-22T11:06:21Z</time>
      </trkpt>
      <trkpt lat="42.488542003557086" lon="-6.384381987154484">
        <ele>1451</ele>
        <time>2018-05-22T11:06:25Z</time>
      </trkpt>
      <trkpt lat="42.48844301328063" lon="-6.384403025731444">
        <ele>1451</ele>
        <time>2018-05-22T11:06:27Z</time>
      </trkpt>
      <trkpt lat="42.488430021330714" lon="-6.384397996589541">
        <ele>1451</ele>
        <time>2018-05-22T11:06:28Z</time>
      </trkpt>
      <trkpt lat="42.488374030217528" lon="-6.384347034618259">
        <ele>1451</ele>
        <time>2018-05-22T11:06:30Z</time>
      </trkpt>
      <trkpt lat="42.488304041326046" lon="-6.384105971083045">
        <ele>1451</ele>
        <time>2018-05-22T11:06:36Z</time>
      </trkpt>
      <trkpt lat="42.488284008577466" lon="-6.383956018835306">
        <ele>1451</ele>
        <time>2018-05-22T11:06:39Z</time>
      </trkpt>
      <trkpt lat="42.488218965008855" lon="-6.383671034127474">
        <ele>1451</ele>
        <time>2018-05-22T11:06:45Z</time>
      </trkpt>
      <trkpt lat="42.488220976665616" lon="-6.38362099416554">
        <ele>1456</ele>
        <time>2018-05-22T11:06:46Z</time>
      </trkpt>
      <trkpt lat="42.488209996372461" lon="-6.383525021374226">
        <ele>1456</ele>
        <time>2018-05-22T11:06:49Z</time>
      </trkpt>
      <trkpt lat="42.488194992765784" lon="-6.383456038311124">
        <ele>1456</ele>
        <time>2018-05-22T11:06:50Z</time>
      </trkpt>
      <trkpt lat="42.488165991380811" lon="-6.383285969495773">
        <ele>1456</ele>
        <time>2018-05-22T11:06:54Z</time>
      </trkpt>
      <trkpt lat="42.488130033016205" lon="-6.383069967851043">
        <ele>1456</ele>
        <time>2018-05-22T11:06:59Z</time>
      </trkpt>
      <trkpt lat="42.488111006096005" lon="-6.382878022268415">
        <ele>1456</ele>
        <time>2018-05-22T11:07:03Z</time>
      </trkpt>
      <trkpt lat="42.488079993054271" lon="-6.382636958733201">
        <ele>1459</ele>
        <time>2018-05-22T11:07:08Z</time>
      </trkpt>
      <trkpt lat="42.488032970577478" lon="-6.382383992895484">
        <ele>1459</ele>
        <time>2018-05-22T11:07:14Z</time>
      </trkpt>
      <trkpt lat="42.487938003614545" lon="-6.382082998752594">
        <ele>1453</ele>
        <time>2018-05-22T11:07:21Z</time>
      </trkpt>
      <trkpt lat="42.487853011116385" lon="-6.381826009601355">
        <ele>1459</ele>
        <time>2018-05-22T11:07:27Z</time>
      </trkpt>
      <trkpt lat="42.487772963941097" lon="-6.381611013785005">
        <ele>1459</ele>
        <time>2018-05-22T11:07:33Z</time>
      </trkpt>
      <trkpt lat="42.487677996978164" lon="-6.381368022412062">
        <ele>1459</ele>
        <time>2018-05-22T11:07:39Z</time>
      </trkpt>
      <trkpt lat="42.487608008086681" lon="-6.381115978583694">
        <ele>1464</ele>
        <time>2018-05-22T11:07:45Z</time>
      </trkpt>
      <trkpt lat="42.48760499060154" lon="-6.381102986633778">
        <ele>1464</ele>
        <time>2018-05-22T11:07:45Z</time>
      </trkpt>
      <trkpt lat="42.487586969509721" lon="-6.380899976938963">
        <ele>1464</ele>
        <time>2018-05-22T11:07:49Z</time>
      </trkpt>
      <trkpt lat="42.487599039450288" lon="-6.380710965022445">
        <ele>1464</ele>
        <time>2018-05-22T11:07:53Z</time>
      </trkpt>
      <trkpt lat="42.487596021965146" lon="-6.380671989172697">
        <ele>1464</ele>
        <time>2018-05-22T11:07:54Z</time>
      </trkpt>
      <trkpt lat="42.487600967288017" lon="-6.380648016929627">
        <ele>1464</ele>
        <time>2018-05-22T11:07:55Z</time>
      </trkpt>
      <trkpt lat="42.487632986158133" lon="-6.380492029711604">
        <ele>1464</ele>
        <time>2018-05-22T11:07:58Z</time>
      </trkpt>
      <trkpt lat="42.487675985321403" lon="-6.380233028903604">
        <ele>1464</ele>
        <time>2018-05-22T11:08:04Z</time>
      </trkpt>
      <trkpt lat="42.487695012241602" lon="-6.380191035568714">
        <ele>1464</ele>
        <time>2018-05-22T11:08:05Z</time>
      </trkpt>
      <trkpt lat="42.487780004739761" lon="-6.379977967590094">
        <ele>1464</ele>
        <time>2018-05-22T11:08:11Z</time>
      </trkpt>
      <trkpt lat="42.487784028053284" lon="-6.379963969811797">
        <ele>1464</ele>
        <time>2018-05-22T11:08:11Z</time>
      </trkpt>
      <trkpt lat="42.487869020551443" lon="-6.379714021459222">
        <ele>1464</ele>
        <time>2018-05-22T11:08:17Z</time>
      </trkpt>
      <trkpt lat="42.487952001392841" lon="-6.379477987065911">
        <ele>1457</ele>
        <time>2018-05-22T11:08:23Z</time>
      </trkpt>
      <trkpt lat="42.488079993054271" lon="-6.379239019006491">
        <ele>1457</ele>
        <time>2018-05-22T11:08:29Z</time>
      </trkpt>
      <trkpt lat="42.488170014694333" lon="-6.379028968513012">
        <ele>1457</ele>
        <time>2018-05-22T11:08:34Z</time>
      </trkpt>
      <trkpt lat="42.488211002200842" lon="-6.378935007378459">
        <ele>1457</ele>
        <time>2018-05-22T11:08:37Z</time>
      </trkpt>
      <trkpt lat="42.488260036334395" lon="-6.378849009051919">
        <ele>1457</ele>
        <time>2018-05-22T11:08:39Z</time>
      </trkpt>
      <trkpt lat="42.488309992477298" lon="-6.378742977976799">
        <ele>1457</ele>
        <time>2018-05-22T11:08:42Z</time>
      </trkpt>
      <trkpt lat="42.488403031602502" lon="-6.378535022959113">
        <ele>1464</ele>
        <time>2018-05-22T11:08:47Z</time>
      </trkpt>
      <trkpt lat="42.488475032150745" lon="-6.378348022699356">
        <ele>1464</ele>
        <time>2018-05-22T11:08:52Z</time>
      </trkpt>
      <trkpt lat="42.488505961373448" lon="-6.378183988854289">
        <ele>1464</ele>
        <time>2018-05-22T11:08:55Z</time>
      </trkpt>
      <trkpt lat="42.488520964980125" lon="-6.377943009138107">
        <ele>1464</ele>
        <time>2018-05-22T11:09:01Z</time>
      </trkpt>
      <trkpt lat="42.488514008000493" lon="-6.377703035250306">
        <ele>1467</ele>
        <time>2018-05-22T11:09:06Z</time>
      </trkpt>
      <trkpt lat="42.488521970808506" lon="-6.377665987238288">
        <ele>1467</ele>
        <time>2018-05-22T11:09:07Z</time>
      </trkpt>
      <trkpt lat="42.488510990515351" lon="-6.37749801389873">
        <ele>1467</ele>
        <time>2018-05-22T11:09:10Z</time>
      </trkpt>
      <trkpt lat="42.48848500661552" lon="-6.377229038625956">
        <ele>1467</ele>
        <time>2018-05-22T11:09:16Z</time>
      </trkpt>
      <trkpt lat="42.488487018272281" lon="-6.377173969522119">
        <ele>1467</ele>
        <time>2018-05-22T11:09:18Z</time>
      </trkpt>
      <trkpt lat="42.488491963595152" lon="-6.377085959538817">
        <ele>1467</ele>
        <time>2018-05-22T11:09:20Z</time>
      </trkpt>
      <trkpt lat="42.488481989130378" lon="-6.376814972609282">
        <ele>1470</ele>
        <time>2018-05-22T11:09:25Z</time>
      </trkpt>
      <trkpt lat="42.488452987745404" lon="-6.376547003164887">
        <ele>1470</ele>
        <time>2018-05-22T11:09:31Z</time>
      </trkpt>
      <trkpt lat="42.488434966653585" lon="-6.376313986256719">
        <ele>1470</ele>
        <time>2018-05-22T11:09:36Z</time>
      </trkpt>
      <trkpt lat="42.488394984975457" lon="-6.376079963520169">
        <ele>1473</ele>
        <time>2018-05-22T11:09:42Z</time>
      </trkpt>
      <trkpt lat="42.488391967490315" lon="-6.37580000795424">
        <ele>1473</ele>
        <time>2018-05-22T11:09:48Z</time>
      </trkpt>
      <trkpt lat="42.488403031602502" lon="-6.375659024342895">
        <ele>1473</ele>
        <time>2018-05-22T11:09:51Z</time>
      </trkpt>
      <trkpt lat="42.488407976925373" lon="-6.375615019351244">
        <ele>1473</ele>
        <time>2018-05-22T11:09:52Z</time>
      </trkpt>
      <trkpt lat="42.488417029380798" lon="-6.375578977167606">
        <ele>1473</ele>
        <time>2018-05-22T11:09:53Z</time>
      </trkpt>
      <trkpt lat="42.48841904103756" lon="-6.375575959682465">
        <ele>1473</ele>
        <time>2018-05-22T11:09:53Z</time>
      </trkpt>
      <trkpt lat="42.488405965268612" lon="-6.375529021024704">
        <ele>1473</ele>
        <time>2018-05-22T11:09:54Z</time>
      </trkpt>
      <trkpt lat="42.488487018272281" lon="-6.375328022986651">
        <ele>1473</ele>
        <time>2018-05-22T11:09:59Z</time>
      </trkpt>
      <trkpt lat="42.488577039912343" lon="-6.375095006078482">
        <ele>1474</ele>
        <time>2018-05-22T11:10:05Z</time>
      </trkpt>
      <trkpt lat="42.488669995218515" lon="-6.374837011098862">
        <ele>1474</ele>
        <time>2018-05-22T11:10:11Z</time>
      </trkpt>
      <trkpt lat="42.488712994381785" lon="-6.374744977802038">
        <ele>1474</ele>
        <time>2018-05-22T11:10:13Z</time>
      </trkpt>
      <trkpt lat="42.488735960796475" lon="-6.374694015830755">
        <ele>1474</ele>
        <time>2018-05-22T11:10:15Z</time>
      </trkpt>
      <trkpt lat="42.488745013251901" lon="-6.37468202970922">
        <ele>1474</ele>
        <time>2018-05-22T11:10:15Z</time>
      </trkpt>
      <trkpt lat="42.48885196633637" lon="-6.374476002529264">
        <ele>1476</ele>
        <time>2018-05-22T11:10:20Z</time>
      </trkpt>
      <trkpt lat="42.488961014896631" lon="-6.374264024198055">
        <ele>1476</ele>
        <time>2018-05-22T11:10:26Z</time>
      </trkpt>
      <trkpt lat="42.48902496881783" lon="-6.374152963981032">
        <ele>1476</ele>
        <time>2018-05-22T11:10:29Z</time>
      </trkpt>
      <trkpt lat="42.489186991006136" lon="-6.373948026448488">
        <ele>1476</ele>
        <time>2018-05-22T11:10:36Z</time>
      </trkpt>
      <trkpt lat="42.489367034286261" lon="-6.373767983168364">
        <ele>1476</ele>
        <time>2018-05-22T11:10:42Z</time>
      </trkpt>
      <trkpt lat="42.489524027332664" lon="-6.373637979850173">
        <ele>1473</ele>
        <time>2018-05-22T11:10:48Z</time>
      </trkpt>
      <trkpt lat="42.489696023985744" lon="-6.373529015108943">
        <ele>1479</ele>
        <time>2018-05-22T11:10:53Z</time>
      </trkpt>
      <trkpt lat="42.489912025630474" lon="-6.373305972665548">
        <ele>1479</ele>
        <time>2018-05-22T11:11:01Z</time>
      </trkpt>
      <trkpt lat="42.490040017291903" lon="-6.372954016551375">
        <ele>1479</ele>
        <time>2018-05-22T11:11:10Z</time>
      </trkpt>
      <trkpt lat="42.490082010626793" lon="-6.37268302962184">
        <ele>1479</ele>
        <time>2018-05-22T11:11:16Z</time>
      </trkpt>
      <trkpt lat="42.489994000643492" lon="-6.372357979416847">
        <ele>1479</ele>
        <time>2018-05-22T11:11:24Z</time>
      </trkpt>
      <trkpt lat="42.489857962355018" lon="-6.372055979445577">
        <ele>1479</ele>
        <time>2018-05-22T11:11:31Z</time>
      </trkpt>
      <trkpt lat="42.489730976521969" lon="-6.371762026101351">
        <ele>1480</ele>
        <time>2018-05-22T11:11:39Z</time>
      </trkpt>
      <trkpt lat="42.489593010395765" lon="-6.3714399933815">
        <ele>1480</ele>
        <time>2018-05-22T11:11:47Z</time>
      </trkpt>
      <trkpt lat="42.489480022341013" lon="-6.371174035593867">
        <ele>1476</ele>
        <time>2018-05-22T11:11:53Z</time>
      </trkpt>
      <trkpt lat="42.489382959902287" lon="-6.370848985388875">
        <ele>1476</ele>
        <time>2018-05-22T11:12:01Z</time>
      </trkpt>
      <trkpt lat="42.489373991265893" lon="-6.370806992053986">
        <ele>1476</ele>
        <time>2018-05-22T11:12:02Z</time>
      </trkpt>
      <trkpt lat="42.489290004596114" lon="-6.370509015396237">
        <ele>1476</ele>
        <time>2018-05-22T11:12:09Z</time>
      </trkpt>
      <trkpt lat="42.489200988784432" lon="-6.370200980454683">
        <ele>1474</ele>
        <time>2018-05-22T11:12:16Z</time>
      </trkpt>
      <trkpt lat="42.489150026813149" lon="-6.369930999353528">
        <ele>1474</ele>
        <time>2018-05-22T11:12:22Z</time>
      </trkpt>
      <trkpt lat="42.489112978801131" lon="-6.369652971625328">
        <ele>1474</ele>
        <time>2018-05-22T11:12:28Z</time>
      </trkpt>
      <trkpt lat="42.48910803347826" lon="-6.369408974424005">
        <ele>1471</ele>
        <time>2018-05-22T11:12:34Z</time>
      </trkpt>
      <trkpt lat="42.489123037084937" lon="-6.369079984724522">
        <ele>1471</ele>
        <time>2018-05-22T11:12:41Z</time>
      </trkpt>
      <trkpt lat="42.489117002114654" lon="-6.368807991966605">
        <ele>1471</ele>
        <time>2018-05-22T11:12:47Z</time>
      </trkpt>
      <trkpt lat="42.489132005721331" lon="-6.368576986715198">
        <ele>1472</ele>
        <time>2018-05-22T11:12:52Z</time>
      </trkpt>
      <trkpt lat="42.489134017378092" lon="-6.368304993957281">
        <ele>1472</ele>
        <time>2018-05-22T11:12:58Z</time>
      </trkpt>
      <trkpt lat="42.489101998507977" lon="-6.368079017847776">
        <ele>1472</ele>
        <time>2018-05-22T11:13:03Z</time>
      </trkpt>
      <trkpt lat="42.489112978801131" lon="-6.367803001776338">
        <ele>1476</ele>
        <time>2018-05-22T11:13:09Z</time>
      </trkpt>
      <trkpt lat="42.489135023206472" lon="-6.367608960717917">
        <ele>1476</ele>
        <time>2018-05-22T11:13:13Z</time>
      </trkpt>
      <trkpt lat="42.489166036248207" lon="-6.367319030687213">
        <ele>1476</ele>
        <time>2018-05-22T11:13:20Z</time>
      </trkpt>
      <trkpt lat="42.489221021533012" lon="-6.367075033485889">
        <ele>1476</ele>
        <time>2018-05-22T11:13:25Z</time>
      </trkpt>
      <trkpt lat="42.489267038181424" lon="-6.366829024627805">
        <ele>1478</ele>
        <time>2018-05-22T11:13:31Z</time>
      </trkpt>
      <trkpt lat="42.489290004596114" lon="-6.366554014384747">
        <ele>1478</ele>
        <time>2018-05-22T11:13:37Z</time>
      </trkpt>
      <trkpt lat="42.489252034574747" lon="-6.36628101579845">
        <ele>1478</ele>
        <time>2018-05-22T11:13:43Z</time>
      </trkpt>
      <trkpt lat="42.489247005432844" lon="-6.366119999438524">
        <ele>1482</ele>
        <time>2018-05-22T11:13:46Z</time>
      </trkpt>
      <trkpt lat="42.489232001826167" lon="-6.365777011960745">
        <ele>1482</ele>
        <time>2018-05-22T11:13:54Z</time>
      </trkpt>
      <trkpt lat="42.489213980734348" lon="-6.36552999727428">
        <ele>1482</ele>
        <time>2018-05-22T11:13:59Z</time>
      </trkpt>
      <trkpt lat="42.489162012934685" lon="-6.365331010892987">
        <ele>1482</ele>
        <time>2018-05-22T11:14:04Z</time>
      </trkpt>
      <trkpt lat="42.48911096714437" lon="-6.365147028118372">
        <ele>1486</ele>
        <time>2018-05-22T11:14:08Z</time>
      </trkpt>
      <trkpt lat="42.489037038758397" lon="-6.364975031465292">
        <ele>1486</ele>
        <time>2018-05-22T11:14:12Z</time>
      </trkpt>
      <trkpt lat="42.488957997411489" lon="-6.364741008728743">
        <ele>1486</ele>
        <time>2018-05-22T11:14:18Z</time>
      </trkpt>
      <trkpt lat="42.488882979378104" lon="-6.364501034840941">
        <ele>1486</ele>
        <time>2018-05-22T11:14:24Z</time>
      </trkpt>
      <trkpt lat="42.488819025456905" lon="-6.364267012104392">
        <ele>1490</ele>
        <time>2018-05-22T11:14:29Z</time>
      </trkpt>
      <trkpt lat="42.48874300159514" lon="-6.364035001024604">
        <ele>1487</ele>
        <time>2018-05-22T11:14:35Z</time>
      </trkpt>
      <trkpt lat="42.488712994381785" lon="-6.363944979384542">
        <ele>1487</ele>
        <time>2018-05-22T11:14:37Z</time>
      </trkpt>
      <trkpt lat="42.488646022975445" lon="-6.363667035475373">
        <ele>1487</ele>
        <time>2018-05-22T11:14:43Z</time>
      </trkpt>
      <trkpt lat="42.488606963306665" lon="-6.363349026069045">
        <ele>1490</ele>
        <time>2018-05-22T11:14:50Z</time>
      </trkpt>
      <trkpt lat="42.488590031862259" lon="-6.363002015277743">
        <ele>1490</ele>
        <time>2018-05-22T11:14:58Z</time>
      </trkpt>
      <trkpt lat="42.488612998276949" lon="-6.362659027799964">
        <ele>1494</ele>
        <time>2018-05-22T11:15:05Z</time>
      </trkpt>
      <trkpt lat="42.48863697052002" lon="-6.362413018941879">
        <ele>1494</ele>
        <time>2018-05-22T11:15:11Z</time>
      </trkpt>
      <trkpt lat="42.488675024360418" lon="-6.362195005640388">
        <ele>1494</ele>
        <time>2018-05-22T11:15:16Z</time>
      </trkpt>
      <trkpt lat="42.488655997440219" lon="-6.362172961235046">
        <ele>1494</ele>
        <time>2018-05-22T11:15:16Z</time>
      </trkpt>
      <trkpt lat="42.488662032410502" lon="-6.361889988183975">
        <ele>1495</ele>
        <time>2018-05-22T11:15:23Z</time>
      </trkpt>
      <trkpt lat="42.48861400410533" lon="-6.361788986250758">
        <ele>1495</ele>
        <time>2018-05-22T11:15:25Z</time>
      </trkpt>
      <trkpt lat="42.488631019368768" lon="-6.361712040379643">
        <ele>1495</ele>
        <time>2018-05-22T11:15:27Z</time>
      </trkpt>
      <trkpt lat="42.488663038238883" lon="-6.361635010689497">
        <ele>1495</ele>
        <time>2018-05-22T11:15:29Z</time>
      </trkpt>
      <trkpt lat="42.488719029352069" lon="-6.361476005986333">
        <ele>1495</ele>
        <time>2018-05-22T11:15:33Z</time>
      </trkpt>
      <trkpt lat="42.488842997699976" lon="-6.361241983249784">
        <ele>1500</ele>
        <time>2018-05-22T11:15:39Z</time>
      </trkpt>
      <trkpt lat="42.488890020176768" lon="-6.361200995743275">
        <ele>1500</ele>
        <time>2018-05-22T11:15:41Z</time>
      </trkpt>
      <trkpt lat="42.488930001854897" lon="-6.361215999349952">
        <ele>1500</ele>
        <time>2018-05-22T11:15:42Z</time>
      </trkpt>
      <trkpt lat="42.488940982148051" lon="-6.361264027655125">
        <ele>1500</ele>
        <time>2018-05-22T11:15:43Z</time>
      </trkpt>
      <trkpt lat="42.489077020436525" lon="-6.361067974939942">
        <ele>1496</ele>
        <time>2018-05-22T11:15:49Z</time>
      </trkpt>
      <trkpt lat="42.489210041239858" lon="-6.36084602214396">
        <ele>1496</ele>
        <time>2018-05-22T11:15:55Z</time>
      </trkpt>
      <trkpt lat="42.489242982119322" lon="-6.360780978575349">
        <ele>1496</ele>
        <time>2018-05-22T11:15:57Z</time>
      </trkpt>
      <trkpt lat="42.489334009587765" lon="-6.360666984692216">
        <ele>1496</ele>
        <time>2018-05-22T11:16:01Z</time>
      </trkpt>
      <trkpt lat="42.489503994584084" lon="-6.360432961955667">
        <ele>1496</ele>
        <time>2018-05-22T11:16:08Z</time>
      </trkpt>
      <trkpt lat="42.489561997354031" lon="-6.36037303134799">
        <ele>1487</ele>
        <time>2018-05-22T11:16:10Z</time>
      </trkpt>
      <trkpt lat="42.489685965701938" lon="-6.360216038301587">
        <ele>1496</ele>
        <time>2018-05-22T11:16:15Z</time>
      </trkpt>
      <trkpt lat="42.489756038412452" lon="-6.360103972256184">
        <ele>1496</ele>
        <time>2018-05-22T11:16:18Z</time>
      </trkpt>
      <trkpt lat="42.489816974848509" lon="-6.360000958666205">
        <ele>1496</ele>
        <time>2018-05-22T11:16:21Z</time>
      </trkpt>
      <trkpt lat="42.489836001768708" lon="-6.35994496755302">
        <ele>1496</ele>
        <time>2018-05-22T11:16:22Z</time>
      </trkpt>
      <trkpt lat="42.489824015647173" lon="-6.359989978373051">
        <ele>1496</ele>
        <time>2018-05-22T11:16:23Z</time>
      </trkpt>
      <trkpt lat="42.489891992881894" lon="-6.359824016690254">
        <ele>1496</ele>
        <time>2018-05-22T11:16:28Z</time>
      </trkpt>
      <trkpt lat="42.490031970664859" lon="-6.35955797508359">
        <ele>1496</ele>
        <time>2018-05-22T11:16:35Z</time>
      </trkpt>
      <trkpt lat="42.490151999518275" lon="-6.359261004254222">
        <ele>1489</ele>
        <time>2018-05-22T11:16:42Z</time>
      </trkpt>
      <trkpt lat="42.490159040316939" lon="-6.359206018969417">
        <ele>1489</ele>
        <time>2018-05-22T11:16:43Z</time>
      </trkpt>
      <trkpt lat="42.490215031430125" lon="-6.35906302370131">
        <ele>1489</ele>
        <time>2018-05-22T11:16:47Z</time>
      </trkpt>
      <trkpt lat="42.490307986736298" lon="-6.358807040378451">
        <ele>1489</ele>
        <time>2018-05-22T11:16:53Z</time>
      </trkpt>
      <trkpt lat="42.490321984514594" lon="-6.358768986538053">
        <ele>1489</ele>
        <time>2018-05-22T11:16:54Z</time>
      </trkpt>
      <trkpt lat="42.490465985611081" lon="-6.358467992395163">
        <ele>1480</ele>
        <time>2018-05-22T11:17:02Z</time>
      </trkpt>
      <trkpt lat="42.490595988929272" lon="-6.358088962733746">
        <ele>1500</ele>
        <time>2018-05-22T11:17:11Z</time>
      </trkpt>
      <trkpt lat="42.490651980042458" lon="-6.357843959704042">
        <ele>1497</ele>
        <time>2018-05-22T11:17:16Z</time>
      </trkpt>
      <trkpt lat="42.490689028054476" lon="-6.357712028548122">
        <ele>1497</ele>
        <time>2018-05-22T11:17:20Z</time>
      </trkpt>
      <trkpt lat="42.490753987804055" lon="-6.357330987229943">
        <ele>1497</ele>
        <time>2018-05-22T11:17:28Z</time>
      </trkpt>
      <trkpt lat="42.490761028602719" lon="-6.357052037492394">
        <ele>1497</ele>
        <time>2018-05-22T11:17:34Z</time>
      </trkpt>
      <trkpt lat="42.490763962268829" lon="-6.35702496394515">
        <ele>1497</ele>
        <time>2018-05-22T11:17:35Z</time>
      </trkpt>
      <trkpt lat="42.490772008895874" lon="-6.356862019747496">
        <ele>1495</ele>
        <time>2018-05-22T11:17:38Z</time>
      </trkpt>
      <trkpt lat="42.490779971703887" lon="-6.356799993664026">
        <ele>1495</ele>
        <time>2018-05-22T11:17:40Z</time>
      </trkpt>
      <trkpt lat="42.490777038037777" lon="-6.356616010889411">
        <ele>1495</ele>
        <time>2018-05-22T11:17:44Z</time>
      </trkpt>
      <trkpt lat="42.490795981138945" lon="-6.356244022026658">
        <ele>1495</ele>
        <time>2018-05-22T11:17:52Z</time>
      </trkpt>
      <trkpt lat="42.490826994180679" lon="-6.355893993750215">
        <ele>1488</ele>
        <time>2018-05-22T11:18:00Z</time>
      </trkpt>
      <trkpt lat="42.490967977792025" lon="-6.355675980448723">
        <ele>1488</ele>
        <time>2018-05-22T11:18:06Z</time>
      </trkpt>
      <trkpt lat="42.491153972223401" lon="-6.355411028489471">
        <ele>1488</ele>
        <time>2018-05-22T11:18:14Z</time>
      </trkpt>
      <trkpt lat="42.4913439899683" lon="-6.355192009359598">
        <ele>1490</ele>
        <time>2018-05-22T11:18:21Z</time>
      </trkpt>
      <trkpt lat="42.491431999951601" lon="-6.355105005204678">
        <ele>1490</ele>
        <time>2018-05-22T11:18:25Z</time>
      </trkpt>
      <trkpt lat="42.491470975801349" lon="-6.355058988556266">
        <ele>1490</ele>
        <time>2018-05-22T11:18:26Z</time>
      </trkpt>
      <trkpt lat="42.491621011868119" lon="-6.354921022430062">
        <ele>1490</ele>
        <time>2018-05-22T11:18:31Z</time>
      </trkpt>
      <trkpt lat="42.491629980504513" lon="-6.354841981083155">
        <ele>1490</ele>
        <time>2018-05-22T11:18:33Z</time>
      </trkpt>
      <trkpt lat="42.491625035181642" lon="-6.354780038818717">
        <ele>1490</ele>
        <time>2018-05-22T11:18:35Z</time>
      </trkpt>
      <trkpt lat="42.491582036018372" lon="-6.354711977764964">
        <ele>1479</ele>
        <time>2018-05-22T11:18:37Z</time>
      </trkpt>
      <trkpt lat="42.491583041846752" lon="-6.354412995278835">
        <ele>1486</ele>
        <time>2018-05-22T11:18:43Z</time>
      </trkpt>
      <trkpt lat="42.491566026583314" lon="-6.354093980044127">
        <ele>1486</ele>
        <time>2018-05-22T11:18:50Z</time>
      </trkpt>
      <trkpt lat="42.491415990516543" lon="-6.353747975081205">
        <ele>1486</ele>
        <time>2018-05-22T11:18:59Z</time>
      </trkpt>
      <trkpt lat="42.491286993026733" lon="-6.353388978168368">
        <ele>1482</ele>
        <time>2018-05-22T11:19:08Z</time>
      </trkpt>
      <trkpt lat="42.49121499247849" lon="-6.353226033970714">
        <ele>1482</ele>
        <time>2018-05-22T11:19:12Z</time>
      </trkpt>
      <trkpt lat="42.491040984168649" lon="-6.353010032325983">
        <ele>1482</ele>
        <time>2018-05-22T11:19:19Z</time>
      </trkpt>
      <trkpt lat="42.490783995017409" lon="-6.35281297378242">
        <ele>1488</ele>
        <time>2018-05-22T11:19:28Z</time>
      </trkpt>
      <trkpt lat="42.490573022514582" lon="-6.352652963250876">
        <ele>1488</ele>
        <time>2018-05-22T11:19:35Z</time>
      </trkpt>
      <trkpt lat="42.490381998941302" lon="-6.352518014609814">
        <ele>1479</ele>
        <time>2018-05-22T11:19:41Z</time>
      </trkpt>
      <trkpt lat="42.490230035036802" lon="-6.352310981601477">
        <ele>1479</ele>
        <time>2018-05-22T11:19:47Z</time>
      </trkpt>
      <trkpt lat="42.490086033940315" lon="-6.352114006876946">
        <ele>1479</ele>
        <time>2018-05-22T11:19:54Z</time>
      </trkpt>
      <trkpt lat="42.490046974271536" lon="-6.352057009935379">
        <ele>1479</ele>
        <time>2018-05-22T11:19:55Z</time>
      </trkpt>
      <trkpt lat="42.490015961229801" lon="-6.352009987458587">
        <ele>1484</ele>
        <time>2018-05-22T11:19:57Z</time>
      </trkpt>
      <trkpt lat="42.490001041442156" lon="-6.35199498385191">
        <ele>1484</ele>
        <time>2018-05-22T11:19:57Z</time>
      </trkpt>
      <trkpt lat="42.489889981225133" lon="-6.351762972772121">
        <ele>1484</ele>
        <time>2018-05-22T11:20:03Z</time>
      </trkpt>
      <trkpt lat="42.489817980676889" lon="-6.351488968357444">
        <ele>1484</ele>
        <time>2018-05-22T11:20:10Z</time>
      </trkpt>
      <trkpt lat="42.489819992333651" lon="-6.351159978657961">
        <ele>1475</ele>
        <time>2018-05-22T11:20:17Z</time>
      </trkpt>
      <trkpt lat="42.489912025630474" lon="-6.350868036970496">
        <ele>1475</ele>
        <time>2018-05-22T11:20:24Z</time>
      </trkpt>
      <trkpt lat="42.490020990371704" lon="-6.350669972598553">
        <ele>1475</ele>
        <time>2018-05-22T11:20:29Z</time>
      </trkpt>
      <trkpt lat="42.490176977589726" lon="-6.350505016744137">
        <ele>1475</ele>
        <time>2018-05-22T11:20:35Z</time>
      </trkpt>
      <trkpt lat="42.490186030045152" lon="-6.350494958460331">
        <ele>1475</ele>
        <time>2018-05-22T11:20:35Z</time>
      </trkpt>
      <trkpt lat="42.490363977849483" lon="-6.350365960970521">
        <ele>1459</ele>
        <time>2018-05-22T11:20:41Z</time>
      </trkpt>
      <trkpt lat="42.490395996719599" lon="-6.35034198872745">
        <ele>1459</ele>
        <time>2018-05-22T11:20:42Z</time>
      </trkpt>
      <trkpt lat="42.490496998652816" lon="-6.350307958200574">
        <ele>1459</ele>
        <time>2018-05-22T11:20:45Z</time>
      </trkpt>
      <trkpt lat="42.490708976984024" lon="-6.350218020379543">
        <ele>1459</ele>
        <time>2018-05-22T11:20:52Z</time>
      </trkpt>
      <trkpt lat="42.490932019427419" lon="-6.350145014002919">
        <ele>1459</ele>
        <time>2018-05-22T11:20:59Z</time>
      </trkpt>
      <trkpt lat="42.490921039134264" lon="-6.350180972367525">
        <ele>1459</ele>
        <time>2018-05-22T11:21:00Z</time>
      </trkpt>
      <trkpt lat="42.490982981398702" lon="-6.350187007337809">
        <ele>1459</ele>
        <time>2018-05-22T11:21:01Z</time>
      </trkpt>
      <trkpt lat="42.491013994440436" lon="-6.350122969597578">
        <ele>1459</ele>
        <time>2018-05-22T11:21:03Z</time>
      </trkpt>
      <trkpt lat="42.491036038845778" lon="-6.350176027044654">
        <ele>1459</ele>
        <time>2018-05-22T11:21:05Z</time>
      </trkpt>
      <trkpt lat="42.491110973060131" lon="-6.350182984024286">
        <ele>1459</ele>
        <time>2018-05-22T11:21:07Z</time>
      </trkpt>
      <trkpt lat="42.491218009963632" lon="-6.350218020379543">
        <ele>1459</ele>
        <time>2018-05-22T11:21:10Z</time>
      </trkpt>
      <trkpt lat="42.491414984688163" lon="-6.350302007049322">
        <ele>1459</ele>
        <time>2018-05-22T11:21:16Z</time>
      </trkpt>
      <trkpt lat="42.491593016311526" lon="-6.350308964028955">
        <ele>1459</ele>
        <time>2018-05-22T11:21:21Z</time>
      </trkpt>
      <trkpt lat="42.491786973550916" lon="-6.350223971530795">
        <ele>1459</ele>
        <time>2018-05-22T11:21:27Z</time>
      </trkpt>
      <trkpt lat="42.491810023784637" lon="-6.350209973752499">
        <ele>1459</ele>
        <time>2018-05-22T11:21:28Z</time>
      </trkpt>
      <trkpt lat="42.491865009069443" lon="-6.350074019283056">
        <ele>1459</ele>
        <time>2018-05-22T11:21:32Z</time>
      </trkpt>
      <trkpt lat="42.491891998797655" lon="-6.349899005144835">
        <ele>1459</ele>
        <time>2018-05-22T11:21:36Z</time>
      </trkpt>
      <trkpt lat="42.491896022111177" lon="-6.349843014031649">
        <ele>1459</ele>
        <time>2018-05-22T11:21:37Z</time>
      </trkpt>
      <trkpt lat="42.491932986304164" lon="-6.349617959931493">
        <ele>1459</ele>
        <time>2018-05-22T11:21:42Z</time>
      </trkpt>
      <trkpt lat="42.491997024044394" lon="-6.349391983821988">
        <ele>1448</ele>
        <time>2018-05-22T11:21:47Z</time>
      </trkpt>
      <trkpt lat="42.49205301515758" lon="-6.349184028804302">
        <ele>1448</ele>
        <time>2018-05-22T11:21:52Z</time>
      </trkpt>
      <trkpt lat="42.492070030421019" lon="-6.348947994410992">
        <ele>1448</ele>
        <time>2018-05-22T11:21:58Z</time>
      </trkpt>
      <trkpt lat="42.492108000442386" lon="-6.348631996661425">
        <ele>1437</ele>
        <time>2018-05-22T11:22:05Z</time>
      </trkpt>
      <trkpt lat="42.492156028747559" lon="-6.348523031920195">
        <ele>1450</ele>
        <time>2018-05-22T11:22:07Z</time>
      </trkpt>
      <trkpt lat="42.492277985438704" lon="-6.348261013627052">
        <ele>1450</ele>
        <time>2018-05-22T11:22:14Z</time>
      </trkpt>
      <trkpt lat="42.492328025400639" lon="-6.348110977560282">
        <ele>1450</ele>
        <time>2018-05-22T11:22:18Z</time>
      </trkpt>
      <trkpt lat="42.492393990978599" lon="-6.347861029207707">
        <ele>1445</ele>
        <time>2018-05-22T11:22:24Z</time>
      </trkpt>
      <trkpt lat="42.492451993748546" lon="-6.347535979002714">
        <ele>1445</ele>
        <time>2018-05-22T11:22:31Z</time>
      </trkpt>
      <trkpt lat="42.492511002346873" lon="-6.347216963768005">
        <ele>1445</ele>
        <time>2018-05-22T11:22:38Z</time>
      </trkpt>
      <trkpt lat="42.492575040087104" lon="-6.346879005432129">
        <ele>1441</ele>
        <time>2018-05-22T11:22:46Z</time>
      </trkpt>
      <trkpt lat="42.492615021765232" lon="-6.346597960218787">
        <ele>1441</ele>
        <time>2018-05-22T11:22:52Z</time>
      </trkpt>
      <trkpt lat="42.492661038413644" lon="-6.346329990774393">
        <ele>1441</ele>
        <time>2018-05-22T11:22:58Z</time>
      </trkpt>
      <trkpt lat="42.492658020928502" lon="-6.346039976924658">
        <ele>1439</ele>
        <time>2018-05-22T11:23:04Z</time>
      </trkpt>
      <trkpt lat="42.492620972916484" lon="-6.345749041065574">
        <ele>1439</ele>
        <time>2018-05-22T11:23:11Z</time>
      </trkpt>
      <trkpt lat="42.492561964318156" lon="-6.345457015559077">
        <ele>1439</ele>
        <time>2018-05-22T11:23:17Z</time>
      </trkpt>
      <trkpt lat="42.492489041760564" lon="-6.345199020579457">
        <ele>1441</ele>
        <time>2018-05-22T11:23:23Z</time>
      </trkpt>
      <trkpt lat="42.492377981543541" lon="-6.344972960650921">
        <ele>1441</ele>
        <time>2018-05-22T11:23:29Z</time>
      </trkpt>
      <trkpt lat="42.492316039279103" lon="-6.344838012009859">
        <ele>1441</ele>
        <time>2018-05-22T11:23:33Z</time>
      </trkpt>
      <trkpt lat="42.492232974618673" lon="-6.344681018963456">
        <ele>1441</ele>
        <time>2018-05-22T11:23:37Z</time>
      </trkpt>
      <trkpt lat="42.492150999605656" lon="-6.344468034803867">
        <ele>1444</ele>
        <time>2018-05-22T11:23:42Z</time>
      </trkpt>
      <trkpt lat="42.492040023207664" lon="-6.344250021502376">
        <ele>1434</ele>
        <time>2018-05-22T11:23:48Z</time>
      </trkpt>
      <trkpt lat="42.491942038759589" lon="-6.344105014577508">
        <ele>1434</ele>
        <time>2018-05-22T11:23:52Z</time>
      </trkpt>
      <trkpt lat="42.491872971877456" lon="-6.343930000439286">
        <ele>1434</ele>
        <time>2018-05-22T11:23:56Z</time>
      </trkpt>
      <trkpt lat="42.491870038211346" lon="-6.343918014317751">
        <ele>1434</ele>
        <time>2018-05-22T11:23:57Z</time>
      </trkpt>
      <trkpt lat="42.491841036826372" lon="-6.343648033216596">
        <ele>1434</ele>
        <time>2018-05-22T11:24:03Z</time>
      </trkpt>
      <trkpt lat="42.49183801934123" lon="-6.34363504126668">
        <ele>1434</ele>
        <time>2018-05-22T11:24:03Z</time>
      </trkpt>
      <trkpt lat="42.49179401434958" lon="-6.343474024906755">
        <ele>1434</ele>
        <time>2018-05-22T11:24:07Z</time>
      </trkpt>
      <trkpt lat="42.491771969944239" lon="-6.343425996601582">
        <ele>1434</ele>
        <time>2018-05-22T11:24:08Z</time>
      </trkpt>
      <trkpt lat="42.491724025458097" lon="-6.343376040458679">
        <ele>1434</ele>
        <time>2018-05-22T11:24:10Z</time>
      </trkpt>
      <trkpt lat="42.491739029064775" lon="-6.343352990224958">
        <ele>1434</ele>
        <time>2018-05-22T11:24:10Z</time>
      </trkpt>
      <trkpt lat="42.491714973002672" lon="-6.343198008835316">
        <ele>1434</ele>
        <time>2018-05-22T11:24:14Z</time>
      </trkpt>
      <trkpt lat="42.491683959960937" lon="-6.343073034659028">
        <ele>1434</ele>
        <time>2018-05-22T11:24:17Z</time>
      </trkpt>
      <trkpt lat="42.491625035181642" lon="-6.342999022454023">
        <ele>1434</ele>
        <time>2018-05-22T11:24:19Z</time>
      </trkpt>
      <trkpt lat="42.491502994671464" lon="-6.342901960015297">
        <ele>1434</ele>
        <time>2018-05-22T11:24:23Z</time>
      </trkpt>
      <trkpt lat="42.491413978859782" lon="-6.342770028859377">
        <ele>1432</ele>
        <time>2018-05-22T11:24:27Z</time>
      </trkpt>
      <trkpt lat="42.491349019110203" lon="-6.342684030532837">
        <ele>1432</ele>
        <time>2018-05-22T11:24:30Z</time>
      </trkpt>
      <trkpt lat="42.491320017725229" lon="-6.342646982520819">
        <ele>1432</ele>
        <time>2018-05-22T11:24:31Z</time>
      </trkpt>
      <trkpt lat="42.491241982206702" lon="-6.34254002943635">
        <ele>1423</ele>
        <time>2018-05-22T11:24:34Z</time>
      </trkpt>
      <trkpt lat="42.491148021072149" lon="-6.342437015846372">
        <ele>1423.2</ele>
        <time>2018-05-23T06:00:00Z</time>
      </trkpt>
      <trkpt lat="42.491019023582339" lon="-6.342180026695132">
        <ele>1421.0999999999999</ele>
        <time>2018-05-23T06:00:06Z</time>
      </trkpt>
      <trkpt lat="42.490890026092529" lon="-6.341578960418701">
        <ele>1418.5</ele>
        <time>2018-05-23T06:00:20Z</time>
      </trkpt>
      <trkpt lat="42.490868987515569" lon="-6.341257011517882">
        <ele>1417.7</ele>
        <time>2018-05-23T06:00:27Z</time>
      </trkpt>
      <trkpt lat="42.490804027765989" lon="-6.340505992993712">
        <ele>1416.0999999999999</ele>
        <time>2018-05-23T06:00:44Z</time>
      </trkpt>
      <trkpt lat="42.490825988352299" lon="-6.340034008026123">
        <ele>1414.4000000000001</ele>
        <time>2018-05-23T06:00:54Z</time>
      </trkpt>
      <trkpt lat="42.490782989189029" lon="-6.339797973632813">
        <ele>1413.2</ele>
        <time>2018-05-23T06:00:59Z</time>
      </trkpt>
      <trkpt lat="42.490804027765989" lon="-6.339497985318303">
        <ele>1412</ele>
        <time>2018-05-23T06:01:06Z</time>
      </trkpt>
      <trkpt lat="42.490739990025759" lon="-6.339368987828493">
        <ele>1411.3</ele>
        <time>2018-05-23T06:01:09Z</time>
      </trkpt>
      <trkpt lat="42.490782989189029" lon="-6.339110992848873">
        <ele>1410.4000000000001</ele>
        <time>2018-05-23T06:01:15Z</time>
      </trkpt>
      <trkpt lat="42.490804027765989" lon="-6.339004039764404">
        <ele>1410</ele>
        <time>2018-05-23T06:01:17Z</time>
      </trkpt>
      <trkpt lat="42.490761028602719" lon="-6.338639007881284">
        <ele>1407.9000000000001</ele>
        <time>2018-05-23T06:01:26Z</time>
      </trkpt>
      <trkpt lat="42.490696990862489" lon="-6.338359974324703">
        <ele>1405.2</ele>
        <time>2018-05-23T06:01:32Z</time>
      </trkpt>
      <trkpt lat="42.490610992535949" lon="-6.337781036272645">
        <ele>1399.5999999999999</ele>
        <time>2018-05-23T06:01:45Z</time>
      </trkpt>
      <trkpt lat="42.490567993372679" lon="-6.337502002716065">
        <ele>1396.8</ele>
        <time>2018-05-23T06:01:51Z</time>
      </trkpt>
      <trkpt lat="42.49054703861475" lon="-6.337287006899715">
        <ele>1394.8</ele>
        <time>2018-05-23T06:01:56Z</time>
      </trkpt>
      <trkpt lat="42.490524994209409" lon="-6.336901020258665">
        <ele>1391.5999999999999</ele>
        <time>2018-05-23T06:02:05Z</time>
      </trkpt>
      <trkpt lat="42.49054703861475" lon="-6.336772022768855">
        <ele>1391.2</ele>
        <time>2018-05-23T06:02:07Z</time>
      </trkpt>
      <trkpt lat="42.490696990862489" lon="-6.336193000897765">
        <ele>1390.2</ele>
        <time>2018-05-23T06:02:21Z</time>
      </trkpt>
      <trkpt lat="42.490825988352299" lon="-6.335678016766906">
        <ele>1388.0999999999999</ele>
        <time>2018-05-23T06:02:33Z</time>
      </trkpt>
      <trkpt lat="42.491254974156618" lon="-6.334926998242736">
        <ele>1387.7</ele>
        <time>2018-05-23T06:02:54Z</time>
      </trkpt>
      <trkpt lat="42.491297973319888" lon="-6.334819961339235">
        <ele>1386.9000000000001</ele>
        <time>2018-05-23T06:02:56Z</time>
      </trkpt>
      <trkpt lat="42.491340972483158" lon="-6.334584010764957">
        <ele>1384.8</ele>
        <time>2018-05-23T06:03:02Z</time>
      </trkpt>
      <trkpt lat="42.491125976666808" lon="-6.334112025797367">
        <ele>1381.0999999999999</ele>
        <time>2018-05-23T06:03:14Z</time>
      </trkpt>
      <trkpt lat="42.491039978340268" lon="-6.334003983065486">
        <ele>1379.7</ele>
        <time>2018-05-23T06:03:17Z</time>
      </trkpt>
      <trkpt lat="42.490804027765989" lon="-6.333789993077517">
        <ele>1376.2</ele>
        <time>2018-05-23T06:03:26Z</time>
      </trkpt>
      <trkpt lat="42.490331958979368" lon="-6.333338962867856">
        <ele>1371.0999999999999</ele>
        <time>2018-05-23T06:03:43Z</time>
      </trkpt>
      <trkpt lat="42.489967010915279" lon="-6.332846023142338">
        <ele>1367.2</ele>
        <time>2018-05-23T06:03:58Z</time>
      </trkpt>
      <trkpt lat="42.489473987370729" lon="-6.332072960212827">
        <ele>1361.4000000000001</ele>
        <time>2018-05-23T06:04:21Z</time>
      </trkpt>
      <trkpt lat="42.489238036796451" lon="-6.331537021324039">
        <ele>1359.8</ele>
        <time>2018-05-23T06:04:34Z</time>
      </trkpt>
      <trkpt lat="42.489129994064569" lon="-6.331128990277648">
        <ele>1358.5</ele>
        <time>2018-05-23T06:04:44Z</time>
      </trkpt>
      <trkpt lat="42.48908800072968" lon="-6.330614006146789">
        <ele>1356.5</ele>
        <time>2018-05-23T06:04:55Z</time>
      </trkpt>
      <trkpt lat="42.489129994064569" lon="-6.330099022015929">
        <ele>1356.2</ele>
        <time>2018-05-23T06:05:06Z</time>
      </trkpt>
      <trkpt lat="42.489172993227839" lon="-6.329562999308109">
        <ele>1355.5</ele>
        <time>2018-05-23T06:05:18Z</time>
      </trkpt>
      <trkpt lat="42.489258991554379" lon="-6.32900501601398">
        <ele>1352.3</ele>
        <time>2018-05-23T06:05:31Z</time>
      </trkpt>
      <trkpt lat="42.489344989880919" lon="-6.328811980783939">
        <ele>1352.4000000000001</ele>
        <time>2018-05-23T06:05:36Z</time>
      </trkpt>
      <trkpt lat="42.489367034286261" lon="-6.328768981620669">
        <ele>1352.5</ele>
        <time>2018-05-23T06:05:37Z</time>
      </trkpt>
      <trkpt lat="42.489516986533999" lon="-6.328490031883121">
        <ele>1351.5</ele>
        <time>2018-05-23T06:05:44Z</time>
      </trkpt>
      <trkpt lat="42.4896240234375" lon="-6.32833999581635">
        <ele>1351.5</ele>
        <time>2018-05-23T06:05:49Z</time>
      </trkpt>
      <trkpt lat="42.489902973175049" lon="-6.32795300334692">
        <ele>1351.0999999999999</ele>
        <time>2018-05-23T06:06:01Z</time>
      </trkpt>
      <trkpt lat="42.490288959816098" lon="-6.32767396979034">
        <ele>1353.2</ele>
        <time>2018-05-23T06:06:14Z</time>
      </trkpt>
      <trkpt lat="42.490804027765989" lon="-6.32728798314929">
        <ele>1352.3</ele>
        <time>2018-05-23T06:06:31Z</time>
      </trkpt>
      <trkpt lat="42.491276012733579" lon="-6.326944995671511">
        <ele>1350.7</ele>
        <time>2018-05-23T06:06:47Z</time>
      </trkpt>
      <trkpt lat="42.491362011060119" lon="-6.32683795876801">
        <ele>1350</ele>
        <time>2018-05-23T06:06:50Z</time>
      </trkpt>
      <trkpt lat="42.491425964981318" lon="-6.32675196044147">
        <ele>1349.3</ele>
        <time>2018-05-23T06:06:53Z</time>
      </trkpt>
      <trkpt lat="42.491297973319888" lon="-6.325592994689941">
        <ele>1333.3</ele>
        <time>2018-05-23T06:07:19Z</time>
      </trkpt>
      <trkpt lat="42.491019023582339" lon="-6.324477028101683">
        <ele>1323.8</ele>
        <time>2018-05-23T06:07:45Z</time>
      </trkpt>
      <trkpt lat="42.490653991699219" lon="-6.323512019589543">
        <ele>1320.0999999999999</ele>
        <time>2018-05-23T06:08:09Z</time>
      </trkpt>
      <trkpt lat="42.490395996719599" lon="-6.323168026283383">
        <ele>1317.2</ele>
        <time>2018-05-23T06:08:19Z</time>
      </trkpt>
      <trkpt lat="42.489924011752009" lon="-6.322566960006952">
        <ele>1313.2</ele>
        <time>2018-05-23T06:08:39Z</time>
      </trkpt>
      <trkpt lat="42.48988201841712" lon="-6.322481967508793">
        <ele>1313.0999999999999</ele>
        <time>2018-05-23T06:08:41Z</time>
      </trkpt>
      <trkpt lat="42.489859974011779" lon="-6.322460006922483">
        <ele>1312.8</ele>
        <time>2018-05-23T06:08:42Z</time>
      </trkpt>
      <trkpt lat="42.489644978195429" lon="-6.321859024465084">
        <ele>1311.5999999999999</ele>
        <time>2018-05-23T06:08:56Z</time>
      </trkpt>
      <trkpt lat="42.4896240234375" lon="-6.321751987561584">
        <ele>1311.3</ele>
        <time>2018-05-23T06:08:59Z</time>
      </trkpt>
      <trkpt lat="42.48958102427423" lon="-6.321258964017034">
        <ele>1310.9000000000001</ele>
        <time>2018-05-23T06:09:10Z</time>
      </trkpt>
      <trkpt lat="42.4896240234375" lon="-6.320808017626405">
        <ele>1310.4000000000001</ele>
        <time>2018-05-23T06:09:19Z</time>
      </trkpt>
      <trkpt lat="42.489730976521969" lon="-6.320121036842465">
        <ele>1308.8</ele>
        <time>2018-05-23T06:09:35Z</time>
      </trkpt>
      <trkpt lat="42.48979602009058" lon="-6.320013999938965">
        <ele>1309.4000000000001</ele>
        <time>2018-05-23T06:09:38Z</time>
      </trkpt>
      <trkpt lat="42.489816974848509" lon="-6.319949962198734">
        <ele>1309.3</ele>
        <time>2018-05-23T06:09:39Z</time>
      </trkpt>
      <trkpt lat="42.489988971501589" lon="-6.319605968892574">
        <ele>1310.4000000000001</ele>
        <time>2018-05-23T06:09:48Z</time>
      </trkpt>
      <trkpt lat="42.489945972338319" lon="-6.319391978904605">
        <ele>1308.5</ele>
        <time>2018-05-23T06:09:53Z</time>
      </trkpt>
      <trkpt lat="42.489687977358699" lon="-6.319070030003786">
        <ele>1301.2</ele>
        <time>2018-05-23T06:10:04Z</time>
      </trkpt>
      <trkpt lat="42.489324035122991" lon="-6.318747997283936">
        <ele>1293</ele>
        <time>2018-05-23T06:10:17Z</time>
      </trkpt>
      <trkpt lat="42.489238036796451" lon="-6.318683959543705">
        <ele>1291.8</ele>
        <time>2018-05-23T06:10:20Z</time>
      </trkpt>
      <trkpt lat="42.48895900323987" lon="-6.318276012316346">
        <ele>1289.3</ele>
        <time>2018-05-23T06:10:32Z</time>
      </trkpt>
      <trkpt lat="42.488487018272281" lon="-6.317589031532407">
        <ele>1286</ele>
        <time>2018-05-23T06:10:53Z</time>
      </trkpt>
      <trkpt lat="42.48833698220551" lon="-6.317352997139096">
        <ele>1284.9000000000001</ele>
        <time>2018-05-23T06:10:59Z</time>
      </trkpt>
      <trkpt lat="42.4882079847157" lon="-6.316967010498047">
        <ele>1284.3</ele>
        <time>2018-05-23T06:11:09Z</time>
      </trkpt>
      <trkpt lat="42.488101031631231" lon="-6.316472981125116">
        <ele>1282.5</ele>
        <time>2018-05-23T06:11:20Z</time>
      </trkpt>
      <trkpt lat="42.48790699057281" lon="-6.315658008679748">
        <ele>1278.0999999999999</ele>
        <time>2018-05-23T06:11:39Z</time>
      </trkpt>
      <trkpt lat="42.487886035814881" lon="-6.315444018691778">
        <ele>1277.3</ele>
        <time>2018-05-23T06:11:43Z</time>
      </trkpt>
      <trkpt lat="42.48790699057281" lon="-6.315272022038698">
        <ele>1276.7</ele>
        <time>2018-05-23T06:11:47Z</time>
      </trkpt>
      <trkpt lat="42.488186024129391" lon="-6.314650001004338">
        <ele>1278.9000000000001</ele>
        <time>2018-05-23T06:12:03Z</time>
      </trkpt>
      <trkpt lat="42.488229023292661" lon="-6.314541958272457">
        <ele>1279.4000000000001</ele>
        <time>2018-05-23T06:12:06Z</time>
      </trkpt>
      <trkpt lat="42.48825098387897" lon="-6.314413966611028">
        <ele>1279.5</ele>
        <time>2018-05-23T06:12:09Z</time>
      </trkpt>
      <trkpt lat="42.488272022455931" lon="-6.314241969957948">
        <ele>1279.5</ele>
        <time>2018-05-23T06:12:13Z</time>
      </trkpt>
      <trkpt lat="42.48833698220551" lon="-6.314220009371638">
        <ele>1280.8</ele>
        <time>2018-05-23T06:12:15Z</time>
      </trkpt>
      <trkpt lat="42.488401019945741" lon="-6.314178016036749">
        <ele>1281.9000000000001</ele>
        <time>2018-05-23T06:12:17Z</time>
      </trkpt>
      <trkpt lat="42.488358020782471" lon="-6.314135016873479">
        <ele>1280.9000000000001</ele>
        <time>2018-05-23T06:12:18Z</time>
      </trkpt>
      <trkpt lat="42.488315021619201" lon="-6.314155971631408">
        <ele>1280.0999999999999</ele>
        <time>2018-05-23T06:12:20Z</time>
      </trkpt>
      <trkpt lat="42.488272022455931" lon="-6.314198970794678">
        <ele>1279.4000000000001</ele>
        <time>2018-05-23T06:12:21Z</time>
      </trkpt>
      <trkpt lat="42.48825098387897" lon="-6.314220009371638">
        <ele>1279</ele>
        <time>2018-05-23T06:12:22Z</time>
      </trkpt>
      <trkpt lat="42.48790699057281" lon="-6.313683986663818">
        <ele>1272.2</ele>
        <time>2018-05-23T06:12:38Z</time>
      </trkpt>
      <trkpt lat="42.487778998911381" lon="-6.31357703357935">
        <ele>1270.5999999999999</ele>
        <time>2018-05-23T06:12:42Z</time>
      </trkpt>
      <trkpt lat="42.487757038325071" lon="-6.313554989174008">
        <ele>1270.3</ele>
        <time>2018-05-23T06:12:43Z</time>
      </trkpt>
      <trkpt lat="42.487478004768491" lon="-6.313298000022769">
        <ele>1267.0999999999999</ele>
        <time>2018-05-23T06:12:53Z</time>
      </trkpt>
      <trkpt lat="42.48737096786499" lon="-6.313212001696229">
        <ele>1265.8</ele>
        <time>2018-05-23T06:12:57Z</time>
      </trkpt>
      <trkpt lat="42.487307013943791" lon="-6.313147963955998">
        <ele>1265.2</ele>
        <time>2018-05-23T06:12:59Z</time>
      </trkpt>
      <trkpt lat="42.48724197037518" lon="-6.313061965629458">
        <ele>1264.5999999999999</ele>
        <time>2018-05-23T06:13:02Z</time>
      </trkpt>
      <trkpt lat="42.487178016453981" lon="-6.312975967302918">
        <ele>1264.2</ele>
        <time>2018-05-23T06:13:04Z</time>
      </trkpt>
      <trkpt lat="42.486855983734131" lon="-6.31256802007556">
        <ele>1262.0999999999999</ele>
        <time>2018-05-23T06:13:18Z</time>
      </trkpt>
      <trkpt lat="42.486769985407591" lon="-6.312417984008789">
        <ele>1261.9000000000001</ele>
        <time>2018-05-23T06:13:22Z</time>
      </trkpt>
      <trkpt lat="42.486726986244321" lon="-6.312374984845519">
        <ele>1261.5</ele>
        <time>2018-05-23T06:13:23Z</time>
      </trkpt>
      <trkpt lat="42.486683987081051" lon="-6.312288986518979">
        <ele>1261.4000000000001</ele>
        <time>2018-05-23T06:13:26Z</time>
      </trkpt>
      <trkpt lat="42.486534034833312" lon="-6.31207499653101">
        <ele>1260.5</ele>
        <time>2018-05-23T06:13:32Z</time>
      </trkpt>
      <trkpt lat="42.486298000440001" lon="-6.31168800406158">
        <ele>1258.5999999999999</ele>
        <time>2018-05-23T06:13:43Z</time>
      </trkpt>
      <trkpt lat="42.486147964373231" lon="-6.31110898219049">
        <ele>1258</ele>
        <time>2018-05-23T06:13:56Z</time>
      </trkpt>
      <trkpt lat="42.486041011288762" lon="-6.3105299603194">
        <ele>1255.4000000000001</ele>
        <time>2018-05-23T06:14:09Z</time>
      </trkpt>
      <trkpt lat="42.486084010452032" lon="-6.309822024777532">
        <ele>1254</ele>
        <time>2018-05-23T06:14:25Z</time>
      </trkpt>
      <trkpt lat="42.486104965209961" lon="-6.309542991220951">
        <ele>1253.2</ele>
        <time>2018-05-23T06:14:31Z</time>
      </trkpt>
      <trkpt lat="42.486169002950191" lon="-6.309220958501101">
        <ele>1251.3</ele>
        <time>2018-05-23T06:14:38Z</time>
      </trkpt>
      <trkpt lat="42.486319961026311" lon="-6.308962963521481">
        <ele>1250.9000000000001</ele>
        <time>2018-05-23T06:14:46Z</time>
      </trkpt>
      <trkpt lat="42.486877022311091" lon="-6.308513022959232">
        <ele>1251.5999999999999</ele>
        <time>2018-05-23T06:15:05Z</time>
      </trkpt>
      <trkpt lat="42.48732796870172" lon="-6.308233989402652">
        <ele>1252.7</ele>
        <time>2018-05-23T06:15:20Z</time>
      </trkpt>
      <trkpt lat="42.48741396702826" lon="-6.308084037154913">
        <ele>1251.5</ele>
        <time>2018-05-23T06:15:24Z</time>
      </trkpt>
      <trkpt lat="42.487564003095031" lon="-6.307461010292172">
        <ele>1246.0999999999999</ele>
        <time>2018-05-23T06:15:38Z</time>
      </trkpt>
      <trkpt lat="42.48754296451807" lon="-6.307010985910893">
        <ele>1241.4000000000001</ele>
        <time>2018-05-23T06:15:48Z</time>
      </trkpt>
      <trkpt lat="42.4874999653548" lon="-6.306795990094543">
        <ele>1239.5999999999999</ele>
        <time>2018-05-23T06:15:53Z</time>
      </trkpt>
      <trkpt lat="42.487478004768491" lon="-6.306795990094543">
        <ele>1239.2</ele>
        <time>2018-05-23T06:15:54Z</time>
      </trkpt>
      <trkpt lat="42.487435005605221" lon="-6.306795990094543">
        <ele>1238.5</ele>
        <time>2018-05-23T06:15:55Z</time>
      </trkpt>
      <trkpt lat="42.487392006441951" lon="-6.306818034499884">
        <ele>1237.8</ele>
        <time>2018-05-23T06:15:56Z</time>
      </trkpt>
      <trkpt lat="42.487350013107061" lon="-6.306603038683534">
        <ele>1236</ele>
        <time>2018-05-23T06:16:01Z</time>
      </trkpt>
      <trkpt lat="42.487221015617251" lon="-6.306302966549993">
        <ele>1231.9000000000001</ele>
        <time>2018-05-23T06:16:09Z</time>
      </trkpt>
      <trkpt lat="42.486877022311091" lon="-6.305766021832824">
        <ele>1227</ele>
        <time>2018-05-23T06:16:24Z</time>
      </trkpt>
      <trkpt lat="42.486405037343502" lon="-6.305144000798464">
        <ele>1220.2</ele>
        <time>2018-05-23T06:16:44Z</time>
      </trkpt>
      <trkpt lat="42.486276961863041" lon="-6.304821968078613">
        <ele>1218.3</ele>
        <time>2018-05-23T06:16:52Z</time>
      </trkpt>
      <trkpt lat="42.486255001276731" lon="-6.304801013320684">
        <ele>1217.8</ele>
        <time>2018-05-23T06:16:53Z</time>
      </trkpt>
      <trkpt lat="42.485998012125492" lon="-6.304114032536745">
        <ele>1213.9000000000001</ele>
        <time>2018-05-23T06:17:10Z</time>
      </trkpt>
      <trkpt lat="42.485932968556881" lon="-6.303899036720395">
        <ele>1213.2</ele>
        <time>2018-05-23T06:17:15Z</time>
      </trkpt>
      <trkpt lat="42.485783016309142" lon="-6.303492011502385">
        <ele>1211</ele>
        <time>2018-05-23T06:17:25Z</time>
      </trkpt>
      <trkpt lat="42.485632980242372" lon="-6.303020026534796">
        <ele>1209.0999999999999</ele>
        <time>2018-05-23T06:17:36Z</time>
      </trkpt>
      <trkpt lat="42.485589981079102" lon="-6.302868984639645">
        <ele>1208.5999999999999</ele>
        <time>2018-05-23T06:17:40Z</time>
      </trkpt>
      <trkpt lat="42.485483027994633" lon="-6.302461959421635">
        <ele>1206.5</ele>
        <time>2018-05-23T06:17:49Z</time>
      </trkpt>
      <trkpt lat="42.485397029668093" lon="-6.302183009684086">
        <ele>1204.7</ele>
        <time>2018-05-23T06:17:56Z</time>
      </trkpt>
      <trkpt lat="42.485374985262752" lon="-6.302097011357546">
        <ele>1204.3</ele>
        <time>2018-05-23T06:17:58Z</time>
      </trkpt>
      <trkpt lat="42.485331986099482" lon="-6.302011013031006">
        <ele>1203.7</ele>
        <time>2018-05-23T06:18:00Z</time>
      </trkpt>
      <trkpt lat="42.485311031341553" lon="-6.301925014704466">
        <ele>1203.4000000000001</ele>
        <time>2018-05-23T06:18:02Z</time>
      </trkpt>
      <trkpt lat="42.485289992764592" lon="-6.301882015541196">
        <ele>1203.2</ele>
        <time>2018-05-23T06:18:03Z</time>
      </trkpt>
      <trkpt lat="42.485246993601322" lon="-6.301774978637695">
        <ele>1202.5999999999999</ele>
        <time>2018-05-23T06:18:06Z</time>
      </trkpt>
      <trkpt lat="42.485225033015013" lon="-6.301668025553227">
        <ele>1202.4000000000001</ele>
        <time>2018-05-23T06:18:08Z</time>
      </trkpt>
      <trkpt lat="42.485117996111512" lon="-6.301324032247067">
        <ele>1201.2</ele>
        <time>2018-05-23T06:18:16Z</time>
      </trkpt>
      <trkpt lat="42.484988998621702" lon="-6.301087997853756">
        <ele>1199.8</ele>
        <time>2018-05-23T06:18:23Z</time>
      </trkpt>
      <trkpt lat="42.484945999458432" lon="-6.301023960113525">
        <ele>1199.4000000000001</ele>
        <time>2018-05-23T06:18:25Z</time>
      </trkpt>
      <trkpt lat="42.484924960881472" lon="-6.300960006192327">
        <ele>1199.2</ele>
        <time>2018-05-23T06:18:26Z</time>
      </trkpt>
      <trkpt lat="42.484838962554932" lon="-6.300788009539247">
        <ele>1198.5</ele>
        <time>2018-05-23T06:18:31Z</time>
      </trkpt>
      <trkpt lat="42.484795963391662" lon="-6.300723971799016">
        <ele>1198</ele>
        <time>2018-05-23T06:18:33Z</time>
      </trkpt>
      <trkpt lat="42.484666965901852" lon="-6.300508975982666">
        <ele>1196.9000000000001</ele>
        <time>2018-05-23T06:18:39Z</time>
      </trkpt>
      <trkpt lat="42.484431015327573" lon="-6.300079990178347">
        <ele>1195.5999999999999</ele>
        <time>2018-05-23T06:18:50Z</time>
      </trkpt>
      <trkpt lat="42.484217025339603" lon="-6.299758041277528">
        <ele>1194.2</ele>
        <time>2018-05-23T06:19:00Z</time>
      </trkpt>
      <trkpt lat="42.483851993456483" lon="-6.299350010231137">
        <ele>1190.2</ele>
        <time>2018-05-23T06:19:14Z</time>
      </trkpt>
      <trkpt lat="42.483830032870173" lon="-6.299328971654177">
        <ele>1189.9000000000001</ele>
        <time>2018-05-23T06:19:15Z</time>
      </trkpt>
      <trkpt lat="42.483808994293213" lon="-6.299307011067867">
        <ele>1189.5999999999999</ele>
        <time>2018-05-23T06:19:15Z</time>
      </trkpt>
      <trkpt lat="42.483788039535284" lon="-6.299307011067867">
        <ele>1189.3</ele>
        <time>2018-05-23T06:19:16Z</time>
      </trkpt>
      <trkpt lat="42.483702041208744" lon="-6.299328971654177">
        <ele>1187.9000000000001</ele>
        <time>2018-05-23T06:19:19Z</time>
      </trkpt>
      <trkpt lat="42.483636997640133" lon="-6.299328971654177">
        <ele>1186.8</ele>
        <time>2018-05-23T06:19:21Z</time>
      </trkpt>
      <trkpt lat="42.483615959063172" lon="-6.299264011904597">
        <ele>1186.7</ele>
        <time>2018-05-23T06:19:22Z</time>
      </trkpt>
      <trkpt lat="42.483529960736632" lon="-6.299136020243168">
        <ele>1185.5999999999999</ele>
        <time>2018-05-23T06:19:26Z</time>
      </trkpt>
      <trkpt lat="42.483509005978703" lon="-6.299093021079898">
        <ele>1185.4000000000001</ele>
        <time>2018-05-23T06:19:27Z</time>
      </trkpt>
      <trkpt lat="42.483400963246822" lon="-6.298899985849857">
        <ele>1184.2</ele>
        <time>2018-05-23T06:19:32Z</time>
      </trkpt>
      <trkpt lat="42.483122013509274" lon="-6.297890972346067">
        <ele>1184.2</ele>
        <time>2018-05-23T06:19:56Z</time>
      </trkpt>
      <trkpt lat="42.483079014346004" lon="-6.297741020098329">
        <ele>1183.7</ele>
        <time>2018-05-23T06:19:59Z</time>
      </trkpt>
      <trkpt lat="42.482908023521304" lon="-6.296882964670658">
        <ele>1181.9000000000001</ele>
        <time>2018-05-23T06:20:19Z</time>
      </trkpt>
      <trkpt lat="42.482928978279233" lon="-6.295980988070369">
        <ele>1182.2</ele>
        <time>2018-05-23T06:20:39Z</time>
      </trkpt>
      <trkpt lat="42.482865024358034" lon="-6.295487964525819">
        <ele>1181.4000000000001</ele>
        <time>2018-05-23T06:20:50Z</time>
      </trkpt>
      <trkpt lat="42.482822025194764" lon="-6.295058978721499">
        <ele>1179.5999999999999</ele>
        <time>2018-05-23T06:20:59Z</time>
      </trkpt>
      <trkpt lat="42.482693027704954" lon="-6.29430796019733">
        <ele>1176.5</ele>
        <time>2018-05-23T06:21:16Z</time>
      </trkpt>
      <trkpt lat="42.482607029378414" lon="-6.2939209677279">
        <ele>1175.9000000000001</ele>
        <time>2018-05-23T06:21:25Z</time>
      </trkpt>
      <trkpt lat="42.482585990801454" lon="-6.29379297606647">
        <ele>1175.8</ele>
        <time>2018-05-23T06:21:28Z</time>
      </trkpt>
      <trkpt lat="42.482564030215144" lon="-6.293600024655461">
        <ele>1175.9000000000001</ele>
        <time>2018-05-23T06:21:32Z</time>
      </trkpt>
      <trkpt lat="42.482542991638184" lon="-6.293342029675841">
        <ele>1176.0999999999999</ele>
        <time>2018-05-23T06:21:38Z</time>
      </trkpt>
      <trkpt lat="42.482522036880255" lon="-6.293213032186031">
        <ele>1176.2</ele>
        <time>2018-05-23T06:21:40Z</time>
      </trkpt>
      <trkpt lat="42.482542991638184" lon="-6.292933998629451">
        <ele>1176.8</ele>
        <time>2018-05-23T06:21:47Z</time>
      </trkpt>
      <trkpt lat="42.482499992474914" lon="-6.292354976758361">
        <ele>1175.5</ele>
        <time>2018-05-23T06:21:59Z</time>
      </trkpt>
      <trkpt lat="42.482522036880255" lon="-6.292076027020812">
        <ele>1175.0999999999999</ele>
        <time>2018-05-23T06:22:05Z</time>
      </trkpt>
      <trkpt lat="42.482564030215144" lon="-6.291411006823182">
        <ele>1172.9000000000001</ele>
        <time>2018-05-23T06:22:20Z</time>
      </trkpt>
      <trkpt lat="42.482650028541684" lon="-6.290982021018863">
        <ele>1172</ele>
        <time>2018-05-23T06:22:30Z</time>
      </trkpt>
      <trkpt lat="42.482693027704954" lon="-6.290487991645932">
        <ele>1170.9000000000001</ele>
        <time>2018-05-23T06:22:41Z</time>
      </trkpt>
      <trkpt lat="42.482714988291264" lon="-6.290424037724733">
        <ele>1170.8</ele>
        <time>2018-05-23T06:22:42Z</time>
      </trkpt>
      <trkpt lat="42.482757987454534" lon="-6.290295040234923">
        <ele>1170.4000000000001</ele>
        <time>2018-05-23T06:22:45Z</time>
      </trkpt>
      <trkpt lat="42.482799980789423" lon="-6.290209041908383">
        <ele>1170.2</ele>
        <time>2018-05-23T06:22:48Z</time>
      </trkpt>
      <trkpt lat="42.482865024358034" lon="-6.289973007515073">
        <ele>1169.5</ele>
        <time>2018-05-23T06:22:53Z</time>
      </trkpt>
      <trkpt lat="42.482885979115963" lon="-6.289908969774842">
        <ele>1169.3</ele>
        <time>2018-05-23T06:22:55Z</time>
      </trkpt>
      <trkpt lat="42.482928978279233" lon="-6.289736973121762">
        <ele>1168.9000000000001</ele>
        <time>2018-05-23T06:22:59Z</time>
      </trkpt>
      <trkpt lat="42.482908023521304" lon="-6.289693973958492">
        <ele>1168.5</ele>
        <time>2018-05-23T06:23:00Z</time>
      </trkpt>
      <trkpt lat="42.482885979115963" lon="-6.289650974795222">
        <ele>1168</ele>
        <time>2018-05-23T06:23:01Z</time>
      </trkpt>
      <trkpt lat="42.482865024358034" lon="-6.289607975631952">
        <ele>1167.5999999999999</ele>
        <time>2018-05-23T06:23:02Z</time>
      </trkpt>
      <trkpt lat="42.482822025194764" lon="-6.289587020874023">
        <ele>1167.0999999999999</ele>
        <time>2018-05-23T06:23:03Z</time>
      </trkpt>
      <trkpt lat="42.482842979952693" lon="-6.289544021710753">
        <ele>1167.0999999999999</ele>
        <time>2018-05-23T06:23:04Z</time>
      </trkpt>
      <trkpt lat="42.482885979115963" lon="-6.289458023384213">
        <ele>1167</ele>
        <time>2018-05-23T06:23:07Z</time>
      </trkpt>
      <trkpt lat="42.482928978279233" lon="-6.289372025057674">
        <ele>1166.9000000000001</ele>
        <time>2018-05-23T06:23:09Z</time>
      </trkpt>
      <trkpt lat="42.482951022684574" lon="-6.288943039253354">
        <ele>1164.5</ele>
        <time>2018-05-23T06:23:18Z</time>
      </trkpt>
      <trkpt lat="42.482928978279233" lon="-6.288771964609623">
        <ele>1163.3</ele>
        <time>2018-05-23T06:23:22Z</time>
      </trkpt>
      <trkpt lat="42.482908023521304" lon="-6.288599967956543">
        <ele>1162.9000000000001</ele>
        <time>2018-05-23T06:23:26Z</time>
      </trkpt>
      <trkpt lat="42.482885979115963" lon="-6.288192020729184">
        <ele>1162.7</ele>
        <time>2018-05-23T06:23:35Z</time>
      </trkpt>
      <trkpt lat="42.482842979952693" lon="-6.287677036598325">
        <ele>1161.7</ele>
        <time>2018-05-23T06:23:46Z</time>
      </trkpt>
      <trkpt lat="42.482607029378414" lon="-6.286603985354304">
        <ele>1158</ele>
        <time>2018-05-23T06:24:11Z</time>
      </trkpt>
      <trkpt lat="42.482585990801454" lon="-6.286475993692875">
        <ele>1157.8</ele>
        <time>2018-05-23T06:24:14Z</time>
      </trkpt>
      <trkpt lat="42.482564030215144" lon="-6.286325035616756">
        <ele>1157.5999999999999</ele>
        <time>2018-05-23T06:24:17Z</time>
      </trkpt>
      <trkpt lat="42.482393039390445" lon="-6.285252990201116">
        <ele>1155.7</ele>
        <time>2018-05-23T06:24:41Z</time>
      </trkpt>
      <trkpt lat="42.482714988291264" lon="-6.285532023757696">
        <ele>1159.7</ele>
        <time>2018-05-23T06:24:52Z</time>
      </trkpt>
      <trkpt lat="42.482628989964724" lon="-6.284994995221496">
        <ele>1156.9000000000001</ele>
        <time>2018-05-23T06:25:04Z</time>
      </trkpt>
      <trkpt lat="42.482413994148374" lon="-6.284028980880976">
        <ele>1150.9000000000001</ele>
        <time>2018-05-23T06:25:27Z</time>
      </trkpt>
      <trkpt lat="42.482307041063905" lon="-6.283599995076656">
        <ele>1148.2</ele>
        <time>2018-05-23T06:25:36Z</time>
      </trkpt>
      <trkpt lat="42.482220958918333" lon="-6.283300006762147">
        <ele>1146.0999999999999</ele>
        <time>2018-05-23T06:25:44Z</time>
      </trkpt>
      <trkpt lat="42.482028007507324" lon="-6.282634986564517">
        <ele>1141.4000000000001</ele>
        <time>2018-05-23T06:25:59Z</time>
      </trkpt>
      <trkpt lat="42.481877971440554" lon="-6.282227039337158">
        <ele>1138.7</ele>
        <time>2018-05-23T06:26:09Z</time>
      </trkpt>
      <trkpt lat="42.481685020029545" lon="-6.281668972223997">
        <ele>1135.3</ele>
        <time>2018-05-23T06:26:23Z</time>
      </trkpt>
      <trkpt lat="42.481427025049925" lon="-6.281024990603328">
        <ele>1132</ele>
        <time>2018-05-23T06:26:39Z</time>
      </trkpt>
      <trkpt lat="42.481061993166804" lon="-6.280425013974309">
        <ele>1128.5999999999999</ele>
        <time>2018-05-23T06:26:56Z</time>
      </trkpt>
      <trkpt lat="42.480697967112064" lon="-6.279630996286869">
        <ele>1124.2</ele>
        <time>2018-05-23T06:27:16Z</time>
      </trkpt>
      <trkpt lat="42.480333019047976" lon="-6.27885801717639">
        <ele>1120.4000000000001</ele>
        <time>2018-05-23T06:27:36Z</time>
      </trkpt>
      <trkpt lat="42.480204021558166" lon="-6.27840799279511">
        <ele>1118.8</ele>
        <time>2018-05-23T06:27:47Z</time>
      </trkpt>
      <trkpt lat="42.479967987164855" lon="-6.277120029553771">
        <ele>1115.5999999999999</ele>
        <time>2018-05-23T06:28:16Z</time>
      </trkpt>
      <trkpt lat="42.479795990511775" lon="-6.276155021041632">
        <ele>1113.0999999999999</ele>
        <time>2018-05-23T06:28:38Z</time>
      </trkpt>
      <trkpt lat="42.479752991348505" lon="-6.276003979146481">
        <ele>1112.8</ele>
        <time>2018-05-23T06:28:41Z</time>
      </trkpt>
      <trkpt lat="42.479732036590576" lon="-6.275897026062012">
        <ele>1112.7</ele>
        <time>2018-05-23T06:28:44Z</time>
      </trkpt>
      <trkpt lat="42.479624999687076" lon="-6.275361003354192">
        <ele>1112.4000000000001</ele>
        <time>2018-05-23T06:28:56Z</time>
      </trkpt>
      <trkpt lat="42.479560039937496" lon="-6.274974010884762">
        <ele>1112.3</ele>
        <time>2018-05-23T06:29:04Z</time>
      </trkpt>
      <trkpt lat="42.479410003870726" lon="-6.274394989013672">
        <ele>1111.2</ele>
        <time>2018-05-23T06:29:18Z</time>
      </trkpt>
      <trkpt lat="42.479367004707456" lon="-6.274245036765933">
        <ele>1110.7</ele>
        <time>2018-05-23T06:29:21Z</time>
      </trkpt>
      <trkpt lat="42.479345966130495" lon="-6.274159038439393">
        <ele>1110.4000000000001</ele>
        <time>2018-05-23T06:29:23Z</time>
      </trkpt>
      <trkpt lat="42.479153014719486" lon="-6.273600971326232">
        <ele>1108.8</ele>
        <time>2018-05-23T06:29:37Z</time>
      </trkpt>
      <trkpt lat="42.478959979489446" lon="-6.272979034110904">
        <ele>1107.5</ele>
        <time>2018-05-23T06:29:52Z</time>
      </trkpt>
      <trkpt lat="42.478916980326176" lon="-6.272785998880863">
        <ele>1107.3</ele>
        <time>2018-05-23T06:29:56Z</time>
      </trkpt>
      <trkpt lat="42.478981018066406" lon="-6.272056018933654">
        <ele>1106.5999999999999</ele>
        <time>2018-05-23T06:30:12Z</time>
      </trkpt>
      <trkpt lat="42.479110015556216" lon="-6.270811976864934">
        <ele>1103.5</ele>
        <time>2018-05-23T06:30:40Z</time>
      </trkpt>
      <trkpt lat="42.479044971987605" lon="-6.270017959177494">
        <ele>1103.2</ele>
        <time>2018-05-23T06:30:57Z</time>
      </trkpt>
      <trkpt lat="42.478852020576596" lon="-6.268493961542845">
        <ele>1098.9000000000001</ele>
        <time>2018-05-23T06:31:31Z</time>
      </trkpt>
      <trkpt lat="42.478595031425357" lon="-6.266692019999027">
        <ele>1096.3</ele>
        <time>2018-05-23T06:32:11Z</time>
      </trkpt>
      <trkpt lat="42.478294037282467" lon="-6.264653038233519">
        <ele>1098.5999999999999</ele>
        <time>2018-05-23T06:32:56Z</time>
      </trkpt>
      <trkpt lat="42.478015003725886" lon="-6.262636017054319">
        <ele>1100.5999999999999</ele>
        <time>2018-05-23T06:33:41Z</time>
      </trkpt>
      <trkpt lat="42.477821968495846" lon="-6.26128401607275">
        <ele>1102.5</ele>
        <time>2018-05-23T06:34:11Z</time>
      </trkpt>
      <trkpt lat="42.477758014574647" lon="-6.26109098084271">
        <ele>1102.4000000000001</ele>
        <time>2018-05-23T06:34:16Z</time>
      </trkpt>
      <trkpt lat="42.477435981854796" lon="-6.26070499420166">
        <ele>1101.3</ele>
        <time>2018-05-23T06:34:29Z</time>
      </trkpt>
      <trkpt lat="42.476877998560667" lon="-6.260104011744261">
        <ele>1099.0999999999999</ele>
        <time>2018-05-23T06:34:50Z</time>
      </trkpt>
      <trkpt lat="42.476621009409428" lon="-6.259653987362981">
        <ele>1098.0999999999999</ele>
        <time>2018-05-23T06:35:02Z</time>
      </trkpt>
      <trkpt lat="42.476255977526307" lon="-6.25903096050024">
        <ele>1095.4000000000001</ele>
        <time>2018-05-23T06:35:20Z</time>
      </trkpt>
      <trkpt lat="42.475934028625488" lon="-6.258495021611452">
        <ele>1092.5</ele>
        <time>2018-05-23T06:35:35Z</time>
      </trkpt>
      <trkpt lat="42.475591041147709" lon="-6.257957993075252">
        <ele>1090.4000000000001</ele>
        <time>2018-05-23T06:35:50Z</time>
      </trkpt>
      <trkpt lat="42.475461959838867" lon="-6.257744003087282">
        <ele>1089.4000000000001</ele>
        <time>2018-05-23T06:35:56Z</time>
      </trkpt>
      <trkpt lat="42.475418960675597" lon="-6.257701003924012">
        <ele>1089.2</ele>
        <time>2018-05-23T06:35:58Z</time>
      </trkpt>
      <trkpt lat="42.475398005917668" lon="-6.257615005597472">
        <ele>1088.8</ele>
        <time>2018-05-23T06:36:00Z</time>
      </trkpt>
      <trkpt lat="42.475312007591128" lon="-6.257464969530702">
        <ele>1087.5999999999999</ele>
        <time>2018-05-23T06:36:04Z</time>
      </trkpt>
      <trkpt lat="42.475075973197818" lon="-6.257186019793153">
        <ele>1085.2</ele>
        <time>2018-05-23T06:36:13Z</time>
      </trkpt>
      <trkpt lat="42.474840022623539" lon="-6.256843032315373">
        <ele>1082.2</ele>
        <time>2018-05-23T06:36:24Z</time>
      </trkpt>
      <trkpt lat="42.474774979054928" lon="-6.256671035662293">
        <ele>1080.9000000000001</ele>
        <time>2018-05-23T06:36:28Z</time>
      </trkpt>
      <trkpt lat="42.474625026807189" lon="-6.256413040682674">
        <ele>1079</ele>
        <time>2018-05-23T06:36:35Z</time>
      </trkpt>
      <trkpt lat="42.474603988230228" lon="-6.256392002105713">
        <ele>1078.8</ele>
        <time>2018-05-23T06:36:36Z</time>
      </trkpt>
      <trkpt lat="42.474560989066958" lon="-6.256327964365482">
        <ele>1078.3</ele>
        <time>2018-05-23T06:36:38Z</time>
      </trkpt>
      <trkpt lat="42.474302994087338" lon="-6.255897972732782">
        <ele>1074.9000000000001</ele>
        <time>2018-05-23T06:36:50Z</time>
      </trkpt>
      <trkpt lat="42.474259994924068" lon="-6.255812980234623">
        <ele>1074.3</ele>
        <time>2018-05-23T06:36:52Z</time>
      </trkpt>
      <trkpt lat="42.474132003262639" lon="-6.255534030497074">
        <ele>1072.5999999999999</ele>
        <time>2018-05-23T06:36:59Z</time>
      </trkpt>
      <trkpt lat="42.474109958857298" lon="-6.255297996103764">
        <ele>1071.5</ele>
        <time>2018-05-23T06:37:05Z</time>
      </trkpt>
      <trkpt lat="42.474066959694028" lon="-6.252744030207396">
        <ele>1060.9000000000001</ele>
        <time>2018-05-23T06:38:01Z</time>
      </trkpt>
      <trkpt lat="42.474023960530758" lon="-6.252573039382696">
        <ele>1061.0999999999999</ele>
        <time>2018-05-23T06:38:05Z</time>
      </trkpt>
      <trkpt lat="42.473637973889709" lon="-6.251799976453185">
        <ele>1060</ele>
        <time>2018-05-23T06:38:25Z</time>
      </trkpt>
      <trkpt lat="42.473122989758849" lon="-6.250576972961426">
        <ele>1056.9000000000001</ele>
        <time>2018-05-23T06:38:56Z</time>
      </trkpt>
      <trkpt lat="42.472714958712459" lon="-6.249010981991887">
        <ele>1056.7</ele>
        <time>2018-05-23T06:39:32Z</time>
      </trkpt>
      <trkpt lat="42.47235101647675" lon="-6.247509028762579">
        <ele>1057.9000000000001</ele>
        <time>2018-05-23T06:40:07Z</time>
      </trkpt>
      <trkpt lat="42.47198598459363" lon="-6.246091984212399">
        <ele>1060.5999999999999</ele>
        <time>2018-05-23T06:40:39Z</time>
      </trkpt>
      <trkpt lat="42.471492039039731" lon="-6.24452599324286">
        <ele>1062.2</ele>
        <time>2018-05-23T06:41:17Z</time>
      </trkpt>
      <trkpt lat="42.470956016331911" lon="-6.243110038340092">
        <ele>1060.2</ele>
        <time>2018-05-23T06:41:51Z</time>
      </trkpt>
      <trkpt lat="42.470441032201052" lon="-6.241844035685062">
        <ele>1059.8</ele>
        <time>2018-05-23T06:42:23Z</time>
      </trkpt>
      <trkpt lat="42.469990001991391" lon="-6.240664031356573">
        <ele>1058.8</ele>
        <time>2018-05-23T06:42:52Z</time>
      </trkpt>
      <trkpt lat="42.469496978446841" lon="-6.239461982622743">
        <ele>1057.5</ele>
        <time>2018-05-23T06:43:22Z</time>
      </trkpt>
      <trkpt lat="42.468960033729672" lon="-6.238023983314633">
        <ele>1056.3</ele>
        <time>2018-05-23T06:43:57Z</time>
      </trkpt>
      <trkpt lat="42.468444965779781" lon="-6.236737025901675">
        <ele>1054</ele>
        <time>2018-05-23T06:44:29Z</time>
      </trkpt>
      <trkpt lat="42.468081023544073" lon="-6.235706973820925">
        <ele>1052.0999999999999</ele>
        <time>2018-05-23T06:44:54Z</time>
      </trkpt>
      <trkpt lat="42.467995025217533" lon="-6.235448978841305">
        <ele>1051.4000000000001</ele>
        <time>2018-05-23T06:45:01Z</time>
      </trkpt>
      <trkpt lat="42.467608032748103" lon="-6.234419010579586">
        <ele>1048.7</ele>
        <time>2018-05-23T06:45:26Z</time>
      </trkpt>
      <trkpt lat="42.467158008366823" lon="-6.233088970184326">
        <ele>1046.3</ele>
        <time>2018-05-23T06:45:58Z</time>
      </trkpt>
      <trkpt lat="42.466964973136783" lon="-6.232553031295538">
        <ele>1046.4000000000001</ele>
        <time>2018-05-23T06:46:11Z</time>
      </trkpt>
      <trkpt lat="42.466577980667353" lon="-6.231501018628478">
        <ele>1045.5</ele>
        <time>2018-05-23T06:46:37Z</time>
      </trkpt>
      <trkpt lat="42.466105995699763" lon="-6.230213977396488">
        <ele>1040.5</ele>
        <time>2018-05-23T06:47:08Z</time>
      </trkpt>
      <trkpt lat="42.465741969645023" lon="-6.229247963055968">
        <ele>1035.9000000000001</ele>
        <time>2018-05-23T06:47:32Z</time>
      </trkpt>
      <trkpt lat="42.465526973828673" lon="-6.228603981435299">
        <ele>1034.4000000000001</ele>
        <time>2018-05-23T06:47:47Z</time>
      </trkpt>
      <trkpt lat="42.465291023254395" lon="-6.22796100564301">
        <ele>1032.8</ele>
        <time>2018-05-23T06:48:03Z</time>
      </trkpt>
      <trkpt lat="42.464755000546575" lon="-6.22654396109283">
        <ele>1030.5</ele>
        <time>2018-05-23T06:48:38Z</time>
      </trkpt>
      <trkpt lat="42.464497005566955" lon="-6.225814986974001">
        <ele>1029.3</ele>
        <time>2018-05-23T06:48:56Z</time>
      </trkpt>
      <trkpt lat="42.464432967826724" lon="-6.225685989484191">
        <ele>1029</ele>
        <time>2018-05-23T06:48:59Z</time>
      </trkpt>
      <trkpt lat="42.464454006403685" lon="-6.225665034726262">
        <ele>1029</ele>
        <time>2018-05-23T06:49:00Z</time>
      </trkpt>
      <trkpt lat="42.464432967826724" lon="-6.225622035562992">
        <ele>1028.9000000000001</ele>
        <time>2018-05-23T06:49:01Z</time>
      </trkpt>
      <trkpt lat="42.464411007240415" lon="-6.225579036399722">
        <ele>1028.8</ele>
        <time>2018-05-23T06:49:02Z</time>
      </trkpt>
      <trkpt lat="42.464389968663454" lon="-6.225450038909912">
        <ele>1028.5999999999999</ele>
        <time>2018-05-23T06:49:05Z</time>
      </trkpt>
      <trkpt lat="42.464432967826724" lon="-6.225257003679872">
        <ele>1028.4000000000001</ele>
        <time>2018-05-23T06:49:09Z</time>
      </trkpt>
      <trkpt lat="42.464389968663454" lon="-6.225192965939641">
        <ele>1028.0999999999999</ele>
        <time>2018-05-23T06:49:11Z</time>
      </trkpt>
      <trkpt lat="42.464368008077145" lon="-6.225149966776371">
        <ele>1028</ele>
        <time>2018-05-23T06:49:12Z</time>
      </trkpt>
      <trkpt lat="42.464111018925905" lon="-6.223883964121342">
        <ele>1023.9</ele>
        <time>2018-05-23T06:49:41Z</time>
      </trkpt>
      <trkpt lat="42.464068019762635" lon="-6.222724998369813">
        <ele>1024.0999999999999</ele>
        <time>2018-05-23T06:50:06Z</time>
      </trkpt>
      <trkpt lat="42.464240016415715" lon="-6.220621978864074">
        <ele>1020.8</ele>
        <time>2018-05-23T06:50:53Z</time>
      </trkpt>
      <trkpt lat="42.464283015578985" lon="-6.220278991386294">
        <ele>1019.5</ele>
        <time>2018-05-23T06:51:00Z</time>
      </trkpt>
      <trkpt lat="42.464325008913875" lon="-6.220043040812016">
        <ele>1018.9</ele>
        <time>2018-05-23T06:51:06Z</time>
      </trkpt>
      <trkpt lat="42.464368008077145" lon="-6.219807006418705">
        <ele>1018.2</ele>
        <time>2018-05-23T06:51:11Z</time>
      </trkpt>
      <trkpt lat="42.464518966153264" lon="-6.218905029818416">
        <ele>1015.3</ele>
        <time>2018-05-23T06:51:31Z</time>
      </trkpt>
      <trkpt lat="42.464497005566955" lon="-6.218432961031795">
        <ele>1014.2</ele>
        <time>2018-05-23T06:51:42Z</time>
      </trkpt>
      <trkpt lat="42.463874984532595" lon="-6.217597033828497">
        <ele>1009.7</ele>
        <time>2018-05-23T06:52:08Z</time>
      </trkpt>
      <trkpt lat="42.463424038141966" lon="-6.216480983421207">
        <ele>1010.7</ele>
        <time>2018-05-23T06:52:35Z</time>
      </trkpt>
      <trkpt lat="42.463188003748655" lon="-6.215193020179868">
        <ele>1010.1</ele>
        <time>2018-05-23T06:53:04Z</time>
      </trkpt>
      <trkpt lat="42.463102005422115" lon="-6.214056015014648">
        <ele>1009</ele>
        <time>2018-05-23T06:53:29Z</time>
      </trkpt>
      <trkpt lat="42.463017012923956" lon="-6.212725974619389">
        <ele>1009.6</ele>
        <time>2018-05-23T06:53:59Z</time>
      </trkpt>
      <trkpt lat="42.462974013760686" lon="-6.212081992998719">
        <ele>1009.5</ele>
        <time>2018-05-23T06:54:13Z</time>
      </trkpt>
      <trkpt lat="42.462888015434146" lon="-6.211158977821469">
        <ele>1009.9</ele>
        <time>2018-05-23T06:54:33Z</time>
      </trkpt>
      <trkpt lat="42.462865971028805" lon="-6.211009025573731">
        <ele>1010.1</ele>
        <time>2018-05-23T06:54:36Z</time>
      </trkpt>
      <trkpt lat="42.462845016270876" lon="-6.210794029757381">
        <ele>1010.3</ele>
        <time>2018-05-23T06:54:41Z</time>
      </trkpt>
      <trkpt lat="42.462737979367375" lon="-6.20989297516644">
        <ele>1011.1</ele>
        <time>2018-05-23T06:55:01Z</time>
      </trkpt>
      <trkpt lat="42.462716018781066" lon="-6.209571026265621">
        <ele>1011.6</ele>
        <time>2018-05-23T06:55:08Z</time>
      </trkpt>
      <trkpt lat="42.462694980204105" lon="-6.209377991035581">
        <ele>1011.7</ele>
        <time>2018-05-23T06:55:12Z</time>
      </trkpt>
      <trkpt lat="42.462673019617796" lon="-6.209291992709041">
        <ele>1011.6</ele>
        <time>2018-05-23T06:55:14Z</time>
      </trkpt>
      <trkpt lat="42.462716018781066" lon="-6.209271037951112">
        <ele>1012.1</ele>
        <time>2018-05-23T06:55:16Z</time>
      </trkpt>
      <trkpt lat="42.462694980204105" lon="-6.20905595831573">
        <ele>1012.3</ele>
        <time>2018-05-23T06:55:20Z</time>
      </trkpt>
      <trkpt lat="42.462737979367375" lon="-6.208863006904721">
        <ele>1013.1</ele>
        <time>2018-05-23T06:55:25Z</time>
      </trkpt>
      <trkpt lat="42.462779972702265" lon="-6.208906006067991">
        <ele>1013.4</ele>
        <time>2018-05-23T06:55:26Z</time>
      </trkpt>
      <trkpt lat="42.462759017944336" lon="-6.208692016080022">
        <ele>1013.6</ele>
        <time>2018-05-23T06:55:31Z</time>
      </trkpt>
      <trkpt lat="42.462951969355345" lon="-6.208520019426942">
        <ele>1015.1</ele>
        <time>2018-05-23T06:55:38Z</time>
      </trkpt>
      <trkpt lat="42.463102005422115" lon="-6.207982990890741">
        <ele>1015.9</ele>
        <time>2018-05-23T06:55:51Z</time>
      </trkpt>
      <trkpt lat="42.463080966845155" lon="-6.207575965672731">
        <ele>1015.7</ele>
        <time>2018-05-23T06:56:00Z</time>
      </trkpt>
      <trkpt lat="42.463059006258845" lon="-6.207469012588263">
        <ele>1015.6</ele>
        <time>2018-05-23T06:56:02Z</time>
      </trkpt>
      <trkpt lat="42.462951969355345" lon="-6.207231972366571">
        <ele>1015.1</ele>
        <time>2018-05-23T06:56:08Z</time>
      </trkpt>
      <trkpt lat="42.462931014597416" lon="-6.207211017608643">
        <ele>1015.1</ele>
        <time>2018-05-23T06:56:09Z</time>
      </trkpt>
      <trkpt lat="42.462888015434146" lon="-6.207211017608643">
        <ele>1015</ele>
        <time>2018-05-23T06:56:10Z</time>
      </trkpt>
      <trkpt lat="42.462908970192075" lon="-6.207274971529841">
        <ele>1015</ele>
        <time>2018-05-23T06:56:12Z</time>
      </trkpt>
      <trkpt lat="42.462822971865535" lon="-6.207211017608643">
        <ele>1014.9</ele>
        <time>2018-05-23T06:56:15Z</time>
      </trkpt>
      <trkpt lat="42.462802017107606" lon="-6.207189979031682">
        <ele>1014.8</ele>
        <time>2018-05-23T06:56:15Z</time>
      </trkpt>
      <trkpt lat="42.462759017944336" lon="-6.206868030130863">
        <ele>1015.1</ele>
        <time>2018-05-23T06:56:22Z</time>
      </trkpt>
      <trkpt lat="42.462802017107606" lon="-6.206245003268123">
        <ele>1015.9</ele>
        <time>2018-05-23T06:56:36Z</time>
      </trkpt>
      <trkpt lat="42.462822971865535" lon="-6.206117011606693">
        <ele>1016</ele>
        <time>2018-05-23T06:56:39Z</time>
      </trkpt>
      <trkpt lat="42.462608981877565" lon="-6.205493984743953">
        <ele>1016.2</ele>
        <time>2018-05-23T06:56:54Z</time>
      </trkpt>
      <trkpt lat="42.462350986897945" lon="-6.204957962036133">
        <ele>1015.3</ele>
        <time>2018-05-23T06:57:08Z</time>
      </trkpt>
      <trkpt lat="42.462330032140017" lon="-6.204914962872863">
        <ele>1015.2</ele>
        <time>2018-05-23T06:57:09Z</time>
      </trkpt>
      <trkpt lat="42.462307987734675" lon="-6.204871963709593">
        <ele>1015.2</ele>
        <time>2018-05-23T06:57:10Z</time>
      </trkpt>
      <trkpt lat="42.462287032976747" lon="-6.204851008951664">
        <ele>1015.2</ele>
        <time>2018-05-23T06:57:11Z</time>
      </trkpt>
      <trkpt lat="42.462264988571405" lon="-6.204828964546323">
        <ele>1015.1</ele>
        <time>2018-05-23T06:57:12Z</time>
      </trkpt>
      <trkpt lat="42.462244033813477" lon="-6.204765010625124">
        <ele>1015.1</ele>
        <time>2018-05-23T06:57:13Z</time>
      </trkpt>
      <trkpt lat="42.462222995236516" lon="-6.204765010625124">
        <ele>1015.1</ele>
        <time>2018-05-23T06:57:14Z</time>
      </trkpt>
      <trkpt lat="42.462201034650207" lon="-6.204765010625124">
        <ele>1015.1</ele>
        <time>2018-05-23T06:57:15Z</time>
      </trkpt>
      <trkpt lat="42.462222995236516" lon="-6.204765010625124">
        <ele>1015.1</ele>
        <time>2018-05-23T06:57:15Z</time>
      </trkpt>
      <trkpt lat="42.462201034650207" lon="-6.204765010625124">
        <ele>1015.1</ele>
        <time>2018-05-23T06:57:16Z</time>
      </trkpt>
      <trkpt lat="42.462222995236516" lon="-6.204765010625124">
        <ele>1015.1</ele>
        <time>2018-05-23T06:57:17Z</time>
      </trkpt>
      <trkpt lat="42.462007999420166" lon="-6.204464016482234">
        <ele>1014.7</ele>
        <time>2018-05-23T06:57:26Z</time>
      </trkpt>
      <trkpt lat="42.461922001093626" lon="-6.204336024820805">
        <ele>1014.5</ele>
        <time>2018-05-23T06:57:30Z</time>
      </trkpt>
      <trkpt lat="42.461728965863585" lon="-6.203433964401484">
        <ele>1014.5</ele>
        <time>2018-05-23T06:57:50Z</time>
      </trkpt>
      <trkpt lat="42.461642967537045" lon="-6.202984023839235">
        <ele>1014.9</ele>
        <time>2018-05-23T06:58:00Z</time>
      </trkpt>
      <trkpt lat="42.461665011942387" lon="-6.202941024675965">
        <ele>1015</ele>
        <time>2018-05-23T06:58:01Z</time>
      </trkpt>
      <trkpt lat="42.461685966700315" lon="-6.202747989445925">
        <ele>1015.1</ele>
        <time>2018-05-23T06:58:06Z</time>
      </trkpt>
      <trkpt lat="42.461599968373775" lon="-6.202233005315065">
        <ele>1015.3</ele>
        <time>2018-05-23T06:58:17Z</time>
      </trkpt>
      <trkpt lat="42.461450016126037" lon="-6.201203037053347">
        <ele>1016.1</ele>
        <time>2018-05-23T06:58:40Z</time>
      </trkpt>
      <trkpt lat="42.461278019472957" lon="-6.199765037745237">
        <ele>1018</ele>
        <time>2018-05-23T06:59:12Z</time>
      </trkpt>
      <trkpt lat="42.461064029484987" lon="-6.198434997349978">
        <ele>1018</ele>
        <time>2018-05-23T06:59:42Z</time>
      </trkpt>
      <trkpt lat="42.461084984242916" lon="-6.197018958628178">
        <ele>1016.1</ele>
        <time>2018-05-23T07:00:13Z</time>
      </trkpt>
      <trkpt lat="42.461107028648257" lon="-6.195108974352479">
        <ele>1013</ele>
        <time>2018-05-23T07:00:55Z</time>
      </trkpt>
      <trkpt lat="42.461127983406186" lon="-6.19371397420764">
        <ele>1012.1</ele>
        <time>2018-05-23T07:01:25Z</time>
      </trkpt>
      <trkpt lat="42.461084984242916" lon="-6.19227597489953">
        <ele>1009.7</ele>
        <time>2018-05-23T07:01:57Z</time>
      </trkpt>
      <trkpt lat="42.460870994254947" lon="-6.190924979746342">
        <ele>1008.2</ele>
        <time>2018-05-23T07:02:27Z</time>
      </trkpt>
      <trkpt lat="42.460849033668637" lon="-6.190817020833492">
        <ele>1008.1</ele>
        <time>2018-05-23T07:02:29Z</time>
      </trkpt>
      <trkpt lat="42.460806034505367" lon="-6.190560031682253">
        <ele>1007.9</ele>
        <time>2018-05-23T07:02:35Z</time>
      </trkpt>
      <trkpt lat="42.460763035342097" lon="-6.190366996452212">
        <ele>1007.7</ele>
        <time>2018-05-23T07:02:39Z</time>
      </trkpt>
      <trkpt lat="42.460720958188176" lon="-6.189895011484623">
        <ele>1008.1</ele>
        <time>2018-05-23T07:02:50Z</time>
      </trkpt>
      <trkpt lat="42.460634959861636" lon="-6.189314983785152">
        <ele>1007.7</ele>
        <time>2018-05-23T07:03:03Z</time>
      </trkpt>
      <trkpt lat="42.460485007613897" lon="-6.188220977783203">
        <ele>1003.9</ele>
        <time>2018-05-23T07:03:27Z</time>
      </trkpt>
      <trkpt lat="42.460442008450627" lon="-6.188048981130123">
        <ele>1002.8</ele>
        <time>2018-05-23T07:03:31Z</time>
      </trkpt>
      <trkpt lat="42.460419964045286" lon="-6.187920989468694">
        <ele>1002</ele>
        <time>2018-05-23T07:03:34Z</time>
      </trkpt>
      <trkpt lat="42.460290966555476" lon="-6.186934020370245">
        <ele>1001</ele>
        <time>2018-05-23T07:03:56Z</time>
      </trkpt>
      <trkpt lat="42.460098015144467" lon="-6.185602974146605">
        <ele>998</ele>
        <time>2018-05-23T07:04:26Z</time>
      </trkpt>
      <trkpt lat="42.459841025993228" lon="-6.184422969818115">
        <ele>997.29999999999995</ele>
        <time>2018-05-23T07:04:52Z</time>
      </trkpt>
      <trkpt lat="42.459432994946837" lon="-6.183328963816166">
        <ele>997.79999999999995</ele>
        <time>2018-05-23T07:05:19Z</time>
      </trkpt>
      <trkpt lat="42.459153961390257" lon="-6.181698013097048">
        <ele>998.60000000000002</ele>
        <time>2018-05-23T07:05:56Z</time>
      </trkpt>
      <trkpt lat="42.458896972239017" lon="-6.179980980232358">
        <ele>998.60000000000002</ele>
        <time>2018-05-23T07:06:34Z</time>
      </trkpt>
      <trkpt lat="42.458618022501469" lon="-6.178156994283199">
        <ele>995.89999999999998</ele>
        <time>2018-05-23T07:07:15Z</time>
      </trkpt>
      <trkpt lat="42.458381988108158" lon="-6.176720000803471">
        <ele>994.39999999999998</ele>
        <time>2018-05-23T07:07:47Z</time>
      </trkpt>
      <trkpt lat="42.458123993128538" lon="-6.175239002332091">
        <ele>994.29999999999995</ele>
        <time>2018-05-23T07:08:20Z</time>
      </trkpt>
      <trkpt lat="42.457887958735228" lon="-6.174015998840332">
        <ele>989.39999999999998</ele>
        <time>2018-05-23T07:08:48Z</time>
      </trkpt>
      <trkpt lat="42.457715962082148" lon="-6.173244025558233">
        <ele>987.20000000000005</ele>
        <time>2018-05-23T07:09:06Z</time>
      </trkpt>
      <trkpt lat="42.457695007324219" lon="-6.173072028905153">
        <ele>986.89999999999998</ele>
        <time>2018-05-23T07:09:09Z</time>
      </trkpt>
      <trkpt lat="42.457438018172979" lon="-6.171783981844783">
        <ele>986</ele>
        <time>2018-05-23T07:09:39Z</time>
      </trkpt>
      <trkpt lat="42.457243977114558" lon="-6.170861972495914">
        <ele>984.70000000000005</ele>
        <time>2018-05-23T07:10:00Z</time>
      </trkpt>
      <trkpt lat="42.456965027377009" lon="-6.169360019266605">
        <ele>983.70000000000005</ele>
        <time>2018-05-23T07:10:33Z</time>
      </trkpt>
      <trkpt lat="42.456728992983699" lon="-6.168157970532775">
        <ele>984.60000000000002</ele>
        <time>2018-05-23T07:11:01Z</time>
      </trkpt>
      <trkpt lat="42.45670803822577" lon="-6.168008018285036">
        <ele>984.70000000000005</ele>
        <time>2018-05-23T07:11:04Z</time>
      </trkpt>
      <trkpt lat="42.456472003832459" lon="-6.166785014793277">
        <ele>984</ele>
        <time>2018-05-23T07:11:32Z</time>
      </trkpt>
      <trkpt lat="42.456278968602419" lon="-6.165840961039066">
        <ele>984.20000000000005</ele>
        <time>2018-05-23T07:11:53Z</time>
      </trkpt>
      <trkpt lat="42.45617201551795" lon="-6.165648009628058">
        <ele>983.70000000000005</ele>
        <time>2018-05-23T07:11:58Z</time>
      </trkpt>
      <trkpt lat="42.4559570197016" lon="-6.164552997797728">
        <ele>982.20000000000005</ele>
        <time>2018-05-23T07:12:23Z</time>
      </trkpt>
      <trkpt lat="42.45582802221179" lon="-6.163824023678899">
        <ele>981.39999999999998</ele>
        <time>2018-05-23T07:12:40Z</time>
      </trkpt>
      <trkpt lat="42.45578502304852" lon="-6.163609027862549">
        <ele>981.10000000000002</ele>
        <time>2018-05-23T07:12:44Z</time>
      </trkpt>
      <trkpt lat="42.45576398447156" lon="-6.163286995142698">
        <ele>981</ele>
        <time>2018-05-23T07:12:51Z</time>
      </trkpt>
      <trkpt lat="42.45574202388525" lon="-6.163200996816158">
        <ele>980.89999999999998</ele>
        <time>2018-05-23T07:12:53Z</time>
      </trkpt>
      <trkpt lat="42.45572098530829" lon="-6.163073005154729">
        <ele>980.79999999999995</ele>
        <time>2018-05-23T07:12:56Z</time>
      </trkpt>
      <trkpt lat="42.45554898865521" lon="-6.16217102855444">
        <ele>980.5</ele>
        <time>2018-05-23T07:13:17Z</time>
      </trkpt>
      <trkpt lat="42.455399036407471" lon="-6.16163500584662">
        <ele>980.89999999999998</ele>
        <time>2018-05-23T07:13:29Z</time>
      </trkpt>
      <trkpt lat="42.4554199911654" lon="-6.16159200668335">
        <ele>981.20000000000005</ele>
        <time>2018-05-23T07:13:30Z</time>
      </trkpt>
      <trkpt lat="42.455528033897281" lon="-6.161527968943119">
        <ele>981.79999999999995</ele>
        <time>2018-05-23T07:13:34Z</time>
      </trkpt>
      <trkpt lat="42.45554898865521" lon="-6.16150600835681">
        <ele>981.89999999999998</ele>
        <time>2018-05-23T07:13:35Z</time>
      </trkpt>
      <trkpt lat="42.455571033060551" lon="-6.161441970616579">
        <ele>982.10000000000002</ele>
        <time>2018-05-23T07:13:36Z</time>
      </trkpt>
      <trkpt lat="42.45554898865521" lon="-6.161140976473689">
        <ele>982.60000000000002</ele>
        <time>2018-05-23T07:13:43Z</time>
      </trkpt>
      <trkpt lat="42.45546299032867" lon="-6.160562038421631">
        <ele>982.89999999999998</ele>
        <time>2018-05-23T07:13:56Z</time>
      </trkpt>
      <trkpt lat="42.4554199911654" lon="-6.16019700653851">
        <ele>983</ele>
        <time>2018-05-23T07:14:04Z</time>
      </trkpt>
      <trkpt lat="42.455399036407471" lon="-6.160026015713811">
        <ele>982.79999999999995</ele>
        <time>2018-05-23T07:14:08Z</time>
      </trkpt>
      <trkpt lat="42.455313038080931" lon="-6.159296035766602">
        <ele>982.5</ele>
        <time>2018-05-23T07:14:24Z</time>
      </trkpt>
      <trkpt lat="42.4552490003407" lon="-6.158931003883481">
        <ele>982.39999999999998</ele>
        <time>2018-05-23T07:14:32Z</time>
      </trkpt>
      <trkpt lat="42.45520600117743" lon="-6.158803012222052">
        <ele>982.20000000000005</ele>
        <time>2018-05-23T07:14:35Z</time>
      </trkpt>
      <trkpt lat="42.4551419634372" lon="-6.158502018079162">
        <ele>981.20000000000005</ele>
        <time>2018-05-23T07:14:42Z</time>
      </trkpt>
      <trkpt lat="42.45512000285089" lon="-6.158416019752622">
        <ele>980.89999999999998</ele>
        <time>2018-05-23T07:14:44Z</time>
      </trkpt>
      <trkpt lat="42.45509896427393" lon="-6.157965995371342">
        <ele>979.89999999999998</ele>
        <time>2018-05-23T07:14:54Z</time>
      </trkpt>
      <trkpt lat="42.45505596511066" lon="-6.157600963488221">
        <ele>978.89999999999998</ele>
        <time>2018-05-23T07:15:02Z</time>
      </trkpt>
      <trkpt lat="42.45501296594739" lon="-6.156507041305304">
        <ele>976.79999999999995</ele>
        <time>2018-05-23T07:15:26Z</time>
      </trkpt>
      <trkpt lat="42.45505596511066" lon="-6.156056011095643">
        <ele>976.39999999999998</ele>
        <time>2018-05-23T07:15:36Z</time>
      </trkpt>
      <trkpt lat="42.45509896427393" lon="-6.155970012769103">
        <ele>976.39999999999998</ele>
        <time>2018-05-23T07:15:38Z</time>
      </trkpt>
      <trkpt lat="42.45512000285089" lon="-6.155948974192143">
        <ele>976.39999999999998</ele>
        <time>2018-05-23T07:15:39Z</time>
      </trkpt>
      <trkpt lat="42.4551419634372" lon="-6.155905975028873">
        <ele>976.39999999999998</ele>
        <time>2018-05-23T07:15:40Z</time>
      </trkpt>
      <trkpt lat="42.45516300201416" lon="-6.155776977539063">
        <ele>976.29999999999995</ele>
        <time>2018-05-23T07:15:43Z</time>
      </trkpt>
      <trkpt lat="42.4551419634372" lon="-6.155584026128054">
        <ele>976.10000000000002</ele>
        <time>2018-05-23T07:15:47Z</time>
      </trkpt>
      <trkpt lat="42.45516300201416" lon="-6.155561981722713">
        <ele>976.10000000000002</ele>
        <time>2018-05-23T07:15:48Z</time>
      </trkpt>
      <trkpt lat="42.4551419634372" lon="-6.155541026964784">
        <ele>976.10000000000002</ele>
        <time>2018-05-23T07:15:49Z</time>
      </trkpt>
      <trkpt lat="42.45512000285089" lon="-6.155561981722713">
        <ele>976.10000000000002</ele>
        <time>2018-05-23T07:15:49Z</time>
      </trkpt>
      <trkpt lat="42.4551419634372" lon="-6.155561981722713">
        <ele>976.10000000000002</ele>
        <time>2018-05-23T07:15:50Z</time>
      </trkpt>
      <trkpt lat="42.45516300201416" lon="-6.155541026964784">
        <ele>976.10000000000002</ele>
        <time>2018-05-23T07:15:51Z</time>
      </trkpt>
      <trkpt lat="42.45509896427393" lon="-6.155927013605833">
        <ele>976.39999999999998</ele>
        <time>2018-05-23T07:16:00Z</time>
      </trkpt>
      <trkpt lat="42.45507700368762" lon="-6.155970012769103">
        <ele>976.39999999999998</ele>
        <time>2018-05-23T07:16:01Z</time>
      </trkpt>
      <trkpt lat="42.45509896427393" lon="-6.155991973355413">
        <ele>976.39999999999998</ele>
        <time>2018-05-23T07:16:02Z</time>
      </trkpt>
      <trkpt lat="42.455184040591121" lon="-6.155175995081663">
        <ele>975.79999999999995</ele>
        <time>2018-05-23T07:16:20Z</time>
      </trkpt>
      <trkpt lat="42.4552490003407" lon="-6.154017029330134">
        <ele>974.79999999999995</ele>
        <time>2018-05-23T07:16:45Z</time>
      </trkpt>
      <trkpt lat="42.455270038917661" lon="-6.152880024164915">
        <ele>975.70000000000005</ele>
        <time>2018-05-23T07:17:10Z</time>
      </trkpt>
      <trkpt lat="42.45529199950397" lon="-6.150949001312256">
        <ele>972.20000000000005</ele>
        <time>2018-05-23T07:17:52Z</time>
      </trkpt>
      <trkpt lat="42.45537799783051" lon="-6.149575961753726">
        <ele>971.20000000000005</ele>
        <time>2018-05-23T07:18:22Z</time>
      </trkpt>
      <trkpt lat="42.455356037244201" lon="-6.148373996838927">
        <ele>971.29999999999995</ele>
        <time>2018-05-23T07:18:48Z</time>
      </trkpt>
      <trkpt lat="42.455227039754391" lon="-6.147344028577209">
        <ele>970.79999999999995</ele>
        <time>2018-05-23T07:19:11Z</time>
      </trkpt>
      <trkpt lat="42.45503400452435" lon="-6.146356975659728">
        <ele>968.20000000000005</ele>
        <time>2018-05-23T07:19:34Z</time>
      </trkpt>
      <trkpt lat="42.45499100536108" lon="-6.146184979006648">
        <ele>967.79999999999995</ele>
        <time>2018-05-23T07:19:38Z</time>
      </trkpt>
      <trkpt lat="42.454820014536381" lon="-6.145241009071469">
        <ele>965.70000000000005</ele>
        <time>2018-05-23T07:19:59Z</time>
      </trkpt>
      <trkpt lat="42.454777015373111" lon="-6.14481202326715">
        <ele>964.60000000000002</ele>
        <time>2018-05-23T07:20:08Z</time>
      </trkpt>
      <trkpt lat="42.45488396845758" lon="-6.143503021448851">
        <ele>959.60000000000002</ele>
        <time>2018-05-23T07:20:37Z</time>
      </trkpt>
      <trkpt lat="42.45494800619781" lon="-6.142409015446901">
        <ele>956.89999999999998</ele>
        <time>2018-05-23T07:21:01Z</time>
      </trkpt>
      <trkpt lat="42.45496996678412" lon="-6.141593037173152">
        <ele>954.20000000000005</ele>
        <time>2018-05-23T07:21:19Z</time>
      </trkpt>
      <trkpt lat="42.45494800619781" lon="-6.140863979235292">
        <ele>952.10000000000002</ele>
        <time>2018-05-23T07:21:35Z</time>
      </trkpt>
      <trkpt lat="42.45492696762085" lon="-6.138910995796323">
        <ele>947.39999999999998</ele>
        <time>2018-05-23T07:22:18Z</time>
      </trkpt>
      <trkpt lat="42.454906012862921" lon="-6.137838028371334">
        <ele>945.39999999999998</ele>
        <time>2018-05-23T07:22:41Z</time>
      </trkpt>
      <trkpt lat="42.45488396845758" lon="-6.135971965268254">
        <ele>937.79999999999995</ele>
        <time>2018-05-23T07:23:22Z</time>
      </trkpt>
      <trkpt lat="42.454863013699651" lon="-6.135541973635554">
        <ele>936.39999999999998</ele>
        <time>2018-05-23T07:23:32Z</time>
      </trkpt>
      <trkpt lat="42.45488396845758" lon="-6.135435020551086">
        <ele>936.10000000000002</ele>
        <time>2018-05-23T07:23:34Z</time>
      </trkpt>
      <trkpt lat="42.454863013699651" lon="-6.135349022224546">
        <ele>935.70000000000005</ele>
        <time>2018-05-23T07:23:36Z</time>
      </trkpt>
      <trkpt lat="42.45484096929431" lon="-6.135263023898006">
        <ele>935.29999999999995</ele>
        <time>2018-05-23T07:23:38Z</time>
      </trkpt>
      <trkpt lat="42.454820014536381" lon="-6.135049033910036">
        <ele>934.39999999999998</ele>
        <time>2018-05-23T07:23:43Z</time>
      </trkpt>
      <trkpt lat="42.45484096929431" lon="-6.134812999516726">
        <ele>933.39999999999998</ele>
        <time>2018-05-23T07:23:48Z</time>
      </trkpt>
      <trkpt lat="42.454863013699651" lon="-6.134662963449955">
        <ele>932.70000000000005</ele>
        <time>2018-05-23T07:23:51Z</time>
      </trkpt>
      <trkpt lat="42.454820014536381" lon="-6.133697032928467">
        <ele>930.60000000000002</ele>
        <time>2018-05-23T07:24:12Z</time>
      </trkpt>
      <trkpt lat="42.45488396845758" lon="-6.131658973172307">
        <ele>925.20000000000005</ele>
        <time>2018-05-23T07:24:57Z</time>
      </trkpt>
      <trkpt lat="42.45501296594739" lon="-6.130713997408748">
        <ele>923</ele>
        <time>2018-05-23T07:25:18Z</time>
      </trkpt>
      <trkpt lat="42.4551419634372" lon="-6.12964203581214">
        <ele>920.79999999999995</ele>
        <time>2018-05-23T07:25:42Z</time>
      </trkpt>
      <trkpt lat="42.45529199950397" lon="-6.12829003483057">
        <ele>917.5</ele>
        <time>2018-05-23T07:26:12Z</time>
      </trkpt>
      <trkpt lat="42.45546299032867" lon="-6.12691598944366">
        <ele>915.70000000000005</ele>
        <time>2018-05-23T07:26:42Z</time>
      </trkpt>
      <trkpt lat="42.45576398447156" lon="-6.125586032867432">
        <ele>913</ele>
        <time>2018-05-23T07:27:13Z</time>
      </trkpt>
      <trkpt lat="42.45600001886487" lon="-6.124512981623411">
        <ele>911.29999999999995</ele>
        <time>2018-05-23T07:27:37Z</time>
      </trkpt>
      <trkpt lat="42.456343006342649" lon="-6.122968029230833">
        <ele>909.79999999999995</ele>
        <time>2018-05-23T07:28:12Z</time>
      </trkpt>
      <trkpt lat="42.456728992983699" lon="-6.121230041608214">
        <ele>909</ele>
        <time>2018-05-23T07:28:52Z</time>
      </trkpt>
      <trkpt lat="42.45688003487885" lon="-6.120542977005243">
        <ele>908.20000000000005</ele>
        <time>2018-05-23T07:29:08Z</time>
      </trkpt>
      <trkpt lat="42.457094024866819" lon="-6.119471015408635">
        <ele>905.60000000000002</ele>
        <time>2018-05-23T07:29:32Z</time>
      </trkpt>
      <trkpt lat="42.457115985453129" lon="-6.119428016245365">
        <ele>905.29999999999995</ele>
        <time>2018-05-23T07:29:33Z</time>
      </trkpt>
      <trkpt lat="42.457372974604368" lon="-6.118010971695185">
        <ele>900.5</ele>
        <time>2018-05-23T07:30:05Z</time>
      </trkpt>
      <trkpt lat="42.457587970420718" lon="-6.116681015118957">
        <ele>899.10000000000002</ele>
        <time>2018-05-23T07:30:35Z</time>
      </trkpt>
      <trkpt lat="42.457867003977299" lon="-6.114963982254267">
        <ele>896</ele>
        <time>2018-05-23T07:31:13Z</time>
      </trkpt>
      <trkpt lat="42.458060039207339" lon="-6.113935019820929">
        <ele>894.89999999999998</ele>
        <time>2018-05-23T07:31:37Z</time>
      </trkpt>
      <trkpt lat="42.458080993965268" lon="-6.113826977089047">
        <ele>894.70000000000005</ele>
        <time>2018-05-23T07:31:39Z</time>
      </trkpt>
      <trkpt lat="42.458274029195309" lon="-6.112646972760558">
        <ele>891.29999999999995</ele>
        <time>2018-05-23T07:32:05Z</time>
      </trkpt>
      <trkpt lat="42.458489025011659" lon="-6.111337970942259">
        <ele>888.79999999999995</ele>
        <time>2018-05-23T07:32:35Z</time>
      </trkpt>
      <trkpt lat="42.458724975585938" lon="-6.10981497913599">
        <ele>886.79999999999995</ele>
        <time>2018-05-23T07:33:09Z</time>
      </trkpt>
      <trkpt lat="42.458939971402287" lon="-6.108591975644231">
        <ele>884.10000000000002</ele>
        <time>2018-05-23T07:33:36Z</time>
      </trkpt>
      <trkpt lat="42.459110962226987" lon="-6.107539962977171">
        <ele>883.10000000000002</ele>
        <time>2018-05-23T07:34:00Z</time>
      </trkpt>
      <trkpt lat="42.459303997457027" lon="-6.106253005564213">
        <ele>883.29999999999995</ele>
        <time>2018-05-23T07:34:29Z</time>
      </trkpt>
      <trkpt lat="42.459518993273377" lon="-6.105501987040043">
        <ele>882.10000000000002</ele>
        <time>2018-05-23T07:34:46Z</time>
      </trkpt>
      <trkpt lat="42.459561992436647" lon="-6.105351028963924">
        <ele>881.79999999999995</ele>
        <time>2018-05-23T07:34:50Z</time>
      </trkpt>
      <trkpt lat="42.459604991599917" lon="-6.105157993733883">
        <ele>881.39999999999998</ele>
        <time>2018-05-23T07:34:54Z</time>
      </trkpt>
      <trkpt lat="42.459583031013608" lon="-6.105180038139224">
        <ele>881.39999999999998</ele>
        <time>2018-05-23T07:34:55Z</time>
      </trkpt>
      <trkpt lat="42.459732983261347" lon="-6.104578971862793">
        <ele>880.29999999999995</ele>
        <time>2018-05-23T07:35:09Z</time>
      </trkpt>
      <trkpt lat="42.459990978240967" lon="-6.103721000254154">
        <ele>877.89999999999998</ele>
        <time>2018-05-23T07:35:29Z</time>
      </trkpt>
      <trkpt lat="42.460012016817927" lon="-6.103678001090884">
        <ele>877.89999999999998</ele>
        <time>2018-05-23T07:35:30Z</time>
      </trkpt>
      <trkpt lat="42.460184013471007" lon="-6.102905021980405">
        <ele>876</ele>
        <time>2018-05-23T07:35:48Z</time>
      </trkpt>
      <trkpt lat="42.460333965718746" lon="-6.102197002619505">
        <ele>875.29999999999995</ele>
        <time>2018-05-23T07:36:04Z</time>
      </trkpt>
      <trkpt lat="42.460376964882016" lon="-6.102132964879274">
        <ele>875.10000000000002</ele>
        <time>2018-05-23T07:36:06Z</time>
      </trkpt>
      <trkpt lat="42.460399009287357" lon="-6.102046966552734">
        <ele>875</ele>
        <time>2018-05-23T07:36:08Z</time>
      </trkpt>
      <trkpt lat="42.460485007613897" lon="-6.100522968918085">
        <ele>875.39999999999998</ele>
        <time>2018-05-23T07:36:41Z</time>
      </trkpt>
      <trkpt lat="42.460548961535096" lon="-6.098913978785276">
        <ele>873</ele>
        <time>2018-05-23T07:37:17Z</time>
      </trkpt>
      <trkpt lat="42.460892032831907" lon="-6.098013008013368">
        <ele>869.5</ele>
        <time>2018-05-23T07:37:39Z</time>
      </trkpt>
      <trkpt lat="42.461021030321717" lon="-6.097733974456787">
        <ele>869.20000000000005</ele>
        <time>2018-05-23T07:37:46Z</time>
      </trkpt>
      <trkpt lat="42.461513970047235" lon="-6.096704006195068">
        <ele>869.20000000000005</ele>
        <time>2018-05-23T07:38:13Z</time>
      </trkpt>
      <trkpt lat="42.461556969210505" lon="-6.096596969291568">
        <ele>869.20000000000005</ele>
        <time>2018-05-23T07:38:16Z</time>
      </trkpt>
      <trkpt lat="42.461665011942387" lon="-6.096575008705258">
        <ele>869.20000000000005</ele>
        <time>2018-05-23T07:38:19Z</time>
      </trkpt>
      <trkpt lat="42.461751010268927" lon="-6.096510970965028">
        <ele>869.20000000000005</ele>
        <time>2018-05-23T07:38:22Z</time>
      </trkpt>
      <trkpt lat="42.461771965026855" lon="-6.095823990181088">
        <ele>868.70000000000005</ele>
        <time>2018-05-23T07:38:37Z</time>
      </trkpt>
      <trkpt lat="42.461708011105657" lon="-6.09434399753809">
        <ele>868.70000000000005</ele>
        <time>2018-05-23T07:39:09Z</time>
      </trkpt>
      <trkpt lat="42.461642967537045" lon="-6.092777000740171">
        <ele>865.60000000000002</ele>
        <time>2018-05-23T07:39:43Z</time>
      </trkpt>
      <trkpt lat="42.461536014452577" lon="-6.091360962018371">
        <ele>865.70000000000005</ele>
        <time>2018-05-23T07:40:15Z</time>
      </trkpt>
      <trkpt lat="42.461193026974797" lon="-6.089816009625793">
        <ele>863.89999999999998</ele>
        <time>2018-05-23T07:40:50Z</time>
      </trkpt>
      <trkpt lat="42.460870994254947" lon="-6.088313972577453">
        <ele>863.5</ele>
        <time>2018-05-23T07:41:24Z</time>
      </trkpt>
      <trkpt lat="42.460634959861636" lon="-6.087219966575503">
        <ele>862.39999999999998</ele>
        <time>2018-05-23T07:41:49Z</time>
      </trkpt>
      <trkpt lat="42.460612999275327" lon="-6.087027015164495">
        <ele>862.29999999999995</ele>
        <time>2018-05-23T07:41:53Z</time>
      </trkpt>
      <trkpt lat="42.460485007613897" lon="-6.086769020184875">
        <ele>862.10000000000002</ele>
        <time>2018-05-23T07:42:00Z</time>
      </trkpt>
      <trkpt lat="42.460227012634277" lon="-6.085481978952885">
        <ele>861.29999999999995</ele>
        <time>2018-05-23T07:42:29Z</time>
      </trkpt>
      <trkpt lat="42.460033977404237" lon="-6.084495009854436">
        <ele>861.70000000000005</ele>
        <time>2018-05-23T07:42:52Z</time>
      </trkpt>
      <trkpt lat="42.460012016817927" lon="-6.084343967959285">
        <ele>861.60000000000002</ele>
        <time>2018-05-23T07:42:55Z</time>
      </trkpt>
      <trkpt lat="42.459990978240967" lon="-6.084323013201356">
        <ele>861.5</ele>
        <time>2018-05-23T07:42:56Z</time>
      </trkpt>
      <trkpt lat="42.459970023483038" lon="-6.084343967959285">
        <ele>861.29999999999995</ele>
        <time>2018-05-23T07:42:56Z</time>
      </trkpt>
      <trkpt lat="42.459947979077697" lon="-6.084323013201356">
        <ele>861.20000000000005</ele>
        <time>2018-05-23T07:42:57Z</time>
      </trkpt>
      <trkpt lat="42.459818981587887" lon="-6.083657993003726">
        <ele>860.79999999999995</ele>
        <time>2018-05-23T07:43:12Z</time>
      </trkpt>
      <trkpt lat="42.459775982424617" lon="-6.083442997187376">
        <ele>860.39999999999998</ele>
        <time>2018-05-23T07:43:17Z</time>
      </trkpt>
      <trkpt lat="42.459669029340148" lon="-6.082949973642826">
        <ele>860</ele>
        <time>2018-05-23T07:43:28Z</time>
      </trkpt>
      <trkpt lat="42.459497032687068" lon="-6.082176994532347">
        <ele>860</ele>
        <time>2018-05-23T07:43:46Z</time>
      </trkpt>
      <trkpt lat="42.459303997457027" lon="-6.081425976008177">
        <ele>860</ele>
        <time>2018-05-23T07:44:03Z</time>
      </trkpt>
      <trkpt lat="42.459196960553527" lon="-6.079773986712098">
        <ele>859.60000000000002</ele>
        <time>2018-05-23T07:44:40Z</time>
      </trkpt>
      <trkpt lat="42.459153961390257" lon="-6.078035999089479">
        <ele>857.70000000000005</ele>
        <time>2018-05-23T07:45:18Z</time>
      </trkpt>
      <trkpt lat="42.459133006632328" lon="-6.077006030827761">
        <ele>856.29999999999995</ele>
        <time>2018-05-23T07:45:40Z</time>
      </trkpt>
      <trkpt lat="42.459153961390257" lon="-6.076920032501221">
        <ele>856.20000000000005</ele>
        <time>2018-05-23T07:45:42Z</time>
      </trkpt>
      <trkpt lat="42.459176005795598" lon="-6.076169013977051">
        <ele>855</ele>
        <time>2018-05-23T07:45:59Z</time>
      </trkpt>
      <trkpt lat="42.459219004958868" lon="-6.075654029846191">
        <ele>855.10000000000002</ele>
        <time>2018-05-23T07:46:10Z</time>
      </trkpt>
      <trkpt lat="42.459239959716797" lon="-6.075482033193111">
        <ele>855.20000000000005</ele>
        <time>2018-05-23T07:46:14Z</time>
      </trkpt>
      <trkpt lat="42.459282958880067" lon="-6.074795974418521">
        <ele>855.29999999999995</ele>
        <time>2018-05-23T07:46:29Z</time>
      </trkpt>
      <trkpt lat="42.459369041025639" lon="-6.073251022025943">
        <ele>855.89999999999998</ele>
        <time>2018-05-23T07:47:03Z</time>
      </trkpt>
      <trkpt lat="42.459067963063717" lon="-6.071404991671443">
        <ele>858.10000000000002</ele>
        <time>2018-05-23T07:47:44Z</time>
      </trkpt>
      <trkpt lat="42.458724975585938" lon="-6.068915985524654">
        <ele>858.89999999999998</ele>
        <time>2018-05-23T07:48:39Z</time>
      </trkpt>
      <trkpt lat="42.458661021664739" lon="-6.068187011405826">
        <ele>859.70000000000005</ele>
        <time>2018-05-23T07:48:56Z</time>
      </trkpt>
      <trkpt lat="42.458466980606318" lon="-6.066320026293397">
        <ele>864.39999999999998</ele>
        <time>2018-05-23T07:49:37Z</time>
      </trkpt>
      <trkpt lat="42.458532024174929" lon="-6.065311012789607">
        <ele>868.70000000000005</ele>
        <time>2018-05-23T07:49:59Z</time>
      </trkpt>
      <trkpt lat="42.458661021664739" lon="-6.064602993428707">
        <ele>872.39999999999998</ele>
        <time>2018-05-23T07:50:15Z</time>
      </trkpt>
      <trkpt lat="42.458789013326168" lon="-6.064109969884157">
        <ele>875.39999999999998</ele>
        <time>2018-05-23T07:50:26Z</time>
      </trkpt>
      <trkpt lat="42.458875011652708" lon="-6.063851974904537">
        <ele>876.70000000000005</ele>
        <time>2018-05-23T07:50:33Z</time>
      </trkpt>
      <trkpt lat="42.458981964737177" lon="-6.063637984916568">
        <ele>877.10000000000002</ele>
        <time>2018-05-23T07:50:38Z</time>
      </trkpt>
      <trkpt lat="42.459047008305788" lon="-6.063573025166988">
        <ele>877.10000000000002</ele>
        <time>2018-05-23T07:50:41Z</time>
      </trkpt>
      <trkpt lat="42.459110962226987" lon="-6.063422989100218">
        <ele>877</ele>
        <time>2018-05-23T07:50:44Z</time>
      </trkpt>
      <trkpt lat="42.458575023338199" lon="-6.062865005806088">
        <ele>873.5</ele>
        <time>2018-05-23T07:51:04Z</time>
      </trkpt>
      <trkpt lat="42.458403026685119" lon="-6.062714969739318">
        <ele>872</ele>
        <time>2018-05-23T07:51:11Z</time>
      </trkpt>
      <trkpt lat="42.458103038370609" lon="-6.062436020001769">
        <ele>869.89999999999998</ele>
        <time>2018-05-23T07:51:21Z</time>
      </trkpt>
      <trkpt lat="42.457695007324219" lon="-6.062070988118649">
        <ele>866.89999999999998</ele>
        <time>2018-05-23T07:51:36Z</time>
      </trkpt>
      <trkpt lat="42.456965027377009" lon="-6.06134201399982">
        <ele>864.5</ele>
        <time>2018-05-23T07:52:03Z</time>
      </trkpt>
      <trkpt lat="42.456601001322269" lon="-6.061062980443239">
        <ele>863.10000000000002</ele>
        <time>2018-05-23T07:52:15Z</time>
      </trkpt>
      <trkpt lat="42.456278968602419" lon="-6.06065503321588">
        <ele>863.5</ele>
        <time>2018-05-23T07:52:28Z</time>
      </trkpt>
      <trkpt lat="42.456235969439149" lon="-6.06061203405261">
        <ele>863.5</ele>
        <time>2018-05-23T07:52:30Z</time>
      </trkpt>
      <trkpt lat="42.456214008852839" lon="-6.06056903488934">
        <ele>863.60000000000002</ele>
        <time>2018-05-23T07:52:31Z</time>
      </trkpt>
      <trkpt lat="42.456492958590388" lon="-6.060225963592529">
        <ele>867</ele>
        <time>2018-05-23T07:52:42Z</time>
      </trkpt>
      <trkpt lat="42.45692303404212" lon="-6.059732018038631">
        <ele>870.20000000000005</ele>
        <time>2018-05-23T07:52:59Z</time>
      </trkpt>
      <trkpt lat="42.458123993128538" lon="-6.058444976806641">
        <ele>873.39999999999998</ele>
        <time>2018-05-23T07:53:44Z</time>
      </trkpt>
      <trkpt lat="42.458746014162898" lon="-6.057951031252742">
        <ele>874</ele>
        <time>2018-05-23T07:54:06Z</time>
      </trkpt>
      <trkpt lat="42.458896972239017" lon="-6.057800995185971">
        <ele>873.5</ele>
        <time>2018-05-23T07:54:11Z</time>
      </trkpt>
      <trkpt lat="42.459067963063717" lon="-6.057673003524542">
        <ele>873.10000000000002</ele>
        <time>2018-05-23T07:54:17Z</time>
      </trkpt>
      <trkpt lat="42.459133006632328" lon="-6.057630004361272">
        <ele>872.89999999999998</ele>
        <time>2018-05-23T07:54:19Z</time>
      </trkpt>
      <trkpt lat="42.459196960553527" lon="-6.057587005198002">
        <ele>872.70000000000005</ele>
        <time>2018-05-23T07:54:21Z</time>
      </trkpt>
      <trkpt lat="42.459219004958868" lon="-6.057350970804691">
        <ele>872.60000000000002</ele>
        <time>2018-05-23T07:54:26Z</time>
      </trkpt>
      <trkpt lat="42.459303997457027" lon="-6.056857025250793">
        <ele>871.79999999999995</ele>
        <time>2018-05-23T07:54:37Z</time>
      </trkpt>
      <trkpt lat="42.459282958880067" lon="-6.056728027760983">
        <ele>871.5</ele>
        <time>2018-05-23T07:54:40Z</time>
      </trkpt>
      <trkpt lat="42.459196960553527" lon="-6.056706989184022">
        <ele>871.60000000000002</ele>
        <time>2018-05-23T07:54:43Z</time>
      </trkpt>
      <trkpt lat="42.459133006632328" lon="-6.056405995041132">
        <ele>870.89999999999998</ele>
        <time>2018-05-23T07:54:50Z</time>
      </trkpt>
      <trkpt lat="42.459004009142518" lon="-6.056020008400083">
        <ele>869.5</ele>
        <time>2018-05-23T07:54:59Z</time>
      </trkpt>
      <trkpt lat="42.459024963900447" lon="-6.055955970659852">
        <ele>869.10000000000002</ele>
        <time>2018-05-23T07:55:01Z</time>
      </trkpt>
      <trkpt lat="42.459260998293757" lon="-6.055740974843502">
        <ele>867.60000000000002</ele>
        <time>2018-05-23T07:55:09Z</time>
      </trkpt>
      <trkpt lat="42.459732983261347" lon="-6.055354988202453">
        <ele>865.5</ele>
        <time>2018-05-23T07:55:25Z</time>
      </trkpt>
      <trkpt lat="42.459690989926457" lon="-6.055311989039183">
        <ele>865.29999999999995</ele>
        <time>2018-05-23T07:55:27Z</time>
      </trkpt>
      <trkpt lat="42.459518993273377" lon="-6.054904041811824">
        <ele>864.5</ele>
        <time>2018-05-23T07:55:37Z</time>
      </trkpt>
      <trkpt lat="42.459282958880067" lon="-6.054689968004823">
        <ele>864.5</ele>
        <time>2018-05-23T07:55:46Z</time>
      </trkpt>
      <trkpt lat="42.458724975585938" lon="-6.055076038464904">
        <ele>866.29999999999995</ele>
        <time>2018-05-23T07:56:04Z</time>
      </trkpt>
      <trkpt lat="42.458638977259398" lon="-6.055097999051213">
        <ele>866.79999999999995</ele>
        <time>2018-05-23T07:56:07Z</time>
      </trkpt>
      <trkpt lat="42.458466980606318" lon="-6.054646968841553">
        <ele>866.5</ele>
        <time>2018-05-23T07:56:18Z</time>
      </trkpt>
      <trkpt lat="42.458146037533879" lon="-6.053788997232914">
        <ele>864.60000000000002</ele>
        <time>2018-05-23T07:56:39Z</time>
      </trkpt>
      <trkpt lat="42.458103038370609" lon="-6.053702998906374">
        <ele>864.39999999999998</ele>
        <time>2018-05-23T07:56:41Z</time>
      </trkpt>
      <trkpt lat="42.457887958735228" lon="-6.053102016448975">
        <ele>862.89999999999998</ele>
        <time>2018-05-23T07:56:56Z</time>
      </trkpt>
      <trkpt lat="42.457910003140569" lon="-6.053165970370174">
        <ele>863</ele>
        <time>2018-05-23T07:56:57Z</time>
      </trkpt>
      <trkpt lat="42.457867003977299" lon="-6.053145015612245">
        <ele>863.20000000000005</ele>
        <time>2018-05-23T07:56:59Z</time>
      </trkpt>
      <trkpt lat="42.457801960408688" lon="-6.053122971206904">
        <ele>863.60000000000002</ele>
        <time>2018-05-23T07:57:01Z</time>
      </trkpt>
      <trkpt lat="42.457738006487489" lon="-6.053102016448975">
        <ele>864</ele>
        <time>2018-05-23T07:57:03Z</time>
      </trkpt>
      <trkpt lat="42.457609008997679" lon="-6.053037978708744">
        <ele>864.79999999999995</ele>
        <time>2018-05-23T07:57:07Z</time>
      </trkpt>
      <trkpt lat="42.457587970420718" lon="-6.053016018122435">
        <ele>864.79999999999995</ele>
        <time>2018-05-23T07:57:08Z</time>
      </trkpt>
      <trkpt lat="42.457137024030089" lon="-6.052759028971195">
        <ele>866.70000000000005</ele>
        <time>2018-05-23T07:57:22Z</time>
      </trkpt>
      <trkpt lat="42.456900989636779" lon="-6.052845027297735">
        <ele>868.5</ele>
        <time>2018-05-23T07:57:29Z</time>
      </trkpt>
      <trkpt lat="42.45683703571558" lon="-6.052845027297735">
        <ele>868.79999999999995</ele>
        <time>2018-05-23T07:57:31Z</time>
      </trkpt>
      <trkpt lat="42.45679403655231" lon="-6.052908981218934">
        <ele>869.39999999999998</ele>
        <time>2018-05-23T07:57:33Z</time>
      </trkpt>
      <trkpt lat="42.456449959427118" lon="-6.053445003926754">
        <ele>872.29999999999995</ele>
        <time>2018-05-23T07:57:49Z</time>
      </trkpt>
      <trkpt lat="42.455356037244201" lon="-6.052908981218934">
        <ele>873.89999999999998</ele>
        <time>2018-05-23T07:58:23Z</time>
      </trkpt>
      <trkpt lat="42.45449798181653" lon="-6.052887020632625">
        <ele>872</ele>
        <time>2018-05-23T07:58:49Z</time>
      </trkpt>
      <trkpt lat="42.45428298600018" lon="-6.052693985402584">
        <ele>869.5</ele>
        <time>2018-05-23T07:58:56Z</time>
      </trkpt>
      <trkpt lat="42.454111995175481" lon="-6.052458034828305">
        <ele>867.70000000000005</ele>
        <time>2018-05-23T07:59:04Z</time>
      </trkpt>
      <trkpt lat="42.454090034589171" lon="-6.052458034828305">
        <ele>867.5</ele>
        <time>2018-05-23T07:59:04Z</time>
      </trkpt>
      <trkpt lat="42.454047035425901" lon="-6.052458034828305">
        <ele>867.20000000000005</ele>
        <time>2018-05-23T07:59:05Z</time>
      </trkpt>
      <trkpt lat="42.453961037099361" lon="-6.052350997924805">
        <ele>866.39999999999998</ele>
        <time>2018-05-23T07:59:09Z</time>
      </trkpt>
      <trkpt lat="42.453854000195861" lon="-6.052243961021304">
        <ele>865.60000000000002</ele>
        <time>2018-05-23T07:59:13Z</time>
      </trkpt>
      <trkpt lat="42.453811001032591" lon="-6.052200961858034">
        <ele>865.29999999999995</ele>
        <time>2018-05-23T07:59:14Z</time>
      </trkpt>
      <trkpt lat="42.453640010207891" lon="-6.052415035665035">
        <ele>863</ele>
        <time>2018-05-23T07:59:21Z</time>
      </trkpt>
      <trkpt lat="42.453460972756147" lon="-6.052582003176212">
        <ele>860.20000000000005</ele>
        <time>2018-05-23T07:59:28Z</time>
      </trkpt>
      <trkpt lat="42.453274978324771" lon="-6.052286960184574">
        <ele>858.20000000000005</ele>
        <time>2018-05-23T07:59:36Z</time>
      </trkpt>
      <trkpt lat="42.453125026077032" lon="-6.051985966041684">
        <ele>857.10000000000002</ele>
        <time>2018-05-23T07:59:44Z</time>
      </trkpt>
      <trkpt lat="42.453039027750492" lon="-6.051728976890445">
        <ele>857.10000000000002</ele>
        <time>2018-05-23T07:59:51Z</time>
      </trkpt>
      <trkpt lat="42.453016983345151" lon="-6.051642978563905">
        <ele>857.20000000000005</ele>
        <time>2018-05-23T07:59:53Z</time>
      </trkpt>
      <trkpt lat="42.453039027750492" lon="-6.051536025479436">
        <ele>858</ele>
        <time>2018-05-23T07:59:55Z</time>
      </trkpt>
      <trkpt lat="42.453059982508421" lon="-6.051513981074095">
        <ele>858.29999999999995</ele>
        <time>2018-05-23T07:59:56Z</time>
      </trkpt>
      <trkpt lat="42.453125026077032" lon="-6.051493026316166">
        <ele>859.10000000000002</ele>
        <time>2018-05-23T07:59:58Z</time>
      </trkpt>
      <trkpt lat="42.453145980834961" lon="-6.051493026316166">
        <ele>859.29999999999995</ele>
        <time>2018-05-23T07:59:58Z</time>
      </trkpt>
      <trkpt lat="42.453167019411922" lon="-6.051364028826356">
        <ele>860</ele>
        <time>2018-05-23T08:00:01Z</time>
      </trkpt>
      <trkpt lat="42.453231979161501" lon="-6.051127994433045">
        <ele>860.89999999999998</ele>
        <time>2018-05-23T08:00:07Z</time>
      </trkpt>
      <trkpt lat="42.453253017738461" lon="-6.050998996943235">
        <ele>861</ele>
        <time>2018-05-23T08:00:10Z</time>
      </trkpt>
      <trkpt lat="42.453274978324771" lon="-6.050891960039735">
        <ele>861.10000000000002</ele>
        <time>2018-05-23T08:00:12Z</time>
      </trkpt>
      <trkpt lat="42.453188979998231" lon="-6.050699008628726">
        <ele>860.20000000000005</ele>
        <time>2018-05-23T08:00:17Z</time>
      </trkpt>
      <trkpt lat="42.453102981671691" lon="-6.050676964223385">
        <ele>859.5</ele>
        <time>2018-05-23T08:00:20Z</time>
      </trkpt>
      <trkpt lat="42.453082026913762" lon="-6.050656009465456">
        <ele>859.29999999999995</ele>
        <time>2018-05-23T08:00:20Z</time>
      </trkpt>
      <trkpt lat="42.453016983345151" lon="-6.050656009465456">
        <ele>858.79999999999995</ele>
        <time>2018-05-23T08:00:22Z</time>
      </trkpt>
      <trkpt lat="42.452996028587222" lon="-6.050656009465456">
        <ele>858.60000000000002</ele>
        <time>2018-05-23T08:00:23Z</time>
      </trkpt>
      <trkpt lat="42.452973984181881" lon="-6.050633965060115">
        <ele>858.39999999999998</ele>
        <time>2018-05-23T08:00:24Z</time>
      </trkpt>
      <trkpt lat="42.452910030260682" lon="-6.050633965060115">
        <ele>857.89999999999998</ele>
        <time>2018-05-23T08:00:26Z</time>
      </trkpt>
      <trkpt lat="42.452867031097412" lon="-6.050633965060115">
        <ele>857.39999999999998</ele>
        <time>2018-05-23T08:00:27Z</time>
      </trkpt>
      <trkpt lat="42.452845992520452" lon="-6.050613010302186">
        <ele>857.10000000000002</ele>
        <time>2018-05-23T08:00:28Z</time>
      </trkpt>
      <trkpt lat="42.453016983345151" lon="-6.050613010302186">
        <ele>858.79999999999995</ele>
        <time>2018-05-23T08:00:33Z</time>
      </trkpt>
      <trkpt lat="42.453210018575191" lon="-6.050505973398686">
        <ele>860.20000000000005</ele>
        <time>2018-05-23T08:00:39Z</time>
      </trkpt>
      <trkpt lat="42.453296016901731" lon="-6.050527011975646">
        <ele>860.89999999999998</ele>
        <time>2018-05-23T08:00:42Z</time>
      </trkpt>
      <trkpt lat="42.453360976651311" lon="-6.050484012812376">
        <ele>861.29999999999995</ele>
        <time>2018-05-23T08:00:44Z</time>
      </trkpt>
      <trkpt lat="42.4534029699862" lon="-6.050441013649106">
        <ele>861.5</ele>
        <time>2018-05-23T08:00:45Z</time>
      </trkpt>
      <trkpt lat="42.453554011881351" lon="-6.050141025334597">
        <ele>858.10000000000002</ele>
        <time>2018-05-23T08:00:53Z</time>
      </trkpt>
      <trkpt lat="42.453597011044621" lon="-6.050033988431096">
        <ele>856.5</ele>
        <time>2018-05-23T08:00:56Z</time>
      </trkpt>
      <trkpt lat="42.4538329616189" lon="-6.049239970743656">
        <ele>846.70000000000005</ele>
        <time>2018-05-23T08:01:15Z</time>
      </trkpt>
      <trkpt lat="42.45387596078217" lon="-6.049132011830807">
        <ele>846</ele>
        <time>2018-05-23T08:01:18Z</time>
      </trkpt>
      <trkpt lat="42.453939998522401" lon="-6.048809979110956">
        <ele>844.10000000000002</ele>
        <time>2018-05-23T08:01:25Z</time>
      </trkpt>
      <trkpt lat="42.453982997685671" lon="-6.048703026026487">
        <ele>843.60000000000002</ele>
        <time>2018-05-23T08:01:28Z</time>
      </trkpt>
      <trkpt lat="42.453939998522401" lon="-6.048446036875248">
        <ele>843.20000000000005</ele>
        <time>2018-05-23T08:01:33Z</time>
      </trkpt>
      <trkpt lat="42.454025996848941" lon="-6.048144958913326">
        <ele>842.5</ele>
        <time>2018-05-23T08:01:40Z</time>
      </trkpt>
      <trkpt lat="42.454219032078981" lon="-6.047973968088627">
        <ele>841.5</ele>
        <time>2018-05-23T08:01:47Z</time>
      </trkpt>
      <trkpt lat="42.454562019556761" lon="-6.048253001645207">
        <ele>841.29999999999995</ele>
        <time>2018-05-23T08:01:59Z</time>
      </trkpt>
      <trkpt lat="42.454648017883301" lon="-6.048317039385438">
        <ele>841.60000000000002</ele>
        <time>2018-05-23T08:02:02Z</time>
      </trkpt>
      <trkpt lat="42.454777015373111" lon="-6.048317039385438">
        <ele>841.89999999999998</ele>
        <time>2018-05-23T08:02:06Z</time>
      </trkpt>
      <trkpt lat="42.454820014536381" lon="-6.048144958913326">
        <ele>841.39999999999998</ele>
        <time>2018-05-23T08:02:10Z</time>
      </trkpt>
      <trkpt lat="42.454777015373111" lon="-6.047094035893679">
        <ele>840.5</ele>
        <time>2018-05-23T08:02:33Z</time>
      </trkpt>
      <trkpt lat="42.45475497096777" lon="-6.046320972964168">
        <ele>841.89999999999998</ele>
        <time>2018-05-23T08:02:50Z</time>
      </trkpt>
      <trkpt lat="42.4547119718045" lon="-6.045312965288758">
        <ele>841.89999999999998</ele>
        <time>2018-05-23T08:03:12Z</time>
      </trkpt>
      <trkpt lat="42.45466897264123" lon="-6.04443303309381">
        <ele>840.79999999999995</ele>
        <time>2018-05-23T08:03:31Z</time>
      </trkpt>
      <trkpt lat="42.4551419634372" lon="-6.044304035604">
        <ele>840.70000000000005</ele>
        <time>2018-05-23T08:03:45Z</time>
      </trkpt>
      <trkpt lat="42.4552490003407" lon="-6.04428299702704">
        <ele>840.60000000000002</ele>
        <time>2018-05-23T08:03:49Z</time>
      </trkpt>
      <trkpt lat="42.455313038080931" lon="-6.04426103644073">
        <ele>840.60000000000002</ele>
        <time>2018-05-23T08:03:51Z</time>
      </trkpt>
      <trkpt lat="42.45582802221179" lon="-6.04385401122272">
        <ele>840.60000000000002</ele>
        <time>2018-05-23T08:04:08Z</time>
      </trkpt>
      <trkpt lat="42.455977974459529" lon="-6.042953040450811">
        <ele>841.29999999999995</ele>
        <time>2018-05-23T08:04:28Z</time>
      </trkpt>
      <trkpt lat="42.45591402053833" lon="-6.042116023600102">
        <ele>840</ele>
        <time>2018-05-23T08:04:47Z</time>
      </trkpt>
      <trkpt lat="42.45589298196137" lon="-6.041922988370061">
        <ele>840.20000000000005</ele>
        <time>2018-05-23T08:04:51Z</time>
      </trkpt>
      <trkpt lat="42.455657031387091" lon="-6.040206039324403">
        <ele>841.20000000000005</ele>
        <time>2018-05-23T08:05:29Z</time>
      </trkpt>
      <trkpt lat="42.455485034734011" lon="-6.039003990590572">
        <ele>840.60000000000002</ele>
        <time>2018-05-23T08:05:56Z</time>
      </trkpt>
      <trkpt lat="42.455313038080931" lon="-6.037803031504154">
        <ele>839</ele>
        <time>2018-05-23T08:06:23Z</time>
      </trkpt>
      <trkpt lat="42.45529199950397" lon="-6.037651989609003">
        <ele>839.10000000000002</ele>
        <time>2018-05-23T08:06:26Z</time>
      </trkpt>
      <trkpt lat="42.45516300201416" lon="-6.036837017163634">
        <ele>840</ele>
        <time>2018-05-23T08:06:44Z</time>
      </trkpt>
      <trkpt lat="42.45501296594739" lon="-6.035806965082884">
        <ele>841</ele>
        <time>2018-05-23T08:07:07Z</time>
      </trkpt>
      <trkpt lat="42.45494800619781" lon="-6.035291980952025">
        <ele>841</ele>
        <time>2018-05-23T08:07:19Z</time>
      </trkpt>
      <trkpt lat="42.45492696762085" lon="-6.034970032051206">
        <ele>841</ele>
        <time>2018-05-23T08:07:26Z</time>
      </trkpt>
      <trkpt lat="42.45484096929431" lon="-6.034368965774775">
        <ele>841.20000000000005</ele>
        <time>2018-05-23T08:07:39Z</time>
      </trkpt>
      <trkpt lat="42.45475497096777" lon="-6.033510994166136">
        <ele>841.20000000000005</ele>
        <time>2018-05-23T08:07:58Z</time>
      </trkpt>
      <trkpt lat="42.4547119718045" lon="-6.032502986490727">
        <ele>840</ele>
        <time>2018-05-23T08:08:20Z</time>
      </trkpt>
      <trkpt lat="42.45466897264123" lon="-6.031730007380247">
        <ele>839.5</ele>
        <time>2018-05-23T08:08:37Z</time>
      </trkpt>
      <trkpt lat="42.454605018720031" lon="-6.030313968658447">
        <ele>837.89999999999998</ele>
        <time>2018-05-23T08:09:08Z</time>
      </trkpt>
      <trkpt lat="42.454519020393491" lon="-6.028898013755679">
        <ele>836.89999999999998</ele>
        <time>2018-05-23T08:09:39Z</time>
      </trkpt>
      <trkpt lat="42.45436898432672" lon="-6.027395976707339">
        <ele>837</ele>
        <time>2018-05-23T08:10:12Z</time>
      </trkpt>
      <trkpt lat="42.45428298600018" lon="-6.02587197907269">
        <ele>837.89999999999998</ele>
        <time>2018-05-23T08:10:46Z</time>
      </trkpt>
      <trkpt lat="42.45415398851037" lon="-6.025636028498411">
        <ele>837.79999999999995</ele>
        <time>2018-05-23T08:10:52Z</time>
      </trkpt>
      <trkpt lat="42.453939998522401" lon="-6.025593029335141">
        <ele>837.39999999999998</ele>
        <time>2018-05-23T08:10:59Z</time>
      </trkpt>
      <trkpt lat="42.453896999359131" lon="-6.025507031008601">
        <ele>837.29999999999995</ele>
        <time>2018-05-23T08:11:01Z</time>
      </trkpt>
      <trkpt lat="42.453854000195861" lon="-6.025229003280401">
        <ele>837.20000000000005</ele>
        <time>2018-05-23T08:11:07Z</time>
      </trkpt>
      <trkpt lat="42.4538329616189" lon="-6.024971008300781">
        <ele>837.20000000000005</ele>
        <time>2018-05-23T08:11:13Z</time>
      </trkpt>
      <trkpt lat="42.45374696329236" lon="-6.023898040875793">
        <ele>838.60000000000002</ele>
        <time>2018-05-23T08:11:36Z</time>
      </trkpt>
      <trkpt lat="42.453768001869321" lon="-6.023683967068791">
        <ele>839.10000000000002</ele>
        <time>2018-05-23T08:11:41Z</time>
      </trkpt>
      <trkpt lat="42.453961037099361" lon="-6.023425972089171">
        <ele>839.29999999999995</ele>
        <time>2018-05-23T08:11:49Z</time>
      </trkpt>
      <trkpt lat="42.454391028732061" lon="-6.022975025698543">
        <ele>839.20000000000005</ele>
        <time>2018-05-23T08:12:05Z</time>
      </trkpt>
      <trkpt lat="42.454433022066951" lon="-6.022890033200383">
        <ele>839.20000000000005</ele>
        <time>2018-05-23T08:12:08Z</time>
      </trkpt>
      <trkpt lat="42.45458398014307" lon="-6.022503040730953">
        <ele>839</ele>
        <time>2018-05-23T08:12:17Z</time>
      </trkpt>
      <trkpt lat="42.454562019556761" lon="-6.021730983629823">
        <ele>839.39999999999998</ele>
        <time>2018-05-23T08:12:34Z</time>
      </trkpt>
      <trkpt lat="42.4545409809798" lon="-6.021237038075924">
        <ele>839.79999999999995</ele>
        <time>2018-05-23T08:12:45Z</time>
      </trkpt>
      <trkpt lat="42.454519020393491" lon="-6.020936965942383">
        <ele>839.79999999999995</ele>
        <time>2018-05-23T08:12:51Z</time>
      </trkpt>
      <trkpt lat="42.45445498265326" lon="-6.019607009366155">
        <ele>838.89999999999998</ele>
        <time>2018-05-23T08:13:21Z</time>
      </trkpt>
      <trkpt lat="42.45436898432672" lon="-6.018554996699095">
        <ele>839.20000000000005</ele>
        <time>2018-05-23T08:13:44Z</time>
      </trkpt>
      <trkpt lat="42.45445498265326" lon="-6.018298007547855">
        <ele>839.89999999999998</ele>
        <time>2018-05-23T08:13:50Z</time>
      </trkpt>
      <trkpt lat="42.454476021230221" lon="-6.017889976501465">
        <ele>841</ele>
        <time>2018-05-23T08:13:59Z</time>
      </trkpt>
      <trkpt lat="42.45445498265326" lon="-6.017354037612677">
        <ele>844</ele>
        <time>2018-05-23T08:14:11Z</time>
      </trkpt>
      <trkpt lat="42.454348029568791" lon="-6.016065990552306">
        <ele>847.20000000000005</ele>
        <time>2018-05-23T08:14:39Z</time>
      </trkpt>
      <trkpt lat="42.45419698767364" lon="-6.015142975375056">
        <ele>849.29999999999995</ele>
        <time>2018-05-23T08:15:00Z</time>
      </trkpt>
      <trkpt lat="42.45419698767364" lon="-6.015142975375056">
        <ele>849.29999999999995</ele>
        <time>2018-05-23T08:15:00Z</time>
      </trkpt>
      <trkpt lat="42.454262031242251" lon="-6.012095985934138">
        <ele>853.79999999999995</ele>
        <time>2018-05-23T08:16:06Z</time>
      </trkpt>
      <trkpt lat="42.45428298600018" lon="-6.01076602935791">
        <ele>854.10000000000002</ele>
        <time>2018-05-23T08:16:35Z</time>
      </trkpt>
      <trkpt lat="42.454305030405521" lon="-6.009672023355961">
        <ele>854.60000000000002</ele>
        <time>2018-05-23T08:16:59Z</time>
      </trkpt>
      <trkpt lat="42.45432598516345" lon="-6.00855597294867">
        <ele>855.5</ele>
        <time>2018-05-23T08:17:24Z</time>
      </trkpt>
      <trkpt lat="42.45436898432672" lon="-6.007054019719362">
        <ele>859.5</ele>
        <time>2018-05-23T08:17:57Z</time>
      </trkpt>
      <trkpt lat="42.45432598516345" lon="-6.006152965128422">
        <ele>860.89999999999998</ele>
        <time>2018-05-23T08:18:16Z</time>
      </trkpt>
      <trkpt lat="42.454305030405521" lon="-6.006002007052302">
        <ele>861.60000000000002</ele>
        <time>2018-05-23T08:18:20Z</time>
      </trkpt>
      <trkpt lat="42.45436898432672" lon="-6.005659019574523">
        <ele>863.5</ele>
        <time>2018-05-23T08:18:28Z</time>
      </trkpt>
      <trkpt lat="42.45441198348999" lon="-6.004908001050353">
        <ele>867.10000000000002</ele>
        <time>2018-05-23T08:18:44Z</time>
      </trkpt>
      <trkpt lat="42.45445498265326" lon="-6.004436016082764">
        <ele>869.60000000000002</ele>
        <time>2018-05-23T08:18:54Z</time>
      </trkpt>
      <trkpt lat="42.454476021230221" lon="-6.004070984199643">
        <ele>872.29999999999995</ele>
        <time>2018-05-23T08:19:03Z</time>
      </trkpt>
      <trkpt lat="42.454519020393491" lon="-6.003749035298824">
        <ele>874.5</ele>
        <time>2018-05-23T08:19:10Z</time>
      </trkpt>
      <trkpt lat="42.4545409809798" lon="-6.003362964838743">
        <ele>878.5</ele>
        <time>2018-05-23T08:19:18Z</time>
      </trkpt>
      <trkpt lat="42.454519020393491" lon="-6.003062976524234">
        <ele>881.89999999999998</ele>
        <time>2018-05-23T08:19:25Z</time>
      </trkpt>
      <trkpt lat="42.45449798181653" lon="-6.002913024276495">
        <ele>883.60000000000002</ele>
        <time>2018-05-23T08:19:28Z</time>
      </trkpt>
      <trkpt lat="42.45445498265326" lon="-6.002675984054804">
        <ele>886.20000000000005</ele>
        <time>2018-05-23T08:19:34Z</time>
      </trkpt>
      <trkpt lat="42.454391028732061" lon="-6.002398040145636">
        <ele>889.5</ele>
        <time>2018-05-23T08:19:40Z</time>
      </trkpt>
      <trkpt lat="42.454348029568791" lon="-6.002182960510254">
        <ele>892.10000000000002</ele>
        <time>2018-05-23T08:19:45Z</time>
      </trkpt>
      <trkpt lat="42.45432598516345" lon="-6.002119006589055">
        <ele>893</ele>
        <time>2018-05-23T08:19:47Z</time>
      </trkpt>
      <trkpt lat="42.454305030405521" lon="-6.001647021621466">
        <ele>898.60000000000002</ele>
        <time>2018-05-23T08:19:57Z</time>
      </trkpt>
      <trkpt lat="42.45428298600018" lon="-6.001518024131656">
        <ele>900.29999999999995</ele>
        <time>2018-05-23T08:20:00Z</time>
      </trkpt>
      <trkpt lat="42.45423998683691" lon="-6.001389026641846">
        <ele>902.39999999999998</ele>
        <time>2018-05-23T08:20:03Z</time>
      </trkpt>
      <trkpt lat="42.454219032078981" lon="-6.001324988901615">
        <ele>903.39999999999998</ele>
        <time>2018-05-23T08:20:05Z</time>
      </trkpt>
      <trkpt lat="42.45415398851037" lon="-6.001195991411805">
        <ele>905.60000000000002</ele>
        <time>2018-05-23T08:20:08Z</time>
      </trkpt>
      <trkpt lat="42.454047035425901" lon="-6.000980995595455">
        <ele>908.29999999999995</ele>
        <time>2018-05-23T08:20:14Z</time>
      </trkpt>
      <trkpt lat="42.453982997685671" lon="-6.000638008117676">
        <ele>910.79999999999995</ele>
        <time>2018-05-23T08:20:22Z</time>
      </trkpt>
      <trkpt lat="42.453918037936091" lon="-6.000058986246586">
        <ele>913.29999999999995</ele>
        <time>2018-05-23T08:20:34Z</time>
      </trkpt>
      <trkpt lat="42.453939998522401" lon="-5.999908028170466">
        <ele>913.70000000000005</ele>
        <time>2018-05-23T08:20:38Z</time>
      </trkpt>
      <trkpt lat="42.453961037099361" lon="-5.999908028170466">
        <ele>913.70000000000005</ele>
        <time>2018-05-23T08:20:38Z</time>
      </trkpt>
      <trkpt lat="42.453939998522401" lon="-5.999886989593506">
        <ele>913.79999999999995</ele>
        <time>2018-05-23T08:20:39Z</time>
      </trkpt>
      <trkpt lat="42.453918037936091" lon="-5.999823035672307">
        <ele>914</ele>
        <time>2018-05-23T08:20:41Z</time>
      </trkpt>
      <trkpt lat="42.453939998522401" lon="-5.999866034835577">
        <ele>913.89999999999998</ele>
        <time>2018-05-23T08:20:42Z</time>
      </trkpt>
      <trkpt lat="42.453918037936091" lon="-5.999843990430236">
        <ele>914</ele>
        <time>2018-05-23T08:20:43Z</time>
      </trkpt>
      <trkpt lat="42.453896999359131" lon="-5.999737037345767">
        <ele>914.39999999999998</ele>
        <time>2018-05-23T08:20:45Z</time>
      </trkpt>
      <trkpt lat="42.45387596078217" lon="-5.999694038182497">
        <ele>914.5</ele>
        <time>2018-05-23T08:20:46Z</time>
      </trkpt>
      <trkpt lat="42.453896999359131" lon="-5.999628994613886">
        <ele>914.70000000000005</ele>
        <time>2018-05-23T08:20:48Z</time>
      </trkpt>
      <trkpt lat="42.45387596078217" lon="-5.999714992940426">
        <ele>914.5</ele>
        <time>2018-05-23T08:20:50Z</time>
      </trkpt>
      <trkpt lat="42.453896999359131" lon="-5.999737037345767">
        <ele>914.39999999999998</ele>
        <time>2018-05-23T08:20:51Z</time>
      </trkpt>
      <trkpt lat="42.45387596078217" lon="-5.999929988756776">
        <ele>913.79999999999995</ele>
        <time>2018-05-23T08:20:55Z</time>
      </trkpt>
      <trkpt lat="42.453854000195861" lon="-5.999714992940426">
        <ele>914.5</ele>
        <time>2018-05-23T08:21:00Z</time>
      </trkpt>
      <trkpt lat="42.453918037936091" lon="-5.999307967722416">
        <ele>914.89999999999998</ele>
        <time>2018-05-23T08:21:09Z</time>
      </trkpt>
      <trkpt lat="42.453961037099361" lon="-5.999049972742796">
        <ele>914.89999999999998</ele>
        <time>2018-05-23T08:21:14Z</time>
      </trkpt>
      <trkpt lat="42.45441198348999" lon="-5.998213039711118">
        <ele>914.89999999999998</ele>
        <time>2018-05-23T08:21:37Z</time>
      </trkpt>
      <trkpt lat="42.45505596511066" lon="-5.997139988467097">
        <ele>915</ele>
        <time>2018-05-23T08:22:07Z</time>
      </trkpt>
      <trkpt lat="42.45569902472198" lon="-5.996174979954958">
        <ele>915.29999999999995</ele>
        <time>2018-05-23T08:22:36Z</time>
      </trkpt>
      <trkpt lat="42.456407966092229" lon="-5.995079968124628">
        <ele>916.10000000000002</ele>
        <time>2018-05-23T08:23:08Z</time>
      </trkpt>
      <trkpt lat="42.457243977114558" lon="-5.99405100569129">
        <ele>916.5</ele>
        <time>2018-05-23T08:23:41Z</time>
      </trkpt>
      <trkpt lat="42.457974040880799" lon="-5.99312799051404">
        <ele>916.89999999999998</ele>
        <time>2018-05-23T08:24:11Z</time>
      </trkpt>
      <trkpt lat="42.458746014162898" lon="-5.99216197617352">
        <ele>917.79999999999995</ele>
        <time>2018-05-23T08:24:42Z</time>
      </trkpt>
      <trkpt lat="42.458853973075747" lon="-5.991969024762511">
        <ele>917.89999999999998</ele>
        <time>2018-05-23T08:24:47Z</time>
      </trkpt>
      <trkpt lat="42.458918010815978" lon="-5.991732990369201">
        <ele>917.89999999999998</ele>
        <time>2018-05-23T08:24:53Z</time>
      </trkpt>
      <trkpt lat="42.459133006632328" lon="-5.990360034629703">
        <ele>917.5</ele>
        <time>2018-05-23T08:25:23Z</time>
      </trkpt>
      <trkpt lat="42.459176005795598" lon="-5.990124000236392">
        <ele>917.5</ele>
        <time>2018-05-23T08:25:29Z</time>
      </trkpt>
      <trkpt lat="42.459239959716797" lon="-5.989715969190002">
        <ele>917.60000000000002</ele>
        <time>2018-05-23T08:25:38Z</time>
      </trkpt>
      <trkpt lat="42.459432994946837" lon="-5.988600002601743">
        <ele>918.70000000000005</ele>
        <time>2018-05-23T08:26:03Z</time>
      </trkpt>
      <trkpt lat="42.459626030176878" lon="-5.987355960533023">
        <ele>917.39999999999998</ele>
        <time>2018-05-23T08:26:31Z</time>
      </trkpt>
      <trkpt lat="42.459861980751157" lon="-5.986046958714724">
        <ele>918.5</ele>
        <time>2018-05-23T08:27:00Z</time>
      </trkpt>
      <trkpt lat="42.460119975730777" lon="-5.984867038205266">
        <ele>917.5</ele>
        <time>2018-05-23T08:27:27Z</time>
      </trkpt>
      <trkpt lat="42.460162974894047" lon="-5.984695041552186">
        <ele>916.89999999999998</ele>
        <time>2018-05-23T08:27:31Z</time>
      </trkpt>
      <trkpt lat="42.460205974057317" lon="-5.984502006322146">
        <ele>916.60000000000002</ele>
        <time>2018-05-23T08:27:35Z</time>
      </trkpt>
      <trkpt lat="42.460227012634277" lon="-5.984351970255375">
        <ele>916.70000000000005</ele>
        <time>2018-05-23T08:27:39Z</time>
      </trkpt>
      <trkpt lat="42.460247967392206" lon="-5.984201012179256">
        <ele>916.79999999999995</ele>
        <time>2018-05-23T08:27:42Z</time>
      </trkpt>
      <trkpt lat="42.460270011797547" lon="-5.984159018844366">
        <ele>916.79999999999995</ele>
        <time>2018-05-23T08:27:43Z</time>
      </trkpt>
      <trkpt lat="42.460290966555476" lon="-5.984030021354556">
        <ele>916.89999999999998</ele>
        <time>2018-05-23T08:27:46Z</time>
      </trkpt>
      <trkpt lat="42.460442008450627" lon="-5.983449993655086">
        <ele>917</ele>
        <time>2018-05-23T08:28:00Z</time>
      </trkpt>
      <trkpt lat="42.460655998438597" lon="-5.982635021209717">
        <ele>917</ele>
        <time>2018-05-23T08:28:18Z</time>
      </trkpt>
      <trkpt lat="42.460806034505367" lon="-5.982013000175357">
        <ele>916.89999999999998</ele>
        <time>2018-05-23T08:28:33Z</time>
      </trkpt>
      <trkpt lat="42.460827995091677" lon="-5.981905041262507">
        <ele>916.79999999999995</ele>
        <time>2018-05-23T08:28:35Z</time>
      </trkpt>
      <trkpt lat="42.460870994254947" lon="-5.981647968292236">
        <ele>916.5</ele>
        <time>2018-05-23T08:28:41Z</time>
      </trkpt>
      <trkpt lat="42.461021030321717" lon="-5.981261981651187">
        <ele>916</ele>
        <time>2018-05-23T08:28:51Z</time>
      </trkpt>
      <trkpt lat="42.461064029484987" lon="-5.981175983324647">
        <ele>915.39999999999998</ele>
        <time>2018-05-23T08:28:53Z</time>
      </trkpt>
      <trkpt lat="42.461084984242916" lon="-5.981154022738338">
        <ele>915.20000000000005</ele>
        <time>2018-05-23T08:28:54Z</time>
      </trkpt>
      <trkpt lat="42.461193026974797" lon="-5.980940032750368">
        <ele>913.39999999999998</ele>
        <time>2018-05-23T08:28:59Z</time>
      </trkpt>
      <trkpt lat="42.461321018636227" lon="-5.980768036097288">
        <ele>911.79999999999995</ele>
        <time>2018-05-23T08:29:05Z</time>
      </trkpt>
      <trkpt lat="42.461536014452577" lon="-5.980446003377438">
        <ele>908.89999999999998</ele>
        <time>2018-05-23T08:29:14Z</time>
      </trkpt>
      <trkpt lat="42.461814964190125" lon="-5.980038978159428">
        <ele>906.10000000000002</ele>
        <time>2018-05-23T08:29:26Z</time>
      </trkpt>
      <trkpt lat="42.461986960843205" lon="-5.979760028421879">
        <ele>904.20000000000005</ele>
        <time>2018-05-23T08:29:34Z</time>
      </trkpt>
      <trkpt lat="42.462201034650207" lon="-5.979394996538758">
        <ele>901.79999999999995</ele>
        <time>2018-05-23T08:29:45Z</time>
      </trkpt>
      <trkpt lat="42.462393986061215" lon="-5.979052009060979">
        <ele>899.20000000000005</ele>
        <time>2018-05-23T08:29:54Z</time>
      </trkpt>
      <trkpt lat="42.462479984387755" lon="-5.978943966329098">
        <ele>898.20000000000005</ele>
        <time>2018-05-23T08:29:57Z</time>
      </trkpt>
      <trkpt lat="42.462502028793097" lon="-5.978857968002558">
        <ele>897.60000000000002</ele>
        <time>2018-05-23T08:29:59Z</time>
      </trkpt>
      <trkpt lat="42.462544022127986" lon="-5.978815974667668">
        <ele>897.20000000000005</ele>
        <time>2018-05-23T08:30:01Z</time>
      </trkpt>
      <trkpt lat="42.462694980204105" lon="-5.97858002409339">
        <ele>895.60000000000002</ele>
        <time>2018-05-23T08:30:08Z</time>
      </trkpt>
      <trkpt lat="42.462759017944336" lon="-5.97845102660358">
        <ele>895</ele>
        <time>2018-05-23T08:30:11Z</time>
      </trkpt>
      <trkpt lat="42.462974013760686" lon="-5.97806503996253">
        <ele>893.20000000000005</ele>
        <time>2018-05-23T08:30:22Z</time>
      </trkpt>
      <trkpt lat="42.463059006258845" lon="-5.977720962837338">
        <ele>891.70000000000005</ele>
        <time>2018-05-23T08:30:30Z</time>
      </trkpt>
      <trkpt lat="42.463080966845155" lon="-5.977634964510799">
        <ele>891.29999999999995</ele>
        <time>2018-05-23T08:30:32Z</time>
      </trkpt>
      <trkpt lat="42.463360000401735" lon="-5.97694898955524">
        <ele>888.89999999999998</ele>
        <time>2018-05-23T08:30:49Z</time>
      </trkpt>
      <trkpt lat="42.463616989552975" lon="-5.976411961019039">
        <ele>889.39999999999998</ele>
        <time>2018-05-23T08:31:03Z</time>
      </trkpt>
      <trkpt lat="42.463659988716245" lon="-5.976368961855769">
        <ele>889.60000000000002</ele>
        <time>2018-05-23T08:31:05Z</time>
      </trkpt>
      <trkpt lat="42.463939022272825" lon="-5.976048018783331">
        <ele>894.39999999999998</ele>
        <time>2018-05-23T08:31:15Z</time>
      </trkpt>
      <trkpt lat="42.464068019762635" lon="-5.97593997605145">
        <ele>897</ele>
        <time>2018-05-23T08:31:20Z</time>
      </trkpt>
      <trkpt lat="42.464111018925905" lon="-5.97589697688818">
        <ele>897.89999999999998</ele>
        <time>2018-05-23T08:31:22Z</time>
      </trkpt>
      <trkpt lat="42.464260971173644" lon="-5.975747024640441">
        <ele>900.70000000000005</ele>
        <time>2018-05-23T08:31:27Z</time>
      </trkpt>
      <trkpt lat="42.464411007240415" lon="-5.975575027987361">
        <ele>903.39999999999998</ele>
        <time>2018-05-23T08:31:33Z</time>
      </trkpt>
      <trkpt lat="42.464540004730225" lon="-5.975404037162662">
        <ele>905.60000000000002</ele>
        <time>2018-05-23T08:31:38Z</time>
      </trkpt>
      <trkpt lat="42.464733039960265" lon="-5.975082004442811">
        <ele>908.70000000000005</ele>
        <time>2018-05-23T08:31:48Z</time>
      </trkpt>
      <trkpt lat="42.464862037450075" lon="-5.974845970049501">
        <ele>910.39999999999998</ele>
        <time>2018-05-23T08:31:54Z</time>
      </trkpt>
      <trkpt lat="42.464905036613345" lon="-5.974759971722961">
        <ele>910.79999999999995</ele>
        <time>2018-05-23T08:31:56Z</time>
      </trkpt>
      <trkpt lat="42.465011989697814" lon="-5.974544975906611">
        <ele>911.89999999999998</ele>
        <time>2018-05-23T08:32:02Z</time>
      </trkpt>
      <trkpt lat="42.465119026601315" lon="-5.974352024495602">
        <ele>913.70000000000005</ele>
        <time>2018-05-23T08:32:07Z</time>
      </trkpt>
      <trkpt lat="42.465205024927855" lon="-5.974224032834172">
        <ele>914.79999999999995</ele>
        <time>2018-05-23T08:32:11Z</time>
      </trkpt>
      <trkpt lat="42.465311978012323" lon="-5.973944999277592">
        <ele>916.29999999999995</ele>
        <time>2018-05-23T08:32:18Z</time>
      </trkpt>
      <trkpt lat="42.465334022417665" lon="-5.973859000951052">
        <ele>916.70000000000005</ele>
        <time>2018-05-23T08:32:20Z</time>
      </trkpt>
      <trkpt lat="42.465463019907475" lon="-5.973579967394471">
        <ele>917.60000000000002</ele>
        <time>2018-05-23T08:32:27Z</time>
      </trkpt>
      <trkpt lat="42.465569972991943" lon="-5.973407970741391">
        <ele>918.29999999999995</ele>
        <time>2018-05-23T08:32:32Z</time>
      </trkpt>
      <trkpt lat="42.465763008221984" lon="-5.973021984100342">
        <ele>919.29999999999995</ele>
        <time>2018-05-23T08:32:42Z</time>
      </trkpt>
      <trkpt lat="42.466105995699763" lon="-5.972399963065982">
        <ele>919.20000000000005</ele>
        <time>2018-05-23T08:32:59Z</time>
      </trkpt>
      <trkpt lat="42.466128040105104" lon="-5.972356963902712">
        <ele>919.10000000000002</ele>
        <time>2018-05-23T08:33:00Z</time>
      </trkpt>
      <trkpt lat="42.466148994863033" lon="-5.972227966412902">
        <ele>919.10000000000002</ele>
        <time>2018-05-23T08:33:03Z</time>
      </trkpt>
      <trkpt lat="42.466234993189573" lon="-5.972035015001893">
        <ele>919</ele>
        <time>2018-05-23T08:33:08Z</time>
      </trkpt>
      <trkpt lat="42.466385029256344" lon="-5.971669983118773">
        <ele>918.5</ele>
        <time>2018-05-23T08:33:17Z</time>
      </trkpt>
      <trkpt lat="42.466535987332463" lon="-5.971477031707764">
        <ele>918.10000000000002</ele>
        <time>2018-05-23T08:33:23Z</time>
      </trkpt>
      <trkpt lat="42.466772021725774" lon="-5.971133960410953">
        <ele>917.10000000000002</ele>
        <time>2018-05-23T08:33:34Z</time>
      </trkpt>
      <trkpt lat="42.466792976483703" lon="-5.971111999824643">
        <ele>917.10000000000002</ele>
        <time>2018-05-23T08:33:34Z</time>
      </trkpt>
      <trkpt lat="42.466815020889044" lon="-5.971026001498103">
        <ele>916.89999999999998</ele>
        <time>2018-05-23T08:33:36Z</time>
      </trkpt>
      <trkpt lat="42.466857014223933" lon="-5.970961963757873">
        <ele>916.70000000000005</ele>
        <time>2018-05-23T08:33:38Z</time>
      </trkpt>
      <trkpt lat="42.467007972300053" lon="-5.970532977953553">
        <ele>915.39999999999998</ele>
        <time>2018-05-23T08:33:49Z</time>
      </trkpt>
      <trkpt lat="42.467135963961482" lon="-5.969954039901495">
        <ele>913.29999999999995</ele>
        <time>2018-05-23T08:34:02Z</time>
      </trkpt>
      <trkpt lat="42.467158008366823" lon="-5.969824958592653">
        <ele>912.89999999999998</ele>
        <time>2018-05-23T08:34:05Z</time>
      </trkpt>
      <trkpt lat="42.467457996681333" lon="-5.967422034591436">
        <ele>916.79999999999995</ele>
        <time>2018-05-23T08:34:58Z</time>
      </trkpt>
      <trkpt lat="42.467586994171143" lon="-5.967121040448546">
        <ele>918.10000000000002</ele>
        <time>2018-05-23T08:35:06Z</time>
      </trkpt>
      <trkpt lat="42.467608032748103" lon="-5.967057002708316">
        <ele>918.29999999999995</ele>
        <time>2018-05-23T08:35:07Z</time>
      </trkpt>
      <trkpt lat="42.467543995007873" lon="-5.966777969151735">
        <ele>918.10000000000002</ele>
        <time>2018-05-23T08:35:14Z</time>
      </trkpt>
      <trkpt lat="42.467436958104372" lon="-5.966605972498655">
        <ele>917.89999999999998</ele>
        <time>2018-05-23T08:35:19Z</time>
      </trkpt>
      <trkpt lat="42.467307960614562" lon="-5.965961990877986">
        <ele>917.39999999999998</ele>
        <time>2018-05-23T08:35:33Z</time>
      </trkpt>
      <trkpt lat="42.467287005856633" lon="-5.965468967333436">
        <ele>916.39999999999998</ele>
        <time>2018-05-23T08:35:44Z</time>
      </trkpt>
      <trkpt lat="42.467264961451292" lon="-5.965233016759157">
        <ele>915.29999999999995</ele>
        <time>2018-05-23T08:35:49Z</time>
      </trkpt>
      <trkpt lat="42.467330005019903" lon="-5.964331962168217">
        <ele>910.20000000000005</ele>
        <time>2018-05-23T08:36:09Z</time>
      </trkpt>
      <trkpt lat="42.467307960614562" lon="-5.964116966351867">
        <ele>909.20000000000005</ele>
        <time>2018-05-23T08:36:14Z</time>
      </trkpt>
      <trkpt lat="42.467244006693363" lon="-5.963386986404657">
        <ele>906.5</ele>
        <time>2018-05-23T08:36:30Z</time>
      </trkpt>
      <trkpt lat="42.467072010040283" lon="-5.962744010612369">
        <ele>903.79999999999995</ele>
        <time>2018-05-23T08:36:45Z</time>
      </trkpt>
      <trkpt lat="42.466792976483703" lon="-5.96175704151392">
        <ele>899.70000000000005</ele>
        <time>2018-05-23T08:37:08Z</time>
      </trkpt>
      <trkpt lat="42.466729022562504" lon="-5.961026977747679">
        <ele>898.20000000000005</ele>
        <time>2018-05-23T08:37:24Z</time>
      </trkpt>
      <trkpt lat="42.466577980667353" lon="-5.95999700948596">
        <ele>896.29999999999995</ele>
        <time>2018-05-23T08:37:47Z</time>
      </trkpt>
      <trkpt lat="42.466449989005923" lon="-5.959182037040591">
        <ele>893.60000000000002</ele>
        <time>2018-05-23T08:38:05Z</time>
      </trkpt>
      <trkpt lat="42.466171039268374" lon="-5.958302021026611">
        <ele>891.29999999999995</ele>
        <time>2018-05-23T08:38:26Z</time>
      </trkpt>
      <trkpt lat="42.465978004038334" lon="-5.957529963925481">
        <ele>889.20000000000005</ele>
        <time>2018-05-23T08:38:44Z</time>
      </trkpt>
      <trkpt lat="42.465955959632993" lon="-5.957465004175901">
        <ele>889.10000000000002</ele>
        <time>2018-05-23T08:38:46Z</time>
      </trkpt>
      <trkpt lat="42.465869961306453" lon="-5.956928981468082">
        <ele>887.89999999999998</ele>
        <time>2018-05-23T08:38:58Z</time>
      </trkpt>
      <trkpt lat="42.465849006548524" lon="-5.956821022555232">
        <ele>887.70000000000005</ele>
        <time>2018-05-23T08:39:00Z</time>
      </trkpt>
      <trkpt lat="42.465698970481753" lon="-5.956070004031062">
        <ele>886.39999999999998</ele>
        <time>2018-05-23T08:39:17Z</time>
      </trkpt>
      <trkpt lat="42.465634010732174" lon="-5.955641018226743">
        <ele>885.89999999999998</ele>
        <time>2018-05-23T08:39:27Z</time>
      </trkpt>
      <trkpt lat="42.465569972991943" lon="-5.955361984670162">
        <ele>885.5</ele>
        <time>2018-05-23T08:39:33Z</time>
      </trkpt>
      <trkpt lat="42.465526973828673" lon="-5.955212032422423">
        <ele>885.20000000000005</ele>
        <time>2018-05-23T08:39:37Z</time>
      </trkpt>
      <trkpt lat="42.465269984677434" lon="-5.954590011388063">
        <ele>884.20000000000005</ele>
        <time>2018-05-23T08:39:52Z</time>
      </trkpt>
      <trkpt lat="42.465140987187624" lon="-5.954052982851863">
        <ele>881.39999999999998</ele>
        <time>2018-05-23T08:40:05Z</time>
      </trkpt>
      <trkpt lat="42.465097988024354" lon="-5.953817032277584">
        <ele>880.10000000000002</ele>
        <time>2018-05-23T08:40:10Z</time>
      </trkpt>
      <trkpt lat="42.465119026601315" lon="-5.953752994537354">
        <ele>879.70000000000005</ele>
        <time>2018-05-23T08:40:11Z</time>
      </trkpt>
      <trkpt lat="42.465140987187624" lon="-5.951157035306096">
        <ele>870.70000000000005</ele>
        <time>2018-05-23T08:41:08Z</time>
      </trkpt>
      <trkpt lat="42.465119026601315" lon="-5.950835002586246">
        <ele>869.89999999999998</ele>
        <time>2018-05-23T08:41:15Z</time>
      </trkpt>
      <trkpt lat="42.465140987187624" lon="-5.950792003422976">
        <ele>869.70000000000005</ele>
        <time>2018-05-23T08:41:16Z</time>
      </trkpt>
      <trkpt lat="42.465354977175593" lon="-5.950105022639036">
        <ele>868.20000000000005</ele>
        <time>2018-05-23T08:41:33Z</time>
      </trkpt>
      <trkpt lat="42.465483974665403" lon="-5.949696991592646">
        <ele>867.29999999999995</ele>
        <time>2018-05-23T08:41:42Z</time>
      </trkpt>
      <trkpt lat="42.465526973828673" lon="-5.949440002441406">
        <ele>867.10000000000002</ele>
        <time>2018-05-23T08:41:48Z</time>
      </trkpt>
      <trkpt lat="42.465591011568904" lon="-5.948602985590696">
        <ele>867.29999999999995</ele>
        <time>2018-05-23T08:42:07Z</time>
      </trkpt>
      <trkpt lat="42.465698970481753" lon="-5.947573017328978">
        <ele>868.79999999999995</ele>
        <time>2018-05-23T08:42:29Z</time>
      </trkpt>
      <trkpt lat="42.465826962143183" lon="-5.946736000478268">
        <ele>872.39999999999998</ele>
        <time>2018-05-23T08:42:48Z</time>
      </trkpt>
      <trkpt lat="42.465869961306453" lon="-5.946522010490298">
        <ele>873.5</ele>
        <time>2018-05-23T08:42:53Z</time>
      </trkpt>
      <trkpt lat="42.465912960469723" lon="-5.946350013837218">
        <ele>874.39999999999998</ele>
        <time>2018-05-23T08:42:57Z</time>
      </trkpt>
      <trkpt lat="42.465955959632993" lon="-5.945878028869629">
        <ele>877.20000000000005</ele>
        <time>2018-05-23T08:43:07Z</time>
      </trkpt>
      <trkpt lat="42.465998958796263" lon="-5.945299006998539">
        <ele>880.60000000000002</ele>
        <time>2018-05-23T08:43:20Z</time>
      </trkpt>
      <trkpt lat="42.465955959632993" lon="-5.944912014529109">
        <ele>883.29999999999995</ele>
        <time>2018-05-23T08:43:29Z</time>
      </trkpt>
      <trkpt lat="42.465935004875064" lon="-5.94482702203095">
        <ele>884</ele>
        <time>2018-05-23T08:43:31Z</time>
      </trkpt>
      <trkpt lat="42.465912960469723" lon="-5.944761978462338">
        <ele>884.60000000000002</ele>
        <time>2018-05-23T08:43:32Z</time>
      </trkpt>
      <trkpt lat="42.465569972991943" lon="-5.94373201020062">
        <ele>889.20000000000005</ele>
        <time>2018-05-23T08:43:57Z</time>
      </trkpt>
      <trkpt lat="42.465397976338863" lon="-5.94334602355957">
        <ele>889.20000000000005</ele>
        <time>2018-05-23T08:44:07Z</time>
      </trkpt>
      <trkpt lat="42.465311978012323" lon="-5.94317402690649">
        <ele>889.39999999999998</ele>
        <time>2018-05-23T08:44:11Z</time>
      </trkpt>
      <trkpt lat="42.465140987187624" lon="-5.94272400252521">
        <ele>889.60000000000002</ele>
        <time>2018-05-23T08:44:22Z</time>
      </trkpt>
      <trkpt lat="42.465119026601315" lon="-5.942658958956599">
        <ele>889.60000000000002</ele>
        <time>2018-05-23T08:44:24Z</time>
      </trkpt>
      <trkpt lat="42.465097988024354" lon="-5.94263800419867">
        <ele>889.70000000000005</ele>
        <time>2018-05-23T08:44:25Z</time>
      </trkpt>
      <trkpt lat="42.464626003056765" lon="-5.941865025088191">
        <ele>889.79999999999995</ele>
        <time>2018-05-23T08:44:47Z</time>
      </trkpt>
      <trkpt lat="42.464540004730225" lon="-5.941628990694881">
        <ele>889</ele>
        <time>2018-05-23T08:44:52Z</time>
      </trkpt>
      <trkpt lat="42.464518966153264" lon="-5.941585991531611">
        <ele>888.89999999999998</ele>
        <time>2018-05-23T08:44:54Z</time>
      </trkpt>
      <trkpt lat="42.464497005566955" lon="-5.941372001543641">
        <ele>887.89999999999998</ele>
        <time>2018-05-23T08:44:58Z</time>
      </trkpt>
      <trkpt lat="42.464475966989994" lon="-5.941264964640141">
        <ele>887.29999999999995</ele>
        <time>2018-05-23T08:45:01Z</time>
      </trkpt>
      <trkpt lat="42.464174972847104" lon="-5.940448986366391">
        <ele>883.20000000000005</ele>
        <time>2018-05-23T08:45:21Z</time>
      </trkpt>
      <trkpt lat="42.463896023109555" lon="-5.939955962821841">
        <ele>881.39999999999998</ele>
        <time>2018-05-23T08:45:34Z</time>
      </trkpt>
      <trkpt lat="42.463853023946285" lon="-5.939891003072262">
        <ele>881.20000000000005</ele>
        <time>2018-05-23T08:45:36Z</time>
      </trkpt>
      <trkpt lat="42.463810024783015" lon="-5.939826965332031">
        <ele>881</ele>
        <time>2018-05-23T08:45:38Z</time>
      </trkpt>
      <trkpt lat="42.463616989552975" lon="-5.939548015594482">
        <ele>880</ele>
        <time>2018-05-23T08:45:47Z</time>
      </trkpt>
      <trkpt lat="42.463573990389705" lon="-5.939505016431212">
        <ele>879.79999999999995</ele>
        <time>2018-05-23T08:45:48Z</time>
      </trkpt>
      <trkpt lat="42.463467037305236" lon="-5.939397979527712">
        <ele>879.5</ele>
        <time>2018-05-23T08:45:52Z</time>
      </trkpt>
      <trkpt lat="42.463381038978696" lon="-5.939268982037902">
        <ele>878.89999999999998</ele>
        <time>2018-05-23T08:45:56Z</time>
      </trkpt>
      <trkpt lat="42.463231002911925" lon="-5.939076030626893">
        <ele>878.20000000000005</ele>
        <time>2018-05-23T08:46:02Z</time>
      </trkpt>
      <trkpt lat="42.463188003748655" lon="-5.939033031463623">
        <ele>878</ele>
        <time>2018-05-23T08:46:04Z</time>
      </trkpt>
      <trkpt lat="42.463145004585385" lon="-5.939011992886663">
        <ele>878</ele>
        <time>2018-05-23T08:46:05Z</time>
      </trkpt>
      <trkpt lat="42.463102005422115" lon="-5.938968993723393">
        <ele>877.79999999999995</ele>
        <time>2018-05-23T08:46:06Z</time>
      </trkpt>
      <trkpt lat="42.463059006258845" lon="-5.938947033137083">
        <ele>877.79999999999995</ele>
        <time>2018-05-23T08:46:08Z</time>
      </trkpt>
      <trkpt lat="42.463037967681885" lon="-5.938925994560123">
        <ele>877.70000000000005</ele>
        <time>2018-05-23T08:46:09Z</time>
      </trkpt>
      <trkpt lat="42.462951969355345" lon="-5.938839996233583">
        <ele>877.39999999999998</ele>
        <time>2018-05-23T08:46:12Z</time>
      </trkpt>
      <trkpt lat="42.462865971028805" lon="-5.938753997907043">
        <ele>877.39999999999998</ele>
        <time>2018-05-23T08:46:15Z</time>
      </trkpt>
      <trkpt lat="42.462822971865535" lon="-5.938689960166812">
        <ele>877.5</ele>
        <time>2018-05-23T08:46:17Z</time>
      </trkpt>
      <trkpt lat="42.462759017944336" lon="-5.938646961003542">
        <ele>877.79999999999995</ele>
        <time>2018-05-23T08:46:19Z</time>
      </trkpt>
      <trkpt lat="42.462716018781066" lon="-5.938582001253963">
        <ele>877.70000000000005</ele>
        <time>2018-05-23T08:46:21Z</time>
      </trkpt>
      <trkpt lat="42.462673019617796" lon="-5.938560962677002">
        <ele>877.89999999999998</ele>
        <time>2018-05-23T08:46:22Z</time>
      </trkpt>
      <trkpt lat="42.462608981877565" lon="-5.938517963513732">
        <ele>878.20000000000005</ele>
        <time>2018-05-23T08:46:24Z</time>
      </trkpt>
      <trkpt lat="42.462350986897945" lon="-5.938196014612913">
        <ele>877.70000000000005</ele>
        <time>2018-05-23T08:46:35Z</time>
      </trkpt>
      <trkpt lat="42.462330032140017" lon="-5.938153015449643">
        <ele>877.5</ele>
        <time>2018-05-23T08:46:36Z</time>
      </trkpt>
      <trkpt lat="42.462264988571405" lon="-5.938045978546143">
        <ele>877.10000000000002</ele>
        <time>2018-05-23T08:46:39Z</time>
      </trkpt>
      <trkpt lat="42.462201034650207" lon="-5.937959980219603">
        <ele>876.79999999999995</ele>
        <time>2018-05-23T08:46:42Z</time>
      </trkpt>
      <trkpt lat="42.461965000256896" lon="-5.937487995252013">
        <ele>874.29999999999995</ele>
        <time>2018-05-23T08:46:54Z</time>
      </trkpt>
      <trkpt lat="42.461685966700315" lon="-5.936801014468074">
        <ele>872</ele>
        <time>2018-05-23T08:47:11Z</time>
      </trkpt>
      <trkpt lat="42.461536014452577" lon="-5.936415027827025">
        <ele>870.60000000000002</ele>
        <time>2018-05-23T08:47:21Z</time>
      </trkpt>
      <trkpt lat="42.461471976712346" lon="-5.936286030337215">
        <ele>870</ele>
        <time>2018-05-23T08:47:24Z</time>
      </trkpt>
      <trkpt lat="42.461193026974797" lon="-5.935899959877133">
        <ele>869.20000000000005</ele>
        <time>2018-05-23T08:47:36Z</time>
      </trkpt>
      <trkpt lat="42.461150027811527" lon="-5.935813961550593">
        <ele>869.20000000000005</ele>
        <time>2018-05-23T08:47:38Z</time>
      </trkpt>
      <trkpt lat="42.461127983406186" lon="-5.935793006792665">
        <ele>869.29999999999995</ele>
        <time>2018-05-23T08:47:39Z</time>
      </trkpt>
      <trkpt lat="42.461064029484987" lon="-5.935707008466125">
        <ele>869.29999999999995</ele>
        <time>2018-05-23T08:47:42Z</time>
      </trkpt>
      <trkpt lat="42.461041985079646" lon="-5.935642970725894">
        <ele>869.20000000000005</ele>
        <time>2018-05-23T08:47:43Z</time>
      </trkpt>
      <trkpt lat="42.460998985916376" lon="-5.935599971562624">
        <ele>869.20000000000005</ele>
        <time>2018-05-23T08:47:45Z</time>
      </trkpt>
      <trkpt lat="42.460978031158447" lon="-5.935493018478155">
        <ele>868.70000000000005</ele>
        <time>2018-05-23T08:47:47Z</time>
      </trkpt>
      <trkpt lat="42.460827995091677" lon="-5.935213984921575">
        <ele>867.79999999999995</ele>
        <time>2018-05-23T08:47:55Z</time>
      </trkpt>
      <trkpt lat="42.460763035342097" lon="-5.935127986595035">
        <ele>867.60000000000002</ele>
        <time>2018-05-23T08:47:58Z</time>
      </trkpt>
      <trkpt lat="42.460677959024906" lon="-5.935020027682185">
        <ele>867.39999999999998</ele>
        <time>2018-05-23T08:48:01Z</time>
      </trkpt>
      <trkpt lat="42.460462963208556" lon="-5.934806037694216">
        <ele>867.10000000000002</ele>
        <time>2018-05-23T08:48:09Z</time>
      </trkpt>
      <trkpt lat="42.460399009287357" lon="-5.934720039367676">
        <ele>866.89999999999998</ele>
        <time>2018-05-23T08:48:12Z</time>
      </trkpt>
      <trkpt lat="42.460205974057317" lon="-5.934290969744325">
        <ele>865.5</ele>
        <time>2018-05-23T08:48:23Z</time>
      </trkpt>
      <trkpt lat="42.460162974894047" lon="-5.934184016659856">
        <ele>865.20000000000005</ele>
        <time>2018-05-23T08:48:25Z</time>
      </trkpt>
      <trkpt lat="42.460119975730777" lon="-5.934075973927975">
        <ele>864.79999999999995</ele>
        <time>2018-05-23T08:48:28Z</time>
      </trkpt>
      <trkpt lat="42.459884025156498" lon="-5.933454036712647">
        <ele>862.60000000000002</ele>
        <time>2018-05-23T08:48:43Z</time>
      </trkpt>
      <trkpt lat="42.459841025993228" lon="-5.933368038386107">
        <ele>862.29999999999995</ele>
        <time>2018-05-23T08:48:45Z</time>
      </trkpt>
      <trkpt lat="42.459818981587887" lon="-5.933325039222837">
        <ele>862.20000000000005</ele>
        <time>2018-05-23T08:48:47Z</time>
      </trkpt>
      <trkpt lat="42.459798026829958" lon="-5.933282040059567">
        <ele>862.10000000000002</ele>
        <time>2018-05-23T08:48:48Z</time>
      </trkpt>
      <trkpt lat="42.459755027666688" lon="-5.933218002319336">
        <ele>861.89999999999998</ele>
        <time>2018-05-23T08:48:50Z</time>
      </trkpt>
      <trkpt lat="42.459732983261347" lon="-5.933175003156066">
        <ele>861.79999999999995</ele>
        <time>2018-05-23T08:48:51Z</time>
      </trkpt>
      <trkpt lat="42.459647990763187" lon="-5.933024967089295">
        <ele>861.29999999999995</ele>
        <time>2018-05-23T08:48:55Z</time>
      </trkpt>
      <trkpt lat="42.459604991599917" lon="-5.932938968762755">
        <ele>861.10000000000002</ele>
        <time>2018-05-23T08:48:57Z</time>
      </trkpt>
      <trkpt lat="42.459561992436647" lon="-5.932875014841557">
        <ele>860.70000000000005</ele>
        <time>2018-05-23T08:48:59Z</time>
      </trkpt>
      <trkpt lat="42.459518993273377" lon="-5.932789016515017">
        <ele>860.20000000000005</ele>
        <time>2018-05-23T08:49:01Z</time>
      </trkpt>
      <trkpt lat="42.459497032687068" lon="-5.932746017351747">
        <ele>859.89999999999998</ele>
        <time>2018-05-23T08:49:03Z</time>
      </trkpt>
      <trkpt lat="42.459389995783567" lon="-5.932595981284976">
        <ele>859</ele>
        <time>2018-05-23T08:49:07Z</time>
      </trkpt>
      <trkpt lat="42.459326041862369" lon="-5.932509982958436">
        <ele>858.5</ele>
        <time>2018-05-23T08:49:10Z</time>
      </trkpt>
      <trkpt lat="42.459047008305788" lon="-5.932037997990847">
        <ele>856.10000000000002</ele>
        <time>2018-05-23T08:49:23Z</time>
      </trkpt>
      <trkpt lat="42.458961009979248" lon="-5.931780003011227">
        <ele>855</ele>
        <time>2018-05-23T08:49:29Z</time>
      </trkpt>
      <trkpt lat="42.458918010815978" lon="-5.931652011349797">
        <ele>854.39999999999998</ele>
        <time>2018-05-23T08:49:32Z</time>
      </trkpt>
      <trkpt lat="42.458704020828009" lon="-5.931243980303407">
        <ele>852</ele>
        <time>2018-05-23T08:49:43Z</time>
      </trkpt>
      <trkpt lat="42.458681976422668" lon="-5.931180026382208">
        <ele>851.79999999999995</ele>
        <time>2018-05-23T08:49:45Z</time>
      </trkpt>
      <trkpt lat="42.458638977259398" lon="-5.931114982813597">
        <ele>851.70000000000005</ele>
        <time>2018-05-23T08:49:47Z</time>
      </trkpt>
      <trkpt lat="42.458575023338199" lon="-5.930985985323787">
        <ele>851.39999999999998</ele>
        <time>2018-05-23T08:49:50Z</time>
      </trkpt>
      <trkpt lat="42.458509979769588" lon="-5.930836033076048">
        <ele>851.10000000000002</ele>
        <time>2018-05-23T08:49:54Z</time>
      </trkpt>
      <trkpt lat="42.458489025011659" lon="-5.930793033912778">
        <ele>851.10000000000002</ele>
        <time>2018-05-23T08:49:55Z</time>
      </trkpt>
      <trkpt lat="42.458446025848389" lon="-5.930728996172547">
        <ele>851</ele>
        <time>2018-05-23T08:49:57Z</time>
      </trkpt>
      <trkpt lat="42.458489025011659" lon="-5.930556999519467">
        <ele>850.60000000000002</ele>
        <time>2018-05-23T08:50:01Z</time>
      </trkpt>
      <trkpt lat="42.457372974604368" lon="-5.930085014551878">
        <ele>851.39999999999998</ele>
        <time>2018-05-23T08:50:36Z</time>
      </trkpt>
      <trkpt lat="42.457051025703549" lon="-5.929914023727179">
        <ele>851.70000000000005</ele>
        <time>2018-05-23T08:50:46Z</time>
      </trkpt>
      <trkpt lat="42.456492958590388" lon="-5.929676983505487">
        <ele>849.89999999999998</ele>
        <time>2018-05-23T08:51:03Z</time>
      </trkpt>
      <trkpt lat="42.45567798614502" lon="-5.929313041269779">
        <ele>848.20000000000005</ele>
        <time>2018-05-23T08:51:29Z</time>
      </trkpt>
      <trkpt lat="42.45537799783051" lon="-5.929290996864438">
        <ele>848.10000000000002</ele>
        <time>2018-05-23T08:51:37Z</time>
      </trkpt>
      <trkpt lat="42.455313038080931" lon="-5.929290996864438">
        <ele>847.79999999999995</ele>
        <time>2018-05-23T08:51:39Z</time>
      </trkpt>
      <trkpt lat="42.455227039754391" lon="-5.929290996864438">
        <ele>847.29999999999995</ele>
        <time>2018-05-23T08:51:42Z</time>
      </trkpt>
      <trkpt lat="42.45494800619781" lon="-5.929313041269779">
        <ele>845.89999999999998</ele>
        <time>2018-05-23T08:51:50Z</time>
      </trkpt>
      <trkpt lat="42.454906012862921" lon="-5.929333996027708">
        <ele>845.79999999999995</ele>
        <time>2018-05-23T08:51:52Z</time>
      </trkpt>
      <trkpt lat="42.45479797013104" lon="-5.929356040433049">
        <ele>845.29999999999995</ele>
        <time>2018-05-23T08:51:55Z</time>
      </trkpt>
      <trkpt lat="42.454777015373111" lon="-5.929313041269779">
        <ele>845</ele>
        <time>2018-05-23T08:51:56Z</time>
      </trkpt>
      <trkpt lat="42.45479797013104" lon="-5.929313041269779">
        <ele>845.10000000000002</ele>
        <time>2018-05-23T08:51:57Z</time>
      </trkpt>
      <trkpt lat="42.454820014536381" lon="-5.929313041269779">
        <ele>845.29999999999995</ele>
        <time>2018-05-23T08:51:57Z</time>
      </trkpt>
      <trkpt lat="42.45475497096777" lon="-5.929356040433049">
        <ele>845.10000000000002</ele>
        <time>2018-05-23T08:51:59Z</time>
      </trkpt>
      <trkpt lat="42.45466897264123" lon="-5.929356040433049">
        <ele>844.60000000000002</ele>
        <time>2018-05-23T08:52:02Z</time>
      </trkpt>
      <trkpt lat="42.453811001032591" lon="-5.929570030421019">
        <ele>844</ele>
        <time>2018-05-23T08:52:28Z</time>
      </trkpt>
      <trkpt lat="42.453597011044621" lon="-5.929591991007328">
        <ele>844</ele>
        <time>2018-05-23T08:52:34Z</time>
      </trkpt>
      <trkpt lat="42.453253017738461" lon="-5.929419994354248">
        <ele>843.39999999999998</ele>
        <time>2018-05-23T08:52:45Z</time>
      </trkpt>
      <trkpt lat="42.452544998377562" lon="-5.929163005203009">
        <ele>841.79999999999995</ele>
        <time>2018-05-23T08:53:07Z</time>
      </trkpt>
      <trkpt lat="42.451707981526852" lon="-5.928797973319888">
        <ele>840.10000000000002</ele>
        <time>2018-05-23T08:53:33Z</time>
      </trkpt>
      <trkpt lat="42.451128959655762" lon="-5.928519023582339">
        <ele>839.20000000000005</ele>
        <time>2018-05-23T08:53:51Z</time>
      </trkpt>
      <trkpt lat="42.451022006571293" lon="-5.928476024419069">
        <ele>838.79999999999995</ele>
        <time>2018-05-23T08:53:54Z</time>
      </trkpt>
      <trkpt lat="42.450807010754943" lon="-5.928453980013728">
        <ele>838.20000000000005</ele>
        <time>2018-05-23T08:54:01Z</time>
      </trkpt>
      <trkpt lat="42.450785972177982" lon="-5.928453980013728">
        <ele>838.20000000000005</ele>
        <time>2018-05-23T08:54:01Z</time>
      </trkpt>
      <trkpt lat="42.450699973851442" lon="-5.928453980013728">
        <ele>838</ele>
        <time>2018-05-23T08:54:04Z</time>
      </trkpt>
      <trkpt lat="42.450721012428403" lon="-5.928410980850458">
        <ele>837.89999999999998</ele>
        <time>2018-05-23T08:54:05Z</time>
      </trkpt>
      <trkpt lat="42.450742973014712" lon="-5.928325988352299">
        <ele>837.79999999999995</ele>
        <time>2018-05-23T08:54:07Z</time>
      </trkpt>
      <trkpt lat="42.450764011591673" lon="-5.928218029439449">
        <ele>837.60000000000002</ele>
        <time>2018-05-23T08:54:09Z</time>
      </trkpt>
      <trkpt lat="42.450870964676142" lon="-5.927574969828129">
        <ele>836</ele>
        <time>2018-05-23T08:54:24Z</time>
      </trkpt>
      <trkpt lat="42.450956963002682" lon="-5.92708102427423">
        <ele>834.29999999999995</ele>
        <time>2018-05-23T08:54:35Z</time>
      </trkpt>
      <trkpt lat="42.450979007408023" lon="-5.92703802511096">
        <ele>834.29999999999995</ele>
        <time>2018-05-23T08:54:36Z</time>
      </trkpt>
      <trkpt lat="42.451022006571293" lon="-5.92675899155438">
        <ele>834</ele>
        <time>2018-05-23T08:54:42Z</time>
      </trkpt>
      <trkpt lat="42.451042961329222" lon="-5.92662999406457">
        <ele>833.79999999999995</ele>
        <time>2018-05-23T08:54:45Z</time>
      </trkpt>
      <trkpt lat="42.451108004897833" lon="-5.92626596800983">
        <ele>833.70000000000005</ele>
        <time>2018-05-23T08:54:53Z</time>
      </trkpt>
      <trkpt lat="42.451128959655762" lon="-5.926073016598821">
        <ele>833.39999999999998</ele>
        <time>2018-05-23T08:54:58Z</time>
      </trkpt>
      <trkpt lat="42.451192997395992" lon="-5.92575098387897">
        <ele>833.20000000000005</ele>
        <time>2018-05-23T08:55:05Z</time>
      </trkpt>
      <trkpt lat="42.451407993212342" lon="-5.924549018964171">
        <ele>829.89999999999998</ele>
        <time>2018-05-23T08:55:32Z</time>
      </trkpt>
      <trkpt lat="42.451644027605653" lon="-5.923132980242372">
        <ele>827.5</ele>
        <time>2018-05-23T08:56:04Z</time>
      </trkpt>
      <trkpt lat="42.451879978179932" lon="-5.921974014490843">
        <ele>826.89999999999998</ele>
        <time>2018-05-23T08:56:30Z</time>
      </trkpt>
      <trkpt lat="42.451922977343202" lon="-5.921803023666143">
        <ele>827.10000000000002</ele>
        <time>2018-05-23T08:56:34Z</time>
      </trkpt>
      <trkpt lat="42.452116012573242" lon="-5.921502029523253">
        <ele>827.79999999999995</ele>
        <time>2018-05-23T08:56:43Z</time>
      </trkpt>
      <trkpt lat="42.452308963984251" lon="-5.921115959063172">
        <ele>828.5</ele>
        <time>2018-05-23T08:56:53Z</time>
      </trkpt>
      <trkpt lat="42.452351963147521" lon="-5.921029960736632">
        <ele>828.5</ele>
        <time>2018-05-23T08:56:55Z</time>
      </trkpt>
      <trkpt lat="42.452374007552862" lon="-5.920857964083552">
        <ele>828.39999999999998</ele>
        <time>2018-05-23T08:56:59Z</time>
      </trkpt>
      <trkpt lat="42.452351963147521" lon="-5.920600974932313">
        <ele>828.10000000000002</ele>
        <time>2018-05-23T08:57:05Z</time>
      </trkpt>
      <trkpt lat="42.452308963984251" lon="-5.920299980789423">
        <ele>827.89999999999998</ele>
        <time>2018-05-23T08:57:11Z</time>
      </trkpt>
      <trkpt lat="42.452288009226322" lon="-5.920279026031494">
        <ele>827.79999999999995</ele>
        <time>2018-05-23T08:57:12Z</time>
      </trkpt>
      <trkpt lat="42.452222965657711" lon="-5.920128989964724">
        <ele>827.70000000000005</ele>
        <time>2018-05-23T08:57:16Z</time>
      </trkpt>
      <trkpt lat="42.452202010899782" lon="-5.920064030215144">
        <ele>827.60000000000002</ele>
        <time>2018-05-23T08:57:18Z</time>
      </trkpt>
      <trkpt lat="42.452374007552862" lon="-5.918862987309694">
        <ele>824.70000000000005</ele>
        <time>2018-05-23T08:57:44Z</time>
      </trkpt>
      <trkpt lat="42.452394962310791" lon="-5.918604992330074">
        <ele>824.10000000000002</ele>
        <time>2018-05-23T08:57:50Z</time>
      </trkpt>
      <trkpt lat="42.452437961474061" lon="-5.918391002342105">
        <ele>823.70000000000005</ele>
        <time>2018-05-23T08:57:55Z</time>
      </trkpt>
      <trkpt lat="42.452523959800601" lon="-5.917896972969174">
        <ele>823</ele>
        <time>2018-05-23T08:58:06Z</time>
      </trkpt>
      <trkpt lat="42.452587997540832" lon="-5.917661022394896">
        <ele>822.79999999999995</ele>
        <time>2018-05-23T08:58:11Z</time>
      </trkpt>
      <trkpt lat="42.452716995030642" lon="-5.916824005544186">
        <ele>821.79999999999995</ele>
        <time>2018-05-23T08:58:30Z</time>
      </trkpt>
      <trkpt lat="42.452887985855341" lon="-5.915966033935547">
        <ele>820.70000000000005</ele>
        <time>2018-05-23T08:58:50Z</time>
      </trkpt>
      <trkpt lat="42.453102981671691" lon="-5.914763985201716">
        <ele>819.60000000000002</ele>
        <time>2018-05-23T08:59:17Z</time>
      </trkpt>
      <trkpt lat="42.453125026077032" lon="-5.914614032953978">
        <ele>819.5</ele>
        <time>2018-05-23T08:59:20Z</time>
      </trkpt>
      <trkpt lat="42.453188979998231" lon="-5.914249001070857">
        <ele>819.5</ele>
        <time>2018-05-23T08:59:28Z</time>
      </trkpt>
      <trkpt lat="42.453468013554811" lon="-5.912832962349057">
        <ele>819.29999999999995</ele>
        <time>2018-05-23T09:00:00Z</time>
      </trkpt>
      <trkpt lat="42.453682003542781" lon="-5.911716995760799">
        <ele>818.20000000000005</ele>
        <time>2018-05-23T09:00:25Z</time>
      </trkpt>
      <trkpt lat="42.453961037099361" lon="-5.910086967051029">
        <ele>820.20000000000005</ele>
        <time>2018-05-23T09:01:02Z</time>
      </trkpt>
      <trkpt lat="42.45423998683691" lon="-5.908456016331911">
        <ele>820</ele>
        <time>2018-05-23T09:01:39Z</time>
      </trkpt>
      <trkpt lat="42.45449798181653" lon="-5.907104015350342">
        <ele>820.10000000000002</ele>
        <time>2018-05-23T09:02:09Z</time>
      </trkpt>
      <trkpt lat="42.45462697930634" lon="-5.906374035403132">
        <ele>820.89999999999998</ele>
        <time>2018-05-23T09:02:26Z</time>
      </trkpt>
      <trkpt lat="42.454863013699651" lon="-5.905086994171143">
        <ele>819.5</ele>
        <time>2018-05-23T09:02:55Z</time>
      </trkpt>
      <trkpt lat="42.45496996678412" lon="-5.904592964798212">
        <ele>818.39999999999998</ele>
        <time>2018-05-23T09:03:06Z</time>
      </trkpt>
      <trkpt lat="42.45516300201416" lon="-5.903562996536493">
        <ele>818.70000000000005</ele>
        <time>2018-05-23T09:03:29Z</time>
      </trkpt>
      <trkpt lat="42.4552490003407" lon="-5.903026973828673">
        <ele>817.79999999999995</ele>
        <time>2018-05-23T09:03:41Z</time>
      </trkpt>
      <trkpt lat="42.455485034734011" lon="-5.901760971173644">
        <ele>817.20000000000005</ele>
        <time>2018-05-23T09:04:10Z</time>
      </trkpt>
      <trkpt lat="42.45554898865521" lon="-5.901331985369325">
        <ele>817.20000000000005</ele>
        <time>2018-05-23T09:04:19Z</time>
      </trkpt>
      <trkpt lat="42.4558499827981" lon="-5.900881038978696">
        <ele>817.29999999999995</ele>
        <time>2018-05-23T09:04:33Z</time>
      </trkpt>
      <trkpt lat="42.45657904073596" lon="-5.900022983551025">
        <ele>817.5</ele>
        <time>2018-05-23T09:05:01Z</time>
      </trkpt>
      <trkpt lat="42.457223022356629" lon="-5.899529037997127">
        <ele>818</ele>
        <time>2018-05-23T09:05:23Z</time>
      </trkpt>
      <trkpt lat="42.457609008997679" lon="-5.899013970047236">
        <ele>818</ele>
        <time>2018-05-23T09:05:39Z</time>
      </trkpt>
      <trkpt lat="42.458424987271428" lon="-5.897919964045286">
        <ele>815.79999999999995</ele>
        <time>2018-05-23T09:06:13Z</time>
      </trkpt>
      <trkpt lat="42.459260998293757" lon="-5.897126030176878">
        <ele>817.60000000000002</ele>
        <time>2018-05-23T09:06:43Z</time>
      </trkpt>
      <trkpt lat="42.459884025156498" lon="-5.896224975585938">
        <ele>818.60000000000002</ele>
        <time>2018-05-23T09:07:10Z</time>
      </trkpt>
      <trkpt lat="42.460227012634277" lon="-5.895623993128538">
        <ele>818.5</ele>
        <time>2018-05-23T09:07:27Z</time>
      </trkpt>
      <trkpt lat="42.460442008450627" lon="-5.895301960408688">
        <ele>818.79999999999995</ele>
        <time>2018-05-23T09:07:37Z</time>
      </trkpt>
      <trkpt lat="42.461084984242916" lon="-5.8941650390625">
        <ele>818.39999999999998</ele>
        <time>2018-05-23T09:08:08Z</time>
      </trkpt>
      <trkpt lat="42.461751010268927" lon="-5.8929199911654">
        <ele>818</ele>
        <time>2018-05-23T09:08:42Z</time>
      </trkpt>
      <trkpt lat="42.461836002767086" lon="-5.892770038917661">
        <ele>817.89999999999998</ele>
        <time>2018-05-23T09:08:46Z</time>
      </trkpt>
      <trkpt lat="42.462050998583436" lon="-5.89191198348999">
        <ele>818</ele>
        <time>2018-05-23T09:09:05Z</time>
      </trkpt>
      <trkpt lat="42.462350986897945" lon="-5.890774978324771">
        <ele>817.39999999999998</ele>
        <time>2018-05-23T09:09:32Z</time>
      </trkpt>
      <trkpt lat="42.462737979367375" lon="-5.889573013409972">
        <ele>817.79999999999995</ele>
        <time>2018-05-23T09:10:01Z</time>
      </trkpt>
      <trkpt lat="42.462908970192075" lon="-5.889036990702152">
        <ele>818</ele>
        <time>2018-05-23T09:10:13Z</time>
      </trkpt>
      <trkpt lat="42.463145004585385" lon="-5.888242973014712">
        <ele>819</ele>
        <time>2018-05-23T09:10:32Z</time>
      </trkpt>
      <trkpt lat="42.463209964334965" lon="-5.888007022440434">
        <ele>819.29999999999995</ele>
        <time>2018-05-23T09:10:38Z</time>
      </trkpt>
      <trkpt lat="42.463252963498235" lon="-5.887941978871822">
        <ele>819.39999999999998</ele>
        <time>2018-05-23T09:10:39Z</time>
      </trkpt>
      <trkpt lat="42.463274002075195" lon="-5.887898979708552">
        <ele>819.5</ele>
        <time>2018-05-23T09:10:41Z</time>
      </trkpt>
      <trkpt lat="42.463317001238465" lon="-5.887813987210393">
        <ele>819.70000000000005</ele>
        <time>2018-05-23T09:10:43Z</time>
      </trkpt>
      <trkpt lat="42.463381038978696" lon="-5.887749027460814">
        <ele>819.89999999999998</ele>
        <time>2018-05-23T09:10:45Z</time>
      </trkpt>
      <trkpt lat="42.463445998728275" lon="-5.886741019785404">
        <ele>821.29999999999995</ele>
        <time>2018-05-23T09:11:07Z</time>
      </trkpt>
      <trkpt lat="42.463467037305236" lon="-5.885452972725034">
        <ele>822</ele>
        <time>2018-05-23T09:11:35Z</time>
      </trkpt>
      <trkpt lat="42.463488997891545" lon="-5.885217022150755">
        <ele>822.10000000000002</ele>
        <time>2018-05-23T09:11:41Z</time>
      </trkpt>
      <trkpt lat="42.463510036468506" lon="-5.885152984410524">
        <ele>822.20000000000005</ele>
        <time>2018-05-23T09:11:42Z</time>
      </trkpt>
      <trkpt lat="42.463530991226435" lon="-5.885109985247254">
        <ele>822.29999999999995</ele>
        <time>2018-05-23T09:11:43Z</time>
      </trkpt>
      <trkpt lat="42.463573990389705" lon="-5.884423004463315">
        <ele>822.5</ele>
        <time>2018-05-23T09:11:58Z</time>
      </trkpt>
      <trkpt lat="42.463639033958316" lon="-5.884057972580195">
        <ele>822.39999999999998</ele>
        <time>2018-05-23T09:12:07Z</time>
      </trkpt>
      <trkpt lat="42.463573990389705" lon="-5.882642017677426">
        <ele>821.20000000000005</ele>
        <time>2018-05-23T09:12:38Z</time>
      </trkpt>
      <trkpt lat="42.463616989552975" lon="-5.882319984957576">
        <ele>821.5</ele>
        <time>2018-05-23T09:12:45Z</time>
      </trkpt>
      <trkpt lat="42.463639033958316" lon="-5.882234992459416">
        <ele>821.60000000000002</ele>
        <time>2018-05-23T09:12:47Z</time>
      </trkpt>
      <trkpt lat="42.463659988716245" lon="-5.882127033546567">
        <ele>821.70000000000005</ele>
        <time>2018-05-23T09:12:49Z</time>
      </trkpt>
      <trkpt lat="42.463788986206055" lon="-5.880753993988037">
        <ele>820.60000000000002</ele>
        <time>2018-05-23T09:13:19Z</time>
      </trkpt>
      <trkpt lat="42.463810024783015" lon="-5.880624996498227">
        <ele>820.79999999999995</ele>
        <time>2018-05-23T09:13:22Z</time>
      </trkpt>
      <trkpt lat="42.463960982859135" lon="-5.879787979647517">
        <ele>820.79999999999995</ele>
        <time>2018-05-23T09:13:41Z</time>
      </trkpt>
      <trkpt lat="42.464025020599365" lon="-5.879229996353388">
        <ele>820.5</ele>
        <time>2018-05-23T09:13:54Z</time>
      </trkpt>
      <trkpt lat="42.463960982859135" lon="-5.877727959305048">
        <ele>819.89999999999998</ele>
        <time>2018-05-23T09:14:26Z</time>
      </trkpt>
      <trkpt lat="42.46392703615129" lon="-5.877383965998888">
        <ele>821</ele>
        <time>2018-05-23T09:14:34Z</time>
      </trkpt>
      <trkpt lat="42.463488997891545" lon="-5.877556968480349">
        <ele>820.20000000000005</ele>
        <time>2018-05-23T09:14:48Z</time>
      </trkpt>
      <trkpt lat="42.463445998728275" lon="-5.877556968480349">
        <ele>820</ele>
        <time>2018-05-23T09:14:49Z</time>
      </trkpt>
      <trkpt lat="42.463360000401735" lon="-5.877578007057309">
        <ele>819.70000000000005</ele>
        <time>2018-05-23T09:14:51Z</time>
      </trkpt>
      <trkpt lat="42.462931014597416" lon="-5.87736401706934">
        <ele>820</ele>
        <time>2018-05-23T09:15:05Z</time>
      </trkpt>
      <trkpt lat="42.462544022127986" lon="-5.87714902125299">
        <ele>821.20000000000005</ele>
        <time>2018-05-23T09:15:17Z</time>
      </trkpt>
      <trkpt lat="42.462416030466557" lon="-5.87706302292645">
        <ele>821.5</ele>
        <time>2018-05-23T09:15:22Z</time>
      </trkpt>
      <trkpt lat="42.462307987734675" lon="-5.876998985186219">
        <ele>821.70000000000005</ele>
        <time>2018-05-23T09:15:25Z</time>
      </trkpt>
      <trkpt lat="42.461213981732726" lon="-5.87663403712213">
        <ele>822.60000000000002</ele>
        <time>2018-05-23T09:15:59Z</time>
      </trkpt>
      <trkpt lat="42.460505962371826" lon="-5.876376964151859">
        <ele>822.70000000000005</ele>
        <time>2018-05-23T09:16:20Z</time>
      </trkpt>
      <trkpt lat="42.459927024319768" lon="-5.876141013577581">
        <ele>823.10000000000002</ele>
        <time>2018-05-23T09:16:38Z</time>
      </trkpt>
      <trkpt lat="42.459732983261347" lon="-5.876141013577581">
        <ele>823.10000000000002</ele>
        <time>2018-05-23T09:16:44Z</time>
      </trkpt>
      <trkpt lat="42.459518993273377" lon="-5.876118969172239">
        <ele>823.10000000000002</ele>
        <time>2018-05-23T09:16:50Z</time>
      </trkpt>
      <trkpt lat="42.459497032687068" lon="-5.876075970008969">
        <ele>823.10000000000002</ele>
        <time>2018-05-23T09:16:51Z</time>
      </trkpt>
      <trkpt lat="42.459412040188909" lon="-5.875926017761231">
        <ele>823.20000000000005</ele>
        <time>2018-05-23T09:16:56Z</time>
      </trkpt>
      <trkpt lat="42.459346996620297" lon="-5.875861980021">
        <ele>823.20000000000005</ele>
        <time>2018-05-23T09:16:58Z</time>
      </trkpt>
      <trkpt lat="42.459260998293757" lon="-5.87581898085773">
        <ele>823.10000000000002</ele>
        <time>2018-05-23T09:17:01Z</time>
      </trkpt>
      <trkpt lat="42.459219004958868" lon="-5.875861980021">
        <ele>823</ele>
        <time>2018-05-23T09:17:02Z</time>
      </trkpt>
      <trkpt lat="42.459153961390257" lon="-5.87590497918427">
        <ele>822.89999999999998</ele>
        <time>2018-05-23T09:17:04Z</time>
      </trkpt>
      <trkpt lat="42.459004009142518" lon="-5.875946972519159">
        <ele>822.70000000000005</ele>
        <time>2018-05-23T09:17:09Z</time>
      </trkpt>
      <trkpt lat="42.458767974749207" lon="-5.875926017761231">
        <ele>822.39999999999998</ele>
        <time>2018-05-23T09:17:16Z</time>
      </trkpt>
      <trkpt lat="42.458681976422668" lon="-5.875883018597961">
        <ele>822.29999999999995</ele>
        <time>2018-05-23T09:17:19Z</time>
      </trkpt>
      <trkpt lat="42.458746014162898" lon="-5.873801959678531">
        <ele>823</ele>
        <time>2018-05-23T09:18:04Z</time>
      </trkpt>
      <trkpt lat="42.458789013326168" lon="-5.873094024136663">
        <ele>823.89999999999998</ele>
        <time>2018-05-23T09:18:20Z</time>
      </trkpt>
      <trkpt lat="42.458875011652708" lon="-5.872042011469603">
        <ele>824.89999999999998</ele>
        <time>2018-05-23T09:18:43Z</time>
      </trkpt>
      <trkpt lat="42.458896972239017" lon="-5.871313037350774">
        <ele>825.10000000000002</ele>
        <time>2018-05-23T09:18:59Z</time>
      </trkpt>
      <trkpt lat="42.458918010815978" lon="-5.870175026357174">
        <ele>824.70000000000005</ele>
        <time>2018-05-23T09:19:24Z</time>
      </trkpt>
      <trkpt lat="42.458961009979248" lon="-5.868201004341245">
        <ele>825.89999999999998</ele>
        <time>2018-05-23T09:20:07Z</time>
      </trkpt>
      <trkpt lat="42.458981964737177" lon="-5.868073012679815">
        <ele>826.10000000000002</ele>
        <time>2018-05-23T09:20:10Z</time>
      </trkpt>
      <trkpt lat="42.459024963900447" lon="-5.866913963109255">
        <ele>826.70000000000005</ele>
        <time>2018-05-23T09:20:35Z</time>
      </trkpt>
      <trkpt lat="42.459090007469058" lon="-5.865668999031186">
        <ele>825.20000000000005</ele>
        <time>2018-05-23T09:21:02Z</time>
      </trkpt>
      <trkpt lat="42.459110962226987" lon="-5.864725029096007">
        <ele>824.60000000000002</ele>
        <time>2018-05-23T09:21:23Z</time>
      </trkpt>
      <trkpt lat="42.459153961390257" lon="-5.862385975196958">
        <ele>824.70000000000005</ele>
        <time>2018-05-23T09:22:14Z</time>
      </trkpt>
      <trkpt lat="42.459196960553527" lon="-5.861119972541928">
        <ele>824.5</ele>
        <time>2018-05-23T09:22:42Z</time>
      </trkpt>
      <trkpt lat="42.459260998293757" lon="-5.85970401763916">
        <ele>824.29999999999995</ele>
        <time>2018-05-23T09:23:13Z</time>
      </trkpt>
      <trkpt lat="42.459303997457027" lon="-5.858567012473941">
        <ele>824.39999999999998</ele>
        <time>2018-05-23T09:23:38Z</time>
      </trkpt>
      <trkpt lat="42.459326041862369" lon="-5.857086014002562">
        <ele>825.70000000000005</ele>
        <time>2018-05-23T09:24:10Z</time>
      </trkpt>
      <trkpt lat="42.459369041025639" lon="-5.855755973607302">
        <ele>825.20000000000005</ele>
        <time>2018-05-23T09:24:39Z</time>
      </trkpt>
      <trkpt lat="42.459346996620297" lon="-5.855563022196293">
        <ele>824.89999999999998</ele>
        <time>2018-05-23T09:24:44Z</time>
      </trkpt>
      <trkpt lat="42.459369041025639" lon="-5.853953026235104">
        <ele>825.39999999999998</ele>
        <time>2018-05-23T09:25:19Z</time>
      </trkpt>
      <trkpt lat="42.459412040188909" lon="-5.852450989186764">
        <ele>826</ele>
        <time>2018-05-23T09:25:52Z</time>
      </trkpt>
      <trkpt lat="42.459432994946837" lon="-5.851078033447266">
        <ele>825.10000000000002</ele>
        <time>2018-05-23T09:26:22Z</time>
      </trkpt>
      <trkpt lat="42.459475994110107" lon="-5.849597034975886">
        <ele>825</ele>
        <time>2018-05-23T09:26:54Z</time>
      </trkpt>
      <trkpt lat="42.459518993273377" lon="-5.847924007102847">
        <ele>825.89999999999998</ele>
        <time>2018-05-23T09:27:31Z</time>
      </trkpt>
      <trkpt lat="42.459561992436647" lon="-5.846615005284548">
        <ele>826</ele>
        <time>2018-05-23T09:27:59Z</time>
      </trkpt>
      <trkpt lat="42.459540031850338" lon="-5.846034977585077">
        <ele>826.20000000000005</ele>
        <time>2018-05-23T09:28:12Z</time>
      </trkpt>
      <trkpt lat="42.459947979077697" lon="-5.845456039533019">
        <ele>827.39999999999998</ele>
        <time>2018-05-23T09:28:30Z</time>
      </trkpt>
      <trkpt lat="42.460913993418217" lon="-5.84410403855145">
        <ele>827.79999999999995</ele>
        <time>2018-05-23T09:29:11Z</time>
      </trkpt>
      <trkpt lat="42.461685966700315" lon="-5.843053031712771">
        <ele>829</ele>
        <time>2018-05-23T09:29:43Z</time>
      </trkpt>
      <trkpt lat="42.462502028793097" lon="-5.841959025710821">
        <ele>830.10000000000002</ele>
        <time>2018-05-23T09:30:17Z</time>
      </trkpt>
      <trkpt lat="42.462630020454526" lon="-5.84185098297894">
        <ele>829.79999999999995</ele>
        <time>2018-05-23T09:30:22Z</time>
      </trkpt>
      <trkpt lat="42.462865971028805" lon="-5.841787029057741">
        <ele>829.20000000000005</ele>
        <time>2018-05-23T09:30:29Z</time>
      </trkpt>
      <trkpt lat="42.463209964334965" lon="-5.84180798381567">
        <ele>829.70000000000005</ele>
        <time>2018-05-23T09:30:39Z</time>
      </trkpt>
      <trkpt lat="42.463939022272825" lon="-5.841787029057741">
        <ele>831.60000000000002</ele>
        <time>2018-05-23T09:31:01Z</time>
      </trkpt>
      <trkpt lat="42.464560959488153" lon="-5.841335998848081">
        <ele>835.5</ele>
        <time>2018-05-23T09:31:22Z</time>
      </trkpt>
      <trkpt lat="42.464603958651423" lon="-5.841292999684811">
        <ele>835.70000000000005</ele>
        <time>2018-05-23T09:31:23Z</time>
      </trkpt>
      <trkpt lat="42.464733039960265" lon="-5.840928973630071">
        <ele>836.10000000000002</ele>
        <time>2018-05-23T09:31:32Z</time>
      </trkpt>
      <trkpt lat="42.464603958651423" lon="-5.840735016390681">
        <ele>836.60000000000002</ele>
        <time>2018-05-23T09:31:38Z</time>
      </trkpt>
      <trkpt lat="42.464560959488153" lon="-5.840670978650451">
        <ele>836.60000000000002</ele>
        <time>2018-05-23T09:31:40Z</time>
      </trkpt>
      <trkpt lat="42.464045975357294" lon="-5.839983997866511">
        <ele>835</ele>
        <time>2018-05-23T09:32:01Z</time>
      </trkpt>
      <trkpt lat="42.463917983695865" lon="-5.839770007878542">
        <ele>834.89999999999998</ele>
        <time>2018-05-23T09:32:07Z</time>
      </trkpt>
      <trkpt lat="42.463896023109555" lon="-5.839790962636471">
        <ele>834.89999999999998</ele>
        <time>2018-05-23T09:32:08Z</time>
      </trkpt>
      <trkpt lat="42.463596034795046" lon="-5.839856006205082">
        <ele>834.39999999999998</ele>
        <time>2018-05-23T09:32:17Z</time>
      </trkpt>
      <trkpt lat="42.463530991226435" lon="-5.839813007041812">
        <ele>834.39999999999998</ele>
        <time>2018-05-23T09:32:19Z</time>
      </trkpt>
      <trkpt lat="42.463467037305236" lon="-5.839704964309931">
        <ele>834.5</ele>
        <time>2018-05-23T09:32:22Z</time>
      </trkpt>
      <trkpt lat="42.463360000401735" lon="-5.839533973485231">
        <ele>834.60000000000002</ele>
        <time>2018-05-23T09:32:27Z</time>
      </trkpt>
      <trkpt lat="42.462951969355345" lon="-5.838869037106633">
        <ele>834.89999999999998</ele>
        <time>2018-05-23T09:32:46Z</time>
      </trkpt>
      <trkpt lat="42.462608981877565" lon="-5.837130965664983">
        <ele>836.20000000000005</ele>
        <time>2018-05-23T09:33:25Z</time>
      </trkpt>
      <trkpt lat="42.462565982714295" lon="-5.836766017600894">
        <ele>836.5</ele>
        <time>2018-05-23T09:33:33Z</time>
      </trkpt>
      <trkpt lat="42.462522983551025" lon="-5.836657974869013">
        <ele>836.60000000000002</ele>
        <time>2018-05-23T09:33:36Z</time>
      </trkpt>
      <trkpt lat="42.462544022127986" lon="-5.836615981534123">
        <ele>836.70000000000005</ele>
        <time>2018-05-23T09:33:37Z</time>
      </trkpt>
      <trkpt lat="42.462307987734675" lon="-5.835457015782595">
        <ele>836.5</ele>
        <time>2018-05-23T09:34:03Z</time>
      </trkpt>
      <trkpt lat="42.462244033813477" lon="-5.835177982226014">
        <ele>836.29999999999995</ele>
        <time>2018-05-23T09:34:10Z</time>
      </trkpt>
      <trkpt lat="42.462201034650207" lon="-5.835028029978275">
        <ele>836.20000000000005</ele>
        <time>2018-05-23T09:34:13Z</time>
      </trkpt>
      <trkpt lat="42.462222995236516" lon="-5.834919987246394">
        <ele>836.10000000000002</ele>
        <time>2018-05-23T09:34:16Z</time>
      </trkpt>
      <trkpt lat="42.462244033813477" lon="-5.834770034998655">
        <ele>836.10000000000002</ele>
        <time>2018-05-23T09:34:19Z</time>
      </trkpt>
      <trkpt lat="42.462201034650207" lon="-5.834705997258425">
        <ele>836</ele>
        <time>2018-05-23T09:34:21Z</time>
      </trkpt>
      <trkpt lat="42.462179996073246" lon="-5.834662998095155">
        <ele>836</ele>
        <time>2018-05-23T09:34:22Z</time>
      </trkpt>
      <trkpt lat="42.461965000256896" lon="-5.834448002278805">
        <ele>835.79999999999995</ele>
        <time>2018-05-23T09:34:30Z</time>
      </trkpt>
      <trkpt lat="42.460978031158447" lon="-5.834062015637755">
        <ele>835.10000000000002</ele>
        <time>2018-05-23T09:35:00Z</time>
      </trkpt>
      <trkpt lat="42.460462963208556" lon="-5.833890018984675">
        <ele>834.89999999999998</ele>
        <time>2018-05-23T09:35:16Z</time>
      </trkpt>
      <trkpt lat="42.460333965718746" lon="-5.833890018984675">
        <ele>834.70000000000005</ele>
        <time>2018-05-23T09:35:20Z</time>
      </trkpt>
      <trkpt lat="42.460205974057317" lon="-5.833954978734255">
        <ele>834.5</ele>
        <time>2018-05-23T09:35:24Z</time>
      </trkpt>
      <trkpt lat="42.460162974894047" lon="-5.833954978734255">
        <ele>834.39999999999998</ele>
        <time>2018-05-23T09:35:25Z</time>
      </trkpt>
      <trkpt lat="42.460076976567507" lon="-5.833976017311215">
        <ele>834.29999999999995</ele>
        <time>2018-05-23T09:35:28Z</time>
      </trkpt>
      <trkpt lat="42.459947979077697" lon="-5.833890018984675">
        <ele>834.29999999999995</ele>
        <time>2018-05-23T09:35:32Z</time>
      </trkpt>
      <trkpt lat="42.459970023483038" lon="-5.834148013964295">
        <ele>834</ele>
        <time>2018-05-23T09:35:38Z</time>
      </trkpt>
      <trkpt lat="42.459947979077697" lon="-5.834105014801025">
        <ele>834</ele>
        <time>2018-05-23T09:35:39Z</time>
      </trkpt>
      <trkpt lat="42.460012016817927" lon="-5.833375034853816">
        <ele>834.70000000000005</ele>
        <time>2018-05-23T09:35:55Z</time>
      </trkpt>
      <trkpt lat="42.460033977404237" lon="-5.832067038863897">
        <ele>834.5</ele>
        <time>2018-05-23T09:36:24Z</time>
      </trkpt>
      <trkpt lat="42.460012016817927" lon="-5.831872997805476">
        <ele>834.5</ele>
        <time>2018-05-23T09:36:28Z</time>
      </trkpt>
      <trkpt lat="42.460033977404237" lon="-5.831422973424196">
        <ele>834.5</ele>
        <time>2018-05-23T09:36:38Z</time>
      </trkpt>
      <trkpt lat="42.460076976567507" lon="-5.830135010182858">
        <ele>834.10000000000002</ele>
        <time>2018-05-23T09:37:06Z</time>
      </trkpt>
      <trkpt lat="42.460119975730777" lon="-5.829170001670718">
        <ele>834.70000000000005</ele>
        <time>2018-05-23T09:37:27Z</time>
      </trkpt>
      <trkpt lat="42.460162974894047" lon="-5.828140033408999">
        <ele>835.70000000000005</ele>
        <time>2018-05-23T09:37:50Z</time>
      </trkpt>
      <trkpt lat="42.460184013471007" lon="-5.827195979654789">
        <ele>835.79999999999995</ele>
        <time>2018-05-23T09:38:10Z</time>
      </trkpt>
      <trkpt lat="42.460205974057317" lon="-5.82687403075397">
        <ele>835.70000000000005</ele>
        <time>2018-05-23T09:38:17Z</time>
      </trkpt>
      <trkpt lat="42.460227012634277" lon="-5.824385024607182">
        <ele>835.70000000000005</ele>
        <time>2018-05-23T09:39:12Z</time>
      </trkpt>
      <trkpt lat="42.460270011797547" lon="-5.822882987558842">
        <ele>837.5</ele>
        <time>2018-05-23T09:39:45Z</time>
      </trkpt>
      <trkpt lat="42.460313010960817" lon="-5.821767020970583">
        <ele>839.5</ele>
        <time>2018-05-23T09:40:09Z</time>
      </trkpt>
      <trkpt lat="42.460356010124087" lon="-5.820501018315554">
        <ele>838.89999999999998</ele>
        <time>2018-05-23T09:40:37Z</time>
      </trkpt>
      <trkpt lat="42.460376964882016" lon="-5.819255970418453">
        <ele>836.5</ele>
        <time>2018-05-23T09:41:04Z</time>
      </trkpt>
      <trkpt lat="42.460419964045286" lon="-5.817818976938725">
        <ele>836</ele>
        <time>2018-05-23T09:41:36Z</time>
      </trkpt>
      <trkpt lat="42.460462963208556" lon="-5.816402016207576">
        <ele>836</ele>
        <time>2018-05-23T09:42:07Z</time>
      </trkpt>
      <trkpt lat="42.460485007613897" lon="-5.815437007695437">
        <ele>835.89999999999998</ele>
        <time>2018-05-23T09:42:28Z</time>
      </trkpt>
      <trkpt lat="42.460505962371826" lon="-5.814942978322506">
        <ele>835.89999999999998</ele>
        <time>2018-05-23T09:42:38Z</time>
      </trkpt>
      <trkpt lat="42.460527000948787" lon="-5.813699020072818">
        <ele>836</ele>
        <time>2018-05-23T09:43:06Z</time>
      </trkpt>
      <trkpt lat="42.460570000112057" lon="-5.812239982187748">
        <ele>836.79999999999995</ele>
        <time>2018-05-23T09:43:38Z</time>
      </trkpt>
      <trkpt lat="42.460612999275327" lon="-5.811081016436219">
        <ele>836.79999999999995</ele>
        <time>2018-05-23T09:44:03Z</time>
      </trkpt>
      <trkpt lat="42.460634959861636" lon="-5.810115002095699">
        <ele>837</ele>
        <time>2018-05-23T09:44:24Z</time>
      </trkpt>
      <trkpt lat="42.460655998438597" lon="-5.809515025466681">
        <ele>836.89999999999998</ele>
        <time>2018-05-23T09:44:37Z</time>
      </trkpt>
      <trkpt lat="42.460698997601867" lon="-5.808956958353519">
        <ele>835.79999999999995</ele>
        <time>2018-05-23T09:44:50Z</time>
      </trkpt>
      <trkpt lat="42.460720958188176" lon="-5.807905029505491">
        <ele>835.39999999999998</ele>
        <time>2018-05-23T09:45:13Z</time>
      </trkpt>
      <trkpt lat="42.460784995928407" lon="-5.806425036862493">
        <ele>834.79999999999995</ele>
        <time>2018-05-23T09:45:45Z</time>
      </trkpt>
      <trkpt lat="42.460806034505367" lon="-5.805287025868893">
        <ele>834.20000000000005</ele>
        <time>2018-05-23T09:46:10Z</time>
      </trkpt>
      <trkpt lat="42.460849033668637" lon="-5.804064022377133">
        <ele>837.10000000000002</ele>
        <time>2018-05-23T09:46:37Z</time>
      </trkpt>
      <trkpt lat="42.460913993418217" lon="-5.802733981981874">
        <ele>839.89999999999998</ele>
        <time>2018-05-23T09:47:06Z</time>
      </trkpt>
      <trkpt lat="42.460935031995177" lon="-5.802111960947514">
        <ele>840.39999999999998</ele>
        <time>2018-05-23T09:47:19Z</time>
      </trkpt>
      <trkpt lat="42.460462963208556" lon="-5.800544964149594">
        <ele>841.10000000000002</ele>
        <time>2018-05-23T09:47:56Z</time>
      </trkpt>
      <trkpt lat="42.459904979914427" lon="-5.799344005063176">
        <ele>841.5</ele>
        <time>2018-05-23T09:48:27Z</time>
      </trkpt>
      <trkpt lat="42.459775982424617" lon="-5.799107970669866">
        <ele>841.60000000000002</ele>
        <time>2018-05-23T09:48:34Z</time>
      </trkpt>
      <trkpt lat="42.459326041862369" lon="-5.798142040148377">
        <ele>841.70000000000005</ele>
        <time>2018-05-23T09:48:59Z</time>
      </trkpt>
      <trkpt lat="42.459432994946837" lon="-5.797755969688296">
        <ele>843.20000000000005</ele>
        <time>2018-05-23T09:49:08Z</time>
      </trkpt>
      <trkpt lat="42.459604991599917" lon="-5.797563018277288">
        <ele>844.79999999999995</ele>
        <time>2018-05-23T09:49:15Z</time>
      </trkpt>
      <trkpt lat="42.459798026829958" lon="-5.797434020787478">
        <ele>846.20000000000005</ele>
        <time>2018-05-23T09:49:21Z</time>
      </trkpt>
      <trkpt lat="42.459818981587887" lon="-5.797454975545406">
        <ele>846.20000000000005</ele>
        <time>2018-05-23T09:49:22Z</time>
      </trkpt>
      <trkpt lat="42.459884025156498" lon="-5.797411976382136">
        <ele>846.60000000000002</ele>
        <time>2018-05-23T09:49:24Z</time>
      </trkpt>
      <trkpt lat="42.459904979914427" lon="-5.797391021624208">
        <ele>846.70000000000005</ele>
        <time>2018-05-23T09:49:25Z</time>
      </trkpt>
      <trkpt lat="42.460012016817927" lon="-5.797326983883977">
        <ele>847.29999999999995</ele>
        <time>2018-05-23T09:49:28Z</time>
      </trkpt>
      <trkpt lat="42.460247967392206" lon="-5.797305023297668">
        <ele>848.20000000000005</ele>
        <time>2018-05-23T09:49:35Z</time>
      </trkpt>
      <trkpt lat="42.460570000112057" lon="-5.797348022460938">
        <ele>849</ele>
        <time>2018-05-23T09:49:45Z</time>
      </trkpt>
      <trkpt lat="42.460677959024906" lon="-5.797391021624208">
        <ele>849.10000000000002</ele>
        <time>2018-05-23T09:49:48Z</time>
      </trkpt>
      <trkpt lat="42.461021030321717" lon="-5.797497974708676">
        <ele>849.60000000000002</ele>
        <time>2018-05-23T09:49:58Z</time>
      </trkpt>
      <trkpt lat="42.461256980895996" lon="-5.797454975545406">
        <ele>850.10000000000002</ele>
        <time>2018-05-23T09:50:06Z</time>
      </trkpt>
      <trkpt lat="42.461364017799497" lon="-5.797283984720707">
        <ele>850.5</ele>
        <time>2018-05-23T09:50:10Z</time>
      </trkpt>
      <trkpt lat="42.461579013615847" lon="-5.796704040840268">
        <ele>850.79999999999995</ele>
        <time>2018-05-23T09:50:25Z</time>
      </trkpt>
      <trkpt lat="42.461879001930356" lon="-5.795759987086058">
        <ele>851.29999999999995</ele>
        <time>2018-05-23T09:50:47Z</time>
      </trkpt>
      <trkpt lat="42.461965000256896" lon="-5.795481037348509">
        <ele>851.70000000000005</ele>
        <time>2018-05-23T09:50:54Z</time>
      </trkpt>
      <trkpt lat="42.462502028793097" lon="-5.79380800947547">
        <ele>851.10000000000002</ele>
        <time>2018-05-23T09:51:34Z</time>
      </trkpt>
      <trkpt lat="42.462845016270876" lon="-5.792648959904909">
        <ele>849.10000000000002</ele>
        <time>2018-05-23T09:52:01Z</time>
      </trkpt>
      <trkpt lat="42.463295040652156" lon="-5.7912109605968">
        <ele>850.39999999999998</ele>
        <time>2018-05-23T09:52:35Z</time>
      </trkpt>
      <trkpt lat="42.463338039815426" lon="-5.790975010022521">
        <ele>850.29999999999995</ele>
        <time>2018-05-23T09:52:40Z</time>
      </trkpt>
      <trkpt lat="42.463467037305236" lon="-5.790523979812861">
        <ele>850.10000000000002</ele>
        <time>2018-05-23T09:52:51Z</time>
      </trkpt>
      <trkpt lat="42.463702987879515" lon="-5.789945041760802">
        <ele>850.5</ele>
        <time>2018-05-23T09:53:05Z</time>
      </trkpt>
      <trkpt lat="42.463831985369325" lon="-5.789409019052982">
        <ele>851</ele>
        <time>2018-05-23T09:53:18Z</time>
      </trkpt>
      <trkpt lat="42.464325008913875" lon="-5.787863982841373">
        <ele>850.29999999999995</ele>
        <time>2018-05-23T09:53:55Z</time>
      </trkpt>
      <trkpt lat="42.464968990534544" lon="-5.785697009414434">
        <ele>850.29999999999995</ele>
        <time>2018-05-23T09:54:46Z</time>
      </trkpt>
      <trkpt lat="42.465354977175593" lon="-5.784408962354064">
        <ele>852</ele>
        <time>2018-05-23T09:55:16Z</time>
      </trkpt>
      <trkpt lat="42.465892005711794" lon="-5.782692013308406">
        <ele>852.79999999999995</ele>
        <time>2018-05-23T09:55:57Z</time>
      </trkpt>
      <trkpt lat="42.466342030093074" lon="-5.781212020665407">
        <ele>852.20000000000005</ele>
        <time>2018-05-23T09:56:32Z</time>
      </trkpt>
      <trkpt lat="42.466772021725774" lon="-5.779838981106877">
        <ele>853.70000000000005</ele>
        <time>2018-05-23T09:57:04Z</time>
      </trkpt>
      <trkpt lat="42.467201007530093" lon="-5.778551017865539">
        <ele>854.70000000000005</ele>
        <time>2018-05-23T09:57:35Z</time>
      </trkpt>
      <trkpt lat="42.467264961451292" lon="-5.778337027877569">
        <ele>854.39999999999998</ele>
        <time>2018-05-23T09:57:40Z</time>
      </trkpt>
      <trkpt lat="42.467500995844603" lon="-5.777628002688289">
        <ele>854</ele>
        <time>2018-05-23T09:57:57Z</time>
      </trkpt>
      <trkpt lat="42.467995025217533" lon="-5.776040973141789">
        <ele>853.60000000000002</ele>
        <time>2018-05-23T09:58:35Z</time>
      </trkpt>
      <trkpt lat="42.468510009348392" lon="-5.77451697550714">
        <ele>855</ele>
        <time>2018-05-23T09:59:12Z</time>
      </trkpt>
      <trkpt lat="42.468895995989442" lon="-5.773230018094182">
        <ele>853.79999999999995</ele>
        <time>2018-05-23T09:59:42Z</time>
      </trkpt>
      <trkpt lat="42.469261027872562" lon="-5.772178005427122">
        <ele>854.5</ele>
        <time>2018-05-23T10:00:07Z</time>
      </trkpt>
      <trkpt lat="42.469324981793761" lon="-5.771898971870542">
        <ele>854.5</ele>
        <time>2018-05-23T10:00:14Z</time>
      </trkpt>
      <trkpt lat="42.469389019533992" lon="-5.771663021296263">
        <ele>854.39999999999998</ele>
        <time>2018-05-23T10:00:19Z</time>
      </trkpt>
      <trkpt lat="42.469904003664851" lon="-5.770160984247923">
        <ele>853.70000000000005</ele>
        <time>2018-05-23T10:00:56Z</time>
      </trkpt>
      <trkpt lat="42.470140038058162" lon="-5.769260013476014">
        <ele>853.79999999999995</ele>
        <time>2018-05-23T10:01:16Z</time>
      </trkpt>
      <trkpt lat="42.470590984448791" lon="-5.767971966415644">
        <ele>853.29999999999995</ele>
        <time>2018-05-23T10:01:48Z</time>
      </trkpt>
      <trkpt lat="42.47093397192657" lon="-5.766900004819036">
        <ele>852.70000000000005</ele>
        <time>2018-05-23T10:02:13Z</time>
      </trkpt>
      <trkpt lat="42.47134200297296" lon="-5.765634002164006">
        <ele>853</ele>
        <time>2018-05-23T10:02:43Z</time>
      </trkpt>
      <trkpt lat="42.47185698710382" lon="-5.764024006202817">
        <ele>853.10000000000002</ele>
        <time>2018-05-23T10:03:22Z</time>
      </trkpt>
      <trkpt lat="42.47235101647675" lon="-5.762501014396548">
        <ele>853.5</ele>
        <time>2018-05-23T10:03:58Z</time>
      </trkpt>
      <trkpt lat="42.4727370031178" lon="-5.761255966499448">
        <ele>856.60000000000002</ele>
        <time>2018-05-23T10:04:28Z</time>
      </trkpt>
      <trkpt lat="42.473079990595579" lon="-5.760204959660769">
        <ele>857.60000000000002</ele>
        <time>2018-05-23T10:04:53Z</time>
      </trkpt>
      <trkpt lat="42.47314503416419" lon="-5.760032963007689">
        <ele>857.39999999999998</ele>
        <time>2018-05-23T10:04:57Z</time>
      </trkpt>
      <trkpt lat="42.473465977236629" lon="-5.759025039151311">
        <ele>857.39999999999998</ele>
        <time>2018-05-23T10:05:21Z</time>
      </trkpt>
      <trkpt lat="42.473723972216249" lon="-5.758231021463871">
        <ele>857.29999999999995</ele>
        <time>2018-05-23T10:05:40Z</time>
      </trkpt>
      <trkpt lat="42.473745010793209" lon="-5.758188022300601">
        <ele>857.29999999999995</ele>
        <time>2018-05-23T10:05:41Z</time>
      </trkpt>
      <trkpt lat="42.473766971379519" lon="-5.758102023974061">
        <ele>857.29999999999995</ele>
        <time>2018-05-23T10:05:43Z</time>
      </trkpt>
      <trkpt lat="42.473702011629939" lon="-5.758102023974061">
        <ele>857.20000000000005</ele>
        <time>2018-05-23T10:05:45Z</time>
      </trkpt>
      <trkpt lat="42.473895968869328" lon="-5.75745795853436">
        <ele>856.79999999999995</ele>
        <time>2018-05-23T10:06:00Z</time>
      </trkpt>
      <trkpt lat="42.474302994087338" lon="-5.756214000284672">
        <ele>856.70000000000005</ele>
        <time>2018-05-23T10:06:30Z</time>
      </trkpt>
      <trkpt lat="42.474688980728388" lon="-5.754947997629643">
        <ele>857.60000000000002</ele>
        <time>2018-05-23T10:07:00Z</time>
      </trkpt>
      <trkpt lat="42.475097011774778" lon="-5.753746032714844">
        <ele>857.60000000000002</ele>
        <time>2018-05-23T10:07:29Z</time>
      </trkpt>
      <trkpt lat="42.475525997579098" lon="-5.752372993156314">
        <ele>857.39999999999998</ele>
        <time>2018-05-23T10:08:01Z</time>
      </trkpt>
      <trkpt lat="42.475611995905638" lon="-5.752114998176694">
        <ele>857.29999999999995</ele>
        <time>2018-05-23T10:08:08Z</time>
      </trkpt>
      <trkpt lat="42.476063026115298" lon="-5.750678004696965">
        <ele>858.89999999999998</ele>
        <time>2018-05-23T10:08:42Z</time>
      </trkpt>
      <trkpt lat="42.476449012756348" lon="-5.749433040618897">
        <ele>858.70000000000005</ele>
        <time>2018-05-23T10:09:11Z</time>
      </trkpt>
      <trkpt lat="42.476834999397397" lon="-5.748167037963867">
        <ele>859.20000000000005</ele>
        <time>2018-05-23T10:09:41Z</time>
      </trkpt>
      <trkpt lat="42.477178992703557" lon="-5.747050987556577">
        <ele>860.10000000000002</ele>
        <time>2018-05-23T10:10:08Z</time>
      </trkpt>
      <trkpt lat="42.477629017084837" lon="-5.745613994076848">
        <ele>859.70000000000005</ele>
        <time>2018-05-23T10:10:42Z</time>
      </trkpt>
      <trkpt lat="42.478036964312196" lon="-5.744347991421819">
        <ele>859.29999999999995</ele>
        <time>2018-05-23T10:11:12Z</time>
      </trkpt>
      <trkpt lat="42.478380035609007" lon="-5.74323202483356">
        <ele>860</ele>
        <time>2018-05-23T10:11:38Z</time>
      </trkpt>
      <trkpt lat="42.478809021413326" lon="-5.741923023015261">
        <ele>861</ele>
        <time>2018-05-23T10:12:10Z</time>
      </trkpt>
      <trkpt lat="42.479239013046026" lon="-5.740571022033691">
        <ele>861.60000000000002</ele>
        <time>2018-05-23T10:12:42Z</time>
      </trkpt>
      <trkpt lat="42.479603039100766" lon="-5.739411972463131">
        <ele>862.20000000000005</ele>
        <time>2018-05-23T10:13:10Z</time>
      </trkpt>
      <trkpt lat="42.480010986328125" lon="-5.738254012539983">
        <ele>862.79999999999995</ele>
        <time>2018-05-23T10:13:38Z</time>
      </trkpt>
      <trkpt lat="42.480053985491395" lon="-5.738082015886903">
        <ele>862.89999999999998</ele>
        <time>2018-05-23T10:13:42Z</time>
      </trkpt>
      <trkpt lat="42.480376018211246" lon="-5.737073002383113">
        <ele>862.89999999999998</ele>
        <time>2018-05-23T10:14:06Z</time>
      </trkpt>
      <trkpt lat="42.480782959610224" lon="-5.735785961151123">
        <ele>862.20000000000005</ele>
        <time>2018-05-23T10:14:36Z</time>
      </trkpt>
      <trkpt lat="42.481190990656614" lon="-5.734499003738165">
        <ele>863</ele>
        <time>2018-05-23T10:15:07Z</time>
      </trkpt>
      <trkpt lat="42.481619976460934" lon="-5.733104003593326">
        <ele>865</ele>
        <time>2018-05-23T10:15:40Z</time>
      </trkpt>
      <trkpt lat="42.481685020029545" lon="-5.732846008613706">
        <ele>865</ele>
        <time>2018-05-23T10:15:46Z</time>
      </trkpt>
      <trkpt lat="42.482048962265253" lon="-5.731729958206415">
        <ele>865</ele>
        <time>2018-05-23T10:16:12Z</time>
      </trkpt>
      <trkpt lat="42.482071006670594" lon="-5.731515968218446">
        <ele>865</ele>
        <time>2018-05-23T10:16:17Z</time>
      </trkpt>
      <trkpt lat="42.482307041063905" lon="-5.730571998283267">
        <ele>866.70000000000005</ele>
        <time>2018-05-23T10:16:39Z</time>
      </trkpt>
      <trkpt lat="42.482436038553715" lon="-5.730206966400147">
        <ele>867.29999999999995</ele>
        <time>2018-05-23T10:16:48Z</time>
      </trkpt>
      <trkpt lat="42.482671989127994" lon="-5.729219997301698">
        <ele>867.89999999999998</ele>
        <time>2018-05-23T10:17:11Z</time>
      </trkpt>
      <trkpt lat="42.482842979952693" lon="-5.728705013170838">
        <ele>868.10000000000002</ele>
        <time>2018-05-23T10:17:23Z</time>
      </trkpt>
      <trkpt lat="42.482885979115963" lon="-5.728640975430608">
        <ele>868.20000000000005</ele>
        <time>2018-05-23T10:17:25Z</time>
      </trkpt>
      <trkpt lat="42.482951022684574" lon="-5.728511977940798">
        <ele>868.39999999999998</ele>
        <time>2018-05-23T10:17:28Z</time>
      </trkpt>
      <trkpt lat="42.483039032667875" lon="-5.728370994329453">
        <ele>868.70000000000005</ele>
        <time>2018-05-23T10:17:32Z</time>
      </trkpt>
      <trkpt lat="42.482907017692924" lon="-5.728048039600253">
        <ele>868.79999999999995</ele>
        <time>2018-05-23T10:17:40Z</time>
      </trkpt>
      <trkpt lat="42.482928978279233" lon="-5.727564990520477">
        <ele>869.39999999999998</ele>
        <time>2018-05-23T10:17:51Z</time>
      </trkpt>
      <trkpt lat="42.482930989935994" lon="-5.727038020268083">
        <ele>870.20000000000005</ele>
        <time>2018-05-23T10:18:02Z</time>
      </trkpt>
      <trkpt lat="42.482996033504605" lon="-5.726676005870104">
        <ele>871.70000000000005</ele>
        <time>2018-05-23T10:18:11Z</time>
      </trkpt>
      <trkpt lat="42.483058981597424" lon="-5.726262023672462">
        <ele>873.5</ele>
        <time>2018-05-23T10:18:20Z</time>
      </trkpt>
      <trkpt lat="42.483082031831145" lon="-5.725773023441434">
        <ele>874.60000000000002</ele>
        <time>2018-05-23T10:18:30Z</time>
      </trkpt>
      <trkpt lat="42.482914980500937" lon="-5.725203976035118">
        <ele>875.20000000000005</ele>
        <time>2018-05-23T10:18:44Z</time>
      </trkpt>
      <trkpt lat="42.482624966651201" lon="-5.724378023296595">
        <ele>875</ele>
        <time>2018-05-23T10:19:04Z</time>
      </trkpt>
      <trkpt lat="42.482459004968405" lon="-5.723776035010815">
        <ele>874.89999999999998</ele>
        <time>2018-05-23T10:19:18Z</time>
      </trkpt>
      <trkpt lat="42.482260018587112" lon="-5.723130041733384">
        <ele>874.89999999999998</ele>
        <time>2018-05-23T10:19:33Z</time>
      </trkpt>
      <trkpt lat="42.48193102888763" lon="-5.722122034057975">
        <ele>874.60000000000002</ele>
        <time>2018-05-23T10:19:57Z</time>
      </trkpt>
      <trkpt lat="42.481875959783792" lon="-5.721673015505076">
        <ele>874</ele>
        <time>2018-05-23T10:20:07Z</time>
      </trkpt>
      <trkpt lat="42.481917031109333" lon="-5.721028028056026">
        <ele>873.70000000000005</ele>
        <time>2018-05-23T10:20:21Z</time>
      </trkpt>
      <trkpt lat="42.482079975306988" lon="-5.718255965039134">
        <ele>873</ele>
        <time>2018-05-23T10:21:22Z</time>
      </trkpt>
      <trkpt lat="42.481947960332036" lon="-5.717794038355351">
        <ele>873.10000000000002</ele>
        <time>2018-05-23T10:21:33Z</time>
      </trkpt>
      <trkpt lat="42.4816769734025" lon="-5.717550041154027">
        <ele>873.20000000000005</ele>
        <time>2018-05-23T10:21:43Z</time>
      </trkpt>
      <trkpt lat="42.479353006929159" lon="-5.715393964201212">
        <ele>870.89999999999998</ele>
        <time>2018-05-23T10:23:06Z</time>
      </trkpt>
      <trkpt lat="42.479093000292778" lon="-5.714991968125105">
        <ele>869.70000000000005</ele>
        <time>2018-05-23T10:23:18Z</time>
      </trkpt>
      <trkpt lat="42.478985963389277" lon="-5.714347986504436">
        <ele>870</ele>
        <time>2018-05-23T10:23:32Z</time>
      </trkpt>
      <trkpt lat="42.478812960907817" lon="-5.713737029582262">
        <ele>871</ele>
        <time>2018-05-23T10:23:47Z</time>
      </trkpt>
      <trkpt lat="42.4785599950701" lon="-5.713034961372614">
        <ele>871.89999999999998</ele>
        <time>2018-05-23T10:24:04Z</time>
      </trkpt>
      <trkpt lat="42.478184988722205" lon="-5.71177801117301">
        <ele>871.39999999999998</ele>
        <time>2018-05-23T10:24:33Z</time>
      </trkpt>
      <trkpt lat="42.477926993742585" lon="-5.710980976000428">
        <ele>871.29999999999995</ele>
        <time>2018-05-23T10:24:52Z</time>
      </trkpt>
      <trkpt lat="42.477472024038434" lon="-5.709424959495664">
        <ele>869.5</ele>
        <time>2018-05-23T10:25:29Z</time>
      </trkpt>
      <trkpt lat="42.477385019883513" lon="-5.709039978682995">
        <ele>869.39999999999998</ele>
        <time>2018-05-23T10:25:38Z</time>
      </trkpt>
      <trkpt lat="42.477382002398372" lon="-5.708374958485365">
        <ele>869.79999999999995</ele>
        <time>2018-05-23T10:25:52Z</time>
      </trkpt>
      <trkpt lat="42.477191984653473" lon="-5.706415018066764">
        <ele>869.29999999999995</ele>
        <time>2018-05-23T10:26:35Z</time>
      </trkpt>
      <trkpt lat="42.477188967168331" lon="-5.706347040832043">
        <ele>869.20000000000005</ele>
        <time>2018-05-23T10:26:37Z</time>
      </trkpt>
      <trkpt lat="42.477188967168331" lon="-5.706161968410015">
        <ele>869.10000000000002</ele>
        <time>2018-05-23T10:26:41Z</time>
      </trkpt>
      <trkpt lat="42.477462971583009" lon="-5.704983975738287">
        <ele>868.10000000000002</ele>
        <time>2018-05-23T10:27:08Z</time>
      </trkpt>
      <trkpt lat="42.477346966043115" lon="-5.703586963936687">
        <ele>865</ele>
        <time>2018-05-23T10:27:39Z</time>
      </trkpt>
      <trkpt lat="42.477382002398372" lon="-5.702248960733414">
        <ele>862.39999999999998</ele>
        <time>2018-05-23T10:28:08Z</time>
      </trkpt>
      <trkpt lat="42.477392982691526" lon="-5.702163968235254">
        <ele>862.39999999999998</ele>
        <time>2018-05-23T10:28:10Z</time>
      </trkpt>
      <trkpt lat="42.477497002109885" lon="-5.700742984190583">
        <ele>865.89999999999998</ele>
        <time>2018-05-23T10:28:41Z</time>
      </trkpt>
      <trkpt lat="42.477569002658129" lon="-5.699479999020696">
        <ele>869.5</ele>
        <time>2018-05-23T10:29:09Z</time>
      </trkpt>
      <trkpt lat="42.477510999888182" lon="-5.696001006290317">
        <ele>869.5</ele>
        <time>2018-05-23T10:30:25Z</time>
      </trkpt>
      <trkpt lat="42.477475963532925" lon="-5.69478303194046">
        <ele>869.79999999999995</ele>
        <time>2018-05-23T10:30:52Z</time>
      </trkpt>
      <trkpt lat="42.477406980469823" lon="-5.691064987331629">
        <ele>870.20000000000005</ele>
        <time>2018-05-23T10:32:13Z</time>
      </trkpt>
      <trkpt lat="42.477398011833429" lon="-5.688813021406531">
        <ele>871</ele>
        <time>2018-05-23T10:33:02Z</time>
      </trkpt>
      <trkpt lat="42.477365992963314" lon="-5.687875002622604">
        <ele>870.29999999999995</ele>
        <time>2018-05-23T10:33:23Z</time>
      </trkpt>
      <trkpt lat="42.477377979084849" lon="-5.6872000079602">
        <ele>870</ele>
        <time>2018-05-23T10:33:37Z</time>
      </trkpt>
      <trkpt lat="42.477575037628412" lon="-5.685989996418357">
        <ele>870.20000000000005</ele>
        <time>2018-05-23T10:34:04Z</time>
      </trkpt>
      <trkpt lat="42.477438999339938" lon="-5.684374971315265">
        <ele>869.89999999999998</ele>
        <time>2018-05-23T10:34:40Z</time>
      </trkpt>
      <trkpt lat="42.477365992963314" lon="-5.682655004784465">
        <ele>868.20000000000005</ele>
        <time>2018-05-23T10:35:18Z</time>
      </trkpt>
      <trkpt lat="42.477173963561654" lon="-5.681966012343764">
        <ele>868.79999999999995</ele>
        <time>2018-05-23T10:35:34Z</time>
      </trkpt>
      <trkpt lat="42.477075979113579" lon="-5.68146200850606">
        <ele>868.29999999999995</ele>
        <time>2018-05-23T10:35:45Z</time>
      </trkpt>
      <trkpt lat="42.477072961628437" lon="-5.681408029049635">
        <ele>868.20000000000005</ele>
        <time>2018-05-23T10:35:46Z</time>
      </trkpt>
      <trkpt lat="42.477060975506902" lon="-5.680005988106132">
        <ele>868.5</ele>
        <time>2018-05-23T10:36:17Z</time>
      </trkpt>
      <trkpt lat="42.476723017171025" lon="-5.678770998492837">
        <ele>869</ele>
        <time>2018-05-23T10:36:46Z</time>
      </trkpt>
      <trkpt lat="42.476445995271206" lon="-5.677474988624454">
        <ele>869</ele>
        <time>2018-05-23T10:37:15Z</time>
      </trkpt>
      <trkpt lat="42.476439960300922" lon="-5.676846010610461">
        <ele>869.10000000000002</ele>
        <time>2018-05-23T10:37:29Z</time>
      </trkpt>
      <trkpt lat="42.476137038320303" lon="-5.675674974918366">
        <ele>868.89999999999998</ele>
        <time>2018-05-23T10:37:56Z</time>
      </trkpt>
      <trkpt lat="42.475378978997469" lon="-5.672639971598983">
        <ele>867</ele>
        <time>2018-05-23T10:39:06Z</time>
      </trkpt>
      <trkpt lat="42.475204970687628" lon="-5.671742018312216">
        <ele>867</ele>
        <time>2018-05-23T10:39:27Z</time>
      </trkpt>
      <trkpt lat="42.475087959319353" lon="-5.671095019206405">
        <ele>867.10000000000002</ele>
        <time>2018-05-23T10:39:41Z</time>
      </trkpt>
      <trkpt lat="42.47531795874238" lon="-5.670595038682222">
        <ele>867.10000000000002</ele>
        <time>2018-05-23T10:39:54Z</time>
      </trkpt>
      <trkpt lat="42.476534005254507" lon="-5.669975029304624">
        <ele>869</ele>
        <time>2018-05-23T10:40:32Z</time>
      </trkpt>
      <trkpt lat="42.476738020777702" lon="-5.668882029131055">
        <ele>867.29999999999995</ele>
        <time>2018-05-23T10:40:57Z</time>
      </trkpt>
      <trkpt lat="42.475985996425152" lon="-5.663807960227132">
        <ele>865.79999999999995</ele>
        <time>2018-05-23T10:42:50Z</time>
      </trkpt>
      <trkpt lat="42.475519962608814" lon="-5.661100018769503">
        <ele>864.10000000000002</ele>
        <time>2018-05-23T10:43:51Z</time>
      </trkpt>
      <trkpt lat="42.475279988721013" lon="-5.660005006939173">
        <ele>864.39999999999998</ele>
        <time>2018-05-23T10:44:16Z</time>
      </trkpt>
      <trkpt lat="42.47338299639523" lon="-5.65508097410202">
        <ele>863.29999999999995</ele>
        <time>2018-05-23T10:46:17Z</time>
      </trkpt>
      <trkpt lat="42.472773967310786" lon="-5.655629988759756">
        <ele>863.39999999999998</ele>
        <time>2018-05-23T10:46:39Z</time>
      </trkpt>
      <trkpt lat="42.472559977322817" lon="-5.656113037839532">
        <ele>864.29999999999995</ele>
        <time>2018-05-23T10:46:51Z</time>
      </trkpt>
      <trkpt lat="42.472214978188276" lon="-5.655855964869261">
        <ele>864.39999999999998</ele>
        <time>2018-05-23T10:47:03Z</time>
      </trkpt>
      <trkpt lat="42.471960000693798" lon="-5.653218012303114">
        <ele>862.89999999999998</ele>
        <time>2018-05-23T10:48:01Z</time>
      </trkpt>
      <trkpt lat="42.471854975447059" lon="-5.651314985007048">
        <ele>862.10000000000002</ele>
        <time>2018-05-23T10:48:43Z</time>
      </trkpt>
      <trkpt lat="42.471735030412674" lon="-5.648922035470605">
        <ele>862.39999999999998</ele>
        <time>2018-05-23T10:49:35Z</time>
      </trkpt>
      <trkpt lat="42.472183965146542" lon="-5.646135974675417">
        <ele>860.5</ele>
        <time>2018-05-23T10:50:38Z</time>
      </trkpt>
      <trkpt lat="42.472895001992583" lon="-5.641654003411531">
        <ele>851.5</ele>
        <time>2018-05-23T10:52:18Z</time>
      </trkpt>
      <trkpt lat="42.4734259955585" lon="-5.638488996773958">
        <ele>843.20000000000005</ele>
        <time>2018-05-23T10:53:29Z</time>
      </trkpt>
      <trkpt lat="42.473388025537133" lon="-5.636391006410122">
        <ele>839.60000000000002</ele>
        <time>2018-05-23T10:54:15Z</time>
      </trkpt>
      <trkpt lat="42.473361035808921" lon="-5.63557100482285">
        <ele>840.29999999999995</ele>
        <time>2018-05-23T10:54:33Z</time>
      </trkpt>
      <trkpt lat="42.473223991692066" lon="-5.634907996281982">
        <ele>840.39999999999998</ele>
        <time>2018-05-23T10:54:48Z</time>
      </trkpt>
      <trkpt lat="42.473212005570531" lon="-5.634868014603853">
        <ele>840.39999999999998</ele>
        <time>2018-05-23T10:54:49Z</time>
      </trkpt>
      <trkpt lat="42.472915034741163" lon="-5.633792029693723">
        <ele>841</ele>
        <time>2018-05-23T10:55:14Z</time>
      </trkpt>
      <trkpt lat="42.472656033933163" lon="-5.632814029231668">
        <ele>841</ele>
        <time>2018-05-23T10:55:37Z</time>
      </trkpt>
      <trkpt lat="42.472539022564888" lon="-5.63230499625206">
        <ele>841</ele>
        <time>2018-05-23T10:55:48Z</time>
      </trkpt>
      <trkpt lat="42.472311034798622" lon="-5.63183200545609">
        <ele>841</ele>
        <time>2018-05-23T10:56:01Z</time>
      </trkpt>
      <trkpt lat="42.472163010388613" lon="-5.631296988576651">
        <ele>841</ele>
        <time>2018-05-23T10:56:13Z</time>
      </trkpt>
      <trkpt lat="42.472083969041705" lon="-5.630790973082185">
        <ele>840.39999999999998</ele>
        <time>2018-05-23T10:56:24Z</time>
      </trkpt>
      <trkpt lat="42.472080029547215" lon="-5.630706986412406">
        <ele>840.29999999999995</ele>
        <time>2018-05-23T10:56:26Z</time>
      </trkpt>
      <trkpt lat="42.472137026488781" lon="-5.630260985344648">
        <ele>839.5</ele>
        <time>2018-05-23T10:56:36Z</time>
      </trkpt>
      <trkpt lat="42.472153035923839" lon="-5.630204994231463">
        <ele>839.29999999999995</ele>
        <time>2018-05-23T10:56:38Z</time>
      </trkpt>
      <trkpt lat="42.472164016216993" lon="-5.630155960097909">
        <ele>839.20000000000005</ele>
        <time>2018-05-23T10:56:39Z</time>
      </trkpt>
      <trkpt lat="42.472263006493449" lon="-5.62961901538074">
        <ele>837.29999999999995</ele>
        <time>2018-05-23T10:56:51Z</time>
      </trkpt>
      <trkpt lat="42.472228975966573" lon="-5.629061032086611">
        <ele>837.20000000000005</ele>
        <time>2018-05-23T10:57:03Z</time>
      </trkpt>
      <trkpt lat="42.472108025103807" lon="-5.628010025247932">
        <ele>834.39999999999998</ele>
        <time>2018-05-23T10:57:26Z</time>
      </trkpt>
      <trkpt lat="42.47188095934689" lon="-5.627293959259987">
        <ele>832.70000000000005</ele>
        <time>2018-05-23T10:57:43Z</time>
      </trkpt>
      <trkpt lat="42.471726983785629" lon="-5.626486027613282">
        <ele>831.29999999999995</ele>
        <time>2018-05-23T10:58:02Z</time>
      </trkpt>
      <trkpt lat="42.471589017659426" lon="-5.625801980495453">
        <ele>830.39999999999998</ele>
        <time>2018-05-23T10:58:17Z</time>
      </trkpt>
      <trkpt lat="42.471276959404349" lon="-5.625030007213354">
        <ele>830.39999999999998</ele>
        <time>2018-05-23T10:58:36Z</time>
      </trkpt>
      <trkpt lat="42.470818972215056" lon="-5.624219980090857">
        <ele>830.5</ele>
        <time>2018-05-23T10:58:59Z</time>
      </trkpt>
      <trkpt lat="42.470585033297539" lon="-5.623273998498917">
        <ele>828</ele>
        <time>2018-05-23T10:59:20Z</time>
      </trkpt>
      <trkpt lat="42.470381017774343" lon="-5.621871035546064">
        <ele>824.60000000000002</ele>
        <time>2018-05-23T10:59:52Z</time>
      </trkpt>
      <trkpt lat="42.470387974753976" lon="-5.621809009462595">
        <ele>824.39999999999998</ele>
        <time>2018-05-23T10:59:53Z</time>
      </trkpt>
      <trkpt lat="42.470385963097215" lon="-5.621750000864267">
        <ele>824.29999999999995</ele>
        <time>2018-05-23T10:59:54Z</time>
      </trkpt>
      <trkpt lat="42.470240034162998" lon="-5.620565973222256">
        <ele>821.79999999999995</ele>
        <time>2018-05-23T11:00:21Z</time>
      </trkpt>
      <trkpt lat="42.470177002251148" lon="-5.619283961132169">
        <ele>818.79999999999995</ele>
        <time>2018-05-23T11:00:49Z</time>
      </trkpt>
      <trkpt lat="42.470183037221432" lon="-5.618493966758251">
        <ele>817.70000000000005</ele>
        <time>2018-05-23T11:01:06Z</time>
      </trkpt>
      <trkpt lat="42.469868967309594" lon="-5.617366014048457">
        <ele>817.5</ele>
        <time>2018-05-23T11:01:32Z</time>
      </trkpt>
      <trkpt lat="42.469446016475558" lon="-5.616119960322976">
        <ele>817.79999999999995</ele>
        <time>2018-05-23T11:02:02Z</time>
      </trkpt>
      <trkpt lat="42.469840971753001" lon="-5.61569700948894">
        <ele>817.60000000000002</ele>
        <time>2018-05-23T11:02:17Z</time>
      </trkpt>
      <trkpt lat="42.470391998067498" lon="-5.615165010094643">
        <ele>815.5</ele>
        <time>2018-05-23T11:02:37Z</time>
      </trkpt>
      <trkpt lat="42.471152991056442" lon="-5.615072976797819">
        <ele>811.60000000000002</ele>
        <time>2018-05-23T11:03:00Z</time>
      </trkpt>
      <trkpt lat="42.471841983497143" lon="-5.614813975989819">
        <ele>810.20000000000005</ele>
        <time>2018-05-23T11:03:21Z</time>
      </trkpt>
      <trkpt lat="42.471871990710497" lon="-5.614808024838567">
        <ele>810.10000000000002</ele>
        <time>2018-05-23T11:03:22Z</time>
      </trkpt>
      <trkpt lat="42.472279015928507" lon="-5.614391025155783">
        <ele>813.20000000000005</ele>
        <time>2018-05-23T11:03:37Z</time>
      </trkpt>
      <trkpt lat="42.472397033125162" lon="-5.613674959167838">
        <ele>817.89999999999998</ele>
        <time>2018-05-23T11:03:53Z</time>
      </trkpt>
      <trkpt lat="42.472419999539852" lon="-5.61326902359724">
        <ele>820.29999999999995</ele>
        <time>2018-05-23T11:04:02Z</time>
      </trkpt>
      <trkpt lat="42.473036991432309" lon="-5.611437996849418">
        <ele>831.79999999999995</ele>
        <time>2018-05-23T11:04:46Z</time>
      </trkpt>
      <trkpt lat="42.47394198551774" lon="-5.608898028731346">
        <ele>833.20000000000005</ele>
        <time>2018-05-23T11:05:48Z</time>
      </trkpt>
      <trkpt lat="42.47477900236845" lon="-5.606568027287722">
        <ele>830.20000000000005</ele>
        <time>2018-05-23T11:06:45Z</time>
      </trkpt>
      <trkpt lat="42.475376967340708" lon="-5.604776982218027">
        <ele>831.70000000000005</ele>
        <time>2018-05-23T11:07:28Z</time>
      </trkpt>
      <trkpt lat="42.476279027760029" lon="-5.602359976619482">
        <ele>831.5</ele>
        <time>2018-05-23T11:08:27Z</time>
      </trkpt>
      <trkpt lat="42.476559989154339" lon="-5.601666960865259">
        <ele>827.60000000000002</ele>
        <time>2018-05-23T11:08:44Z</time>
      </trkpt>
      <trkpt lat="42.476881016045809" lon="-5.600518975406885">
        <ele>825.20000000000005</ele>
        <time>2018-05-23T11:09:11Z</time>
      </trkpt>
      <trkpt lat="42.476899037137628" lon="-5.600477987900376">
        <ele>825.10000000000002</ele>
        <time>2018-05-23T11:09:12Z</time>
      </trkpt>
      <trkpt lat="42.477310001850128" lon="-5.598995983600617">
        <ele>824.79999999999995</ele>
        <time>2018-05-23T11:09:47Z</time>
      </trkpt>
      <trkpt lat="42.477825991809368" lon="-5.597315998747945">
        <ele>825.79999999999995</ele>
        <time>2018-05-23T11:10:27Z</time>
      </trkpt>
      <trkpt lat="42.47823603451252" lon="-5.596834039315581">
        <ele>825</ele>
        <time>2018-05-23T11:10:43Z</time>
      </trkpt>
      <trkpt lat="42.479722984135151" lon="-5.596835967153311">
        <ele>824.70000000000005</ele>
        <time>2018-05-23T11:11:27Z</time>
      </trkpt>
      <trkpt lat="42.480434020981193" lon="-5.596684003248811">
        <ele>824.5</ele>
        <time>2018-05-23T11:11:48Z</time>
      </trkpt>
      <trkpt lat="42.480860995128751" lon="-5.5960179772228">
        <ele>824.70000000000005</ele>
        <time>2018-05-23T11:12:07Z</time>
      </trkpt>
      <trkpt lat="42.481604972854257" lon="-5.594196002930403">
        <ele>823.70000000000005</ele>
        <time>2018-05-23T11:12:53Z</time>
      </trkpt>
      <trkpt lat="42.482124986127019" lon="-5.592885995283723">
        <ele>822.89999999999998</ele>
        <time>2018-05-23T11:13:25Z</time>
      </trkpt>
      <trkpt lat="42.482447018846869" lon="-5.591599959880114">
        <ele>818.60000000000002</ele>
        <time>2018-05-23T11:13:55Z</time>
      </trkpt>
      <trkpt lat="42.482547014951706" lon="-5.590931000187993">
        <ele>815.20000000000005</ele>
        <time>2018-05-23T11:14:10Z</time>
      </trkpt>
      <trkpt lat="42.482547014951706" lon="-5.589471040293574">
        <ele>809.5</ele>
        <time>2018-05-23T11:14:42Z</time>
      </trkpt>
      <trkpt lat="42.482561012730002" lon="-5.589237017557025">
        <ele>808.29999999999995</ele>
        <time>2018-05-23T11:14:47Z</time>
      </trkpt>
      <trkpt lat="42.482633013278246" lon="-5.58881800621748">
        <ele>806.29999999999995</ele>
        <time>2018-05-23T11:14:57Z</time>
      </trkpt>
      <trkpt lat="42.482634019106627" lon="-5.588012002408505">
        <ele>804.20000000000005</ele>
        <time>2018-05-23T11:15:14Z</time>
      </trkpt>
      <trkpt lat="42.48259998857975" lon="-5.587267018854618">
        <ele>804</ele>
        <time>2018-05-23T11:15:30Z</time>
      </trkpt>
      <trkpt lat="42.482703002169728" lon="-5.586913973093033">
        <ele>804</ele>
        <time>2018-05-23T11:15:39Z</time>
      </trkpt>
      <trkpt lat="42.483270037919283" lon="-5.586371999233961">
        <ele>804.79999999999995</ele>
        <time>2018-05-23T11:15:59Z</time>
      </trkpt>
      <trkpt lat="42.484112000092864" lon="-5.585375977680087">
        <ele>807.5</ele>
        <time>2018-05-23T11:16:32Z</time>
      </trkpt>
      <trkpt lat="42.484108982607722" lon="-5.585318980738521">
        <ele>807.5</ele>
        <time>2018-05-23T11:16:34Z</time>
      </trkpt>
      <trkpt lat="42.484224988147616" lon="-5.585067020729184">
        <ele>807.79999999999995</ele>
        <time>2018-05-23T11:16:40Z</time>
      </trkpt>
      <trkpt lat="42.484702002257109" lon="-5.584710035473108">
        <ele>808.89999999999998</ele>
        <time>2018-05-23T11:16:56Z</time>
      </trkpt>
      <trkpt lat="42.48474801890552" lon="-5.584705006331205">
        <ele>808.89999999999998</ele>
        <time>2018-05-23T11:16:58Z</time>
      </trkpt>
      <trkpt lat="42.485119001939893" lon="-5.584548013284802">
        <ele>809</ele>
        <time>2018-05-23T11:17:09Z</time>
      </trkpt>
      <trkpt lat="42.48519703745842" lon="-5.584298986941576">
        <ele>809</ele>
        <time>2018-05-23T11:17:15Z</time>
      </trkpt>
      <trkpt lat="42.485327962785959" lon="-5.583608988672495">
        <ele>808.79999999999995</ele>
        <time>2018-05-23T11:17:31Z</time>
      </trkpt>
      <trkpt lat="42.485345983877778" lon="-5.583550985902548">
        <ele>808.70000000000005</ele>
        <time>2018-05-23T11:17:32Z</time>
      </trkpt>
      <trkpt lat="42.485430976375937" lon="-5.583141027018428">
        <ele>808.29999999999995</ele>
        <time>2018-05-23T11:17:41Z</time>
      </trkpt>
      <trkpt lat="42.485282029956579" lon="-5.582817988470197">
        <ele>807.60000000000002</ele>
        <time>2018-05-23T11:17:50Z</time>
      </trkpt>
      <trkpt lat="42.484842985868454" lon="-5.582432001829147">
        <ele>806.5</ele>
        <time>2018-05-23T11:18:05Z</time>
      </trkpt>
      <trkpt lat="42.484536962583661" lon="-5.582103012129664">
        <ele>806</ele>
        <time>2018-05-23T11:18:17Z</time>
      </trkpt>
      <trkpt lat="42.484323978424072" lon="-5.581491971388459">
        <ele>806</ele>
        <time>2018-05-23T11:18:32Z</time>
      </trkpt>
      <trkpt lat="42.484235968440771" lon="-5.581101039424539">
        <ele>805.70000000000005</ele>
        <time>2018-05-23T11:18:40Z</time>
      </trkpt>
      <trkpt lat="42.483947966247797" lon="-5.580415986478329">
        <ele>804.20000000000005</ele>
        <time>2018-05-23T11:18:58Z</time>
      </trkpt>
      <trkpt lat="42.483874959871173" lon="-5.57988197542727">
        <ele>801.70000000000005</ele>
        <time>2018-05-23T11:19:10Z</time>
      </trkpt>
      <trkpt lat="42.48386699706316" lon="-5.579851968213916">
        <ele>801.5</ele>
        <time>2018-05-23T11:19:10Z</time>
      </trkpt>
      <trkpt lat="42.483792984858155" lon="-5.579102961346507">
        <ele>798.29999999999995</ele>
        <time>2018-05-23T11:19:27Z</time>
      </trkpt>
      <trkpt lat="42.483761971816421" lon="-5.578437019139528">
        <ele>796.29999999999995</ele>
        <time>2018-05-23T11:19:41Z</time>
      </trkpt>
      <trkpt lat="42.48376096598804" lon="-5.578416986390948">
        <ele>796.20000000000005</ele>
        <time>2018-05-23T11:19:42Z</time>
      </trkpt>
      <trkpt lat="42.483768006786704" lon="-5.577678037807345">
        <ele>794.39999999999998</ele>
        <time>2018-05-23T11:19:58Z</time>
      </trkpt>
      <trkpt lat="42.483765995129943" lon="-5.57764501310885">
        <ele>794.39999999999998</ele>
        <time>2018-05-23T11:19:59Z</time>
      </trkpt>
      <trkpt lat="42.483733976259828" lon="-5.576283037662506">
        <ele>793</ele>
        <time>2018-05-23T11:20:29Z</time>
      </trkpt>
      <trkpt lat="42.483657030388713" lon="-5.57547896169126">
        <ele>793.79999999999995</ele>
        <time>2018-05-23T11:20:46Z</time>
      </trkpt>
      <trkpt lat="42.483475981280208" lon="-5.574014978483319">
        <ele>793.10000000000002</ele>
        <time>2018-05-23T11:21:19Z</time>
      </trkpt>
      <trkpt lat="42.483472963795066" lon="-5.57397298514843">
        <ele>793.10000000000002</ele>
        <time>2018-05-23T11:21:20Z</time>
      </trkpt>
      <trkpt lat="42.483463995158672" lon="-5.573926968500018">
        <ele>793.10000000000002</ele>
        <time>2018-05-23T11:21:21Z</time>
      </trkpt>
      <trkpt lat="42.48328504152596" lon="-5.572246983647347">
        <ele>791.20000000000005</ele>
        <time>2018-05-23T11:21:58Z</time>
      </trkpt>
      <trkpt lat="42.483284035697579" lon="-5.572233991697431">
        <ele>791.20000000000005</ele>
        <time>2018-05-23T11:21:58Z</time>
      </trkpt>
      <trkpt lat="42.483052024617791" lon="-5.57027698494494">
        <ele>792.89999999999998</ele>
        <time>2018-05-23T11:22:41Z</time>
      </trkpt>
      <trkpt lat="42.482895031571388" lon="-5.568764973431826">
        <ele>791</ele>
        <time>2018-05-23T11:23:15Z</time>
      </trkpt>
      <trkpt lat="42.482647011056542" lon="-5.566791035234928">
        <ele>791.29999999999995</ele>
        <time>2018-05-23T11:23:59Z</time>
      </trkpt>
      <trkpt lat="42.482264963909984" lon="-5.565190007910132">
        <ele>791.70000000000005</ele>
        <time>2018-05-23T11:24:35Z</time>
      </trkpt>
      <trkpt lat="42.48206103220582" lon="-5.56445399299264">
        <ele>790.79999999999995</ele>
        <time>2018-05-23T11:24:53Z</time>
      </trkpt>
      <trkpt lat="42.481550993397832" lon="-5.562548032030463">
        <ele>789.39999999999998</ele>
        <time>2018-05-23T11:25:37Z</time>
      </trkpt>
      <trkpt lat="42.481035003438592" lon="-5.560531010851264">
        <ele>790</ele>
        <time>2018-05-23T11:26:24Z</time>
      </trkpt>
      <trkpt lat="42.481018994003534" lon="-5.560326995328069">
        <ele>790</ele>
        <time>2018-05-23T11:26:28Z</time>
      </trkpt>
      <trkpt lat="42.479986008256674" lon="-5.556035963818431">
        <ele>789.20000000000005</ele>
        <time>2018-05-23T11:28:07Z</time>
      </trkpt>
      <trkpt lat="42.479934962466359" lon="-5.554630989208818">
        <ele>788.70000000000005</ele>
        <time>2018-05-23T11:28:37Z</time>
      </trkpt>
      <trkpt lat="42.480230005457997" lon="-5.552701978012919">
        <ele>789</ele>
        <time>2018-05-23T11:29:20Z</time>
      </trkpt>
      <trkpt lat="42.480552038177848" lon="-5.550950998440385">
        <ele>785.89999999999998</ele>
        <time>2018-05-23T11:30:00Z</time>
      </trkpt>
      <trkpt lat="42.480475008487701" lon="-5.549677032977343">
        <ele>785.5</ele>
        <time>2018-05-23T11:30:28Z</time>
      </trkpt>
      <trkpt lat="42.480467967689037" lon="-5.5495669785887">
        <ele>785.5</ele>
        <time>2018-05-23T11:30:30Z</time>
      </trkpt>
      <trkpt lat="42.480268981307745" lon="-5.548721998929977">
        <ele>784.39999999999998</ele>
        <time>2018-05-23T11:30:50Z</time>
      </trkpt>
      <trkpt lat="42.479946026578546" lon="-5.548128979280591">
        <ele>783.5</ele>
        <time>2018-05-23T11:31:06Z</time>
      </trkpt>
      <trkpt lat="42.479615025222301" lon="-5.54790903814137">
        <ele>783.89999999999998</ele>
        <time>2018-05-23T11:31:17Z</time>
      </trkpt>
      <trkpt lat="42.479688031598926" lon="-5.547496983781457">
        <ele>781.79999999999995</ele>
        <time>2018-05-23T11:31:26Z</time>
      </trkpt>
      <trkpt lat="42.480180971324444" lon="-5.546696009114385">
        <ele>780</ele>
        <time>2018-05-23T11:31:49Z</time>
      </trkpt>
      <trkpt lat="42.480745995417237" lon="-5.545756984502077">
        <ele>779.60000000000002</ele>
        <time>2018-05-23T11:32:15Z</time>
      </trkpt>
      <trkpt lat="42.481025028973818" lon="-5.544812008738518">
        <ele>778.20000000000005</ele>
        <time>2018-05-23T11:32:38Z</time>
      </trkpt>
      <trkpt lat="42.481282018125057" lon="-5.543997036293149">
        <ele>778</ele>
        <time>2018-05-23T11:32:57Z</time>
      </trkpt>
      <trkpt lat="42.48135301284492" lon="-5.543612977489829">
        <ele>778.29999999999995</ele>
        <time>2018-05-23T11:33:06Z</time>
      </trkpt>
      <trkpt lat="42.481283023953438" lon="-5.5432069581002">
        <ele>778.70000000000005</ele>
        <time>2018-05-23T11:33:15Z</time>
      </trkpt>
      <trkpt lat="42.481385031715035" lon="-5.542856007814407">
        <ele>779</ele>
        <time>2018-05-23T11:33:23Z</time>
      </trkpt>
      <trkpt lat="42.481647972017527" lon="-5.542339012026787">
        <ele>778.79999999999995</ele>
        <time>2018-05-23T11:33:37Z</time>
      </trkpt>
      <trkpt lat="42.481686025857925" lon="-5.542286960408092">
        <ele>778.79999999999995</ele>
        <time>2018-05-23T11:33:38Z</time>
      </trkpt>
      <trkpt lat="42.482009986415505" lon="-5.541613977402449">
        <ele>778.70000000000005</ele>
        <time>2018-05-23T11:33:56Z</time>
      </trkpt>
      <trkpt lat="42.482024990022182" lon="-5.541571984067559">
        <ele>778.60000000000002</ele>
        <time>2018-05-23T11:33:57Z</time>
      </trkpt>
      <trkpt lat="42.482150970026851" lon="-5.541244000196457">
        <ele>778.10000000000002</ele>
        <time>2018-05-23T11:34:05Z</time>
      </trkpt>
      <trkpt lat="42.482395973056555" lon="-5.540414024144411">
        <ele>778</ele>
        <time>2018-05-23T11:34:25Z</time>
      </trkpt>
      <trkpt lat="42.482651034370065" lon="-5.539592010900378">
        <ele>778.70000000000005</ele>
        <time>2018-05-23T11:34:44Z</time>
      </trkpt>
      <trkpt lat="42.482906011864543" lon="-5.538803022354841">
        <ele>778.10000000000002</ele>
        <time>2018-05-23T11:35:03Z</time>
      </trkpt>
      <trkpt lat="42.481978973373771" lon="-5.538168009370565">
        <ele>777.89999999999998</ele>
        <time>2018-05-23T11:35:34Z</time>
      </trkpt>
      <trkpt lat="42.48128897510469" lon="-5.537622012197971">
        <ele>777</ele>
        <time>2018-05-23T11:35:57Z</time>
      </trkpt>
      <trkpt lat="42.481059981510043" lon="-5.53720903582871">
        <ele>777</ele>
        <time>2018-05-23T11:36:09Z</time>
      </trkpt>
      <trkpt lat="42.481268020346761" lon="-5.53630898706615">
        <ele>777.89999999999998</ele>
        <time>2018-05-23T11:36:29Z</time>
      </trkpt>
      <trkpt lat="42.481447979807854" lon="-5.535093024373055">
        <ele>777.5</ele>
        <time>2018-05-23T11:36:56Z</time>
      </trkpt>
      <trkpt lat="42.481545964255929" lon="-5.534183001145721">
        <ele>778</ele>
        <time>2018-05-23T11:37:16Z</time>
      </trkpt>
      <trkpt lat="42.481516040861607" lon="-5.533238025382161">
        <ele>778.70000000000005</ele>
        <time>2018-05-23T11:37:37Z</time>
      </trkpt>
      <trkpt lat="42.48141503892839" lon="-5.532979024574161">
        <ele>778.89999999999998</ele>
        <time>2018-05-23T11:37:43Z</time>
      </trkpt>
      <trkpt lat="42.481093006208539" lon="-5.532641988247633">
        <ele>779.5</ele>
        <time>2018-05-23T11:37:56Z</time>
      </trkpt>
      <trkpt lat="42.480883039534092" lon="-5.532536963000894">
        <ele>779.70000000000005</ele>
        <time>2018-05-23T11:38:02Z</time>
      </trkpt>
      <trkpt lat="42.480720011517406" lon="-5.532200010493398">
        <ele>779.89999999999998</ele>
        <time>2018-05-23T11:38:11Z</time>
      </trkpt>
      <trkpt lat="42.480899970978498" lon="-5.531299039721489">
        <ele>779.5</ele>
        <time>2018-05-23T11:38:31Z</time>
      </trkpt>
      <trkpt lat="42.481200965121388" lon="-5.530174020677805">
        <ele>778.89999999999998</ele>
        <time>2018-05-23T11:38:58Z</time>
      </trkpt>
      <trkpt lat="42.481053024530411" lon="-5.529859028756619">
        <ele>778.70000000000005</ele>
        <time>2018-05-23T11:39:06Z</time>
      </trkpt>
      <trkpt lat="42.48034399934113" lon="-5.529310014098883">
        <ele>777.70000000000005</ele>
        <time>2018-05-23T11:39:30Z</time>
      </trkpt>
      <trkpt lat="42.479594992473722" lon="-5.528713976964355">
        <ele>774.10000000000002</ele>
        <time>2018-05-23T11:39:56Z</time>
      </trkpt>
      <trkpt lat="42.478893008083105" lon="-5.528276022523642">
        <ele>774.20000000000005</ele>
        <time>2018-05-23T11:40:19Z</time>
      </trkpt>
      <trkpt lat="42.477954989299178" lon="-5.527770007029176">
        <ele>774.20000000000005</ele>
        <time>2018-05-23T11:40:48Z</time>
      </trkpt>
      <trkpt lat="42.476942036300898" lon="-5.527257034555078">
        <ele>772.29999999999995</ele>
        <time>2018-05-23T11:41:21Z</time>
      </trkpt>
      <trkpt lat="42.475836966186762" lon="-5.526809021830559">
        <ele>773.29999999999995</ele>
        <time>2018-05-23T11:41:55Z</time>
      </trkpt>
      <trkpt lat="42.475070022046566" lon="-5.526449019089341">
        <ele>773.29999999999995</ele>
        <time>2018-05-23T11:42:19Z</time>
      </trkpt>
      <trkpt lat="42.474559983238578" lon="-5.526237040758133">
        <ele>773</ele>
        <time>2018-05-23T11:42:35Z</time>
      </trkpt>
      <trkpt lat="42.474061008542776" lon="-5.526132015511394">
        <ele>772.39999999999998</ele>
        <time>2018-05-23T11:42:50Z</time>
      </trkpt>
      <trkpt lat="42.473221980035305" lon="-5.525951972231269">
        <ele>771.39999999999998</ele>
        <time>2018-05-23T11:43:15Z</time>
      </trkpt>
      <trkpt lat="42.47273800894618" lon="-5.525881983339787">
        <ele>771.20000000000005</ele>
        <time>2018-05-23T11:43:29Z</time>
      </trkpt>
      <trkpt lat="42.472024960443377" lon="-5.525826998054981">
        <ele>772</ele>
        <time>2018-05-23T11:43:50Z</time>
      </trkpt>
      <trkpt lat="42.471708040684462" lon="-5.525474036112428">
        <ele>772</ele>
        <time>2018-05-23T11:44:03Z</time>
      </trkpt>
      <trkpt lat="42.471445016562939" lon="-5.524807004258037">
        <ele>772.60000000000002</ele>
        <time>2018-05-23T11:44:19Z</time>
      </trkpt>
      <trkpt lat="42.471253992989659" lon="-5.524353962391615">
        <ele>772.70000000000005</ele>
        <time>2018-05-23T11:44:30Z</time>
      </trkpt>
      <trkpt lat="42.470957022160292" lon="-5.523614007979631">
        <ele>772.39999999999998</ele>
        <time>2018-05-23T11:44:49Z</time>
      </trkpt>
      <trkpt lat="42.470946041867137" lon="-5.523563968017697">
        <ele>772.39999999999998</ele>
        <time>2018-05-23T11:44:50Z</time>
      </trkpt>
      <trkpt lat="42.470699027180672" lon="-5.522987963631749">
        <ele>772.70000000000005</ele>
        <time>2018-05-23T11:45:05Z</time>
      </trkpt>
      <trkpt lat="42.470351010560989" lon="-5.52215002477169">
        <ele>772.79999999999995</ele>
        <time>2018-05-23T11:45:26Z</time>
      </trkpt>
      <trkpt lat="42.470350004732609" lon="-5.522138960659504">
        <ele>772.79999999999995</ele>
        <time>2018-05-23T11:45:26Z</time>
      </trkpt>
      <trkpt lat="42.470211032778025" lon="-5.521778035908938">
        <ele>771.29999999999995</ele>
        <time>2018-05-23T11:45:35Z</time>
      </trkpt>
      <trkpt lat="42.470054961740971" lon="-5.521417027339339">
        <ele>770</ele>
        <time>2018-05-23T11:45:44Z</time>
      </trkpt>
      <trkpt lat="42.46992202475667" lon="-5.521088959649205">
        <ele>769.70000000000005</ele>
        <time>2018-05-23T11:45:52Z</time>
      </trkpt>
      <trkpt lat="42.469739969819784" lon="-5.520628038793802">
        <ele>770.39999999999998</ele>
        <time>2018-05-23T11:46:04Z</time>
      </trkpt>
      <trkpt lat="42.469581970945001" lon="-5.520254038274288">
        <ele>771.20000000000005</ele>
        <time>2018-05-23T11:46:13Z</time>
      </trkpt>
      <trkpt lat="42.469577025622129" lon="-5.520242974162102">
        <ele>771.20000000000005</ele>
        <time>2018-05-23T11:46:13Z</time>
      </trkpt>
      <trkpt lat="42.469324981793761" lon="-5.519601004198194">
        <ele>772.89999999999998</ele>
        <time>2018-05-23T11:46:29Z</time>
      </trkpt>
      <trkpt lat="42.469180980697274" lon="-5.519217029213905">
        <ele>773.5</ele>
        <time>2018-05-23T11:46:39Z</time>
      </trkpt>
      <trkpt lat="42.468319991603494" lon="-5.517287012189627">
        <ele>773</ele>
        <time>2018-05-23T11:47:28Z</time>
      </trkpt>
      <trkpt lat="42.467446010559797" lon="-5.514991963282228">
        <ele>772.60000000000002</ele>
        <time>2018-05-23T11:48:24Z</time>
      </trkpt>
      <trkpt lat="42.46764600276947" lon="-5.513409962877631">
        <ele>772</ele>
        <time>2018-05-23T11:48:59Z</time>
      </trkpt>
      <trkpt lat="42.468945030122995" lon="-5.511655965819955">
        <ele>772.20000000000005</ele>
        <time>2018-05-23T11:49:54Z</time>
      </trkpt>
      <trkpt lat="42.468936983495951" lon="-5.511013995856047">
        <ele>772.60000000000002</ele>
        <time>2018-05-23T11:50:08Z</time>
      </trkpt>
      <trkpt lat="42.471659006550908" lon="-5.507447998970747">
        <ele>771.79999999999995</ele>
        <time>2018-05-23T11:52:00Z</time>
      </trkpt>
      <trkpt lat="42.47192102484405" lon="-5.506975008174777">
        <ele>772.39999999999998</ele>
        <time>2018-05-23T11:52:13Z</time>
      </trkpt>
      <trkpt lat="42.472272980958223" lon="-5.506132962182164">
        <ele>773.70000000000005</ele>
        <time>2018-05-23T11:52:34Z</time>
      </trkpt>
      <trkpt lat="42.472386974841356" lon="-5.505023030564189">
        <ele>773.60000000000002</ele>
        <time>2018-05-23T11:52:59Z</time>
      </trkpt>
      <trkpt lat="42.472915034741163" lon="-5.50401896238327">
        <ele>774</ele>
        <time>2018-05-23T11:53:26Z</time>
      </trkpt>
      <trkpt lat="42.473788009956479" lon="-5.50369399599731">
        <ele>772</ele>
        <time>2018-05-23T11:53:52Z</time>
      </trkpt>
      <trkpt lat="42.474724017083645" lon="-5.503629958257079">
        <ele>772</ele>
        <time>2018-05-23T11:54:20Z</time>
      </trkpt>
      <trkpt lat="42.474889978766441" lon="-5.502778021618724">
        <ele>772.89999999999998</ele>
        <time>2018-05-23T11:54:39Z</time>
      </trkpt>
      <trkpt lat="42.475174041464925" lon="-5.492858961224556">
        <ele>775.79999999999995</ele>
        <time>2018-05-23T11:58:16Z</time>
      </trkpt>
      <trkpt lat="42.475104974582791" lon="-5.491670994088054">
        <ele>775.70000000000005</ele>
        <time>2018-05-23T11:58:42Z</time>
      </trkpt>
      <trkpt lat="42.474341969937086" lon="-5.490389987826347">
        <ele>774.29999999999995</ele>
        <time>2018-05-23T11:59:18Z</time>
      </trkpt>
      <trkpt lat="42.472366020083427" lon="-5.487881032750011">
        <ele>775</ele>
        <time>2018-05-23T12:00:39Z</time>
      </trkpt>
      <trkpt lat="42.471069004386663" lon="-5.486174980178475">
        <ele>775.10000000000002</ele>
        <time>2018-05-23T12:01:32Z</time>
      </trkpt>
      <trkpt lat="42.470199968665838" lon="-5.485185999423266">
        <ele>776.5</ele>
        <time>2018-05-23T12:02:06Z</time>
      </trkpt>
      <trkpt lat="42.470358973369002" lon="-5.484172962605953">
        <ele>776.5</ele>
        <time>2018-05-23T12:02:29Z</time>
      </trkpt>
      <trkpt lat="42.471161037683487" lon="-5.482760025188327">
        <ele>776.70000000000005</ele>
        <time>2018-05-23T12:03:08Z</time>
      </trkpt>
      <trkpt lat="42.471289029344916" lon="-5.482328021898866">
        <ele>778.79999999999995</ele>
        <time>2018-05-23T12:03:18Z</time>
      </trkpt>
      <trkpt lat="42.47136102989316" lon="-5.482246968895197">
        <ele>779</ele>
        <time>2018-05-23T12:03:21Z</time>
      </trkpt>
      <trkpt lat="42.47301897034049" lon="-5.480904020369053">
        <ele>779.79999999999995</ele>
        <time>2018-05-23T12:04:18Z</time>
      </trkpt>
      <trkpt lat="42.472658967599273" lon="-5.478739980608225">
        <ele>779</ele>
        <time>2018-05-23T12:05:06Z</time>
      </trkpt>
      <trkpt lat="42.472355039790273" lon="-5.477162003517151">
        <ele>777.20000000000005</ele>
        <time>2018-05-23T12:05:42Z</time>
      </trkpt>
      <trkpt lat="42.472346993163228" lon="-5.477035017684102">
        <ele>777</ele>
        <time>2018-05-23T12:05:45Z</time>
      </trkpt>
      <trkpt lat="42.472612028941512" lon="-5.476392041891813">
        <ele>776.70000000000005</ele>
        <time>2018-05-23T12:06:01Z</time>
      </trkpt>
      <trkpt lat="42.473818017169833" lon="-5.474139992147684">
        <ele>778.5</ele>
        <time>2018-05-23T12:07:02Z</time>
      </trkpt>
      <trkpt lat="42.474817978218198" lon="-5.472330003976822">
        <ele>779.79999999999995</ele>
        <time>2018-05-23T12:07:51Z</time>
      </trkpt>
      <trkpt lat="42.476306017488241" lon="-5.46957797370851">
        <ele>780</ele>
        <time>2018-05-23T12:09:06Z</time>
      </trkpt>
      <trkpt lat="42.477901009842753" lon="-5.466425037011504">
        <ele>780.79999999999995</ele>
        <time>2018-05-23T12:10:29Z</time>
      </trkpt>
      <trkpt lat="42.47866996563971" lon="-5.464871032163501">
        <ele>783.10000000000002</ele>
        <time>2018-05-23T12:11:10Z</time>
      </trkpt>
      <trkpt lat="42.480143001303077" lon="-5.461944993585348">
        <ele>782.10000000000002</ele>
        <time>2018-05-23T12:12:28Z</time>
      </trkpt>
      <trkpt lat="42.481467006728053" lon="-5.459173014387488">
        <ele>782.39999999999998</ele>
        <time>2018-05-23T12:13:40Z</time>
      </trkpt>
      <trkpt lat="42.482036976143718" lon="-5.458344966173172">
        <ele>783</ele>
        <time>2018-05-23T12:14:05Z</time>
      </trkpt>
      <trkpt lat="42.482346016913652" lon="-5.457537034526467">
        <ele>785.10000000000002</ele>
        <time>2018-05-23T12:14:24Z</time>
      </trkpt>
      <trkpt lat="42.482335036620498" lon="-5.456459959968925">
        <ele>787.70000000000005</ele>
        <time>2018-05-23T12:14:48Z</time>
      </trkpt>
      <trkpt lat="42.482024990022182" lon="-5.45619199052453">
        <ele>788</ele>
        <time>2018-05-23T12:14:59Z</time>
      </trkpt>
      <trkpt lat="42.482769973576069" lon="-5.454738987609744">
        <ele>788.79999999999995</ele>
        <time>2018-05-23T12:15:38Z</time>
      </trkpt>
      <trkpt lat="42.482536034658551" lon="-5.454228026792407">
        <ele>789</ele>
        <time>2018-05-23T12:15:51Z</time>
      </trkpt>
      <trkpt lat="42.482590014114976" lon="-5.453318003565073">
        <ele>788.5</ele>
        <time>2018-05-23T12:16:11Z</time>
      </trkpt>
      <trkpt lat="42.482603006064892" lon="-5.453279027715325">
        <ele>788.39999999999998</ele>
        <time>2018-05-23T12:16:12Z</time>
      </trkpt>
      <trkpt lat="42.482742983847857" lon="-5.452463971450925">
        <ele>787.60000000000002</ele>
        <time>2018-05-23T12:16:30Z</time>
      </trkpt>
      <trkpt lat="42.483041966333985" lon="-5.451483959332109">
        <ele>786.89999999999998</ele>
        <time>2018-05-23T12:16:53Z</time>
      </trkpt>
      <trkpt lat="42.483065016567707" lon="-5.451449006795883">
        <ele>786.89999999999998</ele>
        <time>2018-05-23T12:16:54Z</time>
      </trkpt>
      <trkpt lat="42.483663987368345" lon="-5.44987203553319">
        <ele>785.10000000000002</ele>
        <time>2018-05-23T12:17:33Z</time>
      </trkpt>
      <trkpt lat="42.485586041584611" lon="-5.444681039080024">
        <ele>788</ele>
        <time>2018-05-23T12:19:40Z</time>
      </trkpt>
      <trkpt lat="42.486047968268394" lon="-5.443485025316477">
        <ele>788.10000000000002</ele>
        <time>2018-05-23T12:20:09Z</time>
      </trkpt>
      <trkpt lat="42.486000023782253" lon="-5.442824028432369">
        <ele>788.70000000000005</ele>
        <time>2018-05-23T12:20:24Z</time>
      </trkpt>
      <trkpt lat="42.486438984051347" lon="-5.440136035904288">
        <ele>788.5</ele>
        <time>2018-05-23T12:21:24Z</time>
      </trkpt>
      <trkpt lat="42.487071985378861" lon="-5.439204974099994">
        <ele>789</ele>
        <time>2018-05-23T12:21:52Z</time>
      </trkpt>
      <trkpt lat="42.487301984801888" lon="-5.438525034114718">
        <ele>789.5</ele>
        <time>2018-05-23T12:22:08Z</time>
      </trkpt>
      <trkpt lat="42.487323023378849" lon="-5.438459990546107">
        <ele>789.60000000000002</ele>
        <time>2018-05-23T12:22:10Z</time>
      </trkpt>
      <trkpt lat="42.487976979464293" lon="-5.434943027794361">
        <ele>790.60000000000002</ele>
        <time>2018-05-23T12:23:29Z</time>
      </trkpt>
      <trkpt lat="42.488491041585803" lon="-5.432226033881307">
        <ele>791.79999999999995</ele>
        <time>2018-05-23T12:24:30Z</time>
      </trkpt>
      <trkpt lat="42.488565975800157" lon="-5.432058982551098">
        <ele>792</ele>
        <time>2018-05-23T12:24:35Z</time>
      </trkpt>
      <trkpt lat="42.489138040691614" lon="-5.430333986878395">
        <ele>793</ele>
        <time>2018-05-23T12:25:16Z</time>
      </trkpt>
      <trkpt lat="42.488726992160082" lon="-5.429265964776278">
        <ele>792.60000000000002</ele>
        <time>2018-05-23T12:25:42Z</time>
      </trkpt>
      <trkpt lat="42.487705992534757" lon="-5.427320022135973">
        <ele>793.10000000000002</ele>
        <time>2018-05-23T12:26:34Z</time>
      </trkpt>
      <trkpt lat="42.48724197037518" lon="-5.426271026954055">
        <ele>794.79999999999995</ele>
        <time>2018-05-23T12:27:01Z</time>
      </trkpt>
      <trkpt lat="42.486675018444657" lon="-5.425286991521716">
        <ele>794.10000000000002</ele>
        <time>2018-05-23T12:27:28Z</time>
      </trkpt>
      <trkpt lat="42.48670200817287" lon="-5.424432037398219">
        <ele>794.60000000000002</ele>
        <time>2018-05-23T12:27:47Z</time>
      </trkpt>
      <trkpt lat="42.486979030072689" lon="-5.4239840246737">
        <ele>794.79999999999995</ele>
        <time>2018-05-23T12:28:00Z</time>
      </trkpt>
      <trkpt lat="42.487081959843636" lon="-5.423886040225625">
        <ele>794.79999999999995</ele>
        <time>2018-05-23T12:28:04Z</time>
      </trkpt>
      <trkpt lat="42.488355003297329" lon="-5.422306973487139">
        <ele>794.29999999999995</ele>
        <time>2018-05-23T12:28:55Z</time>
      </trkpt>
      <trkpt lat="42.488388027995825" lon="-5.422250982373953">
        <ele>794.29999999999995</ele>
        <time>2018-05-23T12:28:56Z</time>
      </trkpt>
      <trkpt lat="42.488436978310347" lon="-5.422187028452754">
        <ele>794.29999999999995</ele>
        <time>2018-05-23T12:28:58Z</time>
      </trkpt>
      <trkpt lat="42.488599000498652" lon="-5.421902965754271">
        <ele>794.5</ele>
        <time>2018-05-23T12:29:06Z</time>
      </trkpt>
      <trkpt lat="42.489149020984769" lon="-5.421465011313558">
        <ele>794.89999999999998</ele>
        <time>2018-05-23T12:29:25Z</time>
      </trkpt>
      <trkpt lat="42.490286026149988" lon="-5.419371966272593">
        <ele>795</ele>
        <time>2018-05-23T12:30:22Z</time>
      </trkpt>
      <trkpt lat="42.490820037201047" lon="-5.41837602853775">
        <ele>795.29999999999995</ele>
        <time>2018-05-23T12:30:49Z</time>
      </trkpt>
      <trkpt lat="42.491424037143588" lon="-5.417770016938448">
        <ele>795.20000000000005</ele>
        <time>2018-05-23T12:31:11Z</time>
      </trkpt>
      <trkpt lat="42.491444991901517" lon="-5.417702961713076">
        <ele>795.20000000000005</ele>
        <time>2018-05-23T12:31:13Z</time>
      </trkpt>
      <trkpt lat="42.491507017984986" lon="-5.417658034712076">
        <ele>795.29999999999995</ele>
        <time>2018-05-23T12:31:15Z</time>
      </trkpt>
      <trkpt lat="42.492406982928514" lon="-5.417137015610933">
        <ele>796</ele>
        <time>2018-05-23T12:31:44Z</time>
      </trkpt>
      <trkpt lat="42.493571983650327" lon="-5.416908022016287">
        <ele>795.39999999999998</ele>
        <time>2018-05-23T12:32:19Z</time>
      </trkpt>
      <trkpt lat="42.495295973494649" lon="-5.416200002655387">
        <ele>794.20000000000005</ele>
        <time>2018-05-23T12:33:12Z</time>
      </trkpt>
      <trkpt lat="42.496175989508629" lon="-5.41599003598094">
        <ele>796.10000000000002</ele>
        <time>2018-05-23T12:33:39Z</time>
      </trkpt>
      <trkpt lat="42.497096993029118" lon="-5.415385030210018">
        <ele>797.10000000000002</ele>
        <time>2018-05-23T12:34:09Z</time>
      </trkpt>
      <trkpt lat="42.497547017410398" lon="-5.415637996047735">
        <ele>797.60000000000002</ele>
        <time>2018-05-23T12:34:23Z</time>
      </trkpt>
      <trkpt lat="42.497735023498535" lon="-5.415080012753606">
        <ele>797.89999999999998</ele>
        <time>2018-05-24T06:00:00Z</time>
      </trkpt>
      <trkpt lat="42.497412990778685" lon="-5.413920963183045">
        <ele>797.70000000000005</ele>
        <time>2018-05-24T06:00:27Z</time>
      </trkpt>
      <trkpt lat="42.497113002464175" lon="-5.413256026804447">
        <ele>798</ele>
        <time>2018-05-24T06:00:44Z</time>
      </trkpt>
      <trkpt lat="42.496555019170046" lon="-5.411924980580807">
        <ele>798.39999999999998</ele>
        <time>2018-05-24T06:01:17Z</time>
      </trkpt>
      <trkpt lat="42.496126033365726" lon="-5.410830974578857">
        <ele>798.20000000000005</ele>
        <time>2018-05-24T06:01:44Z</time>
      </trkpt>
      <trkpt lat="42.495567966252565" lon="-5.409415019676089">
        <ele>799</ele>
        <time>2018-05-24T06:02:19Z</time>
      </trkpt>
      <trkpt lat="42.495309971272945" lon="-5.408791992813349">
        <ele>799.10000000000002</ele>
        <time>2018-05-24T06:02:35Z</time>
      </trkpt>
      <trkpt lat="42.495138980448246" lon="-5.408470965921879">
        <ele>799.29999999999995</ele>
        <time>2018-05-24T06:02:44Z</time>
      </trkpt>
      <trkpt lat="42.494903029873967" lon="-5.40827801451087">
        <ele>799.60000000000002</ele>
        <time>2018-05-24T06:02:52Z</time>
      </trkpt>
      <trkpt lat="42.494623996317387" lon="-5.40810601785779">
        <ele>800</ele>
        <time>2018-05-24T06:03:01Z</time>
      </trkpt>
      <trkpt lat="42.494537997990847" lon="-5.408040974289179">
        <ele>800</ele>
        <time>2018-05-24T06:03:04Z</time>
      </trkpt>
      <trkpt lat="42.494430961087346" lon="-5.40793402120471">
        <ele>800.20000000000005</ele>
        <time>2018-05-24T06:03:08Z</time>
      </trkpt>
      <trkpt lat="42.494387961924076" lon="-5.40789102204144">
        <ele>800.29999999999995</ele>
        <time>2018-05-24T06:03:09Z</time>
      </trkpt>
      <trkpt lat="42.494366001337767" lon="-5.407548034563661">
        <ele>800.5</ele>
        <time>2018-05-24T06:03:17Z</time>
      </trkpt>
      <trkpt lat="42.494344962760806" lon="-5.40718300268054">
        <ele>800.70000000000005</ele>
        <time>2018-05-24T06:03:25Z</time>
      </trkpt>
      <trkpt lat="42.494323002174497" lon="-5.406969012692571">
        <ele>800.70000000000005</ele>
        <time>2018-05-24T06:03:29Z</time>
      </trkpt>
      <trkpt lat="42.494280003011227" lon="-5.40686096996069">
        <ele>800.60000000000002</ele>
        <time>2018-05-24T06:03:32Z</time>
      </trkpt>
      <trkpt lat="42.494109012186527" lon="-5.406325031071901">
        <ele>800.39999999999998</ele>
        <time>2018-05-24T06:03:45Z</time>
      </trkpt>
      <trkpt lat="42.494066013023257" lon="-5.406217994168401">
        <ele>800.29999999999995</ele>
        <time>2018-05-24T06:03:48Z</time>
      </trkpt>
      <trkpt lat="42.494023013859987" lon="-5.406088996678591">
        <ele>799.89999999999998</ele>
        <time>2018-05-24T06:03:51Z</time>
      </trkpt>
      <trkpt lat="42.493957970291376" lon="-5.405917000025511">
        <ele>799.5</ele>
        <time>2018-05-24T06:03:55Z</time>
      </trkpt>
      <trkpt lat="42.493937015533447" lon="-5.40585296228528">
        <ele>799.29999999999995</ele>
        <time>2018-05-24T06:03:56Z</time>
      </trkpt>
      <trkpt lat="42.493915976956487" lon="-5.405788002535701">
        <ele>799.10000000000002</ele>
        <time>2018-05-24T06:03:58Z</time>
      </trkpt>
      <trkpt lat="42.493894016370177" lon="-5.40572396479547">
        <ele>798.89999999999998</ele>
        <time>2018-05-24T06:04:00Z</time>
      </trkpt>
      <trkpt lat="42.493786979466677" lon="-5.405488014221191">
        <ele>798.20000000000005</ele>
        <time>2018-05-24T06:04:06Z</time>
      </trkpt>
      <trkpt lat="42.493594028055668" lon="-5.405165981501341">
        <ele>798</ele>
        <time>2018-05-24T06:04:15Z</time>
      </trkpt>
      <trkpt lat="42.493228996172547" lon="-5.404351009055972">
        <ele>798.29999999999995</ele>
        <time>2018-05-24T06:04:36Z</time>
      </trkpt>
      <trkpt lat="42.493207035586238" lon="-5.404308009892702">
        <ele>798.29999999999995</ele>
        <time>2018-05-24T06:04:37Z</time>
      </trkpt>
      <trkpt lat="42.493121959269047" lon="-5.404093014076352">
        <ele>798.60000000000002</ele>
        <time>2018-05-24T06:04:42Z</time>
      </trkpt>
      <trkpt lat="42.492843009531498" lon="-5.403427993878722">
        <ele>799</ele>
        <time>2018-05-24T06:04:59Z</time>
      </trkpt>
      <trkpt lat="42.492391979321837" lon="-5.402355026453733">
        <ele>799.60000000000002</ele>
        <time>2018-05-24T06:05:26Z</time>
      </trkpt>
      <trkpt lat="42.492242027074099" lon="-5.402032993733883">
        <ele>799.79999999999995</ele>
        <time>2018-05-24T06:05:34Z</time>
      </trkpt>
      <trkpt lat="42.492134990170598" lon="-5.401776004582644">
        <ele>800</ele>
        <time>2018-05-24T06:05:41Z</time>
      </trkpt>
      <trkpt lat="42.491704998537898" lon="-5.400723991915584">
        <ele>800.20000000000005</ele>
        <time>2018-05-24T06:06:07Z</time>
      </trkpt>
      <trkpt lat="42.491554962471128" lon="-5.400359965860844">
        <ele>800.29999999999995</ele>
        <time>2018-05-24T06:06:16Z</time>
      </trkpt>
      <trkpt lat="42.491362011060119" lon="-5.399909019470215">
        <ele>800.10000000000002</ele>
        <time>2018-05-24T06:06:27Z</time>
      </trkpt>
      <trkpt lat="42.490933025255799" lon="-5.398901011794806">
        <ele>801.29999999999995</ele>
        <time>2018-05-24T06:06:53Z</time>
      </trkpt>
      <trkpt lat="42.490761028602719" lon="-5.398514019325376">
        <ele>801.39999999999998</ele>
        <time>2018-05-24T06:07:03Z</time>
      </trkpt>
      <trkpt lat="42.49054703861475" lon="-5.397977996617556">
        <ele>801.20000000000005</ele>
        <time>2018-05-24T06:07:16Z</time>
      </trkpt>
      <trkpt lat="42.490202961489558" lon="-5.397205017507076">
        <ele>800.70000000000005</ele>
        <time>2018-05-24T06:07:36Z</time>
      </trkpt>
      <trkpt lat="42.489924011752009" lon="-5.396518958732486">
        <ele>800.5</ele>
        <time>2018-05-24T06:07:53Z</time>
      </trkpt>
      <trkpt lat="42.489344989880919" lon="-5.395144997164607">
        <ele>801</ele>
        <time>2018-05-24T06:08:27Z</time>
      </trkpt>
      <trkpt lat="42.488980041816831" lon="-5.394265986979008">
        <ele>800.70000000000005</ele>
        <time>2018-05-24T06:08:49Z</time>
      </trkpt>
      <trkpt lat="42.4889160040766" lon="-5.394093990325928">
        <ele>800.5</ele>
        <time>2018-05-24T06:08:54Z</time>
      </trkpt>
      <trkpt lat="42.48887300491333" lon="-5.393987037241459">
        <ele>800.39999999999998</ele>
        <time>2018-05-24T06:08:56Z</time>
      </trkpt>
      <trkpt lat="42.48859397135675" lon="-5.393342971801758">
        <ele>800</ele>
        <time>2018-05-24T06:09:13Z</time>
      </trkpt>
      <trkpt lat="42.4882079847157" lon="-5.39242004044354">
        <ele>800</ele>
        <time>2018-05-24T06:09:36Z</time>
      </trkpt>
      <trkpt lat="42.487650001421571" lon="-5.39113299921155">
        <ele>800.79999999999995</ele>
        <time>2018-05-24T06:10:09Z</time>
      </trkpt>
      <trkpt lat="42.487178016453981" lon="-5.390060031786561">
        <ele>799.39999999999998</ele>
        <time>2018-05-24T06:10:36Z</time>
      </trkpt>
      <trkpt lat="42.486577033996582" lon="-5.388665031641722">
        <ele>799.60000000000002</ele>
        <time>2018-05-24T06:11:11Z</time>
      </trkpt>
      <trkpt lat="42.485975967720151" lon="-5.387248992919922">
        <ele>800.29999999999995</ele>
        <time>2018-05-24T06:11:47Z</time>
      </trkpt>
      <trkpt lat="42.485440028831363" lon="-5.385982990264893">
        <ele>800</ele>
        <time>2018-05-24T06:12:19Z</time>
      </trkpt>
      <trkpt lat="42.485010959208012" lon="-5.384544990956783">
        <ele>800.10000000000002</ele>
        <time>2018-05-24T06:12:53Z</time>
      </trkpt>
      <trkpt lat="42.484495975077152" lon="-5.382914962247014">
        <ele>802.89999999999998</ele>
        <time>2018-05-24T06:13:31Z</time>
      </trkpt>
      <trkpt lat="42.484023990109563" lon="-5.381327010691166">
        <ele>803.89999999999998</ele>
        <time>2018-05-24T06:14:09Z</time>
      </trkpt>
      <trkpt lat="42.483593998476863" lon="-5.379932010546327">
        <ele>805.10000000000002</ele>
        <time>2018-05-24T06:14:42Z</time>
      </trkpt>
      <trkpt lat="42.483466006815434" lon="-5.379546023905277">
        <ele>805.39999999999998</ele>
        <time>2018-05-24T06:14:51Z</time>
      </trkpt>
      <trkpt lat="42.483014976605773" lon="-5.378065025433898">
        <ele>805.10000000000002</ele>
        <time>2018-05-24T06:15:26Z</time>
      </trkpt>
      <trkpt lat="42.482693027704954" lon="-5.377014018595219">
        <ele>805.79999999999995</ele>
        <time>2018-05-24T06:15:51Z</time>
      </trkpt>
      <trkpt lat="42.482327995821834" lon="-5.375834014266729">
        <ele>805.79999999999995</ele>
        <time>2018-05-24T06:16:19Z</time>
      </trkpt>
      <trkpt lat="42.482028007507324" lon="-5.37482500076294">
        <ele>806</ele>
        <time>2018-05-24T06:16:43Z</time>
      </trkpt>
      <trkpt lat="42.481705974787474" lon="-5.373795032501221">
        <ele>806.10000000000002</ele>
        <time>2018-05-24T06:17:07Z</time>
      </trkpt>
      <trkpt lat="42.481405986472964" lon="-5.372787024825811">
        <ele>805.29999999999995</ele>
        <time>2018-05-24T06:17:31Z</time>
      </trkpt>
      <trkpt lat="42.481041038408875" lon="-5.371649013832212">
        <ele>806.29999999999995</ele>
        <time>2018-05-24T06:17:58Z</time>
      </trkpt>
      <trkpt lat="42.480998039245605" lon="-5.371478023007512">
        <ele>806.29999999999995</ele>
        <time>2018-05-24T06:18:02Z</time>
      </trkpt>
      <trkpt lat="42.480955040082335" lon="-5.371326981112361">
        <ele>806.39999999999998</ele>
        <time>2018-05-24T06:18:06Z</time>
      </trkpt>
      <trkpt lat="42.480762004852295" lon="-5.370747959241271">
        <ele>807.20000000000005</ele>
        <time>2018-05-24T06:18:20Z</time>
      </trkpt>
      <trkpt lat="42.480419017374516" lon="-5.369568038731813">
        <ele>808</ele>
        <time>2018-05-24T06:18:47Z</time>
      </trkpt>
      <trkpt lat="42.480010986328125" lon="-5.368236992508173">
        <ele>808.60000000000002</ele>
        <time>2018-05-24T06:19:19Z</time>
      </trkpt>
      <trkpt lat="42.479646038264036" lon="-5.367056988179684">
        <ele>810</ele>
        <time>2018-05-24T06:19:47Z</time>
      </trkpt>
      <trkpt lat="42.479281006380916" lon="-5.366048980504274">
        <ele>811.70000000000005</ele>
        <time>2018-05-24T06:20:11Z</time>
      </trkpt>
      <trkpt lat="42.479153014719486" lon="-5.365533996373415">
        <ele>812.79999999999995</ele>
        <time>2018-05-24T06:20:23Z</time>
      </trkpt>
      <trkpt lat="42.478787982836366" lon="-5.364633025601506">
        <ele>814.79999999999995</ele>
        <time>2018-05-24T06:20:46Z</time>
      </trkpt>
      <trkpt lat="42.478615986183286" lon="-5.364246033132076">
        <ele>814.79999999999995</ele>
        <time>2018-05-24T06:20:56Z</time>
      </trkpt>
      <trkpt lat="42.478529987856746" lon="-5.364118041470647">
        <ele>814.70000000000005</ele>
        <time>2018-05-24T06:20:59Z</time>
      </trkpt>
      <trkpt lat="42.478187000378966" lon="-5.363324023783207">
        <ele>815</ele>
        <time>2018-05-24T06:21:20Z</time>
      </trkpt>
      <trkpt lat="42.477715015411377" lon="-5.362379970028997">
        <ele>816.20000000000005</ele>
        <time>2018-05-24T06:21:44Z</time>
      </trkpt>
      <trkpt lat="42.477200031280518" lon="-5.361264003440738">
        <ele>816.89999999999998</ele>
        <time>2018-05-24T06:22:13Z</time>
      </trkpt>
      <trkpt lat="42.476707007735968" lon="-5.360234035179019">
        <ele>816.10000000000002</ele>
        <time>2018-05-24T06:22:40Z</time>
      </trkpt>
      <trkpt lat="42.476449012756348" lon="-5.359654007479549">
        <ele>816.70000000000005</ele>
        <time>2018-05-24T06:22:55Z</time>
      </trkpt>
      <trkpt lat="42.475934028625488" lon="-5.358603000640869">
        <ele>816.20000000000005</ele>
        <time>2018-05-24T06:23:23Z</time>
      </trkpt>
      <trkpt lat="42.475826991721988" lon="-5.35826001316309">
        <ele>816</ele>
        <time>2018-05-24T06:23:31Z</time>
      </trkpt>
      <trkpt lat="42.475783992558718" lon="-5.35817401483655">
        <ele>815.89999999999998</ele>
        <time>2018-05-24T06:23:33Z</time>
      </trkpt>
      <trkpt lat="42.475719032809138" lon="-5.35774502903223">
        <ele>815.89999999999998</ele>
        <time>2018-05-24T06:23:43Z</time>
      </trkpt>
      <trkpt lat="42.475654995068908" lon="-5.35733699798584">
        <ele>816.10000000000002</ele>
        <time>2018-05-24T06:23:52Z</time>
      </trkpt>
      <trkpt lat="42.475504959002137" lon="-5.356565024703741">
        <ele>816.70000000000005</ele>
        <time>2018-05-24T06:24:09Z</time>
      </trkpt>
      <trkpt lat="42.475482998415828" lon="-5.35641398280859">
        <ele>816.79999999999995</ele>
        <time>2018-05-24T06:24:12Z</time>
      </trkpt>
      <trkpt lat="42.475525997579098" lon="-5.356285991147161">
        <ele>817</ele>
        <time>2018-05-24T06:24:16Z</time>
      </trkpt>
      <trkpt lat="42.475547958165407" lon="-5.356199992820621">
        <ele>817.20000000000005</ele>
        <time>2018-05-24T06:24:18Z</time>
      </trkpt>
      <trkpt lat="42.475568996742368" lon="-5.356027996167541">
        <ele>817.70000000000005</ele>
        <time>2018-05-24T06:24:21Z</time>
      </trkpt>
      <trkpt lat="42.475525997579098" lon="-5.35579196177423">
        <ele>818.5</ele>
        <time>2018-05-24T06:24:27Z</time>
      </trkpt>
      <trkpt lat="42.475441005080938" lon="-5.355685008689761">
        <ele>819</ele>
        <time>2018-05-24T06:24:30Z</time>
      </trkpt>
      <trkpt lat="42.475312007591128" lon="-5.355534972622991">
        <ele>819.60000000000002</ele>
        <time>2018-05-24T06:24:35Z</time>
      </trkpt>
      <trkpt lat="42.475269008427858" lon="-5.355513012036681">
        <ele>819.70000000000005</ele>
        <time>2018-05-24T06:24:37Z</time>
      </trkpt>
      <trkpt lat="42.475203964859247" lon="-5.355448974296451">
        <ele>819.89999999999998</ele>
        <time>2018-05-24T06:24:39Z</time>
      </trkpt>
      <trkpt lat="42.474946975708008" lon="-5.354955028742552">
        <ele>820.60000000000002</ele>
        <time>2018-05-24T06:24:52Z</time>
      </trkpt>
      <trkpt lat="42.474926020950079" lon="-5.354869030416012">
        <ele>820.70000000000005</ele>
        <time>2018-05-24T06:24:54Z</time>
      </trkpt>
      <trkpt lat="42.474903976544738" lon="-5.354804992675781">
        <ele>820.70000000000005</ele>
        <time>2018-05-24T06:24:56Z</time>
      </trkpt>
      <trkpt lat="42.474989974871278" lon="-5.354612041264772">
        <ele>821</ele>
        <time>2018-05-24T06:25:01Z</time>
      </trkpt>
      <trkpt lat="42.475075973197818" lon="-5.354568958282471">
        <ele>821</ele>
        <time>2018-05-24T06:25:03Z</time>
      </trkpt>
      <trkpt lat="42.475140010938048" lon="-5.354525959119201">
        <ele>821.10000000000002</ele>
        <time>2018-05-24T06:25:05Z</time>
      </trkpt>
      <trkpt lat="42.475203964859247" lon="-5.354482959955931">
        <ele>821.20000000000005</ele>
        <time>2018-05-24T06:25:08Z</time>
      </trkpt>
      <trkpt lat="42.475183010101318" lon="-5.354225970804691">
        <ele>821.5</ele>
        <time>2018-05-24T06:25:13Z</time>
      </trkpt>
      <trkpt lat="42.475097011774778" lon="-5.353881977498531">
        <ele>822.20000000000005</ele>
        <time>2018-05-24T06:25:21Z</time>
      </trkpt>
      <trkpt lat="42.475075973197818" lon="-5.353838978335261">
        <ele>822.29999999999995</ele>
        <time>2018-05-24T06:25:22Z</time>
      </trkpt>
      <trkpt lat="42.474946975708008" lon="-5.353753985837102">
        <ele>822.60000000000002</ele>
        <time>2018-05-24T06:25:27Z</time>
      </trkpt>
      <trkpt lat="42.474883021786809" lon="-5.353753985837102">
        <ele>822.60000000000002</ele>
        <time>2018-05-24T06:25:28Z</time>
      </trkpt>
      <trkpt lat="42.474731979891658" lon="-5.353795979171991">
        <ele>822.70000000000005</ele>
        <time>2018-05-24T06:25:33Z</time>
      </trkpt>
      <trkpt lat="42.474711025133729" lon="-5.353795979171991">
        <ele>822.70000000000005</ele>
        <time>2018-05-24T06:25:34Z</time>
      </trkpt>
      <trkpt lat="42.474688980728388" lon="-5.353795979171991">
        <ele>822.79999999999995</ele>
        <time>2018-05-24T06:25:34Z</time>
      </trkpt>
      <trkpt lat="42.474711025133729" lon="-5.353795979171991">
        <ele>822.70000000000005</ele>
        <time>2018-05-24T06:25:35Z</time>
      </trkpt>
      <trkpt lat="42.474688980728388" lon="-5.353818023577333">
        <ele>822.70000000000005</ele>
        <time>2018-05-24T06:25:36Z</time>
      </trkpt>
      <trkpt lat="42.474625026807189" lon="-5.353795979171991">
        <ele>822.79999999999995</ele>
        <time>2018-05-24T06:25:38Z</time>
      </trkpt>
      <trkpt lat="42.474453030154109" lon="-5.353538990020752">
        <ele>824.10000000000002</ele>
        <time>2018-05-24T06:25:45Z</time>
      </trkpt>
      <trkpt lat="42.474388992413878" lon="-5.353452991694212">
        <ele>824.60000000000002</ele>
        <time>2018-05-24T06:25:48Z</time>
      </trkpt>
      <trkpt lat="42.47436803765595" lon="-5.353409992530942">
        <ele>824.79999999999995</ele>
        <time>2018-05-24T06:25:49Z</time>
      </trkpt>
      <trkpt lat="42.474345993250608" lon="-5.353389037773013">
        <ele>825</ele>
        <time>2018-05-24T06:25:50Z</time>
      </trkpt>
      <trkpt lat="42.473852969706059" lon="-5.353475036099553">
        <ele>826</ele>
        <time>2018-05-24T06:26:05Z</time>
      </trkpt>
      <trkpt lat="42.473637973889709" lon="-5.353475036099553">
        <ele>826.39999999999998</ele>
        <time>2018-05-24T06:26:11Z</time>
      </trkpt>
      <trkpt lat="42.473380984738469" lon="-5.353303039446473">
        <ele>827.29999999999995</ele>
        <time>2018-05-24T06:26:19Z</time>
      </trkpt>
      <trkpt lat="42.472907993942499" lon="-5.352895008400083">
        <ele>829.10000000000002</ele>
        <time>2018-05-24T06:26:36Z</time>
      </trkpt>
      <trkpt lat="42.4727370031178" lon="-5.352787971496582">
        <ele>829</ele>
        <time>2018-05-24T06:26:42Z</time>
      </trkpt>
      <trkpt lat="42.47265100479126" lon="-5.352701973170042">
        <ele>829.10000000000002</ele>
        <time>2018-05-24T06:26:45Z</time>
      </trkpt>
      <trkpt lat="42.47260800562799" lon="-5.352658974006772">
        <ele>829.20000000000005</ele>
        <time>2018-05-24T06:26:46Z</time>
      </trkpt>
      <trkpt lat="42.47256500646472" lon="-5.352638019248843">
        <ele>829.20000000000005</ele>
        <time>2018-05-24T06:26:48Z</time>
      </trkpt>
      <trkpt lat="42.47235101647675" lon="-5.352358985692263">
        <ele>829.60000000000002</ele>
        <time>2018-05-24T06:26:57Z</time>
      </trkpt>
      <trkpt lat="42.47222201898694" lon="-5.352166034281254">
        <ele>830</ele>
        <time>2018-05-24T06:27:02Z</time>
      </trkpt>
      <trkpt lat="42.4721360206604" lon="-5.351994037628174">
        <ele>830.20000000000005</ele>
        <time>2018-05-24T06:27:07Z</time>
      </trkpt>
      <trkpt lat="42.47209302149713" lon="-5.351822040975094">
        <ele>830.29999999999995</ele>
        <time>2018-05-24T06:27:11Z</time>
      </trkpt>
      <trkpt lat="42.47198598459363" lon="-5.351458014920354">
        <ele>831.79999999999995</ele>
        <time>2018-05-24T06:27:19Z</time>
      </trkpt>
      <trkpt lat="42.471707034856081" lon="-5.350341964513063">
        <ele>837.20000000000005</ele>
        <time>2018-05-24T06:27:45Z</time>
      </trkpt>
      <trkpt lat="42.471535038203001" lon="-5.349891018122435">
        <ele>839.79999999999995</ele>
        <time>2018-05-24T06:27:56Z</time>
      </trkpt>
      <trkpt lat="42.47151399962604" lon="-5.349805019795895">
        <ele>840.10000000000002</ele>
        <time>2018-05-24T06:27:58Z</time>
      </trkpt>
      <trkpt lat="42.471320964396" lon="-5.349333034828305">
        <ele>842.70000000000005</ele>
        <time>2018-05-24T06:28:10Z</time>
      </trkpt>
      <trkpt lat="42.471042014658451" lon="-5.348646976053715">
        <ele>845.10000000000002</ele>
        <time>2018-05-24T06:28:27Z</time>
      </trkpt>
      <trkpt lat="42.470999015495181" lon="-5.348560977727175">
        <ele>845.39999999999998</ele>
        <time>2018-05-24T06:28:30Z</time>
      </trkpt>
      <trkpt lat="42.470762981101871" lon="-5.347916996106505">
        <ele>846.79999999999995</ele>
        <time>2018-05-24T06:28:45Z</time>
      </trkpt>
      <trkpt lat="42.470698021352291" lon="-5.347766960039735">
        <ele>847.10000000000002</ele>
        <time>2018-05-24T06:28:49Z</time>
      </trkpt>
      <trkpt lat="42.470613028854132" lon="-5.346478996798396">
        <ele>849</ele>
        <time>2018-05-24T06:29:17Z</time>
      </trkpt>
      <trkpt lat="42.470655022189021" lon="-5.345449028536677">
        <ele>849.70000000000005</ele>
        <time>2018-05-24T06:29:40Z</time>
      </trkpt>
      <trkpt lat="42.470741020515561" lon="-5.344075988978148">
        <ele>849.20000000000005</ele>
        <time>2018-05-24T06:30:10Z</time>
      </trkpt>
      <trkpt lat="42.470698021352291" lon="-5.342381000518799">
        <ele>849</ele>
        <time>2018-05-24T06:30:47Z</time>
      </trkpt>
      <trkpt lat="42.470613028854132" lon="-5.34122203476727">
        <ele>849</ele>
        <time>2018-05-24T06:31:13Z</time>
      </trkpt>
      <trkpt lat="42.470504986122251" lon="-5.340300025418401">
        <ele>847.60000000000002</ele>
        <time>2018-05-24T06:31:33Z</time>
      </trkpt>
      <trkpt lat="42.470461986958981" lon="-5.34014898352325">
        <ele>846.79999999999995</ele>
        <time>2018-05-24T06:31:37Z</time>
      </trkpt>
      <trkpt lat="42.470375988632441" lon="-5.33984899520874">
        <ele>845.10000000000002</ele>
        <time>2018-05-24T06:31:44Z</time>
      </trkpt>
      <trkpt lat="42.470247996971011" lon="-5.3396559599787">
        <ele>843.70000000000005</ele>
        <time>2018-05-24T06:31:49Z</time>
      </trkpt>
      <trkpt lat="42.470204997807741" lon="-5.339592006057501">
        <ele>843.29999999999995</ele>
        <time>2018-05-24T06:31:51Z</time>
      </trkpt>
      <trkpt lat="42.470054961740971" lon="-5.339377010241151">
        <ele>842.60000000000002</ele>
        <time>2018-05-24T06:31:58Z</time>
      </trkpt>
      <trkpt lat="42.469839965924621" lon="-5.33918397501111">
        <ele>841.79999999999995</ele>
        <time>2018-05-24T06:32:05Z</time>
      </trkpt>
      <trkpt lat="42.469819011166692" lon="-5.339162014424801">
        <ele>841.70000000000005</ele>
        <time>2018-05-24T06:32:06Z</time>
      </trkpt>
      <trkpt lat="42.469776012003422" lon="-5.3390549775213">
        <ele>841.5</ele>
        <time>2018-05-24T06:32:09Z</time>
      </trkpt>
      <trkpt lat="42.469475017860532" lon="-5.338797988370061">
        <ele>840.29999999999995</ele>
        <time>2018-05-24T06:32:19Z</time>
      </trkpt>
      <trkpt lat="42.468788959085941" lon="-5.338154006749392">
        <ele>837.60000000000002</ele>
        <time>2018-05-24T06:32:44Z</time>
      </trkpt>
      <trkpt lat="42.468681000173092" lon="-5.338046969845891">
        <ele>837.39999999999998</ele>
        <time>2018-05-24T06:32:48Z</time>
      </trkpt>
      <trkpt lat="42.468596007674932" lon="-5.337896011769772">
        <ele>837.29999999999995</ele>
        <time>2018-05-24T06:32:52Z</time>
      </trkpt>
      <trkpt lat="42.468467010185122" lon="-5.337573979049921">
        <ele>836.79999999999995</ele>
        <time>2018-05-24T06:33:00Z</time>
      </trkpt>
      <trkpt lat="42.468338012695313" lon="-5.336737968027592">
        <ele>836.29999999999995</ele>
        <time>2018-05-24T06:33:19Z</time>
      </trkpt>
      <trkpt lat="42.468295013532043" lon="-5.331674041226506">
        <ele>836.29999999999995</ele>
        <time>2018-05-24T06:35:10Z</time>
      </trkpt>
      <trkpt lat="42.468252014368773" lon="-5.331438006833196">
        <ele>836.5</ele>
        <time>2018-05-24T06:35:15Z</time>
      </trkpt>
      <trkpt lat="42.468101978302002" lon="-5.330837024375796">
        <ele>838.5</ele>
        <time>2018-05-24T06:35:29Z</time>
      </trkpt>
      <trkpt lat="42.467886982485652" lon="-5.329935969784856">
        <ele>842.89999999999998</ele>
        <time>2018-05-24T06:35:50Z</time>
      </trkpt>
      <trkpt lat="42.467629993334413" lon="-5.328863002359867">
        <ele>847.39999999999998</ele>
        <time>2018-05-24T06:36:14Z</time>
      </trkpt>
      <trkpt lat="42.467500995844603" lon="-5.328325973823667">
        <ele>848.5</ele>
        <time>2018-05-24T06:36:27Z</time>
      </trkpt>
      <trkpt lat="42.467244006693363" lon="-5.327403964474797">
        <ele>849.60000000000002</ele>
        <time>2018-05-24T06:36:48Z</time>
      </trkpt>
      <trkpt lat="42.466835975646973" lon="-5.326073002070189">
        <ele>849.5</ele>
        <time>2018-05-24T06:37:20Z</time>
      </trkpt>
      <trkpt lat="42.466620979830623" lon="-5.32538702711463">
        <ele>849.60000000000002</ele>
        <time>2018-05-24T06:37:36Z</time>
      </trkpt>
      <trkpt lat="42.466471027582884" lon="-5.324398968368769">
        <ele>850</ele>
        <time>2018-05-24T06:37:58Z</time>
      </trkpt>
      <trkpt lat="42.466406989842653" lon="-5.323969982564449">
        <ele>850</ele>
        <time>2018-05-24T06:38:08Z</time>
      </trkpt>
      <trkpt lat="42.466257037594914" lon="-5.322940014302731">
        <ele>850</ele>
        <time>2018-05-24T06:38:31Z</time>
      </trkpt>
      <trkpt lat="42.466085040941834" lon="-5.321846008300781">
        <ele>850.20000000000005</ele>
        <time>2018-05-24T06:38:55Z</time>
      </trkpt>
      <trkpt lat="42.465935004875064" lon="-5.320859039202333">
        <ele>850.39999999999998</ele>
        <time>2018-05-24T06:39:17Z</time>
      </trkpt>
      <trkpt lat="42.465892005711794" lon="-5.320558967068791">
        <ele>850.39999999999998</ele>
        <time>2018-05-24T06:39:24Z</time>
      </trkpt>
      <trkpt lat="42.465869961306453" lon="-5.320429969578981">
        <ele>850.5</ele>
        <time>2018-05-24T06:39:27Z</time>
      </trkpt>
      <trkpt lat="42.465849006548524" lon="-5.320429969578981">
        <ele>850.5</ele>
        <time>2018-05-24T06:39:27Z</time>
      </trkpt>
      <trkpt lat="42.465826962143183" lon="-5.320408008992672">
        <ele>850.5</ele>
        <time>2018-05-24T06:39:28Z</time>
      </trkpt>
      <trkpt lat="42.465784968808293" lon="-5.320408008992672">
        <ele>850.60000000000002</ele>
        <time>2018-05-24T06:39:29Z</time>
      </trkpt>
      <trkpt lat="42.465741969645023" lon="-5.320429969578981">
        <ele>850.60000000000002</ele>
        <time>2018-05-24T06:39:31Z</time>
      </trkpt>
      <trkpt lat="42.465655971318483" lon="-5.320343971252441">
        <ele>850.70000000000005</ele>
        <time>2018-05-24T06:39:34Z</time>
      </trkpt>
      <trkpt lat="42.465634010732174" lon="-5.320171974599361">
        <ele>850.70000000000005</ele>
        <time>2018-05-24T06:39:38Z</time>
      </trkpt>
      <trkpt lat="42.465549018234015" lon="-5.319550037384033">
        <ele>850.79999999999995</ele>
        <time>2018-05-24T06:39:52Z</time>
      </trkpt>
      <trkpt lat="42.465354977175593" lon="-5.318562984466553">
        <ele>851.20000000000005</ele>
        <time>2018-05-24T06:40:14Z</time>
      </trkpt>
      <trkpt lat="42.465311978012323" lon="-5.318413032218814">
        <ele>851.39999999999998</ele>
        <time>2018-05-24T06:40:17Z</time>
      </trkpt>
      <trkpt lat="42.465291023254395" lon="-5.318327033892274">
        <ele>851.39999999999998</ele>
        <time>2018-05-24T06:40:19Z</time>
      </trkpt>
      <trkpt lat="42.465248024091125" lon="-5.318133998662233">
        <ele>851.60000000000002</ele>
        <time>2018-05-24T06:40:24Z</time>
      </trkpt>
      <trkpt lat="42.465205024927855" lon="-5.317833004519343">
        <ele>851.70000000000005</ele>
        <time>2018-05-24T06:40:30Z</time>
      </trkpt>
      <trkpt lat="42.465034034103155" lon="-5.316824996843934">
        <ele>850.89999999999998</ele>
        <time>2018-05-24T06:40:53Z</time>
      </trkpt>
      <trkpt lat="42.465011989697814" lon="-5.316738998517394">
        <ele>850.79999999999995</ele>
        <time>2018-05-24T06:40:55Z</time>
      </trkpt>
      <trkpt lat="42.464948035776615" lon="-5.316525008529425">
        <ele>850.60000000000002</ele>
        <time>2018-05-24T06:41:00Z</time>
      </trkpt>
      <trkpt lat="42.464882992208004" lon="-5.316373966634274">
        <ele>850.39999999999998</ele>
        <time>2018-05-24T06:41:04Z</time>
      </trkpt>
      <trkpt lat="42.464796993881464" lon="-5.315838027745485">
        <ele>850.29999999999995</ele>
        <time>2018-05-24T06:41:16Z</time>
      </trkpt>
      <trkpt lat="42.464669002220035" lon="-5.315279960632324">
        <ele>850.20000000000005</ele>
        <time>2018-05-24T06:41:29Z</time>
      </trkpt>
      <trkpt lat="42.464411007240415" lon="-5.313950004056096">
        <ele>850.79999999999995</ele>
        <time>2018-05-24T06:41:59Z</time>
      </trkpt>
      <trkpt lat="42.464197017252445" lon="-5.312791038304567">
        <ele>850.10000000000002</ele>
        <time>2018-05-24T06:42:25Z</time>
      </trkpt>
      <trkpt lat="42.464088974520564" lon="-5.312232971191406">
        <ele>849.79999999999995</ele>
        <time>2018-05-24T06:42:38Z</time>
      </trkpt>
      <trkpt lat="42.464068019762635" lon="-5.312169017270207">
        <ele>849.79999999999995</ele>
        <time>2018-05-24T06:42:39Z</time>
      </trkpt>
      <trkpt lat="42.463960982859135" lon="-5.311568034812808">
        <ele>850.70000000000005</ele>
        <time>2018-05-24T06:42:53Z</time>
      </trkpt>
      <trkpt lat="42.463530991226435" lon="-5.310001038014889">
        <ele>853</ele>
        <time>2018-05-24T06:43:29Z</time>
      </trkpt>
      <trkpt lat="42.463102005422115" lon="-5.308649959042668">
        <ele>854.5</ele>
        <time>2018-05-24T06:44:01Z</time>
      </trkpt>
      <trkpt lat="42.462908970192075" lon="-5.30807001516223">
        <ele>855.60000000000002</ele>
        <time>2018-05-24T06:44:15Z</time>
      </trkpt>
      <trkpt lat="42.462630020454526" lon="-5.30714800581336">
        <ele>856.20000000000005</ele>
        <time>2018-05-24T06:44:37Z</time>
      </trkpt>
      <trkpt lat="42.462436985224485" lon="-5.30652497895062">
        <ele>857.20000000000005</ele>
        <time>2018-05-24T06:44:52Z</time>
      </trkpt>
      <trkpt lat="42.462264988571405" lon="-5.306032039225102">
        <ele>857.79999999999995</ele>
        <time>2018-05-24T06:45:04Z</time>
      </trkpt>
      <trkpt lat="42.461665011942387" lon="-5.304101016372442">
        <ele>860.60000000000002</ele>
        <time>2018-05-24T06:45:50Z</time>
      </trkpt>
      <trkpt lat="42.461385978385806" lon="-5.303221000358462">
        <ele>861.70000000000005</ele>
        <time>2018-05-24T06:46:11Z</time>
      </trkpt>
      <trkpt lat="42.460892032831907" lon="-5.301697002723813">
        <ele>862.89999999999998</ele>
        <time>2018-05-24T06:46:47Z</time>
      </trkpt>
      <trkpt lat="42.460612999275327" lon="-5.300839031115174">
        <ele>863.79999999999995</ele>
        <time>2018-05-24T06:47:07Z</time>
      </trkpt>
      <trkpt lat="42.460247967392206" lon="-5.299679981544614">
        <ele>862.89999999999998</ele>
        <time>2018-05-24T06:47:35Z</time>
      </trkpt>
      <trkpt lat="42.459927024319768" lon="-5.298564014956355">
        <ele>861.70000000000005</ele>
        <time>2018-05-24T06:48:01Z</time>
      </trkpt>
      <trkpt lat="42.459841025993228" lon="-5.298221027478576">
        <ele>861.39999999999998</ele>
        <time>2018-05-24T06:48:09Z</time>
      </trkpt>
      <trkpt lat="42.459518993273377" lon="-5.297127021476626">
        <ele>860.20000000000005</ele>
        <time>2018-05-24T06:48:35Z</time>
      </trkpt>
      <trkpt lat="42.459176005795598" lon="-5.295947017148137">
        <ele>860.10000000000002</ele>
        <time>2018-05-24T06:49:03Z</time>
      </trkpt>
      <trkpt lat="42.459153961390257" lon="-5.295881973579526">
        <ele>860.10000000000002</ele>
        <time>2018-05-24T06:49:04Z</time>
      </trkpt>
      <trkpt lat="42.458875011652708" lon="-5.294981002807617">
        <ele>859.39999999999998</ele>
        <time>2018-05-24T06:49:26Z</time>
      </trkpt>
      <trkpt lat="42.458832012489438" lon="-5.294787967577577">
        <ele>859.20000000000005</ele>
        <time>2018-05-24T06:49:30Z</time>
      </trkpt>
      <trkpt lat="42.458724975585938" lon="-5.294401980936527">
        <ele>859.20000000000005</ele>
        <time>2018-05-24T06:49:39Z</time>
      </trkpt>
      <trkpt lat="42.458424987271428" lon="-5.293478965759277">
        <ele>860.29999999999995</ele>
        <time>2018-05-24T06:50:01Z</time>
      </trkpt>
      <trkpt lat="42.458252990618348" lon="-5.293049979954958">
        <ele>861.10000000000002</ele>
        <time>2018-05-24T06:50:12Z</time>
      </trkpt>
      <trkpt lat="42.458060039207339" lon="-5.292577994987369">
        <ele>861.60000000000002</ele>
        <time>2018-05-24T06:50:24Z</time>
      </trkpt>
      <trkpt lat="42.457566009834409" lon="-5.291397990658879">
        <ele>862.79999999999995</ele>
        <time>2018-05-24T06:50:53Z</time>
      </trkpt>
      <trkpt lat="42.457029987126589" lon="-5.290153026580811">
        <ele>863</ele>
        <time>2018-05-24T06:51:25Z</time>
      </trkpt>
      <trkpt lat="42.456492958590388" lon="-5.288844024762511">
        <ele>863.29999999999995</ele>
        <time>2018-05-24T06:51:58Z</time>
      </trkpt>
      <trkpt lat="42.455934975296259" lon="-5.287556983530521">
        <ele>862.5</ele>
        <time>2018-05-24T06:52:30Z</time>
      </trkpt>
      <trkpt lat="42.455528033897281" lon="-5.286547970026732">
        <ele>861.29999999999995</ele>
        <time>2018-05-24T06:52:55Z</time>
      </trkpt>
      <trkpt lat="42.455442035570741" lon="-5.286375973373652">
        <ele>861.10000000000002</ele>
        <time>2018-05-24T06:53:00Z</time>
      </trkpt>
      <trkpt lat="42.4552490003407" lon="-5.285903988406062">
        <ele>861.10000000000002</ele>
        <time>2018-05-24T06:53:12Z</time>
      </trkpt>
      <trkpt lat="42.454777015373111" lon="-5.284809982404113">
        <ele>861</ele>
        <time>2018-05-24T06:53:39Z</time>
      </trkpt>
      <trkpt lat="42.4547119718045" lon="-5.284637985751033">
        <ele>861</ele>
        <time>2018-05-24T06:53:44Z</time>
      </trkpt>
      <trkpt lat="42.45419698767364" lon="-5.283437026664615">
        <ele>862.20000000000005</ele>
        <time>2018-05-24T06:54:14Z</time>
      </trkpt>
      <trkpt lat="42.453554011881351" lon="-5.281848991289735">
        <ele>860.89999999999998</ele>
        <time>2018-05-24T06:54:54Z</time>
      </trkpt>
      <trkpt lat="42.452973984181881" lon="-5.280476035550237">
        <ele>860</ele>
        <time>2018-05-24T06:55:28Z</time>
      </trkpt>
      <trkpt lat="42.452759994193912" lon="-5.279982006177306">
        <ele>860.79999999999995</ele>
        <time>2018-05-24T06:55:41Z</time>
      </trkpt>
      <trkpt lat="42.452459000051022" lon="-5.279253032058477">
        <ele>862.79999999999995</ele>
        <time>2018-05-24T06:55:59Z</time>
      </trkpt>
      <trkpt lat="42.451965976506472" lon="-5.278007984161377">
        <ele>865.70000000000005</ele>
        <time>2018-05-24T06:56:30Z</time>
      </trkpt>
      <trkpt lat="42.451472030952573" lon="-5.276806019246578">
        <ele>867</ele>
        <time>2018-05-24T06:57:00Z</time>
      </trkpt>
      <trkpt lat="42.451278995722532" lon="-5.276291035115719">
        <ele>867</ele>
        <time>2018-05-24T06:57:13Z</time>
      </trkpt>
      <trkpt lat="42.451258040964603" lon="-5.276248035952449">
        <ele>867</ele>
        <time>2018-05-24T06:57:14Z</time>
      </trkpt>
      <trkpt lat="42.450956963002682" lon="-5.275475978851318">
        <ele>866.10000000000002</ele>
        <time>2018-05-24T06:57:33Z</time>
      </trkpt>
      <trkpt lat="42.450464023277164" lon="-5.27423101477325">
        <ele>867.39999999999998</ele>
        <time>2018-05-24T06:58:04Z</time>
      </trkpt>
      <trkpt lat="42.450098991394043" lon="-5.27330900542438">
        <ele>867.60000000000002</ele>
        <time>2018-05-24T06:58:27Z</time>
      </trkpt>
      <trkpt lat="42.449713004752994" lon="-5.27234299108386">
        <ele>866.60000000000002</ele>
        <time>2018-05-24T06:58:51Z</time>
      </trkpt>
      <trkpt lat="42.449261974543333" lon="-5.271227024495602">
        <ele>866.39999999999998</ele>
        <time>2018-05-24T06:59:19Z</time>
      </trkpt>
      <trkpt lat="42.448832988739014" lon="-5.270153973251581">
        <ele>867.89999999999998</ele>
        <time>2018-05-24T06:59:45Z</time>
      </trkpt>
      <trkpt lat="42.434691963717341" lon="-5.246894024312496">
        <ele>874.70000000000005</ele>
        <time>2018-05-24T07:10:45Z</time>
      </trkpt>
      <trkpt lat="42.434305977076292" lon="-5.246250964701176">
        <ele>873.29999999999995</ele>
        <time>2018-05-24T07:11:03Z</time>
      </trkpt>
      <trkpt lat="42.434133980423212" lon="-5.245949970558286">
        <ele>872</ele>
        <time>2018-05-24T07:11:11Z</time>
      </trkpt>
      <trkpt lat="42.433856036514044" lon="-5.245500029996038">
        <ele>869.70000000000005</ele>
        <time>2018-05-24T07:11:24Z</time>
      </trkpt>
      <trkpt lat="42.433770038187504" lon="-5.245348988100886">
        <ele>868.89999999999998</ele>
        <time>2018-05-24T07:11:28Z</time>
      </trkpt>
      <trkpt lat="42.433727039024234" lon="-5.245263995602727">
        <ele>868.60000000000002</ele>
        <time>2018-05-24T07:11:30Z</time>
      </trkpt>
      <trkpt lat="42.433704994618893" lon="-5.245199035853148">
        <ele>868.39999999999998</ele>
        <time>2018-05-24T07:11:32Z</time>
      </trkpt>
      <trkpt lat="42.433425961062312" lon="-5.244383979588747">
        <ele>866.39999999999998</ele>
        <time>2018-05-24T07:11:52Z</time>
      </trkpt>
      <trkpt lat="42.433147011324763" lon="-5.243568001314998">
        <ele>867.70000000000005</ele>
        <time>2018-05-24T07:12:11Z</time>
      </trkpt>
      <trkpt lat="42.432825984433293" lon="-5.242559993639588">
        <ele>871</ele>
        <time>2018-05-24T07:12:35Z</time>
      </trkpt>
      <trkpt lat="42.432547034695745" lon="-5.24170202203095">
        <ele>872.70000000000005</ele>
        <time>2018-05-24T07:12:56Z</time>
      </trkpt>
      <trkpt lat="42.432504035532475" lon="-5.241593979299069">
        <ele>872.79999999999995</ele>
        <time>2018-05-24T07:12:59Z</time>
      </trkpt>
      <trkpt lat="42.432096004486084" lon="-5.24030702188611">
        <ele>873.29999999999995</ele>
        <time>2018-05-24T07:13:29Z</time>
      </trkpt>
      <trkpt lat="42.431624019518495" lon="-5.238912021741271">
        <ele>876.20000000000005</ele>
        <time>2018-05-24T07:14:03Z</time>
      </trkpt>
      <trkpt lat="42.431281032040715" lon="-5.237967967987061">
        <ele>877</ele>
        <time>2018-05-24T07:14:26Z</time>
      </trkpt>
      <trkpt lat="42.431109035387635" lon="-5.237474022433162">
        <ele>876.79999999999995</ele>
        <time>2018-05-24T07:14:38Z</time>
      </trkpt>
      <trkpt lat="42.430679965764284" lon="-5.236423015594482">
        <ele>877.39999999999998</ele>
        <time>2018-05-24T07:15:04Z</time>
      </trkpt>
      <trkpt lat="42.430487014353275" lon="-5.236014984548092">
        <ele>878.20000000000005</ele>
        <time>2018-05-24T07:15:15Z</time>
      </trkpt>
      <trkpt lat="42.429929031059146" lon="-5.234857024624944">
        <ele>877.60000000000002</ele>
        <time>2018-05-24T07:15:45Z</time>
      </trkpt>
      <trkpt lat="42.429413963109255" lon="-5.233783973380923">
        <ele>878.70000000000005</ele>
        <time>2018-05-24T07:16:13Z</time>
      </trkpt>
      <trkpt lat="42.428963016718626" lon="-5.232840003445745">
        <ele>877.5</ele>
        <time>2018-05-24T07:16:37Z</time>
      </trkpt>
      <trkpt lat="42.428512992337346" lon="-5.231916988268495">
        <ele>877.29999999999995</ele>
        <time>2018-05-24T07:17:02Z</time>
      </trkpt>
      <trkpt lat="42.428061962127686" lon="-5.230950973927975">
        <ele>877.89999999999998</ele>
        <time>2018-05-24T07:17:27Z</time>
      </trkpt>
      <trkpt lat="42.427632976323366" lon="-5.230050003156066">
        <ele>877.70000000000005</ele>
        <time>2018-05-24T07:17:50Z</time>
      </trkpt>
      <trkpt lat="42.427268028259277" lon="-5.229278029873967">
        <ele>876.39999999999998</ele>
        <time>2018-05-24T07:18:10Z</time>
      </trkpt>
      <trkpt lat="42.427182029932737" lon="-5.229020034894347">
        <ele>876.20000000000005</ele>
        <time>2018-05-24T07:18:16Z</time>
      </trkpt>
      <trkpt lat="42.427031993865967" lon="-5.228698002174497">
        <ele>876.10000000000002</ele>
        <time>2018-05-24T07:18:25Z</time>
      </trkpt>
      <trkpt lat="42.427011039108038" lon="-5.228676963597536">
        <ele>876.20000000000005</ele>
        <time>2018-05-24T07:18:26Z</time>
      </trkpt>
      <trkpt lat="42.426945995539427" lon="-5.228612003847957">
        <ele>876.29999999999995</ele>
        <time>2018-05-24T07:18:28Z</time>
      </trkpt>
      <trkpt lat="42.426752960309386" lon="-5.228204978629947">
        <ele>877.10000000000002</ele>
        <time>2018-05-24T07:18:39Z</time>
      </trkpt>
      <trkpt lat="42.426174022257328" lon="-5.227281963452697">
        <ele>878</ele>
        <time>2018-05-24T07:19:05Z</time>
      </trkpt>
      <trkpt lat="42.425593994557858" lon="-5.226423991844058">
        <ele>878.60000000000002</ele>
        <time>2018-05-24T07:19:30Z</time>
      </trkpt>
      <trkpt lat="42.425251007080078" lon="-5.225866008549929">
        <ele>878.5</ele>
        <time>2018-05-24T07:19:46Z</time>
      </trkpt>
      <trkpt lat="42.425186969339848" lon="-5.225737011060119">
        <ele>878.39999999999998</ele>
        <time>2018-05-24T07:19:50Z</time>
      </trkpt>
      <trkpt lat="42.425036011263728" lon="-5.225457977503538">
        <ele>878</ele>
        <time>2018-05-24T07:19:57Z</time>
      </trkpt>
      <trkpt lat="42.424822021275759" lon="-5.225093029439449">
        <ele>877.89999999999998</ele>
        <time>2018-05-24T07:20:08Z</time>
      </trkpt>
      <trkpt lat="42.424799976870418" lon="-5.22500803694129">
        <ele>877.89999999999998</ele>
        <time>2018-05-24T07:20:10Z</time>
      </trkpt>
      <trkpt lat="42.424607025459409" lon="-5.224620960652828">
        <ele>878</ele>
        <time>2018-05-24T07:20:20Z</time>
      </trkpt>
      <trkpt lat="42.424200000241399" lon="-5.22387002594769">
        <ele>877.5</ele>
        <time>2018-05-24T07:20:40Z</time>
      </trkpt>
      <trkpt lat="42.423813007771969" lon="-5.2232910040766">
        <ele>877.10000000000002</ele>
        <time>2018-05-24T07:20:57Z</time>
      </trkpt>
      <trkpt lat="42.423362983390689" lon="-5.222690021619201">
        <ele>877.29999999999995</ele>
        <time>2018-05-24T07:21:16Z</time>
      </trkpt>
      <trkpt lat="42.423190986737609" lon="-5.22253998555243">
        <ele>877.5</ele>
        <time>2018-05-24T07:21:22Z</time>
      </trkpt>
      <trkpt lat="42.423147987574339" lon="-5.222390033304691">
        <ele>877.60000000000002</ele>
        <time>2018-05-24T07:21:26Z</time>
      </trkpt>
      <trkpt lat="42.42271900177002" lon="-5.221210028976202">
        <ele>878.5</ele>
        <time>2018-05-24T07:21:54Z</time>
      </trkpt>
      <trkpt lat="42.42263300344348" lon="-5.220780037343502">
        <ele>878.29999999999995</ele>
        <time>2018-05-24T07:22:04Z</time>
      </trkpt>
      <trkpt lat="42.422568965703249" lon="-5.220373012125492">
        <ele>878.20000000000005</ele>
        <time>2018-05-24T07:22:13Z</time>
      </trkpt>
      <trkpt lat="42.42254700511694" lon="-5.220287013798952">
        <ele>878.20000000000005</ele>
        <time>2018-05-24T07:22:15Z</time>
      </trkpt>
      <trkpt lat="42.42250400595367" lon="-5.220179976895452">
        <ele>878.20000000000005</ele>
        <time>2018-05-24T07:22:18Z</time>
      </trkpt>
      <trkpt lat="42.422482967376709" lon="-5.220007980242372">
        <ele>878.20000000000005</ele>
        <time>2018-05-24T07:22:22Z</time>
      </trkpt>
      <trkpt lat="42.42237601429224" lon="-5.219729030504823">
        <ele>878</ele>
        <time>2018-05-24T07:22:29Z</time>
      </trkpt>
      <trkpt lat="42.42188198491931" lon="-5.218612980097532">
        <ele>878</ele>
        <time>2018-05-24T07:22:57Z</time>
      </trkpt>
      <trkpt lat="42.42188198491931" lon="-5.218612980097532">
        <ele>878</ele>
        <time>2018-05-24T07:22:57Z</time>
      </trkpt>
      <trkpt lat="42.42183898575604" lon="-5.218526981770992">
        <ele>878.10000000000002</ele>
        <time>2018-05-24T07:22:59Z</time>
      </trkpt>
      <trkpt lat="42.42166799493134" lon="-5.218163039535284">
        <ele>878.60000000000002</ele>
        <time>2018-05-24T07:23:09Z</time>
      </trkpt>
      <trkpt lat="42.421560036018491" lon="-5.217968998476863">
        <ele>878.89999999999998</ele>
        <time>2018-05-24T07:23:14Z</time>
      </trkpt>
      <trkpt lat="42.42108796723187" lon="-5.217046989127994">
        <ele>878.79999999999995</ele>
        <time>2018-05-24T07:23:39Z</time>
      </trkpt>
      <trkpt lat="42.420681025832891" lon="-5.216252971440554">
        <ele>878.29999999999995</ele>
        <time>2018-05-24T07:24:00Z</time>
      </trkpt>
      <trkpt lat="42.42061598226428" lon="-5.216146018356085">
        <ele>878.10000000000002</ele>
        <time>2018-05-24T07:24:03Z</time>
      </trkpt>
      <trkpt lat="42.42057298310101" lon="-5.216017020866275">
        <ele>877.89999999999998</ele>
        <time>2018-05-24T07:24:06Z</time>
      </trkpt>
      <trkpt lat="42.420272994786501" lon="-5.215502036735416">
        <ele>876.89999999999998</ele>
        <time>2018-05-24T07:24:20Z</time>
      </trkpt>
      <trkpt lat="42.420014999806881" lon="-5.215266002342105">
        <ele>876.39999999999998</ele>
        <time>2018-05-24T07:24:29Z</time>
      </trkpt>
      <trkpt lat="42.419801009818912" lon="-5.214900970458984">
        <ele>875.79999999999995</ele>
        <time>2018-05-24T07:24:40Z</time>
      </trkpt>
      <trkpt lat="42.419672012329102" lon="-5.214751018211246">
        <ele>875.39999999999998</ele>
        <time>2018-05-24T07:24:45Z</time>
      </trkpt>
      <trkpt lat="42.419415023177862" lon="-5.214279033243656">
        <ele>875</ele>
        <time>2018-05-24T07:24:58Z</time>
      </trkpt>
      <trkpt lat="42.418963992968202" lon="-5.213356018066406">
        <ele>875.10000000000002</ele>
        <time>2018-05-24T07:25:22Z</time>
      </trkpt>
      <trkpt lat="42.418535007163882" lon="-5.212476002052426">
        <ele>875.10000000000002</ele>
        <time>2018-05-24T07:25:45Z</time>
      </trkpt>
      <trkpt lat="42.418040977790952" lon="-5.211510993540287">
        <ele>875.10000000000002</ele>
        <time>2018-05-24T07:26:11Z</time>
      </trkpt>
      <trkpt lat="42.417396996170282" lon="-5.210372982546687">
        <ele>873.70000000000005</ele>
        <time>2018-05-24T07:26:42Z</time>
      </trkpt>
      <trkpt lat="42.417332958430052" lon="-5.210287990048528">
        <ele>873.5</ele>
        <time>2018-05-24T07:26:45Z</time>
      </trkpt>
      <trkpt lat="42.417269004508853" lon="-5.210137031972408">
        <ele>873.29999999999995</ele>
        <time>2018-05-24T07:26:48Z</time>
      </trkpt>
      <trkpt lat="42.416860973462462" lon="-5.209472011774778">
        <ele>873.5</ele>
        <time>2018-05-24T07:27:07Z</time>
      </trkpt>
      <trkpt lat="42.416817974299192" lon="-5.209386013448238">
        <ele>873.60000000000002</ele>
        <time>2018-05-24T07:27:10Z</time>
      </trkpt>
      <trkpt lat="42.416388988494873" lon="-5.208677994087338">
        <ele>874.5</ele>
        <time>2018-05-24T07:27:30Z</time>
      </trkpt>
      <trkpt lat="42.415831005200744" lon="-5.207755984738469">
        <ele>873</ele>
        <time>2018-05-24T07:27:56Z</time>
      </trkpt>
      <trkpt lat="42.415379974991083" lon="-5.20685400813818">
        <ele>873.10000000000002</ele>
        <time>2018-05-24T07:28:20Z</time>
      </trkpt>
      <trkpt lat="42.414844036102295" lon="-5.205888999626041">
        <ele>874.39999999999998</ele>
        <time>2018-05-24T07:28:46Z</time>
      </trkpt>
      <trkpt lat="42.414393005892634" lon="-5.205051982775331">
        <ele>875</ele>
        <time>2018-05-24T07:29:09Z</time>
      </trkpt>
      <trkpt lat="42.414199970662594" lon="-5.204622996971011">
        <ele>875</ele>
        <time>2018-05-24T07:29:20Z</time>
      </trkpt>
      <trkpt lat="42.414179015904665" lon="-5.204579997807741">
        <ele>875</ele>
        <time>2018-05-24T07:29:21Z</time>
      </trkpt>
      <trkpt lat="42.414113972336054" lon="-5.204408001154661">
        <ele>875</ele>
        <time>2018-05-24T07:29:25Z</time>
      </trkpt>
      <trkpt lat="42.413964020088315" lon="-5.204042969271541">
        <ele>875</ele>
        <time>2018-05-24T07:29:34Z</time>
      </trkpt>
      <trkpt lat="42.413427997380495" lon="-5.202928008511663">
        <ele>874.60000000000002</ele>
        <time>2018-05-24T07:30:03Z</time>
      </trkpt>
      <trkpt lat="42.413384998217225" lon="-5.202842010185123">
        <ele>874.60000000000002</ele>
        <time>2018-05-24T07:30:06Z</time>
      </trkpt>
      <trkpt lat="42.413170002400875" lon="-5.202390979975462">
        <ele>874.29999999999995</ele>
        <time>2018-05-24T07:30:17Z</time>
      </trkpt>
      <trkpt lat="42.412827014923096" lon="-5.201746998354793">
        <ele>873.89999999999998</ele>
        <time>2018-05-24T07:30:35Z</time>
      </trkpt>
      <trkpt lat="42.412441028282046" lon="-5.200910987332463">
        <ele>874.20000000000005</ele>
        <time>2018-05-24T07:30:56Z</time>
      </trkpt>
      <trkpt lat="42.412032997235656" lon="-5.199881019070745">
        <ele>873.89999999999998</ele>
        <time>2018-05-24T07:31:22Z</time>
      </trkpt>
      <trkpt lat="42.411561012268066" lon="-5.198743008077145">
        <ele>875.79999999999995</ele>
        <time>2018-05-24T07:31:50Z</time>
      </trkpt>
      <trkpt lat="42.411024989560246" lon="-5.197563003748655">
        <ele>875.5</ele>
        <time>2018-05-24T07:32:21Z</time>
      </trkpt>
      <trkpt lat="42.410530960187316" lon="-5.196447037160397">
        <ele>874.29999999999995</ele>
        <time>2018-05-24T07:32:49Z</time>
      </trkpt>
      <trkpt lat="42.410080013796687" lon="-5.195525027811527">
        <ele>874</ele>
        <time>2018-05-24T07:33:13Z</time>
      </trkpt>
      <trkpt lat="42.409952022135258" lon="-5.195245994254947">
        <ele>874.20000000000005</ele>
        <time>2018-05-24T07:33:21Z</time>
      </trkpt>
      <trkpt lat="42.409543991088867" lon="-5.194387016817927">
        <ele>875.20000000000005</ele>
        <time>2018-05-24T07:33:43Z</time>
      </trkpt>
      <trkpt lat="42.409500991925597" lon="-5.194279979914427">
        <ele>875.39999999999998</ele>
        <time>2018-05-24T07:33:46Z</time>
      </trkpt>
      <trkpt lat="42.409437038004398" lon="-5.194107983261347">
        <ele>875.60000000000002</ele>
        <time>2018-05-24T07:33:50Z</time>
      </trkpt>
      <trkpt lat="42.409007968381047" lon="-5.193185973912478">
        <ele>876.20000000000005</ele>
        <time>2018-05-24T07:34:14Z</time>
      </trkpt>
      <trkpt lat="42.408534977585077" lon="-5.192156005650759">
        <ele>876.89999999999998</ele>
        <time>2018-05-24T07:34:40Z</time>
      </trkpt>
      <trkpt lat="42.408363986760378" lon="-5.191790973767638">
        <ele>877.39999999999998</ele>
        <time>2018-05-24T07:34:50Z</time>
      </trkpt>
      <trkpt lat="42.407870041206479" lon="-5.19071800634265">
        <ele>877.10000000000002</ele>
        <time>2018-05-24T07:35:17Z</time>
      </trkpt>
      <trkpt lat="42.407634006813169" lon="-5.19020302221179">
        <ele>877.79999999999995</ele>
        <time>2018-05-24T07:35:31Z</time>
      </trkpt>
      <trkpt lat="42.407377017661929" lon="-5.189602039754391">
        <ele>878.60000000000002</ele>
        <time>2018-05-24T07:35:46Z</time>
      </trkpt>
      <trkpt lat="42.40690503269434" lon="-5.18861498683691">
        <ele>878.79999999999995</ele>
        <time>2018-05-24T07:36:12Z</time>
      </trkpt>
      <trkpt lat="42.406753990799189" lon="-5.188314998522401">
        <ele>878.60000000000002</ele>
        <time>2018-05-24T07:36:20Z</time>
      </trkpt>
      <trkpt lat="42.406711997464299" lon="-5.188229000195861">
        <ele>878.60000000000002</ele>
        <time>2018-05-24T07:36:22Z</time>
      </trkpt>
      <trkpt lat="42.40669003687799" lon="-5.18816496245563">
        <ele>878.5</ele>
        <time>2018-05-24T07:36:23Z</time>
      </trkpt>
      <trkpt lat="42.40664703771472" lon="-5.18812196329236">
        <ele>878.5</ele>
        <time>2018-05-24T07:36:25Z</time>
      </trkpt>
      <trkpt lat="42.406625999137759" lon="-5.188057003542781">
        <ele>878.5</ele>
        <time>2018-05-24T07:36:27Z</time>
      </trkpt>
      <trkpt lat="42.406325004994869" lon="-5.187391983345151">
        <ele>876.79999999999995</ele>
        <time>2018-05-24T07:36:44Z</time>
      </trkpt>
      <trkpt lat="42.405831981450319" lon="-5.186362015083432">
        <ele>876.89999999999998</ele>
        <time>2018-05-24T07:37:11Z</time>
      </trkpt>
      <trkpt lat="42.4055100325495" lon="-5.185719039291143">
        <ele>875.79999999999995</ele>
        <time>2018-05-24T07:37:28Z</time>
      </trkpt>
      <trkpt lat="42.40529503673315" lon="-5.185268009081483">
        <ele>874.89999999999998</ele>
        <time>2018-05-24T07:37:39Z</time>
      </trkpt>
      <trkpt lat="42.404908966273069" lon="-5.184453036636114">
        <ele>874.29999999999995</ele>
        <time>2018-05-24T07:38:00Z</time>
      </trkpt>
      <trkpt lat="42.404587017372251" lon="-5.183636974543333">
        <ele>873</ele>
        <time>2018-05-24T07:38:21Z</time>
      </trkpt>
      <trkpt lat="42.40430798381567" lon="-5.182929039001465">
        <ele>873</ele>
        <time>2018-05-24T07:38:38Z</time>
      </trkpt>
      <trkpt lat="42.404287029057741" lon="-5.182865001261234">
        <ele>873</ele>
        <time>2018-05-24T07:38:40Z</time>
      </trkpt>
      <trkpt lat="42.4042649846524" lon="-5.182843040674925">
        <ele>873</ele>
        <time>2018-05-24T07:38:41Z</time>
      </trkpt>
      <trkpt lat="42.404244029894471" lon="-5.182756958529353">
        <ele>873.10000000000002</ele>
        <time>2018-05-24T07:38:43Z</time>
      </trkpt>
      <trkpt lat="42.404201030731201" lon="-5.182671966031194">
        <ele>873.10000000000002</ele>
        <time>2018-05-24T07:38:45Z</time>
      </trkpt>
      <trkpt lat="42.404136992990971" lon="-5.182542968541384">
        <ele>873.20000000000005</ele>
        <time>2018-05-24T07:38:48Z</time>
      </trkpt>
      <trkpt lat="42.404115032404661" lon="-5.182456970214844">
        <ele>873.29999999999995</ele>
        <time>2018-05-24T07:38:50Z</time>
      </trkpt>
      <trkpt lat="42.404050994664431" lon="-5.182327972725034">
        <ele>873.5</ele>
        <time>2018-05-24T07:38:54Z</time>
      </trkpt>
      <trkpt lat="42.403944041579962" lon="-5.182027984410524">
        <ele>873.70000000000005</ele>
        <time>2018-05-24T07:39:01Z</time>
      </trkpt>
      <trkpt lat="42.403708007186651" lon="-5.181427001953125">
        <ele>873.10000000000002</ele>
        <time>2018-05-24T07:39:16Z</time>
      </trkpt>
      <trkpt lat="42.403299976140261" lon="-5.180397033691406">
        <ele>871.5</ele>
        <time>2018-05-24T07:39:41Z</time>
      </trkpt>
      <trkpt lat="42.402935028076172" lon="-5.179474018514156">
        <ele>872</ele>
        <time>2018-05-24T07:40:04Z</time>
      </trkpt>
      <trkpt lat="42.402569996193051" lon="-5.178572963923216">
        <ele>870.60000000000002</ele>
        <time>2018-05-24T07:40:27Z</time>
      </trkpt>
      <trkpt lat="42.402204964309931" lon="-5.177671993151307">
        <ele>869.5</ele>
        <time>2018-05-24T07:40:49Z</time>
      </trkpt>
      <trkpt lat="42.402184009552002" lon="-5.177585994824767">
        <ele>869.60000000000002</ele>
        <time>2018-05-24T07:40:51Z</time>
      </trkpt>
      <trkpt lat="42.402141010388732" lon="-5.177499996498227">
        <ele>869.60000000000002</ele>
        <time>2018-05-24T07:40:54Z</time>
      </trkpt>
      <trkpt lat="42.402119971811771" lon="-5.177456997334957">
        <ele>869.60000000000002</ele>
        <time>2018-05-24T07:40:55Z</time>
      </trkpt>
      <trkpt lat="42.401775978505611" lon="-5.176556026563048">
        <ele>869.20000000000005</ele>
        <time>2018-05-24T07:41:17Z</time>
      </trkpt>
      <trkpt lat="42.401540027931333" lon="-5.175977004691958">
        <ele>868.89999999999998</ele>
        <time>2018-05-24T07:41:31Z</time>
      </trkpt>
      <trkpt lat="42.401154041290283" lon="-5.175010990351439">
        <ele>869</ele>
        <time>2018-05-24T07:41:55Z</time>
      </trkpt>
      <trkpt lat="42.400789009407163" lon="-5.174130974337459">
        <ele>869.20000000000005</ele>
        <time>2018-05-24T07:42:18Z</time>
      </trkpt>
      <trkpt lat="42.400681972503662" lon="-5.17385202459991">
        <ele>869.29999999999995</ele>
        <time>2018-05-24T07:42:24Z</time>
      </trkpt>
      <trkpt lat="42.400423977524042" lon="-5.17318700440228">
        <ele>869</ele>
        <time>2018-05-24T07:42:41Z</time>
      </trkpt>
      <trkpt lat="42.400166988372803" lon="-5.172544028609991">
        <ele>869</ele>
        <time>2018-05-24T07:42:57Z</time>
      </trkpt>
      <trkpt lat="42.399931037798524" lon="-5.172007000073791">
        <ele>868.79999999999995</ele>
        <time>2018-05-24T07:43:11Z</time>
      </trkpt>
      <trkpt lat="42.399845039471984" lon="-5.17172796651721">
        <ele>868.10000000000002</ele>
        <time>2018-05-24T07:43:17Z</time>
      </trkpt>
      <trkpt lat="42.399759041145444" lon="-5.171535015106201">
        <ele>867.70000000000005</ele>
        <time>2018-05-24T07:43:22Z</time>
      </trkpt>
      <trkpt lat="42.399566005915403" lon="-5.170977031812072">
        <ele>866.39999999999998</ele>
        <time>2018-05-24T07:43:36Z</time>
      </trkpt>
      <trkpt lat="42.399458969011903" lon="-5.170676959678531">
        <ele>866</ele>
        <time>2018-05-24T07:43:43Z</time>
      </trkpt>
      <trkpt lat="42.399029983207583" lon="-5.169539032503963">
        <ele>864.20000000000005</ele>
        <time>2018-05-24T07:44:11Z</time>
      </trkpt>
      <trkpt lat="42.398579036816955" lon="-5.168402027338743">
        <ele>861.29999999999995</ele>
        <time>2018-05-24T07:44:39Z</time>
      </trkpt>
      <trkpt lat="42.398192966356874" lon="-5.167394019663334">
        <ele>859.10000000000002</ele>
        <time>2018-05-24T07:45:04Z</time>
      </trkpt>
      <trkpt lat="42.398000014945865" lon="-5.166836036369205">
        <ele>857.89999999999998</ele>
        <time>2018-05-24T07:45:18Z</time>
      </trkpt>
      <trkpt lat="42.397957015782595" lon="-5.166727993637323">
        <ele>857.70000000000005</ele>
        <time>2018-05-24T07:45:20Z</time>
      </trkpt>
      <trkpt lat="42.397656021639705" lon="-5.165484035387635">
        <ele>856.39999999999998</ele>
        <time>2018-05-24T07:45:49Z</time>
      </trkpt>
      <trkpt lat="42.397376988083124" lon="-5.164281986653805">
        <ele>855.29999999999995</ele>
        <time>2018-05-24T07:46:16Z</time>
      </trkpt>
      <trkpt lat="42.397098960354924" lon="-5.163316978141666">
        <ele>860</ele>
        <time>2018-05-24T07:46:39Z</time>
      </trkpt>
      <trkpt lat="42.396883964538574" lon="-5.162801994010806">
        <ele>863.20000000000005</ele>
        <time>2018-05-24T07:46:52Z</time>
      </trkpt>
      <trkpt lat="42.396863009780645" lon="-5.162737034261227">
        <ele>863.39999999999998</ele>
        <time>2018-05-24T07:46:54Z</time>
      </trkpt>
      <trkpt lat="42.396754967048764" lon="-5.162522960454226">
        <ele>864.10000000000002</ele>
        <time>2018-05-24T07:46:59Z</time>
      </trkpt>
      <trkpt lat="42.396325981244445" lon="-5.161535991355777">
        <ele>867.20000000000005</ele>
        <time>2018-05-24T07:47:24Z</time>
      </trkpt>
      <trkpt lat="42.396262027323246" lon="-5.161386039108038">
        <ele>867.70000000000005</ele>
        <time>2018-05-24T07:47:28Z</time>
      </trkpt>
      <trkpt lat="42.395961033180356" lon="-5.160698974505067">
        <ele>868.5</ele>
        <time>2018-05-24T07:47:46Z</time>
      </trkpt>
      <trkpt lat="42.395531963557005" lon="-5.159669006243348">
        <ele>868.20000000000005</ele>
        <time>2018-05-24T07:48:12Z</time>
      </trkpt>
      <trkpt lat="42.395124016329646" lon="-5.158702991902828">
        <ele>865.5</ele>
        <time>2018-05-24T07:48:36Z</time>
      </trkpt>
      <trkpt lat="42.394738029688597" lon="-5.15784502029419">
        <ele>863</ele>
        <time>2018-05-24T07:48:58Z</time>
      </trkpt>
      <trkpt lat="42.394308960065246" lon="-5.15683701261878">
        <ele>861.60000000000002</ele>
        <time>2018-05-24T07:49:24Z</time>
      </trkpt>
      <trkpt lat="42.393730022013187" lon="-5.15576396137476">
        <ele>859</ele>
        <time>2018-05-24T07:49:53Z</time>
      </trkpt>
      <trkpt lat="42.393664978444576" lon="-5.15565600246191">
        <ele>859</ele>
        <time>2018-05-24T07:49:56Z</time>
      </trkpt>
      <trkpt lat="42.393493987619877" lon="-5.15533396974206">
        <ele>859</ele>
        <time>2018-05-24T07:50:04Z</time>
      </trkpt>
      <trkpt lat="42.393063995987177" lon="-5.154561996459961">
        <ele>859.79999999999995</ele>
        <time>2018-05-24T07:50:26Z</time>
      </trkpt>
      <trkpt lat="42.392613971605897" lon="-5.153704024851322">
        <ele>860</ele>
        <time>2018-05-24T07:50:49Z</time>
      </trkpt>
      <trkpt lat="42.392484974116087" lon="-5.153467990458012">
        <ele>860</ele>
        <time>2018-05-24T07:50:55Z</time>
      </trkpt>
      <trkpt lat="42.392227984964848" lon="-5.153016960248351">
        <ele>860</ele>
        <time>2018-05-24T07:51:07Z</time>
      </trkpt>
      <trkpt lat="42.392206024378538" lon="-5.152973961085081">
        <ele>860</ele>
        <time>2018-05-24T07:51:09Z</time>
      </trkpt>
      <trkpt lat="42.392120026051998" lon="-5.152824008837342">
        <ele>859.89999999999998</ele>
        <time>2018-05-24T07:51:13Z</time>
      </trkpt>
      <trkpt lat="42.392077026888728" lon="-5.152738010510802">
        <ele>859.79999999999995</ele>
        <time>2018-05-24T07:51:15Z</time>
      </trkpt>
      <trkpt lat="42.391519965603948" lon="-5.151751041412354">
        <ele>857.70000000000005</ele>
        <time>2018-05-24T07:51:42Z</time>
      </trkpt>
      <trkpt lat="42.391046974807978" lon="-5.150548992678523">
        <ele>855.29999999999995</ele>
        <time>2018-05-24T07:52:12Z</time>
      </trkpt>
      <trkpt lat="42.390597034245729" lon="-5.149497985839844">
        <ele>854.70000000000005</ele>
        <time>2018-05-24T07:52:39Z</time>
      </trkpt>
      <trkpt lat="42.390081966295838" lon="-5.148554015904665">
        <ele>852.70000000000005</ele>
        <time>2018-05-24T07:53:04Z</time>
      </trkpt>
      <trkpt lat="42.38984601572156" lon="-5.148188984021545">
        <ele>851.29999999999995</ele>
        <time>2018-05-24T07:53:15Z</time>
      </trkpt>
      <trkpt lat="42.38950302824378" lon="-5.147652961313725">
        <ele>849.29999999999995</ele>
        <time>2018-05-24T07:53:31Z</time>
      </trkpt>
      <trkpt lat="42.389351986348629" lon="-5.147331012412906">
        <ele>848.70000000000005</ele>
        <time>2018-05-24T07:53:39Z</time>
      </trkpt>
      <trkpt lat="42.389265988022089" lon="-5.147159015759826">
        <ele>848.5</ele>
        <time>2018-05-24T07:53:43Z</time>
      </trkpt>
      <trkpt lat="42.38924503326416" lon="-5.147116016596556">
        <ele>848.5</ele>
        <time>2018-05-24T07:53:45Z</time>
      </trkpt>
      <trkpt lat="42.3892239946872" lon="-5.147094978019595">
        <ele>848.39999999999998</ele>
        <time>2018-05-24T07:53:45Z</time>
      </trkpt>
      <trkpt lat="42.38913799636066" lon="-5.146965980529785">
        <ele>848.79999999999995</ele>
        <time>2018-05-24T07:53:49Z</time>
      </trkpt>
      <trkpt lat="42.3886230122298" lon="-5.146493995562196">
        <ele>850.60000000000002</ele>
        <time>2018-05-24T07:54:08Z</time>
      </trkpt>
      <trkpt lat="42.38849401473999" lon="-5.146343959495425">
        <ele>851.29999999999995</ele>
        <time>2018-05-24T07:54:13Z</time>
      </trkpt>
      <trkpt lat="42.38847297616303" lon="-5.146321998909116">
        <ele>851.39999999999998</ele>
        <time>2018-05-24T07:54:13Z</time>
      </trkpt>
      <trkpt lat="42.38836501725018" lon="-5.146364998072386">
        <ele>851.5</ele>
        <time>2018-05-24T07:54:17Z</time>
      </trkpt>
      <trkpt lat="42.38832201808691" lon="-5.146450996398926">
        <ele>851.20000000000005</ele>
        <time>2018-05-24T07:54:19Z</time>
      </trkpt>
      <trkpt lat="42.38825798034668" lon="-5.146472034975886">
        <ele>851.20000000000005</ele>
        <time>2018-05-24T07:54:21Z</time>
      </trkpt>
      <trkpt lat="42.387722041457891" lon="-5.146687030792236">
        <ele>850.29999999999995</ele>
        <time>2018-05-24T07:54:38Z</time>
      </trkpt>
      <trkpt lat="42.38769999705255" lon="-5.146730029955506">
        <ele>850</ele>
        <time>2018-05-24T07:54:39Z</time>
      </trkpt>
      <trkpt lat="42.38759296014905" lon="-5.146859027445316">
        <ele>849.39999999999998</ele>
        <time>2018-05-24T07:54:43Z</time>
      </trkpt>
      <trkpt lat="42.38746396265924" lon="-5.146922981366515">
        <ele>849.20000000000005</ele>
        <time>2018-05-24T07:54:47Z</time>
      </trkpt>
      <trkpt lat="42.3873779643327" lon="-5.146945025771856">
        <ele>849.20000000000005</ele>
        <time>2018-05-24T07:54:50Z</time>
      </trkpt>
      <trkpt lat="42.387228012084961" lon="-5.146902026608586">
        <ele>849.39999999999998</ele>
        <time>2018-05-24T07:54:54Z</time>
      </trkpt>
      <trkpt lat="42.38707797601819" lon="-5.146816028282046">
        <ele>849.70000000000005</ele>
        <time>2018-05-24T07:54:59Z</time>
      </trkpt>
      <trkpt lat="42.387056015431881" lon="-5.146257961168885">
        <ele>851</ele>
        <time>2018-05-24T07:55:11Z</time>
      </trkpt>
      <trkpt lat="42.38707797601819" lon="-5.145828975364566">
        <ele>852.5</ele>
        <time>2018-05-24T07:55:21Z</time>
      </trkpt>
      <trkpt lat="42.387099014595151" lon="-5.145807014778256">
        <ele>852.60000000000002</ele>
        <time>2018-05-24T07:55:21Z</time>
      </trkpt>
      <trkpt lat="42.387056015431881" lon="-5.145999966189265">
        <ele>851.89999999999998</ele>
        <time>2018-05-24T07:55:26Z</time>
      </trkpt>
      <trkpt lat="42.38707797601819" lon="-5.146536994725466">
        <ele>850.29999999999995</ele>
        <time>2018-05-24T07:55:38Z</time>
      </trkpt>
      <trkpt lat="42.387056015431881" lon="-5.146687030792236">
        <ele>850</ele>
        <time>2018-05-24T07:55:41Z</time>
      </trkpt>
      <trkpt lat="42.386627029627562" lon="-5.146579993888736">
        <ele>851</ele>
        <time>2018-05-24T07:55:54Z</time>
      </trkpt>
      <trkpt lat="42.386541031301022" lon="-5.146558033302426">
        <ele>851.20000000000005</ele>
        <time>2018-05-24T07:55:57Z</time>
      </trkpt>
      <trkpt lat="42.386498032137752" lon="-5.146644031628966">
        <ele>851.10000000000002</ele>
        <time>2018-05-24T07:55:59Z</time>
      </trkpt>
      <trkpt lat="42.38615496084094" lon="-5.145742977038026">
        <ele>852.70000000000005</ele>
        <time>2018-05-24T07:56:21Z</time>
      </trkpt>
      <trkpt lat="42.3860689625144" lon="-5.145055996254087">
        <ele>852.79999999999995</ele>
        <time>2018-05-24T07:56:36Z</time>
      </trkpt>
      <trkpt lat="42.386048007756472" lon="-5.144842006266117">
        <ele>852.60000000000002</ele>
        <time>2018-05-24T07:56:41Z</time>
      </trkpt>
      <trkpt lat="42.38619796000421" lon="-5.144562972709537">
        <ele>852.10000000000002</ele>
        <time>2018-05-24T07:56:49Z</time>
      </trkpt>
      <trkpt lat="42.386413039639592" lon="-5.144433975219727">
        <ele>852.5</ele>
        <time>2018-05-24T07:56:56Z</time>
      </trkpt>
      <trkpt lat="42.38694897852838" lon="-5.143855037167668">
        <ele>853.10000000000002</ele>
        <time>2018-05-24T07:57:16Z</time>
      </trkpt>
      <trkpt lat="42.38724896684289" lon="-5.143147017806768">
        <ele>853.10000000000002</ele>
        <time>2018-05-24T07:57:34Z</time>
      </trkpt>
      <trkpt lat="42.38729196600616" lon="-5.143038975074887">
        <ele>853</ele>
        <time>2018-05-24T07:57:36Z</time>
      </trkpt>
      <trkpt lat="42.38733496516943" lon="-5.142952976748347">
        <ele>853</ele>
        <time>2018-05-24T07:57:39Z</time>
      </trkpt>
      <trkpt lat="42.38759296014905" lon="-5.142566990107298">
        <ele>852.60000000000002</ele>
        <time>2018-05-24T07:57:50Z</time>
      </trkpt>
      <trkpt lat="42.387850033119321" lon="-5.142353000119329">
        <ele>852.29999999999995</ele>
        <time>2018-05-24T07:57:59Z</time>
      </trkpt>
      <trkpt lat="42.387936031445861" lon="-5.142310000956059">
        <ele>852.29999999999995</ele>
        <time>2018-05-24T07:58:02Z</time>
      </trkpt>
      <trkpt lat="42.38804298453033" lon="-5.141128990799189">
        <ele>852</ele>
        <time>2018-05-24T07:58:28Z</time>
      </trkpt>
      <trkpt lat="42.38821498118341" lon="-5.139905987307429">
        <ele>850</ele>
        <time>2018-05-24T07:58:55Z</time>
      </trkpt>
      <trkpt lat="42.38836501725018" lon="-5.138962017372251">
        <ele>849.5</ele>
        <time>2018-05-24T07:59:16Z</time>
      </trkpt>
      <trkpt lat="42.38840801641345" lon="-5.13876898214221">
        <ele>849.39999999999998</ele>
        <time>2018-05-24T07:59:21Z</time>
      </trkpt>
      <trkpt lat="42.38845101557672" lon="-5.138511992990971">
        <ele>849.39999999999998</ele>
        <time>2018-05-24T07:59:26Z</time>
      </trkpt>
      <trkpt lat="42.38858001306653" lon="-5.137610016390681">
        <ele>848.29999999999995</ele>
        <time>2018-05-24T07:59:47Z</time>
      </trkpt>
      <trkpt lat="42.388600967824459" lon="-5.137482024729252">
        <ele>847.79999999999995</ele>
        <time>2018-05-24T07:59:49Z</time>
      </trkpt>
      <trkpt lat="42.388686966150999" lon="-5.136858997866511">
        <ele>845.70000000000005</ele>
        <time>2018-05-24T08:00:03Z</time>
      </trkpt>
      <trkpt lat="42.388858962804079" lon="-5.135893989354372">
        <ele>842.5</ele>
        <time>2018-05-24T08:00:25Z</time>
      </trkpt>
      <trkpt lat="42.388944961130619" lon="-5.135465003550053">
        <ele>841.10000000000002</ele>
        <time>2018-05-24T08:00:35Z</time>
      </trkpt>
      <trkpt lat="42.38903003744781" lon="-5.134927975013852">
        <ele>840</ele>
        <time>2018-05-24T08:00:47Z</time>
      </trkpt>
      <trkpt lat="42.38907303661108" lon="-5.134735023602843">
        <ele>839.70000000000005</ele>
        <time>2018-05-24T08:00:51Z</time>
      </trkpt>
      <trkpt lat="42.389265988022089" lon="-5.133770015090704">
        <ele>836.29999999999995</ele>
        <time>2018-05-24T08:01:13Z</time>
      </trkpt>
      <trkpt lat="42.389394985511899" lon="-5.132911037653685">
        <ele>832.39999999999998</ele>
        <time>2018-05-24T08:01:32Z</time>
      </trkpt>
      <trkpt lat="42.38941702991724" lon="-5.132675003260374">
        <ele>832.10000000000002</ele>
        <time>2018-05-24T08:01:38Z</time>
      </trkpt>
      <trkpt lat="42.38937403075397" lon="-5.132031021639705">
        <ele>831.60000000000002</ele>
        <time>2018-05-24T08:01:52Z</time>
      </trkpt>
      <trkpt lat="42.3893310315907" lon="-5.131837986409664">
        <ele>831.89999999999998</ele>
        <time>2018-05-24T08:01:56Z</time>
      </trkpt>
      <trkpt lat="42.38920203410089" lon="-5.131215965375304">
        <ele>832.70000000000005</ele>
        <time>2018-05-24T08:02:10Z</time>
      </trkpt>
      <trkpt lat="42.38911603577435" lon="-5.130637027323246">
        <ele>835.20000000000005</ele>
        <time>2018-05-24T08:02:23Z</time>
      </trkpt>
      <trkpt lat="42.38905199803412" lon="-5.130443992093206">
        <ele>835.70000000000005</ele>
        <time>2018-05-24T08:02:28Z</time>
      </trkpt>
      <trkpt lat="42.38896599970758" lon="-5.130056999623776">
        <ele>836.20000000000005</ele>
        <time>2018-05-24T08:02:37Z</time>
      </trkpt>
      <trkpt lat="42.3886230122298" lon="-5.128211975097656">
        <ele>835.79999999999995</ele>
        <time>2018-05-24T08:03:18Z</time>
      </trkpt>
      <trkpt lat="42.38842997699976" lon="-5.127182006835938">
        <ele>835</ele>
        <time>2018-05-24T08:03:42Z</time>
      </trkpt>
      <trkpt lat="42.388237025588751" lon="-5.126195037737489">
        <ele>835.10000000000002</ele>
        <time>2018-05-24T08:04:04Z</time>
      </trkpt>
      <trkpt lat="42.38812898285687" lon="-5.125722968950868">
        <ele>836.10000000000002</ele>
        <time>2018-05-24T08:04:15Z</time>
      </trkpt>
      <trkpt lat="42.388108028098941" lon="-5.125616015866399">
        <ele>836.29999999999995</ele>
        <time>2018-05-24T08:04:17Z</time>
      </trkpt>
      <trkpt lat="42.388065028935671" lon="-5.125550972297788">
        <ele>836.5</ele>
        <time>2018-05-24T08:04:19Z</time>
      </trkpt>
      <trkpt lat="42.38804298453033" lon="-5.125487018376589">
        <ele>836.70000000000005</ele>
        <time>2018-05-24T08:04:21Z</time>
      </trkpt>
      <trkpt lat="42.38799998536706" lon="-5.125421974807978">
        <ele>836.89999999999998</ele>
        <time>2018-05-24T08:04:23Z</time>
      </trkpt>
      <trkpt lat="42.388022029772401" lon="-5.125401020050049">
        <ele>836.89999999999998</ele>
        <time>2018-05-24T08:04:23Z</time>
      </trkpt>
      <trkpt lat="42.388065028935671" lon="-5.125444019213319">
        <ele>836.79999999999995</ele>
        <time>2018-05-24T08:04:25Z</time>
      </trkpt>
      <trkpt lat="42.388108028098941" lon="-5.125421974807978">
        <ele>836.79999999999995</ele>
        <time>2018-05-24T08:04:26Z</time>
      </trkpt>
      <trkpt lat="42.388151027262211" lon="-5.125401020050049">
        <ele>836.79999999999995</ele>
        <time>2018-05-24T08:04:28Z</time>
      </trkpt>
      <trkpt lat="42.38821498118341" lon="-5.125315021723509">
        <ele>836.79999999999995</ele>
        <time>2018-05-24T08:04:30Z</time>
      </trkpt>
      <trkpt lat="42.388237025588751" lon="-5.125315021723509">
        <ele>836.79999999999995</ele>
        <time>2018-05-24T08:04:31Z</time>
      </trkpt>
      <trkpt lat="42.38825798034668" lon="-5.125293983146548">
        <ele>836.79999999999995</ele>
        <time>2018-05-24T08:04:32Z</time>
      </trkpt>
      <trkpt lat="42.388237025588751" lon="-5.125336982309818">
        <ele>836.79999999999995</ele>
        <time>2018-05-24T08:04:33Z</time>
      </trkpt>
      <trkpt lat="42.38821498118341" lon="-5.125336982309818">
        <ele>836.79999999999995</ele>
        <time>2018-05-24T08:04:34Z</time>
      </trkpt>
      <trkpt lat="42.38817198202014" lon="-5.125336982309818">
        <ele>836.89999999999998</ele>
        <time>2018-05-24T08:04:35Z</time>
      </trkpt>
      <trkpt lat="42.388151027262211" lon="-5.125358020886779">
        <ele>836.79999999999995</ele>
        <time>2018-05-24T08:04:36Z</time>
      </trkpt>
      <trkpt lat="42.38812898285687" lon="-5.125358020886779">
        <ele>836.89999999999998</ele>
        <time>2018-05-24T08:04:36Z</time>
      </trkpt>
      <trkpt lat="42.388065028935671" lon="-5.125379981473088">
        <ele>836.89999999999998</ele>
        <time>2018-05-24T08:04:38Z</time>
      </trkpt>
      <trkpt lat="42.38804298453033" lon="-5.125401020050049">
        <ele>836.89999999999998</ele>
        <time>2018-05-24T08:04:39Z</time>
      </trkpt>
      <trkpt lat="42.388065028935671" lon="-5.125421974807978">
        <ele>836.79999999999995</ele>
        <time>2018-05-24T08:04:40Z</time>
      </trkpt>
      <trkpt lat="42.38804298453033" lon="-5.125358020886779">
        <ele>837</ele>
        <time>2018-05-24T08:04:41Z</time>
      </trkpt>
      <trkpt lat="42.388065028935671" lon="-5.125164985656738">
        <ele>837.39999999999998</ele>
        <time>2018-05-24T08:04:46Z</time>
      </trkpt>
      <trkpt lat="42.388108028098941" lon="-5.125078987330198">
        <ele>837.5</ele>
        <time>2018-05-24T08:04:48Z</time>
      </trkpt>
      <trkpt lat="42.387893032282591" lon="-5.12396302074194">
        <ele>837.5</ele>
        <time>2018-05-24T08:05:13Z</time>
      </trkpt>
      <trkpt lat="42.38765699788928" lon="-5.12271897867322">
        <ele>837</ele>
        <time>2018-05-24T08:05:41Z</time>
      </trkpt>
      <trkpt lat="42.38742096349597" lon="-5.121603012084961">
        <ele>836.70000000000005</ele>
        <time>2018-05-24T08:06:07Z</time>
      </trkpt>
      <trkpt lat="42.387228012084961" lon="-5.120615959167481">
        <ele>834.70000000000005</ele>
        <time>2018-05-24T08:06:29Z</time>
      </trkpt>
      <trkpt lat="42.38694897852838" lon="-5.119499992579222">
        <ele>832.70000000000005</ele>
        <time>2018-05-24T08:06:55Z</time>
      </trkpt>
      <trkpt lat="42.386627029627562" lon="-5.118491984903812">
        <ele>831.5</ele>
        <time>2018-05-24T08:07:19Z</time>
      </trkpt>
      <trkpt lat="42.38628395833075" lon="-5.117376018315554">
        <ele>830.79999999999995</ele>
        <time>2018-05-24T08:07:45Z</time>
      </trkpt>
      <trkpt lat="42.386005008593202" lon="-5.116110015660524">
        <ele>830.89999999999998</ele>
        <time>2018-05-24T08:08:14Z</time>
      </trkpt>
      <trkpt lat="42.385747013613582" lon="-5.114907966926694">
        <ele>829.39999999999998</ele>
        <time>2018-05-24T08:08:42Z</time>
      </trkpt>
      <trkpt lat="42.385576022788882" lon="-5.113986041396856">
        <ele>827.89999999999998</ele>
        <time>2018-05-24T08:09:03Z</time>
      </trkpt>
      <trkpt lat="42.385510979220271" lon="-5.113664008677006">
        <ele>827.20000000000005</ele>
        <time>2018-05-24T08:09:10Z</time>
      </trkpt>
      <trkpt lat="42.385404026135802" lon="-5.112805031239986">
        <ele>827</ele>
        <time>2018-05-24T08:09:29Z</time>
      </trkpt>
      <trkpt lat="42.385253990069032" lon="-5.112118972465396">
        <ele>827</ele>
        <time>2018-05-24T08:09:45Z</time>
      </trkpt>
      <trkpt lat="42.385232029482722" lon="-5.111840022727847">
        <ele>827.20000000000005</ele>
        <time>2018-05-24T08:09:51Z</time>
      </trkpt>
      <trkpt lat="42.385190036147833" lon="-5.111603988334537">
        <ele>827.39999999999998</ele>
        <time>2018-05-24T08:09:56Z</time>
      </trkpt>
      <trkpt lat="42.385104037821293" lon="-5.111454036086798">
        <ele>827.5</ele>
        <time>2018-05-24T08:10:00Z</time>
      </trkpt>
      <trkpt lat="42.384975040331483" lon="-5.111196041107178">
        <ele>827.5</ele>
        <time>2018-05-24T08:10:07Z</time>
      </trkpt>
      <trkpt lat="42.384888958185911" lon="-5.110703017562628">
        <ele>827.60000000000002</ele>
        <time>2018-05-24T08:10:18Z</time>
      </trkpt>
      <trkpt lat="42.384716961532831" lon="-5.109887039288878">
        <ele>827.29999999999995</ele>
        <time>2018-05-24T08:10:37Z</time>
      </trkpt>
      <trkpt lat="42.384588969871402" lon="-5.108128013089299">
        <ele>828.20000000000005</ele>
        <time>2018-05-24T08:11:15Z</time>
      </trkpt>
      <trkpt lat="42.384502971544862" lon="-5.106839966028929">
        <ele>829</ele>
        <time>2018-05-24T08:11:44Z</time>
      </trkpt>
      <trkpt lat="42.384416973218322" lon="-5.10561696253717">
        <ele>828.79999999999995</ele>
        <time>2018-05-24T08:12:11Z</time>
      </trkpt>
      <trkpt lat="42.384373974055052" lon="-5.104844989255071">
        <ele>828.70000000000005</ele>
        <time>2018-05-24T08:12:28Z</time>
      </trkpt>
      <trkpt lat="42.384287975728512" lon="-5.103428028523922">
        <ele>828.79999999999995</ele>
        <time>2018-05-24T08:12:59Z</time>
      </trkpt>
      <trkpt lat="42.384224021807313" lon="-5.102312983945012">
        <ele>828</ele>
        <time>2018-05-24T08:13:23Z</time>
      </trkpt>
      <trkpt lat="42.384138023480773" lon="-5.100960982963443">
        <ele>828.10000000000002</ele>
        <time>2018-05-24T08:13:53Z</time>
      </trkpt>
      <trkpt lat="42.384052025154233" lon="-5.099694980308414">
        <ele>827</ele>
        <time>2018-05-24T08:14:21Z</time>
      </trkpt>
      <trkpt lat="42.383987987414002" lon="-5.098428977653384">
        <ele>826.79999999999995</ele>
        <time>2018-05-24T08:14:49Z</time>
      </trkpt>
      <trkpt lat="42.383966026827693" lon="-5.098256981000304">
        <ele>826.70000000000005</ele>
        <time>2018-05-24T08:14:52Z</time>
      </trkpt>
      <trkpt lat="42.383944988250732" lon="-5.097720958292484">
        <ele>826.39999999999998</ele>
        <time>2018-05-24T08:15:04Z</time>
      </trkpt>
      <trkpt lat="42.383901989087462" lon="-5.097184013575316">
        <ele>825.89999999999998</ele>
        <time>2018-05-24T08:15:16Z</time>
      </trkpt>
      <trkpt lat="42.383944988250732" lon="-5.096110962331295">
        <ele>826.79999999999995</ele>
        <time>2018-05-24T08:15:40Z</time>
      </trkpt>
      <trkpt lat="42.383987987414002" lon="-5.094844959676266">
        <ele>826.70000000000005</ele>
        <time>2018-05-24T08:16:07Z</time>
      </trkpt>
      <trkpt lat="42.384030986577272" lon="-5.093966033309698">
        <ele>826.89999999999998</ele>
        <time>2018-05-24T08:16:27Z</time>
      </trkpt>
      <trkpt lat="42.384073985740542" lon="-5.092763984575868">
        <ele>826.79999999999995</ele>
        <time>2018-05-24T08:16:53Z</time>
      </trkpt>
      <trkpt lat="42.384116984903812" lon="-5.091605018824339">
        <ele>825.70000000000005</ele>
        <time>2018-05-24T08:17:18Z</time>
      </trkpt>
      <trkpt lat="42.384181022644043" lon="-5.09012502618134">
        <ele>824.70000000000005</ele>
        <time>2018-05-24T08:17:51Z</time>
      </trkpt>
      <trkpt lat="42.384073985740542" lon="-5.08832199499011">
        <ele>824</ele>
        <time>2018-05-24T08:18:30Z</time>
      </trkpt>
      <trkpt lat="42.383966026827693" lon="-5.086670005694032">
        <ele>825</ele>
        <time>2018-05-24T08:19:07Z</time>
      </trkpt>
      <trkpt lat="42.383881034329534" lon="-5.085081970319152">
        <ele>825.10000000000002</ele>
        <time>2018-05-24T08:19:42Z</time>
      </trkpt>
      <trkpt lat="42.383795036002994" lon="-5.083923004567623">
        <ele>825.70000000000005</ele>
        <time>2018-05-24T08:20:07Z</time>
      </trkpt>
      <trkpt lat="42.383686993271112" lon="-5.083108032122254">
        <ele>825.89999999999998</ele>
        <time>2018-05-24T08:20:25Z</time>
      </trkpt>
      <trkpt lat="42.383516002446413" lon="-5.081862984225154">
        <ele>824</ele>
        <time>2018-05-24T08:20:53Z</time>
      </trkpt>
      <trkpt lat="42.383344005793333" lon="-5.080854976549745">
        <ele>821.10000000000002</ele>
        <time>2018-05-24T08:21:16Z</time>
      </trkpt>
      <trkpt lat="42.383173014968634" lon="-5.079739009961486">
        <ele>819.70000000000005</ele>
        <time>2018-05-24T08:21:41Z</time>
      </trkpt>
      <trkpt lat="42.383107971400023" lon="-5.079310024157167">
        <ele>820.5</ele>
        <time>2018-05-24T08:21:50Z</time>
      </trkpt>
      <trkpt lat="42.383087016642094" lon="-5.079267024993897">
        <ele>820.60000000000002</ele>
        <time>2018-05-24T08:21:51Z</time>
      </trkpt>
      <trkpt lat="42.383064972236753" lon="-5.079267024993897">
        <ele>820.60000000000002</ele>
        <time>2018-05-24T08:21:52Z</time>
      </trkpt>
      <trkpt lat="42.383044017478824" lon="-5.079138027504087">
        <ele>821</ele>
        <time>2018-05-24T08:21:55Z</time>
      </trkpt>
      <trkpt lat="42.383001018315554" lon="-5.079116988927126">
        <ele>821.10000000000002</ele>
        <time>2018-05-24T08:21:56Z</time>
      </trkpt>
      <trkpt lat="42.382978973910213" lon="-5.079138027504087">
        <ele>821</ele>
        <time>2018-05-24T08:21:57Z</time>
      </trkpt>
      <trkpt lat="42.382829021662474" lon="-5.078365970402956">
        <ele>822</ele>
        <time>2018-05-24T08:22:15Z</time>
      </trkpt>
      <trkpt lat="42.382786022499204" lon="-5.078236972913146">
        <ele>821.89999999999998</ele>
        <time>2018-05-24T08:22:18Z</time>
      </trkpt>
      <trkpt lat="42.382764983922243" lon="-5.078236972913146">
        <ele>821.89999999999998</ele>
        <time>2018-05-24T08:22:18Z</time>
      </trkpt>
      <trkpt lat="42.382743023335934" lon="-5.078130019828677">
        <ele>821.79999999999995</ele>
        <time>2018-05-24T08:22:21Z</time>
      </trkpt>
      <trkpt lat="42.382529033347964" lon="-5.077701034024358">
        <ele>821.5</ele>
        <time>2018-05-24T08:22:32Z</time>
      </trkpt>
      <trkpt lat="42.382486034184694" lon="-5.077615035697818">
        <ele>821.5</ele>
        <time>2018-05-24T08:22:34Z</time>
      </trkpt>
      <trkpt lat="42.382357036694884" lon="-5.077400039881468">
        <ele>821.29999999999995</ele>
        <time>2018-05-24T08:22:40Z</time>
      </trkpt>
      <trkpt lat="42.382378997281194" lon="-5.077164005488157">
        <ele>821.39999999999998</ele>
        <time>2018-05-24T08:22:46Z</time>
      </trkpt>
      <trkpt lat="42.382463989779353" lon="-5.077013969421387">
        <ele>821.5</ele>
        <time>2018-05-24T08:22:50Z</time>
      </trkpt>
      <trkpt lat="42.382506988942623" lon="-5.077035007998347">
        <ele>821.5</ele>
        <time>2018-05-24T08:22:51Z</time>
      </trkpt>
      <trkpt lat="42.382658030837774" lon="-5.077056968584657">
        <ele>821.70000000000005</ele>
        <time>2018-05-24T08:22:56Z</time>
      </trkpt>
      <trkpt lat="42.382807983085513" lon="-5.077013969421387">
        <ele>821.89999999999998</ele>
        <time>2018-05-24T08:23:00Z</time>
      </trkpt>
      <trkpt lat="42.382786022499204" lon="-5.077013969421387">
        <ele>821.79999999999995</ele>
        <time>2018-05-24T08:23:01Z</time>
      </trkpt>
      <trkpt lat="42.382721984758973" lon="-5.077013969421387">
        <ele>821.79999999999995</ele>
        <time>2018-05-24T08:23:03Z</time>
      </trkpt>
      <trkpt lat="42.382658030837774" lon="-5.076993014663458">
        <ele>821.70000000000005</ele>
        <time>2018-05-24T08:23:05Z</time>
      </trkpt>
      <trkpt lat="42.382572032511234" lon="-5.076950015500188">
        <ele>821.60000000000002</ele>
        <time>2018-05-24T08:23:07Z</time>
      </trkpt>
      <trkpt lat="42.382549988105893" lon="-5.076950015500188">
        <ele>821.60000000000002</ele>
        <time>2018-05-24T08:23:08Z</time>
      </trkpt>
      <trkpt lat="42.382463989779353" lon="-5.076864017173648">
        <ele>821.5</ele>
        <time>2018-05-24T08:23:11Z</time>
      </trkpt>
      <trkpt lat="42.382420990616083" lon="-5.076713981106877">
        <ele>821.39999999999998</ele>
        <time>2018-05-24T08:23:15Z</time>
      </trkpt>
      <trkpt lat="42.382400035858154" lon="-5.076649021357298">
        <ele>821.39999999999998</ele>
        <time>2018-05-24T08:23:16Z</time>
      </trkpt>
      <trkpt lat="42.382443035021424" lon="-5.076478030532599">
        <ele>821.39999999999998</ele>
        <time>2018-05-24T08:23:20Z</time>
      </trkpt>
      <trkpt lat="42.382463989779353" lon="-5.076392032206059">
        <ele>821.5</ele>
        <time>2018-05-24T08:23:22Z</time>
      </trkpt>
      <trkpt lat="42.382420990616083" lon="-5.075040031224489">
        <ele>819.60000000000002</ele>
        <time>2018-05-24T08:23:52Z</time>
      </trkpt>
      <trkpt lat="42.382378997281194" lon="-5.074095977470279">
        <ele>819.10000000000002</ele>
        <time>2018-05-24T08:24:12Z</time>
      </trkpt>
      <trkpt lat="42.382335998117924" lon="-5.073923980817199">
        <ele>819.10000000000002</ele>
        <time>2018-05-24T08:24:16Z</time>
      </trkpt>
      <trkpt lat="42.382207000628114" lon="-5.07390302605927">
        <ele>819</ele>
        <time>2018-05-24T08:24:20Z</time>
      </trkpt>
      <trkpt lat="42.382185040041804" lon="-5.073365997523069">
        <ele>819.29999999999995</ele>
        <time>2018-05-24T08:24:32Z</time>
      </trkpt>
      <trkpt lat="42.382164001464844" lon="-5.072379028424621">
        <ele>819.20000000000005</ele>
        <time>2018-05-24T08:24:54Z</time>
      </trkpt>
      <trkpt lat="42.382142962887883" lon="-5.07214299403131">
        <ele>818.89999999999998</ele>
        <time>2018-05-24T08:24:59Z</time>
      </trkpt>
      <trkpt lat="42.381992004811764" lon="-5.071371020749211">
        <ele>817.20000000000005</ele>
        <time>2018-05-24T08:25:16Z</time>
      </trkpt>
      <trkpt lat="42.381735015660524" lon="-5.07055495865643">
        <ele>814.89999999999998</ele>
        <time>2018-05-24T08:25:36Z</time>
      </trkpt>
      <trkpt lat="42.381455982103944" lon="-5.069653987884522">
        <ele>812.20000000000005</ele>
        <time>2018-05-24T08:25:57Z</time>
      </trkpt>
      <trkpt lat="42.381134033203125" lon="-5.068687973544002">
        <ele>810</ele>
        <time>2018-05-24T08:26:20Z</time>
      </trkpt>
      <trkpt lat="42.380769001320004" lon="-5.067830001935363">
        <ele>808</ele>
        <time>2018-05-24T08:26:42Z</time>
      </trkpt>
      <trkpt lat="42.380683002993464" lon="-5.067744003608823">
        <ele>808.10000000000002</ele>
        <time>2018-05-24T08:26:45Z</time>
      </trkpt>
      <trkpt lat="42.380598010495305" lon="-5.067658005282283">
        <ele>808.10000000000002</ele>
        <time>2018-05-24T08:26:48Z</time>
      </trkpt>
      <trkpt lat="42.380318976938725" lon="-5.067250980064273">
        <ele>808.29999999999995</ele>
        <time>2018-05-24T08:27:01Z</time>
      </trkpt>
      <trkpt lat="42.380126025527716" lon="-5.066949985921383">
        <ele>809</ele>
        <time>2018-05-24T08:27:09Z</time>
      </trkpt>
      <trkpt lat="42.379545997828245" lon="-5.066027976572514">
        <ele>809</ele>
        <time>2018-05-24T08:27:36Z</time>
      </trkpt>
      <trkpt lat="42.378880977630615" lon="-5.064932964742184">
        <ele>807.39999999999998</ele>
        <time>2018-05-24T08:28:07Z</time>
      </trkpt>
      <trkpt lat="42.378408992663026" lon="-5.064096031710506">
        <ele>807.89999999999998</ele>
        <time>2018-05-24T08:28:30Z</time>
      </trkpt>
      <trkpt lat="42.378129959106445" lon="-5.063388012349606">
        <ele>809.60000000000002</ele>
        <time>2018-05-24T08:28:48Z</time>
      </trkpt>
      <trkpt lat="42.378043960779905" lon="-5.063088024035096">
        <ele>810.79999999999995</ele>
        <time>2018-05-24T08:28:55Z</time>
      </trkpt>
      <trkpt lat="42.377765011042356" lon="-5.062014972791076">
        <ele>812.5</ele>
        <time>2018-05-24T08:29:20Z</time>
      </trkpt>
      <trkpt lat="42.377551021054387" lon="-5.061157001182437">
        <ele>812.10000000000002</ele>
        <time>2018-05-24T08:29:39Z</time>
      </trkpt>
      <trkpt lat="42.377185989171267" lon="-5.059933997690678">
        <ele>810.29999999999995</ele>
        <time>2018-05-24T08:30:08Z</time>
      </trkpt>
      <trkpt lat="42.376907039433718" lon="-5.058818031102419">
        <ele>809.60000000000002</ele>
        <time>2018-05-24T08:30:34Z</time>
      </trkpt>
      <trkpt lat="42.376520968973637" lon="-5.05716604180634">
        <ele>807.79999999999995</ele>
        <time>2018-05-24T08:31:12Z</time>
      </trkpt>
      <trkpt lat="42.376305973157287" lon="-5.05596399307251">
        <ele>808.5</ele>
        <time>2018-05-24T08:31:39Z</time>
      </trkpt>
      <trkpt lat="42.376176975667477" lon="-5.054977023974061">
        <ele>805.29999999999995</ele>
        <time>2018-05-24T08:32:01Z</time>
      </trkpt>
      <trkpt lat="42.376133976504207" lon="-5.054826987907291">
        <ele>805.10000000000002</ele>
        <time>2018-05-24T08:32:05Z</time>
      </trkpt>
      <trkpt lat="42.375941025093198" lon="-5.053625022992492">
        <ele>801.79999999999995</ele>
        <time>2018-05-24T08:32:32Z</time>
      </trkpt>
      <trkpt lat="42.375575993210077" lon="-5.052102031186223">
        <ele>801.60000000000002</ele>
        <time>2018-05-24T08:33:07Z</time>
      </trkpt>
      <trkpt lat="42.374890018254519" lon="-5.050727985799313">
        <ele>802.5</ele>
        <time>2018-05-24T08:33:43Z</time>
      </trkpt>
      <trkpt lat="42.374332034960389" lon="-5.049613025039434">
        <ele>804</ele>
        <time>2018-05-24T08:34:12Z</time>
      </trkpt>
      <trkpt lat="42.373710013926029" lon="-5.048453975468874">
        <ele>801.70000000000005</ele>
        <time>2018-05-24T08:34:44Z</time>
      </trkpt>
      <trkpt lat="42.373043987900019" lon="-5.047187972813845">
        <ele>802</ele>
        <time>2018-05-24T08:35:18Z</time>
      </trkpt>
      <trkpt lat="42.37227201461792" lon="-5.045643020421267">
        <ele>803.20000000000005</ele>
        <time>2018-05-24T08:35:59Z</time>
      </trkpt>
      <trkpt lat="42.371542034670711" lon="-5.043754996731877">
        <ele>802.39999999999998</ele>
        <time>2018-05-24T08:36:45Z</time>
      </trkpt>
      <trkpt lat="42.370749022811651" lon="-5.041673015803099">
        <ele>802</ele>
        <time>2018-05-24T08:37:37Z</time>
      </trkpt>
      <trkpt lat="42.370125995948911" lon="-5.03997802734375">
        <ele>801.20000000000005</ele>
        <time>2018-05-24T08:38:18Z</time>
      </trkpt>
      <trkpt lat="42.369783008471131" lon="-5.03916297107935">
        <ele>802</ele>
        <time>2018-05-24T08:38:39Z</time>
      </trkpt>
      <trkpt lat="42.369503974914551" lon="-5.038540028035641">
        <ele>802.70000000000005</ele>
        <time>2018-05-24T08:38:55Z</time>
      </trkpt>
      <trkpt lat="42.369611011818051" lon="-5.038455035537481">
        <ele>803</ele>
        <time>2018-05-24T08:38:58Z</time>
      </trkpt>
      <trkpt lat="42.369546974077821" lon="-5.038176001980901">
        <ele>802.89999999999998</ele>
        <time>2018-05-24T08:39:05Z</time>
      </trkpt>
      <trkpt lat="42.369417976588011" lon="-5.03781097009778">
        <ele>802.5</ele>
        <time>2018-05-24T08:39:14Z</time>
      </trkpt>
      <trkpt lat="42.369053028523922" lon="-5.036845039576292">
        <ele>800.60000000000002</ele>
        <time>2018-05-24T08:39:37Z</time>
      </trkpt>
      <trkpt lat="42.368945991620421" lon="-5.036501968279481">
        <ele>800.29999999999995</ele>
        <time>2018-05-24T08:39:46Z</time>
      </trkpt>
      <trkpt lat="42.368925036862493" lon="-5.036415969952941">
        <ele>800.29999999999995</ele>
        <time>2018-05-24T08:39:47Z</time>
      </trkpt>
      <trkpt lat="42.368968036025763" lon="-5.036372970789671">
        <ele>800.29999999999995</ele>
        <time>2018-05-24T08:39:49Z</time>
      </trkpt>
      <trkpt lat="42.368988990783691" lon="-5.036329971626401">
        <ele>800.29999999999995</ele>
        <time>2018-05-24T08:39:50Z</time>
      </trkpt>
      <trkpt lat="42.369010029360652" lon="-5.035794032737613">
        <ele>802.5</ele>
        <time>2018-05-24T08:40:02Z</time>
      </trkpt>
      <trkpt lat="42.369074989110231" lon="-5.035751033574343">
        <ele>802.79999999999995</ele>
        <time>2018-05-24T08:40:04Z</time>
      </trkpt>
      <trkpt lat="42.369288979098201" lon="-5.035622036084533">
        <ele>803.70000000000005</ele>
        <time>2018-05-24T08:40:11Z</time>
      </trkpt>
      <trkpt lat="42.369440020993352" lon="-5.035514999181032">
        <ele>804.39999999999998</ele>
        <time>2018-05-24T08:40:16Z</time>
      </trkpt>
      <trkpt lat="42.369503974914551" lon="-5.034871017560363">
        <ele>808.29999999999995</ele>
        <time>2018-05-24T08:40:30Z</time>
      </trkpt>
      <trkpt lat="42.369589973241091" lon="-5.034076999872923">
        <ele>813.60000000000002</ele>
        <time>2018-05-24T08:40:48Z</time>
      </trkpt>
      <trkpt lat="42.369611011818051" lon="-5.033820010721684">
        <ele>815.39999999999998</ele>
        <time>2018-05-24T08:40:54Z</time>
      </trkpt>
      <trkpt lat="42.369740009307861" lon="-5.033648014068604">
        <ele>815.89999999999998</ele>
        <time>2018-05-24T08:40:59Z</time>
      </trkpt>
      <trkpt lat="42.369869006797671" lon="-5.033648014068604">
        <ele>815.60000000000002</ele>
        <time>2018-05-24T08:41:03Z</time>
      </trkpt>
      <trkpt lat="42.36993296071887" lon="-5.033648014068604">
        <ele>815.39999999999998</ele>
        <time>2018-05-24T08:41:05Z</time>
      </trkpt>
      <trkpt lat="42.370082996785641" lon="-5.033605014905334">
        <ele>815.10000000000002</ele>
        <time>2018-05-24T08:41:09Z</time>
      </trkpt>
      <trkpt lat="42.370168995112181" lon="-5.033711967989802">
        <ele>814.70000000000005</ele>
        <time>2018-05-24T08:41:13Z</time>
      </trkpt>
      <trkpt lat="42.370211994275451" lon="-5.033948002383113">
        <ele>813.60000000000002</ele>
        <time>2018-05-24T08:41:18Z</time>
      </trkpt>
      <trkpt lat="42.370234038680792" lon="-5.033926963806152">
        <ele>813.70000000000005</ele>
        <time>2018-05-24T08:41:19Z</time>
      </trkpt>
      <trkpt lat="42.370254993438721" lon="-5.033906009048224">
        <ele>813.70000000000005</ele>
        <time>2018-05-24T08:41:20Z</time>
      </trkpt>
      <trkpt lat="42.370319031178951" lon="-5.033906009048224">
        <ele>813.60000000000002</ele>
        <time>2018-05-24T08:41:22Z</time>
      </trkpt>
      <trkpt lat="42.370340991765261" lon="-5.033906009048224">
        <ele>813.60000000000002</ele>
        <time>2018-05-24T08:41:22Z</time>
      </trkpt>
      <trkpt lat="42.370383990928531" lon="-5.033883964642882">
        <ele>813.60000000000002</ele>
        <time>2018-05-24T08:41:24Z</time>
      </trkpt>
      <trkpt lat="42.370437970384955" lon="-5.033158008009195">
        <ele>815.39999999999998</ele>
        <time>2018-05-24T08:41:40Z</time>
      </trkpt>
      <trkpt lat="42.37042497843504" lon="-5.033091958612204">
        <ele>815.60000000000002</ele>
        <time>2018-05-24T08:41:41Z</time>
      </trkpt>
      <trkpt lat="42.370410980656743" lon="-5.032045980915427">
        <ele>818.10000000000002</ele>
        <time>2018-05-24T08:42:04Z</time>
      </trkpt>
      <trkpt lat="42.370437970384955" lon="-5.032013040035963">
        <ele>818.10000000000002</ele>
        <time>2018-05-24T08:42:05Z</time>
      </trkpt>
      <trkpt lat="42.370721027255058" lon="-5.030785007402301">
        <ele>819.89999999999998</ele>
        <time>2018-05-24T08:42:33Z</time>
      </trkpt>
      <trkpt lat="42.370721027255058" lon="-5.030618961900473">
        <ele>820.10000000000002</ele>
        <time>2018-05-24T08:42:37Z</time>
      </trkpt>
      <trkpt lat="42.370680961757898" lon="-5.02947399392724">
        <ele>822.20000000000005</ele>
        <time>2018-05-24T08:43:02Z</time>
      </trkpt>
      <trkpt lat="42.370680961757898" lon="-5.028561037033796">
        <ele>826.79999999999995</ele>
        <time>2018-05-24T08:43:22Z</time>
      </trkpt>
      <trkpt lat="42.370680961757898" lon="-5.028544021770358">
        <ele>826.89999999999998</ele>
        <time>2018-05-24T08:43:22Z</time>
      </trkpt>
      <trkpt lat="42.370612984523177" lon="-5.027498966082931">
        <ele>831</ele>
        <time>2018-05-24T08:43:45Z</time>
      </trkpt>
      <trkpt lat="42.370506031438708" lon="-5.026967972517014">
        <ele>831.5</ele>
        <time>2018-05-24T08:43:58Z</time>
      </trkpt>
      <trkpt lat="42.370670987293124" lon="-5.026599001139402">
        <ele>832.79999999999995</ele>
        <time>2018-05-24T08:44:07Z</time>
      </trkpt>
      <trkpt lat="42.37094197422266" lon="-5.026609981432557">
        <ele>833.39999999999998</ele>
        <time>2018-05-24T08:44:15Z</time>
      </trkpt>
      <trkpt lat="42.371284961700439" lon="-5.026245033368468">
        <ele>835</ele>
        <time>2018-05-24T08:44:28Z</time>
      </trkpt>
      <trkpt lat="42.37134899944067" lon="-5.026202034205198">
        <ele>835.10000000000002</ele>
        <time>2018-05-24T08:44:30Z</time>
      </trkpt>
      <trkpt lat="42.371370960026979" lon="-5.026202034205198">
        <ele>835.20000000000005</ele>
        <time>2018-05-24T08:44:31Z</time>
      </trkpt>
      <trkpt lat="42.37139199860394" lon="-5.026245033368468">
        <ele>835.20000000000005</ele>
        <time>2018-05-24T08:44:32Z</time>
      </trkpt>
      <trkpt lat="42.371500041335821" lon="-5.026116035878658">
        <ele>835.39999999999998</ele>
        <time>2018-05-24T08:44:36Z</time>
      </trkpt>
      <trkpt lat="42.37169299274683" lon="-5.025944961234927">
        <ele>835.89999999999998</ele>
        <time>2018-05-24T08:44:43Z</time>
      </trkpt>
      <trkpt lat="42.371820984408259" lon="-5.025837002322078">
        <ele>836.39999999999998</ele>
        <time>2018-05-24T08:44:47Z</time>
      </trkpt>
      <trkpt lat="42.371863983571529" lon="-5.025752009823918">
        <ele>836.60000000000002</ele>
        <time>2018-05-24T08:44:50Z</time>
      </trkpt>
      <trkpt lat="42.371972026303411" lon="-5.025429977104068">
        <ele>837.60000000000002</ele>
        <time>2018-05-24T08:44:57Z</time>
      </trkpt>
      <trkpt lat="42.371906982734799" lon="-5.024850033223629">
        <ele>837.79999999999995</ele>
        <time>2018-05-24T08:45:10Z</time>
      </trkpt>
      <trkpt lat="42.371843028813601" lon="-5.024034976959229">
        <ele>836.60000000000002</ele>
        <time>2018-05-24T08:45:28Z</time>
      </trkpt>
      <trkpt lat="42.371906982734799" lon="-5.023776981979609">
        <ele>836.39999999999998</ele>
        <time>2018-05-24T08:45:34Z</time>
      </trkpt>
      <trkpt lat="42.371949981898069" lon="-5.02367002889514">
        <ele>836.29999999999995</ele>
        <time>2018-05-24T08:45:37Z</time>
      </trkpt>
      <trkpt lat="42.372015025466681" lon="-5.023562991991639">
        <ele>836.29999999999995</ele>
        <time>2018-05-24T08:45:40Z</time>
      </trkpt>
      <trkpt lat="42.372035980224609" lon="-5.023519992828369">
        <ele>836.29999999999995</ele>
        <time>2018-05-24T08:45:41Z</time>
      </trkpt>
      <trkpt lat="42.371929027140141" lon="-5.023240959271789">
        <ele>835.29999999999995</ele>
        <time>2018-05-24T08:45:48Z</time>
      </trkpt>
      <trkpt lat="42.371906982734799" lon="-5.023240959271789">
        <ele>835.29999999999995</ele>
        <time>2018-05-24T08:45:49Z</time>
      </trkpt>
      <trkpt lat="42.371757030487061" lon="-5.023154960945249">
        <ele>834.70000000000005</ele>
        <time>2018-05-24T08:45:53Z</time>
      </trkpt>
      <trkpt lat="42.37152099609375" lon="-5.022897971794009">
        <ele>833.60000000000002</ele>
        <time>2018-05-24T08:46:02Z</time>
      </trkpt>
      <trkpt lat="42.37064098007977" lon="-5.021975040435791">
        <ele>831</ele>
        <time>2018-05-24T08:46:35Z</time>
      </trkpt>
      <trkpt lat="42.369912005960941" lon="-5.021159984171391">
        <ele>829.5</ele>
        <time>2018-05-24T08:47:03Z</time>
      </trkpt>
      <trkpt lat="42.369783008471131" lon="-5.021052025258541">
        <ele>829.5</ele>
        <time>2018-05-24T08:47:08Z</time>
      </trkpt>
      <trkpt lat="42.369740009307861" lon="-5.021030986681581">
        <ele>829.5</ele>
        <time>2018-05-24T08:47:09Z</time>
      </trkpt>
      <trkpt lat="42.369632972404361" lon="-5.020858990028501">
        <ele>829.5</ele>
        <time>2018-05-24T08:47:14Z</time>
      </trkpt>
      <trkpt lat="42.369503974914551" lon="-5.020001018419862">
        <ele>828.5</ele>
        <time>2018-05-24T08:47:33Z</time>
      </trkpt>
      <trkpt lat="42.369440020993352" lon="-5.019721984863281">
        <ele>828.20000000000005</ele>
        <time>2018-05-24T08:47:40Z</time>
      </trkpt>
      <trkpt lat="42.369397021830082" lon="-5.019357036799192">
        <ele>827.20000000000005</ele>
        <time>2018-05-24T08:47:48Z</time>
      </trkpt>
      <trkpt lat="42.369288979098201" lon="-5.018326984718442">
        <ele>824.70000000000005</ele>
        <time>2018-05-24T08:48:11Z</time>
      </trkpt>
      <trkpt lat="42.369139026850462" lon="-5.016954028978944">
        <ele>822.5</ele>
        <time>2018-05-24T08:48:41Z</time>
      </trkpt>
      <trkpt lat="42.368988990783691" lon="-5.015580989420414">
        <ele>821</ele>
        <time>2018-05-24T08:49:12Z</time>
      </trkpt>
      <trkpt lat="42.368839038535953" lon="-5.014056991785765">
        <ele>820</ele>
        <time>2018-05-24T08:49:45Z</time>
      </trkpt>
      <trkpt lat="42.368689002469182" lon="-5.012598037719727">
        <ele>817.20000000000005</ele>
        <time>2018-05-24T08:50:17Z</time>
      </trkpt>
      <trkpt lat="42.368560004979372" lon="-5.012168968096376">
        <ele>816.20000000000005</ele>
        <time>2018-05-24T08:50:28Z</time>
      </trkpt>
      <trkpt lat="42.368517005816102" lon="-5.011996971443296">
        <ele>816</ele>
        <time>2018-05-24T08:50:32Z</time>
      </trkpt>
      <trkpt lat="42.368494961410761" lon="-5.011910973116756">
        <ele>816</ele>
        <time>2018-05-24T08:50:34Z</time>
      </trkpt>
      <trkpt lat="42.368580959737301" lon="-5.010988963767886">
        <ele>815.70000000000005</ele>
        <time>2018-05-24T08:50:54Z</time>
      </trkpt>
      <trkpt lat="42.368537960574031" lon="-5.010452019050717">
        <ele>815</ele>
        <time>2018-05-24T08:51:06Z</time>
      </trkpt>
      <trkpt lat="42.368474006652832" lon="-5.009915996342897">
        <ele>813.39999999999998</ele>
        <time>2018-05-24T08:51:18Z</time>
      </trkpt>
      <trkpt lat="42.368388008326292" lon="-5.008843028917909">
        <ele>812.10000000000002</ele>
        <time>2018-05-24T08:51:41Z</time>
      </trkpt>
      <trkpt lat="42.368366969749331" lon="-5.008692992851138">
        <ele>812</ele>
        <time>2018-05-24T08:51:45Z</time>
      </trkpt>
      <trkpt lat="42.368194973096251" lon="-5.007211994379759">
        <ele>810.79999999999995</ele>
        <time>2018-05-24T08:52:17Z</time>
      </trkpt>
      <trkpt lat="42.367916023358703" lon="-5.00549596734345">
        <ele>810</ele>
        <time>2018-05-24T08:52:56Z</time>
      </trkpt>
      <trkpt lat="42.367722988128662" lon="-5.003542983904481">
        <ele>809.10000000000002</ele>
        <time>2018-05-24T08:53:39Z</time>
      </trkpt>
      <trkpt lat="42.367550991475582" lon="-5.002041030675173">
        <ele>809.60000000000002</ele>
        <time>2018-05-24T08:54:12Z</time>
      </trkpt>
      <trkpt lat="42.367444038391113" lon="-5.001096976920962">
        <ele>809.20000000000005</ele>
        <time>2018-05-24T08:54:33Z</time>
      </trkpt>
      <trkpt lat="42.367358040064573" lon="-5.000323997810483">
        <ele>808.10000000000002</ele>
        <time>2018-05-24T08:54:50Z</time>
      </trkpt>
      <trkpt lat="42.367337001487613" lon="-5.000087963417172">
        <ele>808.5</ele>
        <time>2018-05-24T08:54:56Z</time>
      </trkpt>
      <trkpt lat="42.367358040064573" lon="-5.000130962580442">
        <ele>808.5</ele>
        <time>2018-05-24T08:54:57Z</time>
      </trkpt>
      <trkpt lat="42.367380000650883" lon="-5.000067008659244">
        <ele>808.60000000000002</ele>
        <time>2018-05-24T08:54:58Z</time>
      </trkpt>
      <trkpt lat="42.367358040064573" lon="-4.999938011169434">
        <ele>808.79999999999995</ele>
        <time>2018-05-24T08:55:01Z</time>
      </trkpt>
      <trkpt lat="42.367294002324343" lon="-4.999638022854924">
        <ele>809.20000000000005</ele>
        <time>2018-05-24T08:55:08Z</time>
      </trkpt>
      <trkpt lat="42.367251003161073" lon="-4.999529980123043">
        <ele>809.29999999999995</ele>
        <time>2018-05-24T08:55:11Z</time>
      </trkpt>
      <trkpt lat="42.367143966257572" lon="-4.998500011861324">
        <ele>810</ele>
        <time>2018-05-24T08:55:34Z</time>
      </trkpt>
      <trkpt lat="42.366951014846563" lon="-4.996676025912166">
        <ele>810.29999999999995</ele>
        <time>2018-05-24T08:56:14Z</time>
      </trkpt>
      <trkpt lat="42.366779018193483" lon="-4.994359016418457">
        <ele>815.29999999999995</ele>
        <time>2018-05-24T08:57:05Z</time>
      </trkpt>
      <trkpt lat="42.366607021540403" lon="-4.992856979370117">
        <ele>818.79999999999995</ele>
        <time>2018-05-24T08:57:38Z</time>
      </trkpt>
      <trkpt lat="42.366478024050593" lon="-4.991612015292049">
        <ele>822.70000000000005</ele>
        <time>2018-05-24T08:58:06Z</time>
      </trkpt>
      <trkpt lat="42.366307033225894" lon="-4.990066979080439">
        <ele>824</ele>
        <time>2018-05-24T08:58:40Z</time>
      </trkpt>
      <trkpt lat="42.366156997159123" lon="-4.98854398727417">
        <ele>826.20000000000005</ele>
        <time>2018-05-24T08:59:14Z</time>
      </trkpt>
      <trkpt lat="42.366027999669313" lon="-4.987299023196101">
        <ele>825.70000000000005</ele>
        <time>2018-05-24T08:59:41Z</time>
      </trkpt>
      <trkpt lat="42.365920962765813" lon="-4.986205017194152">
        <ele>826.39999999999998</ele>
        <time>2018-05-24T09:00:05Z</time>
      </trkpt>
      <trkpt lat="42.365748966112733" lon="-4.984616981819272">
        <ele>830.89999999999998</ele>
        <time>2018-05-24T09:00:41Z</time>
      </trkpt>
      <trkpt lat="42.365599013864994" lon="-4.983136989176273">
        <ele>833.20000000000005</ele>
        <time>2018-05-24T09:01:13Z</time>
      </trkpt>
      <trkpt lat="42.365533970296383" lon="-4.982450008392334">
        <ele>834.39999999999998</ele>
        <time>2018-05-24T09:01:28Z</time>
      </trkpt>
      <trkpt lat="42.365513015538454" lon="-4.982278011739254">
        <ele>834.79999999999995</ele>
        <time>2018-05-24T09:01:32Z</time>
      </trkpt>
      <trkpt lat="42.365470016375184" lon="-4.981334041804075">
        <ele>838.70000000000005</ele>
        <time>2018-05-24T09:01:53Z</time>
      </trkpt>
      <trkpt lat="42.365576969459653" lon="-4.979552971199155">
        <ele>844</ele>
        <time>2018-05-24T09:02:32Z</time>
      </trkpt>
      <trkpt lat="42.365619968622923" lon="-4.979060031473637">
        <ele>844.5</ele>
        <time>2018-05-24T09:02:43Z</time>
      </trkpt>
      <trkpt lat="42.365642013028264" lon="-4.978845035657287">
        <ele>844.79999999999995</ele>
        <time>2018-05-24T09:02:48Z</time>
      </trkpt>
      <trkpt lat="42.365662967786193" lon="-4.978266013786197">
        <ele>846.5</ele>
        <time>2018-05-24T09:03:01Z</time>
      </trkpt>
      <trkpt lat="42.365705966949463" lon="-4.976763976737857">
        <ele>851</ele>
        <time>2018-05-24T09:03:33Z</time>
      </trkpt>
      <trkpt lat="42.365791965276003" lon="-4.975648010149598">
        <ele>853.10000000000002</ele>
        <time>2018-05-24T09:03:58Z</time>
      </trkpt>
      <trkpt lat="42.365813003852963" lon="-4.975239979103208">
        <ele>854</ele>
        <time>2018-05-24T09:04:07Z</time>
      </trkpt>
      <trkpt lat="42.365791965276003" lon="-4.975068988278508">
        <ele>854.5</ele>
        <time>2018-05-24T09:04:11Z</time>
      </trkpt>
      <trkpt lat="42.365856003016233" lon="-4.973458992317319">
        <ele>861</ele>
        <time>2018-05-24T09:04:46Z</time>
      </trkpt>
      <trkpt lat="42.365920962765813" lon="-4.973093960434198">
        <ele>862</ele>
        <time>2018-05-24T09:04:54Z</time>
      </trkpt>
      <trkpt lat="42.365877963602543" lon="-4.972707973793149">
        <ele>863</ele>
        <time>2018-05-24T09:05:03Z</time>
      </trkpt>
      <trkpt lat="42.365770004689693" lon="-4.970198012888432">
        <ele>862.29999999999995</ele>
        <time>2018-05-24T09:05:58Z</time>
      </trkpt>
      <trkpt lat="42.365705966949463" lon="-4.969231998547912">
        <ele>860</ele>
        <time>2018-05-24T09:06:19Z</time>
      </trkpt>
      <trkpt lat="42.365642013028264" lon="-4.968417026102543">
        <ele>857</ele>
        <time>2018-05-24T09:06:37Z</time>
      </trkpt>
      <trkpt lat="42.365619968622923" lon="-4.967988040298224">
        <ele>855.89999999999998</ele>
        <time>2018-05-24T09:06:47Z</time>
      </trkpt>
      <trkpt lat="42.365576969459653" lon="-4.967600964009762">
        <ele>855.60000000000002</ele>
        <time>2018-05-24T09:06:55Z</time>
      </trkpt>
      <trkpt lat="42.365513015538454" lon="-4.966527996584773">
        <ele>854</ele>
        <time>2018-05-24T09:07:19Z</time>
      </trkpt>
      <trkpt lat="42.365427017211914" lon="-4.965347992256284">
        <ele>851</ele>
        <time>2018-05-24T09:07:45Z</time>
      </trkpt>
      <trkpt lat="42.365341018885374" lon="-4.964038990437985">
        <ele>850.70000000000005</ele>
        <time>2018-05-24T09:08:14Z</time>
      </trkpt>
      <trkpt lat="42.365255020558834" lon="-4.962815986946225">
        <ele>849.10000000000002</ele>
        <time>2018-05-24T09:08:41Z</time>
      </trkpt>
      <trkpt lat="42.365170028060675" lon="-4.961721980944276">
        <ele>848.70000000000005</ele>
        <time>2018-05-24T09:09:05Z</time>
      </trkpt>
      <trkpt lat="42.365127028897405" lon="-4.961035000160337">
        <ele>848.89999999999998</ele>
        <time>2018-05-24T09:09:20Z</time>
      </trkpt>
      <trkpt lat="42.365018986165524" lon="-4.959768997505307">
        <ele>848</ele>
        <time>2018-05-24T09:09:48Z</time>
      </trkpt>
      <trkpt lat="42.364975987002254" lon="-4.958803988993168">
        <ele>847</ele>
        <time>2018-05-24T09:10:09Z</time>
      </trkpt>
      <trkpt lat="42.364955032244325" lon="-4.955328013747931">
        <ele>839.89999999999998</ele>
        <time>2018-05-24T09:11:25Z</time>
      </trkpt>
      <trkpt lat="42.364932987838984" lon="-4.955305969342589">
        <ele>839.79999999999995</ele>
        <time>2018-05-24T09:11:26Z</time>
      </trkpt>
      <trkpt lat="42.364890994504094" lon="-4.955285014584661">
        <ele>839.79999999999995</ele>
        <time>2018-05-24T09:11:27Z</time>
      </trkpt>
      <trkpt lat="42.364804996177554" lon="-4.955285014584661">
        <ele>839.79999999999995</ele>
        <time>2018-05-24T09:11:30Z</time>
      </trkpt>
      <trkpt lat="42.364290012046695" lon="-4.955262970179319">
        <ele>840</ele>
        <time>2018-05-24T09:11:45Z</time>
      </trkpt>
      <trkpt lat="42.364096976816654" lon="-4.955328013747931">
        <ele>840.39999999999998</ele>
        <time>2018-05-24T09:11:51Z</time>
      </trkpt>
      <trkpt lat="42.364139975979924" lon="-4.955219971016049">
        <ele>840.20000000000005</ele>
        <time>2018-05-24T09:11:54Z</time>
      </trkpt>
      <trkpt lat="42.364181969314814" lon="-4.955070018768311">
        <ele>839.79999999999995</ele>
        <time>2018-05-24T09:11:57Z</time>
      </trkpt>
      <trkpt lat="42.364161014556885" lon="-4.954641032963991">
        <ele>839.10000000000002</ele>
        <time>2018-05-24T09:12:06Z</time>
      </trkpt>
      <trkpt lat="42.364053977653384" lon="-4.954533996060491">
        <ele>839.39999999999998</ele>
        <time>2018-05-24T09:12:10Z</time>
      </trkpt>
      <trkpt lat="42.363861026242375" lon="-4.954490996897221">
        <ele>840</ele>
        <time>2018-05-24T09:12:16Z</time>
      </trkpt>
      <trkpt lat="42.363818027079105" lon="-4.954469036310911">
        <ele>840.10000000000002</ele>
        <time>2018-05-24T09:12:18Z</time>
      </trkpt>
      <trkpt lat="42.363775027915835" lon="-4.954469036310911">
        <ele>840.20000000000005</ele>
        <time>2018-05-24T09:12:19Z</time>
      </trkpt>
      <trkpt lat="42.363752983510494" lon="-4.954469036310911">
        <ele>840.29999999999995</ele>
        <time>2018-05-24T09:12:19Z</time>
      </trkpt>
      <trkpt lat="42.363775027915835" lon="-4.954469036310911">
        <ele>840.20000000000005</ele>
        <time>2018-05-24T09:12:20Z</time>
      </trkpt>
      <trkpt lat="42.363752983510494" lon="-4.954447997733951">
        <ele>840.29999999999995</ele>
        <time>2018-05-24T09:12:21Z</time>
      </trkpt>
      <trkpt lat="42.363709984347224" lon="-4.954447997733951">
        <ele>840.29999999999995</ele>
        <time>2018-05-24T09:12:22Z</time>
      </trkpt>
      <trkpt lat="42.363666985183954" lon="-4.954426037147641">
        <ele>840.29999999999995</ele>
        <time>2018-05-24T09:12:24Z</time>
      </trkpt>
      <trkpt lat="42.363709984347224" lon="-4.95416896417737">
        <ele>840.89999999999998</ele>
        <time>2018-05-24T09:12:29Z</time>
      </trkpt>
      <trkpt lat="42.363581992685795" lon="-4.953782977536321">
        <ele>841.5</ele>
        <time>2018-05-24T09:12:39Z</time>
      </trkpt>
      <trkpt lat="42.363302959129214" lon="-4.952924000099301">
        <ele>840.89999999999998</ele>
        <time>2018-05-24T09:12:59Z</time>
      </trkpt>
      <trkpt lat="42.363280998542905" lon="-4.952796008437872">
        <ele>840.89999999999998</ele>
        <time>2018-05-24T09:13:02Z</time>
      </trkpt>
      <trkpt lat="42.363302959129214" lon="-4.952667010948062">
        <ele>840.89999999999998</ele>
        <time>2018-05-24T09:13:05Z</time>
      </trkpt>
      <trkpt lat="42.363323997706175" lon="-4.952558968216181">
        <ele>841</ele>
        <time>2018-05-24T09:13:07Z</time>
      </trkpt>
      <trkpt lat="42.363366996869445" lon="-4.952409015968442">
        <ele>841.10000000000002</ele>
        <time>2018-05-24T09:13:11Z</time>
      </trkpt>
      <trkpt lat="42.363431034609675" lon="-4.952172981575131">
        <ele>841.20000000000005</ele>
        <time>2018-05-24T09:13:16Z</time>
      </trkpt>
      <trkpt lat="42.363474033772945" lon="-4.952001990750432">
        <ele>841.60000000000002</ele>
        <time>2018-05-24T09:13:20Z</time>
      </trkpt>
      <trkpt lat="42.363495994359255" lon="-4.951958991587162">
        <ele>841.70000000000005</ele>
        <time>2018-05-24T09:13:22Z</time>
      </trkpt>
      <trkpt lat="42.363560032099485" lon="-4.951743995770812">
        <ele>842.5</ele>
        <time>2018-05-24T09:13:27Z</time>
      </trkpt>
      <trkpt lat="42.363624991849065" lon="-4.951766040176153">
        <ele>842.5</ele>
        <time>2018-05-24T09:13:29Z</time>
      </trkpt>
      <trkpt lat="42.363666985183954" lon="-4.951808033511043">
        <ele>842.5</ele>
        <time>2018-05-24T09:13:30Z</time>
      </trkpt>
      <trkpt lat="42.363689029589295" lon="-4.951808033511043">
        <ele>842.5</ele>
        <time>2018-05-24T09:13:31Z</time>
      </trkpt>
      <trkpt lat="42.363646030426025" lon="-4.951808033511043">
        <ele>842.5</ele>
        <time>2018-05-24T09:13:32Z</time>
      </trkpt>
      <trkpt lat="42.363624991849065" lon="-4.951743995770812">
        <ele>842.60000000000002</ele>
        <time>2018-05-24T09:13:34Z</time>
      </trkpt>
      <trkpt lat="42.363646030426025" lon="-4.951636958867312">
        <ele>842.89999999999998</ele>
        <time>2018-05-24T09:13:36Z</time>
      </trkpt>
      <trkpt lat="42.363666985183954" lon="-4.951636958867312">
        <ele>842.89999999999998</ele>
        <time>2018-05-24T09:13:37Z</time>
      </trkpt>
      <trkpt lat="42.363646030426025" lon="-4.951593959704042">
        <ele>843</ele>
        <time>2018-05-24T09:13:38Z</time>
      </trkpt>
      <trkpt lat="42.363666985183954" lon="-4.951550960540772">
        <ele>843.10000000000002</ele>
        <time>2018-05-24T09:13:39Z</time>
      </trkpt>
      <trkpt lat="42.363752983510494" lon="-4.951614998281002">
        <ele>843.10000000000002</ele>
        <time>2018-05-24T09:13:42Z</time>
      </trkpt>
      <trkpt lat="42.363904025405645" lon="-4.951444007456303">
        <ele>843.5</ele>
        <time>2018-05-24T09:13:48Z</time>
      </trkpt>
      <trkpt lat="42.363967979326844" lon="-4.951315009966493">
        <ele>843.79999999999995</ele>
        <time>2018-05-24T09:13:51Z</time>
      </trkpt>
      <trkpt lat="42.364181969314814" lon="-4.951229011639953">
        <ele>844</ele>
        <time>2018-05-24T09:13:58Z</time>
      </trkpt>
      <trkpt lat="42.364224968478084" lon="-4.951229011639953">
        <ele>844</ele>
        <time>2018-05-24T09:13:59Z</time>
      </trkpt>
      <trkpt lat="42.364267967641354" lon="-4.951250972226262">
        <ele>844</ele>
        <time>2018-05-24T09:14:00Z</time>
      </trkpt>
      <trkpt lat="42.364290012046695" lon="-4.951207973062992">
        <ele>844.10000000000002</ele>
        <time>2018-05-24T09:14:01Z</time>
      </trkpt>
      <trkpt lat="42.364353965967894" lon="-4.950434993952513">
        <ele>845.20000000000005</ele>
        <time>2018-05-24T09:14:19Z</time>
      </trkpt>
      <trkpt lat="42.364333011209965" lon="-4.949597977101803">
        <ele>846.60000000000002</ele>
        <time>2018-05-24T09:14:37Z</time>
      </trkpt>
      <trkpt lat="42.364267967641354" lon="-4.949082992970944">
        <ele>846.60000000000002</ele>
        <time>2018-05-24T09:14:48Z</time>
      </trkpt>
      <trkpt lat="42.363904025405645" lon="-4.948611008003354">
        <ele>848.10000000000002</ele>
        <time>2018-05-24T09:15:03Z</time>
      </trkpt>
      <trkpt lat="42.363495994359255" lon="-4.948182022199035">
        <ele>849.10000000000002</ele>
        <time>2018-05-24T09:15:19Z</time>
      </trkpt>
      <trkpt lat="42.363431034609675" lon="-4.948117984458804">
        <ele>849.39999999999998</ele>
        <time>2018-05-24T09:15:21Z</time>
      </trkpt>
      <trkpt lat="42.363237999379635" lon="-4.947882033884525">
        <ele>850.5</ele>
        <time>2018-05-24T09:15:29Z</time>
      </trkpt>
      <trkpt lat="42.363024009391665" lon="-4.947753036394715">
        <ele>851.5</ele>
        <time>2018-05-24T09:15:36Z</time>
      </trkpt>
      <trkpt lat="42.362315990030766" lon="-4.947431003674865">
        <ele>854.60000000000002</ele>
        <time>2018-05-24T09:15:58Z</time>
      </trkpt>
      <trkpt lat="42.361778961494565" lon="-4.947108970955014">
        <ele>855.89999999999998</ele>
        <time>2018-05-24T09:16:15Z</time>
      </trkpt>
      <trkpt lat="42.360942028462887" lon="-4.946722984313965">
        <ele>858.29999999999995</ele>
        <time>2018-05-24T09:16:41Z</time>
      </trkpt>
      <trkpt lat="42.360662994906306" lon="-4.946679985150695">
        <ele>859</ele>
        <time>2018-05-24T09:16:50Z</time>
      </trkpt>
      <trkpt lat="42.360469959676266" lon="-4.946616031229496">
        <ele>859.70000000000005</ele>
        <time>2018-05-24T09:16:56Z</time>
      </trkpt>
      <trkpt lat="42.359548034146428" lon="-4.945993004366756">
        <ele>864.70000000000005</ele>
        <time>2018-05-24T09:17:26Z</time>
      </trkpt>
      <trkpt lat="42.359505034983158" lon="-4.945971965789795">
        <ele>864.60000000000002</ele>
        <time>2018-05-24T09:17:28Z</time>
      </trkpt>
      <trkpt lat="42.359204040840268" lon="-4.945456981658936">
        <ele>864</ele>
        <time>2018-05-24T09:17:42Z</time>
      </trkpt>
      <trkpt lat="42.359183002263308" lon="-4.944556010887027">
        <ele>863</ele>
        <time>2018-05-24T09:18:02Z</time>
      </trkpt>
      <trkpt lat="42.359353993088007" lon="-4.943204009905458">
        <ele>863.60000000000002</ele>
        <time>2018-05-24T09:18:32Z</time>
      </trkpt>
      <trkpt lat="42.359419036656618" lon="-4.942323993891478">
        <ele>864.29999999999995</ele>
        <time>2018-05-24T09:18:51Z</time>
      </trkpt>
      <trkpt lat="42.359439991414547" lon="-4.942067004740238">
        <ele>864.60000000000002</ele>
        <time>2018-05-24T09:18:57Z</time>
      </trkpt>
      <trkpt lat="42.359462035819888" lon="-4.941981006413698">
        <ele>865.10000000000002</ele>
        <time>2018-05-24T09:18:59Z</time>
      </trkpt>
      <trkpt lat="42.359611988067627" lon="-4.941443977877498">
        <ele>868.29999999999995</ele>
        <time>2018-05-24T09:19:11Z</time>
      </trkpt>
      <trkpt lat="42.359482990577817" lon="-4.940392971038818">
        <ele>870.89999999999998</ele>
        <time>2018-05-24T09:19:35Z</time>
      </trkpt>
      <trkpt lat="42.359591033309698" lon="-4.93878398090601">
        <ele>876.89999999999998</ele>
        <time>2018-05-24T09:20:10Z</time>
      </trkpt>
      <trkpt lat="42.359805023297668" lon="-4.937539016827941">
        <ele>876.10000000000002</ele>
        <time>2018-05-24T09:20:38Z</time>
      </trkpt>
      <trkpt lat="42.359697986394167" lon="-4.935564994812012">
        <ele>875.5</ele>
        <time>2018-05-24T09:21:22Z</time>
      </trkpt>
      <trkpt lat="42.359611988067627" lon="-4.934470988810062">
        <ele>874.5</ele>
        <time>2018-05-24T09:21:46Z</time>
      </trkpt>
      <trkpt lat="42.359333038330078" lon="-4.933332977816463">
        <ele>872.10000000000002</ele>
        <time>2018-05-24T09:22:12Z</time>
      </trkpt>
      <trkpt lat="42.359117958694696" lon="-4.932538960129023">
        <ele>868.10000000000002</ele>
        <time>2018-05-24T09:22:30Z</time>
      </trkpt>
      <trkpt lat="42.359054004773498" lon="-4.932175017893314">
        <ele>865.39999999999998</ele>
        <time>2018-05-24T09:22:39Z</time>
      </trkpt>
      <trkpt lat="42.359032966196537" lon="-4.932089019566774">
        <ele>864.70000000000005</ele>
        <time>2018-05-24T09:22:41Z</time>
      </trkpt>
      <trkpt lat="42.359011005610228" lon="-4.931874023750424">
        <ele>863.70000000000005</ele>
        <time>2018-05-24T09:22:45Z</time>
      </trkpt>
      <trkpt lat="42.358882008120418" lon="-4.931252002716065">
        <ele>860.10000000000002</ele>
        <time>2018-05-24T09:23:00Z</time>
      </trkpt>
      <trkpt lat="42.358860969543457" lon="-4.930909015238285">
        <ele>859.70000000000005</ele>
        <time>2018-05-24T09:23:07Z</time>
      </trkpt>
      <trkpt lat="42.358925007283688" lon="-4.930586982518435">
        <ele>859.60000000000002</ele>
        <time>2018-05-24T09:23:14Z</time>
      </trkpt>
      <trkpt lat="42.359247040003538" lon="-4.929620968177915">
        <ele>858.70000000000005</ele>
        <time>2018-05-24T09:23:38Z</time>
      </trkpt>
      <trkpt lat="42.359396992251277" lon="-4.929385017603636">
        <ele>858.60000000000002</ele>
        <time>2018-05-24T09:23:45Z</time>
      </trkpt>
      <trkpt lat="42.359911976382136" lon="-4.928612960502505">
        <ele>858</ele>
        <time>2018-05-24T09:24:07Z</time>
      </trkpt>
      <trkpt lat="42.360234009101987" lon="-4.927260959520936">
        <ele>858.39999999999998</ele>
        <time>2018-05-24T09:24:38Z</time>
      </trkpt>
      <trkpt lat="42.360320007428527" lon="-4.927045963704586">
        <ele>858.70000000000005</ele>
        <time>2018-05-24T09:24:44Z</time>
      </trkpt>
      <trkpt lat="42.360512958839536" lon="-4.926788974553347">
        <ele>858.89999999999998</ele>
        <time>2018-05-24T09:24:52Z</time>
      </trkpt>
      <trkpt lat="42.360535003244877" lon="-4.926767013967037">
        <ele>858.89999999999998</ele>
        <time>2018-05-24T09:24:53Z</time>
      </trkpt>
      <trkpt lat="42.360556041821837" lon="-4.926702976226807">
        <ele>858.89999999999998</ele>
        <time>2018-05-24T09:24:54Z</time>
      </trkpt>
      <trkpt lat="42.360578002408147" lon="-4.926616977900267">
        <ele>858.89999999999998</ele>
        <time>2018-05-24T09:24:56Z</time>
      </trkpt>
      <trkpt lat="42.360535003244877" lon="-4.926659977063537">
        <ele>858.89999999999998</ele>
        <time>2018-05-24T09:24:58Z</time>
      </trkpt>
      <trkpt lat="42.360469959676266" lon="-4.926745975390077">
        <ele>859</ele>
        <time>2018-05-24T09:25:00Z</time>
      </trkpt>
      <trkpt lat="42.360426960512996" lon="-4.926917972043157">
        <ele>859</ele>
        <time>2018-05-24T09:25:04Z</time>
      </trkpt>
      <trkpt lat="42.360406005755067" lon="-4.926896011456847">
        <ele>859</ele>
        <time>2018-05-24T09:25:05Z</time>
      </trkpt>
      <trkpt lat="42.360383961349726" lon="-4.926874972879887">
        <ele>858.89999999999998</ele>
        <time>2018-05-24T09:25:06Z</time>
      </trkpt>
      <trkpt lat="42.360341968014836" lon="-4.926896011456847">
        <ele>858.70000000000005</ele>
        <time>2018-05-24T09:25:07Z</time>
      </trkpt>
      <trkpt lat="42.360320007428527" lon="-4.926939010620117">
        <ele>858.70000000000005</ele>
        <time>2018-05-24T09:25:08Z</time>
      </trkpt>
      <trkpt lat="42.360298968851566" lon="-4.926939010620117">
        <ele>858.60000000000002</ele>
        <time>2018-05-24T09:25:09Z</time>
      </trkpt>
      <trkpt lat="42.360449004918337" lon="-4.925565971061587">
        <ele>858.20000000000005</ele>
        <time>2018-05-24T09:25:39Z</time>
      </trkpt>
      <trkpt lat="42.360599040985107" lon="-4.924943028017879">
        <ele>858.60000000000002</ele>
        <time>2018-05-24T09:25:54Z</time>
      </trkpt>
      <trkpt lat="42.360791992396116" lon="-4.923955975100398">
        <ele>859.39999999999998</ele>
        <time>2018-05-24T09:26:16Z</time>
      </trkpt>
      <trkpt lat="42.360942028462887" lon="-4.92284101434052">
        <ele>859.89999999999998</ele>
        <time>2018-05-24T09:26:41Z</time>
      </trkpt>
      <trkpt lat="42.360963989049196" lon="-4.92196099832654">
        <ele>860.60000000000002</ele>
        <time>2018-05-24T09:27:00Z</time>
      </trkpt>
      <trkpt lat="42.360834991559386" lon="-4.92146696895361">
        <ele>860</ele>
        <time>2018-05-24T09:27:12Z</time>
      </trkpt>
      <trkpt lat="42.360748993232846" lon="-4.920931030064821">
        <ele>860.89999999999998</ele>
        <time>2018-05-24T09:27:24Z</time>
      </trkpt>
      <trkpt lat="42.360728038474917" lon="-4.92015796713531">
        <ele>863</ele>
        <time>2018-05-24T09:27:41Z</time>
      </trkpt>
      <trkpt lat="42.360748993232846" lon="-4.919364033266902">
        <ele>862.20000000000005</ele>
        <time>2018-05-24T09:27:58Z</time>
      </trkpt>
      <trkpt lat="42.360791992396116" lon="-4.918141029775143">
        <ele>858.10000000000002</ele>
        <time>2018-05-24T09:28:25Z</time>
      </trkpt>
      <trkpt lat="42.360857035964727" lon="-4.917390011250973">
        <ele>855.89999999999998</ele>
        <time>2018-05-24T09:28:42Z</time>
      </trkpt>
      <trkpt lat="42.360771037638187" lon="-4.916704036295414">
        <ele>853.60000000000002</ele>
        <time>2018-05-24T09:28:57Z</time>
      </trkpt>
      <trkpt lat="42.360705994069576" lon="-4.916468001902103">
        <ele>852.79999999999995</ele>
        <time>2018-05-24T09:29:02Z</time>
      </trkpt>
      <trkpt lat="42.360662994906306" lon="-4.916274966672063">
        <ele>852.10000000000002</ele>
        <time>2018-05-24T09:29:07Z</time>
      </trkpt>
      <trkpt lat="42.360426960512996" lon="-4.915609024465084">
        <ele>849.70000000000005</ele>
        <time>2018-05-24T09:29:23Z</time>
      </trkpt>
      <trkpt lat="42.360320007428527" lon="-4.915329990908504">
        <ele>848.89999999999998</ele>
        <time>2018-05-24T09:29:30Z</time>
      </trkpt>
      <trkpt lat="42.359954975545406" lon="-4.914321983233094">
        <ele>845.39999999999998</ele>
        <time>2018-05-24T09:29:54Z</time>
      </trkpt>
      <trkpt lat="42.359762024134398" lon="-4.913613963872194">
        <ele>843.20000000000005</ele>
        <time>2018-05-24T09:30:11Z</time>
      </trkpt>
      <trkpt lat="42.359505034983158" lon="-4.912992026656866">
        <ele>842.79999999999995</ele>
        <time>2018-05-24T09:30:27Z</time>
      </trkpt>
      <trkpt lat="42.359439991414547" lon="-4.912840984761715">
        <ele>842.60000000000002</ele>
        <time>2018-05-24T09:30:30Z</time>
      </trkpt>
      <trkpt lat="42.359333038330078" lon="-4.912155009806156">
        <ele>841.79999999999995</ele>
        <time>2018-05-24T09:30:46Z</time>
      </trkpt>
      <trkpt lat="42.359419036656618" lon="-4.911531982943416">
        <ele>841.89999999999998</ele>
        <time>2018-05-24T09:31:00Z</time>
      </trkpt>
      <trkpt lat="42.359462035819888" lon="-4.911296032369137">
        <ele>842</ele>
        <time>2018-05-24T09:31:05Z</time>
      </trkpt>
      <trkpt lat="42.359204040840268" lon="-4.910480976104736">
        <ele>842.5</ele>
        <time>2018-05-24T09:31:24Z</time>
      </trkpt>
      <trkpt lat="42.359161041676998" lon="-4.910394977778196">
        <ele>842.5</ele>
        <time>2018-05-24T09:31:27Z</time>
      </trkpt>
      <trkpt lat="42.359117958694696" lon="-4.910202026367188">
        <ele>842.79999999999995</ele>
        <time>2018-05-24T09:31:31Z</time>
      </trkpt>
      <trkpt lat="42.359140003100038" lon="-4.909836994484067">
        <ele>843.5</ele>
        <time>2018-05-24T09:31:39Z</time>
      </trkpt>
      <trkpt lat="42.359226001426578" lon="-4.909580005332828">
        <ele>844</ele>
        <time>2018-05-24T09:31:45Z</time>
      </trkpt>
      <trkpt lat="42.359676025807858" lon="-4.909171974286437">
        <ele>847.29999999999995</ele>
        <time>2018-05-24T09:32:01Z</time>
      </trkpt>
      <trkpt lat="42.360320007428527" lon="-4.907776974141598">
        <ele>850.89999999999998</ele>
        <time>2018-05-24T09:32:37Z</time>
      </trkpt>
      <trkpt lat="42.360942028462887" lon="-4.90644701756537">
        <ele>850.10000000000002</ele>
        <time>2018-05-24T09:33:12Z</time>
      </trkpt>
      <trkpt lat="42.361306976526976" lon="-4.90561000071466">
        <ele>852</ele>
        <time>2018-05-24T09:33:33Z</time>
      </trkpt>
      <trkpt lat="42.361349975690246" lon="-4.90535301156342">
        <ele>852.79999999999995</ele>
        <time>2018-05-24T09:33:39Z</time>
      </trkpt>
      <trkpt lat="42.360985027626157" lon="-4.90455899387598">
        <ele>854.60000000000002</ele>
        <time>2018-05-24T09:34:00Z</time>
      </trkpt>
      <trkpt lat="42.360642040148377" lon="-4.903635978698731">
        <ele>855.39999999999998</ele>
        <time>2018-05-24T09:34:22Z</time>
      </trkpt>
      <trkpt lat="42.360406005755067" lon="-4.902712963521481">
        <ele>856.10000000000002</ele>
        <time>2018-05-24T09:34:44Z</time>
      </trkpt>
      <trkpt lat="42.360383961349726" lon="-4.902349021285772">
        <ele>856.20000000000005</ele>
        <time>2018-05-24T09:34:52Z</time>
      </trkpt>
      <trkpt lat="42.360449004918337" lon="-4.900696026161313">
        <ele>857</ele>
        <time>2018-05-24T09:35:28Z</time>
      </trkpt>
      <trkpt lat="42.360578002408147" lon="-4.899923969060183">
        <ele>858.5</ele>
        <time>2018-05-24T09:35:45Z</time>
      </trkpt>
      <trkpt lat="42.360662994906306" lon="-4.898528968915343">
        <ele>861.10000000000002</ele>
        <time>2018-05-24T09:36:16Z</time>
      </trkpt>
      <trkpt lat="42.360748993232846" lon="-4.897993030026555">
        <ele>861.29999999999995</ele>
        <time>2018-05-24T09:36:28Z</time>
      </trkpt>
      <trkpt lat="42.360963989049196" lon="-4.896684028208256">
        <ele>862.10000000000002</ele>
        <time>2018-05-24T09:36:57Z</time>
      </trkpt>
      <trkpt lat="42.361114025115967" lon="-4.895890010520816">
        <ele>864.10000000000002</ele>
        <time>2018-05-24T09:37:15Z</time>
      </trkpt>
      <trkpt lat="42.361692963168025" lon="-4.894344974309206">
        <ele>868.39999999999998</ele>
        <time>2018-05-24T09:37:53Z</time>
      </trkpt>
      <trkpt lat="42.362037040293217" lon="-4.893292961642146">
        <ele>869.39999999999998</ele>
        <time>2018-05-24T09:38:18Z</time>
      </trkpt>
      <trkpt lat="42.362380027770996" lon="-4.892414035275579">
        <ele>872.29999999999995</ele>
        <time>2018-05-24T09:38:40Z</time>
      </trkpt>
      <trkpt lat="42.362423026934266" lon="-4.892285037785769">
        <ele>872.79999999999995</ele>
        <time>2018-05-24T09:38:43Z</time>
      </trkpt>
      <trkpt lat="42.362509025260806" lon="-4.891769969835877">
        <ele>874.10000000000002</ele>
        <time>2018-05-24T09:38:55Z</time>
      </trkpt>
      <trkpt lat="42.362529980018735" lon="-4.891640972346067">
        <ele>874.5</ele>
        <time>2018-05-24T09:38:58Z</time>
      </trkpt>
      <trkpt lat="42.362552024424076" lon="-4.891620017588139">
        <ele>874.60000000000002</ele>
        <time>2018-05-24T09:38:58Z</time>
      </trkpt>
      <trkpt lat="42.362595023587346" lon="-4.891640972346067">
        <ele>874.79999999999995</ele>
        <time>2018-05-24T09:39:00Z</time>
      </trkpt>
      <trkpt lat="42.362615978345275" lon="-4.891663016751409">
        <ele>874.89999999999998</ele>
        <time>2018-05-24T09:39:01Z</time>
      </trkpt>
      <trkpt lat="42.362680016085505" lon="-4.891683971509337">
        <ele>875.20000000000005</ele>
        <time>2018-05-24T09:39:03Z</time>
      </trkpt>
      <trkpt lat="42.362658977508545" lon="-4.891640972346067">
        <ele>875.10000000000002</ele>
        <time>2018-05-24T09:39:04Z</time>
      </trkpt>
      <trkpt lat="42.362572979182005" lon="-4.891554974019527">
        <ele>874.79999999999995</ele>
        <time>2018-05-24T09:39:07Z</time>
      </trkpt>
      <trkpt lat="42.362552024424076" lon="-4.891534019261599">
        <ele>874.79999999999995</ele>
        <time>2018-05-24T09:39:08Z</time>
      </trkpt>
      <trkpt lat="42.362509025260806" lon="-4.891511974856257">
        <ele>874.60000000000002</ele>
        <time>2018-05-24T09:39:09Z</time>
      </trkpt>
      <trkpt lat="42.362529980018735" lon="-4.891491020098329">
        <ele>874.70000000000005</ele>
        <time>2018-05-24T09:39:10Z</time>
      </trkpt>
      <trkpt lat="42.362423026934266" lon="-4.891383983194828">
        <ele>874.39999999999998</ele>
        <time>2018-05-24T09:39:14Z</time>
      </trkpt>
      <trkpt lat="42.362358989194036" lon="-4.891362022608519">
        <ele>874.10000000000002</ele>
        <time>2018-05-24T09:39:16Z</time>
      </trkpt>
      <trkpt lat="42.362272990867496" lon="-4.891319023445249">
        <ele>873.79999999999995</ele>
        <time>2018-05-24T09:39:18Z</time>
      </trkpt>
      <trkpt lat="42.362208031117916" lon="-4.891319023445249">
        <ele>873.39999999999998</ele>
        <time>2018-05-24T09:39:20Z</time>
      </trkpt>
      <trkpt lat="42.362037040293217" lon="-4.891254985705018">
        <ele>873.20000000000005</ele>
        <time>2018-05-24T09:39:26Z</time>
      </trkpt>
      <trkpt lat="42.361994041129947" lon="-4.891233025118709">
        <ele>873.5</ele>
        <time>2018-05-24T09:39:27Z</time>
      </trkpt>
      <trkpt lat="42.361821960657835" lon="-4.891125988215208">
        <ele>874.60000000000002</ele>
        <time>2018-05-24T09:39:33Z</time>
      </trkpt>
      <trkpt lat="42.361692963168025" lon="-4.891039989888668">
        <ele>875.39999999999998</ele>
        <time>2018-05-24T09:39:37Z</time>
      </trkpt>
      <trkpt lat="42.361435974016786" lon="-4.890825999900699">
        <ele>876.79999999999995</ele>
        <time>2018-05-24T09:39:46Z</time>
      </trkpt>
      <trkpt lat="42.360942028462887" lon="-4.890482006594539">
        <ele>879.70000000000005</ele>
        <time>2018-05-24T09:40:02Z</time>
      </trkpt>
      <trkpt lat="42.360642040148377" lon="-4.890331970527768">
        <ele>881.70000000000005</ele>
        <time>2018-05-24T09:40:12Z</time>
      </trkpt>
      <trkpt lat="42.360406005755067" lon="-4.890096019953489">
        <ele>883</ele>
        <time>2018-05-24T09:40:21Z</time>
      </trkpt>
      <trkpt lat="42.360298968851566" lon="-4.889730988070369">
        <ele>883.20000000000005</ele>
        <time>2018-05-24T09:40:29Z</time>
      </trkpt>
      <trkpt lat="42.360191009938717" lon="-4.889216003939509">
        <ele>883.29999999999995</ele>
        <time>2018-05-24T09:40:41Z</time>
      </trkpt>
      <trkpt lat="42.360063018277287" lon="-4.888444030657411">
        <ele>883.79999999999995</ele>
        <time>2018-05-24T09:40:58Z</time>
      </trkpt>
      <trkpt lat="42.359762024134398" lon="-4.886769996955991">
        <ele>885.5</ele>
        <time>2018-05-24T09:41:36Z</time>
      </trkpt>
      <trkpt lat="42.359462035819888" lon="-4.885267959907651">
        <ele>884.70000000000005</ele>
        <time>2018-05-24T09:42:10Z</time>
      </trkpt>
      <trkpt lat="42.359097003936768" lon="-4.883658969774842">
        <ele>883.5</ele>
        <time>2018-05-24T09:42:47Z</time>
      </trkpt>
      <trkpt lat="42.358711017295718" lon="-4.882114017382264">
        <ele>882.10000000000002</ele>
        <time>2018-05-24T09:43:23Z</time>
      </trkpt>
      <trkpt lat="42.358345985412598" lon="-4.880590019747615">
        <ele>881.60000000000002</ele>
        <time>2018-05-24T09:43:58Z</time>
      </trkpt>
      <trkpt lat="42.358002997934818" lon="-4.879153026267886">
        <ele>880.10000000000002</ele>
        <time>2018-05-24T09:44:31Z</time>
      </trkpt>
      <trkpt lat="42.357637966051698" lon="-4.877693988382816">
        <ele>878.79999999999995</ele>
        <time>2018-05-24T09:45:05Z</time>
      </trkpt>
      <trkpt lat="42.357316017150879" lon="-4.876298988237977">
        <ele>876.10000000000002</ele>
        <time>2018-05-24T09:45:37Z</time>
      </trkpt>
      <trkpt lat="42.35701602883637" lon="-4.874840034171939">
        <ele>872.70000000000005</ele>
        <time>2018-05-24T09:46:10Z</time>
      </trkpt>
      <trkpt lat="42.35675803385675" lon="-4.87353103235364">
        <ele>874.20000000000005</ele>
        <time>2018-05-24T09:46:39Z</time>
      </trkpt>
      <trkpt lat="42.356543960049748" lon="-4.872371982783079">
        <ele>875.70000000000005</ele>
        <time>2018-05-24T09:47:06Z</time>
      </trkpt>
      <trkpt lat="42.356350002810359" lon="-4.87114897929132">
        <ele>875.89999999999998</ele>
        <time>2018-05-24T09:47:33Z</time>
      </trkpt>
      <trkpt lat="42.356285965070128" lon="-4.870162010192871">
        <ele>874.39999999999998</ele>
        <time>2018-05-24T09:47:55Z</time>
      </trkpt>
      <trkpt lat="42.3562650103122" lon="-4.870033012703061">
        <ele>874.10000000000002</ele>
        <time>2018-05-24T09:47:58Z</time>
      </trkpt>
      <trkpt lat="42.35617901198566" lon="-4.869753979146481">
        <ele>873.5</ele>
        <time>2018-05-24T09:48:04Z</time>
      </trkpt>
      <trkpt lat="42.35575002618134" lon="-4.869690025225282">
        <ele>873.89999999999998</ele>
        <time>2018-05-24T09:48:17Z</time>
      </trkpt>
      <trkpt lat="42.35467697493732" lon="-4.869604026898742">
        <ele>875.79999999999995</ele>
        <time>2018-05-24T09:48:49Z</time>
      </trkpt>
      <trkpt lat="42.35375395976007" lon="-4.869496989995241">
        <ele>876.5</ele>
        <time>2018-05-24T09:49:16Z</time>
      </trkpt>
      <trkpt lat="42.352852988988161" lon="-4.869432030245662">
        <ele>876</ele>
        <time>2018-05-24T09:49:43Z</time>
      </trkpt>
      <trkpt lat="42.352101970463991" lon="-4.869410991668701">
        <ele>874.79999999999995</ele>
        <time>2018-05-24T09:50:05Z</time>
      </trkpt>
      <trkpt lat="42.352058971300721" lon="-4.869410991668701">
        <ele>874.79999999999995</ele>
        <time>2018-05-24T09:50:07Z</time>
      </trkpt>
      <trkpt lat="42.351952018216252" lon="-4.869390036910772">
        <ele>875</ele>
        <time>2018-05-24T09:50:10Z</time>
      </trkpt>
      <trkpt lat="42.351843975484371" lon="-4.869390036910772">
        <ele>875.20000000000005</ele>
        <time>2018-05-24T09:50:13Z</time>
      </trkpt>
      <trkpt lat="42.351823020726442" lon="-4.869304038584232">
        <ele>875.10000000000002</ele>
        <time>2018-05-24T09:50:15Z</time>
      </trkpt>
      <trkpt lat="42.351843975484371" lon="-4.869324993342161">
        <ele>875.10000000000002</ele>
        <time>2018-05-24T09:50:16Z</time>
      </trkpt>
      <trkpt lat="42.351823020726442" lon="-4.869324993342161">
        <ele>875.10000000000002</ele>
        <time>2018-05-24T09:50:16Z</time>
      </trkpt>
      <trkpt lat="42.351715983822942" lon="-4.869175041094422">
        <ele>875</ele>
        <time>2018-05-24T09:50:21Z</time>
      </trkpt>
      <trkpt lat="42.351737022399902" lon="-4.869131958112121">
        <ele>874.79999999999995</ele>
        <time>2018-05-24T09:50:22Z</time>
      </trkpt>
      <trkpt lat="42.352123009040952" lon="-4.868124034255743">
        <ele>871.70000000000005</ele>
        <time>2018-05-24T09:50:47Z</time>
      </trkpt>
      <trkpt lat="42.352531040087342" lon="-4.867029022425413">
        <ele>870</ele>
        <time>2018-05-24T09:51:14Z</time>
      </trkpt>
      <trkpt lat="42.352874027565122" lon="-4.866535998880863">
        <ele>870</ele>
        <time>2018-05-24T09:51:29Z</time>
      </trkpt>
      <trkpt lat="42.35328197479248" lon="-4.866342963650823">
        <ele>869.60000000000002</ele>
        <time>2018-05-24T09:51:42Z</time>
      </trkpt>
      <trkpt lat="42.353303013369441" lon="-4.866321003064513">
        <ele>869.5</ele>
        <time>2018-05-24T09:51:42Z</time>
      </trkpt>
      <trkpt lat="42.35336797311902" lon="-4.866235004737973">
        <ele>869.5</ele>
        <time>2018-05-24T09:51:45Z</time>
      </trkpt>
      <trkpt lat="42.353389011695981" lon="-4.866170966997743">
        <ele>869.5</ele>
        <time>2018-05-24T09:51:47Z</time>
      </trkpt>
      <trkpt lat="42.353475010022521" lon="-4.865741981193423">
        <ele>870.10000000000002</ele>
        <time>2018-05-24T09:51:56Z</time>
      </trkpt>
      <trkpt lat="42.35345397144556" lon="-4.865483986213803">
        <ele>870.5</ele>
        <time>2018-05-24T09:52:02Z</time>
      </trkpt>
      <trkpt lat="42.35336797311902" lon="-4.865440987050533">
        <ele>870.5</ele>
        <time>2018-05-24T09:52:05Z</time>
      </trkpt>
      <trkpt lat="42.35332497395575" lon="-4.865420032292604">
        <ele>870.5</ele>
        <time>2018-05-24T09:52:06Z</time>
      </trkpt>
      <trkpt lat="42.353303013369441" lon="-4.865397987887263">
        <ele>870.5</ele>
        <time>2018-05-24T09:52:07Z</time>
      </trkpt>
      <trkpt lat="42.35336797311902" lon="-4.865226997062564">
        <ele>870.89999999999998</ele>
        <time>2018-05-24T09:52:11Z</time>
      </trkpt>
      <trkpt lat="42.35341097228229" lon="-4.865162037312985">
        <ele>871.10000000000002</ele>
        <time>2018-05-24T09:52:13Z</time>
      </trkpt>
      <trkpt lat="42.353303013369441" lon="-4.865033961832523">
        <ele>871.10000000000002</ele>
        <time>2018-05-24T09:52:17Z</time>
      </trkpt>
      <trkpt lat="42.352488040924072" lon="-4.864775966852903">
        <ele>870.39999999999998</ele>
        <time>2018-05-24T09:52:42Z</time>
      </trkpt>
      <trkpt lat="42.351995017379522" lon="-4.864540016278625">
        <ele>870.10000000000002</ele>
        <time>2018-05-24T09:52:58Z</time>
      </trkpt>
      <trkpt lat="42.351351035758853" lon="-4.864303981885314">
        <ele>870.29999999999995</ele>
        <time>2018-05-24T09:53:17Z</time>
      </trkpt>
      <trkpt lat="42.351158000528812" lon="-4.864197028800845">
        <ele>870.29999999999995</ele>
        <time>2018-05-24T09:53:24Z</time>
      </trkpt>
      <trkpt lat="42.350964965298772" lon="-4.864111030474305">
        <ele>870.29999999999995</ele>
        <time>2018-05-24T09:53:30Z</time>
      </trkpt>
      <trkpt lat="42.350814007222652" lon="-4.864003993570805">
        <ele>870.39999999999998</ele>
        <time>2018-05-24T09:53:35Z</time>
      </trkpt>
      <trkpt lat="42.349913036450744" lon="-4.863188015297055">
        <ele>871.29999999999995</ele>
        <time>2018-05-24T09:54:07Z</time>
      </trkpt>
      <trkpt lat="42.349334014579654" lon="-4.862673031166196">
        <ele>872.79999999999995</ele>
        <time>2018-05-24T09:54:27Z</time>
      </trkpt>
      <trkpt lat="42.348776031285524" lon="-4.862137008458376">
        <ele>873</ele>
        <time>2018-05-24T09:54:48Z</time>
      </trkpt>
      <trkpt lat="42.348733032122254" lon="-4.862071964889765">
        <ele>873.10000000000002</ele>
        <time>2018-05-24T09:54:49Z</time>
      </trkpt>
      <trkpt lat="42.348475037142634" lon="-4.861599979922175">
        <ele>876.20000000000005</ele>
        <time>2018-05-24T09:55:02Z</time>
      </trkpt>
      <trkpt lat="42.348410999402404" lon="-4.861428989097476">
        <ele>877.20000000000005</ele>
        <time>2018-05-24T09:55:07Z</time>
      </trkpt>
      <trkpt lat="42.348197009414434" lon="-4.860957004129887">
        <ele>879.79999999999995</ele>
        <time>2018-05-24T09:55:19Z</time>
      </trkpt>
      <trkpt lat="42.347917975857854" lon="-4.860462974756956">
        <ele>883.5</ele>
        <time>2018-05-24T09:55:32Z</time>
      </trkpt>
      <trkpt lat="42.347831977531314" lon="-4.860313022509217">
        <ele>885.29999999999995</ele>
        <time>2018-05-24T09:55:37Z</time>
      </trkpt>
      <trkpt lat="42.347682025283575" lon="-4.859970035031438">
        <ele>889.70000000000005</ele>
        <time>2018-05-24T09:55:45Z</time>
      </trkpt>
      <trkpt lat="42.347659980878234" lon="-4.859755039215088">
        <ele>892.39999999999998</ele>
        <time>2018-05-24T09:55:50Z</time>
      </trkpt>
      <trkpt lat="42.347767017781734" lon="-4.859411967918277">
        <ele>894.70000000000005</ele>
        <time>2018-05-24T09:55:58Z</time>
      </trkpt>
      <trkpt lat="42.347959969192743" lon="-4.859047019854188">
        <ele>895.5</ele>
        <time>2018-05-24T09:56:08Z</time>
      </trkpt>
      <trkpt lat="42.348002968356013" lon="-4.858961021527648">
        <ele>895.89999999999998</ele>
        <time>2018-05-24T09:56:10Z</time>
      </trkpt>
      <trkpt lat="42.348131965845823" lon="-4.858747031539679">
        <ele>896.79999999999995</ele>
        <time>2018-05-24T09:56:17Z</time>
      </trkpt>
      <trkpt lat="42.348154010251164" lon="-4.858575034886599">
        <ele>897.60000000000002</ele>
        <time>2018-05-24T09:56:20Z</time>
      </trkpt>
      <trkpt lat="42.347874976694584" lon="-4.85621502622962">
        <ele>902</ele>
        <time>2018-05-24T09:57:13Z</time>
      </trkpt>
      <trkpt lat="42.347616981714964" lon="-4.855527961626649">
        <ele>901.10000000000002</ele>
        <time>2018-05-24T09:57:30Z</time>
      </trkpt>
      <trkpt lat="42.347573982551694" lon="-4.855441963300109">
        <ele>901</ele>
        <time>2018-05-24T09:57:32Z</time>
      </trkpt>
      <trkpt lat="42.347530983388424" lon="-4.855312965810299">
        <ele>901.10000000000002</ele>
        <time>2018-05-24T09:57:35Z</time>
      </trkpt>
      <trkpt lat="42.347230995073915" lon="-4.854519031941891">
        <ele>901.10000000000002</ele>
        <time>2018-05-24T09:57:55Z</time>
      </trkpt>
      <trkpt lat="42.347080959007144" lon="-4.85413296148181">
        <ele>901</ele>
        <time>2018-05-24T09:58:04Z</time>
      </trkpt>
      <trkpt lat="42.346716010943055" lon="-4.853125037625432">
        <ele>901.10000000000002</ele>
        <time>2018-05-24T09:58:29Z</time>
      </trkpt>
      <trkpt lat="42.346393978223205" lon="-4.852288020774722">
        <ele>900.29999999999995</ele>
        <time>2018-05-24T09:58:49Z</time>
      </trkpt>
      <trkpt lat="42.346330024302006" lon="-4.852137984707952">
        <ele>900.20000000000005</ele>
        <time>2018-05-24T09:58:53Z</time>
      </trkpt>
      <trkpt lat="42.346307979896665" lon="-4.852051986381412">
        <ele>900.10000000000002</ele>
        <time>2018-05-24T09:58:55Z</time>
      </trkpt>
      <trkpt lat="42.346287025138736" lon="-4.851987026631832">
        <ele>900.10000000000002</ele>
        <time>2018-05-24T09:58:57Z</time>
      </trkpt>
      <trkpt lat="42.345943031832576" lon="-4.851042972877622">
        <ele>900.20000000000005</ele>
        <time>2018-05-24T09:59:20Z</time>
      </trkpt>
      <trkpt lat="42.345556961372495" lon="-4.849991966038942">
        <ele>900.10000000000002</ele>
        <time>2018-05-24T09:59:46Z</time>
      </trkpt>
      <trkpt lat="42.345256973057985" lon="-4.849155033007264">
        <ele>899.60000000000002</ele>
        <time>2018-05-24T10:00:06Z</time>
      </trkpt>
      <trkpt lat="42.344870986416936" lon="-4.848104026168585">
        <ele>899.70000000000005</ele>
        <time>2018-05-24T10:00:32Z</time>
      </trkpt>
      <trkpt lat="42.344698989763856" lon="-4.847588958218694">
        <ele>899.89999999999998</ele>
        <time>2018-05-24T10:00:44Z</time>
      </trkpt>
      <trkpt lat="42.344440994784236" lon="-4.846772979944944">
        <ele>898.89999999999998</ele>
        <time>2018-05-24T10:01:03Z</time>
      </trkpt>
      <trkpt lat="42.344377040863037" lon="-4.846558989956975">
        <ele>898.29999999999995</ele>
        <time>2018-05-24T10:01:08Z</time>
      </trkpt>
      <trkpt lat="42.344204960390925" lon="-4.846087004989386">
        <ele>896.70000000000005</ele>
        <time>2018-05-24T10:01:20Z</time>
      </trkpt>
      <trkpt lat="42.343884017318487" lon="-4.845228027552366">
        <ele>892.20000000000005</ele>
        <time>2018-05-24T10:01:41Z</time>
      </trkpt>
      <trkpt lat="42.343861972913146" lon="-4.845163989812136">
        <ele>891.89999999999998</ele>
        <time>2018-05-24T10:01:43Z</time>
      </trkpt>
      <trkpt lat="42.343818973749876" lon="-4.845057036727667">
        <ele>891.29999999999995</ele>
        <time>2018-05-24T10:01:45Z</time>
      </trkpt>
      <trkpt lat="42.343755019828677" lon="-4.844862995669246">
        <ele>890.29999999999995</ele>
        <time>2018-05-24T10:01:50Z</time>
      </trkpt>
      <trkpt lat="42.343712020665407" lon="-4.844712959602475">
        <ele>889.79999999999995</ele>
        <time>2018-05-24T10:01:54Z</time>
      </trkpt>
      <trkpt lat="42.343669021502137" lon="-4.844583962112665">
        <ele>889.39999999999998</ele>
        <time>2018-05-24T10:01:57Z</time>
      </trkpt>
      <trkpt lat="42.343626022338867" lon="-4.844455970451236">
        <ele>889</ele>
        <time>2018-05-24T10:02:00Z</time>
      </trkpt>
      <trkpt lat="42.343540024012327" lon="-4.844091022387147">
        <ele>887.89999999999998</ele>
        <time>2018-05-24T10:02:08Z</time>
      </trkpt>
      <trkpt lat="42.343389987945557" lon="-4.843469001352787">
        <ele>886.70000000000005</ele>
        <time>2018-05-24T10:02:22Z</time>
      </trkpt>
      <trkpt lat="42.343217991292477" lon="-4.842459987848997">
        <ele>883.79999999999995</ele>
        <time>2018-05-24T10:02:45Z</time>
      </trkpt>
      <trkpt lat="42.343089999631047" lon="-4.841559017077088">
        <ele>881.29999999999995</ele>
        <time>2018-05-24T10:03:05Z</time>
      </trkpt>
      <trkpt lat="42.342875003814697" lon="-4.840614963322878">
        <ele>880.79999999999995</ele>
        <time>2018-05-24T10:03:27Z</time>
      </trkpt>
      <trkpt lat="42.342618014663458" lon="-4.83973503112793">
        <ele>880.60000000000002</ele>
        <time>2018-05-24T10:03:48Z</time>
      </trkpt>
      <trkpt lat="42.342532016336918" lon="-4.839498996734619">
        <ele>880.29999999999995</ele>
        <time>2018-05-24T10:03:53Z</time>
      </trkpt>
      <trkpt lat="42.342509971931577" lon="-4.839455997571349">
        <ele>880.20000000000005</ele>
        <time>2018-05-24T10:03:55Z</time>
      </trkpt>
      <trkpt lat="42.342231022194028" lon="-4.838790977373719">
        <ele>878.20000000000005</ele>
        <time>2018-05-24T10:04:11Z</time>
      </trkpt>
      <trkpt lat="42.342103030532598" lon="-4.838532982394099">
        <ele>877.29999999999995</ele>
        <time>2018-05-24T10:04:18Z</time>
      </trkpt>
      <trkpt lat="42.341845035552979" lon="-4.83797600492835">
        <ele>875.39999999999998</ele>
        <time>2018-05-24T10:04:33Z</time>
      </trkpt>
      <trkpt lat="42.341759037226439" lon="-4.837781963869929">
        <ele>874.5</ele>
        <time>2018-05-24T10:04:38Z</time>
      </trkpt>
      <trkpt lat="42.341737998649478" lon="-4.837675010785461">
        <ele>873.79999999999995</ele>
        <time>2018-05-24T10:04:40Z</time>
      </trkpt>
      <trkpt lat="42.341352012008429" lon="-4.836688041687012">
        <ele>867.29999999999995</ele>
        <time>2018-05-24T10:05:05Z</time>
      </trkpt>
      <trkpt lat="42.340943980962038" lon="-4.835614990442991">
        <ele>862.60000000000002</ele>
        <time>2018-05-24T10:05:31Z</time>
      </trkpt>
      <trkpt lat="42.340622032061219" lon="-4.834714019671083">
        <ele>861.5</ele>
        <time>2018-05-24T10:05:53Z</time>
      </trkpt>
      <trkpt lat="42.340557994320989" lon="-4.834585022181273">
        <ele>861.29999999999995</ele>
        <time>2018-05-24T10:05:56Z</time>
      </trkpt>
      <trkpt lat="42.340514995157719" lon="-4.834371032193303">
        <ele>861.5</ele>
        <time>2018-05-24T10:06:01Z</time>
      </trkpt>
      <trkpt lat="42.340493034571409" lon="-4.834176991134882">
        <ele>861.60000000000002</ele>
        <time>2018-05-24T10:06:05Z</time>
      </trkpt>
      <trkpt lat="42.340557994320989" lon="-4.834156036376953">
        <ele>861.79999999999995</ele>
        <time>2018-05-24T10:06:07Z</time>
      </trkpt>
      <trkpt lat="42.340471995994449" lon="-4.834176991134882">
        <ele>861.60000000000002</ele>
        <time>2018-05-24T10:06:10Z</time>
      </trkpt>
      <trkpt lat="42.340493034571409" lon="-4.834113037213683">
        <ele>861.70000000000005</ele>
        <time>2018-05-24T10:06:12Z</time>
      </trkpt>
      <trkpt lat="42.340428996831179" lon="-4.833748005330563">
        <ele>862</ele>
        <time>2018-05-24T10:06:20Z</time>
      </trkpt>
      <trkpt lat="42.340385997667909" lon="-4.833597969263792">
        <ele>862</ele>
        <time>2018-05-24T10:06:23Z</time>
      </trkpt>
      <trkpt lat="42.340321959927678" lon="-4.833468971773982">
        <ele>861.89999999999998</ele>
        <time>2018-05-24T10:06:27Z</time>
      </trkpt>
      <trkpt lat="42.339891968294978" lon="-4.832439003512263">
        <ele>862.39999999999998</ele>
        <time>2018-05-24T10:06:53Z</time>
      </trkpt>
      <trkpt lat="42.339462982490659" lon="-4.831409035250545">
        <ele>861.89999999999998</ele>
        <time>2018-05-24T10:07:19Z</time>
      </trkpt>
      <trkpt lat="42.339248992502689" lon="-4.830873012542725">
        <ele>861.5</ele>
        <time>2018-05-24T10:07:32Z</time>
      </trkpt>
      <trkpt lat="42.338947998359799" lon="-4.830229030922055">
        <ele>860.60000000000002</ele>
        <time>2018-05-24T10:07:49Z</time>
      </trkpt>
      <trkpt lat="42.338540973141789" lon="-4.829264022409916">
        <ele>860.29999999999995</ele>
        <time>2018-05-24T10:08:13Z</time>
      </trkpt>
      <trkpt lat="42.338133025914431" lon="-4.828361961990595">
        <ele>860.70000000000005</ele>
        <time>2018-05-24T10:08:36Z</time>
      </trkpt>
      <trkpt lat="42.337554004043341" lon="-4.827225040644407">
        <ele>858.89999999999998</ele>
        <time>2018-05-24T10:09:06Z</time>
      </trkpt>
      <trkpt lat="42.33705997467041" lon="-4.826194988563657">
        <ele>857.10000000000002</ele>
        <time>2018-05-24T10:09:33Z</time>
      </trkpt>
      <trkpt lat="42.336630988866091" lon="-4.825357971712947">
        <ele>857.89999999999998</ele>
        <time>2018-05-24T10:09:56Z</time>
      </trkpt>
      <trkpt lat="42.336202003061771" lon="-4.824521960690618">
        <ele>857.10000000000002</ele>
        <time>2018-05-24T10:10:18Z</time>
      </trkpt>
      <trkpt lat="42.33609396032989" lon="-4.824286010116339">
        <ele>857.29999999999995</ele>
        <time>2018-05-24T10:10:24Z</time>
      </trkpt>
      <trkpt lat="42.335965968668461" lon="-4.824071014299989">
        <ele>857.5</ele>
        <time>2018-05-24T10:10:30Z</time>
      </trkpt>
      <trkpt lat="42.335944008082151" lon="-4.824048969894648">
        <ele>857.5</ele>
        <time>2018-05-24T10:10:31Z</time>
      </trkpt>
      <trkpt lat="42.335922969505191" lon="-4.824048969894648">
        <ele>857.5</ele>
        <time>2018-05-24T10:10:31Z</time>
      </trkpt>
      <trkpt lat="42.335901008918881" lon="-4.824048969894648">
        <ele>857.60000000000002</ele>
        <time>2018-05-24T10:10:32Z</time>
      </trkpt>
      <trkpt lat="42.335922969505191" lon="-4.824048969894648">
        <ele>857.5</ele>
        <time>2018-05-24T10:10:33Z</time>
      </trkpt>
      <trkpt lat="42.335879970341921" lon="-4.823985015973449">
        <ele>857.60000000000002</ele>
        <time>2018-05-24T10:10:35Z</time>
      </trkpt>
      <trkpt lat="42.335858009755611" lon="-4.823920978233218">
        <ele>857.60000000000002</ele>
        <time>2018-05-24T10:10:36Z</time>
      </trkpt>
      <trkpt lat="42.335815010592341" lon="-4.823834979906678">
        <ele>857.60000000000002</ele>
        <time>2018-05-24T10:10:39Z</time>
      </trkpt>
      <trkpt lat="42.335493983700871" lon="-4.82325604185462">
        <ele>858</ele>
        <time>2018-05-24T10:10:54Z</time>
      </trkpt>
      <trkpt lat="42.335020992904902" lon="-4.822353981435299">
        <ele>857.5</ele>
        <time>2018-05-24T10:11:19Z</time>
      </trkpt>
      <trkpt lat="42.334742965176702" lon="-4.821774959564209">
        <ele>857.60000000000002</ele>
        <time>2018-05-24T10:11:34Z</time>
      </trkpt>
      <trkpt lat="42.334699966013432" lon="-4.82166800647974">
        <ele>857.60000000000002</ele>
        <time>2018-05-24T10:11:36Z</time>
      </trkpt>
      <trkpt lat="42.334163021296263" lon="-4.82052999548614">
        <ele>857.10000000000002</ele>
        <time>2018-05-24T10:12:06Z</time>
      </trkpt>
      <trkpt lat="42.333626998588443" lon="-4.819521987810731">
        <ele>857.39999999999998</ele>
        <time>2018-05-24T10:12:33Z</time>
      </trkpt>
      <trkpt lat="42.333003971725702" lon="-4.818298984318972">
        <ele>855.5</ele>
        <time>2018-05-24T10:13:06Z</time>
      </trkpt>
      <trkpt lat="42.332339035347104" lon="-4.817183017730713">
        <ele>853.79999999999995</ele>
        <time>2018-05-24T10:13:37Z</time>
      </trkpt>
      <trkpt lat="42.331823967397213" lon="-4.816281963139772">
        <ele>854</ele>
        <time>2018-05-24T10:14:02Z</time>
      </trkpt>
      <trkpt lat="42.331288028508425" lon="-4.815380992367864">
        <ele>854.20000000000005</ele>
        <time>2018-05-24T10:14:27Z</time>
      </trkpt>
      <trkpt lat="42.330729961395264" lon="-4.814479015767574">
        <ele>855.89999999999998</ele>
        <time>2018-05-24T10:14:53Z</time>
      </trkpt>
      <trkpt lat="42.330194022506475" lon="-4.813620960339904">
        <ele>853.29999999999995</ele>
        <time>2018-05-24T10:15:18Z</time>
      </trkpt>
      <trkpt lat="42.329721031710505" lon="-4.812890980392695">
        <ele>851.79999999999995</ele>
        <time>2018-05-24T10:15:39Z</time>
      </trkpt>
      <trkpt lat="42.329593040049076" lon="-4.812334002926946">
        <ele>851.10000000000002</ele>
        <time>2018-05-24T10:15:52Z</time>
      </trkpt>
      <trkpt lat="42.329527996480465" lon="-4.811410987749696">
        <ele>850.20000000000005</ele>
        <time>2018-05-24T10:16:12Z</time>
      </trkpt>
      <trkpt lat="42.329507041722536" lon="-4.810724006965756">
        <ele>850.79999999999995</ele>
        <time>2018-05-24T10:16:27Z</time>
      </trkpt>
      <trkpt lat="42.329550040885806" lon="-4.810616970062256">
        <ele>850.79999999999995</ele>
        <time>2018-05-24T10:16:30Z</time>
      </trkpt>
      <trkpt lat="42.329593040049076" lon="-4.810767006129026">
        <ele>850.60000000000002</ele>
        <time>2018-05-24T10:16:34Z</time>
      </trkpt>
      <trkpt lat="42.329570995643735" lon="-4.810638008639216">
        <ele>850.79999999999995</ele>
        <time>2018-05-24T10:16:36Z</time>
      </trkpt>
      <trkpt lat="42.329550040885806" lon="-4.810553016141057">
        <ele>850.89999999999998</ele>
        <time>2018-05-24T10:16:38Z</time>
      </trkpt>
      <trkpt lat="42.329570995643735" lon="-4.810487972572446">
        <ele>850.89999999999998</ele>
        <time>2018-05-24T10:16:40Z</time>
      </trkpt>
      <trkpt lat="42.329550040885806" lon="-4.810444973409176">
        <ele>851</ele>
        <time>2018-05-24T10:16:41Z</time>
      </trkpt>
      <trkpt lat="42.329484997317195" lon="-4.809522964060307">
        <ele>851.20000000000005</ele>
        <time>2018-05-24T10:17:01Z</time>
      </trkpt>
      <trkpt lat="42.329443003982306" lon="-4.809158015996218">
        <ele>851.10000000000002</ele>
        <time>2018-05-24T10:17:09Z</time>
      </trkpt>
      <trkpt lat="42.329420959576964" lon="-4.808857021853328">
        <ele>850.89999999999998</ele>
        <time>2018-05-24T10:17:16Z</time>
      </trkpt>
      <trkpt lat="42.329463958740234" lon="-4.808342037722468">
        <ele>851.29999999999995</ele>
        <time>2018-05-24T10:17:27Z</time>
      </trkpt>
      <trkpt lat="42.329484997317195" lon="-4.808342037722468">
        <ele>851.39999999999998</ele>
        <time>2018-05-24T10:17:28Z</time>
      </trkpt>
      <trkpt lat="42.329463958740234" lon="-4.808342037722468">
        <ele>851.29999999999995</ele>
        <time>2018-05-24T10:17:29Z</time>
      </trkpt>
      <trkpt lat="42.329443003982306" lon="-4.808299960568547">
        <ele>851.39999999999998</ele>
        <time>2018-05-24T10:17:30Z</time>
      </trkpt>
      <trkpt lat="42.329400004819036" lon="-4.807162033393979">
        <ele>852.89999999999998</ele>
        <time>2018-05-24T10:17:55Z</time>
      </trkpt>
      <trkpt lat="42.329334961250424" lon="-4.80536000803113">
        <ele>853.70000000000005</ele>
        <time>2018-05-24T10:18:34Z</time>
      </trkpt>
      <trkpt lat="42.329271007329226" lon="-4.80390097014606">
        <ele>855.60000000000002</ele>
        <time>2018-05-24T10:19:06Z</time>
      </trkpt>
      <trkpt lat="42.329248962923884" lon="-4.803385986015201">
        <ele>856.79999999999995</ele>
        <time>2018-05-24T10:19:18Z</time>
      </trkpt>
      <trkpt lat="42.329120971262455" lon="-4.802162982523441">
        <ele>859</ele>
        <time>2018-05-24T10:19:45Z</time>
      </trkpt>
      <trkpt lat="42.329034972935915" lon="-4.800981972366571">
        <ele>860</ele>
        <time>2018-05-24T10:20:11Z</time>
      </trkpt>
      <trkpt lat="42.328991973772645" lon="-4.800446033477783">
        <ele>860.5</ele>
        <time>2018-05-24T10:20:23Z</time>
      </trkpt>
      <trkpt lat="42.328970013186336" lon="-4.800295997411013">
        <ele>861.39999999999998</ele>
        <time>2018-05-24T10:20:26Z</time>
      </trkpt>
      <trkpt lat="42.328905975446105" lon="-4.798578964546323">
        <ele>870.5</ele>
        <time>2018-05-24T10:21:04Z</time>
      </trkpt>
      <trkpt lat="42.328948974609375" lon="-4.797591995447874">
        <ele>870.60000000000002</ele>
        <time>2018-05-24T10:21:25Z</time>
      </trkpt>
      <trkpt lat="42.328970013186336" lon="-4.796777023002505">
        <ele>869.79999999999995</ele>
        <time>2018-05-24T10:21:43Z</time>
      </trkpt>
      <trkpt lat="42.328991973772645" lon="-4.795960960909724">
        <ele>870.79999999999995</ele>
        <time>2018-05-24T10:22:01Z</time>
      </trkpt>
      <trkpt lat="42.329034972935915" lon="-4.794566966593266">
        <ele>870.29999999999995</ele>
        <time>2018-05-24T10:22:32Z</time>
      </trkpt>
      <trkpt lat="42.329099010676146" lon="-4.792721020057797">
        <ele>870.5</ele>
        <time>2018-05-24T10:23:12Z</time>
      </trkpt>
      <trkpt lat="42.329077972099185" lon="-4.791004993021488">
        <ele>871</ele>
        <time>2018-05-24T10:23:50Z</time>
      </trkpt>
      <trkpt lat="42.329034972935915" lon="-4.78941704146564">
        <ele>869.70000000000005</ele>
        <time>2018-05-24T10:24:25Z</time>
      </trkpt>
      <trkpt lat="42.329013012349606" lon="-4.78770000860095">
        <ele>871.79999999999995</ele>
        <time>2018-05-24T10:25:02Z</time>
      </trkpt>
      <trkpt lat="42.328991973772645" lon="-4.78615497238934">
        <ele>871.29999999999995</ele>
        <time>2018-05-24T10:25:36Z</time>
      </trkpt>
      <trkpt lat="42.329013012349606" lon="-4.784524021670222">
        <ele>871.60000000000002</ele>
        <time>2018-05-24T10:26:12Z</time>
      </trkpt>
      <trkpt lat="42.329034972935915" lon="-4.782872032374144">
        <ele>871.29999999999995</ele>
        <time>2018-05-24T10:26:48Z</time>
      </trkpt>
      <trkpt lat="42.329056011512876" lon="-4.781240997835994">
        <ele>871</ele>
        <time>2018-05-24T10:27:24Z</time>
      </trkpt>
      <trkpt lat="42.329077972099185" lon="-4.779718006029725">
        <ele>871</ele>
        <time>2018-05-24T10:27:57Z</time>
      </trkpt>
      <trkpt lat="42.329120971262455" lon="-4.778000973165035">
        <ele>870.5</ele>
        <time>2018-05-24T10:28:35Z</time>
      </trkpt>
      <trkpt lat="42.329228008165956" lon="-4.776285029947758">
        <ele>871.10000000000002</ele>
        <time>2018-05-24T10:29:13Z</time>
      </trkpt>
      <trkpt lat="42.329377960413694" lon="-4.774567997083068">
        <ele>869</ele>
        <time>2018-05-24T10:29:51Z</time>
      </trkpt>
      <trkpt lat="42.329463958740234" lon="-4.773387992754579">
        <ele>868.60000000000002</ele>
        <time>2018-05-24T10:30:17Z</time>
      </trkpt>
      <trkpt lat="42.329550040885806" lon="-4.772293986752629">
        <ele>868.10000000000002</ele>
        <time>2018-05-24T10:30:41Z</time>
      </trkpt>
      <trkpt lat="42.329570995643735" lon="-4.77214302867651">
        <ele>868</ele>
        <time>2018-05-24T10:30:44Z</time>
      </trkpt>
      <trkpt lat="42.329613994807005" lon="-4.77165000513196">
        <ele>868</ele>
        <time>2018-05-24T10:30:55Z</time>
      </trkpt>
      <trkpt lat="42.329764030873775" lon="-4.77055499330163">
        <ele>867.79999999999995</ele>
        <time>2018-05-24T10:31:19Z</time>
      </trkpt>
      <trkpt lat="42.329785991460085" lon="-4.770491039380431">
        <ele>867.79999999999995</ele>
        <time>2018-05-24T10:31:21Z</time>
      </trkpt>
      <trkpt lat="42.330065025016665" lon="-4.769096039235592">
        <ele>865.20000000000005</ele>
        <time>2018-05-24T10:31:53Z</time>
      </trkpt>
      <trkpt lat="42.330365013331175" lon="-4.767701961100102">
        <ele>864</ele>
        <time>2018-05-24T10:32:24Z</time>
      </trkpt>
      <trkpt lat="42.330623008310795" lon="-4.766392959281802">
        <ele>863.79999999999995</ele>
        <time>2018-05-24T10:32:54Z</time>
      </trkpt>
      <trkpt lat="42.330902041867375" lon="-4.764954959973693">
        <ele>862.70000000000005</ele>
        <time>2018-05-24T10:33:27Z</time>
      </trkpt>
      <trkpt lat="42.331159031018615" lon="-4.763539005070925">
        <ele>863</ele>
        <time>2018-05-24T10:33:59Z</time>
      </trkpt>
      <trkpt lat="42.331180991604924" lon="-4.763473961502314">
        <ele>863</ele>
        <time>2018-05-24T10:34:00Z</time>
      </trkpt>
      <trkpt lat="42.331351982429624" lon="-4.762638034299016">
        <ele>862.70000000000005</ele>
        <time>2018-05-24T10:34:19Z</time>
      </trkpt>
      <trkpt lat="42.331566978245974" lon="-4.761435985565186">
        <ele>862.5</ele>
        <time>2018-05-24T10:34:46Z</time>
      </trkpt>
      <trkpt lat="42.331823967397213" lon="-4.760126983746886">
        <ele>861.20000000000005</ele>
        <time>2018-05-24T10:35:16Z</time>
      </trkpt>
      <trkpt lat="42.332017002627254" lon="-4.759183013811708">
        <ele>860.39999999999998</ele>
        <time>2018-05-24T10:35:37Z</time>
      </trkpt>
      <trkpt lat="42.332081962376833" lon="-4.758925018832088">
        <ele>860.20000000000005</ele>
        <time>2018-05-24T10:35:43Z</time>
      </trkpt>
      <trkpt lat="42.332146000117064" lon="-4.758496033027768">
        <ele>859.39999999999998</ele>
        <time>2018-05-24T10:35:53Z</time>
      </trkpt>
      <trkpt lat="42.332167960703373" lon="-4.758324958384037">
        <ele>859.10000000000002</ele>
        <time>2018-05-24T10:35:57Z</time>
      </trkpt>
      <trkpt lat="42.332296036183834" lon="-4.757402027025819">
        <ele>857.10000000000002</ele>
        <time>2018-05-24T10:36:17Z</time>
      </trkpt>
      <trkpt lat="42.332488987594843" lon="-4.75609302520752">
        <ele>854.60000000000002</ele>
        <time>2018-05-24T10:36:47Z</time>
      </trkpt>
      <trkpt lat="42.332617985084653" lon="-4.75508501753211">
        <ele>853.29999999999995</ele>
        <time>2018-05-24T10:37:09Z</time>
      </trkpt>
      <trkpt lat="42.332768021151423" lon="-4.754096958786249">
        <ele>853.29999999999995</ele>
        <time>2018-05-24T10:37:31Z</time>
      </trkpt>
      <trkpt lat="42.332897018641233" lon="-4.7531099896878">
        <ele>852.29999999999995</ele>
        <time>2018-05-24T10:37:53Z</time>
      </trkpt>
      <trkpt lat="42.333069015294313" lon="-4.751972984522581">
        <ele>851.89999999999998</ele>
        <time>2018-05-24T10:38:19Z</time>
      </trkpt>
      <trkpt lat="42.333241011947393" lon="-4.750663982704282">
        <ele>852.10000000000002</ele>
        <time>2018-05-24T10:38:48Z</time>
      </trkpt>
      <trkpt lat="42.333390964195132" lon="-4.749548016116023">
        <ele>850.89999999999998</ele>
        <time>2018-05-24T10:39:13Z</time>
      </trkpt>
      <trkpt lat="42.333541000261903" lon="-4.748583007603884">
        <ele>852.10000000000002</ele>
        <time>2018-05-24T10:39:34Z</time>
      </trkpt>
      <trkpt lat="42.333712996914983" lon="-4.747337959706783">
        <ele>852.29999999999995</ele>
        <time>2018-05-24T10:40:02Z</time>
      </trkpt>
      <trkpt lat="42.333906032145023" lon="-4.746115040034056">
        <ele>850.20000000000005</ele>
        <time>2018-05-24T10:40:29Z</time>
      </trkpt>
      <trkpt lat="42.334141982719302" lon="-4.744634963572025">
        <ele>850.10000000000002</ele>
        <time>2018-05-24T10:41:03Z</time>
      </trkpt>
      <trkpt lat="42.334398971870542" lon="-4.743090011179447">
        <ele>850.60000000000002</ele>
        <time>2018-05-24T10:41:37Z</time>
      </trkpt>
      <trkpt lat="42.334592007100582" lon="-4.741952000185847">
        <ele>854.70000000000005</ele>
        <time>2018-05-24T10:42:03Z</time>
      </trkpt>
      <trkpt lat="42.334807002916932" lon="-4.740515006706119">
        <ele>851.89999999999998</ele>
        <time>2018-05-24T10:42:35Z</time>
      </trkpt>
      <trkpt lat="42.335086036473513" lon="-4.73873401992023">
        <ele>851</ele>
        <time>2018-05-24T10:43:15Z</time>
      </trkpt>
      <trkpt lat="42.335364986211061" lon="-4.737039031460881">
        <ele>849</ele>
        <time>2018-05-24T10:43:53Z</time>
      </trkpt>
      <trkpt lat="42.335644019767642" lon="-4.735343037173152">
        <ele>848.5</ele>
        <time>2018-05-24T10:44:31Z</time>
      </trkpt>
      <trkpt lat="42.335793972015381" lon="-4.734312985092402">
        <ele>848.5</ele>
        <time>2018-05-24T10:44:54Z</time>
      </trkpt>
      <trkpt lat="42.336073005571961" lon="-4.732574997469783">
        <ele>849.10000000000002</ele>
        <time>2018-05-24T10:45:33Z</time>
      </trkpt>
      <trkpt lat="42.33609396032989" lon="-4.732510959729552">
        <ele>849.20000000000005</ele>
        <time>2018-05-24T10:45:35Z</time>
      </trkpt>
      <trkpt lat="42.336202003061771" lon="-4.731780979782343">
        <ele>849.89999999999998</ele>
        <time>2018-05-24T10:45:51Z</time>
      </trkpt>
      <trkpt lat="42.336245002225041" lon="-4.731503035873175">
        <ele>850</ele>
        <time>2018-05-24T10:45:57Z</time>
      </trkpt>
      <trkpt lat="42.336415993049741" lon="-4.730322025716305">
        <ele>848.10000000000002</ele>
        <time>2018-05-24T10:46:23Z</time>
      </trkpt>
      <trkpt lat="42.336716987192631" lon="-4.728326965123415">
        <ele>845.60000000000002</ele>
        <time>2018-05-24T10:47:08Z</time>
      </trkpt>
      <trkpt lat="42.336996020749211" lon="-4.726459980010986">
        <ele>845.89999999999998</ele>
        <time>2018-05-24T10:47:50Z</time>
      </trkpt>
      <trkpt lat="42.33727497048676" lon="-4.724506996572018">
        <ele>845.5</ele>
        <time>2018-05-24T10:48:33Z</time>
      </trkpt>
      <trkpt lat="42.337554004043341" lon="-4.722575973719358">
        <ele>845</ele>
        <time>2018-05-24T10:49:17Z</time>
      </trkpt>
      <trkpt lat="42.33781099319458" lon="-4.720731033012271">
        <ele>844</ele>
        <time>2018-05-24T10:49:58Z</time>
      </trkpt>
      <trkpt lat="42.337961029261351" lon="-4.719679020345211">
        <ele>843.20000000000005</ele>
        <time>2018-05-24T10:50:21Z</time>
      </trkpt>
      <trkpt lat="42.338153980672359" lon="-4.718370018526912">
        <ele>844</ele>
        <time>2018-05-24T10:50:50Z</time>
      </trkpt>
      <trkpt lat="42.33843301422894" lon="-4.716395996510983">
        <ele>844</ele>
        <time>2018-05-24T10:51:34Z</time>
      </trkpt>
      <trkpt lat="42.338711963966489" lon="-4.714358020573854">
        <ele>843.5</ele>
        <time>2018-05-24T10:52:20Z</time>
      </trkpt>
      <trkpt lat="42.338990997523069" lon="-4.712511990219355">
        <ele>841.89999999999998</ele>
        <time>2018-05-24T10:53:01Z</time>
      </trkpt>
      <trkpt lat="42.33922703191638" lon="-4.710881961509585">
        <ele>841.39999999999998</ele>
        <time>2018-05-24T10:53:38Z</time>
      </trkpt>
      <trkpt lat="42.339462982490659" lon="-4.709271965548396">
        <ele>841.60000000000002</ele>
        <time>2018-05-24T10:54:14Z</time>
      </trkpt>
      <trkpt lat="42.339613018557429" lon="-4.708091961219907">
        <ele>840.20000000000005</ele>
        <time>2018-05-24T10:54:40Z</time>
      </trkpt>
      <trkpt lat="42.339742016047239" lon="-4.707104992121458">
        <ele>840</ele>
        <time>2018-05-24T10:55:02Z</time>
      </trkpt>
      <trkpt lat="42.340000011026859" lon="-4.705367004498839">
        <ele>840</ele>
        <time>2018-05-24T10:55:41Z</time>
      </trkpt>
      <trkpt lat="42.340171001851559" lon="-4.70399396494031">
        <ele>840.70000000000005</ele>
        <time>2018-05-24T10:56:11Z</time>
      </trkpt>
      <trkpt lat="42.340364037081599" lon="-4.702492011711001">
        <ele>839.10000000000002</ele>
        <time>2018-05-24T10:56:44Z</time>
      </trkpt>
      <trkpt lat="42.340557994320989" lon="-4.700968014076352">
        <ele>840</ele>
        <time>2018-05-24T10:57:18Z</time>
      </trkpt>
      <trkpt lat="42.340728985145688" lon="-4.699659012258053">
        <ele>839.70000000000005</ele>
        <time>2018-05-24T10:57:48Z</time>
      </trkpt>
      <trkpt lat="42.340879021212459" lon="-4.698371971026063">
        <ele>838.5</ele>
        <time>2018-05-24T10:58:16Z</time>
      </trkpt>
      <trkpt lat="42.340986980125308" lon="-4.697641991078854">
        <ele>837.39999999999998</ele>
        <time>2018-05-24T10:58:32Z</time>
      </trkpt>
      <trkpt lat="42.341157970950007" lon="-4.696398032829166">
        <ele>836.89999999999998</ele>
        <time>2018-05-24T10:59:00Z</time>
      </trkpt>
      <trkpt lat="42.341200970113277" lon="-4.695904003456235">
        <ele>837.10000000000002</ele>
        <time>2018-05-24T10:59:11Z</time>
      </trkpt>
      <trkpt lat="42.341329967603087" lon="-4.694788036867976">
        <ele>837</ele>
        <time>2018-05-24T10:59:36Z</time>
      </trkpt>
      <trkpt lat="42.341523002833128" lon="-4.693221962079406">
        <ele>835</ele>
        <time>2018-05-24T11:00:11Z</time>
      </trkpt>
      <trkpt lat="42.341652000322938" lon="-4.692171039059758">
        <ele>835</ele>
        <time>2018-05-24T11:00:34Z</time>
      </trkpt>
      <trkpt lat="42.341802036389709" lon="-4.690862037241459">
        <ele>836.29999999999995</ele>
        <time>2018-05-24T11:01:03Z</time>
      </trkpt>
      <trkpt lat="42.341931033879519" lon="-4.689530991017819">
        <ele>836</ele>
        <time>2018-05-24T11:01:32Z</time>
      </trkpt>
      <trkpt lat="42.342080986127257" lon="-4.68811503611505">
        <ele>838.20000000000005</ele>
        <time>2018-05-24T11:02:04Z</time>
      </trkpt>
      <trkpt lat="42.342252982780337" lon="-4.686677036806941">
        <ele>836.29999999999995</ele>
        <time>2018-05-24T11:02:36Z</time>
      </trkpt>
      <trkpt lat="42.342274021357298" lon="-4.68646296299994">
        <ele>836</ele>
        <time>2018-05-24T11:02:40Z</time>
      </trkpt>
      <trkpt lat="42.342317020520568" lon="-4.686076976358891">
        <ele>835.60000000000002</ele>
        <time>2018-05-24T11:02:49Z</time>
      </trkpt>
      <trkpt lat="42.342360019683838" lon="-4.685798026621342">
        <ele>835.29999999999995</ele>
        <time>2018-05-24T11:02:55Z</time>
      </trkpt>
      <trkpt lat="42.342489017173648" lon="-4.684595977887511">
        <ele>834.5</ele>
        <time>2018-05-24T11:03:22Z</time>
      </trkpt>
      <trkpt lat="42.342681968584657" lon="-4.683029986917973">
        <ele>833.5</ele>
        <time>2018-05-24T11:03:57Z</time>
      </trkpt>
      <trkpt lat="42.342832004651427" lon="-4.681485034525394">
        <ele>834</ele>
        <time>2018-05-24T11:04:31Z</time>
      </trkpt>
      <trkpt lat="42.342982040718198" lon="-4.680262031033635">
        <ele>832.89999999999998</ele>
        <time>2018-05-24T11:04:58Z</time>
      </trkpt>
      <trkpt lat="42.343089999631047" lon="-4.678844986483455">
        <ele>834.89999999999998</ele>
        <time>2018-05-24T11:05:29Z</time>
      </trkpt>
      <trkpt lat="42.343217991292477" lon="-4.677621982991695">
        <ele>834</ele>
        <time>2018-05-24T11:05:56Z</time>
      </trkpt>
      <trkpt lat="42.343346988782287" lon="-4.676292026415467">
        <ele>834.5</ele>
        <time>2018-05-24T11:06:26Z</time>
      </trkpt>
      <trkpt lat="42.343497024849057" lon="-4.674875987693667">
        <ele>834.20000000000005</ele>
        <time>2018-05-24T11:06:57Z</time>
      </trkpt>
      <trkpt lat="42.343646977096796" lon="-4.673180999234319">
        <ele>832</ele>
        <time>2018-05-24T11:07:34Z</time>
      </trkpt>
      <trkpt lat="42.343775974586606" lon="-4.67197903431952">
        <ele>832</ele>
        <time>2018-05-24T11:08:01Z</time>
      </trkpt>
      <trkpt lat="42.343884017318487" lon="-4.670627033337951">
        <ele>832</ele>
        <time>2018-05-24T11:08:31Z</time>
      </trkpt>
      <trkpt lat="42.343990970402956" lon="-4.669038997963071">
        <ele>829.89999999999998</ele>
        <time>2018-05-24T11:09:06Z</time>
      </trkpt>
      <trkpt lat="42.344076968729496" lon="-4.667709041386843">
        <ele>830.60000000000002</ele>
        <time>2018-05-24T11:09:35Z</time>
      </trkpt>
      <trkpt lat="42.344184005632997" lon="-4.666549991816282">
        <ele>832.29999999999995</ele>
        <time>2018-05-24T11:10:00Z</time>
      </trkpt>
      <trkpt lat="42.344204960390925" lon="-4.665669975802302">
        <ele>831.89999999999998</ele>
        <time>2018-05-24T11:10:20Z</time>
      </trkpt>
      <trkpt lat="42.344247959554195" lon="-4.664040030911565">
        <ele>832.10000000000002</ele>
        <time>2018-05-24T11:10:56Z</time>
      </trkpt>
      <trkpt lat="42.344290958717465" lon="-4.662387035787106">
        <ele>832.29999999999995</ele>
        <time>2018-05-24T11:11:32Z</time>
      </trkpt>
      <trkpt lat="42.344356002286077" lon="-4.661013996228576">
        <ele>831</ele>
        <time>2018-05-24T11:12:02Z</time>
      </trkpt>
      <trkpt lat="42.344377040863037" lon="-4.659727038815618">
        <ele>830.60000000000002</ele>
        <time>2018-05-24T11:12:30Z</time>
      </trkpt>
      <trkpt lat="42.344483993947506" lon="-4.659339962527156">
        <ele>831.10000000000002</ele>
        <time>2018-05-24T11:12:39Z</time>
      </trkpt>
      <trkpt lat="42.344806026667356" lon="-4.659296963363886">
        <ele>831.79999999999995</ele>
        <time>2018-05-24T11:12:49Z</time>
      </trkpt>
      <trkpt lat="42.344935024157166" lon="-4.659254970028997">
        <ele>832.10000000000002</ele>
        <time>2018-05-24T11:12:53Z</time>
      </trkpt>
      <trkpt lat="42.345213973894715" lon="-4.658589027822018">
        <ele>832.60000000000002</ele>
        <time>2018-05-24T11:13:09Z</time>
      </trkpt>
      <trkpt lat="42.345256973057985" lon="-4.658332038670778">
        <ele>832.39999999999998</ele>
        <time>2018-05-24T11:13:15Z</time>
      </trkpt>
      <trkpt lat="42.345235012471676" lon="-4.657816970720887">
        <ele>831.89999999999998</ele>
        <time>2018-05-24T11:13:27Z</time>
      </trkpt>
      <trkpt lat="42.344912979751825" lon="-4.656207980588079">
        <ele>829.79999999999995</ele>
        <time>2018-05-24T11:14:03Z</time>
      </trkpt>
      <trkpt lat="42.344440994784236" lon="-4.65444803237915">
        <ele>828.79999999999995</ele>
        <time>2018-05-24T11:14:44Z</time>
      </trkpt>
      <trkpt lat="42.344098007306457" lon="-4.653031993657351">
        <ele>828.5</ele>
        <time>2018-05-24T11:15:17Z</time>
      </trkpt>
      <trkpt lat="42.343926010653377" lon="-4.651701031252742">
        <ele>827.79999999999995</ele>
        <time>2018-05-24T11:15:46Z</time>
      </trkpt>
      <trkpt lat="42.343775974586606" lon="-4.649813007563353">
        <ele>825.79999999999995</ele>
        <time>2018-05-24T11:16:28Z</time>
      </trkpt>
      <trkpt lat="42.343646977096796" lon="-4.648290015757084">
        <ele>826.39999999999998</ele>
        <time>2018-05-24T11:17:02Z</time>
      </trkpt>
      <trkpt lat="42.343540024012327" lon="-4.646529983729124">
        <ele>825.20000000000005</ele>
        <time>2018-05-24T11:17:40Z</time>
      </trkpt>
      <trkpt lat="42.343432987108827" lon="-4.645049991086125">
        <ele>828.10000000000002</ele>
        <time>2018-05-24T11:18:13Z</time>
      </trkpt>
      <trkpt lat="42.343283034861088" lon="-4.643160961568356">
        <ele>827.39999999999998</ele>
        <time>2018-05-24T11:18:54Z</time>
      </trkpt>
      <trkpt lat="42.343217991292477" lon="-4.642110038548708">
        <ele>828.29999999999995</ele>
        <time>2018-05-24T11:19:18Z</time>
      </trkpt>
      <trkpt lat="42.343131992965937" lon="-4.641122985631228">
        <ele>825.70000000000005</ele>
        <time>2018-05-24T11:19:39Z</time>
      </trkpt>
      <trkpt lat="42.343111038208008" lon="-4.640973033383489">
        <ele>825.89999999999998</ele>
        <time>2018-05-24T11:19:43Z</time>
      </trkpt>
      <trkpt lat="42.343025039881468" lon="-4.639792023226619">
        <ele>827.70000000000005</ele>
        <time>2018-05-24T11:20:09Z</time>
      </trkpt>
      <trkpt lat="42.342895958572626" lon="-4.63820499368012">
        <ele>828.70000000000005</ele>
        <time>2018-05-24T11:20:44Z</time>
      </trkpt>
      <trkpt lat="42.342789005488157" lon="-4.636788032948971">
        <ele>826.29999999999995</ele>
        <time>2018-05-24T11:21:15Z</time>
      </trkpt>
      <trkpt lat="42.342618014663458" lon="-4.634792972356081">
        <ele>827.5</ele>
        <time>2018-05-24T11:21:59Z</time>
      </trkpt>
      <trkpt lat="42.342446018010378" lon="-4.633205020800233">
        <ele>827.29999999999995</ele>
        <time>2018-05-24T11:22:34Z</time>
      </trkpt>
      <trkpt lat="42.342338981106877" lon="-4.632002972066402">
        <ele>826.20000000000005</ele>
        <time>2018-05-24T11:23:01Z</time>
      </trkpt>
      <trkpt lat="42.342231022194028" lon="-4.630287028849125">
        <ele>825.70000000000005</ele>
        <time>2018-05-24T11:23:38Z</time>
      </trkpt>
      <trkpt lat="42.342060031369328" lon="-4.628549041226506">
        <ele>826.89999999999998</ele>
        <time>2018-05-24T11:24:17Z</time>
      </trkpt>
      <trkpt lat="42.341865990310907" lon="-4.626852963119745">
        <ele>825.29999999999995</ele>
        <time>2018-05-24T11:24:54Z</time>
      </trkpt>
      <trkpt lat="42.341716038063169" lon="-4.625351009890437">
        <ele>827.79999999999995</ele>
        <time>2018-05-24T11:25:28Z</time>
      </trkpt>
      <trkpt lat="42.341566001996398" lon="-4.623742019757628">
        <ele>824.39999999999998</ele>
        <time>2018-05-24T11:26:03Z</time>
      </trkpt>
      <trkpt lat="42.341480003669858" lon="-4.622433017939329">
        <ele>823.29999999999995</ele>
        <time>2018-05-24T11:26:32Z</time>
      </trkpt>
      <trkpt lat="42.341458965092897" lon="-4.622196983546019">
        <ele>823.29999999999995</ele>
        <time>2018-05-24T11:26:37Z</time>
      </trkpt>
      <trkpt lat="42.341329967603087" lon="-4.621896995231509">
        <ele>822.89999999999998</ele>
        <time>2018-05-24T11:26:45Z</time>
      </trkpt>
      <trkpt lat="42.341266013681889" lon="-4.621660960838199">
        <ele>822.5</ele>
        <time>2018-05-24T11:26:50Z</time>
      </trkpt>
      <trkpt lat="42.341329967603087" lon="-4.62133901193738">
        <ele>822.39999999999998</ele>
        <time>2018-05-24T11:26:58Z</time>
      </trkpt>
      <trkpt lat="42.341243969276547" lon="-4.61996597237885">
        <ele>822.5</ele>
        <time>2018-05-24T11:27:28Z</time>
      </trkpt>
      <trkpt lat="42.341157970950007" lon="-4.618592010810971">
        <ele>821.20000000000005</ele>
        <time>2018-05-24T11:27:58Z</time>
      </trkpt>
      <trkpt lat="42.341094017028809" lon="-4.616854023188353">
        <ele>822.70000000000005</ele>
        <time>2018-05-24T11:28:36Z</time>
      </trkpt>
      <trkpt lat="42.341051017865539" lon="-4.616038966923952">
        <ele>823</ele>
        <time>2018-05-24T11:28:54Z</time>
      </trkpt>
      <trkpt lat="42.340986980125308" lon="-4.614772964268923">
        <ele>823.60000000000002</ele>
        <time>2018-05-24T11:29:22Z</time>
      </trkpt>
      <trkpt lat="42.340943980962038" lon="-4.614022029563785">
        <ele>824.79999999999995</ele>
        <time>2018-05-24T11:29:38Z</time>
      </trkpt>
      <trkpt lat="42.340922020375729" lon="-4.613850032910705">
        <ele>825.20000000000005</ele>
        <time>2018-05-24T11:29:42Z</time>
      </trkpt>
      <trkpt lat="42.340986980125308" lon="-4.613678036257625">
        <ele>825.29999999999995</ele>
        <time>2018-05-24T11:29:46Z</time>
      </trkpt>
      <trkpt lat="42.341029979288578" lon="-4.613291965797544">
        <ele>825.10000000000002</ele>
        <time>2018-05-24T11:29:55Z</time>
      </trkpt>
      <trkpt lat="42.340986980125308" lon="-4.613205967471004">
        <ele>825.10000000000002</ele>
        <time>2018-05-24T11:29:57Z</time>
      </trkpt>
      <trkpt lat="42.340900981798768" lon="-4.613056015223265">
        <ele>825.10000000000002</ele>
        <time>2018-05-24T11:30:01Z</time>
      </trkpt>
      <trkpt lat="42.340837027877569" lon="-4.612519992515445">
        <ele>824.79999999999995</ele>
        <time>2018-05-24T11:30:13Z</time>
      </trkpt>
      <trkpt lat="42.340857982635498" lon="-4.610952995717526">
        <ele>827.29999999999995</ele>
        <time>2018-05-24T11:30:48Z</time>
      </trkpt>
      <trkpt lat="42.340771984308958" lon="-4.610395012423396">
        <ele>829.29999999999995</ele>
        <time>2018-05-24T11:31:00Z</time>
      </trkpt>
      <trkpt lat="42.340192962437868" lon="-4.609322967007756">
        <ele>827.79999999999995</ele>
        <time>2018-05-24T11:31:29Z</time>
      </trkpt>
      <trkpt lat="42.339613018557429" lon="-4.608334992080927">
        <ele>823.60000000000002</ele>
        <time>2018-05-24T11:31:57Z</time>
      </trkpt>
      <trkpt lat="42.339634979143739" lon="-4.607927966862917">
        <ele>823</ele>
        <time>2018-05-24T11:32:06Z</time>
      </trkpt>
      <trkpt lat="42.339656017720699" lon="-4.607712971046567">
        <ele>822.60000000000002</ele>
        <time>2018-05-24T11:32:11Z</time>
      </trkpt>
      <trkpt lat="42.339699016883969" lon="-4.607048034667969">
        <ele>822</ele>
        <time>2018-05-24T11:32:25Z</time>
      </trkpt>
      <trkpt lat="42.339677978307009" lon="-4.606790961697698">
        <ele>823.89999999999998</ele>
        <time>2018-05-24T11:32:31Z</time>
      </trkpt>
      <trkpt lat="42.339634979143739" lon="-4.606683002784848">
        <ele>824.79999999999995</ele>
        <time>2018-05-24T11:32:34Z</time>
      </trkpt>
      <trkpt lat="42.33952802605927" lon="-4.606555011123419">
        <ele>825.60000000000002</ele>
        <time>2018-05-24T11:32:38Z</time>
      </trkpt>
      <trkpt lat="42.33939902856946" lon="-4.606275977566838">
        <ele>827</ele>
        <time>2018-05-24T11:32:45Z</time>
      </trkpt>
      <trkpt lat="42.339333985000849" lon="-4.606060981750488">
        <ele>828.29999999999995</ele>
        <time>2018-05-24T11:32:50Z</time>
      </trkpt>
      <trkpt lat="42.33935602940619" lon="-4.605974983423948">
        <ele>829.10000000000002</ele>
        <time>2018-05-24T11:32:52Z</time>
      </trkpt>
      <trkpt lat="42.339591979980469" lon="-4.605309963226318">
        <ele>835.29999999999995</ele>
        <time>2018-05-24T11:33:08Z</time>
      </trkpt>
      <trkpt lat="42.339891968294978" lon="-4.60445199161768">
        <ele>838.29999999999995</ele>
        <time>2018-05-24T11:33:29Z</time>
      </trkpt>
      <trkpt lat="42.339977966621518" lon="-4.603422023355961">
        <ele>840.20000000000005</ele>
        <time>2018-05-24T11:33:52Z</time>
      </trkpt>
      <trkpt lat="42.33957102522254" lon="-4.603078030049801">
        <ele>841.20000000000005</ele>
        <time>2018-05-24T11:34:06Z</time>
      </trkpt>
      <trkpt lat="42.33952802605927" lon="-4.603035030886531">
        <ele>841.20000000000005</ele>
        <time>2018-05-24T11:34:08Z</time>
      </trkpt>
      <trkpt lat="42.339485026896" lon="-4.603078030049801">
        <ele>840.79999999999995</ele>
        <time>2018-05-24T11:34:09Z</time>
      </trkpt>
      <trkpt lat="42.33931303024292" lon="-4.603465022519231">
        <ele>838.89999999999998</ele>
        <time>2018-05-24T11:34:19Z</time>
      </trkpt>
      <trkpt lat="42.33914103358984" lon="-4.603336025029421">
        <ele>838.89999999999998</ele>
        <time>2018-05-24T11:34:25Z</time>
      </trkpt>
      <trkpt lat="42.33851901255548" lon="-4.60239197127521">
        <ele>836.39999999999998</ele>
        <time>2018-05-24T11:34:53Z</time>
      </trkpt>
      <trkpt lat="42.33802598901093" lon="-4.601769028231502">
        <ele>835.10000000000002</ele>
        <time>2018-05-24T11:35:13Z</time>
      </trkpt>
      <trkpt lat="42.33798298984766" lon="-4.601727034896612">
        <ele>835</ele>
        <time>2018-05-24T11:35:14Z</time>
      </trkpt>
      <trkpt lat="42.337618041783571" lon="-4.601898025721312">
        <ele>833.79999999999995</ele>
        <time>2018-05-24T11:35:26Z</time>
      </trkpt>
      <trkpt lat="42.337618041783571" lon="-4.601898025721312">
        <ele>833.79999999999995</ele>
        <time>2018-05-25T06:00:00Z</time>
      </trkpt>
      <trkpt lat="42.337554004043341" lon="-4.601984024047852">
        <ele>833.60000000000002</ele>
        <time>2018-05-25T06:00:02Z</time>
      </trkpt>
      <trkpt lat="42.33759599737823" lon="-4.602199019864202">
        <ele>834</ele>
        <time>2018-05-25T06:00:07Z</time>
      </trkpt>
      <trkpt lat="42.33757495880127" lon="-4.602413009852171">
        <ele>834.20000000000005</ele>
        <time>2018-05-25T06:00:12Z</time>
      </trkpt>
      <trkpt lat="42.337554004043341" lon="-4.60239197127521">
        <ele>834.10000000000002</ele>
        <time>2018-05-25T06:00:13Z</time>
      </trkpt>
      <trkpt lat="42.337531959638" lon="-4.602370010688901">
        <ele>834</ele>
        <time>2018-05-25T06:00:13Z</time>
      </trkpt>
      <trkpt lat="42.33748896047473" lon="-4.60239197127521">
        <ele>833.79999999999995</ele>
        <time>2018-05-25T06:00:15Z</time>
      </trkpt>
      <trkpt lat="42.337382007390261" lon="-4.602413009852171">
        <ele>833.5</ele>
        <time>2018-05-25T06:00:18Z</time>
      </trkpt>
      <trkpt lat="42.337253009900451" lon="-4.601962985470891">
        <ele>832.5</ele>
        <time>2018-05-25T06:00:29Z</time>
      </trkpt>
      <trkpt lat="42.33710297383368" lon="-4.601253960281611">
        <ele>831.10000000000002</ele>
        <time>2018-05-25T06:00:45Z</time>
      </trkpt>
      <trkpt lat="42.337124012410641" lon="-4.601168967783451">
        <ele>831.20000000000005</ele>
        <time>2018-05-25T06:00:47Z</time>
      </trkpt>
      <trkpt lat="42.33714597299695" lon="-4.601061008870602">
        <ele>831.20000000000005</ele>
        <time>2018-05-25T06:00:49Z</time>
      </trkpt>
      <trkpt lat="42.33705997467041" lon="-4.600910972803831">
        <ele>831</ele>
        <time>2018-05-25T06:00:53Z</time>
      </trkpt>
      <trkpt lat="42.336501991376281" lon="-4.601147007197142">
        <ele>830.39999999999998</ele>
        <time>2018-05-25T06:01:11Z</time>
      </trkpt>
      <trkpt lat="42.336008967831731" lon="-4.601383041590452">
        <ele>831</ele>
        <time>2018-05-25T06:01:26Z</time>
      </trkpt>
      <trkpt lat="42.336266040802002" lon="-4.600718021392822">
        <ele>830.60000000000002</ele>
        <time>2018-05-25T06:01:43Z</time>
      </trkpt>
      <trkpt lat="42.336372993886471" lon="-4.600503025576472">
        <ele>830.89999999999998</ele>
        <time>2018-05-25T06:01:48Z</time>
      </trkpt>
      <trkpt lat="42.336415993049741" lon="-4.600503025576472">
        <ele>830.89999999999998</ele>
        <time>2018-05-25T06:01:49Z</time>
      </trkpt>
      <trkpt lat="42.336458992213011" lon="-4.600524986162782">
        <ele>830.89999999999998</ele>
        <time>2018-05-25T06:01:51Z</time>
      </trkpt>
      <trkpt lat="42.336481036618352" lon="-4.600546024739742">
        <ele>830.89999999999998</ele>
        <time>2018-05-25T06:01:52Z</time>
      </trkpt>
      <trkpt lat="42.336501991376281" lon="-4.600546024739742">
        <ele>830.89999999999998</ele>
        <time>2018-05-25T06:01:52Z</time>
      </trkpt>
      <trkpt lat="42.336566029116511" lon="-4.600567985326052">
        <ele>830.89999999999998</ele>
        <time>2018-05-25T06:01:54Z</time>
      </trkpt>
      <trkpt lat="42.336673988029361" lon="-4.600181998685002">
        <ele>831</ele>
        <time>2018-05-25T06:02:03Z</time>
      </trkpt>
      <trkpt lat="42.3369309771806" lon="-4.599430980160832">
        <ele>830.89999999999998</ele>
        <time>2018-05-25T06:02:21Z</time>
      </trkpt>
      <trkpt lat="42.336953021585941" lon="-4.599301982671022">
        <ele>830.70000000000005</ele>
        <time>2018-05-25T06:02:24Z</time>
      </trkpt>
      <trkpt lat="42.3369309771806" lon="-4.599237022921443">
        <ele>830.70000000000005</ele>
        <time>2018-05-25T06:02:26Z</time>
      </trkpt>
      <trkpt lat="42.336953021585941" lon="-4.599172985181212">
        <ele>830.60000000000002</ele>
        <time>2018-05-25T06:02:27Z</time>
      </trkpt>
      <trkpt lat="42.33697397634387" lon="-4.599086986854672">
        <ele>830.5</ele>
        <time>2018-05-25T06:02:29Z</time>
      </trkpt>
      <trkpt lat="42.33701697550714" lon="-4.598957989364862">
        <ele>830.29999999999995</ele>
        <time>2018-05-25T06:02:32Z</time>
      </trkpt>
      <trkpt lat="42.337081013247371" lon="-4.598722038790584">
        <ele>830</ele>
        <time>2018-05-25T06:02:38Z</time>
      </trkpt>
      <trkpt lat="42.33710297383368" lon="-4.598658001050353">
        <ele>830</ele>
        <time>2018-05-25T06:02:40Z</time>
      </trkpt>
      <trkpt lat="42.337124012410641" lon="-4.598636962473393">
        <ele>830</ele>
        <time>2018-05-25T06:02:40Z</time>
      </trkpt>
      <trkpt lat="42.33731696382165" lon="-4.597992980852723">
        <ele>829.5</ele>
        <time>2018-05-25T06:02:56Z</time>
      </trkpt>
      <trkpt lat="42.337339008226991" lon="-4.597843028604984">
        <ele>829.39999999999998</ele>
        <time>2018-05-25T06:02:59Z</time>
      </trkpt>
      <trkpt lat="42.337382007390261" lon="-4.597843028604984">
        <ele>829.29999999999995</ele>
        <time>2018-05-25T06:03:00Z</time>
      </trkpt>
      <trkpt lat="42.33740296214819" lon="-4.597734985873103">
        <ele>829.20000000000005</ele>
        <time>2018-05-25T06:03:03Z</time>
      </trkpt>
      <trkpt lat="42.337382007390261" lon="-4.596448028460145">
        <ele>830</ele>
        <time>2018-05-25T06:03:31Z</time>
      </trkpt>
      <trkpt lat="42.337296009063721" lon="-4.596276031807065">
        <ele>830.70000000000005</ele>
        <time>2018-05-25T06:03:35Z</time>
      </trkpt>
      <trkpt lat="42.33723197132349" lon="-4.595953999087215">
        <ele>829.89999999999998</ele>
        <time>2018-05-25T06:03:43Z</time>
      </trkpt>
      <trkpt lat="42.336716987192631" lon="-4.595096027478576">
        <ele>826.79999999999995</ele>
        <time>2018-05-25T06:04:07Z</time>
      </trkpt>
      <trkpt lat="42.336544990539551" lon="-4.594796039164066">
        <ele>825.60000000000002</ele>
        <time>2018-05-25T06:04:15Z</time>
      </trkpt>
      <trkpt lat="42.336438037455082" lon="-4.594580959528685">
        <ele>824.70000000000005</ele>
        <time>2018-05-25T06:04:21Z</time>
      </trkpt>
      <trkpt lat="42.336008967831731" lon="-4.593679988756776">
        <ele>824.29999999999995</ele>
        <time>2018-05-25T06:04:44Z</time>
      </trkpt>
      <trkpt lat="42.335407985374331" lon="-4.592542983591557">
        <ele>826.10000000000002</ele>
        <time>2018-05-25T06:05:15Z</time>
      </trkpt>
      <trkpt lat="42.334721004590392" lon="-4.591212021186948">
        <ele>823.39999999999998</ele>
        <time>2018-05-25T06:05:51Z</time>
      </trkpt>
      <trkpt lat="42.334012985229492" lon="-4.589795982465148">
        <ele>828.5</ele>
        <time>2018-05-25T06:06:28Z</time>
      </trkpt>
      <trkpt lat="42.333519039675593" lon="-4.588852012529969">
        <ele>830.89999999999998</ele>
        <time>2018-05-25T06:06:53Z</time>
      </trkpt>
      <trkpt lat="42.332811020314693" lon="-4.587478972971439">
        <ele>832.79999999999995</ele>
        <time>2018-05-25T06:07:30Z</time>
      </trkpt>
      <trkpt lat="42.332167960703373" lon="-4.58621297031641">
        <ele>834.79999999999995</ele>
        <time>2018-05-25T06:08:04Z</time>
      </trkpt>
      <trkpt lat="42.331374026834965" lon="-4.584711017087102">
        <ele>837.5</ele>
        <time>2018-05-25T06:08:44Z</time>
      </trkpt>
      <trkpt lat="42.330965995788574" lon="-4.583895038813353">
        <ele>840.20000000000005</ele>
        <time>2018-05-25T06:09:06Z</time>
      </trkpt>
      <trkpt lat="42.330322014167905" lon="-4.582650996744633">
        <ele>842.20000000000005</ele>
        <time>2018-05-25T06:09:39Z</time>
      </trkpt>
      <trkpt lat="42.329636039212346" lon="-4.581277035176754">
        <ele>841.89999999999998</ele>
        <time>2018-05-25T06:10:15Z</time>
      </trkpt>
      <trkpt lat="42.329142009839416" lon="-4.580355025827885">
        <ele>844.10000000000002</ele>
        <time>2018-05-25T06:10:40Z</time>
      </trkpt>
      <trkpt lat="42.329099010676146" lon="-4.580289982259274">
        <ele>844.29999999999995</ele>
        <time>2018-05-25T06:10:42Z</time>
      </trkpt>
      <trkpt lat="42.328584026545286" lon="-4.579260013997555">
        <ele>846.89999999999998</ele>
        <time>2018-05-25T06:11:09Z</time>
      </trkpt>
      <trkpt lat="42.328155040740967" lon="-4.578445041552186">
        <ele>849.29999999999995</ele>
        <time>2018-05-25T06:11:31Z</time>
      </trkpt>
      <trkpt lat="42.327876007184386" lon="-4.577866019681096">
        <ele>851.10000000000002</ele>
        <time>2018-05-25T06:11:47Z</time>
      </trkpt>
      <trkpt lat="42.327833008021116" lon="-4.577823020517826">
        <ele>851.20000000000005</ele>
        <time>2018-05-25T06:11:48Z</time>
      </trkpt>
      <trkpt lat="42.327811969444156" lon="-4.577800976112485">
        <ele>851.20000000000005</ele>
        <time>2018-05-25T06:11:49Z</time>
      </trkpt>
      <trkpt lat="42.327424976974726" lon="-4.577006958425045">
        <ele>851.20000000000005</ele>
        <time>2018-05-25T06:12:10Z</time>
      </trkpt>
      <trkpt lat="42.326782001182437" lon="-4.575763000175357">
        <ele>849.39999999999998</ele>
        <time>2018-05-25T06:12:43Z</time>
      </trkpt>
      <trkpt lat="42.326287971809506" lon="-4.574796985834837">
        <ele>849.10000000000002</ele>
        <time>2018-05-25T06:13:09Z</time>
      </trkpt>
      <trkpt lat="42.325795032083988" lon="-4.573853015899658">
        <ele>847.39999999999998</ele>
        <time>2018-05-25T06:13:34Z</time>
      </trkpt>
      <trkpt lat="42.325107967481017" lon="-4.572522975504398">
        <ele>845.70000000000005</ele>
        <time>2018-05-25T06:14:10Z</time>
      </trkpt>
      <trkpt lat="42.324592983350158" lon="-4.57153600640595">
        <ele>846.89999999999998</ele>
        <time>2018-05-25T06:14:36Z</time>
      </trkpt>
      <trkpt lat="42.324120998382568" lon="-4.57056999206543">
        <ele>847</ele>
        <time>2018-05-25T06:15:01Z</time>
      </trkpt>
      <trkpt lat="42.323649013414979" lon="-4.569497024640441">
        <ele>843.10000000000002</ele>
        <time>2018-05-25T06:15:29Z</time>
      </trkpt>
      <trkpt lat="42.323326980695128" lon="-4.568703006953001">
        <ele>840</ele>
        <time>2018-05-25T06:15:49Z</time>
      </trkpt>
      <trkpt lat="42.322854995727539" lon="-4.567587040364742">
        <ele>837.79999999999995</ele>
        <time>2018-05-25T06:16:17Z</time>
      </trkpt>
      <trkpt lat="42.322532963007689" lon="-4.566793022677302">
        <ele>835.10000000000002</ele>
        <time>2018-05-25T06:16:37Z</time>
      </trkpt>
      <trkpt lat="42.32221101410687" lon="-4.565914012491703">
        <ele>831.60000000000002</ele>
        <time>2018-05-25T06:16:58Z</time>
      </trkpt>
      <trkpt lat="42.32208302244544" lon="-4.565462982282043">
        <ele>831</ele>
        <time>2018-05-25T06:17:09Z</time>
      </trkpt>
      <trkpt lat="42.32182502746582" lon="-4.564605010673404">
        <ele>830.39999999999998</ele>
        <time>2018-05-25T06:17:29Z</time>
      </trkpt>
      <trkpt lat="42.32163199223578" lon="-4.564047027379274">
        <ele>829.89999999999998</ele>
        <time>2018-05-25T06:17:43Z</time>
      </trkpt>
      <trkpt lat="42.321396041661501" lon="-4.563230965286493">
        <ele>827.5</ele>
        <time>2018-05-25T06:18:02Z</time>
      </trkpt>
      <trkpt lat="42.32105297036469" lon="-4.562136959284544">
        <ele>823.20000000000005</ele>
        <time>2018-05-25T06:18:28Z</time>
      </trkpt>
      <trkpt lat="42.32098801061511" lon="-4.561922969296575">
        <ele>822.70000000000005</ele>
        <time>2018-05-25T06:18:33Z</time>
      </trkpt>
      <trkpt lat="42.32079497538507" lon="-4.561235988512635">
        <ele>820.89999999999998</ele>
        <time>2018-05-25T06:18:49Z</time>
      </trkpt>
      <trkpt lat="42.320516025647521" lon="-4.560378016903997">
        <ele>818.60000000000002</ele>
        <time>2018-05-25T06:19:10Z</time>
      </trkpt>
      <trkpt lat="42.320173038169742" lon="-4.559261966496706">
        <ele>819.39999999999998</ele>
        <time>2018-05-25T06:19:36Z</time>
      </trkpt>
      <trkpt lat="42.319851005449891" lon="-4.558231998234987">
        <ele>816.79999999999995</ele>
        <time>2018-05-25T06:20:01Z</time>
      </trkpt>
      <trkpt lat="42.319508017972112" lon="-4.557073032483459">
        <ele>814</ele>
        <time>2018-05-25T06:20:28Z</time>
      </trkpt>
      <trkpt lat="42.319185985252261" lon="-4.556042980402708">
        <ele>813.20000000000005</ele>
        <time>2018-05-25T06:20:53Z</time>
      </trkpt>
      <trkpt lat="42.319121025502682" lon="-4.555893028154969">
        <ele>813</ele>
        <time>2018-05-25T06:20:56Z</time>
      </trkpt>
      <trkpt lat="42.318927990272641" lon="-4.555248962715268">
        <ele>812.20000000000005</ele>
        <time>2018-05-25T06:21:12Z</time>
      </trkpt>
      <trkpt lat="42.318628001958132" lon="-4.554218994453549">
        <ele>812.5</ele>
        <time>2018-05-25T06:21:36Z</time>
      </trkpt>
      <trkpt lat="42.318585002794862" lon="-4.554068958386779">
        <ele>812.60000000000002</ele>
        <time>2018-05-25T06:21:39Z</time>
      </trkpt>
      <trkpt lat="42.318477965891361" lon="-4.553768970072269">
        <ele>812.70000000000005</ele>
        <time>2018-05-25T06:21:47Z</time>
      </trkpt>
      <trkpt lat="42.318090973421931" lon="-4.55250296741724">
        <ele>811.39999999999998</ele>
        <time>2018-05-25T06:22:17Z</time>
      </trkpt>
      <trkpt lat="42.317727031186223" lon="-4.551279963925481">
        <ele>812</ele>
        <time>2018-05-25T06:22:46Z</time>
      </trkpt>
      <trkpt lat="42.317490996792912" lon="-4.550571022555232">
        <ele>810.39999999999998</ele>
        <time>2018-05-25T06:23:03Z</time>
      </trkpt>
      <trkpt lat="42.317469036206603" lon="-4.550420986488462">
        <ele>809.89999999999998</ele>
        <time>2018-05-25T06:23:06Z</time>
      </trkpt>
      <trkpt lat="42.317168964073062" lon="-4.549498977139592">
        <ele>808.70000000000005</ele>
        <time>2018-05-25T06:23:28Z</time>
      </trkpt>
      <trkpt lat="42.317082965746522" lon="-4.549154983833432">
        <ele>806.89999999999998</ele>
        <time>2018-05-25T06:23:36Z</time>
      </trkpt>
      <trkpt lat="42.316718017682433" lon="-4.547974979504943">
        <ele>806</ele>
        <time>2018-05-25T06:24:04Z</time>
      </trkpt>
      <trkpt lat="42.316438984125853" lon="-4.547117007896304">
        <ele>804</ele>
        <time>2018-05-25T06:24:25Z</time>
      </trkpt>
      <trkpt lat="42.316332031041384" lon="-4.546731021255255">
        <ele>803.39999999999998</ele>
        <time>2018-05-25T06:24:34Z</time>
      </trkpt>
      <trkpt lat="42.316289031878114" lon="-4.546622978523374">
        <ele>803.20000000000005</ele>
        <time>2018-05-25T06:24:36Z</time>
      </trkpt>
      <trkpt lat="42.316266987472773" lon="-4.546559024602175">
        <ele>803.10000000000002</ele>
        <time>2018-05-25T06:24:38Z</time>
      </trkpt>
      <trkpt lat="42.316181994974613" lon="-4.546365989372134">
        <ele>802.70000000000005</ele>
        <time>2018-05-25T06:24:43Z</time>
      </trkpt>
      <trkpt lat="42.316117035225034" lon="-4.546193992719054">
        <ele>802.5</ele>
        <time>2018-05-25T06:24:47Z</time>
      </trkpt>
      <trkpt lat="42.316160034388304" lon="-4.545785961672664">
        <ele>802.70000000000005</ele>
        <time>2018-05-25T06:24:56Z</time>
      </trkpt>
      <trkpt lat="42.316461028531194" lon="-4.544434966519475">
        <ele>803.5</ele>
        <time>2018-05-25T06:25:27Z</time>
      </trkpt>
      <trkpt lat="42.316504027694464" lon="-4.544262969866395">
        <ele>803.60000000000002</ele>
        <time>2018-05-25T06:25:31Z</time>
      </trkpt>
      <trkpt lat="42.316567981615663" lon="-4.543961975723505">
        <ele>803.79999999999995</ele>
        <time>2018-05-25T06:25:38Z</time>
      </trkpt>
      <trkpt lat="42.316589020192623" lon="-4.543446991592646">
        <ele>804</ele>
        <time>2018-05-25T06:25:49Z</time>
      </trkpt>
      <trkpt lat="42.316610980778933" lon="-4.543340038508177">
        <ele>804.10000000000002</ele>
        <time>2018-05-25T06:25:52Z</time>
      </trkpt>
      <trkpt lat="42.316589020192623" lon="-4.543211041018367">
        <ele>804.10000000000002</ele>
        <time>2018-05-25T06:25:54Z</time>
      </trkpt>
      <trkpt lat="42.316524982452393" lon="-4.542890014126897">
        <ele>804</ele>
        <time>2018-05-25T06:26:02Z</time>
      </trkpt>
      <trkpt lat="42.316567981615663" lon="-4.542632019147277">
        <ele>804.10000000000002</ele>
        <time>2018-05-25T06:26:08Z</time>
      </trkpt>
      <trkpt lat="42.316589020192623" lon="-4.542546020820737">
        <ele>804.20000000000005</ele>
        <time>2018-05-25T06:26:09Z</time>
      </trkpt>
      <trkpt lat="42.316632019355893" lon="-4.542567981407046">
        <ele>804.39999999999998</ele>
        <time>2018-05-25T06:26:11Z</time>
      </trkpt>
      <trkpt lat="42.316610980778933" lon="-4.542567981407046">
        <ele>804.29999999999995</ele>
        <time>2018-05-25T06:26:11Z</time>
      </trkpt>
      <trkpt lat="42.316567981615663" lon="-4.542546020820737">
        <ele>804.10000000000002</ele>
        <time>2018-05-25T06:26:13Z</time>
      </trkpt>
      <trkpt lat="42.316546021029353" lon="-4.542546020820737">
        <ele>804.10000000000002</ele>
        <time>2018-05-25T06:26:13Z</time>
      </trkpt>
      <trkpt lat="42.316504027694464" lon="-4.542567981407046">
        <ele>803.89999999999998</ele>
        <time>2018-05-25T06:26:15Z</time>
      </trkpt>
      <trkpt lat="42.316117035225034" lon="-4.542418029159308">
        <ele>802.5</ele>
        <time>2018-05-25T06:26:27Z</time>
      </trkpt>
      <trkpt lat="42.315515968948603" lon="-4.542223988100886">
        <ele>800.20000000000005</ele>
        <time>2018-05-25T06:26:45Z</time>
      </trkpt>
      <trkpt lat="42.315409015864134" lon="-4.542223988100886">
        <ele>799.79999999999995</ele>
        <time>2018-05-25T06:26:48Z</time>
      </trkpt>
      <trkpt lat="42.315344978123903" lon="-4.542266987264156">
        <ele>799.70000000000005</ele>
        <time>2018-05-25T06:26:50Z</time>
      </trkpt>
      <trkpt lat="42.315195025876164" lon="-4.542352985590696">
        <ele>799.5</ele>
        <time>2018-05-25T06:26:55Z</time>
      </trkpt>
      <trkpt lat="42.315066028386354" lon="-4.542289031669498">
        <ele>799.39999999999998</ele>
        <time>2018-05-25T06:26:59Z</time>
      </trkpt>
      <trkpt lat="42.314829993993044" lon="-4.541795002296567">
        <ele>799.70000000000005</ele>
        <time>2018-05-25T06:27:12Z</time>
      </trkpt>
      <trkpt lat="42.314743995666504" lon="-4.541538013145328">
        <ele>800.10000000000002</ele>
        <time>2018-05-25T06:27:18Z</time>
      </trkpt>
      <trkpt lat="42.314507961273193" lon="-4.540700996294618">
        <ele>801</ele>
        <time>2018-05-25T06:27:38Z</time>
      </trkpt>
      <trkpt lat="42.314464962109923" lon="-4.540571998804808">
        <ele>801</ele>
        <time>2018-05-25T06:27:41Z</time>
      </trkpt>
      <trkpt lat="42.314186012372375" lon="-4.539648983627558">
        <ele>800.10000000000002</ele>
        <time>2018-05-25T06:28:03Z</time>
      </trkpt>
      <trkpt lat="42.313863979652524" lon="-4.538554977625608">
        <ele>800.29999999999995</ele>
        <time>2018-05-25T06:28:29Z</time>
      </trkpt>
      <trkpt lat="42.313542030751705" lon="-4.537417972460389">
        <ele>799.79999999999995</ele>
        <time>2018-05-25T06:28:55Z</time>
      </trkpt>
      <trkpt lat="42.313049007207155" lon="-4.535873020067811">
        <ele>799.29999999999995</ele>
        <time>2018-05-25T06:29:32Z</time>
      </trkpt>
      <trkpt lat="42.312706019729376" lon="-4.534693015739322">
        <ele>799.10000000000002</ele>
        <time>2018-05-25T06:30:00Z</time>
      </trkpt>
      <trkpt lat="42.312448024749756" lon="-4.533834038302302">
        <ele>799.70000000000005</ele>
        <time>2018-05-25T06:30:20Z</time>
      </trkpt>
      <trkpt lat="42.312405025586486" lon="-4.533727001398802">
        <ele>799.89999999999998</ele>
        <time>2018-05-25T06:30:23Z</time>
      </trkpt>
      <trkpt lat="42.312254989519715" lon="-4.533255016431212">
        <ele>802.29999999999995</ele>
        <time>2018-05-25T06:30:34Z</time>
      </trkpt>
      <trkpt lat="42.311933040618896" lon="-4.532224964350462">
        <ele>805.39999999999998</ele>
        <time>2018-05-25T06:30:59Z</time>
      </trkpt>
      <trkpt lat="42.311440017074347" lon="-4.531044960021973">
        <ele>807.20000000000005</ele>
        <time>2018-05-25T06:31:29Z</time>
      </trkpt>
      <trkpt lat="42.310988986864686" lon="-4.529971992596984">
        <ele>803.79999999999995</ele>
        <time>2018-05-25T06:31:56Z</time>
      </trkpt>
      <trkpt lat="42.310451958328485" lon="-4.528642036020756">
        <ele>799.89999999999998</ele>
        <time>2018-05-25T06:32:29Z</time>
      </trkpt>
      <trkpt lat="42.309979973360896" lon="-4.527611983940005">
        <ele>796.10000000000002</ele>
        <time>2018-05-25T06:32:55Z</time>
      </trkpt>
      <trkpt lat="42.309550987556577" lon="-4.526539016515017">
        <ele>794.20000000000005</ele>
        <time>2018-05-25T06:33:22Z</time>
      </trkpt>
      <trkpt lat="42.309100963175297" lon="-4.525487003847957">
        <ele>797.39999999999998</ele>
        <time>2018-05-25T06:33:49Z</time>
      </trkpt>
      <trkpt lat="42.308928966522217" lon="-4.525058018043637">
        <ele>799.29999999999995</ele>
        <time>2018-05-25T06:34:00Z</time>
      </trkpt>
      <trkpt lat="42.308693015947938" lon="-4.524521995335817">
        <ele>802.39999999999998</ele>
        <time>2018-05-25T06:34:13Z</time>
      </trkpt>
      <trkpt lat="42.308221030980349" lon="-4.523320030421019">
        <ele>802.70000000000005</ele>
        <time>2018-05-25T06:34:43Z</time>
      </trkpt>
      <trkpt lat="42.307684002444148" lon="-4.522097026929259">
        <ele>801</ele>
        <time>2018-05-25T06:35:14Z</time>
      </trkpt>
      <trkpt lat="42.307212017476559" lon="-4.521023975685239">
        <ele>799.79999999999995</ele>
        <time>2018-05-25T06:35:42Z</time>
      </trkpt>
      <trkpt lat="42.307169018313289" lon="-4.520852984860539">
        <ele>799.79999999999995</ele>
        <time>2018-05-25T06:35:46Z</time>
      </trkpt>
      <trkpt lat="42.307104980573058" lon="-4.520680988207459">
        <ele>800</ele>
        <time>2018-05-25T06:35:50Z</time>
      </trkpt>
      <trkpt lat="42.306589996442199" lon="-4.519436024129391">
        <ele>800</ele>
        <time>2018-05-25T06:36:21Z</time>
      </trkpt>
      <trkpt lat="42.305989013984799" lon="-4.518105983734131">
        <ele>796.60000000000002</ele>
        <time>2018-05-25T06:36:55Z</time>
      </trkpt>
      <trkpt lat="42.305538989603519" lon="-4.516990017145872">
        <ele>792.60000000000002</ele>
        <time>2018-05-25T06:37:23Z</time>
      </trkpt>
      <trkpt lat="42.305087959393859" lon="-4.515896011143923">
        <ele>792.5</ele>
        <time>2018-05-25T06:37:51Z</time>
      </trkpt>
      <trkpt lat="42.304466022178531" lon="-4.514436973258853">
        <ele>795.39999999999998</ele>
        <time>2018-05-25T06:38:27Z</time>
      </trkpt>
      <trkpt lat="42.30410099029541" lon="-4.513577995821834">
        <ele>796.5</ele>
        <time>2018-05-25T06:38:49Z</time>
      </trkpt>
      <trkpt lat="42.303586006164551" lon="-4.512334037572146">
        <ele>794.39999999999998</ele>
        <time>2018-05-25T06:39:20Z</time>
      </trkpt>
      <trkpt lat="42.303414009511471" lon="-4.511947967112064">
        <ele>793</ele>
        <time>2018-05-25T06:39:30Z</time>
      </trkpt>
      <trkpt lat="42.303006984293461" lon="-4.510982036590576">
        <ele>788.60000000000002</ele>
        <time>2018-05-25T06:39:55Z</time>
      </trkpt>
      <trkpt lat="42.302449000999331" lon="-4.509608997032046">
        <ele>788.70000000000005</ele>
        <time>2018-05-25T06:40:29Z</time>
      </trkpt>
      <trkpt lat="42.301911972463131" lon="-4.508428992703557">
        <ele>787.89999999999998</ele>
        <time>2018-05-25T06:40:59Z</time>
      </trkpt>
      <trkpt lat="42.301825974136591" lon="-4.508170997723937">
        <ele>787.70000000000005</ele>
        <time>2018-05-25T06:41:06Z</time>
      </trkpt>
      <trkpt lat="42.301268996670842" lon="-4.506884040310979">
        <ele>787.5</ele>
        <time>2018-05-25T06:41:38Z</time>
      </trkpt>
      <trkpt lat="42.300711013376713" lon="-4.50553203932941">
        <ele>788.60000000000002</ele>
        <time>2018-05-25T06:42:12Z</time>
      </trkpt>
      <trkpt lat="42.299981033429503" lon="-4.50381500646472">
        <ele>788.79999999999995</ele>
        <time>2018-05-25T06:42:56Z</time>
      </trkpt>
      <trkpt lat="42.299402011558414" lon="-4.502463005483151">
        <ele>787.20000000000005</ele>
        <time>2018-05-25T06:43:30Z</time>
      </trkpt>
      <trkpt lat="42.299187015742064" lon="-4.501948021352291">
        <ele>787.70000000000005</ele>
        <time>2018-05-25T06:43:43Z</time>
      </trkpt>
      <trkpt lat="42.299144016578794" lon="-4.501840984448791">
        <ele>787.60000000000002</ele>
        <time>2018-05-25T06:43:46Z</time>
      </trkpt>
      <trkpt lat="42.298887027427554" lon="-4.501368999481201">
        <ele>787.20000000000005</ele>
        <time>2018-05-25T06:43:58Z</time>
      </trkpt>
      <trkpt lat="42.298864983022213" lon="-4.501304961740971">
        <ele>787</ele>
        <time>2018-05-25T06:44:00Z</time>
      </trkpt>
      <trkpt lat="42.298887027427554" lon="-4.501261962577701">
        <ele>786.89999999999998</ele>
        <time>2018-05-25T06:44:01Z</time>
      </trkpt>
      <trkpt lat="42.298864983022213" lon="-4.501283001154661">
        <ele>787</ele>
        <time>2018-05-25T06:44:02Z</time>
      </trkpt>
      <trkpt lat="42.298821983858943" lon="-4.501283001154661">
        <ele>787</ele>
        <time>2018-05-25T06:44:03Z</time>
      </trkpt>
      <trkpt lat="42.298758029937744" lon="-4.501197002828121">
        <ele>787.10000000000002</ele>
        <time>2018-05-25T06:44:06Z</time>
      </trkpt>
      <trkpt lat="42.298306999728084" lon="-4.500317992642522">
        <ele>789.5</ele>
        <time>2018-05-25T06:44:29Z</time>
      </trkpt>
      <trkpt lat="42.297942973673344" lon="-4.499674011021853">
        <ele>790</ele>
        <time>2018-05-25T06:44:47Z</time>
      </trkpt>
      <trkpt lat="42.297835014760494" lon="-4.499502014368773">
        <ele>790.10000000000002</ele>
        <time>2018-05-25T06:44:52Z</time>
      </trkpt>
      <trkpt lat="42.297985972836614" lon="-4.499394977465272">
        <ele>789.60000000000002</ele>
        <time>2018-05-25T06:44:57Z</time>
      </trkpt>
      <trkpt lat="42.298050010576844" lon="-4.499351978302002">
        <ele>789.39999999999998</ele>
        <time>2018-05-25T06:44:59Z</time>
      </trkpt>
      <trkpt lat="42.298564994707704" lon="-4.498965991660953">
        <ele>787.70000000000005</ele>
        <time>2018-05-25T06:45:17Z</time>
      </trkpt>
      <trkpt lat="42.298629032447934" lon="-4.498901031911373">
        <ele>787.5</ele>
        <time>2018-05-25T06:45:19Z</time>
      </trkpt>
      <trkpt lat="42.299058018252254" lon="-4.498557960614562">
        <ele>786.29999999999995</ele>
        <time>2018-05-25T06:45:34Z</time>
      </trkpt>
      <trkpt lat="42.299316013231874" lon="-4.498085975646973">
        <ele>785.60000000000002</ele>
        <time>2018-05-25T06:45:47Z</time>
      </trkpt>
      <trkpt lat="42.299659000709653" lon="-4.497312996536493">
        <ele>784.29999999999995</ele>
        <time>2018-05-25T06:46:06Z</time>
      </trkpt>
      <trkpt lat="42.299830997362733" lon="-4.496991969645023">
        <ele>784.20000000000005</ele>
        <time>2018-05-25T06:46:15Z</time>
      </trkpt>
      <trkpt lat="42.299895035102963" lon="-4.496884010732174">
        <ele>784.29999999999995</ele>
        <time>2018-05-25T06:46:18Z</time>
      </trkpt>
      <trkpt lat="42.299809036776423" lon="-4.496756019070745">
        <ele>784.60000000000002</ele>
        <time>2018-05-25T06:46:22Z</time>
      </trkpt>
      <trkpt lat="42.299744999036193" lon="-4.496670020744205">
        <ele>785</ele>
        <time>2018-05-25T06:46:25Z</time>
      </trkpt>
      <trkpt lat="42.299723960459232" lon="-4.496604977175593">
        <ele>785.20000000000005</ele>
        <time>2018-05-25T06:46:26Z</time>
      </trkpt>
      <trkpt lat="42.299637962132692" lon="-4.496476985514164">
        <ele>785.89999999999998</ele>
        <time>2018-05-25T06:46:30Z</time>
      </trkpt>
      <trkpt lat="42.299531009048223" lon="-4.496261989697814">
        <ele>786.89999999999998</ele>
        <time>2018-05-25T06:46:36Z</time>
      </trkpt>
      <trkpt lat="42.299422966316342" lon="-4.496046993881464">
        <ele>786.60000000000002</ele>
        <time>2018-05-25T06:46:41Z</time>
      </trkpt>
      <trkpt lat="42.299165977165103" lon="-4.495618008077145">
        <ele>786.10000000000002</ele>
        <time>2018-05-25T06:46:53Z</time>
      </trkpt>
      <trkpt lat="42.298672031611204" lon="-4.494674038141966">
        <ele>784.29999999999995</ele>
        <time>2018-05-25T06:47:19Z</time>
      </trkpt>
      <trkpt lat="42.298328960314393" lon="-4.494072971865535">
        <ele>783.29999999999995</ele>
        <time>2018-05-25T06:47:35Z</time>
      </trkpt>
      <trkpt lat="42.297899974510074" lon="-4.493472995236516">
        <ele>782</ele>
        <time>2018-05-25T06:47:54Z</time>
      </trkpt>
      <trkpt lat="42.297277031466365" lon="-4.492528019472957">
        <ele>782.20000000000005</ele>
        <time>2018-05-25T06:48:21Z</time>
      </trkpt>
      <trkpt lat="42.296719970181584" lon="-4.491477012634277">
        <ele>782</ele>
        <time>2018-05-25T06:48:50Z</time>
      </trkpt>
      <trkpt lat="42.295969035476446" lon="-4.490254009142518">
        <ele>782.5</ele>
        <time>2018-05-25T06:49:25Z</time>
      </trkpt>
      <trkpt lat="42.295281970873475" lon="-4.489137958735228">
        <ele>782.39999999999998</ele>
        <time>2018-05-25T06:49:56Z</time>
      </trkpt>
      <trkpt lat="42.294617034494877" lon="-4.487935993820429">
        <ele>783</ele>
        <time>2018-05-25T06:50:29Z</time>
      </trkpt>
      <trkpt lat="42.294123005121946" lon="-4.48632700368762">
        <ele>782.29999999999995</ele>
        <time>2018-05-25T06:51:08Z</time>
      </trkpt>
      <trkpt lat="42.294058967381716" lon="-4.485769020393491">
        <ele>781.60000000000002</ele>
        <time>2018-05-25T06:51:20Z</time>
      </trkpt>
      <trkpt lat="42.293909015133977" lon="-4.48491096496582">
        <ele>781.29999999999995</ele>
        <time>2018-05-25T06:51:39Z</time>
      </trkpt>
      <trkpt lat="42.293714974075556" lon="-4.484266983345151">
        <ele>781.70000000000005</ele>
        <time>2018-05-25T06:51:54Z</time>
      </trkpt>
      <trkpt lat="42.293457984924316" lon="-4.483472965657711">
        <ele>782.39999999999998</ele>
        <time>2018-05-25T06:52:13Z</time>
      </trkpt>
      <trkpt lat="42.293929969891906" lon="-4.483129978179932">
        <ele>783.29999999999995</ele>
        <time>2018-05-25T06:52:29Z</time>
      </trkpt>
      <trkpt lat="42.293823016807437" lon="-4.482636032626033">
        <ele>782.79999999999995</ele>
        <time>2018-05-25T06:52:41Z</time>
      </trkpt>
      <trkpt lat="42.293800972402096" lon="-4.482528995722532">
        <ele>782.60000000000002</ele>
        <time>2018-05-25T06:52:43Z</time>
      </trkpt>
      <trkpt lat="42.293929969891906" lon="-4.482442997395992">
        <ele>782.60000000000002</ele>
        <time>2018-05-25T06:52:47Z</time>
      </trkpt>
      <trkpt lat="42.294209003448486" lon="-4.482272006571293">
        <ele>782.79999999999995</ele>
        <time>2018-05-25T06:52:56Z</time>
      </trkpt>
      <trkpt lat="42.294295001775026" lon="-4.482229007408023">
        <ele>782.79999999999995</ele>
        <time>2018-05-25T06:52:59Z</time>
      </trkpt>
      <trkpt lat="42.294338000938296" lon="-4.482206963002682">
        <ele>782.89999999999998</ele>
        <time>2018-05-25T06:53:01Z</time>
      </trkpt>
      <trkpt lat="42.294295001775026" lon="-4.482163963839412">
        <ele>782.79999999999995</ele>
        <time>2018-05-25T06:53:02Z</time>
      </trkpt>
      <trkpt lat="42.294252002611756" lon="-4.482186008244753">
        <ele>782.70000000000005</ele>
        <time>2018-05-25T06:53:03Z</time>
      </trkpt>
      <trkpt lat="42.294209003448486" lon="-4.482206963002682">
        <ele>782.70000000000005</ele>
        <time>2018-05-25T06:53:05Z</time>
      </trkpt>
      <trkpt lat="42.294187964871526" lon="-4.482229007408023">
        <ele>782.70000000000005</ele>
        <time>2018-05-25T06:53:06Z</time>
      </trkpt>
      <trkpt lat="42.294166004285216" lon="-4.482100009918213">
        <ele>782.5</ele>
        <time>2018-05-25T06:53:09Z</time>
      </trkpt>
      <trkpt lat="42.294144965708256" lon="-4.482035972177982">
        <ele>782.5</ele>
        <time>2018-05-25T06:53:10Z</time>
      </trkpt>
      <trkpt lat="42.294101966544986" lon="-4.481971012428403">
        <ele>782.39999999999998</ele>
        <time>2018-05-25T06:53:12Z</time>
      </trkpt>
      <trkpt lat="42.293886970728636" lon="-4.481691978871822">
        <ele>782.20000000000005</ele>
        <time>2018-05-25T06:53:21Z</time>
      </trkpt>
      <trkpt lat="42.293823016807437" lon="-4.481628024950624">
        <ele>782.10000000000002</ele>
        <time>2018-05-25T06:53:23Z</time>
      </trkpt>
      <trkpt lat="42.293800972402096" lon="-4.481585025787354">
        <ele>782.10000000000002</ele>
        <time>2018-05-25T06:53:24Z</time>
      </trkpt>
      <trkpt lat="42.293780017644167" lon="-4.481563987210393">
        <ele>782</ele>
        <time>2018-05-25T06:53:25Z</time>
      </trkpt>
      <trkpt lat="42.293672980740666" lon="-4.481434989720583">
        <ele>782</ele>
        <time>2018-05-25T06:53:29Z</time>
      </trkpt>
      <trkpt lat="42.293629981577396" lon="-4.481348991394043">
        <ele>782</ele>
        <time>2018-05-25T06:53:32Z</time>
      </trkpt>
      <trkpt lat="42.292985999956727" lon="-4.480339977890253">
        <ele>782</ele>
        <time>2018-05-25T06:54:01Z</time>
      </trkpt>
      <trkpt lat="42.292643012478948" lon="-4.480039989575744">
        <ele>781.39999999999998</ele>
        <time>2018-05-25T06:54:13Z</time>
      </trkpt>
      <trkpt lat="42.292557014152408" lon="-4.479953991249204">
        <ele>781.10000000000002</ele>
        <time>2018-05-25T06:54:16Z</time>
      </trkpt>
      <trkpt lat="42.292471015825868" lon="-4.479867992922664">
        <ele>780.79999999999995</ele>
        <time>2018-05-25T06:54:19Z</time>
      </trkpt>
      <trkpt lat="42.291655959561467" lon="-4.479202972725034">
        <ele>780</ele>
        <time>2018-05-25T06:54:47Z</time>
      </trkpt>
      <trkpt lat="42.290968978777528" lon="-4.478581035509706">
        <ele>781.79999999999995</ele>
        <time>2018-05-25T06:55:12Z</time>
      </trkpt>
      <trkpt lat="42.290582992136478" lon="-4.478194965049624">
        <ele>782.70000000000005</ele>
        <time>2018-05-25T06:55:26Z</time>
      </trkpt>
      <trkpt lat="42.289939010515809" lon="-4.477530028671026">
        <ele>781.89999999999998</ele>
        <time>2018-05-25T06:55:50Z</time>
      </trkpt>
      <trkpt lat="42.289487980306149" lon="-4.477078998461366">
        <ele>780.89999999999998</ele>
        <time>2018-05-25T06:56:07Z</time>
      </trkpt>
      <trkpt lat="42.289401981979609" lon="-4.476950000971556">
        <ele>780.79999999999995</ele>
        <time>2018-05-25T06:56:11Z</time>
      </trkpt>
      <trkpt lat="42.289316989481449" lon="-4.476864002645016">
        <ele>780.70000000000005</ele>
        <time>2018-05-25T06:56:14Z</time>
      </trkpt>
      <trkpt lat="42.289144992828369" lon="-4.476627968251705">
        <ele>780.5</ele>
        <time>2018-05-25T06:56:21Z</time>
      </trkpt>
      <trkpt lat="42.28858700953424" lon="-4.475963031873107">
        <ele>780.5</ele>
        <time>2018-05-25T06:56:43Z</time>
      </trkpt>
      <trkpt lat="42.28815802372992" lon="-4.475255012512207">
        <ele>781.60000000000002</ele>
        <time>2018-05-25T06:57:03Z</time>
      </trkpt>
      <trkpt lat="42.28762099519372" lon="-4.474267959594727">
        <ele>781</ele>
        <time>2018-05-25T06:57:30Z</time>
      </trkpt>
      <trkpt lat="42.2871920093894" lon="-4.473452987149358">
        <ele>781</ele>
        <time>2018-05-25T06:57:52Z</time>
      </trkpt>
      <trkpt lat="42.28704197332263" lon="-4.473259029909968">
        <ele>781</ele>
        <time>2018-05-25T06:57:58Z</time>
      </trkpt>
      <trkpt lat="42.28695597499609" lon="-4.473194992169738">
        <ele>780.79999999999995</ele>
        <time>2018-05-25T06:58:01Z</time>
      </trkpt>
      <trkpt lat="42.28686997666955" lon="-4.473088039085269">
        <ele>780.70000000000005</ele>
        <time>2018-05-25T06:58:04Z</time>
      </trkpt>
      <trkpt lat="42.286784984171391" lon="-4.472959041595459">
        <ele>780.60000000000002</ele>
        <time>2018-05-25T06:58:08Z</time>
      </trkpt>
      <trkpt lat="42.286698985844851" lon="-4.472852004691958">
        <ele>780.5</ele>
        <time>2018-05-25T06:58:12Z</time>
      </trkpt>
      <trkpt lat="42.286612987518311" lon="-4.472723007202148">
        <ele>780.39999999999998</ele>
        <time>2018-05-25T06:58:16Z</time>
      </trkpt>
      <trkpt lat="42.286184001713991" lon="-4.472036026418209">
        <ele>779.89999999999998</ele>
        <time>2018-05-25T06:58:35Z</time>
      </trkpt>
      <trkpt lat="42.286098003387451" lon="-4.47195103392005">
        <ele>779.79999999999995</ele>
        <time>2018-05-25T06:58:38Z</time>
      </trkpt>
      <trkpt lat="42.286012005060911" lon="-4.47177903726697">
        <ele>779.60000000000002</ele>
        <time>2018-05-25T06:58:43Z</time>
      </trkpt>
      <trkpt lat="42.285990966483951" lon="-4.471713993698359">
        <ele>779.60000000000002</ele>
        <time>2018-05-25T06:58:45Z</time>
      </trkpt>
      <trkpt lat="42.285346984863281" lon="-4.47072702459991">
        <ele>779</ele>
        <time>2018-05-25T06:59:13Z</time>
      </trkpt>
      <trkpt lat="42.285131989046931" lon="-4.47038403712213">
        <ele>779</ele>
        <time>2018-05-25T06:59:23Z</time>
      </trkpt>
      <trkpt lat="42.284638965502381" lon="-4.469611980021">
        <ele>780</ele>
        <time>2018-05-25T06:59:46Z</time>
      </trkpt>
      <trkpt lat="42.284166980534792" lon="-4.46886096149683">
        <ele>779.10000000000002</ele>
        <time>2018-05-25T07:00:07Z</time>
      </trkpt>
      <trkpt lat="42.284080982208252" lon="-4.468710003420711">
        <ele>778.79999999999995</ele>
        <time>2018-05-25T07:00:11Z</time>
      </trkpt>
      <trkpt lat="42.283974029123783" lon="-4.46860296651721">
        <ele>778.5</ele>
        <time>2018-05-25T07:00:15Z</time>
      </trkpt>
      <trkpt lat="42.283908985555172" lon="-4.468453014269471">
        <ele>778.29999999999995</ele>
        <time>2018-05-25T07:00:19Z</time>
      </trkpt>
      <trkpt lat="42.283780993893743" lon="-4.468281017616391">
        <ele>778.10000000000002</ele>
        <time>2018-05-25T07:00:24Z</time>
      </trkpt>
      <trkpt lat="42.283737994730473" lon="-4.468173980712891">
        <ele>778</ele>
        <time>2018-05-25T07:00:27Z</time>
      </trkpt>
      <trkpt lat="42.283501960337162" lon="-4.467809032648802">
        <ele>777.70000000000005</ele>
        <time>2018-05-25T07:00:38Z</time>
      </trkpt>
      <trkpt lat="42.282857978716493" lon="-4.466778980568051">
        <ele>777.10000000000002</ele>
        <time>2018-05-25T07:01:07Z</time>
      </trkpt>
      <trkpt lat="42.282794024795294" lon="-4.466692982241511">
        <ele>777.10000000000002</ele>
        <time>2018-05-25T07:01:10Z</time>
      </trkpt>
      <trkpt lat="42.282642982900143" lon="-4.466457031667233">
        <ele>777.29999999999995</ele>
        <time>2018-05-25T07:01:17Z</time>
      </trkpt>
      <trkpt lat="42.282556984573603" lon="-4.466329040005803">
        <ele>777.39999999999998</ele>
        <time>2018-05-25T07:01:21Z</time>
      </trkpt>
      <trkpt lat="42.282428992912173" lon="-4.466136004775763">
        <ele>777.60000000000002</ele>
        <time>2018-05-25T07:01:26Z</time>
      </trkpt>
      <trkpt lat="42.282364033162594" lon="-4.466050006449223">
        <ele>777.70000000000005</ele>
        <time>2018-05-25T07:01:29Z</time>
      </trkpt>
      <trkpt lat="42.282299995422363" lon="-4.465964008122683">
        <ele>777.79999999999995</ele>
        <time>2018-05-25T07:01:32Z</time>
      </trkpt>
      <trkpt lat="42.282213997095823" lon="-4.465835010632873">
        <ele>777.89999999999998</ele>
        <time>2018-05-25T07:01:36Z</time>
      </trkpt>
      <trkpt lat="42.281891964375973" lon="-4.465320026502013">
        <ele>777.79999999999995</ele>
        <time>2018-05-25T07:01:50Z</time>
      </trkpt>
      <trkpt lat="42.281871009618044" lon="-4.465277027338743">
        <ele>777.70000000000005</ele>
        <time>2018-05-25T07:01:51Z</time>
      </trkpt>
      <trkpt lat="42.281785011291504" lon="-4.465148029848933">
        <ele>777.39999999999998</ele>
        <time>2018-05-25T07:01:55Z</time>
      </trkpt>
      <trkpt lat="42.281763972714543" lon="-4.465106036514044">
        <ele>777.29999999999995</ele>
        <time>2018-05-25T07:01:56Z</time>
      </trkpt>
      <trkpt lat="42.281699012964964" lon="-4.464977039024234">
        <ele>776.89999999999998</ele>
        <time>2018-05-25T07:02:00Z</time>
      </trkpt>
      <trkpt lat="42.281462978571653" lon="-4.464590968564153">
        <ele>776</ele>
        <time>2018-05-25T07:02:11Z</time>
      </trkpt>
      <trkpt lat="42.281270027160645" lon="-4.464289974421263">
        <ele>776</ele>
        <time>2018-05-25T07:02:19Z</time>
      </trkpt>
      <trkpt lat="42.281013038009405" lon="-4.463925026357174">
        <ele>776.89999999999998</ele>
        <time>2018-05-25T07:02:31Z</time>
      </trkpt>
      <trkpt lat="42.280927039682865" lon="-4.463797034695745">
        <ele>777.5</ele>
        <time>2018-05-25T07:02:34Z</time>
      </trkpt>
      <trkpt lat="42.280841041356325" lon="-4.463645992800593">
        <ele>778.10000000000002</ele>
        <time>2018-05-25T07:02:39Z</time>
      </trkpt>
      <trkpt lat="42.280797958374023" lon="-4.463602993637323">
        <ele>778.39999999999998</ele>
        <time>2018-05-25T07:02:40Z</time>
      </trkpt>
      <trkpt lat="42.280777003616095" lon="-4.463561000302434">
        <ele>778.60000000000002</ele>
        <time>2018-05-25T07:02:41Z</time>
      </trkpt>
      <trkpt lat="42.280539963394403" lon="-4.463174007833004">
        <ele>780.70000000000005</ele>
        <time>2018-05-25T07:02:52Z</time>
      </trkpt>
      <trkpt lat="42.280325973406434" lon="-4.462831020355225">
        <ele>782.10000000000002</ele>
        <time>2018-05-25T07:03:02Z</time>
      </trkpt>
      <trkpt lat="42.280282974243164" lon="-4.462723983451724">
        <ele>782.10000000000002</ele>
        <time>2018-05-25T07:03:05Z</time>
      </trkpt>
      <trkpt lat="42.279767990112305" lon="-4.461886966601014">
        <ele>782.5</ele>
        <time>2018-05-25T07:03:29Z</time>
      </trkpt>
      <trkpt lat="42.279704036191106" lon="-4.461800968274474">
        <ele>782.5</ele>
        <time>2018-05-25T07:03:31Z</time>
      </trkpt>
      <trkpt lat="42.279661037027836" lon="-4.461757969111204">
        <ele>782.5</ele>
        <time>2018-05-25T07:03:33Z</time>
      </trkpt>
      <trkpt lat="42.279595993459225" lon="-4.461628971621394">
        <ele>782.29999999999995</ele>
        <time>2018-05-25T07:03:36Z</time>
      </trkpt>
      <trkpt lat="42.279509995132685" lon="-4.461500979959965">
        <ele>781.5</ele>
        <time>2018-05-25T07:03:40Z</time>
      </trkpt>
      <trkpt lat="42.279489040374756" lon="-4.461457980796695">
        <ele>781.29999999999995</ele>
        <time>2018-05-25T07:03:41Z</time>
      </trkpt>
      <trkpt lat="42.279081009328365" lon="-4.460771000012755">
        <ele>777.29999999999995</ele>
        <time>2018-05-25T07:04:01Z</time>
      </trkpt>
      <trkpt lat="42.278996016830206" lon="-4.460685001686215">
        <ele>776.89999999999998</ele>
        <time>2018-05-25T07:04:04Z</time>
      </trkpt>
      <trkpt lat="42.278544986620545" lon="-4.459956027567387">
        <ele>776</ele>
        <time>2018-05-25T07:04:25Z</time>
      </trkpt>
      <trkpt lat="42.278094040229917" lon="-4.459268962964416">
        <ele>776.10000000000002</ele>
        <time>2018-05-25T07:04:45Z</time>
      </trkpt>
      <trkpt lat="42.278030002489686" lon="-4.459205009043217">
        <ele>776.10000000000002</ele>
        <time>2018-05-25T07:04:47Z</time>
      </trkpt>
      <trkpt lat="42.277730014175177" lon="-4.458753978833556">
        <ele>776</ele>
        <time>2018-05-25T07:05:00Z</time>
      </trkpt>
      <trkpt lat="42.277149986475706" lon="-4.457853008061647">
        <ele>775.89999999999998</ele>
        <time>2018-05-25T07:05:27Z</time>
      </trkpt>
      <trkpt lat="42.276549004018307" lon="-4.456909038126469">
        <ele>774.20000000000005</ele>
        <time>2018-05-25T07:05:54Z</time>
      </trkpt>
      <trkpt lat="42.276464011520147" lon="-4.456780040636659">
        <ele>774</ele>
        <time>2018-05-25T07:05:58Z</time>
      </trkpt>
      <trkpt lat="42.276421012356877" lon="-4.456716002896428">
        <ele>773.89999999999998</ele>
        <time>2018-05-25T07:06:00Z</time>
      </trkpt>
      <trkpt lat="42.275777030736208" lon="-4.455729033797979">
        <ele>773.79999999999995</ele>
        <time>2018-05-25T07:06:28Z</time>
      </trkpt>
      <trkpt lat="42.275691032409668" lon="-4.455534992739558">
        <ele>774</ele>
        <time>2018-05-25T07:06:33Z</time>
      </trkpt>
      <trkpt lat="42.275648033246398" lon="-4.455450000241399">
        <ele>774</ele>
        <time>2018-05-25T07:06:36Z</time>
      </trkpt>
      <trkpt lat="42.275540996342897" lon="-4.455342041328549">
        <ele>773.79999999999995</ele>
        <time>2018-05-25T07:06:40Z</time>
      </trkpt>
      <trkpt lat="42.275240002200007" lon="-4.454869972541928">
        <ele>773</ele>
        <time>2018-05-25T07:06:53Z</time>
      </trkpt>
      <trkpt lat="42.275218963623047" lon="-4.454826973378658">
        <ele>772.89999999999998</ele>
        <time>2018-05-25T07:06:54Z</time>
      </trkpt>
      <trkpt lat="42.275089966133237" lon="-4.45463402196765">
        <ele>772.89999999999998</ele>
        <time>2018-05-25T07:07:00Z</time>
      </trkpt>
      <trkpt lat="42.274597026407719" lon="-4.453904964029789">
        <ele>774</ele>
        <time>2018-05-25T07:07:22Z</time>
      </trkpt>
      <trkpt lat="42.274574982002378" lon="-4.453861964866519">
        <ele>774</ele>
        <time>2018-05-25T07:07:23Z</time>
      </trkpt>
      <trkpt lat="42.274488983675838" lon="-4.45371201261878">
        <ele>774</ele>
        <time>2018-05-25T07:07:27Z</time>
      </trkpt>
      <trkpt lat="42.274317992851138" lon="-4.45345401763916">
        <ele>774</ele>
        <time>2018-05-25T07:07:35Z</time>
      </trkpt>
      <trkpt lat="42.273674011230469" lon="-4.45246696472168">
        <ele>774.5</ele>
        <time>2018-05-25T07:08:03Z</time>
      </trkpt>
      <trkpt lat="42.273609973490238" lon="-4.452360011637211">
        <ele>774.60000000000002</ele>
        <time>2018-05-25T07:08:07Z</time>
      </trkpt>
      <trkpt lat="42.273566974326968" lon="-4.452274013310671">
        <ele>774.60000000000002</ele>
        <time>2018-05-25T07:08:09Z</time>
      </trkpt>
      <trkpt lat="42.273480976000428" lon="-4.4521239772439">
        <ele>774.60000000000002</ele>
        <time>2018-05-25T07:08:13Z</time>
      </trkpt>
      <trkpt lat="42.273417022079229" lon="-4.45203797891736">
        <ele>774.60000000000002</ele>
        <time>2018-05-25T07:08:16Z</time>
      </trkpt>
      <trkpt lat="42.273073028773069" lon="-4.451522994786501">
        <ele>774.29999999999995</ele>
        <time>2018-05-25T07:08:31Z</time>
      </trkpt>
      <trkpt lat="42.273008991032839" lon="-4.451393997296691">
        <ele>774.20000000000005</ele>
        <time>2018-05-25T07:08:34Z</time>
      </trkpt>
      <trkpt lat="42.272707996889949" lon="-4.45094296708703">
        <ele>773.10000000000002</ele>
        <time>2018-05-25T07:08:48Z</time>
      </trkpt>
      <trkpt lat="42.272643959149718" lon="-4.450836014002562">
        <ele>772.79999999999995</ele>
        <time>2018-05-25T07:08:51Z</time>
      </trkpt>
      <trkpt lat="42.272580005228519" lon="-4.450707016512752">
        <ele>772.60000000000002</ele>
        <time>2018-05-25T07:08:54Z</time>
      </trkpt>
      <trkpt lat="42.272451007738709" lon="-4.450470982119441">
        <ele>772.10000000000002</ele>
        <time>2018-05-25T07:09:00Z</time>
      </trkpt>
      <trkpt lat="42.272365009412169" lon="-4.450342990458012">
        <ele>772.10000000000002</ele>
        <time>2018-05-25T07:09:04Z</time>
      </trkpt>
      <trkpt lat="42.272322010248899" lon="-4.450321029871702">
        <ele>772.10000000000002</ele>
        <time>2018-05-25T07:09:06Z</time>
      </trkpt>
      <trkpt lat="42.27180702611804" lon="-4.449505973607302">
        <ele>774</ele>
        <time>2018-05-25T07:09:29Z</time>
      </trkpt>
      <trkpt lat="42.2717210277915" lon="-4.449399020522833">
        <ele>774.20000000000005</ele>
        <time>2018-05-25T07:09:33Z</time>
      </trkpt>
      <trkpt lat="42.271205959841609" lon="-4.449419975280762">
        <ele>775.70000000000005</ele>
        <time>2018-05-25T07:09:48Z</time>
      </trkpt>
      <trkpt lat="42.27103496901691" lon="-4.449419975280762">
        <ele>776.20000000000005</ele>
        <time>2018-05-25T07:09:53Z</time>
      </trkpt>
      <trkpt lat="42.2709059715271" lon="-4.449441013857722">
        <ele>776.60000000000002</ele>
        <time>2018-05-25T07:09:57Z</time>
      </trkpt>
      <trkpt lat="42.27069097571075" lon="-4.449441013857722">
        <ele>777.10000000000002</ele>
        <time>2018-05-25T07:10:03Z</time>
      </trkpt>
      <trkpt lat="42.27056298404932" lon="-4.449441013857722">
        <ele>777.39999999999998</ele>
        <time>2018-05-25T07:10:07Z</time>
      </trkpt>
      <trkpt lat="42.270455025136471" lon="-4.449441013857722">
        <ele>777.70000000000005</ele>
        <time>2018-05-25T07:10:10Z</time>
      </trkpt>
      <trkpt lat="42.27039098739624" lon="-4.449399020522833">
        <ele>777.70000000000005</ele>
        <time>2018-05-25T07:10:12Z</time>
      </trkpt>
      <trkpt lat="42.270327033475041" lon="-4.449356021359563">
        <ele>777.5</ele>
        <time>2018-05-25T07:10:14Z</time>
      </trkpt>
      <trkpt lat="42.2703049890697" lon="-4.449356021359563">
        <ele>777.39999999999998</ele>
        <time>2018-05-25T07:10:15Z</time>
      </trkpt>
      <trkpt lat="42.27017599157989" lon="-4.449356021359563">
        <ele>777</ele>
        <time>2018-05-25T07:10:19Z</time>
      </trkpt>
      <trkpt lat="42.27013299241662" lon="-4.449290977790952">
        <ele>776.89999999999998</ele>
        <time>2018-05-25T07:10:21Z</time>
      </trkpt>
      <trkpt lat="42.270047999918461" lon="-4.449184024706483">
        <ele>776.60000000000002</ele>
        <time>2018-05-25T07:10:24Z</time>
      </trkpt>
      <trkpt lat="42.269747005775571" lon="-4.448969028890133">
        <ele>776</ele>
        <time>2018-05-25T07:10:34Z</time>
      </trkpt>
      <trkpt lat="42.26968296803534" lon="-4.448841037228704">
        <ele>776</ele>
        <time>2018-05-25T07:10:38Z</time>
      </trkpt>
      <trkpt lat="42.26972596719861" lon="-4.448818992823362">
        <ele>776.10000000000002</ele>
        <time>2018-05-25T07:10:39Z</time>
      </trkpt>
      <trkpt lat="42.26968296803534" lon="-4.448732994496822">
        <ele>776.10000000000002</ele>
        <time>2018-05-25T07:10:41Z</time>
      </trkpt>
      <trkpt lat="42.2695969697088" lon="-4.448646996170282">
        <ele>775.89999999999998</ele>
        <time>2018-05-25T07:10:44Z</time>
      </trkpt>
      <trkpt lat="42.269533015787601" lon="-4.448582958430052">
        <ele>775.70000000000005</ele>
        <time>2018-05-25T07:10:47Z</time>
      </trkpt>
      <trkpt lat="42.269490016624331" lon="-4.448539959266782">
        <ele>775.60000000000002</ele>
        <time>2018-05-25T07:10:48Z</time>
      </trkpt>
      <trkpt lat="42.269167983904481" lon="-4.447832023724914">
        <ele>774.60000000000002</ele>
        <time>2018-05-25T07:11:07Z</time>
      </trkpt>
      <trkpt lat="42.269124984741211" lon="-4.447681987658143">
        <ele>774.60000000000002</ele>
        <time>2018-05-25T07:11:10Z</time>
      </trkpt>
      <trkpt lat="42.269104029983282" lon="-4.447423992678523">
        <ele>774.70000000000005</ele>
        <time>2018-05-25T07:11:16Z</time>
      </trkpt>
      <trkpt lat="42.269061030820012" lon="-4.447296001017094">
        <ele>774.70000000000005</ele>
        <time>2018-05-25T07:11:19Z</time>
      </trkpt>
      <trkpt lat="42.269018031656742" lon="-4.447274040430784">
        <ele>774.60000000000002</ele>
        <time>2018-05-25T07:11:20Z</time>
      </trkpt>
      <trkpt lat="42.268995987251401" lon="-4.447274040430784">
        <ele>774.5</ele>
        <time>2018-05-25T07:11:21Z</time>
      </trkpt>
      <trkpt lat="42.269038986414671" lon="-4.447210002690554">
        <ele>774.60000000000002</ele>
        <time>2018-05-25T07:11:23Z</time>
      </trkpt>
      <trkpt lat="42.269167983904481" lon="-4.446629974991083">
        <ele>775.79999999999995</ele>
        <time>2018-05-25T07:11:36Z</time>
      </trkpt>
      <trkpt lat="42.26942497305572" lon="-4.445278979837894">
        <ele>778.10000000000002</ele>
        <time>2018-05-25T07:12:07Z</time>
      </trkpt>
      <trkpt lat="42.269404018297791" lon="-4.445257019251585">
        <ele>778</ele>
        <time>2018-05-25T07:12:08Z</time>
      </trkpt>
      <trkpt lat="42.269339980557561" lon="-4.445106983184815">
        <ele>777.60000000000002</ele>
        <time>2018-05-25T07:12:11Z</time>
      </trkpt>
      <trkpt lat="42.269318019971251" lon="-4.445063984021545">
        <ele>777.39999999999998</ele>
        <time>2018-05-25T07:12:12Z</time>
      </trkpt>
      <trkpt lat="42.269275020807981" lon="-4.445043029263616">
        <ele>777.20000000000005</ele>
        <time>2018-05-25T07:12:14Z</time>
      </trkpt>
      <trkpt lat="42.269253982231021" lon="-4.445000030100346">
        <ele>777.10000000000002</ele>
        <time>2018-05-25T07:12:15Z</time>
      </trkpt>
      <trkpt lat="42.269146023318172" lon="-4.444828033447266">
        <ele>776.60000000000002</ele>
        <time>2018-05-25T07:12:20Z</time>
      </trkpt>
      <trkpt lat="42.268481003120542" lon="-4.443562030792236">
        <ele>777.20000000000005</ele>
        <time>2018-05-25T07:12:54Z</time>
      </trkpt>
      <trkpt lat="42.267944980412722" lon="-4.442639015614986">
        <ele>780</ele>
        <time>2018-05-25T07:13:20Z</time>
      </trkpt>
      <trkpt lat="42.267772983759642" lon="-4.442339027300477">
        <ele>780.39999999999998</ele>
        <time>2018-05-25T07:13:28Z</time>
      </trkpt>
      <trkpt lat="42.267666030675173" lon="-4.441330013796687">
        <ele>782.20000000000005</ele>
        <time>2018-05-25T07:13:50Z</time>
      </trkpt>
      <trkpt lat="42.267537033185363" lon="-4.439893020316958">
        <ele>780.10000000000002</ele>
        <time>2018-05-25T07:14:22Z</time>
      </trkpt>
      <trkpt lat="42.267429996281862" lon="-4.438670016825199">
        <ele>779.39999999999998</ele>
        <time>2018-05-25T07:14:49Z</time>
      </trkpt>
      <trkpt lat="42.267279960215092" lon="-4.437124980613589">
        <ele>776.79999999999995</ele>
        <time>2018-05-25T07:15:23Z</time>
      </trkpt>
      <trkpt lat="42.267150962725282" lon="-4.435751019045711">
        <ele>777.29999999999995</ele>
        <time>2018-05-25T07:15:54Z</time>
      </trkpt>
      <trkpt lat="42.267021965235472" lon="-4.434271026402712">
        <ele>776</ele>
        <time>2018-05-25T07:16:26Z</time>
      </trkpt>
      <trkpt lat="42.266872012987733" lon="-4.432962024584413">
        <ele>775.70000000000005</ele>
        <time>2018-05-25T07:16:55Z</time>
      </trkpt>
      <trkpt lat="42.266721976920962" lon="-4.431244991719723">
        <ele>775.39999999999998</ele>
        <time>2018-05-25T07:17:33Z</time>
      </trkpt>
      <trkpt lat="42.266592979431152" lon="-4.430044032633305">
        <ele>776</ele>
        <time>2018-05-25T07:18:00Z</time>
      </trkpt>
      <trkpt lat="42.266463981941342" lon="-4.428821029141545">
        <ele>776.20000000000005</ele>
        <time>2018-05-25T07:18:27Z</time>
      </trkpt>
      <trkpt lat="42.266357028856874" lon="-4.427618980407715">
        <ele>776</ele>
        <time>2018-05-25T07:18:54Z</time>
      </trkpt>
      <trkpt lat="42.266206992790103" lon="-4.426223980262876">
        <ele>776</ele>
        <time>2018-05-25T07:19:25Z</time>
      </trkpt>
      <trkpt lat="42.266034996137023" lon="-4.424465037882328">
        <ele>775.89999999999998</ele>
        <time>2018-05-25T07:20:03Z</time>
      </trkpt>
      <trkpt lat="42.265884960070252" lon="-4.422898041084409">
        <ele>775</ele>
        <time>2018-05-25T07:20:38Z</time>
      </trkpt>
      <trkpt lat="42.265735007822514" lon="-4.421482002362609">
        <ele>777</ele>
        <time>2018-05-25T07:21:09Z</time>
      </trkpt>
      <trkpt lat="42.265626965090632" lon="-4.42032303661108">
        <ele>778.89999999999998</ele>
        <time>2018-05-25T07:21:35Z</time>
      </trkpt>
      <trkpt lat="42.265477012842894" lon="-4.41890699788928">
        <ele>775.79999999999995</ele>
        <time>2018-05-25T07:22:06Z</time>
      </trkpt>
      <trkpt lat="42.265306022018194" lon="-4.417190970852971">
        <ele>776.20000000000005</ele>
        <time>2018-05-25T07:22:44Z</time>
      </trkpt>
      <trkpt lat="42.265197979286313" lon="-4.416245995089412">
        <ele>779.5</ele>
        <time>2018-05-25T07:23:05Z</time>
      </trkpt>
      <trkpt lat="42.265111980959773" lon="-4.415388023480773">
        <ele>779.60000000000002</ele>
        <time>2018-05-25T07:23:24Z</time>
      </trkpt>
      <trkpt lat="42.265048027038574" lon="-4.414852000772953">
        <ele>779.60000000000002</ele>
        <time>2018-05-25T07:23:36Z</time>
      </trkpt>
      <trkpt lat="42.265026988461614" lon="-4.414700958877802">
        <ele>779.5</ele>
        <time>2018-05-25T07:23:40Z</time>
      </trkpt>
      <trkpt lat="42.265005027875304" lon="-4.414594005793333">
        <ele>779.5</ele>
        <time>2018-05-25T07:23:42Z</time>
      </trkpt>
      <trkpt lat="42.264983989298344" lon="-4.413799988105893">
        <ele>779.39999999999998</ele>
        <time>2018-05-25T07:24:00Z</time>
      </trkpt>
      <trkpt lat="42.265068981796503" lon="-4.412770019844174">
        <ele>779.29999999999995</ele>
        <time>2018-05-25T07:24:22Z</time>
      </trkpt>
      <trkpt lat="42.265091026201844" lon="-4.412404987961054">
        <ele>779.60000000000002</ele>
        <time>2018-05-25T07:24:30Z</time>
      </trkpt>
      <trkpt lat="42.265111980959773" lon="-4.412104999646545">
        <ele>779.89999999999998</ele>
        <time>2018-05-25T07:24:37Z</time>
      </trkpt>
      <trkpt lat="42.265091026201844" lon="-4.411976002156735">
        <ele>779.79999999999995</ele>
        <time>2018-05-25T07:24:40Z</time>
      </trkpt>
      <trkpt lat="42.265111980959773" lon="-4.410861041396856">
        <ele>779.89999999999998</ele>
        <time>2018-05-25T07:25:04Z</time>
      </trkpt>
      <trkpt lat="42.265091026201844" lon="-4.409187007695437">
        <ele>778.20000000000005</ele>
        <time>2018-05-25T07:25:41Z</time>
      </trkpt>
      <trkpt lat="42.265111980959773" lon="-4.408521987497807">
        <ele>778.29999999999995</ele>
        <time>2018-05-25T07:25:56Z</time>
      </trkpt>
      <trkpt lat="42.265220023691654" lon="-4.407620010897517">
        <ele>779</ele>
        <time>2018-05-25T07:26:16Z</time>
      </trkpt>
      <trkpt lat="42.265712963417172" lon="-4.406762039288878">
        <ele>780</ele>
        <time>2018-05-25T07:26:39Z</time>
      </trkpt>
      <trkpt lat="42.265970958396792" lon="-4.406762039288878">
        <ele>780</ele>
        <time>2018-05-25T07:26:47Z</time>
      </trkpt>
      <trkpt lat="42.266163993626833" lon="-4.406783999875188">
        <ele>780</ele>
        <time>2018-05-25T07:26:53Z</time>
      </trkpt>
      <trkpt lat="42.267408035695553" lon="-4.407040989026427">
        <ele>782.79999999999995</ele>
        <time>2018-05-25T07:27:30Z</time>
      </trkpt>
      <trkpt lat="42.267408035695553" lon="-4.407040989026427">
        <ele>782.79999999999995</ele>
        <time>2018-05-25T07:27:30Z</time>
      </trkpt>
      <trkpt lat="42.267300998792052" lon="-4.407383976504207">
        <ele>782.60000000000002</ele>
        <time>2018-05-25T07:27:38Z</time>
      </trkpt>
      <trkpt lat="42.266872012987733" lon="-4.407320022583008">
        <ele>781.5</ele>
        <time>2018-05-25T07:27:51Z</time>
      </trkpt>
      <trkpt lat="42.266314029693604" lon="-4.407813968136907">
        <ele>780.20000000000005</ele>
        <time>2018-05-25T07:28:11Z</time>
      </trkpt>
      <trkpt lat="42.266142033040524" lon="-4.407191025093198">
        <ele>780</ele>
        <time>2018-05-25T07:28:25Z</time>
      </trkpt>
      <trkpt lat="42.266228031367064" lon="-4.401526032015681">
        <ele>783.39999999999998</ele>
        <time>2018-05-25T07:30:30Z</time>
      </trkpt>
      <trkpt lat="42.264619041234255" lon="-4.399401973932982">
        <ele>784.10000000000002</ele>
        <time>2018-05-25T07:31:36Z</time>
      </trkpt>
      <trkpt lat="42.263825023546815" lon="-4.398994026705623">
        <ele>784.70000000000005</ele>
        <time>2018-05-25T07:32:02Z</time>
      </trkpt>
      <trkpt lat="42.264619041234255" lon="-4.397448990494013">
        <ele>792.89999999999998</ele>
        <time>2018-05-25T07:32:43Z</time>
      </trkpt>
      <trkpt lat="42.264211010187864" lon="-4.394916985183954">
        <ele>789.29999999999995</ele>
        <time>2018-05-25T07:33:40Z</time>
      </trkpt>
      <trkpt lat="42.263031005859375" lon="-4.388781012967229">
        <ele>788.5</ele>
        <time>2018-05-25T07:35:59Z</time>
      </trkpt>
      <trkpt lat="42.260004971176386" lon="-4.38607701100409">
        <ele>791.20000000000005</ele>
        <time>2018-05-25T07:37:46Z</time>
      </trkpt>
      <trkpt lat="42.259489987045527" lon="-4.384983005002141">
        <ele>790.70000000000005</ele>
        <time>2018-05-25T07:38:15Z</time>
      </trkpt>
      <trkpt lat="42.258503017947078" lon="-4.381120037287474">
        <ele>788.89999999999998</ele>
        <time>2018-05-25T07:39:44Z</time>
      </trkpt>
      <trkpt lat="42.258332027122378" lon="-4.365262985229492">
        <ele>789.79999999999995</ele>
        <time>2018-05-25T07:45:32Z</time>
      </trkpt>
      <trkpt lat="42.259383033961058" lon="-4.358311034739018">
        <ele>788</ele>
        <time>2018-05-25T07:48:08Z</time>
      </trkpt>
      <trkpt lat="42.261872040107846" lon="-4.353825962170959">
        <ele>785.29999999999995</ele>
        <time>2018-05-25T07:50:11Z</time>
      </trkpt>
      <trkpt lat="42.262988006696105" lon="-4.351036967709661">
        <ele>786.20000000000005</ele>
        <time>2018-05-25T07:51:20Z</time>
      </trkpt>
      <trkpt lat="42.261614967137575" lon="-4.349749004468322">
        <ele>786.29999999999995</ele>
        <time>2018-05-25T07:52:10Z</time>
      </trkpt>
      <trkpt lat="42.260884987190366" lon="-4.348633037880063">
        <ele>784.89999999999998</ele>
        <time>2018-05-25T07:52:43Z</time>
      </trkpt>
      <trkpt lat="42.259855018928647" lon="-4.348569000139833">
        <ele>783.29999999999995</ele>
        <time>2018-05-25T07:53:13Z</time>
      </trkpt>
      <trkpt lat="42.259254036471248" lon="-4.348782990127802">
        <ele>783</ele>
        <time>2018-05-25T07:53:31Z</time>
      </trkpt>
      <trkpt lat="42.257966995239258" lon="-4.347925018519163">
        <ele>782</ele>
        <time>2018-05-25T07:54:14Z</time>
      </trkpt>
      <trkpt lat="42.258395981043577" lon="-4.347173999994993">
        <ele>782.39999999999998</ele>
        <time>2018-05-25T07:54:35Z</time>
      </trkpt>
      <trkpt lat="42.260477961972356" lon="-4.346079993993044">
        <ele>781.89999999999998</ele>
        <time>2018-05-25T07:55:41Z</time>
      </trkpt>
      <trkpt lat="42.261915039271116" lon="-4.343956019729376">
        <ele>783.89999999999998</ele>
        <time>2018-05-25T07:56:44Z</time>
      </trkpt>
      <trkpt lat="42.262945007532835" lon="-4.341252017766237">
        <ele>788</ele>
        <time>2018-05-25T07:57:51Z</time>
      </trkpt>
      <trkpt lat="42.266700016334653" lon="-4.333419967442751">
        <ele>785.29999999999995</ele>
        <time>2018-05-25T08:01:16Z</time>
      </trkpt>
      <trkpt lat="42.269661007449031" lon="-4.326167022809386">
        <ele>795.79999999999995</ele>
        <time>2018-05-25T08:04:17Z</time>
      </trkpt>
      <trkpt lat="42.271913979202509" lon="-4.316253997385502">
        <ele>800</ele>
        <time>2018-05-25T08:08:05Z</time>
      </trkpt>
      <trkpt lat="42.274468028917909" lon="-4.309902023524046">
        <ele>808.10000000000002</ele>
        <time>2018-05-25T08:10:43Z</time>
      </trkpt>
      <trkpt lat="42.276034019887447" lon="-4.304086994379759">
        <ele>825</ele>
        <time>2018-05-25T08:12:59Z</time>
      </trkpt>
      <trkpt lat="42.277558017522097" lon="-4.299623966217041">
        <ele>811.10000000000002</ele>
        <time>2018-05-25T08:14:47Z</time>
      </trkpt>
      <trkpt lat="42.278887974098325" lon="-4.296041037887335">
        <ele>807</ele>
        <time>2018-05-25T08:16:15Z</time>
      </trkpt>
      <trkpt lat="42.279102969914675" lon="-4.292200030758977">
        <ele>801.29999999999995</ele>
        <time>2018-05-25T08:17:39Z</time>
      </trkpt>
      <trkpt lat="42.280024979263544" lon="-4.288230026140809">
        <ele>797.79999999999995</ele>
        <time>2018-05-25T08:19:10Z</time>
      </trkpt>
      <trkpt lat="42.280539963394403" lon="-4.287694003432989">
        <ele>797.29999999999995</ele>
        <time>2018-05-25T08:19:30Z</time>
      </trkpt>
      <trkpt lat="42.280927039682865" lon="-4.28674902766943">
        <ele>794.5</ele>
        <time>2018-05-25T08:19:53Z</time>
      </trkpt>
      <trkpt lat="42.280861996114254" lon="-4.284046031534672">
        <ele>787.5</ele>
        <time>2018-05-25T08:20:53Z</time>
      </trkpt>
      <trkpt lat="42.281227027997375" lon="-4.282157002016902">
        <ele>782.29999999999995</ele>
        <time>2018-05-25T08:21:35Z</time>
      </trkpt>
      <trkpt lat="42.282642982900143" lon="-4.274089001119137">
        <ele>778.29999999999995</ele>
        <time>2018-05-25T08:24:37Z</time>
      </trkpt>
      <trkpt lat="42.284017028287053" lon="-4.269711971282959">
        <ele>774.39999999999998</ele>
        <time>2018-05-25T08:26:22Z</time>
      </trkpt>
      <trkpt lat="42.285003997385502" lon="-4.266343032941222">
        <ele>770.29999999999995</ele>
        <time>2018-05-25T08:27:41Z</time>
      </trkpt>
      <trkpt lat="42.285646973177791" lon="-4.264112021774054">
        <ele>768.79999999999995</ele>
        <time>2018-05-25T08:28:33Z</time>
      </trkpt>
      <trkpt lat="42.287107016891241" lon="-4.261494018137455">
        <ele>767.29999999999995</ele>
        <time>2018-05-25T08:29:45Z</time>
      </trkpt>
      <trkpt lat="42.28723500855267" lon="-4.260291969403625">
        <ele>769.20000000000005</ele>
        <time>2018-05-25T08:30:12Z</time>
      </trkpt>
      <trkpt lat="42.2871920093894" lon="-4.256880031898618">
        <ele>770.29999999999995</ele>
        <time>2018-05-25T08:31:27Z</time>
      </trkpt>
      <trkpt lat="42.28727800771594" lon="-4.256665958091617">
        <ele>770.5</ele>
        <time>2018-05-25T08:31:32Z</time>
      </trkpt>
      <trkpt lat="42.286655986681581" lon="-4.256043015047908">
        <ele>769</ele>
        <time>2018-05-25T08:31:55Z</time>
      </trkpt>
      <trkpt lat="42.285260986536741" lon="-4.254111992195249">
        <ele>768.5</ele>
        <time>2018-05-25T08:32:54Z</time>
      </trkpt>
      <trkpt lat="42.284552967175841" lon="-4.253103984519839">
        <ele>768</ele>
        <time>2018-05-25T08:33:25Z</time>
      </trkpt>
      <trkpt lat="42.283865986391902" lon="-4.252610038965941">
        <ele>766.60000000000002</ele>
        <time>2018-05-25T08:33:48Z</time>
      </trkpt>
      <trkpt lat="42.281977962702513" lon="-4.250528980046511">
        <ele>765.70000000000005</ele>
        <time>2018-05-25T08:35:00Z</time>
      </trkpt>
      <trkpt lat="42.279210006818175" lon="-4.250078033655882">
        <ele>766.70000000000005</ele>
        <time>2018-05-25T08:36:23Z</time>
      </trkpt>
      <trkpt lat="42.277578972280025" lon="-4.248362006619573">
        <ele>766.39999999999998</ele>
        <time>2018-05-25T08:37:24Z</time>
      </trkpt>
      <trkpt lat="42.277535973116755" lon="-4.247460030019283">
        <ele>767</ele>
        <time>2018-05-25T08:37:44Z</time>
      </trkpt>
      <trkpt lat="42.277558017522097" lon="-4.247309993952513">
        <ele>767.10000000000002</ele>
        <time>2018-05-25T08:37:47Z</time>
      </trkpt>
      <trkpt lat="42.277815006673336" lon="-4.246773971244693">
        <ele>767.39999999999998</ele>
        <time>2018-05-25T08:38:01Z</time>
      </trkpt>
      <trkpt lat="42.277944004163146" lon="-4.246429977938533">
        <ele>767.20000000000005</ele>
        <time>2018-05-25T08:38:10Z</time>
      </trkpt>
      <trkpt lat="42.278223037719727" lon="-4.245830001309514">
        <ele>765.79999999999995</ele>
        <time>2018-05-25T08:38:25Z</time>
      </trkpt>
      <trkpt lat="42.279382003471255" lon="-4.242374980822206">
        <ele>766.89999999999998</ele>
        <time>2018-05-25T08:39:48Z</time>
      </trkpt>
      <trkpt lat="42.279918026179075" lon="-4.241388011723757">
        <ele>771.5</ele>
        <time>2018-05-25T08:40:15Z</time>
      </trkpt>
      <trkpt lat="42.281634975224733" lon="-4.236795986071229">
        <ele>787.70000000000005</ele>
        <time>2018-05-25T08:42:08Z</time>
      </trkpt>
      <trkpt lat="42.281720973551273" lon="-4.23396298661828">
        <ele>795.29999999999995</ele>
        <time>2018-05-25T08:43:10Z</time>
      </trkpt>
      <trkpt lat="42.281270027160645" lon="-4.228341998532414">
        <ele>798.60000000000002</ele>
        <time>2018-05-25T08:45:14Z</time>
      </trkpt>
      <trkpt lat="42.281184028834105" lon="-4.226753963157535">
        <ele>792.89999999999998</ele>
        <time>2018-05-25T08:45:49Z</time>
      </trkpt>
      <trkpt lat="42.282407032325864" lon="-4.223706973716617">
        <ele>788.89999999999998</ele>
        <time>2018-05-25T08:47:05Z</time>
      </trkpt>
      <trkpt lat="42.283223010599613" lon="-4.220358990132809">
        <ele>787.10000000000002</ele>
        <time>2018-05-25T08:48:22Z</time>
      </trkpt>
      <trkpt lat="42.283822987228632" lon="-4.215766964480281">
        <ele>789.20000000000005</ele>
        <time>2018-05-25T08:50:05Z</time>
      </trkpt>
      <trkpt lat="42.285583019256592" lon="-4.209415996447206">
        <ele>792.70000000000005</ele>
        <time>2018-05-25T08:52:33Z</time>
      </trkpt>
      <trkpt lat="42.285798015072942" lon="-4.20336501672864">
        <ele>797.5</ele>
        <time>2018-05-25T08:54:46Z</time>
      </trkpt>
      <trkpt lat="42.286397991701961" lon="-4.2012619972229">
        <ele>807.70000000000005</ele>
        <time>2018-05-25T08:55:36Z</time>
      </trkpt>
      <trkpt lat="42.286055004224181" lon="-4.197978973388672">
        <ele>815.70000000000005</ele>
        <time>2018-05-25T08:56:48Z</time>
      </trkpt>
      <trkpt lat="42.286076964810491" lon="-4.190319003537297">
        <ele>835.70000000000005</ele>
        <time>2018-05-25T08:59:36Z</time>
      </trkpt>
      <trkpt lat="42.285969005897641" lon="-4.188301982358098">
        <ele>850</ele>
        <time>2018-05-25T09:00:21Z</time>
      </trkpt>
      <trkpt lat="42.28686997666955" lon="-4.18512599542737">
        <ele>898</ele>
        <time>2018-05-25T09:01:37Z</time>
      </trkpt>
      <trkpt lat="42.28695597499609" lon="-4.185104034841061">
        <ele>898.10000000000002</ele>
        <time>2018-05-25T09:01:39Z</time>
      </trkpt>
      <trkpt lat="42.287384960800409" lon="-4.18476096354425">
        <ele>902.70000000000005</ele>
        <time>2018-05-25T09:01:54Z</time>
      </trkpt>
      <trkpt lat="42.287686038762331" lon="-4.183924030512571">
        <ele>908.89999999999998</ele>
        <time>2018-05-25T09:02:14Z</time>
      </trkpt>
      <trkpt lat="42.287643039599061" lon="-4.182464992627502">
        <ele>910.39999999999998</ele>
        <time>2018-05-25T09:02:46Z</time>
      </trkpt>
      <trkpt lat="42.28732100687921" lon="-4.179161014035344">
        <ele>906.20000000000005</ele>
        <time>2018-05-25T09:04:00Z</time>
      </trkpt>
      <trkpt lat="42.28871600702405" lon="-4.176242016255856">
        <ele>882.10000000000002</ele>
        <time>2018-05-25T09:05:16Z</time>
      </trkpt>
      <trkpt lat="42.2892090305686" lon="-4.173473976552486">
        <ele>847.39999999999998</ele>
        <time>2018-05-25T09:06:19Z</time>
      </trkpt>
      <trkpt lat="42.289939010515809" lon="-4.171972023323178">
        <ele>841.60000000000002</ele>
        <time>2018-05-25T09:06:59Z</time>
      </trkpt>
      <trkpt lat="42.290025008842349" lon="-4.171307003125548">
        <ele>830.20000000000005</ele>
        <time>2018-05-25T09:07:14Z</time>
      </trkpt>
      <trkpt lat="42.290238998830318" lon="-4.17027703486383">
        <ele>809.29999999999995</ele>
        <time>2018-05-25T09:07:38Z</time>
      </trkpt>
      <trkpt lat="42.290862025693059" lon="-4.169461978599429">
        <ele>805.39999999999998</ele>
        <time>2018-05-25T09:08:03Z</time>
      </trkpt>
      <trkpt lat="42.290753982961178" lon="-4.16813101619482">
        <ele>784.20000000000005</ele>
        <time>2018-05-25T09:08:33Z</time>
      </trkpt>
      <trkpt lat="42.290990017354488" lon="-4.166565025225282">
        <ele>774.39999999999998</ele>
        <time>2018-05-25T09:09:08Z</time>
      </trkpt>
      <trkpt lat="42.291054977104068" lon="-4.165556011721492">
        <ele>773.10000000000002</ele>
        <time>2018-05-25T09:09:31Z</time>
      </trkpt>
      <trkpt lat="42.289874972775578" lon="-4.163346039131284">
        <ele>768.89999999999998</ele>
        <time>2018-05-25T09:10:30Z</time>
      </trkpt>
      <trkpt lat="42.289959965273738" lon="-4.162767017260194">
        <ele>768.10000000000002</ele>
        <time>2018-05-25T09:10:43Z</time>
      </trkpt>
      <trkpt lat="42.289702976122499" lon="-4.157380973920226">
        <ele>772.89999999999998</ele>
        <time>2018-05-25T09:12:42Z</time>
      </trkpt>
      <trkpt lat="42.289767013862729" lon="-4.155793022364378">
        <ele>775.79999999999995</ele>
        <time>2018-05-25T09:13:17Z</time>
      </trkpt>
      <trkpt lat="42.289982009679079" lon="-4.150171028450131">
        <ele>782.79999999999995</ele>
        <time>2018-05-25T09:15:20Z</time>
      </trkpt>
      <trkpt lat="42.289788974449039" lon="-4.148068008944392">
        <ele>785.60000000000002</ele>
        <time>2018-05-25T09:16:06Z</time>
      </trkpt>
      <trkpt lat="42.289896011352539" lon="-4.146651970222592">
        <ele>789.5</ele>
        <time>2018-05-25T09:16:38Z</time>
      </trkpt>
      <trkpt lat="42.290002964437008" lon="-4.145451011136174">
        <ele>796.79999999999995</ele>
        <time>2018-05-25T09:17:04Z</time>
      </trkpt>
      <trkpt lat="42.290088962763548" lon="-4.145385967567563">
        <ele>797.39999999999998</ele>
        <time>2018-05-25T09:17:07Z</time>
      </trkpt>
      <trkpt lat="42.291033016517758" lon="-4.145021019503474">
        <ele>799.29999999999995</ele>
        <time>2018-05-25T09:17:36Z</time>
      </trkpt>
      <trkpt lat="42.290862025693059" lon="-4.144205963239074">
        <ele>804.70000000000005</ele>
        <time>2018-05-25T09:17:55Z</time>
      </trkpt>
      <trkpt lat="42.2903470415622" lon="-4.144162964075804">
        <ele>805.20000000000005</ele>
        <time>2018-05-25T09:18:10Z</time>
      </trkpt>
      <trkpt lat="42.28837301954627" lon="-4.140643989667296">
        <ele>798.20000000000005</ele>
        <time>2018-05-25T09:19:47Z</time>
      </trkpt>
      <trkpt lat="42.28798602707684" lon="-4.139677975326777">
        <ele>795.10000000000002</ele>
        <time>2018-05-25T09:20:11Z</time>
      </trkpt>
      <trkpt lat="42.28800798766315" lon="-4.138863002881408">
        <ele>798.89999999999998</ele>
        <time>2018-05-25T09:20:29Z</time>
      </trkpt>
      <trkpt lat="42.288608970120549" lon="-4.13585901260376">
        <ele>802</ele>
        <time>2018-05-25T09:21:37Z</time>
      </trkpt>
      <trkpt lat="42.2885010112077" lon="-4.13512903265655">
        <ele>795.60000000000002</ele>
        <time>2018-05-25T09:21:54Z</time>
      </trkpt>
      <trkpt lat="42.288972996175289" lon="-4.134121024981141">
        <ele>794.70000000000005</ele>
        <time>2018-05-25T09:22:20Z</time>
      </trkpt>
      <trkpt lat="42.290002964437008" lon="-4.133176971226931">
        <ele>797</ele>
        <time>2018-05-25T09:22:57Z</time>
      </trkpt>
      <trkpt lat="42.292213020846248" lon="-4.131932007148862">
        <ele>804.39999999999998</ele>
        <time>2018-05-25T09:24:08Z</time>
      </trkpt>
      <trkpt lat="42.292491970583797" lon="-4.131417023018003">
        <ele>799.39999999999998</ele>
        <time>2018-05-25T09:24:22Z</time>
      </trkpt>
      <trkpt lat="42.292385017499328" lon="-4.130644965916872">
        <ele>794.39999999999998</ele>
        <time>2018-05-25T09:24:39Z</time>
      </trkpt>
      <trkpt lat="42.292234981432557" lon="-4.129937030375004">
        <ele>791.60000000000002</ele>
        <time>2018-05-25T09:24:55Z</time>
      </trkpt>
      <trkpt lat="42.292128028348088" lon="-4.129464961588383">
        <ele>790</ele>
        <time>2018-05-25T09:25:06Z</time>
      </trkpt>
      <trkpt lat="42.292406978085637" lon="-4.128799019381404">
        <ele>789.70000000000005</ele>
        <time>2018-05-25T09:25:23Z</time>
      </trkpt>
      <trkpt lat="42.292749965563416" lon="-4.128091000020504">
        <ele>791</ele>
        <time>2018-05-25T09:25:41Z</time>
      </trkpt>
      <trkpt lat="42.292213020846248" lon="-4.127233028411865">
        <ele>787.89999999999998</ele>
        <time>2018-05-25T09:26:06Z</time>
      </trkpt>
      <trkpt lat="42.292042030021548" lon="-4.126310013234615">
        <ele>786.89999999999998</ele>
        <time>2018-05-25T09:26:27Z</time>
      </trkpt>
      <trkpt lat="42.292299019172788" lon="-4.124378990381956">
        <ele>786.10000000000002</ele>
        <time>2018-05-25T09:27:10Z</time>
      </trkpt>
      <trkpt lat="42.292171027511358" lon="-4.120560027658939">
        <ele>788</ele>
        <time>2018-05-25T09:28:34Z</time>
      </trkpt>
      <trkpt lat="42.291913032531738" lon="-4.113371036946774">
        <ele>792.39999999999998</ele>
        <time>2018-05-25T09:31:12Z</time>
      </trkpt>
      <trkpt lat="42.291676998138428" lon="-4.106053970754147">
        <ele>796</ele>
        <time>2018-05-25T09:33:52Z</time>
      </trkpt>
      <trkpt lat="42.291633998975158" lon="-4.104252029210329">
        <ele>799.39999999999998</ele>
        <time>2018-05-25T09:34:32Z</time>
      </trkpt>
      <trkpt lat="42.291676998138428" lon="-4.10260003991425">
        <ele>800.60000000000002</ele>
        <time>2018-05-25T09:35:08Z</time>
      </trkpt>
      <trkpt lat="42.292277980595827" lon="-4.100497020408511">
        <ele>803.79999999999995</ele>
        <time>2018-05-25T09:35:57Z</time>
      </trkpt>
      <trkpt lat="42.292320979759097" lon="-4.10038897767663">
        <ele>803.89999999999998</ele>
        <time>2018-05-25T09:36:00Z</time>
      </trkpt>
      <trkpt lat="42.292428016662598" lon="-4.100153027102351">
        <ele>803.70000000000005</ele>
        <time>2018-05-25T09:36:06Z</time>
      </trkpt>
      <trkpt lat="42.292814003303647" lon="-4.099102020263672">
        <ele>802.60000000000002</ele>
        <time>2018-05-25T09:36:32Z</time>
      </trkpt>
      <trkpt lat="42.295604003593326" lon="-4.095754958689213">
        <ele>810.29999999999995</ele>
        <time>2018-05-25T09:38:22Z</time>
      </trkpt>
      <trkpt lat="42.300110030919313" lon="-4.092149985954166">
        <ele>813.29999999999995</ele>
        <time>2018-05-25T09:40:57Z</time>
      </trkpt>
      <trkpt lat="42.301439987495542" lon="-4.091226970776916">
        <ele>813.39999999999998</ele>
        <time>2018-05-25T09:41:42Z</time>
      </trkpt>
      <trkpt lat="42.302834987640381" lon="-4.087365008890629">
        <ele>810.89999999999998</ele>
        <time>2018-05-25T09:43:16Z</time>
      </trkpt>
      <trkpt lat="42.304037036374211" lon="-4.087707996368408">
        <ele>818</ele>
        <time>2018-05-25T09:43:52Z</time>
      </trkpt>
      <trkpt lat="42.306503998115659" lon="-4.084361018612981">
        <ele>816.5</ele>
        <time>2018-05-25T09:45:36Z</time>
      </trkpt>
      <trkpt lat="42.308413982391357" lon="-4.079876029863954">
        <ele>822.10000000000002</ele>
        <time>2018-05-25T09:47:29Z</time>
      </trkpt>
      <trkpt lat="42.309701023623347" lon="-4.074726020917296">
        <ele>823.20000000000005</ele>
        <time>2018-05-25T09:49:29Z</time>
      </trkpt>
      <trkpt lat="42.309851981699467" lon="-4.073051987215877">
        <ele>825.70000000000005</ele>
        <time>2018-05-25T09:50:06Z</time>
      </trkpt>
      <trkpt lat="42.310882033780217" lon="-4.070562981069088">
        <ele>828.89999999999998</ele>
        <time>2018-05-25T09:51:08Z</time>
      </trkpt>
      <trkpt lat="42.310773991048336" lon="-4.068631958216429">
        <ele>836</ele>
        <time>2018-05-25T09:51:51Z</time>
      </trkpt>
      <trkpt lat="42.310603000223637" lon="-4.064877033233643">
        <ele>837.79999999999995</ele>
        <time>2018-05-25T09:53:13Z</time>
      </trkpt>
      <trkpt lat="42.311568008735776" lon="-4.061766006052494">
        <ele>849.29999999999995</ele>
        <time>2018-05-25T09:54:27Z</time>
      </trkpt>
      <trkpt lat="42.312168991193175" lon="-4.060627995058894">
        <ele>853</ele>
        <time>2018-05-25T09:54:58Z</time>
      </trkpt>
      <trkpt lat="42.313178004696965" lon="-4.057387970387936">
        <ele>848.10000000000002</ele>
        <time>2018-05-25T09:56:15Z</time>
      </trkpt>
      <trkpt lat="42.314035976305604" lon="-4.054019032046199">
        <ele>847.70000000000005</ele>
        <time>2018-05-25T09:57:33Z</time>
      </trkpt>
      <trkpt lat="42.313734982162714" lon="-4.05125099234283">
        <ele>844.20000000000005</ele>
        <time>2018-05-25T09:58:34Z</time>
      </trkpt>
      <trkpt lat="42.313972022384405" lon="-4.049276970326901">
        <ele>857.60000000000002</ele>
        <time>2018-05-25T09:59:18Z</time>
      </trkpt>
      <trkpt lat="42.313606990501285" lon="-4.047882976010442">
        <ele>866.70000000000005</ele>
        <time>2018-05-25T09:59:51Z</time>
      </trkpt>
      <trkpt lat="42.312898971140385" lon="-4.046315979212523">
        <ele>870.79999999999995</ele>
        <time>2018-05-25T10:00:31Z</time>
      </trkpt>
      <trkpt lat="42.312706019729376" lon="-4.044920979067683">
        <ele>868.79999999999995</ele>
        <time>2018-05-25T10:01:02Z</time>
      </trkpt>
      <trkpt lat="42.312554977834225" lon="-4.044771026819944">
        <ele>869.70000000000005</ele>
        <time>2018-05-25T10:01:08Z</time>
      </trkpt>
      <trkpt lat="42.312620021402836" lon="-4.044835986569524">
        <ele>869.29999999999995</ele>
        <time>2018-05-25T10:01:10Z</time>
      </trkpt>
      <trkpt lat="42.312534023076296" lon="-4.044728027656674">
        <ele>869.70000000000005</ele>
        <time>2018-05-25T10:01:13Z</time>
      </trkpt>
      <trkpt lat="42.312652040272951" lon="-4.044301975518465">
        <ele>869.10000000000002</ele>
        <time>2018-05-25T10:01:23Z</time>
      </trkpt>
      <trkpt lat="42.312652040272951" lon="-4.044193010777235">
        <ele>869.20000000000005</ele>
        <time>2018-05-25T10:01:26Z</time>
      </trkpt>
      <trkpt lat="42.312734015285969" lon="-4.043054999783635">
        <ele>874.20000000000005</ele>
        <time>2018-05-25T10:01:51Z</time>
      </trkpt>
      <trkpt lat="42.312752958387136" lon="-4.042992973700166">
        <ele>874.5</ele>
        <time>2018-05-25T10:01:52Z</time>
      </trkpt>
      <trkpt lat="42.312765028327703" lon="-4.042922984808683">
        <ele>875</ele>
        <time>2018-05-25T10:01:54Z</time>
      </trkpt>
      <trkpt lat="42.312796963378787" lon="-4.042164003476501">
        <ele>885.29999999999995</ele>
        <time>2018-05-25T10:02:11Z</time>
      </trkpt>
      <trkpt lat="42.312802998349071" lon="-4.042117986828089">
        <ele>885.89999999999998</ele>
        <time>2018-05-25T10:02:12Z</time>
      </trkpt>
      <trkpt lat="42.312796963378787" lon="-4.041661005467176">
        <ele>893.79999999999995</ele>
        <time>2018-05-25T10:02:22Z</time>
      </trkpt>
      <trkpt lat="42.312783971428871" lon="-4.041582969948649">
        <ele>895.29999999999995</ele>
        <time>2018-05-25T10:02:24Z</time>
      </trkpt>
      <trkpt lat="42.312602000311017" lon="-4.040669007226825">
        <ele>908.29999999999995</ele>
        <time>2018-05-25T10:02:45Z</time>
      </trkpt>
      <trkpt lat="42.312589008361101" lon="-4.040631037205458">
        <ele>908.70000000000005</ele>
        <time>2018-05-25T10:02:46Z</time>
      </trkpt>
      <trkpt lat="42.312508039176464" lon="-4.039995018392801">
        <ele>913.20000000000005</ele>
        <time>2018-05-25T10:03:00Z</time>
      </trkpt>
      <trkpt lat="42.312520025297999" lon="-4.039941038936377">
        <ele>913.29999999999995</ele>
        <time>2018-05-25T10:03:01Z</time>
      </trkpt>
      <trkpt lat="42.3125009983778" lon="-4.039615988731384">
        <ele>914.89999999999998</ele>
        <time>2018-05-25T10:03:08Z</time>
      </trkpt>
      <trkpt lat="42.312538968399167" lon="-4.039577012881637">
        <ele>914.70000000000005</ele>
        <time>2018-05-25T10:03:10Z</time>
      </trkpt>
      <trkpt lat="42.312569981440902" lon="-4.039507023990154">
        <ele>914.70000000000005</ele>
        <time>2018-05-25T10:03:12Z</time>
      </trkpt>
      <trkpt lat="42.312589008361101" lon="-4.039190020412207">
        <ele>915.5</ele>
        <time>2018-05-25T10:03:19Z</time>
      </trkpt>
      <trkpt lat="42.312665032222867" lon="-4.038415029644966">
        <ele>917.70000000000005</ele>
        <time>2018-05-25T10:03:36Z</time>
      </trkpt>
      <trkpt lat="42.312677018344402" lon="-4.03836096636951">
        <ele>917.79999999999995</ele>
        <time>2018-05-25T10:03:37Z</time>
      </trkpt>
      <trkpt lat="42.31269596144557" lon="-4.038290977478027">
        <ele>918</ele>
        <time>2018-05-25T10:03:39Z</time>
      </trkpt>
      <trkpt lat="42.312840968370438" lon="-4.037741040810943">
        <ele>919.10000000000002</ele>
        <time>2018-05-25T10:03:51Z</time>
      </trkpt>
      <trkpt lat="42.313067028298974" lon="-4.036610992625356">
        <ele>919.29999999999995</ele>
        <time>2018-05-25T10:04:17Z</time>
      </trkpt>
      <trkpt lat="42.31308002024889" lon="-4.036518037319183">
        <ele>919.29999999999995</ele>
        <time>2018-05-25T10:04:19Z</time>
      </trkpt>
      <trkpt lat="42.313313037157059" lon="-4.035379020497203">
        <ele>920.10000000000002</ele>
        <time>2018-05-25T10:04:45Z</time>
      </trkpt>
      <trkpt lat="42.313325023278594" lon="-4.035340966656804">
        <ele>920.10000000000002</ele>
        <time>2018-05-25T10:04:46Z</time>
      </trkpt>
      <trkpt lat="42.31359601020813" lon="-4.033970022574067">
        <ele>918.79999999999995</ele>
        <time>2018-05-25T10:05:17Z</time>
      </trkpt>
      <trkpt lat="42.313601961359382" lon="-4.033907996490598">
        <ele>918.70000000000005</ele>
        <time>2018-05-25T10:05:18Z</time>
      </trkpt>
      <trkpt lat="42.313614031299949" lon="-4.033838007599115">
        <ele>918.60000000000002</ele>
        <time>2018-05-25T10:05:20Z</time>
      </trkpt>
      <trkpt lat="42.313708998262882" lon="-4.033063016831875">
        <ele>918.89999999999998</ele>
        <time>2018-05-25T10:05:37Z</time>
      </trkpt>
      <trkpt lat="42.313828021287918" lon="-4.032289031893015">
        <ele>920.20000000000005</ele>
        <time>2018-05-25T10:05:55Z</time>
      </trkpt>
      <trkpt lat="42.313841013237834" lon="-4.032212002202869">
        <ele>920.29999999999995</ele>
        <time>2018-05-25T10:05:56Z</time>
      </trkpt>
      <trkpt lat="42.313852999359369" lon="-4.032094990834594">
        <ele>920.5</ele>
        <time>2018-05-25T10:05:59Z</time>
      </trkpt>
      <trkpt lat="42.313865991309285" lon="-4.0319789852947">
        <ele>920.39999999999998</ele>
        <time>2018-05-25T10:06:01Z</time>
      </trkpt>
      <trkpt lat="42.314017033204436" lon="-4.031413961201906">
        <ele>919.70000000000005</ele>
        <time>2018-05-25T10:06:15Z</time>
      </trkpt>
      <trkpt lat="42.314029019325972" lon="-4.031352018937469">
        <ele>919.70000000000005</ele>
        <time>2018-05-25T10:06:16Z</time>
      </trkpt>
      <trkpt lat="42.314047962427139" lon="-4.031267026439309">
        <ele>919.60000000000002</ele>
        <time>2018-05-25T10:06:18Z</time>
      </trkpt>
      <trkpt lat="42.314066989347339" lon="-4.031181028112769">
        <ele>919.60000000000002</ele>
        <time>2018-05-25T10:06:20Z</time>
      </trkpt>
      <trkpt lat="42.314148964360356" lon="-4.030965026468039">
        <ele>919.60000000000002</ele>
        <time>2018-05-25T10:06:25Z</time>
      </trkpt>
      <trkpt lat="42.314174026250839" lon="-4.030638970434666">
        <ele>920.10000000000002</ele>
        <time>2018-05-25T10:06:32Z</time>
      </trkpt>
      <trkpt lat="42.31415499933064" lon="-4.030577028170228">
        <ele>920.29999999999995</ele>
        <time>2018-05-25T10:06:34Z</time>
      </trkpt>
      <trkpt lat="42.314143013209105" lon="-4.030522964894772">
        <ele>920.39999999999998</ele>
        <time>2018-05-25T10:06:35Z</time>
      </trkpt>
      <trkpt lat="42.314130021259189" lon="-4.030421962961555">
        <ele>920.70000000000005</ele>
        <time>2018-05-25T10:06:37Z</time>
      </trkpt>
      <trkpt lat="42.31415499933064" lon="-4.030190035700798">
        <ele>920.60000000000002</ele>
        <time>2018-05-25T10:06:42Z</time>
      </trkpt>
      <trkpt lat="42.31415499933064" lon="-4.030181989073753">
        <ele>920.60000000000002</ele>
        <time>2018-05-25T10:06:43Z</time>
      </trkpt>
      <trkpt lat="42.314205039292574" lon="-4.029802959412336">
        <ele>920.29999999999995</ele>
        <time>2018-05-25T10:06:51Z</time>
      </trkpt>
      <trkpt lat="42.314236974343657" lon="-4.029756020754576">
        <ele>920.10000000000002</ele>
        <time>2018-05-25T10:06:52Z</time>
      </trkpt>
      <trkpt lat="42.314243009313941" lon="-4.029732970520854">
        <ele>920</ele>
        <time>2018-05-25T10:06:53Z</time>
      </trkpt>
      <trkpt lat="42.314444007351995" lon="-4.02959399856627">
        <ele>918.79999999999995</ele>
        <time>2018-05-25T10:07:00Z</time>
      </trkpt>
      <trkpt lat="42.314481977373362" lon="-4.029577989131212">
        <ele>918.60000000000002</ele>
        <time>2018-05-25T10:07:01Z</time>
      </trkpt>
      <trkpt lat="42.314702002331614" lon="-4.029237013310194">
        <ele>918.60000000000002</ele>
        <time>2018-05-25T10:07:11Z</time>
      </trkpt>
      <trkpt lat="42.314708037301898" lon="-4.02922997251153">
        <ele>918.5</ele>
        <time>2018-05-25T10:07:11Z</time>
      </trkpt>
      <trkpt lat="42.315456960350275" lon="-4.027224015444517">
        <ele>920.5</ele>
        <time>2018-05-25T10:08:00Z</time>
      </trkpt>
      <trkpt lat="42.315495014190674" lon="-4.02714597992599">
        <ele>920.70000000000005</ele>
        <time>2018-05-25T10:08:02Z</time>
      </trkpt>
      <trkpt lat="42.315519992262125" lon="-4.0271230135113">
        <ele>920.70000000000005</ele>
        <time>2018-05-25T10:08:03Z</time>
      </trkpt>
      <trkpt lat="42.316017039120197" lon="-4.026015009731054">
        <ele>922.79999999999995</ele>
        <time>2018-05-25T10:08:32Z</time>
      </trkpt>
      <trkpt lat="42.316060960292816" lon="-4.02598399668932">
        <ele>922.60000000000002</ele>
        <time>2018-05-25T10:08:33Z</time>
      </trkpt>
      <trkpt lat="42.31636899523437" lon="-4.025295004248619">
        <ele>923.20000000000005</ele>
        <time>2018-05-25T10:08:51Z</time>
      </trkpt>
      <trkpt lat="42.316400008276105" lon="-4.025225015357137">
        <ele>923.39999999999998</ele>
        <time>2018-05-25T10:08:53Z</time>
      </trkpt>
      <trkpt lat="42.316558007150888" lon="-4.025046983733773">
        <ele>923.79999999999995</ele>
        <time>2018-05-25T10:08:59Z</time>
      </trkpt>
      <trkpt lat="42.316610980778933" lon="-4.024837017059326">
        <ele>924.5</ele>
        <time>2018-05-25T10:09:04Z</time>
      </trkpt>
      <trkpt lat="42.31991495937109" lon="-4.016274986788631">
        <ele>926</ele>
        <time>2018-05-25T10:12:35Z</time>
      </trkpt>
      <trkpt lat="42.321309959515929" lon="-4.009795021265745">
        <ele>925.20000000000005</ele>
        <time>2018-05-25T10:15:03Z</time>
      </trkpt>
      <trkpt lat="42.323326980695128" lon="-4.000547016039491">
        <ele>929.10000000000002</ele>
        <time>2018-05-25T10:18:34Z</time>
      </trkpt>
      <trkpt lat="42.324786018580198" lon="-3.996320022270083">
        <ele>923.79999999999995</ele>
        <time>2018-05-25T10:20:17Z</time>
      </trkpt>
      <trkpt lat="42.325901985168457" lon="-3.993122996762395">
        <ele>912</ele>
        <time>2018-05-25T10:21:34Z</time>
      </trkpt>
      <trkpt lat="42.325987983494997" lon="-3.990612030029297">
        <ele>899</ele>
        <time>2018-05-25T10:22:29Z</time>
      </trkpt>
      <trkpt lat="42.325901985168457" lon="-3.988530971109867">
        <ele>889.20000000000005</ele>
        <time>2018-05-25T10:23:15Z</time>
      </trkpt>
      <trkpt lat="42.326073981821537" lon="-3.987178970128298">
        <ele>889.10000000000002</ele>
        <time>2018-05-25T10:23:45Z</time>
      </trkpt>
      <trkpt lat="42.326631965115666" lon="-3.98428201675415">
        <ele>902.70000000000005</ele>
        <time>2018-05-25T10:24:51Z</time>
      </trkpt>
      <trkpt lat="42.327919006347656" lon="-3.982049999758601">
        <ele>919.29999999999995</ele>
        <time>2018-05-25T10:25:53Z</time>
      </trkpt>
      <trkpt lat="42.327510975301266" lon="-3.971515037119389">
        <ele>934</ele>
        <time>2018-05-25T10:29:44Z</time>
      </trkpt>
      <trkpt lat="42.328370036557317" lon="-3.96629998460412">
        <ele>933</ele>
        <time>2018-05-25T10:31:41Z</time>
      </trkpt>
      <trkpt lat="42.328476989641786" lon="-3.963725985959172">
        <ele>933.89999999999998</ele>
        <time>2018-05-25T10:32:38Z</time>
      </trkpt>
      <trkpt lat="42.328284038230777" lon="-3.961515007540584">
        <ele>914.70000000000005</ele>
        <time>2018-05-25T10:33:27Z</time>
      </trkpt>
      <trkpt lat="42.328112041577697" lon="-3.959949016571045">
        <ele>902.29999999999995</ele>
        <time>2018-05-25T10:34:01Z</time>
      </trkpt>
      <trkpt lat="42.329013012349606" lon="-3.956129970028997">
        <ele>889.89999999999998</ele>
        <time>2018-05-25T10:35:29Z</time>
      </trkpt>
      <trkpt lat="42.329893028363585" lon="-3.954433975741267">
        <ele>885.70000000000005</ele>
        <time>2018-05-25T10:36:15Z</time>
      </trkpt>
      <trkpt lat="42.332296036183834" lon="-3.95095800049603">
        <ele>876.29999999999995</ele>
        <time>2018-05-25T10:37:59Z</time>
      </trkpt>
      <trkpt lat="42.332274997606874" lon="-3.950100028887391">
        <ele>874.20000000000005</ele>
        <time>2018-05-25T10:38:18Z</time>
      </trkpt>
      <trkpt lat="42.333112014457583" lon="-3.948576031252742">
        <ele>870.10000000000002</ele>
        <time>2018-05-25T10:39:00Z</time>
      </trkpt>
      <trkpt lat="42.334184981882572" lon="-3.945208014920354">
        <ele>859.29999999999995</ele>
        <time>2018-05-25T10:40:20Z</time>
      </trkpt>
      <trkpt lat="42.335472023114562" lon="-3.942932998761535">
        <ele>858.20000000000005</ele>
        <time>2018-05-25T10:41:23Z</time>
      </trkpt>
      <trkpt lat="42.337253009900451" lon="-3.935293983668089">
        <ele>839.20000000000005</ele>
        <time>2018-05-25T10:44:18Z</time>
      </trkpt>
      <trkpt lat="42.33785399235785" lon="-3.93342699855566">
        <ele>836.20000000000005</ele>
        <time>2018-05-25T10:45:03Z</time>
      </trkpt>
      <trkpt lat="42.33768199570477" lon="-3.929565036669374">
        <ele>830.89999999999998</ele>
        <time>2018-05-25T10:46:28Z</time>
      </trkpt>
      <trkpt lat="42.338411975651979" lon="-3.926882995292544">
        <ele>824.89999999999998</ele>
        <time>2018-05-25T10:47:30Z</time>
      </trkpt>
      <trkpt lat="42.33860501088202" lon="-3.926431965082884">
        <ele>824.70000000000005</ele>
        <time>2018-05-25T10:47:42Z</time>
      </trkpt>
      <trkpt lat="42.338325977325439" lon="-3.925231005996466">
        <ele>821.39999999999998</ele>
        <time>2018-05-25T10:48:09Z</time>
      </trkpt>
      <trkpt lat="42.338454974815249" lon="-3.924607979133725">
        <ele>820</ele>
        <time>2018-05-25T10:48:23Z</time>
      </trkpt>
      <trkpt lat="42.338862000033259" lon="-3.922161972150207">
        <ele>819</ele>
        <time>2018-05-25T10:49:18Z</time>
      </trkpt>
      <trkpt lat="42.340063964948058" lon="-3.919200981035829">
        <ele>819.20000000000005</ele>
        <time>2018-05-25T10:50:32Z</time>
      </trkpt>
      <trkpt lat="42.340536033734679" lon="-3.914738036692143">
        <ele>825.10000000000002</ele>
        <time>2018-05-25T10:52:11Z</time>
      </trkpt>
      <trkpt lat="42.340857982635498" lon="-3.907442009076476">
        <ele>833.70000000000005</ele>
        <time>2018-05-25T10:54:51Z</time>
      </trkpt>
      <trkpt lat="42.340814983472228" lon="-3.903837036341429">
        <ele>843.89999999999998</ele>
        <time>2018-05-25T10:56:10Z</time>
      </trkpt>
      <trkpt lat="42.341094017028809" lon="-3.897636020556092">
        <ele>886</ele>
        <time>2018-05-25T10:58:27Z</time>
      </trkpt>
      <trkpt lat="42.340922020375729" lon="-3.895984031260014">
        <ele>909.29999999999995</ele>
        <time>2018-05-25T10:59:04Z</time>
      </trkpt>
      <trkpt lat="42.340965019538999" lon="-3.895468963310123">
        <ele>916.89999999999998</ele>
        <time>2018-05-25T10:59:15Z</time>
      </trkpt>
      <trkpt lat="42.341200970113277" lon="-3.894589031115174">
        <ele>921</ele>
        <time>2018-05-25T10:59:36Z</time>
      </trkpt>
      <trkpt lat="42.342274021357298" lon="-3.890511989593506">
        <ele>914.39999999999998</ele>
        <time>2018-05-25T11:01:11Z</time>
      </trkpt>
      <trkpt lat="42.342489017173648" lon="-3.888345016166568">
        <ele>916.20000000000005</ele>
        <time>2018-05-25T11:01:59Z</time>
      </trkpt>
      <trkpt lat="42.342145023867488" lon="-3.88454700820148">
        <ele>920.79999999999995</ele>
        <time>2018-05-25T11:03:22Z</time>
      </trkpt>
      <trkpt lat="42.341823996976018" lon="-3.880234016105533">
        <ele>912.29999999999995</ele>
        <time>2018-05-25T11:04:57Z</time>
      </trkpt>
      <trkpt lat="42.341673038899899" lon="-3.879011012613773">
        <ele>909.70000000000005</ele>
        <time>2018-05-25T11:05:25Z</time>
      </trkpt>
      <trkpt lat="42.342037986963987" lon="-3.874546978622675">
        <ele>892.60000000000002</ele>
        <time>2018-05-25T11:07:03Z</time>
      </trkpt>
      <trkpt lat="42.341694999486208" lon="-3.869139980524778">
        <ele>882.89999999999998</ele>
        <time>2018-05-25T11:09:02Z</time>
      </trkpt>
      <trkpt lat="42.340771984308958" lon="-3.864161968231201">
        <ele>873.20000000000005</ele>
        <time>2018-05-25T11:10:54Z</time>
      </trkpt>
      <trkpt lat="42.340922020375729" lon="-3.858453975990415">
        <ele>865.60000000000002</ele>
        <time>2018-05-25T11:13:00Z</time>
      </trkpt>
      <trkpt lat="42.341458965092897" lon="-3.854140983894467">
        <ele>859.79999999999995</ele>
        <time>2018-05-25T11:14:35Z</time>
      </trkpt>
      <trkpt lat="42.341286968439817" lon="-3.851694976910949">
        <ele>854</ele>
        <time>2018-05-25T11:15:29Z</time>
      </trkpt>
      <trkpt lat="42.341114971786737" lon="-3.85025697760284">
        <ele>848.5</ele>
        <time>2018-05-25T11:16:01Z</time>
      </trkpt>
      <trkpt lat="42.340708030387759" lon="-3.84933496825397">
        <ele>847.60000000000002</ele>
        <time>2018-05-25T11:16:25Z</time>
      </trkpt>
      <trkpt lat="42.340171001851559" lon="-3.843712974339724">
        <ele>840.39999999999998</ele>
        <time>2018-05-25T11:18:29Z</time>
      </trkpt>
      <trkpt lat="42.340364037081599" lon="-3.842145977541804">
        <ele>835.39999999999998</ele>
        <time>2018-05-25T11:19:04Z</time>
      </trkpt>
      <trkpt lat="42.340342998504639" lon="-3.837640034034848">
        <ele>828.70000000000005</ele>
        <time>2018-05-25T11:20:42Z</time>
      </trkpt>
      <trkpt lat="42.340000011026859" lon="-3.835795009508729">
        <ele>828</ele>
        <time>2018-05-25T11:21:24Z</time>
      </trkpt>
      <trkpt lat="42.340665031224489" lon="-3.833499038591981">
        <ele>827.79999999999995</ele>
        <time>2018-05-25T11:22:18Z</time>
      </trkpt>
      <trkpt lat="42.341114971786737" lon="-3.833456039428711">
        <ele>828.39999999999998</ele>
        <time>2018-05-25T11:22:31Z</time>
      </trkpt>
      <trkpt lat="42.342939041554928" lon="-3.830881034955382">
        <ele>827.10000000000002</ele>
        <time>2018-05-25T11:23:50Z</time>
      </trkpt>
      <trkpt lat="42.344827987253666" lon="-3.829615032300353">
        <ele>833.20000000000005</ele>
        <time>2018-05-25T11:24:52Z</time>
      </trkpt>
      <trkpt lat="42.347015999257565" lon="-3.828650023788214">
        <ele>833.29999999999995</ele>
        <time>2018-05-25T11:26:00Z</time>
      </trkpt>
      <trkpt lat="42.347659980878234" lon="-3.828435027971864">
        <ele>825.10000000000002</ele>
        <time>2018-05-25T11:26:20Z</time>
      </trkpt>
      <trkpt lat="42.349033020436764" lon="-3.824036037549377">
        <ele>820.70000000000005</ele>
        <time>2018-05-25T11:28:05Z</time>
      </trkpt>
      <trkpt lat="42.349311970174313" lon="-3.821525992825627">
        <ele>821.89999999999998</ele>
        <time>2018-05-25T11:29:00Z</time>
      </trkpt>
      <trkpt lat="42.348647033795714" lon="-3.821567986160517">
        <ele>821.39999999999998</ele>
        <time>2018-05-25T11:29:20Z</time>
      </trkpt>
      <trkpt lat="42.348368000239134" lon="-3.820968009531498">
        <ele>821.39999999999998</ele>
        <time>2018-05-25T11:29:36Z</time>
      </trkpt>
      <trkpt lat="42.347959969192743" lon="-3.820473980158567">
        <ele>820.20000000000005</ele>
        <time>2018-05-25T11:29:52Z</time>
      </trkpt>
      <trkpt lat="42.347917975857854" lon="-3.819401012733579">
        <ele>820.20000000000005</ele>
        <time>2018-05-25T11:30:15Z</time>
      </trkpt>
      <trkpt lat="42.347917975857854" lon="-3.819401012733579">
        <ele>820.20000000000005</ele>
        <time>2018-05-26T06:00:00Z</time>
      </trkpt>
      <trkpt lat="42.348260963335633" lon="-3.817812977358699">
        <ele>821.5</ele>
        <time>2018-05-26T06:00:36Z</time>
      </trkpt>
      <trkpt lat="42.347682025283575" lon="-3.81742699071765">
        <ele>821.29999999999995</ele>
        <time>2018-05-26T06:00:55Z</time>
      </trkpt>
      <trkpt lat="42.348475037142634" lon="-3.81682600826025">
        <ele>822.60000000000002</ele>
        <time>2018-05-26T06:01:22Z</time>
      </trkpt>
      <trkpt lat="42.349140979349613" lon="-3.81558196619153">
        <ele>825</ele>
        <time>2018-05-26T06:01:55Z</time>
      </trkpt>
      <trkpt lat="42.348325001075864" lon="-3.812920963391662">
        <ele>827.5</ele>
        <time>2018-05-26T06:02:58Z</time>
      </trkpt>
      <trkpt lat="42.347917975857854" lon="-3.810538994148374">
        <ele>825.20000000000005</ele>
        <time>2018-05-26T06:03:52Z</time>
      </trkpt>
      <trkpt lat="42.347639026120305" lon="-3.804660011082888">
        <ele>823.79999999999995</ele>
        <time>2018-05-26T06:06:01Z</time>
      </trkpt>
      <trkpt lat="42.347682025283575" lon="-3.804016029462218">
        <ele>823.70000000000005</ele>
        <time>2018-05-26T06:06:15Z</time>
      </trkpt>
      <trkpt lat="42.348753986880183" lon="-3.80253603681922">
        <ele>826.10000000000002</ele>
        <time>2018-05-26T06:07:00Z</time>
      </trkpt>
      <trkpt lat="42.349913036450744" lon="-3.80039001815021">
        <ele>827.29999999999995</ele>
        <time>2018-05-26T06:07:59Z</time>
      </trkpt>
      <trkpt lat="42.350085033103824" lon="-3.797686016187072">
        <ele>824.5</ele>
        <time>2018-05-26T06:08:58Z</time>
      </trkpt>
      <trkpt lat="42.349677002057433" lon="-3.795711994171143">
        <ele>822.10000000000002</ele>
        <time>2018-05-26T06:09:43Z</time>
      </trkpt>
      <trkpt lat="42.349741039797664" lon="-3.795691039413214">
        <ele>822.39999999999998</ele>
        <time>2018-05-26T06:09:45Z</time>
      </trkpt>
      <trkpt lat="42.349956035614014" lon="-3.795668995007873">
        <ele>823.39999999999998</ele>
        <time>2018-05-26T06:09:51Z</time>
      </trkpt>
      <trkpt lat="42.350042033940554" lon="-3.795711994171143">
        <ele>823.89999999999998</ele>
        <time>2018-05-26T06:09:54Z</time>
      </trkpt>
      <trkpt lat="42.350277984514832" lon="-3.795605041086674">
        <ele>824.79999999999995</ele>
        <time>2018-05-26T06:10:01Z</time>
      </trkpt>
      <trkpt lat="42.350729014724493" lon="-3.794296039268374">
        <ele>823.89999999999998</ele>
        <time>2018-05-26T06:10:33Z</time>
      </trkpt>
      <trkpt lat="42.351394034922123" lon="-3.786012958735228">
        <ele>826.60000000000002</ele>
        <time>2018-05-26T06:13:35Z</time>
      </trkpt>
      <trkpt lat="42.351437034085393" lon="-3.785583972930908">
        <ele>826.60000000000002</ele>
        <time>2018-05-26T06:13:45Z</time>
      </trkpt>
      <trkpt lat="42.351823020726442" lon="-3.783481037244201">
        <ele>828</ele>
        <time>2018-05-26T06:14:32Z</time>
      </trkpt>
      <trkpt lat="42.352252006530762" lon="-3.78200096078217">
        <ele>828.79999999999995</ele>
        <time>2018-05-26T06:15:07Z</time>
      </trkpt>
      <trkpt lat="42.352617038413882" lon="-3.777065025642514">
        <ele>830</ele>
        <time>2018-05-26T06:16:56Z</time>
      </trkpt>
      <trkpt lat="42.351909019052982" lon="-3.772173011675477">
        <ele>829.5</ele>
        <time>2018-05-26T06:18:45Z</time>
      </trkpt>
      <trkpt lat="42.350620971992612" lon="-3.76798901706934">
        <ele>834.29999999999995</ele>
        <time>2018-05-26T06:20:24Z</time>
      </trkpt>
      <trkpt lat="42.349891997873783" lon="-3.767666984349489">
        <ele>834.29999999999995</ele>
        <time>2018-05-26T06:20:47Z</time>
      </trkpt>
      <trkpt lat="42.348518036305904" lon="-3.764319000765681">
        <ele>833.29999999999995</ele>
        <time>2018-05-26T06:22:11Z</time>
      </trkpt>
      <trkpt lat="42.348368000239134" lon="-3.759855972602963">
        <ele>834.79999999999995</ele>
        <time>2018-05-26T06:23:48Z</time>
      </trkpt>
      <trkpt lat="42.347702980041504" lon="-3.754771007224917">
        <ele>841.5</ele>
        <time>2018-05-26T06:25:41Z</time>
      </trkpt>
      <trkpt lat="42.345729041844606" lon="-3.750564968213439">
        <ele>841.60000000000002</ele>
        <time>2018-05-26T06:27:31Z</time>
      </trkpt>
      <trkpt lat="42.344763027504086" lon="-3.747196029871702">
        <ele>840.39999999999998</ele>
        <time>2018-05-26T06:28:50Z</time>
      </trkpt>
      <trkpt lat="42.343926010653377" lon="-3.745564995333552">
        <ele>840.89999999999998</ele>
        <time>2018-05-26T06:29:33Z</time>
      </trkpt>
      <trkpt lat="42.343689976260066" lon="-3.744407035410404">
        <ele>840.79999999999995</ele>
        <time>2018-05-26T06:29:59Z</time>
      </trkpt>
      <trkpt lat="42.342982040718198" lon="-3.736510025337338">
        <ele>843</ele>
        <time>2018-05-26T06:32:54Z</time>
      </trkpt>
      <trkpt lat="42.342575015500188" lon="-3.733420036733151">
        <ele>842.60000000000002</ele>
        <time>2018-05-26T06:34:02Z</time>
      </trkpt>
      <trkpt lat="42.342403018847108" lon="-3.731661010533571">
        <ele>844.60000000000002</ele>
        <time>2018-05-26T06:34:41Z</time>
      </trkpt>
      <trkpt lat="42.341908989474177" lon="-3.727626968175173">
        <ele>846.79999999999995</ele>
        <time>2018-05-26T06:36:11Z</time>
      </trkpt>
      <trkpt lat="42.341458965092897" lon="-3.727434016764164">
        <ele>848.5</ele>
        <time>2018-05-26T06:36:25Z</time>
      </trkpt>
      <trkpt lat="42.341114971786737" lon="-3.726982986554503">
        <ele>849.89999999999998</ele>
        <time>2018-05-26T06:36:39Z</time>
      </trkpt>
      <trkpt lat="42.340794028714299" lon="-3.723871959373355">
        <ele>850.5</ele>
        <time>2018-05-26T06:37:48Z</time>
      </trkpt>
      <trkpt lat="42.340557994320989" lon="-3.723764000460506">
        <ele>850.79999999999995</ele>
        <time>2018-05-26T06:37:55Z</time>
      </trkpt>
      <trkpt lat="42.340599987655878" lon="-3.723656963557005">
        <ele>850.89999999999998</ele>
        <time>2018-05-26T06:37:58Z</time>
      </trkpt>
      <trkpt lat="42.340557994320989" lon="-3.723935997113586">
        <ele>850.79999999999995</ele>
        <time>2018-05-26T06:38:04Z</time>
      </trkpt>
      <trkpt lat="42.340814983472228" lon="-3.723507011309266">
        <ele>850.70000000000005</ele>
        <time>2018-05-26T06:38:16Z</time>
      </trkpt>
      <trkpt lat="42.340514995157719" lon="-3.71855003759265">
        <ele>851</ele>
        <time>2018-05-26T06:40:05Z</time>
      </trkpt>
      <trkpt lat="42.33952802605927" lon="-3.7155029643327">
        <ele>852.89999999999998</ele>
        <time>2018-05-26T06:41:18Z</time>
      </trkpt>
      <trkpt lat="42.33744596131146" lon="-3.711040019989014">
        <ele>853</ele>
        <time>2018-05-26T06:43:13Z</time>
      </trkpt>
      <trkpt lat="42.336910022422671" lon="-3.708637012168765">
        <ele>853.60000000000002</ele>
        <time>2018-05-26T06:44:08Z</time>
      </trkpt>
      <trkpt lat="42.337229959666729" lon="-3.707992024719715">
        <ele>854.29999999999995</ele>
        <time>2018-05-26T06:44:25Z</time>
      </trkpt>
      <trkpt lat="42.337431041523814" lon="-3.707674015313387">
        <ele>854.5</ele>
        <time>2018-05-26T06:44:34Z</time>
      </trkpt>
      <trkpt lat="42.337431041523814" lon="-3.707620035856962">
        <ele>854.5</ele>
        <time>2018-05-26T06:44:36Z</time>
      </trkpt>
      <trkpt lat="42.337425006553531" lon="-3.707580976188183">
        <ele>854.39999999999998</ele>
        <time>2018-05-26T06:44:36Z</time>
      </trkpt>
      <trkpt lat="42.337493989616632" lon="-3.707092981785536">
        <ele>854</ele>
        <time>2018-05-26T06:44:47Z</time>
      </trkpt>
      <trkpt lat="42.337526008486748" lon="-3.707055011764169">
        <ele>854.10000000000002</ele>
        <time>2018-05-26T06:44:49Z</time>
      </trkpt>
      <trkpt lat="42.337545035406947" lon="-3.707007989287376">
        <ele>854.20000000000005</ele>
        <time>2018-05-26T06:44:50Z</time>
      </trkpt>
      <trkpt lat="42.337758019566536" lon="-3.706643963232637">
        <ele>855</ele>
        <time>2018-05-26T06:45:00Z</time>
      </trkpt>
      <trkpt lat="42.337784003466368" lon="-3.706598030403256">
        <ele>855.20000000000005</ele>
        <time>2018-05-26T06:45:01Z</time>
      </trkpt>
      <trkpt lat="42.337802024558187" lon="-3.706536004319787">
        <ele>855.29999999999995</ele>
        <time>2018-05-26T06:45:03Z</time>
      </trkpt>
      <trkpt lat="42.337815016508102" lon="-3.706482024863362">
        <ele>855.39999999999998</ele>
        <time>2018-05-26T06:45:04Z</time>
      </trkpt>
      <trkpt lat="42.338267974555492" lon="-3.705808036029339">
        <ele>856.10000000000002</ele>
        <time>2018-05-26T06:45:24Z</time>
      </trkpt>
      <trkpt lat="42.338279960677028" lon="-3.705746009945869">
        <ele>855.89999999999998</ele>
        <time>2018-05-26T06:45:25Z</time>
      </trkpt>
      <trkpt lat="42.338287001475692" lon="-3.705730000510812">
        <ele>855.89999999999998</ele>
        <time>2018-05-26T06:45:26Z</time>
      </trkpt>
      <trkpt lat="42.338551031425595" lon="-3.705249968916178">
        <ele>855.70000000000005</ele>
        <time>2018-05-26T06:45:39Z</time>
      </trkpt>
      <trkpt lat="42.338826963678002" lon="-3.70490899309516">
        <ele>856.10000000000002</ele>
        <time>2018-05-26T06:45:50Z</time>
      </trkpt>
      <trkpt lat="42.338853031396866" lon="-3.704893989488483">
        <ele>856.20000000000005</ele>
        <time>2018-05-26T06:45:51Z</time>
      </trkpt>
      <trkpt lat="42.339142039418221" lon="-3.705094987526536">
        <ele>857.89999999999998</ele>
        <time>2018-05-26T06:46:00Z</time>
      </trkpt>
      <trkpt lat="42.339216973632574" lon="-3.705490026623011">
        <ele>859.5</ele>
        <time>2018-05-26T06:46:09Z</time>
      </trkpt>
      <trkpt lat="42.339224014431238" lon="-3.705490026623011">
        <ele>859.5</ele>
        <time>2018-05-26T06:46:09Z</time>
      </trkpt>
      <trkpt lat="42.339544035494328" lon="-3.705412996932864">
        <ele>860.79999999999995</ele>
        <time>2018-05-26T06:46:19Z</time>
      </trkpt>
      <trkpt lat="42.339582005515695" lon="-3.705396987497807">
        <ele>860.89999999999998</ele>
        <time>2018-05-26T06:46:20Z</time>
      </trkpt>
      <trkpt lat="42.339833965525031" lon="-3.705164976418018">
        <ele>861.29999999999995</ele>
        <time>2018-05-26T06:46:29Z</time>
      </trkpt>
      <trkpt lat="42.339833965525031" lon="-3.705157013610005">
        <ele>861.29999999999995</ele>
        <time>2018-05-26T06:46:29Z</time>
      </trkpt>
      <trkpt lat="42.340078968554735" lon="-3.704575980082154">
        <ele>860.39999999999998</ele>
        <time>2018-05-26T06:46:44Z</time>
      </trkpt>
      <trkpt lat="42.340085003525019" lon="-3.704569023102522">
        <ele>860.39999999999998</ele>
        <time>2018-05-26T06:46:44Z</time>
      </trkpt>
      <trkpt lat="42.340047033503652" lon="-3.704235004261136">
        <ele>860.10000000000002</ele>
        <time>2018-05-26T06:46:52Z</time>
      </trkpt>
      <trkpt lat="42.339886017143726" lon="-3.704035012051463">
        <ele>858.89999999999998</ele>
        <time>2018-05-26T06:46:58Z</time>
      </trkpt>
      <trkpt lat="42.339864978566766" lon="-3.703968040645123">
        <ele>858.60000000000002</ele>
        <time>2018-05-26T06:47:00Z</time>
      </trkpt>
      <trkpt lat="42.339831031858921" lon="-3.703901991248131">
        <ele>858.29999999999995</ele>
        <time>2018-05-26T06:47:02Z</time>
      </trkpt>
      <trkpt lat="42.339747967198491" lon="-3.703781962394714">
        <ele>857.39999999999998</ele>
        <time>2018-05-26T06:47:05Z</time>
      </trkpt>
      <trkpt lat="42.339592985808849" lon="-3.703525979071856">
        <ele>856.29999999999995</ele>
        <time>2018-05-26T06:47:12Z</time>
      </trkpt>
      <trkpt lat="42.339446973055601" lon="-3.703292962163687">
        <ele>856.70000000000005</ele>
        <time>2018-05-26T06:47:19Z</time>
      </trkpt>
      <trkpt lat="42.339234994724393" lon="-3.703048964962363">
        <ele>857.79999999999995</ele>
        <time>2018-05-26T06:47:27Z</time>
      </trkpt>
      <trkpt lat="42.339185960590839" lon="-3.703065980225802">
        <ele>857.89999999999998</ele>
        <time>2018-05-26T06:47:29Z</time>
      </trkpt>
      <trkpt lat="42.339079007506371" lon="-3.702995991334319">
        <ele>858.5</ele>
        <time>2018-05-26T06:47:32Z</time>
      </trkpt>
      <trkpt lat="42.339017987251282" lon="-3.702959027141333">
        <ele>858.79999999999995</ele>
        <time>2018-05-26T06:47:34Z</time>
      </trkpt>
      <trkpt lat="42.339030979201198" lon="-3.702787030488253">
        <ele>859.89999999999998</ele>
        <time>2018-05-26T06:47:38Z</time>
      </trkpt>
      <trkpt lat="42.338996026664972" lon="-3.702692985534668">
        <ele>860.60000000000002</ele>
        <time>2018-05-26T06:47:41Z</time>
      </trkpt>
      <trkpt lat="42.338829981163144" lon="-3.70245804078877">
        <ele>863</ele>
        <time>2018-05-26T06:47:48Z</time>
      </trkpt>
      <trkpt lat="42.33886300586164" lon="-3.702302975580096">
        <ele>863.89999999999998</ele>
        <time>2018-05-26T06:47:51Z</time>
      </trkpt>
      <trkpt lat="42.338539967313409" lon="-3.702078005298972">
        <ele>865.70000000000005</ele>
        <time>2018-05-26T06:48:02Z</time>
      </trkpt>
      <trkpt lat="42.337958011776209" lon="-3.701698975637555">
        <ele>864.60000000000002</ele>
        <time>2018-05-26T06:48:21Z</time>
      </trkpt>
      <trkpt lat="42.337514022365212" lon="-3.701324975118041">
        <ele>861.60000000000002</ele>
        <time>2018-05-26T06:48:37Z</time>
      </trkpt>
      <trkpt lat="42.33718897216022" lon="-3.701044013723731">
        <ele>860.5</ele>
        <time>2018-05-26T06:48:48Z</time>
      </trkpt>
      <trkpt lat="42.337012030184269" lon="-3.700792975723743">
        <ele>861.20000000000005</ele>
        <time>2018-05-26T06:48:56Z</time>
      </trkpt>
      <trkpt lat="42.336921002715826" lon="-3.700742013752461">
        <ele>861.39999999999998</ele>
        <time>2018-05-26T06:48:59Z</time>
      </trkpt>
      <trkpt lat="42.336480030789971" lon="-3.700521988794208">
        <ele>861.5</ele>
        <time>2018-05-26T06:49:12Z</time>
      </trkpt>
      <trkpt lat="42.336074011400342" lon="-3.700361978262663">
        <ele>861</ele>
        <time>2018-05-26T06:49:25Z</time>
      </trkpt>
      <trkpt lat="42.335864966735244" lon="-3.700314033776522">
        <ele>861.10000000000002</ele>
        <time>2018-05-26T06:49:31Z</time>
      </trkpt>
      <trkpt lat="42.335735969245434" lon="-3.700334988534451">
        <ele>861.10000000000002</ele>
        <time>2018-05-26T06:49:35Z</time>
      </trkpt>
      <trkpt lat="42.335672015324235" lon="-3.700387040153146">
        <ele>861</ele>
        <time>2018-05-26T06:49:37Z</time>
      </trkpt>
      <trkpt lat="42.335579982027411" lon="-3.700372036546469">
        <ele>861</ele>
        <time>2018-05-26T06:49:40Z</time>
      </trkpt>
      <trkpt lat="42.335474034771323" lon="-3.700411012396216">
        <ele>861</ele>
        <time>2018-05-26T06:49:43Z</time>
      </trkpt>
      <trkpt lat="42.335342019796371" lon="-3.701138980686665">
        <ele>859.20000000000005</ele>
        <time>2018-05-26T06:50:00Z</time>
      </trkpt>
      <trkpt lat="42.335321987047791" lon="-3.70123503729701">
        <ele>858.89999999999998</ele>
        <time>2018-05-26T06:50:02Z</time>
      </trkpt>
      <trkpt lat="42.33510104008019" lon="-3.700947035104036">
        <ele>859.60000000000002</ele>
        <time>2018-05-26T06:50:11Z</time>
      </trkpt>
      <trkpt lat="42.334746988490224" lon="-3.700786018744111">
        <ele>860.20000000000005</ele>
        <time>2018-05-26T06:50:22Z</time>
      </trkpt>
      <trkpt lat="42.334433002397418" lon="-3.700642017647624">
        <ele>861.29999999999995</ele>
        <time>2018-05-26T06:50:32Z</time>
      </trkpt>
      <trkpt lat="42.334275003522635" lon="-3.700529029592872">
        <ele>862</ele>
        <time>2018-05-26T06:50:37Z</time>
      </trkpt>
      <trkpt lat="42.333893040195107" lon="-3.700334988534451">
        <ele>862.79999999999995</ele>
        <time>2018-05-26T06:50:49Z</time>
      </trkpt>
      <trkpt lat="42.333826990798116" lon="-3.700477983802557">
        <ele>862.89999999999998</ele>
        <time>2018-05-26T06:50:53Z</time>
      </trkpt>
      <trkpt lat="42.33362196944654" lon="-3.700911998748779">
        <ele>863.60000000000002</ele>
        <time>2018-05-26T06:51:04Z</time>
      </trkpt>
      <trkpt lat="42.333507975563407" lon="-3.701200000941753">
        <ele>864.10000000000002</ele>
        <time>2018-05-26T06:51:11Z</time>
      </trkpt>
      <trkpt lat="42.33336104080081" lon="-3.701609959825873">
        <ele>864</ele>
        <time>2018-05-26T06:51:21Z</time>
      </trkpt>
      <trkpt lat="42.333219973370433" lon="-3.701907014474273">
        <ele>864.20000000000005</ele>
        <time>2018-05-26T06:51:29Z</time>
      </trkpt>
      <trkpt lat="42.333186026662588" lon="-3.702049003913999">
        <ele>864.10000000000002</ele>
        <time>2018-05-26T06:51:32Z</time>
      </trkpt>
      <trkpt lat="42.33325500972569" lon="-3.702211026102305">
        <ele>863.39999999999998</ele>
        <time>2018-05-26T06:51:37Z</time>
      </trkpt>
      <trkpt lat="42.333211004734039" lon="-3.702282020822167">
        <ele>863.5</ele>
        <time>2018-05-26T06:51:39Z</time>
      </trkpt>
      <trkpt lat="42.333121988922358" lon="-3.702344968914986">
        <ele>863.89999999999998</ele>
        <time>2018-05-26T06:51:42Z</time>
      </trkpt>
      <trkpt lat="42.333106985315681" lon="-3.702427027747035">
        <ele>863.79999999999995</ele>
        <time>2018-05-26T06:51:43Z</time>
      </trkpt>
      <trkpt lat="42.333131041377783" lon="-3.702881997451186">
        <ele>862.60000000000002</ele>
        <time>2018-05-26T06:51:53Z</time>
      </trkpt>
      <trkpt lat="42.333113020285964" lon="-3.703030021861196">
        <ele>862.39999999999998</ele>
        <time>2018-05-26T06:51:57Z</time>
      </trkpt>
      <trkpt lat="42.332913028076291" lon="-3.70310302823782">
        <ele>862.79999999999995</ele>
        <time>2018-05-26T06:52:03Z</time>
      </trkpt>
      <trkpt lat="42.332475995644927" lon="-3.70243800804019">
        <ele>864.89999999999998</ele>
        <time>2018-05-26T06:52:22Z</time>
      </trkpt>
      <trkpt lat="42.332170978188515" lon="-3.702169032767415">
        <ele>865.10000000000002</ele>
        <time>2018-05-26T06:52:33Z</time>
      </trkpt>
      <trkpt lat="42.332044998183846" lon="-3.702065013349056">
        <ele>865</ele>
        <time>2018-05-26T06:52:37Z</time>
      </trkpt>
      <trkpt lat="42.331841988489032" lon="-3.701865021139383">
        <ele>865.29999999999995</ele>
        <time>2018-05-26T06:52:45Z</time>
      </trkpt>
      <trkpt lat="42.331770993769169" lon="-3.701806012541056">
        <ele>865.29999999999995</ele>
        <time>2018-05-26T06:52:47Z</time>
      </trkpt>
      <trkpt lat="42.331031961366534" lon="-3.701405022293329">
        <ele>867.20000000000005</ele>
        <time>2018-05-26T06:53:11Z</time>
      </trkpt>
      <trkpt lat="42.330890977755189" lon="-3.701262027025223">
        <ele>868.20000000000005</ele>
        <time>2018-05-26T06:53:16Z</time>
      </trkpt>
      <trkpt lat="42.330254958942533" lon="-3.701032027602196">
        <ele>869.20000000000005</ele>
        <time>2018-05-26T06:53:36Z</time>
      </trkpt>
      <trkpt lat="42.330163009464741" lon="-3.701028004288673">
        <ele>869.29999999999995</ele>
        <time>2018-05-26T06:53:38Z</time>
      </trkpt>
      <trkpt lat="42.329984977841377" lon="-3.701037978753448">
        <ele>869.60000000000002</ele>
        <time>2018-05-26T06:53:44Z</time>
      </trkpt>
      <trkpt lat="42.329814992845058" lon="-3.701091036200523">
        <ele>870.29999999999995</ele>
        <time>2018-05-26T06:53:49Z</time>
      </trkpt>
      <trkpt lat="42.329685995355248" lon="-3.701121965423226">
        <ele>870.79999999999995</ele>
        <time>2018-05-26T06:53:53Z</time>
      </trkpt>
      <trkpt lat="42.329331021755934" lon="-3.700972013175488">
        <ele>870.39999999999998</ele>
        <time>2018-05-26T06:54:04Z</time>
      </trkpt>
      <trkpt lat="42.329188026487827" lon="-3.700975030660629">
        <ele>870.79999999999995</ele>
        <time>2018-05-26T06:54:08Z</time>
      </trkpt>
      <trkpt lat="42.328827017918229" lon="-3.700714018195868">
        <ele>870.70000000000005</ele>
        <time>2018-05-26T06:54:20Z</time>
      </trkpt>
      <trkpt lat="42.328757029026747" lon="-3.700654003769159">
        <ele>870.79999999999995</ele>
        <time>2018-05-26T06:54:23Z</time>
      </trkpt>
      <trkpt lat="42.328397026285529" lon="-3.700428027659655">
        <ele>870.5</ele>
        <time>2018-05-26T06:54:34Z</time>
      </trkpt>
      <trkpt lat="42.32818697579205" lon="-3.700334988534451">
        <ele>870.39999999999998</ele>
        <time>2018-05-26T06:54:41Z</time>
      </trkpt>
      <trkpt lat="42.327907020226121" lon="-3.700375976040959">
        <ele>870.89999999999998</ele>
        <time>2018-05-26T06:54:49Z</time>
      </trkpt>
      <trkpt lat="42.327651958912611" lon="-3.700363989919424">
        <ele>871.29999999999995</ele>
        <time>2018-05-26T06:54:57Z</time>
      </trkpt>
      <trkpt lat="42.327513992786407" lon="-3.700324008241296">
        <ele>871.39999999999998</ele>
        <time>2018-05-26T06:55:01Z</time>
      </trkpt>
      <trkpt lat="42.327243005856872" lon="-3.700235998257995">
        <ele>871.10000000000002</ele>
        <time>2018-05-26T06:55:09Z</time>
      </trkpt>
      <trkpt lat="42.326477989554405" lon="-3.700029971078038">
        <ele>871.10000000000002</ele>
        <time>2018-05-26T06:55:32Z</time>
      </trkpt>
      <trkpt lat="42.325681038200855" lon="-3.699821010231972">
        <ele>868.89999999999998</ele>
        <time>2018-05-26T06:55:56Z</time>
      </trkpt>
      <trkpt lat="42.325543994084001" lon="-3.699779016897082">
        <ele>868.29999999999995</ele>
        <time>2018-05-26T06:56:01Z</time>
      </trkpt>
      <trkpt lat="42.324927002191544" lon="-3.699571983888745">
        <ele>870.60000000000002</ele>
        <time>2018-05-26T06:56:19Z</time>
      </trkpt>
      <trkpt lat="42.324660960584879" lon="-3.699454972520471">
        <ele>872</ele>
        <time>2018-05-26T06:56:28Z</time>
      </trkpt>
      <trkpt lat="42.323903990909457" lon="-3.699127994477749">
        <ele>872.60000000000002</ele>
        <time>2018-05-26T06:56:51Z</time>
      </trkpt>
      <trkpt lat="42.323095975443721" lon="-3.698758017271757">
        <ele>872.79999999999995</ele>
        <time>2018-05-26T06:57:16Z</time>
      </trkpt>
      <trkpt lat="42.322637988254428" lon="-3.698559030890465">
        <ele>872.89999999999998</ele>
        <time>2018-05-26T06:57:31Z</time>
      </trkpt>
      <trkpt lat="42.321856962516904" lon="-3.698211014270783">
        <ele>873.39999999999998</ele>
        <time>2018-05-26T06:57:55Z</time>
      </trkpt>
      <trkpt lat="42.321670968085527" lon="-3.698137002065778">
        <ele>873.70000000000005</ele>
        <time>2018-05-26T06:58:01Z</time>
      </trkpt>
      <trkpt lat="42.321627968922257" lon="-3.698114035651088">
        <ele>873.60000000000002</ele>
        <time>2018-05-26T06:58:02Z</time>
      </trkpt>
      <trkpt lat="42.321493020281196" lon="-3.698053015395999">
        <ele>873.39999999999998</ele>
        <time>2018-05-26T06:58:06Z</time>
      </trkpt>
      <trkpt lat="42.321223961189389" lon="-3.697923012077808">
        <ele>872.5</ele>
        <time>2018-05-26T06:58:15Z</time>
      </trkpt>
      <trkpt lat="42.321140980347991" lon="-3.697876995429397">
        <ele>873</ele>
        <time>2018-05-26T06:58:18Z</time>
      </trkpt>
      <trkpt lat="42.321056993678212" lon="-3.697832990437746">
        <ele>873.60000000000002</ele>
        <time>2018-05-26T06:58:20Z</time>
      </trkpt>
      <trkpt lat="42.320968983694911" lon="-3.697770964354277">
        <ele>874.10000000000002</ele>
        <time>2018-05-26T06:58:23Z</time>
      </trkpt>
      <trkpt lat="42.320581991225481" lon="-3.697453960776329">
        <ele>874.89999999999998</ele>
        <time>2018-05-26T06:58:37Z</time>
      </trkpt>
      <trkpt lat="42.320503033697605" lon="-3.697378020733595">
        <ele>874.79999999999995</ele>
        <time>2018-05-26T06:58:39Z</time>
      </trkpt>
      <trkpt lat="42.320462968200445" lon="-3.697338039055467">
        <ele>874.70000000000005</ele>
        <time>2018-05-26T06:58:41Z</time>
      </trkpt>
      <trkpt lat="42.320378981530666" lon="-3.697258997708559">
        <ele>874.5</ele>
        <time>2018-05-26T06:58:44Z</time>
      </trkpt>
      <trkpt lat="42.319858968257904" lon="-3.696416029706597">
        <ele>874.39999999999998</ele>
        <time>2018-05-26T06:59:08Z</time>
      </trkpt>
      <trkpt lat="42.319510029628873" lon="-3.69530500844121">
        <ele>871.10000000000002</ele>
        <time>2018-05-26T06:59:34Z</time>
      </trkpt>
      <trkpt lat="42.319248011335731" lon="-3.694105977192521">
        <ele>876.5</ele>
        <time>2018-05-26T07:00:02Z</time>
      </trkpt>
      <trkpt lat="42.319148015230894" lon="-3.693682020530105">
        <ele>878.89999999999998</ele>
        <time>2018-05-26T07:00:12Z</time>
      </trkpt>
      <trkpt lat="42.319080037996173" lon="-3.693426037207246">
        <ele>880.29999999999995</ele>
        <time>2018-05-26T07:00:18Z</time>
      </trkpt>
      <trkpt lat="42.318653985857964" lon="-3.692632019519806">
        <ele>881.39999999999998</ele>
        <time>2018-05-26T07:00:39Z</time>
      </trkpt>
      <trkpt lat="42.318580979481339" lon="-3.692541997879744">
        <ele>881</ele>
        <time>2018-05-26T07:00:42Z</time>
      </trkpt>
      <trkpt lat="42.317926017567515" lon="-3.691908996552229">
        <ele>879.5</ele>
        <time>2018-05-26T07:01:06Z</time>
      </trkpt>
      <trkpt lat="42.317407010123134" lon="-3.691557962447405">
        <ele>880.89999999999998</ele>
        <time>2018-05-26T07:01:23Z</time>
      </trkpt>
      <trkpt lat="42.316577034071088" lon="-3.690908029675484">
        <ele>885.10000000000002</ele>
        <time>2018-05-26T07:01:51Z</time>
      </trkpt>
      <trkpt lat="42.316446024924517" lon="-3.690748019143939">
        <ele>884.70000000000005</ele>
        <time>2018-05-26T07:01:57Z</time>
      </trkpt>
      <trkpt lat="42.316172020509839" lon="-3.69040796533227">
        <ele>882.70000000000005</ele>
        <time>2018-05-26T07:02:08Z</time>
      </trkpt>
      <trkpt lat="42.315843030810356" lon="-3.689757026731968">
        <ele>878.39999999999998</ele>
        <time>2018-05-26T07:02:25Z</time>
      </trkpt>
      <trkpt lat="42.315498031675816" lon="-3.688714988529682">
        <ele>877.5</ele>
        <time>2018-05-26T07:02:50Z</time>
      </trkpt>
      <trkpt lat="42.315266020596027" lon="-3.687452003359795">
        <ele>877.39999999999998</ele>
        <time>2018-05-26T07:03:19Z</time>
      </trkpt>
      <trkpt lat="42.315045995637774" lon="-3.686213996261358">
        <ele>878.10000000000002</ele>
        <time>2018-05-26T07:03:46Z</time>
      </trkpt>
      <trkpt lat="42.314576022326946" lon="-3.684938019141555">
        <ele>880.29999999999995</ele>
        <time>2018-05-26T07:04:18Z</time>
      </trkpt>
      <trkpt lat="42.313945032656193" lon="-3.68385499343276">
        <ele>878.79999999999995</ele>
        <time>2018-05-26T07:04:48Z</time>
      </trkpt>
      <trkpt lat="42.313408004119992" lon="-3.682958967983723">
        <ele>878.20000000000005</ele>
        <time>2018-05-26T07:05:13Z</time>
      </trkpt>
      <trkpt lat="42.312836023047566" lon="-3.682018015533686">
        <ele>881.5</ele>
        <time>2018-05-26T07:05:40Z</time>
      </trkpt>
      <trkpt lat="42.312332019209862" lon="-3.68118803948164">
        <ele>882</ele>
        <time>2018-05-26T07:06:03Z</time>
      </trkpt>
      <trkpt lat="42.311908984556794" lon="-3.680512961000204">
        <ele>882.60000000000002</ele>
        <time>2018-05-26T07:06:23Z</time>
      </trkpt>
      <trkpt lat="42.311140028759837" lon="-3.679697988554835">
        <ele>883.79999999999995</ele>
        <time>2018-05-26T07:06:52Z</time>
      </trkpt>
      <trkpt lat="42.31103802099824" lon="-3.679630011320114">
        <ele>883.60000000000002</ele>
        <time>2018-05-26T07:06:55Z</time>
      </trkpt>
      <trkpt lat="42.310940958559513" lon="-3.679576031863689">
        <ele>883.39999999999998</ele>
        <time>2018-05-26T07:06:58Z</time>
      </trkpt>
      <trkpt lat="42.31035397388041" lon="-3.67932097055018">
        <ele>883.29999999999995</ele>
        <time>2018-05-26T07:07:16Z</time>
      </trkpt>
      <trkpt lat="42.309416960924864" lon="-3.679112009704113">
        <ele>886.20000000000005</ele>
        <time>2018-05-26T07:07:45Z</time>
      </trkpt>
      <trkpt lat="42.308593019843102" lon="-3.678716970607638">
        <ele>888.70000000000005</ele>
        <time>2018-05-26T07:08:10Z</time>
      </trkpt>
      <trkpt lat="42.30788298882544" lon="-3.677976010367274">
        <ele>888.60000000000002</ele>
        <time>2018-05-26T07:08:37Z</time>
      </trkpt>
      <trkpt lat="42.307635974138975" lon="-3.677561022341251">
        <ele>889</ele>
        <time>2018-05-26T07:08:49Z</time>
      </trkpt>
      <trkpt lat="42.307160971686244" lon="-3.676687041297555">
        <ele>889.20000000000005</ele>
        <time>2018-05-26T07:09:12Z</time>
      </trkpt>
      <trkpt lat="42.306671971455216" lon="-3.675774000585079">
        <ele>892.70000000000005</ele>
        <time>2018-05-26T07:09:37Z</time>
      </trkpt>
      <trkpt lat="42.306563006713986" lon="-3.675565039739013">
        <ele>893.20000000000005</ele>
        <time>2018-05-26T07:09:43Z</time>
      </trkpt>
      <trkpt lat="42.306222030892968" lon="-3.674947964027524">
        <ele>892.20000000000005</ele>
        <time>2018-05-26T07:10:00Z</time>
      </trkpt>
      <trkpt lat="42.305776029825211" lon="-3.674140032380819">
        <ele>891.29999999999995</ele>
        <time>2018-05-26T07:10:22Z</time>
      </trkpt>
      <trkpt lat="42.305246964097023" lon="-3.67319799028337">
        <ele>892.60000000000002</ele>
        <time>2018-05-26T07:10:48Z</time>
      </trkpt>
      <trkpt lat="42.304742960259318" lon="-3.672500029206276">
        <ele>891.89999999999998</ele>
        <time>2018-05-26T07:11:09Z</time>
      </trkpt>
      <trkpt lat="42.304279021918774" lon="-3.672000970691443">
        <ele>893.39999999999998</ele>
        <time>2018-05-26T07:11:27Z</time>
      </trkpt>
      <trkpt lat="42.303721038624644" lon="-3.671581037342548">
        <ele>897.10000000000002</ele>
        <time>2018-05-26T07:11:46Z</time>
      </trkpt>
      <trkpt lat="42.302954010665417" lon="-3.671204019337893">
        <ele>900.29999999999995</ele>
        <time>2018-05-26T07:12:10Z</time>
      </trkpt>
      <trkpt lat="42.302227970212698" lon="-3.670825995504856">
        <ele>895.20000000000005</ele>
        <time>2018-05-26T07:12:33Z</time>
      </trkpt>
      <trkpt lat="42.301551969721913" lon="-3.670443026348949">
        <ele>890.5</ele>
        <time>2018-05-26T07:12:55Z</time>
      </trkpt>
      <trkpt lat="42.30087898671627" lon="-3.670040024444461">
        <ele>891.10000000000002</ele>
        <time>2018-05-26T07:13:16Z</time>
      </trkpt>
      <trkpt lat="42.300166022032499" lon="-3.669383972883225">
        <ele>894.29999999999995</ele>
        <time>2018-05-26T07:13:42Z</time>
      </trkpt>
      <trkpt lat="42.300094021484256" lon="-3.66928699426353">
        <ele>894.89999999999998</ele>
        <time>2018-05-26T07:13:45Z</time>
      </trkpt>
      <trkpt lat="42.299523968249559" lon="-3.668603030964732">
        <ele>897.79999999999995</ele>
        <time>2018-05-26T07:14:08Z</time>
      </trkpt>
      <trkpt lat="42.298946036025882" lon="-3.667914960533381">
        <ele>901.39999999999998</ele>
        <time>2018-05-26T07:14:30Z</time>
      </trkpt>
      <trkpt lat="42.298615034669638" lon="-3.667606003582478">
        <ele>901.60000000000002</ele>
        <time>2018-05-26T07:14:42Z</time>
      </trkpt>
      <trkpt lat="42.298288978636265" lon="-3.667408023029566">
        <ele>899.79999999999995</ele>
        <time>2018-05-26T07:14:53Z</time>
      </trkpt>
      <trkpt lat="42.298067025840282" lon="-3.667298974469304">
        <ele>898.70000000000005</ele>
        <time>2018-05-26T07:15:00Z</time>
      </trkpt>
      <trkpt lat="42.297969963401556" lon="-3.667269973084331">
        <ele>898.39999999999998</ele>
        <time>2018-05-26T07:15:03Z</time>
      </trkpt>
      <trkpt lat="42.297131018713117" lon="-3.667154973372817">
        <ele>900.29999999999995</ele>
        <time>2018-05-26T07:15:28Z</time>
      </trkpt>
      <trkpt lat="42.296387040987611" lon="-3.667293023318052">
        <ele>900</ele>
        <time>2018-05-26T07:15:50Z</time>
      </trkpt>
      <trkpt lat="42.296132985502481" lon="-3.667336022481322">
        <ele>900.29999999999995</ele>
        <time>2018-05-26T07:15:58Z</time>
      </trkpt>
      <trkpt lat="42.295658988878131" lon="-3.667430989444256">
        <ele>901.60000000000002</ele>
        <time>2018-05-26T07:16:12Z</time>
      </trkpt>
      <trkpt lat="42.295474000275135" lon="-3.667477006092668">
        <ele>901.89999999999998</ele>
        <time>2018-05-26T07:16:17Z</time>
      </trkpt>
      <trkpt lat="42.295061023905873" lon="-3.667559986934066">
        <ele>901.70000000000005</ele>
        <time>2018-05-26T07:16:30Z</time>
      </trkpt>
      <trkpt lat="42.294376976788044" lon="-3.667701976373792">
        <ele>901.60000000000002</ele>
        <time>2018-05-26T07:16:50Z</time>
      </trkpt>
      <trkpt lat="42.294231969863176" lon="-3.667723014950752">
        <ele>902</ele>
        <time>2018-05-26T07:16:55Z</time>
      </trkpt>
      <trkpt lat="42.293869033455849" lon="-3.667770959436894">
        <ele>903</ele>
        <time>2018-05-26T07:17:05Z</time>
      </trkpt>
      <trkpt lat="42.293770965188742" lon="-3.667785041034222">
        <ele>903.29999999999995</ele>
        <time>2018-05-26T07:17:08Z</time>
      </trkpt>
      <trkpt lat="42.293046014383435" lon="-3.667769031599164">
        <ele>904.20000000000005</ele>
        <time>2018-05-26T07:17:30Z</time>
      </trkpt>
      <trkpt lat="42.292653992772102" lon="-3.667663000524044">
        <ele>905</ele>
        <time>2018-05-26T07:17:42Z</time>
      </trkpt>
      <trkpt lat="42.292045969516039" lon="-3.667362006381154">
        <ele>905.89999999999998</ele>
        <time>2018-05-26T07:18:01Z</time>
      </trkpt>
      <trkpt lat="42.29120803065598" lon="-3.666729005053639">
        <ele>903.70000000000005</ele>
        <time>2018-05-26T07:18:29Z</time>
      </trkpt>
      <trkpt lat="42.290473021566868" lon="-3.666098015382886">
        <ele>916.89999999999998</ele>
        <time>2018-05-26T07:18:55Z</time>
      </trkpt>
      <trkpt lat="42.290227012708783" lon="-3.665902968496084">
        <ele>917.70000000000005</ele>
        <time>2018-05-26T07:19:04Z</time>
      </trkpt>
      <trkpt lat="42.289752010256052" lon="-3.665493009611964">
        <ele>918.29999999999995</ele>
        <time>2018-05-26T07:19:20Z</time>
      </trkpt>
      <trkpt lat="42.289579007774591" lon="-3.665350014343858">
        <ele>918.5</ele>
        <time>2018-05-26T07:19:26Z</time>
      </trkpt>
      <trkpt lat="42.28882497176528" lon="-3.664745008572936">
        <ele>917.60000000000002</ele>
        <time>2018-05-26T07:19:52Z</time>
      </trkpt>
      <trkpt lat="42.288699997588992" lon="-3.66466797888279">
        <ele>917.60000000000002</ele>
        <time>2018-05-26T07:19:56Z</time>
      </trkpt>
      <trkpt lat="42.288361033424735" lon="-3.664467986673117">
        <ele>917.29999999999995</ele>
        <time>2018-05-26T07:20:07Z</time>
      </trkpt>
      <trkpt lat="42.288034977391362" lon="-3.664313005283475">
        <ele>917.29999999999995</ele>
        <time>2018-05-26T07:20:18Z</time>
      </trkpt>
      <trkpt lat="42.287704981863499" lon="-3.664169004186988">
        <ele>917.10000000000002</ele>
        <time>2018-05-26T07:20:28Z</time>
      </trkpt>
      <trkpt lat="42.287371968850493" lon="-3.664029026404023">
        <ele>916.89999999999998</ele>
        <time>2018-05-26T07:20:38Z</time>
      </trkpt>
      <trkpt lat="42.286709966138005" lon="-3.663758961483836">
        <ele>917.39999999999998</ele>
        <time>2018-05-26T07:20:59Z</time>
      </trkpt>
      <trkpt lat="42.285984009504318" lon="-3.663453022018075">
        <ele>919.20000000000005</ele>
        <time>2018-05-26T07:21:21Z</time>
      </trkpt>
      <trkpt lat="42.285813018679619" lon="-3.663388984277844">
        <ele>919.29999999999995</ele>
        <time>2018-05-26T07:21:27Z</time>
      </trkpt>
      <trkpt lat="42.284969966858625" lon="-3.663140963762999">
        <ele>920.89999999999998</ele>
        <time>2018-05-26T07:21:52Z</time>
      </trkpt>
      <trkpt lat="42.284744996577501" lon="-3.663109028711915">
        <ele>921.60000000000002</ele>
        <time>2018-05-26T07:21:59Z</time>
      </trkpt>
      <trkpt lat="42.284566964954138" lon="-3.663106011226773">
        <ele>922.20000000000005</ele>
        <time>2018-05-26T07:22:04Z</time>
      </trkpt>
      <trkpt lat="42.283877972513437" lon="-3.663193015381694">
        <ele>922.29999999999995</ele>
        <time>2018-05-26T07:22:25Z</time>
      </trkpt>
      <trkpt lat="42.283725002780557" lon="-3.663245989009738">
        <ele>922.39999999999998</ele>
        <time>2018-05-26T07:22:29Z</time>
      </trkpt>
      <trkpt lat="42.282939031720161" lon="-3.663571961224079">
        <ele>923.20000000000005</ele>
        <time>2018-05-26T07:22:54Z</time>
      </trkpt>
      <trkpt lat="42.282813973724842" lon="-3.66363700479269">
        <ele>923.5</ele>
        <time>2018-05-26T07:22:58Z</time>
      </trkpt>
      <trkpt lat="42.282728981226683" lon="-3.663684027269483">
        <ele>923.79999999999995</ele>
        <time>2018-05-26T07:23:00Z</time>
      </trkpt>
      <trkpt lat="42.282413989305496" lon="-3.66383196786046">
        <ele>925</ele>
        <time>2018-05-26T07:23:10Z</time>
      </trkpt>
      <trkpt lat="42.28233695961535" lon="-3.663869015872479">
        <ele>925.39999999999998</ele>
        <time>2018-05-26T07:23:13Z</time>
      </trkpt>
      <trkpt lat="42.28220796212554" lon="-3.6639369931072">
        <ele>926</ele>
        <time>2018-05-26T07:23:17Z</time>
      </trkpt>
      <trkpt lat="42.282161023467779" lon="-3.663959037512541">
        <ele>926.20000000000005</ele>
        <time>2018-05-26T07:23:18Z</time>
      </trkpt>
      <trkpt lat="42.28203697130084" lon="-3.664020979776979">
        <ele>926.79999999999995</ele>
        <time>2018-05-26T07:23:22Z</time>
      </trkpt>
      <trkpt lat="42.28164603933692" lon="-3.664209991693497">
        <ele>928.29999999999995</ele>
        <time>2018-05-26T07:23:34Z</time>
      </trkpt>
      <trkpt lat="42.281503966078162" lon="-3.664275035262108">
        <ele>928.70000000000005</ele>
        <time>2018-05-26T07:23:39Z</time>
      </trkpt>
      <trkpt lat="42.280768034979701" lon="-3.664640989154577">
        <ele>931.10000000000002</ele>
        <time>2018-05-26T07:24:02Z</time>
      </trkpt>
      <trkpt lat="42.28001500479877" lon="-3.665013983845711">
        <ele>935.29999999999995</ele>
        <time>2018-05-26T07:24:26Z</time>
      </trkpt>
      <trkpt lat="42.279468001797795" lon="-3.665268961340189">
        <ele>937.10000000000002</ele>
        <time>2018-05-26T07:24:43Z</time>
      </trkpt>
      <trkpt lat="42.279374962672591" lon="-3.665326964110136">
        <ele>937.60000000000002</ele>
        <time>2018-05-26T07:24:46Z</time>
      </trkpt>
      <trkpt lat="42.279033986851573" lon="-3.665484040975571">
        <ele>939.60000000000002</ele>
        <time>2018-05-26T07:24:57Z</time>
      </trkpt>
      <trkpt lat="42.278552027419209" lon="-3.665737006813288">
        <ele>945.79999999999995</ele>
        <time>2018-05-26T07:25:12Z</time>
      </trkpt>
      <trkpt lat="42.278314987197518" lon="-3.665804984048009">
        <ele>949.20000000000005</ele>
        <time>2018-05-26T07:25:19Z</time>
      </trkpt>
      <trkpt lat="42.273184005171061" lon="-3.668328020721674">
        <ele>929.60000000000002</ele>
        <time>2018-05-26T07:28:01Z</time>
      </trkpt>
      <trkpt lat="42.273087026551366" lon="-3.668392980471253">
        <ele>927.5</ele>
        <time>2018-05-26T07:28:04Z</time>
      </trkpt>
      <trkpt lat="42.272617975249887" lon="-3.668585009872913">
        <ele>920.10000000000002</ele>
        <time>2018-05-26T07:28:19Z</time>
      </trkpt>
      <trkpt lat="42.272297032177448" lon="-3.668701015412808">
        <ele>915.89999999999998</ele>
        <time>2018-05-26T07:28:29Z</time>
      </trkpt>
      <trkpt lat="42.271832004189491" lon="-3.668833030387759">
        <ele>912</ele>
        <time>2018-05-26T07:28:43Z</time>
      </trkpt>
      <trkpt lat="42.271351972594857" lon="-3.6689000017941">
        <ele>909.29999999999995</ele>
        <time>2018-05-26T07:28:57Z</time>
      </trkpt>
      <trkpt lat="42.271090038120747" lon="-3.668911987915635">
        <ele>907.39999999999998</ele>
        <time>2018-05-26T07:29:05Z</time>
      </trkpt>
      <trkpt lat="42.271020971238613" lon="-3.668911987915635">
        <ele>906.89999999999998</ele>
        <time>2018-05-26T07:29:07Z</time>
      </trkpt>
      <trkpt lat="42.270470028743148" lon="-3.668849961832166">
        <ele>903.39999999999998</ele>
        <time>2018-05-26T07:29:24Z</time>
      </trkpt>
      <trkpt lat="42.269908022135496" lon="-3.668697997927666">
        <ele>902.89999999999998</ele>
        <time>2018-05-26T07:29:41Z</time>
      </trkpt>
      <trkpt lat="42.269428996369243" lon="-3.6684700101614">
        <ele>904.10000000000002</ele>
        <time>2018-05-26T07:29:56Z</time>
      </trkpt>
      <trkpt lat="42.268879981711507" lon="-3.668014034628868">
        <ele>906</ele>
        <time>2018-05-26T07:30:15Z</time>
      </trkpt>
      <trkpt lat="42.268431968986988" lon="-3.667431995272636">
        <ele>907.39999999999998</ele>
        <time>2018-05-26T07:30:33Z</time>
      </trkpt>
      <trkpt lat="42.268046988174319" lon="-3.666596990078688">
        <ele>906.89999999999998</ele>
        <time>2018-05-26T07:30:55Z</time>
      </trkpt>
      <trkpt lat="42.267872979864478" lon="-3.665936999022961">
        <ele>903.39999999999998</ele>
        <time>2018-05-26T07:31:10Z</time>
      </trkpt>
      <trkpt lat="42.267850013449788" lon="-3.665777994319797">
        <ele>902.5</ele>
        <time>2018-05-26T07:31:14Z</time>
      </trkpt>
      <trkpt lat="42.267822017893195" lon="-3.665009960532188">
        <ele>899.79999999999995</ele>
        <time>2018-05-26T07:31:31Z</time>
      </trkpt>
      <trkpt lat="42.26791899651289" lon="-3.664117958396673">
        <ele>898.29999999999995</ele>
        <time>2018-05-26T07:31:50Z</time>
      </trkpt>
      <trkpt lat="42.26800499483943" lon="-3.663214975968003">
        <ele>897.5</ele>
        <time>2018-05-26T07:32:10Z</time>
      </trkpt>
      <trkpt lat="42.268030978739262" lon="-3.663004003465176">
        <ele>897.70000000000005</ele>
        <time>2018-05-26T07:32:15Z</time>
      </trkpt>
      <trkpt lat="42.268057968467474" lon="-3.66217796690762">
        <ele>900.79999999999995</ele>
        <time>2018-05-26T07:32:33Z</time>
      </trkpt>
      <trkpt lat="42.268059980124235" lon="-3.662015022709966">
        <ele>901.5</ele>
        <time>2018-05-26T07:32:37Z</time>
      </trkpt>
      <trkpt lat="42.268044976517558" lon="-3.66178996860981">
        <ele>902.29999999999995</ele>
        <time>2018-05-26T07:32:42Z</time>
      </trkpt>
      <trkpt lat="42.267946992069483" lon="-3.660960998386145">
        <ele>904.79999999999995</ele>
        <time>2018-05-26T07:33:00Z</time>
      </trkpt>
      <trkpt lat="42.267782036215067" lon="-3.660247027873993">
        <ele>905.10000000000002</ele>
        <time>2018-05-26T07:33:16Z</time>
      </trkpt>
      <trkpt lat="42.267505014315248" lon="-3.659409005194902">
        <ele>899.60000000000002</ele>
        <time>2018-05-26T07:33:37Z</time>
      </trkpt>
      <trkpt lat="42.267236039042473" lon="-3.658725041896105">
        <ele>894.70000000000005</ele>
        <time>2018-05-26T07:33:54Z</time>
      </trkpt>
      <trkpt lat="42.267156997695565" lon="-3.658510968089104">
        <ele>894.29999999999995</ele>
        <time>2018-05-26T07:33:59Z</time>
      </trkpt>
      <trkpt lat="42.266894979402423" lon="-3.657846031710506">
        <ele>892.70000000000005</ele>
        <time>2018-05-26T07:34:15Z</time>
      </trkpt>
      <trkpt lat="42.266861032694578" lon="-3.657778976485133">
        <ele>892.60000000000002</ele>
        <time>2018-05-26T07:34:17Z</time>
      </trkpt>
      <trkpt lat="42.266618041321635" lon="-3.657143041491509">
        <ele>892.10000000000002</ele>
        <time>2018-05-26T07:34:33Z</time>
      </trkpt>
      <trkpt lat="42.266384018585086" lon="-3.656594026833773">
        <ele>892.89999999999998</ele>
        <time>2018-05-26T07:34:47Z</time>
      </trkpt>
      <trkpt lat="42.266290979459882" lon="-3.656401997432113">
        <ele>893.39999999999998</ele>
        <time>2018-05-26T07:34:52Z</time>
      </trkpt>
      <trkpt lat="42.26592100225389" lon="-3.655791040509939">
        <ele>895.5</ele>
        <time>2018-05-26T07:35:09Z</time>
      </trkpt>
      <trkpt lat="42.265841038897634" lon="-3.655696995556355">
        <ele>895.70000000000005</ele>
        <time>2018-05-26T07:35:12Z</time>
      </trkpt>
      <trkpt lat="42.265462009236217" lon="-3.655329030007124">
        <ele>895.39999999999998</ele>
        <time>2018-05-26T07:35:26Z</time>
      </trkpt>
      <trkpt lat="42.265052972361445" lon="-3.655055025592446">
        <ele>890.60000000000002</ele>
        <time>2018-05-26T07:35:40Z</time>
      </trkpt>
      <trkpt lat="42.264494989067316" lon="-3.65486903116107">
        <ele>884.10000000000002</ele>
        <time>2018-05-26T07:35:57Z</time>
      </trkpt>
      <trkpt lat="42.263866011053324" lon="-3.654819997027516">
        <ele>880.20000000000005</ele>
        <time>2018-05-26T07:36:15Z</time>
      </trkpt>
      <trkpt lat="42.263371981680393" lon="-3.654942959547043">
        <ele>879.29999999999995</ele>
        <time>2018-05-26T07:36:30Z</time>
      </trkpt>
      <trkpt lat="42.263232003897429" lon="-3.655001968145371">
        <ele>879.29999999999995</ele>
        <time>2018-05-26T07:36:35Z</time>
      </trkpt>
      <trkpt lat="42.262836964800954" lon="-3.655218975618482">
        <ele>880.20000000000005</ele>
        <time>2018-05-26T07:36:47Z</time>
      </trkpt>
      <trkpt lat="42.262448966503143" lon="-3.655547965317965">
        <ele>884.29999999999995</ele>
        <time>2018-05-26T07:37:01Z</time>
      </trkpt>
      <trkpt lat="42.262047976255417" lon="-3.656068984419107">
        <ele>887.70000000000005</ele>
        <time>2018-05-26T07:37:17Z</time>
      </trkpt>
      <trkpt lat="42.261943034827709" lon="-3.656239975243807">
        <ele>890.20000000000005</ele>
        <time>2018-05-26T07:37:22Z</time>
      </trkpt>
      <trkpt lat="42.261652015149593" lon="-3.656866019591689">
        <ele>892.60000000000002</ele>
        <time>2018-05-26T07:37:39Z</time>
      </trkpt>
      <trkpt lat="42.261617984622717" lon="-3.656946988776326">
        <ele>892.5</ele>
        <time>2018-05-26T07:37:41Z</time>
      </trkpt>
      <trkpt lat="42.261583032086492" lon="-3.657074980437756">
        <ele>891.89999999999998</ele>
        <time>2018-05-26T07:37:44Z</time>
      </trkpt>
      <trkpt lat="42.261412041261792" lon="-3.657672023400664">
        <ele>890.20000000000005</ele>
        <time>2018-05-26T07:37:58Z</time>
      </trkpt>
      <trkpt lat="42.261278014630079" lon="-3.658238975331187">
        <ele>887.79999999999995</ele>
        <time>2018-05-26T07:38:11Z</time>
      </trkpt>
      <trkpt lat="42.261195033788681" lon="-3.658794024959207">
        <ele>885.39999999999998</ele>
        <time>2018-05-26T07:38:23Z</time>
      </trkpt>
      <trkpt lat="42.261180030182004" lon="-3.658922016620636">
        <ele>885.29999999999995</ele>
        <time>2018-05-26T07:38:26Z</time>
      </trkpt>
      <trkpt lat="42.261148011311889" lon="-3.659251006320119">
        <ele>885</ele>
        <time>2018-05-26T07:38:33Z</time>
      </trkpt>
      <trkpt lat="42.261142982169986" lon="-3.659372963011265">
        <ele>884.89999999999998</ele>
        <time>2018-05-26T07:38:36Z</time>
      </trkpt>
      <trkpt lat="42.261111969128251" lon="-3.659555017948151">
        <ele>884.70000000000005</ele>
        <time>2018-05-26T07:38:40Z</time>
      </trkpt>
      <trkpt lat="42.261066036298871" lon="-3.659989032894373">
        <ele>881.5</ele>
        <time>2018-05-26T07:38:50Z</time>
      </trkpt>
      <trkpt lat="42.261017002165318" lon="-3.660424975678325">
        <ele>878</ele>
        <time>2018-05-26T07:38:59Z</time>
      </trkpt>
      <trkpt lat="42.260941984131932" lon="-3.66120801307261">
        <ele>876.10000000000002</ele>
        <time>2018-05-26T07:39:17Z</time>
      </trkpt>
      <trkpt lat="42.260842993855476" lon="-3.662265976890922">
        <ele>876.60000000000002</ele>
        <time>2018-05-26T07:39:40Z</time>
      </trkpt>
      <trkpt lat="42.260737968608737" lon="-3.66320600733161">
        <ele>877.29999999999995</ele>
        <time>2018-05-26T07:40:01Z</time>
      </trkpt>
      <trkpt lat="42.260697986930609" lon="-3.663688972592354">
        <ele>877.29999999999995</ele>
        <time>2018-05-26T07:40:12Z</time>
      </trkpt>
      <trkpt lat="42.260676026344299" lon="-3.663855018094182">
        <ele>877.39999999999998</ele>
        <time>2018-05-26T07:40:15Z</time>
      </trkpt>
      <trkpt lat="42.260639984160662" lon="-3.664230024442077">
        <ele>877.39999999999998</ele>
        <time>2018-05-26T07:40:24Z</time>
      </trkpt>
      <trkpt lat="42.260626992210746" lon="-3.664334965869784">
        <ele>877.39999999999998</ele>
        <time>2018-05-26T07:40:26Z</time>
      </trkpt>
      <trkpt lat="42.260606959462166" lon="-3.664601007476449">
        <ele>877.29999999999995</ele>
        <time>2018-05-26T07:40:32Z</time>
      </trkpt>
      <trkpt lat="42.260569995269179" lon="-3.66492597386241">
        <ele>877.70000000000005</ele>
        <time>2018-05-26T07:40:39Z</time>
      </trkpt>
      <trkpt lat="42.260483996942639" lon="-3.665696019306779">
        <ele>878.5</ele>
        <time>2018-05-26T07:40:56Z</time>
      </trkpt>
      <trkpt lat="42.260446026921272" lon="-3.665974969044328">
        <ele>878.79999999999995</ele>
        <time>2018-05-26T07:41:02Z</time>
      </trkpt>
      <trkpt lat="42.260345024988055" lon="-3.66655801422894">
        <ele>879</ele>
        <time>2018-05-26T07:41:15Z</time>
      </trkpt>
      <trkpt lat="42.260309988632798" lon="-3.666706038638949">
        <ele>879</ele>
        <time>2018-05-26T07:41:19Z</time>
      </trkpt>
      <trkpt lat="42.260246034711599" lon="-3.66692497394979">
        <ele>879.29999999999995</ele>
        <time>2018-05-26T07:41:24Z</time>
      </trkpt>
      <trkpt lat="42.259877985343337" lon="-3.667813958600164">
        <ele>878.10000000000002</ele>
        <time>2018-05-26T07:41:46Z</time>
      </trkpt>
      <trkpt lat="42.259821994230151" lon="-3.667901968583465">
        <ele>878.10000000000002</ele>
        <time>2018-05-26T07:41:49Z</time>
      </trkpt>
      <trkpt lat="42.259630970656872" lon="-3.668189970776439">
        <ele>877.70000000000005</ele>
        <time>2018-05-26T07:41:57Z</time>
      </trkpt>
      <trkpt lat="42.259485963732004" lon="-3.668376971036196">
        <ele>877.10000000000002</ele>
        <time>2018-05-26T07:42:03Z</time>
      </trkpt>
      <trkpt lat="42.258833013474941" lon="-3.668979965150356">
        <ele>877.29999999999995</ele>
        <time>2018-05-26T07:42:27Z</time>
      </trkpt>
      <trkpt lat="42.258727988228202" lon="-3.669058000668883">
        <ele>877.70000000000005</ele>
        <time>2018-05-26T07:42:30Z</time>
      </trkpt>
      <trkpt lat="42.258520033210516" lon="-3.669180041179061">
        <ele>878</ele>
        <time>2018-05-26T07:42:37Z</time>
      </trkpt>
      <trkpt lat="42.257779994979501" lon="-3.669430995360017">
        <ele>878</ele>
        <time>2018-05-26T07:43:00Z</time>
      </trkpt>
      <trkpt lat="42.257553013041615" lon="-3.669464020058513">
        <ele>878.10000000000002</ele>
        <time>2018-05-26T07:43:06Z</time>
      </trkpt>
      <trkpt lat="42.257355032488704" lon="-3.66947902366519">
        <ele>878.20000000000005</ele>
        <time>2018-05-26T07:43:12Z</time>
      </trkpt>
      <trkpt lat="42.257029982283711" lon="-3.669487992301583">
        <ele>878.60000000000002</ele>
        <time>2018-05-26T07:43:22Z</time>
      </trkpt>
      <trkpt lat="42.256390023976564" lon="-3.669507019221783">
        <ele>880.60000000000002</ele>
        <time>2018-05-26T07:43:41Z</time>
      </trkpt>
      <trkpt lat="42.255727015435696" lon="-3.66952596232295">
        <ele>884.70000000000005</ele>
        <time>2018-05-26T07:44:00Z</time>
      </trkpt>
      <trkpt lat="42.25565199740231" lon="-3.669530991464853">
        <ele>885.29999999999995</ele>
        <time>2018-05-26T07:44:03Z</time>
      </trkpt>
      <trkpt lat="42.25524203851819" lon="-3.669540965929627">
        <ele>887.39999999999998</ele>
        <time>2018-05-26T07:44:15Z</time>
      </trkpt>
      <trkpt lat="42.254946995526552" lon="-3.669555969536305">
        <ele>888.10000000000002</ele>
        <time>2018-05-26T07:44:24Z</time>
      </trkpt>
      <trkpt lat="42.254606019705534" lon="-3.669570973142982">
        <ele>888.89999999999998</ele>
        <time>2018-05-26T07:44:34Z</time>
      </trkpt>
      <trkpt lat="42.254475010558963" lon="-3.669562004506588">
        <ele>888.60000000000002</ele>
        <time>2018-05-26T07:44:38Z</time>
      </trkpt>
      <trkpt lat="42.254345007240772" lon="-3.66956502199173">
        <ele>888.10000000000002</ele>
        <time>2018-05-26T07:44:41Z</time>
      </trkpt>
      <trkpt lat="42.253902023658156" lon="-3.669581031426787">
        <ele>886.5</ele>
        <time>2018-05-26T07:44:55Z</time>
      </trkpt>
      <trkpt lat="42.253705970942974" lon="-3.669590000063181">
        <ele>885.70000000000005</ele>
        <time>2018-05-26T07:45:00Z</time>
      </trkpt>
      <trkpt lat="42.253112029284239" lon="-3.669611038640142">
        <ele>881.39999999999998</ele>
        <time>2018-05-26T07:45:18Z</time>
      </trkpt>
      <trkpt lat="42.252498976886272" lon="-3.669607015326619">
        <ele>880.5</ele>
        <time>2018-05-26T07:45:36Z</time>
      </trkpt>
      <trkpt lat="42.251893971115351" lon="-3.669625958427787">
        <ele>879.89999999999998</ele>
        <time>2018-05-26T07:45:54Z</time>
      </trkpt>
      <trkpt lat="42.251359038054943" lon="-3.669644985347986">
        <ele>876.70000000000005</ele>
        <time>2018-05-26T07:46:10Z</time>
      </trkpt>
      <trkpt lat="42.250980008393526" lon="-3.66967398673296">
        <ele>875.10000000000002</ele>
        <time>2018-05-26T07:46:21Z</time>
      </trkpt>
      <trkpt lat="42.25032496266067" lon="-3.669683039188385">
        <ele>873</ele>
        <time>2018-05-26T07:46:41Z</time>
      </trkpt>
      <trkpt lat="42.249759016558528" lon="-3.669697036966682">
        <ele>873.70000000000005</ele>
        <time>2018-05-26T07:46:57Z</time>
      </trkpt>
      <trkpt lat="42.249276973307133" lon="-3.669720003381372">
        <ele>873.29999999999995</ele>
        <time>2018-05-26T07:47:12Z</time>
      </trkpt>
      <trkpt lat="42.24905502051115" lon="-3.669735006988049">
        <ele>873</ele>
        <time>2018-05-26T07:47:18Z</time>
      </trkpt>
      <trkpt lat="42.248994000256062" lon="-3.669746993109584">
        <ele>872.79999999999995</ele>
        <time>2018-05-26T07:47:20Z</time>
      </trkpt>
      <trkpt lat="42.24849502556026" lon="-3.66982301697135">
        <ele>872.20000000000005</ele>
        <time>2018-05-26T07:47:35Z</time>
      </trkpt>
      <trkpt lat="42.247956991195679" lon="-3.669937010854483">
        <ele>872.10000000000002</ele>
        <time>2018-05-26T07:47:51Z</time>
      </trkpt>
      <trkpt lat="42.24783101119101" lon="-3.669958971440792">
        <ele>872.10000000000002</ele>
        <time>2018-05-26T07:47:55Z</time>
      </trkpt>
      <trkpt lat="42.247610986232758" lon="-3.669998031109572">
        <ele>872.20000000000005</ele>
        <time>2018-05-26T07:48:01Z</time>
      </trkpt>
      <trkpt lat="42.247106982395053" lon="-3.670067014172673">
        <ele>872.39999999999998</ele>
        <time>2018-05-26T07:48:17Z</time>
      </trkpt>
      <trkpt lat="42.246939009055495" lon="-3.670097021386027">
        <ele>871.79999999999995</ele>
        <time>2018-05-26T07:48:22Z</time>
      </trkpt>
      <trkpt lat="42.246835995465517" lon="-3.67006198503077">
        <ele>871.39999999999998</ele>
        <time>2018-05-26T07:48:25Z</time>
      </trkpt>
      <trkpt lat="42.246787967160344" lon="-3.66997598670423">
        <ele>871.29999999999995</ele>
        <time>2018-05-26T07:48:27Z</time>
      </trkpt>
      <trkpt lat="42.246688976883888" lon="-3.669761996716261">
        <ele>871.29999999999995</ele>
        <time>2018-05-26T07:48:33Z</time>
      </trkpt>
      <trkpt lat="42.246674979105592" lon="-3.669693013653159">
        <ele>871.29999999999995</ele>
        <time>2018-05-26T07:48:34Z</time>
      </trkpt>
      <trkpt lat="42.246642960235476" lon="-3.669490003958345">
        <ele>872.20000000000005</ele>
        <time>2018-05-26T07:48:39Z</time>
      </trkpt>
      <trkpt lat="42.246570959687233" lon="-3.66915799677372">
        <ele>874.79999999999995</ele>
        <time>2018-05-26T07:48:46Z</time>
      </trkpt>
      <trkpt lat="42.246480016037822" lon="-3.66887996904552">
        <ele>877.29999999999995</ele>
        <time>2018-05-26T07:48:53Z</time>
      </trkpt>
      <trkpt lat="42.246470041573048" lon="-3.668688023462892">
        <ele>878.70000000000005</ele>
        <time>2018-05-26T07:48:57Z</time>
      </trkpt>
      <trkpt lat="42.246618987992406" lon="-3.668236993253231">
        <ele>880.39999999999998</ele>
        <time>2018-05-26T07:49:08Z</time>
      </trkpt>
      <trkpt lat="42.246772041544318" lon="-3.667932981625199">
        <ele>882.20000000000005</ele>
        <time>2018-05-26T07:49:16Z</time>
      </trkpt>
      <trkpt lat="42.246871031820774" lon="-3.667495027184486">
        <ele>882.60000000000002</ele>
        <time>2018-05-26T07:49:26Z</time>
      </trkpt>
      <trkpt lat="42.246813029050827" lon="-3.667085990309715">
        <ele>882.39999999999998</ele>
        <time>2018-05-26T07:49:35Z</time>
      </trkpt>
      <trkpt lat="42.246726024895906" lon="-3.666983982548118">
        <ele>881.5</ele>
        <time>2018-05-26T07:49:39Z</time>
      </trkpt>
      <trkpt lat="42.246470963582397" lon="-3.666650969535112">
        <ele>878.79999999999995</ele>
        <time>2018-05-26T07:49:49Z</time>
      </trkpt>
      <trkpt lat="42.2463050018996" lon="-3.666143026202917">
        <ele>876.29999999999995</ele>
        <time>2018-05-26T07:50:01Z</time>
      </trkpt>
      <trkpt lat="42.24613300524652" lon="-3.665683027356863">
        <ele>876.20000000000005</ele>
        <time>2018-05-26T07:50:13Z</time>
      </trkpt>
      <trkpt lat="42.245914991945028" lon="-3.665556963533163">
        <ele>877.10000000000002</ele>
        <time>2018-05-26T07:50:20Z</time>
      </trkpt>
      <trkpt lat="42.245548032224178" lon="-3.665775982663035">
        <ele>876.79999999999995</ele>
        <time>2018-05-26T07:50:32Z</time>
      </trkpt>
      <trkpt lat="42.245244020596147" lon="-3.665992990136147">
        <ele>874.79999999999995</ele>
        <time>2018-05-26T07:50:42Z</time>
      </trkpt>
      <trkpt lat="42.245064983144403" lon="-3.66610798984766">
        <ele>873.60000000000002</ele>
        <time>2018-05-26T07:50:48Z</time>
      </trkpt>
      <trkpt lat="42.244717972353101" lon="-3.666264982894063">
        <ele>872.10000000000002</ele>
        <time>2018-05-26T07:50:59Z</time>
      </trkpt>
      <trkpt lat="42.244299966841936" lon="-3.666350981220603">
        <ele>872.10000000000002</ele>
        <time>2018-05-26T07:51:11Z</time>
      </trkpt>
      <trkpt lat="42.243932001292706" lon="-3.666434967890382">
        <ele>872</ele>
        <time>2018-05-26T07:51:22Z</time>
      </trkpt>
      <trkpt lat="42.243429003283381" lon="-3.666571006178856">
        <ele>871.20000000000005</ele>
        <time>2018-05-26T07:51:37Z</time>
      </trkpt>
      <trkpt lat="42.243046034127474" lon="-3.666669996455312">
        <ele>870.60000000000002</ele>
        <time>2018-05-26T07:51:49Z</time>
      </trkpt>
      <trkpt lat="42.242529960349202" lon="-3.666790025308728">
        <ele>870.5</ele>
        <time>2018-05-26T07:52:04Z</time>
      </trkpt>
      <trkpt lat="42.242001984268427" lon="-3.666948024183512">
        <ele>870.60000000000002</ele>
        <time>2018-05-26T07:52:20Z</time>
      </trkpt>
      <trkpt lat="42.241841973736882" lon="-3.666977025568485">
        <ele>870.70000000000005</ele>
        <time>2018-05-26T07:52:25Z</time>
      </trkpt>
      <trkpt lat="42.241205032914877" lon="-3.667189003899694">
        <ele>870.70000000000005</ele>
        <time>2018-05-26T07:52:45Z</time>
      </trkpt>
      <trkpt lat="42.240746961906552" lon="-3.667324958369136">
        <ele>871.70000000000005</ele>
        <time>2018-05-26T07:52:59Z</time>
      </trkpt>
      <trkpt lat="42.240185961127281" lon="-3.667269973084331">
        <ele>872.60000000000002</ele>
        <time>2018-05-26T07:53:15Z</time>
      </trkpt>
      <trkpt lat="42.239659996703267" lon="-3.666948024183512">
        <ele>872.20000000000005</ele>
        <time>2018-05-26T07:53:32Z</time>
      </trkpt>
      <trkpt lat="42.239451035857201" lon="-3.666777033358812">
        <ele>871.60000000000002</ele>
        <time>2018-05-26T07:53:40Z</time>
      </trkpt>
      <trkpt lat="42.239260012283921" lon="-3.666545022279024">
        <ele>871.10000000000002</ele>
        <time>2018-05-26T07:53:47Z</time>
      </trkpt>
      <trkpt lat="42.239017020910978" lon="-3.666258025914431">
        <ele>870.60000000000002</ele>
        <time>2018-05-26T07:53:57Z</time>
      </trkpt>
      <trkpt lat="42.238655006513" lon="-3.665872039273381">
        <ele>870.79999999999995</ele>
        <time>2018-05-26T07:54:10Z</time>
      </trkpt>
      <trkpt lat="42.238416038453579" lon="-3.665558975189924">
        <ele>872.29999999999995</ele>
        <time>2018-05-26T07:54:20Z</time>
      </trkpt>
      <trkpt lat="42.238080007955432" lon="-3.665165025740862">
        <ele>874.70000000000005</ele>
        <time>2018-05-26T07:54:33Z</time>
      </trkpt>
      <trkpt lat="42.238013036549091" lon="-3.66513803601265">
        <ele>875</ele>
        <time>2018-05-26T07:54:36Z</time>
      </trkpt>
      <trkpt lat="42.23796701990068" lon="-3.665152033790946">
        <ele>875.10000000000002</ele>
        <time>2018-05-26T07:54:37Z</time>
      </trkpt>
      <trkpt lat="42.237854031845927" lon="-3.665353031829">
        <ele>874.89999999999998</ele>
        <time>2018-05-26T07:54:42Z</time>
      </trkpt>
      <trkpt lat="42.237769961357117" lon="-3.665512036532164">
        <ele>874.29999999999995</ele>
        <time>2018-05-26T07:54:47Z</time>
      </trkpt>
      <trkpt lat="42.237680023536086" lon="-3.66561396047473">
        <ele>873.89999999999998</ele>
        <time>2018-05-26T07:54:50Z</time>
      </trkpt>
      <trkpt lat="42.237253971397877" lon="-3.666059961542487">
        <ele>872.29999999999995</ele>
        <time>2018-05-26T07:55:06Z</time>
      </trkpt>
      <trkpt lat="42.236936967819929" lon="-3.666344024240971">
        <ele>872.5</ele>
        <time>2018-05-26T07:55:17Z</time>
      </trkpt>
      <trkpt lat="42.236896986141801" lon="-3.666551979258657">
        <ele>873.20000000000005</ele>
        <time>2018-05-26T07:55:22Z</time>
      </trkpt>
      <trkpt lat="42.236747033894062" lon="-3.666939977556467">
        <ele>874.60000000000002</ele>
        <time>2018-05-26T07:55:32Z</time>
      </trkpt>
      <trkpt lat="42.236751979216933" lon="-3.667162014171481">
        <ele>875.10000000000002</ele>
        <time>2018-05-26T07:55:37Z</time>
      </trkpt>
      <trkpt lat="42.236624993383884" lon="-3.667453033849597">
        <ele>875.39999999999998</ele>
        <time>2018-05-26T07:55:44Z</time>
      </trkpt>
      <trkpt lat="42.236696993932128" lon="-3.667324958369136">
        <ele>875.29999999999995</ele>
        <time>2018-05-26T07:55:48Z</time>
      </trkpt>
      <trkpt lat="42.236762037500739" lon="-3.667072998359799">
        <ele>875</ele>
        <time>2018-05-26T07:55:53Z</time>
      </trkpt>
      <trkpt lat="42.236749967560172" lon="-3.666876023635268">
        <ele>874.39999999999998</ele>
        <time>2018-05-26T07:55:58Z</time>
      </trkpt>
      <trkpt lat="42.236914001405239" lon="-3.66640898399055">
        <ele>872.70000000000005</ele>
        <time>2018-05-26T07:56:09Z</time>
      </trkpt>
      <trkpt lat="42.23704501055181" lon="-3.666264982894063">
        <ele>872.10000000000002</ele>
        <time>2018-05-26T07:56:14Z</time>
      </trkpt>
      <trkpt lat="42.237171996384859" lon="-3.666131040081382">
        <ele>872.20000000000005</ele>
        <time>2018-05-26T07:56:19Z</time>
      </trkpt>
      <trkpt lat="42.237726040184498" lon="-3.66559199988842">
        <ele>874</ele>
        <time>2018-05-26T07:56:39Z</time>
      </trkpt>
      <trkpt lat="42.237765016034245" lon="-3.665371974930167">
        <ele>874.70000000000005</ele>
        <time>2018-05-26T07:56:44Z</time>
      </trkpt>
      <trkpt lat="42.237471984699368" lon="-3.665039967745543">
        <ele>874.10000000000002</ele>
        <time>2018-05-26T07:56:55Z</time>
      </trkpt>
      <trkpt lat="42.237136960029602" lon="-3.664651969447732">
        <ele>873.20000000000005</ele>
        <time>2018-05-26T07:57:09Z</time>
      </trkpt>
      <trkpt lat="42.236737981438637" lon="-3.664274029433727">
        <ele>872.60000000000002</ele>
        <time>2018-05-26T07:57:23Z</time>
      </trkpt>
      <trkpt lat="42.23635702393949" lon="-3.663983009755611">
        <ele>872.29999999999995</ele>
        <time>2018-05-26T07:57:36Z</time>
      </trkpt>
      <trkpt lat="42.236159965395927" lon="-3.663841020315886">
        <ele>872.29999999999995</ele>
        <time>2018-05-26T07:57:43Z</time>
      </trkpt>
      <trkpt lat="42.236030967906117" lon="-3.663710011169314">
        <ele>872.60000000000002</ele>
        <time>2018-05-26T07:57:47Z</time>
      </trkpt>
      <trkpt lat="42.235799040645361" lon="-3.663281025364995">
        <ele>874.20000000000005</ele>
        <time>2018-05-26T07:57:59Z</time>
      </trkpt>
      <trkpt lat="42.235597036778927" lon="-3.66312000900507">
        <ele>874.70000000000005</ele>
        <time>2018-05-26T07:58:06Z</time>
      </trkpt>
      <trkpt lat="42.23545596934855" lon="-3.66292898543179">
        <ele>875</ele>
        <time>2018-05-26T07:58:12Z</time>
      </trkpt>
      <trkpt lat="42.23541297018528" lon="-3.662811974063516">
        <ele>875.29999999999995</ele>
        <time>2018-05-26T07:58:15Z</time>
      </trkpt>
      <trkpt lat="42.235147012397647" lon="-3.662279974669218">
        <ele>876.60000000000002</ele>
        <time>2018-05-26T07:58:29Z</time>
      </trkpt>
      <trkpt lat="42.23494098521769" lon="-3.6620460357517">
        <ele>877</ele>
        <time>2018-05-26T07:58:37Z</time>
      </trkpt>
      <trkpt lat="42.234644014388323" lon="-3.661763984709978">
        <ele>877</ele>
        <time>2018-05-26T07:58:48Z</time>
      </trkpt>
      <trkpt lat="42.234214022755623" lon="-3.661401970311999">
        <ele>876.60000000000002</ele>
        <time>2018-05-26T07:59:03Z</time>
      </trkpt>
      <trkpt lat="42.233805991709232" lon="-3.660927973687649">
        <ele>876.10000000000002</ele>
        <time>2018-05-26T07:59:18Z</time>
      </trkpt>
      <trkpt lat="42.233397960662842" lon="-3.660468980669975">
        <ele>876.10000000000002</ele>
        <time>2018-05-26T07:59:34Z</time>
      </trkpt>
      <trkpt lat="42.233090009540319" lon="-3.660095985978842">
        <ele>876.20000000000005</ele>
        <time>2018-05-26T07:59:46Z</time>
      </trkpt>
      <trkpt lat="42.232807958498597" lon="-3.659587958827615">
        <ele>876.10000000000002</ele>
        <time>2018-05-26T08:00:00Z</time>
      </trkpt>
      <trkpt lat="42.232605032622814" lon="-3.659053025767207">
        <ele>876.39999999999998</ele>
        <time>2018-05-26T08:00:14Z</time>
      </trkpt>
      <trkpt lat="42.232175962999463" lon="-3.658250961452723">
        <ele>877</ele>
        <time>2018-05-26T08:00:35Z</time>
      </trkpt>
      <trkpt lat="42.231985023245215" lon="-3.657617960125208">
        <ele>877.29999999999995</ele>
        <time>2018-05-26T08:00:50Z</time>
      </trkpt>
      <trkpt lat="42.23175996914506" lon="-3.656991999596357">
        <ele>877.70000000000005</ele>
        <time>2018-05-26T08:01:06Z</time>
      </trkpt>
      <trkpt lat="42.231511026620865" lon="-3.656498976051807">
        <ele>877.5</ele>
        <time>2018-05-26T08:01:19Z</time>
      </trkpt>
      <trkpt lat="42.231443971395493" lon="-3.656414989382029">
        <ele>877.39999999999998</ele>
        <time>2018-05-26T08:01:21Z</time>
      </trkpt>
      <trkpt lat="42.231124034151435" lon="-3.65585801191628">
        <ele>877.20000000000005</ele>
        <time>2018-05-26T08:01:37Z</time>
      </trkpt>
      <trkpt lat="42.230997970327735" lon="-3.655489040538669">
        <ele>877.29999999999995</ele>
        <time>2018-05-26T08:01:46Z</time>
      </trkpt>
      <trkpt lat="42.230903003364801" lon="-3.654358992353082">
        <ele>880.29999999999995</ele>
        <time>2018-05-26T08:02:11Z</time>
      </trkpt>
      <trkpt lat="42.230841983109713" lon="-3.654112983494997">
        <ele>881</ele>
        <time>2018-05-26T08:02:16Z</time>
      </trkpt>
      <trkpt lat="42.230790015310049" lon="-3.653907040134072">
        <ele>881.5</ele>
        <time>2018-05-26T08:02:21Z</time>
      </trkpt>
      <trkpt lat="42.230682978406549" lon="-3.653231039643288">
        <ele>882.70000000000005</ele>
        <time>2018-05-26T08:02:36Z</time>
      </trkpt>
      <trkpt lat="42.230601003393531" lon="-3.652943037450314">
        <ele>882.70000000000005</ele>
        <time>2018-05-26T08:02:43Z</time>
      </trkpt>
      <trkpt lat="42.230435041710734" lon="-3.652771040797234">
        <ele>881.39999999999998</ele>
        <time>2018-05-26T08:02:49Z</time>
      </trkpt>
      <trkpt lat="42.230360023677349" lon="-3.652695016935468">
        <ele>880.89999999999998</ele>
        <time>2018-05-26T08:02:52Z</time>
      </trkpt>
      <trkpt lat="42.230185009539127" lon="-3.65233400836587">
        <ele>880.29999999999995</ele>
        <time>2018-05-26T08:03:02Z</time>
      </trkpt>
      <trkpt lat="42.230038996785879" lon="-3.65197098813951">
        <ele>879.89999999999998</ele>
        <time>2018-05-26T08:03:11Z</time>
      </trkpt>
      <trkpt lat="42.23004000261426" lon="-3.651856994256377">
        <ele>880.20000000000005</ele>
        <time>2018-05-26T08:03:13Z</time>
      </trkpt>
      <trkpt lat="42.230059029534459" lon="-3.651607967913151">
        <ele>880.70000000000005</ele>
        <time>2018-05-26T08:03:19Z</time>
      </trkpt>
      <trkpt lat="42.230086019262671" lon="-3.651086026802659">
        <ele>881.89999999999998</ele>
        <time>2018-05-26T08:03:30Z</time>
      </trkpt>
      <trkpt lat="42.229984011501074" lon="-3.650673972442746">
        <ele>881.89999999999998</ele>
        <time>2018-05-26T08:03:40Z</time>
      </trkpt>
      <trkpt lat="42.229853002354503" lon="-3.650602977722883">
        <ele>881.20000000000005</ele>
        <time>2018-05-26T08:03:44Z</time>
      </trkpt>
      <trkpt lat="42.229692991822958" lon="-3.650329979136586">
        <ele>880.70000000000005</ele>
        <time>2018-05-26T08:03:51Z</time>
      </trkpt>
      <trkpt lat="42.229555025696754" lon="-3.650067038834095">
        <ele>880.39999999999998</ele>
        <time>2018-05-26T08:03:58Z</time>
      </trkpt>
      <trkpt lat="42.229367019608617" lon="-3.6495849955827">
        <ele>880.5</ele>
        <time>2018-05-26T08:04:10Z</time>
      </trkpt>
      <trkpt lat="42.22918001934886" lon="-3.64889801479876">
        <ele>880.5</ele>
        <time>2018-05-26T08:04:26Z</time>
      </trkpt>
      <trkpt lat="42.228957982733846" lon="-3.648094022646546">
        <ele>880.89999999999998</ele>
        <time>2018-05-26T08:04:45Z</time>
      </trkpt>
      <trkpt lat="42.22879696637392" lon="-3.647688003256917">
        <ele>881.29999999999995</ele>
        <time>2018-05-26T08:04:55Z</time>
      </trkpt>
      <trkpt lat="42.228488009423018" lon="-3.647364964708686">
        <ele>881.5</ele>
        <time>2018-05-26T08:05:07Z</time>
      </trkpt>
      <trkpt lat="42.228033961728215" lon="-3.646959029138088">
        <ele>881.10000000000002</ele>
        <time>2018-05-26T08:05:23Z</time>
      </trkpt>
      <trkpt lat="42.227879986166954" lon="-3.646488972008228">
        <ele>880.89999999999998</ele>
        <time>2018-05-26T08:05:34Z</time>
      </trkpt>
      <trkpt lat="42.227860037237406" lon="-3.646236006170511">
        <ele>880.89999999999998</ele>
        <time>2018-05-26T08:05:40Z</time>
      </trkpt>
      <trkpt lat="42.227736990898848" lon="-3.645927971228957">
        <ele>880.60000000000002</ele>
        <time>2018-05-26T08:05:48Z</time>
      </trkpt>
      <trkpt lat="42.227621991187334" lon="-3.645896958187223">
        <ele>880.29999999999995</ele>
        <time>2018-05-26T08:05:51Z</time>
      </trkpt>
      <trkpt lat="42.227106001228094" lon="-3.645633012056351">
        <ele>879.10000000000002</ele>
        <time>2018-05-26T08:06:07Z</time>
      </trkpt>
      <trkpt lat="42.226764019578695" lon="-3.645448023453355">
        <ele>878.60000000000002</ele>
        <time>2018-05-26T08:06:18Z</time>
      </trkpt>
      <trkpt lat="42.226085001602769" lon="-3.645100006833673">
        <ele>878.5</ele>
        <time>2018-05-26T08:06:40Z</time>
      </trkpt>
      <trkpt lat="42.225633971393108" lon="-3.644705973565579">
        <ele>879.60000000000002</ele>
        <time>2018-05-26T08:06:56Z</time>
      </trkpt>
      <trkpt lat="42.225311016663909" lon="-3.644596002995968">
        <ele>880.29999999999995</ele>
        <time>2018-05-26T08:07:06Z</time>
      </trkpt>
      <trkpt lat="42.225113958120346" lon="-3.644861960783601">
        <ele>881.10000000000002</ele>
        <time>2018-05-26T08:07:14Z</time>
      </trkpt>
      <trkpt lat="42.224985966458917" lon="-3.645087014883757">
        <ele>881.60000000000002</ele>
        <time>2018-05-26T08:07:20Z</time>
      </trkpt>
      <trkpt lat="42.22471296787262" lon="-3.645582972094417">
        <ele>883.10000000000002</ele>
        <time>2018-05-26T08:07:34Z</time>
      </trkpt>
      <trkpt lat="42.224620012566447" lon="-3.645755974575877">
        <ele>883.70000000000005</ele>
        <time>2018-05-26T08:07:38Z</time>
      </trkpt>
      <trkpt lat="42.22458397038281" lon="-3.645809032022953">
        <ele>883.89999999999998</ele>
        <time>2018-05-26T08:07:40Z</time>
      </trkpt>
      <trkpt lat="42.224393030628562" lon="-3.645938029512763">
        <ele>884.89999999999998</ele>
        <time>2018-05-26T08:07:46Z</time>
      </trkpt>
      <trkpt lat="42.224107962101698" lon="-3.645983962342143">
        <ele>886.10000000000002</ele>
        <time>2018-05-26T08:07:55Z</time>
      </trkpt>
      <trkpt lat="42.223784001544118" lon="-3.645967030897737">
        <ele>887.20000000000005</ele>
        <time>2018-05-26T08:08:04Z</time>
      </trkpt>
      <trkpt lat="42.223603958263993" lon="-3.645980022847652">
        <ele>887.5</ele>
        <time>2018-05-26T08:08:10Z</time>
      </trkpt>
      <trkpt lat="42.223386028781533" lon="-3.646011035889387">
        <ele>887.70000000000005</ele>
        <time>2018-05-26T08:08:16Z</time>
      </trkpt>
      <trkpt lat="42.223022002726793" lon="-3.646122012287378">
        <ele>888</ele>
        <time>2018-05-26T08:08:27Z</time>
      </trkpt>
      <trkpt lat="42.222640961408615" lon="-3.646591985598207">
        <ele>890</ele>
        <time>2018-05-26T08:08:43Z</time>
      </trkpt>
      <trkpt lat="42.222415991127491" lon="-3.64689901471138">
        <ele>891.20000000000005</ele>
        <time>2018-05-26T08:08:52Z</time>
      </trkpt>
      <trkpt lat="42.22211298532784" lon="-3.646696005016565">
        <ele>891.5</ele>
        <time>2018-05-26T08:09:02Z</time>
      </trkpt>
      <trkpt lat="42.222079960629344" lon="-3.646628027781844">
        <ele>891.5</ele>
        <time>2018-05-26T08:09:04Z</time>
      </trkpt>
      <trkpt lat="42.222206024453044" lon="-3.645844990387559">
        <ele>890.10000000000002</ele>
        <time>2018-05-26T08:09:21Z</time>
      </trkpt>
      <trkpt lat="42.222207030281425" lon="-3.645681962370873">
        <ele>890</ele>
        <time>2018-05-26T08:09:25Z</time>
      </trkpt>
      <trkpt lat="42.222186997532845" lon="-3.645422961562872">
        <ele>889.79999999999995</ele>
        <time>2018-05-26T08:09:31Z</time>
      </trkpt>
      <trkpt lat="42.222174005582929" lon="-3.645345009863377">
        <ele>889.70000000000005</ele>
        <time>2018-05-26T08:09:33Z</time>
      </trkpt>
      <trkpt lat="42.221923973411322" lon="-3.645031023770571">
        <ele>890.70000000000005</ele>
        <time>2018-05-26T08:09:43Z</time>
      </trkpt>
      <trkpt lat="42.221739990636706" lon="-3.644805969670415">
        <ele>891.89999999999998</ele>
        <time>2018-05-26T08:09:50Z</time>
      </trkpt>
      <trkpt lat="42.221536980941892" lon="-3.644440015777946">
        <ele>893.39999999999998</ele>
        <time>2018-05-26T08:10:00Z</time>
      </trkpt>
      <trkpt lat="42.2212740406394" lon="-3.644271036610007">
        <ele>895.39999999999998</ele>
        <time>2018-05-26T08:10:09Z</time>
      </trkpt>
      <trkpt lat="42.221188964322209" lon="-3.644257038831711">
        <ele>895.79999999999995</ele>
        <time>2018-05-26T08:10:11Z</time>
      </trkpt>
      <trkpt lat="42.221037000417709" lon="-3.644243963062763">
        <ele>896.20000000000005</ele>
        <time>2018-05-26T08:10:16Z</time>
      </trkpt>
      <trkpt lat="42.220661994069815" lon="-3.644151007756591">
        <ele>896.89999999999998</ele>
        <time>2018-05-26T08:10:27Z</time>
      </trkpt>
      <trkpt lat="42.220579013228416" lon="-3.644101973623037">
        <ele>896.89999999999998</ele>
        <time>2018-05-26T08:10:30Z</time>
      </trkpt>
      <trkpt lat="42.220382038503885" lon="-3.644012035802007">
        <ele>896.79999999999995</ele>
        <time>2018-05-26T08:10:36Z</time>
      </trkpt>
      <trkpt lat="42.21992296166718" lon="-3.643938023597002">
        <ele>895.20000000000005</ele>
        <time>2018-05-26T08:10:50Z</time>
      </trkpt>
      <trkpt lat="42.219626996666193" lon="-3.643972976133227">
        <ele>894.5</ele>
        <time>2018-05-26T08:10:58Z</time>
      </trkpt>
      <trkpt lat="42.2194470372051" lon="-3.64400097168982">
        <ele>894</ele>
        <time>2018-05-26T08:11:04Z</time>
      </trkpt>
      <trkpt lat="42.219246961176395" lon="-3.644031984731555">
        <ele>893.29999999999995</ele>
        <time>2018-05-26T08:11:10Z</time>
      </trkpt>
      <trkpt lat="42.219005981460214" lon="-3.643864011391997">
        <ele>891.5</ele>
        <time>2018-05-26T08:11:18Z</time>
      </trkpt>
      <trkpt lat="42.218884024769068" lon="-3.643605010583997">
        <ele>890.10000000000002</ele>
        <time>2018-05-26T08:11:24Z</time>
      </trkpt>
      <trkpt lat="42.218811018392444" lon="-3.64311802200973">
        <ele>888.5</ele>
        <time>2018-05-26T08:11:35Z</time>
      </trkpt>
      <trkpt lat="42.218705993145704" lon="-3.642718959599733">
        <ele>887.60000000000002</ele>
        <time>2018-05-26T08:11:45Z</time>
      </trkpt>
      <trkpt lat="42.218359988182783" lon="-3.642225014045835">
        <ele>888</ele>
        <time>2018-05-26T08:12:00Z</time>
      </trkpt>
      <trkpt lat="42.218176005408168" lon="-3.641744982451201">
        <ele>889</ele>
        <time>2018-05-26T08:12:11Z</time>
      </trkpt>
      <trkpt lat="42.218155972659588" lon="-3.641540966928005">
        <ele>889.29999999999995</ele>
        <time>2018-05-26T08:12:16Z</time>
      </trkpt>
      <trkpt lat="42.218128982931376" lon="-3.641492016613483">
        <ele>889.5</ele>
        <time>2018-05-26T08:12:17Z</time>
      </trkpt>
      <trkpt lat="42.218021024018526" lon="-3.641365030780435">
        <ele>890.29999999999995</ele>
        <time>2018-05-26T08:12:22Z</time>
      </trkpt>
      <trkpt lat="42.217891020700336" lon="-3.641283977776766">
        <ele>891</ele>
        <time>2018-05-26T08:12:26Z</time>
      </trkpt>
      <trkpt lat="42.217508973553777" lon="-3.641029000282288">
        <ele>891.20000000000005</ele>
        <time>2018-05-26T08:12:38Z</time>
      </trkpt>
      <trkpt lat="42.217115024104714" lon="-3.640828002244234">
        <ele>891.39999999999998</ele>
        <time>2018-05-26T08:12:51Z</time>
      </trkpt>
      <trkpt lat="42.216983009129763" lon="-3.640575036406517">
        <ele>890.79999999999995</ele>
        <time>2018-05-26T08:12:58Z</time>
      </trkpt>
      <trkpt lat="42.216662988066673" lon="-3.640300026163459">
        <ele>890.70000000000005</ele>
        <time>2018-05-26T08:13:09Z</time>
      </trkpt>
      <trkpt lat="42.21639602445066" lon="-3.639900041744113">
        <ele>890.39999999999998</ele>
        <time>2018-05-26T08:13:21Z</time>
      </trkpt>
      <trkpt lat="42.216171976178885" lon="-3.639367036521435">
        <ele>889.79999999999995</ele>
        <time>2018-05-26T08:13:34Z</time>
      </trkpt>
      <trkpt lat="42.216170970350504" lon="-3.638957999646664">
        <ele>889.29999999999995</ele>
        <time>2018-05-26T08:13:43Z</time>
      </trkpt>
      <trkpt lat="42.215981036424637" lon="-3.638596991077066">
        <ele>888.89999999999998</ele>
        <time>2018-05-26T08:13:53Z</time>
      </trkpt>
      <trkpt lat="42.215661015361547" lon="-3.638237994164228">
        <ele>888.70000000000005</ele>
        <time>2018-05-26T08:14:05Z</time>
      </trkpt>
      <trkpt lat="42.215149970725179" lon="-3.637645980343223">
        <ele>889.70000000000005</ele>
        <time>2018-05-26T08:14:25Z</time>
      </trkpt>
      <trkpt lat="42.214667005464435" lon="-3.637008033692837">
        <ele>889.5</ele>
        <time>2018-05-26T08:14:45Z</time>
      </trkpt>
      <trkpt lat="42.21440096385777" lon="-3.6365229729563">
        <ele>889.60000000000002</ele>
        <time>2018-05-26T08:14:58Z</time>
      </trkpt>
      <trkpt lat="42.214330974966288" lon="-3.635947974398732">
        <ele>890.20000000000005</ele>
        <time>2018-05-26T08:15:11Z</time>
      </trkpt>
      <trkpt lat="42.214354025200009" lon="-3.635595012456179">
        <ele>890.89999999999998</ele>
        <time>2018-05-26T08:15:19Z</time>
      </trkpt>
      <trkpt lat="42.214029980823398" lon="-3.635651003569365">
        <ele>889.79999999999995</ele>
        <time>2018-05-26T08:15:29Z</time>
      </trkpt>
      <trkpt lat="42.213753964751959" lon="-3.635737001895905">
        <ele>889</ele>
        <time>2018-05-26T08:15:37Z</time>
      </trkpt>
      <trkpt lat="42.213248033076525" lon="-3.635850995779038">
        <ele>890.5</ele>
        <time>2018-05-26T08:15:52Z</time>
      </trkpt>
      <trkpt lat="42.213102020323277" lon="-3.635895000770688">
        <ele>890.79999999999995</ele>
        <time>2018-05-26T08:15:57Z</time>
      </trkpt>
      <trkpt lat="42.212467007339001" lon="-3.636089041829109">
        <ele>891.10000000000002</ele>
        <time>2018-05-26T08:16:16Z</time>
      </trkpt>
      <trkpt lat="42.211911035701632" lon="-3.636245029047132">
        <ele>891.60000000000002</ele>
        <time>2018-05-26T08:16:33Z</time>
      </trkpt>
      <trkpt lat="42.211314998567104" lon="-3.636405961588025">
        <ele>893.39999999999998</ele>
        <time>2018-05-26T08:16:51Z</time>
      </trkpt>
      <trkpt lat="42.210737988352776" lon="-3.636442003771663">
        <ele>893.20000000000005</ele>
        <time>2018-05-26T08:17:08Z</time>
      </trkpt>
      <trkpt lat="42.210132982581854" lon="-3.636443009600043">
        <ele>893.20000000000005</ele>
        <time>2018-05-26T08:17:26Z</time>
      </trkpt>
      <trkpt lat="42.21005997620523" lon="-3.636460024863482">
        <ele>893.20000000000005</ele>
        <time>2018-05-26T08:17:28Z</time>
      </trkpt>
      <trkpt lat="42.209535017609596" lon="-3.636502018198371">
        <ele>893.60000000000002</ele>
        <time>2018-05-26T08:17:44Z</time>
      </trkpt>
      <trkpt lat="42.209015004336834" lon="-3.636517021805048">
        <ele>895.89999999999998</ele>
        <time>2018-05-26T08:17:59Z</time>
      </trkpt>
      <trkpt lat="42.208693977445364" lon="-3.636534037068486">
        <ele>897</ele>
        <time>2018-05-26T08:18:09Z</time>
      </trkpt>
      <trkpt lat="42.208006996661425" lon="-3.636583993211389">
        <ele>897.70000000000005</ele>
        <time>2018-05-26T08:18:29Z</time>
      </trkpt>
      <trkpt lat="42.207701979205012" lon="-3.636635961011052">
        <ele>898.10000000000002</ele>
        <time>2018-05-26T08:18:38Z</time>
      </trkpt>
      <trkpt lat="42.207451025024056" lon="-3.636805023998022">
        <ele>897.89999999999998</ele>
        <time>2018-05-26T08:18:46Z</time>
      </trkpt>
      <trkpt lat="42.20700703561306" lon="-3.63723199814558">
        <ele>897.20000000000005</ele>
        <time>2018-05-26T08:19:02Z</time>
      </trkpt>
      <trkpt lat="42.206453997641802" lon="-3.63770398311317">
        <ele>898.89999999999998</ele>
        <time>2018-05-26T08:19:22Z</time>
      </trkpt>
      <trkpt lat="42.206378979608417" lon="-3.637758968397975">
        <ele>899</ele>
        <time>2018-05-26T08:19:24Z</time>
      </trkpt>
      <trkpt lat="42.206122996285558" lon="-3.637888971716166">
        <ele>899.60000000000002</ele>
        <time>2018-05-26T08:19:33Z</time>
      </trkpt>
      <trkpt lat="42.20544196665287" lon="-3.637903975322843">
        <ele>902</ele>
        <time>2018-05-26T08:19:53Z</time>
      </trkpt>
      <trkpt lat="42.205326966941357" lon="-3.637901963666081">
        <ele>902.20000000000005</ele>
        <time>2018-05-26T08:19:56Z</time>
      </trkpt>
      <trkpt lat="42.205099985003471" lon="-3.637907998636365">
        <ele>902.39999999999998</ele>
        <time>2018-05-26T08:20:03Z</time>
      </trkpt>
      <trkpt lat="42.20449598506093" lon="-3.63796197809279">
        <ele>903.39999999999998</ele>
        <time>2018-05-26T08:20:21Z</time>
      </trkpt>
      <trkpt lat="42.204287024214864" lon="-3.637993996962905">
        <ele>904.29999999999995</ele>
        <time>2018-05-26T08:20:27Z</time>
      </trkpt>
      <trkpt lat="42.203813027590513" lon="-3.638043031096458">
        <ele>906.5</ele>
        <time>2018-05-26T08:20:41Z</time>
      </trkpt>
      <trkpt lat="42.203426035121083" lon="-3.63789701834321">
        <ele>907.79999999999995</ele>
        <time>2018-05-26T08:20:53Z</time>
      </trkpt>
      <trkpt lat="42.202881965786219" lon="-3.637578003108501">
        <ele>909</ele>
        <time>2018-05-26T08:21:11Z</time>
      </trkpt>
      <trkpt lat="42.202466977760196" lon="-3.637348003685474">
        <ele>908.5</ele>
        <time>2018-05-26T08:21:24Z</time>
      </trkpt>
      <trkpt lat="42.202387014403939" lon="-3.637325959280133">
        <ele>908.39999999999998</ele>
        <time>2018-05-26T08:21:26Z</time>
      </trkpt>
      <trkpt lat="42.202271008864045" lon="-3.637353032827377">
        <ele>908.20000000000005</ele>
        <time>2018-05-26T08:21:30Z</time>
      </trkpt>
      <trkpt lat="42.20198099501431" lon="-3.637625025585294">
        <ele>908.5</ele>
        <time>2018-05-26T08:21:40Z</time>
      </trkpt>
      <trkpt lat="42.201846968382597" lon="-3.637741031125188">
        <ele>909.10000000000002</ele>
        <time>2018-05-26T08:21:45Z</time>
      </trkpt>
      <trkpt lat="42.201249003410339" lon="-3.638288034126163">
        <ele>912.39999999999998</ele>
        <time>2018-05-26T08:22:06Z</time>
      </trkpt>
      <trkpt lat="42.201135009527206" lon="-3.638376966118813">
        <ele>912.60000000000002</ele>
        <time>2018-05-26T08:22:10Z</time>
      </trkpt>
      <trkpt lat="42.200900986790657" lon="-3.638517027720809">
        <ele>913</ele>
        <time>2018-05-26T08:22:18Z</time>
      </trkpt>
      <trkpt lat="42.200774000957608" lon="-3.638578969985247">
        <ele>913.20000000000005</ele>
        <time>2018-05-26T08:22:22Z</time>
      </trkpt>
      <trkpt lat="42.200496979057789" lon="-3.638689024373889">
        <ele>913.79999999999995</ele>
        <time>2018-05-26T08:22:30Z</time>
      </trkpt>
      <trkpt lat="42.199860960245132" lon="-3.638966968283057">
        <ele>913.39999999999998</ele>
        <time>2018-05-26T08:22:50Z</time>
      </trkpt>
      <trkpt lat="42.199748978018761" lon="-3.639021031558514">
        <ele>913.29999999999995</ele>
        <time>2018-05-26T08:22:54Z</time>
      </trkpt>
      <trkpt lat="42.199632972478867" lon="-3.639075011014938">
        <ele>913.10000000000002</ele>
        <time>2018-05-26T08:22:57Z</time>
      </trkpt>
      <trkpt lat="42.199401967227459" lon="-3.639179030433297">
        <ele>913.29999999999995</ele>
        <time>2018-05-26T08:23:05Z</time>
      </trkpt>
      <trkpt lat="42.19936097972095" lon="-3.639204008504748">
        <ele>913.39999999999998</ele>
        <time>2018-05-26T08:23:06Z</time>
      </trkpt>
      <trkpt lat="42.199185965582728" lon="-3.639306016266346">
        <ele>913.79999999999995</ele>
        <time>2018-05-26T08:23:12Z</time>
      </trkpt>
      <trkpt lat="42.199021009728312" lon="-3.639410035684705">
        <ele>914.20000000000005</ele>
        <time>2018-05-26T08:23:17Z</time>
      </trkpt>
      <trkpt lat="42.19893098808825" lon="-3.639459991827607">
        <ele>914.39999999999998</ele>
        <time>2018-05-26T08:23:20Z</time>
      </trkpt>
      <trkpt lat="42.198720015585423" lon="-3.639581026509404">
        <ele>915.10000000000002</ele>
        <time>2018-05-26T08:23:27Z</time>
      </trkpt>
      <trkpt lat="42.198405023664236" lon="-3.639696026220918">
        <ele>916</ele>
        <time>2018-05-26T08:23:36Z</time>
      </trkpt>
      <trkpt lat="42.197721982374787" lon="-3.639759980142117">
        <ele>917.60000000000002</ele>
        <time>2018-05-26T08:23:57Z</time>
      </trkpt>
      <trkpt lat="42.197229964658618" lon="-3.639826029539108">
        <ele>917.89999999999998</ele>
        <time>2018-05-26T08:24:11Z</time>
      </trkpt>
      <trkpt lat="42.197059979662299" lon="-3.639841033145785">
        <ele>918.10000000000002</ele>
        <time>2018-05-26T08:24:16Z</time>
      </trkpt>
      <trkpt lat="42.196929976344109" lon="-3.640460958704352">
        <ele>918.5</ele>
        <time>2018-05-26T08:24:30Z</time>
      </trkpt>
      <trkpt lat="42.196917990222573" lon="-3.640633961185813">
        <ele>918.89999999999998</ele>
        <time>2018-05-26T08:24:34Z</time>
      </trkpt>
      <trkpt lat="42.196808019652963" lon="-3.641231004148722">
        <ele>920.29999999999995</ele>
        <time>2018-05-26T08:24:48Z</time>
      </trkpt>
      <trkpt lat="42.19650300219655" lon="-3.642225014045835">
        <ele>920.70000000000005</ele>
        <time>2018-05-26T08:25:11Z</time>
      </trkpt>
      <trkpt lat="42.196166971698403" lon="-3.643007967621088">
        <ele>921.20000000000005</ele>
        <time>2018-05-26T08:25:31Z</time>
      </trkpt>
      <trkpt lat="42.195788025856018" lon="-3.643749011680484">
        <ele>922.39999999999998</ele>
        <time>2018-05-26T08:25:51Z</time>
      </trkpt>
      <trkpt lat="42.195486025884748" lon="-3.644271958619356">
        <ele>923.20000000000005</ele>
        <time>2018-05-26T08:26:05Z</time>
      </trkpt>
      <trkpt lat="42.19508402980864" lon="-3.64408697001636">
        <ele>923.39999999999998</ele>
        <time>2018-05-26T08:26:18Z</time>
      </trkpt>
      <trkpt lat="42.194382967427373" lon="-3.643596963956952">
        <ele>923.29999999999995</ele>
        <time>2018-05-26T08:26:41Z</time>
      </trkpt>
      <trkpt lat="42.194184986874461" lon="-3.64356997422874">
        <ele>923.10000000000002</ele>
        <time>2018-05-26T08:26:47Z</time>
      </trkpt>
      <trkpt lat="42.194042997434735" lon="-3.643682962283492">
        <ele>923.20000000000005</ele>
        <time>2018-05-26T08:26:52Z</time>
      </trkpt>
      <trkpt lat="42.193604037165642" lon="-3.64369897171855">
        <ele>924</ele>
        <time>2018-05-26T08:27:05Z</time>
      </trkpt>
      <trkpt lat="42.193008000031114" lon="-3.643543990328908">
        <ele>927.39999999999998</ele>
        <time>2018-05-26T08:27:23Z</time>
      </trkpt>
      <trkpt lat="42.192653026431799" lon="-3.643346009775996">
        <ele>928.20000000000005</ele>
        <time>2018-05-26T08:27:35Z</time>
      </trkpt>
      <trkpt lat="42.192238960415125" lon="-3.643429996445775">
        <ele>930.39999999999998</ele>
        <time>2018-05-26T08:27:47Z</time>
      </trkpt>
      <trkpt lat="42.19186001457274" lon="-3.643586989492178">
        <ele>931.89999999999998</ele>
        <time>2018-05-26T08:27:59Z</time>
      </trkpt>
      <trkpt lat="42.191369002684951" lon="-3.643756974488497">
        <ele>932.20000000000005</ele>
        <time>2018-05-26T08:28:14Z</time>
      </trkpt>
      <trkpt lat="42.191326003521681" lon="-3.643780024722219">
        <ele>932.20000000000005</ele>
        <time>2018-05-26T08:28:15Z</time>
      </trkpt>
      <trkpt lat="42.191183008253574" lon="-3.643882032483816">
        <ele>932.39999999999998</ele>
        <time>2018-05-26T08:28:20Z</time>
      </trkpt>
      <trkpt lat="42.190913027152419" lon="-3.64399803802371">
        <ele>932.89999999999998</ele>
        <time>2018-05-26T08:28:28Z</time>
      </trkpt>
      <trkpt lat="42.190698031336069" lon="-3.64404397085309">
        <ele>933.10000000000002</ele>
        <time>2018-05-26T08:28:35Z</time>
      </trkpt>
      <trkpt lat="42.190257981419563" lon="-3.644284028559923">
        <ele>934.29999999999995</ele>
        <time>2018-05-26T08:28:49Z</time>
      </trkpt>
      <trkpt lat="42.190036028623581" lon="-3.6444509960711">
        <ele>935</ele>
        <time>2018-05-26T08:28:56Z</time>
      </trkpt>
      <trkpt lat="42.189716007560492" lon="-3.644577981904149">
        <ele>935.70000000000005</ele>
        <time>2018-05-26T08:29:06Z</time>
      </trkpt>
      <trkpt lat="42.189450971782207" lon="-3.64455996081233">
        <ele>936.89999999999998</ele>
        <time>2018-05-26T08:29:14Z</time>
      </trkpt>
      <trkpt lat="42.189233964309096" lon="-3.644392993301153">
        <ele>938.79999999999995</ele>
        <time>2018-05-26T08:29:22Z</time>
      </trkpt>
      <trkpt lat="42.188924001529813" lon="-3.644008012488484">
        <ele>942</ele>
        <time>2018-05-26T08:29:34Z</time>
      </trkpt>
      <trkpt lat="42.188772037625313" lon="-3.643801985308528">
        <ele>943.70000000000005</ele>
        <time>2018-05-26T08:29:40Z</time>
      </trkpt>
      <trkpt lat="42.188669024035335" lon="-3.643566034734249">
        <ele>945.60000000000002</ele>
        <time>2018-05-26T08:29:47Z</time>
      </trkpt>
      <trkpt lat="42.188355037942529" lon="-3.643382973968983">
        <ele>950.70000000000005</ele>
        <time>2018-05-26T08:29:57Z</time>
      </trkpt>
      <trkpt lat="42.188210031017661" lon="-3.643538961187005">
        <ele>953.29999999999995</ele>
        <time>2018-05-26T08:30:02Z</time>
      </trkpt>
      <trkpt lat="42.188019007444382" lon="-3.643544996157289">
        <ele>956.5</ele>
        <time>2018-05-26T08:30:08Z</time>
      </trkpt>
      <trkpt lat="42.187877018004656" lon="-3.643324971199036">
        <ele>958.20000000000005</ele>
        <time>2018-05-26T08:30:14Z</time>
      </trkpt>
      <trkpt lat="42.187809962779284" lon="-3.643196979537606">
        <ele>959</ele>
        <time>2018-05-26T08:30:18Z</time>
      </trkpt>
      <trkpt lat="42.187467981129885" lon="-3.64281602203846">
        <ele>963.39999999999998</ele>
        <time>2018-05-26T08:30:31Z</time>
      </trkpt>
      <trkpt lat="42.187281986698508" lon="-3.642680989578366">
        <ele>965.10000000000002</ele>
        <time>2018-05-26T08:30:37Z</time>
      </trkpt>
      <trkpt lat="42.187228007242084" lon="-3.642648970708251">
        <ele>965.60000000000002</ele>
        <time>2018-05-26T08:30:39Z</time>
      </trkpt>
      <trkpt lat="42.187177967280149" lon="-3.642619969323278">
        <ele>966.10000000000002</ele>
        <time>2018-05-26T08:30:41Z</time>
      </trkpt>
      <trkpt lat="42.187018040567636" lon="-3.642525002360344">
        <ele>967.5</ele>
        <time>2018-05-26T08:30:46Z</time>
      </trkpt>
      <trkpt lat="42.186606992036104" lon="-3.642307994887233">
        <ele>971.5</ele>
        <time>2018-05-26T08:30:59Z</time>
      </trkpt>
      <trkpt lat="42.186372969299555" lon="-3.642196012660861">
        <ele>974.20000000000005</ele>
        <time>2018-05-26T08:31:06Z</time>
      </trkpt>
      <trkpt lat="42.185967033728957" lon="-3.64195897243917">
        <ele>975.89999999999998</ele>
        <time>2018-05-26T08:31:19Z</time>
      </trkpt>
      <trkpt lat="42.185881035402417" lon="-3.641912033781409">
        <ele>976</ele>
        <time>2018-05-26T08:31:22Z</time>
      </trkpt>
      <trkpt lat="42.185797970741987" lon="-3.641849001869559">
        <ele>975.79999999999995</ele>
        <time>2018-05-26T08:31:25Z</time>
      </trkpt>
      <trkpt lat="42.18571599572897" lon="-3.641792004927993">
        <ele>975.70000000000005</ele>
        <time>2018-05-26T08:31:28Z</time>
      </trkpt>
      <trkpt lat="42.185538969933987" lon="-3.641694020479918">
        <ele>976</ele>
        <time>2018-05-26T08:31:33Z</time>
      </trkpt>
      <trkpt lat="42.185433022677898" lon="-3.641671976074576">
        <ele>976.89999999999998</ele>
        <time>2018-05-26T08:31:37Z</time>
      </trkpt>
      <trkpt lat="42.185087017714977" lon="-3.641727967187762">
        <ele>979</ele>
        <time>2018-05-26T08:31:47Z</time>
      </trkpt>
      <trkpt lat="42.184822987765074" lon="-3.641817988827825">
        <ele>980.20000000000005</ele>
        <time>2018-05-26T08:31:55Z</time>
      </trkpt>
      <trkpt lat="42.184691978618503" lon="-3.641868028789759">
        <ele>980.5</ele>
        <time>2018-05-26T08:31:59Z</time>
      </trkpt>
      <trkpt lat="42.184596005827188" lon="-3.641954027116299">
        <ele>980.70000000000005</ele>
        <time>2018-05-26T08:32:02Z</time>
      </trkpt>
      <trkpt lat="42.184483017772436" lon="-3.6420420370996">
        <ele>980.79999999999995</ele>
        <time>2018-05-26T08:32:06Z</time>
      </trkpt>
      <trkpt lat="42.184343039989471" lon="-3.642106996849179">
        <ele>980.70000000000005</ele>
        <time>2018-05-26T08:32:11Z</time>
      </trkpt>
      <trkpt lat="42.184266010299325" lon="-3.642133986577392">
        <ele>980.60000000000002</ele>
        <time>2018-05-26T08:32:13Z</time>
      </trkpt>
      <trkpt lat="42.184060988947749" lon="-3.6423010379076">
        <ele>980.10000000000002</ele>
        <time>2018-05-26T08:32:20Z</time>
      </trkpt>
      <trkpt lat="42.183883963152766" lon="-3.642431041225791">
        <ele>979.20000000000005</ele>
        <time>2018-05-26T08:32:26Z</time>
      </trkpt>
      <trkpt lat="42.183796036988497" lon="-3.642462976276875">
        <ele>978.79999999999995</ele>
        <time>2018-05-26T08:32:29Z</time>
      </trkpt>
      <trkpt lat="42.18374096788466" lon="-3.642465993762016">
        <ele>978.60000000000002</ele>
        <time>2018-05-26T08:32:31Z</time>
      </trkpt>
      <trkpt lat="42.183433016762137" lon="-3.64256196655333">
        <ele>978.29999999999995</ele>
        <time>2018-05-26T08:32:40Z</time>
      </trkpt>
      <trkpt lat="42.182961031794548" lon="-3.642770005390048">
        <ele>976.5</ele>
        <time>2018-05-26T08:32:55Z</time>
      </trkpt>
      <trkpt lat="42.182545037940145" lon="-3.643055995926261">
        <ele>975.60000000000002</ele>
        <time>2018-05-26T08:33:08Z</time>
      </trkpt>
      <trkpt lat="42.182005997747183" lon="-3.643242996186018">
        <ele>975.39999999999998</ele>
        <time>2018-05-26T08:33:25Z</time>
      </trkpt>
      <trkpt lat="42.181706009432673" lon="-3.64335598424077">
        <ele>975.29999999999995</ele>
        <time>2018-05-26T08:33:34Z</time>
      </trkpt>
      <trkpt lat="42.181251961737871" lon="-3.643542984500527">
        <ele>974.70000000000005</ele>
        <time>2018-05-26T08:33:48Z</time>
      </trkpt>
      <trkpt lat="42.180940993130207" lon="-3.643714981153607">
        <ele>972.10000000000002</ele>
        <time>2018-05-26T08:33:58Z</time>
      </trkpt>
      <trkpt lat="42.180671012029052" lon="-3.643788993358612">
        <ele>970.89999999999998</ele>
        <time>2018-05-26T08:34:06Z</time>
      </trkpt>
      <trkpt lat="42.180186035111547" lon="-3.64382503554225">
        <ele>971.39999999999998</ele>
        <time>2018-05-26T08:34:21Z</time>
      </trkpt>
      <trkpt lat="42.179736010730267" lon="-3.643947998061776">
        <ele>972</ele>
        <time>2018-05-26T08:34:34Z</time>
      </trkpt>
      <trkpt lat="42.179336026310921" lon="-3.64401999861002">
        <ele>971.89999999999998</ele>
        <time>2018-05-26T08:34:46Z</time>
      </trkpt>
      <trkpt lat="42.17890402302146" lon="-3.644084958359599">
        <ele>971.29999999999995</ele>
        <time>2018-05-26T08:34:59Z</time>
      </trkpt>
      <trkpt lat="42.178340004757047" lon="-3.644061991944909">
        <ele>972.39999999999998</ele>
        <time>2018-05-26T08:35:16Z</time>
      </trkpt>
      <trkpt lat="42.178001962602139" lon="-3.644023016095161">
        <ele>973.60000000000002</ele>
        <time>2018-05-26T08:35:26Z</time>
      </trkpt>
      <trkpt lat="42.177758971229196" lon="-3.644031984731555">
        <ele>974</ele>
        <time>2018-05-26T08:35:33Z</time>
      </trkpt>
      <trkpt lat="42.177210040390491" lon="-3.64404103718698">
        <ele>975.20000000000005</ele>
        <time>2018-05-26T08:35:49Z</time>
      </trkpt>
      <trkpt lat="42.17675699852407" lon="-3.643960990011692">
        <ele>976</ele>
        <time>2018-05-26T08:36:03Z</time>
      </trkpt>
      <trkpt lat="42.176189040765166" lon="-3.643975993618369">
        <ele>975.5</ele>
        <time>2018-05-26T08:36:20Z</time>
      </trkpt>
      <trkpt lat="42.176111005246639" lon="-3.643988985568285">
        <ele>975.29999999999995</ele>
        <time>2018-05-26T08:36:22Z</time>
      </trkpt>
      <trkpt lat="42.175710014998913" lon="-3.643884966149926">
        <ele>975.10000000000002</ele>
        <time>2018-05-26T08:36:34Z</time>
      </trkpt>
      <trkpt lat="42.175297960639" lon="-3.643652033060789">
        <ele>975.20000000000005</ele>
        <time>2018-05-26T08:36:47Z</time>
      </trkpt>
      <trkpt lat="42.174851959571242" lon="-3.643337041139603">
        <ele>975.79999999999995</ele>
        <time>2018-05-26T08:37:02Z</time>
      </trkpt>
      <trkpt lat="42.174277966842055" lon="-3.643062030896545">
        <ele>977.39999999999998</ele>
        <time>2018-05-26T08:37:20Z</time>
      </trkpt>
      <trkpt lat="42.173834983259439" lon="-3.642777968198061">
        <ele>979.29999999999995</ele>
        <time>2018-05-26T08:37:35Z</time>
      </trkpt>
      <trkpt lat="42.173611018806696" lon="-3.642661040648818">
        <ele>979.89999999999998</ele>
        <time>2018-05-26T08:37:42Z</time>
      </trkpt>
      <trkpt lat="42.173242969438434" lon="-3.642514022067189">
        <ele>979.89999999999998</ele>
        <time>2018-05-26T08:37:53Z</time>
      </trkpt>
      <trkpt lat="42.173197958618402" lon="-3.642499018460512">
        <ele>979.79999999999995</ele>
        <time>2018-05-26T08:37:55Z</time>
      </trkpt>
      <trkpt lat="42.172967037186027" lon="-3.642390975728631">
        <ele>979.20000000000005</ele>
        <time>2018-05-26T08:38:02Z</time>
      </trkpt>
      <trkpt lat="42.172780958935618" lon="-3.642156030982733">
        <ele>977.79999999999995</ele>
        <time>2018-05-26T08:38:10Z</time>
      </trkpt>
      <trkpt lat="42.172443000599742" lon="-3.641998032107949">
        <ele>976.39999999999998</ele>
        <time>2018-05-26T08:38:20Z</time>
      </trkpt>
      <trkpt lat="42.172118034213781" lon="-3.641895018517971">
        <ele>974.89999999999998</ele>
        <time>2018-05-26T08:38:30Z</time>
      </trkpt>
      <trkpt lat="42.171889962628484" lon="-3.641714975237846">
        <ele>974.39999999999998</ele>
        <time>2018-05-26T08:38:38Z</time>
      </trkpt>
      <trkpt lat="42.171620987355709" lon="-3.641526969149709">
        <ele>973.39999999999998</ele>
        <time>2018-05-26T08:38:47Z</time>
      </trkpt>
      <trkpt lat="42.171355029568076" lon="-3.641309961676598">
        <ele>971.70000000000005</ele>
        <time>2018-05-26T08:38:56Z</time>
      </trkpt>
      <trkpt lat="42.171141961589456" lon="-3.641017014160752">
        <ele>970.60000000000002</ele>
        <time>2018-05-26T08:39:05Z</time>
      </trkpt>
      <trkpt lat="42.170796962454915" lon="-3.640742003917694">
        <ele>969.5</ele>
        <time>2018-05-26T08:39:17Z</time>
      </trkpt>
      <trkpt lat="42.170489011332393" lon="-3.640446038916707">
        <ele>968.20000000000005</ele>
        <time>2018-05-26T08:39:28Z</time>
      </trkpt>
      <trkpt lat="42.170173013582826" lon="-3.640293991193175">
        <ele>967.20000000000005</ele>
        <time>2018-05-26T08:39:38Z</time>
      </trkpt>
      <trkpt lat="42.169833965599537" lon="-3.640070026740432">
        <ele>965.29999999999995</ele>
        <time>2018-05-26T08:39:49Z</time>
      </trkpt>
      <trkpt lat="42.169596003368497" lon="-3.639951003715396">
        <ele>963.39999999999998</ele>
        <time>2018-05-26T08:39:57Z</time>
      </trkpt>
      <trkpt lat="42.16936700977385" lon="-3.639669036492705">
        <ele>962.79999999999995</ele>
        <time>2018-05-26T08:40:06Z</time>
      </trkpt>
      <trkpt lat="42.169121000915766" lon="-3.639339962974191">
        <ele>963</ele>
        <time>2018-05-26T08:40:16Z</time>
      </trkpt>
      <trkpt lat="42.1688930131495" lon="-3.639128990471363">
        <ele>962.89999999999998</ele>
        <time>2018-05-26T08:40:24Z</time>
      </trkpt>
      <trkpt lat="42.168772984296083" lon="-3.639042992144823">
        <ele>962.70000000000005</ele>
        <time>2018-05-26T08:40:29Z</time>
      </trkpt>
      <trkpt lat="42.168564023450017" lon="-3.638909971341491">
        <ele>960.70000000000005</ele>
        <time>2018-05-26T08:40:35Z</time>
      </trkpt>
      <trkpt lat="42.168451035395265" lon="-3.63886596634984">
        <ele>959.60000000000002</ele>
        <time>2018-05-26T08:40:39Z</time>
      </trkpt>
      <trkpt lat="42.168390015140176" lon="-3.638872001320124">
        <ele>959</ele>
        <time>2018-05-26T08:40:41Z</time>
      </trkpt>
      <trkpt lat="42.168285995721817" lon="-3.638846017420292">
        <ele>958</ele>
        <time>2018-05-26T08:40:44Z</time>
      </trkpt>
      <trkpt lat="42.168207038193941" lon="-3.638676032423973">
        <ele>956.79999999999995</ele>
        <time>2018-05-26T08:40:48Z</time>
      </trkpt>
      <trkpt lat="42.16807896271348" lon="-3.638528008013964">
        <ele>955.79999999999995</ele>
        <time>2018-05-26T08:40:53Z</time>
      </trkpt>
      <trkpt lat="42.167946025729179" lon="-3.638482997193933">
        <ele>954.60000000000002</ele>
        <time>2018-05-26T08:40:57Z</time>
      </trkpt>
      <trkpt lat="42.167795989662409" lon="-3.638471011072397">
        <ele>954.29999999999995</ele>
        <time>2018-05-26T08:41:02Z</time>
      </trkpt>
      <trkpt lat="42.167750978842378" lon="-3.638465981930494">
        <ele>954.29999999999995</ele>
        <time>2018-05-26T08:41:03Z</time>
      </trkpt>
      <trkpt lat="42.167715020477772" lon="-3.638313012197614">
        <ele>954.5</ele>
        <time>2018-05-26T08:41:07Z</time>
      </trkpt>
      <trkpt lat="42.167405979707837" lon="-3.638495989143848">
        <ele>954.10000000000002</ele>
        <time>2018-05-26T08:41:17Z</time>
      </trkpt>
      <trkpt lat="42.167267007753253" lon="-3.638624986633658">
        <ele>953.60000000000002</ele>
        <time>2018-05-26T08:41:22Z</time>
      </trkpt>
      <trkpt lat="42.166769038885832" lon="-3.638923969119787">
        <ele>952.89999999999998</ele>
        <time>2018-05-26T08:41:38Z</time>
      </trkpt>
      <trkpt lat="42.166093960404396" lon="-3.639193028211594">
        <ele>952.89999999999998</ele>
        <time>2018-05-26T08:41:59Z</time>
      </trkpt>
      <trkpt lat="42.165877958759665" lon="-3.639284977689385">
        <ele>953.20000000000005</ele>
        <time>2018-05-26T08:42:05Z</time>
      </trkpt>
      <trkpt lat="42.165785003453493" lon="-3.639350021257997">
        <ele>953</ele>
        <time>2018-05-26T08:42:08Z</time>
      </trkpt>
      <trkpt lat="42.165300026535988" lon="-3.639721004292369">
        <ele>952.29999999999995</ele>
        <time>2018-05-26T08:42:25Z</time>
      </trkpt>
      <trkpt lat="42.165106991305947" lon="-3.639900041744113">
        <ele>952.5</ele>
        <time>2018-05-26T08:42:32Z</time>
      </trkpt>
      <trkpt lat="42.165048988536" lon="-3.639951003715396">
        <ele>952.39999999999998</ele>
        <time>2018-05-26T08:42:34Z</time>
      </trkpt>
      <trkpt lat="42.164613967761397" lon="-3.640344031155109">
        <ele>949.79999999999995</ele>
        <time>2018-05-26T08:42:49Z</time>
      </trkpt>
      <trkpt lat="42.164503997191787" lon="-3.640440003946424">
        <ele>949.60000000000002</ele>
        <time>2018-05-26T08:42:53Z</time>
      </trkpt>
      <trkpt lat="42.164022037759423" lon="-3.640877036377788">
        <ele>951.10000000000002</ele>
        <time>2018-05-26T08:43:11Z</time>
      </trkpt>
      <trkpt lat="42.163463970646262" lon="-3.641372993588448">
        <ele>948.60000000000002</ele>
        <time>2018-05-26T08:43:30Z</time>
      </trkpt>
      <trkpt lat="42.162946974858642" lon="-3.641846990212798">
        <ele>948.70000000000005</ele>
        <time>2018-05-26T08:43:49Z</time>
      </trkpt>
      <trkpt lat="42.162494016811252" lon="-3.642289973795414">
        <ele>948.60000000000002</ele>
        <time>2018-05-26T08:44:05Z</time>
      </trkpt>
      <trkpt lat="42.162368958815932" lon="-3.642116971313953">
        <ele>949.5</ele>
        <time>2018-05-26T08:44:11Z</time>
      </trkpt>
      <trkpt lat="42.162372982129455" lon="-3.642054023221135">
        <ele>949.70000000000005</ele>
        <time>2018-05-26T08:44:12Z</time>
      </trkpt>
      <trkpt lat="42.162345992401242" lon="-3.641309039667249">
        <ele>951.89999999999998</ele>
        <time>2018-05-26T08:44:29Z</time>
      </trkpt>
      <trkpt lat="42.162330988794565" lon="-3.641042998060584">
        <ele>952.39999999999998</ele>
        <time>2018-05-26T08:44:34Z</time>
      </trkpt>
      <trkpt lat="42.162338029593229" lon="-3.639715975150466">
        <ele>955.5</ele>
        <time>2018-05-26T08:45:04Z</time>
      </trkpt>
      <trkpt lat="42.162368958815932" lon="-3.638286022469401">
        <ele>960.79999999999995</ele>
        <time>2018-05-26T08:45:35Z</time>
      </trkpt>
      <trkpt lat="42.162369964644313" lon="-3.637974970042706">
        <ele>961.29999999999995</ele>
        <time>2018-05-26T08:45:42Z</time>
      </trkpt>
      <trkpt lat="42.162354039028287" lon="-3.636898985132575">
        <ele>964.70000000000005</ele>
        <time>2018-05-26T08:46:05Z</time>
      </trkpt>
      <trkpt lat="42.16227600350976" lon="-3.635859964415431">
        <ele>964.89999999999998</ele>
        <time>2018-05-26T08:46:28Z</time>
      </trkpt>
      <trkpt lat="42.162240967154503" lon="-3.63555695861578">
        <ele>964.89999999999998</ele>
        <time>2018-05-26T08:46:35Z</time>
      </trkpt>
      <trkpt lat="42.162223029881716" lon="-3.635237021371722">
        <ele>965</ele>
        <time>2018-05-26T08:46:42Z</time>
      </trkpt>
      <trkpt lat="42.162186987698078" lon="-3.634337978437543">
        <ele>965.89999999999998</ele>
        <time>2018-05-26T08:47:02Z</time>
      </trkpt>
      <trkpt lat="42.162063019350171" lon="-3.633768009021878">
        <ele>966</ele>
        <time>2018-05-26T08:47:15Z</time>
      </trkpt>
      <trkpt lat="42.161817010492086" lon="-3.633344974368811">
        <ele>967.29999999999995</ele>
        <time>2018-05-26T08:47:27Z</time>
      </trkpt>
      <trkpt lat="42.161551974713802" lon="-3.633142970502377">
        <ele>967.79999999999995</ele>
        <time>2018-05-26T08:47:36Z</time>
      </trkpt>
      <trkpt lat="42.161217033863068" lon="-3.632925963029265">
        <ele>968.39999999999998</ele>
        <time>2018-05-26T08:47:47Z</time>
      </trkpt>
      <trkpt lat="42.160684028640389" lon="-3.632573001086712">
        <ele>973.70000000000005</ele>
        <time>2018-05-26T08:48:04Z</time>
      </trkpt>
      <trkpt lat="42.16038404032588" lon="-3.632361022755504">
        <ele>975.20000000000005</ele>
        <time>2018-05-26T08:48:15Z</time>
      </trkpt>
      <trkpt lat="42.160122022032738" lon="-3.632056005299091">
        <ele>975.89999999999998</ele>
        <time>2018-05-26T08:48:25Z</time>
      </trkpt>
      <trkpt lat="42.159980032593012" lon="-3.632044019177556">
        <ele>976.70000000000005</ele>
        <time>2018-05-26T08:48:29Z</time>
      </trkpt>
      <trkpt lat="42.159835025668144" lon="-3.632048964500427">
        <ele>977.5</ele>
        <time>2018-05-26T08:48:33Z</time>
      </trkpt>
      <trkpt lat="42.159738969057798" lon="-3.631999008357525">
        <ele>978.10000000000002</ele>
        <time>2018-05-26T08:48:36Z</time>
      </trkpt>
      <trkpt lat="42.159359017387033" lon="-3.631544960662723">
        <ele>980.10000000000002</ele>
        <time>2018-05-26T08:48:51Z</time>
      </trkpt>
      <trkpt lat="42.159270001575351" lon="-3.631412023678422">
        <ele>980.5</ele>
        <time>2018-05-26T08:48:55Z</time>
      </trkpt>
      <trkpt lat="42.159058023244143" lon="-3.630912965163589">
        <ele>982</ele>
        <time>2018-05-26T08:49:08Z</time>
      </trkpt>
      <trkpt lat="42.158879991620779" lon="-3.630490014329553">
        <ele>982.79999999999995</ele>
        <time>2018-05-26T08:49:19Z</time>
      </trkpt>
      <trkpt lat="42.158712018281221" lon="-3.629888026043773">
        <ele>984.60000000000002</ele>
        <time>2018-05-26T08:49:33Z</time>
      </trkpt>
      <trkpt lat="42.158650998026133" lon="-3.629548978060484">
        <ele>985.79999999999995</ele>
        <time>2018-05-26T08:49:40Z</time>
      </trkpt>
      <trkpt lat="42.158605987206101" lon="-3.629312021657825">
        <ele>986.60000000000002</ele>
        <time>2018-05-26T08:49:46Z</time>
      </trkpt>
      <trkpt lat="42.158585032448173" lon="-3.62904698587954">
        <ele>987.29999999999995</ele>
        <time>2018-05-26T08:49:52Z</time>
      </trkpt>
      <trkpt lat="42.158490987494588" lon="-3.628711961209774">
        <ele>988.70000000000005</ele>
        <time>2018-05-26T08:50:00Z</time>
      </trkpt>
      <trkpt lat="42.158283032476902" lon="-3.628436028957367">
        <ele>990.79999999999995</ele>
        <time>2018-05-26T08:50:08Z</time>
      </trkpt>
      <trkpt lat="42.158098965883255" lon="-3.628328992053866">
        <ele>991.89999999999998</ele>
        <time>2018-05-26T08:50:14Z</time>
      </trkpt>
      <trkpt lat="42.158025959506631" lon="-3.628308037295938">
        <ele>992.20000000000005</ele>
        <time>2018-05-26T08:50:16Z</time>
      </trkpt>
      <trkpt lat="42.157669980078936" lon="-3.628159007057548">
        <ele>993</ele>
        <time>2018-05-26T08:50:27Z</time>
      </trkpt>
      <trkpt lat="42.157363034784794" lon="-3.628119025379419">
        <ele>993.39999999999998</ele>
        <time>2018-05-26T08:50:37Z</time>
      </trkpt>
      <trkpt lat="42.156988028436899" lon="-3.628087006509304">
        <ele>993.39999999999998</ele>
        <time>2018-05-26T08:50:48Z</time>
      </trkpt>
      <trkpt lat="42.156704971566796" lon="-3.628021962940693">
        <ele>992.10000000000002</ele>
        <time>2018-05-26T08:50:56Z</time>
      </trkpt>
      <trkpt lat="42.156416969373822" lon="-3.628088012337685">
        <ele>990.79999999999995</ele>
        <time>2018-05-26T08:51:05Z</time>
      </trkpt>
      <trkpt lat="42.156095020473003" lon="-3.627846026793122">
        <ele>989.10000000000002</ele>
        <time>2018-05-26T08:51:16Z</time>
      </trkpt>
      <trkpt lat="42.15589796192944" lon="-3.627631030976772">
        <ele>988.60000000000002</ele>
        <time>2018-05-26T08:51:23Z</time>
      </trkpt>
      <trkpt lat="42.15557299554348" lon="-3.627378987148404">
        <ele>988</ele>
        <time>2018-05-26T08:51:34Z</time>
      </trkpt>
      <trkpt lat="42.155259009450674" lon="-3.627183018252254">
        <ele>987.29999999999995</ele>
        <time>2018-05-26T08:51:45Z</time>
      </trkpt>
      <trkpt lat="42.154982993379235" lon="-3.626942038536072">
        <ele>986.5</ele>
        <time>2018-05-26T08:51:54Z</time>
      </trkpt>
      <trkpt lat="42.154714018106461" lon="-3.626803988590837">
        <ele>985</ele>
        <time>2018-05-26T08:52:03Z</time>
      </trkpt>
      <trkpt lat="42.154397014528513" lon="-3.626601984724402">
        <ele>984</ele>
        <time>2018-05-26T08:52:13Z</time>
      </trkpt>
      <trkpt lat="42.154032988473773" lon="-3.626439962536097">
        <ele>983.20000000000005</ele>
        <time>2018-05-26T08:52:25Z</time>
      </trkpt>
      <trkpt lat="42.153653958812356" lon="-3.626239970326424">
        <ele>982.79999999999995</ele>
        <time>2018-05-26T08:52:37Z</time>
      </trkpt>
      <trkpt lat="42.153066974133253" lon="-3.626034026965499">
        <ele>982.60000000000002</ele>
        <time>2018-05-26T08:52:55Z</time>
      </trkpt>
      <trkpt lat="42.152981981635094" lon="-3.626017011702061">
        <ele>982.5</ele>
        <time>2018-05-26T08:52:57Z</time>
      </trkpt>
      <trkpt lat="42.152566993609071" lon="-3.625894971191883">
        <ele>984.10000000000002</ele>
        <time>2018-05-26T08:53:10Z</time>
      </trkpt>
      <trkpt lat="42.152270022779703" lon="-3.625776031985879">
        <ele>985.20000000000005</ele>
        <time>2018-05-26T08:53:19Z</time>
      </trkpt>
      <trkpt lat="42.151911025866866" lon="-3.625682992860675">
        <ele>986.20000000000005</ele>
        <time>2018-05-26T08:53:30Z</time>
      </trkpt>
      <trkpt lat="42.151584969833493" lon="-3.625601017847657">
        <ele>987.10000000000002</ele>
        <time>2018-05-26T08:53:40Z</time>
      </trkpt>
      <trkpt lat="42.151107033714652" lon="-3.625460034236312">
        <ele>988.70000000000005</ele>
        <time>2018-05-26T08:53:54Z</time>
      </trkpt>
      <trkpt lat="42.150485012680292" lon="-3.625184018164873">
        <ele>992</ele>
        <time>2018-05-26T08:54:14Z</time>
      </trkpt>
      <trkpt lat="42.149863997474313" lon="-3.624900039285421">
        <ele>992.89999999999998</ele>
        <time>2018-05-26T08:54:33Z</time>
      </trkpt>
      <trkpt lat="42.149572977796197" lon="-3.624733993783593">
        <ele>993</ele>
        <time>2018-05-26T08:54:42Z</time>
      </trkpt>
      <trkpt lat="42.149286987259984" lon="-3.624547999352217">
        <ele>993.29999999999995</ele>
        <time>2018-05-26T08:54:52Z</time>
      </trkpt>
      <trkpt lat="42.148995967581868" lon="-3.624325962737203">
        <ele>993.29999999999995</ele>
        <time>2018-05-26T08:55:02Z</time>
      </trkpt>
      <trkpt lat="42.148612998425961" lon="-3.624140974134207">
        <ele>992.60000000000002</ele>
        <time>2018-05-26T08:55:14Z</time>
      </trkpt>
      <trkpt lat="42.148214019834995" lon="-3.623850960284472">
        <ele>991</ele>
        <time>2018-05-26T08:55:27Z</time>
      </trkpt>
      <trkpt lat="42.147913025692105" lon="-3.623536974191666">
        <ele>989.70000000000005</ele>
        <time>2018-05-26T08:55:38Z</time>
      </trkpt>
      <trkpt lat="42.147523015737534" lon="-3.623209996148944">
        <ele>987.60000000000002</ele>
        <time>2018-05-26T08:55:52Z</time>
      </trkpt>
      <trkpt lat="42.147206012159586" lon="-3.622974967584014">
        <ele>985.70000000000005</ele>
        <time>2018-05-26T08:56:03Z</time>
      </trkpt>
      <trkpt lat="42.146906023845077" lon="-3.622781010344625">
        <ele>985.10000000000002</ele>
        <time>2018-05-26T08:56:13Z</time>
      </trkpt>
      <trkpt lat="42.146477960050106" lon="-3.62249200232327">
        <ele>984.79999999999995</ele>
        <time>2018-05-26T08:56:27Z</time>
      </trkpt>
      <trkpt lat="42.14605500921607" lon="-3.622134011238813">
        <ele>983.60000000000002</ele>
        <time>2018-05-26T08:56:42Z</time>
      </trkpt>
      <trkpt lat="42.145612025633454" lon="-3.621785994619131">
        <ele>983</ele>
        <time>2018-05-26T08:56:57Z</time>
      </trkpt>
      <trkpt lat="42.145168958231807" lon="-3.621520958840847">
        <ele>982.10000000000002</ele>
        <time>2018-05-26T08:57:11Z</time>
      </trkpt>
      <trkpt lat="42.144662020727992" lon="-3.621212001889944">
        <ele>981.29999999999995</ele>
        <time>2018-05-26T08:57:28Z</time>
      </trkpt>
      <trkpt lat="42.144161034375429" lon="-3.620598027482629">
        <ele>983.79999999999995</ele>
        <time>2018-05-26T08:57:48Z</time>
      </trkpt>
      <trkpt lat="42.144065983593464" lon="-3.620480010285974">
        <ele>984</ele>
        <time>2018-05-26T08:57:51Z</time>
      </trkpt>
      <trkpt lat="42.143745962530375" lon="-3.620127970352769">
        <ele>984</ele>
        <time>2018-05-26T08:58:04Z</time>
      </trkpt>
      <trkpt lat="42.143300967290998" lon="-3.619594965130091">
        <ele>987.29999999999995</ele>
        <time>2018-05-26T08:58:21Z</time>
      </trkpt>
      <trkpt lat="42.143222009763122" lon="-3.619499998167157">
        <ele>987.60000000000002</ele>
        <time>2018-05-26T08:58:25Z</time>
      </trkpt>
      <trkpt lat="42.142398990690708" lon="-3.618511017411947">
        <ele>988.10000000000002</ele>
        <time>2018-05-26T08:58:57Z</time>
      </trkpt>
      <trkpt lat="42.141898004338145" lon="-3.617897965013981">
        <ele>989.79999999999995</ele>
        <time>2018-05-26T08:59:17Z</time>
      </trkpt>
      <trkpt lat="42.141162995249033" lon="-3.61716496758163">
        <ele>993.70000000000005</ele>
        <time>2018-05-26T08:59:44Z</time>
      </trkpt>
      <trkpt lat="42.140667038038373" lon="-3.6167779751122">
        <ele>994.79999999999995</ele>
        <time>2018-05-26T09:00:01Z</time>
      </trkpt>
      <trkpt lat="42.140012998133898" lon="-3.616267014294863">
        <ele>994</ele>
        <time>2018-05-26T09:00:24Z</time>
      </trkpt>
      <trkpt lat="42.139541013166308" lon="-3.615883039310575">
        <ele>995</ele>
        <time>2018-05-26T09:00:40Z</time>
      </trkpt>
      <trkpt lat="42.138967020437121" lon="-3.61546796746552">
        <ele>995</ele>
        <time>2018-05-26T09:00:59Z</time>
      </trkpt>
      <trkpt lat="42.138441978022456" lon="-3.615073012188077">
        <ele>994.60000000000002</ele>
        <time>2018-05-26T09:01:17Z</time>
      </trkpt>
      <trkpt lat="42.137967981398106" lon="-3.614626005291939">
        <ele>994.10000000000002</ele>
        <time>2018-05-26T09:01:34Z</time>
      </trkpt>
      <trkpt lat="42.1375020314008" lon="-3.614070033654571">
        <ele>992.39999999999998</ele>
        <time>2018-05-26T09:01:53Z</time>
      </trkpt>
      <trkpt lat="42.137023005634546" lon="-3.613551026210189">
        <ele>992.10000000000002</ele>
        <time>2018-05-26T09:02:11Z</time>
      </trkpt>
      <trkpt lat="42.136640958487988" lon="-3.613121034577489">
        <ele>991.70000000000005</ele>
        <time>2018-05-26T09:02:26Z</time>
      </trkpt>
      <trkpt lat="42.13610703125596" lon="-3.61252399161458">
        <ele>991.10000000000002</ele>
        <time>2018-05-26T09:02:46Z</time>
      </trkpt>
      <trkpt lat="42.135637979954481" lon="-3.611927032470703">
        <ele>991.79999999999995</ele>
        <time>2018-05-26T09:03:05Z</time>
      </trkpt>
      <trkpt lat="42.135509988293052" lon="-3.611842039972544">
        <ele>991.89999999999998</ele>
        <time>2018-05-26T09:03:09Z</time>
      </trkpt>
      <trkpt lat="42.135390965268016" lon="-3.611764004454017">
        <ele>992</ele>
        <time>2018-05-26T09:03:13Z</time>
      </trkpt>
      <trkpt lat="42.135079996660352" lon="-3.611560994759202">
        <ele>991.60000000000002</ele>
        <time>2018-05-26T09:03:24Z</time>
      </trkpt>
      <trkpt lat="42.134210038930178" lon="-3.610988007858396">
        <ele>992.5</ele>
        <time>2018-05-26T09:03:52Z</time>
      </trkpt>
      <trkpt lat="42.133452985435724" lon="-3.610442010685802">
        <ele>993.60000000000002</ele>
        <time>2018-05-26T09:04:18Z</time>
      </trkpt>
      <trkpt lat="42.132764998823404" lon="-3.609861982986331">
        <ele>994.29999999999995</ele>
        <time>2018-05-26T09:04:42Z</time>
      </trkpt>
      <trkpt lat="42.132234005257487" lon="-3.609376000240445">
        <ele>992.89999999999998</ele>
        <time>2018-05-26T09:05:01Z</time>
      </trkpt>
      <trkpt lat="42.131915995851159" lon="-3.608817011117935">
        <ele>994.5</ele>
        <time>2018-05-26T09:05:16Z</time>
      </trkpt>
      <trkpt lat="42.131734024733305" lon="-3.608318958431482">
        <ele>996</ele>
        <time>2018-05-26T09:05:28Z</time>
      </trkpt>
      <trkpt lat="42.131374021992087" lon="-3.608023999258876">
        <ele>998</ele>
        <time>2018-05-26T09:05:41Z</time>
      </trkpt>
      <trkpt lat="42.131236977875233" lon="-3.607998015359044">
        <ele>998.5</ele>
        <time>2018-05-26T09:05:45Z</time>
      </trkpt>
      <trkpt lat="42.131170006468892" lon="-3.607983011752367">
        <ele>998.20000000000005</ele>
        <time>2018-05-26T09:05:47Z</time>
      </trkpt>
      <trkpt lat="42.130941012874246" lon="-3.607885027304292">
        <ele>997.60000000000002</ele>
        <time>2018-05-26T09:05:54Z</time>
      </trkpt>
      <trkpt lat="42.130660973489285" lon="-3.607629965990782">
        <ele>996.79999999999995</ele>
        <time>2018-05-26T09:06:04Z</time>
      </trkpt>
      <trkpt lat="42.129998970776796" lon="-3.607138032093644">
        <ele>996.29999999999995</ele>
        <time>2018-05-26T09:06:27Z</time>
      </trkpt>
      <trkpt lat="42.129325987771153" lon="-3.606648026034236">
        <ele>996.5</ele>
        <time>2018-05-26T09:06:49Z</time>
      </trkpt>
      <trkpt lat="42.129050977528095" lon="-3.606406040489674">
        <ele>995.60000000000002</ele>
        <time>2018-05-26T09:06:59Z</time>
      </trkpt>
      <trkpt lat="42.128453012555838" lon="-3.605886027216911">
        <ele>995.79999999999995</ele>
        <time>2018-05-26T09:07:20Z</time>
      </trkpt>
      <trkpt lat="42.127815987914801" lon="-3.605586038902402">
        <ele>996.70000000000005</ele>
        <time>2018-05-26T09:07:40Z</time>
      </trkpt>
      <trkpt lat="42.127131018787622" lon="-3.605106007307768">
        <ele>998.70000000000005</ele>
        <time>2018-05-26T09:08:03Z</time>
      </trkpt>
      <trkpt lat="42.126518972218037" lon="-3.604539977386594">
        <ele>1000.8</ele>
        <time>2018-05-26T09:08:25Z</time>
      </trkpt>
      <trkpt lat="42.125969035550952" lon="-3.604010995477438">
        <ele>1001.9</ele>
        <time>2018-05-26T09:08:45Z</time>
      </trkpt>
      <trkpt lat="42.125544995069504" lon="-3.603396015241742">
        <ele>1002</ele>
        <time>2018-05-26T09:09:03Z</time>
      </trkpt>
      <trkpt lat="42.125199995934963" lon="-3.602882036939263">
        <ele>1001.7</ele>
        <time>2018-05-26T09:09:19Z</time>
      </trkpt>
      <trkpt lat="42.124805962666869" lon="-3.602226991206408">
        <ele>1000.2</ele>
        <time>2018-05-26T09:09:37Z</time>
      </trkpt>
      <trkpt lat="42.124403966590762" lon="-3.601550990715623">
        <ele>999.29999999999995</ele>
        <time>2018-05-26T09:09:56Z</time>
      </trkpt>
      <trkpt lat="42.123836008831859" lon="-3.600907009094954">
        <ele>996.79999999999995</ele>
        <time>2018-05-26T09:10:18Z</time>
      </trkpt>
      <trkpt lat="42.12338900193572" lon="-3.600607020780444">
        <ele>996.79999999999995</ele>
        <time>2018-05-26T09:10:33Z</time>
      </trkpt>
      <trkpt lat="42.122761029750109" lon="-3.600113997235894">
        <ele>997.60000000000002</ele>
        <time>2018-05-26T09:10:54Z</time>
      </trkpt>
      <trkpt lat="42.122204974293709" lon="-3.599391980096698">
        <ele>996.5</ele>
        <time>2018-05-26T09:11:17Z</time>
      </trkpt>
      <trkpt lat="42.121688984334469" lon="-3.598755039274693">
        <ele>997.5</ele>
        <time>2018-05-26T09:11:38Z</time>
      </trkpt>
      <trkpt lat="42.121182968840003" lon="-3.598264027386904">
        <ele>997.5</ele>
        <time>2018-05-26T09:11:57Z</time>
      </trkpt>
      <trkpt lat="42.120799999684095" lon="-3.597820959985256">
        <ele>998.10000000000002</ele>
        <time>2018-05-26T09:12:11Z</time>
      </trkpt>
      <trkpt lat="42.120649963617325" lon="-3.597748037427664">
        <ele>998.20000000000005</ele>
        <time>2018-05-26T09:12:16Z</time>
      </trkpt>
      <trkpt lat="42.120467992499471" lon="-3.597625996917486">
        <ele>998.29999999999995</ele>
        <time>2018-05-26T09:12:22Z</time>
      </trkpt>
      <trkpt lat="42.120192982256413" lon="-3.597245961427689">
        <ele>999.39999999999998</ele>
        <time>2018-05-26T09:12:34Z</time>
      </trkpt>
      <trkpt lat="42.119608009234071" lon="-3.596444986760616">
        <ele>1001</ele>
        <time>2018-05-26T09:12:59Z</time>
      </trkpt>
      <trkpt lat="42.118905019015074" lon="-3.595768986269832">
        <ele>1000.9</ele>
        <time>2018-05-26T09:13:24Z</time>
      </trkpt>
      <trkpt lat="42.118335971608758" lon="-3.595233969390392">
        <ele>1002.2</ele>
        <time>2018-05-26T09:13:45Z</time>
      </trkpt>
      <trkpt lat="42.117799026891589" lon="-3.594725020229816">
        <ele>1004</ele>
        <time>2018-05-26T09:14:04Z</time>
      </trkpt>
      <trkpt lat="42.117387978360057" lon="-3.594287987798452">
        <ele>1003.5</ele>
        <time>2018-05-26T09:14:20Z</time>
      </trkpt>
      <trkpt lat="42.117019006982446" lon="-3.593997973948717">
        <ele>1002.4</ele>
        <time>2018-05-26T09:14:32Z</time>
      </trkpt>
      <trkpt lat="42.11647099815309" lon="-3.593754982575774">
        <ele>1000</ele>
        <time>2018-05-26T09:14:49Z</time>
      </trkpt>
      <trkpt lat="42.115941010415554" lon="-3.593534035608172">
        <ele>998.60000000000002</ele>
        <time>2018-05-26T09:15:06Z</time>
      </trkpt>
      <trkpt lat="42.115396019071341" lon="-3.593310993164778">
        <ele>997.10000000000002</ele>
        <time>2018-05-26T09:15:23Z</time>
      </trkpt>
      <trkpt lat="42.114882040768862" lon="-3.593088034540415">
        <ele>996.60000000000002</ele>
        <time>2018-05-26T09:15:39Z</time>
      </trkpt>
      <trkpt lat="42.114417012780905" lon="-3.592894999310374">
        <ele>996.5</ele>
        <time>2018-05-26T09:15:53Z</time>
      </trkpt>
      <trkpt lat="42.113938992843032" lon="-3.592833979055286">
        <ele>997.70000000000005</ele>
        <time>2018-05-26T09:16:07Z</time>
      </trkpt>
      <trkpt lat="42.113356031477451" lon="-3.592807995155454">
        <ele>995.60000000000002</ele>
        <time>2018-05-26T09:16:25Z</time>
      </trkpt>
      <trkpt lat="42.112985970452428" lon="-3.592784022912383">
        <ele>993.29999999999995</ele>
        <time>2018-05-26T09:16:36Z</time>
      </trkpt>
      <trkpt lat="42.112685982137918" lon="-3.59269299544394">
        <ele>990.39999999999998</ele>
        <time>2018-05-26T09:16:45Z</time>
      </trkpt>
      <trkpt lat="42.112485989928246" lon="-3.59234900213778">
        <ele>988.39999999999998</ele>
        <time>2018-05-26T09:16:54Z</time>
      </trkpt>
      <trkpt lat="42.11232497356832" lon="-3.591944994404912">
        <ele>987</ele>
        <time>2018-05-26T09:17:05Z</time>
      </trkpt>
      <trkpt lat="42.112168986350298" lon="-3.591561019420624">
        <ele>985.20000000000005</ele>
        <time>2018-05-26T09:17:14Z</time>
      </trkpt>
      <trkpt lat="42.111945021897554" lon="-3.591066990047693">
        <ele>983.89999999999998</ele>
        <time>2018-05-26T09:17:27Z</time>
      </trkpt>
      <trkpt lat="42.111689960584044" lon="-3.590408004820347">
        <ele>984.5</ele>
        <time>2018-05-26T09:17:43Z</time>
      </trkpt>
      <trkpt lat="42.111361976712942" lon="-3.590020006522536">
        <ele>985</ele>
        <time>2018-05-26T09:17:56Z</time>
      </trkpt>
      <trkpt lat="42.111043967306614" lon="-3.590000979602337">
        <ele>986.39999999999998</ele>
        <time>2018-05-26T09:18:06Z</time>
      </trkpt>
      <trkpt lat="42.110593020915985" lon="-3.59041403979063">
        <ele>987.20000000000005</ele>
        <time>2018-05-26T09:18:22Z</time>
      </trkpt>
      <trkpt lat="42.110126987099648" lon="-3.590842019766569">
        <ele>986.5</ele>
        <time>2018-05-26T09:18:38Z</time>
      </trkpt>
      <trkpt lat="42.109360964968801" lon="-3.590894993394613">
        <ele>989.29999999999995</ele>
        <time>2018-05-26T09:19:01Z</time>
      </trkpt>
      <trkpt lat="42.108995011076331" lon="-3.590874038636684">
        <ele>990.60000000000002</ele>
        <time>2018-05-26T09:19:12Z</time>
      </trkpt>
      <trkpt lat="42.108223959803581" lon="-3.590643033385277">
        <ele>991.39999999999998</ele>
        <time>2018-05-26T09:19:35Z</time>
      </trkpt>
      <trkpt lat="42.107930006459355" lon="-3.59049903228879">
        <ele>991.20000000000005</ele>
        <time>2018-05-26T09:19:45Z</time>
      </trkpt>
      <trkpt lat="42.107280995696783" lon="-3.59041403979063">
        <ele>991.79999999999995</ele>
        <time>2018-05-26T09:20:04Z</time>
      </trkpt>
      <trkpt lat="42.106574987992644" lon="-3.59037003479898">
        <ele>994.10000000000002</ele>
        <time>2018-05-26T09:20:25Z</time>
      </trkpt>
      <trkpt lat="42.105875015258789" lon="-3.590311026200652">
        <ele>996.20000000000005</ele>
        <time>2018-05-26T09:20:46Z</time>
      </trkpt>
      <trkpt lat="42.105424990877509" lon="-3.590116985142231">
        <ele>997.39999999999998</ele>
        <time>2018-05-26T09:21:00Z</time>
      </trkpt>
      <trkpt lat="42.105343015864491" lon="-3.590060994029045">
        <ele>997.79999999999995</ele>
        <time>2018-05-26T09:21:02Z</time>
      </trkpt>
      <trkpt lat="42.10482501424849" lon="-3.589772991836071">
        <ele>999.79999999999995</ele>
        <time>2018-05-26T09:21:19Z</time>
      </trkpt>
      <trkpt lat="42.1046950109303" lon="-3.589646006003022">
        <ele>999.89999999999998</ele>
        <time>2018-05-26T09:21:24Z</time>
      </trkpt>
      <trkpt lat="42.104423018172383" lon="-3.58934098854661">
        <ele>1000.9</ele>
        <time>2018-05-26T09:21:34Z</time>
      </trkpt>
      <trkpt lat="42.104210034012794" lon="-3.589149964973331">
        <ele>1001.8</ele>
        <time>2018-05-26T09:21:42Z</time>
      </trkpt>
      <trkpt lat="42.103946004062891" lon="-3.588800020515919">
        <ele>1002.6</ele>
        <time>2018-05-26T09:21:53Z</time>
      </trkpt>
      <trkpt lat="42.103509977459908" lon="-3.588259974494577">
        <ele>1004.6</ele>
        <time>2018-05-26T09:22:10Z</time>
      </trkpt>
      <trkpt lat="42.103091971948743" lon="-3.587736021727324">
        <ele>1006.7</ele>
        <time>2018-05-26T09:22:27Z</time>
      </trkpt>
      <trkpt lat="42.102937996387482" lon="-3.587554972618818">
        <ele>1007.4</ele>
        <time>2018-05-26T09:22:33Z</time>
      </trkpt>
      <trkpt lat="42.102731969207525" lon="-3.587306030094624">
        <ele>1008.1</ele>
        <time>2018-05-26T09:22:42Z</time>
      </trkpt>
      <trkpt lat="42.102413037791848" lon="-3.586890958249569">
        <ele>1008.5</ele>
        <time>2018-05-26T09:22:55Z</time>
      </trkpt>
      <trkpt lat="42.102086981758475" lon="-3.586388966068626">
        <ele>1007.5</ele>
        <time>2018-05-26T09:23:09Z</time>
      </trkpt>
      <trkpt lat="42.101893024519086" lon="-3.585898037999868">
        <ele>1007.1</ele>
        <time>2018-05-26T09:23:22Z</time>
      </trkpt>
      <trkpt lat="42.101703006774187" lon="-3.585274005308747">
        <ele>1006.5</ele>
        <time>2018-05-26T09:23:36Z</time>
      </trkpt>
      <trkpt lat="42.101498991250992" lon="-3.584790034219623">
        <ele>1006.6</ele>
        <time>2018-05-26T09:23:49Z</time>
      </trkpt>
      <trkpt lat="42.101286007091403" lon="-3.58427002094686">
        <ele>1006.3</ele>
        <time>2018-05-26T09:24:02Z</time>
      </trkpt>
      <trkpt lat="42.101063970476389" lon="-3.583764005452395">
        <ele>1005</ele>
        <time>2018-05-26T09:24:15Z</time>
      </trkpt>
      <trkpt lat="42.100831959396601" lon="-3.583313981071115">
        <ele>1002.6</ele>
        <time>2018-05-26T09:24:27Z</time>
      </trkpt>
      <trkpt lat="42.10061201825738" lon="-3.582904022186995">
        <ele>1000.7</ele>
        <time>2018-05-26T09:24:38Z</time>
      </trkpt>
      <trkpt lat="42.100390987470746" lon="-3.582522980868816">
        <ele>999.29999999999995</ele>
        <time>2018-05-26T09:24:48Z</time>
      </trkpt>
      <trkpt lat="42.100155036896467" lon="-3.582111010327935">
        <ele>996.89999999999998</ele>
        <time>2018-05-26T09:25:00Z</time>
      </trkpt>
      <trkpt lat="42.099915985018015" lon="-3.581711025908589">
        <ele>993.39999999999998</ele>
        <time>2018-05-26T09:25:11Z</time>
      </trkpt>
      <trkpt lat="42.099594958126545" lon="-3.581282962113619">
        <ele>989.29999999999995</ele>
        <time>2018-05-26T09:25:25Z</time>
      </trkpt>
      <trkpt lat="42.099308967590332" lon="-3.580879960209131">
        <ele>985.79999999999995</ele>
        <time>2018-05-26T09:25:37Z</time>
      </trkpt>
      <trkpt lat="42.099029012024403" lon="-3.58046798966825">
        <ele>982.70000000000005</ele>
        <time>2018-05-26T09:25:49Z</time>
      </trkpt>
      <trkpt lat="42.098742015659809" lon="-3.58007999137044">
        <ele>980.39999999999998</ele>
        <time>2018-05-26T09:26:01Z</time>
      </trkpt>
      <trkpt lat="42.098331972956657" lon="-3.579513039439917">
        <ele>978.29999999999995</ele>
        <time>2018-05-26T09:26:19Z</time>
      </trkpt>
      <trkpt lat="42.097930982708931" lon="-3.579039964824915">
        <ele>977.70000000000005</ele>
        <time>2018-05-26T09:26:34Z</time>
      </trkpt>
      <trkpt lat="42.09743401966989" lon="-3.578644003719091">
        <ele>978.29999999999995</ele>
        <time>2018-05-26T09:26:52Z</time>
      </trkpt>
      <trkpt lat="42.097031017765403" lon="-3.578219041228294">
        <ele>976.79999999999995</ele>
        <time>2018-05-26T09:27:07Z</time>
      </trkpt>
      <trkpt lat="42.096653999760747" lon="-3.577864989638329">
        <ele>974.5</ele>
        <time>2018-05-26T09:27:20Z</time>
      </trkpt>
      <trkpt lat="42.096214033663273" lon="-3.57765301130712">
        <ele>974</ele>
        <time>2018-05-26T09:27:34Z</time>
      </trkpt>
      <trkpt lat="42.095728972926736" lon="-3.577236011624336">
        <ele>973.5</ele>
        <time>2018-05-26T09:27:51Z</time>
      </trkpt>
      <trkpt lat="42.095458991825581" lon="-3.577000983059406">
        <ele>973.10000000000002</ele>
        <time>2018-05-26T09:28:01Z</time>
      </trkpt>
      <trkpt lat="42.095360001549125" lon="-3.576834015548229">
        <ele>973</ele>
        <time>2018-05-26T09:28:05Z</time>
      </trkpt>
      <trkpt lat="42.095268974080682" lon="-3.576488010585308">
        <ele>972.89999999999998</ele>
        <time>2018-05-26T09:28:14Z</time>
      </trkpt>
      <trkpt lat="42.095289006829262" lon="-3.576200008392334">
        <ele>973.20000000000005</ele>
        <time>2018-05-26T09:28:20Z</time>
      </trkpt>
      <trkpt lat="42.095300992950797" lon="-3.576132031157613">
        <ele>973.5</ele>
        <time>2018-05-26T09:28:21Z</time>
      </trkpt>
      <trkpt lat="42.095426972955465" lon="-3.575644036754966">
        <ele>975.89999999999998</ele>
        <time>2018-05-26T09:28:33Z</time>
      </trkpt>
      <trkpt lat="42.09552101790905" lon="-3.575339019298554">
        <ele>977.29999999999995</ele>
        <time>2018-05-26T09:28:40Z</time>
      </trkpt>
      <trkpt lat="42.095498973503709" lon="-3.574850019067526">
        <ele>979.70000000000005</ele>
        <time>2018-05-26T09:28:51Z</time>
      </trkpt>
      <trkpt lat="42.095640040934086" lon="-3.574410974979401">
        <ele>981.89999999999998</ele>
        <time>2018-05-26T09:29:01Z</time>
      </trkpt>
      <trkpt lat="42.095659989863634" lon="-3.574259011074901">
        <ele>982.70000000000005</ele>
        <time>2018-05-26T09:29:05Z</time>
      </trkpt>
      <trkpt lat="42.095486987382174" lon="-3.573966985568404">
        <ele>984</ele>
        <time>2018-05-26T09:29:13Z</time>
      </trkpt>
      <trkpt lat="42.095366958528757" lon="-3.573832958936691">
        <ele>984.39999999999998</ele>
        <time>2018-05-26T09:29:18Z</time>
      </trkpt>
      <trkpt lat="42.095324965193868" lon="-3.573789037764072">
        <ele>984.5</ele>
        <time>2018-05-26T09:29:19Z</time>
      </trkpt>
      <trkpt lat="42.095216000452638" lon="-3.57363497838378">
        <ele>984.89999999999998</ele>
        <time>2018-05-26T09:29:24Z</time>
      </trkpt>
      <trkpt lat="42.095056995749474" lon="-3.57354998588562">
        <ele>984.79999999999995</ele>
        <time>2018-05-26T09:29:29Z</time>
      </trkpt>
      <trkpt lat="42.095112986862659" lon="-3.573597008362413">
        <ele>984.70000000000005</ele>
        <time>2018-05-26T09:29:31Z</time>
      </trkpt>
      <trkpt lat="42.095247013494372" lon="-3.573711002245545">
        <ele>984.60000000000002</ele>
        <time>2018-05-26T09:29:36Z</time>
      </trkpt>
      <trkpt lat="42.095290012657642" lon="-3.573847962543368">
        <ele>984.10000000000002</ele>
        <time>2018-05-26T09:29:39Z</time>
      </trkpt>
      <trkpt lat="42.095415992662311" lon="-3.57397997751832">
        <ele>983.89999999999998</ele>
        <time>2018-05-26T09:29:44Z</time>
      </trkpt>
      <trkpt lat="42.095566028729081" lon="-3.574011996388435">
        <ele>983.89999999999998</ele>
        <time>2018-05-26T09:29:48Z</time>
      </trkpt>
      <trkpt lat="42.095619002357125" lon="-3.574013002216816">
        <ele>983.89999999999998</ele>
        <time>2018-05-26T09:29:50Z</time>
      </trkpt>
      <trkpt lat="42.095396965742111" lon="-3.573830025270581">
        <ele>984.5</ele>
        <time>2018-05-26T09:29:57Z</time>
      </trkpt>
      <trkpt lat="42.095094965770841" lon="-3.573567001149058">
        <ele>984.79999999999995</ele>
        <time>2018-05-26T09:30:08Z</time>
      </trkpt>
      <trkpt lat="42.094619041308761" lon="-3.573283022269607">
        <ele>984.89999999999998</ele>
        <time>2018-05-26T09:30:23Z</time>
      </trkpt>
      <trkpt lat="42.094177985563874" lon="-3.573017986491323">
        <ele>984.39999999999998</ele>
        <time>2018-05-26T09:30:38Z</time>
      </trkpt>
      <trkpt lat="42.093697031959891" lon="-3.57284096069634">
        <ele>983.29999999999995</ele>
        <time>2018-05-26T09:30:53Z</time>
      </trkpt>
      <trkpt lat="42.092904020100832" lon="-3.572735013440251">
        <ele>982.20000000000005</ele>
        <time>2018-05-26T09:31:16Z</time>
      </trkpt>
      <trkpt lat="42.091899029910564" lon="-3.57223603874445">
        <ele>989.10000000000002</ele>
        <time>2018-05-26T09:31:48Z</time>
      </trkpt>
      <trkpt lat="42.090993029996753" lon="-3.571747038513422">
        <ele>994.60000000000002</ele>
        <time>2018-05-26T09:32:17Z</time>
      </trkpt>
      <trkpt lat="42.090923963114619" lon="-3.571706973016262">
        <ele>994.79999999999995</ele>
        <time>2018-05-26T09:32:19Z</time>
      </trkpt>
      <trkpt lat="42.090457007288933" lon="-3.571462975814939">
        <ele>995.89999999999998</ele>
        <time>2018-05-26T09:32:34Z</time>
      </trkpt>
      <trkpt lat="42.090044030919671" lon="-3.571215961128473">
        <ele>996.5</ele>
        <time>2018-05-26T09:32:47Z</time>
      </trkpt>
      <trkpt lat="42.089926013723016" lon="-3.571259966120124">
        <ele>996.60000000000002</ele>
        <time>2018-05-26T09:32:51Z</time>
      </trkpt>
      <trkpt lat="42.089916039258242" lon="-3.571114959195256">
        <ele>996.79999999999995</ele>
        <time>2018-05-26T09:32:54Z</time>
      </trkpt>
      <trkpt lat="42.089680004864931" lon="-3.570796027779579">
        <ele>996.70000000000005</ele>
        <time>2018-05-26T09:33:04Z</time>
      </trkpt>
      <trkpt lat="42.089316984638572" lon="-3.570325970649719">
        <ele>994.20000000000005</ele>
        <time>2018-05-26T09:33:19Z</time>
      </trkpt>
      <trkpt lat="42.088880036026239" lon="-3.569689029827714">
        <ele>990</ele>
        <time>2018-05-26T09:33:38Z</time>
      </trkpt>
      <trkpt lat="42.088463036343455" lon="-3.569095004349947">
        <ele>988.10000000000002</ele>
        <time>2018-05-26T09:33:56Z</time>
      </trkpt>
      <trkpt lat="42.087866999208927" lon="-3.568226974457502">
        <ele>990.20000000000005</ele>
        <time>2018-05-26T09:34:22Z</time>
      </trkpt>
      <trkpt lat="42.087002992630005" lon="-3.567000031471252">
        <ele>996.79999999999995</ele>
        <time>2018-05-26T09:34:59Z</time>
      </trkpt>
      <trkpt lat="42.086940966546535" lon="-3.566914033144712">
        <ele>997.5</ele>
        <time>2018-05-26T09:35:02Z</time>
      </trkpt>
      <trkpt lat="42.08671297878027" lon="-3.566585965454578">
        <ele>1000.2</ele>
        <time>2018-05-26T09:35:12Z</time>
      </trkpt>
      <trkpt lat="42.086516004055738" lon="-3.566292012110353">
        <ele>1003</ele>
        <time>2018-05-26T09:35:21Z</time>
      </trkpt>
      <trkpt lat="42.086247028782964" lon="-3.565888004377484">
        <ele>1005.2</ele>
        <time>2018-05-26T09:35:33Z</time>
      </trkpt>
      <trkpt lat="42.085727015510201" lon="-3.565064985305071">
        <ele>1006.2</ele>
        <time>2018-05-26T09:35:56Z</time>
      </trkpt>
      <trkpt lat="42.085183029994369" lon="-3.564029987901449">
        <ele>1006.2</ele>
        <time>2018-05-26T09:36:24Z</time>
      </trkpt>
      <trkpt lat="42.084772987291217" lon="-3.563161035999656">
        <ele>1007.1</ele>
        <time>2018-05-26T09:36:47Z</time>
      </trkpt>
      <trkpt lat="42.084418013691902" lon="-3.562414962798357">
        <ele>1006.4</ele>
        <time>2018-05-26T09:37:06Z</time>
      </trkpt>
      <trkpt lat="42.084077037870884" lon="-3.561708033084869">
        <ele>1004.5</ele>
        <time>2018-05-26T09:37:25Z</time>
      </trkpt>
      <trkpt lat="42.083699014037848" lon="-3.560913009569049">
        <ele>1002.4</ele>
        <time>2018-05-26T09:37:46Z</time>
      </trkpt>
      <trkpt lat="42.083303974941373" lon="-3.560103988274932">
        <ele>1001.3</ele>
        <time>2018-05-26T09:38:07Z</time>
      </trkpt>
      <trkpt lat="42.082918994128704" lon="-3.559296978637576">
        <ele>999</ele>
        <time>2018-05-26T09:38:28Z</time>
      </trkpt>
      <trkpt lat="42.082505011931062" lon="-3.558441018685699">
        <ele>998.29999999999995</ele>
        <time>2018-05-26T09:38:50Z</time>
      </trkpt>
      <trkpt lat="42.081869998946786" lon="-3.557139979675412">
        <ele>994.20000000000005</ele>
        <time>2018-05-26T09:39:25Z</time>
      </trkpt>
      <trkpt lat="42.081441013142467" lon="-3.556236997246742">
        <ele>995.70000000000005</ele>
        <time>2018-05-26T09:39:48Z</time>
      </trkpt>
      <trkpt lat="42.080990988761187" lon="-3.555354969576001">
        <ele>998.10000000000002</ele>
        <time>2018-05-26T09:40:12Z</time>
      </trkpt>
      <trkpt lat="42.080578012391925" lon="-3.554731020703912">
        <ele>1000.4</ele>
        <time>2018-05-26T09:40:30Z</time>
      </trkpt>
      <trkpt lat="42.079806039109826" lon="-3.554138001054525">
        <ele>1005</ele>
        <time>2018-05-26T09:40:57Z</time>
      </trkpt>
      <trkpt lat="42.079529017210007" lon="-3.553943037986755">
        <ele>1006.6</ele>
        <time>2018-05-26T09:41:06Z</time>
      </trkpt>
      <trkpt lat="42.079460034146905" lon="-3.553891992196441">
        <ele>1007.2</ele>
        <time>2018-05-26T09:41:08Z</time>
      </trkpt>
      <trkpt lat="42.079191980883479" lon="-3.553703986108303">
        <ele>1009.5</ele>
        <time>2018-05-26T09:41:17Z</time>
      </trkpt>
      <trkpt lat="42.07882703281939" lon="-3.553446996957064">
        <ele>1012</ele>
        <time>2018-05-26T09:41:29Z</time>
      </trkpt>
      <trkpt lat="42.078452026471496" lon="-3.553120018914342">
        <ele>1013.7</ele>
        <time>2018-05-26T09:41:43Z</time>
      </trkpt>
      <trkpt lat="42.078195959329605" lon="-3.552762027829886">
        <ele>1014.4</ele>
        <time>2018-05-26T09:41:54Z</time>
      </trkpt>
      <trkpt lat="42.078019017353654" lon="-3.55234201066196">
        <ele>1014.8</ele>
        <time>2018-05-26T09:42:04Z</time>
      </trkpt>
      <trkpt lat="42.077908040955663" lon="-3.551838006824255">
        <ele>1012.4</ele>
        <time>2018-05-26T09:42:16Z</time>
      </trkpt>
      <trkpt lat="42.077830005437136" lon="-3.551373984664679">
        <ele>1008</ele>
        <time>2018-05-26T09:42:26Z</time>
      </trkpt>
      <trkpt lat="42.077758004888892" lon="-3.550895964726806">
        <ele>1001.7</ele>
        <time>2018-05-26T09:42:37Z</time>
      </trkpt>
      <trkpt lat="42.077643005177379" lon="-3.550519030541182">
        <ele>995.70000000000005</ele>
        <time>2018-05-26T09:42:46Z</time>
      </trkpt>
      <trkpt lat="42.077390039339662" lon="-3.550102030858398">
        <ele>990.79999999999995</ele>
        <time>2018-05-26T09:42:58Z</time>
      </trkpt>
      <trkpt lat="42.077030958607793" lon="-3.549769017845392">
        <ele>985.29999999999995</ele>
        <time>2018-05-26T09:43:11Z</time>
      </trkpt>
      <trkpt lat="42.076772963628173" lon="-3.549395017325878">
        <ele>981.39999999999998</ele>
        <time>2018-05-26T09:43:22Z</time>
      </trkpt>
      <trkpt lat="42.076617982238531" lon="-3.54897097684443">
        <ele>980</ele>
        <time>2018-05-26T09:43:33Z</time>
      </trkpt>
      <trkpt lat="42.076553022488952" lon="-3.548491029068828">
        <ele>978.89999999999998</ele>
        <time>2018-05-26T09:43:43Z</time>
      </trkpt>
      <trkpt lat="42.076446991413832" lon="-3.54778896085918">
        <ele>977.5</ele>
        <time>2018-05-26T09:43:59Z</time>
      </trkpt>
      <trkpt lat="42.075982969254255" lon="-3.546145018190146">
        <ele>986.70000000000005</ele>
        <time>2018-05-26T09:44:38Z</time>
      </trkpt>
      <trkpt lat="42.075775014236569" lon="-3.545539006590843">
        <ele>992.79999999999995</ele>
        <time>2018-05-26T09:44:53Z</time>
      </trkpt>
      <trkpt lat="42.075675018131733" lon="-3.545311018824577">
        <ele>994.79999999999995</ele>
        <time>2018-05-26T09:44:59Z</time>
      </trkpt>
      <trkpt lat="42.075523976236582" lon="-3.544976999983192">
        <ele>996.5</ele>
        <time>2018-05-26T09:45:07Z</time>
      </trkpt>
      <trkpt lat="42.075038999319077" lon="-3.543959017843008">
        <ele>999.60000000000002</ele>
        <time>2018-05-26T09:45:34Z</time>
      </trkpt>
      <trkpt lat="42.074662987142801" lon="-3.543152008205652">
        <ele>1002.5</ele>
        <time>2018-05-26T09:45:55Z</time>
      </trkpt>
      <trkpt lat="42.074469029903412" lon="-3.54274095967412">
        <ele>1005.7</ele>
        <time>2018-05-26T09:46:06Z</time>
      </trkpt>
      <trkpt lat="42.074228972196579" lon="-3.542227987200022">
        <ele>1010.5</ele>
        <time>2018-05-26T09:46:19Z</time>
      </trkpt>
      <trkpt lat="42.074094023555517" lon="-3.541903020814061">
        <ele>1012.2</ele>
        <time>2018-05-26T09:46:27Z</time>
      </trkpt>
      <trkpt lat="42.074052030220628" lon="-3.54179497808218">
        <ele>1012.7</ele>
        <time>2018-05-26T09:46:30Z</time>
      </trkpt>
      <trkpt lat="42.073871986940503" lon="-3.541283011436462">
        <ele>1014.1</ele>
        <time>2018-05-26T09:46:42Z</time>
      </trkpt>
      <trkpt lat="42.073726980015635" lon="-3.540715975686908">
        <ele>1017</ele>
        <time>2018-05-26T09:46:55Z</time>
      </trkpt>
      <trkpt lat="42.073659002780914" lon="-3.540379023179412">
        <ele>1018</ele>
        <time>2018-05-26T09:47:03Z</time>
      </trkpt>
      <trkpt lat="42.073561018332839" lon="-3.539840988814831">
        <ele>1017</ele>
        <time>2018-05-26T09:47:15Z</time>
      </trkpt>
      <trkpt lat="42.073473008349538" lon="-3.53928099386394">
        <ele>1016</ele>
        <time>2018-05-26T09:47:28Z</time>
      </trkpt>
      <trkpt lat="42.073380975052714" lon="-3.538771960884333">
        <ele>1015.2</ele>
        <time>2018-05-26T09:47:39Z</time>
      </trkpt>
      <trkpt lat="42.073287013918161" lon="-3.538272986188531">
        <ele>1013.3</ele>
        <time>2018-05-26T09:47:51Z</time>
      </trkpt>
      <trkpt lat="42.073148963972926" lon="-3.537467988207936">
        <ele>1010.4</ele>
        <time>2018-05-26T09:48:09Z</time>
      </trkpt>
      <trkpt lat="42.073021978139877" lon="-3.53670297190547">
        <ele>1009.5</ele>
        <time>2018-05-26T09:48:26Z</time>
      </trkpt>
      <trkpt lat="42.072900021448731" lon="-3.53618698194623">
        <ele>1009.9</ele>
        <time>2018-05-26T09:48:38Z</time>
      </trkpt>
      <trkpt lat="42.072691982612014" lon="-3.535604020580649">
        <ele>1008.9</ele>
        <time>2018-05-26T09:48:52Z</time>
      </trkpt>
      <trkpt lat="42.072429964318871" lon="-3.535040002316237">
        <ele>1008.5</ele>
        <time>2018-05-26T09:49:07Z</time>
      </trkpt>
      <trkpt lat="42.072094017639756" lon="-3.534370036795735">
        <ele>1006.6</ele>
        <time>2018-05-26T09:49:25Z</time>
      </trkpt>
      <trkpt lat="42.071856977418065" lon="-3.533890005201101">
        <ele>1002.3</ele>
        <time>2018-05-26T09:49:37Z</time>
      </trkpt>
      <trkpt lat="42.071540979668498" lon="-3.533266978338361">
        <ele>998.70000000000005</ele>
        <time>2018-05-26T09:49:54Z</time>
      </trkpt>
      <trkpt lat="42.071252977475524" lon="-3.5326830111444">
        <ele>996.60000000000002</ele>
        <time>2018-05-26T09:50:10Z</time>
      </trkpt>
      <trkpt lat="42.071014009416103" lon="-3.532213037833571">
        <ele>995.79999999999995</ele>
        <time>2018-05-26T09:50:22Z</time>
      </trkpt>
      <trkpt lat="42.070772023871541" lon="-3.531739041209221">
        <ele>994.5</ele>
        <time>2018-05-26T09:50:35Z</time>
      </trkpt>
      <trkpt lat="42.070489972829819" lon="-3.531264960765839">
        <ele>992.70000000000005</ele>
        <time>2018-05-26T09:50:48Z</time>
      </trkpt>
      <trkpt lat="42.070136005058885" lon="-3.530844021588564">
        <ele>989.39999999999998</ele>
        <time>2018-05-26T09:51:02Z</time>
      </trkpt>
      <trkpt lat="42.069767033681273" lon="-3.530494999140501">
        <ele>985.29999999999995</ele>
        <time>2018-05-26T09:51:16Z</time>
      </trkpt>
      <trkpt lat="42.069251965731382" lon="-3.530027959495783">
        <ele>982.29999999999995</ele>
        <time>2018-05-26T09:51:34Z</time>
      </trkpt>
      <trkpt lat="42.068822979927063" lon="-3.529634010046721">
        <ele>979.5</ele>
        <time>2018-05-26T09:51:49Z</time>
      </trkpt>
      <trkpt lat="42.068417966365814" lon="-3.529334021732211">
        <ele>979</ele>
        <time>2018-05-26T09:52:03Z</time>
      </trkpt>
      <trkpt lat="42.067985041067004" lon="-3.528968989849091">
        <ele>978.20000000000005</ele>
        <time>2018-05-26T09:52:18Z</time>
      </trkpt>
      <trkpt lat="42.067709024995565" lon="-3.528671013191342">
        <ele>979.60000000000002</ele>
        <time>2018-05-26T09:52:29Z</time>
      </trkpt>
      <trkpt lat="42.067443989217281" lon="-3.528287960216403">
        <ele>980.60000000000002</ele>
        <time>2018-05-26T09:52:40Z</time>
      </trkpt>
      <trkpt lat="42.067259000614285" lon="-3.52797799743712">
        <ele>979.70000000000005</ele>
        <time>2018-05-26T09:52:49Z</time>
      </trkpt>
      <trkpt lat="42.067107036709785" lon="-3.527655964717269">
        <ele>977.29999999999995</ele>
        <time>2018-05-26T09:52:57Z</time>
      </trkpt>
      <trkpt lat="42.066964963451028" lon="-3.527289004996419">
        <ele>976.39999999999998</ele>
        <time>2018-05-26T09:53:06Z</time>
      </trkpt>
      <trkpt lat="42.066853987053037" lon="-3.526909975335002">
        <ele>975</ele>
        <time>2018-05-26T09:53:15Z</time>
      </trkpt>
      <trkpt lat="42.066788021475077" lon="-3.526587020605803">
        <ele>972.5</ele>
        <time>2018-05-26T09:53:23Z</time>
      </trkpt>
      <trkpt lat="42.066733036190271" lon="-3.526211008429527">
        <ele>968.89999999999998</ele>
        <time>2018-05-26T09:53:31Z</time>
      </trkpt>
      <trkpt lat="42.06669095903635" lon="-3.52587103843689">
        <ele>965.70000000000005</ele>
        <time>2018-05-26T09:53:39Z</time>
      </trkpt>
      <trkpt lat="42.066631028428674" lon="-3.525512963533402">
        <ele>961.79999999999995</ele>
        <time>2018-05-26T09:53:47Z</time>
      </trkpt>
      <trkpt lat="42.066531032323837" lon="-3.525152038782835">
        <ele>957.10000000000002</ele>
        <time>2018-05-26T09:53:56Z</time>
      </trkpt>
      <trkpt lat="42.066398011520505" lon="-3.524847021326423">
        <ele>951.79999999999995</ele>
        <time>2018-05-26T09:54:03Z</time>
      </trkpt>
      <trkpt lat="42.066235989332199" lon="-3.524603024125099">
        <ele>946.5</ele>
        <time>2018-05-26T09:54:11Z</time>
      </trkpt>
      <trkpt lat="42.06604496575892" lon="-3.524386016651988">
        <ele>945</ele>
        <time>2018-05-26T09:54:18Z</time>
      </trkpt>
      <trkpt lat="42.065813960507512" lon="-3.524228017777205">
        <ele>943.89999999999998</ele>
        <time>2018-05-26T09:54:26Z</time>
      </trkpt>
      <trkpt lat="42.065556971356273" lon="-3.524127015843988">
        <ele>943.20000000000005</ele>
        <time>2018-05-26T09:54:34Z</time>
      </trkpt>
      <trkpt lat="42.065247008576989" lon="-3.524116035550833">
        <ele>943</ele>
        <time>2018-05-26T09:54:43Z</time>
      </trkpt>
      <trkpt lat="42.064951965585351" lon="-3.524180995300412">
        <ele>943.79999999999995</ele>
        <time>2018-05-26T09:54:52Z</time>
      </trkpt>
      <trkpt lat="42.064624987542629" lon="-3.524281997233629">
        <ele>946.29999999999995</ele>
        <time>2018-05-26T09:55:02Z</time>
      </trkpt>
      <trkpt lat="42.064290968701243" lon="-3.524273028597236">
        <ele>943</ele>
        <time>2018-05-26T09:55:12Z</time>
      </trkpt>
      <trkpt lat="42.06393800675869" lon="-3.524195998907089">
        <ele>937.39999999999998</ele>
        <time>2018-05-26T09:55:22Z</time>
      </trkpt>
      <trkpt lat="42.063537016510963" lon="-3.52417697198689">
        <ele>932.70000000000005</ele>
        <time>2018-05-26T09:55:34Z</time>
      </trkpt>
      <trkpt lat="42.063196962699294" lon="-3.524286020547152">
        <ele>930.79999999999995</ele>
        <time>2018-05-26T09:55:45Z</time>
      </trkpt>
      <trkpt lat="42.062898986041546" lon="-3.524382999166846">
        <ele>928.5</ele>
        <time>2018-05-26T09:55:54Z</time>
      </trkpt>
      <trkpt lat="42.062506964430213" lon="-3.524492969736457">
        <ele>928.39999999999998</ele>
        <time>2018-05-26T09:56:06Z</time>
      </trkpt>
      <trkpt lat="42.062133969739079" lon="-3.524588020518422">
        <ele>928.39999999999998</ele>
        <time>2018-05-26T09:56:17Z</time>
      </trkpt>
      <trkpt lat="42.061815960332751" lon="-3.524621967226267">
        <ele>928</ele>
        <time>2018-05-26T09:56:26Z</time>
      </trkpt>
      <trkpt lat="42.061481019482017" lon="-3.524591038003564">
        <ele>926</ele>
        <time>2018-05-26T09:56:36Z</time>
      </trkpt>
      <trkpt lat="42.061128979548812" lon="-3.524551978334785">
        <ele>924.10000000000002</ele>
        <time>2018-05-26T09:56:47Z</time>
      </trkpt>
      <trkpt lat="42.060790015384555" lon="-3.524513002485037">
        <ele>922.5</ele>
        <time>2018-05-26T09:56:57Z</time>
      </trkpt>
      <trkpt lat="42.060459014028311" lon="-3.524463968351483">
        <ele>920.79999999999995</ele>
        <time>2018-05-26T09:57:07Z</time>
      </trkpt>
      <trkpt lat="42.060134969651699" lon="-3.524405965581536">
        <ele>921.29999999999995</ele>
        <time>2018-05-26T09:57:17Z</time>
      </trkpt>
      <trkpt lat="42.059915028512478" lon="-3.524276968091726">
        <ele>919.79999999999995</ele>
        <time>2018-05-26T09:57:24Z</time>
      </trkpt>
      <trkpt lat="42.059690980240703" lon="-3.524061972275376">
        <ele>916</ele>
        <time>2018-05-26T09:57:32Z</time>
      </trkpt>
      <trkpt lat="42.059484031051397" lon="-3.523837001994252">
        <ele>911.29999999999995</ele>
        <time>2018-05-26T09:57:40Z</time>
      </trkpt>
      <trkpt lat="42.059285966679454" lon="-3.523622006177902">
        <ele>907.70000000000005</ele>
        <time>2018-05-26T09:57:47Z</time>
      </trkpt>
      <trkpt lat="42.059089997783303" lon="-3.523368034511805">
        <ele>904.20000000000005</ele>
        <time>2018-05-26T09:57:56Z</time>
      </trkpt>
      <trkpt lat="42.059093015268445" lon="-3.523100987076759">
        <ele>900.10000000000002</ele>
        <time>2018-05-26T09:58:02Z</time>
      </trkpt>
      <trkpt lat="42.059123022481799" lon="-3.523054970428348">
        <ele>899.29999999999995</ele>
        <time>2018-05-26T09:58:03Z</time>
      </trkpt>
      <trkpt lat="42.059091003611684" lon="-3.522853972390294">
        <ele>897</ele>
        <time>2018-05-26T09:58:07Z</time>
      </trkpt>
      <trkpt lat="42.059166021645069" lon="-3.522728998214006">
        <ele>896.39999999999998</ele>
        <time>2018-05-26T09:58:11Z</time>
      </trkpt>
      <trkpt lat="42.059177001938224" lon="-3.522509979084134">
        <ele>895.79999999999995</ele>
        <time>2018-05-26T09:58:16Z</time>
      </trkpt>
      <trkpt lat="42.059149006381631" lon="-3.522438984364271">
        <ele>895.60000000000002</ele>
        <time>2018-05-26T09:58:18Z</time>
      </trkpt>
      <trkpt lat="42.058942979201674" lon="-3.522132961079478">
        <ele>894.39999999999998</ele>
        <time>2018-05-26T09:58:27Z</time>
      </trkpt>
      <trkpt lat="42.058594962581992" lon="-3.521807994693518">
        <ele>890.29999999999995</ele>
        <time>2018-05-26T09:58:39Z</time>
      </trkpt>
      <trkpt lat="42.058597980067134" lon="-3.521801037713885">
        <ele>890.29999999999995</ele>
        <time>2018-05-26T09:58:39Z</time>
      </trkpt>
      <trkpt lat="42.05809498205781" lon="-3.521469030529261">
        <ele>880.79999999999995</ele>
        <time>2018-05-26T09:58:56Z</time>
      </trkpt>
      <trkpt lat="42.058104034513235" lon="-3.520881962031126">
        <ele>880.29999999999995</ele>
        <time>2018-05-26T09:59:09Z</time>
      </trkpt>
      <trkpt lat="42.058109985664487" lon="-3.520864024758339">
        <ele>880.39999999999998</ele>
        <time>2018-05-26T09:59:10Z</time>
      </trkpt>
      <trkpt lat="42.057999009266496" lon="-3.520863018929958">
        <ele>878.70000000000005</ele>
        <time>2018-05-26T09:59:13Z</time>
      </trkpt>
      <trkpt lat="42.05790395848453" lon="-3.520861007273197">
        <ele>877.5</ele>
        <time>2018-05-26T09:59:16Z</time>
      </trkpt>
      <trkpt lat="42.057800022885203" lon="-3.520839968696237">
        <ele>878</ele>
        <time>2018-05-26T09:59:19Z</time>
      </trkpt>
      <trkpt lat="42.05770899541676" lon="-3.52080300450325">
        <ele>878.39999999999998</ele>
        <time>2018-05-26T09:59:22Z</time>
      </trkpt>
      <trkpt lat="42.057607993483543" lon="-3.520761011168361">
        <ele>879</ele>
        <time>2018-05-26T09:59:25Z</time>
      </trkpt>
      <trkpt lat="42.057489976286888" lon="-3.520720023661852">
        <ele>879.60000000000002</ele>
        <time>2018-05-26T09:59:28Z</time>
      </trkpt>
      <trkpt lat="42.057373970746994" lon="-3.520682975649834">
        <ele>880.29999999999995</ele>
        <time>2018-05-26T09:59:32Z</time>
      </trkpt>
      <trkpt lat="42.057286966592073" lon="-3.520647017285228">
        <ele>880.89999999999998</ele>
        <time>2018-05-26T09:59:35Z</time>
      </trkpt>
      <trkpt lat="42.057204991579056" lon="-3.520594965666533">
        <ele>881.5</ele>
        <time>2018-05-26T09:59:37Z</time>
      </trkpt>
      <trkpt lat="42.057130979374051" lon="-3.5204809717834">
        <ele>882.39999999999998</ele>
        <time>2018-05-26T09:59:41Z</time>
      </trkpt>
      <trkpt lat="42.057061996310949" lon="-3.520387010648847">
        <ele>883</ele>
        <time>2018-05-26T09:59:44Z</time>
      </trkpt>
      <trkpt lat="42.056972980499268" lon="-3.520282991230488">
        <ele>883.20000000000005</ele>
        <time>2018-05-26T09:59:47Z</time>
      </trkpt>
      <trkpt lat="42.056883964687586" lon="-3.520184000954032">
        <ele>883.29999999999995</ele>
        <time>2018-05-26T09:59:50Z</time>
      </trkpt>
      <trkpt lat="42.056797966361046" lon="-3.520076964050531">
        <ele>883.5</ele>
        <time>2018-05-26T09:59:54Z</time>
      </trkpt>
      <trkpt lat="42.056708028540015" lon="-3.519976967945695">
        <ele>883.70000000000005</ele>
        <time>2018-05-26T09:59:57Z</time>
      </trkpt>
      <trkpt lat="42.056620018556714" lon="-3.519872026517987">
        <ele>883.89999999999998</ele>
        <time>2018-05-26T10:00:01Z</time>
      </trkpt>
      <trkpt lat="42.056534020230174" lon="-3.519761972129345">
        <ele>884.20000000000005</ele>
        <time>2018-05-26T10:00:04Z</time>
      </trkpt>
      <trkpt lat="42.056454978883266" lon="-3.519669016823173">
        <ele>884.39999999999998</ele>
        <time>2018-05-26T10:00:08Z</time>
      </trkpt>
      <trkpt lat="42.056367974728346" lon="-3.519573966041207">
        <ele>884.70000000000005</ele>
        <time>2018-05-26T10:00:11Z</time>
      </trkpt>
      <trkpt lat="42.056303014978766" lon="-3.519457038491964">
        <ele>885</ele>
        <time>2018-05-26T10:00:14Z</time>
      </trkpt>
      <trkpt lat="42.056235037744045" lon="-3.519316976889968">
        <ele>885.39999999999998</ele>
        <time>2018-05-26T10:00:18Z</time>
      </trkpt>
      <trkpt lat="42.056171000003815" lon="-3.519184961915016">
        <ele>886</ele>
        <time>2018-05-26T10:00:21Z</time>
      </trkpt>
      <trkpt lat="42.056094976142049" lon="-3.519059987738729">
        <ele>886.79999999999995</ele>
        <time>2018-05-26T10:00:25Z</time>
      </trkpt>
      <trkpt lat="42.05603102222085" lon="-3.518959991633892">
        <ele>887.5</ele>
        <time>2018-05-26T10:00:28Z</time>
      </trkpt>
      <trkpt lat="42.055962961167097" lon="-3.518819008022547">
        <ele>888.5</ele>
        <time>2018-05-26T10:00:31Z</time>
      </trkpt>
      <trkpt lat="42.055911999195814" lon="-3.518681041896343">
        <ele>889.70000000000005</ele>
        <time>2018-05-26T10:00:35Z</time>
      </trkpt>
      <trkpt lat="42.055867994204164" lon="-3.518552966415882">
        <ele>891</ele>
        <time>2018-05-26T10:00:38Z</time>
      </trkpt>
      <trkpt lat="42.055822983384132" lon="-3.51839798502624">
        <ele>892.70000000000005</ele>
        <time>2018-05-26T10:00:42Z</time>
      </trkpt>
      <trkpt lat="42.055784007534385" lon="-3.518249038606882">
        <ele>894.39999999999998</ele>
        <time>2018-05-26T10:00:45Z</time>
      </trkpt>
      <trkpt lat="42.055745031684637" lon="-3.518130015581846">
        <ele>895.89999999999998</ele>
        <time>2018-05-26T10:00:48Z</time>
      </trkpt>
      <trkpt lat="42.055729022249579" lon="-3.517981991171837">
        <ele>897.5</ele>
        <time>2018-05-26T10:00:51Z</time>
      </trkpt>
      <trkpt lat="42.055701026692986" lon="-3.517830027267337">
        <ele>898.70000000000005</ele>
        <time>2018-05-26T10:00:55Z</time>
      </trkpt>
      <trkpt lat="42.055680993944407" lon="-3.517712010070682">
        <ele>899.39999999999998</ele>
        <time>2018-05-26T10:00:57Z</time>
      </trkpt>
      <trkpt lat="42.055655010044575" lon="-3.517577983438969">
        <ele>900.29999999999995</ele>
        <time>2018-05-26T10:01:00Z</time>
      </trkpt>
      <trkpt lat="42.055632965639234" lon="-3.517438005656004">
        <ele>901.29999999999995</ele>
        <time>2018-05-26T10:01:04Z</time>
      </trkpt>
      <trkpt lat="42.05560396425426" lon="-3.51732300594449">
        <ele>902.29999999999995</ele>
        <time>2018-05-26T10:01:06Z</time>
      </trkpt>
      <trkpt lat="42.055584015324712" lon="-3.517204988747835">
        <ele>903.20000000000005</ele>
        <time>2018-05-26T10:01:09Z</time>
      </trkpt>
      <trkpt lat="42.055561970919371" lon="-3.517079008743167">
        <ele>904.10000000000002</ele>
        <time>2018-05-26T10:01:12Z</time>
      </trkpt>
      <trkpt lat="42.055536992847919" lon="-3.516945987939835">
        <ele>904.20000000000005</ele>
        <time>2018-05-26T10:01:15Z</time>
      </trkpt>
      <trkpt lat="42.055499022826552" lon="-3.516797963529825">
        <ele>904.60000000000002</ele>
        <time>2018-05-26T10:01:18Z</time>
      </trkpt>
      <trkpt lat="42.055461974814534" lon="-3.516678018495441">
        <ele>904.89999999999998</ele>
        <time>2018-05-26T10:01:21Z</time>
      </trkpt>
      <trkpt lat="42.055415958166122" lon="-3.516563018783927">
        <ele>905.5</ele>
        <time>2018-05-26T10:01:24Z</time>
      </trkpt>
      <trkpt lat="42.055370025336742" lon="-3.516422035172582">
        <ele>906.39999999999998</ele>
        <time>2018-05-26T10:01:27Z</time>
      </trkpt>
      <trkpt lat="42.055329037830234" lon="-3.516299994662404">
        <ele>907.29999999999995</ele>
        <time>2018-05-26T10:01:30Z</time>
      </trkpt>
      <trkpt lat="42.055271035060287" lon="-3.516162028536201">
        <ele>907.89999999999998</ele>
        <time>2018-05-26T10:01:34Z</time>
      </trkpt>
      <trkpt lat="42.055203979834914" lon="-3.516022972762585">
        <ele>908.5</ele>
        <time>2018-05-26T10:01:38Z</time>
      </trkpt>
      <trkpt lat="42.05512803979218" lon="-3.515887018293142">
        <ele>909.70000000000005</ele>
        <time>2018-05-26T10:01:41Z</time>
      </trkpt>
      <trkpt lat="42.055054027587175" lon="-3.515761038288474">
        <ele>911.10000000000002</ele>
        <time>2018-05-26T10:01:45Z</time>
      </trkpt>
      <trkpt lat="42.054997030645609" lon="-3.515633968636394">
        <ele>912</ele>
        <time>2018-05-26T10:01:48Z</time>
      </trkpt>
      <trkpt lat="42.054952019825578" lon="-3.515507988631725">
        <ele>912.5</ele>
        <time>2018-05-26T10:01:51Z</time>
      </trkpt>
      <trkpt lat="42.05489301122725" lon="-3.515390977263451">
        <ele>913.70000000000005</ele>
        <time>2018-05-26T10:01:54Z</time>
      </trkpt>
      <trkpt lat="42.054841965436935" lon="-3.515262985602021">
        <ele>914.39999999999998</ele>
        <time>2018-05-26T10:01:58Z</time>
      </trkpt>
      <trkpt lat="42.054782034829259" lon="-3.515138011425734">
        <ele>915.39999999999998</ele>
        <time>2018-05-26T10:02:01Z</time>
      </trkpt>
      <trkpt lat="42.054723026230931" lon="-3.514970038086176">
        <ele>915.70000000000005</ele>
        <time>2018-05-26T10:02:05Z</time>
      </trkpt>
      <trkpt lat="42.054683966562152" lon="-3.514854032546282">
        <ele>915.79999999999995</ele>
        <time>2018-05-26T10:02:08Z</time>
      </trkpt>
      <trkpt lat="42.054621018469334" lon="-3.514714976772666">
        <ele>916.29999999999995</ele>
        <time>2018-05-26T10:02:11Z</time>
      </trkpt>
      <trkpt lat="42.054561004042625" lon="-3.514596959576011">
        <ele>916.89999999999998</ele>
        <time>2018-05-26T10:02:14Z</time>
      </trkpt>
      <trkpt lat="42.054496966302395" lon="-3.514465028420091">
        <ele>916.70000000000005</ele>
        <time>2018-05-26T10:02:18Z</time>
      </trkpt>
      <trkpt lat="42.054466037079692" lon="-3.514333013445139">
        <ele>915.29999999999995</ele>
        <time>2018-05-26T10:02:21Z</time>
      </trkpt>
      <trkpt lat="42.054440975189209" lon="-3.514181971549988">
        <ele>913.39999999999998</ele>
        <time>2018-05-26T10:02:24Z</time>
      </trkpt>
      <trkpt lat="42.054383978247643" lon="-3.514052974060178">
        <ele>912.60000000000002</ele>
        <time>2018-05-26T10:02:28Z</time>
      </trkpt>
      <trkpt lat="42.054325975477695" lon="-3.513908972963691">
        <ele>911.5</ele>
        <time>2018-05-26T10:02:31Z</time>
      </trkpt>
      <trkpt lat="42.054261015728116" lon="-3.513768995180726">
        <ele>910.5</ele>
        <time>2018-05-26T10:02:35Z</time>
      </trkpt>
      <trkpt lat="42.05418398603797" lon="-3.513632034882903">
        <ele>910</ele>
        <time>2018-05-26T10:02:39Z</time>
      </trkpt>
      <trkpt lat="42.054121037945151" lon="-3.513532960787416">
        <ele>909.79999999999995</ele>
        <time>2018-05-26T10:02:42Z</time>
      </trkpt>
      <trkpt lat="42.054049037396908" lon="-3.513415027409792">
        <ele>909.39999999999998</ele>
        <time>2018-05-26T10:02:45Z</time>
      </trkpt>
      <trkpt lat="42.053991034626961" lon="-3.513317964971066">
        <ele>908.89999999999998</ele>
        <time>2018-05-26T10:02:48Z</time>
      </trkpt>
      <trkpt lat="42.053928002715111" lon="-3.513229032978416">
        <ele>908.60000000000002</ele>
        <time>2018-05-26T10:02:50Z</time>
      </trkpt>
      <trkpt lat="42.053851978853345" lon="-3.513118978589773">
        <ele>908</ele>
        <time>2018-05-26T10:02:54Z</time>
      </trkpt>
      <trkpt lat="42.053791964426637" lon="-3.513001967221499">
        <ele>906.89999999999998</ele>
        <time>2018-05-26T10:02:57Z</time>
      </trkpt>
      <trkpt lat="42.05373203381896" lon="-3.512877998873591">
        <ele>905.5</ele>
        <time>2018-05-26T10:03:00Z</time>
      </trkpt>
      <trkpt lat="42.053675036877394" lon="-3.512751013040543">
        <ele>904</ele>
        <time>2018-05-26T10:03:03Z</time>
      </trkpt>
      <trkpt lat="42.053622985258698" lon="-3.512649005278945">
        <ele>902.89999999999998</ele>
        <time>2018-05-26T10:03:06Z</time>
      </trkpt>
      <trkpt lat="42.05356003716588" lon="-3.51255202665925">
        <ele>902</ele>
        <time>2018-05-26T10:03:09Z</time>
      </trkpt>
      <trkpt lat="42.053488036617637" lon="-3.512478014454246">
        <ele>901.60000000000002</ele>
        <time>2018-05-26T10:03:12Z</time>
      </trkpt>
      <trkpt lat="42.053384017199278" lon="-3.51240199059248">
        <ele>901.5</ele>
        <time>2018-05-26T10:03:15Z</time>
      </trkpt>
      <trkpt lat="42.053272034972906" lon="-3.512355973944068">
        <ele>902</ele>
        <time>2018-05-26T10:03:19Z</time>
      </trkpt>
      <trkpt lat="42.053180001676083" lon="-3.512350022792816">
        <ele>902.70000000000005</ele>
        <time>2018-05-26T10:03:21Z</time>
      </trkpt>
      <trkpt lat="42.053071958944201" lon="-3.51235899142921">
        <ele>903.70000000000005</ele>
        <time>2018-05-26T10:03:25Z</time>
      </trkpt>
      <trkpt lat="42.05298101529479" lon="-3.512366032227874">
        <ele>904.5</ele>
        <time>2018-05-26T10:03:27Z</time>
      </trkpt>
      <trkpt lat="42.052885964512825" lon="-3.512382041662931">
        <ele>905.60000000000002</ele>
        <time>2018-05-26T10:03:30Z</time>
      </trkpt>
      <trkpt lat="42.052792003378272" lon="-3.512395033612847">
        <ele>907</ele>
        <time>2018-05-26T10:03:33Z</time>
      </trkpt>
      <trkpt lat="42.052694018930197" lon="-3.512413976714015">
        <ele>908.29999999999995</ele>
        <time>2018-05-26T10:03:36Z</time>
      </trkpt>
      <trkpt lat="42.052595028653741" lon="-3.512462005019188">
        <ele>909.70000000000005</ele>
        <time>2018-05-26T10:03:39Z</time>
      </trkpt>
      <trkpt lat="42.052498972043395" lon="-3.512534005567431">
        <ele>910.70000000000005</ele>
        <time>2018-05-26T10:03:42Z</time>
      </trkpt>
      <trkpt lat="42.052419008687139" lon="-3.512608017772436">
        <ele>911.29999999999995</ele>
        <time>2018-05-26T10:03:45Z</time>
      </trkpt>
      <trkpt lat="42.052333010360599" lon="-3.512669960036874">
        <ele>911.70000000000005</ele>
        <time>2018-05-26T10:03:48Z</time>
      </trkpt>
      <trkpt lat="42.052257992327213" lon="-3.512736009433866">
        <ele>911.79999999999995</ele>
        <time>2018-05-26T10:03:51Z</time>
      </trkpt>
      <trkpt lat="42.052181968465447" lon="-3.512805998325348">
        <ele>911.70000000000005</ele>
        <time>2018-05-26T10:03:54Z</time>
      </trkpt>
      <trkpt lat="42.052094964310527" lon="-3.512870036065579">
        <ele>911.5</ele>
        <time>2018-05-26T10:03:56Z</time>
      </trkpt>
      <trkpt lat="42.052009971812367" lon="-3.51291798055172">
        <ele>912</ele>
        <time>2018-05-26T10:03:59Z</time>
      </trkpt>
      <trkpt lat="42.051920033991337" lon="-3.5129380133003">
        <ele>913.5</ele>
        <time>2018-05-26T10:04:02Z</time>
      </trkpt>
      <trkpt lat="42.0518200378865" lon="-3.512969026342034">
        <ele>915.10000000000002</ele>
        <time>2018-05-26T10:04:05Z</time>
      </trkpt>
      <trkpt lat="42.051731022074819" lon="-3.513014037162066">
        <ele>916.60000000000002</ele>
        <time>2018-05-26T10:04:08Z</time>
      </trkpt>
      <trkpt lat="42.051642006263137" lon="-3.513060975819826">
        <ele>917.89999999999998</ele>
        <time>2018-05-26T10:04:11Z</time>
      </trkpt>
      <trkpt lat="42.051543015986681" lon="-3.513101041316986">
        <ele>919</ele>
        <time>2018-05-26T10:04:14Z</time>
      </trkpt>
      <trkpt lat="42.051441008225083" lon="-3.513144962489605">
        <ele>920</ele>
        <time>2018-05-26T10:04:17Z</time>
      </trkpt>
      <trkpt lat="42.051363978534937" lon="-3.513211011886597">
        <ele>920.60000000000002</ele>
        <time>2018-05-26T10:04:20Z</time>
      </trkpt>
      <trkpt lat="42.051291977986693" lon="-3.513291981071234">
        <ele>920.89999999999998</ele>
        <time>2018-05-26T10:04:22Z</time>
      </trkpt>
      <trkpt lat="42.051213020458817" lon="-3.51336901076138">
        <ele>921.29999999999995</ele>
        <time>2018-05-26T10:04:25Z</time>
      </trkpt>
      <trkpt lat="42.051122998818755" lon="-3.513426007702947">
        <ele>922.10000000000002</ele>
        <time>2018-05-26T10:04:28Z</time>
      </trkpt>
      <trkpt lat="42.051034988835454" lon="-3.51347797550261">
        <ele>922.79999999999995</ele>
        <time>2018-05-26T10:04:31Z</time>
      </trkpt>
      <trkpt lat="42.050947984680533" lon="-3.513516029343009">
        <ele>923.39999999999998</ele>
        <time>2018-05-26T10:04:34Z</time>
      </trkpt>
      <trkpt lat="42.050865003839135" lon="-3.513566991314292">
        <ele>923.79999999999995</ele>
        <time>2018-05-26T10:04:37Z</time>
      </trkpt>
      <trkpt lat="42.050779005512595" lon="-3.513627005741">
        <ele>924</ele>
        <time>2018-05-26T10:04:39Z</time>
      </trkpt>
      <trkpt lat="42.050693007186055" lon="-3.513685008510947">
        <ele>924</ele>
        <time>2018-05-26T10:04:42Z</time>
      </trkpt>
      <trkpt lat="42.050600973889232" lon="-3.513745022937655">
        <ele>924</ele>
        <time>2018-05-26T10:04:45Z</time>
      </trkpt>
      <trkpt lat="42.050520004704595" lon="-3.51382196880877">
        <ele>924.79999999999995</ele>
        <time>2018-05-26T10:04:48Z</time>
      </trkpt>
      <trkpt lat="42.050428977236152" lon="-3.513898998498917">
        <ele>925.5</ele>
        <time>2018-05-26T10:04:51Z</time>
      </trkpt>
      <trkpt lat="42.050350019708276" lon="-3.513959012925625">
        <ele>926.5</ele>
        <time>2018-05-26T10:04:54Z</time>
      </trkpt>
      <trkpt lat="42.050271984189749" lon="-3.514029001817107">
        <ele>927.39999999999998</ele>
        <time>2018-05-26T10:04:57Z</time>
      </trkpt>
      <trkpt lat="42.050192020833492" lon="-3.51412296295166">
        <ele>928.10000000000002</ele>
        <time>2018-05-26T10:05:00Z</time>
      </trkpt>
      <trkpt lat="42.050109039992094" lon="-3.514179037883878">
        <ele>928.70000000000005</ele>
        <time>2018-05-26T10:05:03Z</time>
      </trkpt>
      <trkpt lat="42.050019018352032" lon="-3.514237040653825">
        <ele>929.10000000000002</ele>
        <time>2018-05-26T10:05:06Z</time>
      </trkpt>
      <trkpt lat="42.049937965348363" lon="-3.514317004010081">
        <ele>929.20000000000005</ele>
        <time>2018-05-26T10:05:09Z</time>
      </trkpt>
      <trkpt lat="42.049860013648868" lon="-3.514379030093551">
        <ele>929.20000000000005</ele>
        <time>2018-05-26T10:05:11Z</time>
      </trkpt>
      <trkpt lat="42.049781978130341" lon="-3.51444398984313">
        <ele>929</ele>
        <time>2018-05-26T10:05:14Z</time>
      </trkpt>
      <trkpt lat="42.049684999510646" lon="-3.51450702175498">
        <ele>928.70000000000005</ele>
        <time>2018-05-26T10:05:17Z</time>
      </trkpt>
      <trkpt lat="42.049591038376093" lon="-3.514551026746631">
        <ele>928.29999999999995</ele>
        <time>2018-05-26T10:05:20Z</time>
      </trkpt>
      <trkpt lat="42.049485007300973" lon="-3.514584973454475">
        <ele>928.70000000000005</ele>
        <time>2018-05-26T10:05:24Z</time>
      </trkpt>
      <trkpt lat="42.049399008974433" lon="-3.51463601924479">
        <ele>929.79999999999995</ele>
        <time>2018-05-26T10:05:26Z</time>
      </trkpt>
      <trkpt lat="42.049309993162751" lon="-3.514669965952635">
        <ele>930.60000000000002</ele>
        <time>2018-05-26T10:05:29Z</time>
      </trkpt>
      <trkpt lat="42.049209997057915" lon="-3.514681030064821">
        <ele>931.29999999999995</ele>
        <time>2018-05-26T10:05:32Z</time>
      </trkpt>
      <trkpt lat="42.049119975417852" lon="-3.514695027843118">
        <ele>931.89999999999998</ele>
        <time>2018-05-26T10:05:35Z</time>
      </trkpt>
      <trkpt lat="42.049017967656255" lon="-3.514698967337608">
        <ele>932.39999999999998</ele>
        <time>2018-05-26T10:05:38Z</time>
      </trkpt>
      <trkpt lat="42.048924006521702" lon="-3.514692010357976">
        <ele>932.89999999999998</ele>
        <time>2018-05-26T10:05:41Z</time>
      </trkpt>
      <trkpt lat="42.048829961568117" lon="-3.514672983437777">
        <ele>933.39999999999998</ele>
        <time>2018-05-26T10:05:43Z</time>
      </trkpt>
      <trkpt lat="42.048737006261945" lon="-3.514668960124254">
        <ele>934.10000000000002</ele>
        <time>2018-05-26T10:05:46Z</time>
      </trkpt>
      <trkpt lat="42.048645978793502" lon="-3.514694022014737">
        <ele>935.20000000000005</ele>
        <time>2018-05-26T10:05:49Z</time>
      </trkpt>
      <trkpt lat="42.04855402931571" lon="-3.514709025621414">
        <ele>936.29999999999995</ele>
        <time>2018-05-26T10:05:52Z</time>
      </trkpt>
      <trkpt lat="42.048458978533745" lon="-3.514687987044454">
        <ele>937.5</ele>
        <time>2018-05-26T10:05:55Z</time>
      </trkpt>
      <trkpt lat="42.048359988257289" lon="-3.514668960124254">
        <ele>938.79999999999995</ele>
        <time>2018-05-26T10:05:58Z</time>
      </trkpt>
      <trkpt lat="42.048258986324072" lon="-3.514639958739281">
        <ele>940</ele>
        <time>2018-05-26T10:06:01Z</time>
      </trkpt>
      <trkpt lat="42.048158990219235" lon="-3.514621015638113">
        <ele>941.20000000000005</ele>
        <time>2018-05-26T10:06:04Z</time>
      </trkpt>
      <trkpt lat="42.048070980235934" lon="-3.514595031738281">
        <ele>942.20000000000005</ele>
        <time>2018-05-26T10:06:06Z</time>
      </trkpt>
      <trkpt lat="42.047966038808227" lon="-3.514567958191037">
        <ele>943.5</ele>
        <time>2018-05-26T10:06:09Z</time>
      </trkpt>
      <trkpt lat="42.047870988026261" lon="-3.514556977897883">
        <ele>944.29999999999995</ele>
        <time>2018-05-26T10:06:12Z</time>
      </trkpt>
      <trkpt lat="42.047778032720089" lon="-3.514553038403392">
        <ele>944.79999999999995</ele>
        <time>2018-05-26T10:06:15Z</time>
      </trkpt>
      <trkpt lat="42.047679964452982" lon="-3.514541974291205">
        <ele>945.29999999999995</ele>
        <time>2018-05-26T10:06:18Z</time>
      </trkpt>
      <trkpt lat="42.04758801497519" lon="-3.514521019533277">
        <ele>945.89999999999998</ele>
        <time>2018-05-26T10:06:21Z</time>
      </trkpt>
      <trkpt lat="42.047494975849986" lon="-3.514523031190038">
        <ele>946.29999999999995</ele>
        <time>2018-05-26T10:06:24Z</time>
      </trkpt>
      <trkpt lat="42.047401014715433" lon="-3.514518002048135">
        <ele>946.79999999999995</ele>
        <time>2018-05-26T10:06:26Z</time>
      </trkpt>
      <trkpt lat="42.047306969761848" lon="-3.51452998816967">
        <ele>947.20000000000005</ele>
        <time>2018-05-26T10:06:29Z</time>
      </trkpt>
      <trkpt lat="42.047204039990902" lon="-3.514558989554644">
        <ele>947.5</ele>
        <time>2018-05-26T10:06:32Z</time>
      </trkpt>
      <trkpt lat="42.047092979773879" lon="-3.514566030353308">
        <ele>948</ele>
        <time>2018-05-26T10:06:36Z</time>
      </trkpt>
      <trkpt lat="42.04698896035552" lon="-3.514596037566662">
        <ele>948.39999999999998</ele>
        <time>2018-05-26T10:06:39Z</time>
      </trkpt>
      <trkpt lat="42.046889970079064" lon="-3.514642976224423">
        <ele>949.20000000000005</ele>
        <time>2018-05-26T10:06:42Z</time>
      </trkpt>
      <trkpt lat="42.046785028651357" lon="-3.514649011194706">
        <ele>949.60000000000002</ele>
        <time>2018-05-26T10:06:45Z</time>
      </trkpt>
      <trkpt lat="42.046688972041011" lon="-3.514631995931268">
        <ele>949.79999999999995</ele>
        <time>2018-05-26T10:06:48Z</time>
      </trkpt>
      <trkpt lat="42.046586964279413" lon="-3.514596037566662">
        <ele>949.89999999999998</ele>
        <time>2018-05-26T10:06:51Z</time>
      </trkpt>
      <trkpt lat="42.046497026458383" lon="-3.514564018696547">
        <ele>950.10000000000002</ele>
        <time>2018-05-26T10:06:54Z</time>
      </trkpt>
      <trkpt lat="42.046392001211643" lon="-3.514526970684528">
        <ele>950.39999999999998</ele>
        <time>2018-05-26T10:06:57Z</time>
      </trkpt>
      <trkpt lat="42.046310026198626" lon="-3.514467962086201">
        <ele>950.60000000000002</ele>
        <time>2018-05-26T10:07:00Z</time>
      </trkpt>
      <trkpt lat="42.046226039528847" lon="-3.514395039528608">
        <ele>950.70000000000005</ele>
        <time>2018-05-26T10:07:03Z</time>
      </trkpt>
      <trkpt lat="42.046135012060404" lon="-3.514317004010081">
        <ele>951.10000000000002</ele>
        <time>2018-05-26T10:07:06Z</time>
      </trkpt>
      <trkpt lat="42.046056976541877" lon="-3.514251038432121">
        <ele>951.5</ele>
        <time>2018-05-26T10:07:09Z</time>
      </trkpt>
      <trkpt lat="42.045982964336872" lon="-3.514170991256833">
        <ele>951.79999999999995</ele>
        <time>2018-05-26T10:07:11Z</time>
      </trkpt>
      <trkpt lat="42.04591004177928" lon="-3.514101002365351">
        <ele>952.10000000000002</ele>
        <time>2018-05-26T10:07:14Z</time>
      </trkpt>
      <trkpt lat="42.045819014310837" lon="-3.513995977118611">
        <ele>952.5</ele>
        <time>2018-05-26T10:07:18Z</time>
      </trkpt>
      <trkpt lat="42.045733015984297" lon="-3.513901010155678">
        <ele>953</ele>
        <time>2018-05-26T10:07:21Z</time>
      </trkpt>
      <trkpt lat="42.045653974637389" lon="-3.51379900239408">
        <ele>953.39999999999998</ele>
        <time>2018-05-26T10:07:24Z</time>
      </trkpt>
      <trkpt lat="42.045592032372952" lon="-3.513694982975721">
        <ele>953.89999999999998</ele>
        <time>2018-05-26T10:07:27Z</time>
      </trkpt>
      <trkpt lat="42.045523971319199" lon="-3.513588029891253">
        <ele>954.60000000000002</ele>
        <time>2018-05-26T10:07:30Z</time>
      </trkpt>
      <trkpt lat="42.045449959114194" lon="-3.513487027958036">
        <ele>955.20000000000005</ele>
        <time>2018-05-26T10:07:33Z</time>
      </trkpt>
      <trkpt lat="42.045379970222712" lon="-3.513376973569393">
        <ele>955.70000000000005</ele>
        <time>2018-05-26T10:07:36Z</time>
      </trkpt>
      <trkpt lat="42.045320039615035" lon="-3.513278989121318">
        <ele>956.10000000000002</ele>
        <time>2018-05-26T10:07:39Z</time>
      </trkpt>
      <trkpt lat="42.045269999653101" lon="-3.513166001066566">
        <ele>956.5</ele>
        <time>2018-05-26T10:07:42Z</time>
      </trkpt>
      <trkpt lat="42.045229012146592" lon="-3.513034991919994">
        <ele>956.79999999999995</ele>
        <time>2018-05-26T10:07:45Z</time>
      </trkpt>
      <trkpt lat="42.045174026861787" lon="-3.512904988601804">
        <ele>957.20000000000005</ele>
        <time>2018-05-26T10:07:49Z</time>
      </trkpt>
      <trkpt lat="42.045122981071472" lon="-3.512781020253897">
        <ele>957.39999999999998</ele>
        <time>2018-05-26T10:07:52Z</time>
      </trkpt>
      <trkpt lat="42.045084005221725" lon="-3.512656968086958">
        <ele>957.5</ele>
        <time>2018-05-26T10:07:55Z</time>
      </trkpt>
      <trkpt lat="42.045061960816383" lon="-3.512535011395812">
        <ele>957.5</ele>
        <time>2018-05-26T10:07:57Z</time>
      </trkpt>
      <trkpt lat="42.045040000230074" lon="-3.512399978935719">
        <ele>957.5</ele>
        <time>2018-05-26T10:08:00Z</time>
      </trkpt>
      <trkpt lat="42.045018961653113" lon="-3.51227399893105">
        <ele>957.5</ele>
        <time>2018-05-26T10:08:03Z</time>
      </trkpt>
      <trkpt lat="42.044965988025069" lon="-3.512156987562776">
        <ele>957.70000000000005</ele>
        <time>2018-05-26T10:08:06Z</time>
      </trkpt>
      <trkpt lat="42.044900022447109" lon="-3.512074006721377">
        <ele>957.89999999999998</ele>
        <time>2018-05-26T10:08:09Z</time>
      </trkpt>
      <trkpt lat="42.044820981100202" lon="-3.511998988687992">
        <ele>958.20000000000005</ele>
        <time>2018-05-26T10:08:12Z</time>
      </trkpt>
      <trkpt lat="42.044743029400706" lon="-3.511911984533072">
        <ele>958.5</ele>
        <time>2018-05-26T10:08:15Z</time>
      </trkpt>
      <trkpt lat="42.044673962518573" lon="-3.511821962893009">
        <ele>958.70000000000005</ele>
        <time>2018-05-26T10:08:18Z</time>
      </trkpt>
      <trkpt lat="42.04460397362709" lon="-3.511738982051611">
        <ele>958.89999999999998</ele>
        <time>2018-05-26T10:08:20Z</time>
      </trkpt>
      <trkpt lat="42.044519986957312" lon="-3.511667987331748">
        <ele>959.10000000000002</ele>
        <time>2018-05-26T10:08:23Z</time>
      </trkpt>
      <trkpt lat="42.044445974752307" lon="-3.511591963469982">
        <ele>959.20000000000005</ele>
        <time>2018-05-26T10:08:26Z</time>
      </trkpt>
      <trkpt lat="42.044369028881192" lon="-3.511509988456965">
        <ele>959.29999999999995</ele>
        <time>2018-05-26T10:08:29Z</time>
      </trkpt>
      <trkpt lat="42.044295016676188" lon="-3.51143698208034">
        <ele>959.39999999999998</ele>
        <time>2018-05-26T10:08:32Z</time>
      </trkpt>
      <trkpt lat="42.044218992814422" lon="-3.511366993188858">
        <ele>959.5</ele>
        <time>2018-05-26T10:08:34Z</time>
      </trkpt>
      <trkpt lat="42.044141041114926" lon="-3.511299015954137">
        <ele>959.60000000000002</ele>
        <time>2018-05-26T10:08:37Z</time>
      </trkpt>
      <trkpt lat="42.044045990332961" lon="-3.511228021234274">
        <ele>959.70000000000005</ele>
        <time>2018-05-26T10:08:40Z</time>
      </trkpt>
      <trkpt lat="42.043965021148324" lon="-3.511142022907734">
        <ele>960</ele>
        <time>2018-05-26T10:08:44Z</time>
      </trkpt>
      <trkpt lat="42.043891008943319" lon="-3.511052001267672">
        <ele>960.29999999999995</ele>
        <time>2018-05-26T10:08:46Z</time>
      </trkpt>
      <trkpt lat="42.043839963153005" lon="-3.510947981849313">
        <ele>960.60000000000002</ele>
        <time>2018-05-26T10:08:49Z</time>
      </trkpt>
      <trkpt lat="42.043766034767032" lon="-3.510829964652658">
        <ele>961</ele>
        <time>2018-05-26T10:08:53Z</time>
      </trkpt>
      <trkpt lat="42.043680958449841" lon="-3.510728040710092">
        <ele>961.60000000000002</ele>
        <time>2018-05-26T10:08:56Z</time>
      </trkpt>
      <trkpt lat="42.043596971780062" lon="-3.510659979656339">
        <ele>962.10000000000002</ele>
        <time>2018-05-26T10:08:59Z</time>
      </trkpt>
      <trkpt lat="42.043514996767044" lon="-3.510576998814941">
        <ele>962.70000000000005</ele>
        <time>2018-05-26T10:09:02Z</time>
      </trkpt>
      <trkpt lat="42.043428998440504" lon="-3.510525031015277">
        <ele>963.20000000000005</ele>
        <time>2018-05-26T10:09:05Z</time>
      </trkpt>
      <trkpt lat="42.043343000113964" lon="-3.510478008538485">
        <ele>963.79999999999995</ele>
        <time>2018-05-26T10:09:07Z</time>
      </trkpt>
      <trkpt lat="42.043245015665889" lon="-3.510457975789905">
        <ele>964.29999999999995</ele>
        <time>2018-05-26T10:09:10Z</time>
      </trkpt>
      <trkpt lat="42.043146025389433" lon="-3.510416988283396">
        <ele>964.89999999999998</ele>
        <time>2018-05-26T10:09:13Z</time>
      </trkpt>
      <trkpt lat="42.043059021234512" lon="-3.510378012433648">
        <ele>965.5</ele>
        <time>2018-05-26T10:09:16Z</time>
      </trkpt>
      <trkpt lat="42.04296899959445" lon="-3.510335013270378">
        <ele>966.20000000000005</ele>
        <time>2018-05-26T10:09:19Z</time>
      </trkpt>
      <trkpt lat="42.042874032631516" lon="-3.510310035198927">
        <ele>966.89999999999998</ele>
        <time>2018-05-26T10:09:22Z</time>
      </trkpt>
      <trkpt lat="42.042780993506312" lon="-3.510286984965205">
        <ele>967.60000000000002</ele>
        <time>2018-05-26T10:09:25Z</time>
      </trkpt>
      <trkpt lat="42.042687032371759" lon="-3.510240968316793">
        <ele>968.39999999999998</ele>
        <time>2018-05-26T10:09:28Z</time>
      </trkpt>
      <trkpt lat="42.042598016560078" lon="-3.51018900051713">
        <ele>969.20000000000005</ele>
        <time>2018-05-26T10:09:31Z</time>
      </trkpt>
      <trkpt lat="42.042514029890299" lon="-3.510138038545847">
        <ele>969.89999999999998</ele>
        <time>2018-05-26T10:09:33Z</time>
      </trkpt>
      <trkpt lat="42.042421996593475" lon="-3.510100990533829">
        <ele>970.60000000000002</ele>
        <time>2018-05-26T10:09:36Z</time>
      </trkpt>
      <trkpt lat="42.042329041287303" lon="-3.510074000805616">
        <ele>971.29999999999995</ele>
        <time>2018-05-26T10:09:39Z</time>
      </trkpt>
      <trkpt lat="42.042242959141731" lon="-3.510009963065386">
        <ele>972.10000000000002</ele>
        <time>2018-05-26T10:09:42Z</time>
      </trkpt>
      <trkpt lat="42.042150003835559" lon="-3.50995103828609">
        <ele>972.89999999999998</ele>
        <time>2018-05-26T10:09:45Z</time>
      </trkpt>
      <trkpt lat="42.042049001902342" lon="-3.509908961132169">
        <ele>973.79999999999995</ele>
        <time>2018-05-26T10:09:48Z</time>
      </trkpt>
      <trkpt lat="42.041960991919041" lon="-3.509869985282421">
        <ele>974.89999999999998</ele>
        <time>2018-05-26T10:09:51Z</time>
      </trkpt>
      <trkpt lat="42.041869964450598" lon="-3.509854981675744">
        <ele>975.89999999999998</ele>
        <time>2018-05-26T10:09:54Z</time>
      </trkpt>
      <trkpt lat="42.041768962517381" lon="-3.509813994169235">
        <ele>977.10000000000002</ele>
        <time>2018-05-26T10:09:57Z</time>
      </trkpt>
      <trkpt lat="42.041683970019221" lon="-3.509752973914146">
        <ele>978.20000000000005</ele>
        <time>2018-05-26T10:10:00Z</time>
      </trkpt>
      <trkpt lat="42.041586991399527" lon="-3.509722966700792">
        <ele>979.29999999999995</ele>
        <time>2018-05-26T10:10:03Z</time>
      </trkpt>
      <trkpt lat="42.041494958102703" lon="-3.509692037478089">
        <ele>980.29999999999995</ele>
        <time>2018-05-26T10:10:05Z</time>
      </trkpt>
      <trkpt lat="42.041406026110053" lon="-3.509654989466071">
        <ele>981.29999999999995</ele>
        <time>2018-05-26T10:10:08Z</time>
      </trkpt>
      <trkpt lat="42.041317010298371" lon="-3.509591035544872">
        <ele>982.29999999999995</ele>
        <time>2018-05-26T10:10:11Z</time>
      </trkpt>
      <trkpt lat="42.041224977001548" lon="-3.509561028331518">
        <ele>983.29999999999995</ele>
        <time>2018-05-26T10:10:14Z</time>
      </trkpt>
      <trkpt lat="42.041132021695375" lon="-3.509524986147881">
        <ele>984.29999999999995</ele>
        <time>2018-05-26T10:10:17Z</time>
      </trkpt>
      <trkpt lat="42.04103697091341" lon="-3.509494978934526">
        <ele>985.20000000000005</ele>
        <time>2018-05-26T10:10:20Z</time>
      </trkpt>
      <trkpt lat="42.040936974808574" lon="-3.509454997256398">
        <ele>986.10000000000002</ele>
        <time>2018-05-26T10:10:23Z</time>
      </trkpt>
      <trkpt lat="42.040849970653653" lon="-3.509407974779606">
        <ele>986.70000000000005</ele>
        <time>2018-05-26T10:10:26Z</time>
      </trkpt>
      <trkpt lat="42.040771013125777" lon="-3.509338991716504">
        <ele>987.10000000000002</ele>
        <time>2018-05-26T10:10:28Z</time>
      </trkpt>
      <trkpt lat="42.040695995092392" lon="-3.50924301892519">
        <ele>987.10000000000002</ele>
        <time>2018-05-26T10:10:31Z</time>
      </trkpt>
      <trkpt lat="42.040607985109091" lon="-3.509170012548566">
        <ele>987.10000000000002</ele>
        <time>2018-05-26T10:10:35Z</time>
      </trkpt>
      <trkpt lat="42.040527015924454" lon="-3.509083008393645">
        <ele>986.79999999999995</ele>
        <time>2018-05-26T10:10:38Z</time>
      </trkpt>
      <trkpt lat="42.040463984012604" lon="-3.508976977318525">
        <ele>986.10000000000002</ele>
        <time>2018-05-26T10:10:41Z</time>
      </trkpt>
      <trkpt lat="42.04041101038456" lon="-3.508857032284141">
        <ele>984.89999999999998</ele>
        <time>2018-05-26T10:10:44Z</time>
      </trkpt>
      <trkpt lat="42.040336998179555" lon="-3.508755024522543">
        <ele>982.39999999999998</ele>
        <time>2018-05-26T10:10:47Z</time>
      </trkpt>
      <trkpt lat="42.040243037045002" lon="-3.508789977058768">
        <ele>981</ele>
        <time>2018-05-26T10:10:50Z</time>
      </trkpt>
      <trkpt lat="42.040129965171218" lon="-3.508777990937233">
        <ele>978.60000000000002</ele>
        <time>2018-05-26T10:10:53Z</time>
      </trkpt>
      <trkpt lat="42.040005996823311" lon="-3.508811015635729">
        <ele>976.79999999999995</ele>
        <time>2018-05-26T10:10:57Z</time>
      </trkpt>
      <trkpt lat="42.039883034303784" lon="-3.508842028677464">
        <ele>975.10000000000002</ele>
        <time>2018-05-26T10:11:01Z</time>
      </trkpt>
      <trkpt lat="42.039787983521819" lon="-3.508868012577295">
        <ele>973.89999999999998</ele>
        <time>2018-05-26T10:11:04Z</time>
      </trkpt>
      <trkpt lat="42.03968396410346" lon="-3.50889902561903">
        <ele>972.89999999999998</ele>
        <time>2018-05-26T10:11:07Z</time>
      </trkpt>
      <trkpt lat="42.039563013240695" lon="-3.508943030610681">
        <ele>971.89999999999998</ele>
        <time>2018-05-26T10:11:11Z</time>
      </trkpt>
      <trkpt lat="42.039451031014323" lon="-3.509005978703499">
        <ele>971.29999999999995</ele>
        <time>2018-05-26T10:11:14Z</time>
      </trkpt>
      <trkpt lat="42.0393399707973" lon="-3.509094994515181">
        <ele>971.39999999999998</ele>
        <time>2018-05-26T10:11:18Z</time>
      </trkpt>
      <trkpt lat="42.039240980520844" lon="-3.509168000891805">
        <ele>971.39999999999998</ele>
        <time>2018-05-26T10:11:21Z</time>
      </trkpt>
      <trkpt lat="42.03912497498095" lon="-3.509245030581951">
        <ele>971</ele>
        <time>2018-05-26T10:11:25Z</time>
      </trkpt>
      <trkpt lat="42.039017016068101" lon="-3.509330023080111">
        <ele>971</ele>
        <time>2018-05-26T10:11:29Z</time>
      </trkpt>
      <trkpt lat="42.038925988599658" lon="-3.509370004758239">
        <ele>970.10000000000002</ele>
        <time>2018-05-26T10:11:32Z</time>
      </trkpt>
      <trkpt lat="42.038816018030047" lon="-3.509409986436367">
        <ele>968.79999999999995</ele>
        <time>2018-05-26T10:11:35Z</time>
      </trkpt>
      <trkpt lat="42.038710992783308" lon="-3.509448040276766">
        <ele>967.29999999999995</ele>
        <time>2018-05-26T10:11:38Z</time>
      </trkpt>
      <trkpt lat="42.038618959486485" lon="-3.509471006691456">
        <ele>965.20000000000005</ele>
        <time>2018-05-26T10:11:41Z</time>
      </trkpt>
      <trkpt lat="42.038524998351932" lon="-3.509481986984611">
        <ele>962.79999999999995</ele>
        <time>2018-05-26T10:11:44Z</time>
      </trkpt>
      <trkpt lat="42.038422990590334" lon="-3.509496990591288">
        <ele>960.29999999999995</ele>
        <time>2018-05-26T10:11:47Z</time>
      </trkpt>
      <trkpt lat="42.038314025849104" lon="-3.509509982541204">
        <ele>957.5</ele>
        <time>2018-05-26T10:11:50Z</time>
      </trkpt>
      <trkpt lat="42.038214029744267" lon="-3.509542001411319">
        <ele>955.39999999999998</ele>
        <time>2018-05-26T10:11:54Z</time>
      </trkpt>
      <trkpt lat="42.038126019760966" lon="-3.509581983089447">
        <ele>954</ele>
        <time>2018-05-26T10:11:56Z</time>
      </trkpt>
      <trkpt lat="42.038055025041103" lon="-3.509666975587606">
        <ele>954.20000000000005</ele>
        <time>2018-05-26T10:11:59Z</time>
      </trkpt>
      <trkpt lat="42.037989981472492" lon="-3.509767977520824">
        <ele>955.10000000000002</ele>
        <time>2018-05-26T10:12:02Z</time>
      </trkpt>
      <trkpt lat="42.037928961217403" lon="-3.509895969182253">
        <ele>957</ele>
        <time>2018-05-26T10:12:05Z</time>
      </trkpt>
      <trkpt lat="42.037862995639443" lon="-3.509986996650696">
        <ele>957.70000000000005</ele>
        <time>2018-05-26T10:12:08Z</time>
      </trkpt>
      <trkpt lat="42.037783032283187" lon="-3.510052962228656">
        <ele>957.5</ele>
        <time>2018-05-26T10:12:11Z</time>
      </trkpt>
      <trkpt lat="42.037695022299886" lon="-3.510108031332493">
        <ele>956.79999999999995</ele>
        <time>2018-05-26T10:12:14Z</time>
      </trkpt>
      <trkpt lat="42.037588991224766" lon="-3.510153964161873">
        <ele>955.5</ele>
        <time>2018-05-26T10:12:17Z</time>
      </trkpt>
      <trkpt lat="42.037481032311916" lon="-3.510199980810285">
        <ele>954.29999999999995</ele>
        <time>2018-05-26T10:12:21Z</time>
      </trkpt>
      <trkpt lat="42.037372989580035" lon="-3.510261001065373">
        <ele>953.60000000000002</ele>
        <time>2018-05-26T10:12:24Z</time>
      </trkpt>
      <trkpt lat="42.037280034273863" lon="-3.510327972471714">
        <ele>953.5</ele>
        <time>2018-05-26T10:12:27Z</time>
      </trkpt>
      <trkpt lat="42.037169979885221" lon="-3.510409025475383">
        <ele>953.70000000000005</ele>
        <time>2018-05-26T10:12:31Z</time>
      </trkpt>
      <trkpt lat="42.037050034850836" lon="-3.510481026023626">
        <ele>952.79999999999995</ele>
        <time>2018-05-26T10:12:35Z</time>
      </trkpt>
      <trkpt lat="42.036936040967703" lon="-3.510512039065361">
        <ele>950.29999999999995</ele>
        <time>2018-05-26T10:12:38Z</time>
      </trkpt>
      <trkpt lat="42.036846019327641" lon="-3.510536011308432">
        <ele>948.39999999999998</ele>
        <time>2018-05-26T10:12:41Z</time>
      </trkpt>
      <trkpt lat="42.036744011566043" lon="-3.510569036006928">
        <ele>946.39999999999998</ele>
        <time>2018-05-26T10:12:44Z</time>
      </trkpt>
      <trkpt lat="42.036632029339671" lon="-3.510601976886392">
        <ele>944.20000000000005</ele>
        <time>2018-05-26T10:12:48Z</time>
      </trkpt>
      <trkpt lat="42.036527004092932" lon="-3.510643970221281">
        <ele>942.5</ele>
        <time>2018-05-26T10:12:51Z</time>
      </trkpt>
      <trkpt lat="42.036436982452869" lon="-3.510691998526454">
        <ele>941.5</ele>
        <time>2018-05-26T10:12:54Z</time>
      </trkpt>
      <trkpt lat="42.036356013268232" lon="-3.510750001296401">
        <ele>941.10000000000002</ele>
        <time>2018-05-26T10:12:57Z</time>
      </trkpt>
      <trkpt lat="42.036266997456551" lon="-3.510803980752826">
        <ele>940.5</ele>
        <time>2018-05-26T10:12:59Z</time>
      </trkpt>
      <trkpt lat="42.036158032715321" lon="-3.510870030149818">
        <ele>940.89999999999998</ele>
        <time>2018-05-26T10:13:03Z</time>
      </trkpt>
      <trkpt lat="42.036061976104975" lon="-3.510915962979198">
        <ele>940.89999999999998</ele>
        <time>2018-05-26T10:13:06Z</time>
      </trkpt>
      <trkpt lat="42.035916969180107" lon="-3.510888973250985">
        <ele>937.79999999999995</ele>
        <time>2018-05-26T10:13:10Z</time>
      </trkpt>
      <trkpt lat="42.035809010267258" lon="-3.510888973250985">
        <ele>936.20000000000005</ele>
        <time>2018-05-26T10:13:14Z</time>
      </trkpt>
      <trkpt lat="42.0356410369277" lon="-3.510959967970848">
        <ele>935.79999999999995</ele>
        <time>2018-05-26T10:13:19Z</time>
      </trkpt>
      <trkpt lat="42.035560989752412" lon="-3.511021994054318">
        <ele>936.39999999999998</ele>
        <time>2018-05-26T10:13:22Z</time>
      </trkpt>
      <trkpt lat="42.035466022789478" lon="-3.5110919829458">
        <ele>937.10000000000002</ele>
        <time>2018-05-26T10:13:25Z</time>
      </trkpt>
      <trkpt lat="42.035369966179132" lon="-3.511115033179522">
        <ele>936.29999999999995</ele>
        <time>2018-05-26T10:13:28Z</time>
      </trkpt>
      <trkpt lat="42.035243986174464" lon="-3.511142022907734">
        <ele>935.20000000000005</ele>
        <time>2018-05-26T10:13:32Z</time>
      </trkpt>
      <trkpt lat="42.035094033926725" lon="-3.511141017079353">
        <ele>932.89999999999998</ele>
        <time>2018-05-26T10:13:36Z</time>
      </trkpt>
      <trkpt lat="42.034949027001858" lon="-3.511163983494043">
        <ele>931.29999999999995</ele>
        <time>2018-05-26T10:13:40Z</time>
      </trkpt>
      <trkpt lat="42.034832015633583" lon="-3.511185022071004">
        <ele>930.10000000000002</ele>
        <time>2018-05-26T10:13:44Z</time>
      </trkpt>
      <trkpt lat="42.034724978730083" lon="-3.511212011799216">
        <ele>929.20000000000005</ele>
        <time>2018-05-26T10:13:47Z</time>
      </trkpt>
      <trkpt lat="42.034602016210556" lon="-3.511270014569163">
        <ele>928.79999999999995</ele>
        <time>2018-05-26T10:13:51Z</time>
      </trkpt>
      <trkpt lat="42.034494979307055" lon="-3.511266997084022">
        <ele>927.79999999999995</ele>
        <time>2018-05-26T10:13:54Z</time>
      </trkpt>
      <trkpt lat="42.034391965717077" lon="-3.51126498542726">
        <ele>927</ele>
        <time>2018-05-26T10:13:57Z</time>
      </trkpt>
      <trkpt lat="42.034291969612241" lon="-3.511225003749132">
        <ele>925.29999999999995</ele>
        <time>2018-05-26T10:14:00Z</time>
      </trkpt>
      <trkpt lat="42.034192979335785" lon="-3.511187033727765">
        <ele>923.60000000000002</ele>
        <time>2018-05-26T10:14:03Z</time>
      </trkpt>
      <trkpt lat="42.034087032079697" lon="-3.511186027899385">
        <ele>922.79999999999995</ele>
        <time>2018-05-26T10:14:07Z</time>
      </trkpt>
      <trkpt lat="42.033994998782873" lon="-3.511202037334442">
        <ele>922.5</ele>
        <time>2018-05-26T10:14:09Z</time>
      </trkpt>
      <trkpt lat="42.033876981586218" lon="-3.511201031506062">
        <ele>921.70000000000005</ele>
        <time>2018-05-26T10:14:13Z</time>
      </trkpt>
      <trkpt lat="42.033737003803253" lon="-3.511174963787198">
        <ele>919.89999999999998</ele>
        <time>2018-05-26T10:14:17Z</time>
      </trkpt>
      <trkpt lat="42.03364203684032" lon="-3.511165995150805">
        <ele>918.10000000000002</ele>
        <time>2018-05-26T10:14:20Z</time>
      </trkpt>
      <trkpt lat="42.033543968573213" lon="-3.511159960180521">
        <ele>916.29999999999995</ele>
        <time>2018-05-26T10:14:23Z</time>
      </trkpt>
      <trkpt lat="42.033443972468376" lon="-3.511151997372508">
        <ele>914.5</ele>
        <time>2018-05-26T10:14:26Z</time>
      </trkpt>
      <trkpt lat="42.033349005505443" lon="-3.511150991544128">
        <ele>913</ele>
        <time>2018-05-26T10:14:29Z</time>
      </trkpt>
      <trkpt lat="42.033250015228987" lon="-3.511150991544128">
        <ele>911.39999999999998</ele>
        <time>2018-05-26T10:14:32Z</time>
      </trkpt>
      <trkpt lat="42.03315001912415" lon="-3.511145040392876">
        <ele>909.60000000000002</ele>
        <time>2018-05-26T10:14:35Z</time>
      </trkpt>
      <trkpt lat="42.033053040504456" lon="-3.511131964623928">
        <ele>907.89999999999998</ele>
        <time>2018-05-26T10:14:38Z</time>
      </trkpt>
      <trkpt lat="42.032924965023994" lon="-3.511114027351141">
        <ele>905.70000000000005</ele>
        <time>2018-05-26T10:14:41Z</time>
      </trkpt>
      <trkpt lat="42.032823041081429" lon="-3.511084020137787">
        <ele>905.39999999999998</ele>
        <time>2018-05-26T10:14:45Z</time>
      </trkpt>
      <trkpt lat="42.032709969207644" lon="-3.511061975732446">
        <ele>905.39999999999998</ele>
        <time>2018-05-26T10:14:48Z</time>
      </trkpt>
      <trkpt lat="42.032599998638034" lon="-3.511044038459659">
        <ele>905.39999999999998</ele>
        <time>2018-05-26T10:14:51Z</time>
      </trkpt>
      <trkpt lat="42.032491033896804" lon="-3.511039009317756">
        <ele>905.60000000000002</ele>
        <time>2018-05-26T10:14:54Z</time>
      </trkpt>
      <trkpt lat="42.032382991164923" lon="-3.511025011539459">
        <ele>905.70000000000005</ele>
        <time>2018-05-26T10:14:58Z</time>
      </trkpt>
      <trkpt lat="42.032279977574944" lon="-3.510998021811247">
        <ele>905.70000000000005</ele>
        <time>2018-05-26T10:15:01Z</time>
      </trkpt>
      <trkpt lat="42.032180987298489" lon="-3.510961979627609">
        <ele>905.70000000000005</ele>
        <time>2018-05-26T10:15:04Z</time>
      </trkpt>
      <trkpt lat="42.032073028385639" lon="-3.510912023484707">
        <ele>905.60000000000002</ele>
        <time>2018-05-26T10:15:07Z</time>
      </trkpt>
      <trkpt lat="42.031958028674126" lon="-3.510888973250985">
        <ele>906.10000000000002</ele>
        <time>2018-05-26T10:15:11Z</time>
      </trkpt>
      <trkpt lat="42.031853003427386" lon="-3.510848991572857">
        <ele>906.39999999999998</ele>
        <time>2018-05-26T10:15:14Z</time>
      </trkpt>
      <trkpt lat="42.031747978180647" lon="-3.510813033208251">
        <ele>906.60000000000002</ele>
        <time>2018-05-26T10:15:17Z</time>
      </trkpt>
      <trkpt lat="42.031653011217713" lon="-3.510816972702742">
        <ele>907.20000000000005</ele>
        <time>2018-05-26T10:15:20Z</time>
      </trkpt>
      <trkpt lat="42.031546980142593" lon="-3.510762993246317">
        <ele>907.10000000000002</ele>
        <time>2018-05-26T10:15:23Z</time>
      </trkpt>
      <trkpt lat="42.031445978209376" lon="-3.510736003518105">
        <ele>907.29999999999995</ele>
        <time>2018-05-26T10:15:26Z</time>
      </trkpt>
      <trkpt lat="42.031358974054456" lon="-3.510650005191565">
        <ele>906.60000000000002</ele>
        <time>2018-05-26T10:15:29Z</time>
      </trkpt>
      <trkpt lat="42.03128001652658" lon="-3.510590996593237">
        <ele>906.20000000000005</ele>
        <time>2018-05-26T10:15:32Z</time>
      </trkpt>
      <trkpt lat="42.031185971572995" lon="-3.510527964681387">
        <ele>905.70000000000005</ele>
        <time>2018-05-26T10:15:35Z</time>
      </trkpt>
      <trkpt lat="42.031086981296539" lon="-3.510466022416949">
        <ele>905.20000000000005</ele>
        <time>2018-05-26T10:15:38Z</time>
      </trkpt>
      <trkpt lat="42.030987991020083" lon="-3.510386981070042">
        <ele>904.79999999999995</ele>
        <time>2018-05-26T10:15:42Z</time>
      </trkpt>
      <trkpt lat="42.030889000743628" lon="-3.510393016040325">
        <ele>905.20000000000005</ele>
        <time>2018-05-26T10:15:45Z</time>
      </trkpt>
      <trkpt lat="42.030791016295552" lon="-3.510341970250011">
        <ele>905.29999999999995</ele>
        <time>2018-05-26T10:15:48Z</time>
      </trkpt>
      <trkpt lat="42.030685991048813" lon="-3.510280027985573">
        <ele>905.29999999999995</ele>
        <time>2018-05-26T10:15:51Z</time>
      </trkpt>
      <trkpt lat="42.030594041571021" lon="-3.510224958881736">
        <ele>905.39999999999998</ele>
        <time>2018-05-26T10:15:54Z</time>
      </trkpt>
      <trkpt lat="42.030525980517268" lon="-3.510137032717466">
        <ele>905.20000000000005</ele>
        <time>2018-05-26T10:15:57Z</time>
      </trkpt>
      <trkpt lat="42.030459009110928" lon="-3.510047011077404">
        <ele>905.10000000000002</ele>
        <time>2018-05-26T10:16:00Z</time>
      </trkpt>
      <trkpt lat="42.030386002734303" lon="-3.509949026629329">
        <ele>904.89999999999998</ele>
        <time>2018-05-26T10:16:03Z</time>
      </trkpt>
      <trkpt lat="42.030316013842821" lon="-3.509865961968899">
        <ele>904.79999999999995</ele>
        <time>2018-05-26T10:16:06Z</time>
      </trkpt>
      <trkpt lat="42.030254993587732" lon="-3.509736964479089">
        <ele>904.39999999999998</ele>
        <time>2018-05-26T10:16:09Z</time>
      </trkpt>
      <trkpt lat="42.030201014131308" lon="-3.509629005566239">
        <ele>904</ele>
        <time>2018-05-26T10:16:12Z</time>
      </trkpt>
      <trkpt lat="42.030145023018122" lon="-3.509508976712823">
        <ele>903.79999999999995</ele>
        <time>2018-05-26T10:16:15Z</time>
      </trkpt>
      <trkpt lat="42.030123984441161" lon="-3.509370004758239">
        <ele>903.5</ele>
        <time>2018-05-26T10:16:18Z</time>
      </trkpt>
      <trkpt lat="42.030133958905935" lon="-3.509247964248061">
        <ele>903.10000000000002</ele>
        <time>2018-05-26T10:16:21Z</time>
      </trkpt>
      <trkpt lat="42.03014200553298" lon="-3.509083008393645">
        <ele>902.60000000000002</ele>
        <time>2018-05-26T10:16:25Z</time>
      </trkpt>
      <trkpt lat="42.030157009139657" lon="-3.508961973711848">
        <ele>902.20000000000005</ele>
        <time>2018-05-26T10:16:27Z</time>
      </trkpt>
      <trkpt lat="42.030134964734316" lon="-3.508815038949251">
        <ele>901.89999999999998</ele>
        <time>2018-05-26T10:16:31Z</time>
      </trkpt>
      <trkpt lat="42.030113004148006" lon="-3.508676989004016">
        <ele>901.60000000000002</ele>
        <time>2018-05-26T10:16:34Z</time>
      </trkpt>
      <trkpt lat="42.03007897362113" lon="-3.50851496681571">
        <ele>901.39999999999998</ele>
        <time>2018-05-26T10:16:37Z</time>
      </trkpt>
      <trkpt lat="42.030048966407776" lon="-3.508355962112546">
        <ele>901.10000000000002</ele>
        <time>2018-05-26T10:16:41Z</time>
      </trkpt>
      <trkpt lat="42.03003304079175" lon="-3.508186982944608">
        <ele>900.89999999999998</ele>
        <time>2018-05-26T10:16:45Z</time>
      </trkpt>
      <trkpt lat="42.030003033578396" lon="-3.508024038746953">
        <ele>900.70000000000005</ele>
        <time>2018-05-26T10:16:48Z</time>
      </trkpt>
      <trkpt lat="42.029991969466209" lon="-3.507897974923253">
        <ele>900.5</ele>
        <time>2018-05-26T10:16:51Z</time>
      </trkpt>
      <trkpt lat="42.029959028586745" lon="-3.507774006575346">
        <ele>900.5</ele>
        <time>2018-05-26T10:16:54Z</time>
      </trkpt>
      <trkpt lat="42.029948970302939" lon="-3.507647020742297">
        <ele>900.39999999999998</ele>
        <time>2018-05-26T10:16:57Z</time>
      </trkpt>
      <trkpt lat="42.029912006109953" lon="-3.507476029917598">
        <ele>900.29999999999995</ele>
        <time>2018-05-26T10:17:01Z</time>
      </trkpt>
      <trkpt lat="42.029886022210121" lon="-3.507318031042814">
        <ele>900.20000000000005</ele>
        <time>2018-05-26T10:17:04Z</time>
      </trkpt>
      <trkpt lat="42.029900019988418" lon="-3.50718098692596">
        <ele>900</ele>
        <time>2018-05-26T10:17:07Z</time>
      </trkpt>
      <trkpt lat="42.029903037473559" lon="-3.506893990561366">
        <ele>900.39999999999998</ele>
        <time>2018-05-26T10:17:14Z</time>
      </trkpt>
      <trkpt lat="42.029908988624811" lon="-3.506768010556698">
        <ele>900.70000000000005</ele>
        <time>2018-05-26T10:17:17Z</time>
      </trkpt>
      <trkpt lat="42.029907982796431" lon="-3.506615040823817">
        <ele>901.10000000000002</ele>
        <time>2018-05-26T10:17:20Z</time>
      </trkpt>
      <trkpt lat="42.029881998896599" lon="-3.506485959514976">
        <ele>901.60000000000002</ele>
        <time>2018-05-26T10:17:23Z</time>
      </trkpt>
      <trkpt lat="42.029872024431825" lon="-3.506357967853546">
        <ele>902</ele>
        <time>2018-05-26T10:17:26Z</time>
      </trkpt>
      <trkpt lat="42.029890967532992" lon="-3.506231987848878">
        <ele>902.20000000000005</ele>
        <time>2018-05-26T10:17:29Z</time>
      </trkpt>
      <trkpt lat="42.029903037473559" lon="-3.506097039207816">
        <ele>902.20000000000005</ele>
        <time>2018-05-26T10:17:32Z</time>
      </trkpt>
      <trkpt lat="42.029935978353024" lon="-3.50593501701951">
        <ele>902</ele>
        <time>2018-05-26T10:17:35Z</time>
      </trkpt>
      <trkpt lat="42.029969003051519" lon="-3.505794033408165">
        <ele>901.89999999999998</ele>
        <time>2018-05-26T10:17:38Z</time>
      </trkpt>
      <trkpt lat="42.030015019699931" lon="-3.505679033696652">
        <ele>901.79999999999995</ele>
        <time>2018-05-26T10:17:41Z</time>
      </trkpt>
      <trkpt lat="42.030063970014453" lon="-3.505573002621532">
        <ele>901.60000000000002</ele>
        <time>2018-05-26T10:17:44Z</time>
      </trkpt>
      <trkpt lat="42.030118033289909" lon="-3.505467977374792">
        <ele>901.39999999999998</ele>
        <time>2018-05-26T10:17:47Z</time>
      </trkpt>
      <trkpt lat="42.030145023018122" lon="-3.50533302873373">
        <ele>901.39999999999998</ele>
        <time>2018-05-26T10:17:50Z</time>
      </trkpt>
      <trkpt lat="42.030165977776051" lon="-3.505207970738411">
        <ele>901.5</ele>
        <time>2018-05-26T10:17:53Z</time>
      </trkpt>
      <trkpt lat="42.030197996646166" lon="-3.505041003227234">
        <ele>901.60000000000002</ele>
        <time>2018-05-26T10:17:57Z</time>
      </trkpt>
      <trkpt lat="42.030221968889236" lon="-3.504907982423902">
        <ele>901.70000000000005</ele>
        <time>2018-05-26T10:18:00Z</time>
      </trkpt>
      <trkpt lat="42.030205959454179" lon="-3.504750989377499">
        <ele>902</ele>
        <time>2018-05-26T10:18:03Z</time>
      </trkpt>
      <trkpt lat="42.030197996646166" lon="-3.504621991887689">
        <ele>902.20000000000005</ele>
        <time>2018-05-26T10:18:06Z</time>
      </trkpt>
      <trkpt lat="42.030168995261192" lon="-3.504740009084344">
        <ele>902.10000000000002</ele>
        <time>2018-05-26T10:18:09Z</time>
      </trkpt>
      <trkpt lat="42.030178969725966" lon="-3.504864983260632">
        <ele>901.89999999999998</ele>
        <time>2018-05-26T10:18:11Z</time>
      </trkpt>
      <trkpt lat="42.030177963897586" lon="-3.504993980750442">
        <ele>901.70000000000005</ele>
        <time>2018-05-26T10:18:14Z</time>
      </trkpt>
      <trkpt lat="42.030177041888237" lon="-3.505123984068632">
        <ele>901.5</ele>
        <time>2018-05-26T10:18:17Z</time>
      </trkpt>
      <trkpt lat="42.03016497194767" lon="-3.505252981558442">
        <ele>901.39999999999998</ele>
        <time>2018-05-26T10:18:20Z</time>
      </trkpt>
      <trkpt lat="42.030150974169374" lon="-3.505402011796832">
        <ele>901.29999999999995</ele>
        <time>2018-05-26T10:18:23Z</time>
      </trkpt>
      <trkpt lat="42.030119961127639" lon="-3.505532015115023">
        <ele>901.29999999999995</ele>
        <time>2018-05-26T10:18:26Z</time>
      </trkpt>
      <trkpt lat="42.030060030519962" lon="-3.505672998726368">
        <ele>901.5</ele>
        <time>2018-05-26T10:18:30Z</time>
      </trkpt>
      <trkpt lat="42.030018959194422" lon="-3.505807025358081">
        <ele>901.70000000000005</ele>
        <time>2018-05-26T10:18:33Z</time>
      </trkpt>
      <trkpt lat="42.029990963637829" lon="-3.505948008969426">
        <ele>901.70000000000005</ele>
        <time>2018-05-26T10:18:36Z</time>
      </trkpt>
      <trkpt lat="42.029917035251856" lon="-3.506022021174431">
        <ele>902.10000000000002</ele>
        <time>2018-05-26T10:18:39Z</time>
      </trkpt>
      <trkpt lat="42.029811004176736" lon="-3.506070971488953">
        <ele>902.70000000000005</ele>
        <time>2018-05-26T10:18:42Z</time>
      </trkpt>
      <trkpt lat="42.029726011678576" lon="-3.506123023107648">
        <ele>903.20000000000005</ele>
        <time>2018-05-26T10:18:45Z</time>
      </trkpt>
      <trkpt lat="42.029642025008798" lon="-3.506178008392453">
        <ele>903.70000000000005</ele>
        <time>2018-05-26T10:18:48Z</time>
      </trkpt>
      <trkpt lat="42.029556026682258" lon="-3.506254032254219">
        <ele>903.89999999999998</ele>
        <time>2018-05-26T10:18:51Z</time>
      </trkpt>
      <trkpt lat="42.029463993385434" lon="-3.506354028359056">
        <ele>903.29999999999995</ele>
        <time>2018-05-26T10:18:54Z</time>
      </trkpt>
      <trkpt lat="42.029376989230514" lon="-3.506443966180086">
        <ele>902.79999999999995</ele>
        <time>2018-05-26T10:18:58Z</time>
      </trkpt>
      <trkpt lat="42.029288979247212" lon="-3.506540022790432">
        <ele>902.39999999999998</ele>
        <time>2018-05-26T10:19:01Z</time>
      </trkpt>
      <trkpt lat="42.029205998405814" lon="-3.506628032773733">
        <ele>902.10000000000002</ele>
        <time>2018-05-26T10:19:04Z</time>
      </trkpt>
      <trkpt lat="42.029118994250894" lon="-3.506689975038171">
        <ele>901.89999999999998</ele>
        <time>2018-05-26T10:19:07Z</time>
      </trkpt>
      <trkpt lat="42.029015980660915" lon="-3.506763987243176">
        <ele>901.79999999999995</ele>
        <time>2018-05-26T10:19:11Z</time>
      </trkpt>
      <trkpt lat="42.02891799621284" lon="-3.50683799944818">
        <ele>901.70000000000005</ele>
        <time>2018-05-26T10:19:14Z</time>
      </trkpt>
      <trkpt lat="42.028825962916017" lon="-3.506915029138327">
        <ele>901.79999999999995</ele>
        <time>2018-05-26T10:19:17Z</time>
      </trkpt>
      <trkpt lat="42.028737030923367" lon="-3.50700899027288">
        <ele>902</ele>
        <time>2018-05-26T10:19:20Z</time>
      </trkpt>
      <trkpt lat="42.028638040646911" lon="-3.507055006921291">
        <ele>902.5</ele>
        <time>2018-05-26T10:19:24Z</time>
      </trkpt>
      <trkpt lat="42.028556987643242" lon="-3.50711896084249">
        <ele>902.89999999999998</ele>
        <time>2018-05-26T10:19:26Z</time>
      </trkpt>
      <trkpt lat="42.028469983488321" lon="-3.50718098692596">
        <ele>903.29999999999995</ele>
        <time>2018-05-26T10:19:29Z</time>
      </trkpt>
      <trkpt lat="42.028356995433569" lon="-3.507247036322951">
        <ele>903.70000000000005</ele>
        <time>2018-05-26T10:19:33Z</time>
      </trkpt>
      <trkpt lat="42.02827200293541" lon="-3.507290035486221">
        <ele>904</ele>
        <time>2018-05-26T10:19:36Z</time>
      </trkpt>
      <trkpt lat="42.02818701043725" lon="-3.507337979972363">
        <ele>904.29999999999995</ele>
        <time>2018-05-26T10:19:38Z</time>
      </trkpt>
      <trkpt lat="42.028094977140427" lon="-3.507369998842478">
        <ele>904.60000000000002</ele>
        <time>2018-05-26T10:19:41Z</time>
      </trkpt>
      <trkpt lat="42.028006967157125" lon="-3.507401011884213">
        <ele>904.89999999999998</ele>
        <time>2018-05-26T10:19:44Z</time>
      </trkpt>
      <trkpt lat="42.027899008244276" lon="-3.507434958592057">
        <ele>905.29999999999995</ele>
        <time>2018-05-26T10:19:47Z</time>
      </trkpt>
      <trkpt lat="42.027802029624581" lon="-3.507468989118934">
        <ele>906.10000000000002</ele>
        <time>2018-05-26T10:19:50Z</time>
      </trkpt>
      <trkpt lat="42.027717037126422" lon="-3.507510982453823">
        <ele>906.79999999999995</ele>
        <time>2018-05-26T10:19:53Z</time>
      </trkpt>
      <trkpt lat="42.027615029364824" lon="-3.507575020194054">
        <ele>907.39999999999998</ele>
        <time>2018-05-26T10:19:56Z</time>
      </trkpt>
      <trkpt lat="42.027516039088368" lon="-3.507630005478859">
        <ele>907.89999999999998</ele>
        <time>2018-05-26T10:19:59Z</time>
      </trkpt>
      <trkpt lat="42.027393998578191" lon="-3.507648026570678">
        <ele>908.79999999999995</ele>
        <time>2018-05-26T10:20:03Z</time>
      </trkpt>
      <trkpt lat="42.027304982766509" lon="-3.507626987993717">
        <ele>909.60000000000002</ele>
        <time>2018-05-26T10:20:06Z</time>
      </trkpt>
      <trkpt lat="42.027204986661673" lon="-3.507577031850815">
        <ele>910.79999999999995</ele>
        <time>2018-05-26T10:20:09Z</time>
      </trkpt>
      <trkpt lat="42.027127034962177" lon="-3.507479969412088">
        <ele>912.29999999999995</ele>
        <time>2018-05-26T10:20:12Z</time>
      </trkpt>
      <trkpt lat="42.027052016928792" lon="-3.507405035197735">
        <ele>913.60000000000002</ele>
        <time>2018-05-26T10:20:15Z</time>
      </trkpt>
      <trkpt lat="42.026970963925123" lon="-3.507318031042814">
        <ele>915</ele>
        <time>2018-05-26T10:20:18Z</time>
      </trkpt>
      <trkpt lat="42.026893012225628" lon="-3.507246030494571">
        <ele>916.39999999999998</ele>
        <time>2018-05-26T10:20:21Z</time>
      </trkpt>
      <trkpt lat="42.026808019727468" lon="-3.507176041603088">
        <ele>917.79999999999995</ele>
        <time>2018-05-26T10:20:24Z</time>
      </trkpt>
      <trkpt lat="42.026737025007606" lon="-3.507100017741323">
        <ele>919.20000000000005</ele>
        <time>2018-05-26T10:20:26Z</time>
      </trkpt>
      <trkpt lat="42.026667036116123" lon="-3.507021982222796">
        <ele>920.29999999999995</ele>
        <time>2018-05-26T10:20:29Z</time>
      </trkpt>
      <trkpt lat="42.026585983112454" lon="-3.506931960582733">
        <ele>921.5</ele>
        <time>2018-05-26T10:20:32Z</time>
      </trkpt>
      <trkpt lat="42.026507025584579" lon="-3.506851997226477">
        <ele>922.70000000000005</ele>
        <time>2018-05-26T10:20:35Z</time>
      </trkpt>
      <trkpt lat="42.0264230389148" lon="-3.506790976971388">
        <ele>923.89999999999998</ele>
        <time>2018-05-26T10:20:38Z</time>
      </trkpt>
      <trkpt lat="42.026350032538176" lon="-3.506715036928654">
        <ele>925.10000000000002</ele>
        <time>2018-05-26T10:20:41Z</time>
      </trkpt>
      <trkpt lat="42.026268979534507" lon="-3.50662300363183">
        <ele>926.5</ele>
        <time>2018-05-26T10:20:44Z</time>
      </trkpt>
      <trkpt lat="42.026181975379586" lon="-3.506560977548361">
        <ele>928.10000000000002</ele>
        <time>2018-05-26T10:20:47Z</time>
      </trkpt>
      <trkpt lat="42.026094971224666" lon="-3.506479002535343">
        <ele>929.79999999999995</ele>
        <time>2018-05-26T10:20:50Z</time>
      </trkpt>
      <trkpt lat="42.026002015918493" lon="-3.50642804056406">
        <ele>931.39999999999998</ele>
        <time>2018-05-26T10:20:53Z</time>
      </trkpt>
      <trkpt lat="42.025901013985276" lon="-3.506383029744029">
        <ele>933.20000000000005</ele>
        <time>2018-05-26T10:20:56Z</time>
      </trkpt>
      <trkpt lat="42.02580101788044" lon="-3.506372971460223">
        <ele>934.60000000000002</ele>
        <time>2018-05-26T10:20:59Z</time>
      </trkpt>
      <trkpt lat="42.025703033432364" lon="-3.506346987560391">
        <ele>936.20000000000005</ele>
        <time>2018-05-26T10:21:02Z</time>
      </trkpt>
      <trkpt lat="42.025605970993638" lon="-3.506316980347037">
        <ele>937.79999999999995</ele>
        <time>2018-05-26T10:21:05Z</time>
      </trkpt>
      <trkpt lat="42.025512009859085" lon="-3.506259983405471">
        <ele>939.60000000000002</ele>
        <time>2018-05-26T10:21:08Z</time>
      </trkpt>
      <trkpt lat="42.025422994047403" lon="-3.506217990070581">
        <ele>940.89999999999998</ele>
        <time>2018-05-26T10:21:11Z</time>
      </trkpt>
      <trkpt lat="42.025332972407341" lon="-3.506189994513989">
        <ele>941</ele>
        <time>2018-05-26T10:21:14Z</time>
      </trkpt>
      <trkpt lat="42.02524202875793" lon="-3.506175996735692">
        <ele>941.10000000000002</ele>
        <time>2018-05-26T10:21:17Z</time>
      </trkpt>
      <trkpt lat="42.025129040703177" lon="-3.506195023655891">
        <ele>941.29999999999995</ele>
        <time>2018-05-26T10:21:20Z</time>
      </trkpt>
      <trkpt lat="42.025034995749593" lon="-3.506221007555723">
        <ele>941.39999999999998</ele>
        <time>2018-05-26T10:21:23Z</time>
      </trkpt>
      <trkpt lat="42.024936005473137" lon="-3.506217990070581">
        <ele>941.60000000000002</ele>
        <time>2018-05-26T10:21:26Z</time>
      </trkpt>
      <trkpt lat="42.024838021025062" lon="-3.506198041141033">
        <ele>941.70000000000005</ele>
        <time>2018-05-26T10:21:29Z</time>
      </trkpt>
      <trkpt lat="42.024742970243096" lon="-3.506180020049214">
        <ele>941.79999999999995</ele>
        <time>2018-05-26T10:21:31Z</time>
      </trkpt>
      <trkpt lat="42.024652026593685" lon="-3.506187982857227">
        <ele>941.89999999999998</ele>
        <time>2018-05-26T10:21:34Z</time>
      </trkpt>
      <trkpt lat="42.024543983861804" lon="-3.50617297925055">
        <ele>942.39999999999998</ele>
        <time>2018-05-26T10:21:37Z</time>
      </trkpt>
      <trkpt lat="42.024434013292193" lon="-3.506160993129015">
        <ele>943.39999999999998</ele>
        <time>2018-05-26T10:21:41Z</time>
      </trkpt>
      <trkpt lat="42.024329993873835" lon="-3.50616903975606">
        <ele>944.29999999999995</ele>
        <time>2018-05-26T10:21:44Z</time>
      </trkpt>
      <trkpt lat="42.024227986112237" lon="-3.506186977028847">
        <ele>945.29999999999995</ele>
        <time>2018-05-26T10:21:47Z</time>
      </trkpt>
      <trkpt lat="42.024122960865498" lon="-3.506216984242201">
        <ele>946.39999999999998</ele>
        <time>2018-05-26T10:21:50Z</time>
      </trkpt>
      <trkpt lat="42.024020031094551" lon="-3.506232993677259">
        <ele>947.39999999999998</ele>
        <time>2018-05-26T10:21:53Z</time>
      </trkpt>
      <trkpt lat="42.023923974484205" lon="-3.506183037534356">
        <ele>948.10000000000002</ele>
        <time>2018-05-26T10:21:56Z</time>
      </trkpt>
      <trkpt lat="42.023833030834794" lon="-3.506178008392453">
        <ele>949</ele>
        <time>2018-05-26T10:21:59Z</time>
      </trkpt>
      <trkpt lat="42.023742003366351" lon="-3.506225030869246">
        <ele>950</ele>
        <time>2018-05-26T10:22:02Z</time>
      </trkpt>
      <trkpt lat="42.023648964241147" lon="-3.506243973970413">
        <ele>951.20000000000005</ele>
        <time>2018-05-26T10:22:05Z</time>
      </trkpt>
      <trkpt lat="42.023560032248497" lon="-3.506284039467573">
        <ele>952.20000000000005</ele>
        <time>2018-05-26T10:22:07Z</time>
      </trkpt>
      <trkpt lat="42.023465987294912" lon="-3.506293008103967">
        <ele>953.29999999999995</ele>
        <time>2018-05-26T10:22:10Z</time>
      </trkpt>
      <trkpt lat="42.02337303198874" lon="-3.50630197674036">
        <ele>954.39999999999998</ele>
        <time>2018-05-26T10:22:13Z</time>
      </trkpt>
      <trkpt lat="42.023277981206775" lon="-3.506342964246869">
        <ele>955.39999999999998</ele>
        <time>2018-05-26T10:22:16Z</time>
      </trkpt>
      <trkpt lat="42.023188965395093" lon="-3.506374983116984">
        <ele>956.29999999999995</ele>
        <time>2018-05-26T10:22:19Z</time>
      </trkpt>
      <trkpt lat="42.023101039230824" lon="-3.506400967016816">
        <ele>957.20000000000005</ele>
        <time>2018-05-26T10:22:21Z</time>
      </trkpt>
      <trkpt lat="42.023008000105619" lon="-3.506414964795113">
        <ele>958.20000000000005</ele>
        <time>2018-05-26T10:22:24Z</time>
      </trkpt>
      <trkpt lat="42.022920995950699" lon="-3.50645000115037">
        <ele>959</ele>
        <time>2018-05-26T10:22:27Z</time>
      </trkpt>
      <trkpt lat="42.022823011502624" lon="-3.506444972008467">
        <ele>960.89999999999998</ele>
        <time>2018-05-26T10:22:30Z</time>
      </trkpt>
      <trkpt lat="42.0227309782058" lon="-3.506439020857215">
        <ele>962.70000000000005</ele>
        <time>2018-05-26T10:22:33Z</time>
      </trkpt>
      <trkpt lat="42.022641040384769" lon="-3.506489982828498">
        <ele>964.39999999999998</ele>
        <time>2018-05-26T10:22:35Z</time>
      </trkpt>
      <trkpt lat="42.022543977946043" lon="-3.5065140388906">
        <ele>966.29999999999995</ele>
        <time>2018-05-26T10:22:38Z</time>
      </trkpt>
      <trkpt lat="42.022448005154729" lon="-3.506528036668897">
        <ele>968.20000000000005</ele>
        <time>2018-05-26T10:22:41Z</time>
      </trkpt>
      <trkpt lat="42.022363012656569" lon="-3.506590984761715">
        <ele>970</ele>
        <time>2018-05-26T10:22:44Z</time>
      </trkpt>
      <trkpt lat="42.022272991016507" lon="-3.50664203055203">
        <ele>971.89999999999998</ele>
        <time>2018-05-26T10:22:47Z</time>
      </trkpt>
      <trkpt lat="42.022189004346728" lon="-3.506710007786751">
        <ele>973.79999999999995</ele>
        <time>2018-05-26T10:22:50Z</time>
      </trkpt>
      <trkpt lat="42.02212798409164" lon="-3.506802963092923">
        <ele>975.29999999999995</ele>
        <time>2018-05-26T10:22:53Z</time>
      </trkpt>
      <trkpt lat="42.022054977715015" lon="-3.506875969469547">
        <ele>976.70000000000005</ele>
        <time>2018-05-26T10:22:56Z</time>
      </trkpt>
      <trkpt lat="42.021987000480294" lon="-3.506957022473216">
        <ele>977.5</ele>
        <time>2018-05-26T10:22:58Z</time>
      </trkpt>
      <trkpt lat="42.021975014358759" lon="-3.507079984992743">
        <ele>977.89999999999998</ele>
        <time>2018-05-26T10:23:01Z</time>
      </trkpt>
      <trkpt lat="42.021924974396825" lon="-3.507187021896243">
        <ele>977.89999999999998</ele>
        <time>2018-05-26T10:23:04Z</time>
      </trkpt>
      <trkpt lat="42.021875018253922" lon="-3.507305039092898">
        <ele>977.89999999999998</ele>
        <time>2018-05-26T10:23:07Z</time>
      </trkpt>
      <trkpt lat="42.021861020475626" lon="-3.507433030754328">
        <ele>977.5</ele>
        <time>2018-05-26T10:23:10Z</time>
      </trkpt>
      <trkpt lat="42.021833024919033" lon="-3.507559010758996">
        <ele>977.29999999999995</ele>
        <time>2018-05-26T10:23:13Z</time>
      </trkpt>
      <trkpt lat="42.021778039634228" lon="-3.507659006863833">
        <ele>977.60000000000002</ele>
        <time>2018-05-26T10:23:15Z</time>
      </trkpt>
      <trkpt lat="42.021753983572125" lon="-3.507817005738616">
        <ele>977.29999999999995</ele>
        <time>2018-05-26T10:23:19Z</time>
      </trkpt>
      <trkpt lat="42.021739985793829" lon="-3.507956983521581">
        <ele>976.79999999999995</ele>
        <time>2018-05-26T10:23:22Z</time>
      </trkpt>
      <trkpt lat="42.021743003278971" lon="-3.508079024031758">
        <ele>975.79999999999995</ele>
        <time>2018-05-26T10:23:25Z</time>
      </trkpt>
      <trkpt lat="42.021744009107351" lon="-3.508223025128245">
        <ele>974.60000000000002</ele>
        <time>2018-05-26T10:23:28Z</time>
      </trkpt>
      <trkpt lat="42.02174099162221" lon="-3.508349005132914">
        <ele>973.60000000000002</ele>
        <time>2018-05-26T10:23:31Z</time>
      </trkpt>
      <trkpt lat="42.021739985793829" lon="-3.508480014279485">
        <ele>972.5</ele>
        <time>2018-05-26T10:23:33Z</time>
      </trkpt>
      <trkpt lat="42.021754989400506" lon="-3.50859995931387">
        <ele>971.39999999999998</ele>
        <time>2018-05-26T10:23:36Z</time>
      </trkpt>
      <trkpt lat="42.021745014935732" lon="-3.508738009259105">
        <ele>970.29999999999995</ele>
        <time>2018-05-26T10:23:39Z</time>
      </trkpt>
      <trkpt lat="42.02171802520752" lon="-3.508858038112521">
        <ele>970.20000000000005</ele>
        <time>2018-05-26T10:23:42Z</time>
      </trkpt>
      <trkpt lat="42.02167603187263" lon="-3.508976977318525">
        <ele>970.20000000000005</ele>
        <time>2018-05-26T10:23:45Z</time>
      </trkpt>
      <trkpt lat="42.021614005789161" lon="-3.509085020050407">
        <ele>970.39999999999998</ele>
        <time>2018-05-26T10:23:48Z</time>
      </trkpt>
      <trkpt lat="42.021548040211201" lon="-3.509189039468765">
        <ele>970.60000000000002</ele>
        <time>2018-05-26T10:23:51Z</time>
      </trkpt>
      <trkpt lat="42.021476039662957" lon="-3.509275037795305">
        <ele>970.79999999999995</ele>
        <time>2018-05-26T10:23:54Z</time>
      </trkpt>
      <trkpt lat="42.021400015801191" lon="-3.509342009201646">
        <ele>971.10000000000002</ele>
        <time>2018-05-26T10:23:56Z</time>
      </trkpt>
      <trkpt lat="42.021327009424567" lon="-3.509430019184947">
        <ele>971.20000000000005</ele>
        <time>2018-05-26T10:23:59Z</time>
      </trkpt>
      <trkpt lat="42.021259032189846" lon="-3.509514005854726">
        <ele>971.29999999999995</ele>
        <time>2018-05-26T10:24:02Z</time>
      </trkpt>
      <trkpt lat="42.021178985014558" lon="-3.509586006402969">
        <ele>970.79999999999995</ele>
        <time>2018-05-26T10:24:05Z</time>
      </trkpt>
      <trkpt lat="42.021084018051624" lon="-3.509461032226682">
        <ele>971.39999999999998</ele>
        <time>2018-05-26T10:24:09Z</time>
      </trkpt>
      <trkpt lat="42.021087035536766" lon="-3.509320970624685">
        <ele>972.29999999999995</ele>
        <time>2018-05-26T10:24:12Z</time>
      </trkpt>
      <trkpt lat="42.02109600417316" lon="-3.509171018376946">
        <ele>973.20000000000005</ele>
        <time>2018-05-26T10:24:15Z</time>
      </trkpt>
      <trkpt lat="42.021115031093359" lon="-3.509049983695149">
        <ele>974</ele>
        <time>2018-05-26T10:24:18Z</time>
      </trkpt>
      <trkpt lat="42.021099021658301" lon="-3.508916040882468">
        <ele>974.89999999999998</ele>
        <time>2018-05-26T10:24:21Z</time>
      </trkpt>
      <trkpt lat="42.021065996959805" lon="-3.508789977058768">
        <ele>975.79999999999995</ele>
        <time>2018-05-26T10:24:24Z</time>
      </trkpt>
      <trkpt lat="42.021024003624916" lon="-3.5086639970541">
        <ele>977.20000000000005</ele>
        <time>2018-05-26T10:24:27Z</time>
      </trkpt>
      <trkpt lat="42.020991984754801" lon="-3.508551008999348">
        <ele>978.60000000000002</ele>
        <time>2018-05-26T10:24:30Z</time>
      </trkpt>
      <trkpt lat="42.020956026390195" lon="-3.508436009287834">
        <ele>980</ele>
        <time>2018-05-26T10:24:33Z</time>
      </trkpt>
      <trkpt lat="42.020907998085022" lon="-3.508324027061462">
        <ele>981.60000000000002</ele>
        <time>2018-05-26T10:24:35Z</time>
      </trkpt>
      <trkpt lat="42.020868016406894" lon="-3.50821397267282">
        <ele>983</ele>
        <time>2018-05-26T10:24:38Z</time>
      </trkpt>
      <trkpt lat="42.020814036950469" lon="-3.508107019588351">
        <ele>984.60000000000002</ele>
        <time>2018-05-26T10:24:41Z</time>
      </trkpt>
      <trkpt lat="42.020768020302057" lon="-3.507991014048457">
        <ele>986.20000000000005</ele>
        <time>2018-05-26T10:24:44Z</time>
      </trkpt>
      <trkpt lat="42.020759973675013" lon="-3.507856987416744">
        <ele>987.29999999999995</ele>
        <time>2018-05-26T10:24:47Z</time>
      </trkpt>
      <trkpt lat="42.02068897895515" lon="-3.507755985483527">
        <ele>988.29999999999995</ele>
        <time>2018-05-26T10:24:50Z</time>
      </trkpt>
      <trkpt lat="42.020595017820597" lon="-3.507716003805399">
        <ele>989.29999999999995</ele>
        <time>2018-05-26T10:24:53Z</time>
      </trkpt>
      <trkpt lat="42.020493010058999" lon="-3.507678033784032">
        <ele>990.39999999999998</ele>
        <time>2018-05-26T10:24:56Z</time>
      </trkpt>
      <trkpt lat="42.020394019782543" lon="-3.507662024348974">
        <ele>991.60000000000002</ele>
        <time>2018-05-26T10:24:59Z</time>
      </trkpt>
      <trkpt lat="42.020286982879043" lon="-3.507661018520594">
        <ele>993.60000000000002</ele>
        <time>2018-05-26T10:25:02Z</time>
      </trkpt>
      <trkpt lat="42.020195033401251" lon="-3.507648026570678">
        <ele>995.39999999999998</ele>
        <time>2018-05-26T10:25:05Z</time>
      </trkpt>
      <trkpt lat="42.020103000104427" lon="-3.507666969671845">
        <ele>997</ele>
        <time>2018-05-26T10:25:08Z</time>
      </trkpt>
      <trkpt lat="42.020008033141494" lon="-3.507662024348974">
        <ele>998.70000000000005</ele>
        <time>2018-05-26T10:25:11Z</time>
      </trkpt>
      <trkpt lat="42.019934020936489" lon="-3.507591029629111">
        <ele>1000.5</ele>
        <time>2018-05-26T10:25:13Z</time>
      </trkpt>
      <trkpt lat="42.019838970154524" lon="-3.507601004093885">
        <ele>1002.2</ele>
        <time>2018-05-26T10:25:16Z</time>
      </trkpt>
      <trkpt lat="42.019762024283409" lon="-3.50767501629889">
        <ele>1003.2</ele>
        <time>2018-05-26T10:25:19Z</time>
      </trkpt>
      <trkpt lat="42.019694969058037" lon="-3.507765037938952">
        <ele>1003.9</ele>
        <time>2018-05-26T10:25:22Z</time>
      </trkpt>
      <trkpt lat="42.019616011530161" lon="-3.507833015173674">
        <ele>1004.9</ele>
        <time>2018-05-26T10:25:25Z</time>
      </trkpt>
      <trkpt lat="42.019544010981917" lon="-3.507908033207059">
        <ele>1005</ele>
        <time>2018-05-26T10:25:27Z</time>
      </trkpt>
      <trkpt lat="42.019472010433674" lon="-3.507993025705218">
        <ele>1003.6</ele>
        <time>2018-05-26T10:25:30Z</time>
      </trkpt>
      <trkpt lat="42.019375031813979" lon="-3.50799797102809">
        <ele>1003.3</ele>
        <time>2018-05-26T10:25:33Z</time>
      </trkpt>
      <trkpt lat="42.019295990467072" lon="-3.507936028763652">
        <ele>1004</ele>
        <time>2018-05-26T10:25:36Z</time>
      </trkpt>
      <trkpt lat="42.019273024052382" lon="-3.507812982425094">
        <ele>1005</ele>
        <time>2018-05-26T10:25:39Z</time>
      </trkpt>
      <trkpt lat="42.019258020445704" lon="-3.507690019905567">
        <ele>1005.9</ele>
        <time>2018-05-26T10:25:41Z</time>
      </trkpt>
      <trkpt lat="42.019257014617324" lon="-3.507552975788713">
        <ele>1006.9</ele>
        <time>2018-05-26T10:25:44Z</time>
      </trkpt>
      <trkpt lat="42.019259026274085" lon="-3.507422972470522">
        <ele>1007.9</ele>
        <time>2018-05-26T10:25:47Z</time>
      </trkpt>
      <trkpt lat="42.019252991303802" lon="-3.507296992465854">
        <ele>1008.8</ele>
        <time>2018-05-26T10:25:50Z</time>
      </trkpt>
      <trkpt lat="42.019203035160899" lon="-3.507191967219114">
        <ele>1009.6</ele>
        <time>2018-05-26T10:25:53Z</time>
      </trkpt>
      <trkpt lat="42.01914100907743" lon="-3.507099011912942">
        <ele>1010.4</ele>
        <time>2018-05-26T10:25:56Z</time>
      </trkpt>
      <trkpt lat="42.019060961902142" lon="-3.507022988051176">
        <ele>1010.8</ele>
        <time>2018-05-26T10:25:58Z</time>
      </trkpt>
      <trkpt lat="42.01899298466742" lon="-3.506926009431481">
        <ele>1011.3</ele>
        <time>2018-05-26T10:26:01Z</time>
      </trkpt>
      <trkpt lat="42.018955014646053" lon="-3.506800029426813">
        <ele>1012</ele>
        <time>2018-05-26T10:26:04Z</time>
      </trkpt>
      <trkpt lat="42.018911009654403" lon="-3.506677988916636">
        <ele>1012.7</ele>
        <time>2018-05-26T10:26:07Z</time>
      </trkpt>
      <trkpt lat="42.018848983570933" lon="-3.506571035832167">
        <ele>1013.5</ele>
        <time>2018-05-26T10:26:10Z</time>
      </trkpt>
      <trkpt lat="42.018778994679451" lon="-3.506477996706963">
        <ele>1014.4</ele>
        <time>2018-05-26T10:26:13Z</time>
      </trkpt>
      <trkpt lat="42.01869199052453" lon="-3.5064070019871">
        <ele>1014.7</ele>
        <time>2018-05-26T10:26:16Z</time>
      </trkpt>
      <trkpt lat="42.018619989976287" lon="-3.506326032802463">
        <ele>1014.7</ele>
        <time>2018-05-26T10:26:19Z</time>
      </trkpt>
      <trkpt lat="42.018557963892817" lon="-3.50621597841382">
        <ele>1015.1</ele>
        <time>2018-05-26T10:26:22Z</time>
      </trkpt>
      <trkpt lat="42.018481018021703" lon="-3.506142972037196">
        <ele>1015.2</ele>
        <time>2018-05-26T10:26:25Z</time>
      </trkpt>
      <trkpt lat="42.018399965018034" lon="-3.506068959832192">
        <ele>1015.4</ele>
        <time>2018-05-26T10:26:28Z</time>
      </trkpt>
      <trkpt lat="42.018312038853765" lon="-3.505996959283948">
        <ele>1015.7</ele>
        <time>2018-05-26T10:26:31Z</time>
      </trkpt>
      <trkpt lat="42.018214976415038" lon="-3.505936022847891">
        <ele>1015.9</ele>
        <time>2018-05-26T10:26:34Z</time>
      </trkpt>
      <trkpt lat="42.018135013058782" lon="-3.505863016471267">
        <ele>1016.3</ele>
        <time>2018-05-26T10:26:37Z</time>
      </trkpt>
      <trkpt lat="42.018042979761958" lon="-3.505803002044559">
        <ele>1016.7</ele>
        <time>2018-05-26T10:26:40Z</time>
      </trkpt>
      <trkpt lat="42.017957987263799" lon="-3.50572002120316">
        <ele>1017.4</ele>
        <time>2018-05-26T10:26:43Z</time>
      </trkpt>
      <trkpt lat="42.017878023907542" lon="-3.505643997341394">
        <ele>1017.8</ele>
        <time>2018-05-26T10:26:46Z</time>
      </trkpt>
      <trkpt lat="42.017794959247112" lon="-3.505542995408177">
        <ele>1018.1</ele>
        <time>2018-05-26T10:26:49Z</time>
      </trkpt>
      <trkpt lat="42.017691023647785" lon="-3.50546495988965">
        <ele>1018.1</ele>
        <time>2018-05-26T10:26:53Z</time>
      </trkpt>
      <trkpt lat="42.017613993957639" lon="-3.505402011796832">
        <ele>1018.2</ele>
        <time>2018-05-26T10:26:55Z</time>
      </trkpt>
      <trkpt lat="42.017523972317576" lon="-3.505329005420208">
        <ele>1018.1</ele>
        <time>2018-05-26T10:26:59Z</time>
      </trkpt>
      <trkpt lat="42.017443003132939" lon="-3.505267985165119">
        <ele>1018.1</ele>
        <time>2018-05-26T10:27:01Z</time>
      </trkpt>
      <trkpt lat="42.017353987321258" lon="-3.505219034850597">
        <ele>1018.1</ele>
        <time>2018-05-26T10:27:04Z</time>
      </trkpt>
      <trkpt lat="42.017267988994718" lon="-3.505153991281986">
        <ele>1018.4</ele>
        <time>2018-05-26T10:27:07Z</time>
      </trkpt>
      <trkpt lat="42.017184002324939" lon="-3.505099005997181">
        <ele>1018.8</ele>
        <time>2018-05-26T10:27:10Z</time>
      </trkpt>
      <trkpt lat="42.017102027311921" lon="-3.505014013499022">
        <ele>1019.8</ele>
        <time>2018-05-26T10:27:13Z</time>
      </trkpt>
      <trkpt lat="42.017017034813762" lon="-3.504970008507371">
        <ele>1020.3</ele>
        <time>2018-05-26T10:27:16Z</time>
      </trkpt>
      <trkpt lat="42.016932964324951" lon="-3.504927009344101">
        <ele>1020.9</ele>
        <time>2018-05-26T10:27:18Z</time>
      </trkpt>
      <trkpt lat="42.016832968220115" lon="-3.504901025444269">
        <ele>1021.2</ele>
        <time>2018-05-26T10:27:21Z</time>
      </trkpt>
      <trkpt lat="42.016734983772039" lon="-3.504890967160463">
        <ele>1021.3</ele>
        <time>2018-05-26T10:27:24Z</time>
      </trkpt>
      <trkpt lat="42.016648985445499" lon="-3.504806980490685">
        <ele>1023</ele>
        <time>2018-05-26T10:27:27Z</time>
      </trkpt>
      <trkpt lat="42.016546977683902" lon="-3.504780996590853">
        <ele>1023.6</ele>
        <time>2018-05-26T10:27:31Z</time>
      </trkpt>
      <trkpt lat="42.016452010720968" lon="-3.504798011854291">
        <ele>1023.1</ele>
        <time>2018-05-26T10:27:33Z</time>
      </trkpt>
      <trkpt lat="42.016356959939003" lon="-3.504791976884008">
        <ele>1023.3</ele>
        <time>2018-05-26T10:27:36Z</time>
      </trkpt>
      <trkpt lat="42.016270961612463" lon="-3.504735985770822">
        <ele>1024.8</ele>
        <time>2018-05-26T10:27:39Z</time>
      </trkpt>
      <trkpt lat="42.016178006306291" lon="-3.504679994657636">
        <ele>1026.5999999999999</ele>
        <time>2018-05-26T10:27:42Z</time>
      </trkpt>
      <trkpt lat="42.016078010201454" lon="-3.504649987444282">
        <ele>1027.7</ele>
        <time>2018-05-26T10:27:45Z</time>
      </trkpt>
      <trkpt lat="42.015996035188437" lon="-3.504588967189193">
        <ele>1029.5</ele>
        <time>2018-05-26T10:27:48Z</time>
      </trkpt>
      <trkpt lat="42.015906013548374" lon="-3.504559965804219">
        <ele>1030.0999999999999</ele>
        <time>2018-05-26T10:27:51Z</time>
      </trkpt>
      <trkpt lat="42.015801994130015" lon="-3.504529958590865">
        <ele>1030.7</ele>
        <time>2018-05-26T10:27:54Z</time>
      </trkpt>
      <trkpt lat="42.015707027167082" lon="-3.504494000226259">
        <ele>1031.3</ele>
        <time>2018-05-26T10:27:57Z</time>
      </trkpt>
      <trkpt lat="42.015609964728355" lon="-3.504434991627932">
        <ele>1032.3</ele>
        <time>2018-05-26T10:28:00Z</time>
      </trkpt>
      <trkpt lat="42.015513991937041" lon="-3.504400961101055">
        <ele>1032.9000000000001</ele>
        <time>2018-05-26T10:28:03Z</time>
      </trkpt>
      <trkpt lat="42.015421958640218" lon="-3.504386963322759">
        <ele>1033.3</ele>
        <time>2018-05-26T10:28:06Z</time>
      </trkpt>
      <trkpt lat="42.015326991677284" lon="-3.504353016614914">
        <ele>1034.4000000000001</ele>
        <time>2018-05-26T10:28:09Z</time>
      </trkpt>
      <trkpt lat="42.015234958380461" lon="-3.504310017451644">
        <ele>1035.7</ele>
        <time>2018-05-26T10:28:11Z</time>
      </trkpt>
      <trkpt lat="42.015134040266275" lon="-3.504312029108405">
        <ele>1036.4000000000001</ele>
        <time>2018-05-26T10:28:14Z</time>
      </trkpt>
      <trkpt lat="42.01503798365593" lon="-3.504318986088038">
        <ele>1037</ele>
        <time>2018-05-26T10:28:17Z</time>
      </trkpt>
      <trkpt lat="42.014934970065951" lon="-3.504274981096387">
        <ele>1038.4000000000001</ele>
        <time>2018-05-26T10:28:21Z</time>
      </trkpt>
      <trkpt lat="42.014841008931398" lon="-3.504227958619595">
        <ele>1039.7</ele>
        <time>2018-05-26T10:28:24Z</time>
      </trkpt>
      <trkpt lat="42.014751993119717" lon="-3.504208009690046">
        <ele>1040.5999999999999</ele>
        <time>2018-05-26T10:28:26Z</time>
      </trkpt>
      <trkpt lat="42.014657026156783" lon="-3.504168028011918">
        <ele>1041.9000000000001</ele>
        <time>2018-05-26T10:28:29Z</time>
      </trkpt>
      <trkpt lat="42.014567004516721" lon="-3.50413198582828">
        <ele>1043</ele>
        <time>2018-05-26T10:28:32Z</time>
      </trkpt>
      <trkpt lat="42.014466002583504" lon="-3.504142966121435">
        <ele>1043.3</ele>
        <time>2018-05-26T10:28:35Z</time>
      </trkpt>
      <trkpt lat="42.01437396928668" lon="-3.504141038283706">
        <ele>1043.7</ele>
        <time>2018-05-26T10:28:38Z</time>
      </trkpt>
      <trkpt lat="42.014270033687353" lon="-3.504126034677029">
        <ele>1044.3</ele>
        <time>2018-05-26T10:28:41Z</time>
      </trkpt>
      <trkpt lat="42.014165008440614" lon="-3.504100972786546">
        <ele>1044.9000000000001</ele>
        <time>2018-05-26T10:28:44Z</time>
      </trkpt>
      <trkpt lat="42.01407297514379" lon="-3.504039030522108">
        <ele>1045.9000000000001</ele>
        <time>2018-05-26T10:28:47Z</time>
      </trkpt>
      <trkpt lat="42.013983959332108" lon="-3.503962000831962">
        <ele>1046.8</ele>
        <time>2018-05-26T10:28:50Z</time>
      </trkpt>
      <trkpt lat="42.013894021511078" lon="-3.503895029425621">
        <ele>1047.5999999999999</ele>
        <time>2018-05-26T10:28:53Z</time>
      </trkpt>
      <trkpt lat="42.013805005699396" lon="-3.503864016383886">
        <ele>1048.0999999999999</ele>
        <time>2018-05-26T10:28:56Z</time>
      </trkpt>
      <trkpt lat="42.013756977394223" lon="-3.503761002793908">
        <ele>1048.9000000000001</ele>
        <time>2018-05-26T10:28:59Z</time>
      </trkpt>
      <trkpt lat="42.013714984059334" lon="-3.503651032224298">
        <ele>1049.5999999999999</ele>
        <time>2018-05-26T10:29:01Z</time>
      </trkpt>
      <trkpt lat="42.013649018481374" lon="-3.503567967563868">
        <ele>1050.4000000000001</ele>
        <time>2018-05-26T10:29:04Z</time>
      </trkpt>
      <trkpt lat="42.013554973527789" lon="-3.503490015864372">
        <ele>1051.3</ele>
        <time>2018-05-26T10:29:07Z</time>
      </trkpt>
      <trkpt lat="42.013463024049997" lon="-3.503405023366213">
        <ele>1052.3</ele>
        <time>2018-05-26T10:29:11Z</time>
      </trkpt>
      <trkpt lat="42.013366967439651" lon="-3.503350960090756">
        <ele>1053.2</ele>
        <time>2018-05-26T10:29:14Z</time>
      </trkpt>
      <trkpt lat="42.013270994648337" lon="-3.503315001726151">
        <ele>1054</ele>
        <time>2018-05-26T10:29:17Z</time>
      </trkpt>
      <trkpt lat="42.01318901963532" lon="-3.50325096398592">
        <ele>1054.8</ele>
        <time>2018-05-26T10:29:19Z</time>
      </trkpt>
      <trkpt lat="42.013116013258696" lon="-3.503172006458044">
        <ele>1055.5999999999999</ele>
        <time>2018-05-26T10:29:22Z</time>
      </trkpt>
      <trkpt lat="42.013037977740169" lon="-3.503087013959885">
        <ele>1056.5</ele>
        <time>2018-05-26T10:29:25Z</time>
      </trkpt>
      <trkpt lat="42.01295399107039" lon="-3.503025993704796">
        <ele>1057.3</ele>
        <time>2018-05-26T10:29:28Z</time>
      </trkpt>
      <trkpt lat="42.01284795999527" lon="-3.503006966784596">
        <ele>1058</ele>
        <time>2018-05-26T10:29:31Z</time>
      </trkpt>
      <trkpt lat="42.012735977768898" lon="-3.502991041168571">
        <ele>1058.5999999999999</ele>
        <time>2018-05-26T10:29:35Z</time>
      </trkpt>
      <trkpt lat="42.012642016634345" lon="-3.502947958186269">
        <ele>1059.2</ele>
        <time>2018-05-26T10:29:38Z</time>
      </trkpt>
      <trkpt lat="42.012550989165902" lon="-3.502879980951548">
        <ele>1059.8</ele>
        <time>2018-05-26T10:29:41Z</time>
      </trkpt>
      <trkpt lat="42.012451998889446" lon="-3.502809992060065">
        <ele>1060.3</ele>
        <time>2018-05-26T10:29:44Z</time>
      </trkpt>
      <trkpt lat="42.012350996956229" lon="-3.502763975411654">
        <ele>1060.7</ele>
        <time>2018-05-26T10:29:47Z</time>
      </trkpt>
      <trkpt lat="42.012254018336535" lon="-3.502719970420003">
        <ele>1061.0999999999999</ele>
        <time>2018-05-26T10:29:50Z</time>
      </trkpt>
      <trkpt lat="42.012161985039711" lon="-3.50266900844872">
        <ele>1061.4000000000001</ele>
        <time>2018-05-26T10:29:53Z</time>
      </trkpt>
      <trkpt lat="42.012056037783623" lon="-3.502607988193631">
        <ele>1061.8</ele>
        <time>2018-05-26T10:29:57Z</time>
      </trkpt>
      <trkpt lat="42.011962998658419" lon="-3.50254001095891">
        <ele>1062.2</ele>
        <time>2018-05-26T10:30:00Z</time>
      </trkpt>
      <trkpt lat="42.011868031695485" lon="-3.502517966553569">
        <ele>1062.7</ele>
        <time>2018-05-26T10:30:03Z</time>
      </trkpt>
      <trkpt lat="42.0117739867419" lon="-3.502525007352233">
        <ele>1063.2</ele>
        <time>2018-05-26T10:30:05Z</time>
      </trkpt>
      <trkpt lat="42.011673990637064" lon="-3.502510003745556">
        <ele>1063.7</ele>
        <time>2018-05-26T10:30:08Z</time>
      </trkpt>
      <trkpt lat="42.011577012017369" lon="-3.502475973218679">
        <ele>1064.2</ele>
        <time>2018-05-26T10:30:11Z</time>
      </trkpt>
      <trkpt lat="42.011491013690829" lon="-3.502405984327197">
        <ele>1064.7</ele>
        <time>2018-05-26T10:30:14Z</time>
      </trkpt>
      <trkpt lat="42.011401997879148" lon="-3.502342030405998">
        <ele>1065.0999999999999</ele>
        <time>2018-05-26T10:30:17Z</time>
      </trkpt>
      <trkpt lat="42.011305019259453" lon="-3.502286039292812">
        <ele>1065.7</ele>
        <time>2018-05-26T10:30:20Z</time>
      </trkpt>
      <trkpt lat="42.011211980134249" lon="-3.502228036522865">
        <ele>1066.2</ele>
        <time>2018-05-26T10:30:23Z</time>
      </trkpt>
      <trkpt lat="42.011115001514554" lon="-3.502170033752918">
        <ele>1066.8</ele>
        <time>2018-05-26T10:30:27Z</time>
      </trkpt>
      <trkpt lat="42.01102196238935" lon="-3.502124017104507">
        <ele>1067.4000000000001</ele>
        <time>2018-05-26T10:30:29Z</time>
      </trkpt>
      <trkpt lat="42.010920038446784" lon="-3.502098033204675">
        <ele>1068</ele>
        <time>2018-05-26T10:30:33Z</time>
      </trkpt>
      <trkpt lat="42.010834962129593" lon="-3.502040030434728">
        <ele>1068.5</ele>
        <time>2018-05-26T10:30:35Z</time>
      </trkpt>
      <trkpt lat="42.010748963803053" lon="-3.501986972987652">
        <ele>1069.0999999999999</ele>
        <time>2018-05-26T10:30:38Z</time>
      </trkpt>
      <trkpt lat="42.010661037638783" lon="-3.501953026279807">
        <ele>1069.5999999999999</ele>
        <time>2018-05-26T10:30:41Z</time>
      </trkpt>
      <trkpt lat="42.010555006563663" lon="-3.501952020451427">
        <ele>1070.3</ele>
        <time>2018-05-26T10:30:44Z</time>
      </trkpt>
      <trkpt lat="42.010451992973685" lon="-3.501958977431059">
        <ele>1070.9000000000001</ele>
        <time>2018-05-26T10:30:47Z</time>
      </trkpt>
      <trkpt lat="42.010347973555326" lon="-3.501967024058104">
        <ele>1071.5999999999999</ele>
        <time>2018-05-26T10:30:50Z</time>
      </trkpt>
      <trkpt lat="42.010258035734296" lon="-3.501915978267789">
        <ele>1072.3</ele>
        <time>2018-05-26T10:30:53Z</time>
      </trkpt>
      <trkpt lat="42.010162984952331" lon="-3.501871973276138">
        <ele>1073.0999999999999</ele>
        <time>2018-05-26T10:30:56Z</time>
      </trkpt>
      <trkpt lat="42.010071035474539" lon="-3.501826040446758">
        <ele>1073.8</ele>
        <time>2018-05-26T10:30:59Z</time>
      </trkpt>
      <trkpt lat="42.009968021884561" lon="-3.501816987991333">
        <ele>1074.5</ele>
        <time>2018-05-26T10:31:02Z</time>
      </trkpt>
      <trkpt lat="42.009880011901259" lon="-3.501772982999682">
        <ele>1075.2</ele>
        <time>2018-05-26T10:31:05Z</time>
      </trkpt>
      <trkpt lat="42.009784039109945" lon="-3.501760996878147">
        <ele>1075.9000000000001</ele>
        <time>2018-05-26T10:31:08Z</time>
      </trkpt>
      <trkpt lat="42.009695023298264" lon="-3.501694025471807">
        <ele>1076.7</ele>
        <time>2018-05-26T10:31:11Z</time>
      </trkpt>
      <trkpt lat="42.009607013314962" lon="-3.501631999388337">
        <ele>1077.4000000000001</ele>
        <time>2018-05-26T10:31:14Z</time>
      </trkpt>
      <trkpt lat="42.009524032473564" lon="-3.501581959426403">
        <ele>1077.7</ele>
        <time>2018-05-26T10:31:16Z</time>
      </trkpt>
      <trkpt lat="42.009442979469895" lon="-3.501520017161965">
        <ele>1077.8</ele>
        <time>2018-05-26T10:31:19Z</time>
      </trkpt>
      <trkpt lat="42.009361004456878" lon="-3.50146402604878">
        <ele>1078</ele>
        <time>2018-05-26T10:31:22Z</time>
      </trkpt>
      <trkpt lat="42.009277017787099" lon="-3.501375010237098">
        <ele>1078.2</ele>
        <time>2018-05-26T10:31:25Z</time>
      </trkpt>
      <trkpt lat="42.009198982268572" lon="-3.50129596889019">
        <ele>1078.4000000000001</ele>
        <time>2018-05-26T10:31:28Z</time>
      </trkpt>
      <trkpt lat="42.009119018912315" lon="-3.501226985827088">
        <ele>1078.5999999999999</ele>
        <time>2018-05-26T10:31:31Z</time>
      </trkpt>
      <trkpt lat="42.00904299505055" lon="-3.501151967793703">
        <ele>1079</ele>
        <time>2018-05-26T10:31:34Z</time>
      </trkpt>
      <trkpt lat="42.008950961753726" lon="-3.501082984730601">
        <ele>1079.4000000000001</ele>
        <time>2018-05-26T10:31:37Z</time>
      </trkpt>
      <trkpt lat="42.008869992569089" lon="-3.501011990010738">
        <ele>1079.9000000000001</ele>
        <time>2018-05-26T10:31:40Z</time>
      </trkpt>
      <trkpt lat="42.008797992020845" lon="-3.500919034704566">
        <ele>1080.5</ele>
        <time>2018-05-26T10:31:42Z</time>
      </trkpt>
      <trkpt lat="42.008714005351067" lon="-3.500836975872517">
        <ele>1081.2</ele>
        <time>2018-05-26T10:31:46Z</time>
      </trkpt>
      <trkpt lat="42.00863596983254" lon="-3.500761035829783">
        <ele>1082</ele>
        <time>2018-05-26T10:31:48Z</time>
      </trkpt>
      <trkpt lat="42.008586013689637" lon="-3.500643018633127">
        <ele>1082.9000000000001</ele>
        <time>2018-05-26T10:31:51Z</time>
      </trkpt>
      <trkpt lat="42.00854703783989" lon="-3.500529024749994">
        <ele>1083.8</ele>
        <time>2018-05-26T10:31:54Z</time>
      </trkpt>
      <trkpt lat="42.008481994271278" lon="-3.500425005331636">
        <ele>1084.9000000000001</ele>
        <time>2018-05-26T10:31:57Z</time>
      </trkpt>
      <trkpt lat="42.008408987894654" lon="-3.500345963984728">
        <ele>1085.7</ele>
        <time>2018-05-26T10:32:00Z</time>
      </trkpt>
      <trkpt lat="42.008345033973455" lon="-3.500259965658188">
        <ele>1086.5</ele>
        <time>2018-05-26T10:32:03Z</time>
      </trkpt>
      <trkpt lat="42.008293988183141" lon="-3.500146977603436">
        <ele>1087.2</ele>
        <time>2018-05-26T10:32:06Z</time>
      </trkpt>
      <trkpt lat="42.008266998454928" lon="-3.50002602674067">
        <ele>1087.8</ele>
        <time>2018-05-26T10:32:08Z</time>
      </trkpt>
      <trkpt lat="42.008215030655265" lon="-3.499914966523647">
        <ele>1088.5</ele>
        <time>2018-05-26T10:32:11Z</time>
      </trkpt>
      <trkpt lat="42.008159961551428" lon="-3.499799966812134">
        <ele>1089.2</ele>
        <time>2018-05-26T10:32:14Z</time>
      </trkpt>
      <trkpt lat="42.008129032328725" lon="-3.499683039262891">
        <ele>1089.7</ele>
        <time>2018-05-26T10:32:17Z</time>
      </trkpt>
      <trkpt lat="42.008091984316707" lon="-3.499559992924333">
        <ele>1090.2</ele>
        <time>2018-05-26T10:32:20Z</time>
      </trkpt>
      <trkpt lat="42.008045967668295" lon="-3.499451028183103">
        <ele>1090.8</ele>
        <time>2018-05-26T10:32:23Z</time>
      </trkpt>
      <trkpt lat="42.007985031232238" lon="-3.499347008764744">
        <ele>1091.3</ele>
        <time>2018-05-26T10:32:26Z</time>
      </trkpt>
      <trkpt lat="42.007918981835246" lon="-3.499249024316669">
        <ele>1091.8</ele>
        <time>2018-05-26T10:32:29Z</time>
      </trkpt>
      <trkpt lat="42.007846981287003" lon="-3.49914601072669">
        <ele>1092.2</ele>
        <time>2018-05-26T10:32:32Z</time>
      </trkpt>
      <trkpt lat="42.007790990173817" lon="-3.499031011015177">
        <ele>1092.7</ele>
        <time>2018-05-26T10:32:35Z</time>
      </trkpt>
      <trkpt lat="42.007750002667308" lon="-3.498921040445566">
        <ele>1093.0999999999999</ele>
        <time>2018-05-26T10:32:37Z</time>
      </trkpt>
      <trkpt lat="42.007707003504038" lon="-3.498808974400163">
        <ele>1093.5999999999999</ele>
        <time>2018-05-26T10:32:40Z</time>
      </trkpt>
      <trkpt lat="42.007679007947445" lon="-3.498686011880636">
        <ele>1094.3</ele>
        <time>2018-05-26T10:32:43Z</time>
      </trkpt>
      <trkpt lat="42.007684037089348" lon="-3.498550979420543">
        <ele>1095.2</ele>
        <time>2018-05-26T10:32:46Z</time>
      </trkpt>
      <trkpt lat="42.007683031260967" lon="-3.49841795861721">
        <ele>1096.0999999999999</ele>
        <time>2018-05-26T10:32:49Z</time>
      </trkpt>
      <trkpt lat="42.007665010169148" lon="-3.498299019411206">
        <ele>1097</ele>
        <time>2018-05-26T10:32:52Z</time>
      </trkpt>
      <trkpt lat="42.007629973813891" lon="-3.498177984729409">
        <ele>1097.9000000000001</ele>
        <time>2018-05-26T10:32:54Z</time>
      </trkpt>
      <trkpt lat="42.007598960772157" lon="-3.498052004724741">
        <ele>1098.8</ele>
        <time>2018-05-26T10:32:57Z</time>
      </trkpt>
      <trkpt lat="42.007586974650621" lon="-3.497930970042944">
        <ele>1099.7</ele>
        <time>2018-05-26T10:33:00Z</time>
      </trkpt>
      <trkpt lat="42.007575994357467" lon="-3.497797027230263">
        <ele>1100.5</ele>
        <time>2018-05-26T10:33:03Z</time>
      </trkpt>
      <trkpt lat="42.007544981315732" lon="-3.497673980891705">
        <ele>1101.2</ele>
        <time>2018-05-26T10:33:06Z</time>
      </trkpt>
      <trkpt lat="42.00749502517283" lon="-3.497559987008572">
        <ele>1101.9000000000001</ele>
        <time>2018-05-26T10:33:09Z</time>
      </trkpt>
      <trkpt lat="42.007442973554134" lon="-3.497454039752483">
        <ele>1102.5</ele>
        <time>2018-05-26T10:33:12Z</time>
      </trkpt>
      <trkpt lat="42.00738899409771" lon="-3.497345997020602">
        <ele>1103.0999999999999</ele>
        <time>2018-05-26T10:33:15Z</time>
      </trkpt>
      <trkpt lat="42.007340965792537" lon="-3.497224962338805">
        <ele>1103.5999999999999</ele>
        <time>2018-05-26T10:33:18Z</time>
      </trkpt>
      <trkpt lat="42.007296038791537" lon="-3.497113985940814">
        <ele>1104.0999999999999</ele>
        <time>2018-05-26T10:33:20Z</time>
      </trkpt>
      <trkpt lat="42.00723703019321" lon="-3.496987000107765">
        <ele>1104.5</ele>
        <time>2018-05-26T10:33:24Z</time>
      </trkpt>
      <trkpt lat="42.007185984402895" lon="-3.496885998174548">
        <ele>1104.8</ele>
        <time>2018-05-26T10:33:26Z</time>
      </trkpt>
      <trkpt lat="42.007129993289709" lon="-3.496790025383234">
        <ele>1105.0999999999999</ele>
        <time>2018-05-26T10:33:29Z</time>
      </trkpt>
      <trkpt lat="42.007107026875019" lon="-3.496655998751521">
        <ele>1105.5999999999999</ele>
        <time>2018-05-26T10:33:32Z</time>
      </trkpt>
      <trkpt lat="42.007070984691381" lon="-3.496533036231995">
        <ele>1106</ele>
        <time>2018-05-26T10:33:35Z</time>
      </trkpt>
      <trkpt lat="42.00702203437686" lon="-3.496407978236675">
        <ele>1106.4000000000001</ele>
        <time>2018-05-26T10:33:38Z</time>
      </trkpt>
      <trkpt lat="42.006955984979868" lon="-3.496293984353542">
        <ele>1106.8</ele>
        <time>2018-05-26T10:33:41Z</time>
      </trkpt>
      <trkpt lat="42.006903011351824" lon="-3.496174961328507">
        <ele>1107.5</ele>
        <time>2018-05-26T10:33:44Z</time>
      </trkpt>
      <trkpt lat="42.006879039108753" lon="-3.496055016294122">
        <ele>1108.4000000000001</ele>
        <time>2018-05-26T10:33:47Z</time>
      </trkpt>
      <trkpt lat="42.006825981661677" lon="-3.495938004925847">
        <ele>1109</ele>
        <time>2018-05-26T10:33:50Z</time>
      </trkpt>
      <trkpt lat="42.006754986941814" lon="-3.495838008821011">
        <ele>1109.5</ele>
        <time>2018-05-26T10:33:53Z</time>
      </trkpt>
      <trkpt lat="42.006693966686726" lon="-3.495740024372935">
        <ele>1109.9000000000001</ele>
        <time>2018-05-26T10:33:56Z</time>
      </trkpt>
      <trkpt lat="42.006657002493739" lon="-3.495625024661422">
        <ele>1110.3</ele>
        <time>2018-05-26T10:33:59Z</time>
      </trkpt>
      <trkpt lat="42.006602017208934" lon="-3.495500972494483">
        <ele>1110.7</ele>
        <time>2018-05-26T10:34:02Z</time>
      </trkpt>
      <trkpt lat="42.006561029702425" lon="-3.495377004146576">
        <ele>1110.9000000000001</ele>
        <time>2018-05-26T10:34:05Z</time>
      </trkpt>
      <trkpt lat="42.006534961983562" lon="-3.495239038020372">
        <ele>1111.0999999999999</ele>
        <time>2018-05-26T10:34:08Z</time>
      </trkpt>
      <trkpt lat="42.006495986133814" lon="-3.495119009166956">
        <ele>1111</ele>
        <time>2018-05-26T10:34:11Z</time>
      </trkpt>
      <trkpt lat="42.006445024162531" lon="-3.494982970878482">
        <ele>1110.9000000000001</ele>
        <time>2018-05-26T10:34:14Z</time>
      </trkpt>
      <trkpt lat="42.006404036656022" lon="-3.494868976995349">
        <ele>1110.8</ele>
        <time>2018-05-26T10:34:17Z</time>
      </trkpt>
      <trkpt lat="42.006347961723804" lon="-3.494744002819061">
        <ele>1110.5999999999999</ele>
        <time>2018-05-26T10:34:20Z</time>
      </trkpt>
      <trkpt lat="42.006296999752522" lon="-3.494621962308884">
        <ele>1110.3</ele>
        <time>2018-05-26T10:34:23Z</time>
      </trkpt>
      <trkpt lat="42.00625098310411" lon="-3.494491036981344">
        <ele>1110.4000000000001</ele>
        <time>2018-05-26T10:34:27Z</time>
      </trkpt>
      <trkpt lat="42.006189962849021" lon="-3.494356004521251">
        <ele>1110.8</ele>
        <time>2018-05-26T10:34:30Z</time>
      </trkpt>
      <trkpt lat="42.00614201836288" lon="-3.494241004809737">
        <ele>1111.0999999999999</ele>
        <time>2018-05-26T10:34:33Z</time>
      </trkpt>
      <trkpt lat="42.006074963137507" lon="-3.494129022583365">
        <ele>1111.3</ele>
        <time>2018-05-26T10:34:36Z</time>
      </trkpt>
      <trkpt lat="42.006010003387928" lon="-3.494018968194723">
        <ele>1111.5999999999999</ele>
        <time>2018-05-26T10:34:39Z</time>
      </trkpt>
      <trkpt lat="42.005947977304459" lon="-3.493927018716931">
        <ele>1111.7</ele>
        <time>2018-05-26T10:34:42Z</time>
      </trkpt>
      <trkpt lat="42.005895003676414" lon="-3.493829034268856">
        <ele>1111.9000000000001</ele>
        <time>2018-05-26T10:34:45Z</time>
      </trkpt>
      <trkpt lat="42.005835995078087" lon="-3.493725014850497">
        <ele>1112.0999999999999</ele>
        <time>2018-05-26T10:34:47Z</time>
      </trkpt>
      <trkpt lat="42.005781009793282" lon="-3.493618983775377">
        <ele>1112.4000000000001</ele>
        <time>2018-05-26T10:34:50Z</time>
      </trkpt>
      <trkpt lat="42.005716972053051" lon="-3.493513036519289">
        <ele>1112.5999999999999</ele>
        <time>2018-05-26T10:34:53Z</time>
      </trkpt>
      <trkpt lat="42.005667015910149" lon="-3.493383033201098">
        <ele>1113</ele>
        <time>2018-05-26T10:34:57Z</time>
      </trkpt>
      <trkpt lat="42.00562602840364" lon="-3.493248000741005">
        <ele>1113.4000000000001</ele>
        <time>2018-05-26T10:35:00Z</time>
      </trkpt>
      <trkpt lat="42.005574982613325" lon="-3.493133001029491">
        <ele>1113.7</ele>
        <time>2018-05-26T10:35:03Z</time>
      </trkpt>
      <trkpt lat="42.005523014813662" lon="-3.493009032681584">
        <ele>1114.0999999999999</ele>
        <time>2018-05-26T10:35:06Z</time>
      </trkpt>
      <trkpt lat="42.005487978458405" lon="-3.492883974686265">
        <ele>1114.4000000000001</ele>
        <time>2018-05-26T10:35:09Z</time>
      </trkpt>
      <trkpt lat="42.00545503757894" lon="-3.4927630238235">
        <ele>1114.5999999999999</ele>
        <time>2018-05-26T10:35:12Z</time>
      </trkpt>
      <trkpt lat="42.005410026758909" lon="-3.492645006626844">
        <ele>1114.5999999999999</ele>
        <time>2018-05-26T10:35:15Z</time>
      </trkpt>
      <trkpt lat="42.005383959040046" lon="-3.49252799525857">
        <ele>1114.8</ele>
        <time>2018-05-26T10:35:17Z</time>
      </trkpt>
      <trkpt lat="42.005354035645723" lon="-3.492391034960747">
        <ele>1115</ele>
        <time>2018-05-26T10:35:20Z</time>
      </trkpt>
      <trkpt lat="42.005342971533537" lon="-3.492263965308666">
        <ele>1115.3</ele>
        <time>2018-05-26T10:35:23Z</time>
      </trkpt>
      <trkpt lat="42.00532604008913" lon="-3.492135973647237">
        <ele>1115.5</ele>
        <time>2018-05-26T10:35:26Z</time>
      </trkpt>
      <trkpt lat="42.005299972370267" lon="-3.491994990035892">
        <ele>1115.8</ele>
        <time>2018-05-26T10:35:29Z</time>
      </trkpt>
      <trkpt lat="42.005278011783957" lon="-3.491873033344746">
        <ele>1116</ele>
        <time>2018-05-26T10:35:32Z</time>
      </trkpt>
      <trkpt lat="42.005248004570603" lon="-3.49175401031971">
        <ele>1116.2</ele>
        <time>2018-05-26T10:35:35Z</time>
      </trkpt>
      <trkpt lat="42.005212968215346" lon="-3.49162601865828">
        <ele>1116.4000000000001</ele>
        <time>2018-05-26T10:35:38Z</time>
      </trkpt>
      <trkpt lat="42.005183966830373" lon="-3.491477994248271">
        <ele>1116.5999999999999</ele>
        <time>2018-05-26T10:35:41Z</time>
      </trkpt>
      <trkpt lat="42.005164017900825" lon="-3.491342039778829">
        <ele>1116.9000000000001</ele>
        <time>2018-05-26T10:35:44Z</time>
      </trkpt>
      <trkpt lat="42.005139039829373" lon="-3.491197032853961">
        <ele>1117.3</ele>
        <time>2018-05-26T10:35:47Z</time>
      </trkpt>
      <trkpt lat="42.005108026787639" lon="-3.491069963201881">
        <ele>1117.8</ele>
        <time>2018-05-26T10:35:50Z</time>
      </trkpt>
      <trkpt lat="42.005067961290479" lon="-3.490962004289031">
        <ele>1118.3</ele>
        <time>2018-05-26T10:35:53Z</time>
      </trkpt>
      <trkpt lat="42.00502404011786" lon="-3.49085396155715">
        <ele>1118.7</ele>
        <time>2018-05-26T10:35:56Z</time>
      </trkpt>
      <trkpt lat="42.004980035126209" lon="-3.490746002644301">
        <ele>1119.2</ele>
        <time>2018-05-26T10:35:58Z</time>
      </trkpt>
      <trkpt lat="42.004939969629049" lon="-3.490628991276026">
        <ele>1119.7</ele>
        <time>2018-05-26T10:36:01Z</time>
      </trkpt>
      <trkpt lat="42.004909040406346" lon="-3.490508040413261">
        <ele>1120.3</ele>
        <time>2018-05-26T10:36:04Z</time>
      </trkpt>
      <trkpt lat="42.004866041243076" lon="-3.490387005731463">
        <ele>1120.8</ele>
        <time>2018-05-26T10:36:07Z</time>
      </trkpt>
      <trkpt lat="42.004816001281142" lon="-3.490280974656344">
        <ele>1121</ele>
        <time>2018-05-26T10:36:10Z</time>
      </trkpt>
      <trkpt lat="42.004776019603014" lon="-3.490145020186901">
        <ele>1121.4000000000001</ele>
        <time>2018-05-26T10:36:13Z</time>
      </trkpt>
      <trkpt lat="42.004738971590996" lon="-3.490008981898427">
        <ele>1121.8</ele>
        <time>2018-05-26T10:36:16Z</time>
      </trkpt>
      <trkpt lat="42.004721034318209" lon="-3.489871015772224">
        <ele>1122.3</ele>
        <time>2018-05-26T10:36:19Z</time>
      </trkpt>
      <trkpt lat="42.004694966599345" lon="-3.489751992747188">
        <ele>1122.7</ele>
        <time>2018-05-26T10:36:22Z</time>
      </trkpt>
      <trkpt lat="42.004646016284823" lon="-3.4896270185709">
        <ele>1123</ele>
        <time>2018-05-26T10:36:25Z</time>
      </trkpt>
      <trkpt lat="42.004584996029735" lon="-3.489501960575581">
        <ele>1123.4000000000001</ele>
        <time>2018-05-26T10:36:29Z</time>
      </trkpt>
      <trkpt lat="42.004521964117885" lon="-3.489386038854718">
        <ele>1123.5999999999999</ele>
        <time>2018-05-26T10:36:32Z</time>
      </trkpt>
      <trkpt lat="42.004465973004699" lon="-3.489276990294457">
        <ele>1123.9000000000001</ele>
        <time>2018-05-26T10:36:35Z</time>
      </trkpt>
      <trkpt lat="42.004405036568642" lon="-3.489166013896465">
        <ele>1124</ele>
        <time>2018-05-26T10:36:38Z</time>
      </trkpt>
      <trkpt lat="42.004365976899862" lon="-3.489055037498474">
        <ele>1124.3</ele>
        <time>2018-05-26T10:36:40Z</time>
      </trkpt>
      <trkpt lat="42.004319960251451" lon="-3.488934002816677">
        <ele>1124.5999999999999</ele>
        <time>2018-05-26T10:36:43Z</time>
      </trkpt>
      <trkpt lat="42.004262041300535" lon="-3.488820008933544">
        <ele>1124.8</ele>
        <time>2018-05-26T10:36:46Z</time>
      </trkpt>
      <trkpt lat="42.004194986075163" lon="-3.488716995343566">
        <ele>1124.8</ele>
        <time>2018-05-26T10:36:49Z</time>
      </trkpt>
      <trkpt lat="42.004130026325583" lon="-3.488604007288814">
        <ele>1124.7</ele>
        <time>2018-05-26T10:36:53Z</time>
      </trkpt>
      <trkpt lat="42.004071017727256" lon="-3.488475009799004">
        <ele>1124.8</ele>
        <time>2018-05-26T10:36:56Z</time>
      </trkpt>
      <trkpt lat="42.004011003300548" lon="-3.488354980945587">
        <ele>1124.8</ele>
        <time>2018-05-26T10:36:59Z</time>
      </trkpt>
      <trkpt lat="42.003954006358981" lon="-3.488225983455777">
        <ele>1125</ele>
        <time>2018-05-26T10:37:02Z</time>
      </trkpt>
      <trkpt lat="42.003896003589034" lon="-3.488097991794348">
        <ele>1125.0999999999999</ele>
        <time>2018-05-26T10:37:06Z</time>
      </trkpt>
      <trkpt lat="42.003815034404397" lon="-3.487985003739595">
        <ele>1125.0999999999999</ele>
        <time>2018-05-26T10:37:09Z</time>
      </trkpt>
      <trkpt lat="42.003744961693883" lon="-3.487904034554958">
        <ele>1125</ele>
        <time>2018-05-26T10:37:12Z</time>
      </trkpt>
      <trkpt lat="42.003667009994388" lon="-3.487827004864812">
        <ele>1124.4000000000001</ele>
        <time>2018-05-26T10:37:15Z</time>
      </trkpt>
      <trkpt lat="42.003570031374693" lon="-3.487744024023414">
        <ele>1123.7</ele>
        <time>2018-05-26T10:37:18Z</time>
      </trkpt>
      <trkpt lat="42.003495013341308" lon="-3.487665988504887">
        <ele>1123.3</ele>
        <time>2018-05-26T10:37:21Z</time>
      </trkpt>
      <trkpt lat="42.003408009186387" lon="-3.487555012106895">
        <ele>1122.7</ele>
        <time>2018-05-26T10:37:24Z</time>
      </trkpt>
      <trkpt lat="42.003344977274537" lon="-3.487430959939957">
        <ele>1122.4000000000001</ele>
        <time>2018-05-26T10:37:28Z</time>
      </trkpt>
      <trkpt lat="42.003267025575042" lon="-3.487318977713585">
        <ele>1121.9000000000001</ele>
        <time>2018-05-26T10:37:31Z</time>
      </trkpt>
      <trkpt lat="42.003180021420121" lon="-3.487232979387045">
        <ele>1121.5</ele>
        <time>2018-05-26T10:37:34Z</time>
      </trkpt>
      <trkpt lat="42.003089999780059" lon="-3.487129965797067">
        <ele>1121</ele>
        <time>2018-05-26T10:37:38Z</time>
      </trkpt>
      <trkpt lat="42.003021016716957" lon="-3.487033993005753">
        <ele>1120.5999999999999</ele>
        <time>2018-05-26T10:37:41Z</time>
      </trkpt>
      <trkpt lat="42.002938035875559" lon="-3.486941959708929">
        <ele>1120.0999999999999</ele>
        <time>2018-05-26T10:37:44Z</time>
      </trkpt>
      <trkpt lat="42.002848014235497" lon="-3.486860990524292">
        <ele>1119.4000000000001</ele>
        <time>2018-05-26T10:37:47Z</time>
      </trkpt>
      <trkpt lat="42.002752041444182" lon="-3.486767029389739">
        <ele>1118.5</ele>
        <time>2018-05-26T10:37:51Z</time>
      </trkpt>
      <trkpt lat="42.002681968733668" lon="-3.486681031063199">
        <ele>1117.9000000000001</ele>
        <time>2018-05-26T10:37:54Z</time>
      </trkpt>
      <trkpt lat="42.002589013427496" lon="-3.486584974452853">
        <ele>1117.0999999999999</ele>
        <time>2018-05-26T10:37:57Z</time>
      </trkpt>
      <trkpt lat="42.002527993172407" lon="-3.486481038853526">
        <ele>1116.5999999999999</ele>
        <time>2018-05-26T10:38:00Z</time>
      </trkpt>
      <trkpt lat="42.002460015937686" lon="-3.486336031928659">
        <ele>1116.0999999999999</ele>
        <time>2018-05-26T10:38:04Z</time>
      </trkpt>
      <trkpt lat="42.002390027046204" lon="-3.486247016116977">
        <ele>1115.5999999999999</ele>
        <time>2018-05-26T10:38:07Z</time>
      </trkpt>
      <trkpt lat="42.002312997356057" lon="-3.486170992255211">
        <ele>1115</ele>
        <time>2018-05-26T10:38:09Z</time>
      </trkpt>
      <trkpt lat="42.00223496183753" lon="-3.486096980050206">
        <ele>1114.4000000000001</ele>
        <time>2018-05-26T10:38:12Z</time>
      </trkpt>
      <trkpt lat="42.002143012359738" lon="-3.486007964238524">
        <ele>1113.7</ele>
        <time>2018-05-26T10:38:16Z</time>
      </trkpt>
      <trkpt lat="42.002073023468256" lon="-3.485908973962069">
        <ele>1113.4000000000001</ele>
        <time>2018-05-26T10:38:19Z</time>
      </trkpt>
      <trkpt lat="42.002005968242884" lon="-3.485799003392458">
        <ele>1113.8</ele>
        <time>2018-05-26T10:38:22Z</time>
      </trkpt>
      <trkpt lat="42.001945031806827" lon="-3.485693978145719">
        <ele>1114.0999999999999</ele>
        <time>2018-05-26T10:38:25Z</time>
      </trkpt>
      <trkpt lat="42.001878982409835" lon="-3.485571015626192">
        <ele>1114.5</ele>
        <time>2018-05-26T10:38:28Z</time>
      </trkpt>
      <trkpt lat="42.001822991296649" lon="-3.485446041449904">
        <ele>1114.9000000000001</ele>
        <time>2018-05-26T10:38:31Z</time>
      </trkpt>
      <trkpt lat="42.00176197104156" lon="-3.485314026474953">
        <ele>1115.5</ele>
        <time>2018-05-26T10:38:35Z</time>
      </trkpt>
      <trkpt lat="42.00169499963522" lon="-3.485184023156762">
        <ele>1116.0999999999999</ele>
        <time>2018-05-26T10:38:38Z</time>
      </trkpt>
      <trkpt lat="42.001643031835556" lon="-3.485054019838572">
        <ele>1116.7</ele>
        <time>2018-05-26T10:38:41Z</time>
      </trkpt>
      <trkpt lat="42.001606989651918" lon="-3.484929967671633">
        <ele>1117.0999999999999</ele>
        <time>2018-05-26T10:38:44Z</time>
      </trkpt>
      <trkpt lat="42.001571031287313" lon="-3.484792001545429">
        <ele>1117.5999999999999</ele>
        <time>2018-05-26T10:38:48Z</time>
      </trkpt>
      <trkpt lat="42.001530965790153" lon="-3.484677001833916">
        <ele>1118.0999999999999</ele>
        <time>2018-05-26T10:38:50Z</time>
      </trkpt>
      <trkpt lat="42.001489978283644" lon="-3.484556972980499">
        <ele>1118.5</ele>
        <time>2018-05-26T10:38:53Z</time>
      </trkpt>
      <trkpt lat="42.001461982727051" lon="-3.484441973268986">
        <ele>1118.8</ele>
        <time>2018-05-26T10:38:56Z</time>
      </trkpt>
      <trkpt lat="42.001426024362445" lon="-3.484319010749459">
        <ele>1119.2</ele>
        <time>2018-05-26T10:38:59Z</time>
      </trkpt>
      <trkpt lat="42.001424012705684" lon="-3.484194036573172">
        <ele>1119.4000000000001</ele>
        <time>2018-05-26T10:39:02Z</time>
      </trkpt>
      <trkpt lat="42.001418983563781" lon="-3.484070990234613">
        <ele>1119.7</ele>
        <time>2018-05-26T10:39:04Z</time>
      </trkpt>
      <trkpt lat="42.001388976350427" lon="-3.483951967209578">
        <ele>1119.9000000000001</ele>
        <time>2018-05-26T10:39:07Z</time>
      </trkpt>
      <trkpt lat="42.001312030479312" lon="-3.483862029388547">
        <ele>1120</ele>
        <time>2018-05-26T10:39:10Z</time>
      </trkpt>
      <trkpt lat="42.001228965818882" lon="-3.483774019405246">
        <ele>1120</ele>
        <time>2018-05-26T10:39:13Z</time>
      </trkpt>
      <trkpt lat="42.001163000240922" lon="-3.483665976673365">
        <ele>1120.2</ele>
        <time>2018-05-26T10:39:16Z</time>
      </trkpt>
      <trkpt lat="42.001109020784497" lon="-3.483541002497077">
        <ele>1120.4000000000001</ele>
        <time>2018-05-26T10:39:19Z</time>
      </trkpt>
      <trkpt lat="42.00109401717782" lon="-3.48339700140059">
        <ele>1120.7</ele>
        <time>2018-05-26T10:39:23Z</time>
      </trkpt>
      <trkpt lat="42.001069039106369" lon="-3.483275966718793">
        <ele>1120.9000000000001</ele>
        <time>2018-05-26T10:39:25Z</time>
      </trkpt>
      <trkpt lat="42.001027967780828" lon="-3.483142023906112">
        <ele>1121.0999999999999</ele>
        <time>2018-05-26T10:39:29Z</time>
      </trkpt>
      <trkpt lat="42.000981029123068" lon="-3.483026018366218">
        <ele>1121.2</ele>
        <time>2018-05-26T10:39:32Z</time>
      </trkpt>
      <trkpt lat="42.000957978889346" lon="-3.482882017269731">
        <ele>1121.4000000000001</ele>
        <time>2018-05-26T10:39:35Z</time>
      </trkpt>
      <trkpt lat="42.000949010252953" lon="-3.482742961496115">
        <ele>1121.7</ele>
        <time>2018-05-26T10:39:38Z</time>
      </trkpt>
      <trkpt lat="42.000914979726076" lon="-3.482627961784601">
        <ele>1121.8</ele>
        <time>2018-05-26T10:39:41Z</time>
      </trkpt>
      <trkpt lat="42.000866029411554" lon="-3.482512040063739">
        <ele>1121.9000000000001</ele>
        <time>2018-05-26T10:39:44Z</time>
      </trkpt>
      <trkpt lat="42.000810038298368" lon="-3.482412965968251">
        <ele>1121.8</ele>
        <time>2018-05-26T10:39:46Z</time>
      </trkpt>
      <trkpt lat="42.000770978629589" lon="-3.482285980135202">
        <ele>1121.8</ele>
        <time>2018-05-26T10:39:49Z</time>
      </trkpt>
      <trkpt lat="42.000727979466319" lon="-3.482136027887464">
        <ele>1121.8</ele>
        <time>2018-05-26T10:39:53Z</time>
      </trkpt>
      <trkpt lat="42.000641981139779" lon="-3.48200099542737">
        <ele>1121.0999999999999</ele>
        <time>2018-05-26T10:39:57Z</time>
      </trkpt>
      <trkpt lat="42.000567968934774" lon="-3.481882978230715">
        <ele>1120.3</ele>
        <time>2018-05-26T10:40:00Z</time>
      </trkpt>
      <trkpt lat="42.000509966164827" lon="-3.48176596686244">
        <ele>1119.5</ele>
        <time>2018-05-26T10:40:03Z</time>
      </trkpt>
      <trkpt lat="42.000460010021925" lon="-3.481662031263113">
        <ele>1118.8</ele>
        <time>2018-05-26T10:40:06Z</time>
      </trkpt>
      <trkpt lat="42.000457998365164" lon="-3.481520963832736">
        <ele>1118.3</ele>
        <time>2018-05-26T10:40:09Z</time>
      </trkpt>
      <trkpt lat="42.000422040000558" lon="-3.481405964121223">
        <ele>1117.5999999999999</ele>
        <time>2018-05-26T10:40:12Z</time>
      </trkpt>
      <trkpt lat="42.000368982553482" lon="-3.481304040178657">
        <ele>1116.7</ele>
        <time>2018-05-26T10:40:15Z</time>
      </trkpt>
      <trkpt lat="42.000267980620265" lon="-3.481194991618395">
        <ele>1115.5999999999999</ele>
        <time>2018-05-26T10:40:18Z</time>
      </trkpt>
      <trkpt lat="42.000209977850318" lon="-3.481101030483842">
        <ele>1115.2</ele>
        <time>2018-05-26T10:40:21Z</time>
      </trkpt>
      <trkpt lat="42.0001470297575" lon="-3.48101100884378">
        <ele>1114.9000000000001</ele>
        <time>2018-05-26T10:40:24Z</time>
      </trkpt>
      <trkpt lat="42.000070000067353" lon="-3.480907995253801">
        <ele>1114.5999999999999</ele>
        <time>2018-05-26T10:40:27Z</time>
      </trkpt>
      <trkpt lat="41.999987019225955" lon="-3.480827026069164">
        <ele>1114.5</ele>
        <time>2018-05-26T10:40:30Z</time>
      </trkpt>
      <trkpt lat="41.999924993142486" lon="-3.480698028579354">
        <ele>1114.7</ele>
        <time>2018-05-26T10:40:33Z</time>
      </trkpt>
      <trkpt lat="41.999871013686061" lon="-3.480540029704571">
        <ele>1115.4000000000001</ele>
        <time>2018-05-26T10:40:37Z</time>
      </trkpt>
      <trkpt lat="41.999814016744494" lon="-3.480386976152659">
        <ele>1116</ele>
        <time>2018-05-26T10:40:41Z</time>
      </trkpt>
      <trkpt lat="41.999769005924463" lon="-3.480254039168358">
        <ele>1116.2</ele>
        <time>2018-05-26T10:40:44Z</time>
      </trkpt>
      <trkpt lat="41.999730030074716" lon="-3.480140967294574">
        <ele>1116.3</ele>
        <time>2018-05-26T10:40:47Z</time>
      </trkpt>
      <trkpt lat="41.999688036739826" lon="-3.480032002553344">
        <ele>1116.5</ele>
        <time>2018-05-26T10:40:50Z</time>
      </trkpt>
      <trkpt lat="41.999645959585905" lon="-3.479923959821463">
        <ele>1116.5999999999999</ele>
        <time>2018-05-26T10:40:52Z</time>
      </trkpt>
      <trkpt lat="41.999589968472719" lon="-3.479805020615459">
        <ele>1116.7</ele>
        <time>2018-05-26T10:40:56Z</time>
      </trkpt>
      <trkpt lat="41.999551998451352" lon="-3.479660013690591">
        <ele>1117.2</ele>
        <time>2018-05-26T10:40:59Z</time>
      </trkpt>
      <trkpt lat="41.999519979581237" lon="-3.479522969573736">
        <ele>1117.8</ele>
        <time>2018-05-26T10:41:02Z</time>
      </trkpt>
      <trkpt lat="41.999475974589586" lon="-3.479406964033842">
        <ele>1118.5</ele>
        <time>2018-05-26T10:41:05Z</time>
      </trkpt>
      <trkpt lat="41.999453008174896" lon="-3.479270003736019">
        <ele>1119.0999999999999</ele>
        <time>2018-05-26T10:41:08Z</time>
      </trkpt>
      <trkpt lat="41.999413026496768" lon="-3.479132959619165">
        <ele>1119.8</ele>
        <time>2018-05-26T10:41:11Z</time>
      </trkpt>
      <trkpt lat="41.999386036768556" lon="-3.478999016806483">
        <ele>1120.5</ele>
        <time>2018-05-26T10:41:14Z</time>
      </trkpt>
      <trkpt lat="41.999355023726821" lon="-3.47888401709497">
        <ele>1121.0999999999999</ele>
        <time>2018-05-26T10:41:17Z</time>
      </trkpt>
      <trkpt lat="41.999312024563551" lon="-3.478760970756412">
        <ele>1121.9000000000001</ele>
        <time>2018-05-26T10:41:20Z</time>
      </trkpt>
      <trkpt lat="41.999272964894772" lon="-3.478588974103332">
        <ele>1122.2</ele>
        <time>2018-05-26T10:41:24Z</time>
      </trkpt>
      <trkpt lat="41.99924698099494" lon="-3.478463999927044">
        <ele>1122.3</ele>
        <time>2018-05-26T10:41:27Z</time>
      </trkpt>
      <trkpt lat="41.999228037893772" lon="-3.478343971073628">
        <ele>1122.3</ele>
        <time>2018-05-26T10:41:30Z</time>
      </trkpt>
      <trkpt lat="41.999209010973573" lon="-3.478210028260946">
        <ele>1122.4000000000001</ele>
        <time>2018-05-26T10:41:33Z</time>
      </trkpt>
      <trkpt lat="41.999185960739851" lon="-3.478068960830569">
        <ele>1122.5</ele>
        <time>2018-05-26T10:41:36Z</time>
      </trkpt>
      <trkpt lat="41.999172968789935" lon="-3.477934012189508">
        <ele>1122.5</ele>
        <time>2018-05-26T10:41:39Z</time>
      </trkpt>
      <trkpt lat="41.999147990718484" lon="-3.477810965850949">
        <ele>1122.9000000000001</ele>
        <time>2018-05-26T10:41:42Z</time>
      </trkpt>
      <trkpt lat="41.999123012647033" lon="-3.477677023038268">
        <ele>1123.4000000000001</ele>
        <time>2018-05-26T10:41:45Z</time>
      </trkpt>
      <trkpt lat="41.999094011262059" lon="-3.477561017498374">
        <ele>1123.9000000000001</ele>
        <time>2018-05-26T10:41:47Z</time>
      </trkpt>
      <trkpt lat="41.999073978513479" lon="-3.477434031665325">
        <ele>1124.3</ele>
        <time>2018-05-26T10:41:50Z</time>
      </trkpt>
      <trkpt lat="41.999037014320493" lon="-3.477289024740458">
        <ele>1124.9000000000001</ele>
        <time>2018-05-26T10:41:54Z</time>
      </trkpt>
      <trkpt lat="41.999028967693448" lon="-3.477150974795222">
        <ele>1125.2</ele>
        <time>2018-05-26T10:41:57Z</time>
      </trkpt>
      <trkpt lat="41.99903198517859" lon="-3.477012002840638">
        <ele>1125.5</ele>
        <time>2018-05-26T10:42:00Z</time>
      </trkpt>
      <trkpt lat="41.999008012935519" lon="-3.476875964552164">
        <ele>1126</ele>
        <time>2018-05-26T10:42:03Z</time>
      </trkpt>
      <trkpt lat="41.998965013772249" lon="-3.476746967062354">
        <ele>1126.7</ele>
        <time>2018-05-26T10:42:06Z</time>
      </trkpt>
      <trkpt lat="41.998912040144205" lon="-3.476638002321124">
        <ele>1127.3</ele>
        <time>2018-05-26T10:42:09Z</time>
      </trkpt>
      <trkpt lat="41.998849008232355" lon="-3.476513028144836">
        <ele>1128</ele>
        <time>2018-05-26T10:42:12Z</time>
      </trkpt>
      <trkpt lat="41.998799974098802" lon="-3.476394005119801">
        <ele>1128.5</ele>
        <time>2018-05-26T10:42:15Z</time>
      </trkpt>
      <trkpt lat="41.998767033219337" lon="-3.476258972659707">
        <ele>1128.9000000000001</ele>
        <time>2018-05-26T10:42:18Z</time>
      </trkpt>
      <trkpt lat="41.998737026005983" lon="-3.476126035675407">
        <ele>1129.0999999999999</ele>
        <time>2018-05-26T10:42:21Z</time>
      </trkpt>
      <trkpt lat="41.998725039884448" lon="-3.475994020700455">
        <ele>1129.0999999999999</ele>
        <time>2018-05-26T10:42:24Z</time>
      </trkpt>
      <trkpt lat="41.998714981600642" lon="-3.475722027942538">
        <ele>1129.2</ele>
        <time>2018-05-26T10:42:30Z</time>
      </trkpt>
      <trkpt lat="41.998701989650726" lon="-3.475591018795967">
        <ele>1129.2</ele>
        <time>2018-05-26T10:42:33Z</time>
      </trkpt>
      <trkpt lat="41.998702995479107" lon="-3.475456992164254">
        <ele>1129.2</ele>
        <time>2018-05-26T10:42:36Z</time>
      </trkpt>
      <trkpt lat="41.998725961893797" lon="-3.475330006331205">
        <ele>1129.2</ele>
        <time>2018-05-26T10:42:39Z</time>
      </trkpt>
      <trkpt lat="41.998740965500474" lon="-3.475186005234718">
        <ele>1129.3</ele>
        <time>2018-05-26T10:42:42Z</time>
      </trkpt>
      <trkpt lat="41.998764015734196" lon="-3.475067988038063">
        <ele>1129.4000000000001</ele>
        <time>2018-05-26T10:42:45Z</time>
      </trkpt>
      <trkpt lat="41.998768039047718" lon="-3.474935973063111">
        <ele>1129.5999999999999</ele>
        <time>2018-05-26T10:42:48Z</time>
      </trkpt>
      <trkpt lat="41.998770972713828" lon="-3.47480203025043">
        <ele>1129.8</ele>
        <time>2018-05-26T10:42:51Z</time>
      </trkpt>
      <trkpt lat="41.998768039047718" lon="-3.474663980305195">
        <ele>1129.9000000000001</ele>
        <time>2018-05-26T10:42:54Z</time>
      </trkpt>
      <trkpt lat="41.998756974935532" lon="-3.474527020007372">
        <ele>1130</ele>
        <time>2018-05-26T10:42:57Z</time>
      </trkpt>
      <trkpt lat="41.99875202961266" lon="-3.474402967840433">
        <ele>1129.8</ele>
        <time>2018-05-26T10:42:59Z</time>
      </trkpt>
      <trkpt lat="41.998776001855731" lon="-3.474275982007384">
        <ele>1129.8</ele>
        <time>2018-05-26T10:43:02Z</time>
      </trkpt>
      <trkpt lat="41.998806009069085" lon="-3.474141033366323">
        <ele>1129.8</ele>
        <time>2018-05-26T10:43:05Z</time>
      </trkpt>
      <trkpt lat="41.998812966048717" lon="-3.474009018391371">
        <ele>1129.7</ele>
        <time>2018-05-26T10:43:08Z</time>
      </trkpt>
      <trkpt lat="41.998803997412324" lon="-3.473881026729941">
        <ele>1129.5999999999999</ele>
        <time>2018-05-26T10:43:11Z</time>
      </trkpt>
      <trkpt lat="41.99879502877593" lon="-3.473753035068512">
        <ele>1129.4000000000001</ele>
        <time>2018-05-26T10:43:14Z</time>
      </trkpt>
      <trkpt lat="41.998779019340873" lon="-3.473630994558334">
        <ele>1129.4000000000001</ele>
        <time>2018-05-26T10:43:17Z</time>
      </trkpt>
      <trkpt lat="41.998766027390957" lon="-3.473504008725286">
        <ele>1129.4000000000001</ele>
        <time>2018-05-26T10:43:20Z</time>
      </trkpt>
      <trkpt lat="41.99875496327877" lon="-3.473376017063856">
        <ele>1129.5</ele>
        <time>2018-05-26T10:43:22Z</time>
      </trkpt>
      <trkpt lat="41.998750017955899" lon="-3.473237967118621">
        <ele>1129.5999999999999</ele>
        <time>2018-05-26T10:43:25Z</time>
      </trkpt>
      <trkpt lat="41.998739959672093" lon="-3.473113998770714">
        <ele>1129.7</ele>
        <time>2018-05-26T10:43:28Z</time>
      </trkpt>
      <trkpt lat="41.998734008520842" lon="-3.472977038472891">
        <ele>1129.8</ele>
        <time>2018-05-26T10:43:31Z</time>
      </trkpt>
      <trkpt lat="41.998716993257403" lon="-3.472834965214133">
        <ele>1129.9000000000001</ele>
        <time>2018-05-26T10:43:34Z</time>
      </trkpt>
      <trkpt lat="41.998701989650726" lon="-3.472700016573072">
        <ele>1130.3</ele>
        <time>2018-05-26T10:43:37Z</time>
      </trkpt>
      <trkpt lat="41.998679023236036" lon="-3.472580993548036">
        <ele>1130.5</ele>
        <time>2018-05-26T10:43:40Z</time>
      </trkpt>
      <trkpt lat="41.998627977445722" lon="-3.47245903685689">
        <ele>1130.4000000000001</ele>
        <time>2018-05-26T10:43:43Z</time>
      </trkpt>
      <trkpt lat="41.998573997989297" lon="-3.472339008003473">
        <ele>1130.3</ele>
        <time>2018-05-26T10:43:46Z</time>
      </trkpt>
      <trkpt lat="41.998524041846395" lon="-3.472216967493296">
        <ele>1130.3</ele>
        <time>2018-05-26T10:43:49Z</time>
      </trkpt>
      <trkpt lat="41.99847400188446" lon="-3.472105991095305">
        <ele>1130.3</ele>
        <time>2018-05-26T10:43:52Z</time>
      </trkpt>
      <trkpt lat="41.998421028256416" lon="-3.471970958635211">
        <ele>1130.5</ele>
        <time>2018-05-26T10:43:56Z</time>
      </trkpt>
      <trkpt lat="41.99838800355792" lon="-3.471851013600826">
        <ele>1130.8</ele>
        <time>2018-05-26T10:43:58Z</time>
      </trkpt>
      <trkpt lat="41.998365959152579" lon="-3.471724027767777">
        <ele>1131.3</ele>
        <time>2018-05-26T10:44:01Z</time>
      </trkpt>
      <trkpt lat="41.998349027708173" lon="-3.471591006964445">
        <ele>1131.8</ele>
        <time>2018-05-26T10:44:04Z</time>
      </trkpt>
      <trkpt lat="41.998317008838058" lon="-3.471464021131396">
        <ele>1132.2</ele>
        <time>2018-05-26T10:44:07Z</time>
      </trkpt>
      <trkpt lat="41.998250959441066" lon="-3.47136402502656">
        <ele>1132</ele>
        <time>2018-05-26T10:44:10Z</time>
      </trkpt>
      <trkpt lat="41.998222041875124" lon="-3.471234021708369">
        <ele>1132.4000000000001</ele>
        <time>2018-05-26T10:44:13Z</time>
      </trkpt>
      <trkpt lat="41.998207038268447" lon="-3.471110975369811">
        <ele>1132.8</ele>
        <time>2018-05-26T10:44:16Z</time>
      </trkpt>
      <trkpt lat="41.99819496832788" lon="-3.470964040607214">
        <ele>1133.3</ele>
        <time>2018-05-26T10:44:19Z</time>
      </trkpt>
      <trkpt lat="41.99817200191319" lon="-3.470843005925417">
        <ele>1133.5</ele>
        <time>2018-05-26T10:44:22Z</time>
      </trkpt>
      <trkpt lat="41.998126991093159" lon="-3.470713002607226">
        <ele>1133.5</ele>
        <time>2018-05-26T10:44:25Z</time>
      </trkpt>
      <trkpt lat="41.99808600358665" lon="-3.470579981803894">
        <ele>1133.5999999999999</ele>
        <time>2018-05-26T10:44:28Z</time>
      </trkpt>
      <trkpt lat="41.998061025515199" lon="-3.470454001799226">
        <ele>1133.8</ele>
        <time>2018-05-26T10:44:31Z</time>
      </trkpt>
      <trkpt lat="41.998049039393663" lon="-3.470316035673022">
        <ele>1134.0999999999999</ele>
        <time>2018-05-26T10:44:34Z</time>
      </trkpt>
      <trkpt lat="41.998023977503181" lon="-3.470184020698071">
        <ele>1134.2</ele>
        <time>2018-05-26T10:44:37Z</time>
      </trkpt>
      <trkpt lat="41.997994976118207" lon="-3.470049994066358">
        <ele>1134.3</ele>
        <time>2018-05-26T10:44:40Z</time>
      </trkpt>
      <trkpt lat="41.997965974733233" lon="-3.469905992969871">
        <ele>1134.5</ele>
        <time>2018-05-26T10:44:43Z</time>
      </trkpt>
      <trkpt lat="41.997953988611698" lon="-3.469771966338158">
        <ele>1134.8</ele>
        <time>2018-05-26T10:44:46Z</time>
      </trkpt>
      <trkpt lat="41.997939990833402" lon="-3.469651015475392">
        <ele>1135</ele>
        <time>2018-05-26T10:44:49Z</time>
      </trkpt>
      <trkpt lat="41.99787201359868" lon="-3.469532998278737">
        <ele>1135.4000000000001</ele>
        <time>2018-05-26T10:44:52Z</time>
      </trkpt>
      <trkpt lat="41.997839994728565" lon="-3.469392014667392">
        <ele>1136.0999999999999</ele>
        <time>2018-05-26T10:44:56Z</time>
      </trkpt>
      <trkpt lat="41.997811999171972" lon="-3.469243990257382">
        <ele>1136.7</ele>
        <time>2018-05-26T10:44:59Z</time>
      </trkpt>
      <trkpt lat="41.997786015272141" lon="-3.46908800303936">
        <ele>1137.4000000000001</ele>
        <time>2018-05-26T10:45:03Z</time>
      </trkpt>
      <trkpt lat="41.997761037200689" lon="-3.468936961144209">
        <ele>1137.9000000000001</ele>
        <time>2018-05-26T10:45:06Z</time>
      </trkpt>
      <trkpt lat="41.997733963653445" lon="-3.468794971704483">
        <ele>1138.4000000000001</ele>
        <time>2018-05-26T10:45:09Z</time>
      </trkpt>
      <trkpt lat="41.997696999460459" lon="-3.468660023063421">
        <ele>1139</ele>
        <time>2018-05-26T10:45:12Z</time>
      </trkpt>
      <trkpt lat="41.997651988640428" lon="-3.468539994210005">
        <ele>1139.7</ele>
        <time>2018-05-26T10:45:15Z</time>
      </trkpt>
      <trkpt lat="41.997601026669145" lon="-3.468430023640394">
        <ele>1140.3</ele>
        <time>2018-05-26T10:45:18Z</time>
      </trkpt>
      <trkpt lat="41.997526008635759" lon="-3.46833597868681">
        <ele>1140.8</ele>
        <time>2018-05-26T10:45:21Z</time>
      </trkpt>
      <trkpt lat="41.997436992824078" lon="-3.468266995623708">
        <ele>1141.0999999999999</ele>
        <time>2018-05-26T10:45:24Z</time>
      </trkpt>
      <trkpt lat="41.997417965903878" lon="-3.468136992305517">
        <ele>1141.9000000000001</ele>
        <time>2018-05-26T10:45:27Z</time>
      </trkpt>
      <trkpt lat="41.997376978397369" lon="-3.468019980937243">
        <ele>1142.7</ele>
        <time>2018-05-26T10:45:30Z</time>
      </trkpt>
      <trkpt lat="41.997357029467821" lon="-3.467895006760955">
        <ele>1143.5</ele>
        <time>2018-05-26T10:45:33Z</time>
      </trkpt>
      <trkpt lat="41.99733498506248" lon="-3.467774977907538">
        <ele>1144.2</ele>
        <time>2018-05-26T10:45:36Z</time>
      </trkpt>
      <trkpt lat="41.997316963970661" lon="-3.467645980417728">
        <ele>1144.9000000000001</ele>
        <time>2018-05-26T10:45:39Z</time>
      </trkpt>
      <trkpt lat="41.997276982292533" lon="-3.467508014291525">
        <ele>1145.7</ele>
        <time>2018-05-26T10:45:42Z</time>
      </trkpt>
      <trkpt lat="41.997215962037444" lon="-3.467384967952967">
        <ele>1146.3</ele>
        <time>2018-05-26T10:45:45Z</time>
      </trkpt>
      <trkpt lat="41.997166005894542" lon="-3.467279020696878">
        <ele>1146.9000000000001</ele>
        <time>2018-05-26T10:45:48Z</time>
      </trkpt>
      <trkpt lat="41.997117977589369" lon="-3.467142982408404">
        <ele>1147.7</ele>
        <time>2018-05-26T10:45:51Z</time>
      </trkpt>
      <trkpt lat="41.997079001739621" lon="-3.467020019888878">
        <ele>1147.9000000000001</ele>
        <time>2018-05-26T10:45:54Z</time>
      </trkpt>
      <trkpt lat="41.997042037546635" lon="-3.466902002692223">
        <ele>1147.5</ele>
        <time>2018-05-26T10:45:57Z</time>
      </trkpt>
      <trkpt lat="41.997015969827771" lon="-3.466770993545651">
        <ele>1147.2</ele>
        <time>2018-05-26T10:46:00Z</time>
      </trkpt>
      <trkpt lat="41.996999960392714" lon="-3.466627998277545">
        <ele>1147</ele>
        <time>2018-05-26T10:46:03Z</time>
      </trkpt>
      <trkpt lat="41.996975988149643" lon="-3.466505035758019">
        <ele>1146.7</ele>
        <time>2018-05-26T10:46:06Z</time>
      </trkpt>
      <trkpt lat="41.996944975107908" lon="-3.466362962499261">
        <ele>1146.4000000000001</ele>
        <time>2018-05-26T10:46:09Z</time>
      </trkpt>
      <trkpt lat="41.996909016743302" lon="-3.466217033565044">
        <ele>1146.2</ele>
        <time>2018-05-26T10:46:13Z</time>
      </trkpt>
      <trkpt lat="41.996866017580032" lon="-3.466092981398106">
        <ele>1146.0999999999999</ele>
        <time>2018-05-26T10:46:16Z</time>
      </trkpt>
      <trkpt lat="41.996821006760001" lon="-3.46595199778676">
        <ele>1146.0999999999999</ele>
        <time>2018-05-26T10:46:19Z</time>
      </trkpt>
      <trkpt lat="41.996783958747983" lon="-3.46580296754837">
        <ele>1146.0999999999999</ele>
        <time>2018-05-26T10:46:22Z</time>
      </trkpt>
      <trkpt lat="41.996738025918603" lon="-3.465661983937025">
        <ele>1146</ele>
        <time>2018-05-26T10:46:26Z</time>
      </trkpt>
      <trkpt lat="41.996703995391726" lon="-3.46554203890264">
        <ele>1146</ele>
        <time>2018-05-26T10:46:29Z</time>
      </trkpt>
      <trkpt lat="41.996686980128288" lon="-3.465401977300644">
        <ele>1146.0999999999999</ele>
        <time>2018-05-26T10:46:32Z</time>
      </trkpt>
      <trkpt lat="41.996682034805417" lon="-3.465279014781117">
        <ele>1146.5</ele>
        <time>2018-05-26T10:46:34Z</time>
      </trkpt>
      <trkpt lat="41.996657978743315" lon="-3.465128978714347">
        <ele>1146.8</ele>
        <time>2018-05-26T10:46:38Z</time>
      </trkpt>
      <trkpt lat="41.996617997065187" lon="-3.464979026466608">
        <ele>1147.2</ele>
        <time>2018-05-26T10:46:41Z</time>
      </trkpt>
      <trkpt lat="41.996576003730297" lon="-3.464840976521373">
        <ele>1147.5</ele>
        <time>2018-05-26T10:46:45Z</time>
      </trkpt>
      <trkpt lat="41.99656100012362" lon="-3.464708039537072">
        <ele>1147.9000000000001</ele>
        <time>2018-05-26T10:46:48Z</time>
      </trkpt>
      <trkpt lat="41.996553037315607" lon="-3.464567977935076">
        <ele>1148.3</ele>
        <time>2018-05-26T10:46:51Z</time>
      </trkpt>
      <trkpt lat="41.99656100012362" lon="-3.464438980445266">
        <ele>1148.0999999999999</ele>
        <time>2018-05-26T10:46:53Z</time>
      </trkpt>
      <trkpt lat="41.996552031487226" lon="-3.464293973520398">
        <ele>1147.8</ele>
        <time>2018-05-26T10:46:57Z</time>
      </trkpt>
      <trkpt lat="41.996516995131969" lon="-3.464181991294026">
        <ele>1147.5</ele>
        <time>2018-05-26T10:46:59Z</time>
      </trkpt>
      <trkpt lat="41.996482964605093" lon="-3.464063974097371">
        <ele>1147.2</ele>
        <time>2018-05-26T10:47:02Z</time>
      </trkpt>
      <trkpt lat="41.996438037604094" lon="-3.463902035728097">
        <ele>1146.8</ele>
        <time>2018-05-26T10:47:06Z</time>
      </trkpt>
      <trkpt lat="41.996401995420456" lon="-3.463787036016583">
        <ele>1146.4000000000001</ele>
        <time>2018-05-26T10:47:09Z</time>
      </trkpt>
      <trkpt lat="41.996327983215451" lon="-3.463649991899729">
        <ele>1145.7</ele>
        <time>2018-05-26T10:47:12Z</time>
      </trkpt>
      <trkpt lat="41.996265035122633" lon="-3.463552007451654">
        <ele>1145.0999999999999</ele>
        <time>2018-05-26T10:47:15Z</time>
      </trkpt>
      <trkpt lat="41.996208038181067" lon="-3.463429966941476">
        <ele>1144.2</ele>
        <time>2018-05-26T10:47:18Z</time>
      </trkpt>
      <trkpt lat="41.996157998219132" lon="-3.463313961401582">
        <ele>1143.3</ele>
        <time>2018-05-26T10:47:21Z</time>
      </trkpt>
      <trkpt lat="41.996107958257198" lon="-3.463195022195578">
        <ele>1142.4000000000001</ele>
        <time>2018-05-26T10:47:24Z</time>
      </trkpt>
      <trkpt lat="41.996062025427818" lon="-3.463083039969206">
        <ele>1141.5999999999999</ele>
        <time>2018-05-26T10:47:27Z</time>
      </trkpt>
      <trkpt lat="41.996010979637504" lon="-3.462982038035989">
        <ele>1140.9000000000001</ele>
        <time>2018-05-26T10:47:30Z</time>
      </trkpt>
      <trkpt lat="41.995924981310964" lon="-3.462869971990585">
        <ele>1140.0999999999999</ele>
        <time>2018-05-26T10:47:34Z</time>
      </trkpt>
      <trkpt lat="41.995857004076242" lon="-3.462755978107452">
        <ele>1139.7</ele>
        <time>2018-05-26T10:47:37Z</time>
      </trkpt>
      <trkpt lat="41.995795983821154" lon="-3.462635027244687">
        <ele>1139.4000000000001</ele>
        <time>2018-05-26T10:47:40Z</time>
      </trkpt>
      <trkpt lat="41.99574301019311" lon="-3.462497983127832">
        <ele>1139.2</ele>
        <time>2018-05-26T10:47:43Z</time>
      </trkpt>
      <trkpt lat="41.995685007423162" lon="-3.462354987859726">
        <ele>1138.8</ele>
        <time>2018-05-26T10:47:47Z</time>
      </trkpt>
      <trkpt lat="41.99563697911799" lon="-3.462214004248381">
        <ele>1138.5</ele>
        <time>2018-05-26T10:47:50Z</time>
      </trkpt>
      <trkpt lat="41.995608983561397" lon="-3.462076960131526">
        <ele>1138.4000000000001</ele>
        <time>2018-05-26T10:47:54Z</time>
      </trkpt>
      <trkpt lat="41.995579982176423" lon="-3.461962966248393">
        <ele>1138.8</ele>
        <time>2018-05-26T10:47:56Z</time>
      </trkpt>
      <trkpt lat="41.995570007711649" lon="-3.46182500012219">
        <ele>1139.3</ele>
        <time>2018-05-26T10:47:59Z</time>
      </trkpt>
      <trkpt lat="41.995543017983437" lon="-3.461706982925534">
        <ele>1139.7</ele>
        <time>2018-05-26T10:48:02Z</time>
      </trkpt>
      <trkpt lat="41.995521979406476" lon="-3.461573962122202">
        <ele>1140.2</ele>
        <time>2018-05-26T10:48:05Z</time>
      </trkpt>
      <trkpt lat="41.995495995506644" lon="-3.461416969075799">
        <ele>1140.8</ele>
        <time>2018-05-26T10:48:08Z</time>
      </trkpt>
      <trkpt lat="41.995471017435193" lon="-3.461262993514538">
        <ele>1141.3</ele>
        <time>2018-05-26T10:48:12Z</time>
      </trkpt>
      <trkpt lat="41.995448973029852" lon="-3.461112035438418">
        <ele>1142.5</ele>
        <time>2018-05-26T10:48:15Z</time>
      </trkpt>
      <trkpt lat="41.995411003008485" lon="-3.46098898909986">
        <ele>1143.5</ele>
        <time>2018-05-26T10:48:18Z</time>
      </trkpt>
      <trkpt lat="41.995388036593795" lon="-3.460841970518231">
        <ele>1145.0999999999999</ele>
        <time>2018-05-26T10:48:22Z</time>
      </trkpt>
      <trkpt lat="41.995382001623511" lon="-3.460705010220408">
        <ele>1146.4000000000001</ele>
        <time>2018-05-26T10:48:25Z</time>
      </trkpt>
      <trkpt lat="41.995391976088285" lon="-3.460577018558979">
        <ele>1147.5999999999999</ele>
        <time>2018-05-26T10:48:28Z</time>
      </trkpt>
      <trkpt lat="41.995397005230188" lon="-3.46045196056366">
        <ele>1148.7</ele>
        <time>2018-05-26T10:48:30Z</time>
      </trkpt>
      <trkpt lat="41.995401028543711" lon="-3.460316006094217">
        <ele>1149.3</ele>
        <time>2018-05-26T10:48:33Z</time>
      </trkpt>
      <trkpt lat="41.995371021330357" lon="-3.460197988897562">
        <ele>1149.7</ele>
        <time>2018-05-26T10:48:36Z</time>
      </trkpt>
      <trkpt lat="41.995361968874931" lon="-3.460057005286217">
        <ele>1150</ele>
        <time>2018-05-26T10:48:39Z</time>
      </trkpt>
      <trkpt lat="41.995363980531693" lon="-3.459911998361349">
        <ele>1150.4000000000001</ele>
        <time>2018-05-26T10:48:42Z</time>
      </trkpt>
      <trkpt lat="41.995327016338706" lon="-3.459771014750004">
        <ele>1150.8</ele>
        <time>2018-05-26T10:48:46Z</time>
      </trkpt>
      <trkpt lat="41.99531301856041" lon="-3.459636988118291">
        <ele>1151.0999999999999</ele>
        <time>2018-05-26T10:48:49Z</time>
      </trkpt>
      <trkpt lat="41.995297009125352" lon="-3.459499021992087">
        <ele>1151.5</ele>
        <time>2018-05-26T10:48:52Z</time>
      </trkpt>
      <trkpt lat="41.995296003296971" lon="-3.459371030330658">
        <ele>1151.7</ele>
        <time>2018-05-26T10:48:55Z</time>
      </trkpt>
      <trkpt lat="41.995311006903648" lon="-3.45924898982048">
        <ele>1152</ele>
        <time>2018-05-26T10:48:57Z</time>
      </trkpt>
      <trkpt lat="41.995273036882281" lon="-3.459132984280586">
        <ele>1152.2</ele>
        <time>2018-05-26T10:49:00Z</time>
      </trkpt>
      <trkpt lat="41.995282005518675" lon="-3.45901102758944">
        <ele>1152.5</ele>
        <time>2018-05-26T10:49:03Z</time>
      </trkpt>
      <trkpt lat="41.995291979983449" lon="-3.458888987079263">
        <ele>1152.7</ele>
        <time>2018-05-26T10:49:05Z</time>
      </trkpt>
      <trkpt lat="41.995286028832197" lon="-3.458757977932692">
        <ele>1153</ele>
        <time>2018-05-26T10:49:08Z</time>
      </trkpt>
      <trkpt lat="41.995278988033533" lon="-3.45862403512001">
        <ele>1153.3</ele>
        <time>2018-05-26T10:49:11Z</time>
      </trkpt>
      <trkpt lat="41.995241018012166" lon="-3.458509035408497">
        <ele>1153.5</ele>
        <time>2018-05-26T10:49:14Z</time>
      </trkpt>
      <trkpt lat="41.995229031890631" lon="-3.458379032090306">
        <ele>1153.8</ele>
        <time>2018-05-26T10:49:17Z</time>
      </trkpt>
      <trkpt lat="41.995210004970431" lon="-3.45826000906527">
        <ele>1154</ele>
        <time>2018-05-26T10:49:20Z</time>
      </trkpt>
      <trkpt lat="41.995189972221851" lon="-3.458139980211854">
        <ele>1154.3</ele>
        <time>2018-05-26T10:49:22Z</time>
      </trkpt>
      <trkpt lat="41.995150996372104" lon="-3.458021963015199">
        <ele>1154.5</ele>
        <time>2018-05-26T10:49:25Z</time>
      </trkpt>
      <trkpt lat="41.995102968066931" lon="-3.457914004102349">
        <ele>1154.5999999999999</ele>
        <time>2018-05-26T10:49:28Z</time>
      </trkpt>
      <trkpt lat="41.995084024965763" lon="-3.45778601244092">
        <ele>1155.0999999999999</ele>
        <time>2018-05-26T10:49:31Z</time>
      </trkpt>
      <trkpt lat="41.995051000267267" lon="-3.457647040486336">
        <ele>1155.5999999999999</ele>
        <time>2018-05-26T10:49:34Z</time>
      </trkpt>
      <trkpt lat="41.995019987225533" lon="-3.457517959177494">
        <ele>1156</ele>
        <time>2018-05-26T10:49:37Z</time>
      </trkpt>
      <trkpt lat="41.994994003325701" lon="-3.457402037456632">
        <ele>1156.3</ele>
        <time>2018-05-26T10:49:40Z</time>
      </trkpt>
      <trkpt lat="41.99497296474874" lon="-3.457155022770166">
        <ele>1157.0999999999999</ele>
        <time>2018-05-26T10:49:45Z</time>
      </trkpt>
      <trkpt lat="41.994941029697657" lon="-3.457039017230272">
        <ele>1157.3</ele>
        <time>2018-05-26T10:49:48Z</time>
      </trkpt>
      <trkpt lat="41.994891995564103" lon="-3.456901973113418">
        <ele>1157.0999999999999</ele>
        <time>2018-05-26T10:49:51Z</time>
      </trkpt>
      <trkpt lat="41.99486400000751" lon="-3.456758977845311">
        <ele>1157</ele>
        <time>2018-05-26T10:49:54Z</time>
      </trkpt>
      <trkpt lat="41.994816977530718" lon="-3.456611037254334">
        <ele>1156.8</ele>
        <time>2018-05-26T10:49:58Z</time>
      </trkpt>
      <trkpt lat="41.994774984195828" lon="-3.456486985087395">
        <ele>1156.5</ele>
        <time>2018-05-26T10:50:01Z</time>
      </trkpt>
      <trkpt lat="41.994742965325713" lon="-3.456368967890739">
        <ele>1156.2</ele>
        <time>2018-05-26T10:50:04Z</time>
      </trkpt>
      <trkpt lat="41.994708012789488" lon="-3.456209963187575">
        <ele>1155.8</ele>
        <time>2018-05-26T10:50:07Z</time>
      </trkpt>
      <trkpt lat="41.99466903693974" lon="-3.456081971526146">
        <ele>1155.2</ele>
        <time>2018-05-26T10:50:11Z</time>
      </trkpt>
      <trkpt lat="41.994600975885987" lon="-3.455940987914801">
        <ele>1154.4000000000001</ele>
        <time>2018-05-26T10:50:14Z</time>
      </trkpt>
      <trkpt lat="41.99454297311604" lon="-3.455802015960217">
        <ele>1153.8</ele>
        <time>2018-05-26T10:50:18Z</time>
      </trkpt>
      <trkpt lat="41.994492011144757" lon="-3.4556819871068">
        <ele>1153.3</ele>
        <time>2018-05-26T10:50:21Z</time>
      </trkpt>
      <trkpt lat="41.994464015588164" lon="-3.45552901737392">
        <ele>1152.9000000000001</ele>
        <time>2018-05-26T10:50:24Z</time>
      </trkpt>
      <trkpt lat="41.994436020031571" lon="-3.45540102571249">
        <ele>1152.4000000000001</ele>
        <time>2018-05-26T10:50:27Z</time>
      </trkpt>
      <trkpt lat="41.994378017261624" lon="-3.455247972160578">
        <ele>1151.4000000000001</ele>
        <time>2018-05-26T10:50:31Z</time>
      </trkpt>
      <trkpt lat="41.994343986734748" lon="-3.4551000315696">
        <ele>1150.5</ele>
        <time>2018-05-26T10:50:34Z</time>
      </trkpt>
      <trkpt lat="41.994290007278323" lon="-3.454912025481463">
        <ele>1149.3</ele>
        <time>2018-05-26T10:50:39Z</time>
      </trkpt>
      <trkpt lat="41.994252959266305" lon="-3.454790990799666">
        <ele>1148.5</ele>
        <time>2018-05-26T10:50:42Z</time>
      </trkpt>
      <trkpt lat="41.994201997295022" lon="-3.454660987481475">
        <ele>1147.5999999999999</ele>
        <time>2018-05-26T10:50:45Z</time>
      </trkpt>
      <trkpt lat="41.99415598064661" lon="-3.454540958628058">
        <ele>1146.9000000000001</ele>
        <time>2018-05-26T10:50:48Z</time>
      </trkpt>
      <trkpt lat="41.99411197565496" lon="-3.454428976401687">
        <ele>1146.5</ele>
        <time>2018-05-26T10:50:51Z</time>
      </trkpt>
      <trkpt lat="41.994072999805212" lon="-3.454296039417386">
        <ele>1146.0999999999999</ele>
        <time>2018-05-26T10:50:54Z</time>
      </trkpt>
      <trkpt lat="41.994027988985181" lon="-3.454153966158629">
        <ele>1145.5999999999999</ele>
        <time>2018-05-26T10:50:57Z</time>
      </trkpt>
      <trkpt lat="41.993975015357137" lon="-3.454050030559301">
        <ele>1145.0999999999999</ele>
        <time>2018-05-26T10:51:00Z</time>
      </trkpt>
      <trkpt lat="41.993915000930429" lon="-3.453926984220743">
        <ele>1144.5</ele>
        <time>2018-05-26T10:51:03Z</time>
      </trkpt>
      <trkpt lat="41.99389798566699" lon="-3.453807961195707">
        <ele>1144.2</ele>
        <time>2018-05-26T10:51:06Z</time>
      </trkpt>
      <trkpt lat="41.993893962353468" lon="-3.453646022826433">
        <ele>1144.5999999999999</ele>
        <time>2018-05-26T10:51:10Z</time>
      </trkpt>
      <trkpt lat="41.993887005373836" lon="-3.453493975102902">
        <ele>1145.3</ele>
        <time>2018-05-26T10:51:13Z</time>
      </trkpt>
      <trkpt lat="41.993869990110397" lon="-3.453350979834795">
        <ele>1145.9000000000001</ele>
        <time>2018-05-26T10:51:16Z</time>
      </trkpt>
      <trkpt lat="41.993855992332101" lon="-3.453224999830127">
        <ele>1146.5</ele>
        <time>2018-05-26T10:51:19Z</time>
      </trkpt>
      <trkpt lat="41.993839982897043" lon="-3.453092984855175">
        <ele>1147.2</ele>
        <time>2018-05-26T10:51:22Z</time>
      </trkpt>
      <trkpt lat="41.993847023695707" lon="-3.45295200124383">
        <ele>1147.9000000000001</ele>
        <time>2018-05-26T10:51:25Z</time>
      </trkpt>
      <trkpt lat="41.993849035352468" lon="-3.452829038724303">
        <ele>1148.8</ele>
        <time>2018-05-26T10:51:28Z</time>
      </trkpt>
      <trkpt lat="41.993845012038946" lon="-3.452689982950687">
        <ele>1149.9000000000001</ele>
        <time>2018-05-26T10:51:31Z</time>
      </trkpt>
      <trkpt lat="41.993818022310734" lon="-3.452568026259542">
        <ele>1150.9000000000001</ele>
        <time>2018-05-26T10:51:34Z</time>
      </trkpt>
      <trkpt lat="41.99378801509738" lon="-3.452449003234506">
        <ele>1151.9000000000001</ele>
        <time>2018-05-26T10:51:36Z</time>
      </trkpt>
      <trkpt lat="41.993778040632606" lon="-3.452328974381089">
        <ele>1152.9000000000001</ele>
        <time>2018-05-26T10:51:39Z</time>
      </trkpt>
      <trkpt lat="41.993772005662322" lon="-3.452195031568408">
        <ele>1154</ele>
        <time>2018-05-26T10:51:42Z</time>
      </trkpt>
      <trkpt lat="41.993744010105729" lon="-3.452061004936695">
        <ele>1155.0999999999999</ele>
        <time>2018-05-26T10:51:45Z</time>
      </trkpt>
      <trkpt lat="41.993729006499052" lon="-3.451933013275266">
        <ele>1155.4000000000001</ele>
        <time>2018-05-26T10:51:48Z</time>
      </trkpt>
      <trkpt lat="41.993716014549136" lon="-3.451807033270598">
        <ele>1155.7</ele>
        <time>2018-05-26T10:51:51Z</time>
      </trkpt>
      <trkpt lat="41.993705034255981" lon="-3.451673006638885">
        <ele>1156</ele>
        <time>2018-05-26T10:51:54Z</time>
      </trkpt>
      <trkpt lat="41.993694975972176" lon="-3.451546020805836">
        <ele>1156.3</ele>
        <time>2018-05-26T10:51:57Z</time>
      </trkpt>
      <trkpt lat="41.993683995679021" lon="-3.451414005830884">
        <ele>1156.5999999999999</ele>
        <time>2018-05-26T10:51:59Z</time>
      </trkpt>
      <trkpt lat="41.993654994294047" lon="-3.451272016391158">
        <ele>1156.8</ele>
        <time>2018-05-26T10:52:03Z</time>
      </trkpt>
      <trkpt lat="41.993607971817255" lon="-3.451163973659277">
        <ele>1156.4000000000001</ele>
        <time>2018-05-26T10:52:05Z</time>
      </trkpt>
      <trkpt lat="41.993559021502733" lon="-3.451043022796512">
        <ele>1155.5</ele>
        <time>2018-05-26T10:52:09Z</time>
      </trkpt>
      <trkpt lat="41.993519039824605" lon="-3.450891980901361">
        <ele>1154.4000000000001</ele>
        <time>2018-05-26T10:52:12Z</time>
      </trkpt>
      <trkpt lat="41.99346799403429" lon="-3.450752003118396">
        <ele>1153.0999999999999</ele>
        <time>2018-05-26T10:52:15Z</time>
      </trkpt>
      <trkpt lat="41.993435975164175" lon="-3.450592998415232">
        <ele>1151.5999999999999</ele>
        <time>2018-05-26T10:52:19Z</time>
      </trkpt>
      <trkpt lat="41.993417032063007" lon="-3.450452014803886">
        <ele>1150.3</ele>
        <time>2018-05-26T10:52:22Z</time>
      </trkpt>
      <trkpt lat="41.99340202845633" lon="-3.450329974293709">
        <ele>1149.4000000000001</ele>
        <time>2018-05-26T10:52:25Z</time>
      </trkpt>
      <trkpt lat="41.993386019021273" lon="-3.450151020660996">
        <ele>1148.2</ele>
        <time>2018-05-26T10:52:29Z</time>
      </trkpt>
      <trkpt lat="41.993346959352493" lon="-3.450031997635961">
        <ele>1147.0999999999999</ele>
        <time>2018-05-26T10:52:32Z</time>
      </trkpt>
      <trkpt lat="41.993268001824617" lon="-3.449929989874363">
        <ele>1145.5</ele>
        <time>2018-05-26T10:52:35Z</time>
      </trkpt>
      <trkpt lat="41.993193989619613" lon="-3.449850026518107">
        <ele>1144.2</ele>
        <time>2018-05-26T10:52:38Z</time>
      </trkpt>
      <trkpt lat="41.993136992678046" lon="-3.44975296407938">
        <ele>1142.9000000000001</ele>
        <time>2018-05-26T10:52:41Z</time>
      </trkpt>
      <trkpt lat="41.993083013221622" lon="-3.449652967974544">
        <ele>1141.5999999999999</ele>
        <time>2018-05-26T10:52:44Z</time>
      </trkpt>
      <trkpt lat="41.993030039593577" lon="-3.449538974091411">
        <ele>1141</ele>
        <time>2018-05-26T10:52:46Z</time>
      </trkpt>
      <trkpt lat="41.992900036275387" lon="-3.449509972706437">
        <ele>1140</ele>
        <time>2018-05-26T10:52:50Z</time>
      </trkpt>
      <trkpt lat="41.992810014635324" lon="-3.449613992124796">
        <ele>1139.2</ele>
        <time>2018-05-26T10:52:54Z</time>
      </trkpt>
      <trkpt lat="41.992746982723475" lon="-3.449713988229632">
        <ele>1139.5999999999999</ele>
        <time>2018-05-26T10:52:57Z</time>
      </trkpt>
      <trkpt lat="41.992665007710457" lon="-3.44983896240592">
        <ele>1140</ele>
        <time>2018-05-26T10:53:00Z</time>
      </trkpt>
      <trkpt lat="41.992598958313465" lon="-3.449932001531124">
        <ele>1140.0999999999999</ele>
        <time>2018-05-26T10:53:03Z</time>
      </trkpt>
      <trkpt lat="41.992507008835673" lon="-3.450035015121102">
        <ele>1140.0999999999999</ele>
        <time>2018-05-26T10:53:07Z</time>
      </trkpt>
      <trkpt lat="41.992396032437682" lon="-3.450108021497726">
        <ele>1139.8</ele>
        <time>2018-05-26T10:53:10Z</time>
      </trkpt>
      <trkpt lat="41.992282960563898" lon="-3.450174992904067">
        <ele>1139.3</ele>
        <time>2018-05-26T10:53:14Z</time>
      </trkpt>
      <trkpt lat="41.992167038843036" lon="-3.450252022594214">
        <ele>1138.7</ele>
        <time>2018-05-26T10:53:18Z</time>
      </trkpt>
      <trkpt lat="41.992081040516496" lon="-3.450327040627599">
        <ele>1138.0999999999999</ele>
        <time>2018-05-26T10:53:21Z</time>
      </trkpt>
      <trkpt lat="41.991972997784615" lon="-3.450364004820585">
        <ele>1137.0999999999999</ele>
        <time>2018-05-26T10:53:24Z</time>
      </trkpt>
      <trkpt lat="41.991875013336539" lon="-3.450360987335444">
        <ele>1136.2</ele>
        <time>2018-05-26T10:53:27Z</time>
      </trkpt>
      <trkpt lat="41.991750039160252" lon="-3.450324023142457">
        <ele>1135.4000000000001</ele>
        <time>2018-05-26T10:53:31Z</time>
      </trkpt>
      <trkpt lat="41.991654988378286" lon="-3.450302984565496">
        <ele>1134.8</ele>
        <time>2018-05-26T10:53:34Z</time>
      </trkpt>
      <trkpt lat="41.991549963131547" lon="-3.450284041464329">
        <ele>1134.2</ele>
        <time>2018-05-26T10:53:37Z</time>
      </trkpt>
      <trkpt lat="41.991449967026711" lon="-3.450257973745465">
        <ele>1133.7</ele>
        <time>2018-05-26T10:53:40Z</time>
      </trkpt>
      <trkpt lat="41.991336978971958" lon="-3.450225032866001">
        <ele>1133.3</ele>
        <time>2018-05-26T10:53:43Z</time>
      </trkpt>
      <trkpt lat="41.991247041150928" lon="-3.450234001502395">
        <ele>1132.5999999999999</ele>
        <time>2018-05-26T10:53:46Z</time>
      </trkpt>
      <trkpt lat="41.991163976490498" lon="-3.450145991519094">
        <ele>1133.7</ele>
        <time>2018-05-26T10:53:49Z</time>
      </trkpt>
      <trkpt lat="41.991066997870803" lon="-3.450127970427275">
        <ele>1133.7</ele>
        <time>2018-05-26T10:53:52Z</time>
      </trkpt>
      <trkpt lat="41.990973958745599" lon="-3.450111038982868">
        <ele>1133.8</ele>
        <time>2018-05-26T10:53:55Z</time>
      </trkpt>
      <trkpt lat="41.990878991782665" lon="-3.450109027326107">
        <ele>1133.5999999999999</ele>
        <time>2018-05-26T10:53:58Z</time>
      </trkpt>
      <trkpt lat="41.990777989849448" lon="-3.450113972648978">
        <ele>1133.3</ele>
        <time>2018-05-26T10:54:01Z</time>
      </trkpt>
      <trkpt lat="41.990683022886515" lon="-3.450110033154488">
        <ele>1133.0999999999999</ele>
        <time>2018-05-26T10:54:04Z</time>
      </trkpt>
      <trkpt lat="41.990594007074833" lon="-3.450140962377191">
        <ele>1132.4000000000001</ele>
        <time>2018-05-26T10:54:06Z</time>
      </trkpt>
      <trkpt lat="41.990496022626758" lon="-3.450171975418925">
        <ele>1131.5999999999999</ele>
        <time>2018-05-26T10:54:09Z</time>
      </trkpt>
      <trkpt lat="41.990404995158315" lon="-3.450197959318757">
        <ele>1131</ele>
        <time>2018-05-26T10:54:12Z</time>
      </trkpt>
      <trkpt lat="41.990311034023762" lon="-3.45020298846066">
        <ele>1131.2</ele>
        <time>2018-05-26T10:54:15Z</time>
      </trkpt>
      <trkpt lat="41.990210032090545" lon="-3.450200976803899">
        <ele>1131.5999999999999</ele>
        <time>2018-05-26T10:54:18Z</time>
      </trkpt>
      <trkpt lat="41.990117998793721" lon="-3.450209023430944">
        <ele>1131.8</ele>
        <time>2018-05-26T10:54:21Z</time>
      </trkpt>
      <trkpt lat="41.990026971325278" lon="-3.450224027037621">
        <ele>1131.9000000000001</ele>
        <time>2018-05-26T10:54:23Z</time>
      </trkpt>
      <trkpt lat="41.989939967170358" lon="-3.450167030096054">
        <ele>1133.0999999999999</ele>
        <time>2018-05-26T10:54:26Z</time>
      </trkpt>
      <trkpt lat="41.989853968843818" lon="-3.450113972648978">
        <ele>1134.2</ele>
        <time>2018-05-26T10:54:29Z</time>
      </trkpt>
      <trkpt lat="41.989778028801084" lon="-3.450035015121102">
        <ele>1135.5</ele>
        <time>2018-05-26T10:54:32Z</time>
      </trkpt>
      <trkpt lat="41.98972899466753" lon="-3.449927978217602">
        <ele>1137.2</ele>
        <time>2018-05-26T10:54:35Z</time>
      </trkpt>
      <trkpt lat="41.989665040746331" lon="-3.449829993769527">
        <ele>1138.5999999999999</ele>
        <time>2018-05-26T10:54:38Z</time>
      </trkpt>
      <trkpt lat="41.989613994956017" lon="-3.449719017371535">
        <ele>1140.2</ele>
        <time>2018-05-26T10:54:41Z</time>
      </trkpt>
      <trkpt lat="41.989522967487574" lon="-3.449680963531137">
        <ele>1140.9000000000001</ele>
        <time>2018-05-26T10:54:43Z</time>
      </trkpt>
      <trkpt lat="41.989447027444839" lon="-3.44975296407938">
        <ele>1140.3</ele>
        <time>2018-05-26T10:54:46Z</time>
      </trkpt>
      <trkpt lat="41.989354994148016" lon="-3.449784982949495">
        <ele>1140.3</ele>
        <time>2018-05-26T10:54:49Z</time>
      </trkpt>
      <trkpt lat="41.989266984164715" lon="-3.449819013476372">
        <ele>1140.4000000000001</ele>
        <time>2018-05-26T10:54:52Z</time>
      </trkpt>
      <trkpt lat="41.989177968353033" lon="-3.449837034568191">
        <ele>1140.7</ele>
        <time>2018-05-26T10:54:54Z</time>
      </trkpt>
      <trkpt lat="41.989081995561719" lon="-3.449869975447655">
        <ele>1140.9000000000001</ele>
        <time>2018-05-26T10:54:57Z</time>
      </trkpt>
      <trkpt lat="41.98897403664887" lon="-3.449862012639642">
        <ele>1141.5</ele>
        <time>2018-05-26T10:55:00Z</time>
      </trkpt>
      <trkpt lat="41.98889097198844" lon="-3.449789006263018">
        <ele>1142.4000000000001</ele>
        <time>2018-05-26T10:55:03Z</time>
      </trkpt>
      <trkpt lat="41.988817965611815" lon="-3.449689010158181">
        <ele>1143.3</ele>
        <time>2018-05-26T10:55:06Z</time>
      </trkpt>
      <trkpt lat="41.988759962841868" lon="-3.449593959376216">
        <ele>1143.9000000000001</ele>
        <time>2018-05-26T10:55:09Z</time>
      </trkpt>
      <trkpt lat="41.988683016970754" lon="-3.449474014341831">
        <ele>1143.4000000000001</ele>
        <time>2018-05-26T10:55:13Z</time>
      </trkpt>
      <trkpt lat="41.988609004765749" lon="-3.449368989095092">
        <ele>1142.5999999999999</ele>
        <time>2018-05-26T10:55:16Z</time>
      </trkpt>
      <trkpt lat="41.988529963418841" lon="-3.449274022132158">
        <ele>1141.5999999999999</ele>
        <time>2018-05-26T10:55:19Z</time>
      </trkpt>
      <trkpt lat="41.988457040861249" lon="-3.44919296912849">
        <ele>1140.7</ele>
        <time>2018-05-26T10:55:22Z</time>
      </trkpt>
      <trkpt lat="41.988385040313005" lon="-3.449113005772233">
        <ele>1139.8</ele>
        <time>2018-05-26T10:55:25Z</time>
      </trkpt>
      <trkpt lat="41.988285966217518" lon="-3.449027007445693">
        <ele>1138.5</ele>
        <time>2018-05-26T10:55:28Z</time>
      </trkpt>
      <trkpt lat="41.988172978162766" lon="-3.448981996625662">
        <ele>1136.8</ele>
        <time>2018-05-26T10:55:32Z</time>
      </trkpt>
      <trkpt lat="41.988078011199832" lon="-3.448961041867733">
        <ele>1135.4000000000001</ele>
        <time>2018-05-26T10:55:35Z</time>
      </trkpt>
      <trkpt lat="41.987976003438234" lon="-3.448946038261056">
        <ele>1133.9000000000001</ele>
        <time>2018-05-26T10:55:38Z</time>
      </trkpt>
      <trkpt lat="41.987869972363114" lon="-3.448933968320489">
        <ele>1132.5</ele>
        <time>2018-05-26T10:55:41Z</time>
      </trkpt>
      <trkpt lat="41.987758995965123" lon="-3.448943020775914">
        <ele>1131.5</ele>
        <time>2018-05-26T10:55:44Z</time>
      </trkpt>
      <trkpt lat="41.987642990425229" lon="-3.448933968320489">
        <ele>1130.3</ele>
        <time>2018-05-26T10:55:48Z</time>
      </trkpt>
      <trkpt lat="41.987519022077322" lon="-3.448926005512476">
        <ele>1129.2</ele>
        <time>2018-05-26T10:55:51Z</time>
      </trkpt>
      <trkpt lat="41.987383989617229" lon="-3.448903039097786">
        <ele>1127.9000000000001</ele>
        <time>2018-05-26T10:55:55Z</time>
      </trkpt>
      <trkpt lat="41.98725700378418" lon="-3.448886023834348">
        <ele>1126.8</ele>
        <time>2018-05-26T10:55:59Z</time>
      </trkpt>
      <trkpt lat="41.987134041264653" lon="-3.448856016620994">
        <ele>1125.8</ele>
        <time>2018-05-26T10:56:03Z</time>
      </trkpt>
      <trkpt lat="41.98697998188436" lon="-3.448852999135852">
        <ele>1123.9000000000001</ele>
        <time>2018-05-26T10:56:07Z</time>
      </trkpt>
      <trkpt lat="41.986880991607904" lon="-3.448857022449374">
        <ele>1122.5</ele>
        <time>2018-05-26T10:56:10Z</time>
      </trkpt>
      <trkpt lat="41.98678401298821" lon="-3.448860961943865">
        <ele>1121.0999999999999</ele>
        <time>2018-05-26T10:56:13Z</time>
      </trkpt>
      <trkpt lat="41.986657027155161" lon="-3.448858028277755">
        <ele>1119.3</ele>
        <time>2018-05-26T10:56:17Z</time>
      </trkpt>
      <trkpt lat="41.986530963331461" lon="-3.448844030499458">
        <ele>1117.5999999999999</ele>
        <time>2018-05-26T10:56:21Z</time>
      </trkpt>
      <trkpt lat="41.986414035782218" lon="-3.448871020227671">
        <ele>1115.8</ele>
        <time>2018-05-26T10:56:24Z</time>
      </trkpt>
      <trkpt lat="41.986332982778549" lon="-3.448930028825998">
        <ele>1114.3</ele>
        <time>2018-05-26T10:56:27Z</time>
      </trkpt>
      <trkpt lat="41.98624799028039" lon="-3.448988031595945">
        <ele>1112.8</ele>
        <time>2018-05-26T10:56:30Z</time>
      </trkpt>
      <trkpt lat="41.986155034974217" lon="-3.448997000232339">
        <ele>1111</ele>
        <time>2018-05-26T10:56:33Z</time>
      </trkpt>
      <trkpt lat="41.986059984192252" lon="-3.448957018554211">
        <ele>1109.3</ele>
        <time>2018-05-26T10:56:36Z</time>
      </trkpt>
      <trkpt lat="41.985964011400938" lon="-3.448903961107135">
        <ele>1107.7</ele>
        <time>2018-05-26T10:56:39Z</time>
      </trkpt>
      <trkpt lat="41.985871978104115" lon="-3.448845958337188">
        <ele>1106.2</ele>
        <time>2018-05-26T10:56:42Z</time>
      </trkpt>
      <trkpt lat="41.985773993656039" lon="-3.448782004415989">
        <ele>1104.7</ele>
        <time>2018-05-26T10:56:45Z</time>
      </trkpt>
      <trkpt lat="41.985692018643022" lon="-3.4487209841609">
        <ele>1103.3</ele>
        <time>2018-05-26T10:56:48Z</time>
      </trkpt>
      <trkpt lat="41.985608031973243" lon="-3.448653006926179">
        <ele>1101.5999999999999</ele>
        <time>2018-05-26T10:56:51Z</time>
      </trkpt>
      <trkpt lat="41.985537959262729" lon="-3.4485690202564">
        <ele>1100.2</ele>
        <time>2018-05-26T10:56:54Z</time>
      </trkpt>
      <trkpt lat="41.985468976199627" lon="-3.448478998616338">
        <ele>1098.9000000000001</ele>
        <time>2018-05-26T10:56:57Z</time>
      </trkpt>
      <trkpt lat="41.985406028106809" lon="-3.448355030268431">
        <ele>1097.8</ele>
        <time>2018-05-26T10:57:00Z</time>
      </trkpt>
      <trkpt lat="41.985338972881436" lon="-3.448245981708169">
        <ele>1096.3</ele>
        <time>2018-05-26T10:57:03Z</time>
      </trkpt>
      <trkpt lat="41.985252974554896" lon="-3.448175992816687">
        <ele>1094.5</ele>
        <time>2018-05-26T10:57:06Z</time>
      </trkpt>
      <trkpt lat="41.985164964571595" lon="-3.448142968118191">
        <ele>1092.7</ele>
        <time>2018-05-26T10:57:09Z</time>
      </trkpt>
      <trkpt lat="41.985072009265423" lon="-3.448168030008674">
        <ele>1090.5999999999999</ele>
        <time>2018-05-26T10:57:12Z</time>
      </trkpt>
      <trkpt lat="41.984973018988967" lon="-3.448147997260094">
        <ele>1088.5999999999999</ele>
        <time>2018-05-26T10:57:15Z</time>
      </trkpt>
      <trkpt lat="41.984879979863763" lon="-3.448098041117191">
        <ele>1086.9000000000001</ele>
        <time>2018-05-26T10:57:18Z</time>
      </trkpt>
      <trkpt lat="41.984784007072449" lon="-3.448038026690483">
        <ele>1085.2</ele>
        <time>2018-05-26T10:57:21Z</time>
      </trkpt>
      <trkpt lat="41.984688034281135" lon="-3.447985975071788">
        <ele>1083.5999999999999</ele>
        <time>2018-05-26T10:57:24Z</time>
      </trkpt>
      <trkpt lat="41.984585020691156" lon="-3.447922021150589">
        <ele>1082</ele>
        <time>2018-05-26T10:57:27Z</time>
      </trkpt>
      <trkpt lat="41.98448795825243" lon="-3.44785999506712">
        <ele>1080.2</ele>
        <time>2018-05-26T10:57:30Z</time>
      </trkpt>
      <trkpt lat="41.984389973804355" lon="-3.44777500256896">
        <ele>1078.5</ele>
        <time>2018-05-26T10:57:34Z</time>
      </trkpt>
      <trkpt lat="41.984295006841421" lon="-3.447719011455774">
        <ele>1076.8</ele>
        <time>2018-05-26T10:57:37Z</time>
      </trkpt>
      <trkpt lat="41.984191993251443" lon="-3.447652040049434">
        <ele>1075.2</ele>
        <time>2018-05-26T10:57:40Z</time>
      </trkpt>
      <trkpt lat="41.984112029895186" lon="-3.447594037279487">
        <ele>1074.0999999999999</ele>
        <time>2018-05-26T10:57:43Z</time>
      </trkpt>
      <trkpt lat="41.984007004648447" lon="-3.447520025074482">
        <ele>1072.7</ele>
        <time>2018-05-26T10:57:47Z</time>
      </trkpt>
      <trkpt lat="41.983922012150288" lon="-3.447465961799026">
        <ele>1071.5999999999999</ele>
        <time>2018-05-26T10:57:50Z</time>
      </trkpt>
      <trkpt lat="41.983835007995367" lon="-3.447382980957627">
        <ele>1070.8</ele>
        <time>2018-05-26T10:57:53Z</time>
      </trkpt>
      <trkpt lat="41.983750015497208" lon="-3.447325984016061">
        <ele>1070</ele>
        <time>2018-05-26T10:57:56Z</time>
      </trkpt>
      <trkpt lat="41.983662005513906" lon="-3.447267981246114">
        <ele>1069.0999999999999</ele>
        <time>2018-05-26T10:57:58Z</time>
      </trkpt>
      <trkpt lat="41.983580030500889" lon="-3.447192963212729">
        <ele>1068.5</ele>
        <time>2018-05-26T10:58:01Z</time>
      </trkpt>
      <trkpt lat="41.983500989153981" lon="-3.447132026776671">
        <ele>1067.7</ele>
        <time>2018-05-26T10:58:04Z</time>
      </trkpt>
      <trkpt lat="41.983410967513919" lon="-3.447068994864821">
        <ele>1066.8</ele>
        <time>2018-05-26T10:58:07Z</time>
      </trkpt>
      <trkpt lat="41.983313988894224" lon="-3.447006968781352">
        <ele>1065.5999999999999</ele>
        <time>2018-05-26T10:58:10Z</time>
      </trkpt>
      <trkpt lat="41.983222039416432" lon="-3.44695701263845">
        <ele>1064.4000000000001</ele>
        <time>2018-05-26T10:58:13Z</time>
      </trkpt>
      <trkpt lat="41.983120031654835" lon="-3.446890041232109">
        <ele>1063.0999999999999</ele>
        <time>2018-05-26T10:58:17Z</time>
      </trkpt>
      <trkpt lat="41.983016012236476" lon="-3.446820974349976">
        <ele>1061.8</ele>
        <time>2018-05-26T10:58:20Z</time>
      </trkpt>
      <trkpt lat="41.982931019738317" lon="-3.446729024872184">
        <ele>1060.9000000000001</ele>
        <time>2018-05-26T10:58:23Z</time>
      </trkpt>
      <trkpt lat="41.982849966734648" lon="-3.446616036817431">
        <ele>1060.7</ele>
        <time>2018-05-26T10:58:27Z</time>
      </trkpt>
      <trkpt lat="41.982806967571378" lon="-3.446501037105918">
        <ele>1060.9000000000001</ele>
        <time>2018-05-26T10:58:30Z</time>
      </trkpt>
      <trkpt lat="41.982761034741998" lon="-3.446357036009431">
        <ele>1061.0999999999999</ele>
        <time>2018-05-26T10:58:33Z</time>
      </trkpt>
      <trkpt lat="41.982734967023134" lon="-3.44622996635735">
        <ele>1061.2</ele>
        <time>2018-05-26T10:58:36Z</time>
      </trkpt>
      <trkpt lat="41.982719041407108" lon="-3.446072973310947">
        <ele>1060.3</ele>
        <time>2018-05-26T10:58:39Z</time>
      </trkpt>
      <trkpt lat="41.982727004215121" lon="-3.445912962779403">
        <ele>1059.7</ele>
        <time>2018-05-26T10:58:43Z</time>
      </trkpt>
      <trkpt lat="41.982731027528644" lon="-3.445768961682916">
        <ele>1059</ele>
        <time>2018-05-26T10:58:46Z</time>
      </trkpt>
      <trkpt lat="41.982735972851515" lon="-3.445643987506628">
        <ele>1058.5</ele>
        <time>2018-05-26T10:58:49Z</time>
      </trkpt>
      <trkpt lat="41.982780983671546" lon="-3.445495963096619">
        <ele>1058.2</ele>
        <time>2018-05-26T10:58:52Z</time>
      </trkpt>
      <trkpt lat="41.982816020026803" lon="-3.44536998309195">
        <ele>1058.4000000000001</ele>
        <time>2018-05-26T10:58:55Z</time>
      </trkpt>
      <trkpt lat="41.982859019190073" lon="-3.445254983380437">
        <ele>1059.3</ele>
        <time>2018-05-26T10:58:58Z</time>
      </trkpt>
      <trkpt lat="41.982862036675215" lon="-3.445084998384118">
        <ele>1060.0999999999999</ele>
        <time>2018-05-26T10:59:02Z</time>
      </trkpt>
      <trkpt lat="41.982776038348675" lon="-3.445000005885959">
        <ele>1059.8</ele>
        <time>2018-05-26T10:59:05Z</time>
      </trkpt>
      <trkpt lat="41.982655003666878" lon="-3.444988019764423">
        <ele>1058.9000000000001</ele>
        <time>2018-05-26T10:59:09Z</time>
      </trkpt>
      <trkpt lat="41.982556013390422" lon="-3.445050967857242">
        <ele>1057.7</ele>
        <time>2018-05-26T10:59:12Z</time>
      </trkpt>
      <trkpt lat="41.982449982315302" lon="-3.445092039182782">
        <ele>1056.5999999999999</ele>
        <time>2018-05-26T10:59:15Z</time>
      </trkpt>
      <trkpt lat="41.982326013967395" lon="-3.445105031132698">
        <ele>1055.5</ele>
        <time>2018-05-26T10:59:19Z</time>
      </trkpt>
      <trkpt lat="41.982241021469235" lon="-3.445066977292299">
        <ele>1055</ele>
        <time>2018-05-26T10:59:22Z</time>
      </trkpt>
      <trkpt lat="41.982133984565735" lon="-3.444977961480618">
        <ele>1054.5</ele>
        <time>2018-05-26T10:59:25Z</time>
      </trkpt>
      <trkpt lat="41.982038011774421" lon="-3.444884000346065">
        <ele>1054.3</ele>
        <time>2018-05-26T10:59:29Z</time>
      </trkpt>
      <trkpt lat="41.981957964599133" lon="-3.444780986756086">
        <ele>1054.3</ele>
        <time>2018-05-26T10:59:32Z</time>
      </trkpt>
      <trkpt lat="41.981913037598133" lon="-3.444663975387812">
        <ele>1054.5999999999999</ele>
        <time>2018-05-26T10:59:35Z</time>
      </trkpt>
      <trkpt lat="41.981851011514664" lon="-3.444544030353427">
        <ele>1054.8</ele>
        <time>2018-05-26T10:59:38Z</time>
      </trkpt>
      <trkpt lat="41.981804994866252" lon="-3.444408997893333">
        <ele>1055</ele>
        <time>2018-05-26T10:59:42Z</time>
      </trkpt>
      <trkpt lat="41.981753027066588" lon="-3.444272037595511">
        <ele>1055.2</ele>
        <time>2018-05-26T10:59:45Z</time>
      </trkpt>
      <trkpt lat="41.981709022074938" lon="-3.444153014570475">
        <ele>1055.4000000000001</ele>
        <time>2018-05-26T10:59:48Z</time>
      </trkpt>
      <trkpt lat="41.98164900764823" lon="-3.444024017080665">
        <ele>1055.4000000000001</ele>
        <time>2018-05-26T10:59:51Z</time>
      </trkpt>
      <trkpt lat="41.981599973514676" lon="-3.443916980177164">
        <ele>1055.4000000000001</ele>
        <time>2018-05-26T10:59:54Z</time>
      </trkpt>
      <trkpt lat="41.981539959087968" lon="-3.443787982687354">
        <ele>1055.3</ele>
        <time>2018-05-26T10:59:57Z</time>
      </trkpt>
      <trkpt lat="41.981502994894981" lon="-3.443660996854305">
        <ele>1055.3</ele>
        <time>2018-05-26T11:00:00Z</time>
      </trkpt>
      <trkpt lat="41.981472987681627" lon="-3.443533005192876">
        <ele>1055.3</ele>
        <time>2018-05-26T11:00:03Z</time>
      </trkpt>
      <trkpt lat="41.981439962983131" lon="-3.443401996046305">
        <ele>1055.3</ele>
        <time>2018-05-26T11:00:06Z</time>
      </trkpt>
      <trkpt lat="41.981419008225203" lon="-3.443250032141805">
        <ele>1055.4000000000001</ele>
        <time>2018-05-26T11:00:10Z</time>
      </trkpt>
      <trkpt lat="41.981390006840229" lon="-3.443130003288388">
        <ele>1055.3</ele>
        <time>2018-05-26T11:00:13Z</time>
      </trkpt>
      <trkpt lat="41.981341978535056" lon="-3.443001005798578">
        <ele>1055</ele>
        <time>2018-05-26T11:00:16Z</time>
      </trkpt>
      <trkpt lat="41.981278024613857" lon="-3.442848036065698">
        <ele>1054.5999999999999</ele>
        <time>2018-05-26T11:00:20Z</time>
      </trkpt>
      <trkpt lat="41.981217004358768" lon="-3.442711997777224">
        <ele>1054.5999999999999</ele>
        <time>2018-05-26T11:00:23Z</time>
      </trkpt>
      <trkpt lat="41.98115598410368" lon="-3.442577971145511">
        <ele>1055</ele>
        <time>2018-05-26T11:00:27Z</time>
      </trkpt>
      <trkpt lat="41.981102004647255" lon="-3.442435981705785">
        <ele>1055.5</ele>
        <time>2018-05-26T11:00:30Z</time>
      </trkpt>
      <trkpt lat="41.981075014919043" lon="-3.442300027236342">
        <ele>1056.0999999999999</ele>
        <time>2018-05-26T11:00:33Z</time>
      </trkpt>
      <trkpt lat="41.981033021584153" lon="-3.442154014483094">
        <ele>1056.7</ele>
        <time>2018-05-26T11:00:37Z</time>
      </trkpt>
      <trkpt lat="41.9809649605304" lon="-3.442019987851381">
        <ele>1057.0999999999999</ele>
        <time>2018-05-26T11:00:40Z</time>
      </trkpt>
      <trkpt lat="41.980917016044259" lon="-3.441891996189952">
        <ele>1057.2</ele>
        <time>2018-05-26T11:00:43Z</time>
      </trkpt>
      <trkpt lat="41.980873011052608" lon="-3.441749000921845">
        <ele>1057.4000000000001</ele>
        <time>2018-05-26T11:00:47Z</time>
      </trkpt>
      <trkpt lat="41.980851972475648" lon="-3.441624026745558">
        <ele>1057.5999999999999</ele>
        <time>2018-05-26T11:00:50Z</time>
      </trkpt>
      <trkpt lat="41.980841998010874" lon="-3.441483965143561">
        <ele>1057.7</ele>
        <time>2018-05-26T11:00:53Z</time>
      </trkpt>
      <trkpt lat="41.980824982747436" lon="-3.441345999017358">
        <ele>1057.9000000000001</ele>
        <time>2018-05-26T11:00:56Z</time>
      </trkpt>
      <trkpt lat="41.980806961655617" lon="-3.441225970163941">
        <ele>1058</ele>
        <time>2018-05-26T11:00:58Z</time>
      </trkpt>
      <trkpt lat="41.980777038261294" lon="-3.441100995987654">
        <ele>1058.0999999999999</ele>
        <time>2018-05-26T11:01:01Z</time>
      </trkpt>
      <trkpt lat="41.980759017169476" lon="-3.440970992669463">
        <ele>1058.2</ele>
        <time>2018-05-26T11:01:04Z</time>
      </trkpt>
      <trkpt lat="41.98074996471405" lon="-3.440829003229737">
        <ele>1058.2</ele>
        <time>2018-05-26T11:01:07Z</time>
      </trkpt>
      <trkpt lat="41.980734961107373" lon="-3.440681984648109">
        <ele>1058.2</ele>
        <time>2018-05-26T11:01:11Z</time>
      </trkpt>
      <trkpt lat="41.98072699829936" lon="-3.440537983551621">
        <ele>1058.2</ele>
        <time>2018-05-26T11:01:14Z</time>
      </trkpt>
      <trkpt lat="41.980716018006206" lon="-3.440256016328931">
        <ele>1058.8</ele>
        <time>2018-05-26T11:01:20Z</time>
      </trkpt>
      <trkpt lat="41.980695985257626" lon="-3.440131964161992">
        <ele>1059.2</ele>
        <time>2018-05-26T11:01:23Z</time>
      </trkpt>
      <trkpt lat="41.980680981650949" lon="-3.439980000257492">
        <ele>1059.5999999999999</ele>
        <time>2018-05-26T11:01:26Z</time>
      </trkpt>
      <trkpt lat="41.980664972215891" lon="-3.439832981675863">
        <ele>1059.9000000000001</ele>
        <time>2018-05-26T11:01:29Z</time>
      </trkpt>
      <trkpt lat="41.980636976659298" lon="-3.439701972529292">
        <ele>1060</ele>
        <time>2018-05-26T11:01:32Z</time>
      </trkpt>
      <trkpt lat="41.980590038001537" lon="-3.439586972817779">
        <ele>1059.7</ele>
        <time>2018-05-26T11:01:35Z</time>
      </trkpt>
      <trkpt lat="41.980556007474661" lon="-3.439464010298252">
        <ele>1059.4000000000001</ele>
        <time>2018-05-26T11:01:38Z</time>
      </trkpt>
      <trkpt lat="41.980520971119404" lon="-3.439336018636823">
        <ele>1059</ele>
        <time>2018-05-26T11:01:41Z</time>
      </trkpt>
      <trkpt lat="41.980475960299373" lon="-3.43920299783349">
        <ele>1058.4000000000001</ele>
        <time>2018-05-26T11:01:45Z</time>
      </trkpt>
      <trkpt lat="41.980431033298373" lon="-3.439075006172061">
        <ele>1057.9000000000001</ele>
        <time>2018-05-26T11:01:48Z</time>
      </trkpt>
      <trkpt lat="41.9803830049932" lon="-3.438938967883587">
        <ele>1057.5</ele>
        <time>2018-05-26T11:01:51Z</time>
      </trkpt>
      <trkpt lat="41.980327013880014" lon="-3.438804019242525">
        <ele>1057.2</ele>
        <time>2018-05-26T11:01:54Z</time>
      </trkpt>
      <trkpt lat="41.980285020545125" lon="-3.438684996217489">
        <ele>1057.2</ele>
        <time>2018-05-26T11:01:57Z</time>
      </trkpt>
      <trkpt lat="41.980234980583191" lon="-3.438534960150719">
        <ele>1057.3</ele>
        <time>2018-05-26T11:02:01Z</time>
      </trkpt>
      <trkpt lat="41.980214025825262" lon="-3.438409985974431">
        <ele>1057.5</ele>
        <time>2018-05-26T11:02:04Z</time>
      </trkpt>
      <trkpt lat="41.980174966156483" lon="-3.438251987099648">
        <ele>1057.7</ele>
        <time>2018-05-26T11:02:07Z</time>
      </trkpt>
      <trkpt lat="41.980141019448638" lon="-3.438092982396483">
        <ele>1057.8</ele>
        <time>2018-05-26T11:02:11Z</time>
      </trkpt>
      <trkpt lat="41.980104977265" lon="-3.437959039583802">
        <ele>1057.8</ele>
        <time>2018-05-26T11:02:14Z</time>
      </trkpt>
      <trkpt lat="41.980073964223266" lon="-3.437843034043908">
        <ele>1057.8</ele>
        <time>2018-05-26T11:02:17Z</time>
      </trkpt>
      <trkpt lat="41.980044040828943" lon="-3.437721999362111">
        <ele>1057.9000000000001</ele>
        <time>2018-05-26T11:02:20Z</time>
      </trkpt>
      <trkpt lat="41.979986960068345" lon="-3.437564000487328">
        <ele>1057.8</ele>
        <time>2018-05-26T11:02:24Z</time>
      </trkpt>
      <trkpt lat="41.979961981996894" lon="-3.437443971633911">
        <ele>1057.9000000000001</ele>
        <time>2018-05-26T11:02:26Z</time>
      </trkpt>
      <trkpt lat="41.979925017803907" lon="-3.437322014942765">
        <ele>1057.8</ele>
        <time>2018-05-26T11:02:29Z</time>
      </trkpt>
      <trkpt lat="41.979890987277031" lon="-3.437186982482672">
        <ele>1057.8</ele>
        <time>2018-05-26T11:02:32Z</time>
      </trkpt>
      <trkpt lat="41.979856034740806" lon="-3.437069971114397">
        <ele>1057.7</ele>
        <time>2018-05-26T11:02:35Z</time>
      </trkpt>
      <trkpt lat="41.97980297729373" lon="-3.436939967796207">
        <ele>1058.0999999999999</ele>
        <time>2018-05-26T11:02:38Z</time>
      </trkpt>
      <trkpt lat="41.979742040857673" lon="-3.436822034418583">
        <ele>1058.2</ele>
        <time>2018-05-26T11:02:42Z</time>
      </trkpt>
      <trkpt lat="41.979683032259345" lon="-3.436712985858321">
        <ele>1058.3</ele>
        <time>2018-05-26T11:02:44Z</time>
      </trkpt>
      <trkpt lat="41.979604996740818" lon="-3.436612989753485">
        <ele>1057.9000000000001</ele>
        <time>2018-05-26T11:02:48Z</time>
      </trkpt>
      <trkpt lat="41.97952201589942" lon="-3.436501007527113">
        <ele>1058.2</ele>
        <time>2018-05-26T11:02:51Z</time>
      </trkpt>
      <trkpt lat="41.979451021179557" lon="-3.436397993937135">
        <ele>1058.7</ele>
        <time>2018-05-26T11:02:54Z</time>
      </trkpt>
      <trkpt lat="41.979391006752849" lon="-3.43630101531744">
        <ele>1059.2</ele>
        <time>2018-05-26T11:02:57Z</time>
      </trkpt>
      <trkpt lat="41.97935102507472" lon="-3.436192972585559">
        <ele>1059.8</ele>
        <time>2018-05-26T11:03:00Z</time>
      </trkpt>
      <trkpt lat="41.979291010648012" lon="-3.436046037822962">
        <ele>1060.4000000000001</ele>
        <time>2018-05-26T11:03:03Z</time>
      </trkpt>
      <trkpt lat="41.979236025363207" lon="-3.435919973999262">
        <ele>1060.9000000000001</ele>
        <time>2018-05-26T11:03:07Z</time>
      </trkpt>
      <trkpt lat="41.979181040078402" lon="-3.43580799177289">
        <ele>1061.3</ele>
        <time>2018-05-26T11:03:10Z</time>
      </trkpt>
      <trkpt lat="41.979080038145185" lon="-3.435731967911124">
        <ele>1061</ele>
        <time>2018-05-26T11:03:13Z</time>
      </trkpt>
      <trkpt lat="41.978995967656374" lon="-3.435670025646687">
        <ele>1060.7</ele>
        <time>2018-05-26T11:03:16Z</time>
      </trkpt>
      <trkpt lat="41.978912986814976" lon="-3.435595007613301">
        <ele>1060.4000000000001</ele>
        <time>2018-05-26T11:03:19Z</time>
      </trkpt>
      <trkpt lat="41.97883796878159" lon="-3.435514038428664">
        <ele>1060.2</ele>
        <time>2018-05-26T11:03:22Z</time>
      </trkpt>
      <trkpt lat="41.978741995990276" lon="-3.435383029282093">
        <ele>1059.8</ele>
        <time>2018-05-26T11:03:26Z</time>
      </trkpt>
      <trkpt lat="41.978659015148878" lon="-3.435267023742199">
        <ele>1058.8</ele>
        <time>2018-05-26T11:03:29Z</time>
      </trkpt>
      <trkpt lat="41.978601012378931" lon="-3.435172978788614">
        <ele>1058.0999999999999</ele>
        <time>2018-05-26T11:03:32Z</time>
      </trkpt>
      <trkpt lat="41.978532029315829" lon="-3.43505596742034">
        <ele>1057.3</ele>
        <time>2018-05-26T11:03:35Z</time>
      </trkpt>
      <trkpt lat="41.978458017110825" lon="-3.43490400351584">
        <ele>1056.4000000000001</ele>
        <time>2018-05-26T11:03:39Z</time>
      </trkpt>
      <trkpt lat="41.978403031826019" lon="-3.434786992147565">
        <ele>1055.8</ele>
        <time>2018-05-26T11:03:42Z</time>
      </trkpt>
      <trkpt lat="41.978355003520846" lon="-3.434670986607671">
        <ele>1055.3</ele>
        <time>2018-05-26T11:03:45Z</time>
      </trkpt>
      <trkpt lat="41.978286020457745" lon="-3.43451701104641">
        <ele>1055</ele>
        <time>2018-05-26T11:03:49Z</time>
      </trkpt>
      <trkpt lat="41.97823204100132" lon="-3.434394970536232">
        <ele>1055.0999999999999</ele>
        <time>2018-05-26T11:03:52Z</time>
      </trkpt>
      <trkpt lat="41.978175966069102" lon="-3.434269996359944">
        <ele>1055.0999999999999</ele>
        <time>2018-05-26T11:03:56Z</time>
      </trkpt>
      <trkpt lat="41.978111006319523" lon="-3.434151979163289">
        <ele>1054.9000000000001</ele>
        <time>2018-05-26T11:03:59Z</time>
      </trkpt>
      <trkpt lat="41.978033976629376" lon="-3.434080984443426">
        <ele>1054.4000000000001</ele>
        <time>2018-05-26T11:04:02Z</time>
      </trkpt>
      <trkpt lat="41.977943032979965" lon="-3.433947041630745">
        <ele>1053.8</ele>
        <time>2018-05-26T11:04:06Z</time>
      </trkpt>
      <trkpt lat="41.977886036038399" lon="-3.43385199084878">
        <ele>1053.5999999999999</ele>
        <time>2018-05-26T11:04:08Z</time>
      </trkpt>
      <trkpt lat="41.977843958884478" lon="-3.43374403193593">
        <ele>1053.8</ele>
        <time>2018-05-26T11:04:11Z</time>
      </trkpt>
      <trkpt lat="41.97780498303473" lon="-3.433603970333934">
        <ele>1054.4000000000001</ele>
        <time>2018-05-26T11:04:14Z</time>
      </trkpt>
      <trkpt lat="41.977763995528221" lon="-3.433441026136279">
        <ele>1055.0999999999999</ele>
        <time>2018-05-26T11:04:18Z</time>
      </trkpt>
      <trkpt lat="41.977708004415035" lon="-3.433303982019424">
        <ele>1055.5</ele>
        <time>2018-05-26T11:04:21Z</time>
      </trkpt>
      <trkpt lat="41.977655030786991" lon="-3.433191999793053">
        <ele>1055.8</ele>
        <time>2018-05-26T11:04:24Z</time>
      </trkpt>
      <trkpt lat="41.977599961683154" lon="-3.433084962889552">
        <ele>1055.9000000000001</ele>
        <time>2018-05-26T11:04:27Z</time>
      </trkpt>
      <trkpt lat="41.977545982226729" lon="-3.432979015633464">
        <ele>1056.0999999999999</ele>
        <time>2018-05-26T11:04:30Z</time>
      </trkpt>
      <trkpt lat="41.977495020255446" lon="-3.432826967909932">
        <ele>1056.5</ele>
        <time>2018-05-26T11:04:34Z</time>
      </trkpt>
      <trkpt lat="41.977449003607035" lon="-3.432672992348671">
        <ele>1057.0999999999999</ele>
        <time>2018-05-26T11:04:37Z</time>
      </trkpt>
      <trkpt lat="41.977355964481831" lon="-3.432535026222467">
        <ele>1057.0999999999999</ele>
        <time>2018-05-26T11:04:42Z</time>
      </trkpt>
      <trkpt lat="41.977272983640432" lon="-3.432450033724308">
        <ele>1056.9000000000001</ele>
        <time>2018-05-26T11:04:45Z</time>
      </trkpt>
      <trkpt lat="41.977183967828751" lon="-3.432387001812458">
        <ele>1056.4000000000001</ele>
        <time>2018-05-26T11:04:48Z</time>
      </trkpt>
      <trkpt lat="41.977092018350959" lon="-3.432330004870892">
        <ele>1055.9000000000001</ele>
        <time>2018-05-26T11:04:51Z</time>
      </trkpt>
      <trkpt lat="41.976992022246122" lon="-3.432235959917307">
        <ele>1055.8</ele>
        <time>2018-05-26T11:04:54Z</time>
      </trkpt>
      <trkpt lat="41.976923961192369" lon="-3.432122971862555">
        <ele>1055.9000000000001</ele>
        <time>2018-05-26T11:04:57Z</time>
      </trkpt>
      <trkpt lat="41.97685900144279" lon="-3.432008977979422">
        <ele>1056</ele>
        <time>2018-05-26T11:05:01Z</time>
      </trkpt>
      <trkpt lat="41.976796975359321" lon="-3.431886015459895">
        <ele>1056.0999999999999</ele>
        <time>2018-05-26T11:05:04Z</time>
      </trkpt>
      <trkpt lat="41.97670703753829" lon="-3.431774033233523">
        <ele>1056.0999999999999</ele>
        <time>2018-05-26T11:05:07Z</time>
      </trkpt>
      <trkpt lat="41.976635036990047" lon="-3.431679988279939">
        <ele>1056</ele>
        <time>2018-05-26T11:05:10Z</time>
      </trkpt>
      <trkpt lat="41.976577034220099" lon="-3.431578986346722">
        <ele>1056</ele>
        <time>2018-05-26T11:05:13Z</time>
      </trkpt>
      <trkpt lat="41.976520959287882" lon="-3.431461974978447">
        <ele>1056.0999999999999</ele>
        <time>2018-05-26T11:05:16Z</time>
      </trkpt>
      <trkpt lat="41.976479971781373" lon="-3.431352004408836">
        <ele>1056.3</ele>
        <time>2018-05-26T11:05:19Z</time>
      </trkpt>
      <trkpt lat="41.976420041173697" lon="-3.431235998868942">
        <ele>1056.3</ele>
        <time>2018-05-26T11:05:22Z</time>
      </trkpt>
      <trkpt lat="41.976371007040143" lon="-3.431130973622203">
        <ele>1056.5</ele>
        <time>2018-05-26T11:05:25Z</time>
      </trkpt>
      <trkpt lat="41.976289032027125" lon="-3.43101697973907">
        <ele>1056.4000000000001</ele>
        <time>2018-05-26T11:05:28Z</time>
      </trkpt>
      <trkpt lat="41.976202027872205" lon="-3.430933998897672">
        <ele>1056.2</ele>
        <time>2018-05-26T11:05:32Z</time>
      </trkpt>
      <trkpt lat="41.976104965433478" lon="-3.430836014449596">
        <ele>1056</ele>
        <time>2018-05-26T11:05:35Z</time>
      </trkpt>
      <trkpt lat="41.976034976541996" lon="-3.43073601834476">
        <ele>1056</ele>
        <time>2018-05-26T11:05:38Z</time>
      </trkpt>
      <trkpt lat="41.975987032055855" lon="-3.430616995319724">
        <ele>1056.0999999999999</ele>
        <time>2018-05-26T11:05:41Z</time>
      </trkpt>
      <trkpt lat="41.975950989872217" lon="-3.430455978959799">
        <ele>1056.4000000000001</ele>
        <time>2018-05-26T11:05:45Z</time>
      </trkpt>
      <trkpt lat="41.975906984880567" lon="-3.430317007005215">
        <ele>1056.5</ele>
        <time>2018-05-26T11:05:48Z</time>
      </trkpt>
      <trkpt lat="41.975842025130987" lon="-3.430202007293701">
        <ele>1056.4000000000001</ele>
        <time>2018-05-26T11:05:51Z</time>
      </trkpt>
      <trkpt lat="41.975768012925982" lon="-3.430080972611904">
        <ele>1056.0999999999999</ele>
        <time>2018-05-26T11:05:55Z</time>
      </trkpt>
      <trkpt lat="41.975689977407455" lon="-3.429957004263997">
        <ele>1055.8</ele>
        <time>2018-05-26T11:05:58Z</time>
      </trkpt>
      <trkpt lat="41.975624011829495" lon="-3.429853990674019">
        <ele>1055.4000000000001</ele>
        <time>2018-05-26T11:06:01Z</time>
      </trkpt>
      <trkpt lat="41.975561985746026" lon="-3.429763969033957">
        <ele>1055.0999999999999</ele>
        <time>2018-05-26T11:06:04Z</time>
      </trkpt>
      <trkpt lat="41.97548202238977" lon="-3.429674031212926">
        <ele>1054.5</ele>
        <time>2018-05-26T11:06:07Z</time>
      </trkpt>
      <trkpt lat="41.975361993536353" lon="-3.429589960724115">
        <ele>1054</ele>
        <time>2018-05-26T11:06:11Z</time>
      </trkpt>
      <trkpt lat="41.975257974117994" lon="-3.429535981267691">
        <ele>1054.2</ele>
        <time>2018-05-26T11:06:14Z</time>
      </trkpt>
      <trkpt lat="41.975151021033525" lon="-3.429474961012602">
        <ele>1054.4000000000001</ele>
        <time>2018-05-26T11:06:18Z</time>
      </trkpt>
      <trkpt lat="41.975070973858237" lon="-3.42938301153481">
        <ele>1054.7</ele>
        <time>2018-05-26T11:06:21Z</time>
      </trkpt>
      <trkpt lat="41.974995033815503" lon="-3.429290978237987">
        <ele>1054.9000000000001</ele>
        <time>2018-05-26T11:06:24Z</time>
      </trkpt>
      <trkpt lat="41.974900988861918" lon="-3.429177990183234">
        <ele>1055</ele>
        <time>2018-05-26T11:06:28Z</time>
      </trkpt>
      <trkpt lat="41.974806021898985" lon="-3.429065002128482">
        <ele>1055.0999999999999</ele>
        <time>2018-05-26T11:06:32Z</time>
      </trkpt>
      <trkpt lat="41.97473200969398" lon="-3.428962994366884">
        <ele>1055.0999999999999</ele>
        <time>2018-05-26T11:06:35Z</time>
      </trkpt>
      <trkpt lat="41.974641988053918" lon="-3.428841037675738">
        <ele>1055.0999999999999</ele>
        <time>2018-05-26T11:06:38Z</time>
      </trkpt>
      <trkpt lat="41.974606029689312" lon="-3.428721008822322">
        <ele>1055.0999999999999</ele>
        <time>2018-05-26T11:06:41Z</time>
      </trkpt>
      <trkpt lat="41.974576022475958" lon="-3.428597962483764">
        <ele>1054.9000000000001</ele>
        <time>2018-05-26T11:06:44Z</time>
      </trkpt>
      <trkpt lat="41.974498992785811" lon="-3.428492015227675">
        <ele>1054.3</ele>
        <time>2018-05-26T11:06:47Z</time>
      </trkpt>
      <trkpt lat="41.974421963095665" lon="-3.4283940307796">
        <ele>1053.5999999999999</ele>
        <time>2018-05-26T11:06:51Z</time>
      </trkpt>
      <trkpt lat="41.974329007789493" lon="-3.428324963897467">
        <ele>1052.7</ele>
        <time>2018-05-26T11:06:54Z</time>
      </trkpt>
      <trkpt lat="41.974234040826559" lon="-3.428283976390958">
        <ele>1051.7</ele>
        <time>2018-05-26T11:06:57Z</time>
      </trkpt>
      <trkpt lat="41.974132033064961" lon="-3.428237959742546">
        <ele>1050.5999999999999</ele>
        <time>2018-05-26T11:07:00Z</time>
      </trkpt>
      <trkpt lat="41.974010998383164" lon="-3.428151039406657">
        <ele>1049.0999999999999</ele>
        <time>2018-05-26T11:07:04Z</time>
      </trkpt>
      <trkpt lat="41.97391502559185" lon="-3.428076021373272">
        <ele>1047.7</ele>
        <time>2018-05-26T11:07:07Z</time>
      </trkpt>
      <trkpt lat="41.973797008395195" lon="-3.42800997197628">
        <ele>1046.0999999999999</ele>
        <time>2018-05-26T11:07:11Z</time>
      </trkpt>
      <trkpt lat="41.973689971491694" lon="-3.427977031096816">
        <ele>1044.9000000000001</ele>
        <time>2018-05-26T11:07:14Z</time>
      </trkpt>
      <trkpt lat="41.973595004528761" lon="-3.427950041368604">
        <ele>1043.9000000000001</ele>
        <time>2018-05-26T11:07:17Z</time>
      </trkpt>
      <trkpt lat="41.973502971231937" lon="-3.427924979478121">
        <ele>1043</ele>
        <time>2018-05-26T11:07:20Z</time>
      </trkpt>
      <trkpt lat="41.973410015925765" lon="-3.42792003415525">
        <ele>1042.2</ele>
        <time>2018-05-26T11:07:23Z</time>
      </trkpt>
      <trkpt lat="41.973307002335787" lon="-3.427874017506838">
        <ele>1041.4000000000001</ele>
        <time>2018-05-26T11:07:26Z</time>
      </trkpt>
      <trkpt lat="41.973217986524105" lon="-3.42779103666544">
        <ele>1040.8</ele>
        <time>2018-05-26T11:07:29Z</time>
      </trkpt>
      <trkpt lat="41.973141962662339" lon="-3.427709983661771">
        <ele>1040.2</ele>
        <time>2018-05-26T11:07:32Z</time>
      </trkpt>
      <trkpt lat="41.973070967942476" lon="-3.42762297950685">
        <ele>1039.5999999999999</ele>
        <time>2018-05-26T11:07:35Z</time>
      </trkpt>
      <trkpt lat="41.972984969615936" lon="-3.427529018372297">
        <ele>1038.8</ele>
        <time>2018-05-26T11:07:38Z</time>
      </trkpt>
      <trkpt lat="41.972899977117777" lon="-3.427433967590332">
        <ele>1037.9000000000001</ele>
        <time>2018-05-26T11:07:42Z</time>
      </trkpt>
      <trkpt lat="41.972811967134476" lon="-3.427329026162624">
        <ele>1037.5999999999999</ele>
        <time>2018-05-26T11:07:45Z</time>
      </trkpt>
      <trkpt lat="41.972717000171542" lon="-3.427231963723898">
        <ele>1037.2</ele>
        <time>2018-05-26T11:07:49Z</time>
      </trkpt>
      <trkpt lat="41.972642987966537" lon="-3.427150994539261">
        <ele>1036.8</ele>
        <time>2018-05-26T11:07:51Z</time>
      </trkpt>
      <trkpt lat="41.972582973539829" lon="-3.427044963464141">
        <ele>1036.4000000000001</ele>
        <time>2018-05-26T11:07:54Z</time>
      </trkpt>
      <trkpt lat="41.972508039325476" lon="-3.426926024258137">
        <ele>1036</ele>
        <time>2018-05-26T11:07:58Z</time>
      </trkpt>
      <trkpt lat="41.972417011857033" lon="-3.426810018718243">
        <ele>1035.0999999999999</ele>
        <time>2018-05-26T11:08:01Z</time>
      </trkpt>
      <trkpt lat="41.972354985773563" lon="-3.42671999707818">
        <ele>1034.4000000000001</ele>
        <time>2018-05-26T11:08:04Z</time>
      </trkpt>
      <trkpt lat="41.972293965518475" lon="-3.426621006801724">
        <ele>1033.5</ele>
        <time>2018-05-26T11:08:07Z</time>
      </trkpt>
      <trkpt lat="41.972235040739179" lon="-3.42652796767652">
        <ele>1032.5</ele>
        <time>2018-05-26T11:08:10Z</time>
      </trkpt>
      <trkpt lat="41.972129009664059" lon="-3.42643903568387">
        <ele>1030.7</ele>
        <time>2018-05-26T11:08:13Z</time>
      </trkpt>
      <trkpt lat="41.972021972760558" lon="-3.426371980458498">
        <ele>1029.5999999999999</ele>
        <time>2018-05-26T11:08:17Z</time>
      </trkpt>
      <trkpt lat="41.971931029111147" lon="-3.42626896686852">
        <ele>1028.7</ele>
        <time>2018-05-26T11:08:21Z</time>
      </trkpt>
      <trkpt lat="41.971835978329182" lon="-3.426153967157006">
        <ele>1029.2</ele>
        <time>2018-05-26T11:08:24Z</time>
      </trkpt>
      <trkpt lat="41.971734976395965" lon="-3.426043996587396">
        <ele>1029.5</ele>
        <time>2018-05-26T11:08:28Z</time>
      </trkpt>
      <trkpt lat="41.971657024696469" lon="-3.425932014361024">
        <ele>1029.5999999999999</ele>
        <time>2018-05-26T11:08:32Z</time>
      </trkpt>
      <trkpt lat="41.971579995006323" lon="-3.42583604156971">
        <ele>1029.5</ele>
        <time>2018-05-26T11:08:35Z</time>
      </trkpt>
      <trkpt lat="41.971506988629699" lon="-3.42573101632297">
        <ele>1029.0999999999999</ele>
        <time>2018-05-26T11:08:38Z</time>
      </trkpt>
      <trkpt lat="41.971432976424694" lon="-3.425646023824811">
        <ele>1028.5</ele>
        <time>2018-05-26T11:08:41Z</time>
      </trkpt>
      <trkpt lat="41.971313031390309" lon="-3.425549967214465">
        <ele>1027</ele>
        <time>2018-05-26T11:08:45Z</time>
      </trkpt>
      <trkpt lat="41.971229966729879" lon="-3.425485007464886">
        <ele>1026</ele>
        <time>2018-05-26T11:08:48Z</time>
      </trkpt>
      <trkpt lat="41.971142962574959" lon="-3.425414012745023">
        <ele>1025.8</ele>
        <time>2018-05-26T11:08:51Z</time>
      </trkpt>
      <trkpt lat="41.971054030582309" lon="-3.425359027460218">
        <ele>1025.7</ele>
        <time>2018-05-26T11:08:54Z</time>
      </trkpt>
      <trkpt lat="41.970965014770627" lon="-3.425273029133678">
        <ele>1025.7</ele>
        <time>2018-05-26T11:08:57Z</time>
      </trkpt>
      <trkpt lat="41.970871975645423" lon="-3.425159035250545">
        <ele>1025.5</ele>
        <time>2018-05-26T11:09:01Z</time>
      </trkpt>
      <trkpt lat="41.970794023945928" lon="-3.425027020275593">
        <ele>1025.2</ele>
        <time>2018-05-26T11:09:04Z</time>
      </trkpt>
      <trkpt lat="41.970704002305865" lon="-3.424887964501977">
        <ele>1024.5</ele>
        <time>2018-05-26T11:09:08Z</time>
      </trkpt>
      <trkpt lat="41.970640970394015" lon="-3.424789980053902">
        <ele>1023.9</ele>
        <time>2018-05-26T11:09:11Z</time>
      </trkpt>
      <trkpt lat="41.970551032572985" lon="-3.424666011705995">
        <ele>1022.8</ele>
        <time>2018-05-26T11:09:15Z</time>
      </trkpt>
      <trkpt lat="41.970472997054458" lon="-3.424573978409171">
        <ele>1021.7</ele>
        <time>2018-05-26T11:09:18Z</time>
      </trkpt>
      <trkpt lat="41.970396973192692" lon="-3.424486974254251">
        <ele>1021.2</ele>
        <time>2018-05-26T11:09:21Z</time>
      </trkpt>
      <trkpt lat="41.970278033986688" lon="-3.424392007291317">
        <ele>1020.6</ele>
        <time>2018-05-26T11:09:25Z</time>
      </trkpt>
      <trkpt lat="41.970163034275174" lon="-3.424345990642905">
        <ele>1019.8</ele>
        <time>2018-05-26T11:09:29Z</time>
      </trkpt>
      <trkpt lat="41.970072006806731" lon="-3.424297040328383">
        <ele>1019.1</ele>
        <time>2018-05-26T11:09:32Z</time>
      </trkpt>
      <trkpt lat="41.969962958246469" lon="-3.42424800619483">
        <ele>1018.3</ele>
        <time>2018-05-26T11:09:35Z</time>
      </trkpt>
      <trkpt lat="41.96985499933362" lon="-3.424219004809856">
        <ele>1017.4</ele>
        <time>2018-05-26T11:09:38Z</time>
      </trkpt>
      <trkpt lat="41.969734970480204" lon="-3.424166031181812">
        <ele>1016.4</ele>
        <time>2018-05-26T11:09:42Z</time>
      </trkpt>
      <trkpt lat="41.969623994082212" lon="-3.424073997884989">
        <ele>1015.4</ele>
        <time>2018-05-26T11:09:46Z</time>
      </trkpt>
      <trkpt lat="41.969506982713938" lon="-3.423974001780152">
        <ele>1015.2</ele>
        <time>2018-05-26T11:09:50Z</time>
      </trkpt>
      <trkpt lat="41.969417966902256" lon="-3.423882974311709">
        <ele>1015.5</ele>
        <time>2018-05-26T11:09:53Z</time>
      </trkpt>
      <trkpt lat="41.969333980232477" lon="-3.423779960721731">
        <ele>1015.9</ele>
        <time>2018-05-26T11:09:57Z</time>
      </trkpt>
      <trkpt lat="41.96925200521946" lon="-3.423672001808882">
        <ele>1016.8</ele>
        <time>2018-05-26T11:10:00Z</time>
      </trkpt>
      <trkpt lat="41.969177993014455" lon="-3.423578962683678">
        <ele>1017.6</ele>
        <time>2018-05-26T11:10:03Z</time>
      </trkpt>
      <trkpt lat="41.96910297498107" lon="-3.423477960750461">
        <ele>1018.3</ele>
        <time>2018-05-26T11:10:06Z</time>
      </trkpt>
      <trkpt lat="41.969000967219472" lon="-3.423362961038947">
        <ele>1019</ele>
        <time>2018-05-26T11:10:10Z</time>
      </trkpt>
      <trkpt lat="41.96893198415637" lon="-3.423266988247633">
        <ele>1019.4</ele>
        <time>2018-05-26T11:10:13Z</time>
      </trkpt>
      <trkpt lat="41.968847997486591" lon="-3.4231529943645">
        <ele>1019.7</ele>
        <time>2018-05-26T11:10:17Z</time>
      </trkpt>
      <trkpt lat="41.968763004988432" lon="-3.423041012138128">
        <ele>1019.7</ele>
        <time>2018-05-26T11:10:20Z</time>
      </trkpt>
      <trkpt lat="41.968674995005131" lon="-3.422935986891389">
        <ele>1019.5</ele>
        <time>2018-05-26T11:10:24Z</time>
      </trkpt>
      <trkpt lat="41.968579022213817" lon="-3.422843031585217">
        <ele>1019.3</ele>
        <time>2018-05-26T11:10:27Z</time>
      </trkpt>
      <trkpt lat="41.968456981703639" lon="-3.422776982188225">
        <ele>1018.8</ele>
        <time>2018-05-26T11:10:31Z</time>
      </trkpt>
      <trkpt lat="41.968336030840874" lon="-3.422720991075039">
        <ele>1018.2</ele>
        <time>2018-05-26T11:10:35Z</time>
      </trkpt>
      <trkpt lat="41.968247015029192" lon="-3.422670029103756">
        <ele>1017.7</ele>
        <time>2018-05-26T11:10:38Z</time>
      </trkpt>
      <trkpt lat="41.968148024752736" lon="-3.422584030777216">
        <ele>1017.2</ele>
        <time>2018-05-26T11:10:41Z</time>
      </trkpt>
      <trkpt lat="41.968050040304661" lon="-3.422511024400592">
        <ele>1016.6</ele>
        <time>2018-05-26T11:10:45Z</time>
      </trkpt>
      <trkpt lat="41.967961024492979" lon="-3.422426031902432">
        <ele>1016</ele>
        <time>2018-05-26T11:10:48Z</time>
      </trkpt>
      <trkpt lat="41.967866979539394" lon="-3.422333998605609">
        <ele>1015.6</ele>
        <time>2018-05-26T11:10:51Z</time>
      </trkpt>
      <trkpt lat="41.967782992869616" lon="-3.422267027199268">
        <ele>1015.5</ele>
        <time>2018-05-26T11:10:54Z</time>
      </trkpt>
      <trkpt lat="41.967682996764779" lon="-3.422188991680741">
        <ele>1015.3</ele>
        <time>2018-05-26T11:10:58Z</time>
      </trkpt>
      <trkpt lat="41.967593980953097" lon="-3.422141969203949">
        <ele>1015.2</ele>
        <time>2018-05-26T11:11:00Z</time>
      </trkpt>
      <trkpt lat="41.967483004555106" lon="-3.422092013061047">
        <ele>1014.9</ele>
        <time>2018-05-26T11:11:04Z</time>
      </trkpt>
      <trkpt lat="41.967396000400186" lon="-3.422018000856042">
        <ele>1015.1</ele>
        <time>2018-05-26T11:11:07Z</time>
      </trkpt>
      <trkpt lat="41.967288041487336" lon="-3.421896966174245">
        <ele>1015.2</ele>
        <time>2018-05-26T11:11:11Z</time>
      </trkpt>
      <trkpt lat="41.967201959341764" lon="-3.42179898172617">
        <ele>1015.2</ele>
        <time>2018-05-26T11:11:15Z</time>
      </trkpt>
      <trkpt lat="41.967127025127411" lon="-3.421708038076758">
        <ele>1015.1</ele>
        <time>2018-05-26T11:11:18Z</time>
      </trkpt>
      <trkpt lat="41.967033986002207" lon="-3.421612987294793">
        <ele>1014.7</ele>
        <time>2018-05-26T11:11:21Z</time>
      </trkpt>
      <trkpt lat="41.96695301681757" lon="-3.421510979533196">
        <ele>1014.3</ele>
        <time>2018-05-26T11:11:24Z</time>
      </trkpt>
      <trkpt lat="41.966874981299043" lon="-3.421401008963585">
        <ele>1014</ele>
        <time>2018-05-26T11:11:28Z</time>
      </trkpt>
      <trkpt lat="41.966784037649632" lon="-3.421297995373607">
        <ele>1013.7</ele>
        <time>2018-05-26T11:11:31Z</time>
      </trkpt>
      <trkpt lat="41.966687981039286" lon="-3.421187018975616">
        <ele>1013.6</ele>
        <time>2018-05-26T11:11:35Z</time>
      </trkpt>
      <trkpt lat="41.966598965227604" lon="-3.421081993728876">
        <ele>1013.6</ele>
        <time>2018-05-26T11:11:38Z</time>
      </trkpt>
      <trkpt lat="41.966520007699728" lon="-3.421001024544239">
        <ele>1013.4</ele>
        <time>2018-05-26T11:11:41Z</time>
      </trkpt>
      <trkpt lat="41.966442978009582" lon="-3.420923994854093">
        <ele>1013.2</ele>
        <time>2018-05-26T11:11:44Z</time>
      </trkpt>
      <trkpt lat="41.966367037966847" lon="-3.42085300013423">
        <ele>1012.9</ele>
        <time>2018-05-26T11:11:47Z</time>
      </trkpt>
      <trkpt lat="41.966271987184882" lon="-3.42074696905911">
        <ele>1012.6</ele>
        <time>2018-05-26T11:11:51Z</time>
      </trkpt>
      <trkpt lat="41.966196969151497" lon="-3.420656025409699">
        <ele>1012.7</ele>
        <time>2018-05-26T11:11:54Z</time>
      </trkpt>
      <trkpt lat="41.966108037158847" lon="-3.420529961585999">
        <ele>1013.1</ele>
        <time>2018-05-26T11:11:57Z</time>
      </trkpt>
      <trkpt lat="41.966024972498417" lon="-3.420420996844769">
        <ele>1013.4</ele>
        <time>2018-05-26T11:12:01Z</time>
      </trkpt>
      <trkpt lat="41.96592497639358" lon="-3.420327035710216">
        <ele>1013.9</ele>
        <time>2018-05-26T11:12:04Z</time>
      </trkpt>
      <trkpt lat="41.965818023309112" lon="-3.420240031555295">
        <ele>1014.1</ele>
        <time>2018-05-26T11:12:08Z</time>
      </trkpt>
      <trkpt lat="41.965712998062372" lon="-3.420141963288188">
        <ele>1014.3</ele>
        <time>2018-05-26T11:12:12Z</time>
      </trkpt>
      <trkpt lat="41.965608978644013" lon="-3.420111034065485">
        <ele>1014</ele>
        <time>2018-05-26T11:12:15Z</time>
      </trkpt>
      <trkpt lat="41.965505965054035" lon="-3.420111034065485">
        <ele>1013.5</ele>
        <time>2018-05-26T11:12:18Z</time>
      </trkpt>
      <trkpt lat="41.965485010296106" lon="-3.420260986313224">
        <ele>1012.8</ele>
        <time>2018-05-26T11:12:22Z</time>
      </trkpt>
      <trkpt lat="41.965488027781248" lon="-3.420414039865136">
        <ele>1012.2</ele>
        <time>2018-05-26T11:12:25Z</time>
      </trkpt>
      <trkpt lat="41.965482998639345" lon="-3.420591987669468">
        <ele>1010.9</ele>
        <time>2018-05-26T11:12:29Z</time>
      </trkpt>
      <trkpt lat="41.965449973940849" lon="-3.420718973502517">
        <ele>1009.9</ele>
        <time>2018-05-26T11:12:32Z</time>
      </trkpt>
      <trkpt lat="41.965345032513142" lon="-3.420735988765955">
        <ele>1009.4</ele>
        <time>2018-05-26T11:12:35Z</time>
      </trkpt>
      <trkpt lat="41.965223997831345" lon="-3.420674968510866">
        <ele>1009.4</ele>
        <time>2018-05-26T11:12:39Z</time>
      </trkpt>
      <trkpt lat="41.965133976191282" lon="-3.420632975175977">
        <ele>1009.4</ele>
        <time>2018-05-26T11:12:42Z</time>
      </trkpt>
      <trkpt lat="41.965021993964911" lon="-3.420607997104526">
        <ele>1009.2</ele>
        <time>2018-05-26T11:12:45Z</time>
      </trkpt>
      <trkpt lat="41.964916968718171" lon="-3.420611014589667">
        <ele>1008.8</ele>
        <time>2018-05-26T11:12:48Z</time>
      </trkpt>
      <trkpt lat="41.964796017855406" lon="-3.42059500515461">
        <ele>1008.5</ele>
        <time>2018-05-26T11:12:52Z</time>
      </trkpt>
      <trkpt lat="41.964694010093808" lon="-3.420583019033074">
        <ele>1008.2</ele>
        <time>2018-05-26T11:12:55Z</time>
      </trkpt>
      <trkpt lat="41.964578004553914" lon="-3.420564997941256">
        <ele>1007.9</ele>
        <time>2018-05-26T11:12:58Z</time>
      </trkpt>
      <trkpt lat="41.964478008449078" lon="-3.420559968799353">
        <ele>1008.2</ele>
        <time>2018-05-26T11:13:01Z</time>
      </trkpt>
      <trkpt lat="41.964381029829383" lon="-3.420557035133243">
        <ele>1008.5</ele>
        <time>2018-05-26T11:13:04Z</time>
      </trkpt>
      <trkpt lat="41.964253038167953" lon="-3.420542031526566">
        <ele>1009</ele>
        <time>2018-05-26T11:13:08Z</time>
      </trkpt>
      <trkpt lat="41.964147007092834" lon="-3.420504983514547">
        <ele>1009.7</ele>
        <time>2018-05-26T11:13:11Z</time>
      </trkpt>
      <trkpt lat="41.9640520401299" lon="-3.420426025986671">
        <ele>1010.8</ele>
        <time>2018-05-26T11:13:14Z</time>
      </trkpt>
      <trkpt lat="41.963980961591005" lon="-3.420325024053454">
        <ele>1010.9</ele>
        <time>2018-05-26T11:13:17Z</time>
      </trkpt>
      <trkpt lat="41.963914996013045" lon="-3.420221004635096">
        <ele>1010.7</ele>
        <time>2018-05-26T11:13:20Z</time>
      </trkpt>
      <trkpt lat="41.963850036263466" lon="-3.420097958296537">
        <ele>1010.3</ele>
        <time>2018-05-26T11:13:24Z</time>
      </trkpt>
      <trkpt lat="41.963785998523235" lon="-3.419939959421754">
        <ele>1009.7</ele>
        <time>2018-05-26T11:13:28Z</time>
      </trkpt>
      <trkpt lat="41.963721038773656" lon="-3.419772991910577">
        <ele>1008.7</ele>
        <time>2018-05-26T11:13:32Z</time>
      </trkpt>
      <trkpt lat="41.963692037388682" lon="-3.41962899081409">
        <ele>1007.8</ele>
        <time>2018-05-26T11:13:35Z</time>
      </trkpt>
      <trkpt lat="41.963690025731921" lon="-3.419475015252829">
        <ele>1007.6</ele>
        <time>2018-05-26T11:13:39Z</time>
      </trkpt>
      <trkpt lat="41.963707963004708" lon="-3.419354986399412">
        <ele>1007.8</ele>
        <time>2018-05-26T11:13:41Z</time>
      </trkpt>
      <trkpt lat="41.963727995753288" lon="-3.419172009453178">
        <ele>1007.9</ele>
        <time>2018-05-26T11:13:45Z</time>
      </trkpt>
      <trkpt lat="41.963660018518567" lon="-3.419033959507942">
        <ele>1007.7</ele>
        <time>2018-05-26T11:13:49Z</time>
      </trkpt>
      <trkpt lat="41.963574020192027" lon="-3.418994983658195">
        <ele>1007.5</ele>
        <time>2018-05-26T11:13:52Z</time>
      </trkpt>
      <trkpt lat="41.963462037965655" lon="-3.418958019465208">
        <ele>1007.2</ele>
        <time>2018-05-26T11:13:55Z</time>
      </trkpt>
      <trkpt lat="41.96336698718369" lon="-3.418943015858531">
        <ele>1007</ele>
        <time>2018-05-26T11:13:58Z</time>
      </trkpt>
      <trkpt lat="41.963266991078854" lon="-3.41894201003015">
        <ele>1006.8</ele>
        <time>2018-05-26T11:14:01Z</time>
      </trkpt>
      <trkpt lat="41.963266991078854" lon="-3.41894201003015">
        <ele>1006.8</ele>
        <time>2018-05-27T06:00:00Z</time>
      </trkpt>
      <trkpt lat="41.963158026337624" lon="-3.418949972838163">
        <ele>1006.4</ele>
        <time>2018-05-27T06:00:03Z</time>
      </trkpt>
      <trkpt lat="41.963046966120601" lon="-3.418976040557027">
        <ele>1006</ele>
        <time>2018-05-27T06:00:06Z</time>
      </trkpt>
      <trkpt lat="41.962939007207751" lon="-3.41892097145319">
        <ele>1006</ele>
        <time>2018-05-27T06:00:09Z</time>
      </trkpt>
      <trkpt lat="41.962836999446154" lon="-3.418867997825146">
        <ele>1005.9</ele>
        <time>2018-05-27T06:00:13Z</time>
      </trkpt>
      <trkpt lat="41.962729962542653" lon="-3.418828016147018">
        <ele>1005.6</ele>
        <time>2018-05-27T06:00:16Z</time>
      </trkpt>
      <trkpt lat="41.962633989751339" lon="-3.41878904029727">
        <ele>1005.4</ele>
        <time>2018-05-27T06:00:19Z</time>
      </trkpt>
      <trkpt lat="41.96254899725318" lon="-3.418730031698942">
        <ele>1005.3</ele>
        <time>2018-05-27T06:00:22Z</time>
      </trkpt>
      <trkpt lat="41.962466016411781" lon="-3.418616037815809">
        <ele>1005</ele>
        <time>2018-05-27T06:00:25Z</time>
      </trkpt>
      <trkpt lat="41.96222897619009" lon="-3.418534984812141">
        <ele>1003.6</ele>
        <time>2018-05-27T06:00:33Z</time>
      </trkpt>
      <trkpt lat="41.961747016757727" lon="-3.418604973703623">
        <ele>1001.2</ele>
        <time>2018-05-27T06:00:47Z</time>
      </trkpt>
      <trkpt lat="41.961568985134363" lon="-3.418751992285252">
        <ele>1000.5</ele>
        <time>2018-05-27T06:00:53Z</time>
      </trkpt>
      <trkpt lat="41.961334962397814" lon="-3.418811000883579">
        <ele>999.10000000000002</ele>
        <time>2018-05-27T06:01:00Z</time>
      </trkpt>
      <trkpt lat="41.961247958242893" lon="-3.41878904029727">
        <ele>998.79999999999995</ele>
        <time>2018-05-27T06:01:03Z</time>
      </trkpt>
      <trkpt lat="41.961167994886637" lon="-3.418786022812128">
        <ele>999.89999999999998</ele>
        <time>2018-05-27T06:01:05Z</time>
      </trkpt>
      <trkpt lat="41.960963979363441" lon="-3.418694995343685">
        <ele>1002.8</ele>
        <time>2018-05-27T06:01:12Z</time>
      </trkpt>
      <trkpt lat="41.96078896522522" lon="-3.418617965653539">
        <ele>1005.4</ele>
        <time>2018-05-27T06:01:17Z</time>
      </trkpt>
      <trkpt lat="41.960655022412539" lon="-3.418374974280596">
        <ele>1008</ele>
        <time>2018-05-27T06:01:24Z</time>
      </trkpt>
      <trkpt lat="41.960598025470972" lon="-3.418230973184109">
        <ele>1009.4</ele>
        <time>2018-05-27T06:01:27Z</time>
      </trkpt>
      <trkpt lat="41.960537005215883" lon="-3.418071968480945">
        <ele>1011.1</ele>
        <time>2018-05-27T06:01:31Z</time>
      </trkpt>
      <trkpt lat="41.960436003282666" lon="-3.417827971279621">
        <ele>1013.3</ele>
        <time>2018-05-27T06:01:38Z</time>
      </trkpt>
      <trkpt lat="41.960300970822573" lon="-3.417539969086647">
        <ele>1015.8</ele>
        <time>2018-05-27T06:01:45Z</time>
      </trkpt>
      <trkpt lat="41.960224024951458" lon="-3.417531000450254">
        <ele>1017.8</ele>
        <time>2018-05-27T06:01:47Z</time>
      </trkpt>
      <trkpt lat="41.960117993876338" lon="-3.417606018483639">
        <ele>1021</ele>
        <time>2018-05-27T06:01:51Z</time>
      </trkpt>
      <trkpt lat="41.960019003599882" lon="-3.417807016521692">
        <ele>1024.5</ele>
        <time>2018-05-27T06:01:57Z</time>
      </trkpt>
      <trkpt lat="41.959927976131439" lon="-3.418009020388126">
        <ele>1027.0999999999999</ele>
        <time>2018-05-27T06:02:02Z</time>
      </trkpt>
      <trkpt lat="41.959844995290041" lon="-3.418400036171079">
        <ele>1027.9000000000001</ele>
        <time>2018-05-27T06:02:11Z</time>
      </trkpt>
      <trkpt lat="41.959892017766833" lon="-3.418458038941026">
        <ele>1026.3</ele>
        <time>2018-05-27T06:02:13Z</time>
      </trkpt>
      <trkpt lat="41.959838960319757" lon="-3.418586030602455">
        <ele>1027.3</ele>
        <time>2018-05-27T06:02:16Z</time>
      </trkpt>
      <trkpt lat="41.959708034992218" lon="-3.418717961758375">
        <ele>1030.5</ele>
        <time>2018-05-27T06:02:21Z</time>
      </trkpt>
      <trkpt lat="41.95964902639389" lon="-3.418712010607123">
        <ele>1032.2</ele>
        <time>2018-05-27T06:02:23Z</time>
      </trkpt>
      <trkpt lat="41.959536960348487" lon="-3.418587036430836">
        <ele>1035.2</ele>
        <time>2018-05-27T06:02:27Z</time>
      </trkpt>
      <trkpt lat="41.959491027519107" lon="-3.41851101256907">
        <ele>1036.3</ele>
        <time>2018-05-27T06:02:29Z</time>
      </trkpt>
      <trkpt lat="41.959368987008929" lon="-3.418432977050543">
        <ele>1038.5999999999999</ele>
        <time>2018-05-27T06:02:33Z</time>
      </trkpt>
      <trkpt lat="41.959259016439319" lon="-3.418367011472583">
        <ele>1040.9000000000001</ele>
        <time>2018-05-27T06:02:37Z</time>
      </trkpt>
      <trkpt lat="41.959162037819624" lon="-3.418309008702636">
        <ele>1043</ele>
        <time>2018-05-27T06:02:40Z</time>
      </trkpt>
      <trkpt lat="41.95911300368607" lon="-3.418287970125675">
        <ele>1044.0999999999999</ele>
        <time>2018-05-27T06:02:42Z</time>
      </trkpt>
      <trkpt lat="41.959047960117459" lon="-3.418069034814835">
        <ele>1047.5999999999999</ele>
        <time>2018-05-27T06:02:47Z</time>
      </trkpt>
      <trkpt lat="41.958999009802938" lon="-3.417979013174772">
        <ele>1049.5999999999999</ele>
        <time>2018-05-27T06:02:49Z</time>
      </trkpt>
      <trkpt lat="41.958945030346513" lon="-3.417932996526361">
        <ele>1051.4000000000001</ele>
        <time>2018-05-27T06:02:51Z</time>
      </trkpt>
      <trkpt lat="41.958788959309459" lon="-3.417879017069936">
        <ele>1054.9000000000001</ele>
        <time>2018-05-27T06:02:56Z</time>
      </trkpt>
      <trkpt lat="41.958587961271405" lon="-3.417882034555078">
        <ele>1059</ele>
        <time>2018-05-27T06:03:02Z</time>
      </trkpt>
      <trkpt lat="41.958495005965233" lon="-3.417875999584794">
        <ele>1060.8</ele>
        <time>2018-05-27T06:03:05Z</time>
      </trkpt>
      <trkpt lat="41.958348993211985" lon="-3.417816990986466">
        <ele>1063.5999999999999</ele>
        <time>2018-05-27T06:03:10Z</time>
      </trkpt>
      <trkpt lat="41.958300964906812" lon="-3.41778296045959">
        <ele>1064.5999999999999</ele>
        <time>2018-05-27T06:03:11Z</time>
      </trkpt>
      <trkpt lat="41.958230976015329" lon="-3.417740967124701">
        <ele>1066.0999999999999</ele>
        <time>2018-05-27T06:03:14Z</time>
      </trkpt>
      <trkpt lat="41.958069037646055" lon="-3.417758988216519">
        <ele>1069.5</ele>
        <time>2018-05-27T06:03:18Z</time>
      </trkpt>
      <trkpt lat="41.957958983257413" lon="-3.41778002679348">
        <ele>1071.8</ele>
        <time>2018-05-27T06:03:22Z</time>
      </trkpt>
      <trkpt lat="41.957905003800988" lon="-3.417772985994816">
        <ele>1072.8</ele>
        <time>2018-05-27T06:03:23Z</time>
      </trkpt>
      <trkpt lat="41.957787992432714" lon="-3.41769402846694">
        <ele>1074.5999999999999</ele>
        <time>2018-05-27T06:03:27Z</time>
      </trkpt>
      <trkpt lat="41.957727978006005" lon="-3.417628984898329">
        <ele>1075.7</ele>
        <time>2018-05-27T06:03:30Z</time>
      </trkpt>
      <trkpt lat="41.957571990787983" lon="-3.41752496547997">
        <ele>1078.2</ele>
        <time>2018-05-27T06:03:35Z</time>
      </trkpt>
      <trkpt lat="41.957436958327889" lon="-3.417398985475302">
        <ele>1080.7</ele>
        <time>2018-05-27T06:03:40Z</time>
      </trkpt>
      <trkpt lat="41.957321958616376" lon="-3.417355986312032">
        <ele>1082.5999999999999</ele>
        <time>2018-05-27T06:03:43Z</time>
      </trkpt>
      <trkpt lat="41.957205031067133" lon="-3.417400997132063">
        <ele>1083.7</ele>
        <time>2018-05-27T06:03:47Z</time>
      </trkpt>
      <trkpt lat="41.957064969465137" lon="-3.417374007403851">
        <ele>1085.8</ele>
        <time>2018-05-27T06:03:51Z</time>
      </trkpt>
      <trkpt lat="41.956979976966977" lon="-3.417320027947426">
        <ele>1087.2</ele>
        <time>2018-05-27T06:03:54Z</time>
      </trkpt>
      <trkpt lat="41.956925997510552" lon="-3.417301001027226">
        <ele>1088</ele>
        <time>2018-05-27T06:03:56Z</time>
      </trkpt>
      <trkpt lat="41.956561971455812" lon="-3.417429998517036">
        <ele>1090.4000000000001</ele>
        <time>2018-05-27T06:04:07Z</time>
      </trkpt>
      <trkpt lat="41.956269023939967" lon="-3.417305024340749">
        <ele>1095.3</ele>
        <time>2018-05-27T06:04:16Z</time>
      </trkpt>
      <trkpt lat="41.955853030085564" lon="-3.417089022696018">
        <ele>1098</ele>
        <time>2018-05-27T06:04:29Z</time>
      </trkpt>
      <trkpt lat="41.955592017620802" lon="-3.416964970529079">
        <ele>1098.0999999999999</ele>
        <time>2018-05-27T06:04:37Z</time>
      </trkpt>
      <trkpt lat="41.95535003207624" lon="-3.416870003566146">
        <ele>1098.3</ele>
        <time>2018-05-27T06:04:45Z</time>
      </trkpt>
      <trkpt lat="41.955249030143023" lon="-3.416871009394527">
        <ele>1097.5999999999999</ele>
        <time>2018-05-27T06:04:48Z</time>
      </trkpt>
      <trkpt lat="41.954796994104981" lon="-3.416613014414907">
        <ele>1098.4000000000001</ele>
        <time>2018-05-27T06:05:02Z</time>
      </trkpt>
      <trkpt lat="41.954504968598485" lon="-3.416400030255318">
        <ele>1100.5</ele>
        <time>2018-05-27T06:05:12Z</time>
      </trkpt>
      <trkpt lat="41.954307993873954" lon="-3.416070034727454">
        <ele>1101.5999999999999</ele>
        <time>2018-05-27T06:05:22Z</time>
      </trkpt>
      <trkpt lat="41.954099033027887" lon="-3.415731992572546">
        <ele>1101.2</ele>
        <time>2018-05-27T06:05:31Z</time>
      </trkpt>
      <trkpt lat="41.953924018889666" lon="-3.415352962911129">
        <ele>1102.0999999999999</ele>
        <time>2018-05-27T06:05:41Z</time>
      </trkpt>
      <trkpt lat="41.953703993931413" lon="-3.414964964613318">
        <ele>1103.9000000000001</ele>
        <time>2018-05-27T06:05:52Z</time>
      </trkpt>
      <trkpt lat="41.953678010031581" lon="-3.414774024859071">
        <ele>1105.3</ele>
        <time>2018-05-27T06:05:56Z</time>
      </trkpt>
      <trkpt lat="41.953595029190183" lon="-3.414517035707831">
        <ele>1106.8</ele>
        <time>2018-05-27T06:06:02Z</time>
      </trkpt>
      <trkpt lat="41.953448010608554" lon="-3.414101041853428">
        <ele>1108.0999999999999</ele>
        <time>2018-05-27T06:06:13Z</time>
      </trkpt>
      <trkpt lat="41.953124972060323" lon="-3.413581028580666">
        <ele>1110.2</ele>
        <time>2018-05-27T06:06:27Z</time>
      </trkpt>
      <trkpt lat="41.95296797901392" lon="-3.413222031667829">
        <ele>1110.2</ele>
        <time>2018-05-27T06:06:37Z</time>
      </trkpt>
      <trkpt lat="41.952721970155835" lon="-3.412824980914593">
        <ele>1113.0999999999999</ele>
        <time>2018-05-27T06:06:48Z</time>
      </trkpt>
      <trkpt lat="41.952523989602923" lon="-3.41247595846653">
        <ele>1115.5999999999999</ele>
        <time>2018-05-27T06:06:58Z</time>
      </trkpt>
      <trkpt lat="41.952360961586237" lon="-3.412116039544344">
        <ele>1117.0999999999999</ele>
        <time>2018-05-27T06:07:07Z</time>
      </trkpt>
      <trkpt lat="41.952228024601936" lon="-3.411580016836524">
        <ele>1117.3</ele>
        <time>2018-05-27T06:07:20Z</time>
      </trkpt>
      <trkpt lat="41.952192988246679" lon="-3.411278016865253">
        <ele>1116.8</ele>
        <time>2018-05-27T06:07:26Z</time>
      </trkpt>
      <trkpt lat="41.952060973271728" lon="-3.411021027714014">
        <ele>1116.8</ele>
        <time>2018-05-27T06:07:33Z</time>
      </trkpt>
      <trkpt lat="41.951968017965555" lon="-3.411000994965434">
        <ele>1117.4000000000001</ele>
        <time>2018-05-27T06:07:36Z</time>
      </trkpt>
      <trkpt lat="41.951693007722497" lon="-3.410794967785478">
        <ele>1118</ele>
        <time>2018-05-27T06:07:45Z</time>
      </trkpt>
      <trkpt lat="41.951683033257723" lon="-3.410543007776141">
        <ele>1116.3</ele>
        <time>2018-05-27T06:07:51Z</time>
      </trkpt>
      <trkpt lat="41.951727960258722" lon="-3.410522975027561">
        <ele>1115.9000000000001</ele>
        <time>2018-05-27T06:07:52Z</time>
      </trkpt>
      <trkpt lat="41.951926024630666" lon="-3.410378973931074">
        <ele>1114.0999999999999</ele>
        <time>2018-05-27T06:07:59Z</time>
      </trkpt>
      <trkpt lat="41.951948991045356" lon="-3.409990975633264">
        <ele>1115.3</ele>
        <time>2018-05-27T06:08:07Z</time>
      </trkpt>
      <trkpt lat="41.951776994392276" lon="-3.409618986770511">
        <ele>1117.7</ele>
        <time>2018-05-27T06:08:17Z</time>
      </trkpt>
      <trkpt lat="41.951613966375589" lon="-3.409241968765855">
        <ele>1120.8</ele>
        <time>2018-05-27T06:08:27Z</time>
      </trkpt>
      <trkpt lat="41.951358988881111" lon="-3.408938962966204">
        <ele>1125.3</ele>
        <time>2018-05-27T06:08:37Z</time>
      </trkpt>
      <trkpt lat="41.951264021918178" lon="-3.408434959128499">
        <ele>1128.5999999999999</ele>
        <time>2018-05-27T06:08:48Z</time>
      </trkpt>
      <trkpt lat="41.951082972809672" lon="-3.407907988876104">
        <ele>1132</ele>
        <time>2018-05-27T06:09:01Z</time>
      </trkpt>
      <trkpt lat="41.951036034151912" lon="-3.407438015565276">
        <ele>1132.9000000000001</ele>
        <time>2018-05-27T06:09:12Z</time>
      </trkpt>
      <trkpt lat="41.9509900175035" lon="-3.406959995627403">
        <ele>1134</ele>
        <time>2018-05-27T06:09:22Z</time>
      </trkpt>
      <trkpt lat="41.951099988073111" lon="-3.406602004542947">
        <ele>1131.5999999999999</ele>
        <time>2018-05-27T06:09:31Z</time>
      </trkpt>
      <trkpt lat="41.951064029708505" lon="-3.406161032617092">
        <ele>1132.5999999999999</ele>
        <time>2018-05-27T06:09:41Z</time>
      </trkpt>
      <trkpt lat="41.951037961989641" lon="-3.405908988788724">
        <ele>1134</ele>
        <time>2018-05-27T06:09:46Z</time>
      </trkpt>
      <trkpt lat="41.951043996959925" lon="-3.405831037089229">
        <ele>1134.2</ele>
        <time>2018-05-27T06:09:48Z</time>
      </trkpt>
      <trkpt lat="41.950994962826371" lon="-3.405635990202427">
        <ele>1135.7</ele>
        <time>2018-05-27T06:09:53Z</time>
      </trkpt>
      <trkpt lat="41.950876023620367" lon="-3.405270958319306">
        <ele>1137</ele>
        <time>2018-05-27T06:10:01Z</time>
      </trkpt>
      <trkpt lat="41.950733028352261" lon="-3.404960995540023">
        <ele>1137.2</ele>
        <time>2018-05-27T06:10:09Z</time>
      </trkpt>
      <trkpt lat="41.950549967586994" lon="-3.404730996116996">
        <ele>1138.7</ele>
        <time>2018-05-27T06:10:17Z</time>
      </trkpt>
      <trkpt lat="41.950291972607374" lon="-3.404436958953738">
        <ele>1140.5</ele>
        <time>2018-05-27T06:10:27Z</time>
      </trkpt>
      <trkpt lat="41.950168004259467" lon="-3.404265968129039">
        <ele>1140.7</ele>
        <time>2018-05-27T06:10:32Z</time>
      </trkpt>
      <trkpt lat="41.95013296790421" lon="-3.404210982844234">
        <ele>1140.7</ele>
        <time>2018-05-27T06:10:34Z</time>
      </trkpt>
      <trkpt lat="41.950082005932927" lon="-3.404151974245906">
        <ele>1140.9000000000001</ele>
        <time>2018-05-27T06:10:36Z</time>
      </trkpt>
      <trkpt lat="41.950033977627754" lon="-3.404077962040901">
        <ele>1141</ele>
        <time>2018-05-27T06:10:38Z</time>
      </trkpt>
      <trkpt lat="41.949972035363317" lon="-3.404049966484308">
        <ele>1141.8</ele>
        <time>2018-05-27T06:10:40Z</time>
      </trkpt>
      <trkpt lat="41.949804984033108" lon="-3.403927003964782">
        <ele>1143.7</ele>
        <time>2018-05-27T06:10:45Z</time>
      </trkpt>
      <trkpt lat="41.949552018195391" lon="-3.403540011495352">
        <ele>1143</ele>
        <time>2018-05-27T06:10:57Z</time>
      </trkpt>
      <trkpt lat="41.94935797713697" lon="-3.40323599986732">
        <ele>1141</ele>
        <time>2018-05-27T06:11:06Z</time>
      </trkpt>
      <trkpt lat="41.949179023504257" lon="-3.403051011264324">
        <ele>1140.4000000000001</ele>
        <time>2018-05-27T06:11:12Z</time>
      </trkpt>
      <trkpt lat="41.949015995487571" lon="-3.402945986017585">
        <ele>1140.8</ele>
        <time>2018-05-27T06:11:18Z</time>
      </trkpt>
      <trkpt lat="41.948893032968044" lon="-3.402835009619594">
        <ele>1140.7</ele>
        <time>2018-05-27T06:11:22Z</time>
      </trkpt>
      <trkpt lat="41.948753977194428" lon="-3.402721015736461">
        <ele>1141.0999999999999</ele>
        <time>2018-05-27T06:11:27Z</time>
      </trkpt>
      <trkpt lat="41.948612993583083" lon="-3.402500990778208">
        <ele>1138.8</ele>
        <time>2018-05-27T06:11:33Z</time>
      </trkpt>
      <trkpt lat="41.948488019406796" lon="-3.402248024940491">
        <ele>1135.9000000000001</ele>
        <time>2018-05-27T06:11:40Z</time>
      </trkpt>
      <trkpt lat="41.948421970009804" lon="-3.40205498971045">
        <ele>1133.7</ele>
        <time>2018-05-27T06:11:45Z</time>
      </trkpt>
      <trkpt lat="41.948414007201791" lon="-3.40190595947206">
        <ele>1132.4000000000001</ele>
        <time>2018-05-27T06:11:48Z</time>
      </trkpt>
      <trkpt lat="41.948358016088605" lon="-3.40177402831614">
        <ele>1131.5999999999999</ele>
        <time>2018-05-27T06:11:51Z</time>
      </trkpt>
      <trkpt lat="41.948223989456892" lon="-3.401669003069401">
        <ele>1131.4000000000001</ele>
        <time>2018-05-27T06:11:56Z</time>
      </trkpt>
      <trkpt lat="41.948071019724011" lon="-3.401514021679759">
        <ele>1130.7</ele>
        <time>2018-05-27T06:12:02Z</time>
      </trkpt>
      <trkpt lat="41.947973035275936" lon="-3.401662968099117">
        <ele>1132.7</ele>
        <time>2018-05-27T06:12:06Z</time>
      </trkpt>
      <trkpt lat="41.947934981435537" lon="-3.401742009446025">
        <ele>1133.5999999999999</ele>
        <time>2018-05-27T06:12:08Z</time>
      </trkpt>
      <trkpt lat="41.947889970615506" lon="-3.401804035529494">
        <ele>1135.3</ele>
        <time>2018-05-27T06:12:10Z</time>
      </trkpt>
      <trkpt lat="41.947803972288966" lon="-3.401782996952534">
        <ele>1138.0999999999999</ele>
        <time>2018-05-27T06:12:13Z</time>
      </trkpt>
      <trkpt lat="41.947806989774108" lon="-3.401577975600958">
        <ele>1136</ele>
        <time>2018-05-27T06:12:17Z</time>
      </trkpt>
      <trkpt lat="41.947804978117347" lon="-3.401371026411653">
        <ele>1134.2</ele>
        <time>2018-05-27T06:12:22Z</time>
      </trkpt>
      <trkpt lat="41.947786035016179" lon="-3.40117396786809">
        <ele>1133.3</ele>
        <time>2018-05-27T06:12:26Z</time>
      </trkpt>
      <trkpt lat="41.947752004489303" lon="-3.40095603838563">
        <ele>1133.2</ele>
        <time>2018-05-27T06:12:31Z</time>
      </trkpt>
      <trkpt lat="41.94770397618413" lon="-3.400747999548912">
        <ele>1133.5999999999999</ele>
        <time>2018-05-27T06:12:36Z</time>
      </trkpt>
      <trkpt lat="41.947702970355749" lon="-3.40054901316762">
        <ele>1132.5</ele>
        <time>2018-05-27T06:12:41Z</time>
      </trkpt>
      <trkpt lat="41.947694001719356" lon="-3.400340974330902">
        <ele>1131</ele>
        <time>2018-05-27T06:12:45Z</time>
      </trkpt>
      <trkpt lat="41.947630969807506" lon="-3.39999002404511">
        <ele>1128.5999999999999</ele>
        <time>2018-05-27T06:12:53Z</time>
      </trkpt>
      <trkpt lat="41.94761898368597" lon="-3.39990402571857">
        <ele>1127.9000000000001</ele>
        <time>2018-05-27T06:12:55Z</time>
      </trkpt>
      <trkpt lat="41.947555029764771" lon="-3.399815009906888">
        <ele>1128.5</ele>
        <time>2018-05-27T06:12:58Z</time>
      </trkpt>
      <trkpt lat="41.947266021743417" lon="-3.399572018533945">
        <ele>1133</ele>
        <time>2018-05-27T06:13:08Z</time>
      </trkpt>
      <trkpt lat="41.947053037583828" lon="-3.399184020236135">
        <ele>1130.5</ele>
        <time>2018-05-27T06:13:19Z</time>
      </trkpt>
      <trkpt lat="41.946852961555123" lon="-3.398693008348346">
        <ele>1123</ele>
        <time>2018-05-27T06:13:31Z</time>
      </trkpt>
      <trkpt lat="41.94669496268034" lon="-3.398658977821469">
        <ele>1123.8</ele>
        <time>2018-05-27T06:13:36Z</time>
      </trkpt>
      <trkpt lat="41.946564959362149" lon="-3.398679010570049">
        <ele>1124.4000000000001</ele>
        <time>2018-05-27T06:13:40Z</time>
      </trkpt>
      <trkpt lat="41.946115018799901" lon="-3.398711029440165">
        <ele>1125</ele>
        <time>2018-05-27T06:13:53Z</time>
      </trkpt>
      <trkpt lat="41.945932041853666" lon="-3.398747993633151">
        <ele>1123.7</ele>
        <time>2018-05-27T06:13:59Z</time>
      </trkpt>
      <trkpt lat="41.945658959448338" lon="-3.398802978917956">
        <ele>1122.5</ele>
        <time>2018-05-27T06:14:07Z</time>
      </trkpt>
      <trkpt lat="41.945481011644006" lon="-3.398888977244496">
        <ele>1122.2</ele>
        <time>2018-05-27T06:14:12Z</time>
      </trkpt>
      <trkpt lat="41.945394007489085" lon="-3.398900041356683">
        <ele>1121.5999999999999</ele>
        <time>2018-05-27T06:14:15Z</time>
      </trkpt>
      <trkpt lat="41.945307003334165" lon="-3.398906998336315">
        <ele>1120.7</ele>
        <time>2018-05-27T06:14:18Z</time>
      </trkpt>
      <trkpt lat="41.945091001689434" lon="-3.398922001942992">
        <ele>1118.5</ele>
        <time>2018-05-27T06:14:24Z</time>
      </trkpt>
      <trkpt lat="41.945005003362894" lon="-3.39896097779274">
        <ele>1118.0999999999999</ele>
        <time>2018-05-27T06:14:27Z</time>
      </trkpt>
      <trkpt lat="41.944785984233022" lon="-3.399017974734306">
        <ele>1116.4000000000001</ele>
        <time>2018-05-27T06:14:33Z</time>
      </trkpt>
      <trkpt lat="41.944537963718176" lon="-3.398949997499585">
        <ele>1113.7</ele>
        <time>2018-05-27T06:14:41Z</time>
      </trkpt>
      <trkpt lat="41.944405026733875" lon="-3.39885301887989">
        <ele>1113.5999999999999</ele>
        <time>2018-05-27T06:14:45Z</time>
      </trkpt>
      <trkpt lat="41.944101015105844" lon="-3.398754028603435">
        <ele>1115.0999999999999</ele>
        <time>2018-05-27T06:14:55Z</time>
      </trkpt>
      <trkpt lat="41.944009987637401" lon="-3.398768026381731">
        <ele>1115.9000000000001</ele>
        <time>2018-05-27T06:14:57Z</time>
      </trkpt>
      <trkpt lat="41.943058976903558" lon="-3.39902400970459">
        <ele>1118.2</ele>
        <time>2018-05-27T06:15:26Z</time>
      </trkpt>
      <trkpt lat="41.942766029387712" lon="-3.399075977504253">
        <ele>1119.3</ele>
        <time>2018-05-27T06:15:35Z</time>
      </trkpt>
      <trkpt lat="41.942380964756012" lon="-3.399173961952329">
        <ele>1122.4000000000001</ele>
        <time>2018-05-27T06:15:46Z</time>
      </trkpt>
      <trkpt lat="41.942187007516623" lon="-3.39921603910625">
        <ele>1123.7</ele>
        <time>2018-05-27T06:15:52Z</time>
      </trkpt>
      <trkpt lat="41.941632963716984" lon="-3.399385018274188">
        <ele>1128.5999999999999</ele>
        <time>2018-05-27T06:16:09Z</time>
      </trkpt>
      <trkpt lat="41.941304979845881" lon="-3.399578975513578">
        <ele>1131.5</ele>
        <time>2018-05-27T06:16:20Z</time>
      </trkpt>
      <trkpt lat="41.941238008439541" lon="-3.399632032960653">
        <ele>1131.9000000000001</ele>
        <time>2018-05-27T06:16:22Z</time>
      </trkpt>
      <trkpt lat="41.941004991531372" lon="-3.399858009070158">
        <ele>1133.3</ele>
        <time>2018-05-27T06:16:31Z</time>
      </trkpt>
      <trkpt lat="41.940782032907009" lon="-3.400164032354951">
        <ele>1134</ele>
        <time>2018-05-27T06:16:40Z</time>
      </trkpt>
      <trkpt lat="41.940391017124057" lon="-3.400623025372624">
        <ele>1136.3</ele>
        <time>2018-05-27T06:16:55Z</time>
      </trkpt>
      <trkpt lat="41.94029001519084" lon="-3.400569967925549">
        <ele>1137.4000000000001</ele>
        <time>2018-05-27T06:16:59Z</time>
      </trkpt>
      <trkpt lat="41.940456982702017" lon="-3.400035034865141">
        <ele>1137.5</ele>
        <time>2018-05-27T06:17:11Z</time>
      </trkpt>
      <trkpt lat="41.940464023500681" lon="-3.399955993518233">
        <ele>1137.8</ele>
        <time>2018-05-27T06:17:13Z</time>
      </trkpt>
      <trkpt lat="41.940406020730734" lon="-3.399285022169352">
        <ele>1140.0999999999999</ele>
        <time>2018-05-27T06:17:28Z</time>
      </trkpt>
      <trkpt lat="41.940296972170472" lon="-3.398656966164708">
        <ele>1141</ele>
        <time>2018-05-27T06:17:42Z</time>
      </trkpt>
      <trkpt lat="41.940147019922733" lon="-3.39799202978611">
        <ele>1140.5</ele>
        <time>2018-05-27T06:17:58Z</time>
      </trkpt>
      <trkpt lat="41.940007964149117" lon="-3.397351987659931">
        <ele>1139.9000000000001</ele>
        <time>2018-05-27T06:18:12Z</time>
      </trkpt>
      <trkpt lat="41.939877960830927" lon="-3.396785035729408">
        <ele>1137.5</ele>
        <time>2018-05-27T06:18:25Z</time>
      </trkpt>
      <trkpt lat="41.939750974997878" lon="-3.396290000528097">
        <ele>1133.5999999999999</ele>
        <time>2018-05-27T06:18:37Z</time>
      </trkpt>
      <trkpt lat="41.939592976123095" lon="-3.395506963133812">
        <ele>1131.3</ele>
        <time>2018-05-27T06:18:55Z</time>
      </trkpt>
      <trkpt lat="41.939416034147143" lon="-3.394773965701461">
        <ele>1135.4000000000001</ele>
        <time>2018-05-27T06:19:12Z</time>
      </trkpt>
      <trkpt lat="41.939188968390226" lon="-3.394057983532548">
        <ele>1134.5999999999999</ele>
        <time>2018-05-27T06:19:29Z</time>
      </trkpt>
      <trkpt lat="41.939168013632298" lon="-3.393967039883137">
        <ele>1134.3</ele>
        <time>2018-05-27T06:19:31Z</time>
      </trkpt>
      <trkpt lat="41.939039016142488" lon="-3.393608964979649">
        <ele>1134.8</ele>
        <time>2018-05-27T06:19:40Z</time>
      </trkpt>
      <trkpt lat="41.938767023384571" lon="-3.392970012500882">
        <ele>1138.8</ele>
        <time>2018-05-27T06:19:56Z</time>
      </trkpt>
      <trkpt lat="41.938275005668402" lon="-3.391958987340331">
        <ele>1137.5</ele>
        <time>2018-05-27T06:20:23Z</time>
      </trkpt>
      <trkpt lat="41.937941992655396" lon="-3.391176033765078">
        <ele>1137.5999999999999</ele>
        <time>2018-05-27T06:20:43Z</time>
      </trkpt>
      <trkpt lat="41.937677962705493" lon="-3.39064403437078">
        <ele>1136</ele>
        <time>2018-05-27T06:20:57Z</time>
      </trkpt>
      <trkpt lat="41.937316032126546" lon="-3.39012997224927">
        <ele>1132</ele>
        <time>2018-05-27T06:21:12Z</time>
      </trkpt>
      <trkpt lat="41.936814961954951" lon="-3.389638038352132">
        <ele>1128.5999999999999</ele>
        <time>2018-05-27T06:21:31Z</time>
      </trkpt>
      <trkpt lat="41.936496030539274" lon="-3.389283986762166">
        <ele>1129.5</ele>
        <time>2018-05-27T06:21:43Z</time>
      </trkpt>
      <trkpt lat="41.936010969802737" lon="-3.38866800069809">
        <ele>1130</ele>
        <time>2018-05-27T06:22:03Z</time>
      </trkpt>
      <trkpt lat="41.935470001772046" lon="-3.388034999370575">
        <ele>1129.2</ele>
        <time>2018-05-27T06:22:24Z</time>
      </trkpt>
      <trkpt lat="41.934943031519651" lon="-3.387340977787972">
        <ele>1130</ele>
        <time>2018-05-27T06:22:46Z</time>
      </trkpt>
      <trkpt lat="41.93487698212266" lon="-3.387179961428046">
        <ele>1130.2</ele>
        <time>2018-05-27T06:22:50Z</time>
      </trkpt>
      <trkpt lat="41.934512034058571" lon="-3.386234985664487">
        <ele>1131.2</ele>
        <time>2018-05-27T06:23:13Z</time>
      </trkpt>
      <trkpt lat="41.933921026065946" lon="-3.385502994060516">
        <ele>1133</ele>
        <time>2018-05-27T06:23:37Z</time>
      </trkpt>
      <trkpt lat="41.933420039713383" lon="-3.38482397608459">
        <ele>1133.0999999999999</ele>
        <time>2018-05-27T06:23:58Z</time>
      </trkpt>
      <trkpt lat="41.933300010859966" lon="-3.384659020230174">
        <ele>1132.9000000000001</ele>
        <time>2018-05-27T06:24:03Z</time>
      </trkpt>
      <trkpt lat="41.932868007570505" lon="-3.384000035002828">
        <ele>1134.2</ele>
        <time>2018-05-27T06:24:23Z</time>
      </trkpt>
      <trkpt lat="41.932710008695722" lon="-3.383686970919371">
        <ele>1135.5999999999999</ele>
        <time>2018-05-27T06:24:31Z</time>
      </trkpt>
      <trkpt lat="41.932357968762517" lon="-3.382734032347798">
        <ele>1135.8</ele>
        <time>2018-05-27T06:24:54Z</time>
      </trkpt>
      <trkpt lat="41.932156970724463" lon="-3.381829960271716">
        <ele>1132.3</ele>
        <time>2018-05-27T06:25:15Z</time>
      </trkpt>
      <trkpt lat="41.932129980996251" lon="-3.381673973053694">
        <ele>1132</ele>
        <time>2018-05-27T06:25:19Z</time>
      </trkpt>
      <trkpt lat="41.932034008204937" lon="-3.381120013073087">
        <ele>1131.0999999999999</ele>
        <time>2018-05-27T06:25:31Z</time>
      </trkpt>
      <trkpt lat="41.93195597268641" lon="-3.380494974553585">
        <ele>1131.5999999999999</ele>
        <time>2018-05-27T06:25:45Z</time>
      </trkpt>
      <trkpt lat="41.931778024882078" lon="-3.380003962665796">
        <ele>1129.0999999999999</ele>
        <time>2018-05-27T06:25:57Z</time>
      </trkpt>
      <trkpt lat="41.931594964116812" lon="-3.379588974639773">
        <ele>1126</ele>
        <time>2018-05-27T06:26:08Z</time>
      </trkpt>
      <trkpt lat="41.931455992162228" lon="-3.379229977726936">
        <ele>1123.8</ele>
        <time>2018-05-27T06:26:17Z</time>
      </trkpt>
      <trkpt lat="41.931306961923838" lon="-3.378817001357675">
        <ele>1121.2</ele>
        <time>2018-05-27T06:26:27Z</time>
      </trkpt>
      <trkpt lat="41.931148041039705" lon="-3.378404024988413">
        <ele>1121.7</ele>
        <time>2018-05-27T06:26:37Z</time>
      </trkpt>
      <trkpt lat="41.930996999144554" lon="-3.377967998385429">
        <ele>1122.2</ele>
        <time>2018-05-27T06:26:48Z</time>
      </trkpt>
      <trkpt lat="41.930847968906164" lon="-3.377580000087619">
        <ele>1121.2</ele>
        <time>2018-05-27T06:26:58Z</time>
      </trkpt>
      <trkpt lat="41.930682007223368" lon="-3.377182027325034">
        <ele>1120.2</ele>
        <time>2018-05-27T06:27:08Z</time>
      </trkpt>
      <trkpt lat="41.930500958114862" lon="-3.376882039010525">
        <ele>1118.4000000000001</ele>
        <time>2018-05-27T06:27:16Z</time>
      </trkpt>
      <trkpt lat="41.930327033624053" lon="-3.376647010445595">
        <ele>1117.2</ele>
        <time>2018-05-27T06:27:23Z</time>
      </trkpt>
      <trkpt lat="41.930152019485831" lon="-3.376330006867647">
        <ele>1115.5</ele>
        <time>2018-05-27T06:27:32Z</time>
      </trkpt>
      <trkpt lat="41.93004397675395" lon="-3.376009985804558">
        <ele>1113.5999999999999</ele>
        <time>2018-05-27T06:27:40Z</time>
      </trkpt>
      <trkpt lat="41.929927971214056" lon="-3.375635985285044">
        <ele>1111.5999999999999</ele>
        <time>2018-05-27T06:27:49Z</time>
      </trkpt>
      <trkpt lat="41.929781036451459" lon="-3.37534898892045">
        <ele>1109.5999999999999</ele>
        <time>2018-05-27T06:27:57Z</time>
      </trkpt>
      <trkpt lat="41.929647009819746" lon="-3.375108009204269">
        <ele>1107.0999999999999</ele>
        <time>2018-05-27T06:28:03Z</time>
      </trkpt>
      <trkpt lat="41.929489010944963" lon="-3.374805003404617">
        <ele>1104.5999999999999</ele>
        <time>2018-05-27T06:28:11Z</time>
      </trkpt>
      <trkpt lat="41.929389014840126" lon="-3.374560000374913">
        <ele>1103</ele>
        <time>2018-05-27T06:28:18Z</time>
      </trkpt>
      <trkpt lat="41.929231015965343" lon="-3.374191028997302">
        <ele>1100.9000000000001</ele>
        <time>2018-05-27T06:28:27Z</time>
      </trkpt>
      <trkpt lat="41.929123979061842" lon="-3.373819040134549">
        <ele>1099</ele>
        <time>2018-05-27T06:28:36Z</time>
      </trkpt>
      <trkpt lat="41.928987018764019" lon="-3.373439004644752">
        <ele>1097.5</ele>
        <time>2018-05-27T06:28:45Z</time>
      </trkpt>
      <trkpt lat="41.928764982149005" lon="-3.373042959719896">
        <ele>1095.4000000000001</ele>
        <time>2018-05-27T06:28:56Z</time>
      </trkpt>
      <trkpt lat="41.92856096662581" lon="-3.372713970020413">
        <ele>1096.0999999999999</ele>
        <time>2018-05-27T06:29:06Z</time>
      </trkpt>
      <trkpt lat="41.928342031314969" lon="-3.372339969500899">
        <ele>1096</ele>
        <time>2018-05-27T06:29:16Z</time>
      </trkpt>
      <trkpt lat="41.928162993863225" lon="-3.372033024206758">
        <ele>1095.3</ele>
        <time>2018-05-27T06:29:25Z</time>
      </trkpt>
      <trkpt lat="41.928032990545034" lon="-3.371651982888579">
        <ele>1093.7</ele>
        <time>2018-05-27T06:29:34Z</time>
      </trkpt>
      <trkpt lat="41.927869962528348" lon="-3.371255015954375">
        <ele>1091.5</ele>
        <time>2018-05-27T06:29:44Z</time>
      </trkpt>
      <trkpt lat="41.927766026929021" lon="-3.37079300545156">
        <ele>1090.5999999999999</ele>
        <time>2018-05-27T06:29:54Z</time>
      </trkpt>
      <trkpt lat="41.927687991410494" lon="-3.370503997430205">
        <ele>1090</ele>
        <time>2018-05-27T06:30:01Z</time>
      </trkpt>
      <trkpt lat="41.927625965327024" lon="-3.370444988831878">
        <ele>1090.2</ele>
        <time>2018-05-27T06:30:04Z</time>
      </trkpt>
      <trkpt lat="41.927189016714692" lon="-3.370207026600838">
        <ele>1092.0999999999999</ele>
        <time>2018-05-27T06:30:18Z</time>
      </trkpt>
      <trkpt lat="41.927063958719373" lon="-3.370107030496001">
        <ele>1092.4000000000001</ele>
        <time>2018-05-27T06:30:22Z</time>
      </trkpt>
      <trkpt lat="41.926877964287996" lon="-3.369893040508032">
        <ele>1093.7</ele>
        <time>2018-05-27T06:30:29Z</time>
      </trkpt>
      <trkpt lat="41.926655005663633" lon="-3.369312006980181">
        <ele>1094.2</ele>
        <time>2018-05-27T06:30:43Z</time>
      </trkpt>
      <trkpt lat="41.926641007885337" lon="-3.368662996217609">
        <ele>1093.3</ele>
        <time>2018-05-27T06:30:58Z</time>
      </trkpt>
      <trkpt lat="41.926624998450279" lon="-3.367826985195279">
        <ele>1091.8</ele>
        <time>2018-05-27T06:31:16Z</time>
      </trkpt>
      <trkpt lat="41.926632961258292" lon="-3.366890978068113">
        <ele>1089.0999999999999</ele>
        <time>2018-05-27T06:31:37Z</time>
      </trkpt>
      <trkpt lat="41.926633967086673" lon="-3.366824006661773">
        <ele>1089</ele>
        <time>2018-05-27T06:31:38Z</time>
      </trkpt>
      <trkpt lat="41.92662600427866" lon="-3.366248002275825">
        <ele>1088.5</ele>
        <time>2018-05-27T06:31:51Z</time>
      </trkpt>
      <trkpt lat="41.926552997902036" lon="-3.365449961274862">
        <ele>1090.5999999999999</ele>
        <time>2018-05-27T06:32:09Z</time>
      </trkpt>
      <trkpt lat="41.926496000960469" lon="-3.365353988483548">
        <ele>1092</ele>
        <time>2018-05-27T06:32:12Z</time>
      </trkpt>
      <trkpt lat="41.926404973492026" lon="-3.365225996822119">
        <ele>1093.9000000000001</ele>
        <time>2018-05-27T06:32:15Z</time>
      </trkpt>
      <trkpt lat="41.926277987658978" lon="-3.365063974633813">
        <ele>1095.9000000000001</ele>
        <time>2018-05-27T06:32:21Z</time>
      </trkpt>
      <trkpt lat="41.926190983504057" lon="-3.364929025992751">
        <ele>1095.8</ele>
        <time>2018-05-27T06:32:25Z</time>
      </trkpt>
      <trkpt lat="41.92615301348269" lon="-3.364483024924994">
        <ele>1093.9000000000001</ele>
        <time>2018-05-27T06:32:34Z</time>
      </trkpt>
      <trkpt lat="41.926201041787863" lon="-3.364382022991777">
        <ele>1093.5</ele>
        <time>2018-05-27T06:32:37Z</time>
      </trkpt>
      <trkpt lat="41.926564984023571" lon="-3.363821022212505">
        <ele>1089.9000000000001</ele>
        <time>2018-05-27T06:32:54Z</time>
      </trkpt>
      <trkpt lat="41.926603959873319" lon="-3.363752961158752">
        <ele>1089.5999999999999</ele>
        <time>2018-05-27T06:32:55Z</time>
      </trkpt>
      <trkpt lat="41.926720971241593" lon="-3.363416008651257">
        <ele>1090.3</ele>
        <time>2018-05-27T06:33:04Z</time>
      </trkpt>
      <trkpt lat="41.926483009010553" lon="-3.3635070361197">
        <ele>1092</ele>
        <time>2018-05-27T06:33:11Z</time>
      </trkpt>
      <trkpt lat="41.926238005980849" lon="-3.363676015287638">
        <ele>1093.5</ele>
        <time>2018-05-27T06:33:19Z</time>
      </trkpt>
      <trkpt lat="41.926055029034615" lon="-3.36372203193605">
        <ele>1095.2</ele>
        <time>2018-05-27T06:33:25Z</time>
      </trkpt>
      <trkpt lat="41.92568002268672" lon="-3.363600997254252">
        <ele>1099.3</ele>
        <time>2018-05-27T06:33:36Z</time>
      </trkpt>
      <trkpt lat="41.925545996055007" lon="-3.363365968689323">
        <ele>1100.5</ele>
        <time>2018-05-27T06:33:43Z</time>
      </trkpt>
      <trkpt lat="41.925540966913104" lon="-3.363240994513035">
        <ele>1100.5</ele>
        <time>2018-05-27T06:33:45Z</time>
      </trkpt>
      <trkpt lat="41.925305016338825" lon="-3.362986017018557">
        <ele>1100.9000000000001</ele>
        <time>2018-05-27T06:33:54Z</time>
      </trkpt>
      <trkpt lat="41.925177024677396" lon="-3.362731039524078">
        <ele>1100</ele>
        <time>2018-05-27T06:34:01Z</time>
      </trkpt>
      <trkpt lat="41.925113992765546" lon="-3.36232703179121">
        <ele>1098.3</ele>
        <time>2018-05-27T06:34:10Z</time>
      </trkpt>
      <trkpt lat="41.925135031342506" lon="-3.361814981326461">
        <ele>1096.5</ele>
        <time>2018-05-27T06:34:22Z</time>
      </trkpt>
      <trkpt lat="41.925150034949183" lon="-3.361216010525823">
        <ele>1094.5</ele>
        <time>2018-05-27T06:34:35Z</time>
      </trkpt>
      <trkpt lat="41.924989018589258" lon="-3.360817031934857">
        <ele>1092.9000000000001</ele>
        <time>2018-05-27T06:34:45Z</time>
      </trkpt>
      <trkpt lat="41.924676960334182" lon="-3.360714018344879">
        <ele>1092.7</ele>
        <time>2018-05-27T06:34:54Z</time>
      </trkpt>
      <trkpt lat="41.924185026437044" lon="-3.360631037503481">
        <ele>1093.5999999999999</ele>
        <time>2018-05-27T06:35:09Z</time>
      </trkpt>
      <trkpt lat="41.923694014549255" lon="-3.360525006428361">
        <ele>1096.5</ele>
        <time>2018-05-27T06:35:24Z</time>
      </trkpt>
      <trkpt lat="41.923506008461118" lon="-3.360410006716847">
        <ele>1102.5999999999999</ele>
        <time>2018-05-27T06:35:30Z</time>
      </trkpt>
      <trkpt lat="41.923495028167963" lon="-3.360305987298489">
        <ele>1102.9000000000001</ele>
        <time>2018-05-27T06:35:32Z</time>
      </trkpt>
      <trkpt lat="41.92348899319768" lon="-3.360103983432055">
        <ele>1102.9000000000001</ele>
        <time>2018-05-27T06:35:37Z</time>
      </trkpt>
      <trkpt lat="41.923515982925892" lon="-3.35987800732255">
        <ele>1101.7</ele>
        <time>2018-05-27T06:35:42Z</time>
      </trkpt>
      <trkpt lat="41.923702983185649" lon="-3.359371991828084">
        <ele>1095.5</ele>
        <time>2018-05-27T06:35:55Z</time>
      </trkpt>
      <trkpt lat="41.923782024532557" lon="-3.358807973563671">
        <ele>1095.5999999999999</ele>
        <time>2018-05-27T06:36:07Z</time>
      </trkpt>
      <trkpt lat="41.923860982060432" lon="-3.358180001378059">
        <ele>1095.7</ele>
        <time>2018-05-27T06:36:21Z</time>
      </trkpt>
      <trkpt lat="41.923884032294154" lon="-3.357560997828841">
        <ele>1096.5999999999999</ele>
        <time>2018-05-27T06:36:35Z</time>
      </trkpt>
      <trkpt lat="41.923866011202335" lon="-3.357308031991124">
        <ele>1097.5999999999999</ele>
        <time>2018-05-27T06:36:40Z</time>
      </trkpt>
      <trkpt lat="41.923756040632725" lon="-3.356882985681295">
        <ele>1100.0999999999999</ele>
        <time>2018-05-27T06:36:50Z</time>
      </trkpt>
      <trkpt lat="41.923795016482472" lon="-3.356346040964127">
        <ele>1100.0999999999999</ele>
        <time>2018-05-27T06:37:02Z</time>
      </trkpt>
      <trkpt lat="41.923845978453755" lon="-3.356052003800869">
        <ele>1099.7</ele>
        <time>2018-05-27T06:37:09Z</time>
      </trkpt>
      <trkpt lat="41.923836003988981" lon="-3.355730976909399">
        <ele>1100.3</ele>
        <time>2018-05-27T06:37:16Z</time>
      </trkpt>
      <trkpt lat="41.923791998997331" lon="-3.355541964992881">
        <ele>1101.2</ele>
        <time>2018-05-27T06:37:20Z</time>
      </trkpt>
      <trkpt lat="41.923602987080812" lon="-3.354846015572548">
        <ele>1103.8</ele>
        <time>2018-05-27T06:37:37Z</time>
      </trkpt>
      <trkpt lat="41.923438031226397" lon="-3.354439996182919">
        <ele>1106.0999999999999</ele>
        <time>2018-05-27T06:37:47Z</time>
      </trkpt>
      <trkpt lat="41.923369970172644" lon="-3.354176972061396">
        <ele>1107.7</ele>
        <time>2018-05-27T06:37:53Z</time>
      </trkpt>
      <trkpt lat="41.923343986272812" lon="-3.354041017591953">
        <ele>1108.4000000000001</ele>
        <time>2018-05-27T06:37:56Z</time>
      </trkpt>
      <trkpt lat="41.923272991552949" lon="-3.353385971859098">
        <ele>1109.8</ele>
        <time>2018-05-27T06:38:11Z</time>
      </trkpt>
      <trkpt lat="41.923393020406365" lon="-3.35321799851954">
        <ele>1107.2</ele>
        <time>2018-05-27T06:38:16Z</time>
      </trkpt>
      <trkpt lat="41.92342696711421" lon="-3.353167036548257">
        <ele>1106.4000000000001</ele>
        <time>2018-05-27T06:38:18Z</time>
      </trkpt>
      <trkpt lat="41.923427972942591" lon="-3.352938964962959">
        <ele>1106.2</ele>
        <time>2018-05-27T06:38:23Z</time>
      </trkpt>
      <trkpt lat="41.923397965729237" lon="-3.352806027978659">
        <ele>1107.2</ele>
        <time>2018-05-27T06:38:26Z</time>
      </trkpt>
      <trkpt lat="41.923353960737586" lon="-3.352405037730932">
        <ele>1109.5</ele>
        <time>2018-05-27T06:38:35Z</time>
      </trkpt>
      <trkpt lat="41.923307022079825" lon="-3.352156011387706">
        <ele>1111.2</ele>
        <time>2018-05-27T06:38:40Z</time>
      </trkpt>
      <trkpt lat="41.923278020694852" lon="-3.351988038048148">
        <ele>1112.3</ele>
        <time>2018-05-27T06:38:44Z</time>
      </trkpt>
      <trkpt lat="41.923237033188343" lon="-3.351752003654838">
        <ele>1113.8</ele>
        <time>2018-05-27T06:38:49Z</time>
      </trkpt>
      <trkpt lat="41.923224963247776" lon="-3.351590987294912">
        <ele>1114.5</ele>
        <time>2018-05-27T06:38:53Z</time>
      </trkpt>
      <trkpt lat="41.92316603846848" lon="-3.351101987063885">
        <ele>1117.0999999999999</ele>
        <time>2018-05-27T06:39:04Z</time>
      </trkpt>
      <trkpt lat="41.923148017376661" lon="-3.3510269690305">
        <ele>1117.5999999999999</ele>
        <time>2018-05-27T06:39:06Z</time>
      </trkpt>
      <trkpt lat="41.923106024041772" lon="-3.350848015397787">
        <ele>1118.8</ele>
        <time>2018-05-27T06:39:10Z</time>
      </trkpt>
      <trkpt lat="41.923072999343276" lon="-3.350476026535034">
        <ele>1120.8</ele>
        <time>2018-05-27T06:39:18Z</time>
      </trkpt>
      <trkpt lat="41.923062019050121" lon="-3.350248038768768">
        <ele>1122.4000000000001</ele>
        <time>2018-05-27T06:39:23Z</time>
      </trkpt>
      <trkpt lat="41.923069981858134" lon="-3.350001024082303">
        <ele>1124.2</ele>
        <time>2018-05-27T06:39:29Z</time>
      </trkpt>
      <trkpt lat="41.923067970201373" lon="-3.349847970530391">
        <ele>1125.3</ele>
        <time>2018-05-27T06:39:32Z</time>
      </trkpt>
      <trkpt lat="41.923047015443444" lon="-3.349711010232568">
        <ele>1126.4000000000001</ele>
        <time>2018-05-27T06:39:35Z</time>
      </trkpt>
      <trkpt lat="41.923008039593697" lon="-3.349515041336417">
        <ele>1128.3</ele>
        <time>2018-05-27T06:39:40Z</time>
      </trkpt>
      <trkpt lat="41.922962022945285" lon="-3.349299961701036">
        <ele>1131.0999999999999</ele>
        <time>2018-05-27T06:39:45Z</time>
      </trkpt>
      <trkpt lat="41.922941990196705" lon="-3.349147997796536">
        <ele>1133</ele>
        <time>2018-05-27T06:39:48Z</time>
      </trkpt>
      <trkpt lat="41.922918017953634" lon="-3.348821019753814">
        <ele>1137.0999999999999</ele>
        <time>2018-05-27T06:39:55Z</time>
      </trkpt>
      <trkpt lat="41.922732023522258" lon="-3.348207967355847">
        <ele>1138.8</ele>
        <time>2018-05-27T06:40:10Z</time>
      </trkpt>
      <trkpt lat="41.922545023262501" lon="-3.347843019291759">
        <ele>1138.8</ele>
        <time>2018-05-27T06:40:20Z</time>
      </trkpt>
      <trkpt lat="41.922471011057496" lon="-3.347617965191603">
        <ele>1139.5</ele>
        <time>2018-05-27T06:40:25Z</time>
      </trkpt>
      <trkpt lat="41.922427006065845" lon="-3.3474609721452">
        <ele>1140</ele>
        <time>2018-05-27T06:40:29Z</time>
      </trkpt>
      <trkpt lat="41.922404039651155" lon="-3.347302973270416">
        <ele>1140.4000000000001</ele>
        <time>2018-05-27T06:40:32Z</time>
      </trkpt>
      <trkpt lat="41.922456007450819" lon="-3.346725963056088">
        <ele>1141.9000000000001</ele>
        <time>2018-05-27T06:40:45Z</time>
      </trkpt>
      <trkpt lat="41.922835037112236" lon="-3.345988020300865">
        <ele>1142.7</ele>
        <time>2018-05-27T06:41:05Z</time>
      </trkpt>
      <trkpt lat="41.922902008518577" lon="-3.345909984782338">
        <ele>1142.8</ele>
        <time>2018-05-27T06:41:08Z</time>
      </trkpt>
      <trkpt lat="41.923069981858134" lon="-3.345661964267492">
        <ele>1143.8</ele>
        <time>2018-05-27T06:41:15Z</time>
      </trkpt>
      <trkpt lat="41.923190010711551" lon="-3.345442023128271">
        <ele>1144.5999999999999</ele>
        <time>2018-05-27T06:41:21Z</time>
      </trkpt>
      <trkpt lat="41.923240972682834" lon="-3.345335992053151">
        <ele>1144.9000000000001</ele>
        <time>2018-05-27T06:41:24Z</time>
      </trkpt>
      <trkpt lat="41.923305010423064" lon="-3.345243036746979">
        <ele>1145.2</ele>
        <time>2018-05-27T06:41:27Z</time>
      </trkpt>
      <trkpt lat="41.923393020406365" lon="-3.345171958208084">
        <ele>1145.5999999999999</ele>
        <time>2018-05-27T06:41:30Z</time>
      </trkpt>
      <trkpt lat="41.923540960997343" lon="-3.345177993178368">
        <ele>1146</ele>
        <time>2018-05-27T06:41:34Z</time>
      </trkpt>
      <trkpt lat="41.923926025629044" lon="-3.345584012567997">
        <ele>1146.3</ele>
        <time>2018-05-27T06:41:49Z</time>
      </trkpt>
      <trkpt lat="41.924046976491809" lon="-3.345712004229426">
        <ele>1146.5</ele>
        <time>2018-05-27T06:41:53Z</time>
      </trkpt>
      <trkpt lat="41.924347970634699" lon="-3.34580403752625">
        <ele>1147</ele>
        <time>2018-05-27T06:42:02Z</time>
      </trkpt>
      <trkpt lat="41.924448972567916" lon="-3.345401035621762">
        <ele>1148.5999999999999</ele>
        <time>2018-05-27T06:42:12Z</time>
      </trkpt>
      <trkpt lat="41.924437992274761" lon="-3.345271032303572">
        <ele>1149.4000000000001</ele>
        <time>2018-05-27T06:42:15Z</time>
      </trkpt>
      <trkpt lat="41.924407985061407" lon="-3.344965009018779">
        <ele>1151.2</ele>
        <time>2018-05-27T06:42:21Z</time>
      </trkpt>
      <trkpt lat="41.924404967576265" lon="-3.344846991822124">
        <ele>1151.9000000000001</ele>
        <time>2018-05-27T06:42:24Z</time>
      </trkpt>
      <trkpt lat="41.924382001161575" lon="-3.344566030427814">
        <ele>1153.4000000000001</ele>
        <time>2018-05-27T06:42:30Z</time>
      </trkpt>
      <trkpt lat="41.924361968412995" lon="-3.344424040988088">
        <ele>1154.0999999999999</ele>
        <time>2018-05-27T06:42:33Z</time>
      </trkpt>
      <trkpt lat="41.924250992015004" lon="-3.343920037150383">
        <ele>1156.3</ele>
        <time>2018-05-27T06:42:45Z</time>
      </trkpt>
      <trkpt lat="41.924276975914836" lon="-3.343490967527032">
        <ele>1157</ele>
        <time>2018-05-27T06:42:54Z</time>
      </trkpt>
      <trkpt lat="41.924299020320177" lon="-3.343052007257938">
        <ele>1156.2</ele>
        <time>2018-05-27T06:43:04Z</time>
      </trkpt>
      <trkpt lat="41.92430698312819" lon="-3.342915968969464">
        <ele>1156</ele>
        <time>2018-05-27T06:43:07Z</time>
      </trkpt>
      <trkpt lat="41.924331961199641" lon="-3.342353040352464">
        <ele>1154.5</ele>
        <time>2018-05-27T06:43:20Z</time>
      </trkpt>
      <trkpt lat="41.924318969249725" lon="-3.341927994042635">
        <ele>1153.5</ele>
        <time>2018-05-27T06:43:29Z</time>
      </trkpt>
      <trkpt lat="41.924282005056739" lon="-3.341341009363532">
        <ele>1152.9000000000001</ele>
        <time>2018-05-27T06:43:42Z</time>
      </trkpt>
      <trkpt lat="41.924235988408327" lon="-3.340742038562894">
        <ele>1154.2</ele>
        <time>2018-05-27T06:43:55Z</time>
      </trkpt>
      <trkpt lat="41.924213021993637" lon="-3.340250020846725">
        <ele>1155.2</ele>
        <time>2018-05-27T06:44:06Z</time>
      </trkpt>
      <trkpt lat="41.924243029206991" lon="-3.339643003419042">
        <ele>1155.5999999999999</ele>
        <time>2018-05-27T06:44:20Z</time>
      </trkpt>
      <trkpt lat="41.924149990081787" lon="-3.339106980711222">
        <ele>1154.9000000000001</ele>
        <time>2018-05-27T06:44:32Z</time>
      </trkpt>
      <trkpt lat="41.924044964835048" lon="-3.338467022404075">
        <ele>1154.0999999999999</ele>
        <time>2018-05-27T06:44:46Z</time>
      </trkpt>
      <trkpt lat="41.923812031745911" lon="-3.33781398832798">
        <ele>1154.5</ele>
        <time>2018-05-27T06:45:02Z</time>
      </trkpt>
      <trkpt lat="41.923715975135565" lon="-3.337307972833514">
        <ele>1154.2</ele>
        <time>2018-05-27T06:45:14Z</time>
      </trkpt>
      <trkpt lat="41.923579014837742" lon="-3.336798017844558">
        <ele>1153.9000000000001</ele>
        <time>2018-05-27T06:45:25Z</time>
      </trkpt>
      <trkpt lat="41.923453034833074" lon="-3.336379006505013">
        <ele>1154.0999999999999</ele>
        <time>2018-05-27T06:45:35Z</time>
      </trkpt>
      <trkpt lat="41.923256982117891" lon="-3.335868967697024">
        <ele>1153.4000000000001</ele>
        <time>2018-05-27T06:45:48Z</time>
      </trkpt>
      <trkpt lat="41.923171989619732" lon="-3.335364041849971">
        <ele>1152.8</ele>
        <time>2018-05-27T06:46:00Z</time>
      </trkpt>
      <trkpt lat="41.923067970201373" lon="-3.334749983623624">
        <ele>1151.0999999999999</ele>
        <time>2018-05-27T06:46:13Z</time>
      </trkpt>
      <trkpt lat="41.92286697216332" lon="-3.334111031144857">
        <ele>1148.2</ele>
        <time>2018-05-27T06:46:29Z</time>
      </trkpt>
      <trkpt lat="41.922679971903563" lon="-3.333599986508489">
        <ele>1145.9000000000001</ele>
        <time>2018-05-27T06:46:41Z</time>
      </trkpt>
      <trkpt lat="41.922430023550987" lon="-3.333104029297829">
        <ele>1144.5999999999999</ele>
        <time>2018-05-27T06:46:54Z</time>
      </trkpt>
      <trkpt lat="41.92220002412796" lon="-3.332662973552942">
        <ele>1143.5999999999999</ele>
        <time>2018-05-27T06:47:06Z</time>
      </trkpt>
      <trkpt lat="41.922104973345995" lon="-3.332412019371986">
        <ele>1143.4000000000001</ele>
        <time>2018-05-27T06:47:13Z</time>
      </trkpt>
      <trkpt lat="41.921906992793083" lon="-3.331822017207742">
        <ele>1144</ele>
        <time>2018-05-27T06:47:27Z</time>
      </trkpt>
      <trkpt lat="41.921733990311623" lon="-3.331154985353351">
        <ele>1144.5</ele>
        <time>2018-05-27T06:47:42Z</time>
      </trkpt>
      <trkpt lat="41.921636005863547" lon="-3.330308999866247">
        <ele>1144.3</ele>
        <time>2018-05-27T06:48:01Z</time>
      </trkpt>
      <trkpt lat="41.921635000035167" lon="-3.330232976004481">
        <ele>1144.5</ele>
        <time>2018-05-27T06:48:03Z</time>
      </trkpt>
      <trkpt lat="41.92164296284318" lon="-3.330002976581454">
        <ele>1145.2</ele>
        <time>2018-05-27T06:48:08Z</time>
      </trkpt>
      <trkpt lat="41.921635000035167" lon="-3.329683039337397">
        <ele>1146.0999999999999</ele>
        <time>2018-05-27T06:48:15Z</time>
      </trkpt>
      <trkpt lat="41.921628965064883" lon="-3.329440969973803">
        <ele>1146.7</ele>
        <time>2018-05-27T06:48:20Z</time>
      </trkpt>
      <trkpt lat="41.921624019742012" lon="-3.329128995537758">
        <ele>1147.5</ele>
        <time>2018-05-27T06:48:27Z</time>
      </trkpt>
      <trkpt lat="41.921583032235503" lon="-3.328541005030274">
        <ele>1149.3</ele>
        <time>2018-05-27T06:48:40Z</time>
      </trkpt>
      <trkpt lat="41.9215780030936" lon="-3.328473027795553">
        <ele>1149.5</ele>
        <time>2018-05-27T06:48:42Z</time>
      </trkpt>
      <trkpt lat="41.921483036130667" lon="-3.327726032584906">
        <ele>1152</ele>
        <time>2018-05-27T06:48:59Z</time>
      </trkpt>
      <trkpt lat="41.921413969248533" lon="-3.327413974329829">
        <ele>1153.4000000000001</ele>
        <time>2018-05-27T06:49:06Z</time>
      </trkpt>
      <trkpt lat="41.921330988407135" lon="-3.326892033219338">
        <ele>1155.4000000000001</ele>
        <time>2018-05-27T06:49:18Z</time>
      </trkpt>
      <trkpt lat="41.921129990369081" lon="-3.326356010511518">
        <ele>1155.5</ele>
        <time>2018-05-27T06:49:31Z</time>
      </trkpt>
      <trkpt lat="41.921095959842205" lon="-3.326086029410362">
        <ele>1155.5</ele>
        <time>2018-05-27T06:49:37Z</time>
      </trkpt>
      <trkpt lat="41.92108397372067" lon="-3.325857035815716">
        <ele>1155.5</ele>
        <time>2018-05-27T06:49:42Z</time>
      </trkpt>
      <trkpt lat="41.921068970113993" lon="-3.325283965095878">
        <ele>1155.3</ele>
        <time>2018-05-27T06:49:54Z</time>
      </trkpt>
      <trkpt lat="41.921017002314329" lon="-3.324765963479877">
        <ele>1154.0999999999999</ele>
        <time>2018-05-27T06:50:06Z</time>
      </trkpt>
      <trkpt lat="41.920900996774435" lon="-3.324291966855526">
        <ele>1152.3</ele>
        <time>2018-05-27T06:50:17Z</time>
      </trkpt>
      <trkpt lat="41.920781973749399" lon="-3.323768014088273">
        <ele>1150.2</ele>
        <time>2018-05-27T06:50:29Z</time>
      </trkpt>
      <trkpt lat="41.920633027330041" lon="-3.323065023869276">
        <ele>1148</ele>
        <time>2018-05-27T06:50:45Z</time>
      </trkpt>
      <trkpt lat="41.920617017894983" lon="-3.32294499501586">
        <ele>1147.7</ele>
        <time>2018-05-27T06:50:48Z</time>
      </trkpt>
      <trkpt lat="41.920579969882965" lon="-3.322694040834904">
        <ele>1148.3</ele>
        <time>2018-05-27T06:50:54Z</time>
      </trkpt>
      <trkpt lat="41.920559015125036" lon="-3.322170004248619">
        <ele>1149.0999999999999</ele>
        <time>2018-05-27T06:51:05Z</time>
      </trkpt>
      <trkpt lat="41.920386012643576" lon="-3.321717968210578">
        <ele>1150.3</ele>
        <time>2018-05-27T06:51:16Z</time>
      </trkpt>
      <trkpt lat="41.920131035149097" lon="-3.321229973807931">
        <ele>1149.2</ele>
        <time>2018-05-27T06:51:29Z</time>
      </trkpt>
      <trkpt lat="41.919867005199194" lon="-3.320867959409952">
        <ele>1147.2</ele>
        <time>2018-05-27T06:51:41Z</time>
      </trkpt>
      <trkpt lat="41.919560981914401" lon="-3.320519020780921">
        <ele>1145.9000000000001</ele>
        <time>2018-05-27T06:51:53Z</time>
      </trkpt>
      <trkpt lat="41.919371969997883" lon="-3.32011098973453">
        <ele>1145.7</ele>
        <time>2018-05-27T06:52:03Z</time>
      </trkpt>
      <trkpt lat="41.919086985290051" lon="-3.319538002833724">
        <ele>1145.8</ele>
        <time>2018-05-27T06:52:18Z</time>
      </trkpt>
      <trkpt lat="41.918780962005258" lon="-3.31901497207582">
        <ele>1145.7</ele>
        <time>2018-05-27T06:52:33Z</time>
      </trkpt>
      <trkpt lat="41.918582981452346" lon="-3.318499987944961">
        <ele>1145.8</ele>
        <time>2018-05-27T06:52:46Z</time>
      </trkpt>
      <trkpt lat="41.918392963707447" lon="-3.317907974123955">
        <ele>1145.3</ele>
        <time>2018-05-27T06:53:00Z</time>
      </trkpt>
      <trkpt lat="41.918194983154535" lon="-3.317287964746356">
        <ele>1144.8</ele>
        <time>2018-05-27T06:53:15Z</time>
      </trkpt>
      <trkpt lat="41.917999014258385" lon="-3.31671598367393">
        <ele>1144.7</ele>
        <time>2018-05-27T06:53:29Z</time>
      </trkpt>
      <trkpt lat="41.917817965149879" lon="-3.31617996096611">
        <ele>1144.4000000000001</ele>
        <time>2018-05-27T06:53:42Z</time>
      </trkpt>
      <trkpt lat="41.917645968496799" lon="-3.315780982375145">
        <ele>1144.0999999999999</ele>
        <time>2018-05-27T06:53:52Z</time>
      </trkpt>
      <trkpt lat="41.917442036792636" lon="-3.315257029607892">
        <ele>1144.4000000000001</ele>
        <time>2018-05-27T06:54:05Z</time>
      </trkpt>
      <trkpt lat="41.917190998792648" lon="-3.314640959724784">
        <ele>1143.4000000000001</ele>
        <time>2018-05-27T06:54:20Z</time>
      </trkpt>
      <trkpt lat="41.917038029059768" lon="-3.314068978652358">
        <ele>1143.3</ele>
        <time>2018-05-27T06:54:34Z</time>
      </trkpt>
      <trkpt lat="41.91700098104775" lon="-3.313473025336862">
        <ele>1143.7</ele>
        <time>2018-05-27T06:54:47Z</time>
      </trkpt>
      <trkpt lat="41.916795959696174" lon="-3.312808005139232">
        <ele>1143.5</ele>
        <time>2018-05-27T06:55:03Z</time>
      </trkpt>
      <trkpt lat="41.916582975536585" lon="-3.312230994924903">
        <ele>1143.0999999999999</ele>
        <time>2018-05-27T06:55:17Z</time>
      </trkpt>
      <trkpt lat="41.916433023288846" lon="-3.311736965551972">
        <ele>1143.9000000000001</ele>
        <time>2018-05-27T06:55:29Z</time>
      </trkpt>
      <trkpt lat="41.916319029405713" lon="-3.311254000291228">
        <ele>1146.0999999999999</ele>
        <time>2018-05-27T06:55:40Z</time>
      </trkpt>
      <trkpt lat="41.916168993338943" lon="-3.310661986470223">
        <ele>1146.5</ele>
        <time>2018-05-27T06:55:54Z</time>
      </trkpt>
      <trkpt lat="41.916049970313907" lon="-3.310406003147364">
        <ele>1146.5</ele>
        <time>2018-05-27T06:56:00Z</time>
      </trkpt>
      <trkpt lat="41.915848972275853" lon="-3.310121018439531">
        <ele>1145.7</ele>
        <time>2018-05-27T06:56:09Z</time>
      </trkpt>
      <trkpt lat="41.915746964514256" lon="-3.309827987104654">
        <ele>1145.2</ele>
        <time>2018-05-27T06:56:16Z</time>
      </trkpt>
      <trkpt lat="41.91564898006618" lon="-3.309618020430207">
        <ele>1145</ele>
        <time>2018-05-27T06:56:22Z</time>
      </trkpt>
      <trkpt lat="41.915485030040145" lon="-3.309342004358769">
        <ele>1145.3</ele>
        <time>2018-05-27T06:56:29Z</time>
      </trkpt>
      <trkpt lat="41.915366007015109" lon="-3.309165984392166">
        <ele>1145.5</ele>
        <time>2018-05-27T06:56:35Z</time>
      </trkpt>
      <trkpt lat="41.915083033964038" lon="-3.308625016361475">
        <ele>1146.4000000000001</ele>
        <time>2018-05-27T06:56:49Z</time>
      </trkpt>
      <trkpt lat="41.914815986528993" lon="-3.308184966444969">
        <ele>1148</ele>
        <time>2018-05-27T06:57:02Z</time>
      </trkpt>
      <trkpt lat="41.91453100182116" lon="-3.307740977033973">
        <ele>1148.9000000000001</ele>
        <time>2018-05-27T06:57:15Z</time>
      </trkpt>
      <trkpt lat="41.914149960502982" lon="-3.307182993739843">
        <ele>1148.0999999999999</ele>
        <time>2018-05-27T06:57:31Z</time>
      </trkpt>
      <trkpt lat="41.913861958310008" lon="-3.306529959663749">
        <ele>1148.2</ele>
        <time>2018-05-27T06:57:48Z</time>
      </trkpt>
      <trkpt lat="41.913701025769114" lon="-3.305913973599672">
        <ele>1148.4000000000001</ele>
        <time>2018-05-27T06:58:03Z</time>
      </trkpt>
      <trkpt lat="41.913496004417539" lon="-3.305363031104207">
        <ele>1149.0999999999999</ele>
        <time>2018-05-27T06:58:16Z</time>
      </trkpt>
      <trkpt lat="41.913272039964795" lon="-3.3049610350281">
        <ele>1149.4000000000001</ele>
        <time>2018-05-27T06:58:27Z</time>
      </trkpt>
      <trkpt lat="41.913149999454618" lon="-3.304743021726608">
        <ele>1149.0999999999999</ele>
        <time>2018-05-27T06:58:33Z</time>
      </trkpt>
      <trkpt lat="41.912890998646617" lon="-3.30429500900209">
        <ele>1146.7</ele>
        <time>2018-05-27T06:58:46Z</time>
      </trkpt>
      <trkpt lat="41.91268103197217" lon="-3.303946992382407">
        <ele>1145.8</ele>
        <time>2018-05-27T06:58:56Z</time>
      </trkpt>
      <trkpt lat="41.912440974265337" lon="-3.303539967164397">
        <ele>1145.2</ele>
        <time>2018-05-27T06:59:07Z</time>
      </trkpt>
      <trkpt lat="41.912259003147483" lon="-3.303086003288627">
        <ele>1143.8</ele>
        <time>2018-05-27T06:59:18Z</time>
      </trkpt>
      <trkpt lat="41.912236958742142" lon="-3.30292297527194">
        <ele>1143.0999999999999</ele>
        <time>2018-05-27T06:59:22Z</time>
      </trkpt>
      <trkpt lat="41.912222038954496" lon="-3.302863966673613">
        <ele>1143.0999999999999</ele>
        <time>2018-05-27T06:59:23Z</time>
      </trkpt>
      <trkpt lat="41.912152972072363" lon="-3.302753996104002">
        <ele>1143.4000000000001</ele>
        <time>2018-05-27T06:59:27Z</time>
      </trkpt>
      <trkpt lat="41.911819959059358" lon="-3.302176985889673">
        <ele>1143.5</ele>
        <time>2018-05-27T06:59:43Z</time>
      </trkpt>
      <trkpt lat="41.911523994058371" lon="-3.30167499370873">
        <ele>1142.5</ele>
        <time>2018-05-27T06:59:57Z</time>
      </trkpt>
      <trkpt lat="41.911493986845016" lon="-3.301601987332106">
        <ele>1142.2</ele>
        <time>2018-05-27T06:59:59Z</time>
      </trkpt>
      <trkpt lat="41.911486024037004" lon="-3.30152596347034">
        <ele>1142</ele>
        <time>2018-05-27T07:00:00Z</time>
      </trkpt>
      <trkpt lat="41.911474037915468" lon="-3.301454968750477">
        <ele>1141.7</ele>
        <time>2018-05-27T07:00:02Z</time>
      </trkpt>
      <trkpt lat="41.911286031827331" lon="-3.30103101208806">
        <ele>1140.2</ele>
        <time>2018-05-27T07:00:13Z</time>
      </trkpt>
      <trkpt lat="41.911121997982264" lon="-3.300575958564878">
        <ele>1139.5</ele>
        <time>2018-05-27T07:00:24Z</time>
      </trkpt>
      <trkpt lat="41.910989983007312" lon="-3.300085030496121">
        <ele>1138.5</ele>
        <time>2018-05-27T07:00:36Z</time>
      </trkpt>
      <trkpt lat="41.910844976082444" lon="-3.299735002219677">
        <ele>1137.5999999999999</ele>
        <time>2018-05-27T07:00:44Z</time>
      </trkpt>
      <trkpt lat="41.910686977207661" lon="-3.299262011423707">
        <ele>1137.9000000000001</ele>
        <time>2018-05-27T07:00:56Z</time>
      </trkpt>
      <trkpt lat="41.910560997202992" lon="-3.298761025071144">
        <ele>1138.7</ele>
        <time>2018-05-27T07:01:07Z</time>
      </trkpt>
      <trkpt lat="41.910407021641731" lon="-3.298435974866152">
        <ele>1137.9000000000001</ele>
        <time>2018-05-27T07:01:16Z</time>
      </trkpt>
      <trkpt lat="41.910334015265107" lon="-3.298191977664828">
        <ele>1137.4000000000001</ele>
        <time>2018-05-27T07:01:22Z</time>
      </trkpt>
      <trkpt lat="41.910225972533226" lon="-3.297803979367018">
        <ele>1136.7</ele>
        <time>2018-05-27T07:01:31Z</time>
      </trkpt>
      <trkpt lat="41.910102004185319" lon="-3.297624019905925">
        <ele>1136</ele>
        <time>2018-05-27T07:01:36Z</time>
      </trkpt>
      <trkpt lat="41.909762034192681" lon="-3.297007028013468">
        <ele>1135.4000000000001</ele>
        <time>2018-05-27T07:01:53Z</time>
      </trkpt>
      <trkpt lat="41.90967402420938" lon="-3.296762024983764">
        <ele>1136.7</ele>
        <time>2018-05-27T07:01:59Z</time>
      </trkpt>
      <trkpt lat="41.909551983699203" lon="-3.29638802446425">
        <ele>1138.7</ele>
        <time>2018-05-27T07:02:08Z</time>
      </trkpt>
      <trkpt lat="41.909260964021087" lon="-3.295772960409522">
        <ele>1138.5</ele>
        <time>2018-05-27T07:02:24Z</time>
      </trkpt>
      <trkpt lat="41.909068012610078" lon="-3.295298041775823">
        <ele>1138.3</ele>
        <time>2018-05-27T07:02:36Z</time>
      </trkpt>
      <trkpt lat="41.908886041492224" lon="-3.294874001294375">
        <ele>1137.5999999999999</ele>
        <time>2018-05-27T07:02:47Z</time>
      </trkpt>
      <trkpt lat="41.908731982111931" lon="-3.294634027406573">
        <ele>1136.7</ele>
        <time>2018-05-27T07:02:54Z</time>
      </trkpt>
      <trkpt lat="41.908549005165696" lon="-3.294259021058679">
        <ele>1136.2</ele>
        <time>2018-05-27T07:03:04Z</time>
      </trkpt>
      <trkpt lat="41.908451020717621" lon="-3.29392097890377">
        <ele>1136.4000000000001</ele>
        <time>2018-05-27T07:03:12Z</time>
      </trkpt>
      <trkpt lat="41.908295033499599" lon="-3.293641023337841">
        <ele>1136</ele>
        <time>2018-05-27T07:03:20Z</time>
      </trkpt>
      <trkpt lat="41.908152038231492" lon="-3.293264005333185">
        <ele>1135.9000000000001</ele>
        <time>2018-05-27T07:03:29Z</time>
      </trkpt>
      <trkpt lat="41.908071991056204" lon="-3.293077005073428">
        <ele>1135.7</ele>
        <time>2018-05-27T07:03:34Z</time>
      </trkpt>
      <trkpt lat="41.90782799385488" lon="-3.292671991512179">
        <ele>1133.8</ele>
        <time>2018-05-27T07:03:45Z</time>
      </trkpt>
      <trkpt lat="41.907638981938362" lon="-3.292248034849763">
        <ele>1132.2</ele>
        <time>2018-05-27T07:03:56Z</time>
      </trkpt>
      <trkpt lat="41.907452987506986" lon="-3.291803961619735">
        <ele>1131.5999999999999</ele>
        <time>2018-05-27T07:04:07Z</time>
      </trkpt>
      <trkpt lat="41.90716297365725" lon="-3.291413029655814">
        <ele>1130.9000000000001</ele>
        <time>2018-05-27T07:04:19Z</time>
      </trkpt>
      <trkpt lat="41.906958958134055" lon="-3.291217982769013">
        <ele>1130.5999999999999</ele>
        <time>2018-05-27T07:04:27Z</time>
      </trkpt>
      <trkpt lat="41.906730970367789" lon="-3.291055960580707">
        <ele>1130.8</ele>
        <time>2018-05-27T07:04:35Z</time>
      </trkpt>
      <trkpt lat="41.906487978994846" lon="-3.290892010554671">
        <ele>1131.7</ele>
        <time>2018-05-27T07:04:43Z</time>
      </trkpt>
      <trkpt lat="41.906289998441935" lon="-3.290683971717954">
        <ele>1134</ele>
        <time>2018-05-27T07:04:50Z</time>
      </trkpt>
      <trkpt lat="41.906156977638602" lon="-3.290532007813454">
        <ele>1134.5999999999999</ele>
        <time>2018-05-27T07:04:55Z</time>
      </trkpt>
      <trkpt lat="41.90587199293077" lon="-3.290252974256873">
        <ele>1132.5999999999999</ele>
        <time>2018-05-27T07:05:06Z</time>
      </trkpt>
      <trkpt lat="41.905568987131119" lon="-3.290058011189103">
        <ele>1130.4000000000001</ele>
        <time>2018-05-27T07:05:16Z</time>
      </trkpt>
      <trkpt lat="41.905329013243318" lon="-3.28992297872901">
        <ele>1129</ele>
        <time>2018-05-27T07:05:23Z</time>
      </trkpt>
      <trkpt lat="41.905092978850007" lon="-3.289951980113983">
        <ele>1126.2</ele>
        <time>2018-05-27T07:05:30Z</time>
      </trkpt>
      <trkpt lat="41.904920982196927" lon="-3.289976958185434">
        <ele>1124.0999999999999</ele>
        <time>2018-05-27T07:05:36Z</time>
      </trkpt>
      <trkpt lat="41.904782010242343" lon="-3.289952985942364">
        <ele>1122.8</ele>
        <time>2018-05-27T07:05:40Z</time>
      </trkpt>
      <trkpt lat="41.904605990275741" lon="-3.289839997887611">
        <ele>1122.2</ele>
        <time>2018-05-27T07:05:46Z</time>
      </trkpt>
      <trkpt lat="41.904399041086435" lon="-3.289701025933027">
        <ele>1121.2</ele>
        <time>2018-05-27T07:05:52Z</time>
      </trkpt>
      <trkpt lat="41.904226038604975" lon="-3.289612010121346">
        <ele>1120</ele>
        <time>2018-05-27T07:05:58Z</time>
      </trkpt>
      <trkpt lat="41.9040019903332" lon="-3.289413023740053">
        <ele>1118.7</ele>
        <time>2018-05-27T07:06:06Z</time>
      </trkpt>
      <trkpt lat="41.903881039470434" lon="-3.289307998493314">
        <ele>1118.5</ele>
        <time>2018-05-27T07:06:10Z</time>
      </trkpt>
      <trkpt lat="41.903820019215345" lon="-3.289245972409844">
        <ele>1118.5999999999999</ele>
        <time>2018-05-27T07:06:12Z</time>
      </trkpt>
      <trkpt lat="41.903708958998322" lon="-3.289138013496995">
        <ele>1118.8</ele>
        <time>2018-05-27T07:06:16Z</time>
      </trkpt>
      <trkpt lat="41.90361600369215" lon="-3.289003986865282">
        <ele>1119.3</ele>
        <time>2018-05-27T07:06:21Z</time>
      </trkpt>
      <trkpt lat="41.903494969010353" lon="-3.28889200463891">
        <ele>1119.2</ele>
        <time>2018-05-27T07:06:25Z</time>
      </trkpt>
      <trkpt lat="41.903427997604012" lon="-3.288798965513706">
        <ele>1119.5</ele>
        <time>2018-05-27T07:06:28Z</time>
      </trkpt>
      <trkpt lat="41.903354991227388" lon="-3.288746997714043">
        <ele>1119.3</ele>
        <time>2018-05-27T07:06:30Z</time>
      </trkpt>
      <trkpt lat="41.903205960988998" lon="-3.288620011880994">
        <ele>1117.2</ele>
        <time>2018-05-27T07:06:35Z</time>
      </trkpt>
      <trkpt lat="41.903088027611375" lon="-3.288508029654622">
        <ele>1116</ele>
        <time>2018-05-27T07:06:40Z</time>
      </trkpt>
      <trkpt lat="41.902981996536255" lon="-3.288388000801206">
        <ele>1115.3</ele>
        <time>2018-05-27T07:06:44Z</time>
      </trkpt>
      <trkpt lat="41.902888035401702" lon="-3.288280041888356">
        <ele>1115</ele>
        <time>2018-05-27T07:06:47Z</time>
      </trkpt>
      <trkpt lat="41.902740010991693" lon="-3.288120031356812">
        <ele>1114.8</ele>
        <time>2018-05-27T07:06:53Z</time>
      </trkpt>
      <trkpt lat="41.902736993506551" lon="-3.287998996675015">
        <ele>1115.2</ele>
        <time>2018-05-27T07:06:56Z</time>
      </trkpt>
      <trkpt lat="41.902732970193028" lon="-3.287843009456992">
        <ele>1115.0999999999999</ele>
        <time>2018-05-27T07:06:59Z</time>
      </trkpt>
      <trkpt lat="41.902749985456467" lon="-3.287664977833629">
        <ele>1114</ele>
        <time>2018-05-27T07:07:03Z</time>
      </trkpt>
      <trkpt lat="41.902721989899874" lon="-3.287605969235301">
        <ele>1113.5999999999999</ele>
        <time>2018-05-27T07:07:05Z</time>
      </trkpt>
      <trkpt lat="41.902620987966657" lon="-3.287330036982894">
        <ele>1112.0999999999999</ele>
        <time>2018-05-27T07:07:12Z</time>
      </trkpt>
      <trkpt lat="41.902528032660484" lon="-3.286941032856703">
        <ele>1110.8</ele>
        <time>2018-05-27T07:07:21Z</time>
      </trkpt>
      <trkpt lat="41.902496013790369" lon="-3.286535013467073">
        <ele>1110.3</ele>
        <time>2018-05-27T07:07:30Z</time>
      </trkpt>
      <trkpt lat="41.902250004932284" lon="-3.286005025729537">
        <ele>1109</ele>
        <time>2018-05-27T07:07:43Z</time>
      </trkpt>
      <trkpt lat="41.902011036872864" lon="-3.285500016063452">
        <ele>1108.5999999999999</ele>
        <time>2018-05-27T07:07:57Z</time>
      </trkpt>
      <trkpt lat="41.901814984157681" lon="-3.284968016669154">
        <ele>1111.5</ele>
        <time>2018-05-27T07:08:10Z</time>
      </trkpt>
      <trkpt lat="41.90181297250092" lon="-3.284736005589366">
        <ele>1112.2</ele>
        <time>2018-05-27T07:08:15Z</time>
      </trkpt>
      <trkpt lat="41.901843985542655" lon="-3.2846599817276">
        <ele>1112.2</ele>
        <time>2018-05-27T07:08:17Z</time>
      </trkpt>
      <trkpt lat="41.901677018031478" lon="-3.284386983141303">
        <ele>1113.7</ele>
        <time>2018-05-27T07:08:24Z</time>
      </trkpt>
      <trkpt lat="41.901206038892269" lon="-3.283754987642169">
        <ele>1116.3</ele>
        <time>2018-05-27T07:08:44Z</time>
      </trkpt>
      <trkpt lat="41.901103025302291" lon="-3.283606041222811">
        <ele>1116.9000000000001</ele>
        <time>2018-05-27T07:08:49Z</time>
      </trkpt>
      <trkpt lat="41.900756014510989" lon="-3.283098014071584">
        <ele>1119.7</ele>
        <time>2018-05-27T07:09:04Z</time>
      </trkpt>
      <trkpt lat="41.900433981791139" lon="-3.282683026045561">
        <ele>1122</ele>
        <time>2018-05-27T07:09:17Z</time>
      </trkpt>
      <trkpt lat="41.900151008740067" lon="-3.282222021371126">
        <ele>1122.7</ele>
        <time>2018-05-27T07:09:30Z</time>
      </trkpt>
      <trkpt lat="41.899958979338408" lon="-3.281749030575156">
        <ele>1121.9000000000001</ele>
        <time>2018-05-27T07:09:42Z</time>
      </trkpt>
      <trkpt lat="41.899737026542425" lon="-3.281313003972173">
        <ele>1120.4000000000001</ele>
        <time>2018-05-27T07:09:54Z</time>
      </trkpt>
      <trkpt lat="41.899570981040597" lon="-3.28094101510942">
        <ele>1117.2</ele>
        <time>2018-05-27T07:10:03Z</time>
      </trkpt>
      <trkpt lat="41.899402001872659" lon="-3.280513035133481">
        <ele>1111.4000000000001</ele>
        <time>2018-05-27T07:10:14Z</time>
      </trkpt>
      <trkpt lat="41.899330001324415" lon="-3.279838040471077">
        <ele>1107.9000000000001</ele>
        <time>2018-05-27T07:10:29Z</time>
      </trkpt>
      <trkpt lat="41.899228999391198" lon="-3.279027007520199">
        <ele>1107</ele>
        <time>2018-05-27T07:10:47Z</time>
      </trkpt>
      <trkpt lat="41.899084998294711" lon="-3.278435999527574">
        <ele>1106.5999999999999</ele>
        <time>2018-05-27T07:11:01Z</time>
      </trkpt>
      <trkpt lat="41.89899698831141" lon="-3.277634019032121">
        <ele>1106.4000000000001</ele>
        <time>2018-05-27T07:11:19Z</time>
      </trkpt>
      <trkpt lat="41.898997994139791" lon="-3.276761965826154">
        <ele>1106.5</ele>
        <time>2018-05-27T07:11:38Z</time>
      </trkpt>
      <trkpt lat="41.899003023281693" lon="-3.276376985013485">
        <ele>1106.8</ele>
        <time>2018-05-27T07:11:47Z</time>
      </trkpt>
      <trkpt lat="41.898929011076689" lon="-3.275569975376129">
        <ele>1107.0999999999999</ele>
        <time>2018-05-27T07:12:05Z</time>
      </trkpt>
      <trkpt lat="41.898905038833618" lon="-3.275422034785152">
        <ele>1107.2</ele>
        <time>2018-05-27T07:12:08Z</time>
      </trkpt>
      <trkpt lat="41.898849969729781" lon="-3.275025989860296">
        <ele>1108.8</ele>
        <time>2018-05-27T07:12:17Z</time>
      </trkpt>
      <trkpt lat="41.898813005536795" lon="-3.274743016809225">
        <ele>1110.0999999999999</ele>
        <time>2018-05-27T07:12:23Z</time>
      </trkpt>
      <trkpt lat="41.898775035515428" lon="-3.274393994361162">
        <ele>1111.4000000000001</ele>
        <time>2018-05-27T07:12:31Z</time>
      </trkpt>
      <trkpt lat="41.898741004988551" lon="-3.274145973846316">
        <ele>1112</ele>
        <time>2018-05-27T07:12:37Z</time>
      </trkpt>
      <trkpt lat="41.898739999160171" lon="-3.273612968623638">
        <ele>1113.5</ele>
        <time>2018-05-27T07:12:48Z</time>
      </trkpt>
      <trkpt lat="41.898750979453325" lon="-3.273539962247014">
        <ele>1113.8</ele>
        <time>2018-05-27T07:12:50Z</time>
      </trkpt>
      <trkpt lat="41.898841001093388" lon="-3.272861028090119">
        <ele>1117.2</ele>
        <time>2018-05-27T07:13:05Z</time>
      </trkpt>
      <trkpt lat="41.898876959457994" lon="-3.272532038390636">
        <ele>1119.5</ele>
        <time>2018-05-27T07:13:13Z</time>
      </trkpt>
      <trkpt lat="41.898901015520096" lon="-3.272413015365601">
        <ele>1120.4000000000001</ele>
        <time>2018-05-27T07:13:15Z</time>
      </trkpt>
      <trkpt lat="41.898925993591547" lon="-3.272213023155928">
        <ele>1121.7</ele>
        <time>2018-05-27T07:13:20Z</time>
      </trkpt>
      <trkpt lat="41.898959018290043" lon="-3.271957039833069">
        <ele>1123.5999999999999</ele>
        <time>2018-05-27T07:13:26Z</time>
      </trkpt>
      <trkpt lat="41.898987013846636" lon="-3.271615980193019">
        <ele>1126</ele>
        <time>2018-05-27T07:13:33Z</time>
      </trkpt>
      <trkpt lat="41.899016015231609" lon="-3.271335018798709">
        <ele>1127.8</ele>
        <time>2018-05-27T07:13:39Z</time>
      </trkpt>
      <trkpt lat="41.898972010239959" lon="-3.27090703882277">
        <ele>1127.8</ele>
        <time>2018-05-27T07:13:49Z</time>
      </trkpt>
      <trkpt lat="41.898822980001569" lon="-3.270640997216106">
        <ele>1128.4000000000001</ele>
        <time>2018-05-27T07:13:56Z</time>
      </trkpt>
      <trkpt lat="41.898687025532126" lon="-3.270265990868211">
        <ele>1128</ele>
        <time>2018-05-27T07:14:05Z</time>
      </trkpt>
      <trkpt lat="41.898772018030286" lon="-3.269914034754038">
        <ele>1127</ele>
        <time>2018-05-27T07:14:14Z</time>
      </trkpt>
      <trkpt lat="41.898900009691715" lon="-3.269595019519329">
        <ele>1125.0999999999999</ele>
        <time>2018-05-27T07:14:22Z</time>
      </trkpt>
      <trkpt lat="41.899265041574836" lon="-3.268955983221531">
        <ele>1121.9000000000001</ele>
        <time>2018-05-27T07:14:39Z</time>
      </trkpt>
      <trkpt lat="41.899332012981176" lon="-3.268725983798504">
        <ele>1121.5999999999999</ele>
        <time>2018-05-27T07:14:45Z</time>
      </trkpt>
      <trkpt lat="41.899413987994194" lon="-3.268150985240936">
        <ele>1118.5999999999999</ele>
        <time>2018-05-27T07:14:58Z</time>
      </trkpt>
      <trkpt lat="41.899434020742774" lon="-3.26749300584197">
        <ele>1116.4000000000001</ele>
        <time>2018-05-27T07:15:12Z</time>
      </trkpt>
      <trkpt lat="41.899394039064646" lon="-3.266878025606275">
        <ele>1115</ele>
        <time>2018-05-27T07:15:26Z</time>
      </trkpt>
      <trkpt lat="41.899320026859641" lon="-3.266595974564552">
        <ele>1114.3</ele>
        <time>2018-05-27T07:15:33Z</time>
      </trkpt>
      <trkpt lat="41.899267975240946" lon="-3.266178974881768">
        <ele>1113.5</ele>
        <time>2018-05-27T07:15:42Z</time>
      </trkpt>
      <trkpt lat="41.899158004671335" lon="-3.265634989365935">
        <ele>1113</ele>
        <time>2018-05-27T07:15:54Z</time>
      </trkpt>
      <trkpt lat="41.899006040766835" lon="-3.265276998281479">
        <ele>1112.5999999999999</ele>
        <time>2018-05-27T07:16:03Z</time>
      </trkpt>
      <trkpt lat="41.898862039670348" lon="-3.264983966946602">
        <ele>1112.5999999999999</ele>
        <time>2018-05-27T07:16:11Z</time>
      </trkpt>
      <trkpt lat="41.898852987214923" lon="-3.264824040234089">
        <ele>1112.9000000000001</ele>
        <time>2018-05-27T07:16:15Z</time>
      </trkpt>
      <trkpt lat="41.89884502440691" lon="-3.264540983363986">
        <ele>1113.5</ele>
        <time>2018-05-27T07:16:21Z</time>
      </trkpt>
      <trkpt lat="41.898991959169507" lon="-3.264239989221096">
        <ele>1114.3</ele>
        <time>2018-05-27T07:16:29Z</time>
      </trkpt>
      <trkpt lat="41.898973016068339" lon="-3.264111997559667">
        <ele>1114.3</ele>
        <time>2018-05-27T07:16:32Z</time>
      </trkpt>
      <trkpt lat="41.899045016616583" lon="-3.263975959271193">
        <ele>1114.5999999999999</ele>
        <time>2018-05-27T07:16:35Z</time>
      </trkpt>
      <trkpt lat="41.898948037996888" lon="-3.263909993693233">
        <ele>1114.4000000000001</ele>
        <time>2018-05-27T07:16:39Z</time>
      </trkpt>
      <trkpt lat="41.898618964478374" lon="-3.263827012851834">
        <ele>1113</ele>
        <time>2018-05-27T07:16:49Z</time>
      </trkpt>
      <trkpt lat="41.898361975327134" lon="-3.263681000098586">
        <ele>1110.8</ele>
        <time>2018-05-27T07:16:57Z</time>
      </trkpt>
      <trkpt lat="41.898111021146178" lon="-3.263540016487241">
        <ele>1108.3</ele>
        <time>2018-05-27T07:17:05Z</time>
      </trkpt>
      <trkpt lat="41.897953022271395" lon="-3.263483019545674">
        <ele>1107</ele>
        <time>2018-05-27T07:17:10Z</time>
      </trkpt>
      <trkpt lat="41.897918991744518" lon="-3.263429962098599">
        <ele>1106.5</ele>
        <time>2018-05-27T07:17:11Z</time>
      </trkpt>
      <trkpt lat="41.897930977866054" lon="-3.263338012620807">
        <ele>1106.0999999999999</ele>
        <time>2018-05-27T07:17:13Z</time>
      </trkpt>
      <trkpt lat="41.897884039208293" lon="-3.263170039281249">
        <ele>1105.0999999999999</ele>
        <time>2018-05-27T07:17:17Z</time>
      </trkpt>
      <trkpt lat="41.897692009806633" lon="-3.263041041791439">
        <ele>1103.5999999999999</ele>
        <time>2018-05-27T07:17:24Z</time>
      </trkpt>
      <trkpt lat="41.897528981789947" lon="-3.262905003502965">
        <ele>1102.5999999999999</ele>
        <time>2018-05-27T07:17:29Z</time>
      </trkpt>
      <trkpt lat="41.897437032312155" lon="-3.262686990201473">
        <ele>1101.8</ele>
        <time>2018-05-27T07:17:35Z</time>
      </trkpt>
      <trkpt lat="41.897387998178601" lon="-3.262506024912">
        <ele>1101.2</ele>
        <time>2018-05-27T07:17:39Z</time>
      </trkpt>
      <trkpt lat="41.897334018722177" lon="-3.262183992192149">
        <ele>1100.0999999999999</ele>
        <time>2018-05-27T07:17:46Z</time>
      </trkpt>
      <trkpt lat="41.897051967680454" lon="-3.261754000559449">
        <ele>1098.2</ele>
        <time>2018-05-27T07:17:59Z</time>
      </trkpt>
      <trkpt lat="41.896559027954936" lon="-3.261461975052953">
        <ele>1094.4000000000001</ele>
        <time>2018-05-27T07:18:15Z</time>
      </trkpt>
      <trkpt lat="41.89613901078701" lon="-3.261260977014899">
        <ele>1090.5999999999999</ele>
        <time>2018-05-27T07:18:28Z</time>
      </trkpt>
      <trkpt lat="41.89588000997901" lon="-3.260746998712421">
        <ele>1090.9000000000001</ele>
        <time>2018-05-27T07:18:42Z</time>
      </trkpt>
      <trkpt lat="41.895736008882523" lon="-3.260281970724464">
        <ele>1091.3</ele>
        <time>2018-05-27T07:18:53Z</time>
      </trkpt>
      <trkpt lat="41.895448006689548" lon="-3.259205985814333">
        <ele>1093.4000000000001</ele>
        <time>2018-05-27T07:19:18Z</time>
      </trkpt>
      <trkpt lat="41.895228987559676" lon="-3.258564015850425">
        <ele>1096.5</ele>
        <time>2018-05-27T07:19:34Z</time>
      </trkpt>
      <trkpt lat="41.895196968689561" lon="-3.258471982553601">
        <ele>1097.4000000000001</ele>
        <time>2018-05-27T07:19:36Z</time>
      </trkpt>
      <trkpt lat="41.894990019500256" lon="-3.257815008983016">
        <ele>1101.5</ele>
        <time>2018-05-27T07:19:52Z</time>
      </trkpt>
      <trkpt lat="41.894952971488237" lon="-3.257674025371671">
        <ele>1101.5999999999999</ele>
        <time>2018-05-27T07:19:55Z</time>
      </trkpt>
      <trkpt lat="41.894878959283233" lon="-3.257499011233449">
        <ele>1101.9000000000001</ele>
        <time>2018-05-27T07:20:00Z</time>
      </trkpt>
      <trkpt lat="41.89478499814868" lon="-3.2573720254004">
        <ele>1102.3</ele>
        <time>2018-05-27T07:20:04Z</time>
      </trkpt>
      <trkpt lat="41.894560027867556" lon="-3.25720002874732">
        <ele>1102.9000000000001</ele>
        <time>2018-05-27T07:20:11Z</time>
      </trkpt>
      <trkpt lat="41.894453996792436" lon="-3.256974974647164">
        <ele>1102.2</ele>
        <time>2018-05-27T07:20:17Z</time>
      </trkpt>
      <trkpt lat="41.894451985135674" lon="-3.256811024621129">
        <ele>1103.0999999999999</ele>
        <time>2018-05-27T07:20:21Z</time>
      </trkpt>
      <trkpt lat="41.894460031762719" lon="-3.25659703463316">
        <ele>1104.3</ele>
        <time>2018-05-27T07:20:26Z</time>
      </trkpt>
      <trkpt lat="41.89420698210597" lon="-3.256066041067243">
        <ele>1103.0999999999999</ele>
        <time>2018-05-27T07:20:39Z</time>
      </trkpt>
      <trkpt lat="41.893942030146718" lon="-3.255576035007834">
        <ele>1101</ele>
        <time>2018-05-27T07:20:53Z</time>
      </trkpt>
      <trkpt lat="41.893661990761757" lon="-3.25507496483624">
        <ele>1099.4000000000001</ele>
        <time>2018-05-27T07:21:07Z</time>
      </trkpt>
      <trkpt lat="41.893456969410181" lon="-3.254671040922403">
        <ele>1098.5999999999999</ele>
        <time>2018-05-27T07:21:17Z</time>
      </trkpt>
      <trkpt lat="41.893271980807185" lon="-3.25432201847434">
        <ele>1098</ele>
        <time>2018-05-27T07:21:27Z</time>
      </trkpt>
      <trkpt lat="41.892994958907366" lon="-3.25423501431942">
        <ele>1095.5</ele>
        <time>2018-05-27T07:21:35Z</time>
      </trkpt>
      <trkpt lat="41.89263797365129" lon="-3.254219004884362">
        <ele>1093.5999999999999</ele>
        <time>2018-05-27T07:21:46Z</time>
      </trkpt>
      <trkpt lat="41.892330022528768" lon="-3.253914993256331">
        <ele>1093.5</ele>
        <time>2018-05-27T07:21:57Z</time>
      </trkpt>
      <trkpt lat="41.891887960955501" lon="-3.253098009154201">
        <ele>1091.7</ele>
        <time>2018-05-27T07:22:20Z</time>
      </trkpt>
      <trkpt lat="41.891756029799581" lon="-3.252854011952877">
        <ele>1091.4000000000001</ele>
        <time>2018-05-27T07:22:26Z</time>
      </trkpt>
      <trkpt lat="41.891556037589908" lon="-3.252496020868421">
        <ele>1091.3</ele>
        <time>2018-05-27T07:22:36Z</time>
      </trkpt>
      <trkpt lat="41.891287984326482" lon="-3.252024035900831">
        <ele>1091.0999999999999</ele>
        <time>2018-05-27T07:22:49Z</time>
      </trkpt>
      <trkpt lat="41.890899986028671" lon="-3.251332025974989">
        <ele>1089.8</ele>
        <time>2018-05-27T07:23:08Z</time>
      </trkpt>
      <trkpt lat="41.890296991914511" lon="-3.25006996281445">
        <ele>1088.5999999999999</ele>
        <time>2018-05-27T07:23:41Z</time>
      </trkpt>
      <trkpt lat="41.8899089936167" lon="-3.249067990109325">
        <ele>1093.4000000000001</ele>
        <time>2018-05-27T07:24:06Z</time>
      </trkpt>
      <trkpt lat="41.889567011967301" lon="-3.24796199798584">
        <ele>1096.9000000000001</ele>
        <time>2018-05-27T07:24:33Z</time>
      </trkpt>
      <trkpt lat="41.88930700533092" lon="-3.246931023895741">
        <ele>1101.0999999999999</ele>
        <time>2018-05-27T07:24:57Z</time>
      </trkpt>
      <trkpt lat="41.889265011996031" lon="-3.246702030301094">
        <ele>1101.8</ele>
        <time>2018-05-27T07:25:02Z</time>
      </trkpt>
      <trkpt lat="41.889180019497871" lon="-3.246257035061717">
        <ele>1103</ele>
        <time>2018-05-27T07:25:12Z</time>
      </trkpt>
      <trkpt lat="41.888998970389366" lon="-3.245323039591312">
        <ele>1109.5</ele>
        <time>2018-05-27T07:25:33Z</time>
      </trkpt>
      <trkpt lat="41.888865027576685" lon="-3.244624994695187">
        <ele>1110.7</ele>
        <time>2018-05-27T07:25:49Z</time>
      </trkpt>
      <trkpt lat="41.888698982074857" lon="-3.243842041119933">
        <ele>1108</ele>
        <time>2018-05-27T07:26:07Z</time>
      </trkpt>
      <trkpt lat="41.88849002122879" lon="-3.243068978190422">
        <ele>1106.0999999999999</ele>
        <time>2018-05-27T07:26:25Z</time>
      </trkpt>
      <trkpt lat="41.888311989605427" lon="-3.242426002398133">
        <ele>1104</ele>
        <time>2018-05-27T07:26:41Z</time>
      </trkpt>
      <trkpt lat="41.888122977688909" lon="-3.241782020777464">
        <ele>1102.0999999999999</ele>
        <time>2018-05-27T07:26:56Z</time>
      </trkpt>
      <trkpt lat="41.887878980487585" lon="-3.240922037512064">
        <ele>1100.8</ele>
        <time>2018-05-27T07:27:16Z</time>
      </trkpt>
      <trkpt lat="41.887662978842854" lon="-3.240173030644655">
        <ele>1101.9000000000001</ele>
        <time>2018-05-27T07:27:34Z</time>
      </trkpt>
      <trkpt lat="41.887467009946704" lon="-3.239409020170569">
        <ele>1100.0999999999999</ele>
        <time>2018-05-27T07:27:52Z</time>
      </trkpt>
      <trkpt lat="41.887217983603477" lon="-3.23853000998497">
        <ele>1096.4000000000001</ele>
        <time>2018-05-27T07:28:12Z</time>
      </trkpt>
      <trkpt lat="41.886954959481955" lon="-3.237582016736269">
        <ele>1093.0999999999999</ele>
        <time>2018-05-27T07:28:35Z</time>
      </trkpt>
      <trkpt lat="41.886764019727707" lon="-3.236891012638807">
        <ele>1092.8</ele>
        <time>2018-05-27T07:28:51Z</time>
      </trkpt>
      <trkpt lat="41.886502001434565" lon="-3.235945031046867">
        <ele>1092.0999999999999</ele>
        <time>2018-05-27T07:29:13Z</time>
      </trkpt>
      <trkpt lat="41.886201007291675" lon="-3.234910033643246">
        <ele>1090.8</ele>
        <time>2018-05-27T07:29:38Z</time>
      </trkpt>
      <trkpt lat="41.885906970128417" lon="-3.233843017369509">
        <ele>1091.4000000000001</ele>
        <time>2018-05-27T07:30:03Z</time>
      </trkpt>
      <trkpt lat="41.885703960433602" lon="-3.233110019937158">
        <ele>1092.7</ele>
        <time>2018-05-27T07:30:20Z</time>
      </trkpt>
      <trkpt lat="41.885409001260996" lon="-3.232035040855408">
        <ele>1090.8</ele>
        <time>2018-05-27T07:30:45Z</time>
      </trkpt>
      <trkpt lat="41.885055033490062" lon="-3.230793010443449">
        <ele>1090</ele>
        <time>2018-05-27T07:31:15Z</time>
      </trkpt>
      <trkpt lat="41.884845988824964" lon="-3.230116004124284">
        <ele>1089.5</ele>
        <time>2018-05-27T07:31:31Z</time>
      </trkpt>
      <trkpt lat="41.884682960808277" lon="-3.22955098003149">
        <ele>1084.7</ele>
        <time>2018-05-27T07:31:44Z</time>
      </trkpt>
      <trkpt lat="41.884451033547521" lon="-3.228972963988781">
        <ele>1079.2</ele>
        <time>2018-05-27T07:31:59Z</time>
      </trkpt>
      <trkpt lat="41.884101005271077" lon="-3.228502990677953">
        <ele>1076</ele>
        <time>2018-05-27T07:32:13Z</time>
      </trkpt>
      <trkpt lat="41.88374100252986" lon="-3.228272991254926">
        <ele>1074.9000000000001</ele>
        <time>2018-05-27T07:32:25Z</time>
      </trkpt>
      <trkpt lat="41.883713006973267" lon="-3.228185987100005">
        <ele>1074.0999999999999</ele>
        <time>2018-05-27T07:32:27Z</time>
      </trkpt>
      <trkpt lat="41.883627008646727" lon="-3.228123039007187">
        <ele>1073.3</ele>
        <time>2018-05-27T07:32:30Z</time>
      </trkpt>
      <trkpt lat="41.883426010608673" lon="-3.227452989667654">
        <ele>1076.7</ele>
        <time>2018-05-27T07:32:46Z</time>
      </trkpt>
      <trkpt lat="41.883387034758925" lon="-3.226673975586891">
        <ele>1082.9000000000001</ele>
        <time>2018-05-27T07:33:04Z</time>
      </trkpt>
      <trkpt lat="41.883288966491818" lon="-3.226259993389249">
        <ele>1086.4000000000001</ele>
        <time>2018-05-27T07:33:13Z</time>
      </trkpt>
      <trkpt lat="41.883168015629053" lon="-3.225780967622995">
        <ele>1087.5</ele>
        <time>2018-05-27T07:33:24Z</time>
      </trkpt>
      <trkpt lat="41.883020997047424" lon="-3.225357010960579">
        <ele>1088.8</ele>
        <time>2018-05-27T07:33:35Z</time>
      </trkpt>
      <trkpt lat="41.882901974022388" lon="-3.22507998906076">
        <ele>1089.0999999999999</ele>
        <time>2018-05-27T07:33:42Z</time>
      </trkpt>
      <trkpt lat="41.882813964039087" lon="-3.224635999649763">
        <ele>1087.3</ele>
        <time>2018-05-27T07:33:52Z</time>
      </trkpt>
      <trkpt lat="41.882724026218057" lon="-3.224129984155297">
        <ele>1084</ele>
        <time>2018-05-27T07:34:03Z</time>
      </trkpt>
      <trkpt lat="41.882652025669813" lon="-3.223700998350978">
        <ele>1082.0999999999999</ele>
        <time>2018-05-27T07:34:13Z</time>
      </trkpt>
      <trkpt lat="41.88258002512157" lon="-3.223294978961349">
        <ele>1083.7</ele>
        <time>2018-05-27T07:34:22Z</time>
      </trkpt>
      <trkpt lat="41.882531996816397" lon="-3.2228899654001">
        <ele>1084.2</ele>
        <time>2018-05-27T07:34:31Z</time>
      </trkpt>
      <trkpt lat="41.882484974339604" lon="-3.222458967939019">
        <ele>1083.5</ele>
        <time>2018-05-27T07:34:41Z</time>
      </trkpt>
      <trkpt lat="41.88245396129787" lon="-3.222003998234868">
        <ele>1082.8</ele>
        <time>2018-05-27T07:34:51Z</time>
      </trkpt>
      <trkpt lat="41.882401993498206" lon="-3.221634021028876">
        <ele>1083.3</ele>
        <time>2018-05-27T07:34:59Z</time>
      </trkpt>
      <trkpt lat="41.882424037903547" lon="-3.221474010497332">
        <ele>1083.3</ele>
        <time>2018-05-27T07:35:03Z</time>
      </trkpt>
      <trkpt lat="41.882367040961981" lon="-3.221419025212526">
        <ele>1083.5999999999999</ele>
        <time>2018-05-27T07:35:05Z</time>
      </trkpt>
      <trkpt lat="41.882224967703223" lon="-3.221064973622561">
        <ele>1084.0999999999999</ele>
        <time>2018-05-27T07:35:14Z</time>
      </trkpt>
      <trkpt lat="41.882097981870174" lon="-3.220821982249618">
        <ele>1084.4000000000001</ele>
        <time>2018-05-27T07:35:20Z</time>
      </trkpt>
      <trkpt lat="41.881947023794055" lon="-3.220519982278347">
        <ele>1086.0999999999999</ele>
        <time>2018-05-27T07:35:28Z</time>
      </trkpt>
      <trkpt lat="41.881661033257842" lon="-3.220127038657665">
        <ele>1089.7</ele>
        <time>2018-05-27T07:35:41Z</time>
      </trkpt>
      <trkpt lat="41.881403038278222" lon="-3.219715990126133">
        <ele>1091.5</ele>
        <time>2018-05-27T07:35:52Z</time>
      </trkpt>
      <trkpt lat="41.88118401914835" lon="-3.21938599459827">
        <ele>1091.5</ele>
        <time>2018-05-27T07:36:02Z</time>
      </trkpt>
      <trkpt lat="41.880892999470234" lon="-3.218992967158556">
        <ele>1092.3</ele>
        <time>2018-05-27T07:36:14Z</time>
      </trkpt>
      <trkpt lat="41.880555041134357" lon="-3.218619972467423">
        <ele>1094.4000000000001</ele>
        <time>2018-05-27T07:36:27Z</time>
      </trkpt>
      <trkpt lat="41.880290005356073" lon="-3.218343034386635">
        <ele>1093.9000000000001</ele>
        <time>2018-05-27T07:36:37Z</time>
      </trkpt>
      <trkpt lat="41.88013200648129" lon="-3.218117980286479">
        <ele>1092.7</ele>
        <time>2018-05-27T07:36:44Z</time>
      </trkpt>
      <trkpt lat="41.880100993439555" lon="-3.218028964474797">
        <ele>1091.8</ele>
        <time>2018-05-27T07:36:46Z</time>
      </trkpt>
      <trkpt lat="41.88008900731802" lon="-3.217941038310528">
        <ele>1090.5</ele>
        <time>2018-05-27T07:36:48Z</time>
      </trkpt>
      <trkpt lat="41.880081966519356" lon="-3.217826960608363">
        <ele>1089.3</ele>
        <time>2018-05-27T07:36:51Z</time>
      </trkpt>
      <trkpt lat="41.880211969837546" lon="-3.217542981728911">
        <ele>1083.5999999999999</ele>
        <time>2018-05-27T07:36:58Z</time>
      </trkpt>
      <trkpt lat="41.880272990092635" lon="-3.217433011159301">
        <ele>1081.3</ele>
        <time>2018-05-27T07:37:02Z</time>
      </trkpt>
      <trkpt lat="41.880281958729029" lon="-3.217370985075831">
        <ele>1080.5</ele>
        <time>2018-05-27T07:37:03Z</time>
      </trkpt>
      <trkpt lat="41.880279025062919" lon="-3.217179039493203">
        <ele>1078.5999999999999</ele>
        <time>2018-05-27T07:37:07Z</time>
      </trkpt>
      <trkpt lat="41.880224039778113" lon="-3.21695800870657">
        <ele>1078.5999999999999</ele>
        <time>2018-05-27T07:37:12Z</time>
      </trkpt>
      <trkpt lat="41.880120020359755" lon="-3.216602029278874">
        <ele>1079.5999999999999</ele>
        <time>2018-05-27T07:37:21Z</time>
      </trkpt>
      <trkpt lat="41.880076015368104" lon="-3.216222999617457">
        <ele>1079.2</ele>
        <time>2018-05-27T07:37:29Z</time>
      </trkpt>
      <trkpt lat="41.879963027313352" lon="-3.21592703461647">
        <ele>1078.5</ele>
        <time>2018-05-27T07:37:37Z</time>
      </trkpt>
      <trkpt lat="41.879870994016528" lon="-3.215685971081257">
        <ele>1077.3</ele>
        <time>2018-05-27T07:37:43Z</time>
      </trkpt>
      <trkpt lat="41.879764962941408" lon="-3.21545597165823">
        <ele>1075.5999999999999</ele>
        <time>2018-05-27T07:37:49Z</time>
      </trkpt>
      <trkpt lat="41.879668990150094" lon="-3.215312976390123">
        <ele>1074.8</ele>
        <time>2018-05-27T07:37:53Z</time>
      </trkpt>
      <trkpt lat="41.879562037065625" lon="-3.215053975582123">
        <ele>1074</ele>
        <time>2018-05-27T07:37:59Z</time>
      </trkpt>
      <trkpt lat="41.879519959911704" lon="-3.214935958385468">
        <ele>1074</ele>
        <time>2018-05-27T07:38:02Z</time>
      </trkpt>
      <trkpt lat="41.879513002932072" lon="-3.214846020564437">
        <ele>1073.7</ele>
        <time>2018-05-27T07:38:04Z</time>
      </trkpt>
      <trkpt lat="41.879514008760452" lon="-3.214426003396511">
        <ele>1072.2</ele>
        <time>2018-05-27T07:38:13Z</time>
      </trkpt>
      <trkpt lat="41.879540998488665" lon="-3.214342016726732">
        <ele>1071.8</ele>
        <time>2018-05-27T07:38:16Z</time>
      </trkpt>
      <trkpt lat="41.879535969346762" lon="-3.213768023997545">
        <ele>1070.4000000000001</ele>
        <time>2018-05-27T07:38:28Z</time>
      </trkpt>
      <trkpt lat="41.879502022638917" lon="-3.213498964905739">
        <ele>1069.4000000000001</ele>
        <time>2018-05-27T07:38:34Z</time>
      </trkpt>
      <trkpt lat="41.879462040960789" lon="-3.213330991566181">
        <ele>1068.8</ele>
        <time>2018-05-27T07:38:38Z</time>
      </trkpt>
      <trkpt lat="41.879366990178823" lon="-3.213002001866698">
        <ele>1067.7</ele>
        <time>2018-05-27T07:38:46Z</time>
      </trkpt>
      <trkpt lat="41.879289038479328" lon="-3.212655996903777">
        <ele>1067.3</ele>
        <time>2018-05-27T07:38:54Z</time>
      </trkpt>
      <trkpt lat="41.879117041826248" lon="-3.212150987237692">
        <ele>1066.7</ele>
        <time>2018-05-27T07:39:06Z</time>
      </trkpt>
      <trkpt lat="41.87895099632442" lon="-3.211772041395307">
        <ele>1066.5999999999999</ele>
        <time>2018-05-27T07:39:16Z</time>
      </trkpt>
      <trkpt lat="41.878738012164831" lon="-3.211497031152248">
        <ele>1066.3</ele>
        <time>2018-05-27T07:39:25Z</time>
      </trkpt>
      <trkpt lat="41.878502983599901" lon="-3.211219003424048">
        <ele>1066.0999999999999</ele>
        <time>2018-05-27T07:39:34Z</time>
      </trkpt>
      <trkpt lat="41.878449004143476" lon="-3.211159994825721">
        <ele>1066.2</ele>
        <time>2018-05-27T07:39:36Z</time>
      </trkpt>
      <trkpt lat="41.878413967788219" lon="-3.211094029247761">
        <ele>1066.3</ele>
        <time>2018-05-27T07:39:38Z</time>
      </trkpt>
      <trkpt lat="41.878145998343825" lon="-3.210694966837764">
        <ele>1066.8</ele>
        <time>2018-05-27T07:39:50Z</time>
      </trkpt>
      <trkpt lat="41.878014989197254" lon="-3.210508972406387">
        <ele>1067</ele>
        <time>2018-05-27T07:39:55Z</time>
      </trkpt>
      <trkpt lat="41.877835029736161" lon="-3.210290037095547">
        <ele>1066.9000000000001</ele>
        <time>2018-05-27T07:40:02Z</time>
      </trkpt>
      <trkpt lat="41.877644006162882" lon="-3.209902038797736">
        <ele>1066.7</ele>
        <time>2018-05-27T07:40:13Z</time>
      </trkpt>
      <trkpt lat="41.877450970932841" lon="-3.209517979994416">
        <ele>1066.8</ele>
        <time>2018-05-27T07:40:23Z</time>
      </trkpt>
      <trkpt lat="41.877400008961558" lon="-3.209184966981411">
        <ele>1067.8</ele>
        <time>2018-05-27T07:40:30Z</time>
      </trkpt>
      <trkpt lat="41.877331025898457" lon="-3.208814989775419">
        <ele>1068.7</ele>
        <time>2018-05-27T07:40:39Z</time>
      </trkpt>
      <trkpt lat="41.877329014241695" lon="-3.208479965105653">
        <ele>1068.3</ele>
        <time>2018-05-27T07:40:46Z</time>
      </trkpt>
      <trkpt lat="41.877310993149877" lon="-3.208262035623193">
        <ele>1067.8</ele>
        <time>2018-05-27T07:40:51Z</time>
      </trkpt>
      <trkpt lat="41.877289032563567" lon="-3.207912007346749">
        <ele>1067</ele>
        <time>2018-05-27T07:40:59Z</time>
      </trkpt>
      <trkpt lat="41.877248967066407" lon="-3.207382019609213">
        <ele>1065.4000000000001</ele>
        <time>2018-05-27T07:41:10Z</time>
      </trkpt>
      <trkpt lat="41.877300012856722" lon="-3.207120001316071">
        <ele>1064.9000000000001</ele>
        <time>2018-05-27T07:41:16Z</time>
      </trkpt>
      <trkpt lat="41.877304958179593" lon="-3.206631001085043">
        <ele>1064.7</ele>
        <time>2018-05-27T07:41:27Z</time>
      </trkpt>
      <trkpt lat="41.87714503146708" lon="-3.206308968365192">
        <ele>1064.2</ele>
        <time>2018-05-27T07:41:36Z</time>
      </trkpt>
      <trkpt lat="41.876947972923517" lon="-3.206006968393922">
        <ele>1063.3</ele>
        <time>2018-05-27T07:41:45Z</time>
      </trkpt>
      <trkpt lat="41.876844959333539" lon="-3.205862967297435">
        <ele>1062.7</ele>
        <time>2018-05-27T07:41:49Z</time>
      </trkpt>
      <trkpt lat="41.87680103816092" lon="-3.205792978405953">
        <ele>1062.5</ele>
        <time>2018-05-27T07:41:51Z</time>
      </trkpt>
      <trkpt lat="41.87663197517395" lon="-3.205563984811306">
        <ele>1061.5999999999999</ele>
        <time>2018-05-27T07:41:58Z</time>
      </trkpt>
      <trkpt lat="41.876557962968946" lon="-3.205383019521833">
        <ele>1061.3</ele>
        <time>2018-05-27T07:42:03Z</time>
      </trkpt>
      <trkpt lat="41.876466013491154" lon="-3.205108009278774">
        <ele>1061.7</ele>
        <time>2018-05-27T07:42:09Z</time>
      </trkpt>
      <trkpt lat="41.876333998516202" lon="-3.20479704067111">
        <ele>1061.8</ele>
        <time>2018-05-27T07:42:17Z</time>
      </trkpt>
      <trkpt lat="41.87620198354125" lon="-3.204553965479136">
        <ele>1062</ele>
        <time>2018-05-27T07:42:24Z</time>
      </trkpt>
      <trkpt lat="41.876058988273144" lon="-3.204340981319547">
        <ele>1062.5</ele>
        <time>2018-05-27T07:42:30Z</time>
      </trkpt>
      <trkpt lat="41.876009032130241" lon="-3.204238973557949">
        <ele>1062.7</ele>
        <time>2018-05-27T07:42:33Z</time>
      </trkpt>
      <trkpt lat="41.875938959419727" lon="-3.204117016866803">
        <ele>1062.9000000000001</ele>
        <time>2018-05-27T07:42:36Z</time>
      </trkpt>
      <trkpt lat="41.87583401799202" lon="-3.203920964151621">
        <ele>1063.0999999999999</ele>
        <time>2018-05-27T07:42:42Z</time>
      </trkpt>
      <trkpt lat="41.87568498775363" lon="-3.203657018020749">
        <ele>1063.3</ele>
        <time>2018-05-27T07:42:49Z</time>
      </trkpt>
      <trkpt lat="41.875505028292537" lon="-3.203518968075514">
        <ele>1063.5</ele>
        <time>2018-05-27T07:42:55Z</time>
      </trkpt>
      <trkpt lat="41.875478038564324" lon="-3.203460965305567">
        <ele>1063.8</ele>
        <time>2018-05-27T07:42:57Z</time>
      </trkpt>
      <trkpt lat="41.875480972230434" lon="-3.203390976414084">
        <ele>1064.2</ele>
        <time>2018-05-27T07:42:58Z</time>
      </trkpt>
      <trkpt lat="41.875456999987364" lon="-3.203288968652487">
        <ele>1064.8</ele>
        <time>2018-05-27T07:43:01Z</time>
      </trkpt>
      <trkpt lat="41.875247033312917" lon="-3.202952016144991">
        <ele>1068.8</ele>
        <time>2018-05-27T07:43:10Z</time>
      </trkpt>
      <trkpt lat="41.875171009451151" lon="-3.202937012538314">
        <ele>1069.8</ele>
        <time>2018-05-27T07:43:13Z</time>
      </trkpt>
      <trkpt lat="41.874919971451163" lon="-3.202852020040155">
        <ele>1072.9000000000001</ele>
        <time>2018-05-27T07:43:20Z</time>
      </trkpt>
      <trkpt lat="41.874798014760017" lon="-3.202760992571712">
        <ele>1074.0999999999999</ele>
        <time>2018-05-27T07:43:24Z</time>
      </trkpt>
      <trkpt lat="41.874586958438158" lon="-3.202568963170052">
        <ele>1075.7</ele>
        <time>2018-05-27T07:43:32Z</time>
      </trkpt>
      <trkpt lat="41.874316977337003" lon="-3.202343992888928">
        <ele>1076</ele>
        <time>2018-05-27T07:43:41Z</time>
      </trkpt>
      <trkpt lat="41.874269032850862" lon="-3.202310968190432">
        <ele>1076.0999999999999</ele>
        <time>2018-05-27T07:43:43Z</time>
      </trkpt>
      <trkpt lat="41.873976001515985" lon="-3.202107036486268">
        <ele>1077</ele>
        <time>2018-05-27T07:43:53Z</time>
      </trkpt>
      <trkpt lat="41.873697973787785" lon="-3.202021960169077">
        <ele>1078</ele>
        <time>2018-05-27T07:44:01Z</time>
      </trkpt>
      <trkpt lat="41.873402008786798" lon="-3.201937973499298">
        <ele>1079</ele>
        <time>2018-05-27T07:44:10Z</time>
      </trkpt>
      <trkpt lat="41.873104032129049" lon="-3.201895980164409">
        <ele>1080.0999999999999</ele>
        <time>2018-05-27T07:44:19Z</time>
      </trkpt>
      <trkpt lat="41.87304301187396" lon="-3.201865972951055">
        <ele>1080.2</ele>
        <time>2018-05-27T07:44:21Z</time>
      </trkpt>
      <trkpt lat="41.872824998572469" lon="-3.201791038736701">
        <ele>1081.0999999999999</ele>
        <time>2018-05-27T07:44:28Z</time>
      </trkpt>
      <trkpt lat="41.872549988329411" lon="-3.201734963804483">
        <ele>1082.4000000000001</ele>
        <time>2018-05-27T07:44:36Z</time>
      </trkpt>
      <trkpt lat="41.872482011094689" lon="-3.201714009046555">
        <ele>1082.7</ele>
        <time>2018-05-27T07:44:38Z</time>
      </trkpt>
      <trkpt lat="41.872240025550127" lon="-3.201578976586461">
        <ele>1083.5</ele>
        <time>2018-05-27T07:44:46Z</time>
      </trkpt>
      <trkpt lat="41.871960991993546" lon="-3.201457019895315">
        <ele>1084.8</ele>
        <time>2018-05-27T07:44:54Z</time>
      </trkpt>
      <trkpt lat="41.871785977855325" lon="-3.201378984376788">
        <ele>1086.0999999999999</ele>
        <time>2018-05-27T07:45:00Z</time>
      </trkpt>
      <trkpt lat="41.871634013950825" lon="-3.201213022693992">
        <ele>1086.9000000000001</ele>
        <time>2018-05-27T07:45:06Z</time>
      </trkpt>
      <trkpt lat="41.871595960110426" lon="-3.200711030513048">
        <ele>1089.2</ele>
        <time>2018-05-27T07:45:17Z</time>
      </trkpt>
      <trkpt lat="41.871627978980541" lon="-3.200339963659644">
        <ele>1090.9000000000001</ele>
        <time>2018-05-27T07:45:25Z</time>
      </trkpt>
      <trkpt lat="41.871607024222612" lon="-3.199844006448984">
        <ele>1095.9000000000001</ele>
        <time>2018-05-27T07:45:36Z</time>
      </trkpt>
      <trkpt lat="41.871578022837639" lon="-3.199631022289395">
        <ele>1098.2</ele>
        <time>2018-05-27T07:45:41Z</time>
      </trkpt>
      <trkpt lat="41.871476015076041" lon="-3.199289962649345">
        <ele>1099.0999999999999</ele>
        <time>2018-05-27T07:45:49Z</time>
      </trkpt>
      <trkpt lat="41.871293960139155" lon="-3.198972959071398">
        <ele>1100</ele>
        <time>2018-05-27T07:45:58Z</time>
      </trkpt>
      <trkpt lat="41.87119597569108" lon="-3.198754023760557">
        <ele>1100.5</ele>
        <time>2018-05-27T07:46:04Z</time>
      </trkpt>
      <trkpt lat="41.871155994012952" lon="-3.198627037927508">
        <ele>1100.0999999999999</ele>
        <time>2018-05-27T07:46:07Z</time>
      </trkpt>
      <trkpt lat="41.87113001011312" lon="-3.198449006304145">
        <ele>1099.3</ele>
        <time>2018-05-27T07:46:11Z</time>
      </trkpt>
      <trkpt lat="41.871084999293089" lon="-3.198277009651065">
        <ele>1098.8</ele>
        <time>2018-05-27T07:46:15Z</time>
      </trkpt>
      <trkpt lat="41.871057003736496" lon="-3.198005016893148">
        <ele>1097.5999999999999</ele>
        <time>2018-05-27T07:46:21Z</time>
      </trkpt>
      <trkpt lat="41.871037976816297" lon="-3.197805024683476">
        <ele>1096.7</ele>
        <time>2018-05-27T07:46:25Z</time>
      </trkpt>
      <trkpt lat="41.870973017066717" lon="-3.197554992511869">
        <ele>1096</ele>
        <time>2018-05-27T07:46:31Z</time>
      </trkpt>
      <trkpt lat="41.870934041216969" lon="-3.197363968938589">
        <ele>1095.3</ele>
        <time>2018-05-27T07:46:35Z</time>
      </trkpt>
      <trkpt lat="41.870877966284752" lon="-3.197252992540598">
        <ele>1095.0999999999999</ele>
        <time>2018-05-27T07:46:38Z</time>
      </trkpt>
      <trkpt lat="41.87080797739327" lon="-3.196949986740947">
        <ele>1093.7</ele>
        <time>2018-05-27T07:46:45Z</time>
      </trkpt>
      <trkpt lat="41.870775036513805" lon="-3.19669802673161">
        <ele>1092</ele>
        <time>2018-05-27T07:46:51Z</time>
      </trkpt>
      <trkpt lat="41.870763972401619" lon="-3.196491999551654">
        <ele>1090.4000000000001</ele>
        <time>2018-05-27T07:46:56Z</time>
      </trkpt>
      <trkpt lat="41.870718039572239" lon="-3.196390997618437">
        <ele>1090</ele>
        <time>2018-05-27T07:46:58Z</time>
      </trkpt>
      <trkpt lat="41.870643021538854" lon="-3.196238027885556">
        <ele>1089.2</ele>
        <time>2018-05-27T07:47:02Z</time>
      </trkpt>
      <trkpt lat="41.870623994618654" lon="-3.196173990145326">
        <ele>1088.4000000000001</ele>
        <time>2018-05-27T07:47:04Z</time>
      </trkpt>
      <trkpt lat="41.870519975200295" lon="-3.195981038734317">
        <ele>1086.3</ele>
        <time>2018-05-27T07:47:09Z</time>
      </trkpt>
      <trkpt lat="41.870488040149212" lon="-3.19588397629559">
        <ele>1085</ele>
        <time>2018-05-27T07:47:11Z</time>
      </trkpt>
      <trkpt lat="41.870412016287446" lon="-3.195658000186086">
        <ele>1081.8</ele>
        <time>2018-05-27T07:47:17Z</time>
      </trkpt>
      <trkpt lat="41.870333980768919" lon="-3.195450967177749">
        <ele>1078.5999999999999</ele>
        <time>2018-05-27T07:47:22Z</time>
      </trkpt>
      <trkpt lat="41.870273966342211" lon="-3.195291040465236">
        <ele>1077.4000000000001</ele>
        <time>2018-05-27T07:47:26Z</time>
      </trkpt>
      <trkpt lat="41.87024999409914" lon="-3.195200012996793">
        <ele>1076.8</ele>
        <time>2018-05-27T07:47:28Z</time>
      </trkpt>
      <trkpt lat="41.870214035734534" lon="-3.194960039108992">
        <ele>1075.2</ele>
        <time>2018-05-27T07:47:34Z</time>
      </trkpt>
      <trkpt lat="41.870182016864419" lon="-3.194586038589478">
        <ele>1072.7</ele>
        <time>2018-05-27T07:47:42Z</time>
      </trkpt>
      <trkpt lat="41.870192997157574" lon="-3.194220000877976">
        <ele>1072.7</ele>
        <time>2018-05-27T07:47:50Z</time>
      </trkpt>
      <trkpt lat="41.870208000764251" lon="-3.194105001166463">
        <ele>1072.7</ele>
        <time>2018-05-27T07:47:53Z</time>
      </trkpt>
      <trkpt lat="41.870149997994304" lon="-3.193692024797201">
        <ele>1072.0999999999999</ele>
        <time>2018-05-27T07:48:02Z</time>
      </trkpt>
      <trkpt lat="41.870161984115839" lon="-3.193258009850979">
        <ele>1072.2</ele>
        <time>2018-05-27T07:48:11Z</time>
      </trkpt>
      <trkpt lat="41.870283018797636" lon="-3.192838998511434">
        <ele>1072.2</ele>
        <time>2018-05-27T07:48:21Z</time>
      </trkpt>
      <trkpt lat="41.870396006852388" lon="-3.192454017698765">
        <ele>1070.8</ele>
        <time>2018-05-27T07:48:31Z</time>
      </trkpt>
      <trkpt lat="41.870433976873755" lon="-3.192375982180238">
        <ele>1070.5</ele>
        <time>2018-05-27T07:48:33Z</time>
      </trkpt>
      <trkpt lat="41.870469013229012" lon="-3.192317979410291">
        <ele>1070.4000000000001</ele>
        <time>2018-05-27T07:48:34Z</time>
      </trkpt>
      <trkpt lat="41.870448980480433" lon="-3.192241033539176">
        <ele>1069.9000000000001</ele>
        <time>2018-05-27T07:48:36Z</time>
      </trkpt>
      <trkpt lat="41.870340015739202" lon="-3.192060990259051">
        <ele>1069.2</ele>
        <time>2018-05-27T07:48:41Z</time>
      </trkpt>
      <trkpt lat="41.870295004919171" lon="-3.191960994154215">
        <ele>1069.3</ele>
        <time>2018-05-27T07:48:44Z</time>
      </trkpt>
      <trkpt lat="41.87022702768445" lon="-3.191852029412985">
        <ele>1069.5999999999999</ele>
        <time>2018-05-27T07:48:47Z</time>
      </trkpt>
      <trkpt lat="41.870128959417343" lon="-3.191704005002976">
        <ele>1070.2</ele>
        <time>2018-05-27T07:48:51Z</time>
      </trkpt>
      <trkpt lat="41.87005503103137" lon="-3.191610965877771">
        <ele>1070.8</ele>
        <time>2018-05-27T07:48:54Z</time>
      </trkpt>
      <trkpt lat="41.869935002177954" lon="-3.191417008638382">
        <ele>1072.0999999999999</ele>
        <time>2018-05-27T07:49:00Z</time>
      </trkpt>
      <trkpt lat="41.869898037984967" lon="-3.191355988383293">
        <ele>1072.5999999999999</ele>
        <time>2018-05-27T07:49:02Z</time>
      </trkpt>
      <trkpt lat="41.869814973324537" lon="-3.191289016976953">
        <ele>1073.5999999999999</ele>
        <time>2018-05-27T07:49:04Z</time>
      </trkpt>
      <trkpt lat="41.869639959186316" lon="-3.191457996144891">
        <ele>1074.3</ele>
        <time>2018-05-27T07:49:11Z</time>
      </trkpt>
      <trkpt lat="41.869405014440417" lon="-3.191538965329528">
        <ele>1075.3</ele>
        <time>2018-05-27T07:49:18Z</time>
      </trkpt>
      <trkpt lat="41.869341982528567" lon="-3.191509963944554">
        <ele>1075.8</ele>
        <time>2018-05-27T07:49:20Z</time>
      </trkpt>
      <trkpt lat="41.86908801086247" lon="-3.191211987286806">
        <ele>1078.5</ele>
        <time>2018-05-27T07:49:30Z</time>
      </trkpt>
      <trkpt lat="41.869043000042439" lon="-3.191045019775629">
        <ele>1079.0999999999999</ele>
        <time>2018-05-27T07:49:34Z</time>
      </trkpt>
      <trkpt lat="41.868997989222407" lon="-3.190924990922213">
        <ele>1079.8</ele>
        <time>2018-05-27T07:49:37Z</time>
      </trkpt>
      <trkpt lat="41.868879972025752" lon="-3.19044797681272">
        <ele>1082.5</ele>
        <time>2018-05-27T07:49:48Z</time>
      </trkpt>
      <trkpt lat="41.86872398480773" lon="-3.189912959933281">
        <ele>1083.7</ele>
        <time>2018-05-27T07:50:01Z</time>
      </trkpt>
      <trkpt lat="41.868686014786363" lon="-3.189829979091883">
        <ele>1083.9000000000001</ele>
        <time>2018-05-27T07:50:03Z</time>
      </trkpt>
      <trkpt lat="41.868500020354986" lon="-3.189397975802422">
        <ele>1083.5</ele>
        <time>2018-05-27T07:50:14Z</time>
      </trkpt>
      <trkpt lat="41.86837999150157" lon="-3.188934959471226">
        <ele>1079.9000000000001</ele>
        <time>2018-05-27T07:50:25Z</time>
      </trkpt>
      <trkpt lat="41.868246970698237" lon="-3.188546961173415">
        <ele>1077.7</ele>
        <time>2018-05-27T07:50:34Z</time>
      </trkpt>
      <trkpt lat="41.867876993492246" lon="-3.187895016744733">
        <ele>1076</ele>
        <time>2018-05-27T07:50:52Z</time>
      </trkpt>
      <trkpt lat="41.867739027366042" lon="-3.187364023178816">
        <ele>1076.3</ele>
        <time>2018-05-27T07:51:05Z</time>
      </trkpt>
      <trkpt lat="41.867600977420807" lon="-3.18703000433743">
        <ele>1075.3</ele>
        <time>2018-05-27T07:51:13Z</time>
      </trkpt>
      <trkpt lat="41.867443984374404" lon="-3.186691962182522">
        <ele>1073.2</ele>
        <time>2018-05-27T07:51:22Z</time>
      </trkpt>
      <trkpt lat="41.867394028231502" lon="-3.186274040490389">
        <ele>1071.8</ele>
        <time>2018-05-27T07:51:31Z</time>
      </trkpt>
      <trkpt lat="41.867356980219483" lon="-3.185913031920791">
        <ele>1070.2</ele>
        <time>2018-05-27T07:51:39Z</time>
      </trkpt>
      <trkpt lat="41.867266036570072" lon="-3.185629975050688">
        <ele>1068.4000000000001</ele>
        <time>2018-05-27T07:51:46Z</time>
      </trkpt>
      <trkpt lat="41.867150031030178" lon="-3.185367034748197">
        <ele>1066.5</ele>
        <time>2018-05-27T07:51:53Z</time>
      </trkpt>
      <trkpt lat="41.866970993578434" lon="-3.185043996199966">
        <ele>1064.7</ele>
        <time>2018-05-27T07:52:02Z</time>
      </trkpt>
      <trkpt lat="41.866864962503314" lon="-3.184792036190629">
        <ele>1064</ele>
        <time>2018-05-27T07:52:08Z</time>
      </trkpt>
      <trkpt lat="41.866878038272262" lon="-3.184645017609">
        <ele>1063.8</ele>
        <time>2018-05-27T07:52:11Z</time>
      </trkpt>
      <trkpt lat="41.866893963888288" lon="-3.184287026524544">
        <ele>1062.9000000000001</ele>
        <time>2018-05-27T07:52:19Z</time>
      </trkpt>
      <trkpt lat="41.866899998858571" lon="-3.184202034026384">
        <ele>1062.7</ele>
        <time>2018-05-27T07:52:21Z</time>
      </trkpt>
      <trkpt lat="41.866895975545049" lon="-3.184073958545923">
        <ele>1062.4000000000001</ele>
        <time>2018-05-27T07:52:24Z</time>
      </trkpt>
      <trkpt lat="41.866908967494965" lon="-3.183814035728574">
        <ele>1061.5999999999999</ele>
        <time>2018-05-27T07:52:30Z</time>
      </trkpt>
      <trkpt lat="41.866924976930022" lon="-3.183752009645104">
        <ele>1061.4000000000001</ele>
        <time>2018-05-27T07:52:31Z</time>
      </trkpt>
      <trkpt lat="41.866998989135027" lon="-3.183545982465148">
        <ele>1061.9000000000001</ele>
        <time>2018-05-27T07:52:36Z</time>
      </trkpt>
      <trkpt lat="41.867084987461567" lon="-3.183301985263825">
        <ele>1062.5999999999999</ele>
        <time>2018-05-27T07:52:42Z</time>
      </trkpt>
      <trkpt lat="41.867105020210147" lon="-3.183180028572679">
        <ele>1063</ele>
        <time>2018-05-27T07:52:45Z</time>
      </trkpt>
      <trkpt lat="41.867228988558054" lon="-3.182559013366699">
        <ele>1065</ele>
        <time>2018-05-27T07:52:59Z</time>
      </trkpt>
      <trkpt lat="41.867314986884594" lon="-3.181943027302623">
        <ele>1066.5</ele>
        <time>2018-05-27T07:53:13Z</time>
      </trkpt>
      <trkpt lat="41.867342982441187" lon="-3.181816963478923">
        <ele>1066.5</ele>
        <time>2018-05-27T07:53:16Z</time>
      </trkpt>
      <trkpt lat="41.867522019892931" lon="-3.181079020723701">
        <ele>1066.5</ele>
        <time>2018-05-27T07:53:33Z</time>
      </trkpt>
      <trkpt lat="41.867640959098935" lon="-3.180837035179138">
        <ele>1066.5</ele>
        <time>2018-05-27T07:53:39Z</time>
      </trkpt>
      <trkpt lat="41.867729974910617" lon="-3.180578034371138">
        <ele>1067.0999999999999</ele>
        <time>2018-05-27T07:53:46Z</time>
      </trkpt>
      <trkpt lat="41.867775991559029" lon="-3.180233035236597">
        <ele>1067.8</ele>
        <time>2018-05-27T07:53:53Z</time>
      </trkpt>
      <trkpt lat="41.86794999986887" lon="-3.179717967286706">
        <ele>1068.9000000000001</ele>
        <time>2018-05-27T07:54:06Z</time>
      </trkpt>
      <trkpt lat="41.868175975978374" lon="-3.179161995649338">
        <ele>1068.7</ele>
        <time>2018-05-27T07:54:20Z</time>
      </trkpt>
      <trkpt lat="41.868366999551654" lon="-3.178539974614978">
        <ele>1069</ele>
        <time>2018-05-27T07:54:35Z</time>
      </trkpt>
      <trkpt lat="41.868588030338287" lon="-3.178120963275433">
        <ele>1069.5999999999999</ele>
        <time>2018-05-27T07:54:46Z</time>
      </trkpt>
      <trkpt lat="41.868847031146288" lon="-3.177765989676118">
        <ele>1071.8</ele>
        <time>2018-05-27T07:54:57Z</time>
      </trkpt>
      <trkpt lat="41.868962030857801" lon="-3.177583012729883">
        <ele>1073.8</ele>
        <time>2018-05-27T07:55:02Z</time>
      </trkpt>
      <trkpt lat="41.868963958695531" lon="-3.177273971959949">
        <ele>1075.5999999999999</ele>
        <time>2018-05-27T07:55:09Z</time>
      </trkpt>
      <trkpt lat="41.868865974247456" lon="-3.176949005573988">
        <ele>1076.5999999999999</ele>
        <time>2018-05-27T07:55:17Z</time>
      </trkpt>
      <trkpt lat="41.868777964264154" lon="-3.176342993974686">
        <ele>1077</ele>
        <time>2018-05-27T07:55:31Z</time>
      </trkpt>
      <trkpt lat="41.868749968707561" lon="-3.17579397931695">
        <ele>1075.4000000000001</ele>
        <time>2018-05-27T07:55:43Z</time>
      </trkpt>
      <trkpt lat="41.868705041706562" lon="-3.175185034051538">
        <ele>1074.5</ele>
        <time>2018-05-27T07:55:56Z</time>
      </trkpt>
      <trkpt lat="41.868718033656478" lon="-3.174331001937389">
        <ele>1077.5</ele>
        <time>2018-05-27T07:56:15Z</time>
      </trkpt>
      <trkpt lat="41.868753992021084" lon="-3.174022966995835">
        <ele>1078.7</ele>
        <time>2018-05-27T07:56:22Z</time>
      </trkpt>
      <trkpt lat="41.868868991732597" lon="-3.173663970082998">
        <ele>1080.8</ele>
        <time>2018-05-27T07:56:31Z</time>
      </trkpt>
      <trkpt lat="41.869062026962638" lon="-3.173086037859321">
        <ele>1083</ele>
        <time>2018-05-27T07:56:45Z</time>
      </trkpt>
      <trkpt lat="41.869247015565634" lon="-3.172581028193235">
        <ele>1082.5999999999999</ele>
        <time>2018-05-27T07:56:57Z</time>
      </trkpt>
      <trkpt lat="41.869477014988661" lon="-3.171942997723818">
        <ele>1081.5999999999999</ele>
        <time>2018-05-27T07:57:13Z</time>
      </trkpt>
      <trkpt lat="41.869577011093497" lon="-3.171547036617994">
        <ele>1081.3</ele>
        <time>2018-05-27T07:57:22Z</time>
      </trkpt>
      <trkpt lat="41.869695028290153" lon="-3.171223998069763">
        <ele>1081.5</ele>
        <time>2018-05-27T07:57:30Z</time>
      </trkpt>
      <trkpt lat="41.869638031348586" lon="-3.170972038060427">
        <ele>1082.5</ele>
        <time>2018-05-27T07:57:36Z</time>
      </trkpt>
      <trkpt lat="41.869370983913541" lon="-3.170322021469474">
        <ele>1084.3</ele>
        <time>2018-05-27T07:57:52Z</time>
      </trkpt>
      <trkpt lat="41.8693040125072" lon="-3.170144995674491">
        <ele>1084.5999999999999</ele>
        <time>2018-05-27T07:57:56Z</time>
      </trkpt>
      <trkpt lat="41.869327984750271" lon="-3.170079030096531">
        <ele>1085</ele>
        <time>2018-05-27T07:57:58Z</time>
      </trkpt>
      <trkpt lat="41.869292026385665" lon="-3.169997977092862">
        <ele>1085.0999999999999</ele>
        <time>2018-05-27T07:58:00Z</time>
      </trkpt>
      <trkpt lat="41.869237963110209" lon="-3.169679967686534">
        <ele>1085.8</ele>
        <time>2018-05-27T07:58:07Z</time>
      </trkpt>
      <trkpt lat="41.869440972805023" lon="-3.169487016275525">
        <ele>1087.5999999999999</ele>
        <time>2018-05-27T07:58:15Z</time>
      </trkpt>
      <trkpt lat="41.86971103772521" lon="-3.169393977150321">
        <ele>1087.3</ele>
        <time>2018-05-27T07:58:23Z</time>
      </trkpt>
      <trkpt lat="41.86997096054256" lon="-3.16922097466886">
        <ele>1084.4000000000001</ele>
        <time>2018-05-27T07:58:32Z</time>
      </trkpt>
      <trkpt lat="41.870044972747564" lon="-3.169275037944317">
        <ele>1083.8</ele>
        <time>2018-05-27T07:58:34Z</time>
      </trkpt>
      <trkpt lat="41.87007799744606" lon="-3.169199014082551">
        <ele>1083.3</ele>
        <time>2018-05-27T07:58:36Z</time>
      </trkpt>
      <trkpt lat="41.870114039629698" lon="-3.169056018814445">
        <ele>1082.5999999999999</ele>
        <time>2018-05-27T07:58:39Z</time>
      </trkpt>
      <trkpt lat="41.87010096386075" lon="-3.168972032144666">
        <ele>1082.5999999999999</ele>
        <time>2018-05-27T07:58:41Z</time>
      </trkpt>
      <trkpt lat="41.870101969689131" lon="-3.168886033818126">
        <ele>1082.3</ele>
        <time>2018-05-27T07:58:43Z</time>
      </trkpt>
      <trkpt lat="41.87010096386075" lon="-3.168421005830169">
        <ele>1080.2</ele>
        <time>2018-05-27T07:58:53Z</time>
      </trkpt>
      <trkpt lat="41.870128037407994" lon="-3.168299971148372">
        <ele>1079.4000000000001</ele>
        <time>2018-05-27T07:58:56Z</time>
      </trkpt>
      <trkpt lat="41.870090989395976" lon="-3.168085981160402">
        <ele>1078.4000000000001</ele>
        <time>2018-05-27T07:59:01Z</time>
      </trkpt>
      <trkpt lat="41.86979603022337" lon="-3.16764903254807">
        <ele>1075.7</ele>
        <time>2018-05-27T07:59:14Z</time>
      </trkpt>
      <trkpt lat="41.869329996407032" lon="-3.167385002598167">
        <ele>1073.5</ele>
        <time>2018-05-27T07:59:29Z</time>
      </trkpt>
      <trkpt lat="41.869221031665802" lon="-3.167374022305012">
        <ele>1073.0999999999999</ele>
        <time>2018-05-27T07:59:32Z</time>
      </trkpt>
      <trkpt lat="41.86936997808516" lon="-3.166804974898696">
        <ele>1071.5</ele>
        <time>2018-05-27T07:59:46Z</time>
      </trkpt>
      <trkpt lat="41.869422029703856" lon="-3.166517978534102">
        <ele>1071.5999999999999</ele>
        <time>2018-05-27T07:59:52Z</time>
      </trkpt>
      <trkpt lat="41.868969993665814" lon="-3.166422005742788">
        <ele>1070.5</ele>
        <time>2018-05-27T08:00:06Z</time>
      </trkpt>
      <trkpt lat="41.868804031983018" lon="-3.166477996855974">
        <ele>1070.0999999999999</ele>
        <time>2018-05-27T08:00:11Z</time>
      </trkpt>
      <trkpt lat="41.868268009275198" lon="-3.166548991575837">
        <ele>1068.3</ele>
        <time>2018-05-27T08:00:27Z</time>
      </trkpt>
      <trkpt lat="41.867914041504264" lon="-3.166379006579518">
        <ele>1067</ele>
        <time>2018-05-27T08:00:38Z</time>
      </trkpt>
      <trkpt lat="41.867665015161037" lon="-3.16599796526134">
        <ele>1070</ele>
        <time>2018-05-27T08:00:49Z</time>
      </trkpt>
      <trkpt lat="41.867580022662878" lon="-3.165750028565526">
        <ele>1071.3</ele>
        <time>2018-05-27T08:00:55Z</time>
      </trkpt>
      <trkpt lat="41.867127986624837" lon="-3.164232987910509">
        <ele>1073.0999999999999</ele>
        <time>2018-05-27T08:01:31Z</time>
      </trkpt>
      <trkpt lat="41.867061015218496" lon="-3.164074989035726">
        <ele>1073.3</ele>
        <time>2018-05-27T08:01:35Z</time>
      </trkpt>
      <trkpt lat="41.866763960570097" lon="-3.163550030440092">
        <ele>1076.2</ele>
        <time>2018-05-27T08:01:50Z</time>
      </trkpt>
      <trkpt lat="41.86666295863688" lon="-3.163250964134932">
        <ele>1076.9000000000001</ele>
        <time>2018-05-27T08:01:57Z</time>
      </trkpt>
      <trkpt lat="41.866514012217522" lon="-3.162721982225776">
        <ele>1078.0999999999999</ele>
        <time>2018-05-27T08:02:09Z</time>
      </trkpt>
      <trkpt lat="41.866107992827892" lon="-3.161863004788756">
        <ele>1078</ele>
        <time>2018-05-27T08:02:32Z</time>
      </trkpt>
      <trkpt lat="41.865736003965139" lon="-3.161135036498308">
        <ele>1075</ele>
        <time>2018-05-27T08:02:51Z</time>
      </trkpt>
      <trkpt lat="41.865265024825931" lon="-3.160520978271961">
        <ele>1072.2</ele>
        <time>2018-05-27T08:03:11Z</time>
      </trkpt>
      <trkpt lat="41.864772001281381" lon="-3.159875990822911">
        <ele>1070.3</ele>
        <time>2018-05-27T08:03:31Z</time>
      </trkpt>
      <trkpt lat="41.864238996058702" lon="-3.159007038921118">
        <ele>1069.4000000000001</ele>
        <time>2018-05-27T08:03:56Z</time>
      </trkpt>
      <trkpt lat="41.863691993057728" lon="-3.158274041488767">
        <ele>1069.0999999999999</ele>
        <time>2018-05-27T08:04:19Z</time>
      </trkpt>
      <trkpt lat="41.863296031951904" lon="-3.157698959112167">
        <ele>1071.3</ele>
        <time>2018-05-27T08:04:36Z</time>
      </trkpt>
      <trkpt lat="41.863120011985302" lon="-3.15701499581337">
        <ele>1076.0999999999999</ele>
        <time>2018-05-27T08:04:52Z</time>
      </trkpt>
      <trkpt lat="41.862931000068784" lon="-3.156323991715908">
        <ele>1075.2</ele>
        <time>2018-05-27T08:05:08Z</time>
      </trkpt>
      <trkpt lat="41.86266303062439" lon="-3.155685961246491">
        <ele>1071.8</ele>
        <time>2018-05-27T08:05:25Z</time>
      </trkpt>
      <trkpt lat="41.862367987632751" lon="-3.154932009056211">
        <ele>1069.8</ele>
        <time>2018-05-27T08:05:43Z</time>
      </trkpt>
      <trkpt lat="41.862036986276507" lon="-3.154164981096983">
        <ele>1064.9000000000001</ele>
        <time>2018-05-27T08:06:03Z</time>
      </trkpt>
      <trkpt lat="41.861727023497224" lon="-3.153394013643265">
        <ele>1059.5</ele>
        <time>2018-05-27T08:06:22Z</time>
      </trkpt>
      <trkpt lat="41.861438015475869" lon="-3.152685994282365">
        <ele>1057</ele>
        <time>2018-05-27T08:06:40Z</time>
      </trkpt>
      <trkpt lat="41.861202986910939" lon="-3.152147959917784">
        <ele>1055.0999999999999</ele>
        <time>2018-05-27T08:06:54Z</time>
      </trkpt>
      <trkpt lat="41.860978016629815" lon="-3.15196699462831">
        <ele>1055</ele>
        <time>2018-05-27T08:07:02Z</time>
      </trkpt>
      <trkpt lat="41.86098899692297" lon="-3.151820981875062">
        <ele>1055.0999999999999</ele>
        <time>2018-05-27T08:07:05Z</time>
      </trkpt>
      <trkpt lat="41.860972987487912" lon="-3.151431977748871">
        <ele>1055.3</ele>
        <time>2018-05-27T08:07:14Z</time>
      </trkpt>
      <trkpt lat="41.860830998048186" lon="-3.151040961965919">
        <ele>1055.5999999999999</ele>
        <time>2018-05-27T08:07:23Z</time>
      </trkpt>
      <trkpt lat="41.860613990575075" lon="-3.150628991425037">
        <ele>1055.5</ele>
        <time>2018-05-27T08:07:34Z</time>
      </trkpt>
      <trkpt lat="41.860510976985097" lon="-3.150180978700519">
        <ele>1055</ele>
        <time>2018-05-27T08:07:45Z</time>
      </trkpt>
      <trkpt lat="41.860466971993446" lon="-3.149684015661478">
        <ele>1054.3</ele>
        <time>2018-05-27T08:07:56Z</time>
      </trkpt>
      <trkpt lat="41.860461020842195" lon="-3.148993011564016">
        <ele>1059.5</ele>
        <time>2018-05-27T08:08:11Z</time>
      </trkpt>
      <trkpt lat="41.860472001135349" lon="-3.148462017998099">
        <ele>1064.9000000000001</ele>
        <time>2018-05-27T08:08:23Z</time>
      </trkpt>
      <trkpt lat="41.860507959499955" lon="-3.147933958098292">
        <ele>1070.4000000000001</ele>
        <time>2018-05-27T08:08:35Z</time>
      </trkpt>
      <trkpt lat="41.860573003068566" lon="-3.147367006167769">
        <ele>1072.4000000000001</ele>
        <time>2018-05-27T08:08:47Z</time>
      </trkpt>
      <trkpt lat="41.860608039423823" lon="-3.146623028442264">
        <ele>1073.8</ele>
        <time>2018-05-27T08:09:04Z</time>
      </trkpt>
      <trkpt lat="41.860600998625159" lon="-3.146146014332771">
        <ele>1074.5</ele>
        <time>2018-05-27T08:09:14Z</time>
      </trkpt>
      <trkpt lat="41.860467977821827" lon="-3.145701019093394">
        <ele>1076.5999999999999</ele>
        <time>2018-05-27T08:09:25Z</time>
      </trkpt>
      <trkpt lat="41.860392959788442" lon="-3.145216964185238">
        <ele>1077.5</ele>
        <time>2018-05-27T08:09:36Z</time>
      </trkpt>
      <trkpt lat="41.860357001423836" lon="-3.145043039694428">
        <ele>1078.2</ele>
        <time>2018-05-27T08:09:40Z</time>
      </trkpt>
      <trkpt lat="41.860300004482269" lon="-3.144843969494104">
        <ele>1079.0999999999999</ele>
        <time>2018-05-27T08:09:45Z</time>
      </trkpt>
      <trkpt lat="41.860038992017508" lon="-3.144453037530184">
        <ele>1082.5</ele>
        <time>2018-05-27T08:09:56Z</time>
      </trkpt>
      <trkpt lat="41.859977971762419" lon="-3.144311970099807">
        <ele>1083.3</ele>
        <time>2018-05-27T08:10:00Z</time>
      </trkpt>
      <trkpt lat="41.859860038384795" lon="-3.143963031470776">
        <ele>1084.9000000000001</ele>
        <time>2018-05-27T08:10:08Z</time>
      </trkpt>
      <trkpt lat="41.859759036451578" lon="-3.143591964617372">
        <ele>1086.5</ele>
        <time>2018-05-27T08:10:17Z</time>
      </trkpt>
      <trkpt lat="41.859574969857931" lon="-3.143248977139592">
        <ele>1089.0999999999999</ele>
        <time>2018-05-27T08:10:26Z</time>
      </trkpt>
      <trkpt lat="41.859281016513705" lon="-3.142871959134936">
        <ele>1092.2</ele>
        <time>2018-05-27T08:10:38Z</time>
      </trkpt>
      <trkpt lat="41.859256960451603" lon="-3.142797024920583">
        <ele>1092.3</ele>
        <time>2018-05-27T08:10:40Z</time>
      </trkpt>
      <trkpt lat="41.859155036509037" lon="-3.142659980803728">
        <ele>1093.2</ele>
        <time>2018-05-27T08:10:44Z</time>
      </trkpt>
      <trkpt lat="41.858950015157461" lon="-3.142379019409418">
        <ele>1094.7</ele>
        <time>2018-05-27T08:10:53Z</time>
      </trkpt>
      <trkpt lat="41.858839960768819" lon="-3.142111971974373">
        <ele>1095.2</ele>
        <time>2018-05-27T08:11:00Z</time>
      </trkpt>
      <trkpt lat="41.858720015734434" lon="-3.141801003366709">
        <ele>1096</ele>
        <time>2018-05-27T08:11:08Z</time>
      </trkpt>
      <trkpt lat="41.858502002432942" lon="-3.141485005617142">
        <ele>1097.7</ele>
        <time>2018-05-27T08:11:17Z</time>
      </trkpt>
      <trkpt lat="41.858388008549809" lon="-3.141306973993778">
        <ele>1098.2</ele>
        <time>2018-05-27T08:11:22Z</time>
      </trkpt>
      <trkpt lat="41.858313996344805" lon="-3.141067000105977">
        <ele>1098.5999999999999</ele>
        <time>2018-05-27T08:11:28Z</time>
      </trkpt>
      <trkpt lat="41.858095983043313" lon="-3.140589985996485">
        <ele>1099.5999999999999</ele>
        <time>2018-05-27T08:11:40Z</time>
      </trkpt>
      <trkpt lat="41.857944019138813" lon="-3.140316987410188">
        <ele>1100.0999999999999</ele>
        <time>2018-05-27T08:11:48Z</time>
      </trkpt>
      <trkpt lat="41.857922980561852" lon="-3.139885989949107">
        <ele>1101.2</ele>
        <time>2018-05-27T08:11:57Z</time>
      </trkpt>
      <trkpt lat="41.857841005548835" lon="-3.139434959739447">
        <ele>1103.7</ele>
        <time>2018-05-27T08:12:08Z</time>
      </trkpt>
      <trkpt lat="41.857769005000591" lon="-3.139112005010247">
        <ele>1106.3</ele>
        <time>2018-05-27T08:12:15Z</time>
      </trkpt>
      <trkpt lat="41.857785014435649" lon="-3.138767005875707">
        <ele>1107.8</ele>
        <time>2018-05-27T08:12:23Z</time>
      </trkpt>
      <trkpt lat="41.857734974473715" lon="-3.138484032824636">
        <ele>1108.5</ele>
        <time>2018-05-27T08:12:29Z</time>
      </trkpt>
      <trkpt lat="41.857699016109109" lon="-3.138341037556529">
        <ele>1108.9000000000001</ele>
        <time>2018-05-27T08:12:33Z</time>
      </trkpt>
      <trkpt lat="41.857668003067374" lon="-3.138015987351537">
        <ele>1109.0999999999999</ele>
        <time>2018-05-27T08:12:40Z</time>
      </trkpt>
      <trkpt lat="41.857691975310445" lon="-3.137939041480422">
        <ele>1108.7</ele>
        <time>2018-05-27T08:12:42Z</time>
      </trkpt>
      <trkpt lat="41.857750983908772" lon="-3.137714993208647">
        <ele>1107.8</ele>
        <time>2018-05-27T08:12:47Z</time>
      </trkpt>
      <trkpt lat="41.857756013050675" lon="-3.137609967961907">
        <ele>1107.7</ele>
        <time>2018-05-27T08:12:49Z</time>
      </trkpt>
      <trkpt lat="41.857627015560865" lon="-3.137209983542562">
        <ele>1108</ele>
        <time>2018-05-27T08:12:59Z</time>
      </trkpt>
      <trkpt lat="41.85750799253583" lon="-3.136947965249419">
        <ele>1107.3</ele>
        <time>2018-05-27T08:13:06Z</time>
      </trkpt>
      <trkpt lat="41.857304982841015" lon="-3.136664992198348">
        <ele>1105.5999999999999</ele>
        <time>2018-05-27T08:13:14Z</time>
      </trkpt>
      <trkpt lat="41.857211021706462" lon="-3.136471034958959">
        <ele>1104.0999999999999</ele>
        <time>2018-05-27T08:13:19Z</time>
      </trkpt>
      <trkpt lat="41.857157964259386" lon="-3.136291997507215">
        <ele>1102.5999999999999</ele>
        <time>2018-05-27T08:13:24Z</time>
      </trkpt>
      <trkpt lat="41.857103984802961" lon="-3.136179009452462">
        <ele>1101.5999999999999</ele>
        <time>2018-05-27T08:13:27Z</time>
      </trkpt>
      <trkpt lat="41.857023015618324" lon="-3.136095022782683">
        <ele>1100.3</ele>
        <time>2018-05-27T08:13:30Z</time>
      </trkpt>
      <trkpt lat="41.856819000095129" lon="-3.135828981176019">
        <ele>1096.3</ele>
        <time>2018-05-27T08:13:38Z</time>
      </trkpt>
      <trkpt lat="41.856682961806655" lon="-3.135644998401403">
        <ele>1093.5</ele>
        <time>2018-05-27T08:13:44Z</time>
      </trkpt>
      <trkpt lat="41.856463020667434" lon="-3.135535027831793">
        <ele>1090.3</ele>
        <time>2018-05-27T08:13:51Z</time>
      </trkpt>
      <trkpt lat="41.856309967115521" lon="-3.135439977049828">
        <ele>1087.8</ele>
        <time>2018-05-27T08:13:56Z</time>
      </trkpt>
      <trkpt lat="41.856161020696163" lon="-3.135233027860522">
        <ele>1087.4000000000001</ele>
        <time>2018-05-27T08:14:02Z</time>
      </trkpt>
      <trkpt lat="41.855975026264787" lon="-3.135106964036822">
        <ele>1088.0999999999999</ele>
        <time>2018-05-27T08:14:08Z</time>
      </trkpt>
      <trkpt lat="41.855833036825061" lon="-3.135027000680566">
        <ele>1088.4000000000001</ele>
        <time>2018-05-27T08:14:13Z</time>
      </trkpt>
      <trkpt lat="41.855707978829741" lon="-3.134783003479242">
        <ele>1087.3</ele>
        <time>2018-05-27T08:14:20Z</time>
      </trkpt>
      <trkpt lat="41.855599014088511" lon="-3.134586028754711">
        <ele>1086</ele>
        <time>2018-05-27T08:14:25Z</time>
      </trkpt>
      <trkpt lat="41.855505974963307" lon="-3.134291991591454">
        <ele>1083.5</ele>
        <time>2018-05-27T08:14:32Z</time>
      </trkpt>
      <trkpt lat="41.855406984686852" lon="-3.133975993841887">
        <ele>1080.3</ele>
        <time>2018-05-27T08:14:40Z</time>
      </trkpt>
      <trkpt lat="41.855301037430763" lon="-3.133717998862267">
        <ele>1079.3</ele>
        <time>2018-05-27T08:14:46Z</time>
      </trkpt>
      <trkpt lat="41.855104984715581" lon="-3.133449023589492">
        <ele>1079.8</ele>
        <time>2018-05-27T08:14:54Z</time>
      </trkpt>
      <trkpt lat="41.854886971414089" lon="-3.133192034438252">
        <ele>1079.2</ele>
        <time>2018-05-27T08:15:03Z</time>
      </trkpt>
      <trkpt lat="41.854675998911262" lon="-3.133006962016225">
        <ele>1078</ele>
        <time>2018-05-27T08:15:11Z</time>
      </trkpt>
      <trkpt lat="41.854542978107929" lon="-3.132743015885353">
        <ele>1076.2</ele>
        <time>2018-05-27T08:15:18Z</time>
      </trkpt>
      <trkpt lat="41.854491010308266" lon="-3.132512010633946">
        <ele>1075.0999999999999</ele>
        <time>2018-05-27T08:15:23Z</time>
      </trkpt>
      <trkpt lat="41.854385985061526" lon="-3.132206993177533">
        <ele>1074.5</ele>
        <time>2018-05-27T08:15:30Z</time>
      </trkpt>
      <trkpt lat="41.854277020320296" lon="-3.131870040670037">
        <ele>1074.5999999999999</ele>
        <time>2018-05-27T08:15:38Z</time>
      </trkpt>
      <trkpt lat="41.85409496538341" lon="-3.131496962159872">
        <ele>1075.7</ele>
        <time>2018-05-27T08:15:48Z</time>
      </trkpt>
      <trkpt lat="41.854009972885251" lon="-3.131208959966898">
        <ele>1075.3</ele>
        <time>2018-05-27T08:15:55Z</time>
      </trkpt>
      <trkpt lat="41.85392196290195" lon="-3.130840994417667">
        <ele>1073.7</ele>
        <time>2018-05-27T08:16:04Z</time>
      </trkpt>
      <trkpt lat="41.853892039507627" lon="-3.130744015797973">
        <ele>1073.2</ele>
        <time>2018-05-27T08:16:06Z</time>
      </trkpt>
      <trkpt lat="41.85383403673768" lon="-3.130522985011339">
        <ele>1071.7</ele>
        <time>2018-05-27T08:16:11Z</time>
      </trkpt>
      <trkpt lat="41.853753989562392" lon="-3.130104979500175">
        <ele>1068.8</ele>
        <time>2018-05-27T08:16:21Z</time>
      </trkpt>
      <trkpt lat="41.85359900817275" lon="-3.129791999235749">
        <ele>1066.8</ele>
        <time>2018-05-27T08:16:29Z</time>
      </trkpt>
      <trkpt lat="41.853435980156064" lon="-3.129467032849789">
        <ele>1065.0999999999999</ele>
        <time>2018-05-27T08:16:38Z</time>
      </trkpt>
      <trkpt lat="41.85331997461617" lon="-3.129109041765332">
        <ele>1064.7</ele>
        <time>2018-05-27T08:16:46Z</time>
      </trkpt>
      <trkpt lat="41.853272030130029" lon="-3.129026982933283">
        <ele>1064.8</ele>
        <time>2018-05-27T08:16:49Z</time>
      </trkpt>
      <trkpt lat="41.853204974904656" lon="-3.129004016518593">
        <ele>1065.0999999999999</ele>
        <time>2018-05-27T08:16:51Z</time>
      </trkpt>
      <trkpt lat="41.853042030707002" lon="-3.128911983221769">
        <ele>1066</ele>
        <time>2018-05-27T08:16:56Z</time>
      </trkpt>
      <trkpt lat="41.853020992130041" lon="-3.128486014902592">
        <ele>1068.4000000000001</ele>
        <time>2018-05-27T08:17:05Z</time>
      </trkpt>
      <trkpt lat="41.852919990196824" lon="-3.128013024106622">
        <ele>1074</ele>
        <time>2018-05-27T08:17:16Z</time>
      </trkpt>
      <trkpt lat="41.852820999920368" lon="-3.127610022202134">
        <ele>1075</ele>
        <time>2018-05-27T08:17:26Z</time>
      </trkpt>
      <trkpt lat="41.852693008258939" lon="-3.127185981720686">
        <ele>1074.7</ele>
        <time>2018-05-27T08:17:36Z</time>
      </trkpt>
      <trkpt lat="41.852571973577142" lon="-3.126834025606513">
        <ele>1073.7</ele>
        <time>2018-05-27T08:17:44Z</time>
      </trkpt>
      <trkpt lat="41.852463008835912" lon="-3.126362040638924">
        <ele>1070.0999999999999</ele>
        <time>2018-05-27T08:17:55Z</time>
      </trkpt>
      <trkpt lat="41.852429984137416" lon="-3.126197000965476">
        <ele>1069</ele>
        <time>2018-05-27T08:17:59Z</time>
      </trkpt>
      <trkpt lat="41.852462003007531" lon="-3.126117959618568">
        <ele>1068.3</ele>
        <time>2018-05-27T08:18:01Z</time>
      </trkpt>
      <trkpt lat="41.85245999135077" lon="-3.12581998296082">
        <ele>1067</ele>
        <time>2018-05-27T08:18:08Z</time>
      </trkpt>
      <trkpt lat="41.852315990254283" lon="-3.125528041273356">
        <ele>1066.0999999999999</ele>
        <time>2018-05-27T08:18:15Z</time>
      </trkpt>
      <trkpt lat="41.852210965007544" lon="-3.125318996608257">
        <ele>1065.3</ele>
        <time>2018-05-27T08:18:21Z</time>
      </trkpt>
      <trkpt lat="41.852152962237597" lon="-3.124922029674053">
        <ele>1063.8</ele>
        <time>2018-05-27T08:18:30Z</time>
      </trkpt>
      <trkpt lat="41.852111974731088" lon="-3.12455297447741">
        <ele>1062</ele>
        <time>2018-05-27T08:18:38Z</time>
      </trkpt>
      <trkpt lat="41.85205296613276" lon="-3.124155001714826">
        <ele>1060.3</ele>
        <time>2018-05-27T08:18:47Z</time>
      </trkpt>
      <trkpt lat="41.851970991119742" lon="-3.12390698119998">
        <ele>1060.0999999999999</ele>
        <time>2018-05-27T08:18:53Z</time>
      </trkpt>
      <trkpt lat="41.851926986128092" lon="-3.123743031173945">
        <ele>1059.7</ele>
        <time>2018-05-27T08:18:57Z</time>
      </trkpt>
      <trkpt lat="41.851816009730101" lon="-3.123367018997669">
        <ele>1058.5999999999999</ele>
        <time>2018-05-27T08:19:06Z</time>
      </trkpt>
      <trkpt lat="41.851777033880353" lon="-3.123225029557943">
        <ele>1058</ele>
        <time>2018-05-27T08:19:09Z</time>
      </trkpt>
      <trkpt lat="41.851733028888702" lon="-3.12304699793458">
        <ele>1056.9000000000001</ele>
        <time>2018-05-27T08:19:13Z</time>
      </trkpt>
      <trkpt lat="41.851705033332109" lon="-3.122970974072814">
        <ele>1056.4000000000001</ele>
        <time>2018-05-27T08:19:15Z</time>
      </trkpt>
      <trkpt lat="41.851709978654981" lon="-3.12283200211823">
        <ele>1055.8</ele>
        <time>2018-05-27T08:19:18Z</time>
      </trkpt>
      <trkpt lat="41.851668991148472" lon="-3.122331015765667">
        <ele>1054.3</ele>
        <time>2018-05-27T08:19:29Z</time>
      </trkpt>
      <trkpt lat="41.851694975048304" lon="-3.121950980275869">
        <ele>1053.9000000000001</ele>
        <time>2018-05-27T08:19:38Z</time>
      </trkpt>
      <trkpt lat="41.851676031947136" lon="-3.121613021939993">
        <ele>1053.9000000000001</ele>
        <time>2018-05-27T08:19:45Z</time>
      </trkpt>
      <trkpt lat="41.851655999198556" lon="-3.121356032788754">
        <ele>1053.9000000000001</ele>
        <time>2018-05-27T08:19:51Z</time>
      </trkpt>
      <trkpt lat="41.851667985320091" lon="-3.121290989220142">
        <ele>1054</ele>
        <time>2018-05-27T08:19:52Z</time>
      </trkpt>
      <trkpt lat="41.851669996976852" lon="-3.12122100032866">
        <ele>1054.0999999999999</ele>
        <time>2018-05-27T08:19:54Z</time>
      </trkpt>
      <trkpt lat="41.851694975048304" lon="-3.121073981747031">
        <ele>1054.5</ele>
        <time>2018-05-27T08:19:57Z</time>
      </trkpt>
      <trkpt lat="41.851778039708734" lon="-3.120782040059567">
        <ele>1055.5999999999999</ele>
        <time>2018-05-27T08:20:04Z</time>
      </trkpt>
      <trkpt lat="41.851994041353464" lon="-3.120528990402818">
        <ele>1057.3</ele>
        <time>2018-05-27T08:20:13Z</time>
      </trkpt>
      <trkpt lat="41.852071993052959" lon="-3.120477022603154">
        <ele>1057.9000000000001</ele>
        <time>2018-05-27T08:20:15Z</time>
      </trkpt>
      <trkpt lat="41.852092025801539" lon="-3.120413990691304">
        <ele>1058</ele>
        <time>2018-05-27T08:20:17Z</time>
      </trkpt>
      <trkpt lat="41.852209037169814" lon="-3.120020041242242">
        <ele>1057.8</ele>
        <time>2018-05-27T08:20:26Z</time>
      </trkpt>
      <trkpt lat="41.852155979722738" lon="-3.11967202462256">
        <ele>1056.7</ele>
        <time>2018-05-27T08:20:34Z</time>
      </trkpt>
      <trkpt lat="41.851965039968491" lon="-3.119433978572488">
        <ele>1056.2</ele>
        <time>2018-05-27T08:20:42Z</time>
      </trkpt>
      <trkpt lat="41.85181500390172" lon="-3.119295006617904">
        <ele>1056.7</ele>
        <time>2018-05-27T08:20:47Z</time>
      </trkpt>
      <trkpt lat="41.851508980616927" lon="-3.119361978024244">
        <ele>1056.0999999999999</ele>
        <time>2018-05-27T08:20:56Z</time>
      </trkpt>
      <trkpt lat="41.851259032264352" lon="-3.119449988007546">
        <ele>1054.8</ele>
        <time>2018-05-27T08:21:04Z</time>
      </trkpt>
      <trkpt lat="41.850936999544501" lon="-3.119540009647608">
        <ele>1054.5</ele>
        <time>2018-05-27T08:21:14Z</time>
      </trkpt>
      <trkpt lat="41.850661989301443" lon="-3.119594994932413">
        <ele>1055.2</ele>
        <time>2018-05-27T08:21:22Z</time>
      </trkpt>
      <trkpt lat="41.850377004593611" lon="-3.119369018822908">
        <ele>1057.3</ele>
        <time>2018-05-27T08:21:32Z</time>
      </trkpt>
      <trkpt lat="41.850177012383938" lon="-3.119105994701386">
        <ele>1060.8</ele>
        <time>2018-05-27T08:21:40Z</time>
      </trkpt>
      <trkpt lat="41.8501409702003" lon="-3.119066013023257">
        <ele>1061.2</ele>
        <time>2018-05-27T08:21:42Z</time>
      </trkpt>
      <trkpt lat="41.850124038755894" lon="-3.118981020525098">
        <ele>1061.2</ele>
        <time>2018-05-27T08:21:44Z</time>
      </trkpt>
      <trkpt lat="41.85005497187376" lon="-3.118895022198558">
        <ele>1061.7</ele>
        <time>2018-05-27T08:21:46Z</time>
      </trkpt>
      <trkpt lat="41.849884986877441" lon="-3.118567038327456">
        <ele>1062.7</ele>
        <time>2018-05-27T08:21:55Z</time>
      </trkpt>
      <trkpt lat="41.849655993282795" lon="-3.118325974792242">
        <ele>1063.7</ele>
        <time>2018-05-27T08:22:04Z</time>
      </trkpt>
      <trkpt lat="41.84934401884675" lon="-3.118183985352516">
        <ele>1066</ele>
        <time>2018-05-27T08:22:14Z</time>
      </trkpt>
      <trkpt lat="41.849143020808697" lon="-3.117986004799604">
        <ele>1066.5999999999999</ele>
        <time>2018-05-27T08:22:21Z</time>
      </trkpt>
      <trkpt lat="41.848971024155617" lon="-3.117749970406294">
        <ele>1066.4000000000001</ele>
        <time>2018-05-27T08:22:28Z</time>
      </trkpt>
      <trkpt lat="41.848876979202032" lon="-3.117500022053719">
        <ele>1065.0999999999999</ele>
        <time>2018-05-27T08:22:34Z</time>
      </trkpt>
      <trkpt lat="41.848647985607386" lon="-3.11731000430882">
        <ele>1063</ele>
        <time>2018-05-27T08:22:42Z</time>
      </trkpt>
      <trkpt lat="41.84850700199604" lon="-3.11720103956759">
        <ele>1061</ele>
        <time>2018-05-27T08:22:47Z</time>
      </trkpt>
      <trkpt lat="41.848361995071173" lon="-3.116950001567602">
        <ele>1058.7</ele>
        <time>2018-05-27T08:22:54Z</time>
      </trkpt>
      <trkpt lat="41.848282031714916" lon="-3.116753026843071">
        <ele>1057.5999999999999</ele>
        <time>2018-05-27T08:22:59Z</time>
      </trkpt>
      <trkpt lat="41.848246995359659" lon="-3.116706004366279">
        <ele>1057.3</ele>
        <time>2018-05-27T08:23:01Z</time>
      </trkpt>
      <trkpt lat="41.848136018961668" lon="-3.116511041298509">
        <ele>1056.5</ele>
        <time>2018-05-27T08:23:06Z</time>
      </trkpt>
      <trkpt lat="41.848065024241805" lon="-3.116378020495176">
        <ele>1056.2</ele>
        <time>2018-05-27T08:23:10Z</time>
      </trkpt>
      <trkpt lat="41.847994029521942" lon="-3.116328986361623">
        <ele>1056.0999999999999</ele>
        <time>2018-05-27T08:23:12Z</time>
      </trkpt>
      <trkpt lat="41.847957987338305" lon="-3.116100998595357">
        <ele>1056.2</ele>
        <time>2018-05-27T08:23:17Z</time>
      </trkpt>
      <trkpt lat="41.847937032580376" lon="-3.115863036364317">
        <ele>1056.5</ele>
        <time>2018-05-27T08:23:23Z</time>
      </trkpt>
      <trkpt lat="41.847906019538641" lon="-3.115469003096223">
        <ele>1057.2</ele>
        <time>2018-05-27T08:23:31Z</time>
      </trkpt>
      <trkpt lat="41.847895039245486" lon="-3.115317039191723">
        <ele>1057.8</ele>
        <time>2018-05-27T08:23:35Z</time>
      </trkpt>
      <trkpt lat="41.847920017316937" lon="-3.115197010338306">
        <ele>1057.5</ele>
        <time>2018-05-27T08:23:37Z</time>
      </trkpt>
      <trkpt lat="41.847949018701911" lon="-3.115092990919948">
        <ele>1057.8</ele>
        <time>2018-05-27T08:23:40Z</time>
      </trkpt>
      <trkpt lat="41.847984977066517" lon="-3.114885035902262">
        <ele>1058.5</ele>
        <time>2018-05-27T08:23:45Z</time>
      </trkpt>
      <trkpt lat="41.84803300537169" lon="-3.114618994295597">
        <ele>1059.3</ele>
        <time>2018-05-27T08:23:51Z</time>
      </trkpt>
      <trkpt lat="41.847958993166685" lon="-3.114396035671234">
        <ele>1059.4000000000001</ele>
        <time>2018-05-27T08:23:56Z</time>
      </trkpt>
      <trkpt lat="41.847980031743646" lon="-3.114156983792782">
        <ele>1059.8</ele>
        <time>2018-05-27T08:24:01Z</time>
      </trkpt>
      <trkpt lat="41.847973996773362" lon="-3.114012982696295">
        <ele>1060</ele>
        <time>2018-05-27T08:24:04Z</time>
      </trkpt>
      <trkpt lat="41.847985982894897" lon="-3.113863030448556">
        <ele>1060.3</ele>
        <time>2018-05-27T08:24:08Z</time>
      </trkpt>
      <trkpt lat="41.847996041178703" lon="-3.113490035757422">
        <ele>1060.3</ele>
        <time>2018-05-27T08:24:16Z</time>
      </trkpt>
      <trkpt lat="41.848010960966349" lon="-3.113232962787151">
        <ele>1060.2</ele>
        <time>2018-05-27T08:24:22Z</time>
      </trkpt>
      <trkpt lat="41.847999980673194" lon="-3.112900033593178">
        <ele>1059.9000000000001</ele>
        <time>2018-05-27T08:24:29Z</time>
      </trkpt>
      <trkpt lat="41.847950024530292" lon="-3.11271202750504">
        <ele>1060.8</ele>
        <time>2018-05-27T08:24:33Z</time>
      </trkpt>
      <trkpt lat="41.847897972911596" lon="-3.11269199475646">
        <ele>1060.5999999999999</ele>
        <time>2018-05-27T08:24:35Z</time>
      </trkpt>
      <trkpt lat="41.847794959321618" lon="-3.112565008923411">
        <ele>1061.4000000000001</ele>
        <time>2018-05-27T08:24:39Z</time>
      </trkpt>
      <trkpt lat="41.847721030935645" lon="-3.112513963133097">
        <ele>1061.5999999999999</ele>
        <time>2018-05-27T08:24:42Z</time>
      </trkpt>
      <trkpt lat="41.847464041784406" lon="-3.112436011433601">
        <ele>1061.4000000000001</ele>
        <time>2018-05-27T08:24:50Z</time>
      </trkpt>
      <trkpt lat="41.847430011257529" lon="-3.112385971471667">
        <ele>1061.5</ele>
        <time>2018-05-27T08:24:51Z</time>
      </trkpt>
      <trkpt lat="41.847291961312294" lon="-3.112027980387211">
        <ele>1062.2</ele>
        <time>2018-05-27T08:25:00Z</time>
      </trkpt>
      <trkpt lat="41.847277963533998" lon="-3.111684992909432">
        <ele>1063.0999999999999</ele>
        <time>2018-05-27T08:25:07Z</time>
      </trkpt>
      <trkpt lat="41.847229013219476" lon="-3.111420962959528">
        <ele>1063.5999999999999</ele>
        <time>2018-05-27T08:25:13Z</time>
      </trkpt>
      <trkpt lat="41.847138991579413" lon="-3.111177971586585">
        <ele>1063.7</ele>
        <time>2018-05-27T08:25:19Z</time>
      </trkpt>
      <trkpt lat="41.847041007131338" lon="-3.110934980213642">
        <ele>1064.5</ele>
        <time>2018-05-27T08:25:26Z</time>
      </trkpt>
      <trkpt lat="41.846922989934683" lon="-3.110571037977934">
        <ele>1066.0999999999999</ele>
        <time>2018-05-27T08:25:34Z</time>
      </trkpt>
      <trkpt lat="41.846783012151718" lon="-3.110298039391637">
        <ele>1066.9000000000001</ele>
        <time>2018-05-27T08:25:42Z</time>
      </trkpt>
      <trkpt lat="41.846589976921678" lon="-3.109979024156928">
        <ele>1067.3</ele>
        <time>2018-05-27T08:25:51Z</time>
      </trkpt>
      <trkpt lat="41.846481012180448" lon="-3.109862012788653">
        <ele>1067.3</ele>
        <time>2018-05-27T08:25:55Z</time>
      </trkpt>
      <trkpt lat="41.846348997205496" lon="-3.109638970345259">
        <ele>1067.2</ele>
        <time>2018-05-27T08:26:01Z</time>
      </trkpt>
      <trkpt lat="41.84618404135108" lon="-3.109506033360958">
        <ele>1068.4000000000001</ele>
        <time>2018-05-27T08:26:07Z</time>
      </trkpt>
      <trkpt lat="41.846027970314026" lon="-3.109459010884166">
        <ele>1070.3</ele>
        <time>2018-05-27T08:26:12Z</time>
      </trkpt>
      <trkpt lat="41.845910958945751" lon="-3.109158016741276">
        <ele>1072.8</ele>
        <time>2018-05-27T08:26:19Z</time>
      </trkpt>
      <trkpt lat="41.845698980614543" lon="-3.108889041468501">
        <ele>1074.5</ele>
        <time>2018-05-27T08:26:28Z</time>
      </trkpt>
      <trkpt lat="41.845393041148782" lon="-3.108494002372026">
        <ele>1076.2</ele>
        <time>2018-05-27T08:26:40Z</time>
      </trkpt>
      <trkpt lat="41.845188019797206" lon="-3.108027968555689">
        <ele>1079.5</ele>
        <time>2018-05-27T08:26:52Z</time>
      </trkpt>
      <trkpt lat="41.845022980123758" lon="-3.10753402300179">
        <ele>1081.2</ele>
        <time>2018-05-27T08:27:04Z</time>
      </trkpt>
      <trkpt lat="41.844936981797218" lon="-3.107179971411824">
        <ele>1081.4000000000001</ele>
        <time>2018-05-27T08:27:13Z</time>
      </trkpt>
      <trkpt lat="41.844842014834285" lon="-3.10689096339047">
        <ele>1081.4000000000001</ele>
        <time>2018-05-27T08:27:19Z</time>
      </trkpt>
      <trkpt lat="41.844821982085705" lon="-3.106819968670607">
        <ele>1081.4000000000001</ele>
        <time>2018-05-27T08:27:21Z</time>
      </trkpt>
      <trkpt lat="41.845073020085692" lon="-3.106458960101008">
        <ele>1081.5</ele>
        <time>2018-05-27T08:27:32Z</time>
      </trkpt>
      <trkpt lat="41.845085006207228" lon="-3.106247987598181">
        <ele>1081.4000000000001</ele>
        <time>2018-05-27T08:27:37Z</time>
      </trkpt>
      <trkpt lat="41.844974029809237" lon="-3.106096023693681">
        <ele>1081.2</ele>
        <time>2018-05-27T08:27:41Z</time>
      </trkpt>
      <trkpt lat="41.844726009294391" lon="-3.105610040947795">
        <ele>1080.4000000000001</ele>
        <time>2018-05-27T08:27:54Z</time>
      </trkpt>
      <trkpt lat="41.844512019306421" lon="-3.10521399602294">
        <ele>1080.7</ele>
        <time>2018-05-27T08:28:05Z</time>
      </trkpt>
      <trkpt lat="41.84448603540659" lon="-3.104966981336474">
        <ele>1080.9000000000001</ele>
        <time>2018-05-27T08:28:11Z</time>
      </trkpt>
      <trkpt lat="41.844453010708094" lon="-3.104889029636979">
        <ele>1081.2</ele>
        <time>2018-05-27T08:28:13Z</time>
      </trkpt>
      <trkpt lat="41.844334993511438" lon="-3.10454897582531">
        <ele>1082.5999999999999</ele>
        <time>2018-05-27T08:28:21Z</time>
      </trkpt>
      <trkpt lat="41.844200966879725" lon="-3.104237001389265">
        <ele>1085.3</ele>
        <time>2018-05-27T08:28:29Z</time>
      </trkpt>
      <trkpt lat="41.844140030443668" lon="-3.104088976979256">
        <ele>1086.0999999999999</ele>
        <time>2018-05-27T08:28:33Z</time>
      </trkpt>
      <trkpt lat="41.844126032665372" lon="-3.104025023058057">
        <ele>1086.3</ele>
        <time>2018-05-27T08:28:34Z</time>
      </trkpt>
      <trkpt lat="41.84397297911346" lon="-3.103633001446724">
        <ele>1086.7</ele>
        <time>2018-05-27T08:28:44Z</time>
      </trkpt>
      <trkpt lat="41.843911036849022" lon="-3.103433009237051">
        <ele>1086.9000000000001</ele>
        <time>2018-05-27T08:28:49Z</time>
      </trkpt>
      <trkpt lat="41.843819003552198" lon="-3.103165039792657">
        <ele>1087</ele>
        <time>2018-05-27T08:28:55Z</time>
      </trkpt>
      <trkpt lat="41.843751026317477" lon="-3.102975022047758">
        <ele>1086.9000000000001</ele>
        <time>2018-05-27T08:29:00Z</time>
      </trkpt>
      <trkpt lat="41.843618005514145" lon="-3.102794978767633">
        <ele>1089.2</ele>
        <time>2018-05-27T08:29:06Z</time>
      </trkpt>
      <trkpt lat="41.84356695972383" lon="-3.102749967947602">
        <ele>1089.9000000000001</ele>
        <time>2018-05-27T08:29:07Z</time>
      </trkpt>
      <trkpt lat="41.843365961685777" lon="-3.102374961599708">
        <ele>1093.3</ele>
        <time>2018-05-27T08:29:18Z</time>
      </trkpt>
      <trkpt lat="41.843207040801644" lon="-3.102020993828774">
        <ele>1094.7</ele>
        <time>2018-05-27T08:29:27Z</time>
      </trkpt>
      <trkpt lat="41.843048958107829" lon="-3.101566024124622">
        <ele>1095.0999999999999</ele>
        <time>2018-05-27T08:29:38Z</time>
      </trkpt>
      <trkpt lat="41.843034038320184" lon="-3.101337030529976">
        <ele>1095.5999999999999</ele>
        <time>2018-05-27T08:29:43Z</time>
      </trkpt>
      <trkpt lat="41.843030015006661" lon="-3.101155981421471">
        <ele>1096</ele>
        <time>2018-05-27T08:29:47Z</time>
      </trkpt>
      <trkpt lat="41.843005958944559" lon="-3.100971998646855">
        <ele>1096.2</ele>
        <time>2018-05-27T08:29:51Z</time>
      </trkpt>
      <trkpt lat="41.84294099919498" lon="-3.100798996165395">
        <ele>1095.9000000000001</ele>
        <time>2018-05-27T08:29:55Z</time>
      </trkpt>
      <trkpt lat="41.842833962291479" lon="-3.100614007562399">
        <ele>1096.3</ele>
        <time>2018-05-27T08:30:00Z</time>
      </trkpt>
      <trkpt lat="41.842764979228377" lon="-3.100559022277594">
        <ele>1096.4000000000001</ele>
        <time>2018-05-27T08:30:03Z</time>
      </trkpt>
      <trkpt lat="41.842621983960271" lon="-3.10035701841116">
        <ele>1096.3</ele>
        <time>2018-05-27T08:30:09Z</time>
      </trkpt>
      <trkpt lat="41.842402964830399" lon="-3.100102040916681">
        <ele>1094.8</ele>
        <time>2018-05-27T08:30:18Z</time>
      </trkpt>
      <trkpt lat="41.842160979285836" lon="-3.099806997925043">
        <ele>1091.4000000000001</ele>
        <time>2018-05-27T08:30:27Z</time>
      </trkpt>
      <trkpt lat="41.841936009004712" lon="-3.099450012668967">
        <ele>1090</ele>
        <time>2018-05-27T08:30:38Z</time>
      </trkpt>
      <trkpt lat="41.841778010129929" lon="-3.099126974120736">
        <ele>1090.0999999999999</ele>
        <time>2018-05-27T08:30:46Z</time>
      </trkpt>
      <trkpt lat="41.841712966561317" lon="-3.098751967772842">
        <ele>1088.9000000000001</ele>
        <time>2018-05-27T08:30:55Z</time>
      </trkpt>
      <trkpt lat="41.841633003205061" lon="-3.09848802164197">
        <ele>1087.5999999999999</ele>
        <time>2018-05-27T08:31:01Z</time>
      </trkpt>
      <trkpt lat="41.841492019593716" lon="-3.098235977813602">
        <ele>1085.8</ele>
        <time>2018-05-27T08:31:08Z</time>
      </trkpt>
      <trkpt lat="41.841193959116936" lon="-3.098055012524128">
        <ele>1084</ele>
        <time>2018-05-27T08:31:18Z</time>
      </trkpt>
      <trkpt lat="41.840912997722626" lon="-3.097827024757862">
        <ele>1087.8</ele>
        <time>2018-05-27T08:31:27Z</time>
      </trkpt>
      <trkpt lat="41.840799003839493" lon="-3.097461992874742">
        <ele>1091</ele>
        <time>2018-05-27T08:31:36Z</time>
      </trkpt>
      <trkpt lat="41.840781988576055" lon="-3.097298964858055">
        <ele>1092</ele>
        <time>2018-05-27T08:31:40Z</time>
      </trkpt>
      <trkpt lat="41.8407519813627" lon="-3.096977015957236">
        <ele>1093.0999999999999</ele>
        <time>2018-05-27T08:31:47Z</time>
      </trkpt>
      <trkpt lat="41.840766984969378" lon="-3.096898980438709">
        <ele>1092.5</ele>
        <time>2018-05-27T08:31:49Z</time>
      </trkpt>
      <trkpt lat="41.840808978304267" lon="-3.096824968233705">
        <ele>1091.4000000000001</ele>
        <time>2018-05-27T08:31:51Z</time>
      </trkpt>
      <trkpt lat="41.840834962204099" lon="-3.096712986007333">
        <ele>1090.4000000000001</ele>
        <time>2018-05-27T08:31:53Z</time>
      </trkpt>
      <trkpt lat="41.84079498052597" lon="-3.096359018236399">
        <ele>1089.7</ele>
        <time>2018-05-27T08:32:01Z</time>
      </trkpt>
      <trkpt lat="41.840746030211449" lon="-3.096064981073141">
        <ele>1088.5999999999999</ele>
        <time>2018-05-27T08:32:08Z</time>
      </trkpt>
      <trkpt lat="41.840723985806108" lon="-3.095673965290189">
        <ele>1085.7</ele>
        <time>2018-05-27T08:32:17Z</time>
      </trkpt>
      <trkpt lat="41.840719040483236" lon="-3.095543039962649">
        <ele>1084.5999999999999</ele>
        <time>2018-05-27T08:32:20Z</time>
      </trkpt>
      <trkpt lat="41.840733960270882" lon="-3.095463998615742">
        <ele>1083.9000000000001</ele>
        <time>2018-05-27T08:32:21Z</time>
      </trkpt>
      <trkpt lat="41.840704958885908" lon="-3.095169039443135">
        <ele>1081.8</ele>
        <time>2018-05-27T08:32:28Z</time>
      </trkpt>
      <trkpt lat="41.84066598303616" lon="-3.094596974551678">
        <ele>1077.3</ele>
        <time>2018-05-27T08:32:41Z</time>
      </trkpt>
      <trkpt lat="41.840503038838506" lon="-3.094440987333655">
        <ele>1075.5</ele>
        <time>2018-05-27T08:32:47Z</time>
      </trkpt>
      <trkpt lat="41.840346967801452" lon="-3.09427896514535">
        <ele>1075.0999999999999</ele>
        <time>2018-05-27T08:32:52Z</time>
      </trkpt>
      <trkpt lat="41.840273961424828" lon="-3.094201013445854">
        <ele>1075.8</ele>
        <time>2018-05-27T08:32:55Z</time>
      </trkpt>
      <trkpt lat="41.840118980035186" lon="-3.093846961855888">
        <ele>1076.0999999999999</ele>
        <time>2018-05-27T08:33:04Z</time>
      </trkpt>
      <trkpt lat="41.840002974495292" lon="-3.093413030728698">
        <ele>1076.9000000000001</ele>
        <time>2018-05-27T08:33:14Z</time>
      </trkpt>
      <trkpt lat="41.839926028624177" lon="-3.093210021033883">
        <ele>1077.3</ele>
        <time>2018-05-27T08:33:20Z</time>
      </trkpt>
      <trkpt lat="41.839833995327353" lon="-3.092892011627555">
        <ele>1077</ele>
        <time>2018-05-27T08:33:27Z</time>
      </trkpt>
      <trkpt lat="41.839803988113999" lon="-3.092486998066306">
        <ele>1074.4000000000001</ele>
        <time>2018-05-27T08:33:36Z</time>
      </trkpt>
      <trkpt lat="41.839819997549057" lon="-3.092031022533774">
        <ele>1071.5</ele>
        <time>2018-05-27T08:33:46Z</time>
      </trkpt>
      <trkpt lat="41.839829972013831" lon="-3.091892972588539">
        <ele>1071.3</ele>
        <time>2018-05-27T08:33:49Z</time>
      </trkpt>
      <trkpt lat="41.839753026142716" lon="-3.091524001210928">
        <ele>1070.7</ele>
        <time>2018-05-27T08:33:58Z</time>
      </trkpt>
      <trkpt lat="41.839673984795809" lon="-3.091166010126472">
        <ele>1070.4000000000001</ele>
        <time>2018-05-27T08:34:06Z</time>
      </trkpt>
      <trkpt lat="41.839607013389468" lon="-3.090890999883413">
        <ele>1069.5999999999999</ele>
        <time>2018-05-27T08:34:12Z</time>
      </trkpt>
      <trkpt lat="41.839493019506335" lon="-3.090526973828673">
        <ele>1068.5999999999999</ele>
        <time>2018-05-27T08:34:21Z</time>
      </trkpt>
      <trkpt lat="41.839384976774454" lon="-3.090208964422345">
        <ele>1066.9000000000001</ele>
        <time>2018-05-27T08:34:29Z</time>
      </trkpt>
      <trkpt lat="41.839347006753087" lon="-3.089926997199655">
        <ele>1064.9000000000001</ele>
        <time>2018-05-27T08:34:35Z</time>
      </trkpt>
      <trkpt lat="41.839344995096326" lon="-3.089649975299835">
        <ele>1062.8</ele>
        <time>2018-05-27T08:34:41Z</time>
      </trkpt>
      <trkpt lat="41.839095968753099" lon="-3.088951008394361">
        <ele>1061</ele>
        <time>2018-05-27T08:34:58Z</time>
      </trkpt>
      <trkpt lat="41.838777037337422" lon="-3.088151039555669">
        <ele>1061.7</ele>
        <time>2018-05-27T08:35:18Z</time>
      </trkpt>
      <trkpt lat="41.838462967425585" lon="-3.087327014654875">
        <ele>1063.3</ele>
        <time>2018-05-27T08:35:39Z</time>
      </trkpt>
      <trkpt lat="41.838200027123094" lon="-3.08645898476243">
        <ele>1060.2</ele>
        <time>2018-05-27T08:35:59Z</time>
      </trkpt>
      <trkpt lat="41.837914036586881" lon="-3.085701009258628">
        <ele>1056.7</ele>
        <time>2018-05-27T08:36:18Z</time>
      </trkpt>
      <trkpt lat="41.837625028565526" lon="-3.084795009344816">
        <ele>1057.3</ele>
        <time>2018-05-27T08:36:40Z</time>
      </trkpt>
      <trkpt lat="41.837368961423635" lon="-3.083997974172235">
        <ele>1056.5999999999999</ele>
        <time>2018-05-27T08:36:59Z</time>
      </trkpt>
      <trkpt lat="41.837051035836339" lon="-3.083080993965268">
        <ele>1055</ele>
        <time>2018-05-27T08:37:22Z</time>
      </trkpt>
      <trkpt lat="41.836807038635015" lon="-3.082465007901192">
        <ele>1053.0999999999999</ele>
        <time>2018-05-27T08:37:37Z</time>
      </trkpt>
      <trkpt lat="41.836489029228687" lon="-3.082202989608049">
        <ele>1051.3</ele>
        <time>2018-05-27T08:37:48Z</time>
      </trkpt>
      <trkpt lat="41.836027018725872" lon="-3.08205203153193">
        <ele>1050.3</ele>
        <time>2018-05-27T08:38:02Z</time>
      </trkpt>
      <trkpt lat="41.835746979340911" lon="-3.081718012690544">
        <ele>1050.9000000000001</ele>
        <time>2018-05-27T08:38:13Z</time>
      </trkpt>
      <trkpt lat="41.835296032950282" lon="-3.080323012545705">
        <ele>1057</ele>
        <time>2018-05-27T08:38:47Z</time>
      </trkpt>
      <trkpt lat="41.834825975820422" lon="-3.078970005735755">
        <ele>1061.5</ele>
        <time>2018-05-27T08:39:20Z</time>
      </trkpt>
      <trkpt lat="41.834492040798068" lon="-3.077955963090062">
        <ele>1063.8</ele>
        <time>2018-05-27T08:39:44Z</time>
      </trkpt>
      <trkpt lat="41.834305040538311" lon="-3.077567964792252">
        <ele>1064.0999999999999</ele>
        <time>2018-05-27T08:39:54Z</time>
      </trkpt>
      <trkpt lat="41.834081998094916" lon="-3.077340982854366">
        <ele>1065.0999999999999</ele>
        <time>2018-05-27T08:40:03Z</time>
      </trkpt>
      <trkpt lat="41.833906983956695" lon="-3.077028002589941">
        <ele>1063.9000000000001</ele>
        <time>2018-05-27T08:40:11Z</time>
      </trkpt>
      <trkpt lat="41.833796007558703" lon="-3.076837984845042">
        <ele>1063.5</ele>
        <time>2018-05-27T08:40:17Z</time>
      </trkpt>
      <trkpt lat="41.833662986755371" lon="-3.076609997078776">
        <ele>1064.0999999999999</ele>
        <time>2018-05-27T08:40:23Z</time>
      </trkpt>
      <trkpt lat="41.833543963730335" lon="-3.076387038454413">
        <ele>1064.8</ele>
        <time>2018-05-27T08:40:29Z</time>
      </trkpt>
      <trkpt lat="41.833413960412145" lon="-3.076017983257771">
        <ele>1064.3</ele>
        <time>2018-05-27T08:40:38Z</time>
      </trkpt>
      <trkpt lat="41.833254033699632" lon="-3.075616993010044">
        <ele>1063.7</ele>
        <time>2018-05-27T08:40:48Z</time>
      </trkpt>
      <trkpt lat="41.833193013444543" lon="-3.075518002733588">
        <ele>1063.7</ele>
        <time>2018-05-27T08:40:51Z</time>
      </trkpt>
      <trkpt lat="41.833073990419507" lon="-3.075179038569331">
        <ele>1061.9000000000001</ele>
        <time>2018-05-27T08:40:59Z</time>
      </trkpt>
      <trkpt lat="41.832996038720012" lon="-3.074978962540627">
        <ele>1060.4000000000001</ele>
        <time>2018-05-27T08:41:04Z</time>
      </trkpt>
      <trkpt lat="41.832881039008498" lon="-3.07457696646452">
        <ele>1056.9000000000001</ele>
        <time>2018-05-27T08:41:14Z</time>
      </trkpt>
      <trkpt lat="41.832631006836891" lon="-3.074090983718634">
        <ele>1057.2</ele>
        <time>2018-05-27T08:41:27Z</time>
      </trkpt>
      <trkpt lat="41.832320960238576" lon="-3.07352302595973">
        <ele>1057.7</ele>
        <time>2018-05-27T08:41:42Z</time>
      </trkpt>
      <trkpt lat="41.831975039094687" lon="-3.072921959683299">
        <ele>1053.4000000000001</ele>
        <time>2018-05-27T08:41:59Z</time>
      </trkpt>
      <trkpt lat="41.831700028851628" lon="-3.072488028556109">
        <ele>1056.0999999999999</ele>
        <time>2018-05-27T08:42:12Z</time>
      </trkpt>
      <trkpt lat="41.831787033006549" lon="-3.072183011099696">
        <ele>1052.8</ele>
        <time>2018-05-27T08:42:19Z</time>
      </trkpt>
      <trkpt lat="41.831879988312721" lon="-3.072021994739771">
        <ele>1051</ele>
        <time>2018-05-27T08:42:24Z</time>
      </trkpt>
      <trkpt lat="41.83166197501123" lon="-3.0714609939605">
        <ele>1050.5</ele>
        <time>2018-05-27T08:42:38Z</time>
      </trkpt>
      <trkpt lat="41.831492995843291" lon="-3.07109403423965">
        <ele>1050.4000000000001</ele>
        <time>2018-05-27T08:42:47Z</time>
      </trkpt>
      <trkpt lat="41.831227960065007" lon="-3.070510989055038">
        <ele>1050.3</ele>
        <time>2018-05-27T08:43:02Z</time>
      </trkpt>
      <trkpt lat="41.830934006720781" lon="-3.069987958297133">
        <ele>1049.2</ele>
        <time>2018-05-27T08:43:17Z</time>
      </trkpt>
      <trkpt lat="41.830566041171551" lon="-3.069359986111522">
        <ele>1048.3</ele>
        <time>2018-05-27T08:43:34Z</time>
      </trkpt>
      <trkpt lat="41.830315003171563" lon="-3.068895963951945">
        <ele>1046.9000000000001</ele>
        <time>2018-05-27T08:43:47Z</time>
      </trkpt>
      <trkpt lat="41.830101013183594" lon="-3.068720027804375">
        <ele>1047.9000000000001</ele>
        <time>2018-05-27T08:43:54Z</time>
      </trkpt>
      <trkpt lat="41.830034041777253" lon="-3.068632017821074">
        <ele>1048.3</ele>
        <time>2018-05-27T08:43:57Z</time>
      </trkpt>
      <trkpt lat="41.829930022358894" lon="-3.068699995055795">
        <ele>1049.5</ele>
        <time>2018-05-27T08:44:01Z</time>
      </trkpt>
      <trkpt lat="41.829848969355226" lon="-3.068829998373985">
        <ele>1051.0999999999999</ele>
        <time>2018-05-27T08:44:04Z</time>
      </trkpt>
      <trkpt lat="41.82972801849246" lon="-3.068824969232082">
        <ele>1052.2</ele>
        <time>2018-05-27T08:44:08Z</time>
      </trkpt>
      <trkpt lat="41.829683007672429" lon="-3.06853998452425">
        <ele>1051.3</ele>
        <time>2018-05-27T08:44:14Z</time>
      </trkpt>
      <trkpt lat="41.829775962978601" lon="-3.068536967039108">
        <ele>1050.4000000000001</ele>
        <time>2018-05-27T08:44:17Z</time>
      </trkpt>
      <trkpt lat="41.829898003488779" lon="-3.068500002846122">
        <ele>1049.2</ele>
        <time>2018-05-27T08:44:21Z</time>
      </trkpt>
      <trkpt lat="41.829975033178926" lon="-3.068449962884188">
        <ele>1048.3</ele>
        <time>2018-05-27T08:44:23Z</time>
      </trkpt>
      <trkpt lat="41.829956006258726" lon="-3.068374022841454">
        <ele>1048.3</ele>
        <time>2018-05-27T08:44:25Z</time>
      </trkpt>
      <trkpt lat="41.829904038459063" lon="-3.068300010636449">
        <ele>1048.5</ele>
        <time>2018-05-27T08:44:27Z</time>
      </trkpt>
      <trkpt lat="41.829809993505478" lon="-3.068206971511245">
        <ele>1049</ele>
        <time>2018-05-27T08:44:31Z</time>
      </trkpt>
      <trkpt lat="41.829719971865416" lon="-3.068161960691214">
        <ele>1049.7</ele>
        <time>2018-05-27T08:44:34Z</time>
      </trkpt>
      <trkpt lat="41.829643025994301" lon="-3.068220969289541">
        <ele>1050.5999999999999</ele>
        <time>2018-05-27T08:44:36Z</time>
      </trkpt>
      <trkpt lat="41.829503970220685" lon="-3.068104963749647">
        <ele>1050.8</ele>
        <time>2018-05-27T08:44:41Z</time>
      </trkpt>
      <trkpt lat="41.829458959400654" lon="-3.068090965971351">
        <ele>1050.7</ele>
        <time>2018-05-27T08:44:43Z</time>
      </trkpt>
      <trkpt lat="41.829195013269782" lon="-3.068118039518595">
        <ele>1051.3</ele>
        <time>2018-05-27T08:44:50Z</time>
      </trkpt>
      <trkpt lat="41.829113038256764" lon="-3.068060958757997">
        <ele>1050.7</ele>
        <time>2018-05-27T08:44:53Z</time>
      </trkpt>
      <trkpt lat="41.829195013269782" lon="-3.068091971799731">
        <ele>1051</ele>
        <time>2018-05-27T08:44:56Z</time>
      </trkpt>
      <trkpt lat="41.829248992726207" lon="-3.068088032305241">
        <ele>1050.9000000000001</ele>
        <time>2018-05-27T08:44:57Z</time>
      </trkpt>
      <trkpt lat="41.829429036006331" lon="-3.068021982908249">
        <ele>1050.3</ele>
        <time>2018-05-27T08:45:03Z</time>
      </trkpt>
      <trkpt lat="41.829586029052734" lon="-3.068104963749647">
        <ele>1050.7</ele>
        <time>2018-05-27T08:45:08Z</time>
      </trkpt>
      <trkpt lat="41.829714020714164" lon="-3.068149974569678">
        <ele>1049.7</ele>
        <time>2018-05-27T08:45:12Z</time>
      </trkpt>
      <trkpt lat="41.829808987677097" lon="-3.068136982619762">
        <ele>1048.8</ele>
        <time>2018-05-27T08:45:15Z</time>
      </trkpt>
      <trkpt lat="41.829787027090788" lon="-3.067998010665178">
        <ele>1048.5999999999999</ele>
        <time>2018-05-27T08:45:18Z</time>
      </trkpt>
      <trkpt lat="41.829555016011" lon="-3.067629039287567">
        <ele>1047.2</ele>
        <time>2018-05-27T08:45:28Z</time>
      </trkpt>
      <trkpt lat="41.829324010759592" lon="-3.067220002412796">
        <ele>1043.2</ele>
        <time>2018-05-27T08:45:40Z</time>
      </trkpt>
      <trkpt lat="41.82903902605176" lon="-3.066829992458224">
        <ele>1041.3</ele>
        <time>2018-05-27T08:45:52Z</time>
      </trkpt>
      <trkpt lat="41.829124018549919" lon="-3.066116021946073">
        <ele>1039.5999999999999</ele>
        <time>2018-05-27T08:46:08Z</time>
      </trkpt>
      <trkpt lat="41.829243041574955" lon="-3.065009023994207">
        <ele>1039.3</ele>
        <time>2018-05-27T08:46:32Z</time>
      </trkpt>
      <trkpt lat="41.829270031303167" lon="-3.064484987407923">
        <ele>1039.8</ele>
        <time>2018-05-27T08:46:44Z</time>
      </trkpt>
      <trkpt lat="41.829283023253083" lon="-3.064317014068365">
        <ele>1039.8</ele>
        <time>2018-05-27T08:46:48Z</time>
      </trkpt>
      <trkpt lat="41.829325016587973" lon="-3.063892973586917">
        <ele>1039.8</ele>
        <time>2018-05-27T08:46:57Z</time>
      </trkpt>
      <trkpt lat="41.829357035458088" lon="-3.063848968595266">
        <ele>1039.8</ele>
        <time>2018-05-27T08:46:59Z</time>
      </trkpt>
      <trkpt lat="41.82938301935792" lon="-3.063676971942186">
        <ele>1039.7</ele>
        <time>2018-05-27T08:47:02Z</time>
      </trkpt>
      <trkpt lat="41.829444961622357" lon="-3.062885971739888">
        <ele>1038.9000000000001</ele>
        <time>2018-05-27T08:47:20Z</time>
      </trkpt>
      <trkpt lat="41.829575970768929" lon="-3.062067981809378">
        <ele>1040</ele>
        <time>2018-05-27T08:47:38Z</time>
      </trkpt>
      <trkpt lat="41.829721983522177" lon="-3.061744021251798">
        <ele>1041.3</ele>
        <time>2018-05-27T08:47:47Z</time>
      </trkpt>
      <trkpt lat="41.829875959083438" lon="-3.061388963833451">
        <ele>1042.4000000000001</ele>
        <time>2018-05-27T08:47:56Z</time>
      </trkpt>
      <trkpt lat="41.829944020137191" lon="-3.06123498827219">
        <ele>1042.7</ele>
        <time>2018-05-27T08:48:00Z</time>
      </trkpt>
      <trkpt lat="41.830171002075076" lon="-3.060710029676557">
        <ele>1044.5</ele>
        <time>2018-05-27T08:48:13Z</time>
      </trkpt>
      <trkpt lat="41.83028600178659" lon="-3.060436025261879">
        <ele>1045.3</ele>
        <time>2018-05-27T08:48:20Z</time>
      </trkpt>
      <trkpt lat="41.830405024811625" lon="-3.059738986194134">
        <ele>1045.0999999999999</ele>
        <time>2018-05-27T08:48:36Z</time>
      </trkpt>
      <trkpt lat="41.830606022849679" lon="-3.059142027050257">
        <ele>1046.5</ele>
        <time>2018-05-27T08:48:50Z</time>
      </trkpt>
      <trkpt lat="41.830613985657692" lon="-3.059039013460279">
        <ele>1046.5999999999999</ele>
        <time>2018-05-27T08:48:53Z</time>
      </trkpt>
      <trkpt lat="41.830735020339489" lon="-3.058318002149463">
        <ele>1047.0999999999999</ele>
        <time>2018-05-27T08:49:09Z</time>
      </trkpt>
      <trkpt lat="41.830792017281055" lon="-3.058168971911073">
        <ele>1047.2</ele>
        <time>2018-05-27T08:49:13Z</time>
      </trkpt>
      <trkpt lat="41.831020005047321" lon="-3.057617023587227">
        <ele>1046.7</ele>
        <time>2018-05-27T08:49:27Z</time>
      </trkpt>
      <trkpt lat="41.831254027783871" lon="-3.057055016979575">
        <ele>1046.0999999999999</ele>
        <time>2018-05-27T08:49:41Z</time>
      </trkpt>
      <trkpt lat="41.831331979483366" lon="-3.056915039196611">
        <ele>1048.0999999999999</ele>
        <time>2018-05-27T08:49:45Z</time>
      </trkpt>
      <trkpt lat="41.831433987244964" lon="-3.056738013401628">
        <ele>1050</ele>
        <time>2018-05-27T08:49:50Z</time>
      </trkpt>
      <trkpt lat="41.831816034391522" lon="-3.056172989308834">
        <ele>1051.5</ele>
        <time>2018-05-27T08:50:07Z</time>
      </trkpt>
      <trkpt lat="41.832279972732067" lon="-3.055590027943254">
        <ele>1050.9000000000001</ele>
        <time>2018-05-27T08:50:25Z</time>
      </trkpt>
      <trkpt lat="41.83271499350667" lon="-3.054987033829093">
        <ele>1052.9000000000001</ele>
        <time>2018-05-27T08:50:44Z</time>
      </trkpt>
      <trkpt lat="41.833120007067919" lon="-3.054123027250171">
        <ele>1049.8</ele>
        <time>2018-05-27T08:51:07Z</time>
      </trkpt>
      <trkpt lat="41.833194019272923" lon="-3.053905013948679">
        <ele>1049.9000000000001</ele>
        <time>2018-05-27T08:51:12Z</time>
      </trkpt>
      <trkpt lat="41.833327962085605" lon="-3.05328500457108">
        <ele>1050.7</ele>
        <time>2018-05-27T08:51:26Z</time>
      </trkpt>
      <trkpt lat="41.833399040624499" lon="-3.05289700627327">
        <ele>1051</ele>
        <time>2018-05-27T08:51:35Z</time>
      </trkpt>
      <trkpt lat="41.833424018695951" lon="-3.052607998251915">
        <ele>1051</ele>
        <time>2018-05-27T08:51:41Z</time>
      </trkpt>
      <trkpt lat="41.833523008972406" lon="-3.051666961982846">
        <ele>1052</ele>
        <time>2018-05-27T08:52:02Z</time>
      </trkpt>
      <trkpt lat="41.833599032834172" lon="-3.051066985353828">
        <ele>1052.5999999999999</ele>
        <time>2018-05-27T08:52:16Z</time>
      </trkpt>
      <trkpt lat="41.833715038374066" lon="-3.050431972369552">
        <ele>1050.5</ele>
        <time>2018-05-27T08:52:30Z</time>
      </trkpt>
      <trkpt lat="41.833910001441836" lon="-3.049653964117169">
        <ele>1056.4000000000001</ele>
        <time>2018-05-27T08:52:48Z</time>
      </trkpt>
      <trkpt lat="41.834019972011447" lon="-3.049316005781293">
        <ele>1058.8</ele>
        <time>2018-05-27T08:52:56Z</time>
      </trkpt>
      <trkpt lat="41.834209989756346" lon="-3.048687027767301">
        <ele>1059.4000000000001</ele>
        <time>2018-05-27T08:53:11Z</time>
      </trkpt>
      <trkpt lat="41.83447502553463" lon="-3.047749008983374">
        <ele>1057.7</ele>
        <time>2018-05-27T08:53:34Z</time>
      </trkpt>
      <trkpt lat="41.834597988054156" lon="-3.047327985987067">
        <ele>1055.9000000000001</ele>
        <time>2018-05-27T08:53:44Z</time>
      </trkpt>
      <trkpt lat="41.834705024957657" lon="-3.046949962154031">
        <ele>1057.9000000000001</ele>
        <time>2018-05-27T08:53:53Z</time>
      </trkpt>
      <trkpt lat="41.834878027439117" lon="-3.046546960249543">
        <ele>1060.8</ele>
        <time>2018-05-27T08:54:03Z</time>
      </trkpt>
      <trkpt lat="41.835083970800042" lon="-3.046068018302321">
        <ele>1062.5</ele>
        <time>2018-05-27T08:54:15Z</time>
      </trkpt>
      <trkpt lat="41.835131999105215" lon="-3.04591597057879">
        <ele>1062.7</ele>
        <time>2018-05-27T08:54:19Z</time>
      </trkpt>
      <trkpt lat="41.835242975503206" lon="-3.045714972540736">
        <ele>1062.0999999999999</ele>
        <time>2018-05-27T08:54:24Z</time>
      </trkpt>
      <trkpt lat="41.835439028218389" lon="-3.045333009213209">
        <ele>1059.7</ele>
        <time>2018-05-27T08:54:34Z</time>
      </trkpt>
      <trkpt lat="41.835503987967968" lon="-3.045240975916386">
        <ele>1061.2</ele>
        <time>2018-05-27T08:54:37Z</time>
      </trkpt>
      <trkpt lat="41.835757037624717" lon="-3.044782988727093">
        <ele>1064.3</ele>
        <time>2018-05-27T08:54:50Z</time>
      </trkpt>
      <trkpt lat="41.836112011224031" lon="-3.044116040691733">
        <ele>1063.7</ele>
        <time>2018-05-27T08:55:08Z</time>
      </trkpt>
      <trkpt lat="41.836419962346554" lon="-3.043378014117479">
        <ele>1063.2</ele>
        <time>2018-05-27T08:55:27Z</time>
      </trkpt>
      <trkpt lat="41.836505038663745" lon="-3.04307802580297">
        <ele>1063.5</ele>
        <time>2018-05-27T08:55:34Z</time>
      </trkpt>
      <trkpt lat="41.836566980928183" lon="-3.042373023927212">
        <ele>1062.9000000000001</ele>
        <time>2018-05-27T08:55:49Z</time>
      </trkpt>
      <trkpt lat="41.836597993969917" lon="-3.042294988408685">
        <ele>1063.2</ele>
        <time>2018-05-27T08:55:51Z</time>
      </trkpt>
      <trkpt lat="41.836657002568245" lon="-3.041766006499529">
        <ele>1063.9000000000001</ele>
        <time>2018-05-27T08:56:03Z</time>
      </trkpt>
      <trkpt lat="41.836686003953218" lon="-3.041688976809382">
        <ele>1064.2</ele>
        <time>2018-05-27T08:56:05Z</time>
      </trkpt>
      <trkpt lat="41.836735038086772" lon="-3.041305001825094">
        <ele>1064.7</ele>
        <time>2018-05-27T08:56:14Z</time>
      </trkpt>
      <trkpt lat="41.836770996451378" lon="-3.041093023493886">
        <ele>1065.0999999999999</ele>
        <time>2018-05-27T08:56:18Z</time>
      </trkpt>
      <trkpt lat="41.836780970916152" lon="-3.040870986878872">
        <ele>1065.4000000000001</ele>
        <time>2018-05-27T08:56:23Z</time>
      </trkpt>
      <trkpt lat="41.836773008108139" lon="-3.040739977732301">
        <ele>1065.5</ele>
        <time>2018-05-27T08:56:26Z</time>
      </trkpt>
      <trkpt lat="41.836784994229674" lon="-3.040612991899252">
        <ele>1065.7</ele>
        <time>2018-05-27T08:56:29Z</time>
      </trkpt>
      <trkpt lat="41.836779965087771" lon="-3.0403290130198">
        <ele>1065.5999999999999</ele>
        <time>2018-05-27T08:56:35Z</time>
      </trkpt>
      <trkpt lat="41.836790023371577" lon="-3.039851998910308">
        <ele>1064.7</ele>
        <time>2018-05-27T08:56:46Z</time>
      </trkpt>
      <trkpt lat="41.836793040856719" lon="-3.039265014231205">
        <ele>1065.0999999999999</ele>
        <time>2018-05-27T08:56:59Z</time>
      </trkpt>
      <trkpt lat="41.836780970916152" lon="-3.038914985954762">
        <ele>1066.0999999999999</ele>
        <time>2018-05-27T08:57:07Z</time>
      </trkpt>
      <trkpt lat="41.836832016706467" lon="-3.038792023435235">
        <ele>1066.5999999999999</ele>
        <time>2018-05-27T08:57:10Z</time>
      </trkpt>
      <trkpt lat="41.836913991719484" lon="-3.038228005170822">
        <ele>1067.9000000000001</ele>
        <time>2018-05-27T08:57:22Z</time>
      </trkpt>
      <trkpt lat="41.836938969790936" lon="-3.038043016567826">
        <ele>1068.4000000000001</ele>
        <time>2018-05-27T08:57:27Z</time>
      </trkpt>
      <trkpt lat="41.836908962577581" lon="-3.037846041843295">
        <ele>1068.5</ele>
        <time>2018-05-27T08:57:31Z</time>
      </trkpt>
      <trkpt lat="41.836932012811303" lon="-3.037745961919427">
        <ele>1068.5</ele>
        <time>2018-05-27T08:57:33Z</time>
      </trkpt>
      <trkpt lat="41.836938969790936" lon="-3.037640014663339">
        <ele>1068.5</ele>
        <time>2018-05-27T08:57:36Z</time>
      </trkpt>
      <trkpt lat="41.836933018639684" lon="-3.037124024704099">
        <ele>1068.0999999999999</ele>
        <time>2018-05-27T08:57:47Z</time>
      </trkpt>
      <trkpt lat="41.836941987276077" lon="-3.036819007247686">
        <ele>1067.7</ele>
        <time>2018-05-27T08:57:54Z</time>
      </trkpt>
      <trkpt lat="41.837003007531166" lon="-3.036231016740203">
        <ele>1066.8</ele>
        <time>2018-05-27T08:58:07Z</time>
      </trkpt>
      <trkpt lat="41.837066961452365" lon="-3.035906972363591">
        <ele>1066.2</ele>
        <time>2018-05-27T08:58:14Z</time>
      </trkpt>
      <trkpt lat="41.837066039443016" lon="-3.035645037889481">
        <ele>1065.5</ele>
        <time>2018-05-27T08:58:20Z</time>
      </trkpt>
      <trkpt lat="41.83716201223433" lon="-3.034973982721567">
        <ele>1065</ele>
        <time>2018-05-27T08:58:35Z</time>
      </trkpt>
      <trkpt lat="41.837325962260365" lon="-3.03426998667419">
        <ele>1067.3</ele>
        <time>2018-05-27T08:58:51Z</time>
      </trkpt>
      <trkpt lat="41.837529977783561" lon="-3.033622987568378">
        <ele>1070.0999999999999</ele>
        <time>2018-05-27T08:59:07Z</time>
      </trkpt>
      <trkpt lat="41.837707003578544" lon="-3.033221997320652">
        <ele>1070.7</ele>
        <time>2018-05-27T08:59:17Z</time>
      </trkpt>
      <trkpt lat="41.837751008570194" lon="-3.033138010650873">
        <ele>1070.8</ele>
        <time>2018-05-27T08:59:20Z</time>
      </trkpt>
      <trkpt lat="41.837825020775199" lon="-3.033012030646205">
        <ele>1070.9000000000001</ele>
        <time>2018-05-27T08:59:23Z</time>
      </trkpt>
      <trkpt lat="41.838016966357827" lon="-3.032611962407827">
        <ele>1071.5</ele>
        <time>2018-05-27T08:59:34Z</time>
      </trkpt>
      <trkpt lat="41.838323995471001" lon="-3.032122040167451">
        <ele>1072.2</ele>
        <time>2018-05-27T08:59:48Z</time>
      </trkpt>
      <trkpt lat="41.838729009032249" lon="-3.031623987480998">
        <ele>1073.8</ele>
        <time>2018-05-27T09:00:04Z</time>
      </trkpt>
      <trkpt lat="41.839103009551764" lon="-3.031268008053303">
        <ele>1076.5</ele>
        <time>2018-05-27T09:00:18Z</time>
      </trkpt>
      <trkpt lat="41.839257990941405" lon="-3.031156025826931">
        <ele>1077.9000000000001</ele>
        <time>2018-05-27T09:00:23Z</time>
      </trkpt>
      <trkpt lat="41.839321022853255" lon="-3.031042031943798">
        <ele>1078.4000000000001</ele>
        <time>2018-05-27T09:00:26Z</time>
      </trkpt>
      <trkpt lat="41.839358992874622" lon="-3.030916973948479">
        <ele>1078.7</ele>
        <time>2018-05-27T09:00:29Z</time>
      </trkpt>
      <trkpt lat="41.839384976774454" lon="-3.03076702170074">
        <ele>1078.8</ele>
        <time>2018-05-27T09:00:32Z</time>
      </trkpt>
      <trkpt lat="41.839402997866273" lon="-3.030700972303748">
        <ele>1078.9000000000001</ele>
        <time>2018-05-27T09:00:34Z</time>
      </trkpt>
      <trkpt lat="41.839479021728039" lon="-3.03038296289742">
        <ele>1079</ele>
        <time>2018-05-27T09:00:41Z</time>
      </trkpt>
      <trkpt lat="41.839474998414516" lon="-3.030093032866716">
        <ele>1076.9000000000001</ele>
        <time>2018-05-27T09:00:48Z</time>
      </trkpt>
      <trkpt lat="41.839492013677955" lon="-3.029933022335172">
        <ele>1075.9000000000001</ele>
        <time>2018-05-27T09:00:51Z</time>
      </trkpt>
      <trkpt lat="41.839515985921025" lon="-3.029769994318485">
        <ele>1074.9000000000001</ele>
        <time>2018-05-27T09:00:55Z</time>
      </trkpt>
      <trkpt lat="41.83939796872437" lon="-3.02965197712183">
        <ele>1073.2</ele>
        <time>2018-05-27T09:00:59Z</time>
      </trkpt>
      <trkpt lat="41.839186996221542" lon="-3.029664969071746">
        <ele>1071.7</ele>
        <time>2018-05-27T09:01:06Z</time>
      </trkpt>
      <trkpt lat="41.839274000376463" lon="-3.029633034020662">
        <ele>1072.0999999999999</ele>
        <time>2018-05-27T09:01:08Z</time>
      </trkpt>
      <trkpt lat="41.839597960934043" lon="-3.029624987393618">
        <ele>1074.3</ele>
        <time>2018-05-27T09:01:18Z</time>
      </trkpt>
      <trkpt lat="41.839835001155734" lon="-3.029471011832357">
        <ele>1074.2</ele>
        <time>2018-05-27T09:01:26Z</time>
      </trkpt>
      <trkpt lat="41.839899038895965" lon="-3.029327010735869">
        <ele>1073.7</ele>
        <time>2018-05-27T09:01:29Z</time>
      </trkpt>
      <trkpt lat="41.839894009754062" lon="-3.029209999367595">
        <ele>1073.2</ele>
        <time>2018-05-27T09:01:32Z</time>
      </trkpt>
      <trkpt lat="41.839917981997132" lon="-3.029094999656081">
        <ele>1072.8</ele>
        <time>2018-05-27T09:01:35Z</time>
      </trkpt>
      <trkpt lat="41.839870037510991" lon="-3.02896399050951">
        <ele>1072.2</ele>
        <time>2018-05-27T09:01:38Z</time>
      </trkpt>
      <trkpt lat="41.839907001703978" lon="-3.028897019103169">
        <ele>1072</ele>
        <time>2018-05-27T09:01:40Z</time>
      </trkpt>
      <trkpt lat="41.83997699059546" lon="-3.028819989413023">
        <ele>1071.8</ele>
        <time>2018-05-27T09:01:42Z</time>
      </trkpt>
      <trkpt lat="41.840068018063903" lon="-3.02866199053824">
        <ele>1071.2</ele>
        <time>2018-05-27T09:01:47Z</time>
      </trkpt>
      <trkpt lat="41.840185029432178" lon="-3.027991019189358">
        <ele>1068.2</ele>
        <time>2018-05-27T09:02:02Z</time>
      </trkpt>
      <trkpt lat="41.840271027758718" lon="-3.027316024526954">
        <ele>1068</ele>
        <time>2018-05-27T09:02:17Z</time>
      </trkpt>
      <trkpt lat="41.840273961424828" lon="-3.027190966531634">
        <ele>1068.0999999999999</ele>
        <time>2018-05-27T09:02:20Z</time>
      </trkpt>
      <trkpt lat="41.840393990278244" lon="-3.026734990999103">
        <ele>1068.4000000000001</ele>
        <time>2018-05-27T09:02:30Z</time>
      </trkpt>
      <trkpt lat="41.840604962781072" lon="-3.026431985199451">
        <ele>1069.5999999999999</ele>
        <time>2018-05-27T09:02:40Z</time>
      </trkpt>
      <trkpt lat="41.840524999424815" lon="-3.025772999972105">
        <ele>1071.0999999999999</ele>
        <time>2018-05-27T09:02:54Z</time>
      </trkpt>
      <trkpt lat="41.840446041896939" lon="-3.02518299780786">
        <ele>1072.2</ele>
        <time>2018-05-27T09:03:08Z</time>
      </trkpt>
      <trkpt lat="41.840354008600116" lon="-3.024621997028589">
        <ele>1074.7</ele>
        <time>2018-05-27T09:03:20Z</time>
      </trkpt>
      <trkpt lat="41.840326013043523" lon="-3.024130985140801">
        <ele>1075.2</ele>
        <time>2018-05-27T09:03:31Z</time>
      </trkpt>
      <trkpt lat="41.840372029691935" lon="-3.023899979889393">
        <ele>1074.5999999999999</ele>
        <time>2018-05-27T09:03:36Z</time>
      </trkpt>
      <trkpt lat="41.840463979169726" lon="-3.023700993508101">
        <ele>1074.5</ele>
        <time>2018-05-27T09:03:42Z</time>
      </trkpt>
      <trkpt lat="41.840500021353364" lon="-3.023067992180586">
        <ele>1075.5</ele>
        <time>2018-05-27T09:03:56Z</time>
      </trkpt>
      <trkpt lat="41.840391978621483" lon="-3.022552002221346">
        <ele>1074.7</ele>
        <time>2018-05-27T09:04:07Z</time>
      </trkpt>
      <trkpt lat="41.840238003060222" lon="-3.021994018927217">
        <ele>1074.4000000000001</ele>
        <time>2018-05-27T09:04:21Z</time>
      </trkpt>
      <trkpt lat="41.840143036097288" lon="-3.021804001182318">
        <ele>1074.0999999999999</ele>
        <time>2018-05-27T09:04:26Z</time>
      </trkpt>
      <trkpt lat="41.840023007243872" lon="-3.021439975127578">
        <ele>1073.0999999999999</ele>
        <time>2018-05-27T09:04:34Z</time>
      </trkpt>
      <trkpt lat="41.839983025565743" lon="-3.021235037595034">
        <ele>1072.5999999999999</ele>
        <time>2018-05-27T09:04:39Z</time>
      </trkpt>
      <trkpt lat="41.839975984767079" lon="-3.021101010963321">
        <ele>1072.9000000000001</ele>
        <time>2018-05-27T09:04:42Z</time>
      </trkpt>
      <trkpt lat="41.839999035000801" lon="-3.020816026255488">
        <ele>1073.5</ele>
        <time>2018-05-27T09:04:48Z</time>
      </trkpt>
      <trkpt lat="41.839971039444208" lon="-3.020206997171044">
        <ele>1074.7</ele>
        <time>2018-05-27T09:05:02Z</time>
      </trkpt>
      <trkpt lat="41.839874982833862" lon="-3.019985966384411">
        <ele>1074.7</ele>
        <time>2018-05-27T09:05:08Z</time>
      </trkpt>
      <trkpt lat="41.839798958972096" lon="-3.019753033295274">
        <ele>1075</ele>
        <time>2018-05-27T09:05:13Z</time>
      </trkpt>
      <trkpt lat="41.83969896286726" lon="-3.019032021984458">
        <ele>1078.3</ele>
        <time>2018-05-27T09:05:29Z</time>
      </trkpt>
      <trkpt lat="41.839713966473937" lon="-3.01849901676178">
        <ele>1079.9000000000001</ele>
        <time>2018-05-27T09:05:41Z</time>
      </trkpt>
      <trkpt lat="41.839688988402486" lon="-3.018023008480668">
        <ele>1080.0999999999999</ele>
        <time>2018-05-27T09:05:52Z</time>
      </trkpt>
      <trkpt lat="41.839732993394136" lon="-3.017782028764486">
        <ele>1081</ele>
        <time>2018-05-27T09:05:57Z</time>
      </trkpt>
      <trkpt lat="41.839755037799478" lon="-3.017581030726433">
        <ele>1082.2</ele>
        <time>2018-05-27T09:06:02Z</time>
      </trkpt>
      <trkpt lat="41.839742967858911" lon="-3.017504001036286">
        <ele>1082.7</ele>
        <time>2018-05-27T09:06:03Z</time>
      </trkpt>
      <trkpt lat="41.839672978967428" lon="-3.017547000199556">
        <ele>1082.3</ele>
        <time>2018-05-27T09:06:06Z</time>
      </trkpt>
      <trkpt lat="41.839587986469269" lon="-3.017556974664331">
        <ele>1082.2</ele>
        <time>2018-05-27T09:06:08Z</time>
      </trkpt>
      <trkpt lat="41.839551022276282" lon="-3.017486985772848">
        <ele>1082.5999999999999</ele>
        <time>2018-05-27T09:06:10Z</time>
      </trkpt>
      <trkpt lat="41.839508023113012" lon="-3.017370980232954">
        <ele>1083</ele>
        <time>2018-05-27T09:06:13Z</time>
      </trkpt>
      <trkpt lat="41.839447002857924" lon="-3.017160007730126">
        <ele>1083.5999999999999</ele>
        <time>2018-05-27T09:06:18Z</time>
      </trkpt>
      <trkpt lat="41.839560996741056" lon="-3.016518037766218">
        <ele>1088.2</ele>
        <time>2018-05-27T09:06:33Z</time>
      </trkpt>
      <trkpt lat="41.839658981189132" lon="-3.016342017799616">
        <ele>1089.5</ele>
        <time>2018-05-27T09:06:37Z</time>
      </trkpt>
      <trkpt lat="41.839726036414504" lon="-3.016241015866399">
        <ele>1090.0999999999999</ele>
        <time>2018-05-27T09:06:40Z</time>
      </trkpt>
      <trkpt lat="41.839742967858911" lon="-3.015786968171597">
        <ele>1093.9000000000001</ele>
        <time>2018-05-27T09:06:50Z</time>
      </trkpt>
      <trkpt lat="41.839592009782791" lon="-3.015542970970273">
        <ele>1095.0999999999999</ele>
        <time>2018-05-27T09:06:57Z</time>
      </trkpt>
      <trkpt lat="41.839529983699322" lon="-3.015443980693817">
        <ele>1095.2</ele>
        <time>2018-05-27T09:07:00Z</time>
      </trkpt>
      <trkpt lat="41.839478015899658" lon="-3.015407016500831">
        <ele>1094.8</ele>
        <time>2018-05-27T09:07:02Z</time>
      </trkpt>
      <trkpt lat="41.83933200314641" lon="-3.015450015664101">
        <ele>1092.8</ele>
        <time>2018-05-27T09:07:07Z</time>
      </trkpt>
      <trkpt lat="41.839185990393162" lon="-3.01551497541368">
        <ele>1090.7</ele>
        <time>2018-05-27T09:07:11Z</time>
      </trkpt>
      <trkpt lat="41.839067973196507" lon="-3.015459990128875">
        <ele>1089.5999999999999</ele>
        <time>2018-05-27T09:07:15Z</time>
      </trkpt>
      <trkpt lat="41.838950039818883" lon="-3.015216998755932">
        <ele>1089.8</ele>
        <time>2018-05-27T09:07:21Z</time>
      </trkpt>
      <trkpt lat="41.838820036500692" lon="-3.015091018751264">
        <ele>1089.2</ele>
        <time>2018-05-27T09:07:26Z</time>
      </trkpt>
      <trkpt lat="41.838603029027581" lon="-3.015171987935901">
        <ele>1086.7</ele>
        <time>2018-05-27T09:07:33Z</time>
      </trkpt>
      <trkpt lat="41.838542008772492" lon="-3.015118008479476">
        <ele>1086.5999999999999</ele>
        <time>2018-05-27T09:07:35Z</time>
      </trkpt>
      <trkpt lat="41.838376969099045" lon="-3.014858001843095">
        <ele>1086.9000000000001</ele>
        <time>2018-05-27T09:07:42Z</time>
      </trkpt>
      <trkpt lat="41.838306980207562" lon="-3.014401020482183">
        <ele>1087.8</ele>
        <time>2018-05-27T09:07:53Z</time>
      </trkpt>
      <trkpt lat="41.838205978274345" lon="-3.013845970854163">
        <ele>1086.8</ele>
        <time>2018-05-27T09:08:05Z</time>
      </trkpt>
      <trkpt lat="41.838167002424598" lon="-3.013669028878212">
        <ele>1086.5</ele>
        <time>2018-05-27T09:08:09Z</time>
      </trkpt>
      <trkpt lat="41.838121991604567" lon="-3.013679003342986">
        <ele>1085.8</ele>
        <time>2018-05-27T09:08:11Z</time>
      </trkpt>
      <trkpt lat="41.837948989123106" lon="-3.013685960322619">
        <ele>1083.5</ele>
        <time>2018-05-27T09:08:16Z</time>
      </trkpt>
      <trkpt lat="41.837742039933801" lon="-3.01366601139307">
        <ele>1084.5</ele>
        <time>2018-05-27T09:08:22Z</time>
      </trkpt>
      <trkpt lat="41.83757197111845" lon="-3.012922033667564">
        <ele>1085.2</ele>
        <time>2018-05-27T09:08:39Z</time>
      </trkpt>
      <trkpt lat="41.837409026920795" lon="-3.011745968833566">
        <ele>1084.8</ele>
        <time>2018-05-27T09:09:06Z</time>
      </trkpt>
      <trkpt lat="41.837299978360534" lon="-3.010819014161825">
        <ele>1085.8</ele>
        <time>2018-05-27T09:09:26Z</time>
      </trkpt>
      <trkpt lat="41.83729100972414" lon="-3.010751958936453">
        <ele>1085.9000000000001</ele>
        <time>2018-05-27T09:09:28Z</time>
      </trkpt>
      <trkpt lat="41.837191013619304" lon="-3.009822992607951">
        <ele>1087.3</ele>
        <time>2018-05-27T09:09:49Z</time>
      </trkpt>
      <trkpt lat="41.837315987795591" lon="-3.00943398848176">
        <ele>1089.2</ele>
        <time>2018-05-27T09:09:58Z</time>
      </trkpt>
      <trkpt lat="41.837369967252016" lon="-3.009094018489122">
        <ele>1090.4000000000001</ele>
        <time>2018-05-27T09:10:06Z</time>
      </trkpt>
      <trkpt lat="41.837422018870711" lon="-3.008715994656086">
        <ele>1091.8</ele>
        <time>2018-05-27T09:10:14Z</time>
      </trkpt>
      <trkpt lat="41.83744196780026" lon="-3.008450958877802">
        <ele>1093.4000000000001</ele>
        <time>2018-05-27T09:10:20Z</time>
      </trkpt>
      <trkpt lat="41.837454037740827" lon="-3.008379964157939">
        <ele>1093.8</ele>
        <time>2018-05-27T09:10:22Z</time>
      </trkpt>
      <trkpt lat="41.83767800219357" lon="-3.008290026336908">
        <ele>1096.4000000000001</ele>
        <time>2018-05-27T09:10:29Z</time>
      </trkpt>
      <trkpt lat="41.837815968319774" lon="-3.008065978065133">
        <ele>1098.5999999999999</ele>
        <time>2018-05-27T09:10:35Z</time>
      </trkpt>
      <trkpt lat="41.837867014110088" lon="-3.007654007524252">
        <ele>1101.0999999999999</ele>
        <time>2018-05-27T09:10:44Z</time>
      </trkpt>
      <trkpt lat="41.83795896358788" lon="-3.00672797486186">
        <ele>1104.8</ele>
        <time>2018-05-27T09:11:05Z</time>
      </trkpt>
      <trkpt lat="41.838070023804903" lon="-3.005773024633527">
        <ele>1106.4000000000001</ele>
        <time>2018-05-27T09:11:26Z</time>
      </trkpt>
      <trkpt lat="41.83814998716116" lon="-3.005056036636233">
        <ele>1108.8</ele>
        <time>2018-05-27T09:11:42Z</time>
      </trkpt>
      <trkpt lat="41.83832198381424" lon="-3.004350028932095">
        <ele>1111.0999999999999</ele>
        <time>2018-05-27T09:11:59Z</time>
      </trkpt>
      <trkpt lat="41.838359031826258" lon="-3.004128998145461">
        <ele>1111.2</ele>
        <time>2018-05-27T09:12:04Z</time>
      </trkpt>
      <trkpt lat="41.838513007387519" lon="-3.003731025382876">
        <ele>1112.8</ele>
        <time>2018-05-27T09:12:14Z</time>
      </trkpt>
      <trkpt lat="41.838764967396855" lon="-3.00333296880126">
        <ele>1112.5999999999999</ele>
        <time>2018-05-27T09:12:25Z</time>
      </trkpt>
      <trkpt lat="41.839028997346759" lon="-3.002911023795605">
        <ele>1111</ele>
        <time>2018-05-27T09:12:37Z</time>
      </trkpt>
      <trkpt lat="41.839264025911689" lon="-3.002501986920834">
        <ele>1110.4000000000001</ele>
        <time>2018-05-27T09:12:49Z</time>
      </trkpt>
      <trkpt lat="41.839465023949742" lon="-3.002167968079448">
        <ele>1109.8</ele>
        <time>2018-05-27T09:12:58Z</time>
      </trkpt>
      <trkpt lat="41.839566025882959" lon="-3.001753985881805">
        <ele>1108.7</ele>
        <time>2018-05-27T09:13:08Z</time>
      </trkpt>
      <trkpt lat="41.839684965088964" lon="-3.001315025612712">
        <ele>1107.3</ele>
        <time>2018-05-27T09:13:18Z</time>
      </trkpt>
      <trkpt lat="41.839689994230866" lon="-3.001231038942933">
        <ele>1106.9000000000001</ele>
        <time>2018-05-27T09:13:20Z</time>
      </trkpt>
      <trkpt lat="41.839674990624189" lon="-3.001143028959632">
        <ele>1106.5999999999999</ele>
        <time>2018-05-27T09:13:22Z</time>
      </trkpt>
      <trkpt lat="41.839660992845893" lon="-3.001074967905879">
        <ele>1106.4000000000001</ele>
        <time>2018-05-27T09:13:23Z</time>
      </trkpt>
      <trkpt lat="41.839618999511003" lon="-3.000305006280541">
        <ele>1104.8</ele>
        <time>2018-05-27T09:13:41Z</time>
      </trkpt>
      <trkpt lat="41.839720001444221" lon="-3.000080035999417">
        <ele>1106.3</ele>
        <time>2018-05-27T09:13:46Z</time>
      </trkpt>
      <trkpt lat="41.839813040569425" lon="-2.999994959682226">
        <ele>1106.8</ele>
        <time>2018-05-27T09:13:50Z</time>
      </trkpt>
      <trkpt lat="41.840035999193788" lon="-2.999779963865876">
        <ele>1107.8</ele>
        <time>2018-05-27T09:13:58Z</time>
      </trkpt>
      <trkpt lat="41.840115040540695" lon="-2.999563962221146">
        <ele>1109</ele>
        <time>2018-05-27T09:14:03Z</time>
      </trkpt>
      <trkpt lat="41.840089978650212" lon="-2.999456003308296">
        <ele>1110.3</ele>
        <time>2018-05-27T09:14:06Z</time>
      </trkpt>
      <trkpt lat="41.840137001127005" lon="-2.999301021918654">
        <ele>1112.2</ele>
        <time>2018-05-27T09:14:09Z</time>
      </trkpt>
      <trkpt lat="41.840181006118655" lon="-2.999079991132021">
        <ele>1115</ele>
        <time>2018-05-27T09:14:14Z</time>
      </trkpt>
      <trkpt lat="41.840134989470243" lon="-2.998902965337038">
        <ele>1117.0999999999999</ele>
        <time>2018-05-27T09:14:19Z</time>
      </trkpt>
      <trkpt lat="41.840067012235522" lon="-2.998590990900993">
        <ele>1120.0999999999999</ele>
        <time>2018-05-27T09:14:26Z</time>
      </trkpt>
      <trkpt lat="41.840028958395123" lon="-2.99847599118948">
        <ele>1121</ele>
        <time>2018-05-27T09:14:29Z</time>
      </trkpt>
      <trkpt lat="41.839961986988783" lon="-2.998210033401847">
        <ele>1123.0999999999999</ele>
        <time>2018-05-27T09:14:35Z</time>
      </trkpt>
      <trkpt lat="41.839913036674261" lon="-2.99802403897047">
        <ele>1124.5</ele>
        <time>2018-05-27T09:14:39Z</time>
      </trkpt>
      <trkpt lat="41.839955030009151" lon="-2.997806025668979">
        <ele>1127.3</ele>
        <time>2018-05-27T09:14:44Z</time>
      </trkpt>
      <trkpt lat="41.8401700258255" lon="-2.997343009337783">
        <ele>1133.4000000000001</ele>
        <time>2018-05-27T09:14:56Z</time>
      </trkpt>
      <trkpt lat="41.840268010273576" lon="-2.997175035998225">
        <ele>1135.0999999999999</ele>
        <time>2018-05-27T09:15:01Z</time>
      </trkpt>
      <trkpt lat="41.840328024700284" lon="-2.996989041566849">
        <ele>1136.7</ele>
        <time>2018-05-27T09:15:06Z</time>
      </trkpt>
      <trkpt lat="41.840436989441514" lon="-2.996657034382224">
        <ele>1139.2</ele>
        <time>2018-05-27T09:15:14Z</time>
      </trkpt>
      <trkpt lat="41.840466996654868" lon="-2.996212961152196">
        <ele>1142.5</ele>
        <time>2018-05-27T09:15:24Z</time>
      </trkpt>
      <trkpt lat="41.840468002483249" lon="-2.995986985042691">
        <ele>1144.5</ele>
        <time>2018-05-27T09:15:29Z</time>
      </trkpt>
      <trkpt lat="41.840488035231829" lon="-2.995777018368244">
        <ele>1146.3</ele>
        <time>2018-05-27T09:15:33Z</time>
      </trkpt>
      <trkpt lat="41.840486023575068" lon="-2.995507037267089">
        <ele>1148.5999999999999</ele>
        <time>2018-05-27T09:15:39Z</time>
      </trkpt>
      <trkpt lat="41.840420980006456" lon="-2.995304027572274">
        <ele>1150</ele>
        <time>2018-05-27T09:15:44Z</time>
      </trkpt>
      <trkpt lat="41.840357026085258" lon="-2.994730034843087">
        <ele>1155.4000000000001</ele>
        <time>2018-05-27T09:15:57Z</time>
      </trkpt>
      <trkpt lat="41.840295000001788" lon="-2.994181020185351">
        <ele>1158.7</ele>
        <time>2018-05-27T09:16:09Z</time>
      </trkpt>
      <trkpt lat="41.840258035808802" lon="-2.99396300688386">
        <ele>1159.5999999999999</ele>
        <time>2018-05-27T09:16:14Z</time>
      </trkpt>
      <trkpt lat="41.840184023603797" lon="-2.993681961670518">
        <ele>1160.2</ele>
        <time>2018-05-27T09:16:21Z</time>
      </trkpt>
      <trkpt lat="41.840215958654881" lon="-2.993335034698248">
        <ele>1158.4000000000001</ele>
        <time>2018-05-27T09:16:29Z</time>
      </trkpt>
      <trkpt lat="41.840265998616815" lon="-2.99301995895803">
        <ele>1156.9000000000001</ele>
        <time>2018-05-27T09:16:36Z</time>
      </trkpt>
      <trkpt lat="41.84036498889327" lon="-2.992771016433835">
        <ele>1156.5999999999999</ele>
        <time>2018-05-27T09:16:42Z</time>
      </trkpt>
      <trkpt lat="41.840559029951692" lon="-2.992540011182427">
        <ele>1156.0999999999999</ele>
        <time>2018-05-27T09:16:50Z</time>
      </trkpt>
      <trkpt lat="41.840777965262532" lon="-2.992275981232524">
        <ele>1155.5</ele>
        <time>2018-05-27T09:16:58Z</time>
      </trkpt>
      <trkpt lat="41.840979969128966" lon="-2.991971969604492">
        <ele>1155.4000000000001</ele>
        <time>2018-05-27T09:17:07Z</time>
      </trkpt>
      <trkpt lat="41.841090023517609" lon="-2.991754962131381">
        <ele>1155.8</ele>
        <time>2018-05-27T09:17:13Z</time>
      </trkpt>
      <trkpt lat="41.841205023229122" lon="-2.991453967988491">
        <ele>1157</ele>
        <time>2018-05-27T09:17:21Z</time>
      </trkpt>
      <trkpt lat="41.841265959665179" lon="-2.991091031581163">
        <ele>1158.5999999999999</ele>
        <time>2018-05-27T09:17:29Z</time>
      </trkpt>
      <trkpt lat="41.841325974091887" lon="-2.990823984146118">
        <ele>1159.8</ele>
        <time>2018-05-27T09:17:35Z</time>
      </trkpt>
      <trkpt lat="41.841298984363675" lon="-2.990635978057981">
        <ele>1160.5</ele>
        <time>2018-05-27T09:17:39Z</time>
      </trkpt>
      <trkpt lat="41.841275012120605" lon="-2.990509998053312">
        <ele>1160.8</ele>
        <time>2018-05-27T09:17:42Z</time>
      </trkpt>
      <trkpt lat="41.841199994087219" lon="-2.990277986973524">
        <ele>1160.8</ele>
        <time>2018-05-27T09:17:48Z</time>
      </trkpt>
      <trkpt lat="41.841196976602077" lon="-2.990079000592232">
        <ele>1161.2</ele>
        <time>2018-05-27T09:17:52Z</time>
      </trkpt>
      <trkpt lat="41.841176021844149" lon="-2.989948997274041">
        <ele>1161.3</ele>
        <time>2018-05-27T09:17:55Z</time>
      </trkpt>
      <trkpt lat="41.84115900658071" lon="-2.989839026704431">
        <ele>1161.3</ele>
        <time>2018-05-27T09:17:57Z</time>
      </trkpt>
      <trkpt lat="41.841195970773697" lon="-2.989789992570877">
        <ele>1161.8</ele>
        <time>2018-05-27T09:17:59Z</time>
      </trkpt>
      <trkpt lat="41.841454971581697" lon="-2.989600980654359">
        <ele>1165.5999999999999</ele>
        <time>2018-05-27T09:18:08Z</time>
      </trkpt>
      <trkpt lat="41.841516997665167" lon="-2.989459997043014">
        <ele>1167.8</ele>
        <time>2018-05-27T09:18:11Z</time>
      </trkpt>
      <trkpt lat="41.841625962406397" lon="-2.989366035908461">
        <ele>1170.0999999999999</ele>
        <time>2018-05-27T09:18:15Z</time>
      </trkpt>
      <trkpt lat="41.841798964887857" lon="-2.98915003426373">
        <ele>1174.2</ele>
        <time>2018-05-27T09:18:22Z</time>
      </trkpt>
      <trkpt lat="41.841936009004712" lon="-2.988806962966919">
        <ele>1178.9000000000001</ele>
        <time>2018-05-27T09:18:31Z</time>
      </trkpt>
      <trkpt lat="41.842080010101199" lon="-2.98863303847611">
        <ele>1181.5</ele>
        <time>2018-05-27T09:18:37Z</time>
      </trkpt>
      <trkpt lat="41.842191992327571" lon="-2.988531030714512">
        <ele>1183</ele>
        <time>2018-05-27T09:18:41Z</time>
      </trkpt>
      <trkpt lat="41.842389972880483" lon="-2.987995008006692">
        <ele>1188.5</ele>
        <time>2018-05-27T09:18:54Z</time>
      </trkpt>
      <trkpt lat="41.842397013679147" lon="-2.987908003851771">
        <ele>1189.2</ele>
        <time>2018-05-27T09:18:56Z</time>
      </trkpt>
      <trkpt lat="41.842421991750598" lon="-2.987674986943603">
        <ele>1191.5999999999999</ele>
        <time>2018-05-27T09:19:01Z</time>
      </trkpt>
      <trkpt lat="41.842455016449094" lon="-2.987344991415739">
        <ele>1194.8</ele>
        <time>2018-05-27T09:19:09Z</time>
      </trkpt>
      <trkpt lat="41.842460967600346" lon="-2.986803017556667">
        <ele>1200</ele>
        <time>2018-05-27T09:19:21Z</time>
      </trkpt>
      <trkpt lat="41.842406988143921" lon="-2.986390041187406">
        <ele>1204.2</ele>
        <time>2018-05-27T09:19:30Z</time>
      </trkpt>
      <trkpt lat="41.842459961771965" lon="-2.986032972112298">
        <ele>1207.3</ele>
        <time>2018-05-27T09:19:38Z</time>
      </trkpt>
      <trkpt lat="41.842358959838748" lon="-2.985790986567736">
        <ele>1208.8</ele>
        <time>2018-05-27T09:19:44Z</time>
      </trkpt>
      <trkpt lat="41.842389972880483" lon="-2.985393013805151">
        <ele>1211.2</ele>
        <time>2018-05-27T09:19:53Z</time>
      </trkpt>
      <trkpt lat="41.842418974265456" lon="-2.985249012708664">
        <ele>1211</ele>
        <time>2018-05-27T09:19:56Z</time>
      </trkpt>
      <trkpt lat="41.842473037540913" lon="-2.985081039369106">
        <ele>1211</ele>
        <time>2018-05-27T09:20:01Z</time>
      </trkpt>
      <trkpt lat="41.842535985633731" lon="-2.984975008293986">
        <ele>1211.0999999999999</ele>
        <time>2018-05-27T09:20:04Z</time>
      </trkpt>
      <trkpt lat="41.842607986181974" lon="-2.984880041331053">
        <ele>1211.4000000000001</ele>
        <time>2018-05-27T09:20:06Z</time>
      </trkpt>
      <trkpt lat="41.842741006985307" lon="-2.984723970293999">
        <ele>1212.3</ele>
        <time>2018-05-27T09:20:12Z</time>
      </trkpt>
      <trkpt lat="41.842842008918524" lon="-2.984594972804189">
        <ele>1213.4000000000001</ele>
        <time>2018-05-27T09:20:16Z</time>
      </trkpt>
      <trkpt lat="41.842952985316515" lon="-2.984057022258639">
        <ele>1217.2</ele>
        <time>2018-05-27T09:20:28Z</time>
      </trkpt>
      <trkpt lat="41.842975029721856" lon="-2.983867004513741">
        <ele>1218.5</ele>
        <time>2018-05-27T09:20:32Z</time>
      </trkpt>
      <trkpt lat="41.842980980873108" lon="-2.983704982325435">
        <ele>1219.8</ele>
        <time>2018-05-27T09:20:36Z</time>
      </trkpt>
      <trkpt lat="41.842871010303497" lon="-2.983336010947824">
        <ele>1221.5999999999999</ele>
        <time>2018-05-27T09:20:45Z</time>
      </trkpt>
      <trkpt lat="41.842625001445413" lon="-2.982879029586911">
        <ele>1221.4000000000001</ele>
        <time>2018-05-27T09:20:57Z</time>
      </trkpt>
      <trkpt lat="41.842570016160607" lon="-2.982487007975578">
        <ele>1223.5999999999999</ele>
        <time>2018-05-27T09:21:06Z</time>
      </trkpt>
      <trkpt lat="41.842515030875802" lon="-2.982107978314161">
        <ele>1226</ele>
        <time>2018-05-27T09:21:15Z</time>
      </trkpt>
      <trkpt lat="41.842397013679147" lon="-2.981711011379957">
        <ele>1227.4000000000001</ele>
        <time>2018-05-27T09:21:24Z</time>
      </trkpt>
      <trkpt lat="41.842140024527907" lon="-2.981356959789991">
        <ele>1229</ele>
        <time>2018-05-27T09:21:35Z</time>
      </trkpt>
      <trkpt lat="41.841903990134597" lon="-2.981160990893841">
        <ele>1230.2</ele>
        <time>2018-05-27T09:21:43Z</time>
      </trkpt>
      <trkpt lat="41.841783039271832" lon="-2.980979019775987">
        <ele>1230.5</ele>
        <time>2018-05-27T09:21:49Z</time>
      </trkpt>
      <trkpt lat="41.841420019045472" lon="-2.980882963165641">
        <ele>1230.5</ele>
        <time>2018-05-27T09:22:00Z</time>
      </trkpt>
      <trkpt lat="41.84098700992763" lon="-2.980811968445778">
        <ele>1229.7</ele>
        <time>2018-05-27T09:22:13Z</time>
      </trkpt>
      <trkpt lat="41.840776959434152" lon="-2.980680037289858">
        <ele>1229.4000000000001</ele>
        <time>2018-05-27T09:22:19Z</time>
      </trkpt>
      <trkpt lat="41.840588031336665" lon="-2.980418018996716">
        <ele>1229.4000000000001</ele>
        <time>2018-05-27T09:22:27Z</time>
      </trkpt>
      <trkpt lat="41.840524999424815" lon="-2.980369990691543">
        <ele>1229.0999999999999</ele>
        <time>2018-05-27T09:22:30Z</time>
      </trkpt>
      <trkpt lat="41.840500021353364" lon="-2.980315005406737">
        <ele>1228.9000000000001</ele>
        <time>2018-05-27T09:22:31Z</time>
      </trkpt>
      <trkpt lat="41.840457022190094" lon="-2.98016999848187">
        <ele>1228.5</ele>
        <time>2018-05-27T09:22:34Z</time>
      </trkpt>
      <trkpt lat="41.840293994173408" lon="-2.979894988238812">
        <ele>1227</ele>
        <time>2018-05-27T09:22:42Z</time>
      </trkpt>
      <trkpt lat="41.840244038030505" lon="-2.979824999347329">
        <ele>1226.5999999999999</ele>
        <time>2018-05-27T09:22:44Z</time>
      </trkpt>
      <trkpt lat="41.840192992240191" lon="-2.979748975485563">
        <ele>1226.4000000000001</ele>
        <time>2018-05-27T09:22:47Z</time>
      </trkpt>
      <trkpt lat="41.840049996972084" lon="-2.979538002982736">
        <ele>1225.9000000000001</ele>
        <time>2018-05-27T09:22:53Z</time>
      </trkpt>
      <trkpt lat="41.839908007532358" lon="-2.979328958317637">
        <ele>1224.8</ele>
        <time>2018-05-27T09:22:59Z</time>
      </trkpt>
      <trkpt lat="41.839790996164083" lon="-2.979030981659889">
        <ele>1223.8</ele>
        <time>2018-05-27T09:23:07Z</time>
      </trkpt>
      <trkpt lat="41.839781021699309" lon="-2.978765023872256">
        <ele>1223.0999999999999</ele>
        <time>2018-05-27T09:23:12Z</time>
      </trkpt>
      <trkpt lat="41.839775992557406" lon="-2.978501999750733">
        <ele>1222.4000000000001</ele>
        <time>2018-05-27T09:23:18Z</time>
      </trkpt>
      <trkpt lat="41.839598966762424" lon="-2.978231012821198">
        <ele>1222.7</ele>
        <time>2018-05-27T09:23:26Z</time>
      </trkpt>
      <trkpt lat="41.839556973427534" lon="-2.978045018389821">
        <ele>1222.2</ele>
        <time>2018-05-27T09:23:31Z</time>
      </trkpt>
      <trkpt lat="41.839552028104663" lon="-2.977942004799843">
        <ele>1222</ele>
        <time>2018-05-27T09:23:33Z</time>
      </trkpt>
      <trkpt lat="41.839525038376451" lon="-2.97776497900486">
        <ele>1221.0999999999999</ele>
        <time>2018-05-27T09:23:37Z</time>
      </trkpt>
      <trkpt lat="41.839582035318017" lon="-2.977497009560466">
        <ele>1220</ele>
        <time>2018-05-27T09:23:43Z</time>
      </trkpt>
      <trkpt lat="41.839663004502654" lon="-2.977260975167155">
        <ele>1218.5</ele>
        <time>2018-05-27T09:23:49Z</time>
      </trkpt>
      <trkpt lat="41.839808011427522" lon="-2.976942965760827">
        <ele>1216</ele>
        <time>2018-05-27T09:23:57Z</time>
      </trkpt>
      <trkpt lat="41.839985959231853" lon="-2.976610036566854">
        <ele>1213.5</ele>
        <time>2018-05-27T09:24:06Z</time>
      </trkpt>
      <trkpt lat="41.840187041088939" lon="-2.976208962500095">
        <ele>1211</ele>
        <time>2018-05-27T09:24:17Z</time>
      </trkpt>
      <trkpt lat="41.84032198973" lon="-2.975820964202285">
        <ele>1209.2</ele>
        <time>2018-05-27T09:24:26Z</time>
      </trkpt>
      <trkpt lat="41.840488035231829" lon="-2.975512007251382">
        <ele>1208.5</ele>
        <time>2018-05-27T09:24:35Z</time>
      </trkpt>
      <trkpt lat="41.840555006638169" lon="-2.97546599060297">
        <ele>1208.5</ele>
        <time>2018-05-27T09:24:37Z</time>
      </trkpt>
      <trkpt lat="41.840790035203099" lon="-2.975349985063076">
        <ele>1208.5</ele>
        <time>2018-05-27T09:24:44Z</time>
      </trkpt>
      <trkpt lat="41.840949961915612" lon="-2.975285025313497">
        <ele>1208.5999999999999</ele>
        <time>2018-05-27T09:24:49Z</time>
      </trkpt>
      <trkpt lat="41.84107200242579" lon="-2.975069023668766">
        <ele>1207.8</ele>
        <time>2018-05-27T09:24:55Z</time>
      </trkpt>
      <trkpt lat="41.841083988547325" lon="-2.974984031170607">
        <ele>1207.4000000000001</ele>
        <time>2018-05-27T09:24:57Z</time>
      </trkpt>
      <trkpt lat="41.841110978275537" lon="-2.974716983735561">
        <ele>1206.2</ele>
        <time>2018-05-27T09:25:03Z</time>
      </trkpt>
      <trkpt lat="41.841153977438807" lon="-2.974596032872796">
        <ele>1205.7</ele>
        <time>2018-05-27T09:25:06Z</time>
      </trkpt>
      <trkpt lat="41.841194964945316" lon="-2.974293027073145">
        <ele>1203.4000000000001</ele>
        <time>2018-05-27T09:25:13Z</time>
      </trkpt>
      <trkpt lat="41.841255985200405" lon="-2.973988009616733">
        <ele>1201</ele>
        <time>2018-05-27T09:25:20Z</time>
      </trkpt>
      <trkpt lat="41.841357992962003" lon="-2.973749041557312">
        <ele>1199</ele>
        <time>2018-05-27T09:25:26Z</time>
      </trkpt>
      <trkpt lat="41.841526972129941" lon="-2.973469002172351">
        <ele>1197.5</ele>
        <time>2018-05-27T09:25:34Z</time>
      </trkpt>
      <trkpt lat="41.841541975736618" lon="-2.97333799302578">
        <ele>1196.9000000000001</ele>
        <time>2018-05-27T09:25:37Z</time>
      </trkpt>
      <trkpt lat="41.841626968234777" lon="-2.973120985552669">
        <ele>1195.9000000000001</ele>
        <time>2018-05-27T09:25:42Z</time>
      </trkpt>
      <trkpt lat="41.841744985431433" lon="-2.972900038585067">
        <ele>1195.0999999999999</ele>
        <time>2018-05-27T09:25:48Z</time>
      </trkpt>
      <trkpt lat="41.841943971812725" lon="-2.972788978368044">
        <ele>1194.7</ele>
        <time>2018-05-27T09:25:55Z</time>
      </trkpt>
      <trkpt lat="41.842030975967646" lon="-2.972727958112955">
        <ele>1194.5</ele>
        <time>2018-05-27T09:25:58Z</time>
      </trkpt>
      <trkpt lat="41.842165002599359" lon="-2.972662998363376">
        <ele>1193.5</ele>
        <time>2018-05-27T09:26:02Z</time>
      </trkpt>
      <trkpt lat="41.842264998704195" lon="-2.972516985610127">
        <ele>1191.9000000000001</ele>
        <time>2018-05-27T09:26:06Z</time>
      </trkpt>
      <trkpt lat="41.842393996194005" lon="-2.972429981455207">
        <ele>1190.7</ele>
        <time>2018-05-27T09:26:10Z</time>
      </trkpt>
      <trkpt lat="41.842525005340576" lon="-2.97232998535037">
        <ele>1189.5999999999999</ele>
        <time>2018-05-27T09:26:15Z</time>
      </trkpt>
      <trkpt lat="41.842632964253426" lon="-2.972248010337353">
        <ele>1189</ele>
        <time>2018-05-27T09:26:19Z</time>
      </trkpt>
      <trkpt lat="41.842654002830386" lon="-2.972185984253883">
        <ele>1188.8</ele>
        <time>2018-05-27T09:26:20Z</time>
      </trkpt>
      <trkpt lat="41.84272600337863" lon="-2.97207199037075">
        <ele>1188.4000000000001</ele>
        <time>2018-05-27T09:26:23Z</time>
      </trkpt>
      <trkpt lat="41.842802027240396" lon="-2.971850037574768">
        <ele>1187.7</ele>
        <time>2018-05-27T09:26:29Z</time>
      </trkpt>
      <trkpt lat="41.842860030010343" lon="-2.971481988206506">
        <ele>1186.5999999999999</ele>
        <time>2018-05-27T09:26:37Z</time>
      </trkpt>
      <trkpt lat="41.842837985605001" lon="-2.970940014347434">
        <ele>1185</ele>
        <time>2018-05-27T09:26:49Z</time>
      </trkpt>
      <trkpt lat="41.842831028625369" lon="-2.970334002748132">
        <ele>1183</ele>
        <time>2018-05-27T09:27:02Z</time>
      </trkpt>
      <trkpt lat="41.842841003090143" lon="-2.969840979203582">
        <ele>1181.5</ele>
        <time>2018-05-27T09:27:13Z</time>
      </trkpt>
      <trkpt lat="41.842802027240396" lon="-2.969194985926151">
        <ele>1179.8</ele>
        <time>2018-05-27T09:27:28Z</time>
      </trkpt>
      <trkpt lat="41.842736983671784" lon="-2.968601966276765">
        <ele>1178.3</ele>
        <time>2018-05-27T09:27:41Z</time>
      </trkpt>
      <trkpt lat="41.842625001445413" lon="-2.968000983819366">
        <ele>1176.8</ele>
        <time>2018-05-27T09:27:55Z</time>
      </trkpt>
      <trkpt lat="41.842416962608695" lon="-2.967444006353617">
        <ele>1175.8</ele>
        <time>2018-05-27T09:28:08Z</time>
      </trkpt>
      <trkpt lat="41.842220993712544" lon="-2.966875964775682">
        <ele>1176.2</ele>
        <time>2018-05-27T09:28:22Z</time>
      </trkpt>
      <trkpt lat="41.842198027297854" lon="-2.96642099507153">
        <ele>1176.7</ele>
        <time>2018-05-27T09:28:32Z</time>
      </trkpt>
      <trkpt lat="41.84214798733592" lon="-2.965896036475897">
        <ele>1176.5</ele>
        <time>2018-05-27T09:28:44Z</time>
      </trkpt>
      <trkpt lat="41.842132983729243" lon="-2.965670982375741">
        <ele>1176.2</ele>
        <time>2018-05-27T09:28:49Z</time>
      </trkpt>
      <trkpt lat="41.842185035347939" lon="-2.96549404039979">
        <ele>1175.9000000000001</ele>
        <time>2018-05-27T09:28:53Z</time>
      </trkpt>
      <trkpt lat="41.842170031741261" lon="-2.965316008776426">
        <ele>1175.7</ele>
        <time>2018-05-27T09:28:57Z</time>
      </trkpt>
      <trkpt lat="41.84214798733592" lon="-2.965010991320014">
        <ele>1175.4000000000001</ele>
        <time>2018-05-27T09:29:04Z</time>
      </trkpt>
      <trkpt lat="41.842014966532588" lon="-2.964778980240226">
        <ele>1175.5999999999999</ele>
        <time>2018-05-27T09:29:10Z</time>
      </trkpt>
      <trkpt lat="41.841861996799707" lon="-2.964462982490659">
        <ele>1176.0999999999999</ele>
        <time>2018-05-27T09:29:19Z</time>
      </trkpt>
      <trkpt lat="41.841815980151296" lon="-2.964362986385822">
        <ele>1176.2</ele>
        <time>2018-05-27T09:29:21Z</time>
      </trkpt>
      <trkpt lat="41.841696035116911" lon="-2.964238012209535">
        <ele>1176.9000000000001</ele>
        <time>2018-05-27T09:29:26Z</time>
      </trkpt>
      <trkpt lat="41.841719001531601" lon="-2.964050006121397">
        <ele>1176.5</ele>
        <time>2018-05-27T09:29:30Z</time>
      </trkpt>
      <trkpt lat="41.841640966013074" lon="-2.963599981740117">
        <ele>1176.5999999999999</ele>
        <time>2018-05-27T09:29:40Z</time>
      </trkpt>
      <trkpt lat="41.841629985719919" lon="-2.963437037542462">
        <ele>1176.5999999999999</ele>
        <time>2018-05-27T09:29:44Z</time>
      </trkpt>
      <trkpt lat="41.841584974899888" lon="-2.963148029521108">
        <ele>1176.8</ele>
        <time>2018-05-27T09:29:50Z</time>
      </trkpt>
      <trkpt lat="41.841562008485198" lon="-2.96306798234582">
        <ele>1176.9000000000001</ele>
        <time>2018-05-27T09:29:52Z</time>
      </trkpt>
      <trkpt lat="41.841534012928605" lon="-2.962845023721457">
        <ele>1176.9000000000001</ele>
        <time>2018-05-27T09:29:57Z</time>
      </trkpt>
      <trkpt lat="41.841515991836786" lon="-2.962603960186243">
        <ele>1176.7</ele>
        <time>2018-05-27T09:30:02Z</time>
      </trkpt>
      <trkpt lat="41.841528983786702" lon="-2.962411008775234">
        <ele>1176.4000000000001</ele>
        <time>2018-05-27T09:30:07Z</time>
      </trkpt>
      <trkpt lat="41.841484978795052" lon="-2.961883032694459">
        <ele>1176.0999999999999</ele>
        <time>2018-05-27T09:30:18Z</time>
      </trkpt>
      <trkpt lat="41.8414600007236" lon="-2.96175504103303">
        <ele>1176.0999999999999</ele>
        <time>2018-05-27T09:30:21Z</time>
      </trkpt>
      <trkpt lat="41.841442985460162" lon="-2.961591007187963">
        <ele>1176.2</ele>
        <time>2018-05-27T09:30:25Z</time>
      </trkpt>
      <trkpt lat="41.84139302931726" lon="-2.961166966706514">
        <ele>1176.2</ele>
        <time>2018-05-27T09:30:34Z</time>
      </trkpt>
      <trkpt lat="41.841375008225441" lon="-2.96096202917397">
        <ele>1176</ele>
        <time>2018-05-27T09:30:39Z</time>
      </trkpt>
      <trkpt lat="41.841345001012087" lon="-2.960824985057116">
        <ele>1176</ele>
        <time>2018-05-27T09:30:42Z</time>
      </trkpt>
      <trkpt lat="41.841319017112255" lon="-2.960465988144279">
        <ele>1175.5999999999999</ele>
        <time>2018-05-27T09:30:50Z</time>
      </trkpt>
      <trkpt lat="41.841297978535295" lon="-2.960099028423429">
        <ele>1174.9000000000001</ele>
        <time>2018-05-27T09:30:58Z</time>
      </trkpt>
      <trkpt lat="41.84126503765583" lon="-2.95980398543179">
        <ele>1174.4000000000001</ele>
        <time>2018-05-27T09:31:05Z</time>
      </trkpt>
      <trkpt lat="41.84128699824214" lon="-2.959715975448489">
        <ele>1174.0999999999999</ele>
        <time>2018-05-27T09:31:07Z</time>
      </trkpt>
      <trkpt lat="41.841246010735631" lon="-2.959357984364033">
        <ele>1173.7</ele>
        <time>2018-05-27T09:31:15Z</time>
      </trkpt>
      <trkpt lat="41.841193959116936" lon="-2.95915799215436">
        <ele>1173.7</ele>
        <time>2018-05-27T09:31:20Z</time>
      </trkpt>
      <trkpt lat="41.84111500158906" lon="-2.95879396609962">
        <ele>1173.5</ele>
        <time>2018-05-27T09:31:28Z</time>
      </trkpt>
      <trkpt lat="41.841050963848829" lon="-2.958495989441872">
        <ele>1173.0999999999999</ele>
        <time>2018-05-27T09:31:35Z</time>
      </trkpt>
      <trkpt lat="41.841041995212436" lon="-2.958357017487288">
        <ele>1172.8</ele>
        <time>2018-05-27T09:31:38Z</time>
      </trkpt>
      <trkpt lat="41.841024979948997" lon="-2.958244029432535">
        <ele>1172.5999999999999</ele>
        <time>2018-05-27T09:31:40Z</time>
      </trkpt>
      <trkpt lat="41.840988015756011" lon="-2.958028027787805">
        <ele>1172.2</ele>
        <time>2018-05-27T09:31:45Z</time>
      </trkpt>
      <trkpt lat="41.840968988835812" lon="-2.957929959520698">
        <ele>1172</ele>
        <time>2018-05-27T09:31:48Z</time>
      </trkpt>
      <trkpt lat="41.840953985229135" lon="-2.957837004214525">
        <ele>1172</ele>
        <time>2018-05-27T09:31:50Z</time>
      </trkpt>
      <trkpt lat="41.840931018814445" lon="-2.957785036414862">
        <ele>1172</ele>
        <time>2018-05-27T09:31:51Z</time>
      </trkpt>
      <trkpt lat="41.840896988287568" lon="-2.957734996452928">
        <ele>1172.0999999999999</ele>
        <time>2018-05-27T09:31:52Z</time>
      </trkpt>
      <trkpt lat="41.840876033529639" lon="-2.957657966762781">
        <ele>1172.0999999999999</ele>
        <time>2018-05-27T09:31:54Z</time>
      </trkpt>
      <trkpt lat="41.840852983295918" lon="-2.957559982314706">
        <ele>1172.2</ele>
        <time>2018-05-27T09:31:57Z</time>
      </trkpt>
      <trkpt lat="41.840808978304267" lon="-2.957298969849944">
        <ele>1172.3</ele>
        <time>2018-05-27T09:32:02Z</time>
      </trkpt>
      <trkpt lat="41.840779976919293" lon="-2.957191010937095">
        <ele>1172.4000000000001</ele>
        <time>2018-05-27T09:32:05Z</time>
      </trkpt>
      <trkpt lat="41.84072901494801" lon="-2.95666697435081">
        <ele>1173.5999999999999</ele>
        <time>2018-05-27T09:32:17Z</time>
      </trkpt>
      <trkpt lat="41.840659026056528" lon="-2.95629900880158">
        <ele>1174.9000000000001</ele>
        <time>2018-05-27T09:32:25Z</time>
      </trkpt>
      <trkpt lat="41.840608986094594" lon="-2.956094993278384">
        <ele>1175.3</ele>
        <time>2018-05-27T09:32:30Z</time>
      </trkpt>
      <trkpt lat="41.840559029951692" lon="-2.955899024382234">
        <ele>1175.5</ele>
        <time>2018-05-27T09:32:34Z</time>
      </trkpt>
      <trkpt lat="41.840529022738338" lon="-2.955789975821972">
        <ele>1175.7</ele>
        <time>2018-05-27T09:32:37Z</time>
      </trkpt>
      <trkpt lat="41.840494992211461" lon="-2.955614039674401">
        <ele>1175.7</ele>
        <time>2018-05-27T09:32:41Z</time>
      </trkpt>
      <trkpt lat="41.840435983613133" lon="-2.95531396754086">
        <ele>1175.8</ele>
        <time>2018-05-27T09:32:48Z</time>
      </trkpt>
      <trkpt lat="41.84042802080512" lon="-2.955006016418338">
        <ele>1175.4000000000001</ele>
        <time>2018-05-27T09:32:55Z</time>
      </trkpt>
      <trkpt lat="41.840397007763386" lon="-2.954759001731873">
        <ele>1175.3</ele>
        <time>2018-05-27T09:33:00Z</time>
      </trkpt>
      <trkpt lat="41.840386027470231" lon="-2.954626986756921">
        <ele>1175.2</ele>
        <time>2018-05-27T09:33:03Z</time>
      </trkpt>
      <trkpt lat="41.840376975014806" lon="-2.95451701618731">
        <ele>1175.0999999999999</ele>
        <time>2018-05-27T09:33:05Z</time>
      </trkpt>
      <trkpt lat="41.840355014428496" lon="-2.95425801537931">
        <ele>1174.9000000000001</ele>
        <time>2018-05-27T09:33:11Z</time>
      </trkpt>
      <trkpt lat="41.840328024700284" lon="-2.95408601872623">
        <ele>1174.7</ele>
        <time>2018-05-27T09:33:15Z</time>
      </trkpt>
      <trkpt lat="41.840313021093607" lon="-2.953884014859796">
        <ele>1174.4000000000001</ele>
        <time>2018-05-27T09:33:20Z</time>
      </trkpt>
      <trkpt lat="41.840293994173408" lon="-2.953798016533256">
        <ele>1174.2</ele>
        <time>2018-05-27T09:33:22Z</time>
      </trkpt>
      <trkpt lat="41.840267004445195" lon="-2.953564999625087">
        <ele>1173.4000000000001</ele>
        <time>2018-05-27T09:33:27Z</time>
      </trkpt>
      <trkpt lat="41.840254012495279" lon="-2.953483024612069">
        <ele>1173</ele>
        <time>2018-05-27T09:33:29Z</time>
      </trkpt>
      <trkpt lat="41.840238003060222" lon="-2.953417981043458">
        <ele>1172.8</ele>
        <time>2018-05-27T09:33:30Z</time>
      </trkpt>
      <trkpt lat="41.840134989470243" lon="-2.953147999942303">
        <ele>1171.9000000000001</ele>
        <time>2018-05-27T09:33:37Z</time>
      </trkpt>
      <trkpt lat="41.840096013620496" lon="-2.952915988862515">
        <ele>1171.2</ele>
        <time>2018-05-27T09:33:42Z</time>
      </trkpt>
      <trkpt lat="41.840057959780097" lon="-2.952656988054514">
        <ele>1171.2</ele>
        <time>2018-05-27T09:33:48Z</time>
      </trkpt>
      <trkpt lat="41.840023007243872" lon="-2.95245498418808">
        <ele>1171.4000000000001</ele>
        <time>2018-05-27T09:33:52Z</time>
      </trkpt>
      <trkpt lat="41.839986965060234" lon="-2.952208975329995">
        <ele>1171.5999999999999</ele>
        <time>2018-05-27T09:33:58Z</time>
      </trkpt>
      <trkpt lat="41.839922005310655" lon="-2.951977970078588">
        <ele>1172.5999999999999</ele>
        <time>2018-05-27T09:34:03Z</time>
      </trkpt>
      <trkpt lat="41.83993399143219" lon="-2.951872022822499">
        <ele>1172.9000000000001</ele>
        <time>2018-05-27T09:34:06Z</time>
      </trkpt>
      <trkpt lat="41.839861990883946" lon="-2.951636994257569">
        <ele>1174.8</ele>
        <time>2018-05-27T09:34:11Z</time>
      </trkpt>
      <trkpt lat="41.839873977005482" lon="-2.951527023687959">
        <ele>1175.2</ele>
        <time>2018-05-27T09:34:14Z</time>
      </trkpt>
      <trkpt lat="41.839850004762411" lon="-2.951257964596152">
        <ele>1176.8</ele>
        <time>2018-05-27T09:34:20Z</time>
      </trkpt>
      <trkpt lat="41.839841958135366" lon="-2.951135002076626">
        <ele>1177.2</ele>
        <time>2018-05-27T09:34:23Z</time>
      </trkpt>
      <trkpt lat="41.839809017255902" lon="-2.950894022360444">
        <ele>1178.2</ele>
        <time>2018-05-27T09:34:28Z</time>
      </trkpt>
      <trkpt lat="41.839736010879278" lon="-2.950652036815882">
        <ele>1179.9000000000001</ele>
        <time>2018-05-27T09:34:34Z</time>
      </trkpt>
      <trkpt lat="41.839646995067596" lon="-2.950261021032929">
        <ele>1181.5999999999999</ele>
        <time>2018-05-27T09:34:43Z</time>
      </trkpt>
      <trkpt lat="41.839554039761424" lon="-2.950000008568168">
        <ele>1182</ele>
        <time>2018-05-27T09:34:49Z</time>
      </trkpt>
      <trkpt lat="41.839499976485968" lon="-2.949727009981871">
        <ele>1181.2</ele>
        <time>2018-05-27T09:34:55Z</time>
      </trkpt>
      <trkpt lat="41.839353963732719" lon="-2.949333982542157">
        <ele>1179.4000000000001</ele>
        <time>2018-05-27T09:35:05Z</time>
      </trkpt>
      <trkpt lat="41.839350024238229" lon="-2.949237003922463">
        <ele>1179</ele>
        <time>2018-05-27T09:35:07Z</time>
      </trkpt>
      <trkpt lat="41.839329991489649" lon="-2.949098031967878">
        <ele>1178.4000000000001</ele>
        <time>2018-05-27T09:35:10Z</time>
      </trkpt>
      <trkpt lat="41.839533001184464" lon="-2.94882201589644">
        <ele>1177.3</ele>
        <time>2018-05-27T09:35:19Z</time>
      </trkpt>
      <trkpt lat="41.839940026402473" lon="-2.94869301840663">
        <ele>1175.3</ele>
        <time>2018-05-27T09:35:31Z</time>
      </trkpt>
      <trkpt lat="41.840479988604784" lon="-2.948297979310155">
        <ele>1173.5</ele>
        <time>2018-05-27T09:35:50Z</time>
      </trkpt>
      <trkpt lat="41.840830016881227" lon="-2.9480089712888">
        <ele>1173.9000000000001</ele>
        <time>2018-05-27T09:36:02Z</time>
      </trkpt>
      <trkpt lat="41.841254979372025" lon="-2.947724992409349">
        <ele>1173.7</ele>
        <time>2018-05-27T09:36:16Z</time>
      </trkpt>
      <trkpt lat="41.841547004878521" lon="-2.947502033784986">
        <ele>1172.0999999999999</ele>
        <time>2018-05-27T09:36:26Z</time>
      </trkpt>
      <trkpt lat="41.841855961829424" lon="-2.947302963584662">
        <ele>1170.7</ele>
        <time>2018-05-27T09:36:36Z</time>
      </trkpt>
      <trkpt lat="41.842071963474154" lon="-2.946986965835095">
        <ele>1169.9000000000001</ele>
        <time>2018-05-27T09:36:45Z</time>
      </trkpt>
      <trkpt lat="41.842128038406372" lon="-2.946874983608723">
        <ele>1169.8</ele>
        <time>2018-05-27T09:36:48Z</time>
      </trkpt>
      <trkpt lat="41.842114962637424" lon="-2.946622017771006">
        <ele>1169.4000000000001</ele>
        <time>2018-05-27T09:36:54Z</time>
      </trkpt>
      <trkpt lat="41.842117980122566" lon="-2.946560997515917">
        <ele>1169.4000000000001</ele>
        <time>2018-05-27T09:36:55Z</time>
      </trkpt>
      <trkpt lat="41.842048997059464" lon="-2.94620200060308">
        <ele>1169</ele>
        <time>2018-05-27T09:37:04Z</time>
      </trkpt>
      <trkpt lat="41.841954030096531" lon="-2.945903018116951">
        <ele>1168.4000000000001</ele>
        <time>2018-05-27T09:37:11Z</time>
      </trkpt>
      <trkpt lat="41.842033993452787" lon="-2.945502027869225">
        <ele>1167.2</ele>
        <time>2018-05-27T09:37:20Z</time>
      </trkpt>
      <trkpt lat="41.842127032577991" lon="-2.944974973797798">
        <ele>1164.8</ele>
        <time>2018-05-27T09:37:32Z</time>
      </trkpt>
      <trkpt lat="41.842212025076151" lon="-2.944393018260598">
        <ele>1162.5</ele>
        <time>2018-05-27T09:37:45Z</time>
      </trkpt>
      <trkpt lat="41.842268016189337" lon="-2.944005019962788">
        <ele>1161.9000000000001</ele>
        <time>2018-05-27T09:37:54Z</time>
      </trkpt>
      <trkpt lat="41.84238301590085" lon="-2.943047974258661">
        <ele>1162.9000000000001</ele>
        <time>2018-05-27T09:38:15Z</time>
      </trkpt>
      <trkpt lat="41.842460967600346" lon="-2.942426037043333">
        <ele>1164.5</ele>
        <time>2018-05-27T09:38:29Z</time>
      </trkpt>
      <trkpt lat="41.842506984248757" lon="-2.941974001005292">
        <ele>1165.7</ele>
        <time>2018-05-27T09:38:39Z</time>
      </trkpt>
      <trkpt lat="41.842493992298841" lon="-2.941836034879088">
        <ele>1166</ele>
        <time>2018-05-27T09:38:42Z</time>
      </trkpt>
      <trkpt lat="41.842484017834067" lon="-2.941775014624">
        <ele>1166.0999999999999</ele>
        <time>2018-05-27T09:38:44Z</time>
      </trkpt>
      <trkpt lat="41.842444958165288" lon="-2.941530011594296">
        <ele>1166.8</ele>
        <time>2018-05-27T09:38:49Z</time>
      </trkpt>
      <trkpt lat="41.842385027557611" lon="-2.941304035484791">
        <ele>1167.5</ele>
        <time>2018-05-27T09:38:54Z</time>
      </trkpt>
      <trkpt lat="41.842197021469474" lon="-2.940427036955953">
        <ele>1167.7</ele>
        <time>2018-05-27T09:39:15Z</time>
      </trkpt>
      <trkpt lat="41.842133989557624" lon="-2.940195025876164">
        <ele>1166.9000000000001</ele>
        <time>2018-05-27T09:39:20Z</time>
      </trkpt>
      <trkpt lat="41.842043967917562" lon="-2.939780037850142">
        <ele>1165</ele>
        <time>2018-05-27T09:39:30Z</time>
      </trkpt>
      <trkpt lat="41.841825032606721" lon="-2.938852999359369">
        <ele>1164</ele>
        <time>2018-05-27T09:39:51Z</time>
      </trkpt>
      <trkpt lat="41.841840958222747" lon="-2.938558962196112">
        <ele>1164.8</ele>
        <time>2018-05-27T09:39:57Z</time>
      </trkpt>
      <trkpt lat="41.841944977641106" lon="-2.937895031645894">
        <ele>1167</ele>
        <time>2018-05-27T09:40:12Z</time>
      </trkpt>
      <trkpt lat="41.842093002051115" lon="-2.937249960377812">
        <ele>1166.8</ele>
        <time>2018-05-27T09:40:27Z</time>
      </trkpt>
      <trkpt lat="41.842230968177319" lon="-2.93651201762259">
        <ele>1168.4000000000001</ele>
        <time>2018-05-27T09:40:44Z</time>
      </trkpt>
      <trkpt lat="41.842270027846098" lon="-2.93627698905766">
        <ele>1168.9000000000001</ele>
        <time>2018-05-27T09:40:49Z</time>
      </trkpt>
      <trkpt lat="41.842197021469474" lon="-2.936283024027944">
        <ele>1168.9000000000001</ele>
        <time>2018-05-27T09:40:52Z</time>
      </trkpt>
      <trkpt lat="41.842026030644774" lon="-2.935987981036305">
        <ele>1169.8</ele>
        <time>2018-05-27T09:41:00Z</time>
      </trkpt>
      <trkpt lat="41.841638032346964" lon="-2.935127997770906">
        <ele>1173.7</ele>
        <time>2018-05-27T09:41:22Z</time>
      </trkpt>
      <trkpt lat="41.841163029894233" lon="-2.934203976765275">
        <ele>1175.9000000000001</ele>
        <time>2018-05-27T09:41:47Z</time>
      </trkpt>
      <trkpt lat="41.841127993538976" lon="-2.934131976217032">
        <ele>1176.0999999999999</ele>
        <time>2018-05-27T09:41:49Z</time>
      </trkpt>
      <trkpt lat="41.840526005253196" lon="-2.933079963549972">
        <ele>1176.4000000000001</ele>
        <time>2018-05-27T09:42:18Z</time>
      </trkpt>
      <trkpt lat="41.839916976168752" lon="-2.932008001953363">
        <ele>1178.7</ele>
        <time>2018-05-27T09:42:48Z</time>
      </trkpt>
      <trkpt lat="41.839439040049911" lon="-2.931121028959751">
        <ele>1179.4000000000001</ele>
        <time>2018-05-27T09:43:12Z</time>
      </trkpt>
      <trkpt lat="41.8389249779284" lon="-2.930336985737085">
        <ele>1183</ele>
        <time>2018-05-27T09:43:35Z</time>
      </trkpt>
      <trkpt lat="41.838823975995183" lon="-2.930219974368811">
        <ele>1183.7</ele>
        <time>2018-05-27T09:43:39Z</time>
      </trkpt>
      <trkpt lat="41.838675029575825" lon="-2.930064992979169">
        <ele>1184.0999999999999</ele>
        <time>2018-05-27T09:43:45Z</time>
      </trkpt>
      <trkpt lat="41.838073963299394" lon="-2.929510027170181">
        <ele>1182.8</ele>
        <time>2018-05-27T09:44:06Z</time>
      </trkpt>
      <trkpt lat="41.837601978331804" lon="-2.929167039692402">
        <ele>1184.3</ele>
        <time>2018-05-27T09:44:22Z</time>
      </trkpt>
      <trkpt lat="41.837094034999609" lon="-2.928811982274056">
        <ele>1184.4000000000001</ele>
        <time>2018-05-27T09:44:39Z</time>
      </trkpt>
      <trkpt lat="41.836585002020001" lon="-2.92843303643167">
        <ele>1184.4000000000001</ele>
        <time>2018-05-27T09:44:56Z</time>
      </trkpt>
      <trkpt lat="41.836143024265766" lon="-2.928105974569917">
        <ele>1182.3</ele>
        <time>2018-05-27T09:45:11Z</time>
      </trkpt>
      <trkpt lat="41.835623010993004" lon="-2.927762987092137">
        <ele>1180.7</ele>
        <time>2018-05-27T09:45:28Z</time>
      </trkpt>
      <trkpt lat="41.83518597856164" lon="-2.927492000162602">
        <ele>1179</ele>
        <time>2018-05-27T09:45:43Z</time>
      </trkpt>
      <trkpt lat="41.835051029920578" lon="-2.927426034584642">
        <ele>1178.2</ele>
        <time>2018-05-27T09:45:47Z</time>
      </trkpt>
      <trkpt lat="41.834631012752652" lon="-2.927329977974296">
        <ele>1176.0999999999999</ele>
        <time>2018-05-27T09:46:00Z</time>
      </trkpt>
      <trkpt lat="41.833808999508619" lon="-2.927382029592991">
        <ele>1174.8</ele>
        <time>2018-05-27T09:46:24Z</time>
      </trkpt>
      <trkpt lat="41.833162000402808" lon="-2.927473979070783">
        <ele>1172.5</ele>
        <time>2018-05-27T09:46:43Z</time>
      </trkpt>
      <trkpt lat="41.832619020715356" lon="-2.927604988217354">
        <ele>1171.3</ele>
        <time>2018-05-27T09:47:00Z</time>
      </trkpt>
      <trkpt lat="41.832013009116054" lon="-2.927653016522527">
        <ele>1170.9000000000001</ele>
        <time>2018-05-27T09:47:18Z</time>
      </trkpt>
      <trkpt lat="41.831854004412889" lon="-2.9276820179075">
        <ele>1171.3</ele>
        <time>2018-05-27T09:47:22Z</time>
      </trkpt>
      <trkpt lat="41.831783009693027" lon="-2.92766198515892">
        <ele>1171.4000000000001</ele>
        <time>2018-05-27T09:47:24Z</time>
      </trkpt>
      <trkpt lat="41.831313958391547" lon="-2.927433997392654">
        <ele>1172.3</ele>
        <time>2018-05-27T09:47:39Z</time>
      </trkpt>
      <trkpt lat="41.830953033640981" lon="-2.92705999687314">
        <ele>1172.7</ele>
        <time>2018-05-27T09:47:53Z</time>
      </trkpt>
      <trkpt lat="41.830677017569542" lon="-2.926476029679179">
        <ele>1172.5999999999999</ele>
        <time>2018-05-27T09:48:08Z</time>
      </trkpt>
      <trkpt lat="41.830513989552855" lon="-2.926100017502904">
        <ele>1173.4000000000001</ele>
        <time>2018-05-27T09:48:18Z</time>
      </trkpt>
      <trkpt lat="41.830477025359869" lon="-2.926038997247815">
        <ele>1173.7</ele>
        <time>2018-05-27T09:48:19Z</time>
      </trkpt>
      <trkpt lat="41.829890040680766" lon="-2.925259983167052">
        <ele>1176.7</ele>
        <time>2018-05-27T09:48:44Z</time>
      </trkpt>
      <trkpt lat="41.829464994370937" lon="-2.924783974885941">
        <ele>1177.3</ele>
        <time>2018-05-27T09:49:00Z</time>
      </trkpt>
      <trkpt lat="41.829240024089813" lon="-2.924510976299644">
        <ele>1177.3</ele>
        <time>2018-05-27T09:49:09Z</time>
      </trkpt>
      <trkpt lat="41.828694026917219" lon="-2.923733973875642">
        <ele>1179.4000000000001</ele>
        <time>2018-05-27T09:49:33Z</time>
      </trkpt>
      <trkpt lat="41.828251965343952" lon="-2.922748010605574">
        <ele>1184</ele>
        <time>2018-05-27T09:49:58Z</time>
      </trkpt>
      <trkpt lat="41.828161021694541" lon="-2.921799011528492">
        <ele>1186.3</ele>
        <time>2018-05-27T09:50:19Z</time>
      </trkpt>
      <trkpt lat="41.828150041401386" lon="-2.921707984060049">
        <ele>1186.5</ele>
        <time>2018-05-27T09:50:21Z</time>
      </trkpt>
      <trkpt lat="41.82803101837635" lon="-2.920992001891136">
        <ele>1186.7</ele>
        <time>2018-05-27T09:50:38Z</time>
      </trkpt>
      <trkpt lat="41.827895985916257" lon="-2.920242995023727">
        <ele>1184.9000000000001</ele>
        <time>2018-05-27T09:50:55Z</time>
      </trkpt>
      <trkpt lat="41.827863967046142" lon="-2.919977959245443">
        <ele>1184.5999999999999</ele>
        <time>2018-05-27T09:51:01Z</time>
      </trkpt>
      <trkpt lat="41.827774029225111" lon="-2.919714013114572">
        <ele>1184.4000000000001</ele>
        <time>2018-05-27T09:51:07Z</time>
      </trkpt>
      <trkpt lat="41.827589040622115" lon="-2.919392986223102">
        <ele>1183.9000000000001</ele>
        <time>2018-05-27T09:51:16Z</time>
      </trkpt>
      <trkpt lat="41.827433975413442" lon="-2.91913197375834">
        <ele>1183.5</ele>
        <time>2018-05-27T09:51:23Z</time>
      </trkpt>
      <trkpt lat="41.827286034822464" lon="-2.918845983222127">
        <ele>1183</ele>
        <time>2018-05-27T09:51:31Z</time>
      </trkpt>
      <trkpt lat="41.827124012634158" lon="-2.918558986857534">
        <ele>1182.0999999999999</ele>
        <time>2018-05-27T09:51:39Z</time>
      </trkpt>
      <trkpt lat="41.827051006257534" lon="-2.918255981057882">
        <ele>1180.7</ele>
        <time>2018-05-27T09:51:46Z</time>
      </trkpt>
      <trkpt lat="41.826926032081246" lon="-2.918027993291616">
        <ele>1180.0999999999999</ele>
        <time>2018-05-27T09:51:52Z</time>
      </trkpt>
      <trkpt lat="41.826758980751038" lon="-2.917760023847222">
        <ele>1179.8</ele>
        <time>2018-05-27T09:52:00Z</time>
      </trkpt>
      <trkpt lat="41.826669964939356" lon="-2.917404966428876">
        <ele>1179.3</ele>
        <time>2018-05-27T09:52:08Z</time>
      </trkpt>
      <trkpt lat="41.826565023511648" lon="-2.917091986164451">
        <ele>1178.5999999999999</ele>
        <time>2018-05-27T09:52:16Z</time>
      </trkpt>
      <trkpt lat="41.826443988829851" lon="-2.916641039773822">
        <ele>1178</ele>
        <time>2018-05-27T09:52:26Z</time>
      </trkpt>
      <trkpt lat="41.826347010210156" lon="-2.916285982355475">
        <ele>1177.2</ele>
        <time>2018-05-27T09:52:35Z</time>
      </trkpt>
      <trkpt lat="41.826323959976435" lon="-2.916191015392542">
        <ele>1177</ele>
        <time>2018-05-27T09:52:37Z</time>
      </trkpt>
      <trkpt lat="41.826202003285289" lon="-2.915998985990882">
        <ele>1176.5999999999999</ele>
        <time>2018-05-27T09:52:42Z</time>
      </trkpt>
      <trkpt lat="41.826021037995815" lon="-2.915681982412934">
        <ele>1175.9000000000001</ele>
        <time>2018-05-27T09:52:51Z</time>
      </trkpt>
      <trkpt lat="41.825838983058929" lon="-2.915394986048341">
        <ele>1174.9000000000001</ele>
        <time>2018-05-27T09:53:00Z</time>
      </trkpt>
      <trkpt lat="41.825711997225881" lon="-2.915163980796933">
        <ele>1173.5999999999999</ele>
        <time>2018-05-27T09:53:06Z</time>
      </trkpt>
      <trkpt lat="41.825547041371465" lon="-2.914950996637344">
        <ele>1172.5</ele>
        <time>2018-05-27T09:53:13Z</time>
      </trkpt>
      <trkpt lat="41.825494989752769" lon="-2.914915038272739">
        <ele>1172.3</ele>
        <time>2018-05-27T09:53:14Z</time>
      </trkpt>
      <trkpt lat="41.82538996450603" lon="-2.914798026904464">
        <ele>1171.8</ele>
        <time>2018-05-27T09:53:19Z</time>
      </trkpt>
      <trkpt lat="41.825222996994853" lon="-2.914455039426684">
        <ele>1171.4000000000001</ele>
        <time>2018-05-27T09:53:28Z</time>
      </trkpt>
      <trkpt lat="41.825144039466977" lon="-2.914085984230042">
        <ele>1170.8</ele>
        <time>2018-05-27T09:53:36Z</time>
      </trkpt>
      <trkpt lat="41.825132975354791" lon="-2.913725981488824">
        <ele>1170</ele>
        <time>2018-05-27T09:53:44Z</time>
      </trkpt>
      <trkpt lat="41.825105985626578" lon="-2.913392968475819">
        <ele>1169.4000000000001</ele>
        <time>2018-05-27T09:53:51Z</time>
      </trkpt>
      <trkpt lat="41.825026022270322" lon="-2.913043024018407">
        <ele>1169.0999999999999</ele>
        <time>2018-05-27T09:53:59Z</time>
      </trkpt>
      <trkpt lat="41.82495703920722" lon="-2.912787040695548">
        <ele>1169.0999999999999</ele>
        <time>2018-05-27T09:54:05Z</time>
      </trkpt>
      <trkpt lat="41.824897024780512" lon="-2.912489986047149">
        <ele>1169.3</ele>
        <time>2018-05-27T09:54:12Z</time>
      </trkpt>
      <trkpt lat="41.824874980375171" lon="-2.912415973842144">
        <ele>1169.4000000000001</ele>
        <time>2018-05-27T09:54:14Z</time>
      </trkpt>
      <trkpt lat="41.82485000230372" lon="-2.912327963858843">
        <ele>1169.5</ele>
        <time>2018-05-27T09:54:16Z</time>
      </trkpt>
      <trkpt lat="41.824844973161817" lon="-2.912207012996078">
        <ele>1169.5</ele>
        <time>2018-05-27T09:54:19Z</time>
      </trkpt>
      <trkpt lat="41.82478797622025" lon="-2.912068041041493">
        <ele>1169.7</ele>
        <time>2018-05-27T09:54:22Z</time>
      </trkpt>
      <trkpt lat="41.824674988165498" lon="-2.911731004714966">
        <ele>1170</ele>
        <time>2018-05-27T09:54:30Z</time>
      </trkpt>
      <trkpt lat="41.82452998124063" lon="-2.911308975890279">
        <ele>1170.3</ele>
        <time>2018-05-27T09:54:41Z</time>
      </trkpt>
      <trkpt lat="41.824218006804585" lon="-2.911047041416168">
        <ele>1170.5</ele>
        <time>2018-05-27T09:54:52Z</time>
      </trkpt>
      <trkpt lat="41.823983984068036" lon="-2.910887030884624">
        <ele>1170.5</ele>
        <time>2018-05-27T09:54:59Z</time>
      </trkpt>
      <trkpt lat="41.823705034330487" lon="-2.910706987604499">
        <ele>1170.5999999999999</ele>
        <time>2018-05-27T09:55:09Z</time>
      </trkpt>
      <trkpt lat="41.82351803407073" lon="-2.910520993173122">
        <ele>1170.5</ele>
        <time>2018-05-27T09:55:15Z</time>
      </trkpt>
      <trkpt lat="41.823378978297114" lon="-2.910413034260273">
        <ele>1170.8</ele>
        <time>2018-05-27T09:55:20Z</time>
      </trkpt>
      <trkpt lat="41.823229026049376" lon="-2.910280013456941">
        <ele>1171.0999999999999</ele>
        <time>2018-05-27T09:55:26Z</time>
      </trkpt>
      <trkpt lat="41.823122994974256" lon="-2.910130983218551">
        <ele>1171.2</ele>
        <time>2018-05-27T09:55:30Z</time>
      </trkpt>
      <trkpt lat="41.823026016354561" lon="-2.909824037924409">
        <ele>1171</ele>
        <time>2018-05-27T09:55:37Z</time>
      </trkpt>
      <trkpt lat="41.822970025241375" lon="-2.909599989652634">
        <ele>1170.7</ele>
        <time>2018-05-27T09:55:43Z</time>
      </trkpt>
      <trkpt lat="41.822940018028021" lon="-2.909468980506063">
        <ele>1170.7</ele>
        <time>2018-05-27T09:55:46Z</time>
      </trkpt>
      <trkpt lat="41.822919985279441" lon="-2.909284997731447">
        <ele>1170.5999999999999</ele>
        <time>2018-05-27T09:55:50Z</time>
      </trkpt>
      <trkpt lat="41.822866005823016" lon="-2.909008981660008">
        <ele>1170.7</ele>
        <time>2018-05-27T09:55:56Z</time>
      </trkpt>
      <trkpt lat="41.822815965861082" lon="-2.90875299833715">
        <ele>1170.7</ele>
        <time>2018-05-27T09:56:02Z</time>
      </trkpt>
      <trkpt lat="41.822785958647728" lon="-2.908493997529149">
        <ele>1170.9000000000001</ele>
        <time>2018-05-27T09:56:08Z</time>
      </trkpt>
      <trkpt lat="41.822750000283122" lon="-2.907961998134852">
        <ele>1171.2</ele>
        <time>2018-05-27T09:56:19Z</time>
      </trkpt>
      <trkpt lat="41.822736002504826" lon="-2.907583974301815">
        <ele>1170.5999999999999</ele>
        <time>2018-05-27T09:56:28Z</time>
      </trkpt>
      <trkpt lat="41.822742037475109" lon="-2.907192036509514">
        <ele>1169.7</ele>
        <time>2018-05-27T09:56:37Z</time>
      </trkpt>
      <trkpt lat="41.82272401638329" lon="-2.906830022111535">
        <ele>1169</ele>
        <time>2018-05-27T09:56:45Z</time>
      </trkpt>
      <trkpt lat="41.822677999734879" lon="-2.906503966078162">
        <ele>1168.5999999999999</ele>
        <time>2018-05-27T09:56:52Z</time>
      </trkpt>
      <trkpt lat="41.822592001408339" lon="-2.906171036884189">
        <ele>1168.5999999999999</ele>
        <time>2018-05-27T09:57:00Z</time>
      </trkpt>
      <trkpt lat="41.822536010295153" lon="-2.905926033854485">
        <ele>1168.5999999999999</ele>
        <time>2018-05-27T09:57:05Z</time>
      </trkpt>
      <trkpt lat="41.822498040273786" lon="-2.90557399392128">
        <ele>1168.3</ele>
        <time>2018-05-27T09:57:13Z</time>
      </trkpt>
      <trkpt lat="41.822498962283134" lon="-2.905433010309935">
        <ele>1168</ele>
        <time>2018-05-27T09:57:16Z</time>
      </trkpt>
      <trkpt lat="41.822477001696825" lon="-2.905266964808106">
        <ele>1168</ele>
        <time>2018-05-27T09:57:20Z</time>
      </trkpt>
      <trkpt lat="41.822460992261767" lon="-2.905067978426814">
        <ele>1167.9000000000001</ele>
        <time>2018-05-27T09:57:24Z</time>
      </trkpt>
      <trkpt lat="41.822430985048413" lon="-2.904895981773734">
        <ele>1167.9000000000001</ele>
        <time>2018-05-27T09:57:28Z</time>
      </trkpt>
      <trkpt lat="41.822425033897161" lon="-2.904819035902619">
        <ele>1167.8</ele>
        <time>2018-05-27T09:57:30Z</time>
      </trkpt>
      <trkpt lat="41.822384968400002" lon="-2.904642010107637">
        <ele>1167.9000000000001</ele>
        <time>2018-05-27T09:57:34Z</time>
      </trkpt>
      <trkpt lat="41.822222024202347" lon="-2.904203971847892">
        <ele>1169.5</ele>
        <time>2018-05-27T09:57:45Z</time>
      </trkpt>
      <trkpt lat="41.82210199534893" lon="-2.9038339946419">
        <ele>1170.8</ele>
        <time>2018-05-27T09:57:54Z</time>
      </trkpt>
      <trkpt lat="41.821946008130908" lon="-2.903487989678979">
        <ele>1170.8</ele>
        <time>2018-05-27T09:58:03Z</time>
      </trkpt>
      <trkpt lat="41.821753978729248" lon="-2.9031450022012">
        <ele>1170.7</ele>
        <time>2018-05-27T09:58:12Z</time>
      </trkpt>
      <trkpt lat="41.821505036205053" lon="-2.902838978916407">
        <ele>1171.2</ele>
        <time>2018-05-27T09:58:22Z</time>
      </trkpt>
      <trkpt lat="41.82128400541842" lon="-2.902547959238291">
        <ele>1171.5</ele>
        <time>2018-05-27T09:58:31Z</time>
      </trkpt>
      <trkpt lat="41.821209993213415" lon="-2.902402030304074">
        <ele>1171.3</ele>
        <time>2018-05-27T09:58:35Z</time>
      </trkpt>
      <trkpt lat="41.821103040128946" lon="-2.90213598869741">
        <ele>1170.9000000000001</ele>
        <time>2018-05-27T09:58:42Z</time>
      </trkpt>
      <trkpt lat="41.820979993790388" lon="-2.901811022311449">
        <ele>1170.2</ele>
        <time>2018-05-27T09:58:50Z</time>
      </trkpt>
      <trkpt lat="41.820829035714269" lon="-2.901616981253028">
        <ele>1170.0999999999999</ele>
        <time>2018-05-27T09:58:56Z</time>
      </trkpt>
      <trkpt lat="41.820700038224459" lon="-2.901497036218643">
        <ele>1170.0999999999999</ele>
        <time>2018-05-27T09:59:01Z</time>
      </trkpt>
      <trkpt lat="41.820375993847847" lon="-2.901071989908814">
        <ele>1169.4000000000001</ele>
        <time>2018-05-27T09:59:14Z</time>
      </trkpt>
      <trkpt lat="41.820155968889594" lon="-2.900703018531203">
        <ele>1168.0999999999999</ele>
        <time>2018-05-27T09:59:25Z</time>
      </trkpt>
      <trkpt lat="41.819924963638186" lon="-2.900384003296495">
        <ele>1166.9000000000001</ele>
        <time>2018-05-27T09:59:35Z</time>
      </trkpt>
      <trkpt lat="41.819632016122341" lon="-2.90020396001637">
        <ele>1166.2</ele>
        <time>2018-05-27T09:59:44Z</time>
      </trkpt>
      <trkpt lat="41.819435963407159" lon="-2.900041015818715">
        <ele>1165.5999999999999</ele>
        <time>2018-05-27T09:59:51Z</time>
      </trkpt>
      <trkpt lat="41.819109991192818" lon="-2.89986097253859">
        <ele>1165</ele>
        <time>2018-05-27T10:00:01Z</time>
      </trkpt>
      <trkpt lat="41.818923996761441" lon="-2.899803975597024">
        <ele>1164.8</ele>
        <time>2018-05-27T10:00:07Z</time>
      </trkpt>
      <trkpt lat="41.818673964589834" lon="-2.899741027504206">
        <ele>1164.8</ele>
        <time>2018-05-27T10:00:15Z</time>
      </trkpt>
      <trkpt lat="41.818353021517396" lon="-2.899692999199033">
        <ele>1165.5</ele>
        <time>2018-05-27T10:00:24Z</time>
      </trkpt>
      <trkpt lat="41.818218994885683" lon="-2.899685958400369">
        <ele>1165.8</ele>
        <time>2018-05-27T10:00:28Z</time>
      </trkpt>
      <trkpt lat="41.818129979074001" lon="-2.899639019742608">
        <ele>1165.8</ele>
        <time>2018-05-27T10:00:31Z</time>
      </trkpt>
      <trkpt lat="41.817870978266001" lon="-2.89953600615263">
        <ele>1166.0999999999999</ele>
        <time>2018-05-27T10:00:39Z</time>
      </trkpt>
      <trkpt lat="41.817633016034961" lon="-2.899440033361316">
        <ele>1166.5</ele>
        <time>2018-05-27T10:00:46Z</time>
      </trkpt>
      <trkpt lat="41.81735398247838" lon="-2.899271976202726">
        <ele>1167</ele>
        <time>2018-05-27T10:00:55Z</time>
      </trkpt>
      <trkpt lat="41.817091964185238" lon="-2.899097967892885">
        <ele>1167.4000000000001</ele>
        <time>2018-05-27T10:01:04Z</time>
      </trkpt>
      <trkpt lat="41.81690102443099" lon="-2.898866962641478">
        <ele>1167.3</ele>
        <time>2018-05-27T10:01:12Z</time>
      </trkpt>
      <trkpt lat="41.816240027546883" lon="-2.898737965151668">
        <ele>1168.0999999999999</ele>
        <time>2018-05-27T10:01:31Z</time>
      </trkpt>
      <trkpt lat="41.815997958183289" lon="-2.89869898930192">
        <ele>1168.7</ele>
        <time>2018-05-27T10:01:39Z</time>
      </trkpt>
      <trkpt lat="41.815761001780629" lon="-2.898684991523624">
        <ele>1169</ele>
        <time>2018-05-27T10:01:46Z</time>
      </trkpt>
      <trkpt lat="41.815644996240735" lon="-2.898665964603424">
        <ele>1169.0999999999999</ele>
        <time>2018-05-27T10:01:49Z</time>
      </trkpt>
      <trkpt lat="41.815370991826057" lon="-2.898511989042163">
        <ele>1169.5</ele>
        <time>2018-05-27T10:01:58Z</time>
      </trkpt>
      <trkpt lat="41.815178040415049" lon="-2.898308979347348">
        <ele>1169.2</ele>
        <time>2018-05-27T10:02:05Z</time>
      </trkpt>
      <trkpt lat="41.814895989373326" lon="-2.897867001593113">
        <ele>1168</ele>
        <time>2018-05-27T10:02:18Z</time>
      </trkpt>
      <trkpt lat="41.814525006338954" lon="-2.897294014692307">
        <ele>1167.5</ele>
        <time>2018-05-27T10:02:35Z</time>
      </trkpt>
      <trkpt lat="41.814227029681206" lon="-2.896923031657934">
        <ele>1168.9000000000001</ele>
        <time>2018-05-27T10:02:47Z</time>
      </trkpt>
      <trkpt lat="41.814148994162679" lon="-2.89669998921454">
        <ele>1169.8</ele>
        <time>2018-05-27T10:02:52Z</time>
      </trkpt>
      <trkpt lat="41.814076993614435" lon="-2.895642025396228">
        <ele>1173.7</ele>
        <time>2018-05-27T10:03:16Z</time>
      </trkpt>
      <trkpt lat="41.813784968107939" lon="-2.894280971959233">
        <ele>1177.4000000000001</ele>
        <time>2018-05-27T10:03:47Z</time>
      </trkpt>
      <trkpt lat="41.813381966203451" lon="-2.893302971497178">
        <ele>1176.2</ele>
        <time>2018-05-27T10:04:12Z</time>
      </trkpt>
      <trkpt lat="41.812842004001141" lon="-2.892357995733619">
        <ele>1171.2</ele>
        <time>2018-05-27T10:04:38Z</time>
      </trkpt>
      <trkpt lat="41.812361972406507" lon="-2.891569007188082">
        <ele>1169</ele>
        <time>2018-05-27T10:05:01Z</time>
      </trkpt>
      <trkpt lat="41.812052009627223" lon="-2.890912033617497">
        <ele>1170.9000000000001</ele>
        <time>2018-05-27T10:05:18Z</time>
      </trkpt>
      <trkpt lat="41.811816981062293" lon="-2.890200996771455">
        <ele>1172.4000000000001</ele>
        <time>2018-05-27T10:05:35Z</time>
      </trkpt>
      <trkpt lat="41.811635009944439" lon="-2.88941896520555">
        <ele>1171.0999999999999</ele>
        <time>2018-05-27T10:05:53Z</time>
      </trkpt>
      <trkpt lat="41.811476005241275" lon="-2.888526041060686">
        <ele>1169.5999999999999</ele>
        <time>2018-05-27T10:06:13Z</time>
      </trkpt>
      <trkpt lat="41.811352958902717" lon="-2.887754989787936">
        <ele>1169.8</ele>
        <time>2018-05-27T10:06:31Z</time>
      </trkpt>
      <trkpt lat="41.811212981119752" lon="-2.886953009292483">
        <ele>1169.8</ele>
        <time>2018-05-27T10:06:49Z</time>
      </trkpt>
      <trkpt lat="41.811093958094716" lon="-2.886302992701531">
        <ele>1169.0999999999999</ele>
        <time>2018-05-27T10:07:04Z</time>
      </trkpt>
      <trkpt lat="41.810978036373854" lon="-2.885649036616087">
        <ele>1165.7</ele>
        <time>2018-05-27T10:07:18Z</time>
      </trkpt>
      <trkpt lat="41.810848033055663" lon="-2.885204963386059">
        <ele>1163.7</ele>
        <time>2018-05-27T10:07:29Z</time>
      </trkpt>
      <trkpt lat="41.810633959248662" lon="-2.884623007848859">
        <ele>1161.4000000000001</ele>
        <time>2018-05-27T10:07:43Z</time>
      </trkpt>
      <trkpt lat="41.810393985360861" lon="-2.884094025939703">
        <ele>1159.4000000000001</ele>
        <time>2018-05-27T10:07:57Z</time>
      </trkpt>
      <trkpt lat="41.81015501730144" lon="-2.883534030988812">
        <ele>1158.0999999999999</ele>
        <time>2018-05-27T10:08:11Z</time>
      </trkpt>
      <trkpt lat="41.80987698957324" lon="-2.882908992469311">
        <ele>1155.7</ele>
        <time>2018-05-27T10:08:27Z</time>
      </trkpt>
      <trkpt lat="41.809580018743873" lon="-2.882229974493384">
        <ele>1152.5</ele>
        <time>2018-05-27T10:08:45Z</time>
      </trkpt>
      <trkpt lat="41.809296039864421" lon="-2.881526984274387">
        <ele>1151.5</ele>
        <time>2018-05-27T10:09:02Z</time>
      </trkpt>
      <trkpt lat="41.809002002701163" lon="-2.880751993507147">
        <ele>1150.5999999999999</ele>
        <time>2018-05-27T10:09:22Z</time>
      </trkpt>
      <trkpt lat="41.8086720071733" lon="-2.879883963614702">
        <ele>1150</ele>
        <time>2018-05-27T10:09:43Z</time>
      </trkpt>
      <trkpt lat="41.808377970010042" lon="-2.879091035574675">
        <ele>1148.3</ele>
        <time>2018-05-27T10:10:03Z</time>
      </trkpt>
      <trkpt lat="41.808249978348613" lon="-2.878973018378019">
        <ele>1148.0999999999999</ele>
        <time>2018-05-27T10:10:07Z</time>
      </trkpt>
      <trkpt lat="41.808105977252126" lon="-2.879208968952298">
        <ele>1148.5999999999999</ele>
        <time>2018-05-27T10:10:14Z</time>
      </trkpt>
      <trkpt lat="41.808054009452462" lon="-2.879733005538583">
        <ele>1149.5999999999999</ele>
        <time>2018-05-27T10:10:26Z</time>
      </trkpt>
      <trkpt lat="41.807952001690865" lon="-2.879981026053429">
        <ele>1150.4000000000001</ele>
        <time>2018-05-27T10:10:32Z</time>
      </trkpt>
      <trkpt lat="41.808031965047121" lon="-2.880246983841062">
        <ele>1151.2</ele>
        <time>2018-05-27T10:10:38Z</time>
      </trkpt>
      <trkpt lat="41.807962981984019" lon="-2.88013500161469">
        <ele>1150.9000000000001</ele>
        <time>2018-05-27T10:10:42Z</time>
      </trkpt>
      <trkpt lat="41.8079639878124" lon="-2.879864014685154">
        <ele>1150</ele>
        <time>2018-05-27T10:10:47Z</time>
      </trkpt>
      <trkpt lat="41.808100026100874" lon="-2.879032026976347">
        <ele>1148.3</ele>
        <time>2018-05-27T10:11:06Z</time>
      </trkpt>
      <trkpt lat="41.808130033314228" lon="-2.878702031448484">
        <ele>1147.7</ele>
        <time>2018-05-27T10:11:14Z</time>
      </trkpt>
      <trkpt lat="41.808073036372662" lon="-2.878472032025456">
        <ele>1147.5</ele>
        <time>2018-05-27T10:11:19Z</time>
      </trkpt>
      <trkpt lat="41.807638015598059" lon="-2.877293033525348">
        <ele>1147</ele>
        <time>2018-05-27T10:11:48Z</time>
      </trkpt>
      <trkpt lat="41.807162007316947" lon="-2.876027030870318">
        <ele>1145.8</ele>
        <time>2018-05-27T10:12:19Z</time>
      </trkpt>
      <trkpt lat="41.806736038997769" lon="-2.874860018491745">
        <ele>1146.8</ele>
        <time>2018-05-27T10:12:48Z</time>
      </trkpt>
      <trkpt lat="41.806270005181432" lon="-2.873601978644729">
        <ele>1147</ele>
        <time>2018-05-27T10:13:19Z</time>
      </trkpt>
      <trkpt lat="41.805984014645219" lon="-2.872790023684502">
        <ele>1147.5</ele>
        <time>2018-05-27T10:13:39Z</time>
      </trkpt>
      <trkpt lat="41.80592299439013" lon="-2.872629007324576">
        <ele>1147.5999999999999</ele>
        <time>2018-05-27T10:13:43Z</time>
      </trkpt>
      <trkpt lat="41.805856022983789" lon="-2.872612997889519">
        <ele>1147.8</ele>
        <time>2018-05-27T10:13:45Z</time>
      </trkpt>
      <trkpt lat="41.805603979155421" lon="-2.872599000111222">
        <ele>1148.5</ele>
        <time>2018-05-27T10:13:52Z</time>
      </trkpt>
      <trkpt lat="41.805547988042235" lon="-2.872589025646448">
        <ele>1148.5999999999999</ele>
        <time>2018-05-27T10:13:54Z</time>
      </trkpt>
      <trkpt lat="41.805442040786147" lon="-2.872415017336607">
        <ele>1148.9000000000001</ele>
        <time>2018-05-27T10:13:59Z</time>
      </trkpt>
      <trkpt lat="41.805378003045917" lon="-2.872280990704894">
        <ele>1149.2</ele>
        <time>2018-05-27T10:14:03Z</time>
      </trkpt>
      <trkpt lat="41.805295022204518" lon="-2.872273027896881">
        <ele>1149.5999999999999</ele>
        <time>2018-05-27T10:14:05Z</time>
      </trkpt>
      <trkpt lat="41.805237019434571" lon="-2.872305968776345">
        <ele>1149.9000000000001</ele>
        <time>2018-05-27T10:14:07Z</time>
      </trkpt>
      <trkpt lat="41.805134005844593" lon="-2.872312003746629">
        <ele>1150.4000000000001</ele>
        <time>2018-05-27T10:14:10Z</time>
      </trkpt>
      <trkpt lat="41.805123025551438" lon="-2.872173031792045">
        <ele>1150.4000000000001</ele>
        <time>2018-05-27T10:14:13Z</time>
      </trkpt>
      <trkpt lat="41.804873999208212" lon="-2.8710269741714">
        <ele>1151.3</ele>
        <time>2018-05-27T10:14:39Z</time>
      </trkpt>
      <trkpt lat="41.804502010345459" lon="-2.869988037273288">
        <ele>1151.5</ele>
        <time>2018-05-27T10:15:05Z</time>
      </trkpt>
      <trkpt lat="41.804014015942812" lon="-2.868929989635944">
        <ele>1153.9000000000001</ele>
        <time>2018-05-27T10:15:32Z</time>
      </trkpt>
      <trkpt lat="41.803437005728483" lon="-2.867919970303774">
        <ele>1154.3</ele>
        <time>2018-05-27T10:16:00Z</time>
      </trkpt>
      <trkpt lat="41.803356036543846" lon="-2.867687959223986">
        <ele>1155.0999999999999</ele>
        <time>2018-05-27T10:16:06Z</time>
      </trkpt>
      <trkpt lat="41.80321698077023" lon="-2.866493035107851">
        <ele>1157.0999999999999</ele>
        <time>2018-05-27T10:16:33Z</time>
      </trkpt>
      <trkpt lat="41.80308798328042" lon="-2.865414032712579">
        <ele>1156.8</ele>
        <time>2018-05-27T10:16:57Z</time>
      </trkpt>
      <trkpt lat="41.802670983597636" lon="-2.864380963146687">
        <ele>1157.8</ele>
        <time>2018-05-27T10:17:23Z</time>
      </trkpt>
      <trkpt lat="41.802315004169941" lon="-2.863803030923009">
        <ele>1159.2</ele>
        <time>2018-05-27T10:17:39Z</time>
      </trkpt>
      <trkpt lat="41.801974028348923" lon="-2.863273965194821">
        <ele>1160.7</ele>
        <time>2018-05-27T10:17:55Z</time>
      </trkpt>
      <trkpt lat="41.801759032532573" lon="-2.862908011302352">
        <ele>1161.7</ele>
        <time>2018-05-27T10:18:05Z</time>
      </trkpt>
      <trkpt lat="41.801594998687506" lon="-2.862584972754121">
        <ele>1163.2</ele>
        <time>2018-05-27T10:18:14Z</time>
      </trkpt>
      <trkpt lat="41.801359970122576" lon="-2.861502030864358">
        <ele>1162.7</ele>
        <time>2018-05-27T10:18:39Z</time>
      </trkpt>
      <trkpt lat="41.80121898651123" lon="-2.860341975465417">
        <ele>1161</ele>
        <time>2018-05-27T10:19:05Z</time>
      </trkpt>
      <trkpt lat="41.801095018163323" lon="-2.859327010810375">
        <ele>1160.5999999999999</ele>
        <time>2018-05-27T10:19:27Z</time>
      </trkpt>
      <trkpt lat="41.801070962101221" lon="-2.859151996672154">
        <ele>1160.5</ele>
        <time>2018-05-27T10:19:31Z</time>
      </trkpt>
      <trkpt lat="41.800913969054818" lon="-2.857995964586735">
        <ele>1160.0999999999999</ele>
        <time>2018-05-27T10:19:57Z</time>
      </trkpt>
      <trkpt lat="41.800790000706911" lon="-2.857020981609821">
        <ele>1159.2</ele>
        <time>2018-05-27T10:20:19Z</time>
      </trkpt>
      <trkpt lat="41.800666032359004" lon="-2.855967963114381">
        <ele>1157.8</ele>
        <time>2018-05-27T10:20:43Z</time>
      </trkpt>
      <trkpt lat="41.800590008497238" lon="-2.855221973732114">
        <ele>1156.3</ele>
        <time>2018-05-27T10:20:59Z</time>
      </trkpt>
      <trkpt lat="41.800505015999079" lon="-2.854457963258028">
        <ele>1157.3</ele>
        <time>2018-05-27T10:21:16Z</time>
      </trkpt>
      <trkpt lat="41.800514990463853" lon="-2.854196028783917">
        <ele>1157.8</ele>
        <time>2018-05-27T10:21:22Z</time>
      </trkpt>
      <trkpt lat="41.800432009622455" lon="-2.854083962738514">
        <ele>1158.2</ele>
        <time>2018-05-27T10:21:26Z</time>
      </trkpt>
      <trkpt lat="41.800091033801436" lon="-2.853555986657739">
        <ele>1156.4000000000001</ele>
        <time>2018-05-27T10:21:41Z</time>
      </trkpt>
      <trkpt lat="41.799858016893268" lon="-2.853096993640065">
        <ele>1154.8</ele>
        <time>2018-05-27T10:21:53Z</time>
      </trkpt>
      <trkpt lat="41.799404975026846" lon="-2.852026959881187">
        <ele>1154.0999999999999</ele>
        <time>2018-05-27T10:22:20Z</time>
      </trkpt>
      <trkpt lat="41.799373961985111" lon="-2.851927969604731">
        <ele>1154.2</ele>
        <time>2018-05-27T10:22:23Z</time>
      </trkpt>
      <trkpt lat="41.799093000590801" lon="-2.851072009652853">
        <ele>1154.2</ele>
        <time>2018-05-27T10:22:43Z</time>
      </trkpt>
      <trkpt lat="41.798971965909004" lon="-2.850619973614812">
        <ele>1154.2</ele>
        <time>2018-05-27T10:22:54Z</time>
      </trkpt>
      <trkpt lat="41.798758981749415" lon="-2.850233986973763">
        <ele>1153.7</ele>
        <time>2018-05-27T10:23:05Z</time>
      </trkpt>
      <trkpt lat="41.798439966514707" lon="-2.849978003650904">
        <ele>1155.5</ele>
        <time>2018-05-27T10:23:16Z</time>
      </trkpt>
      <trkpt lat="41.7981450073421" lon="-2.849816987290978">
        <ele>1156.5</ele>
        <time>2018-05-27T10:23:25Z</time>
      </trkpt>
      <trkpt lat="41.797389965504408" lon="-2.849642978981137">
        <ele>1161.5</ele>
        <time>2018-05-27T10:23:48Z</time>
      </trkpt>
      <trkpt lat="41.797128031030297" lon="-2.849566033110023">
        <ele>1163.5</ele>
        <time>2018-05-27T10:23:56Z</time>
      </trkpt>
      <trkpt lat="41.797057036310434" lon="-2.849555974826217">
        <ele>1163.8</ele>
        <time>2018-05-27T10:23:58Z</time>
      </trkpt>
      <trkpt lat="41.796373995020986" lon="-2.849361011758447">
        <ele>1161.7</ele>
        <time>2018-05-27T10:24:19Z</time>
      </trkpt>
      <trkpt lat="41.796041987836361" lon="-2.849466959014535">
        <ele>1160.3</ele>
        <time>2018-05-27T10:24:29Z</time>
      </trkpt>
      <trkpt lat="41.795688020065427" lon="-2.849881025031209">
        <ele>1158.5999999999999</ele>
        <time>2018-05-27T10:24:43Z</time>
      </trkpt>
      <trkpt lat="41.795479981228709" lon="-2.850190987810493">
        <ele>1157.5999999999999</ele>
        <time>2018-05-27T10:24:52Z</time>
      </trkpt>
      <trkpt lat="41.795231038704515" lon="-2.850531041622162">
        <ele>1156</ele>
        <time>2018-05-27T10:25:02Z</time>
      </trkpt>
      <trkpt lat="41.794976983219385" lon="-2.850790964439511">
        <ele>1153.4000000000001</ele>
        <time>2018-05-27T10:25:12Z</time>
      </trkpt>
      <trkpt lat="41.7947309743613" lon="-2.851005960255861">
        <ele>1150</ele>
        <time>2018-05-27T10:25:21Z</time>
      </trkpt>
      <trkpt lat="41.794642964377999" lon="-2.85087201744318">
        <ele>1148.0999999999999</ele>
        <time>2018-05-27T10:25:25Z</time>
      </trkpt>
      <trkpt lat="41.794442972168326" lon="-2.850771015509963">
        <ele>1145.7</ele>
        <time>2018-05-27T10:25:31Z</time>
      </trkpt>
      <trkpt lat="41.794397039338946" lon="-2.850745031610131">
        <ele>1145.3</ele>
        <time>2018-05-27T10:25:32Z</time>
      </trkpt>
      <trkpt lat="41.794561995193362" lon="-2.850411012768745">
        <ele>1145.8</ele>
        <time>2018-05-27T10:25:41Z</time>
      </trkpt>
      <trkpt lat="41.794602982699871" lon="-2.850304981693626">
        <ele>1146.0999999999999</ele>
        <time>2018-05-27T10:25:44Z</time>
      </trkpt>
      <trkpt lat="41.794768022373319" lon="-2.849959982559085">
        <ele>1147.7</ele>
        <time>2018-05-27T10:25:53Z</time>
      </trkpt>
      <trkpt lat="41.794845974072814" lon="-2.849665023386478">
        <ele>1148</ele>
        <time>2018-05-27T10:26:00Z</time>
      </trkpt>
      <trkpt lat="41.794744972139597" lon="-2.849438041448593">
        <ele>1146.5</ele>
        <time>2018-05-27T10:26:06Z</time>
      </trkpt>
      <trkpt lat="41.794995004311204" lon="-2.84872499294579">
        <ele>1146</ele>
        <time>2018-05-27T10:26:23Z</time>
      </trkpt>
      <trkpt lat="41.794901965186" lon="-2.848008004948497">
        <ele>1147.7</ele>
        <time>2018-05-27T10:26:39Z</time>
      </trkpt>
      <trkpt lat="41.79494496434927" lon="-2.847214993089438">
        <ele>1150.2</ele>
        <time>2018-05-27T10:26:57Z</time>
      </trkpt>
      <trkpt lat="41.795000033453107" lon="-2.846932020038366">
        <ele>1149.9000000000001</ele>
        <time>2018-05-27T10:27:03Z</time>
      </trkpt>
      <trkpt lat="41.795055018737912" lon="-2.846387028694153">
        <ele>1149.0999999999999</ele>
        <time>2018-05-27T10:27:15Z</time>
      </trkpt>
      <trkpt lat="41.795075973495841" lon="-2.846266999840736">
        <ele>1148.9000000000001</ele>
        <time>2018-05-27T10:27:18Z</time>
      </trkpt>
      <trkpt lat="41.795165995135903" lon="-2.846093997359276">
        <ele>1148</ele>
        <time>2018-05-27T10:27:23Z</time>
      </trkpt>
      <trkpt lat="41.795212011784315" lon="-2.84584597684443">
        <ele>1147.5</ele>
        <time>2018-05-27T10:27:28Z</time>
      </trkpt>
      <trkpt lat="41.795292980968952" lon="-2.845310959964991">
        <ele>1147.4000000000001</ele>
        <time>2018-05-27T10:27:41Z</time>
      </trkpt>
      <trkpt lat="41.795452991500497" lon="-2.844200022518635">
        <ele>1153.5</ele>
        <time>2018-05-27T10:28:06Z</time>
      </trkpt>
      <trkpt lat="41.795575032010674" lon="-2.842989005148411">
        <ele>1157.3</ele>
        <time>2018-05-27T10:28:33Z</time>
      </trkpt>
      <trkpt lat="41.79558701813221" lon="-2.842860007658601">
        <ele>1157.5</ele>
        <time>2018-05-27T10:28:35Z</time>
      </trkpt>
      <trkpt lat="41.795557010918856" lon="-2.841675980016589">
        <ele>1161.4000000000001</ele>
        <time>2018-05-27T10:29:02Z</time>
      </trkpt>
      <trkpt lat="41.795645020902157" lon="-2.841156972572208">
        <ele>1162.0999999999999</ele>
        <time>2018-05-27T10:29:13Z</time>
      </trkpt>
      <trkpt lat="41.795801008120179" lon="-2.840705020353198">
        <ele>1161</ele>
        <time>2018-05-27T10:29:24Z</time>
      </trkpt>
      <trkpt lat="41.795912990346551" lon="-2.840349962934852">
        <ele>1160.8</ele>
        <time>2018-05-27T10:29:33Z</time>
      </trkpt>
      <trkpt lat="41.795915002003312" lon="-2.839981997385621">
        <ele>1161.7</ele>
        <time>2018-05-27T10:29:41Z</time>
      </trkpt>
      <trkpt lat="41.795720960944891" lon="-2.839222010225058">
        <ele>1163.7</ele>
        <time>2018-05-27T10:29:59Z</time>
      </trkpt>
      <trkpt lat="41.795697994530201" lon="-2.839035009965301">
        <ele>1163.9000000000001</ele>
        <time>2018-05-27T10:30:03Z</time>
      </trkpt>
      <trkpt lat="41.795644015073776" lon="-2.838612981140614">
        <ele>1164.5</ele>
        <time>2018-05-27T10:30:12Z</time>
      </trkpt>
      <trkpt lat="41.795591041445732" lon="-2.838160023093224">
        <ele>1165.5</ele>
        <time>2018-05-27T10:30:23Z</time>
      </trkpt>
      <trkpt lat="41.795528009533882" lon="-2.83782902173698">
        <ele>1166.0999999999999</ele>
        <time>2018-05-27T10:30:30Z</time>
      </trkpt>
      <trkpt lat="41.795400017872453" lon="-2.837200965732336">
        <ele>1167.0999999999999</ele>
        <time>2018-05-27T10:30:44Z</time>
      </trkpt>
      <trkpt lat="41.795314019545913" lon="-2.836158005520701">
        <ele>1169.5</ele>
        <time>2018-05-27T10:31:08Z</time>
      </trkpt>
      <trkpt lat="41.795290969312191" lon="-2.835845025256276">
        <ele>1170.5</ele>
        <time>2018-05-27T10:31:15Z</time>
      </trkpt>
      <trkpt lat="41.79518099874258" lon="-2.835299028083682">
        <ele>1172.5999999999999</ele>
        <time>2018-05-27T10:31:27Z</time>
      </trkpt>
      <trkpt lat="41.795151997357607" lon="-2.834984958171845">
        <ele>1173.2</ele>
        <time>2018-05-27T10:31:34Z</time>
      </trkpt>
      <trkpt lat="41.79522299207747" lon="-2.834165040403605">
        <ele>1173.9000000000001</ele>
        <time>2018-05-27T10:31:52Z</time>
      </trkpt>
      <trkpt lat="41.795323994010687" lon="-2.833825992420316">
        <ele>1173.7</ele>
        <time>2018-05-27T10:32:00Z</time>
      </trkpt>
      <trkpt lat="41.795336985960603" lon="-2.833765977993608">
        <ele>1173.7</ele>
        <time>2018-05-27T10:32:02Z</time>
      </trkpt>
      <trkpt lat="41.795729007571936" lon="-2.832955028861761">
        <ele>1177.5999999999999</ele>
        <time>2018-05-27T10:32:23Z</time>
      </trkpt>
      <trkpt lat="41.795982979238033" lon="-2.832089010626078">
        <ele>1179.9000000000001</ele>
        <time>2018-05-27T10:32:44Z</time>
      </trkpt>
      <trkpt lat="41.796149024739861" lon="-2.831627000123262">
        <ele>1180</ele>
        <time>2018-05-27T10:32:55Z</time>
      </trkpt>
      <trkpt lat="41.796285985037684" lon="-2.831168007105589">
        <ele>1179.8</ele>
        <time>2018-05-27T10:33:06Z</time>
      </trkpt>
      <trkpt lat="41.796509027481079" lon="-2.830772968009114">
        <ele>1178.3</ele>
        <time>2018-05-27T10:33:17Z</time>
      </trkpt>
      <trkpt lat="41.796799041330814" lon="-2.830407014116645">
        <ele>1176.0999999999999</ele>
        <time>2018-05-27T10:33:29Z</time>
      </trkpt>
      <trkpt lat="41.797003978863358" lon="-2.830013986676931">
        <ele>1175.4000000000001</ele>
        <time>2018-05-27T10:33:39Z</time>
      </trkpt>
      <trkpt lat="41.797232972458005" lon="-2.829660018905997">
        <ele>1173.9000000000001</ele>
        <time>2018-05-27T10:33:50Z</time>
      </trkpt>
      <trkpt lat="41.797405974939466" lon="-2.829266991466284">
        <ele>1173.8</ele>
        <time>2018-05-27T10:34:00Z</time>
      </trkpt>
      <trkpt lat="41.797709986567497" lon="-2.82891696318984">
        <ele>1172.3</ele>
        <time>2018-05-27T10:34:12Z</time>
      </trkpt>
      <trkpt lat="41.797846024855971" lon="-2.828706996515393">
        <ele>1172</ele>
        <time>2018-05-27T10:34:18Z</time>
      </trkpt>
      <trkpt lat="41.797871002927423" lon="-2.828620998188853">
        <ele>1172.3</ele>
        <time>2018-05-27T10:34:20Z</time>
      </trkpt>
      <trkpt lat="41.797964964061975" lon="-2.828398961573839">
        <ele>1172.4000000000001</ele>
        <time>2018-05-27T10:34:25Z</time>
      </trkpt>
      <trkpt lat="41.79799497127533" lon="-2.8282490093261">
        <ele>1172.9000000000001</ele>
        <time>2018-05-27T10:34:29Z</time>
      </trkpt>
      <trkpt lat="41.798190018162131" lon="-2.827756991609931">
        <ele>1173.5</ele>
        <time>2018-05-27T10:34:41Z</time>
      </trkpt>
      <trkpt lat="41.798340976238251" lon="-2.827451974153519">
        <ele>1173.8</ele>
        <time>2018-05-27T10:34:49Z</time>
      </trkpt>
      <trkpt lat="41.798472991213202" lon="-2.82715299166739">
        <ele>1174.0999999999999</ele>
        <time>2018-05-27T10:34:57Z</time>
      </trkpt>
      <trkpt lat="41.798687987029552" lon="-2.826725011691451">
        <ele>1174.2</ele>
        <time>2018-05-27T10:35:08Z</time>
      </trkpt>
      <trkpt lat="41.798756970092654" lon="-2.826529964804649">
        <ele>1174.5</ele>
        <time>2018-05-27T10:35:13Z</time>
      </trkpt>
      <trkpt lat="41.798925027251244" lon="-2.826174991205335">
        <ele>1174</ele>
        <time>2018-05-27T10:35:22Z</time>
      </trkpt>
      <trkpt lat="41.799130970612168" lon="-2.825766038149595">
        <ele>1171.5999999999999</ele>
        <time>2018-05-27T10:35:33Z</time>
      </trkpt>
      <trkpt lat="41.799229960888624" lon="-2.825758997350931">
        <ele>1169.9000000000001</ele>
        <time>2018-05-27T10:35:36Z</time>
      </trkpt>
      <trkpt lat="41.799465995281935" lon="-2.825569985434413">
        <ele>1166.4000000000001</ele>
        <time>2018-05-27T10:35:44Z</time>
      </trkpt>
      <trkpt lat="41.799535984173417" lon="-2.825421039015055">
        <ele>1165.8</ele>
        <time>2018-05-27T10:35:48Z</time>
      </trkpt>
      <trkpt lat="41.799586024135351" lon="-2.825192967429757">
        <ele>1165.5</ele>
        <time>2018-05-27T10:35:54Z</time>
      </trkpt>
      <trkpt lat="41.799595998600125" lon="-2.825090037658811">
        <ele>1165.7</ele>
        <time>2018-05-27T10:35:56Z</time>
      </trkpt>
      <trkpt lat="41.79981904104352" lon="-2.824804969131947">
        <ele>1165.8</ele>
        <time>2018-05-27T10:36:05Z</time>
      </trkpt>
      <trkpt lat="41.800008974969387" lon="-2.824646970257163">
        <ele>1166.0999999999999</ele>
        <time>2018-05-27T10:36:12Z</time>
      </trkpt>
      <trkpt lat="41.800193041563034" lon="-2.824400961399078">
        <ele>1167.2</ele>
        <time>2018-05-27T10:36:19Z</time>
      </trkpt>
      <trkpt lat="41.800287002697587" lon="-2.824248997494578">
        <ele>1167.7</ele>
        <time>2018-05-27T10:36:24Z</time>
      </trkpt>
      <trkpt lat="41.800370989367366" lon="-2.823744993656874">
        <ele>1169.4000000000001</ele>
        <time>2018-05-27T10:36:35Z</time>
      </trkpt>
      <trkpt lat="41.800364032387733" lon="-2.823548018932343">
        <ele>1170.5999999999999</ele>
        <time>2018-05-27T10:36:39Z</time>
      </trkpt>
      <trkpt lat="41.800341987982392" lon="-2.823091959580779">
        <ele>1173.5999999999999</ele>
        <time>2018-05-27T10:36:50Z</time>
      </trkpt>
      <trkpt lat="41.800355985760689" lon="-2.822775039821863">
        <ele>1175</ele>
        <time>2018-05-27T10:36:57Z</time>
      </trkpt>
      <trkpt lat="41.800447013229132" lon="-2.822401039302349">
        <ele>1175.2</ele>
        <time>2018-05-27T10:37:05Z</time>
      </trkpt>
      <trkpt lat="41.800548015162349" lon="-2.82195302657783">
        <ele>1175.3</ele>
        <time>2018-05-27T10:37:16Z</time>
      </trkpt>
      <trkpt lat="41.800586991012096" lon="-2.821366963908076">
        <ele>1174</ele>
        <time>2018-05-27T10:37:29Z</time>
      </trkpt>
      <trkpt lat="41.800706014037132" lon="-2.820776039734483">
        <ele>1172.3</ele>
        <time>2018-05-27T10:37:42Z</time>
      </trkpt>
      <trkpt lat="41.80083098821342" lon="-2.819966012611985">
        <ele>1171.3</ele>
        <time>2018-05-27T10:38:00Z</time>
      </trkpt>
      <trkpt lat="41.800985969603062" lon="-2.81907401047647">
        <ele>1170.8</ele>
        <time>2018-05-27T10:38:21Z</time>
      </trkpt>
      <trkpt lat="41.80117598734796" lon="-2.818269012495875">
        <ele>1170.5</ele>
        <time>2018-05-27T10:38:39Z</time>
      </trkpt>
      <trkpt lat="41.801348989829421" lon="-2.817610027268529">
        <ele>1170.0999999999999</ele>
        <time>2018-05-27T10:38:55Z</time>
      </trkpt>
      <trkpt lat="41.801442028954625" lon="-2.817272990942001">
        <ele>1169.5</ele>
        <time>2018-05-27T10:39:03Z</time>
      </trkpt>
      <trkpt lat="41.801602961495519" lon="-2.816418036818504">
        <ele>1168.2</ele>
        <time>2018-05-27T10:39:22Z</time>
      </trkpt>
      <trkpt lat="41.801636992022395" lon="-2.816149983555079">
        <ele>1167.9000000000001</ele>
        <time>2018-05-27T10:39:28Z</time>
      </trkpt>
      <trkpt lat="41.801643026992679" lon="-2.81604596413672">
        <ele>1167.8</ele>
        <time>2018-05-27T10:39:30Z</time>
      </trkpt>
      <trkpt lat="41.801653001457453" lon="-2.815023036673665">
        <ele>1167.4000000000001</ele>
        <time>2018-05-27T10:39:53Z</time>
      </trkpt>
      <trkpt lat="41.801567003130913" lon="-2.81419800594449">
        <ele>1168</ele>
        <time>2018-05-27T10:40:11Z</time>
      </trkpt>
      <trkpt lat="41.8015400134027" lon="-2.813548995181918">
        <ele>1168.2</ele>
        <time>2018-05-27T10:40:26Z</time>
      </trkpt>
      <trkpt lat="41.801706980913877" lon="-2.813152028247714">
        <ele>1165.5</ele>
        <time>2018-05-27T10:40:36Z</time>
      </trkpt>
      <trkpt lat="41.802160022780299" lon="-2.812779033556581">
        <ele>1159</ele>
        <time>2018-05-27T10:40:52Z</time>
      </trkpt>
      <trkpt lat="41.802432015538216" lon="-2.812223983928561">
        <ele>1159</ele>
        <time>2018-05-27T10:41:06Z</time>
      </trkpt>
      <trkpt lat="41.802511978894472" lon="-2.81144698150456">
        <ele>1158.9000000000001</ele>
        <time>2018-05-27T10:41:24Z</time>
      </trkpt>
      <trkpt lat="41.802531005814672" lon="-2.810550034046173">
        <ele>1156.8</ele>
        <time>2018-05-27T10:41:44Z</time>
      </trkpt>
      <trkpt lat="41.802516002207994" lon="-2.809841008856893">
        <ele>1155.0999999999999</ele>
        <time>2018-05-27T10:41:59Z</time>
      </trkpt>
      <trkpt lat="41.802465040236712" lon="-2.809012038633227">
        <ele>1153.9000000000001</ele>
        <time>2018-05-27T10:42:18Z</time>
      </trkpt>
      <trkpt lat="41.802391028031707" lon="-2.808021968230605">
        <ele>1152.7</ele>
        <time>2018-05-27T10:42:40Z</time>
      </trkpt>
      <trkpt lat="41.802246021106839" lon="-2.80734303407371">
        <ele>1154.7</ele>
        <time>2018-05-27T10:42:55Z</time>
      </trkpt>
      <trkpt lat="41.802254989743233" lon="-2.806611964479089">
        <ele>1156.7</ele>
        <time>2018-05-27T10:43:11Z</time>
      </trkpt>
      <trkpt lat="41.802416006103158" lon="-2.805665982887149">
        <ele>1155.9000000000001</ele>
        <time>2018-05-27T10:43:33Z</time>
      </trkpt>
      <trkpt lat="41.802455987781286" lon="-2.804795019328594">
        <ele>1155.3</ele>
        <time>2018-05-27T10:43:52Z</time>
      </trkpt>
      <trkpt lat="41.802471997216344" lon="-2.804064033553004">
        <ele>1155.5</ele>
        <time>2018-05-27T10:44:08Z</time>
      </trkpt>
      <trkpt lat="41.802511978894472" lon="-2.803121991455555">
        <ele>1154.5999999999999</ele>
        <time>2018-05-27T10:44:29Z</time>
      </trkpt>
      <trkpt lat="41.802534023299813" lon="-2.802262008190155">
        <ele>1154.8</ele>
        <time>2018-05-27T10:44:48Z</time>
      </trkpt>
      <trkpt lat="41.802487000823021" lon="-2.801421973854303">
        <ele>1153.7</ele>
        <time>2018-05-27T10:45:07Z</time>
      </trkpt>
      <trkpt lat="41.802362026646733" lon="-2.800348000600934">
        <ele>1154.5</ele>
        <time>2018-05-27T10:45:31Z</time>
      </trkpt>
      <trkpt lat="41.802235962823033" lon="-2.799934018403292">
        <ele>1155.7</ele>
        <time>2018-05-27T10:45:40Z</time>
      </trkpt>
      <trkpt lat="41.802060026675463" lon="-2.799129020422697">
        <ele>1156.4000000000001</ele>
        <time>2018-05-27T10:45:59Z</time>
      </trkpt>
      <trkpt lat="41.802021972835064" lon="-2.798853004351258">
        <ele>1156.4000000000001</ele>
        <time>2018-05-27T10:46:05Z</time>
      </trkpt>
      <trkpt lat="41.802015015855432" lon="-2.798677990213037">
        <ele>1155.9000000000001</ele>
        <time>2018-05-27T10:46:09Z</time>
      </trkpt>
      <trkpt lat="41.801923988386989" lon="-2.797929989174008">
        <ele>1153.9000000000001</ele>
        <time>2018-05-27T10:46:26Z</time>
      </trkpt>
      <trkpt lat="41.801792979240417" lon="-2.797106970101595">
        <ele>1154.3</ele>
        <time>2018-05-27T10:46:44Z</time>
      </trkpt>
      <trkpt lat="41.801786022260785" lon="-2.795911962166429">
        <ele>1151.7</ele>
        <time>2018-05-27T10:47:11Z</time>
      </trkpt>
      <trkpt lat="41.801723996177316" lon="-2.794961035251617">
        <ele>1151.3</ele>
        <time>2018-05-27T10:47:32Z</time>
      </trkpt>
      <trkpt lat="41.80160597898066" lon="-2.794056041166186">
        <ele>1155.8</ele>
        <time>2018-05-27T10:47:52Z</time>
      </trkpt>
      <trkpt lat="41.801564991474152" lon="-2.793439971283078">
        <ele>1157.2</ele>
        <time>2018-05-27T10:48:06Z</time>
      </trkpt>
      <trkpt lat="41.801567003130913" lon="-2.792597003281117">
        <ele>1155</ele>
        <time>2018-05-27T10:48:24Z</time>
      </trkpt>
      <trkpt lat="41.801555017009377" lon="-2.791868029162288">
        <ele>1153.3</ele>
        <time>2018-05-27T10:48:41Z</time>
      </trkpt>
      <trkpt lat="41.801747968420386" lon="-2.791137965396047">
        <ele>1149.7</ele>
        <time>2018-05-27T10:48:58Z</time>
      </trkpt>
      <trkpt lat="41.802147030830383" lon="-2.790389964357019">
        <ele>1146.9000000000001</ele>
        <time>2018-05-27T10:49:18Z</time>
      </trkpt>
      <trkpt lat="41.802487000823021" lon="-2.789627965539694">
        <ele>1147.9000000000001</ele>
        <time>2018-05-27T10:49:38Z</time>
      </trkpt>
      <trkpt lat="41.802852032706141" lon="-2.789099989458919">
        <ele>1149.2</ele>
        <time>2018-05-27T10:49:54Z</time>
      </trkpt>
      <trkpt lat="41.803055964410305" lon="-2.788505963981152">
        <ele>1149.3</ele>
        <time>2018-05-27T10:50:08Z</time>
      </trkpt>
      <trkpt lat="41.803200971335173" lon="-2.787953009828925">
        <ele>1148.5999999999999</ele>
        <time>2018-05-27T10:50:21Z</time>
      </trkpt>
      <trkpt lat="41.803264003247023" lon="-2.787543972954154">
        <ele>1148.0999999999999</ele>
        <time>2018-05-27T10:50:30Z</time>
      </trkpt>
      <trkpt lat="41.803295016288757" lon="-2.787136025726795">
        <ele>1147.7</ele>
        <time>2018-05-27T10:50:39Z</time>
      </trkpt>
      <trkpt lat="41.80334597826004" lon="-2.786693964153528">
        <ele>1146.5</ele>
        <time>2018-05-27T10:50:49Z</time>
      </trkpt>
      <trkpt lat="41.80334203876555" lon="-2.786209993064404">
        <ele>1145.3</ele>
        <time>2018-05-27T10:51:00Z</time>
      </trkpt>
      <trkpt lat="41.803357964381576" lon="-2.785517983138561">
        <ele>1143.0999999999999</ele>
        <time>2018-05-27T10:51:15Z</time>
      </trkpt>
      <trkpt lat="41.80338503792882" lon="-2.785059995949268">
        <ele>1141.3</ele>
        <time>2018-05-27T10:51:25Z</time>
      </trkpt>
      <trkpt lat="41.803432982414961" lon="-2.784491032361984">
        <ele>1139.0999999999999</ele>
        <time>2018-05-27T10:51:38Z</time>
      </trkpt>
      <trkpt lat="41.803577989339828" lon="-2.783529041334987">
        <ele>1136.8</ele>
        <time>2018-05-27T10:52:00Z</time>
      </trkpt>
      <trkpt lat="41.803629035130143" lon="-2.783075999468565">
        <ele>1136.5</ele>
        <time>2018-05-27T10:52:10Z</time>
      </trkpt>
      <trkpt lat="41.803655019029975" lon="-2.78278699144721">
        <ele>1136.2</ele>
        <time>2018-05-27T10:52:16Z</time>
      </trkpt>
      <trkpt lat="41.803670022636652" lon="-2.782545005902648">
        <ele>1135.8</ele>
        <time>2018-05-27T10:52:21Z</time>
      </trkpt>
      <trkpt lat="41.803698018193245" lon="-2.782037984579802">
        <ele>1135</ele>
        <time>2018-05-27T10:52:33Z</time>
      </trkpt>
      <trkpt lat="41.803690977394581" lon="-2.781845033168793">
        <ele>1134.3</ele>
        <time>2018-05-27T10:52:37Z</time>
      </trkpt>
      <trkpt lat="41.803749985992908" lon="-2.781633976846933">
        <ele>1133.4000000000001</ele>
        <time>2018-05-27T10:52:42Z</time>
      </trkpt>
      <trkpt lat="41.803804971277714" lon="-2.781252013519406">
        <ele>1132.0999999999999</ele>
        <time>2018-05-27T10:52:51Z</time>
      </trkpt>
      <trkpt lat="41.803458966314793" lon="-2.780698975548148">
        <ele>1129.9000000000001</ele>
        <time>2018-05-27T10:53:06Z</time>
      </trkpt>
      <trkpt lat="41.803063005208969" lon="-2.780632004141808">
        <ele>1130.5</ele>
        <time>2018-05-27T10:53:18Z</time>
      </trkpt>
      <trkpt lat="41.803054036572576" lon="-2.780632004141808">
        <ele>1130.5</ele>
        <time>2018-05-27T10:53:19Z</time>
      </trkpt>
      <trkpt lat="41.802695039659739" lon="-2.780742980539799">
        <ele>1132.0999999999999</ele>
        <time>2018-05-27T10:53:30Z</time>
      </trkpt>
      <trkpt lat="41.802555983886123" lon="-2.781178001314402">
        <ele>1134.0999999999999</ele>
        <time>2018-05-27T10:53:40Z</time>
      </trkpt>
      <trkpt lat="41.80246202275157" lon="-2.781194010749459">
        <ele>1134.5</ele>
        <time>2018-05-27T10:53:43Z</time>
      </trkpt>
      <trkpt lat="41.802395973354578" lon="-2.781204991042614">
        <ele>1134.7</ele>
        <time>2018-05-27T10:53:45Z</time>
      </trkpt>
      <trkpt lat="41.802262030541897" lon="-2.781225023791194">
        <ele>1135.3</ele>
        <time>2018-05-27T10:53:49Z</time>
      </trkpt>
      <trkpt lat="41.802166979759932" lon="-2.781243966892362">
        <ele>1135.7</ele>
        <time>2018-05-27T10:53:52Z</time>
      </trkpt>
      <trkpt lat="41.802136972546577" lon="-2.781250001862645">
        <ele>1135.8</ele>
        <time>2018-05-27T10:53:52Z</time>
      </trkpt>
      <trkpt lat="41.801994983106852" lon="-2.781269028782845">
        <ele>1136</ele>
        <time>2018-05-27T10:53:57Z</time>
      </trkpt>
      <trkpt lat="41.8019700050354" lon="-2.781266011297703">
        <ele>1136</ele>
        <time>2018-05-27T10:53:57Z</time>
      </trkpt>
      <trkpt lat="41.801944021135569" lon="-2.7812609821558">
        <ele>1135.9000000000001</ele>
        <time>2018-05-27T10:53:58Z</time>
      </trkpt>
      <trkpt lat="41.801833966746926" lon="-2.781225023791194">
        <ele>1135.7</ele>
        <time>2018-05-27T10:54:02Z</time>
      </trkpt>
      <trkpt lat="41.80173497647047" lon="-2.781004998832941">
        <ele>1135.0999999999999</ele>
        <time>2018-05-27T10:54:07Z</time>
      </trkpt>
      <trkpt lat="41.801572032272816" lon="-2.780635021626949">
        <ele>1134.4000000000001</ele>
        <time>2018-05-27T10:54:17Z</time>
      </trkpt>
      <trkpt lat="41.801358964294195" lon="-2.780150966718793">
        <ele>1133</ele>
        <time>2018-05-27T10:54:29Z</time>
      </trkpt>
      <trkpt lat="41.801329962909222" lon="-2.780089024454355">
        <ele>1132.7</ele>
        <time>2018-05-27T10:54:31Z</time>
      </trkpt>
      <trkpt lat="41.801244970411062" lon="-2.779901018366218">
        <ele>1132.2</ele>
        <time>2018-05-27T10:54:36Z</time>
      </trkpt>
      <trkpt lat="41.801111027598381" lon="-2.779574962332845">
        <ele>1132</ele>
        <time>2018-05-27T10:54:44Z</time>
      </trkpt>
      <trkpt lat="41.801086971536279" lon="-2.779508996754885">
        <ele>1132.0999999999999</ele>
        <time>2018-05-27T10:54:45Z</time>
      </trkpt>
      <trkpt lat="41.801014970988035" lon="-2.77930498123169">
        <ele>1132.5</ele>
        <time>2018-05-27T10:54:50Z</time>
      </trkpt>
      <trkpt lat="41.800940036773682" lon="-2.779103983193636">
        <ele>1132.9000000000001</ele>
        <time>2018-05-27T10:54:55Z</time>
      </trkpt>
      <trkpt lat="41.800898965448141" lon="-2.778970962390304">
        <ele>1133.0999999999999</ele>
        <time>2018-05-27T10:54:59Z</time>
      </trkpt>
      <trkpt lat="41.800797963514924" lon="-2.778641972690821">
        <ele>1133.7</ele>
        <time>2018-05-27T10:55:06Z</time>
      </trkpt>
      <trkpt lat="41.800779020413756" lon="-2.778572989627719">
        <ele>1133.8</ele>
        <time>2018-05-27T10:55:08Z</time>
      </trkpt>
      <trkpt lat="41.800743984058499" lon="-2.778436029329896">
        <ele>1134</ele>
        <time>2018-05-27T10:55:11Z</time>
      </trkpt>
      <trkpt lat="41.800725962966681" lon="-2.778367968276143">
        <ele>1134.0999999999999</ele>
        <time>2018-05-27T10:55:13Z</time>
      </trkpt>
      <trkpt lat="41.800691010430455" lon="-2.778234025463462">
        <ele>1134.3</ele>
        <time>2018-05-27T10:55:16Z</time>
      </trkpt>
      <trkpt lat="41.800583973526955" lon="-2.777761034667492">
        <ele>1134.4000000000001</ele>
        <time>2018-05-27T10:55:27Z</time>
      </trkpt>
      <trkpt lat="41.800541980192065" lon="-2.777557019144297">
        <ele>1134.2</ele>
        <time>2018-05-27T10:55:32Z</time>
      </trkpt>
      <trkpt lat="41.800452964380383" lon="-2.777001969516277">
        <ele>1133.5999999999999</ele>
        <time>2018-05-27T10:55:44Z</time>
      </trkpt>
      <trkpt lat="41.800435027107596" lon="-2.776858974248171">
        <ele>1133.5999999999999</ele>
        <time>2018-05-27T10:55:47Z</time>
      </trkpt>
      <trkpt lat="41.800404014065862" lon="-2.776640960946679">
        <ele>1133.7</ele>
        <time>2018-05-27T10:55:52Z</time>
      </trkpt>
      <trkpt lat="41.800390016287565" lon="-2.776496959850192">
        <ele>1133.7</ele>
        <time>2018-05-27T10:55:55Z</time>
      </trkpt>
      <trkpt lat="41.800362020730972" lon="-2.776206023991108">
        <ele>1133.7</ele>
        <time>2018-05-27T10:56:02Z</time>
      </trkpt>
      <trkpt lat="41.800343999639153" lon="-2.775908969342709">
        <ele>1133.5</ele>
        <time>2018-05-27T10:56:09Z</time>
      </trkpt>
      <trkpt lat="41.800333019345999" lon="-2.775607975199819">
        <ele>1133.2</ele>
        <time>2018-05-27T10:56:15Z</time>
      </trkpt>
      <trkpt lat="41.800324972718954" lon="-2.775306981056929">
        <ele>1132.7</ele>
        <time>2018-05-27T10:56:22Z</time>
      </trkpt>
      <trkpt lat="41.800338970497251" lon="-2.774575995281339">
        <ele>1130.9000000000001</ele>
        <time>2018-05-27T10:56:38Z</time>
      </trkpt>
      <trkpt lat="41.800342993810773" lon="-2.774505000561476">
        <ele>1131</ele>
        <time>2018-05-27T10:56:40Z</time>
      </trkpt>
      <trkpt lat="41.800399990752339" lon="-2.773726992309094">
        <ele>1132.2</ele>
        <time>2018-05-27T10:56:57Z</time>
      </trkpt>
      <trkpt lat="41.800499986857176" lon="-2.773054009303451">
        <ele>1132.2</ele>
        <time>2018-05-27T10:57:12Z</time>
      </trkpt>
      <trkpt lat="41.800583973526955" lon="-2.772603984922171">
        <ele>1132.3</ele>
        <time>2018-05-27T10:57:22Z</time>
      </trkpt>
      <trkpt lat="41.80065899156034" lon="-2.772270971909165">
        <ele>1132.3</ele>
        <time>2018-05-27T10:57:30Z</time>
      </trkpt>
      <trkpt lat="41.800676006823778" lon="-2.772200983017683">
        <ele>1132.3</ele>
        <time>2018-05-27T10:57:32Z</time>
      </trkpt>
      <trkpt lat="41.800750019028783" lon="-2.771925972774625">
        <ele>1132</ele>
        <time>2018-05-27T10:57:38Z</time>
      </trkpt>
      <trkpt lat="41.800848003476858" lon="-2.771574016660452">
        <ele>1131.5</ele>
        <time>2018-05-27T10:57:46Z</time>
      </trkpt>
      <trkpt lat="41.801000973209739" lon="-2.771092979237437">
        <ele>1131</ele>
        <time>2018-05-27T10:57:58Z</time>
      </trkpt>
      <trkpt lat="41.80104698985815" lon="-2.770957024767995">
        <ele>1130.7</ele>
        <time>2018-05-27T10:58:01Z</time>
      </trkpt>
      <trkpt lat="41.801283024251461" lon="-2.77036601677537">
        <ele>1129</ele>
        <time>2018-05-27T10:58:16Z</time>
      </trkpt>
      <trkpt lat="41.801579995080829" lon="-2.769737038761377">
        <ele>1129.9000000000001</ele>
        <time>2018-05-27T10:58:32Z</time>
      </trkpt>
      <trkpt lat="41.801610002294183" lon="-2.769674006849527">
        <ele>1130</ele>
        <time>2018-05-27T10:58:34Z</time>
      </trkpt>
      <trkpt lat="41.801934968680143" lon="-2.769086016342044">
        <ele>1129.5</ele>
        <time>2018-05-27T10:58:50Z</time>
      </trkpt>
      <trkpt lat="41.802219031378627" lon="-2.768645966425538">
        <ele>1128.4000000000001</ele>
        <time>2018-05-27T10:59:03Z</time>
      </trkpt>
      <trkpt lat="41.802604012191296" lon="-2.768128970637918">
        <ele>1128.5</ele>
        <time>2018-05-27T10:59:19Z</time>
      </trkpt>
      <trkpt lat="41.802643993869424" lon="-2.768079014495015">
        <ele>1128.4000000000001</ele>
        <time>2018-05-27T10:59:21Z</time>
      </trkpt>
      <trkpt lat="41.802879022434354" lon="-2.767779026180506">
        <ele>1128.5</ele>
        <time>2018-05-27T10:59:30Z</time>
      </trkpt>
      <trkpt lat="41.80315000936389" lon="-2.767425980418921">
        <ele>1129.4000000000001</ele>
        <time>2018-05-27T10:59:42Z</time>
      </trkpt>
      <trkpt lat="41.803576983511448" lon="-2.766883000731468">
        <ele>1129.0999999999999</ele>
        <time>2018-05-27T10:59:59Z</time>
      </trkpt>
      <trkpt lat="41.804007980972528" lon="-2.766348989680409">
        <ele>1128.5999999999999</ele>
        <time>2018-05-27T11:00:16Z</time>
      </trkpt>
      <trkpt lat="41.804391033947468" lon="-2.765857977792621">
        <ele>1130.5</ele>
        <time>2018-05-27T11:00:32Z</time>
      </trkpt>
      <trkpt lat="41.804813984781504" lon="-2.765310974791646">
        <ele>1130.7</ele>
        <time>2018-05-27T11:00:50Z</time>
      </trkpt>
      <trkpt lat="41.805052030831575" lon="-2.765006041154265">
        <ele>1129.4000000000001</ele>
        <time>2018-05-27T11:00:59Z</time>
      </trkpt>
      <trkpt lat="41.805130988359451" lon="-2.764903027564287">
        <ele>1129.0999999999999</ele>
        <time>2018-05-27T11:01:03Z</time>
      </trkpt>
      <trkpt lat="41.805522004142404" lon="-2.7643739618361">
        <ele>1128.2</ele>
        <time>2018-05-27T11:01:19Z</time>
      </trkpt>
      <trkpt lat="41.805559974163771" lon="-2.764319982379675">
        <ele>1128.2</ele>
        <time>2018-05-27T11:01:21Z</time>
      </trkpt>
      <trkpt lat="41.805916037410498" lon="-2.763761999085546">
        <ele>1128.3</ele>
        <time>2018-05-27T11:01:37Z</time>
      </trkpt>
      <trkpt lat="41.805982002988458" lon="-2.76364398188889">
        <ele>1128.2</ele>
        <time>2018-05-27T11:01:40Z</time>
      </trkpt>
      <trkpt lat="41.806220971047878" lon="-2.763152970001102">
        <ele>1127.5999999999999</ele>
        <time>2018-05-27T11:01:53Z</time>
      </trkpt>
      <trkpt lat="41.806348040699959" lon="-2.762844013050199">
        <ele>1128.0999999999999</ele>
        <time>2018-05-27T11:02:01Z</time>
      </trkpt>
      <trkpt lat="41.806410988792777" lon="-2.762652989476919">
        <ele>1128.9000000000001</ele>
        <time>2018-05-27T11:02:05Z</time>
      </trkpt>
      <trkpt lat="41.806529005989432" lon="-2.762256022542715">
        <ele>1130.4000000000001</ele>
        <time>2018-05-27T11:02:15Z</time>
      </trkpt>
      <trkpt lat="41.806579967960715" lon="-2.762051001191139">
        <ele>1131.0999999999999</ele>
        <time>2018-05-27T11:02:20Z</time>
      </trkpt>
      <trkpt lat="41.806699996814132" lon="-2.761416994035244">
        <ele>1131</ele>
        <time>2018-05-27T11:02:34Z</time>
      </trkpt>
      <trkpt lat="41.806774009019136" lon="-2.760780975222588">
        <ele>1131.5999999999999</ele>
        <time>2018-05-27T11:02:48Z</time>
      </trkpt>
      <trkpt lat="41.806811979040504" lon="-2.760360036045313">
        <ele>1132</ele>
        <time>2018-05-27T11:02:58Z</time>
      </trkpt>
      <trkpt lat="41.806822959333658" lon="-2.760149985551834">
        <ele>1132.0999999999999</ele>
        <time>2018-05-27T11:03:02Z</time>
      </trkpt>
      <trkpt lat="41.806863024830818" lon="-2.759454036131501">
        <ele>1132.9000000000001</ele>
        <time>2018-05-27T11:03:18Z</time>
      </trkpt>
      <trkpt lat="41.806897977367043" lon="-2.758984984830022">
        <ele>1133.5999999999999</ele>
        <time>2018-05-27T11:03:28Z</time>
      </trkpt>
      <trkpt lat="41.806910969316959" lon="-2.75885003618896">
        <ele>1133.8</ele>
        <time>2018-05-27T11:03:31Z</time>
      </trkpt>
      <trkpt lat="41.806976012885571" lon="-2.758257016539574">
        <ele>1133.8</ele>
        <time>2018-05-27T11:03:44Z</time>
      </trkpt>
      <trkpt lat="41.807011971250176" lon="-2.757996004074812">
        <ele>1133.5999999999999</ele>
        <time>2018-05-27T11:03:50Z</time>
      </trkpt>
      <trkpt lat="41.80708397179842" lon="-2.757677994668484">
        <ele>1133.5999999999999</ele>
        <time>2018-05-27T11:03:58Z</time>
      </trkpt>
      <trkpt lat="41.807145997881889" lon="-2.757421005517244">
        <ele>1133.7</ele>
        <time>2018-05-27T11:04:04Z</time>
      </trkpt>
      <trkpt lat="41.807240964844823" lon="-2.757110958918929">
        <ele>1133.4000000000001</ele>
        <time>2018-05-27T11:04:11Z</time>
      </trkpt>
      <trkpt lat="41.807456966489553" lon="-2.756590023636818">
        <ele>1132.9000000000001</ele>
        <time>2018-05-27T11:04:24Z</time>
      </trkpt>
      <trkpt lat="41.807659976184368" lon="-2.756210993975401">
        <ele>1131.9000000000001</ele>
        <time>2018-05-27T11:04:34Z</time>
      </trkpt>
      <trkpt lat="41.807744968682528" lon="-2.756061041727662">
        <ele>1131.4000000000001</ele>
        <time>2018-05-27T11:04:39Z</time>
      </trkpt>
      <trkpt lat="41.807804983109236" lon="-2.755961967632175">
        <ele>1131.0999999999999</ele>
        <time>2018-05-27T11:04:41Z</time>
      </trkpt>
      <trkpt lat="41.80800799280405" lon="-2.755687041208148">
        <ele>1130.5999999999999</ele>
        <time>2018-05-27T11:04:50Z</time>
      </trkpt>
      <trkpt lat="41.808332037180662" lon="-2.755311029031873">
        <ele>1130.8</ele>
        <time>2018-05-27T11:05:03Z</time>
      </trkpt>
      <trkpt lat="41.808445025235415" lon="-2.755192006006837">
        <ele>1131.0999999999999</ele>
        <time>2018-05-27T11:05:07Z</time>
      </trkpt>
      <trkpt lat="41.808521971106529" lon="-2.755112964659929">
        <ele>1131.3</ele>
        <time>2018-05-27T11:05:10Z</time>
      </trkpt>
      <trkpt lat="41.808793963864446" lon="-2.75483401492238">
        <ele>1132.0999999999999</ele>
        <time>2018-05-27T11:05:20Z</time>
      </trkpt>
      <trkpt lat="41.809065034613013" lon="-2.75457501411438">
        <ele>1132.9000000000001</ele>
        <time>2018-05-27T11:05:30Z</time>
      </trkpt>
      <trkpt lat="41.809101998806" lon="-2.754536960273981">
        <ele>1133</ele>
        <time>2018-05-27T11:05:31Z</time>
      </trkpt>
      <trkpt lat="41.809138962998986" lon="-2.754498990252614">
        <ele>1133.0999999999999</ele>
        <time>2018-05-27T11:05:33Z</time>
      </trkpt>
      <trkpt lat="41.809328980743885" lon="-2.754318024963141">
        <ele>1133.3</ele>
        <time>2018-05-27T11:05:39Z</time>
      </trkpt>
      <trkpt lat="41.809368040412664" lon="-2.754279971122742">
        <ele>1133.3</ele>
        <time>2018-05-27T11:05:41Z</time>
      </trkpt>
      <trkpt lat="41.809474993497133" lon="-2.754164971411228">
        <ele>1133.5</ele>
        <time>2018-05-27T11:05:45Z</time>
      </trkpt>
      <trkpt lat="41.809583036229014" lon="-2.754047960042954">
        <ele>1133.5999999999999</ele>
        <time>2018-05-27T11:05:49Z</time>
      </trkpt>
      <trkpt lat="41.809820998460054" lon="-2.75376096367836">
        <ele>1135.2</ele>
        <time>2018-05-27T11:05:59Z</time>
      </trkpt>
      <trkpt lat="41.810042029246688" lon="-2.753429962322116">
        <ele>1136.7</ele>
        <time>2018-05-27T11:06:08Z</time>
      </trkpt>
      <trkpt lat="41.810070024803281" lon="-2.753382017835975">
        <ele>1136.8</ele>
        <time>2018-05-27T11:06:10Z</time>
      </trkpt>
      <trkpt lat="41.810175972059369" lon="-2.753170039504767">
        <ele>1137.5</ele>
        <time>2018-05-27T11:06:15Z</time>
      </trkpt>
      <trkpt lat="41.810360038653016" lon="-2.752734012901783">
        <ele>1138.5</ele>
        <time>2018-05-27T11:06:26Z</time>
      </trkpt>
      <trkpt lat="41.810380993410945" lon="-2.75268598459661">
        <ele>1138.5999999999999</ele>
        <time>2018-05-27T11:06:28Z</time>
      </trkpt>
      <trkpt lat="41.810431033372879" lon="-2.752535026520491">
        <ele>1138.8</ele>
        <time>2018-05-27T11:06:31Z</time>
      </trkpt>
      <trkpt lat="41.810446036979556" lon="-2.752478029578924">
        <ele>1138.9000000000001</ele>
        <time>2018-05-27T11:06:33Z</time>
      </trkpt>
      <trkpt lat="41.810461040586233" lon="-2.752419020980597">
        <ele>1138.9000000000001</ele>
        <time>2018-05-27T11:06:34Z</time>
      </trkpt>
      <trkpt lat="41.810539998114109" lon="-2.75201803073287">
        <ele>1139.0999999999999</ele>
        <time>2018-05-27T11:06:43Z</time>
      </trkpt>
      <trkpt lat="41.810571011155844" lon="-2.751746959984303">
        <ele>1138.8</ele>
        <time>2018-05-27T11:06:49Z</time>
      </trkpt>
      <trkpt lat="41.810594983398914" lon="-2.751333983615041">
        <ele>1138.5</ele>
        <time>2018-05-27T11:06:58Z</time>
      </trkpt>
      <trkpt lat="41.810562964528799" lon="-2.750699976459146">
        <ele>1138.2</ele>
        <time>2018-05-27T11:07:12Z</time>
      </trkpt>
      <trkpt lat="41.810484007000923" lon="-2.750236038118601">
        <ele>1138.0999999999999</ele>
        <time>2018-05-27T11:07:23Z</time>
      </trkpt>
      <trkpt lat="41.810470009222627" lon="-2.750169988721609">
        <ele>1138.0999999999999</ele>
        <time>2018-05-27T11:07:24Z</time>
      </trkpt>
      <trkpt lat="41.810453999787569" lon="-2.750107040628791">
        <ele>1138</ele>
        <time>2018-05-27T11:07:26Z</time>
      </trkpt>
      <trkpt lat="41.810415023937821" lon="-2.749982988461852">
        <ele>1138</ele>
        <time>2018-05-27T11:07:29Z</time>
      </trkpt>
      <trkpt lat="41.810356015339494" lon="-2.749795988202095">
        <ele>1138</ele>
        <time>2018-05-27T11:07:33Z</time>
      </trkpt>
      <trkpt lat="41.810244033113122" lon="-2.749464986845851">
        <ele>1138.4000000000001</ele>
        <time>2018-05-27T11:07:41Z</time>
      </trkpt>
      <trkpt lat="41.81019801646471" lon="-2.749338001012802">
        <ele>1138.7</ele>
        <time>2018-05-27T11:07:44Z</time>
      </trkpt>
      <trkpt lat="41.810029959306121" lon="-2.748893005773425">
        <ele>1139.5</ele>
        <time>2018-05-27T11:07:55Z</time>
      </trkpt>
      <trkpt lat="41.81000598706305" lon="-2.748829973861575">
        <ele>1139.5999999999999</ele>
        <time>2018-05-27T11:07:57Z</time>
      </trkpt>
      <trkpt lat="41.809756038710475" lon="-2.748183980584145">
        <ele>1139.7</ele>
        <time>2018-05-27T11:08:13Z</time>
      </trkpt>
      <trkpt lat="41.809594016522169" lon="-2.747726999223232">
        <ele>1139</ele>
        <time>2018-05-27T11:08:24Z</time>
      </trkpt>
      <trkpt lat="41.809572977945209" lon="-2.747656004503369">
        <ele>1138.8</ele>
        <time>2018-05-27T11:08:26Z</time>
      </trkpt>
      <trkpt lat="41.809494020417333" lon="-2.747371019795537">
        <ele>1138.0999999999999</ele>
        <time>2018-05-27T11:08:33Z</time>
      </trkpt>
      <trkpt lat="41.809457978233695" lon="-2.747225007042289">
        <ele>1137.8</ele>
        <time>2018-05-27T11:08:36Z</time>
      </trkpt>
      <trkpt lat="41.809397963806987" lon="-2.746933987364173">
        <ele>1137.8</ele>
        <time>2018-05-27T11:08:43Z</time>
      </trkpt>
      <trkpt lat="41.809372985735536" lon="-2.746771965175867">
        <ele>1138</ele>
        <time>2018-05-27T11:08:46Z</time>
      </trkpt>
      <trkpt lat="41.809326969087124" lon="-2.746450016275048">
        <ele>1138.5</ele>
        <time>2018-05-27T11:08:54Z</time>
      </trkpt>
      <trkpt lat="41.809302996844053" lon="-2.746223034337163">
        <ele>1138.7</ele>
        <time>2018-05-27T11:08:59Z</time>
      </trkpt>
      <trkpt lat="41.809283969923854" lon="-2.745922962203622">
        <ele>1138.7</ele>
        <time>2018-05-27T11:09:05Z</time>
      </trkpt>
      <trkpt lat="41.809262009337544" lon="-2.745632026344538">
        <ele>1138.8</ele>
        <time>2018-05-27T11:09:12Z</time>
      </trkpt>
      <trkpt lat="41.809259997680783" lon="-2.74555298499763">
        <ele>1138.8</ele>
        <time>2018-05-27T11:09:14Z</time>
      </trkpt>
      <trkpt lat="41.809262009337544" lon="-2.745385011658073">
        <ele>1138.7</ele>
        <time>2018-05-27T11:09:17Z</time>
      </trkpt>
      <trkpt lat="41.809258991852403" lon="-2.745310999453068">
        <ele>1138.5999999999999</ele>
        <time>2018-05-27T11:09:19Z</time>
      </trkpt>
      <trkpt lat="41.809249017387629" lon="-2.744981003925204">
        <ele>1138.4000000000001</ele>
        <time>2018-05-27T11:09:26Z</time>
      </trkpt>
      <trkpt lat="41.809241976588964" lon="-2.74439100176096">
        <ele>1137.7</ele>
        <time>2018-05-27T11:09:39Z</time>
      </trkpt>
      <trkpt lat="41.809237031266093" lon="-2.743784990161657">
        <ele>1136.7</ele>
        <time>2018-05-27T11:09:53Z</time>
      </trkpt>
      <trkpt lat="41.809229990467429" lon="-2.743526995182037">
        <ele>1136.5</ele>
        <time>2018-05-27T11:09:58Z</time>
      </trkpt>
      <trkpt lat="41.809219010174274" lon="-2.743000024929643">
        <ele>1136.0999999999999</ele>
        <time>2018-05-27T11:10:10Z</time>
      </trkpt>
      <trkpt lat="41.809214986860752" lon="-2.742490991950035">
        <ele>1136.4000000000001</ele>
        <time>2018-05-27T11:10:21Z</time>
      </trkpt>
      <trkpt lat="41.809215992689133" lon="-2.742407005280256">
        <ele>1136.4000000000001</ele>
        <time>2018-05-27T11:10:23Z</time>
      </trkpt>
      <trkpt lat="41.80921196937561" lon="-2.741654980927706">
        <ele>1136.4000000000001</ele>
        <time>2018-05-27T11:10:40Z</time>
      </trkpt>
      <trkpt lat="41.809198977425694" lon="-2.740984009578824">
        <ele>1135.5</ele>
        <time>2018-05-27T11:10:54Z</time>
      </trkpt>
      <trkpt lat="41.809179028496146" lon="-2.740296022966504">
        <ele>1133.7</ele>
        <time>2018-05-27T11:11:10Z</time>
      </trkpt>
      <trkpt lat="41.809176011011004" lon="-2.740206001326442">
        <ele>1133.4000000000001</ele>
        <time>2018-05-27T11:11:12Z</time>
      </trkpt>
      <trkpt lat="41.80916503071785" lon="-2.739798976108432">
        <ele>1132.5</ele>
        <time>2018-05-27T11:11:21Z</time>
      </trkpt>
      <trkpt lat="41.809166958555579" lon="-2.739718006923795">
        <ele>1132.3</ele>
        <time>2018-05-27T11:11:22Z</time>
      </trkpt>
      <trkpt lat="41.809157989919186" lon="-2.739030020311475">
        <ele>1129.4000000000001</ele>
        <time>2018-05-27T11:11:38Z</time>
      </trkpt>
      <trkpt lat="41.809163019061089" lon="-2.738515036180615">
        <ele>1127.7</ele>
        <time>2018-05-27T11:11:49Z</time>
      </trkpt>
      <trkpt lat="41.80916603654623" lon="-2.738343961536884">
        <ele>1127.5</ele>
        <time>2018-05-27T11:11:53Z</time>
      </trkpt>
      <trkpt lat="41.80916897021234" lon="-2.738258969038725">
        <ele>1127.4000000000001</ele>
        <time>2018-05-27T11:11:55Z</time>
      </trkpt>
      <trkpt lat="41.809195959940553" lon="-2.737917993217707">
        <ele>1126.9000000000001</ele>
        <time>2018-05-27T11:12:02Z</time>
      </trkpt>
      <trkpt lat="41.809223033487797" lon="-2.73766603320837">
        <ele>1127.0999999999999</ele>
        <time>2018-05-27T11:12:08Z</time>
      </trkpt>
      <trkpt lat="41.809328980743885" lon="-2.73702397942543">
        <ele>1127.5</ele>
        <time>2018-05-27T11:12:22Z</time>
      </trkpt>
      <trkpt lat="41.809406010434031" lon="-2.736625000834465">
        <ele>1129.0999999999999</ele>
        <time>2018-05-27T11:12:32Z</time>
      </trkpt>
      <trkpt lat="41.809464013203979" lon="-2.736395001411438">
        <ele>1130</ele>
        <time>2018-05-27T11:12:37Z</time>
      </trkpt>
      <trkpt lat="41.809540037065744" lon="-2.736091995611787">
        <ele>1131.0999999999999</ele>
        <time>2018-05-27T11:12:44Z</time>
      </trkpt>
      <trkpt lat="41.80959602817893" lon="-2.735865013673902">
        <ele>1131.7</ele>
        <time>2018-05-27T11:12:49Z</time>
      </trkpt>
      <trkpt lat="41.809727037325501" lon="-2.735337037593126">
        <ele>1132.2</ele>
        <time>2018-05-27T11:13:02Z</time>
      </trkpt>
      <trkpt lat="41.80983399040997" lon="-2.734887013211846">
        <ele>1130.9000000000001</ele>
        <time>2018-05-27T11:13:12Z</time>
      </trkpt>
      <trkpt lat="41.809990983456373" lon="-2.734285024926066">
        <ele>1129.9000000000001</ele>
        <time>2018-05-27T11:13:26Z</time>
      </trkpt>
      <trkpt lat="41.810012022033334" lon="-2.734211012721062">
        <ele>1129.9000000000001</ele>
        <time>2018-05-27T11:13:28Z</time>
      </trkpt>
      <trkpt lat="41.810029037296772" lon="-2.734140018001199">
        <ele>1129.8</ele>
        <time>2018-05-27T11:13:29Z</time>
      </trkpt>
      <trkpt lat="41.810081005096436" lon="-2.733925022184849">
        <ele>1129.8</ele>
        <time>2018-05-27T11:13:34Z</time>
      </trkpt>
      <trkpt lat="41.81017697788775" lon="-2.733567031100392">
        <ele>1129.8</ele>
        <time>2018-05-27T11:13:43Z</time>
      </trkpt>
      <trkpt lat="41.810253001749516" lon="-2.733285985887051">
        <ele>1130</ele>
        <time>2018-05-27T11:13:49Z</time>
      </trkpt>
      <trkpt lat="41.810268005356193" lon="-2.733214991167188">
        <ele>1130.0999999999999</ele>
        <time>2018-05-27T11:13:51Z</time>
      </trkpt>
      <trkpt lat="41.810294995084405" lon="-2.733073001727462">
        <ele>1130.2</ele>
        <time>2018-05-27T11:13:54Z</time>
      </trkpt>
      <trkpt lat="41.810354003682733" lon="-2.732847025617957">
        <ele>1130.2</ele>
        <time>2018-05-27T11:14:00Z</time>
      </trkpt>
      <trkpt lat="41.8103919737041" lon="-2.732696989551187">
        <ele>1129.8</ele>
        <time>2018-05-27T11:14:03Z</time>
      </trkpt>
      <trkpt lat="41.810426004230976" lon="-2.732550976797938">
        <ele>1129.5</ele>
        <time>2018-05-27T11:14:06Z</time>
      </trkpt>
      <trkpt lat="41.810489958152175" lon="-2.732258029282093">
        <ele>1128.9000000000001</ele>
        <time>2018-05-27T11:14:13Z</time>
      </trkpt>
      <trkpt lat="41.810507979243994" lon="-2.732183011248708">
        <ele>1128.8</ele>
        <time>2018-05-27T11:14:15Z</time>
      </trkpt>
      <trkpt lat="41.81069104000926" lon="-2.731487983837724">
        <ele>1127.3</ele>
        <time>2018-05-27T11:14:31Z</time>
      </trkpt>
      <trkpt lat="41.810851972550154" lon="-2.730871997773647">
        <ele>1126.2</ele>
        <time>2018-05-27T11:14:46Z</time>
      </trkpt>
      <trkpt lat="41.811036039143801" lon="-2.730185016989708">
        <ele>1125.3</ele>
        <time>2018-05-27T11:15:02Z</time>
      </trkpt>
      <trkpt lat="41.811073003336787" lon="-2.73004001006484">
        <ele>1125.3</ele>
        <time>2018-05-27T11:15:05Z</time>
      </trkpt>
      <trkpt lat="41.811108961701393" lon="-2.729896008968353">
        <ele>1125.3</ele>
        <time>2018-05-27T11:15:08Z</time>
      </trkpt>
      <trkpt lat="41.811171993613243" lon="-2.729671960696578">
        <ele>1125.3</ele>
        <time>2018-05-27T11:15:14Z</time>
      </trkpt>
      <trkpt lat="41.811188003048301" lon="-2.729599038138986">
        <ele>1125.3</ele>
        <time>2018-05-27T11:15:15Z</time>
      </trkpt>
      <trkpt lat="41.811284981667995" lon="-2.729077013209462">
        <ele>1125.5</ele>
        <time>2018-05-27T11:15:27Z</time>
      </trkpt>
      <trkpt lat="41.811297973617911" lon="-2.729001995176077">
        <ele>1125.5999999999999</ele>
        <time>2018-05-27T11:15:29Z</time>
      </trkpt>
      <trkpt lat="41.811381038278341" lon="-2.728463038802147">
        <ele>1125.8</ele>
        <time>2018-05-27T11:15:41Z</time>
      </trkpt>
      <trkpt lat="41.811389001086354" lon="-2.72838500328362">
        <ele>1125.8</ele>
        <time>2018-05-27T11:15:43Z</time>
      </trkpt>
      <trkpt lat="41.81142202578485" lon="-2.727905977517366">
        <ele>1125.8</ele>
        <time>2018-05-27T11:15:54Z</time>
      </trkpt>
      <trkpt lat="41.81142495945096" lon="-2.727400967851281">
        <ele>1125.7</ele>
        <time>2018-05-27T11:16:05Z</time>
      </trkpt>
      <trkpt lat="41.811413979157805" lon="-2.726898975670338">
        <ele>1125.2</ele>
        <time>2018-05-27T11:16:16Z</time>
      </trkpt>
      <trkpt lat="41.81140199303627" lon="-2.72673100233078">
        <ele>1124.8</ele>
        <time>2018-05-27T11:16:20Z</time>
      </trkpt>
      <trkpt lat="41.811381038278341" lon="-2.726390026509762">
        <ele>1124</ele>
        <time>2018-05-27T11:16:27Z</time>
      </trkpt>
      <trkpt lat="41.811361005529761" lon="-2.726055001839995">
        <ele>1123.3</ele>
        <time>2018-05-27T11:16:34Z</time>
      </trkpt>
      <trkpt lat="41.811319012194872" lon="-2.725476985797286">
        <ele>1122.0999999999999</ele>
        <time>2018-05-27T11:16:47Z</time>
      </trkpt>
      <trkpt lat="41.811309037730098" lon="-2.725310018286109">
        <ele>1121.5999999999999</ele>
        <time>2018-05-27T11:16:51Z</time>
      </trkpt>
      <trkpt lat="41.811303002759814" lon="-2.72522795945406">
        <ele>1121.3</ele>
        <time>2018-05-27T11:16:53Z</time>
      </trkpt>
      <trkpt lat="41.81125296279788" lon="-2.724644998088479">
        <ele>1119.2</ele>
        <time>2018-05-27T11:17:06Z</time>
      </trkpt>
      <trkpt lat="41.811236031353474" lon="-2.724479958415031">
        <ele>1118.9000000000001</ele>
        <time>2018-05-27T11:17:09Z</time>
      </trkpt>
      <trkpt lat="41.811192026361823" lon="-2.723904037848115">
        <ele>1118.4000000000001</ele>
        <time>2018-05-27T11:17:22Z</time>
      </trkpt>
      <trkpt lat="41.811176016926765" lon="-2.723655011504889">
        <ele>1118.2</ele>
        <time>2018-05-27T11:17:28Z</time>
      </trkpt>
      <trkpt lat="41.811118014156818" lon="-2.722898041829467">
        <ele>1117.8</ele>
        <time>2018-05-27T11:17:45Z</time>
      </trkpt>
      <trkpt lat="41.811069985851645" lon="-2.722299993038178">
        <ele>1118.0999999999999</ele>
        <time>2018-05-27T11:17:58Z</time>
      </trkpt>
      <trkpt lat="41.811052970588207" lon="-2.722126990556717">
        <ele>1118.2</ele>
        <time>2018-05-27T11:18:02Z</time>
      </trkpt>
      <trkpt lat="41.811001002788544" lon="-2.721531959250569">
        <ele>1119.8</ele>
        <time>2018-05-27T11:18:15Z</time>
      </trkpt>
      <trkpt lat="41.810956997796893" lon="-2.721039019525051">
        <ele>1120.8</ele>
        <time>2018-05-27T11:18:26Z</time>
      </trkpt>
      <trkpt lat="41.81090896949172" lon="-2.720400989055634">
        <ele>1121.3</ele>
        <time>2018-05-27T11:18:40Z</time>
      </trkpt>
      <trkpt lat="41.810855995863676" lon="-2.719673020765185">
        <ele>1120.9000000000001</ele>
        <time>2018-05-27T11:18:56Z</time>
      </trkpt>
      <trkpt lat="41.810835963115096" lon="-2.719344031065702">
        <ele>1120.4000000000001</ele>
        <time>2018-05-27T11:19:04Z</time>
      </trkpt>
      <trkpt lat="41.81081903167069" lon="-2.71910103969276">
        <ele>1120</ele>
        <time>2018-05-27T11:19:09Z</time>
      </trkpt>
      <trkpt lat="41.81080000475049" lon="-2.718850001692772">
        <ele>1119.5</ele>
        <time>2018-05-27T11:19:14Z</time>
      </trkpt>
      <trkpt lat="41.810742001980543" lon="-2.71817903034389">
        <ele>1117.3</ele>
        <time>2018-05-27T11:19:29Z</time>
      </trkpt>
      <trkpt lat="41.810696991160512" lon="-2.717683995142579">
        <ele>1115.8</ele>
        <time>2018-05-27T11:19:40Z</time>
      </trkpt>
      <trkpt lat="41.8106509745121" lon="-2.717011012136936">
        <ele>1114.4000000000001</ele>
        <time>2018-05-27T11:19:55Z</time>
      </trkpt>
      <trkpt lat="41.810592971742153" lon="-2.716279020532966">
        <ele>1113.8</ele>
        <time>2018-05-27T11:20:12Z</time>
      </trkpt>
      <trkpt lat="41.810588026419282" lon="-2.716200985014439">
        <ele>1113.8</ele>
        <time>2018-05-27T11:20:13Z</time>
      </trkpt>
      <trkpt lat="41.810572016984224" lon="-2.71592597477138">
        <ele>1114.0999999999999</ele>
        <time>2018-05-27T11:20:19Z</time>
      </trkpt>
      <trkpt lat="41.810568999499083" lon="-2.715889010578394">
        <ele>1114.0999999999999</ele>
        <time>2018-05-27T11:20:20Z</time>
      </trkpt>
      <trkpt lat="41.810562964528799" lon="-2.715847017243505">
        <ele>1114.0999999999999</ele>
        <time>2018-05-27T11:20:21Z</time>
      </trkpt>
      <trkpt lat="41.810558019205928" lon="-2.715836958959699">
        <ele>1114.2</ele>
        <time>2018-05-27T11:20:21Z</time>
      </trkpt>
      <trkpt lat="41.810552990064025" lon="-2.715827990323305">
        <ele>1114.2</ele>
        <time>2018-05-27T11:20:22Z</time>
      </trkpt>
      <trkpt lat="41.810550978407264" lon="-2.715801000595093">
        <ele>1114.2</ele>
        <time>2018-05-27T11:20:22Z</time>
      </trkpt>
      <trkpt lat="41.810533041134477" lon="-2.715605031698942">
        <ele>1114.4000000000001</ele>
        <time>2018-05-27T11:20:27Z</time>
      </trkpt>
      <trkpt lat="41.8105180375278" lon="-2.715396992862225">
        <ele>1114.5999999999999</ele>
        <time>2018-05-27T11:20:31Z</time>
      </trkpt>
      <trkpt lat="41.810508985072374" lon="-2.715278975665569">
        <ele>1114.5999999999999</ele>
        <time>2018-05-27T11:20:34Z</time>
      </trkpt>
      <trkpt lat="41.810504039749503" lon="-2.715218039229512">
        <ele>1114.7</ele>
        <time>2018-05-27T11:20:35Z</time>
      </trkpt>
      <trkpt lat="41.810494987294078" lon="-2.715095998719335">
        <ele>1114.7</ele>
        <time>2018-05-27T11:20:38Z</time>
      </trkpt>
      <trkpt lat="41.810494987294078" lon="-2.715095998719335">
        <ele>1114.7</ele>
        <time>2018-05-28T06:00:00Z</time>
      </trkpt>
      <trkpt lat="41.810446958988905" lon="-2.714597024023533">
        <ele>1114.9000000000001</ele>
        <time>2018-05-28T06:00:11Z</time>
      </trkpt>
      <trkpt lat="41.810446958988905" lon="-2.714597024023533">
        <ele>1114.9000000000001</ele>
        <time>2018-05-28T06:00:11Z</time>
      </trkpt>
      <trkpt lat="41.810401026159525" lon="-2.713992018252611">
        <ele>1113.5999999999999</ele>
        <time>2018-05-28T06:00:24Z</time>
      </trkpt>
      <trkpt lat="41.810393985360861" lon="-2.71392404101789">
        <ele>1113.5</ele>
        <time>2018-05-28T06:00:26Z</time>
      </trkpt>
      <trkpt lat="41.810372024774551" lon="-2.713585998862982">
        <ele>1113</ele>
        <time>2018-05-28T06:00:33Z</time>
      </trkpt>
      <trkpt lat="41.810342017561197" lon="-2.713322974741459">
        <ele>1113</ele>
        <time>2018-05-28T06:00:39Z</time>
      </trkpt>
      <trkpt lat="41.81030698120594" lon="-2.712841015309095">
        <ele>1113.0999999999999</ele>
        <time>2018-05-28T06:00:50Z</time>
      </trkpt>
      <trkpt lat="41.810302035883069" lon="-2.712771026417613">
        <ele>1113.4000000000001</ele>
        <time>2018-05-28T06:00:51Z</time>
      </trkpt>
      <trkpt lat="41.810296000912786" lon="-2.71270296536386">
        <ele>1113.5999999999999</ele>
        <time>2018-05-28T06:00:53Z</time>
      </trkpt>
      <trkpt lat="41.810269011184573" lon="-2.712351009249687">
        <ele>1115</ele>
        <time>2018-05-28T06:01:01Z</time>
      </trkpt>
      <trkpt lat="41.810248978435993" lon="-2.712136013433337">
        <ele>1115.8</ele>
        <time>2018-05-28T06:01:05Z</time>
      </trkpt>
      <trkpt lat="41.81021997705102" lon="-2.711775004863739">
        <ele>1116.4000000000001</ele>
        <time>2018-05-28T06:01:13Z</time>
      </trkpt>
      <trkpt lat="41.810192987322807" lon="-2.711416007950902">
        <ele>1116.7</ele>
        <time>2018-05-28T06:01:21Z</time>
      </trkpt>
      <trkpt lat="41.810148982331157" lon="-2.71085299551487">
        <ele>1116.5999999999999</ele>
        <time>2018-05-28T06:01:34Z</time>
      </trkpt>
      <trkpt lat="41.810117969289422" lon="-2.710483018308878">
        <ele>1116.3</ele>
        <time>2018-05-28T06:01:42Z</time>
      </trkpt>
      <trkpt lat="41.810101037845016" lon="-2.710210019722581">
        <ele>1116.4000000000001</ele>
        <time>2018-05-28T06:01:48Z</time>
      </trkpt>
      <trkpt lat="41.810075975954533" lon="-2.709926962852478">
        <ele>1116.7</ele>
        <time>2018-05-28T06:01:54Z</time>
      </trkpt>
      <trkpt lat="41.810018979012966" lon="-2.709207041189075">
        <ele>1117.3</ele>
        <time>2018-05-28T06:02:10Z</time>
      </trkpt>
      <trkpt lat="41.809974974021316" lon="-2.708636987954378">
        <ele>1117.9000000000001</ele>
        <time>2018-05-28T06:02:23Z</time>
      </trkpt>
      <trkpt lat="41.809934992343187" lon="-2.708128038793802">
        <ele>1118.8</ele>
        <time>2018-05-28T06:02:34Z</time>
      </trkpt>
      <trkpt lat="41.809914959594607" lon="-2.707912959158421">
        <ele>1119.2</ele>
        <time>2018-05-28T06:02:39Z</time>
      </trkpt>
      <trkpt lat="41.809866009280086" lon="-2.707400992512703">
        <ele>1118.8</ele>
        <time>2018-05-28T06:02:50Z</time>
      </trkpt>
      <trkpt lat="41.809848994016647" lon="-2.707189014181495">
        <ele>1118.5999999999999</ele>
        <time>2018-05-28T06:02:55Z</time>
      </trkpt>
      <trkpt lat="41.809808006510139" lon="-2.706671012565494">
        <ele>1117.8</ele>
        <time>2018-05-28T06:03:07Z</time>
      </trkpt>
      <trkpt lat="41.809801971539855" lon="-2.706594988703728">
        <ele>1117.7</ele>
        <time>2018-05-28T06:03:08Z</time>
      </trkpt>
      <trkpt lat="41.809762995690107" lon="-2.706119986250997">
        <ele>1117</ele>
        <time>2018-05-28T06:03:19Z</time>
      </trkpt>
      <trkpt lat="41.809765007346869" lon="-2.706060977652669">
        <ele>1116.9000000000001</ele>
        <time>2018-05-28T06:03:20Z</time>
      </trkpt>
      <trkpt lat="41.80976701900363" lon="-2.706059971824288">
        <ele>1116.9000000000001</ele>
        <time>2018-05-28T06:03:20Z</time>
      </trkpt>
      <trkpt lat="41.809756960719824" lon="-2.705973973497748">
        <ele>1116.8</ele>
        <time>2018-05-28T06:03:22Z</time>
      </trkpt>
      <trkpt lat="41.809756038710475" lon="-2.705946983769536">
        <ele>1116.8</ele>
        <time>2018-05-28T06:03:23Z</time>
      </trkpt>
      <trkpt lat="41.809753021225333" lon="-2.705914964899421">
        <ele>1116.8</ele>
        <time>2018-05-28T06:03:24Z</time>
      </trkpt>
      <trkpt lat="41.809741035103798" lon="-2.705750009045005">
        <ele>1116.5999999999999</ele>
        <time>2018-05-28T06:03:27Z</time>
      </trkpt>
      <trkpt lat="41.809728965163231" lon="-2.705607013776898">
        <ele>1116.5</ele>
        <time>2018-05-28T06:03:30Z</time>
      </trkpt>
      <trkpt lat="41.809707004576921" lon="-2.70537399686873">
        <ele>1116.4000000000001</ele>
        <time>2018-05-28T06:03:36Z</time>
      </trkpt>
      <trkpt lat="41.809696024283767" lon="-2.705241981893778">
        <ele>1116.2</ele>
        <time>2018-05-28T06:03:39Z</time>
      </trkpt>
      <trkpt lat="41.809690995141864" lon="-2.705175010487437">
        <ele>1116.2</ele>
        <time>2018-05-28T06:03:40Z</time>
      </trkpt>
      <trkpt lat="41.809683032333851" lon="-2.705040983855724">
        <ele>1116.0999999999999</ele>
        <time>2018-05-28T06:03:43Z</time>
      </trkpt>
      <trkpt lat="41.809662999585271" lon="-2.704833028838038">
        <ele>1115.9000000000001</ele>
        <time>2018-05-28T06:03:48Z</time>
      </trkpt>
      <trkpt lat="41.809651013463736" lon="-2.704690033569932">
        <ele>1115.8</ele>
        <time>2018-05-28T06:03:51Z</time>
      </trkpt>
      <trkpt lat="41.809604996815324" lon="-2.70419399254024">
        <ele>1115.4000000000001</ele>
        <time>2018-05-28T06:04:02Z</time>
      </trkpt>
      <trkpt lat="41.809593010693789" lon="-2.704057032242417">
        <ele>1115.3</ele>
        <time>2018-05-28T06:04:05Z</time>
      </trkpt>
      <trkpt lat="41.809555040672421" lon="-2.703578006476164">
        <ele>1115.0999999999999</ele>
        <time>2018-05-28T06:04:15Z</time>
      </trkpt>
      <trkpt lat="41.809545988216996" lon="-2.703440962359309">
        <ele>1115.0999999999999</ele>
        <time>2018-05-28T06:04:19Z</time>
      </trkpt>
      <trkpt lat="41.809542970731854" lon="-2.703372985124588">
        <ele>1115.0999999999999</ele>
        <time>2018-05-28T06:04:20Z</time>
      </trkpt>
      <trkpt lat="41.809526039287448" lon="-2.703101998195052">
        <ele>1115.2</ele>
        <time>2018-05-28T06:04:26Z</time>
      </trkpt>
      <trkpt lat="41.809508018195629" lon="-2.702766973525286">
        <ele>1115.5</ele>
        <time>2018-05-28T06:04:33Z</time>
      </trkpt>
      <trkpt lat="41.809503994882107" lon="-2.702565975487232">
        <ele>1115.7</ele>
        <time>2018-05-28T06:04:38Z</time>
      </trkpt>
      <trkpt lat="41.809499971568584" lon="-2.702165991067886">
        <ele>1116.3</ele>
        <time>2018-05-28T06:04:47Z</time>
      </trkpt>
      <trkpt lat="41.80950902402401" lon="-2.701823003590107">
        <ele>1116.5999999999999</ele>
        <time>2018-05-28T06:04:54Z</time>
      </trkpt>
      <trkpt lat="41.809564009308815" lon="-2.701073996722698">
        <ele>1117.9000000000001</ele>
        <time>2018-05-28T06:05:11Z</time>
      </trkpt>
      <trkpt lat="41.809630980715156" lon="-2.700472008436918">
        <ele>1120.5</ele>
        <time>2018-05-28T06:05:24Z</time>
      </trkpt>
      <trkpt lat="41.80963802151382" lon="-2.700405959039927">
        <ele>1120.8</ele>
        <time>2018-05-28T06:05:26Z</time>
      </trkpt>
      <trkpt lat="41.809644978493452" lon="-2.700340999290347">
        <ele>1120.9000000000001</ele>
        <time>2018-05-28T06:05:27Z</time>
      </trkpt>
      <trkpt lat="41.809672974050045" lon="-2.700072024017572">
        <ele>1121.4000000000001</ele>
        <time>2018-05-28T06:05:33Z</time>
      </trkpt>
      <trkpt lat="41.80970499292016" lon="-2.699816040694714">
        <ele>1121.9000000000001</ele>
        <time>2018-05-28T06:05:39Z</time>
      </trkpt>
      <trkpt lat="41.809759978204966" lon="-2.699368027970195">
        <ele>1122.2</ele>
        <time>2018-05-28T06:05:49Z</time>
      </trkpt>
      <trkpt lat="41.809766013175249" lon="-2.699306001886725">
        <ele>1122.0999999999999</ele>
        <time>2018-05-28T06:05:50Z</time>
      </trkpt>
      <trkpt lat="41.80978998541832" lon="-2.698986986652017">
        <ele>1122</ele>
        <time>2018-05-28T06:05:58Z</time>
      </trkpt>
      <trkpt lat="41.809861985966563" lon="-2.698353985324502">
        <ele>1122.3</ele>
        <time>2018-05-28T06:06:12Z</time>
      </trkpt>
      <trkpt lat="41.809917977079749" lon="-2.697727018967271">
        <ele>1122.9000000000001</ele>
        <time>2018-05-28T06:06:26Z</time>
      </trkpt>
      <trkpt lat="41.809941027313471" lon="-2.697198959067464">
        <ele>1123.0999999999999</ele>
        <time>2018-05-28T06:06:37Z</time>
      </trkpt>
      <trkpt lat="41.809944966807961" lon="-2.6969950273633">
        <ele>1123</ele>
        <time>2018-05-28T06:06:42Z</time>
      </trkpt>
      <trkpt lat="41.809945972636342" lon="-2.696665031835437">
        <ele>1122.4000000000001</ele>
        <time>2018-05-28T06:06:49Z</time>
      </trkpt>
      <trkpt lat="41.809925017878413" lon="-2.696145018562675">
        <ele>1121.5999999999999</ele>
        <time>2018-05-28T06:07:01Z</time>
      </trkpt>
      <trkpt lat="41.809880007058382" lon="-2.695618970319629">
        <ele>1120.7</ele>
        <time>2018-05-28T06:07:12Z</time>
      </trkpt>
      <trkpt lat="41.809872966259718" lon="-2.695553004741669">
        <ele>1120.5999999999999</ele>
        <time>2018-05-28T06:07:14Z</time>
      </trkpt>
      <trkpt lat="41.809819992631674" lon="-2.695156037807465">
        <ele>1120.5</ele>
        <time>2018-05-28T06:07:23Z</time>
      </trkpt>
      <trkpt lat="41.809707004576921" lon="-2.694443995133042">
        <ele>1121</ele>
        <time>2018-05-28T06:07:39Z</time>
      </trkpt>
      <trkpt lat="41.809573983773589" lon="-2.693886011838913">
        <ele>1121.9000000000001</ele>
        <time>2018-05-28T06:07:52Z</time>
      </trkpt>
      <trkpt lat="41.809377009049058" lon="-2.693184027448297">
        <ele>1123.3</ele>
        <time>2018-05-28T06:08:08Z</time>
      </trkpt>
      <trkpt lat="41.809170981869102" lon="-2.692606011405587">
        <ele>1123.8</ele>
        <time>2018-05-28T06:08:22Z</time>
      </trkpt>
      <trkpt lat="41.808984987437725" lon="-2.692132014781237">
        <ele>1123.8</ele>
        <time>2018-05-28T06:08:34Z</time>
      </trkpt>
      <trkpt lat="41.80893000215292" lon="-2.692002011463046">
        <ele>1123.7</ele>
        <time>2018-05-28T06:08:38Z</time>
      </trkpt>
      <trkpt lat="41.808663960546255" lon="-2.691370015963912">
        <ele>1123.0999999999999</ele>
        <time>2018-05-28T06:08:54Z</time>
      </trkpt>
      <trkpt lat="41.808574022725224" lon="-2.691153008490801">
        <ele>1122.4000000000001</ele>
        <time>2018-05-28T06:08:59Z</time>
      </trkpt>
      <trkpt lat="41.808344023302197" lon="-2.690595025196672">
        <ele>1120.5</ele>
        <time>2018-05-28T06:09:13Z</time>
      </trkpt>
      <trkpt lat="41.808159034699202" lon="-2.69009998999536">
        <ele>1120.2</ele>
        <time>2018-05-28T06:09:25Z</time>
      </trkpt>
      <trkpt lat="41.808111006394029" lon="-2.689965963363648">
        <ele>1120.3</ele>
        <time>2018-05-28T06:09:29Z</time>
      </trkpt>
      <trkpt lat="41.808012016117573" lon="-2.689659018069506">
        <ele>1120.5999999999999</ele>
        <time>2018-05-28T06:09:36Z</time>
      </trkpt>
      <trkpt lat="41.807987038046122" lon="-2.689585005864501">
        <ele>1120.7</ele>
        <time>2018-05-28T06:09:38Z</time>
      </trkpt>
      <trkpt lat="41.807982008904219" lon="-2.689565978944302">
        <ele>1120.5999999999999</ele>
        <time>2018-05-28T06:09:38Z</time>
      </trkpt>
      <trkpt lat="41.807983014732599" lon="-2.689566984772682">
        <ele>1120.5999999999999</ele>
        <time>2018-05-28T06:09:38Z</time>
      </trkpt>
      <trkpt lat="41.807975973933935" lon="-2.689521973952651">
        <ele>1120.5999999999999</ele>
        <time>2018-05-28T06:09:39Z</time>
      </trkpt>
      <trkpt lat="41.807934986427426" lon="-2.68938903696835">
        <ele>1120.5</ele>
        <time>2018-05-28T06:09:43Z</time>
      </trkpt>
      <trkpt lat="41.807907996699214" lon="-2.689286023378372">
        <ele>1120.3</ele>
        <time>2018-05-28T06:09:45Z</time>
      </trkpt>
      <trkpt lat="41.807844964787364" lon="-2.689050994813442">
        <ele>1120</ele>
        <time>2018-05-28T06:09:50Z</time>
      </trkpt>
      <trkpt lat="41.807795008644462" lon="-2.688853014260531">
        <ele>1119.7</ele>
        <time>2018-05-28T06:09:55Z</time>
      </trkpt>
      <trkpt lat="41.807757038623095" lon="-2.688713958486915">
        <ele>1119.5</ele>
        <time>2018-05-28T06:09:58Z</time>
      </trkpt>
      <trkpt lat="41.807708004489541" lon="-2.688497034832835">
        <ele>1119.2</ele>
        <time>2018-05-28T06:10:03Z</time>
      </trkpt>
      <trkpt lat="41.80759996175766" lon="-2.687982972711325">
        <ele>1118.5999999999999</ele>
        <time>2018-05-28T06:10:15Z</time>
      </trkpt>
      <trkpt lat="41.807558974251151" lon="-2.687749033793807">
        <ele>1118.5999999999999</ele>
        <time>2018-05-28T06:10:20Z</time>
      </trkpt>
      <trkpt lat="41.807509018108249" lon="-2.687440998852253">
        <ele>1118.7</ele>
        <time>2018-05-28T06:10:27Z</time>
      </trkpt>
      <trkpt lat="41.807455960661173" lon="-2.687057023867965">
        <ele>1118.8</ele>
        <time>2018-05-28T06:10:36Z</time>
      </trkpt>
      <trkpt lat="41.807392006739974" lon="-2.686439026147127">
        <ele>1120.4000000000001</ele>
        <time>2018-05-28T06:10:50Z</time>
      </trkpt>
      <trkpt lat="41.807354036718607" lon="-2.685709968209267">
        <ele>1120</ele>
        <time>2018-05-28T06:11:06Z</time>
      </trkpt>
      <trkpt lat="41.807337021455169" lon="-2.685057017952204">
        <ele>1118.4000000000001</ele>
        <time>2018-05-28T06:11:20Z</time>
      </trkpt>
      <trkpt lat="41.807348001748323" lon="-2.684487970545888">
        <ele>1116.9000000000001</ele>
        <time>2018-05-28T06:11:33Z</time>
      </trkpt>
      <trkpt lat="41.807369040325284" lon="-2.6840849686414">
        <ele>1116.2</ele>
        <time>2018-05-28T06:11:42Z</time>
      </trkpt>
      <trkpt lat="41.807428970932961" lon="-2.683375021442771">
        <ele>1115.4000000000001</ele>
        <time>2018-05-28T06:11:58Z</time>
      </trkpt>
      <trkpt lat="41.807503988966346" lon="-2.682645041495562">
        <ele>1115.3</ele>
        <time>2018-05-28T06:12:14Z</time>
      </trkpt>
      <trkpt lat="41.80751102976501" lon="-2.682560971006751">
        <ele>1115.4000000000001</ele>
        <time>2018-05-28T06:12:16Z</time>
      </trkpt>
      <trkpt lat="41.807567020878196" lon="-2.681901985779405">
        <ele>1115.8</ele>
        <time>2018-05-28T06:12:30Z</time>
      </trkpt>
      <trkpt lat="41.807602979242802" lon="-2.681164965033531">
        <ele>1115.9000000000001</ele>
        <time>2018-05-28T06:12:47Z</time>
      </trkpt>
      <trkpt lat="41.80760096758604" lon="-2.680999003350735">
        <ele>1115.9000000000001</ele>
        <time>2018-05-28T06:12:50Z</time>
      </trkpt>
      <trkpt lat="41.807574983686209" lon="-2.680571023374796">
        <ele>1116</ele>
        <time>2018-05-28T06:13:00Z</time>
      </trkpt>
      <trkpt lat="41.807494014501572" lon="-2.679972974583507">
        <ele>1114.9000000000001</ele>
        <time>2018-05-28T06:13:13Z</time>
      </trkpt>
      <trkpt lat="41.807481022551656" lon="-2.679886976256967">
        <ele>1114.7</ele>
        <time>2018-05-28T06:13:15Z</time>
      </trkpt>
      <trkpt lat="41.807359987869859" lon="-2.679213993251324">
        <ele>1113</ele>
        <time>2018-05-28T06:13:31Z</time>
      </trkpt>
      <trkpt lat="41.807214980944991" lon="-2.678447971120477">
        <ele>1112</ele>
        <time>2018-05-28T06:13:48Z</time>
      </trkpt>
      <trkpt lat="41.807200983166695" lon="-2.678364990279079">
        <ele>1112</ele>
        <time>2018-05-28T06:13:50Z</time>
      </trkpt>
      <trkpt lat="41.807168964296579" lon="-2.678202968090773">
        <ele>1111.9000000000001</ele>
        <time>2018-05-28T06:13:54Z</time>
      </trkpt>
      <trkpt lat="41.807062011212111" lon="-2.677632998675108">
        <ele>1111.8</ele>
        <time>2018-05-28T06:14:07Z</time>
      </trkpt>
      <trkpt lat="41.807048013433814" lon="-2.677553035318852">
        <ele>1111.8</ele>
        <time>2018-05-28T06:14:08Z</time>
      </trkpt>
      <trkpt lat="41.806934019550681" lon="-2.676823977380991">
        <ele>1111.5</ele>
        <time>2018-05-28T06:14:25Z</time>
      </trkpt>
      <trkpt lat="41.806923961266875" lon="-2.676745019853115">
        <ele>1111.5</ele>
        <time>2018-05-28T06:14:27Z</time>
      </trkpt>
      <trkpt lat="41.806869981810451" lon="-2.676250990480185">
        <ele>1111</ele>
        <time>2018-05-28T06:14:38Z</time>
      </trkpt>
      <trkpt lat="41.806849027052522" lon="-2.675999030470848">
        <ele>1110.7</ele>
        <time>2018-05-28T06:14:43Z</time>
      </trkpt>
      <trkpt lat="41.806828994303942" lon="-2.675580019131303">
        <ele>1110.2</ele>
        <time>2018-05-28T06:14:53Z</time>
      </trkpt>
      <trkpt lat="41.806818014010787" lon="-2.675238959491253">
        <ele>1109.8</ele>
        <time>2018-05-28T06:15:00Z</time>
      </trkpt>
      <trkpt lat="41.806809967383742" lon="-2.674640994518995">
        <ele>1109.4000000000001</ele>
        <time>2018-05-28T06:15:13Z</time>
      </trkpt>
      <trkpt lat="41.806808961555362" lon="-2.674556002020836">
        <ele>1109.3</ele>
        <time>2018-05-28T06:15:15Z</time>
      </trkpt>
      <trkpt lat="41.806800998747349" lon="-2.673806995153427">
        <ele>1109.7</ele>
        <time>2018-05-28T06:15:32Z</time>
      </trkpt>
      <trkpt lat="41.806794963777065" lon="-2.673556040972471">
        <ele>1109.8</ele>
        <time>2018-05-28T06:15:37Z</time>
      </trkpt>
      <trkpt lat="41.806785995140672" lon="-2.672806028276682">
        <ele>1109.7</ele>
        <time>2018-05-28T06:15:54Z</time>
      </trkpt>
      <trkpt lat="41.806779038161039" lon="-2.672060038894415">
        <ele>1107.2</ele>
        <time>2018-05-28T06:16:10Z</time>
      </trkpt>
      <trkpt lat="41.806770991533995" lon="-2.671227967366576">
        <ele>1106.2</ele>
        <time>2018-05-28T06:16:29Z</time>
      </trkpt>
      <trkpt lat="41.806769985705614" lon="-2.671142974868417">
        <ele>1106.3</ele>
        <time>2018-05-28T06:16:31Z</time>
      </trkpt>
      <trkpt lat="41.806753976270556" lon="-2.670380976051092">
        <ele>1106.5</ele>
        <time>2018-05-28T06:16:47Z</time>
      </trkpt>
      <trkpt lat="41.806746013462543" lon="-2.669627023860812">
        <ele>1109.0999999999999</ele>
        <time>2018-05-28T06:17:04Z</time>
      </trkpt>
      <trkpt lat="41.806737966835499" lon="-2.669030986726284">
        <ele>1109.5</ele>
        <time>2018-05-28T06:17:17Z</time>
      </trkpt>
      <trkpt lat="41.806730004027486" lon="-2.668432015925646">
        <ele>1109.0999999999999</ele>
        <time>2018-05-28T06:17:30Z</time>
      </trkpt>
      <trkpt lat="41.806724974885583" lon="-2.667933041229844">
        <ele>1108.3</ele>
        <time>2018-05-28T06:17:41Z</time>
      </trkpt>
      <trkpt lat="41.806722963228822" lon="-2.667773030698299">
        <ele>1108.0999999999999</ele>
        <time>2018-05-28T06:17:45Z</time>
      </trkpt>
      <trkpt lat="41.806719023734331" lon="-2.667614025995135">
        <ele>1107.9000000000001</ele>
        <time>2018-05-28T06:17:48Z</time>
      </trkpt>
      <trkpt lat="41.806706031784415" lon="-2.66710901632905">
        <ele>1107.2</ele>
        <time>2018-05-28T06:18:00Z</time>
      </trkpt>
      <trkpt lat="41.806699996814132" lon="-2.666604006662965">
        <ele>1105.8</ele>
        <time>2018-05-28T06:18:11Z</time>
      </trkpt>
      <trkpt lat="41.806697985157371" lon="-2.666350034996867">
        <ele>1105.0999999999999</ele>
        <time>2018-05-28T06:18:16Z</time>
      </trkpt>
      <trkpt lat="41.806694967672229" lon="-2.665936974808574">
        <ele>1104.2</ele>
        <time>2018-05-28T06:18:26Z</time>
      </trkpt>
      <trkpt lat="41.806691028177738" lon="-2.665359964594245">
        <ele>1103.4000000000001</ele>
        <time>2018-05-28T06:18:38Z</time>
      </trkpt>
      <trkpt lat="41.806688010692596" lon="-2.664591008797288">
        <ele>1103.4000000000001</ele>
        <time>2018-05-28T06:18:55Z</time>
      </trkpt>
      <trkpt lat="41.806702008470893" lon="-2.664259001612663">
        <ele>1103</ele>
        <time>2018-05-28T06:19:03Z</time>
      </trkpt>
      <trkpt lat="41.806723969057202" lon="-2.663840996101499">
        <ele>1102.4000000000001</ele>
        <time>2018-05-28T06:19:12Z</time>
      </trkpt>
      <trkpt lat="41.806776020675898" lon="-2.663101963698864">
        <ele>1101</ele>
        <time>2018-05-28T06:19:28Z</time>
      </trkpt>
      <trkpt lat="41.806780965998769" lon="-2.66294103115797">
        <ele>1100.8</ele>
        <time>2018-05-28T06:19:32Z</time>
      </trkpt>
      <trkpt lat="41.806795969605446" lon="-2.662700973451138">
        <ele>1100.2</ele>
        <time>2018-05-28T06:19:37Z</time>
      </trkpt>
      <trkpt lat="41.806821031495929" lon="-2.662296965718269">
        <ele>1099.0999999999999</ele>
        <time>2018-05-28T06:19:46Z</time>
      </trkpt>
      <trkpt lat="41.806852966547012" lon="-2.661807965487242">
        <ele>1098.7</ele>
        <time>2018-05-28T06:19:57Z</time>
      </trkpt>
      <trkpt lat="41.806884985417128" lon="-2.661311002448201">
        <ele>1098.9000000000001</ele>
        <time>2018-05-28T06:20:08Z</time>
      </trkpt>
      <trkpt lat="41.806935025379062" lon="-2.660560989752412">
        <ele>1099.2</ele>
        <time>2018-05-28T06:20:25Z</time>
      </trkpt>
      <trkpt lat="41.806946005672216" lon="-2.660393016412854">
        <ele>1099.3</ele>
        <time>2018-05-28T06:20:28Z</time>
      </trkpt>
      <trkpt lat="41.806994033977389" lon="-2.659647027030587">
        <ele>1097.8</ele>
        <time>2018-05-28T06:20:45Z</time>
      </trkpt>
      <trkpt lat="41.807009037584066" lon="-2.659400012344122">
        <ele>1097.4000000000001</ele>
        <time>2018-05-28T06:20:50Z</time>
      </trkpt>
      <trkpt lat="41.807024963200092" lon="-2.659157020971179">
        <ele>1096.9000000000001</ele>
        <time>2018-05-28T06:20:56Z</time>
      </trkpt>
      <trkpt lat="41.807055976241827" lon="-2.658684030175209">
        <ele>1096.0999999999999</ele>
        <time>2018-05-28T06:21:06Z</time>
      </trkpt>
      <trkpt lat="41.807093024253845" lon="-2.658053962513804">
        <ele>1095.2</ele>
        <time>2018-05-28T06:21:20Z</time>
      </trkpt>
      <trkpt lat="41.807140968739986" lon="-2.657303027808666">
        <ele>1094.3</ele>
        <time>2018-05-28T06:21:37Z</time>
      </trkpt>
      <trkpt lat="41.807145997881889" lon="-2.657218035310507">
        <ele>1094.2</ele>
        <time>2018-05-28T06:21:39Z</time>
      </trkpt>
      <trkpt lat="41.807193020358682" lon="-2.656460981816053">
        <ele>1093.9000000000001</ele>
        <time>2018-05-28T06:21:55Z</time>
      </trkpt>
      <trkpt lat="41.807196959853172" lon="-2.656378000974655">
        <ele>1093.9000000000001</ele>
        <time>2018-05-28T06:21:57Z</time>
      </trkpt>
      <trkpt lat="41.807249011471868" lon="-2.655622959136963">
        <ele>1094.9000000000001</ele>
        <time>2018-05-28T06:22:14Z</time>
      </trkpt>
      <trkpt lat="41.80725404061377" lon="-2.655539978295565">
        <ele>1095</ele>
        <time>2018-05-28T06:22:16Z</time>
      </trkpt>
      <trkpt lat="41.807294022291899" lon="-2.654799018055201">
        <ele>1094.8</ele>
        <time>2018-05-28T06:22:32Z</time>
      </trkpt>
      <trkpt lat="41.807303996756673" lon="-2.654634984210134">
        <ele>1094.7</ele>
        <time>2018-05-28T06:22:36Z</time>
      </trkpt>
      <trkpt lat="41.807348001748323" lon="-2.653907015919685">
        <ele>1093.5999999999999</ele>
        <time>2018-05-28T06:22:52Z</time>
      </trkpt>
      <trkpt lat="41.807389995083213" lon="-2.653245013207197">
        <ele>1092.2</ele>
        <time>2018-05-28T06:23:07Z</time>
      </trkpt>
      <trkpt lat="41.80742796510458" lon="-2.652668002992868">
        <ele>1091</ele>
        <time>2018-05-28T06:23:20Z</time>
      </trkpt>
      <trkpt lat="41.807455038651824" lon="-2.652343958616257">
        <ele>1090.5</ele>
        <time>2018-05-28T06:23:27Z</time>
      </trkpt>
      <trkpt lat="41.807524021714926" lon="-2.651777006685734">
        <ele>1089.7</ele>
        <time>2018-05-28T06:23:39Z</time>
      </trkpt>
      <trkpt lat="41.807572972029448" lon="-2.651452040299773">
        <ele>1089.3</ele>
        <time>2018-05-28T06:23:47Z</time>
      </trkpt>
      <trkpt lat="41.807714039459825" lon="-2.650745026767254">
        <ele>1088.9000000000001</ele>
        <time>2018-05-28T06:24:03Z</time>
      </trkpt>
      <trkpt lat="41.807730970904231" lon="-2.650665985420346">
        <ele>1088.8</ele>
        <time>2018-05-28T06:24:05Z</time>
      </trkpt>
      <trkpt lat="41.807886958122253" lon="-2.649956038221717">
        <ele>1088.2</ele>
        <time>2018-05-28T06:24:21Z</time>
      </trkpt>
      <trkpt lat="41.80794202722609" lon="-2.649717992171645">
        <ele>1087.9000000000001</ele>
        <time>2018-05-28T06:24:27Z</time>
      </trkpt>
      <trkpt lat="41.808076975867152" lon="-2.649092031642795">
        <ele>1087.5999999999999</ele>
        <time>2018-05-28T06:24:41Z</time>
      </trkpt>
      <trkpt lat="41.808185018599033" lon="-2.648605965077877">
        <ele>1087.4000000000001</ele>
        <time>2018-05-28T06:24:52Z</time>
      </trkpt>
      <trkpt lat="41.808348968625069" lon="-2.647885959595442">
        <ele>1087</ele>
        <time>2018-05-28T06:25:09Z</time>
      </trkpt>
      <trkpt lat="41.808385010808706" lon="-2.647727960720658">
        <ele>1086.9000000000001</ele>
        <time>2018-05-28T06:25:12Z</time>
      </trkpt>
      <trkpt lat="41.808525994420052" lon="-2.64708498492837">
        <ele>1086.5</ele>
        <time>2018-05-28T06:25:27Z</time>
      </trkpt>
      <trkpt lat="41.808578968048096" lon="-2.646840987727046">
        <ele>1086.5999999999999</ele>
        <time>2018-05-28T06:25:33Z</time>
      </trkpt>
      <trkpt lat="41.808585003018379" lon="-2.646798994392157">
        <ele>1086.7</ele>
        <time>2018-05-28T06:25:34Z</time>
      </trkpt>
      <trkpt lat="41.80858701467514" lon="-2.646801006048918">
        <ele>1086.7</ele>
        <time>2018-05-28T06:25:34Z</time>
      </trkpt>
      <trkpt lat="41.808590032160282" lon="-2.646774016320705">
        <ele>1086.7</ele>
        <time>2018-05-28T06:25:34Z</time>
      </trkpt>
      <trkpt lat="41.808595983311534" lon="-2.646752977743745">
        <ele>1086.7</ele>
        <time>2018-05-28T06:25:35Z</time>
      </trkpt>
      <trkpt lat="41.808601012453437" lon="-2.646727999672294">
        <ele>1086.7</ele>
        <time>2018-05-28T06:25:36Z</time>
      </trkpt>
      <trkpt lat="41.808637976646423" lon="-2.646544016897678">
        <ele>1086.8</ele>
        <time>2018-05-28T06:25:40Z</time>
      </trkpt>
      <trkpt lat="41.808677958324552" lon="-2.646361961960793">
        <ele>1087</ele>
        <time>2018-05-28T06:25:44Z</time>
      </trkpt>
      <trkpt lat="41.808750964701176" lon="-2.646022997796536">
        <ele>1087.8</ele>
        <time>2018-05-28T06:25:52Z</time>
      </trkpt>
      <trkpt lat="41.808893037959933" lon="-2.645426038652659">
        <ele>1088.9000000000001</ele>
        <time>2018-05-28T06:26:06Z</time>
      </trkpt>
      <trkpt lat="41.808966966345906" lon="-2.645111968740821">
        <ele>1088.4000000000001</ele>
        <time>2018-05-28T06:26:13Z</time>
      </trkpt>
      <trkpt lat="41.809004014357924" lon="-2.644951958209276">
        <ele>1088.2</ele>
        <time>2018-05-28T06:26:17Z</time>
      </trkpt>
      <trkpt lat="41.809056987985969" lon="-2.644713995978236">
        <ele>1087.8</ele>
        <time>2018-05-28T06:26:22Z</time>
      </trkpt>
      <trkpt lat="41.809166958555579" lon="-2.644171016290784">
        <ele>1086.8</ele>
        <time>2018-05-28T06:26:34Z</time>
      </trkpt>
      <trkpt lat="41.809266032651067" lon="-2.643470959737897">
        <ele>1085.5999999999999</ele>
        <time>2018-05-28T06:26:50Z</time>
      </trkpt>
      <trkpt lat="41.809291010722518" lon="-2.643151022493839">
        <ele>1085</ele>
        <time>2018-05-28T06:26:57Z</time>
      </trkpt>
      <trkpt lat="41.809299979358912" lon="-2.642664033919573">
        <ele>1084.7</ele>
        <time>2018-05-28T06:27:08Z</time>
      </trkpt>
      <trkpt lat="41.809255974367261" lon="-2.641938999295235">
        <ele>1084.9000000000001</ele>
        <time>2018-05-28T06:27:24Z</time>
      </trkpt>
      <trkpt lat="41.80921196937561" lon="-2.641619984060526">
        <ele>1084.9000000000001</ele>
        <time>2018-05-28T06:27:31Z</time>
      </trkpt>
      <trkpt lat="41.809143992140889" lon="-2.641223017126322">
        <ele>1085.0999999999999</ele>
        <time>2018-05-28T06:27:40Z</time>
      </trkpt>
      <trkpt lat="41.808975012972951" lon="-2.640536036342382">
        <ele>1084</ele>
        <time>2018-05-28T06:27:56Z</time>
      </trkpt>
      <trkpt lat="41.808796981349587" lon="-2.639978975057602">
        <ele>1083.7</ele>
        <time>2018-05-28T06:28:10Z</time>
      </trkpt>
      <trkpt lat="41.808571005240083" lon="-2.63926399871707">
        <ele>1083.3</ele>
        <time>2018-05-28T06:28:27Z</time>
      </trkpt>
      <trkpt lat="41.80841401219368" lon="-2.638790002092719">
        <ele>1083.3</ele>
        <time>2018-05-28T06:28:38Z</time>
      </trkpt>
      <trkpt lat="41.808322984725237" lon="-2.63851398602128">
        <ele>1083.5</ele>
        <time>2018-05-28T06:28:45Z</time>
      </trkpt>
      <trkpt lat="41.808309992775321" lon="-2.638475010171533">
        <ele>1083.5999999999999</ele>
        <time>2018-05-28T06:28:46Z</time>
      </trkpt>
      <trkpt lat="41.808293983340263" lon="-2.638416001573205">
        <ele>1083.5999999999999</ele>
        <time>2018-05-28T06:28:47Z</time>
      </trkpt>
      <trkpt lat="41.808292977511883" lon="-2.638413989916444">
        <ele>1083.5999999999999</ele>
        <time>2018-05-28T06:28:47Z</time>
      </trkpt>
      <trkpt lat="41.808293983340263" lon="-2.638369984924793">
        <ele>1083.5999999999999</ele>
        <time>2018-05-28T06:28:48Z</time>
      </trkpt>
      <trkpt lat="41.808291971683502" lon="-2.638353975489736">
        <ele>1083.5999999999999</ele>
        <time>2018-05-28T06:28:49Z</time>
      </trkpt>
      <trkpt lat="41.808290965855122" lon="-2.638348024338484">
        <ele>1083.7</ele>
        <time>2018-05-28T06:28:49Z</time>
      </trkpt>
      <trkpt lat="41.808289960026741" lon="-2.638348024338484">
        <ele>1083.7</ele>
        <time>2018-05-28T06:28:49Z</time>
      </trkpt>
      <trkpt lat="41.80826498195529" lon="-2.638288009911776">
        <ele>1083.7</ele>
        <time>2018-05-28T06:28:50Z</time>
      </trkpt>
      <trkpt lat="41.808251990005374" lon="-2.638236964121461">
        <ele>1083.8</ele>
        <time>2018-05-28T06:28:52Z</time>
      </trkpt>
      <trkpt lat="41.808238998055458" lon="-2.638191031292081">
        <ele>1083.8</ele>
        <time>2018-05-28T06:28:53Z</time>
      </trkpt>
      <trkpt lat="41.808232041075826" lon="-2.638172004371882">
        <ele>1083.9000000000001</ele>
        <time>2018-05-28T06:28:53Z</time>
      </trkpt>
      <trkpt lat="41.808229023590684" lon="-2.638158006593585">
        <ele>1083.9000000000001</ele>
        <time>2018-05-28T06:28:53Z</time>
      </trkpt>
      <trkpt lat="41.808215025812387" lon="-2.638094974681735">
        <ele>1083.9000000000001</ele>
        <time>2018-05-28T06:28:55Z</time>
      </trkpt>
      <trkpt lat="41.808203039690852" lon="-2.638059016317129">
        <ele>1084</ele>
        <time>2018-05-28T06:28:56Z</time>
      </trkpt>
      <trkpt lat="41.80813699029386" lon="-2.637850977480412">
        <ele>1084.0999999999999</ele>
        <time>2018-05-28T06:29:01Z</time>
      </trkpt>
      <trkpt lat="41.808017967268825" lon="-2.637521987780929">
        <ele>1084.2</ele>
        <time>2018-05-28T06:29:09Z</time>
      </trkpt>
      <trkpt lat="41.808000029996037" lon="-2.637469014152885">
        <ele>1084.2</ele>
        <time>2018-05-28T06:29:10Z</time>
      </trkpt>
      <trkpt lat="41.80798402056098" lon="-2.637413023039699">
        <ele>1084.2</ele>
        <time>2018-05-28T06:29:11Z</time>
      </trkpt>
      <trkpt lat="41.807915037497878" lon="-2.637172965332866">
        <ele>1084.0999999999999</ele>
        <time>2018-05-28T06:29:17Z</time>
      </trkpt>
      <trkpt lat="41.807895004749298" lon="-2.63711404055357">
        <ele>1084</ele>
        <time>2018-05-28T06:29:19Z</time>
      </trkpt>
      <trkpt lat="41.807873966172338" lon="-2.63705100864172">
        <ele>1083.9000000000001</ele>
        <time>2018-05-28T06:29:20Z</time>
      </trkpt>
      <trkpt lat="41.807829039171338" lon="-2.636926034465432">
        <ele>1083.7</ele>
        <time>2018-05-28T06:29:23Z</time>
      </trkpt>
      <trkpt lat="41.807743040844798" lon="-2.636658987030387">
        <ele>1083.4000000000001</ele>
        <time>2018-05-28T06:29:30Z</time>
      </trkpt>
      <trkpt lat="41.807722002267838" lon="-2.636588998138905">
        <ele>1083.3</ele>
        <time>2018-05-28T06:29:31Z</time>
      </trkpt>
      <trkpt lat="41.807553023099899" lon="-2.636035038158298">
        <ele>1082.8</ele>
        <time>2018-05-28T06:29:44Z</time>
      </trkpt>
      <trkpt lat="41.807399969547987" lon="-2.635495997965336">
        <ele>1082.9000000000001</ele>
        <time>2018-05-28T06:29:57Z</time>
      </trkpt>
      <trkpt lat="41.807284969836473" lon="-2.635004986077547">
        <ele>1084.5</ele>
        <time>2018-05-28T06:30:09Z</time>
      </trkpt>
      <trkpt lat="41.807188997045159" lon="-2.634410038590431">
        <ele>1086.9000000000001</ele>
        <time>2018-05-28T06:30:22Z</time>
      </trkpt>
      <trkpt lat="41.807180028408766" lon="-2.634336026385427">
        <ele>1087</ele>
        <time>2018-05-28T06:30:24Z</time>
      </trkpt>
      <trkpt lat="41.807158989831805" lon="-2.63395699672401">
        <ele>1087.2</ele>
        <time>2018-05-28T06:30:32Z</time>
      </trkpt>
      <trkpt lat="41.807165024802089" lon="-2.633338999003172">
        <ele>1086.2</ele>
        <time>2018-05-28T06:30:46Z</time>
      </trkpt>
      <trkpt lat="41.807231996208429" lon="-2.632717983797193">
        <ele>1084.7</ele>
        <time>2018-05-28T06:31:00Z</time>
      </trkpt>
      <trkpt lat="41.807317994534969" lon="-2.632262008264661">
        <ele>1083.8</ele>
        <time>2018-05-28T06:31:10Z</time>
      </trkpt>
      <trkpt lat="41.807338027283549" lon="-2.632186990231276">
        <ele>1083.5999999999999</ele>
        <time>2018-05-28T06:31:12Z</time>
      </trkpt>
      <trkpt lat="41.807479010894895" lon="-2.631673011928797">
        <ele>1081.5999999999999</ele>
        <time>2018-05-28T06:31:24Z</time>
      </trkpt>
      <trkpt lat="41.80766399949789" lon="-2.631017966195941">
        <ele>1080.5999999999999</ele>
        <time>2018-05-28T06:31:39Z</time>
      </trkpt>
      <trkpt lat="41.807845970615745" lon="-2.630381025373936">
        <ele>1080.2</ele>
        <time>2018-05-28T06:31:54Z</time>
      </trkpt>
      <trkpt lat="41.808020984753966" lon="-2.629727991297841">
        <ele>1079.7</ele>
        <time>2018-05-28T06:32:10Z</time>
      </trkpt>
      <trkpt lat="41.808164985850453" lon="-2.628999017179012">
        <ele>1079.9000000000001</ele>
        <time>2018-05-28T06:32:26Z</time>
      </trkpt>
      <trkpt lat="41.808233968913555" lon="-2.628465006127954">
        <ele>1080.3</ele>
        <time>2018-05-28T06:32:38Z</time>
      </trkpt>
      <trkpt lat="41.808245033025742" lon="-2.628309018909931">
        <ele>1080.5</ele>
        <time>2018-05-28T06:32:42Z</time>
      </trkpt>
      <trkpt lat="41.808250984176993" lon="-2.628229977563024">
        <ele>1080.5</ele>
        <time>2018-05-28T06:32:43Z</time>
      </trkpt>
      <trkpt lat="41.808266993612051" lon="-2.627771990373731">
        <ele>1080.7</ele>
        <time>2018-05-28T06:32:54Z</time>
      </trkpt>
      <trkpt lat="41.808262970298529" lon="-2.627546014264226">
        <ele>1080.5</ele>
        <time>2018-05-28T06:32:59Z</time>
      </trkpt>
      <trkpt lat="41.808257019147277" lon="-2.627392038702965">
        <ele>1080.3</ele>
        <time>2018-05-28T06:33:02Z</time>
      </trkpt>
      <trkpt lat="41.808212008327246" lon="-2.62686800211668">
        <ele>1080.5</ele>
        <time>2018-05-28T06:33:14Z</time>
      </trkpt>
      <trkpt lat="41.808202033862472" lon="-2.626791978254914">
        <ele>1080.5999999999999</ele>
        <time>2018-05-28T06:33:15Z</time>
      </trkpt>
      <trkpt lat="41.808130033314228" lon="-2.626253021880984">
        <ele>1081.7</ele>
        <time>2018-05-28T06:33:27Z</time>
      </trkpt>
      <trkpt lat="41.808016961440444" lon="-2.625502003356814">
        <ele>1081.5999999999999</ele>
        <time>2018-05-28T06:33:44Z</time>
      </trkpt>
      <trkpt lat="41.807912020012736" lon="-2.624815022572875">
        <ele>1082</ele>
        <time>2018-05-28T06:34:00Z</time>
      </trkpt>
      <trkpt lat="41.80781302973628" lon="-2.624130975455046">
        <ele>1081</ele>
        <time>2018-05-28T06:34:15Z</time>
      </trkpt>
      <trkpt lat="41.807714039459825" lon="-2.623506020754576">
        <ele>1079.5</ele>
        <time>2018-05-28T06:34:29Z</time>
      </trkpt>
      <trkpt lat="41.807654025033116" lon="-2.623121039941907">
        <ele>1079.2</ele>
        <time>2018-05-28T06:34:38Z</time>
      </trkpt>
      <trkpt lat="41.807591998949647" lon="-2.622738992795348">
        <ele>1078.9000000000001</ele>
        <time>2018-05-28T06:34:47Z</time>
      </trkpt>
      <trkpt lat="41.807475993409753" lon="-2.621977999806404">
        <ele>1078</ele>
        <time>2018-05-28T06:35:04Z</time>
      </trkpt>
      <trkpt lat="41.80740600451827" lon="-2.621505009010434">
        <ele>1077.8</ele>
        <time>2018-05-28T06:35:14Z</time>
      </trkpt>
      <trkpt lat="41.807359987869859" lon="-2.621266962960362">
        <ele>1077.7</ele>
        <time>2018-05-28T06:35:20Z</time>
      </trkpt>
      <trkpt lat="41.807322017848492" lon="-2.62121600098908">
        <ele>1077.8</ele>
        <time>2018-05-28T06:35:22Z</time>
      </trkpt>
      <trkpt lat="41.807268960401416" lon="-2.62119697406888">
        <ele>1078</ele>
        <time>2018-05-28T06:35:23Z</time>
      </trkpt>
      <trkpt lat="41.807157984003425" lon="-2.621142994612455">
        <ele>1078.5</ele>
        <time>2018-05-28T06:35:27Z</time>
      </trkpt>
      <trkpt lat="41.807100987061858" lon="-2.621093960478902">
        <ele>1078.7</ele>
        <time>2018-05-28T06:35:29Z</time>
      </trkpt>
      <trkpt lat="41.806980036199093" lon="-2.621042998507619">
        <ele>1079.2</ele>
        <time>2018-05-28T06:35:32Z</time>
      </trkpt>
      <trkpt lat="41.806935025379062" lon="-2.62102397158742">
        <ele>1079.4000000000001</ele>
        <time>2018-05-28T06:35:34Z</time>
      </trkpt>
      <trkpt lat="41.806875010952353" lon="-2.620983989909291">
        <ele>1079.7</ele>
        <time>2018-05-28T06:35:36Z</time>
      </trkpt>
      <trkpt lat="41.806860007345676" lon="-2.620965968817473">
        <ele>1079.7</ele>
        <time>2018-05-28T06:35:36Z</time>
      </trkpt>
      <trkpt lat="41.806796975433826" lon="-2.62087200768292">
        <ele>1079.9000000000001</ele>
        <time>2018-05-28T06:35:39Z</time>
      </trkpt>
      <trkpt lat="41.806765040382743" lon="-2.62083001434803">
        <ele>1080</ele>
        <time>2018-05-28T06:35:41Z</time>
      </trkpt>
      <trkpt lat="41.806748025119305" lon="-2.620799001306295">
        <ele>1080.0999999999999</ele>
        <time>2018-05-28T06:35:41Z</time>
      </trkpt>
      <trkpt lat="41.806730004027486" lon="-2.620791038498282">
        <ele>1080.0999999999999</ele>
        <time>2018-05-28T06:35:42Z</time>
      </trkpt>
      <trkpt lat="41.806750036776066" lon="-2.620948031544685">
        <ele>1080.2</ele>
        <time>2018-05-28T06:35:45Z</time>
      </trkpt>
      <trkpt lat="41.806761017069221" lon="-2.620964040979743">
        <ele>1080.2</ele>
        <time>2018-05-28T06:35:46Z</time>
      </trkpt>
      <trkpt lat="41.806774009019136" lon="-2.62098097242415">
        <ele>1080.2</ele>
        <time>2018-05-28T06:35:46Z</time>
      </trkpt>
      <trkpt lat="41.806892026215792" lon="-2.621054984629154">
        <ele>1079.7</ele>
        <time>2018-05-28T06:35:50Z</time>
      </trkpt>
      <trkpt lat="41.807015994563699" lon="-2.621084991842508">
        <ele>1079.0999999999999</ele>
        <time>2018-05-28T06:35:54Z</time>
      </trkpt>
      <trkpt lat="41.807086989283562" lon="-2.621111981570721">
        <ele>1078.8</ele>
        <time>2018-05-28T06:35:56Z</time>
      </trkpt>
      <trkpt lat="41.807121019810438" lon="-2.62113000266254">
        <ele>1078.7</ele>
        <time>2018-05-28T06:35:57Z</time>
      </trkpt>
      <trkpt lat="41.80725404061377" lon="-2.621210971847177">
        <ele>1078.0999999999999</ele>
        <time>2018-05-28T06:36:02Z</time>
      </trkpt>
      <trkpt lat="41.807335009798408" lon="-2.621212983503938">
        <ele>1077.7</ele>
        <time>2018-05-28T06:36:04Z</time>
      </trkpt>
      <trkpt lat="41.807353030890226" lon="-2.621221030130982">
        <ele>1077.7</ele>
        <time>2018-05-28T06:36:05Z</time>
      </trkpt>
      <trkpt lat="41.807366022840142" lon="-2.621283978223801">
        <ele>1077.7</ele>
        <time>2018-05-28T06:36:06Z</time>
      </trkpt>
      <trkpt lat="41.807365017011762" lon="-2.621289007365704">
        <ele>1077.7</ele>
        <time>2018-05-28T06:36:06Z</time>
      </trkpt>
      <trkpt lat="41.807356970384717" lon="-2.62123896740377">
        <ele>1077.7</ele>
        <time>2018-05-28T06:36:07Z</time>
      </trkpt>
      <trkpt lat="41.807360993698239" lon="-2.621194962412119">
        <ele>1077.5999999999999</ele>
        <time>2018-05-28T06:36:08Z</time>
      </trkpt>
      <trkpt lat="41.807351019233465" lon="-2.62110703624785">
        <ele>1077.5</ele>
        <time>2018-05-28T06:36:10Z</time>
      </trkpt>
      <trkpt lat="41.807337021455169" lon="-2.621063031256199">
        <ele>1077.5999999999999</ele>
        <time>2018-05-28T06:36:11Z</time>
      </trkpt>
      <trkpt lat="41.807331992313266" lon="-2.621050039306283">
        <ele>1077.5999999999999</ele>
        <time>2018-05-28T06:36:12Z</time>
      </trkpt>
      <trkpt lat="41.807324029505253" lon="-2.621011985465884">
        <ele>1077.5999999999999</ele>
        <time>2018-05-28T06:36:13Z</time>
      </trkpt>
      <trkpt lat="41.80729896761477" lon="-2.620839988812804">
        <ele>1077.5</ele>
        <time>2018-05-28T06:36:16Z</time>
      </trkpt>
      <trkpt lat="41.807230990380049" lon="-2.620374960824847">
        <ele>1077.3</ele>
        <time>2018-05-28T06:36:27Z</time>
      </trkpt>
      <trkpt lat="41.807155972346663" lon="-2.619897024706006">
        <ele>1077.7</ele>
        <time>2018-05-28T06:36:38Z</time>
      </trkpt>
      <trkpt lat="41.80712697096169" lon="-2.61969200335443">
        <ele>1077.8</ele>
        <time>2018-05-28T06:36:42Z</time>
      </trkpt>
      <trkpt lat="41.807115990668535" lon="-2.619624026119709">
        <ele>1077.8</ele>
        <time>2018-05-28T06:36:44Z</time>
      </trkpt>
      <trkpt lat="41.807071985676885" lon="-2.619341975077987">
        <ele>1077.8</ele>
        <time>2018-05-28T06:36:50Z</time>
      </trkpt>
      <trkpt lat="41.807025969028473" lon="-2.619054978713393">
        <ele>1077.7</ele>
        <time>2018-05-28T06:36:57Z</time>
      </trkpt>
      <trkpt lat="41.806943994015455" lon="-2.61849096044898">
        <ele>1078.2</ele>
        <time>2018-05-28T06:37:09Z</time>
      </trkpt>
      <trkpt lat="41.806894037872553" lon="-2.61814403347671">
        <ele>1078.8</ele>
        <time>2018-05-28T06:37:17Z</time>
      </trkpt>
      <trkpt lat="41.806885991245508" lon="-2.618074966594577">
        <ele>1078.8</ele>
        <time>2018-05-28T06:37:19Z</time>
      </trkpt>
      <trkpt lat="41.806797981262207" lon="-2.617526035755873">
        <ele>1078.0999999999999</ele>
        <time>2018-05-28T06:37:31Z</time>
      </trkpt>
      <trkpt lat="41.806762022897601" lon="-2.617284972220659">
        <ele>1077.5999999999999</ele>
        <time>2018-05-28T06:37:36Z</time>
      </trkpt>
      <trkpt lat="41.806724974885583" lon="-2.617063019424677">
        <ele>1077.0999999999999</ele>
        <time>2018-05-28T06:37:42Z</time>
      </trkpt>
      <trkpt lat="41.806677030399442" lon="-2.616672003641725">
        <ele>1077.4000000000001</ele>
        <time>2018-05-28T06:37:50Z</time>
      </trkpt>
      <trkpt lat="41.806651968508959" lon="-2.616355000063777">
        <ele>1077.5999999999999</ele>
        <time>2018-05-28T06:37:57Z</time>
      </trkpt>
      <trkpt lat="41.806647023186088" lon="-2.61612500064075">
        <ele>1077.8</ele>
        <time>2018-05-28T06:38:02Z</time>
      </trkpt>
      <trkpt lat="41.806646017357707" lon="-2.615963984280825">
        <ele>1078</ele>
        <time>2018-05-28T06:38:06Z</time>
      </trkpt>
      <trkpt lat="41.806650040671229" lon="-2.615802967920899">
        <ele>1078.2</ele>
        <time>2018-05-28T06:38:10Z</time>
      </trkpt>
      <trkpt lat="41.806681975722313" lon="-2.615488981828094">
        <ele>1078.3</ele>
        <time>2018-05-28T06:38:16Z</time>
      </trkpt>
      <trkpt lat="41.806796975433826" lon="-2.614874001592398">
        <ele>1077.5999999999999</ele>
        <time>2018-05-28T06:38:31Z</time>
      </trkpt>
      <trkpt lat="41.806888002902269" lon="-2.614507963880897">
        <ele>1077.4000000000001</ele>
        <time>2018-05-28T06:38:39Z</time>
      </trkpt>
      <trkpt lat="41.806928990408778" lon="-2.614368991926312">
        <ele>1077.4000000000001</ele>
        <time>2018-05-28T06:38:42Z</time>
      </trkpt>
      <trkpt lat="41.807121019810438" lon="-2.61378301307559">
        <ele>1077.7</ele>
        <time>2018-05-28T06:38:56Z</time>
      </trkpt>
      <trkpt lat="41.807307014241815" lon="-2.613201979547739">
        <ele>1076.5</ele>
        <time>2018-05-28T06:39:10Z</time>
      </trkpt>
      <trkpt lat="41.807481022551656" lon="-2.612447021529079">
        <ele>1076.3</ele>
        <time>2018-05-28T06:39:28Z</time>
      </trkpt>
      <trkpt lat="41.80751102976501" lon="-2.612217022106051">
        <ele>1076.5999999999999</ele>
        <time>2018-05-28T06:39:33Z</time>
      </trkpt>
      <trkpt lat="41.807536007836461" lon="-2.611901024356484">
        <ele>1077</ele>
        <time>2018-05-28T06:39:40Z</time>
      </trkpt>
      <trkpt lat="41.8075339961797" lon="-2.611825000494719">
        <ele>1077.0999999999999</ele>
        <time>2018-05-28T06:39:42Z</time>
      </trkpt>
      <trkpt lat="41.807480016723275" lon="-2.611133996397257">
        <ele>1078.0999999999999</ele>
        <time>2018-05-28T06:39:57Z</time>
      </trkpt>
      <trkpt lat="41.807326963171363" lon="-2.610478028655052">
        <ele>1079</ele>
        <time>2018-05-28T06:40:12Z</time>
      </trkpt>
      <trkpt lat="41.807120013982058" lon="-2.609933037310839">
        <ele>1079</ele>
        <time>2018-05-28T06:40:26Z</time>
      </trkpt>
      <trkpt lat="41.806762022897601" lon="-2.609312022104859">
        <ele>1078.2</ele>
        <time>2018-05-28T06:40:43Z</time>
      </trkpt>
      <trkpt lat="41.80637301877141" lon="-2.608731994405389">
        <ele>1077.3</ele>
        <time>2018-05-28T06:41:00Z</time>
      </trkpt>
      <trkpt lat="41.806295989081264" lon="-2.608619006350637">
        <ele>1077.2</ele>
        <time>2018-05-28T06:41:04Z</time>
      </trkpt>
      <trkpt lat="41.805942021310329" lon="-2.608019029721618">
        <ele>1073.8</ele>
        <time>2018-05-28T06:41:21Z</time>
      </trkpt>
      <trkpt lat="41.805731970816851" lon="-2.607546960934997">
        <ele>1071.9000000000001</ele>
        <time>2018-05-28T06:41:33Z</time>
      </trkpt>
      <trkpt lat="41.805572966113687" lon="-2.606943966820836">
        <ele>1070.3</ele>
        <time>2018-05-28T06:41:47Z</time>
      </trkpt>
      <trkpt lat="41.805490991100669" lon="-2.606336027383804">
        <ele>1070.0999999999999</ele>
        <time>2018-05-28T06:42:01Z</time>
      </trkpt>
      <trkpt lat="41.805497026070952" lon="-2.605720041319728">
        <ele>1071.2</ele>
        <time>2018-05-28T06:42:14Z</time>
      </trkpt>
      <trkpt lat="41.805567014962435" lon="-2.605181001126766">
        <ele>1072.2</ele>
        <time>2018-05-28T06:42:26Z</time>
      </trkpt>
      <trkpt lat="41.805600039660931" lon="-2.605034988373518">
        <ele>1072.4000000000001</ele>
        <time>2018-05-28T06:42:30Z</time>
      </trkpt>
      <trkpt lat="41.805723002180457" lon="-2.60460801422596">
        <ele>1072.8</ele>
        <time>2018-05-28T06:42:40Z</time>
      </trkpt>
      <trkpt lat="41.805911008268595" lon="-2.60407299734652">
        <ele>1075</ele>
        <time>2018-05-28T06:42:53Z</time>
      </trkpt>
      <trkpt lat="41.805935986340046" lon="-2.604010971263051">
        <ele>1075.3</ele>
        <time>2018-05-28T06:42:54Z</time>
      </trkpt>
      <trkpt lat="41.805979991331697" lon="-2.603892032057047">
        <ele>1075.8</ele>
        <time>2018-05-28T06:42:57Z</time>
      </trkpt>
      <trkpt lat="41.806019973009825" lon="-2.603773009032011">
        <ele>1076.4000000000001</ele>
        <time>2018-05-28T06:43:00Z</time>
      </trkpt>
      <trkpt lat="41.806192975491285" lon="-2.603303035721183">
        <ele>1078.2</ele>
        <time>2018-05-28T06:43:12Z</time>
      </trkpt>
      <trkpt lat="41.806376036256552" lon="-2.602748991921544">
        <ele>1079.3</ele>
        <time>2018-05-28T06:43:25Z</time>
      </trkpt>
      <trkpt lat="41.806525988504291" lon="-2.602089000865817">
        <ele>1079.7</ele>
        <time>2018-05-28T06:43:40Z</time>
      </trkpt>
      <trkpt lat="41.806570999324322" lon="-2.601812984794378">
        <ele>1079.8</ele>
        <time>2018-05-28T06:43:47Z</time>
      </trkpt>
      <trkpt lat="41.806636964902282" lon="-2.601388022303581">
        <ele>1080</ele>
        <time>2018-05-28T06:43:56Z</time>
      </trkpt>
      <trkpt lat="41.806680969893932" lon="-2.601033970713615">
        <ele>1079.7</ele>
        <time>2018-05-28T06:44:04Z</time>
      </trkpt>
      <trkpt lat="41.806705025956035" lon="-2.600828027352691">
        <ele>1079.4000000000001</ele>
        <time>2018-05-28T06:44:09Z</time>
      </trkpt>
      <trkpt lat="41.806783983483911" lon="-2.600282030180097">
        <ele>1079</ele>
        <time>2018-05-28T06:44:21Z</time>
      </trkpt>
      <trkpt lat="41.806793035939336" lon="-2.600212963297963">
        <ele>1079.2</ele>
        <time>2018-05-28T06:44:23Z</time>
      </trkpt>
      <trkpt lat="41.806881967931986" lon="-2.599594965577126">
        <ele>1080.4000000000001</ele>
        <time>2018-05-28T06:44:37Z</time>
      </trkpt>
      <trkpt lat="41.806967966258526" lon="-2.598967999219894">
        <ele>1082.0999999999999</ele>
        <time>2018-05-28T06:44:51Z</time>
      </trkpt>
      <trkpt lat="41.807037033140659" lon="-2.598416972905397">
        <ele>1082</ele>
        <time>2018-05-28T06:45:03Z</time>
      </trkpt>
      <trkpt lat="41.807070979848504" lon="-2.597781037911773">
        <ele>1080.9000000000001</ele>
        <time>2018-05-28T06:45:17Z</time>
      </trkpt>
      <trkpt lat="41.807034015655518" lon="-2.597051979973912">
        <ele>1080.4000000000001</ele>
        <time>2018-05-28T06:45:33Z</time>
      </trkpt>
      <trkpt lat="41.806905018165708" lon="-2.596315965056419">
        <ele>1081.8</ele>
        <time>2018-05-28T06:45:50Z</time>
      </trkpt>
      <trkpt lat="41.806733021512628" lon="-2.595747001469135">
        <ele>1082.0999999999999</ele>
        <time>2018-05-28T06:46:03Z</time>
      </trkpt>
      <trkpt lat="41.806448036804795" lon="-2.595078041777015">
        <ele>1081.5999999999999</ele>
        <time>2018-05-28T06:46:20Z</time>
      </trkpt>
      <trkpt lat="41.806171014904976" lon="-2.594589963555336">
        <ele>1080.5</ele>
        <time>2018-05-28T06:46:34Z</time>
      </trkpt>
      <trkpt lat="41.805791985243559" lon="-2.59410297498107">
        <ele>1080.4000000000001</ele>
        <time>2018-05-28T06:46:50Z</time>
      </trkpt>
      <trkpt lat="41.805378003045917" lon="-2.593688992783427">
        <ele>1081</ele>
        <time>2018-05-28T06:47:05Z</time>
      </trkpt>
      <trkpt lat="41.805013976991177" lon="-2.593438038602471">
        <ele>1081.8</ele>
        <time>2018-05-28T06:47:17Z</time>
      </trkpt>
      <trkpt lat="41.804477032274008" lon="-2.59317803196609">
        <ele>1082.3</ele>
        <time>2018-05-28T06:47:34Z</time>
      </trkpt>
      <trkpt lat="41.803919970989227" lon="-2.593030007556081">
        <ele>1082.0999999999999</ele>
        <time>2018-05-28T06:47:51Z</time>
      </trkpt>
      <trkpt lat="41.80334597826004" lon="-2.592936968430877">
        <ele>1080.5999999999999</ele>
        <time>2018-05-28T06:48:08Z</time>
      </trkpt>
      <trkpt lat="41.803079014644027" lon="-2.592890029773116">
        <ele>1079.5</ele>
        <time>2018-05-28T06:48:16Z</time>
      </trkpt>
      <trkpt lat="41.802930990234017" lon="-2.592863040044904">
        <ele>1079</ele>
        <time>2018-05-28T06:48:20Z</time>
      </trkpt>
      <trkpt lat="41.80263795889914" lon="-2.592803025618196">
        <ele>1078.9000000000001</ele>
        <time>2018-05-28T06:48:29Z</time>
      </trkpt>
      <trkpt lat="41.80250602774322" lon="-2.592765977606177">
        <ele>1078.8</ele>
        <time>2018-05-28T06:48:33Z</time>
      </trkpt>
      <trkpt lat="41.802466968074441" lon="-2.592753991484642">
        <ele>1078.8</ele>
        <time>2018-05-28T06:48:34Z</time>
      </trkpt>
      <trkpt lat="41.802455987781286" lon="-2.59274996817112">
        <ele>1078.8</ele>
        <time>2018-05-28T06:48:35Z</time>
      </trkpt>
      <trkpt lat="41.802434027194977" lon="-2.592735970392823">
        <ele>1078.8</ele>
        <time>2018-05-28T06:48:35Z</time>
      </trkpt>
      <trkpt lat="41.802330007776618" lon="-2.592689031735063">
        <ele>1078.7</ele>
        <time>2018-05-28T06:48:38Z</time>
      </trkpt>
      <trkpt lat="41.80229396559298" lon="-2.592673022300005">
        <ele>1078.7</ele>
        <time>2018-05-28T06:48:40Z</time>
      </trkpt>
      <trkpt lat="41.802115011960268" lon="-2.592588029801846">
        <ele>1078.5999999999999</ele>
        <time>2018-05-28T06:48:45Z</time>
      </trkpt>
      <trkpt lat="41.801973022520542" lon="-2.592506976798177">
        <ele>1078.5</ele>
        <time>2018-05-28T06:48:50Z</time>
      </trkpt>
      <trkpt lat="41.80184000171721" lon="-2.592413015663624">
        <ele>1078.4000000000001</ele>
        <time>2018-05-28T06:48:54Z</time>
      </trkpt>
      <trkpt lat="41.801795996725559" lon="-2.592380996793509">
        <ele>1078.4000000000001</ele>
        <time>2018-05-28T06:48:56Z</time>
      </trkpt>
      <trkpt lat="41.801535990089178" lon="-2.592158960178495">
        <ele>1078.0999999999999</ele>
        <time>2018-05-28T06:49:05Z</time>
      </trkpt>
      <trkpt lat="41.801449991762638" lon="-2.592075979337096">
        <ele>1078</ele>
        <time>2018-05-28T06:49:08Z</time>
      </trkpt>
      <trkpt lat="41.801409004256129" lon="-2.592032980173826">
        <ele>1077.9000000000001</ele>
        <time>2018-05-28T06:49:10Z</time>
      </trkpt>
      <trkpt lat="41.801179004833102" lon="-2.591747995465994">
        <ele>1077.8</ele>
        <time>2018-05-28T06:49:19Z</time>
      </trkpt>
      <trkpt lat="41.800997033715248" lon="-2.591471979394555">
        <ele>1077.9000000000001</ele>
        <time>2018-05-28T06:49:27Z</time>
      </trkpt>
      <trkpt lat="41.800930984318256" lon="-2.591341976076365">
        <ele>1077.9000000000001</ele>
        <time>2018-05-28T06:49:30Z</time>
      </trkpt>
      <trkpt lat="41.800731997936964" lon="-2.590888012200594">
        <ele>1078.5</ele>
        <time>2018-05-28T06:49:42Z</time>
      </trkpt>
      <trkpt lat="41.800624039024115" lon="-2.590553993359208">
        <ele>1079.0999999999999</ele>
        <time>2018-05-28T06:49:50Z</time>
      </trkpt>
      <trkpt lat="41.800573999062181" lon="-2.590343020856381">
        <ele>1079.8</ele>
        <time>2018-05-28T06:49:55Z</time>
      </trkpt>
      <trkpt lat="41.800479032099247" lon="-2.589781014248729">
        <ele>1084</ele>
        <time>2018-05-28T06:50:08Z</time>
      </trkpt>
      <trkpt lat="41.800413988530636" lon="-2.589233005419374">
        <ele>1086.4000000000001</ele>
        <time>2018-05-28T06:50:20Z</time>
      </trkpt>
      <trkpt lat="41.800390016287565" lon="-2.589034019038081">
        <ele>1086.8</ele>
        <time>2018-05-28T06:50:25Z</time>
      </trkpt>
      <trkpt lat="41.800365038216114" lon="-2.588837966322899">
        <ele>1087.2</ele>
        <time>2018-05-28T06:50:29Z</time>
      </trkpt>
      <trkpt lat="41.800283985212445" lon="-2.588113015517592">
        <ele>1086.2</ele>
        <time>2018-05-28T06:50:45Z</time>
      </trkpt>
      <trkpt lat="41.800207961350679" lon="-2.587379012256861">
        <ele>1085.4000000000001</ele>
        <time>2018-05-28T06:51:01Z</time>
      </trkpt>
      <trkpt lat="41.800178037956357" lon="-2.587110036984086">
        <ele>1085.3</ele>
        <time>2018-05-28T06:51:07Z</time>
      </trkpt>
      <trkpt lat="41.800132021307945" lon="-2.586708040907979">
        <ele>1085.4000000000001</ele>
        <time>2018-05-28T06:51:16Z</time>
      </trkpt>
      <trkpt lat="41.800049962475896" lon="-2.585984012112021">
        <ele>1086.0999999999999</ele>
        <time>2018-05-28T06:51:33Z</time>
      </trkpt>
      <trkpt lat="41.800043005496264" lon="-2.5859160348773">
        <ele>1086.2</ele>
        <time>2018-05-28T06:51:34Z</time>
      </trkpt>
      <trkpt lat="41.799992965534329" lon="-2.585589978843927">
        <ele>1086.7</ele>
        <time>2018-05-28T06:51:42Z</time>
      </trkpt>
      <trkpt lat="41.799940997734666" lon="-2.585089998319745">
        <ele>1086.8</ele>
        <time>2018-05-28T06:51:53Z</time>
      </trkpt>
      <trkpt lat="41.799868997186422" lon="-2.584429001435638">
        <ele>1086.7</ele>
        <time>2018-05-28T06:52:07Z</time>
      </trkpt>
      <trkpt lat="41.799810994416475" lon="-2.583900019526482">
        <ele>1086.5999999999999</ele>
        <time>2018-05-28T06:52:19Z</time>
      </trkpt>
      <trkpt lat="41.799780987203121" lon="-2.583634983748198">
        <ele>1086.5</ele>
        <time>2018-05-28T06:52:25Z</time>
      </trkpt>
      <trkpt lat="41.799743017181754" lon="-2.583302976563573">
        <ele>1086.7</ele>
        <time>2018-05-28T06:52:33Z</time>
      </trkpt>
      <trkpt lat="41.799673028290272" lon="-2.582702999934554">
        <ele>1087</ele>
        <time>2018-05-28T06:52:46Z</time>
      </trkpt>
      <trkpt lat="41.799604967236519" lon="-2.582102017477155">
        <ele>1086.8</ele>
        <time>2018-05-28T06:52:59Z</time>
      </trkpt>
      <trkpt lat="41.799598010256886" lon="-2.582036973908544">
        <ele>1086.8</ele>
        <time>2018-05-28T06:53:01Z</time>
      </trkpt>
      <trkpt lat="41.799559034407139" lon="-2.581709995865822">
        <ele>1086.4000000000001</ele>
        <time>2018-05-28T06:53:08Z</time>
      </trkpt>
      <trkpt lat="41.799531960859895" lon="-2.581446971744299">
        <ele>1086.0999999999999</ele>
        <time>2018-05-28T06:53:14Z</time>
      </trkpt>
      <trkpt lat="41.799502037465572" lon="-2.581185959279537">
        <ele>1086</ele>
        <time>2018-05-28T06:53:20Z</time>
      </trkpt>
      <trkpt lat="41.799431964755058" lon="-2.580596040934324">
        <ele>1087.5999999999999</ele>
        <time>2018-05-28T06:53:33Z</time>
      </trkpt>
      <trkpt lat="41.799360970035195" lon="-2.579954992979765">
        <ele>1088.4000000000001</ele>
        <time>2018-05-28T06:53:47Z</time>
      </trkpt>
      <trkpt lat="41.799284024164081" lon="-2.579300031065941">
        <ele>1089.0999999999999</ele>
        <time>2018-05-28T06:54:02Z</time>
      </trkpt>
      <trkpt lat="41.799209006130695" lon="-2.578654959797859">
        <ele>1089.8</ele>
        <time>2018-05-28T06:54:16Z</time>
      </trkpt>
      <trkpt lat="41.799163995310664" lon="-2.578272996470332">
        <ele>1090</ele>
        <time>2018-05-28T06:54:25Z</time>
      </trkpt>
      <trkpt lat="41.799120996147394" lon="-2.577948030084372">
        <ele>1090</ele>
        <time>2018-05-28T06:54:32Z</time>
      </trkpt>
      <trkpt lat="41.799001973122358" lon="-2.577302036806941">
        <ele>1090.8</ele>
        <time>2018-05-28T06:54:47Z</time>
      </trkpt>
      <trkpt lat="41.798927960917354" lon="-2.576985033228993">
        <ele>1091.2</ele>
        <time>2018-05-28T06:54:54Z</time>
      </trkpt>
      <trkpt lat="41.798861995339394" lon="-2.576732989400625">
        <ele>1091.5</ele>
        <time>2018-05-28T06:55:00Z</time>
      </trkpt>
      <trkpt lat="41.7987459897995" lon="-2.576362006366253">
        <ele>1092.2</ele>
        <time>2018-05-28T06:55:09Z</time>
      </trkpt>
      <trkpt lat="41.798545997589827" lon="-2.575735040009022">
        <ele>1093.3</ele>
        <time>2018-05-28T06:55:24Z</time>
      </trkpt>
      <trkpt lat="41.798326978459954" lon="-2.575042024254799">
        <ele>1094.5</ele>
        <time>2018-05-28T06:55:41Z</time>
      </trkpt>
      <trkpt lat="41.798178032040596" lon="-2.57450801320374">
        <ele>1094.9000000000001</ele>
        <time>2018-05-28T06:55:53Z</time>
      </trkpt>
      <trkpt lat="41.798007963225245" lon="-2.573766969144344">
        <ele>1093.9000000000001</ele>
        <time>2018-05-28T06:56:11Z</time>
      </trkpt>
      <trkpt lat="41.797891035676003" lon="-2.573132961988449">
        <ele>1094.0999999999999</ele>
        <time>2018-05-28T06:56:25Z</time>
      </trkpt>
      <trkpt lat="41.797874020412564" lon="-2.572988960891962">
        <ele>1094.0999999999999</ele>
        <time>2018-05-28T06:56:28Z</time>
      </trkpt>
      <trkpt lat="41.79782004095614" lon="-2.572637004777789">
        <ele>1094</ele>
        <time>2018-05-28T06:56:36Z</time>
      </trkpt>
      <trkpt lat="41.797793973237276" lon="-2.572427960112691">
        <ele>1093.7</ele>
        <time>2018-05-28T06:56:41Z</time>
      </trkpt>
      <trkpt lat="41.797762038186193" lon="-2.572070974856615">
        <ele>1093.0999999999999</ele>
        <time>2018-05-28T06:56:49Z</time>
      </trkpt>
      <trkpt lat="41.797718033194542" lon="-2.57141500711441">
        <ele>1092.4000000000001</ele>
        <time>2018-05-28T06:57:03Z</time>
      </trkpt>
      <trkpt lat="41.797704035416245" lon="-2.570828022435308">
        <ele>1091.7</ele>
        <time>2018-05-28T06:57:16Z</time>
      </trkpt>
      <trkpt lat="41.797711998224258" lon="-2.570130983367562">
        <ele>1091</ele>
        <time>2018-05-28T06:57:32Z</time>
      </trkpt>
      <trkpt lat="41.797720966860652" lon="-2.569649023935199">
        <ele>1091</ele>
        <time>2018-05-28T06:57:42Z</time>
      </trkpt>
      <trkpt lat="41.797723984345794" lon="-2.569581968709827">
        <ele>1091</ele>
        <time>2018-05-28T06:57:44Z</time>
      </trkpt>
      <trkpt lat="41.797733958810568" lon="-2.569174021482468">
        <ele>1091.0999999999999</ele>
        <time>2018-05-28T06:57:53Z</time>
      </trkpt>
      <trkpt lat="41.797738987952471" lon="-2.569035971537232">
        <ele>1091.0999999999999</ele>
        <time>2018-05-28T06:57:56Z</time>
      </trkpt>
      <trkpt lat="41.797746028751135" lon="-2.568338010460138">
        <ele>1090.3</ele>
        <time>2018-05-28T06:58:11Z</time>
      </trkpt>
      <trkpt lat="41.797743011265993" lon="-2.567572994157672">
        <ele>1089</ele>
        <time>2018-05-28T06:58:28Z</time>
      </trkpt>
      <trkpt lat="41.797690037637949" lon="-2.56694502197206">
        <ele>1089.2</ele>
        <time>2018-05-28T06:58:42Z</time>
      </trkpt>
      <trkpt lat="41.797634968534112" lon="-2.566470019519329">
        <ele>1089.5999999999999</ele>
        <time>2018-05-28T06:58:53Z</time>
      </trkpt>
      <trkpt lat="41.797556011006236" lon="-2.565831989049912">
        <ele>1090.0999999999999</ele>
        <time>2018-05-28T06:59:07Z</time>
      </trkpt>
      <trkpt lat="41.79747898131609" lon="-2.56522698327899">
        <ele>1090.4000000000001</ele>
        <time>2018-05-28T06:59:21Z</time>
      </trkpt>
      <trkpt lat="41.797464983537793" lon="-2.565105026587844">
        <ele>1090.3</ele>
        <time>2018-05-28T06:59:23Z</time>
      </trkpt>
      <trkpt lat="41.797452997416258" lon="-2.56488298997283">
        <ele>1090</ele>
        <time>2018-05-28T06:59:28Z</time>
      </trkpt>
      <trkpt lat="41.797446962445974" lon="-2.564836973324418">
        <ele>1090</ele>
        <time>2018-05-28T06:59:29Z</time>
      </trkpt>
      <trkpt lat="41.79743598215282" lon="-2.564722979441285">
        <ele>1089.9000000000001</ele>
        <time>2018-05-28T06:59:32Z</time>
      </trkpt>
      <trkpt lat="41.7974369879812" lon="-2.564722979441285">
        <ele>1089.9000000000001</ele>
        <time>2018-05-28T06:59:32Z</time>
      </trkpt>
      <trkpt lat="41.797426007688046" lon="-2.564705964177847">
        <ele>1089.9000000000001</ele>
        <time>2018-05-28T06:59:32Z</time>
      </trkpt>
      <trkpt lat="41.797420978546143" lon="-2.56468802690506">
        <ele>1090</ele>
        <time>2018-05-28T06:59:33Z</time>
      </trkpt>
      <trkpt lat="41.797417039051652" lon="-2.564614014700055">
        <ele>1089.9000000000001</ele>
        <time>2018-05-28T06:59:34Z</time>
      </trkpt>
      <trkpt lat="41.797404969111085" lon="-2.564504966139793">
        <ele>1089.7</ele>
        <time>2018-05-28T06:59:37Z</time>
      </trkpt>
      <trkpt lat="41.797387031838298" lon="-2.56436800584197">
        <ele>1089.4000000000001</ele>
        <time>2018-05-28T06:59:40Z</time>
      </trkpt>
      <trkpt lat="41.797358030453324" lon="-2.56417497061193">
        <ele>1089.0999999999999</ele>
        <time>2018-05-28T06:59:44Z</time>
      </trkpt>
      <trkpt lat="41.797334980219603" lon="-2.563955029472709">
        <ele>1088.5</ele>
        <time>2018-05-28T06:59:49Z</time>
      </trkpt>
      <trkpt lat="41.797326011583209" lon="-2.563898032531142">
        <ele>1088.4000000000001</ele>
        <time>2018-05-28T06:59:50Z</time>
      </trkpt>
      <trkpt lat="41.797308996319771" lon="-2.563782026991248">
        <ele>1088.2</ele>
        <time>2018-05-28T06:59:53Z</time>
      </trkpt>
      <trkpt lat="41.797276977449656" lon="-2.563465023413301">
        <ele>1088.2</ele>
        <time>2018-05-28T07:00:00Z</time>
      </trkpt>
      <trkpt lat="41.797261973842978" lon="-2.563329990953207">
        <ele>1088.3</ele>
        <time>2018-05-28T07:00:03Z</time>
      </trkpt>
      <trkpt lat="41.797203971073031" lon="-2.562859011813998">
        <ele>1088.8</ele>
        <time>2018-05-28T07:00:14Z</time>
      </trkpt>
      <trkpt lat="41.797186033800244" lon="-2.562718028202653">
        <ele>1089.2</ele>
        <time>2018-05-28T07:00:17Z</time>
      </trkpt>
      <trkpt lat="41.797166001051664" lon="-2.562580984085798">
        <ele>1089.5</ele>
        <time>2018-05-28T07:00:20Z</time>
      </trkpt>
      <trkpt lat="41.79711202159524" lon="-2.56217697635293">
        <ele>1090.5999999999999</ele>
        <time>2018-05-28T07:00:29Z</time>
      </trkpt>
      <trkpt lat="41.797094000503421" lon="-2.56204403936863">
        <ele>1090.8</ele>
        <time>2018-05-28T07:00:32Z</time>
      </trkpt>
      <trkpt lat="41.796981012448668" lon="-2.561428975313902">
        <ele>1090.5</ele>
        <time>2018-05-28T07:00:46Z</time>
      </trkpt>
      <trkpt lat="41.796872969716787" lon="-2.561021028086543">
        <ele>1090.5999999999999</ele>
        <time>2018-05-28T07:00:56Z</time>
      </trkpt>
      <trkpt lat="41.796824019402266" lon="-2.560893958434463">
        <ele>1090.7</ele>
        <time>2018-05-28T07:00:59Z</time>
      </trkpt>
      <trkpt lat="41.796541968360543" lon="-2.56028400734067">
        <ele>1091.3</ele>
        <time>2018-05-28T07:01:15Z</time>
      </trkpt>
      <trkpt lat="41.796242985874414" lon="-2.559782015159726">
        <ele>1092.5</ele>
        <time>2018-05-28T07:01:29Z</time>
      </trkpt>
      <trkpt lat="41.796008041128516" lon="-2.559409020468593">
        <ele>1092.3</ele>
        <time>2018-05-28T07:01:40Z</time>
      </trkpt>
      <trkpt lat="41.795734036713839" lon="-2.558968970552087">
        <ele>1090.5</ele>
        <time>2018-05-28T07:01:52Z</time>
      </trkpt>
      <trkpt lat="41.795408986508846" lon="-2.558446023613215">
        <ele>1089</ele>
        <time>2018-05-28T07:02:07Z</time>
      </trkpt>
      <trkpt lat="41.795124001801014" lon="-2.557988958433271">
        <ele>1091.5</ele>
        <time>2018-05-28T07:02:20Z</time>
      </trkpt>
      <trkpt lat="41.795089971274137" lon="-2.557935984805226">
        <ele>1091.8</ele>
        <time>2018-05-28T07:02:22Z</time>
      </trkpt>
      <trkpt lat="41.794779002666473" lon="-2.557437010109425">
        <ele>1094.2</ele>
        <time>2018-05-28T07:02:36Z</time>
      </trkpt>
      <trkpt lat="41.794500974938273" lon="-2.55699897184968">
        <ele>1095</ele>
        <time>2018-05-28T07:02:49Z</time>
      </trkpt>
      <trkpt lat="41.794466022402048" lon="-2.556944992393255">
        <ele>1094.8</ele>
        <time>2018-05-28T07:02:51Z</time>
      </trkpt>
      <trkpt lat="41.794396033510566" lon="-2.556837033480406">
        <ele>1094.4000000000001</ele>
        <time>2018-05-28T07:02:54Z</time>
      </trkpt>
      <trkpt lat="41.794089004397392" lon="-2.556338980793953">
        <ele>1092.5999999999999</ele>
        <time>2018-05-28T07:03:08Z</time>
      </trkpt>
      <trkpt lat="41.793840983882546" lon="-2.555967997759581">
        <ele>1091.2</ele>
        <time>2018-05-28T07:03:19Z</time>
      </trkpt>
      <trkpt lat="41.793735958635807" lon="-2.555803041905165">
        <ele>1090.3</ele>
        <time>2018-05-28T07:03:24Z</time>
      </trkpt>
      <trkpt lat="41.793566979467869" lon="-2.555523002520204">
        <ele>1089.0999999999999</ele>
        <time>2018-05-28T07:03:32Z</time>
      </trkpt>
      <trkpt lat="41.793497996404767" lon="-2.555411020293832">
        <ele>1088.7</ele>
        <time>2018-05-28T07:03:35Z</time>
      </trkpt>
      <trkpt lat="41.793428007513285" lon="-2.555297026410699">
        <ele>1088.4000000000001</ele>
        <time>2018-05-28T07:03:38Z</time>
      </trkpt>
      <trkpt lat="41.793318958953023" lon="-2.555122012272477">
        <ele>1087.8</ele>
        <time>2018-05-28T07:03:43Z</time>
      </trkpt>
      <trkpt lat="41.793209994211793" lon="-2.554944986477494">
        <ele>1087.0999999999999</ele>
        <time>2018-05-28T07:03:48Z</time>
      </trkpt>
      <trkpt lat="41.79309600032866" lon="-2.554765027016401">
        <ele>1086.4000000000001</ele>
        <time>2018-05-28T07:03:54Z</time>
      </trkpt>
      <trkpt lat="41.792773967608809" lon="-2.554296981543303">
        <ele>1086.5999999999999</ele>
        <time>2018-05-28T07:04:08Z</time>
      </trkpt>
      <trkpt lat="41.792558971792459" lon="-2.554007973521948">
        <ele>1087.5</ele>
        <time>2018-05-28T07:04:17Z</time>
      </trkpt>
      <trkpt lat="41.792379012331367" lon="-2.553787026554346">
        <ele>1087.8</ele>
        <time>2018-05-28T07:04:24Z</time>
      </trkpt>
      <trkpt lat="41.791952960193157" lon="-2.553319986909628">
        <ele>1086.5999999999999</ele>
        <time>2018-05-28T07:04:40Z</time>
      </trkpt>
      <trkpt lat="41.791905015707016" lon="-2.553271036595106">
        <ele>1086.4000000000001</ele>
        <time>2018-05-28T07:04:42Z</time>
      </trkpt>
      <trkpt lat="41.791510982438922" lon="-2.552911033853889">
        <ele>1084.7</ele>
        <time>2018-05-28T07:04:56Z</time>
      </trkpt>
      <trkpt lat="41.791165983304381" lon="-2.552638035267592">
        <ele>1084.7</ele>
        <time>2018-05-28T07:05:08Z</time>
      </trkpt>
      <trkpt lat="41.7910320404917" lon="-2.552543990314007">
        <ele>1084.7</ele>
        <time>2018-05-28T07:05:13Z</time>
      </trkpt>
      <trkpt lat="41.790940007194877" lon="-2.552484981715679">
        <ele>1084.7</ele>
        <time>2018-05-28T07:05:16Z</time>
      </trkpt>
      <trkpt lat="41.79058201611042" lon="-2.55224802531302">
        <ele>1085</ele>
        <time>2018-05-28T07:05:27Z</time>
      </trkpt>
      <trkpt lat="41.7904759850353" lon="-2.552188010886312">
        <ele>1085.2</ele>
        <time>2018-05-28T07:05:31Z</time>
      </trkpt>
      <trkpt lat="41.790175996720791" lon="-2.55201299674809">
        <ele>1085.9000000000001</ele>
        <time>2018-05-28T07:05:40Z</time>
      </trkpt>
      <trkpt lat="41.789898974820971" lon="-2.551879975944758">
        <ele>1086.4000000000001</ele>
        <time>2018-05-28T07:05:49Z</time>
      </trkpt>
      <trkpt lat="41.78972496651113" lon="-2.55181803368032">
        <ele>1086.8</ele>
        <time>2018-05-28T07:05:55Z</time>
      </trkpt>
      <trkpt lat="41.789585994556546" lon="-2.551760030910373">
        <ele>1087.0999999999999</ele>
        <time>2018-05-28T07:05:59Z</time>
      </trkpt>
      <trkpt lat="41.789200007915497" lon="-2.551620975136757">
        <ele>1084.9000000000001</ele>
        <time>2018-05-28T07:06:11Z</time>
      </trkpt>
      <trkpt lat="41.789086014032364" lon="-2.551579987630248">
        <ele>1084.3</ele>
        <time>2018-05-28T07:06:14Z</time>
      </trkpt>
      <trkpt lat="41.788677982985973" lon="-2.551440009847283">
        <ele>1082.5999999999999</ele>
        <time>2018-05-28T07:06:27Z</time>
      </trkpt>
      <trkpt lat="41.788501963019371" lon="-2.551379995420575">
        <ele>1082.3</ele>
        <time>2018-05-28T07:06:32Z</time>
      </trkpt>
      <trkpt lat="41.788268024101853" lon="-2.551299026235938">
        <ele>1081.7</ele>
        <time>2018-05-28T07:06:39Z</time>
      </trkpt>
      <trkpt lat="41.787871979176998" lon="-2.551135998219252">
        <ele>1080.7</ele>
        <time>2018-05-28T07:06:52Z</time>
      </trkpt>
      <trkpt lat="41.787535026669502" lon="-2.550927037373185">
        <ele>1080.5</ele>
        <time>2018-05-28T07:07:02Z</time>
      </trkpt>
      <trkpt lat="41.787434024736285" lon="-2.550847996026278">
        <ele>1080.4000000000001</ele>
        <time>2018-05-28T07:07:06Z</time>
      </trkpt>
      <trkpt lat="41.787074021995068" lon="-2.550509031862021">
        <ele>1080.2</ele>
        <time>2018-05-28T07:07:19Z</time>
      </trkpt>
      <trkpt lat="41.786900013685226" lon="-2.550305016338825">
        <ele>1079.2</ele>
        <time>2018-05-28T07:07:26Z</time>
      </trkpt>
      <trkpt lat="41.786820972338319" lon="-2.550198985263705">
        <ele>1078.7</ele>
        <time>2018-05-28T07:07:29Z</time>
      </trkpt>
      <trkpt lat="41.786778979003429" lon="-2.550141988322139">
        <ele>1078.4000000000001</ele>
        <time>2018-05-28T07:07:31Z</time>
      </trkpt>
      <trkpt lat="41.786668002605438" lon="-2.549954988062382">
        <ele>1077.5999999999999</ele>
        <time>2018-05-28T07:07:36Z</time>
      </trkpt>
      <trkpt lat="41.786482008174062" lon="-2.549550980329514">
        <ele>1076.3</ele>
        <time>2018-05-28T07:07:47Z</time>
      </trkpt>
      <trkpt lat="41.786356028169394" lon="-2.549203969538212">
        <ele>1076.8</ele>
        <time>2018-05-28T07:07:55Z</time>
      </trkpt>
      <trkpt lat="41.786332977935672" lon="-2.54913498647511">
        <ele>1077</ele>
        <time>2018-05-28T07:07:57Z</time>
      </trkpt>
      <trkpt lat="41.786234993487597" lon="-2.54876802675426">
        <ele>1078.0999999999999</ele>
        <time>2018-05-28T07:08:06Z</time>
      </trkpt>
      <trkpt lat="41.786108007654548" lon="-2.548276009038091">
        <ele>1083.0999999999999</ele>
        <time>2018-05-28T07:08:17Z</time>
      </trkpt>
      <trkpt lat="41.786089986562729" lon="-2.548191016539931">
        <ele>1084</ele>
        <time>2018-05-28T07:08:19Z</time>
      </trkpt>
      <trkpt lat="41.785986972972751" lon="-2.547696987167001">
        <ele>1087.4000000000001</ele>
        <time>2018-05-28T07:08:30Z</time>
      </trkpt>
      <trkpt lat="41.785902986302972" lon="-2.54730898886919">
        <ele>1089.0999999999999</ele>
        <time>2018-05-28T07:08:39Z</time>
      </trkpt>
      <trkpt lat="41.785752028226852" lon="-2.546796016395092">
        <ele>1089.5999999999999</ele>
        <time>2018-05-28T07:08:52Z</time>
      </trkpt>
      <trkpt lat="41.785605009645224" lon="-2.546464009210467">
        <ele>1088.8</ele>
        <time>2018-05-28T07:09:00Z</time>
      </trkpt>
      <trkpt lat="41.785409040749073" lon="-2.546023037284613">
        <ele>1087.5999999999999</ele>
        <time>2018-05-28T07:09:11Z</time>
      </trkpt>
      <trkpt lat="41.785179963335395" lon="-2.545618023723364">
        <ele>1085.7</ele>
        <time>2018-05-28T07:09:23Z</time>
      </trkpt>
      <trkpt lat="41.785014001652598" lon="-2.54530998878181">
        <ele>1084.5999999999999</ele>
        <time>2018-05-28T07:09:31Z</time>
      </trkpt>
      <trkpt lat="41.784955998882651" lon="-2.545183002948761">
        <ele>1084.3</ele>
        <time>2018-05-28T07:09:34Z</time>
      </trkpt>
      <trkpt lat="41.784877041354775" lon="-2.544997008517385">
        <ele>1083.8</ele>
        <time>2018-05-28T07:09:39Z</time>
      </trkpt>
      <trkpt lat="41.784810991957784" lon="-2.54481503739953">
        <ele>1083.3</ele>
        <time>2018-05-28T07:09:44Z</time>
      </trkpt>
      <trkpt lat="41.784713007509708" lon="-2.54447003826499">
        <ele>1082.7</ele>
        <time>2018-05-28T07:09:52Z</time>
      </trkpt>
      <trkpt lat="41.78465198725462" lon="-2.54408597946167">
        <ele>1082.8</ele>
        <time>2018-05-28T07:10:00Z</time>
      </trkpt>
      <trkpt lat="41.784615023061633" lon="-2.543746009469032">
        <ele>1082.9000000000001</ele>
        <time>2018-05-28T07:10:08Z</time>
      </trkpt>
      <trkpt lat="41.784588033333421" lon="-2.543164975941181">
        <ele>1083</ele>
        <time>2018-05-28T07:10:21Z</time>
      </trkpt>
      <trkpt lat="41.784634971991181" lon="-2.542552007362247">
        <ele>1083.3</ele>
        <time>2018-05-28T07:10:34Z</time>
      </trkpt>
      <trkpt lat="41.78469498641789" lon="-2.542231986299157">
        <ele>1083.4000000000001</ele>
        <time>2018-05-28T07:10:42Z</time>
      </trkpt>
      <trkpt lat="41.784764975309372" lon="-2.541922023519874">
        <ele>1084.4000000000001</ele>
        <time>2018-05-28T07:10:49Z</time>
      </trkpt>
      <trkpt lat="41.784819038584828" lon="-2.541740974411368">
        <ele>1085.3</ele>
        <time>2018-05-28T07:10:53Z</time>
      </trkpt>
      <trkpt lat="41.78493001498282" lon="-2.54146202467382">
        <ele>1086.3</ele>
        <time>2018-05-28T07:11:00Z</time>
      </trkpt>
      <trkpt lat="41.784978965297341" lon="-2.54133302718401">
        <ele>1086.7</ele>
        <time>2018-05-28T07:11:03Z</time>
      </trkpt>
      <trkpt lat="41.785035040229559" lon="-2.541206041350961">
        <ele>1086.8</ele>
        <time>2018-05-28T07:11:07Z</time>
      </trkpt>
      <trkpt lat="41.785121038556099" lon="-2.541001019999385">
        <ele>1086.5</ele>
        <time>2018-05-28T07:11:12Z</time>
      </trkpt>
      <trkpt lat="41.785165965557098" lon="-2.540894988924265">
        <ele>1086.4000000000001</ele>
        <time>2018-05-28T07:11:15Z</time>
      </trkpt>
      <trkpt lat="41.785208964720368" lon="-2.540783006697893">
        <ele>1086.3</ele>
        <time>2018-05-28T07:11:17Z</time>
      </trkpt>
      <trkpt lat="41.785419015213847" lon="-2.540274979546666">
        <ele>1086.5</ele>
        <time>2018-05-28T07:11:30Z</time>
      </trkpt>
      <trkpt lat="41.785439969971776" lon="-2.54021898843348">
        <ele>1086.5999999999999</ele>
        <time>2018-05-28T07:11:32Z</time>
      </trkpt>
      <trkpt lat="41.785595035180449" lon="-2.539704004302621">
        <ele>1087.8</ele>
        <time>2018-05-28T07:11:44Z</time>
      </trkpt>
      <trkpt lat="41.78568203933537" lon="-2.539291027933359">
        <ele>1089.8</ele>
        <time>2018-05-28T07:11:53Z</time>
      </trkpt>
      <trkpt lat="41.785687990486622" lon="-2.539238976314664">
        <ele>1090.0999999999999</ele>
        <time>2018-05-28T07:11:55Z</time>
      </trkpt>
      <trkpt lat="41.785711040720344" lon="-2.53892901353538">
        <ele>1091.9000000000001</ele>
        <time>2018-05-28T07:12:01Z</time>
      </trkpt>
      <trkpt lat="41.785725960507989" lon="-2.538590971380472">
        <ele>1092.9000000000001</ele>
        <time>2018-05-28T07:12:09Z</time>
      </trkpt>
      <trkpt lat="41.785706011578441" lon="-2.538315039128065">
        <ele>1093</ele>
        <time>2018-05-28T07:12:15Z</time>
      </trkpt>
      <trkpt lat="41.785696959123015" lon="-2.538206996396184">
        <ele>1093</ele>
        <time>2018-05-28T07:12:17Z</time>
      </trkpt>
      <trkpt lat="41.785673992708325" lon="-2.537967022508383">
        <ele>1093.0999999999999</ele>
        <time>2018-05-28T07:12:23Z</time>
      </trkpt>
      <trkpt lat="41.785623030737042" lon="-2.537609031423926">
        <ele>1091.8</ele>
        <time>2018-05-28T07:12:31Z</time>
      </trkpt>
      <trkpt lat="41.785613978281617" lon="-2.537553040310741">
        <ele>1091.5</ele>
        <time>2018-05-28T07:12:32Z</time>
      </trkpt>
      <trkpt lat="41.785558992996812" lon="-2.537348018959165">
        <ele>1090.8</ele>
        <time>2018-05-28T07:12:37Z</time>
      </trkpt>
      <trkpt lat="41.785481963306665" lon="-2.537077032029629">
        <ele>1089.7</ele>
        <time>2018-05-28T07:12:43Z</time>
      </trkpt>
      <trkpt lat="41.785393031314015" lon="-2.536834962666035">
        <ele>1088.2</ele>
        <time>2018-05-28T07:12:49Z</time>
      </trkpt>
      <trkpt lat="41.785190021619201" lon="-2.536391979083419">
        <ele>1085.3</ele>
        <time>2018-05-28T07:13:01Z</time>
      </trkpt>
      <trkpt lat="41.784979971125722" lon="-2.536004986613989">
        <ele>1083.8</ele>
        <time>2018-05-28T07:13:11Z</time>
      </trkpt>
      <trkpt lat="41.784946024417877" lon="-2.535940026864409">
        <ele>1083.7</ele>
        <time>2018-05-28T07:13:13Z</time>
      </trkpt>
      <trkpt lat="41.78467595949769" lon="-2.535451026633382">
        <ele>1082.9000000000001</ele>
        <time>2018-05-28T07:13:27Z</time>
      </trkpt>
      <trkpt lat="41.784537993371487" lon="-2.535184985026717">
        <ele>1082.8</ele>
        <time>2018-05-28T07:13:34Z</time>
      </trkpt>
      <trkpt lat="41.78447999060154" lon="-2.535063028335571">
        <ele>1082.8</ele>
        <time>2018-05-28T07:13:37Z</time>
      </trkpt>
      <trkpt lat="41.784382006153464" lon="-2.534875022247434">
        <ele>1082.7</ele>
        <time>2018-05-28T07:13:42Z</time>
      </trkpt>
      <trkpt lat="41.784312017261982" lon="-2.534749964252114">
        <ele>1082.5999999999999</ele>
        <time>2018-05-28T07:13:45Z</time>
      </trkpt>
      <trkpt lat="41.784011023119092" lon="-2.53424596041441">
        <ele>1081.3</ele>
        <time>2018-05-28T07:14:00Z</time>
      </trkpt>
      <trkpt lat="41.783678010106087" lon="-2.533796019852161">
        <ele>1079.5999999999999</ele>
        <time>2018-05-28T07:14:14Z</time>
      </trkpt>
      <trkpt lat="41.783539038151503" lon="-2.533639026805759">
        <ele>1080.4000000000001</ele>
        <time>2018-05-28T07:14:19Z</time>
      </trkpt>
      <trkpt lat="41.783284982666373" lon="-2.533421013504267">
        <ele>1082</ele>
        <time>2018-05-28T07:14:28Z</time>
      </trkpt>
      <trkpt lat="41.783077027648687" lon="-2.533294027671218">
        <ele>1083.0999999999999</ele>
        <time>2018-05-28T07:14:35Z</time>
      </trkpt>
      <trkpt lat="41.782920034602284" lon="-2.533210963010788">
        <ele>1084</ele>
        <time>2018-05-28T07:14:40Z</time>
      </trkpt>
      <trkpt lat="41.782660027965903" lon="-2.533104009926319">
        <ele>1084</ele>
        <time>2018-05-28T07:14:48Z</time>
      </trkpt>
      <trkpt lat="41.782245961949229" lon="-2.532994961366057">
        <ele>1084</ele>
        <time>2018-05-28T07:15:00Z</time>
      </trkpt>
      <trkpt lat="41.781823011115193" lon="-2.532962020486593">
        <ele>1082.8</ele>
        <time>2018-05-28T07:15:13Z</time>
      </trkpt>
      <trkpt lat="41.781312972307205" lon="-2.532961014658213">
        <ele>1080.4000000000001</ele>
        <time>2018-05-28T07:15:28Z</time>
      </trkpt>
      <trkpt lat="41.781112980097532" lon="-2.532960008829832">
        <ele>1079.9000000000001</ele>
        <time>2018-05-28T07:15:34Z</time>
      </trkpt>
      <trkpt lat="41.780917011201382" lon="-2.532964032143354">
        <ele>1079.5999999999999</ele>
        <time>2018-05-28T07:15:40Z</time>
      </trkpt>
      <trkpt lat="41.780413007363677" lon="-2.532931007444859">
        <ele>1079</ele>
        <time>2018-05-28T07:15:55Z</time>
      </trkpt>
      <trkpt lat="41.780039006844163" lon="-2.532844003289938">
        <ele>1078.3</ele>
        <time>2018-05-28T07:16:06Z</time>
      </trkpt>
      <trkpt lat="41.779977986589074" lon="-2.532824976369739">
        <ele>1078.2</ele>
        <time>2018-05-28T07:16:08Z</time>
      </trkpt>
      <trkpt lat="41.779743963852525" lon="-2.532746018841863">
        <ele>1077.7</ele>
        <time>2018-05-28T07:16:15Z</time>
      </trkpt>
      <trkpt lat="41.779507007449865" lon="-2.532652979716659">
        <ele>1077.2</ele>
        <time>2018-05-28T07:16:22Z</time>
      </trkpt>
      <trkpt lat="41.779424026608467" lon="-2.532641999423504">
        <ele>1077.0999999999999</ele>
        <time>2018-05-28T07:16:25Z</time>
      </trkpt>
      <trkpt lat="41.779421009123325" lon="-2.532640993595123">
        <ele>1077.0999999999999</ele>
        <time>2018-05-28T07:16:25Z</time>
      </trkpt>
      <trkpt lat="41.779377004131675" lon="-2.532602017745376">
        <ele>1076.9000000000001</ele>
        <time>2018-05-28T07:16:26Z</time>
      </trkpt>
      <trkpt lat="41.779329981654882" lon="-2.532579973340035">
        <ele>1076.8</ele>
        <time>2018-05-28T07:16:28Z</time>
      </trkpt>
      <trkpt lat="41.779155973345041" lon="-2.532472014427185">
        <ele>1076.0999999999999</ele>
        <time>2018-05-28T07:16:34Z</time>
      </trkpt>
      <trkpt lat="41.779113980010152" lon="-2.532438989728689">
        <ele>1076</ele>
        <time>2018-05-28T07:16:35Z</time>
      </trkpt>
      <trkpt lat="41.77882899530232" lon="-2.532258024439216">
        <ele>1074.8</ele>
        <time>2018-05-28T07:16:44Z</time>
      </trkpt>
      <trkpt lat="41.778779961168766" lon="-2.532219970598817">
        <ele>1074.5999999999999</ele>
        <time>2018-05-28T07:16:46Z</time>
      </trkpt>
      <trkpt lat="41.778477039188147" lon="-2.532012015581131">
        <ele>1074.8</ele>
        <time>2018-05-28T07:16:56Z</time>
      </trkpt>
      <trkpt lat="41.778423981741071" lon="-2.53196801058948">
        <ele>1074.8</ele>
        <time>2018-05-28T07:16:58Z</time>
      </trkpt>
      <trkpt lat="41.778218038380146" lon="-2.531770030036569">
        <ele>1074.9000000000001</ele>
        <time>2018-05-28T07:17:06Z</time>
      </trkpt>
      <trkpt lat="41.778060961514711" lon="-2.531610019505024">
        <ele>1074.9000000000001</ele>
        <time>2018-05-28T07:17:11Z</time>
      </trkpt>
      <trkpt lat="41.777911009266973" lon="-2.531454032287002">
        <ele>1074.7</ele>
        <time>2018-05-28T07:17:17Z</time>
      </trkpt>
      <trkpt lat="41.777721997350454" lon="-2.531233001500368">
        <ele>1074.4000000000001</ele>
        <time>2018-05-28T07:17:24Z</time>
      </trkpt>
      <trkpt lat="41.77754295989871" lon="-2.531004007905722">
        <ele>1074.3</ele>
        <time>2018-05-28T07:17:32Z</time>
      </trkpt>
      <trkpt lat="41.77741102874279" lon="-2.530809966847301">
        <ele>1074.2</ele>
        <time>2018-05-28T07:17:38Z</time>
      </trkpt>
      <trkpt lat="41.777320001274347" lon="-2.530676024034619">
        <ele>1074.0999999999999</ele>
        <time>2018-05-28T07:17:42Z</time>
      </trkpt>
      <trkpt lat="41.777119003236294" lon="-2.53033597022295">
        <ele>1073.8</ele>
        <time>2018-05-28T07:17:51Z</time>
      </trkpt>
      <trkpt lat="41.777020012959838" lon="-2.530134972184897">
        <ele>1073.9000000000001</ele>
        <time>2018-05-28T07:17:56Z</time>
      </trkpt>
      <trkpt lat="41.776951029896736" lon="-2.529992982745171">
        <ele>1074</ele>
        <time>2018-05-28T07:18:00Z</time>
      </trkpt>
      <trkpt lat="41.776850027963519" lon="-2.529778992757201">
        <ele>1074.0999999999999</ele>
        <time>2018-05-28T07:18:06Z</time>
      </trkpt>
      <trkpt lat="41.776694040745497" lon="-2.529413038864732">
        <ele>1073.9000000000001</ele>
        <time>2018-05-28T07:18:15Z</time>
      </trkpt>
      <trkpt lat="41.776526989415288" lon="-2.528957985341549">
        <ele>1073.3</ele>
        <time>2018-05-28T07:18:26Z</time>
      </trkpt>
      <trkpt lat="41.776405032724142" lon="-2.528561018407345">
        <ele>1072.8</ele>
        <time>2018-05-28T07:18:36Z</time>
      </trkpt>
      <trkpt lat="41.776320962235332" lon="-2.528239991515875">
        <ele>1072.4000000000001</ele>
        <time>2018-05-28T07:18:43Z</time>
      </trkpt>
      <trkpt lat="41.776177966967225" lon="-2.527564996853471">
        <ele>1071.5999999999999</ele>
        <time>2018-05-28T07:18:59Z</time>
      </trkpt>
      <trkpt lat="41.776161035522819" lon="-2.527475981041789">
        <ele>1071.5999999999999</ele>
        <time>2018-05-28T07:19:01Z</time>
      </trkpt>
      <trkpt lat="41.776091968640685" lon="-2.527032997459173">
        <ele>1071.7</ele>
        <time>2018-05-28T07:19:11Z</time>
      </trkpt>
      <trkpt lat="41.776069002225995" lon="-2.52685303799808">
        <ele>1072.4000000000001</ele>
        <time>2018-05-28T07:19:15Z</time>
      </trkpt>
      <trkpt lat="41.776019968092442" lon="-2.526207966729999">
        <ele>1074.5</ele>
        <time>2018-05-28T07:19:29Z</time>
      </trkpt>
      <trkpt lat="41.776018962264061" lon="-2.525535989552736">
        <ele>1075.5</ele>
        <time>2018-05-28T07:19:44Z</time>
      </trkpt>
      <trkpt lat="41.776019968092442" lon="-2.525343038141727">
        <ele>1075.8</ele>
        <time>2018-05-28T07:19:48Z</time>
      </trkpt>
      <trkpt lat="41.77603798918426" lon="-2.524863006547093">
        <ele>1075.8</ele>
        <time>2018-05-28T07:19:59Z</time>
      </trkpt>
      <trkpt lat="41.776043018326163" lon="-2.52476803958416">
        <ele>1075.8</ele>
        <time>2018-05-28T07:20:01Z</time>
      </trkpt>
      <trkpt lat="41.776064978912473" lon="-2.524110982194543">
        <ele>1075.2</ele>
        <time>2018-05-28T07:20:16Z</time>
      </trkpt>
      <trkpt lat="41.776066990569234" lon="-2.524020038545132">
        <ele>1075.0999999999999</ele>
        <time>2018-05-28T07:20:18Z</time>
      </trkpt>
      <trkpt lat="41.776065984740853" lon="-2.523257033899427">
        <ele>1073.9000000000001</ele>
        <time>2018-05-28T07:20:34Z</time>
      </trkpt>
      <trkpt lat="41.776055004447699" lon="-2.5231599714607">
        <ele>1073.8</ele>
        <time>2018-05-28T07:20:37Z</time>
      </trkpt>
      <trkpt lat="41.776028014719486" lon="-2.522967020049691">
        <ele>1073.8</ele>
        <time>2018-05-28T07:20:41Z</time>
      </trkpt>
      <trkpt lat="41.775930030271411" lon="-2.522508027032018">
        <ele>1072.2</ele>
        <time>2018-05-28T07:20:52Z</time>
      </trkpt>
      <trkpt lat="41.775815030559897" lon="-2.522101001814008">
        <ele>1070.2</ele>
        <time>2018-05-28T07:21:01Z</time>
      </trkpt>
      <trkpt lat="41.775784017518163" lon="-2.522023972123861">
        <ele>1069.7</ele>
        <time>2018-05-28T07:21:03Z</time>
      </trkpt>
      <trkpt lat="41.77560799755156" lon="-2.521633040159941">
        <ele>1066.3</ele>
        <time>2018-05-28T07:21:13Z</time>
      </trkpt>
      <trkpt lat="41.775529962033033" lon="-2.521479986608028">
        <ele>1064.7</ele>
        <time>2018-05-28T07:21:17Z</time>
      </trkpt>
      <trkpt lat="41.775309015065432" lon="-2.521097017452121">
        <ele>1061.9000000000001</ele>
        <time>2018-05-28T07:21:28Z</time>
      </trkpt>
      <trkpt lat="41.775079015642405" lon="-2.520718993619084">
        <ele>1060.5999999999999</ele>
        <time>2018-05-28T07:21:39Z</time>
      </trkpt>
      <trkpt lat="41.775032998993993" lon="-2.520643975585699">
        <ele>1060.3</ele>
        <time>2018-05-28T07:21:41Z</time>
      </trkpt>
      <trkpt lat="41.77474700845778" lon="-2.520110970363021">
        <ele>1058</ele>
        <time>2018-05-28T07:21:56Z</time>
      </trkpt>
      <trkpt lat="41.774666961282492" lon="-2.519954983144999">
        <ele>1057</ele>
        <time>2018-05-28T07:22:00Z</time>
      </trkpt>
      <trkpt lat="41.774540981277823" lon="-2.519610989838839">
        <ele>1054.0999999999999</ele>
        <time>2018-05-28T07:22:08Z</time>
      </trkpt>
      <trkpt lat="41.774484990164638" lon="-2.519444022327662">
        <ele>1053.7</ele>
        <time>2018-05-28T07:22:12Z</time>
      </trkpt>
      <trkpt lat="41.774432016536593" lon="-2.519263979047537">
        <ele>1053.5</ele>
        <time>2018-05-28T07:22:17Z</time>
      </trkpt>
      <trkpt lat="41.774407960474491" lon="-2.519172029569745">
        <ele>1053.4000000000001</ele>
        <time>2018-05-28T07:22:19Z</time>
      </trkpt>
      <trkpt lat="41.774330008774996" lon="-2.518590996041894">
        <ele>1051.9000000000001</ele>
        <time>2018-05-28T07:22:32Z</time>
      </trkpt>
      <trkpt lat="41.774318022653461" lon="-2.517861016094685">
        <ele>1048.4000000000001</ele>
        <time>2018-05-28T07:22:48Z</time>
      </trkpt>
      <trkpt lat="41.774344006553292" lon="-2.517339996993542">
        <ele>1048.5</ele>
        <time>2018-05-28T07:22:59Z</time>
      </trkpt>
      <trkpt lat="41.774348029866815" lon="-2.517253998667002">
        <ele>1048.5999999999999</ele>
        <time>2018-05-28T07:23:01Z</time>
      </trkpt>
      <trkpt lat="41.774366972967982" lon="-2.516665002331138">
        <ele>1048.7</ele>
        <time>2018-05-28T07:23:14Z</time>
      </trkpt>
      <trkpt lat="41.774341994896531" lon="-2.516147000715137">
        <ele>1048.4000000000001</ele>
        <time>2018-05-28T07:23:26Z</time>
      </trkpt>
      <trkpt lat="41.774319028481841" lon="-2.515967963263392">
        <ele>1048</ele>
        <time>2018-05-28T07:23:30Z</time>
      </trkpt>
      <trkpt lat="41.774191958829761" lon="-2.515353988856077">
        <ele>1046.5999999999999</ele>
        <time>2018-05-28T07:23:44Z</time>
      </trkpt>
      <trkpt lat="41.774110989645123" lon="-2.515094988048077">
        <ele>1046.5</ele>
        <time>2018-05-28T07:23:50Z</time>
      </trkpt>
      <trkpt lat="41.774046029895544" lon="-2.514923997223377">
        <ele>1046.4000000000001</ele>
        <time>2018-05-28T07:23:54Z</time>
      </trkpt>
      <trkpt lat="41.774009987711906" lon="-2.51484202221036">
        <ele>1046.4000000000001</ele>
        <time>2018-05-28T07:23:57Z</time>
      </trkpt>
      <trkpt lat="41.77371796220541" lon="-2.514309016987681">
        <ele>1045.9000000000001</ele>
        <time>2018-05-28T07:24:11Z</time>
      </trkpt>
      <trkpt lat="41.773415962234139" lon="-2.513913977891207">
        <ele>1045.0999999999999</ele>
        <time>2018-05-28T07:24:24Z</time>
      </trkpt>
      <trkpt lat="41.773359971120954" lon="-2.513853963464499">
        <ele>1045</ele>
        <time>2018-05-28T07:24:26Z</time>
      </trkpt>
      <trkpt lat="41.772936014458537" lon="-2.513479040935636">
        <ele>1044.4000000000001</ele>
        <time>2018-05-28T07:24:41Z</time>
      </trkpt>
      <trkpt lat="41.772681036964059" lon="-2.51327401958406">
        <ele>1043.7</ele>
        <time>2018-05-28T07:24:50Z</time>
      </trkpt>
      <trkpt lat="41.772494036704302" lon="-2.513128006830812">
        <ele>1043.2</ele>
        <time>2018-05-28T07:24:56Z</time>
      </trkpt>
      <trkpt lat="41.772240987047553" lon="-2.512936983257532">
        <ele>1042.5</ele>
        <time>2018-05-28T07:25:05Z</time>
      </trkpt>
      <trkpt lat="41.772052980959415" lon="-2.512803040444851">
        <ele>1041.9000000000001</ele>
        <time>2018-05-28T07:25:11Z</time>
      </trkpt>
      <trkpt lat="41.771927000954747" lon="-2.51271796412766">
        <ele>1041.7</ele>
        <time>2018-05-28T07:25:15Z</time>
      </trkpt>
      <trkpt lat="41.771537996828556" lon="-2.512516966089606">
        <ele>1041</ele>
        <time>2018-05-28T07:25:27Z</time>
      </trkpt>
      <trkpt lat="41.771472031250596" lon="-2.512490982189775">
        <ele>1040.9000000000001</ele>
        <time>2018-05-28T07:25:29Z</time>
      </trkpt>
      <trkpt lat="41.771404976025224" lon="-2.512467009946704">
        <ele>1040.8</ele>
        <time>2018-05-28T07:25:32Z</time>
      </trkpt>
      <trkpt lat="41.771068023517728" lon="-2.512387968599796">
        <ele>1040.7</ele>
        <time>2018-05-28T07:25:42Z</time>
      </trkpt>
      <trkpt lat="41.770998034626245" lon="-2.512377994135022">
        <ele>1040.8</ele>
        <time>2018-05-28T07:25:44Z</time>
      </trkpt>
      <trkpt lat="41.77051599137485" lon="-2.512377994135022">
        <ele>1041</ele>
        <time>2018-05-28T07:25:58Z</time>
      </trkpt>
      <trkpt lat="41.7703009955585" lon="-2.512411018833518">
        <ele>1040.5999999999999</ele>
        <time>2018-05-28T07:26:04Z</time>
      </trkpt>
      <trkpt lat="41.77023402415216" lon="-2.51241797581315">
        <ele>1040.4000000000001</ele>
        <time>2018-05-28T07:26:06Z</time>
      </trkpt>
      <trkpt lat="41.770093040540814" lon="-2.512432979419828">
        <ele>1040</ele>
        <time>2018-05-28T07:26:11Z</time>
      </trkpt>
      <trkpt lat="41.769659025594592" lon="-2.51250397413969">
        <ele>1038.7</ele>
        <time>2018-05-28T07:26:24Z</time>
      </trkpt>
      <trkpt lat="41.769213024526834" lon="-2.512573041021824">
        <ele>1038.7</ele>
        <time>2018-05-28T07:26:37Z</time>
      </trkpt>
      <trkpt lat="41.769135994836688" lon="-2.512583015486598">
        <ele>1038.7</ele>
        <time>2018-05-28T07:26:39Z</time>
      </trkpt>
      <trkpt lat="41.768598966300488" lon="-2.512669013813138">
        <ele>1038.5</ele>
        <time>2018-05-28T07:26:55Z</time>
      </trkpt>
      <trkpt lat="41.768449014052749" lon="-2.512693991884589">
        <ele>1037.9000000000001</ele>
        <time>2018-05-28T07:27:00Z</time>
      </trkpt>
      <trkpt lat="41.768375001847744" lon="-2.512706983834505">
        <ele>1037.7</ele>
        <time>2018-05-28T07:27:02Z</time>
      </trkpt>
      <trkpt lat="41.767866974696517" lon="-2.512748977169395">
        <ele>1035.7</ele>
        <time>2018-05-28T07:27:17Z</time>
      </trkpt>
      <trkpt lat="41.767297005280852" lon="-2.512688962742686">
        <ele>1034.2</ele>
        <time>2018-05-28T07:27:34Z</time>
      </trkpt>
      <trkpt lat="41.767088966444135" lon="-2.512616040185094">
        <ele>1033.7</ele>
        <time>2018-05-28T07:27:40Z</time>
      </trkpt>
      <trkpt lat="41.766889980062842" lon="-2.51252300105989">
        <ele>1034.0999999999999</ele>
        <time>2018-05-28T07:27:47Z</time>
      </trkpt>
      <trkpt lat="41.76658202894032" lon="-2.512328960001469">
        <ele>1034.9000000000001</ele>
        <time>2018-05-28T07:27:57Z</time>
      </trkpt>
      <trkpt lat="41.766523020341992" lon="-2.51228797249496">
        <ele>1035.0999999999999</ele>
        <time>2018-05-28T07:27:59Z</time>
      </trkpt>
      <trkpt lat="41.766189001500607" lon="-2.51198697835207">
        <ele>1036.5999999999999</ele>
        <time>2018-05-28T07:28:11Z</time>
      </trkpt>
      <trkpt lat="41.765893958508968" lon="-2.511618006974459">
        <ele>1038.4000000000001</ele>
        <time>2018-05-28T07:28:23Z</time>
      </trkpt>
      <trkpt lat="41.765849031507969" lon="-2.511552963405848">
        <ele>1038.5</ele>
        <time>2018-05-28T07:28:24Z</time>
      </trkpt>
      <trkpt lat="41.765694972127676" lon="-2.511270996183157">
        <ele>1038.0999999999999</ele>
        <time>2018-05-28T07:28:32Z</time>
      </trkpt>
      <trkpt lat="41.76565800793469" lon="-2.511200001463294">
        <ele>1038</ele>
        <time>2018-05-28T07:28:34Z</time>
      </trkpt>
      <trkpt lat="41.765620037913322" lon="-2.51112699508667">
        <ele>1038</ele>
        <time>2018-05-28T07:28:36Z</time>
      </trkpt>
      <trkpt lat="41.765449969097972" lon="-2.510745031759143">
        <ele>1037.2</ele>
        <time>2018-05-28T07:28:46Z</time>
      </trkpt>
      <trkpt lat="41.765350978821516" lon="-2.510511009022594">
        <ele>1036.5999999999999</ele>
        <time>2018-05-28T07:28:52Z</time>
      </trkpt>
      <trkpt lat="41.765088960528374" lon="-2.509873984381557">
        <ele>1036.8</ele>
        <time>2018-05-28T07:29:08Z</time>
      </trkpt>
      <trkpt lat="41.76494998857379" lon="-2.509562009945512">
        <ele>1037.2</ele>
        <time>2018-05-28T07:29:16Z</time>
      </trkpt>
      <trkpt lat="41.764915036037564" lon="-2.509484980255365">
        <ele>1037.2</ele>
        <time>2018-05-28T07:29:18Z</time>
      </trkpt>
      <trkpt lat="41.764806993305683" lon="-2.509252969175577">
        <ele>1037.0999999999999</ele>
        <time>2018-05-28T07:29:24Z</time>
      </trkpt>
      <trkpt lat="41.764600966125727" lon="-2.50889103859663">
        <ele>1036.5</ele>
        <time>2018-05-28T07:29:34Z</time>
      </trkpt>
      <trkpt lat="41.764467023313046" lon="-2.508690962567926">
        <ele>1036.2</ele>
        <time>2018-05-28T07:29:40Z</time>
      </trkpt>
      <trkpt lat="41.764329979196191" lon="-2.508507985621691">
        <ele>1035.8</ele>
        <time>2018-05-28T07:29:46Z</time>
      </trkpt>
      <trkpt lat="41.764075001701713" lon="-2.50822501257062">
        <ele>1034.8</ele>
        <time>2018-05-28T07:29:56Z</time>
      </trkpt>
      <trkpt lat="41.764023033902049" lon="-2.508173966780305">
        <ele>1034.5</ele>
        <time>2018-05-28T07:29:57Z</time>
      </trkpt>
      <trkpt lat="41.763805020600557" lon="-2.507967017591">
        <ele>1033.3</ele>
        <time>2018-05-28T07:30:05Z</time>
      </trkpt>
      <trkpt lat="41.763583989813924" lon="-2.507760990411043">
        <ele>1032.5999999999999</ele>
        <time>2018-05-28T07:30:13Z</time>
      </trkpt>
      <trkpt lat="41.7631880287081" lon="-2.507418002933264">
        <ele>1031.9000000000001</ele>
        <time>2018-05-28T07:30:27Z</time>
      </trkpt>
      <trkpt lat="41.762902038171887" lon="-2.507170988246799">
        <ele>1031.3</ele>
        <time>2018-05-28T07:30:37Z</time>
      </trkpt>
      <trkpt lat="41.762513034045696" lon="-2.506826994940639">
        <ele>1030.4000000000001</ele>
        <time>2018-05-28T07:30:51Z</time>
      </trkpt>
      <trkpt lat="41.76245897077024" lon="-2.506778966635466">
        <ele>1030.2</ele>
        <time>2018-05-28T07:30:53Z</time>
      </trkpt>
      <trkpt lat="41.762021016329527" lon="-2.506397003307939">
        <ele>1029.2</ele>
        <time>2018-05-28T07:31:09Z</time>
      </trkpt>
      <trkpt lat="41.761966031044722" lon="-2.506348975002766">
        <ele>1029.0999999999999</ele>
        <time>2018-05-28T07:31:11Z</time>
      </trkpt>
      <trkpt lat="41.761496979743242" lon="-2.505899034440517">
        <ele>1028.7</ele>
        <time>2018-05-28T07:31:28Z</time>
      </trkpt>
      <trkpt lat="41.76144802942872" lon="-2.505844971165061">
        <ele>1028.5999999999999</ele>
        <time>2018-05-28T07:31:30Z</time>
      </trkpt>
      <trkpt lat="41.761074028909206" lon="-2.505379021167755">
        <ele>1028.5999999999999</ele>
        <time>2018-05-28T07:31:45Z</time>
      </trkpt>
      <trkpt lat="41.76071897149086" lon="-2.504782984033227">
        <ele>1028.2</ele>
        <time>2018-05-28T07:32:02Z</time>
      </trkpt>
      <trkpt lat="41.760440021753311" lon="-2.504125004634261">
        <ele>1028</ele>
        <time>2018-05-28T07:32:18Z</time>
      </trkpt>
      <trkpt lat="41.760248998180032" lon="-2.503426959738135">
        <ele>1032</ele>
        <time>2018-05-28T07:32:35Z</time>
      </trkpt>
      <trkpt lat="41.760171968489885" lon="-2.502937959507108">
        <ele>1034.2</ele>
        <time>2018-05-28T07:32:46Z</time>
      </trkpt>
      <trkpt lat="41.760165011510253" lon="-2.50285497866571">
        <ele>1034.3</ele>
        <time>2018-05-28T07:32:48Z</time>
      </trkpt>
      <trkpt lat="41.760131986811757" lon="-2.502434961497784">
        <ele>1034.3</ele>
        <time>2018-05-28T07:32:57Z</time>
      </trkpt>
      <trkpt lat="41.760113965719938" lon="-2.501784022897482">
        <ele>1033.4000000000001</ele>
        <time>2018-05-28T07:33:11Z</time>
      </trkpt>
      <trkpt lat="41.760126035660505" lon="-2.501055970788002">
        <ele>1031.5</ele>
        <time>2018-05-28T07:33:27Z</time>
      </trkpt>
      <trkpt lat="41.760122012346983" lon="-2.500418024137616">
        <ele>1030</ele>
        <time>2018-05-28T07:33:42Z</time>
      </trkpt>
      <trkpt lat="41.760112959891558" lon="-2.500178972259164">
        <ele>1029.7</ele>
        <time>2018-05-28T07:33:47Z</time>
      </trkpt>
      <trkpt lat="41.760077001526952" lon="-2.499856017529964">
        <ele>1029.3</ele>
        <time>2018-05-28T07:33:54Z</time>
      </trkpt>
      <trkpt lat="41.759971976280212" lon="-2.499376991763711">
        <ele>1028.5999999999999</ele>
        <time>2018-05-28T07:34:05Z</time>
      </trkpt>
      <trkpt lat="41.759924031794071" lon="-2.499167025089264">
        <ele>1028.0999999999999</ele>
        <time>2018-05-28T07:34:10Z</time>
      </trkpt>
      <trkpt lat="41.759898969903588" lon="-2.49909401871264">
        <ele>1027.9000000000001</ele>
        <time>2018-05-28T07:34:12Z</time>
      </trkpt>
      <trkpt lat="41.759720016270876" lon="-2.498682970181108">
        <ele>1026.5999999999999</ele>
        <time>2018-05-28T07:34:22Z</time>
      </trkpt>
      <trkpt lat="41.759480964392424" lon="-2.498269993811846">
        <ele>1026.5999999999999</ele>
        <time>2018-05-28T07:34:34Z</time>
      </trkpt>
      <trkpt lat="41.759139988571405" lon="-2.497830027714372">
        <ele>1027.2</ele>
        <time>2018-05-28T07:34:48Z</time>
      </trkpt>
      <trkpt lat="41.758687030524015" lon="-2.497338009998202">
        <ele>1027.8</ele>
        <time>2018-05-28T07:35:05Z</time>
      </trkpt>
      <trkpt lat="41.758642019703984" lon="-2.497292999178171">
        <ele>1027.9000000000001</ele>
        <time>2018-05-28T07:35:07Z</time>
      </trkpt>
      <trkpt lat="41.758554009720683" lon="-2.497199960052967">
        <ele>1027.9000000000001</ele>
        <time>2018-05-28T07:35:10Z</time>
      </trkpt>
      <trkpt lat="41.758356029167771" lon="-2.496978007256985">
        <ele>1027.8</ele>
        <time>2018-05-28T07:35:18Z</time>
      </trkpt>
      <trkpt lat="41.758238011971116" lon="-2.496828977018595">
        <ele>1027.7</ele>
        <time>2018-05-28T07:35:23Z</time>
      </trkpt>
      <trkpt lat="41.758163999766111" lon="-2.496723029762507">
        <ele>1027.5</ele>
        <time>2018-05-28T07:35:26Z</time>
      </trkpt>
      <trkpt lat="41.758128963410854" lon="-2.49666603282094">
        <ele>1027.3</ele>
        <time>2018-05-28T07:35:27Z</time>
      </trkpt>
      <trkpt lat="41.757894018664956" lon="-2.496263030916452">
        <ele>1025</ele>
        <time>2018-05-28T07:35:39Z</time>
      </trkpt>
      <trkpt lat="41.757672987878323" lon="-2.495717033743858">
        <ele>1025.3</ele>
        <time>2018-05-28T07:35:52Z</time>
      </trkpt>
      <trkpt lat="41.757533010095358" lon="-2.495125019922853">
        <ele>1024.8</ele>
        <time>2018-05-28T07:36:06Z</time>
      </trkpt>
      <trkpt lat="41.757476013153791" lon="-2.494502998888493">
        <ele>1024.2</ele>
        <time>2018-05-28T07:36:20Z</time>
      </trkpt>
      <trkpt lat="41.757489005103707" lon="-2.493891036137939">
        <ele>1023.6</ele>
        <time>2018-05-28T07:36:34Z</time>
      </trkpt>
      <trkpt lat="41.757530998438597" lon="-2.49322802759707">
        <ele>1023.5</ele>
        <time>2018-05-28T07:36:48Z</time>
      </trkpt>
      <trkpt lat="41.757562011480331" lon="-2.492666020989418">
        <ele>1023.9</ele>
        <time>2018-05-28T07:37:01Z</time>
      </trkpt>
      <trkpt lat="41.757565028965473" lon="-2.492525959387422">
        <ele>1024.2</ele>
        <time>2018-05-28T07:37:04Z</time>
      </trkpt>
      <trkpt lat="41.757567962631583" lon="-2.492387993261218">
        <ele>1024.4000000000001</ele>
        <time>2018-05-28T07:37:07Z</time>
      </trkpt>
      <trkpt lat="41.757567040622234" lon="-2.491941992193461">
        <ele>1025</ele>
        <time>2018-05-28T07:37:17Z</time>
      </trkpt>
      <trkpt lat="41.757553964853287" lon="-2.491666981950402">
        <ele>1025.0999999999999</ele>
        <time>2018-05-28T07:37:23Z</time>
      </trkpt>
      <trkpt lat="41.757542984560132" lon="-2.491494985297322">
        <ele>1025.2</ele>
        <time>2018-05-28T07:37:27Z</time>
      </trkpt>
      <trkpt lat="41.757497973740101" lon="-2.491158032789826">
        <ele>1025.3</ele>
        <time>2018-05-28T07:37:34Z</time>
      </trkpt>
      <trkpt lat="41.757487999275327" lon="-2.491102963685989">
        <ele>1025.4000000000001</ele>
        <time>2018-05-28T07:37:35Z</time>
      </trkpt>
      <trkpt lat="41.757433013990521" lon="-2.490817978978157">
        <ele>1025.7</ele>
        <time>2018-05-28T07:37:42Z</time>
      </trkpt>
      <trkpt lat="41.757379034534097" lon="-2.490551015362144">
        <ele>1025.8</ele>
        <time>2018-05-28T07:37:48Z</time>
      </trkpt>
      <trkpt lat="41.757340980693698" lon="-2.49039301648736">
        <ele>1025.8</ele>
        <time>2018-05-28T07:37:52Z</time>
      </trkpt>
      <trkpt lat="41.757320025935769" lon="-2.490288997069001">
        <ele>1025.7</ele>
        <time>2018-05-28T07:37:54Z</time>
      </trkpt>
      <trkpt lat="41.757276020944118" lon="-2.490124963223934">
        <ele>1025.5</ele>
        <time>2018-05-28T07:37:58Z</time>
      </trkpt>
      <trkpt lat="41.757246013730764" lon="-2.490009963512421">
        <ele>1025.4000000000001</ele>
        <time>2018-05-28T07:38:01Z</time>
      </trkpt>
      <trkpt lat="41.75717300735414" lon="-2.489713998511434">
        <ele>1025.5</ele>
        <time>2018-05-28T07:38:08Z</time>
      </trkpt>
      <trkpt lat="41.757159009575844" lon="-2.489659013226628">
        <ele>1025.5</ele>
        <time>2018-05-28T07:38:09Z</time>
      </trkpt>
      <trkpt lat="41.757058007642627" lon="-2.489247964695096">
        <ele>1026.5</ele>
        <time>2018-05-28T07:38:18Z</time>
      </trkpt>
      <trkpt lat="41.757029006257653" lon="-2.489136988297105">
        <ele>1026.8</ele>
        <time>2018-05-28T07:38:21Z</time>
      </trkpt>
      <trkpt lat="41.756932027637959" lon="-2.48873901553452">
        <ele>1028.2</ele>
        <time>2018-05-28T07:38:30Z</time>
      </trkpt>
      <trkpt lat="41.756858015432954" lon="-2.488450007513166">
        <ele>1029.4000000000001</ele>
        <time>2018-05-28T07:38:37Z</time>
      </trkpt>
      <trkpt lat="41.75682901404798" lon="-2.488337019458413">
        <ele>1029.9000000000001</ele>
        <time>2018-05-28T07:38:40Z</time>
      </trkpt>
      <trkpt lat="41.756800012663007" lon="-2.488231994211674">
        <ele>1030.4000000000001</ele>
        <time>2018-05-28T07:38:42Z</time>
      </trkpt>
      <trkpt lat="41.756776040419936" lon="-2.488150019198656">
        <ele>1030.8</ele>
        <time>2018-05-28T07:38:44Z</time>
      </trkpt>
      <trkpt lat="41.756761958822608" lon="-2.488083969801664">
        <ele>1031.0999999999999</ele>
        <time>2018-05-28T07:38:46Z</time>
      </trkpt>
      <trkpt lat="41.756755001842976" lon="-2.48805396258831">
        <ele>1031.2</ele>
        <time>2018-05-28T07:38:46Z</time>
      </trkpt>
      <trkpt lat="41.756676966324449" lon="-2.48779303394258">
        <ele>1032.0999999999999</ele>
        <time>2018-05-28T07:38:52Z</time>
      </trkpt>
      <trkpt lat="41.756552997976542" lon="-2.487443005666137">
        <ele>1032.9000000000001</ele>
        <time>2018-05-28T07:39:01Z</time>
      </trkpt>
      <trkpt lat="41.756369015201926" lon="-2.487025000154972">
        <ele>1033.7</ele>
        <time>2018-05-28T07:39:12Z</time>
      </trkpt>
      <trkpt lat="41.756175979971886" lon="-2.486621998250485">
        <ele>1034.8</ele>
        <time>2018-05-28T07:39:22Z</time>
      </trkpt>
      <trkpt lat="41.756007000803947" lon="-2.486326033249497">
        <ele>1037.4000000000001</ele>
        <time>2018-05-28T07:39:31Z</time>
      </trkpt>
      <trkpt lat="41.755980011075735" lon="-2.486281022429466">
        <ele>1037.8</ele>
        <time>2018-05-28T07:39:32Z</time>
      </trkpt>
      <trkpt lat="41.755953021347523" lon="-2.486232994124293">
        <ele>1038.2</ele>
        <time>2018-05-28T07:39:33Z</time>
      </trkpt>
      <trkpt lat="41.75592502579093" lon="-2.486185971647501">
        <ele>1038.5</ele>
        <time>2018-05-28T07:39:35Z</time>
      </trkpt>
      <trkpt lat="41.755749005824327" lon="-2.485936023294926">
        <ele>1040.3</ele>
        <time>2018-05-28T07:39:42Z</time>
      </trkpt>
      <trkpt lat="41.755656972527504" lon="-2.48581800609827">
        <ele>1041.2</ele>
        <time>2018-05-28T07:39:46Z</time>
      </trkpt>
      <trkpt lat="41.755470978096128" lon="-2.485588006675243">
        <ele>1042.7</ele>
        <time>2018-05-28T07:39:53Z</time>
      </trkpt>
      <trkpt lat="41.755159003660083" lon="-2.485255999490619">
        <ele>1039</ele>
        <time>2018-05-28T07:40:05Z</time>
      </trkpt>
      <trkpt lat="41.754892040044069" lon="-2.484947964549065">
        <ele>1034.7</ele>
        <time>2018-05-28T07:40:16Z</time>
      </trkpt>
      <trkpt lat="41.754517033696175" lon="-2.484521996229887">
        <ele>1030.8</ele>
        <time>2018-05-28T07:40:30Z</time>
      </trkpt>
      <trkpt lat="41.754364985972643" lon="-2.484361985698342">
        <ele>1030.5999999999999</ele>
        <time>2018-05-28T07:40:36Z</time>
      </trkpt>
      <trkpt lat="41.75422802567482" lon="-2.484210021793842">
        <ele>1030.8</ele>
        <time>2018-05-28T07:40:41Z</time>
      </trkpt>
      <trkpt lat="41.753958966583014" lon="-2.483888994902372">
        <ele>1032.4000000000001</ele>
        <time>2018-05-28T07:40:52Z</time>
      </trkpt>
      <trkpt lat="41.753741959109902" lon="-2.483568973839283">
        <ele>1034.2</ele>
        <time>2018-05-28T07:41:02Z</time>
      </trkpt>
      <trkpt lat="41.75358303822577" lon="-2.483263034373522">
        <ele>1034.5999999999999</ele>
        <time>2018-05-28T07:41:10Z</time>
      </trkpt>
      <trkpt lat="41.753556970506907" lon="-2.483207965269685">
        <ele>1034.7</ele>
        <time>2018-05-28T07:41:11Z</time>
      </trkpt>
      <trkpt lat="41.7534139752388" lon="-2.482799012213945">
        <ele>1035.3</ele>
        <time>2018-05-28T07:41:21Z</time>
      </trkpt>
      <trkpt lat="41.753396959975362" lon="-2.482741009443998">
        <ele>1035.3</ele>
        <time>2018-05-28T07:41:23Z</time>
      </trkpt>
      <trkpt lat="41.753339041024446" lon="-2.48250799253583">
        <ele>1035.3</ele>
        <time>2018-05-28T07:41:28Z</time>
      </trkpt>
      <trkpt lat="41.753304004669189" lon="-2.48235602863133">
        <ele>1035.4000000000001</ele>
        <time>2018-05-28T07:41:32Z</time>
      </trkpt>
      <trkpt lat="41.753296041861176" lon="-2.482306994497776">
        <ele>1035.4000000000001</ele>
        <time>2018-05-28T07:41:33Z</time>
      </trkpt>
      <trkpt lat="41.753268968313932" lon="-2.482118988409638">
        <ele>1035.7</ele>
        <time>2018-05-28T07:41:37Z</time>
      </trkpt>
      <trkpt lat="41.753249019384384" lon="-2.481996025890112">
        <ele>1035.9000000000001</ele>
        <time>2018-05-28T07:41:40Z</time>
      </trkpt>
      <trkpt lat="41.753226974979043" lon="-2.481782035902143">
        <ele>1036.5999999999999</ele>
        <time>2018-05-28T07:41:45Z</time>
      </trkpt>
      <trkpt lat="41.753221023827791" lon="-2.481753034517169">
        <ele>1036.7</ele>
        <time>2018-05-28T07:41:45Z</time>
      </trkpt>
      <trkpt lat="41.75319897942245" lon="-2.481705006211996">
        <ele>1036.7</ele>
        <time>2018-05-28T07:41:46Z</time>
      </trkpt>
      <trkpt lat="41.753160003572702" lon="-2.481683967635036">
        <ele>1036.5</ele>
        <time>2018-05-28T07:41:48Z</time>
      </trkpt>
      <trkpt lat="41.753121027722955" lon="-2.481707017868757">
        <ele>1036</ele>
        <time>2018-05-28T07:41:49Z</time>
      </trkpt>
      <trkpt lat="41.753086997196078" lon="-2.481751022860408">
        <ele>1035.5</ele>
        <time>2018-05-28T07:41:50Z</time>
      </trkpt>
      <trkpt lat="41.753066964447498" lon="-2.481768960133195">
        <ele>1035.2</ele>
        <time>2018-05-28T07:41:51Z</time>
      </trkpt>
      <trkpt lat="41.753020025789738" lon="-2.481794022023678">
        <ele>1034.7</ele>
        <time>2018-05-28T07:41:53Z</time>
      </trkpt>
      <trkpt lat="41.752981971949339" lon="-2.481809025630355">
        <ele>1034.2</ele>
        <time>2018-05-28T07:41:54Z</time>
      </trkpt>
      <trkpt lat="41.752951964735985" lon="-2.481829980388284">
        <ele>1033.8</ele>
        <time>2018-05-28T07:41:55Z</time>
      </trkpt>
      <trkpt lat="41.752922963351011" lon="-2.481841966509819">
        <ele>1033.5</ele>
        <time>2018-05-28T07:41:56Z</time>
      </trkpt>
      <trkpt lat="41.752915000542998" lon="-2.481844983994961">
        <ele>1033.4000000000001</ele>
        <time>2018-05-28T07:41:56Z</time>
      </trkpt>
      <trkpt lat="41.752912988886237" lon="-2.481859987601638">
        <ele>1033.3</ele>
        <time>2018-05-28T07:41:56Z</time>
      </trkpt>
      <trkpt lat="41.753084985539317" lon="-2.481792010366917">
        <ele>1035.3</ele>
        <time>2018-05-28T07:42:02Z</time>
      </trkpt>
      <trkpt lat="41.753097977489233" lon="-2.481785975396633">
        <ele>1035.4000000000001</ele>
        <time>2018-05-28T07:42:02Z</time>
      </trkpt>
      <trkpt lat="41.753166038542986" lon="-2.481731995940208">
        <ele>1036.3</ele>
        <time>2018-05-28T07:42:04Z</time>
      </trkpt>
      <trkpt lat="41.753187999129295" lon="-2.481719003990293">
        <ele>1036.5</ele>
        <time>2018-05-28T07:42:05Z</time>
      </trkpt>
      <trkpt lat="41.753232004120946" lon="-2.481717998161912">
        <ele>1036.9000000000001</ele>
        <time>2018-05-28T07:42:06Z</time>
      </trkpt>
      <trkpt lat="41.753257988020778" lon="-2.481752028688788">
        <ele>1037</ele>
        <time>2018-05-28T07:42:07Z</time>
      </trkpt>
      <trkpt lat="41.753267040476203" lon="-2.481763008981943">
        <ele>1037.0999999999999</ele>
        <time>2018-05-28T07:42:08Z</time>
      </trkpt>
      <trkpt lat="41.753315990790725" lon="-2.481755968183279">
        <ele>1037.5</ele>
        <time>2018-05-28T07:42:09Z</time>
      </trkpt>
      <trkpt lat="41.753323031589389" lon="-2.48175404034555">
        <ele>1037.5999999999999</ele>
        <time>2018-05-28T07:42:10Z</time>
      </trkpt>
      <trkpt lat="41.753299981355667" lon="-2.481774995103478">
        <ele>1037.3</ele>
        <time>2018-05-28T07:42:10Z</time>
      </trkpt>
      <trkpt lat="41.753287995234132" lon="-2.48177700676024">
        <ele>1037.2</ele>
        <time>2018-05-28T07:42:11Z</time>
      </trkpt>
      <trkpt lat="41.753271985799074" lon="-2.481764014810324">
        <ele>1037.0999999999999</ele>
        <time>2018-05-28T07:42:11Z</time>
      </trkpt>
      <trkpt lat="41.753275003284216" lon="-2.481686985120177">
        <ele>1037.4000000000001</ele>
        <time>2018-05-28T07:42:13Z</time>
      </trkpt>
      <trkpt lat="41.753310961648822" lon="-2.481662007048726">
        <ele>1037.8</ele>
        <time>2018-05-28T07:42:14Z</time>
      </trkpt>
      <trkpt lat="41.753365024924278" lon="-2.481637028977275">
        <ele>1038.4000000000001</ele>
        <time>2018-05-28T07:42:16Z</time>
      </trkpt>
      <trkpt lat="41.753399977460504" lon="-2.481621019542217">
        <ele>1038.7</ele>
        <time>2018-05-28T07:42:17Z</time>
      </trkpt>
      <trkpt lat="41.75343400798738" lon="-2.481607021763921">
        <ele>1039</ele>
        <time>2018-05-28T07:42:18Z</time>
      </trkpt>
      <trkpt lat="41.753468038514256" lon="-2.481592018157244">
        <ele>1039.3</ele>
        <time>2018-05-28T07:42:19Z</time>
      </trkpt>
      <trkpt lat="41.753482958301902" lon="-2.481582965701819">
        <ele>1039.5</ele>
        <time>2018-05-28T07:42:20Z</time>
      </trkpt>
      <trkpt lat="41.753528974950314" lon="-2.481565028429031">
        <ele>1039.9000000000001</ele>
        <time>2018-05-28T07:42:21Z</time>
      </trkpt>
      <trkpt lat="41.75354297272861" lon="-2.481555975973606">
        <ele>1040</ele>
        <time>2018-05-28T07:42:21Z</time>
      </trkpt>
      <trkpt lat="41.753556970506907" lon="-2.481540972366929">
        <ele>1040.2</ele>
        <time>2018-05-28T07:42:22Z</time>
      </trkpt>
      <trkpt lat="41.753595024347305" lon="-2.481462014839053">
        <ele>1040.5999999999999</ele>
        <time>2018-05-28T07:42:24Z</time>
      </trkpt>
      <trkpt lat="41.753607010468841" lon="-2.481429995968938">
        <ele>1040.8</ele>
        <time>2018-05-28T07:42:25Z</time>
      </trkpt>
      <trkpt lat="41.753663001582026" lon="-2.481310972943902">
        <ele>1041.4000000000001</ele>
        <time>2018-05-28T07:42:28Z</time>
      </trkpt>
      <trkpt lat="41.753723016008735" lon="-2.481199996545911">
        <ele>1041.9000000000001</ele>
        <time>2018-05-28T07:42:31Z</time>
      </trkpt>
      <trkpt lat="41.753739025443792" lon="-2.48117501847446">
        <ele>1042</ele>
        <time>2018-05-28T07:42:32Z</time>
      </trkpt>
      <trkpt lat="41.753784958273172" lon="-2.481104023754597">
        <ele>1042.4000000000001</ele>
        <time>2018-05-28T07:42:34Z</time>
      </trkpt>
      <trkpt lat="41.753874979913235" lon="-2.481008972972632">
        <ele>1043.2</ele>
        <time>2018-05-28T07:42:37Z</time>
      </trkpt>
      <trkpt lat="41.754006994888186" lon="-2.480905959382653">
        <ele>1044.2</ele>
        <time>2018-05-28T07:42:42Z</time>
      </trkpt>
      <trkpt lat="41.754045970737934" lon="-2.480886010453105">
        <ele>1044.5</ele>
        <time>2018-05-28T07:42:43Z</time>
      </trkpt>
      <trkpt lat="41.754130041226745" lon="-2.48085499741137">
        <ele>1045</ele>
        <time>2018-05-28T07:42:46Z</time>
      </trkpt>
      <trkpt lat="41.754236994311213" lon="-2.48083203099668">
        <ele>1045.7</ele>
        <time>2018-05-28T07:42:49Z</time>
      </trkpt>
      <trkpt lat="41.754301032051444" lon="-2.480829013511539">
        <ele>1046.0999999999999</ele>
        <time>2018-05-28T07:42:51Z</time>
      </trkpt>
      <trkpt lat="41.754320980980992" lon="-2.48083395883441">
        <ele>1046.3</ele>
        <time>2018-05-28T07:42:51Z</time>
      </trkpt>
      <trkpt lat="41.754359034821391" lon="-2.480860026553273">
        <ele>1046.5999999999999</ele>
        <time>2018-05-28T07:42:53Z</time>
      </trkpt>
      <trkpt lat="41.754457019269466" lon="-2.480907971039414">
        <ele>1047.3</ele>
        <time>2018-05-28T07:42:56Z</time>
      </trkpt>
      <trkpt lat="41.754518039524555" lon="-2.480934038758278">
        <ele>1047.8</ele>
        <time>2018-05-28T07:42:58Z</time>
      </trkpt>
      <trkpt lat="41.754601020365953" lon="-2.480962034314871">
        <ele>1048.5</ele>
        <time>2018-05-28T07:43:00Z</time>
      </trkpt>
      <trkpt lat="41.754689030349255" lon="-2.480973014608026">
        <ele>1049.2</ele>
        <time>2018-05-28T07:43:03Z</time>
      </trkpt>
      <trkpt lat="41.754709985107183" lon="-2.480976032093167">
        <ele>1049.4000000000001</ele>
        <time>2018-05-28T07:43:03Z</time>
      </trkpt>
      <trkpt lat="41.754845017567277" lon="-2.481005033478141">
        <ele>1050.5999999999999</ele>
        <time>2018-05-28T07:43:07Z</time>
      </trkpt>
      <trkpt lat="41.754883993417025" lon="-2.481011990457773">
        <ele>1051</ele>
        <time>2018-05-28T07:43:09Z</time>
      </trkpt>
      <trkpt lat="41.754984995350242" lon="-2.481030011549592">
        <ele>1051.9000000000001</ele>
        <time>2018-05-28T07:43:12Z</time>
      </trkpt>
      <trkpt lat="41.755023971199989" lon="-2.481038980185986">
        <ele>1052.3</ele>
        <time>2018-05-28T07:43:13Z</time>
      </trkpt>
      <trkpt lat="41.755133019760251" lon="-2.481077034026384">
        <ele>1053.5</ele>
        <time>2018-05-28T07:43:16Z</time>
      </trkpt>
      <trkpt lat="41.755224969238043" lon="-2.481109974905849">
        <ele>1054.4000000000001</ele>
        <time>2018-05-28T07:43:19Z</time>
      </trkpt>
      <trkpt lat="41.755349021404982" lon="-2.481139982119203">
        <ele>1055.7</ele>
        <time>2018-05-28T07:43:23Z</time>
      </trkpt>
      <trkpt lat="41.755400989204645" lon="-2.481136964634061">
        <ele>1056.2</ele>
        <time>2018-05-28T07:43:24Z</time>
      </trkpt>
      <trkpt lat="41.755456980317831" lon="-2.481146017089486">
        <ele>1056.7</ele>
        <time>2018-05-28T07:43:26Z</time>
      </trkpt>
      <trkpt lat="41.755529986694455" lon="-2.481165966019034">
        <ele>1057.4000000000001</ele>
        <time>2018-05-28T07:43:28Z</time>
      </trkpt>
      <trkpt lat="41.75558396615088" lon="-2.481183987110853">
        <ele>1057.9000000000001</ele>
        <time>2018-05-28T07:43:30Z</time>
      </trkpt>
      <trkpt lat="41.75569100305438" lon="-2.481212988495827">
        <ele>1058.9000000000001</ele>
        <time>2018-05-28T07:43:33Z</time>
      </trkpt>
      <trkpt lat="41.755708018317819" lon="-2.48121801763773">
        <ele>1059</ele>
        <time>2018-05-28T07:43:34Z</time>
      </trkpt>
      <trkpt lat="41.75584003329277" lon="-2.481266967952251">
        <ele>1060</ele>
        <time>2018-05-28T07:43:38Z</time>
      </trkpt>
      <trkpt lat="41.755983028560877" lon="-2.481314996257424">
        <ele>1060.7</ele>
        <time>2018-05-28T07:43:42Z</time>
      </trkpt>
      <trkpt lat="41.756022004410625" lon="-2.481322037056088">
        <ele>1061</ele>
        <time>2018-05-28T07:43:43Z</time>
      </trkpt>
      <trkpt lat="41.75620699301362" lon="-2.481353972107172">
        <ele>1062</ele>
        <time>2018-05-28T07:43:49Z</time>
      </trkpt>
      <trkpt lat="41.756343031302094" lon="-2.481392025947571">
        <ele>1062.2</ele>
        <time>2018-05-28T07:43:53Z</time>
      </trkpt>
      <trkpt lat="41.756472028791904" lon="-2.4814129807055">
        <ele>1062.4000000000001</ele>
        <time>2018-05-28T07:43:57Z</time>
      </trkpt>
      <trkpt lat="41.756548974663019" lon="-2.481421027332544">
        <ele>1062.5999999999999</ele>
        <time>2018-05-28T07:43:59Z</time>
      </trkpt>
      <trkpt lat="41.756818033754826" lon="-2.481506019830704">
        <ele>1062.4000000000001</ele>
        <time>2018-05-28T07:44:07Z</time>
      </trkpt>
      <trkpt lat="41.756862960755825" lon="-2.481486992910504">
        <ele>1062.7</ele>
        <time>2018-05-28T07:44:09Z</time>
      </trkpt>
      <trkpt lat="41.756877964362502" lon="-2.481454974040389">
        <ele>1063</ele>
        <time>2018-05-28T07:44:09Z</time>
      </trkpt>
      <trkpt lat="41.756944013759494" lon="-2.481192033737898">
        <ele>1065.9000000000001</ele>
        <time>2018-05-28T07:44:16Z</time>
      </trkpt>
      <trkpt lat="41.757050966843963" lon="-2.480938984081149">
        <ele>1068.0999999999999</ele>
        <time>2018-05-28T07:44:22Z</time>
      </trkpt>
      <trkpt lat="41.757127996534109" lon="-2.480772016569972">
        <ele>1069.4000000000001</ele>
        <time>2018-05-28T07:44:26Z</time>
      </trkpt>
      <trkpt lat="41.757270991802216" lon="-2.480564983561635">
        <ele>1070.5999999999999</ele>
        <time>2018-05-28T07:44:33Z</time>
      </trkpt>
      <trkpt lat="41.757296975702047" lon="-2.480535982176662">
        <ele>1070.7</ele>
        <time>2018-05-28T07:44:34Z</time>
      </trkpt>
      <trkpt lat="41.757412981241941" lon="-2.480396004393697">
        <ele>1071.2</ele>
        <time>2018-05-28T07:44:38Z</time>
      </trkpt>
      <trkpt lat="41.75745103508234" lon="-2.48033800162375">
        <ele>1071.0999999999999</ele>
        <time>2018-05-28T07:44:40Z</time>
      </trkpt>
      <trkpt lat="41.757566034793854" lon="-2.480270024389029">
        <ele>1070.9000000000001</ele>
        <time>2018-05-28T07:44:44Z</time>
      </trkpt>
      <trkpt lat="41.75775202922523" lon="-2.480201963335276">
        <ele>1070.5999999999999</ele>
        <time>2018-05-28T07:44:49Z</time>
      </trkpt>
      <trkpt lat="41.757898963987827" lon="-2.480099033564329">
        <ele>1070.4000000000001</ele>
        <time>2018-05-28T07:44:54Z</time>
      </trkpt>
      <trkpt lat="41.758054029196501" lon="-2.479971963912249">
        <ele>1070.8</ele>
        <time>2018-05-28T07:45:00Z</time>
      </trkpt>
      <trkpt lat="41.758169028908014" lon="-2.47986601665616">
        <ele>1071.0999999999999</ele>
        <time>2018-05-28T07:45:04Z</time>
      </trkpt>
      <trkpt lat="41.758292997255921" lon="-2.479765014722943">
        <ele>1071.3</ele>
        <time>2018-05-28T07:45:08Z</time>
      </trkpt>
      <trkpt lat="41.75850598141551" lon="-2.479597963392735">
        <ele>1071.7</ele>
        <time>2018-05-28T07:45:15Z</time>
      </trkpt>
      <trkpt lat="41.758561972528696" lon="-2.479594023898244">
        <ele>1071.8</ele>
        <time>2018-05-28T07:45:17Z</time>
      </trkpt>
      <trkpt lat="41.758605977520347" lon="-2.479621013626456">
        <ele>1071.8</ele>
        <time>2018-05-28T07:45:19Z</time>
      </trkpt>
      <trkpt lat="41.758682001382113" lon="-2.479718998074532">
        <ele>1071.9000000000001</ele>
        <time>2018-05-28T07:45:22Z</time>
      </trkpt>
      <trkpt lat="41.758725000545382" lon="-2.479772977530956">
        <ele>1072</ele>
        <time>2018-05-28T07:45:23Z</time>
      </trkpt>
      <trkpt lat="41.758829019963741" lon="-2.479912033304572">
        <ele>1072.8</ele>
        <time>2018-05-28T07:45:28Z</time>
      </trkpt>
      <trkpt lat="41.758903032168746" lon="-2.480088975280523">
        <ele>1073.5</ele>
        <time>2018-05-28T07:45:32Z</time>
      </trkpt>
      <trkpt lat="41.758948964998126" lon="-2.480192994698882">
        <ele>1074</ele>
        <time>2018-05-28T07:45:35Z</time>
      </trkpt>
      <trkpt lat="41.759013002738357" lon="-2.480322998017073">
        <ele>1074.5999999999999</ele>
        <time>2018-05-28T07:45:38Z</time>
      </trkpt>
      <trkpt lat="41.759037980809808" lon="-2.48033800162375">
        <ele>1074.8</ele>
        <time>2018-05-28T07:45:39Z</time>
      </trkpt>
      <trkpt lat="41.75906103104353" lon="-2.480344958603382">
        <ele>1075</ele>
        <time>2018-05-28T07:45:40Z</time>
      </trkpt>
      <trkpt lat="41.759082991629839" lon="-2.480349987745285">
        <ele>1075.2</ele>
        <time>2018-05-28T07:45:41Z</time>
      </trkpt>
      <trkpt lat="41.759155998006463" lon="-2.480365997180343">
        <ele>1075.9000000000001</ele>
        <time>2018-05-28T07:45:43Z</time>
      </trkpt>
      <trkpt lat="41.759173013269901" lon="-2.480365997180343">
        <ele>1076.0999999999999</ele>
        <time>2018-05-28T07:45:43Z</time>
      </trkpt>
      <trkpt lat="41.759292958304286" lon="-2.480292990803719">
        <ele>1077.3</ele>
        <time>2018-05-28T07:45:47Z</time>
      </trkpt>
      <trkpt lat="41.759398989379406" lon="-2.48016701079905">
        <ele>1078.5</ele>
        <time>2018-05-28T07:45:51Z</time>
      </trkpt>
      <trkpt lat="41.759454980492592" lon="-2.480086041614413">
        <ele>1079.0999999999999</ele>
        <time>2018-05-28T07:45:54Z</time>
      </trkpt>
      <trkpt lat="41.759513989090919" lon="-2.480004988610745">
        <ele>1079.8</ele>
        <time>2018-05-28T07:45:56Z</time>
      </trkpt>
      <trkpt lat="41.759656984359026" lon="-2.47982301749289">
        <ele>1081.0999999999999</ele>
        <time>2018-05-28T07:46:02Z</time>
      </trkpt>
      <trkpt lat="41.759676011279225" lon="-2.479798961430788">
        <ele>1081.2</ele>
        <time>2018-05-28T07:46:03Z</time>
      </trkpt>
      <trkpt lat="41.759784976020455" lon="-2.479652026668191">
        <ele>1081.9000000000001</ele>
        <time>2018-05-28T07:46:08Z</time>
      </trkpt>
      <trkpt lat="41.759916990995407" lon="-2.479477012529969">
        <ele>1082.8</ele>
        <time>2018-05-28T07:46:13Z</time>
      </trkpt>
      <trkpt lat="41.760039031505585" lon="-2.47930702753365">
        <ele>1083.5</ele>
        <time>2018-05-28T07:46:18Z</time>
      </trkpt>
      <trkpt lat="41.760238017886877" lon="-2.47904903255403">
        <ele>1084.0999999999999</ele>
        <time>2018-05-28T07:46:26Z</time>
      </trkpt>
      <trkpt lat="41.760285962373018" lon="-2.478973008692265">
        <ele>1084.0999999999999</ele>
        <time>2018-05-28T07:46:29Z</time>
      </trkpt>
      <trkpt lat="41.760375984013081" lon="-2.478847028687596">
        <ele>1084.0999999999999</ele>
        <time>2018-05-28T07:46:33Z</time>
      </trkpt>
      <trkpt lat="41.760441027581692" lon="-2.478757007047534">
        <ele>1084</ele>
        <time>2018-05-28T07:46:35Z</time>
      </trkpt>
      <trkpt lat="41.760549992322922" lon="-2.478619040921331">
        <ele>1084</ele>
        <time>2018-05-28T07:46:40Z</time>
      </trkpt>
      <trkpt lat="41.760613024234772" lon="-2.478544022887945">
        <ele>1083.9000000000001</ele>
        <time>2018-05-28T07:46:42Z</time>
      </trkpt>
      <trkpt lat="41.760713020339608" lon="-2.478418964892626">
        <ele>1083.9000000000001</ele>
        <time>2018-05-28T07:46:46Z</time>
      </trkpt>
      <trkpt lat="41.760818967595696" lon="-2.478275969624519">
        <ele>1083.7</ele>
        <time>2018-05-28T07:46:51Z</time>
      </trkpt>
      <trkpt lat="41.760891973972321" lon="-2.478178991004825">
        <ele>1083.5999999999999</ele>
        <time>2018-05-28T07:46:54Z</time>
      </trkpt>
      <trkpt lat="41.761021977290511" lon="-2.477988973259926">
        <ele>1083.3</ele>
        <time>2018-05-28T07:47:00Z</time>
      </trkpt>
      <trkpt lat="41.761073023080826" lon="-2.477914039045572">
        <ele>1083.2</ele>
        <time>2018-05-28T07:47:02Z</time>
      </trkpt>
      <trkpt lat="41.761106969788671" lon="-2.477848995476961">
        <ele>1083.2</ele>
        <time>2018-05-28T07:47:04Z</time>
      </trkpt>
      <trkpt lat="41.761137982830405" lon="-2.477780012413859">
        <ele>1083.0999999999999</ele>
        <time>2018-05-28T07:47:05Z</time>
      </trkpt>
      <trkpt lat="41.761136977002025" lon="-2.477776994928718">
        <ele>1083.0999999999999</ele>
        <time>2018-05-28T07:47:05Z</time>
      </trkpt>
      <trkpt lat="41.761145023629069" lon="-2.477746987715364">
        <ele>1083.0999999999999</ele>
        <time>2018-05-28T07:47:06Z</time>
      </trkpt>
      <trkpt lat="41.76114896312356" lon="-2.477741958573461">
        <ele>1083.0999999999999</ele>
        <time>2018-05-28T07:47:06Z</time>
      </trkpt>
      <trkpt lat="41.761150974780321" lon="-2.4776950199157">
        <ele>1083.0999999999999</ele>
        <time>2018-05-28T07:47:07Z</time>
      </trkpt>
      <trkpt lat="41.761162038892508" lon="-2.477676998823881">
        <ele>1083.0999999999999</ele>
        <time>2018-05-28T07:47:08Z</time>
      </trkpt>
      <trkpt lat="41.761177964508533" lon="-2.477666018530726">
        <ele>1083.0999999999999</ele>
        <time>2018-05-28T07:47:08Z</time>
      </trkpt>
      <trkpt lat="41.761265974491835" lon="-2.477709017693996">
        <ele>1083</ele>
        <time>2018-05-28T07:47:11Z</time>
      </trkpt>
      <trkpt lat="41.761323977261782" lon="-2.477778000757098">
        <ele>1082.9000000000001</ele>
        <time>2018-05-28T07:47:13Z</time>
      </trkpt>
      <trkpt lat="41.761438976973295" lon="-2.477929964661598">
        <ele>1082.8</ele>
        <time>2018-05-28T07:47:18Z</time>
      </trkpt>
      <trkpt lat="41.761667970567942" lon="-2.478212015703321">
        <ele>1083</ele>
        <time>2018-05-28T07:47:27Z</time>
      </trkpt>
      <trkpt lat="41.761871986091137" lon="-2.478374959900975">
        <ele>1083.2</ele>
        <time>2018-05-28T07:47:34Z</time>
      </trkpt>
      <trkpt lat="41.762047000229359" lon="-2.478403961285949">
        <ele>1083.2</ele>
        <time>2018-05-28T07:47:40Z</time>
      </trkpt>
      <trkpt lat="41.762107014656067" lon="-2.478337995707989">
        <ele>1083</ele>
        <time>2018-05-28T07:47:42Z</time>
      </trkpt>
      <trkpt lat="41.762128975242376" lon="-2.478284016251564">
        <ele>1082.8</ele>
        <time>2018-05-28T07:47:43Z</time>
      </trkpt>
      <trkpt lat="41.762172980234027" lon="-2.478057034313679">
        <ele>1082.0999999999999</ele>
        <time>2018-05-28T07:47:48Z</time>
      </trkpt>
      <trkpt lat="41.762185972183943" lon="-2.477966006845236">
        <ele>1081.8</ele>
        <time>2018-05-28T07:47:51Z</time>
      </trkpt>
      <trkpt lat="41.762196030467749" lon="-2.477872967720032">
        <ele>1081.5</ele>
        <time>2018-05-28T07:47:53Z</time>
      </trkpt>
      <trkpt lat="41.762212039902806" lon="-2.4776950199157">
        <ele>1081.3</ele>
        <time>2018-05-28T07:47:57Z</time>
      </trkpt>
      <trkpt lat="41.762226959690452" lon="-2.477538026869297">
        <ele>1081.0999999999999</ele>
        <time>2018-05-28T07:48:00Z</time>
      </trkpt>
      <trkpt lat="41.762245986610651" lon="-2.477378016337752">
        <ele>1080.9000000000001</ele>
        <time>2018-05-28T07:48:04Z</time>
      </trkpt>
      <trkpt lat="41.762263001874089" lon="-2.477211970835924">
        <ele>1080.7</ele>
        <time>2018-05-28T07:48:07Z</time>
      </trkpt>
      <trkpt lat="41.762275993824005" lon="-2.477046009153128">
        <ele>1080.5</ele>
        <time>2018-05-28T07:48:11Z</time>
      </trkpt>
      <trkpt lat="41.762292003259063" lon="-2.476887004449964">
        <ele>1080.0999999999999</ele>
        <time>2018-05-28T07:48:15Z</time>
      </trkpt>
      <trkpt lat="41.762302983552217" lon="-2.476749960333109">
        <ele>1079.9000000000001</ele>
        <time>2018-05-28T07:48:18Z</time>
      </trkpt>
      <trkpt lat="41.762301977723837" lon="-2.476682988926768">
        <ele>1079.7</ele>
        <time>2018-05-28T07:48:19Z</time>
      </trkpt>
      <trkpt lat="41.76230801269412" lon="-2.476489031687379">
        <ele>1079.4000000000001</ele>
        <time>2018-05-28T07:48:23Z</time>
      </trkpt>
      <trkpt lat="41.762315975502133" lon="-2.476433962583542">
        <ele>1079.2</ele>
        <time>2018-05-28T07:48:25Z</time>
      </trkpt>
      <trkpt lat="41.762312036007643" lon="-2.476283004507422">
        <ele>1079</ele>
        <time>2018-05-28T07:48:28Z</time>
      </trkpt>
      <trkpt lat="41.762295020744205" lon="-2.476242017000914">
        <ele>1079</ele>
        <time>2018-05-28T07:48:29Z</time>
      </trkpt>
      <trkpt lat="41.76224498078227" lon="-2.476184014230967">
        <ele>1079</ele>
        <time>2018-05-28T07:48:31Z</time>
      </trkpt>
      <trkpt lat="41.762128975242376" lon="-2.476082006469369">
        <ele>1079.2</ele>
        <time>2018-05-28T07:48:35Z</time>
      </trkpt>
      <trkpt lat="41.762103997170925" lon="-2.475932976230979">
        <ele>1078.8</ele>
        <time>2018-05-28T07:48:38Z</time>
      </trkpt>
      <trkpt lat="41.762150013819337" lon="-2.475833985954523">
        <ele>1078.2</ele>
        <time>2018-05-28T07:48:41Z</time>
      </trkpt>
      <trkpt lat="41.762184966355562" lon="-2.475794004276395">
        <ele>1077.9000000000001</ele>
        <time>2018-05-28T07:48:42Z</time>
      </trkpt>
      <trkpt lat="41.762256966903806" lon="-2.475710017606616">
        <ele>1077.4000000000001</ele>
        <time>2018-05-28T07:48:45Z</time>
      </trkpt>
      <trkpt lat="41.762294014915824" lon="-2.475667018443346">
        <ele>1077.0999999999999</ele>
        <time>2018-05-28T07:48:47Z</time>
      </trkpt>
      <trkpt lat="41.76237003877759" lon="-2.475622007623315">
        <ele>1076.5999999999999</ele>
        <time>2018-05-28T07:48:49Z</time>
      </trkpt>
      <trkpt lat="41.762483026832342" lon="-2.475564004853368">
        <ele>1076</ele>
        <time>2018-05-28T07:48:53Z</time>
      </trkpt>
      <trkpt lat="41.76252200268209" lon="-2.475545983761549">
        <ele>1075.8</ele>
        <time>2018-05-28T07:48:54Z</time>
      </trkpt>
      <trkpt lat="41.762561984360218" lon="-2.475507007911801">
        <ele>1075.5</ele>
        <time>2018-05-28T07:48:55Z</time>
      </trkpt>
      <trkpt lat="41.762601966038346" lon="-2.475405000150204">
        <ele>1075.0999999999999</ele>
        <time>2018-05-28T07:48:58Z</time>
      </trkpt>
      <trkpt lat="41.76267103292048" lon="-2.475311039015651">
        <ele>1074.5999999999999</ele>
        <time>2018-05-28T07:49:01Z</time>
      </trkpt>
      <trkpt lat="41.762682013213634" lon="-2.475282959640026">
        <ele>1074.5</ele>
        <time>2018-05-28T07:49:02Z</time>
      </trkpt>
      <trkpt lat="41.762728029862046" lon="-2.475220011547208">
        <ele>1074.2</ele>
        <time>2018-05-28T07:49:04Z</time>
      </trkpt>
      <trkpt lat="41.762756025418639" lon="-2.475176006555557">
        <ele>1074</ele>
        <time>2018-05-28T07:49:05Z</time>
      </trkpt>
      <trkpt lat="41.762788966298103" lon="-2.475091014057398">
        <ele>1073.7</ele>
        <time>2018-05-28T07:49:07Z</time>
      </trkpt>
      <trkpt lat="41.762793995440006" lon="-2.47505396604538">
        <ele>1073.5999999999999</ele>
        <time>2018-05-28T07:49:08Z</time>
      </trkpt>
      <trkpt lat="41.76282299682498" lon="-2.474937038496137">
        <ele>1073.2</ele>
        <time>2018-05-28T07:49:11Z</time>
      </trkpt>
      <trkpt lat="41.76284696906805" lon="-2.474868977442384">
        <ele>1072.9000000000001</ele>
        <time>2018-05-28T07:49:12Z</time>
      </trkpt>
      <trkpt lat="41.762879993766546" lon="-2.474827989935875">
        <ele>1072.7</ele>
        <time>2018-05-28T07:49:14Z</time>
      </trkpt>
      <trkpt lat="41.762964986264706" lon="-2.474674014374614">
        <ele>1072.3</ele>
        <time>2018-05-28T07:49:18Z</time>
      </trkpt>
      <trkpt lat="41.762991975992918" lon="-2.474606959149241">
        <ele>1072.2</ele>
        <time>2018-05-28T07:49:19Z</time>
      </trkpt>
      <trkpt lat="41.763041010126472" lon="-2.474436974152923">
        <ele>1071.8</ele>
        <time>2018-05-28T07:49:23Z</time>
      </trkpt>
      <trkpt lat="41.7630619648844" lon="-2.474287021905184">
        <ele>1071.3</ele>
        <time>2018-05-28T07:49:27Z</time>
      </trkpt>
      <trkpt lat="41.763074034824967" lon="-2.474126005545259">
        <ele>1070.7</ele>
        <time>2018-05-28T07:49:30Z</time>
      </trkpt>
      <trkpt lat="41.763076968491077" lon="-2.474020980298519">
        <ele>1070.4000000000001</ele>
        <time>2018-05-28T07:49:33Z</time>
      </trkpt>
      <trkpt lat="41.76310496404767" lon="-2.473745970055461">
        <ele>1069.4000000000001</ele>
        <time>2018-05-28T07:49:39Z</time>
      </trkpt>
      <trkpt lat="41.763120973482728" lon="-2.473695008084178">
        <ele>1069.4000000000001</ele>
        <time>2018-05-28T07:49:40Z</time>
      </trkpt>
      <trkpt lat="41.763241002336144" lon="-2.473388984799385">
        <ele>1068.7</ele>
        <time>2018-05-28T07:49:48Z</time>
      </trkpt>
      <trkpt lat="41.76325298845768" lon="-2.47331103309989">
        <ele>1068.4000000000001</ele>
        <time>2018-05-28T07:49:50Z</time>
      </trkpt>
      <trkpt lat="41.76325399428606" lon="-2.473210031166673">
        <ele>1068.0999999999999</ele>
        <time>2018-05-28T07:49:52Z</time>
      </trkpt>
      <trkpt lat="41.763416016474366" lon="-2.472997969016433">
        <ele>1067.0999999999999</ele>
        <time>2018-05-28T07:49:58Z</time>
      </trkpt>
      <trkpt lat="41.763492962345481" lon="-2.47268901206553">
        <ele>1066.0999999999999</ele>
        <time>2018-05-28T07:50:06Z</time>
      </trkpt>
      <trkpt lat="41.76351198926568" lon="-2.472661016508937">
        <ele>1066</ele>
        <time>2018-05-28T07:50:06Z</time>
      </trkpt>
      <trkpt lat="41.763564962893724" lon="-2.47264701873064">
        <ele>1065.8</ele>
        <time>2018-05-28T07:50:08Z</time>
      </trkpt>
      <trkpt lat="41.763603016734123" lon="-2.472642995417118">
        <ele>1065.7</ele>
        <time>2018-05-28T07:50:09Z</time>
      </trkpt>
      <trkpt lat="41.763613997027278" lon="-2.472642995417118">
        <ele>1065.7</ele>
        <time>2018-05-28T07:50:10Z</time>
      </trkpt>
      <trkpt lat="41.763629000633955" lon="-2.472597984597087">
        <ele>1065.5</ele>
        <time>2018-05-28T07:50:11Z</time>
      </trkpt>
      <trkpt lat="41.763631012290716" lon="-2.472526989877224">
        <ele>1065.3</ele>
        <time>2018-05-28T07:50:12Z</time>
      </trkpt>
      <trkpt lat="41.76363998092711" lon="-2.472415007650852">
        <ele>1065.0999999999999</ele>
        <time>2018-05-28T07:50:15Z</time>
      </trkpt>
      <trkpt lat="41.763646015897393" lon="-2.472385000437498">
        <ele>1065</ele>
        <time>2018-05-28T07:50:15Z</time>
      </trkpt>
      <trkpt lat="41.763656996190548" lon="-2.472352981567383">
        <ele>1064.9000000000001</ele>
        <time>2018-05-28T07:50:16Z</time>
      </trkpt>
      <trkpt lat="41.763681974261999" lon="-2.472293972969055">
        <ele>1064.7</ele>
        <time>2018-05-28T07:50:18Z</time>
      </trkpt>
      <trkpt lat="41.763687003403902" lon="-2.472273018211126">
        <ele>1064.5999999999999</ele>
        <time>2018-05-28T07:50:18Z</time>
      </trkpt>
      <trkpt lat="41.763695972040296" lon="-2.472227001562715">
        <ele>1064.5</ele>
        <time>2018-05-28T07:50:19Z</time>
      </trkpt>
      <trkpt lat="41.763735031709075" lon="-2.472150977700949">
        <ele>1064.2</ele>
        <time>2018-05-28T07:50:21Z</time>
      </trkpt>
      <trkpt lat="41.763751041144133" lon="-2.472124993801117">
        <ele>1064.0999999999999</ele>
        <time>2018-05-28T07:50:22Z</time>
      </trkpt>
      <trkpt lat="41.763765960931778" lon="-2.472104039043188">
        <ele>1064.0999999999999</ele>
        <time>2018-05-28T07:50:23Z</time>
      </trkpt>
      <trkpt lat="41.763788005337119" lon="-2.472016029059887">
        <ele>1063.9000000000001</ele>
        <time>2018-05-28T07:50:25Z</time>
      </trkpt>
      <trkpt lat="41.76381298340857" lon="-2.471956014633179">
        <ele>1063.8</ele>
        <time>2018-05-28T07:50:26Z</time>
      </trkpt>
      <trkpt lat="41.763823041692376" lon="-2.471877979114652">
        <ele>1063.8</ele>
        <time>2018-05-28T07:50:28Z</time>
      </trkpt>
      <trkpt lat="41.763843996450305" lon="-2.471823999658227">
        <ele>1063.7</ele>
        <time>2018-05-28T07:50:29Z</time>
      </trkpt>
      <trkpt lat="41.76385598257184" lon="-2.471802961081266">
        <ele>1063.7</ele>
        <time>2018-05-28T07:50:30Z</time>
      </trkpt>
      <trkpt lat="41.763864029198885" lon="-2.471789969131351">
        <ele>1063.5999999999999</ele>
        <time>2018-05-28T07:50:30Z</time>
      </trkpt>
      <trkpt lat="41.763890013098717" lon="-2.471730960533023">
        <ele>1063.5999999999999</ele>
        <time>2018-05-28T07:50:32Z</time>
      </trkpt>
      <trkpt lat="41.763904010877013" lon="-2.471698019653559">
        <ele>1063.5</ele>
        <time>2018-05-28T07:50:33Z</time>
      </trkpt>
      <trkpt lat="41.763990009203553" lon="-2.471655020490289">
        <ele>1063.5</ele>
        <time>2018-05-28T07:50:35Z</time>
      </trkpt>
      <trkpt lat="41.764062009751797" lon="-2.471684021875262">
        <ele>1063.5</ele>
        <time>2018-05-28T07:50:38Z</time>
      </trkpt>
      <trkpt lat="41.764078019186854" lon="-2.471721991896629">
        <ele>1063.5999999999999</ele>
        <time>2018-05-28T07:50:39Z</time>
      </trkpt>
      <trkpt lat="41.764139039441943" lon="-2.471857024356723">
        <ele>1063.7</ele>
        <time>2018-05-28T07:50:42Z</time>
      </trkpt>
      <trkpt lat="41.764167034998536" lon="-2.471796004101634">
        <ele>1063.7</ele>
        <time>2018-05-28T07:50:44Z</time>
      </trkpt>
      <trkpt lat="41.764226965606213" lon="-2.47165996581316">
        <ele>1063.5</ele>
        <time>2018-05-28T07:50:47Z</time>
      </trkpt>
      <trkpt lat="41.764410026371479" lon="-2.471376992762089">
        <ele>1063.2</ele>
        <time>2018-05-28T07:50:55Z</time>
      </trkpt>
      <trkpt lat="41.764422012493014" lon="-2.471390990540385">
        <ele>1063.2</ele>
        <time>2018-05-28T07:50:56Z</time>
      </trkpt>
      <trkpt lat="41.764441961422563" lon="-2.471279008314014">
        <ele>1063</ele>
        <time>2018-05-28T07:50:58Z</time>
      </trkpt>
      <trkpt lat="41.764428969472647" lon="-2.471244977787137">
        <ele>1063</ele>
        <time>2018-05-28T07:50:59Z</time>
      </trkpt>
      <trkpt lat="41.764400973916054" lon="-2.471109023317695">
        <ele>1063</ele>
        <time>2018-05-28T07:51:02Z</time>
      </trkpt>
      <trkpt lat="41.764397034421563" lon="-2.470977008342743">
        <ele>1062.9000000000001</ele>
        <time>2018-05-28T07:51:05Z</time>
      </trkpt>
      <trkpt lat="41.76441203802824" lon="-2.470942977815867">
        <ele>1062.9000000000001</ele>
        <time>2018-05-28T07:51:06Z</time>
      </trkpt>
      <trkpt lat="41.764430981129408" lon="-2.470884975045919">
        <ele>1062.9000000000001</ele>
        <time>2018-05-28T07:51:08Z</time>
      </trkpt>
      <trkpt lat="41.764442967250943" lon="-2.470815991982818">
        <ele>1062.9000000000001</ele>
        <time>2018-05-28T07:51:09Z</time>
      </trkpt>
      <trkpt lat="41.764427963644266" lon="-2.470643995329738">
        <ele>1062.9000000000001</ele>
        <time>2018-05-28T07:51:13Z</time>
      </trkpt>
      <trkpt lat="41.764351017773151" lon="-2.470506029203534">
        <ele>1062.8</ele>
        <time>2018-05-28T07:51:17Z</time>
      </trkpt>
      <trkpt lat="41.764342971146107" lon="-2.470418019220233">
        <ele>1062.7</ele>
        <time>2018-05-28T07:51:19Z</time>
      </trkpt>
      <trkpt lat="41.76434900611639" lon="-2.470375020056963">
        <ele>1062.7</ele>
        <time>2018-05-28T07:51:20Z</time>
      </trkpt>
      <trkpt lat="41.764341965317726" lon="-2.470269994810224">
        <ele>1062.5999999999999</ele>
        <time>2018-05-28T07:51:22Z</time>
      </trkpt>
      <trkpt lat="41.764331990852952" lon="-2.470236970111728">
        <ele>1062.5</ele>
        <time>2018-05-28T07:51:23Z</time>
      </trkpt>
      <trkpt lat="41.7643260397017" lon="-2.470114007592201">
        <ele>1062.4000000000001</ele>
        <time>2018-05-28T07:51:26Z</time>
      </trkpt>
      <trkpt lat="41.764326961711049" lon="-2.4700450245291">
        <ele>1062.4000000000001</ele>
        <time>2018-05-28T07:51:27Z</time>
      </trkpt>
      <trkpt lat="41.764339031651616" lon="-2.469875039532781">
        <ele>1062.2</ele>
        <time>2018-05-28T07:51:31Z</time>
      </trkpt>
      <trkpt lat="41.764344982802868" lon="-2.46983396820724">
        <ele>1062.2</ele>
        <time>2018-05-28T07:51:32Z</time>
      </trkpt>
      <trkpt lat="41.764311036095023" lon="-2.469712011516094">
        <ele>1062.0999999999999</ele>
        <time>2018-05-28T07:51:35Z</time>
      </trkpt>
      <trkpt lat="41.764254039153457" lon="-2.469554012641311">
        <ele>1062.0999999999999</ele>
        <time>2018-05-28T07:51:38Z</time>
      </trkpt>
      <trkpt lat="41.764217996969819" lon="-2.469391990453005">
        <ele>1062.5</ele>
        <time>2018-05-28T07:51:42Z</time>
      </trkpt>
      <trkpt lat="41.764096962288022" lon="-2.46946600265801">
        <ele>1062.4000000000001</ele>
        <time>2018-05-28T07:51:46Z</time>
      </trkpt>
      <trkpt lat="41.764096040278673" lon="-2.46946700848639">
        <ele>1062.4000000000001</ele>
        <time>2018-05-28T07:51:46Z</time>
      </trkpt>
      <trkpt lat="41.764125963672996" lon="-2.469220999628305">
        <ele>1063.2</ele>
        <time>2018-05-28T07:51:52Z</time>
      </trkpt>
      <trkpt lat="41.764224031940103" lon="-2.468611970543861">
        <ele>1064.5999999999999</ele>
        <time>2018-05-28T07:52:05Z</time>
      </trkpt>
      <trkpt lat="41.764200981706381" lon="-2.468073014169931">
        <ele>1066.2</ele>
        <time>2018-05-28T07:52:17Z</time>
      </trkpt>
      <trkpt lat="41.764206010848284" lon="-2.467062994837761">
        <ele>1066.8</ele>
        <time>2018-05-28T07:52:40Z</time>
      </trkpt>
      <trkpt lat="41.763257011771202" lon="-2.466494031250477">
        <ele>1073.0999999999999</ele>
        <time>2018-05-28T07:53:11Z</time>
      </trkpt>
      <trkpt lat="41.762841017916799" lon="-2.4660300090909">
        <ele>1076.4000000000001</ele>
        <time>2018-05-28T07:53:27Z</time>
      </trkpt>
      <trkpt lat="41.76241597160697" lon="-2.465507984161377">
        <ele>1078.5</ele>
        <time>2018-05-28T07:53:44Z</time>
      </trkpt>
      <trkpt lat="41.761981034651399" lon="-2.464766018092632">
        <ele>1078.4000000000001</ele>
        <time>2018-05-28T07:54:05Z</time>
      </trkpt>
      <trkpt lat="41.76172798499465" lon="-2.463651979342103">
        <ele>1076.0999999999999</ele>
        <time>2018-05-28T07:54:30Z</time>
      </trkpt>
      <trkpt lat="41.761637963354588" lon="-2.463167002424598">
        <ele>1075.5999999999999</ele>
        <time>2018-05-28T07:54:41Z</time>
      </trkpt>
      <trkpt lat="41.760548986494541" lon="-2.463073041290045">
        <ele>1066.0999999999999</ele>
        <time>2018-05-28T07:55:14Z</time>
      </trkpt>
      <trkpt lat="41.759463027119637" lon="-2.462987964972854">
        <ele>1056.3</ele>
        <time>2018-05-28T07:55:46Z</time>
      </trkpt>
      <trkpt lat="41.759180976077914" lon="-2.463211007416248">
        <ele>1054.5999999999999</ele>
        <time>2018-05-28T07:55:56Z</time>
      </trkpt>
      <trkpt lat="41.759002022445202" lon="-2.462801970541477">
        <ele>1056</ele>
        <time>2018-05-28T07:56:06Z</time>
      </trkpt>
      <trkpt lat="41.75899799913168" lon="-2.462062016129494">
        <ele>1058.5</ele>
        <time>2018-05-28T07:56:23Z</time>
      </trkpt>
      <trkpt lat="41.759102018550038" lon="-2.461493974551559">
        <ele>1052.4000000000001</ele>
        <time>2018-05-28T07:56:36Z</time>
      </trkpt>
      <trkpt lat="41.759052984416485" lon="-2.461100025102496">
        <ele>1049.3</ele>
        <time>2018-05-28T07:56:45Z</time>
      </trkpt>
      <trkpt lat="41.758778980001807" lon="-2.460660981014371">
        <ele>1048.3</ele>
        <time>2018-05-28T07:56:57Z</time>
      </trkpt>
      <trkpt lat="41.758775040507317" lon="-2.459825975820422">
        <ele>1046</ele>
        <time>2018-05-28T07:57:16Z</time>
      </trkpt>
      <trkpt lat="41.75863103941083" lon="-2.459290958940983">
        <ele>1042.5999999999999</ele>
        <time>2018-05-28T07:57:28Z</time>
      </trkpt>
      <trkpt lat="41.75820498727262" lon="-2.458994993939996">
        <ele>1039.5</ele>
        <time>2018-05-28T07:57:43Z</time>
      </trkpt>
      <trkpt lat="41.757826963439584" lon="-2.458950988948345">
        <ele>1040.0999999999999</ele>
        <time>2018-05-28T07:57:54Z</time>
      </trkpt>
      <trkpt lat="41.757520018145442" lon="-2.458781003952026">
        <ele>1040.5</ele>
        <time>2018-05-28T07:58:04Z</time>
      </trkpt>
      <trkpt lat="41.757185999304056" lon="-2.458169041201472">
        <ele>1033.8</ele>
        <time>2018-05-28T07:58:20Z</time>
      </trkpt>
      <trkpt lat="41.756819039583206" lon="-2.457746006548405">
        <ele>1028.9000000000001</ele>
        <time>2018-05-28T07:58:35Z</time>
      </trkpt>
      <trkpt lat="41.756579987704754" lon="-2.457164973020554">
        <ele>1020.8</ele>
        <time>2018-05-28T07:58:50Z</time>
      </trkpt>
      <trkpt lat="41.756647964939475" lon="-2.456629034131765">
        <ele>1014.2</ele>
        <time>2018-05-28T07:59:02Z</time>
      </trkpt>
      <trkpt lat="41.757305022329092" lon="-2.455851025879383">
        <ele>1012.3</ele>
        <time>2018-05-28T07:59:28Z</time>
      </trkpt>
      <trkpt lat="41.756458031013608" lon="-2.456410015001893">
        <ele>1009.8</ele>
        <time>2018-05-28T07:59:56Z</time>
      </trkpt>
      <trkpt lat="41.75577599555254" lon="-2.456825003027916">
        <ele>1011</ele>
        <time>2018-05-28T08:00:18Z</time>
      </trkpt>
      <trkpt lat="41.754822973161936" lon="-2.457541991025209">
        <ele>1011.6</ele>
        <time>2018-05-28T08:00:50Z</time>
      </trkpt>
      <trkpt lat="41.754671009257436" lon="-2.457669982686639">
        <ele>1010.7</ele>
        <time>2018-05-28T08:00:56Z</time>
      </trkpt>
      <trkpt lat="41.754469005391002" lon="-2.457530004903674">
        <ele>1009.7</ele>
        <time>2018-05-28T08:01:02Z</time>
      </trkpt>
      <trkpt lat="41.754218973219395" lon="-2.457090960815549">
        <ele>1014.3</ele>
        <time>2018-05-28T08:01:15Z</time>
      </trkpt>
      <trkpt lat="41.754253003746271" lon="-2.456632973626256">
        <ele>1020.6</ele>
        <time>2018-05-28T08:01:25Z</time>
      </trkpt>
      <trkpt lat="41.756001971662045" lon="-2.454712009057403">
        <ele>1018.2</ele>
        <time>2018-05-28T08:02:32Z</time>
      </trkpt>
      <trkpt lat="41.757379034534097" lon="-2.453990997746587">
        <ele>1012.1</ele>
        <time>2018-05-28T08:03:16Z</time>
      </trkpt>
      <trkpt lat="41.758486032485962" lon="-2.453571986407042">
        <ele>1008.1</ele>
        <time>2018-05-28T08:03:50Z</time>
      </trkpt>
      <trkpt lat="41.759192040190101" lon="-2.453219024464488">
        <ele>1007.4</ele>
        <time>2018-05-28T08:04:12Z</time>
      </trkpt>
      <trkpt lat="41.760347988456488" lon="-2.452973015606403">
        <ele>1005.9</ele>
        <time>2018-05-28T08:04:47Z</time>
      </trkpt>
      <trkpt lat="41.760831037536263" lon="-2.453000005334616">
        <ele>1005.5</ele>
        <time>2018-05-28T08:05:01Z</time>
      </trkpt>
      <trkpt lat="41.761532016098499" lon="-2.452533971518278">
        <ele>1008.4</ele>
        <time>2018-05-28T08:05:24Z</time>
      </trkpt>
      <trkpt lat="41.76153302192688" lon="-2.452531959861517">
        <ele>1008.4</ele>
        <time>2018-05-28T08:05:25Z</time>
      </trkpt>
      <trkpt lat="41.761651961132884" lon="-2.452057963237166">
        <ele>1012.2</ele>
        <time>2018-05-28T08:05:36Z</time>
      </trkpt>
      <trkpt lat="41.761769978329539" lon="-2.451715981587768">
        <ele>1014.8</ele>
        <time>2018-05-28T08:05:44Z</time>
      </trkpt>
      <trkpt lat="41.761895036324859" lon="-2.451397972181439">
        <ele>1017.1</ele>
        <time>2018-05-28T08:05:52Z</time>
      </trkpt>
      <trkpt lat="41.761958990246058" lon="-2.451056996360421">
        <ele>1018.3</ele>
        <time>2018-05-28T08:06:00Z</time>
      </trkpt>
      <trkpt lat="41.761996038258076" lon="-2.451050039380789">
        <ele>1018.1</ele>
        <time>2018-05-28T08:06:01Z</time>
      </trkpt>
      <trkpt lat="41.762015987187624" lon="-2.450791960582137">
        <ele>1018</ele>
        <time>2018-05-28T08:06:07Z</time>
      </trkpt>
      <trkpt lat="41.762034008279443" lon="-2.4504329636693">
        <ele>1017.7</ele>
        <time>2018-05-28T08:06:15Z</time>
      </trkpt>
      <trkpt lat="41.762057980522513" lon="-2.450121995061636">
        <ele>1018.8</ele>
        <time>2018-05-28T08:06:21Z</time>
      </trkpt>
      <trkpt lat="41.762060998007655" lon="-2.449727039784193">
        <ele>1020.7</ele>
        <time>2018-05-28T08:06:30Z</time>
      </trkpt>
      <trkpt lat="41.762140961363912" lon="-2.449474995955825">
        <ele>1021.2</ele>
        <time>2018-05-28T08:06:36Z</time>
      </trkpt>
      <trkpt lat="41.762318992987275" lon="-2.449310962110758">
        <ele>1021.7</ele>
        <time>2018-05-28T08:06:43Z</time>
      </trkpt>
      <trkpt lat="41.762283034622669" lon="-2.449072999879718">
        <ele>1022.2</ele>
        <time>2018-05-28T08:06:48Z</time>
      </trkpt>
      <trkpt lat="41.76224104128778" lon="-2.448706962168217">
        <ele>1022.8</ele>
        <time>2018-05-28T08:06:56Z</time>
      </trkpt>
      <trkpt lat="41.762197958305478" lon="-2.448398005217314">
        <ele>1022.7</ele>
        <time>2018-05-28T08:07:03Z</time>
      </trkpt>
      <trkpt lat="41.762155964970589" lon="-2.448026016354561">
        <ele>1022.6</ele>
        <time>2018-05-28T08:07:11Z</time>
      </trkpt>
      <trkpt lat="41.762110032141209" lon="-2.447627037763596">
        <ele>1022.2</ele>
        <time>2018-05-28T08:07:20Z</time>
      </trkpt>
      <trkpt lat="41.762081030756235" lon="-2.447139965370297">
        <ele>1022</ele>
        <time>2018-05-28T08:07:31Z</time>
      </trkpt>
      <trkpt lat="41.76209201104939" lon="-2.446764037013054">
        <ele>1022.9</ele>
        <time>2018-05-28T08:07:39Z</time>
      </trkpt>
      <trkpt lat="41.76211598329246" lon="-2.446332033723593">
        <ele>1024.2</ele>
        <time>2018-05-28T08:07:49Z</time>
      </trkpt>
      <trkpt lat="41.762120006605983" lon="-2.445906987413764">
        <ele>1025.2</ele>
        <time>2018-05-28T08:07:58Z</time>
      </trkpt>
      <trkpt lat="41.762108020484447" lon="-2.445415975525975">
        <ele>1026.3</ele>
        <time>2018-05-28T08:08:09Z</time>
      </trkpt>
      <trkpt lat="41.762097040191293" lon="-2.445052033290267">
        <ele>1027</ele>
        <time>2018-05-28T08:08:17Z</time>
      </trkpt>
      <trkpt lat="41.762081030756235" lon="-2.444451972842217">
        <ele>1027.9000000000001</ele>
        <time>2018-05-28T08:08:31Z</time>
      </trkpt>
      <trkpt lat="41.762053035199642" lon="-2.44411401450634">
        <ele>1027.8</ele>
        <time>2018-05-28T08:08:38Z</time>
      </trkpt>
      <trkpt lat="41.762031996622682" lon="-2.443866999819875">
        <ele>1027.8</ele>
        <time>2018-05-28T08:08:44Z</time>
      </trkpt>
      <trkpt lat="41.762026967480779" lon="-2.443610010668635">
        <ele>1027.5</ele>
        <time>2018-05-28T08:08:49Z</time>
      </trkpt>
      <trkpt lat="41.761925965547562" lon="-2.443264005705714">
        <ele>1028.0999999999999</ele>
        <time>2018-05-28T08:08:58Z</time>
      </trkpt>
      <trkpt lat="41.761852959170938" lon="-2.442855974659324">
        <ele>1028.3</ele>
        <time>2018-05-28T08:09:07Z</time>
      </trkpt>
      <trkpt lat="41.761769978329539" lon="-2.44241600856185">
        <ele>1029.5999999999999</ele>
        <time>2018-05-28T08:09:17Z</time>
      </trkpt>
      <trkpt lat="41.761682974174619" lon="-2.442090958356857">
        <ele>1030</ele>
        <time>2018-05-28T08:09:24Z</time>
      </trkpt>
      <trkpt lat="41.761627988889813" lon="-2.441800022497773">
        <ele>1031</ele>
        <time>2018-05-28T08:09:31Z</time>
      </trkpt>
      <trkpt lat="41.761565040796995" lon="-2.44142803363502">
        <ele>1032</ele>
        <time>2018-05-28T08:09:40Z</time>
      </trkpt>
      <trkpt lat="41.761536039412022" lon="-2.44110600091517">
        <ele>1032.5</ele>
        <time>2018-05-28T08:09:47Z</time>
      </trkpt>
      <trkpt lat="41.761542996391654" lon="-2.440878013148904">
        <ele>1032.9000000000001</ele>
        <time>2018-05-28T08:09:52Z</time>
      </trkpt>
      <trkpt lat="41.761547019705176" lon="-2.440566038712859">
        <ele>1033.2</ele>
        <time>2018-05-28T08:09:59Z</time>
      </trkpt>
      <trkpt lat="41.761583983898163" lon="-2.440135041251779">
        <ele>1033.7</ele>
        <time>2018-05-28T08:10:08Z</time>
      </trkpt>
      <trkpt lat="41.761606028303504" lon="-2.439751988276839">
        <ele>1033.9000000000001</ele>
        <time>2018-05-28T08:10:17Z</time>
      </trkpt>
      <trkpt lat="41.761631006374955" lon="-2.439411012455821">
        <ele>1034.0999999999999</ele>
        <time>2018-05-28T08:10:24Z</time>
      </trkpt>
      <trkpt lat="41.761665036901832" lon="-2.438980014994741">
        <ele>1034.4000000000001</ele>
        <time>2018-05-28T08:10:34Z</time>
      </trkpt>
      <trkpt lat="41.761697977781296" lon="-2.438625041395426">
        <ele>1034.9000000000001</ele>
        <time>2018-05-28T08:10:42Z</time>
      </trkpt>
      <trkpt lat="41.761743994429708" lon="-2.438097987323999">
        <ele>1036.5999999999999</ele>
        <time>2018-05-28T08:10:54Z</time>
      </trkpt>
      <trkpt lat="41.761782970279455" lon="-2.437678975984454">
        <ele>1037.2</ele>
        <time>2018-05-28T08:11:03Z</time>
      </trkpt>
      <trkpt lat="41.761821024119854" lon="-2.437081011012197">
        <ele>1037.5</ele>
        <time>2018-05-28T08:11:16Z</time>
      </trkpt>
      <trkpt lat="41.761850025504827" lon="-2.436528978869319">
        <ele>1039.0999999999999</ele>
        <time>2018-05-28T08:11:28Z</time>
      </trkpt>
      <trkpt lat="41.761838039383292" lon="-2.436050036922097">
        <ele>1041</ele>
        <time>2018-05-28T08:11:39Z</time>
      </trkpt>
      <trkpt lat="41.761758998036385" lon="-2.435531029477716">
        <ele>1043.9000000000001</ele>
        <time>2018-05-28T08:11:51Z</time>
      </trkpt>
      <trkpt lat="41.761677023023367" lon="-2.434992995113134">
        <ele>1045.0999999999999</ele>
        <time>2018-05-28T08:12:03Z</time>
      </trkpt>
      <trkpt lat="41.761546013876796" lon="-2.434040978550911">
        <ele>1045.8</ele>
        <time>2018-05-28T08:12:24Z</time>
      </trkpt>
      <trkpt lat="41.761489016935229" lon="-2.4332420155406">
        <ele>1046.0999999999999</ele>
        <time>2018-05-28T08:12:42Z</time>
      </trkpt>
      <trkpt lat="41.761510977521539" lon="-2.432594010606408">
        <ele>1046.2</ele>
        <time>2018-05-28T08:12:56Z</time>
      </trkpt>
      <trkpt lat="41.761593958362937" lon="-2.431918010115624">
        <ele>1045.7</ele>
        <time>2018-05-28T08:13:11Z</time>
      </trkpt>
      <trkpt lat="41.761689009144902" lon="-2.431250978261232">
        <ele>1044.5</ele>
        <time>2018-05-28T08:13:26Z</time>
      </trkpt>
      <trkpt lat="41.761757992208004" lon="-2.430916037410498">
        <ele>1044.2</ele>
        <time>2018-05-28T08:13:34Z</time>
      </trkpt>
      <trkpt lat="41.761827981099486" lon="-2.430399963632226">
        <ele>1043.5999999999999</ele>
        <time>2018-05-28T08:13:46Z</time>
      </trkpt>
      <trkpt lat="41.761907022446394" lon="-2.429925967007875">
        <ele>1044</ele>
        <time>2018-05-28T08:13:56Z</time>
      </trkpt>
      <trkpt lat="41.761994026601315" lon="-2.429389022290707">
        <ele>1044.5999999999999</ele>
        <time>2018-05-28T08:14:09Z</time>
      </trkpt>
      <trkpt lat="41.762083964422345" lon="-2.42868603207171">
        <ele>1046.0999999999999</ele>
        <time>2018-05-28T08:14:24Z</time>
      </trkpt>
      <trkpt lat="41.762110032141209" lon="-2.428313959389925">
        <ele>1046.5999999999999</ele>
        <time>2018-05-28T08:14:33Z</time>
      </trkpt>
      <trkpt lat="41.762159988284111" lon="-2.42782898247242">
        <ele>1047.0999999999999</ele>
        <time>2018-05-28T08:14:43Z</time>
      </trkpt>
      <trkpt lat="41.762168034911156" lon="-2.427397985011339">
        <ele>1046.8</ele>
        <time>2018-05-28T08:14:53Z</time>
      </trkpt>
      <trkpt lat="41.762146996334195" lon="-2.427062960341573">
        <ele>1046.4000000000001</ele>
        <time>2018-05-28T08:15:00Z</time>
      </trkpt>
      <trkpt lat="41.76209201104939" lon="-2.426559962332249">
        <ele>1046</ele>
        <time>2018-05-28T08:15:12Z</time>
      </trkpt>
      <trkpt lat="41.761995032429695" lon="-2.426099963486195">
        <ele>1046.7</ele>
        <time>2018-05-28T08:15:22Z</time>
      </trkpt>
      <trkpt lat="41.761896964162588" lon="-2.425437038764358">
        <ele>1048.0999999999999</ele>
        <time>2018-05-28T08:15:37Z</time>
      </trkpt>
      <trkpt lat="41.761719016358256" lon="-2.425453970208764">
        <ele>1049.0999999999999</ele>
        <time>2018-05-28T08:15:42Z</time>
      </trkpt>
      <trkpt lat="41.761493040248752" lon="-2.425350034609437">
        <ele>1050.5999999999999</ele>
        <time>2018-05-28T08:15:50Z</time>
      </trkpt>
      <trkpt lat="41.761412993073463" lon="-2.425264958292246">
        <ele>1051.0999999999999</ele>
        <time>2018-05-28T08:15:53Z</time>
      </trkpt>
      <trkpt lat="41.761373011395335" lon="-2.425103019922972">
        <ele>1051.4000000000001</ele>
        <time>2018-05-28T08:15:56Z</time>
      </trkpt>
      <trkpt lat="41.761365970596671" lon="-2.424673028290272">
        <ele>1051.5999999999999</ele>
        <time>2018-05-28T08:16:06Z</time>
      </trkpt>
      <trkpt lat="41.761370999738574" lon="-2.424518968909979">
        <ele>1051.5999999999999</ele>
        <time>2018-05-28T08:16:09Z</time>
      </trkpt>
      <trkpt lat="41.761345015838742" lon="-2.424399023875594">
        <ele>1051.5999999999999</ele>
        <time>2018-05-28T08:16:12Z</time>
      </trkpt>
      <trkpt lat="41.761287013068795" lon="-2.423993004485965">
        <ele>1051.8</ele>
        <time>2018-05-28T08:16:21Z</time>
      </trkpt>
      <trkpt lat="41.76123303361237" lon="-2.42359695956111">
        <ele>1052.0999999999999</ele>
        <time>2018-05-28T08:16:30Z</time>
      </trkpt>
      <trkpt lat="41.761206965893507" lon="-2.423311974853277">
        <ele>1052.3</ele>
        <time>2018-05-28T08:16:36Z</time>
      </trkpt>
      <trkpt lat="41.761200008913875" lon="-2.423020033165813">
        <ele>1052.3</ele>
        <time>2018-05-28T08:16:43Z</time>
      </trkpt>
      <trkpt lat="41.761177964508533" lon="-2.422830015420914">
        <ele>1052.3</ele>
        <time>2018-05-28T08:16:47Z</time>
      </trkpt>
      <trkpt lat="41.761160027235746" lon="-2.422538995742798">
        <ele>1052</ele>
        <time>2018-05-28T08:16:54Z</time>
      </trkpt>
      <trkpt lat="41.761004962027073" lon="-2.422230960801244">
        <ele>1052.4000000000001</ele>
        <time>2018-05-28T08:17:02Z</time>
      </trkpt>
      <trkpt lat="41.76097696647048" lon="-2.421896019950509">
        <ele>1052.4000000000001</ele>
        <time>2018-05-28T08:17:09Z</time>
      </trkpt>
      <trkpt lat="41.760832965373993" lon="-2.421688986942172">
        <ele>1053.2</ele>
        <time>2018-05-28T08:17:15Z</time>
      </trkpt>
      <trkpt lat="41.760646970942616" lon="-2.421437026932836">
        <ele>1054.5</ele>
        <time>2018-05-28T08:17:23Z</time>
      </trkpt>
      <trkpt lat="41.760601960122585" lon="-2.420980967581272">
        <ele>1054.3</ele>
        <time>2018-05-28T08:17:33Z</time>
      </trkpt>
      <trkpt lat="41.760429963469505" lon="-2.419886961579323">
        <ele>1055.2</ele>
        <time>2018-05-28T08:17:58Z</time>
      </trkpt>
      <trkpt lat="41.760342959314585" lon="-2.419540034607053">
        <ele>1057.2</ele>
        <time>2018-05-28T08:18:06Z</time>
      </trkpt>
      <trkpt lat="41.760526020079851" lon="-2.419249014928937">
        <ele>1055.5999999999999</ele>
        <time>2018-05-28T08:18:15Z</time>
      </trkpt>
      <trkpt lat="41.760664992034435" lon="-2.419151030480862">
        <ele>1054.5999999999999</ele>
        <time>2018-05-28T08:18:19Z</time>
      </trkpt>
      <trkpt lat="41.760809998959303" lon="-2.418989008292556">
        <ele>1053.5</ele>
        <time>2018-05-28T08:18:25Z</time>
      </trkpt>
      <trkpt lat="41.760814022272825" lon="-2.418833021074534">
        <ele>1053.5999999999999</ele>
        <time>2018-05-28T08:18:28Z</time>
      </trkpt>
      <trkpt lat="41.760771023109555" lon="-2.418494978919625">
        <ele>1053.8</ele>
        <time>2018-05-28T08:18:36Z</time>
      </trkpt>
      <trkpt lat="41.760614030063152" lon="-2.418234972283244">
        <ele>1054.9000000000001</ele>
        <time>2018-05-28T08:18:43Z</time>
      </trkpt>
      <trkpt lat="41.760390987619758" lon="-2.417770028114319">
        <ele>1056.2</ele>
        <time>2018-05-28T08:18:56Z</time>
      </trkpt>
      <trkpt lat="41.760184960439801" lon="-2.416940974071622">
        <ele>1058.4000000000001</ele>
        <time>2018-05-28T08:19:15Z</time>
      </trkpt>
      <trkpt lat="41.759997960180044" lon="-2.416738970205188">
        <ele>1060.8</ele>
        <time>2018-05-28T08:19:22Z</time>
      </trkpt>
      <trkpt lat="41.759550031274557" lon="-2.416733019053936">
        <ele>1066.5</ele>
        <time>2018-05-28T08:19:35Z</time>
      </trkpt>
      <trkpt lat="41.759413992986083" lon="-2.416592035442591">
        <ele>1067.3</ele>
        <time>2018-05-28T08:19:41Z</time>
      </trkpt>
      <trkpt lat="41.759259011596441" lon="-2.41648499853909">
        <ele>1068.4000000000001</ele>
        <time>2018-05-28T08:19:46Z</time>
      </trkpt>
      <trkpt lat="41.759072011336684" lon="-2.41598904132843">
        <ele>1069.0999999999999</ele>
        <time>2018-05-28T08:19:58Z</time>
      </trkpt>
      <trkpt lat="41.758707985281944" lon="-2.414924958720803">
        <ele>1071.2</ele>
        <time>2018-05-28T08:20:24Z</time>
      </trkpt>
      <trkpt lat="41.758363991975784" lon="-2.414063969627023">
        <ele>1073.4000000000001</ele>
        <time>2018-05-28T08:20:45Z</time>
      </trkpt>
      <trkpt lat="41.758122006431222" lon="-2.413410013541579">
        <ele>1073.7</ele>
        <time>2018-05-28T08:21:02Z</time>
      </trkpt>
      <trkpt lat="41.757882032543421" lon="-2.412779023870826">
        <ele>1072.9000000000001</ele>
        <time>2018-05-28T08:21:17Z</time>
      </trkpt>
      <trkpt lat="41.75770903006196" lon="-2.412251969799399">
        <ele>1073.0999999999999</ele>
        <time>2018-05-28T08:21:30Z</time>
      </trkpt>
      <trkpt lat="41.757480036467314" lon="-2.411401960998774">
        <ele>1073.9000000000001</ele>
        <time>2018-05-28T08:21:50Z</time>
      </trkpt>
      <trkpt lat="41.757365958765149" lon="-2.411021003499627">
        <ele>1073.8</ele>
        <time>2018-05-28T08:21:59Z</time>
      </trkpt>
      <trkpt lat="41.757163032889366" lon="-2.410185998305678">
        <ele>1072.0999999999999</ele>
        <time>2018-05-28T08:22:18Z</time>
      </trkpt>
      <trkpt lat="41.756933033466339" lon="-2.40924496203661">
        <ele>1070.0999999999999</ele>
        <time>2018-05-28T08:22:40Z</time>
      </trkpt>
      <trkpt lat="41.756911994889379" lon="-2.408825028687716">
        <ele>1070.0999999999999</ele>
        <time>2018-05-28T08:22:50Z</time>
      </trkpt>
      <trkpt lat="41.756934961304069" lon="-2.408588994294405">
        <ele>1070.0999999999999</ele>
        <time>2018-05-28T08:22:55Z</time>
      </trkpt>
      <trkpt lat="41.756724994629622" lon="-2.408253969624639">
        <ele>1072</ele>
        <time>2018-05-28T08:23:05Z</time>
      </trkpt>
      <trkpt lat="41.756384018808603" lon="-2.407171027734876">
        <ele>1073.5</ele>
        <time>2018-05-28T08:23:31Z</time>
      </trkpt>
      <trkpt lat="41.756454007700086" lon="-2.405092986300588">
        <ele>1075.9000000000001</ele>
        <time>2018-05-28T08:24:17Z</time>
      </trkpt>
      <trkpt lat="41.756434980779886" lon="-2.404805989935994">
        <ele>1076.5999999999999</ele>
        <time>2018-05-28T08:24:23Z</time>
      </trkpt>
      <trkpt lat="41.756402039900422" lon="-2.404528968036175">
        <ele>1077.3</ele>
        <time>2018-05-28T08:24:29Z</time>
      </trkpt>
      <trkpt lat="41.756320986896753" lon="-2.404211964458227">
        <ele>1077.7</ele>
        <time>2018-05-28T08:24:36Z</time>
      </trkpt>
      <trkpt lat="41.756258038803935" lon="-2.403927985578775">
        <ele>1078</ele>
        <time>2018-05-28T08:24:43Z</time>
      </trkpt>
      <trkpt lat="41.756221996620297" lon="-2.403750959783793">
        <ele>1078.0999999999999</ele>
        <time>2018-05-28T08:24:47Z</time>
      </trkpt>
      <trkpt lat="41.756174974143505" lon="-2.40346597507596">
        <ele>1078.4000000000001</ele>
        <time>2018-05-28T08:24:54Z</time>
      </trkpt>
      <trkpt lat="41.7561199888587" lon="-2.403181996196508">
        <ele>1078.5999999999999</ele>
        <time>2018-05-28T08:25:00Z</time>
      </trkpt>
      <trkpt lat="41.756086964160204" lon="-2.402950990945101">
        <ele>1078.8</ele>
        <time>2018-05-28T08:25:05Z</time>
      </trkpt>
      <trkpt lat="41.75603399053216" lon="-2.402859963476658">
        <ele>1078.9000000000001</ele>
        <time>2018-05-28T08:25:08Z</time>
      </trkpt>
      <trkpt lat="41.755997026339173" lon="-2.402586964890361">
        <ele>1078.5999999999999</ele>
        <time>2018-05-28T08:25:14Z</time>
      </trkpt>
      <trkpt lat="41.755974981933832" lon="-2.402330981567502">
        <ele>1078.2</ele>
        <time>2018-05-28T08:25:20Z</time>
      </trkpt>
      <trkpt lat="41.75590599887073" lon="-2.40206602960825">
        <ele>1077.8</ele>
        <time>2018-05-28T08:25:26Z</time>
      </trkpt>
      <trkpt lat="41.755864005535841" lon="-2.401814991608262">
        <ele>1077.0999999999999</ele>
        <time>2018-05-28T08:25:31Z</time>
      </trkpt>
      <trkpt lat="41.755790999159217" lon="-2.401490025222302">
        <ele>1076.3</ele>
        <time>2018-05-28T08:25:39Z</time>
      </trkpt>
      <trkpt lat="41.755728973075747" lon="-2.401184001937509">
        <ele>1075.7</ele>
        <time>2018-05-28T08:25:46Z</time>
      </trkpt>
      <trkpt lat="41.755665019154549" lon="-2.400904968380928">
        <ele>1075.8</ele>
        <time>2018-05-28T08:25:52Z</time>
      </trkpt>
      <trkpt lat="41.755613973364234" lon="-2.400832967832685">
        <ele>1075.9000000000001</ele>
        <time>2018-05-28T08:25:55Z</time>
      </trkpt>
      <trkpt lat="41.755607016384602" lon="-2.400556029751897">
        <ele>1076</ele>
        <time>2018-05-28T08:26:01Z</time>
      </trkpt>
      <trkpt lat="41.755598969757557" lon="-2.40043600089848">
        <ele>1076</ele>
        <time>2018-05-28T08:26:03Z</time>
      </trkpt>
      <trkpt lat="41.755576003342867" lon="-2.400247994810343">
        <ele>1076</ele>
        <time>2018-05-28T08:26:08Z</time>
      </trkpt>
      <trkpt lat="41.755516994744539" lon="-2.399937026202679">
        <ele>1076.0999999999999</ele>
        <time>2018-05-28T08:26:15Z</time>
      </trkpt>
      <trkpt lat="41.755528980866075" lon="-2.399699985980988">
        <ele>1076.0999999999999</ele>
        <time>2018-05-28T08:26:20Z</time>
      </trkpt>
      <trkpt lat="41.755483970046043" lon="-2.399533018469811">
        <ele>1076.0999999999999</ele>
        <time>2018-05-28T08:26:24Z</time>
      </trkpt>
      <trkpt lat="41.755468966439366" lon="-2.399421958252788">
        <ele>1076.2</ele>
        <time>2018-05-28T08:26:26Z</time>
      </trkpt>
      <trkpt lat="41.755425967276096" lon="-2.399172009900212">
        <ele>1076.5</ele>
        <time>2018-05-28T08:26:32Z</time>
      </trkpt>
      <trkpt lat="41.755376011133194" lon="-2.398903034627438">
        <ele>1076.9000000000001</ele>
        <time>2018-05-28T08:26:38Z</time>
      </trkpt>
      <trkpt lat="41.755327982828021" lon="-2.39860899746418">
        <ele>1077</ele>
        <time>2018-05-28T08:26:45Z</time>
      </trkpt>
      <trkpt lat="41.755294036120176" lon="-2.398458961397409">
        <ele>1076.8</ele>
        <time>2018-05-28T08:26:48Z</time>
      </trkpt>
      <trkpt lat="41.755232010036707" lon="-2.398184034973383">
        <ele>1076.7</ele>
        <time>2018-05-28T08:26:55Z</time>
      </trkpt>
      <trkpt lat="41.755133019760251" lon="-2.398015977814794">
        <ele>1076.8</ele>
        <time>2018-05-28T08:26:59Z</time>
      </trkpt>
      <trkpt lat="41.755096977576613" lon="-2.397686988115311">
        <ele>1076.7</ele>
        <time>2018-05-28T08:27:07Z</time>
      </trkpt>
      <trkpt lat="41.755032017827034" lon="-2.397422958165407">
        <ele>1076.5999999999999</ele>
        <time>2018-05-28T08:27:13Z</time>
      </trkpt>
      <trkpt lat="41.754965968430042" lon="-2.397159012034535">
        <ele>1076.5999999999999</ele>
        <time>2018-05-28T08:27:19Z</time>
      </trkpt>
      <trkpt lat="41.754935039207339" lon="-2.397071002051234">
        <ele>1076.5999999999999</ele>
        <time>2018-05-28T08:27:21Z</time>
      </trkpt>
      <trkpt lat="41.754846023395658" lon="-2.396643022075295">
        <ele>1077.2</ele>
        <time>2018-05-28T08:27:31Z</time>
      </trkpt>
      <trkpt lat="41.754765976220369" lon="-2.396190986037254">
        <ele>1077.8</ele>
        <time>2018-05-28T08:27:41Z</time>
      </trkpt>
      <trkpt lat="41.754647037014365" lon="-2.395542981103063">
        <ele>1077.9000000000001</ele>
        <time>2018-05-28T08:27:56Z</time>
      </trkpt>
      <trkpt lat="41.754499012604356" lon="-2.394897993654013">
        <ele>1076.9000000000001</ele>
        <time>2018-05-28T08:28:11Z</time>
      </trkpt>
      <trkpt lat="41.754370015114546" lon="-2.394287958741188">
        <ele>1076.4000000000001</ele>
        <time>2018-05-28T08:28:25Z</time>
      </trkpt>
      <trkpt lat="41.754282005131245" lon="-2.393533000722528">
        <ele>1076.4000000000001</ele>
        <time>2018-05-28T08:28:42Z</time>
      </trkpt>
      <trkpt lat="41.754136998206377" lon="-2.392818024381995">
        <ele>1076.5</ele>
        <time>2018-05-28T08:28:58Z</time>
      </trkpt>
      <trkpt lat="41.753968019038439" lon="-2.392159961163998">
        <ele>1076.7</ele>
        <time>2018-05-28T08:29:14Z</time>
      </trkpt>
      <trkpt lat="41.753807002678514" lon="-2.39141003228724">
        <ele>1077</ele>
        <time>2018-05-28T08:29:31Z</time>
      </trkpt>
      <trkpt lat="41.753828041255474" lon="-2.391270976513624">
        <ele>1077</ele>
        <time>2018-05-28T08:29:34Z</time>
      </trkpt>
      <trkpt lat="41.754080001264811" lon="-2.391285980120301">
        <ele>1077</ele>
        <time>2018-05-28T08:29:41Z</time>
      </trkpt>
      <trkpt lat="41.754653993993998" lon="-2.391440039500594">
        <ele>1076.9000000000001</ele>
        <time>2018-05-28T08:29:59Z</time>
      </trkpt>
      <trkpt lat="41.755203008651733" lon="-2.391587980091572">
        <ele>1077.3</ele>
        <time>2018-05-28T08:30:15Z</time>
      </trkpt>
      <trkpt lat="41.755827041342854" lon="-2.391746984794736">
        <ele>1077.7</ele>
        <time>2018-05-28T08:30:34Z</time>
      </trkpt>
      <trkpt lat="41.756306989118457" lon="-2.391869025304914">
        <ele>1078.2</ele>
        <time>2018-05-28T08:30:49Z</time>
      </trkpt>
      <trkpt lat="41.757034035399556" lon="-2.392058959230781">
        <ele>1080.8</ele>
        <time>2018-05-28T08:31:11Z</time>
      </trkpt>
      <trkpt lat="41.757550025358796" lon="-2.392197009176016">
        <ele>1082.2</ele>
        <time>2018-05-28T08:31:26Z</time>
      </trkpt>
      <trkpt lat="41.757738031446934" lon="-2.392079997807741">
        <ele>1082.5999999999999</ele>
        <time>2018-05-28T08:31:32Z</time>
      </trkpt>
      <trkpt lat="41.757659995928407" lon="-2.391726030036807">
        <ele>1081.8</ele>
        <time>2018-05-28T08:31:41Z</time>
      </trkpt>
      <trkpt lat="41.75753703340888" lon="-2.391254967078567">
        <ele>1081</ele>
        <time>2018-05-28T08:31:52Z</time>
      </trkpt>
      <trkpt lat="41.757535021752119" lon="-2.390925977379084">
        <ele>1080.8</ele>
        <time>2018-05-28T08:31:59Z</time>
      </trkpt>
      <trkpt lat="41.75747299566865" lon="-2.390543008223176">
        <ele>1080.5999999999999</ele>
        <time>2018-05-28T08:32:08Z</time>
      </trkpt>
      <trkpt lat="41.757435025647283" lon="-2.390140006318688">
        <ele>1080.2</ele>
        <time>2018-05-28T08:32:17Z</time>
      </trkpt>
      <trkpt lat="41.757406024262309" lon="-2.389829959720373">
        <ele>1079.9000000000001</ele>
        <time>2018-05-28T08:32:23Z</time>
      </trkpt>
      <trkpt lat="41.75734500400722" lon="-2.38945696502924">
        <ele>1079.0999999999999</ele>
        <time>2018-05-28T08:32:32Z</time>
      </trkpt>
      <trkpt lat="41.757294964045286" lon="-2.3890670388937">
        <ele>1077.4000000000001</ele>
        <time>2018-05-28T08:32:41Z</time>
      </trkpt>
      <trkpt lat="41.757273003458977" lon="-2.388868974521756">
        <ele>1076.5</ele>
        <time>2018-05-28T08:32:45Z</time>
      </trkpt>
      <trkpt lat="41.757274009287357" lon="-2.388742994517088">
        <ele>1076</ele>
        <time>2018-05-28T08:32:48Z</time>
      </trkpt>
      <trkpt lat="41.757287001237273" lon="-2.388452980667353">
        <ele>1074.8</ele>
        <time>2018-05-28T08:32:54Z</time>
      </trkpt>
      <trkpt lat="41.75730099901557" lon="-2.388147041201592">
        <ele>1073.5</ele>
        <time>2018-05-28T08:33:01Z</time>
      </trkpt>
      <trkpt lat="41.757350033149123" lon="-2.387853004038334">
        <ele>1072.0999999999999</ele>
        <time>2018-05-28T08:33:08Z</time>
      </trkpt>
      <trkpt lat="41.75734399817884" lon="-2.387482021003962">
        <ele>1070.5999999999999</ele>
        <time>2018-05-28T08:33:16Z</time>
      </trkpt>
      <trkpt lat="41.757305022329092" lon="-2.387146996334195">
        <ele>1069.3</ele>
        <time>2018-05-28T08:33:23Z</time>
      </trkpt>
      <trkpt lat="41.757228998467326" lon="-2.386854970827699">
        <ele>1068.7</ele>
        <time>2018-05-28T08:33:30Z</time>
      </trkpt>
      <trkpt lat="41.757225980982184" lon="-2.386532016098499">
        <ele>1068.2</ele>
        <time>2018-05-28T08:33:37Z</time>
      </trkpt>
      <trkpt lat="41.757234027609229" lon="-2.386205038055778">
        <ele>1067.8</ele>
        <time>2018-05-28T08:33:45Z</time>
      </trkpt>
      <trkpt lat="41.757228998467326" lon="-2.385856015607715">
        <ele>1067.3</ele>
        <time>2018-05-28T08:33:52Z</time>
      </trkpt>
      <trkpt lat="41.757220029830933" lon="-2.385519985109568">
        <ele>1066.8</ele>
        <time>2018-05-28T08:34:00Z</time>
      </trkpt>
      <trkpt lat="41.757227992638946" lon="-2.385181020945311">
        <ele>1066</ele>
        <time>2018-05-28T08:34:07Z</time>
      </trkpt>
      <trkpt lat="41.757228998467326" lon="-2.384862005710602">
        <ele>1065</ele>
        <time>2018-05-28T08:34:14Z</time>
      </trkpt>
      <trkpt lat="41.75715196877718" lon="-2.384502002969384">
        <ele>1063.9000000000001</ele>
        <time>2018-05-28T08:34:23Z</time>
      </trkpt>
      <trkpt lat="41.757059013471007" lon="-2.383920969441533">
        <ele>1062.5</ele>
        <time>2018-05-28T08:34:36Z</time>
      </trkpt>
      <trkpt lat="41.756923981010914" lon="-2.383302971720696">
        <ele>1061.5</ele>
        <time>2018-05-28T08:34:50Z</time>
      </trkpt>
      <trkpt lat="41.756774028763175" lon="-2.382721016183496">
        <ele>1060.5</ele>
        <time>2018-05-28T08:35:04Z</time>
      </trkpt>
      <trkpt lat="41.756694987416267" lon="-2.382335029542446">
        <ele>1060.2</ele>
        <time>2018-05-28T08:35:12Z</time>
      </trkpt>
      <trkpt lat="41.756537994369864" lon="-2.381782997399569">
        <ele>1060.0999999999999</ele>
        <time>2018-05-28T08:35:25Z</time>
      </trkpt>
      <trkpt lat="41.756396004930139" lon="-2.381062991917133">
        <ele>1060</ele>
        <time>2018-05-28T08:35:42Z</time>
      </trkpt>
      <trkpt lat="41.756244041025639" lon="-2.380447005853057">
        <ele>1059</ele>
        <time>2018-05-28T08:35:56Z</time>
      </trkpt>
      <trkpt lat="41.756172962486744" lon="-2.379553997889161">
        <ele>1058.7</ele>
        <time>2018-05-28T08:36:16Z</time>
      </trkpt>
      <trkpt lat="41.756199030205607" lon="-2.379402033984661">
        <ele>1058.8</ele>
        <time>2018-05-28T08:36:20Z</time>
      </trkpt>
      <trkpt lat="41.756284022703767" lon="-2.378698037937284">
        <ele>1059.5</ele>
        <time>2018-05-28T08:36:35Z</time>
      </trkpt>
      <trkpt lat="41.756221996620297" lon="-2.378036035224795">
        <ele>1058.8</ele>
        <time>2018-05-28T08:36:50Z</time>
      </trkpt>
      <trkpt lat="41.756135998293757" lon="-2.377473022788763">
        <ele>1058.8</ele>
        <time>2018-05-28T08:37:03Z</time>
      </trkpt>
      <trkpt lat="41.756026027724147" lon="-2.376932976767421">
        <ele>1059</ele>
        <time>2018-05-28T08:37:15Z</time>
      </trkpt>
      <trkpt lat="41.755916979163885" lon="-2.37630601041019">
        <ele>1060.5999999999999</ele>
        <time>2018-05-28T08:37:29Z</time>
      </trkpt>
      <trkpt lat="41.755887977778912" lon="-2.375828996300697">
        <ele>1061.5</ele>
        <time>2018-05-28T08:37:40Z</time>
      </trkpt>
      <trkpt lat="41.755894012749195" lon="-2.37536396831274">
        <ele>1062.5</ele>
        <time>2018-05-28T08:37:50Z</time>
      </trkpt>
      <trkpt lat="41.756009012460709" lon="-2.375002959743142">
        <ele>1063.5999999999999</ele>
        <time>2018-05-28T08:37:59Z</time>
      </trkpt>
      <trkpt lat="41.7561199888587" lon="-2.37469500862062">
        <ele>1064.3</ele>
        <time>2018-05-28T08:38:07Z</time>
      </trkpt>
      <trkpt lat="41.756257032975554" lon="-2.374357972294092">
        <ele>1064.2</ele>
        <time>2018-05-28T08:38:15Z</time>
      </trkpt>
      <trkpt lat="41.756436992436647" lon="-2.374043986201286">
        <ele>1063.4000000000001</ele>
        <time>2018-05-28T08:38:24Z</time>
      </trkpt>
      <trkpt lat="41.756584011018276" lon="-2.373726982623339">
        <ele>1062.8</ele>
        <time>2018-05-28T08:38:32Z</time>
      </trkpt>
      <trkpt lat="41.756836976855993" lon="-2.372995996847749">
        <ele>1063.0999999999999</ele>
        <time>2018-05-28T08:38:50Z</time>
      </trkpt>
      <trkpt lat="41.75698097795248" lon="-2.372040040791035">
        <ele>1062.7</ele>
        <time>2018-05-28T08:39:11Z</time>
      </trkpt>
      <trkpt lat="41.757025988772511" lon="-2.371824039146304">
        <ele>1062.5999999999999</ele>
        <time>2018-05-28T08:39:16Z</time>
      </trkpt>
      <trkpt lat="41.756967986002564" lon="-2.37153897061944">
        <ele>1062.0999999999999</ele>
        <time>2018-05-28T08:39:23Z</time>
      </trkpt>
      <trkpt lat="41.75670001655817" lon="-2.370787030085921">
        <ele>1061.0999999999999</ele>
        <time>2018-05-28T08:39:41Z</time>
      </trkpt>
      <trkpt lat="41.756476974114776" lon="-2.370385034009814">
        <ele>1060.5999999999999</ele>
        <time>2018-05-28T08:39:52Z</time>
      </trkpt>
      <trkpt lat="41.756117977201939" lon="-2.36992503516376">
        <ele>1060.5999999999999</ele>
        <time>2018-05-28T08:40:07Z</time>
      </trkpt>
      <trkpt lat="41.75596903078258" lon="-2.369542988017201">
        <ele>1061.5</ele>
        <time>2018-05-28T08:40:17Z</time>
      </trkpt>
      <trkpt lat="41.75575302913785" lon="-2.369003025814891">
        <ele>1063.3</ele>
        <time>2018-05-28T08:40:30Z</time>
      </trkpt>
      <trkpt lat="41.755531998351216" lon="-2.368424003943801">
        <ele>1064.5</ele>
        <time>2018-05-28T08:40:45Z</time>
      </trkpt>
      <trkpt lat="41.755251958966255" lon="-2.367770969867706">
        <ele>1064.9000000000001</ele>
        <time>2018-05-28T08:41:01Z</time>
      </trkpt>
      <trkpt lat="41.755137965083122" lon="-2.367409039288759">
        <ele>1064.9000000000001</ele>
        <time>2018-05-28T08:41:10Z</time>
      </trkpt>
      <trkpt lat="41.754921963438392" lon="-2.366684004664421">
        <ele>1062.9000000000001</ele>
        <time>2018-05-28T08:41:27Z</time>
      </trkpt>
      <trkpt lat="41.754797995090485" lon="-2.366101965308189">
        <ele>1061</ele>
        <time>2018-05-28T08:41:40Z</time>
      </trkpt>
      <trkpt lat="41.754749966785312" lon="-2.365813041105866">
        <ele>1060.4000000000001</ele>
        <time>2018-05-28T08:41:47Z</time>
      </trkpt>
      <trkpt lat="41.754697998985648" lon="-2.365476004779339">
        <ele>1059.5</ele>
        <time>2018-05-28T08:41:55Z</time>
      </trkpt>
      <trkpt lat="41.754532037302852" lon="-2.364721968770027">
        <ele>1056.3</ele>
        <time>2018-05-28T08:42:12Z</time>
      </trkpt>
      <trkpt lat="41.754343025386333" lon="-2.363954018801451">
        <ele>1056.4000000000001</ele>
        <time>2018-05-28T08:42:30Z</time>
      </trkpt>
      <trkpt lat="41.754198018461466" lon="-2.363584041595459">
        <ele>1056.5999999999999</ele>
        <time>2018-05-28T08:42:39Z</time>
      </trkpt>
      <trkpt lat="41.753909010440111" lon="-2.363226972520351">
        <ele>1056.5</ele>
        <time>2018-05-28T08:42:51Z</time>
      </trkpt>
      <trkpt lat="41.753790993243456" lon="-2.362977024167776">
        <ele>1056.9000000000001</ele>
        <time>2018-05-28T08:42:57Z</time>
      </trkpt>
      <trkpt lat="41.753651015460491" lon="-2.362460028380156">
        <ele>1057.0999999999999</ele>
        <time>2018-05-28T08:43:09Z</time>
      </trkpt>
      <trkpt lat="41.753439037129283" lon="-2.361899027600884">
        <ele>1057.5999999999999</ele>
        <time>2018-05-28T08:43:23Z</time>
      </trkpt>
      <trkpt lat="41.753353960812092" lon="-2.361515974625945">
        <ele>1058.7</ele>
        <time>2018-05-28T08:43:32Z</time>
      </trkpt>
      <trkpt lat="41.753267962485552" lon="-2.360966959968209">
        <ele>1059.9000000000001</ele>
        <time>2018-05-28T08:43:45Z</time>
      </trkpt>
      <trkpt lat="41.753096971660852" lon="-2.360363965854049">
        <ele>1060.4000000000001</ele>
        <time>2018-05-28T08:43:59Z</time>
      </trkpt>
      <trkpt lat="41.75287501886487" lon="-2.359594004228711">
        <ele>1060.9000000000001</ele>
        <time>2018-05-28T08:44:17Z</time>
      </trkpt>
      <trkpt lat="41.752551980316639" lon="-2.358982963487506">
        <ele>1061.5999999999999</ele>
        <time>2018-05-28T08:44:34Z</time>
      </trkpt>
      <trkpt lat="41.751900035887957" lon="-2.359154960140586">
        <ele>1059.5</ele>
        <time>2018-05-28T08:44:53Z</time>
      </trkpt>
      <trkpt lat="41.751336017623544" lon="-2.359327040612698">
        <ele>1057.9000000000001</ele>
        <time>2018-05-28T08:45:11Z</time>
      </trkpt>
      <trkpt lat="41.750134974718094" lon="-2.359670028090477">
        <ele>1054.5</ele>
        <time>2018-05-28T08:45:47Z</time>
      </trkpt>
      <trkpt lat="41.749553019180894" lon="-2.359581012278795">
        <ele>1053.9000000000001</ele>
        <time>2018-05-28T08:46:04Z</time>
      </trkpt>
      <trkpt lat="41.749390996992588" lon="-2.358803004026413">
        <ele>1052.2</ele>
        <time>2018-05-28T08:46:22Z</time>
      </trkpt>
      <trkpt lat="41.748934015631676" lon="-2.357408003881574">
        <ele>1049.5</ele>
        <time>2018-05-28T08:46:56Z</time>
      </trkpt>
      <trkpt lat="41.748678032308817" lon="-2.35553196631372">
        <ele>1045.2</ele>
        <time>2018-05-28T08:47:38Z</time>
      </trkpt>
      <trkpt lat="41.748691024258733" lon="-2.35553196631372">
        <ele>1045.3</ele>
        <time>2018-05-28T08:47:38Z</time>
      </trkpt>
      <trkpt lat="41.748325992375612" lon="-2.353473035618663">
        <ele>1045</ele>
        <time>2018-05-28T08:48:25Z</time>
      </trkpt>
      <trkpt lat="41.748314006254077" lon="-2.353373961523175">
        <ele>1045.0999999999999</ele>
        <time>2018-05-28T08:48:27Z</time>
      </trkpt>
      <trkpt lat="41.74793497659266" lon="-2.35174703411758">
        <ele>1045.5999999999999</ele>
        <time>2018-05-28T08:49:05Z</time>
      </trkpt>
      <trkpt lat="41.747948974370956" lon="-2.35174703411758">
        <ele>1045.7</ele>
        <time>2018-05-28T08:49:05Z</time>
      </trkpt>
      <trkpt lat="41.747261993587017" lon="-2.34970604069531">
        <ele>1047.4000000000001</ele>
        <time>2018-05-28T08:49:55Z</time>
      </trkpt>
      <trkpt lat="41.747247995808721" lon="-2.34970604069531">
        <ele>1047.4000000000001</ele>
        <time>2018-05-28T08:49:55Z</time>
      </trkpt>
      <trkpt lat="41.74696602858603" lon="-2.349010007455945">
        <ele>1045.4000000000001</ele>
        <time>2018-05-28T08:50:13Z</time>
      </trkpt>
      <trkpt lat="41.746939038857818" lon="-2.348991986364126">
        <ele>1045.3</ele>
        <time>2018-05-28T08:50:14Z</time>
      </trkpt>
      <trkpt lat="41.746681965887547" lon="-2.347831008955836">
        <ele>1041.5</ele>
        <time>2018-05-28T08:50:41Z</time>
      </trkpt>
      <trkpt lat="41.746522039175034" lon="-2.347149979323149">
        <ele>1040.7</ele>
        <time>2018-05-28T08:50:56Z</time>
      </trkpt>
      <trkpt lat="41.746062962338328" lon="-2.345989001914859">
        <ele>1039.5999999999999</ele>
        <time>2018-05-28T08:51:25Z</time>
      </trkpt>
      <trkpt lat="41.746048964560032" lon="-2.345971986651421">
        <ele>1039.5999999999999</ele>
        <time>2018-05-28T08:51:26Z</time>
      </trkpt>
      <trkpt lat="41.745659038424492" lon="-2.345061041414738">
        <ele>1041.5999999999999</ele>
        <time>2018-05-28T08:51:49Z</time>
      </trkpt>
      <trkpt lat="41.745255030691624" lon="-2.343481974676251">
        <ele>1046.3</ele>
        <time>2018-05-28T08:52:26Z</time>
      </trkpt>
      <trkpt lat="41.745107006281614" lon="-2.343134041875601">
        <ele>1046.5</ele>
        <time>2018-05-28T08:52:35Z</time>
      </trkpt>
      <trkpt lat="41.744916988536716" lon="-2.342787031084299">
        <ele>1046.3</ele>
        <time>2018-05-28T08:52:44Z</time>
      </trkpt>
      <trkpt lat="41.744191031903028" lon="-2.340611005201936">
        <ele>1041.5999999999999</ele>
        <time>2018-05-28T08:53:37Z</time>
      </trkpt>
      <trkpt lat="41.744149960577488" lon="-2.340594995766878">
        <ele>1041.5999999999999</ele>
        <time>2018-05-28T08:53:38Z</time>
      </trkpt>
      <trkpt lat="41.743988022208214" lon="-2.340328032150865">
        <ele>1041.3</ele>
        <time>2018-05-28T08:53:46Z</time>
      </trkpt>
      <trkpt lat="41.743975030258298" lon="-2.340344963595271">
        <ele>1041.3</ele>
        <time>2018-05-28T08:53:47Z</time>
      </trkpt>
      <trkpt lat="41.743919961154461" lon="-2.340113036334515">
        <ele>1041.3</ele>
        <time>2018-05-28T08:53:52Z</time>
      </trkpt>
      <trkpt lat="41.74385298974812" lon="-2.340097026899457">
        <ele>1041.2</ele>
        <time>2018-05-28T08:53:54Z</time>
      </trkpt>
      <trkpt lat="41.743732038885355" lon="-2.339829979464412">
        <ele>1041</ele>
        <time>2018-05-28T08:54:01Z</time>
      </trkpt>
      <trkpt lat="41.743030976504087" lon="-2.337956037372351">
        <ele>1039.2</ele>
        <time>2018-05-28T08:54:47Z</time>
      </trkpt>
      <trkpt lat="41.74288303591311" lon="-2.337771970778704">
        <ele>1039.2</ele>
        <time>2018-05-28T08:54:53Z</time>
      </trkpt>
      <trkpt lat="41.742814974859357" lon="-2.337456978857517">
        <ele>1039.7</ele>
        <time>2018-05-28T08:55:00Z</time>
      </trkpt>
      <trkpt lat="41.742533007636666" lon="-2.336745020002127">
        <ele>1041.0999999999999</ele>
        <time>2018-05-28T08:55:18Z</time>
      </trkpt>
      <trkpt lat="41.741952979937196" lon="-2.33533401042223">
        <ele>1039.4000000000001</ele>
        <time>2018-05-28T08:55:54Z</time>
      </trkpt>
      <trkpt lat="41.741900006309152" lon="-2.335018012672663">
        <ele>1038.2</ele>
        <time>2018-05-28T08:56:01Z</time>
      </trkpt>
      <trkpt lat="41.741791963577271" lon="-2.334588021039963">
        <ele>1036.7</ele>
        <time>2018-05-28T08:56:11Z</time>
      </trkpt>
      <trkpt lat="41.741777965798974" lon="-2.334519037976861">
        <ele>1036.7</ele>
        <time>2018-05-28T08:56:13Z</time>
      </trkpt>
      <trkpt lat="41.741548972204328" lon="-2.333972034975886">
        <ele>1036.5999999999999</ele>
        <time>2018-05-28T08:56:27Z</time>
      </trkpt>
      <trkpt lat="41.74140103161335" lon="-2.333856029435992">
        <ele>1036.3</ele>
        <time>2018-05-28T08:56:32Z</time>
      </trkpt>
      <trkpt lat="41.741062989458442" lon="-2.333340961486101">
        <ele>1036.5</ele>
        <time>2018-05-28T08:56:47Z</time>
      </trkpt>
      <trkpt lat="41.741024013608694" lon="-2.333094030618668">
        <ele>1036.8</ele>
        <time>2018-05-28T08:56:52Z</time>
      </trkpt>
      <trkpt lat="41.740808011963964" lon="-2.332593966275454">
        <ele>1037.8</ele>
        <time>2018-05-28T08:57:05Z</time>
      </trkpt>
      <trkpt lat="41.740781022235751" lon="-2.332578040659428">
        <ele>1037.8</ele>
        <time>2018-05-28T08:57:06Z</time>
      </trkpt>
      <trkpt lat="41.740579018369317" lon="-2.332377964630723">
        <ele>1038.3</ele>
        <time>2018-05-28T08:57:13Z</time>
      </trkpt>
      <trkpt lat="41.740552028641105" lon="-2.332146037369967">
        <ele>1038.8</ele>
        <time>2018-05-28T08:57:19Z</time>
      </trkpt>
      <trkpt lat="41.741318972781301" lon="-2.331599034368992">
        <ele>1040.4000000000001</ele>
        <time>2018-05-28T08:57:44Z</time>
      </trkpt>
      <trkpt lat="41.74140103161335" lon="-2.331514963880181">
        <ele>1040.8</ele>
        <time>2018-05-28T08:57:47Z</time>
      </trkpt>
      <trkpt lat="41.742062028497458" lon="-2.330967038869858">
        <ele>1044.9000000000001</ele>
        <time>2018-05-28T08:58:11Z</time>
      </trkpt>
      <trkpt lat="41.742599979043007" lon="-2.33015600591898">
        <ele>1049.5999999999999</ele>
        <time>2018-05-28T08:58:35Z</time>
      </trkpt>
      <trkpt lat="41.7430579662323" lon="-2.329357964918017">
        <ele>1056</ele>
        <time>2018-05-28T08:58:57Z</time>
      </trkpt>
      <trkpt lat="41.743704965338111" lon="-2.32861096970737">
        <ele>1059.7</ele>
        <time>2018-05-28T08:59:22Z</time>
      </trkpt>
      <trkpt lat="41.744379037991166" lon="-2.327931029722095">
        <ele>1063.7</ele>
        <time>2018-05-28T08:59:47Z</time>
      </trkpt>
      <trkpt lat="41.744406027719378" lon="-2.327832039445639">
        <ele>1064.2</ele>
        <time>2018-05-28T08:59:50Z</time>
      </trkpt>
      <trkpt lat="41.74501296132803" lon="-2.327068028971553">
        <ele>1071.7</ele>
        <time>2018-05-28T09:00:14Z</time>
      </trkpt>
      <trkpt lat="41.745401965454221" lon="-2.326137972995639">
        <ele>1080.3</ele>
        <time>2018-05-28T09:00:38Z</time>
      </trkpt>
      <trkpt lat="41.745388973504305" lon="-2.326153982430697">
        <ele>1080.0999999999999</ele>
        <time>2018-05-28T09:00:38Z</time>
      </trkpt>
      <trkpt lat="41.746723959222436" lon="-2.32358300127089">
        <ele>1094.7</ele>
        <time>2018-05-28T09:01:48Z</time>
      </trkpt>
      <trkpt lat="41.74675103276968" lon="-2.323483005166054">
        <ele>1095</ele>
        <time>2018-05-28T09:01:50Z</time>
      </trkpt>
      <trkpt lat="41.746778022497892" lon="-2.323448974639177">
        <ele>1095.2</ele>
        <time>2018-05-28T09:01:51Z</time>
      </trkpt>
      <trkpt lat="41.746939038857818" lon="-2.32313297688961">
        <ele>1096.7</ele>
        <time>2018-05-28T09:02:00Z</time>
      </trkpt>
      <trkpt lat="41.747384034097195" lon="-2.322306018322706">
        <ele>1096.7</ele>
        <time>2018-05-28T09:02:22Z</time>
      </trkpt>
      <trkpt lat="41.749174995347857" lon="-2.320511033758521">
        <ele>1090.0999999999999</ele>
        <time>2018-05-28T09:03:29Z</time>
      </trkpt>
      <trkpt lat="41.749376999214292" lon="-2.320196041837335">
        <ele>1090.2</ele>
        <time>2018-05-28T09:03:38Z</time>
      </trkpt>
      <trkpt lat="41.749457968398929" lon="-2.319698994979262">
        <ele>1091.8</ele>
        <time>2018-05-28T09:03:49Z</time>
      </trkpt>
      <trkpt lat="41.749471966177225" lon="-2.319648033007979">
        <ele>1092</ele>
        <time>2018-05-28T09:03:50Z</time>
      </trkpt>
      <trkpt lat="41.749700959771872" lon="-2.319202031940222">
        <ele>1093.9000000000001</ele>
        <time>2018-05-28T09:04:02Z</time>
      </trkpt>
      <trkpt lat="41.749796010553837" lon="-2.318785032257438">
        <ele>1094.7</ele>
        <time>2018-05-28T09:04:12Z</time>
      </trkpt>
      <trkpt lat="41.749807996675372" lon="-2.317225998267531">
        <ele>1088.9000000000001</ele>
        <time>2018-05-28T09:04:46Z</time>
      </trkpt>
      <trkpt lat="41.749605992808938" lon="-2.316696010529995">
        <ele>1084.8</ele>
        <time>2018-05-28T09:04:59Z</time>
      </trkpt>
      <trkpt lat="41.749403988942504" lon="-2.31629703193903">
        <ele>1081</ele>
        <time>2018-05-28T09:05:10Z</time>
      </trkpt>
      <trkpt lat="41.749225035309792" lon="-2.315908027812839">
        <ele>1079.3</ele>
        <time>2018-05-28T09:05:20Z</time>
      </trkpt>
      <trkpt lat="41.749140964820981" lon="-2.315382985398173">
        <ele>1079.0999999999999</ele>
        <time>2018-05-28T09:05:32Z</time>
      </trkpt>
      <trkpt lat="41.7491399589926" lon="-2.314927009865642">
        <ele>1081.4000000000001</ele>
        <time>2018-05-28T09:05:42Z</time>
      </trkpt>
      <trkpt lat="41.749145993962884" lon="-2.314614029601216">
        <ele>1083</ele>
        <time>2018-05-28T09:05:49Z</time>
      </trkpt>
      <trkpt lat="41.749160997569561" lon="-2.314141960814595">
        <ele>1088.0999999999999</ele>
        <time>2018-05-28T09:06:00Z</time>
      </trkpt>
      <trkpt lat="41.749111963436007" lon="-2.313493033871055">
        <ele>1094.9000000000001</ele>
        <time>2018-05-28T09:06:14Z</time>
      </trkpt>
      <trkpt lat="41.749070975929499" lon="-2.312871012836695">
        <ele>1099.4000000000001</ele>
        <time>2018-05-28T09:06:28Z</time>
      </trkpt>
      <trkpt lat="41.749085979536176" lon="-2.312777973711491">
        <ele>1099.8</ele>
        <time>2018-05-28T09:06:30Z</time>
      </trkpt>
      <trkpt lat="41.749125961214304" lon="-2.312491983175278">
        <ele>1101</ele>
        <time>2018-05-28T09:06:37Z</time>
      </trkpt>
      <trkpt lat="41.749200979247689" lon="-2.311998037621379">
        <ele>1103.5</ele>
        <time>2018-05-28T09:06:48Z</time>
      </trkpt>
      <trkpt lat="41.749229980632663" lon="-2.311814976856113">
        <ele>1104.5</ele>
        <time>2018-05-28T09:06:52Z</time>
      </trkpt>
      <trkpt lat="41.749257976189256" lon="-2.311647003516555">
        <ele>1105.5</ele>
        <time>2018-05-28T09:06:56Z</time>
      </trkpt>
      <trkpt lat="41.749315978959203" lon="-2.311322037130594">
        <ele>1107.7</ele>
        <time>2018-05-28T09:07:03Z</time>
      </trkpt>
      <trkpt lat="41.749366018921137" lon="-2.311020037159324">
        <ele>1109</ele>
        <time>2018-05-28T09:07:10Z</time>
      </trkpt>
      <trkpt lat="41.749425027519464" lon="-2.310643019154668">
        <ele>1110.3</ele>
        <time>2018-05-28T09:07:19Z</time>
      </trkpt>
      <trkpt lat="41.749517982825637" lon="-2.30998101644218">
        <ele>1113.0999999999999</ele>
        <time>2018-05-28T09:07:33Z</time>
      </trkpt>
      <trkpt lat="41.749685034155846" lon="-2.308815009891987">
        <ele>1117.5999999999999</ele>
        <time>2018-05-28T09:08:00Z</time>
      </trkpt>
      <trkpt lat="41.749758962541819" lon="-2.308373032137752">
        <ele>1118.7</ele>
        <time>2018-05-28T09:08:10Z</time>
      </trkpt>
      <trkpt lat="41.749905981123447" lon="-2.307124966755509">
        <ele>1120.9000000000001</ele>
        <time>2018-05-28T09:08:38Z</time>
      </trkpt>
      <trkpt lat="41.750057023018599" lon="-2.305981004610658">
        <ele>1123.5999999999999</ele>
        <time>2018-05-28T09:09:03Z</time>
      </trkpt>
      <trkpt lat="41.750180991366506" lon="-2.305066036060453">
        <ele>1126</ele>
        <time>2018-05-28T09:09:24Z</time>
      </trkpt>
      <trkpt lat="41.75031996332109" lon="-2.304111002013087">
        <ele>1126.7</ele>
        <time>2018-05-28T09:09:45Z</time>
      </trkpt>
      <trkpt lat="41.750422976911068" lon="-2.303326036781073">
        <ele>1127</ele>
        <time>2018-05-28T09:10:03Z</time>
      </trkpt>
      <trkpt lat="41.750538982450962" lon="-2.302516009658575">
        <ele>1126.9000000000001</ele>
        <time>2018-05-28T09:10:21Z</time>
      </trkpt>
      <trkpt lat="41.750601008534431" lon="-2.301571033895016">
        <ele>1126.4000000000001</ele>
        <time>2018-05-28T09:10:42Z</time>
      </trkpt>
      <trkpt lat="41.75051299855113" lon="-2.300565037876368">
        <ele>1126.8</ele>
        <time>2018-05-28T09:11:05Z</time>
      </trkpt>
      <trkpt lat="41.750409984961152" lon="-2.299795998260379">
        <ele>1127</ele>
        <time>2018-05-28T09:11:22Z</time>
      </trkpt>
      <trkpt lat="41.750333961099386" lon="-2.299184035509825">
        <ele>1127.0999999999999</ele>
        <time>2018-05-28T09:11:36Z</time>
      </trkpt>
      <trkpt lat="41.750325998291373" lon="-2.299112034961581">
        <ele>1127.2</ele>
        <time>2018-05-28T09:11:37Z</time>
      </trkpt>
      <trkpt lat="41.750258021056652" lon="-2.298598978668451">
        <ele>1126.8</ele>
        <time>2018-05-28T09:11:49Z</time>
      </trkpt>
      <trkpt lat="41.750161964446306" lon="-2.297961032018066">
        <ele>1125</ele>
        <time>2018-05-28T09:12:03Z</time>
      </trkpt>
      <trkpt lat="41.750094993039966" lon="-2.297381004318595">
        <ele>1124.2</ele>
        <time>2018-05-28T09:12:16Z</time>
      </trkpt>
      <trkpt lat="41.750011006370187" lon="-2.296794019639492">
        <ele>1122.0999999999999</ele>
        <time>2018-05-28T09:12:29Z</time>
      </trkpt>
      <trkpt lat="41.749945040792227" lon="-2.296267971396446">
        <ele>1118.7</ele>
        <time>2018-05-28T09:12:41Z</time>
      </trkpt>
      <trkpt lat="41.749871028587222" lon="-2.295728009194136">
        <ele>1114.3</ele>
        <time>2018-05-28T09:12:53Z</time>
      </trkpt>
      <trkpt lat="41.749815037474036" lon="-2.295273039489985">
        <ele>1110.7</ele>
        <time>2018-05-28T09:13:04Z</time>
      </trkpt>
      <trkpt lat="41.749750999733806" lon="-2.294733999297023">
        <ele>1107</ele>
        <time>2018-05-28T09:13:16Z</time>
      </trkpt>
      <trkpt lat="41.749684028327465" lon="-2.294236030429602">
        <ele>1104.3</ele>
        <time>2018-05-28T09:13:27Z</time>
      </trkpt>
      <trkpt lat="41.749663995578885" lon="-2.294107032939792">
        <ele>1103.7</ele>
        <time>2018-05-28T09:13:30Z</time>
      </trkpt>
      <trkpt lat="41.749604986980557" lon="-2.293649967759848">
        <ele>1101.2</ele>
        <time>2018-05-28T09:13:40Z</time>
      </trkpt>
      <trkpt lat="41.749551007524133" lon="-2.293175971135497">
        <ele>1097.0999999999999</ele>
        <time>2018-05-28T09:13:51Z</time>
      </trkpt>
      <trkpt lat="41.74945998005569" lon="-2.292583035305142">
        <ele>1094.3</ele>
        <time>2018-05-28T09:14:04Z</time>
      </trkpt>
      <trkpt lat="41.749279014766216" lon="-2.291449969634414">
        <ele>1093.4000000000001</ele>
        <time>2018-05-28T09:14:30Z</time>
      </trkpt>
      <trkpt lat="41.748991012573242" lon="-2.290670033544302">
        <ele>1092.2</ele>
        <time>2018-05-28T09:14:49Z</time>
      </trkpt>
      <trkpt lat="41.748609971255064" lon="-2.289618020877242">
        <ele>1091.5999999999999</ele>
        <time>2018-05-28T09:15:15Z</time>
      </trkpt>
      <trkpt lat="41.748588010668755" lon="-2.2891850117594">
        <ele>1092.9000000000001</ele>
        <time>2018-05-28T09:15:24Z</time>
      </trkpt>
      <trkpt lat="41.748576024547219" lon="-2.288802964612842">
        <ele>1094</ele>
        <time>2018-05-28T09:15:33Z</time>
      </trkpt>
      <trkpt lat="41.748564960435033" lon="-2.288230983540416">
        <ele>1095.4000000000001</ele>
        <time>2018-05-28T09:15:46Z</time>
      </trkpt>
      <trkpt lat="41.748542999848723" lon="-2.287485999986529">
        <ele>1095.9000000000001</ele>
        <time>2018-05-28T09:16:02Z</time>
      </trkpt>
      <trkpt lat="41.748531013727188" lon="-2.287164973095059">
        <ele>1095.7</ele>
        <time>2018-05-28T09:16:09Z</time>
      </trkpt>
      <trkpt lat="41.748590022325516" lon="-2.286487966775894">
        <ele>1096</ele>
        <time>2018-05-28T09:16:24Z</time>
      </trkpt>
      <trkpt lat="41.7488809581846" lon="-2.28581003844738">
        <ele>1097.8</ele>
        <time>2018-05-28T09:16:42Z</time>
      </trkpt>
      <trkpt lat="41.748938960954547" lon="-2.285669976845384">
        <ele>1098</ele>
        <time>2018-05-28T09:16:45Z</time>
      </trkpt>
      <trkpt lat="41.749667013064027" lon="-2.284253016114235">
        <ele>1101.0999999999999</ele>
        <time>2018-05-28T09:17:23Z</time>
      </trkpt>
      <trkpt lat="41.749821994453669" lon="-2.283982029184699">
        <ele>1102.7</ele>
        <time>2018-05-28T09:17:31Z</time>
      </trkpt>
      <trkpt lat="41.749882008880377" lon="-2.28370500728488">
        <ele>1103.5</ele>
        <time>2018-05-28T09:17:37Z</time>
      </trkpt>
      <trkpt lat="41.74988997168839" lon="-2.283683968707919">
        <ele>1103.5</ele>
        <time>2018-05-28T09:17:38Z</time>
      </trkpt>
      <trkpt lat="41.749987034127116" lon="-2.283595958724618">
        <ele>1104.3</ele>
        <time>2018-05-28T09:17:41Z</time>
      </trkpt>
      <trkpt lat="41.750045036897063" lon="-2.283538039773703">
        <ele>1104.8</ele>
        <time>2018-05-28T09:17:43Z</time>
      </trkpt>
      <trkpt lat="41.750064985826612" lon="-2.283479031175375">
        <ele>1104.9000000000001</ele>
        <time>2018-05-28T09:17:45Z</time>
      </trkpt>
      <trkpt lat="41.750065991654992" lon="-2.283450029790402">
        <ele>1104.9000000000001</ele>
        <time>2018-05-28T09:17:45Z</time>
      </trkpt>
      <trkpt lat="41.750071020796895" lon="-2.283305022865534">
        <ele>1104.9000000000001</ele>
        <time>2018-05-28T09:17:48Z</time>
      </trkpt>
      <trkpt lat="41.750119971111417" lon="-2.283183988183737">
        <ele>1105.3</ele>
        <time>2018-05-28T09:17:52Z</time>
      </trkpt>
      <trkpt lat="41.750173028558493" lon="-2.2831030189991">
        <ele>1105.7</ele>
        <time>2018-05-28T09:17:54Z</time>
      </trkpt>
      <trkpt lat="41.750206975266337" lon="-2.282899003475905">
        <ele>1105.9000000000001</ele>
        <time>2018-05-28T09:17:59Z</time>
      </trkpt>
      <trkpt lat="41.749994996935129" lon="-2.282830020412803">
        <ele>1103.5999999999999</ele>
        <time>2018-05-28T09:18:05Z</time>
      </trkpt>
      <trkpt lat="41.749958032742143" lon="-2.282516034319997">
        <ele>1102</ele>
        <time>2018-05-28T09:18:12Z</time>
      </trkpt>
      <trkpt lat="41.749945040792227" lon="-2.282166006043553">
        <ele>1100.5999999999999</ele>
        <time>2018-05-28T09:18:20Z</time>
      </trkpt>
      <trkpt lat="41.749844960868359" lon="-2.281520012766123">
        <ele>1098.4000000000001</ele>
        <time>2018-05-28T09:18:34Z</time>
      </trkpt>
      <trkpt lat="41.749812019988894" lon="-2.281324965879321">
        <ele>1097.8</ele>
        <time>2018-05-28T09:18:39Z</time>
      </trkpt>
      <trkpt lat="41.749654021114111" lon="-2.280238000676036">
        <ele>1100.5</ele>
        <time>2018-05-28T09:19:03Z</time>
      </trkpt>
      <trkpt lat="41.749556036666036" lon="-2.278961017727852">
        <ele>1100.2</ele>
        <time>2018-05-28T09:19:32Z</time>
      </trkpt>
      <trkpt lat="41.749585038051009" lon="-2.278726994991303">
        <ele>1100.0999999999999</ele>
        <time>2018-05-28T09:19:37Z</time>
      </trkpt>
      <trkpt lat="41.749499961733818" lon="-2.278289962559938">
        <ele>1102.5</ele>
        <time>2018-05-28T09:19:47Z</time>
      </trkpt>
      <trkpt lat="41.74918002448976" lon="-2.277728039771318">
        <ele>1108.5999999999999</ele>
        <time>2018-05-28T09:20:03Z</time>
      </trkpt>
      <trkpt lat="41.749120010063052" lon="-2.277593007311225">
        <ele>1109.4000000000001</ele>
        <time>2018-05-28T09:20:06Z</time>
      </trkpt>
      <trkpt lat="41.748991012573242" lon="-2.276819022372365">
        <ele>1111.9000000000001</ele>
        <time>2018-05-28T09:20:24Z</time>
      </trkpt>
      <trkpt lat="41.748999981209636" lon="-2.276668986305594">
        <ele>1112.5999999999999</ele>
        <time>2018-05-28T09:20:27Z</time>
      </trkpt>
      <trkpt lat="41.749034011736512" lon="-2.275969013571739">
        <ele>1115.8</ele>
        <time>2018-05-28T09:20:43Z</time>
      </trkpt>
      <trkpt lat="41.749036023393273" lon="-2.2757120244205">
        <ele>1117.2</ele>
        <time>2018-05-28T09:20:48Z</time>
      </trkpt>
      <trkpt lat="41.749027976766229" lon="-2.27506703697145">
        <ele>1119.3</ele>
        <time>2018-05-28T09:21:02Z</time>
      </trkpt>
      <trkpt lat="41.748951030895114" lon="-2.274690018966794">
        <ele>1120.3</ele>
        <time>2018-05-28T09:21:11Z</time>
      </trkpt>
      <trkpt lat="41.748799988999963" lon="-2.274354994297028">
        <ele>1120.9000000000001</ele>
        <time>2018-05-28T09:21:20Z</time>
      </trkpt>
      <trkpt lat="41.748699992895126" lon="-2.273906981572509">
        <ele>1119.5999999999999</ele>
        <time>2018-05-28T09:21:30Z</time>
      </trkpt>
      <trkpt lat="41.74866596236825" lon="-2.273611016571522">
        <ele>1118.7</ele>
        <time>2018-05-28T09:21:37Z</time>
      </trkpt>
      <trkpt lat="41.748588010668755" lon="-2.272657994180918">
        <ele>1118</ele>
        <time>2018-05-28T09:21:58Z</time>
      </trkpt>
      <trkpt lat="41.748566972091794" lon="-2.27206002920866">
        <ele>1118.4000000000001</ele>
        <time>2018-05-28T09:22:11Z</time>
      </trkpt>
      <trkpt lat="41.748606031760573" lon="-2.271775966510177">
        <ele>1118.8</ele>
        <time>2018-05-28T09:22:18Z</time>
      </trkpt>
      <trkpt lat="41.748699992895126" lon="-2.270681038498879">
        <ele>1122.5999999999999</ele>
        <time>2018-05-28T09:22:42Z</time>
      </trkpt>
      <trkpt lat="41.748891016468406" lon="-2.269531963393092">
        <ele>1123.7</ele>
        <time>2018-05-28T09:23:08Z</time>
      </trkpt>
      <trkpt lat="41.748966034501791" lon="-2.269100965932012">
        <ele>1123.3</ele>
        <time>2018-05-28T09:23:18Z</time>
      </trkpt>
      <trkpt lat="41.749024959281087" lon="-2.268696036189795">
        <ele>1123.0999999999999</ele>
        <time>2018-05-28T09:23:27Z</time>
      </trkpt>
      <trkpt lat="41.749384962022305" lon="-2.267792969942093">
        <ele>1123.4000000000001</ele>
        <time>2018-05-28T09:23:49Z</time>
      </trkpt>
      <trkpt lat="41.749771032482386" lon="-2.266825027763844">
        <ele>1124.2</ele>
        <time>2018-05-28T09:24:14Z</time>
      </trkpt>
      <trkpt lat="41.750133968889713" lon="-2.266122959554195">
        <ele>1124.5999999999999</ele>
        <time>2018-05-28T09:24:33Z</time>
      </trkpt>
      <trkpt lat="41.750364974141121" lon="-2.265665978193283">
        <ele>1127.4000000000001</ele>
        <time>2018-05-28T09:24:45Z</time>
      </trkpt>
      <trkpt lat="41.750792032107711" lon="-2.26471203379333">
        <ele>1132.4000000000001</ele>
        <time>2018-05-28T09:25:09Z</time>
      </trkpt>
      <trkpt lat="41.750886999070644" lon="-2.264400981366634">
        <ele>1133.8</ele>
        <time>2018-05-28T09:25:17Z</time>
      </trkpt>
      <trkpt lat="41.750972997397184" lon="-2.264049025252461">
        <ele>1135.3</ele>
        <time>2018-05-28T09:25:25Z</time>
      </trkpt>
      <trkpt lat="41.751127978786826" lon="-2.263059038668871">
        <ele>1138.4000000000001</ele>
        <time>2018-05-28T09:25:47Z</time>
      </trkpt>
      <trkpt lat="41.751149017363787" lon="-2.26299399510026">
        <ele>1138.5999999999999</ele>
        <time>2018-05-28T09:25:49Z</time>
      </trkpt>
      <trkpt lat="41.751474989578128" lon="-2.261820025742054">
        <ele>1140.8</ele>
        <time>2018-05-28T09:26:17Z</time>
      </trkpt>
      <trkpt lat="41.751551013439894" lon="-2.261593965813518">
        <ele>1141.0999999999999</ele>
        <time>2018-05-28T09:26:22Z</time>
      </trkpt>
      <trkpt lat="41.751723010092974" lon="-2.261214014142752">
        <ele>1141.7</ele>
        <time>2018-05-28T09:26:32Z</time>
      </trkpt>
      <trkpt lat="41.751742959022522" lon="-2.261161962524056">
        <ele>1141.5999999999999</ele>
        <time>2018-05-28T09:26:33Z</time>
      </trkpt>
      <trkpt lat="41.752174962311983" lon="-2.260177005082369">
        <ele>1141.5</ele>
        <time>2018-05-28T09:26:59Z</time>
      </trkpt>
      <trkpt lat="41.752223996445537" lon="-2.260065022855997">
        <ele>1141.7</ele>
        <time>2018-05-28T09:27:01Z</time>
      </trkpt>
      <trkpt lat="41.752428011968732" lon="-2.259637964889407">
        <ele>1142.5999999999999</ele>
        <time>2018-05-28T09:27:13Z</time>
      </trkpt>
      <trkpt lat="41.752538988366723" lon="-2.259431015700102">
        <ele>1142.8</ele>
        <time>2018-05-28T09:27:18Z</time>
      </trkpt>
      <trkpt lat="41.752735963091254" lon="-2.259050980210304">
        <ele>1143.0999999999999</ele>
        <time>2018-05-28T09:27:29Z</time>
      </trkpt>
      <trkpt lat="41.752997981384397" lon="-2.258427031338215">
        <ele>1143.4000000000001</ele>
        <time>2018-05-28T09:27:44Z</time>
      </trkpt>
      <trkpt lat="41.753107029944658" lon="-2.258222009986639">
        <ele>1143.5</ele>
        <time>2018-05-28T09:27:50Z</time>
      </trkpt>
      <trkpt lat="41.753256982192397" lon="-2.257962003350258">
        <ele>1144</ele>
        <time>2018-05-28T09:27:57Z</time>
      </trkpt>
      <trkpt lat="41.753301993012428" lon="-2.257849015295506">
        <ele>1144.3</ele>
        <time>2018-05-28T09:28:00Z</time>
      </trkpt>
      <trkpt lat="41.753416992723942" lon="-2.257583979517222">
        <ele>1145.4000000000001</ele>
        <time>2018-05-28T09:28:07Z</time>
      </trkpt>
      <trkpt lat="41.753560993820429" lon="-2.257177960127592">
        <ele>1146.3</ele>
        <time>2018-05-28T09:28:17Z</time>
      </trkpt>
      <trkpt lat="41.753783030435443" lon="-2.256625005975366">
        <ele>1147.5999999999999</ele>
        <time>2018-05-28T09:28:31Z</time>
      </trkpt>
      <trkpt lat="41.754014035686851" lon="-2.256068028509617">
        <ele>1147.9000000000001</ele>
        <time>2018-05-28T09:28:45Z</time>
      </trkpt>
      <trkpt lat="41.754203969612718" lon="-2.255684975534678">
        <ele>1147.5999999999999</ele>
        <time>2018-05-28T09:28:55Z</time>
      </trkpt>
      <trkpt lat="41.754436986520886" lon="-2.255080975592136">
        <ele>1146.5</ele>
        <time>2018-05-28T09:29:10Z</time>
      </trkpt>
      <trkpt lat="41.754679977893829" lon="-2.254535984247923">
        <ele>1146.3</ele>
        <time>2018-05-28T09:29:24Z</time>
      </trkpt>
      <trkpt lat="41.754855997860432" lon="-2.254028962925077">
        <ele>1145.7</ele>
        <time>2018-05-28T09:29:36Z</time>
      </trkpt>
      <trkpt lat="41.755075016990304" lon="-2.253510039299727">
        <ele>1145.5999999999999</ele>
        <time>2018-05-28T09:29:49Z</time>
      </trkpt>
      <trkpt lat="41.755220023915172" lon="-2.253079041838646">
        <ele>1144.3</ele>
        <time>2018-05-28T09:30:00Z</time>
      </trkpt>
      <trkpt lat="41.755424961447716" lon="-2.252631029114127">
        <ele>1142.5999999999999</ele>
        <time>2018-05-28T09:30:12Z</time>
      </trkpt>
      <trkpt lat="41.755585977807641" lon="-2.252154015004635">
        <ele>1140.5</ele>
        <time>2018-05-28T09:30:23Z</time>
      </trkpt>
      <trkpt lat="41.755686979740858" lon="-2.251647999510169">
        <ele>1138.5999999999999</ele>
        <time>2018-05-28T09:30:35Z</time>
      </trkpt>
      <trkpt lat="41.755828969180584" lon="-2.251073000952601">
        <ele>1137.3</ele>
        <time>2018-05-28T09:30:48Z</time>
      </trkpt>
      <trkpt lat="41.755825029686093" lon="-2.25066295824945">
        <ele>1136.8</ele>
        <time>2018-05-28T09:30:57Z</time>
      </trkpt>
      <trkpt lat="41.755654960870743" lon="-2.250328017398715">
        <ele>1136.4000000000001</ele>
        <time>2018-05-28T09:31:06Z</time>
      </trkpt>
      <trkpt lat="41.755653033033013" lon="-2.250311002135277">
        <ele>1136.5</ele>
        <time>2018-05-28T09:31:07Z</time>
      </trkpt>
      <trkpt lat="41.755652027204633" lon="-2.250304967164993">
        <ele>1136.5</ele>
        <time>2018-05-28T09:31:07Z</time>
      </trkpt>
      <trkpt lat="41.755654038861394" lon="-2.250304967164993">
        <ele>1136.5</ele>
        <time>2018-05-28T09:31:07Z</time>
      </trkpt>
      <trkpt lat="41.755651021376252" lon="-2.250303961336613">
        <ele>1136.5</ele>
        <time>2018-05-28T09:31:07Z</time>
      </trkpt>
      <trkpt lat="41.755638029426336" lon="-2.250305972993374">
        <ele>1136.5</ele>
        <time>2018-05-28T09:31:07Z</time>
      </trkpt>
      <trkpt lat="41.755579020828009" lon="-2.250096006318927">
        <ele>1136.8</ele>
        <time>2018-05-28T09:31:12Z</time>
      </trkpt>
      <trkpt lat="41.755595030263066" lon="-2.250059964135289">
        <ele>1136.9000000000001</ele>
        <time>2018-05-28T09:31:13Z</time>
      </trkpt>
      <trkpt lat="41.755726961418986" lon="-2.249916968867183">
        <ele>1137.0999999999999</ele>
        <time>2018-05-28T09:31:18Z</time>
      </trkpt>
      <trkpt lat="41.75575596280396" lon="-2.249883022159338">
        <ele>1137.2</ele>
        <time>2018-05-28T09:31:19Z</time>
      </trkpt>
      <trkpt lat="41.756061986088753" lon="-2.249599965289235">
        <ele>1137.2</ele>
        <time>2018-05-28T09:31:30Z</time>
      </trkpt>
      <trkpt lat="41.756333978846669" lon="-2.249343981966376">
        <ele>1137.4000000000001</ele>
        <time>2018-05-28T09:31:40Z</time>
      </trkpt>
      <trkpt lat="41.756530031561852" lon="-2.248997977003455">
        <ele>1137</ele>
        <time>2018-05-28T09:31:50Z</time>
      </trkpt>
      <trkpt lat="41.756575964391232" lon="-2.248898986726999">
        <ele>1136.7</ele>
        <time>2018-05-28T09:31:52Z</time>
      </trkpt>
      <trkpt lat="41.756660034880042" lon="-2.248601010069251">
        <ele>1135.7</ele>
        <time>2018-05-28T09:31:59Z</time>
      </trkpt>
      <trkpt lat="41.756731029599905" lon="-2.248364975675941">
        <ele>1134.5</ele>
        <time>2018-05-28T09:32:05Z</time>
      </trkpt>
      <trkpt lat="41.756817027926445" lon="-2.248017964884639">
        <ele>1132.5</ele>
        <time>2018-05-28T09:32:13Z</time>
      </trkpt>
      <trkpt lat="41.75687100738287" lon="-2.247677994892001">
        <ele>1130.8</ele>
        <time>2018-05-28T09:32:21Z</time>
      </trkpt>
      <trkpt lat="41.756861032918096" lon="-2.247255966067314">
        <ele>1129.7</ele>
        <time>2018-05-28T09:32:30Z</time>
      </trkpt>
      <trkpt lat="41.756852986291051" lon="-2.247111964970827">
        <ele>1129.3</ele>
        <time>2018-05-28T09:32:33Z</time>
      </trkpt>
      <trkpt lat="41.756972009316087" lon="-2.246862016618252">
        <ele>1127.5</ele>
        <time>2018-05-28T09:32:40Z</time>
      </trkpt>
      <trkpt lat="41.757241990417242" lon="-2.246722038835287">
        <ele>1124.5999999999999</ele>
        <time>2018-05-28T09:32:48Z</time>
      </trkpt>
      <trkpt lat="41.757597969844937" lon="-2.24640604108572">
        <ele>1121.7</ele>
        <time>2018-05-28T09:33:01Z</time>
      </trkpt>
      <trkpt lat="41.757778013125062" lon="-2.246017036959529">
        <ele>1121.7</ele>
        <time>2018-05-28T09:33:11Z</time>
      </trkpt>
      <trkpt lat="41.757879015058279" lon="-2.245730040594935">
        <ele>1122.0999999999999</ele>
        <time>2018-05-28T09:33:18Z</time>
      </trkpt>
      <trkpt lat="41.757898963987827" lon="-2.245355034247041">
        <ele>1123.0999999999999</ele>
        <time>2018-05-28T09:33:27Z</time>
      </trkpt>
      <trkpt lat="41.757888989523053" lon="-2.245271969586611">
        <ele>1123</ele>
        <time>2018-05-28T09:33:28Z</time>
      </trkpt>
      <trkpt lat="41.75790298730135" lon="-2.244936022907496">
        <ele>1122.5999999999999</ele>
        <time>2018-05-28T09:33:36Z</time>
      </trkpt>
      <trkpt lat="41.758023016154766" lon="-2.244856981560588">
        <ele>1120.9000000000001</ele>
        <time>2018-05-28T09:33:40Z</time>
      </trkpt>
      <trkpt lat="41.758383018895984" lon="-2.24453997798264">
        <ele>1116.2</ele>
        <time>2018-05-28T09:33:53Z</time>
      </trkpt>
      <trkpt lat="41.758669009432197" lon="-2.244192967191339">
        <ele>1115.5999999999999</ele>
        <time>2018-05-28T09:34:04Z</time>
      </trkpt>
      <trkpt lat="41.758972015231848" lon="-2.243945030495524">
        <ele>1114.5999999999999</ele>
        <time>2018-05-28T09:34:15Z</time>
      </trkpt>
      <trkpt lat="41.759306034073234" lon="-2.243733974173665">
        <ele>1112.5</ele>
        <time>2018-05-28T09:34:26Z</time>
      </trkpt>
      <trkpt lat="41.759716998785734" lon="-2.243555020540953">
        <ele>1110.8</ele>
        <time>2018-05-28T09:34:38Z</time>
      </trkpt>
      <trkpt lat="41.759786987677217" lon="-2.243526019155979">
        <ele>1110.5999999999999</ele>
        <time>2018-05-28T09:34:41Z</time>
      </trkpt>
      <trkpt lat="41.760015981271863" lon="-2.243365002796054">
        <ele>1110.4000000000001</ele>
        <time>2018-05-28T09:34:48Z</time>
      </trkpt>
      <trkpt lat="41.760187977924943" lon="-2.243255032226443">
        <ele>1109.8</ele>
        <time>2018-05-28T09:34:54Z</time>
      </trkpt>
      <trkpt lat="41.760433986783028" lon="-2.24305403418839">
        <ele>1108.5999999999999</ele>
        <time>2018-05-28T09:35:02Z</time>
      </trkpt>
      <trkpt lat="41.760642025619745" lon="-2.242848007008433">
        <ele>1107.7</ele>
        <time>2018-05-28T09:35:10Z</time>
      </trkpt>
      <trkpt lat="41.760889962315559" lon="-2.242597974836826">
        <ele>1106.0999999999999</ele>
        <time>2018-05-28T09:35:19Z</time>
      </trkpt>
      <trkpt lat="41.761130020022392" lon="-2.242309972643852">
        <ele>1104</ele>
        <time>2018-05-28T09:35:29Z</time>
      </trkpt>
      <trkpt lat="41.761204032227397" lon="-2.242236966267228">
        <ele>1103.0999999999999</ele>
        <time>2018-05-28T09:35:32Z</time>
      </trkpt>
      <trkpt lat="41.76127796061337" lon="-2.242191033437848">
        <ele>1102.3</ele>
        <time>2018-05-28T09:35:34Z</time>
      </trkpt>
      <trkpt lat="41.761579960584641" lon="-2.242048038169742">
        <ele>1100.8</ele>
        <time>2018-05-28T09:35:44Z</time>
      </trkpt>
      <trkpt lat="41.761617008596659" lon="-2.242043009027839">
        <ele>1100.5999999999999</ele>
        <time>2018-05-28T09:35:45Z</time>
      </trkpt>
      <trkpt lat="41.761847008019686" lon="-2.242033034563065">
        <ele>1099</ele>
        <time>2018-05-28T09:35:51Z</time>
      </trkpt>
      <trkpt lat="41.762099973857403" lon="-2.241954999044538">
        <ele>1097.5</ele>
        <time>2018-05-28T09:35:59Z</time>
      </trkpt>
      <trkpt lat="41.762269958853722" lon="-2.241870006546378">
        <ele>1096.7</ele>
        <time>2018-05-28T09:36:05Z</time>
      </trkpt>
      <trkpt lat="41.762519991025329" lon="-2.241700021550059">
        <ele>1095.3</ele>
        <time>2018-05-28T09:36:13Z</time>
      </trkpt>
      <trkpt lat="41.762546980753541" lon="-2.241674959659576">
        <ele>1095.0999999999999</ele>
        <time>2018-05-28T09:36:14Z</time>
      </trkpt>
      <trkpt lat="41.762782009318471" lon="-2.241471027955413">
        <ele>1093.3</ele>
        <time>2018-05-28T09:36:22Z</time>
      </trkpt>
      <trkpt lat="41.763234967365861" lon="-2.241225019097328">
        <ele>1091</ele>
        <time>2018-05-28T09:36:37Z</time>
      </trkpt>
      <trkpt lat="41.763631012290716" lon="-2.241017986088991">
        <ele>1091.0999999999999</ele>
        <time>2018-05-28T09:36:49Z</time>
      </trkpt>
      <trkpt lat="41.763900993391871" lon="-2.240954032167792">
        <ele>1090.4000000000001</ele>
        <time>2018-05-28T09:36:57Z</time>
      </trkpt>
      <trkpt lat="41.764404997229576" lon="-2.240966018289328">
        <ele>1087.9000000000001</ele>
        <time>2018-05-28T09:37:12Z</time>
      </trkpt>
      <trkpt lat="41.765002962201834" lon="-2.240912038832903">
        <ele>1085.9000000000001</ele>
        <time>2018-05-28T09:37:30Z</time>
      </trkpt>
      <trkpt lat="41.765588019043207" lon="-2.240824028849602">
        <ele>1084.3</ele>
        <time>2018-05-28T09:37:48Z</time>
      </trkpt>
      <trkpt lat="41.765971994027495" lon="-2.240755967795849">
        <ele>1083.5</ele>
        <time>2018-05-28T09:37:59Z</time>
      </trkpt>
      <trkpt lat="41.766426963731647" lon="-2.240490010008216">
        <ele>1082.0999999999999</ele>
        <time>2018-05-28T09:38:14Z</time>
      </trkpt>
      <trkpt lat="41.766878999769688" lon="-2.239901013672352">
        <ele>1081.2</ele>
        <time>2018-05-28T09:38:32Z</time>
      </trkpt>
      <trkpt lat="41.767231961712241" lon="-2.239385023713112">
        <ele>1081.0999999999999</ele>
        <time>2018-05-28T09:38:48Z</time>
      </trkpt>
      <trkpt lat="41.767519041895866" lon="-2.238855035975575">
        <ele>1080.5999999999999</ele>
        <time>2018-05-28T09:39:02Z</time>
      </trkpt>
      <trkpt lat="41.767701013013721" lon="-2.238483969122171">
        <ele>1080</ele>
        <time>2018-05-28T09:39:12Z</time>
      </trkpt>
      <trkpt lat="41.767840990796685" lon="-2.238093037158251">
        <ele>1079.4000000000001</ele>
        <time>2018-05-28T09:39:22Z</time>
      </trkpt>
      <trkpt lat="41.767502026632428" lon="-2.237119982019067">
        <ele>1079.5</ele>
        <time>2018-05-28T09:39:45Z</time>
      </trkpt>
      <trkpt lat="41.767029035836458" lon="-2.235911982133985">
        <ele>1083.9000000000001</ele>
        <time>2018-05-28T09:40:16Z</time>
      </trkpt>
      <trkpt lat="41.76675695925951" lon="-2.23521301522851">
        <ele>1088.4000000000001</ele>
        <time>2018-05-28T09:40:33Z</time>
      </trkpt>
      <trkpt lat="41.766465017572045" lon="-2.234440958127379">
        <ele>1092.2</ele>
        <time>2018-05-28T09:40:52Z</time>
      </trkpt>
      <trkpt lat="41.766199981793761" lon="-2.233631014823914">
        <ele>1094.7</ele>
        <time>2018-05-28T09:41:12Z</time>
      </trkpt>
      <trkpt lat="41.765965959057212" lon="-2.232405999675393">
        <ele>1098.4000000000001</ele>
        <time>2018-05-28T09:41:40Z</time>
      </trkpt>
      <trkpt lat="41.765884989872575" lon="-2.231967961415649">
        <ele>1099.3</ele>
        <time>2018-05-28T09:41:50Z</time>
      </trkpt>
      <trkpt lat="41.765836961567402" lon="-2.231655986979604">
        <ele>1099.5</ele>
        <time>2018-05-28T09:41:57Z</time>
      </trkpt>
      <trkpt lat="41.765823969617486" lon="-2.231579041108489">
        <ele>1099.5</ele>
        <time>2018-05-28T09:41:58Z</time>
      </trkpt>
      <trkpt lat="41.765803014859557" lon="-2.231467980891466">
        <ele>1099.5</ele>
        <time>2018-05-28T09:42:01Z</time>
      </trkpt>
      <trkpt lat="41.765755992382765" lon="-2.231232030317187">
        <ele>1099.3</ele>
        <time>2018-05-28T09:42:06Z</time>
      </trkpt>
      <trkpt lat="41.765667982399464" lon="-2.230672035366297">
        <ele>1098.0999999999999</ele>
        <time>2018-05-28T09:42:19Z</time>
      </trkpt>
      <trkpt lat="41.765562035143375" lon="-2.230055965483189">
        <ele>1096.3</ele>
        <time>2018-05-28T09:42:33Z</time>
      </trkpt>
      <trkpt lat="41.765372017398477" lon="-2.228879984468222">
        <ele>1093.8</ele>
        <time>2018-05-28T09:43:00Z</time>
      </trkpt>
      <trkpt lat="41.765195997431874" lon="-2.228008015081286">
        <ele>1090</ele>
        <time>2018-05-28T09:43:20Z</time>
      </trkpt>
      <trkpt lat="41.764556961134076" lon="-2.226247983053327">
        <ele>1086.2</ele>
        <time>2018-05-28T09:44:03Z</time>
      </trkpt>
      <trkpt lat="41.764437016099691" lon="-2.225822014734149">
        <ele>1087</ele>
        <time>2018-05-28T09:44:13Z</time>
      </trkpt>
      <trkpt lat="41.76436903886497" lon="-2.225365033373237">
        <ele>1087.3</ele>
        <time>2018-05-28T09:44:23Z</time>
      </trkpt>
      <trkpt lat="41.764297960326076" lon="-2.224804032593966">
        <ele>1091</ele>
        <time>2018-05-28T09:44:36Z</time>
      </trkpt>
      <trkpt lat="41.764270970597863" lon="-2.223842963576317">
        <ele>1099.5999999999999</ele>
        <time>2018-05-28T09:44:57Z</time>
      </trkpt>
      <trkpt lat="41.764249010011554" lon="-2.222908968105912">
        <ele>1103</ele>
        <time>2018-05-28T09:45:18Z</time>
      </trkpt>
      <trkpt lat="41.764245992526412" lon="-2.222652984783053">
        <ele>1103.4000000000001</ele>
        <time>2018-05-28T09:45:24Z</time>
      </trkpt>
      <trkpt lat="41.764250015839934" lon="-2.222165996208787">
        <ele>1104.0999999999999</ele>
        <time>2018-05-28T09:45:34Z</time>
      </trkpt>
      <trkpt lat="41.764123030006886" lon="-2.221554033458233">
        <ele>1102.8</ele>
        <time>2018-05-28T09:45:48Z</time>
      </trkpt>
      <trkpt lat="41.76396201364696" lon="-2.221008036285639">
        <ele>1101.4000000000001</ele>
        <time>2018-05-28T09:46:01Z</time>
      </trkpt>
      <trkpt lat="41.763857994228601" lon="-2.22004596143961">
        <ele>1100.2</ele>
        <time>2018-05-28T09:46:23Z</time>
      </trkpt>
      <trkpt lat="41.763748023658991" lon="-2.219630973413587">
        <ele>1102</ele>
        <time>2018-05-28T09:46:33Z</time>
      </trkpt>
      <trkpt lat="41.763679040595889" lon="-2.218692032620311">
        <ele>1103.5</ele>
        <time>2018-05-28T09:46:53Z</time>
      </trkpt>
      <trkpt lat="41.763763027265668" lon="-2.216982040554285">
        <ele>1111.5</ele>
        <time>2018-05-28T09:47:31Z</time>
      </trkpt>
      <trkpt lat="41.763691026717424" lon="-2.216278966516256">
        <ele>1115.9000000000001</ele>
        <time>2018-05-28T09:47:47Z</time>
      </trkpt>
      <trkpt lat="41.763477958738804" lon="-2.214710041880608">
        <ele>1119.5</ele>
        <time>2018-05-28T09:48:22Z</time>
      </trkpt>
      <trkpt lat="41.763465972617269" lon="-2.21422104164958">
        <ele>1120.8</ele>
        <time>2018-05-28T09:48:33Z</time>
      </trkpt>
      <trkpt lat="41.763393972069025" lon="-2.213532971218228">
        <ele>1124.0999999999999</ele>
        <time>2018-05-28T09:48:49Z</time>
      </trkpt>
      <trkpt lat="41.763365976512432" lon="-2.213172968477011">
        <ele>1125.0999999999999</ele>
        <time>2018-05-28T09:48:57Z</time>
      </trkpt>
      <trkpt lat="41.763334041461349" lon="-2.212813971564174">
        <ele>1126</ele>
        <time>2018-05-28T09:49:05Z</time>
      </trkpt>
      <trkpt lat="41.763303028419614" lon="-2.212462015450001">
        <ele>1126.5</ele>
        <time>2018-05-28T09:49:12Z</time>
      </trkpt>
      <trkpt lat="41.763290958479047" lon="-2.211933033540845">
        <ele>1127.2</ele>
        <time>2018-05-28T09:49:24Z</time>
      </trkpt>
      <trkpt lat="41.763250976800919" lon="-2.211416959762573">
        <ele>1130</ele>
        <time>2018-05-28T09:49:36Z</time>
      </trkpt>
      <trkpt lat="41.763233039528131" lon="-2.21125602722168">
        <ele>1130.9000000000001</ele>
        <time>2018-05-28T09:49:39Z</time>
      </trkpt>
      <trkpt lat="41.76312399096787" lon="-2.210494028404355">
        <ele>1133.4000000000001</ele>
        <time>2018-05-28T09:49:56Z</time>
      </trkpt>
      <trkpt lat="41.763060037046671" lon="-2.209719037637115">
        <ele>1137</ele>
        <time>2018-05-28T09:50:14Z</time>
      </trkpt>
      <trkpt lat="41.763056013733149" lon="-2.209144039079547">
        <ele>1138.3</ele>
        <time>2018-05-28T09:50:26Z</time>
      </trkpt>
      <trkpt lat="41.762985019013286" lon="-2.208656966686249">
        <ele>1138.5999999999999</ele>
        <time>2018-05-28T09:50:37Z</time>
      </trkpt>
      <trkpt lat="41.762888040393591" lon="-2.20824901945889">
        <ele>1137</ele>
        <time>2018-05-28T09:50:47Z</time>
      </trkpt>
      <trkpt lat="41.762859039008617" lon="-2.208137037232518">
        <ele>1136.4000000000001</ele>
        <time>2018-05-28T09:50:49Z</time>
      </trkpt>
      <trkpt lat="41.762856021523476" lon="-2.208118010312319">
        <ele>1136.3</ele>
        <time>2018-05-28T09:50:50Z</time>
      </trkpt>
      <trkpt lat="41.762821990996599" lon="-2.207850962877274">
        <ele>1134.2</ele>
        <time>2018-05-28T09:50:56Z</time>
      </trkpt>
      <trkpt lat="41.762758959084749" lon="-2.207560027018189">
        <ele>1129.4000000000001</ele>
        <time>2018-05-28T09:51:03Z</time>
      </trkpt>
      <trkpt lat="41.762702967971563" lon="-2.20717404037714">
        <ele>1123.3</ele>
        <time>2018-05-28T09:51:11Z</time>
      </trkpt>
      <trkpt lat="41.762675978243351" lon="-2.206768020987511">
        <ele>1118.7</ele>
        <time>2018-05-28T09:51:21Z</time>
      </trkpt>
      <trkpt lat="41.762748984619975" lon="-2.206239039078355">
        <ele>1114.8</ele>
        <time>2018-05-28T09:51:32Z</time>
      </trkpt>
      <trkpt lat="41.762740015983582" lon="-2.205838970839977">
        <ele>1113.7</ele>
        <time>2018-05-28T09:51:41Z</time>
      </trkpt>
      <trkpt lat="41.76262803375721" lon="-2.205401016399264">
        <ele>1111.2</ele>
        <time>2018-05-28T09:51:52Z</time>
      </trkpt>
      <trkpt lat="41.762529965490103" lon="-2.204965995624661">
        <ele>1109.0999999999999</ele>
        <time>2018-05-28T09:52:02Z</time>
      </trkpt>
      <trkpt lat="41.762486966326833" lon="-2.204541033133864">
        <ele>1107.4000000000001</ele>
        <time>2018-05-28T09:52:11Z</time>
      </trkpt>
      <trkpt lat="41.762528959661722" lon="-2.204235009849072">
        <ele>1105.2</ele>
        <time>2018-05-28T09:52:18Z</time>
      </trkpt>
      <trkpt lat="41.762597020715475" lon="-2.203841982409358">
        <ele>1102.4000000000001</ele>
        <time>2018-05-28T09:52:27Z</time>
      </trkpt>
      <trkpt lat="41.762601966038346" lon="-2.203520033508539">
        <ele>1100.0999999999999</ele>
        <time>2018-05-28T09:52:34Z</time>
      </trkpt>
      <trkpt lat="41.762557039037347" lon="-2.203161958605051">
        <ele>1097.3</ele>
        <time>2018-05-28T09:52:42Z</time>
      </trkpt>
      <trkpt lat="41.762517979368567" lon="-2.20285601913929">
        <ele>1095</ele>
        <time>2018-05-28T09:52:49Z</time>
      </trkpt>
      <trkpt lat="41.762428041547537" lon="-2.202522000297904">
        <ele>1092.5999999999999</ele>
        <time>2018-05-28T09:52:57Z</time>
      </trkpt>
      <trkpt lat="41.762376995757222" lon="-2.202336005866528">
        <ele>1091.4000000000001</ele>
        <time>2018-05-28T09:53:01Z</time>
      </trkpt>
      <trkpt lat="41.762366015464067" lon="-2.202240033075213">
        <ele>1090.9000000000001</ele>
        <time>2018-05-28T09:53:03Z</time>
      </trkpt>
      <trkpt lat="41.762355035170913" lon="-2.202089997008443">
        <ele>1090.3</ele>
        <time>2018-05-28T09:53:07Z</time>
      </trkpt>
      <trkpt lat="41.762341959401965" lon="-2.201908025890589">
        <ele>1089.5</ele>
        <time>2018-05-28T09:53:11Z</time>
      </trkpt>
      <trkpt lat="41.762385964393616" lon="-2.201291033998132">
        <ele>1087.3</ele>
        <time>2018-05-28T09:53:25Z</time>
      </trkpt>
      <trkpt lat="41.762520996853709" lon="-2.200668007135391">
        <ele>1085.3</ele>
        <time>2018-05-28T09:53:39Z</time>
      </trkpt>
      <trkpt lat="41.762444972991943" lon="-2.200242038816214">
        <ele>1082.9000000000001</ele>
        <time>2018-05-28T09:53:49Z</time>
      </trkpt>
      <trkpt lat="41.762543963268399" lon="-2.199460007250309">
        <ele>1079.8</ele>
        <time>2018-05-28T09:54:06Z</time>
      </trkpt>
      <trkpt lat="41.762813022360206" lon="-2.199005037546158">
        <ele>1079.5</ele>
        <time>2018-05-28T09:54:19Z</time>
      </trkpt>
      <trkpt lat="41.762904971837997" lon="-2.198661966249347">
        <ele>1078.5</ele>
        <time>2018-05-28T09:54:27Z</time>
      </trkpt>
      <trkpt lat="41.762746972963214" lon="-2.198353009298444">
        <ele>1076.7</ele>
        <time>2018-05-28T09:54:35Z</time>
      </trkpt>
      <trkpt lat="41.762381019070745" lon="-2.198271034285426">
        <ele>1075.5</ele>
        <time>2018-05-28T09:54:46Z</time>
      </trkpt>
      <trkpt lat="41.762246992439032" lon="-2.198199033737183">
        <ele>1075</ele>
        <time>2018-05-28T09:54:51Z</time>
      </trkpt>
      <trkpt lat="41.762077007442713" lon="-2.197981020435691">
        <ele>1074.2</ele>
        <time>2018-05-28T09:54:58Z</time>
      </trkpt>
      <trkpt lat="41.761984974145889" lon="-2.197686983272433">
        <ele>1074.2</ele>
        <time>2018-05-28T09:55:05Z</time>
      </trkpt>
      <trkpt lat="41.761795962229371" lon="-2.197087006643415">
        <ele>1074.3</ele>
        <time>2018-05-28T09:55:19Z</time>
      </trkpt>
      <trkpt lat="41.761767966672778" lon="-2.196879973635078">
        <ele>1073.8</ele>
        <time>2018-05-28T09:55:24Z</time>
      </trkpt>
      <trkpt lat="41.761966031044722" lon="-2.196785006672144">
        <ele>1073.4000000000001</ele>
        <time>2018-05-28T09:55:30Z</time>
      </trkpt>
      <trkpt lat="41.762055968865752" lon="-2.196750976145268">
        <ele>1073.2</ele>
        <time>2018-05-28T09:55:33Z</time>
      </trkpt>
      <trkpt lat="41.762658962979913" lon="-2.196493986994028">
        <ele>1073.0999999999999</ele>
        <time>2018-05-28T09:55:51Z</time>
      </trkpt>
      <trkpt lat="41.762731969356537" lon="-2.1964540053159">
        <ele>1073.0999999999999</ele>
        <time>2018-05-28T09:55:54Z</time>
      </trkpt>
      <trkpt lat="41.76284302957356" lon="-2.196385022252798">
        <ele>1073.0999999999999</ele>
        <time>2018-05-28T09:55:57Z</time>
      </trkpt>
      <trkpt lat="41.763034975156188" lon="-2.196204978972673">
        <ele>1073.3</ele>
        <time>2018-05-28T09:56:04Z</time>
      </trkpt>
      <trkpt lat="41.763074034824967" lon="-2.196181006729603">
        <ele>1073.3</ele>
        <time>2018-05-28T09:56:06Z</time>
      </trkpt>
      <trkpt lat="41.763100018724799" lon="-2.196145970374346">
        <ele>1073.0999999999999</ele>
        <time>2018-05-28T09:56:07Z</time>
      </trkpt>
      <trkpt lat="41.763288024812937" lon="-2.195893004536629">
        <ele>1071.7</ele>
        <time>2018-05-28T09:56:15Z</time>
      </trkpt>
      <trkpt lat="41.763493968173862" lon="-2.195756966248155">
        <ele>1070.8</ele>
        <time>2018-05-28T09:56:21Z</time>
      </trkpt>
      <trkpt lat="41.763843996450305" lon="-2.195712039247155">
        <ele>1069.8</ele>
        <time>2018-05-28T09:56:32Z</time>
      </trkpt>
      <trkpt lat="41.763909962028265" lon="-2.195654958486557">
        <ele>1068.5999999999999</ele>
        <time>2018-05-28T09:56:34Z</time>
      </trkpt>
      <trkpt lat="41.763927983120084" lon="-2.195544987916946">
        <ele>1067.2</ele>
        <time>2018-05-28T09:56:37Z</time>
      </trkpt>
      <trkpt lat="41.763923037797213" lon="-2.195510035380721">
        <ele>1066.8</ele>
        <time>2018-05-28T09:56:38Z</time>
      </trkpt>
      <trkpt lat="41.763913985341787" lon="-2.195479022338986">
        <ele>1066.5</ele>
        <time>2018-05-28T09:56:38Z</time>
      </trkpt>
      <trkpt lat="41.763894958421588" lon="-2.195435017347336">
        <ele>1066.2</ele>
        <time>2018-05-28T09:56:39Z</time>
      </trkpt>
      <trkpt lat="41.763891018927097" lon="-2.195426970720291">
        <ele>1066.0999999999999</ele>
        <time>2018-05-28T09:56:40Z</time>
      </trkpt>
      <trkpt lat="41.763885989785194" lon="-2.195438034832478">
        <ele>1066.3</ele>
        <time>2018-05-28T09:56:40Z</time>
      </trkpt>
      <trkpt lat="41.763890013098717" lon="-2.195445997640491">
        <ele>1066.3</ele>
        <time>2018-05-28T09:56:40Z</time>
      </trkpt>
      <trkpt lat="41.763896970078349" lon="-2.195434011518955">
        <ele>1066.0999999999999</ele>
        <time>2018-05-28T09:56:40Z</time>
      </trkpt>
      <trkpt lat="41.763921026140451" lon="-2.195706004276872">
        <ele>1069.0999999999999</ele>
        <time>2018-05-28T09:56:47Z</time>
      </trkpt>
      <trkpt lat="41.764196958392859" lon="-2.195802982896566">
        <ele>1067.9000000000001</ele>
        <time>2018-05-28T09:56:55Z</time>
      </trkpt>
      <trkpt lat="41.764538018032908" lon="-2.195857968181372">
        <ele>1065.5999999999999</ele>
        <time>2018-05-28T09:57:05Z</time>
      </trkpt>
      <trkpt lat="41.764775980263948" lon="-2.195797031745315">
        <ele>1064.8</ele>
        <time>2018-05-28T09:57:12Z</time>
      </trkpt>
      <trkpt lat="41.765090972185135" lon="-2.195640960708261">
        <ele>1063.9000000000001</ele>
        <time>2018-05-28T09:57:22Z</time>
      </trkpt>
      <trkpt lat="41.765285013243556" lon="-2.195529984310269">
        <ele>1063.4000000000001</ele>
        <time>2018-05-28T09:57:29Z</time>
      </trkpt>
      <trkpt lat="41.765921032056212" lon="-2.195256985723972">
        <ele>1064.5</ele>
        <time>2018-05-28T09:57:48Z</time>
      </trkpt>
      <trkpt lat="41.766438027843833" lon="-2.195170987397432">
        <ele>1064.7</ele>
        <time>2018-05-28T09:58:04Z</time>
      </trkpt>
      <trkpt lat="41.767242019996047" lon="-2.195060010999441">
        <ele>1062.8</ele>
        <time>2018-05-28T09:58:28Z</time>
      </trkpt>
      <trkpt lat="41.767936963587999" lon="-2.19495196826756">
        <ele>1061.2</ele>
        <time>2018-05-28T09:58:48Z</time>
      </trkpt>
      <trkpt lat="41.768056992441416" lon="-2.194915004074574">
        <ele>1060.9000000000001</ele>
        <time>2018-05-28T09:58:52Z</time>
      </trkpt>
      <trkpt lat="41.768133016303182" lon="-2.194863958284259">
        <ele>1060.5</ele>
        <time>2018-05-28T09:58:55Z</time>
      </trkpt>
      <trkpt lat="41.76823996938765" lon="-2.194752981886268">
        <ele>1059.9000000000001</ele>
        <time>2018-05-28T09:58:59Z</time>
      </trkpt>
      <trkpt lat="41.768305012956262" lon="-2.194665977731347">
        <ele>1059.4000000000001</ele>
        <time>2018-05-28T09:59:01Z</time>
      </trkpt>
      <trkpt lat="41.768945977091789" lon="-2.194003975018859">
        <ele>1059.5999999999999</ele>
        <time>2018-05-28T09:59:25Z</time>
      </trkpt>
      <trkpt lat="41.769288964569569" lon="-2.193696023896337">
        <ele>1059.0999999999999</ele>
        <time>2018-05-28T09:59:38Z</time>
      </trkpt>
      <trkpt lat="41.769975023344159" lon="-2.193093029782176">
        <ele>1057.7</ele>
        <time>2018-05-28T10:00:02Z</time>
      </trkpt>
      <trkpt lat="41.770625961944461" lon="-2.192534040659666">
        <ele>1056.4000000000001</ele>
        <time>2018-05-28T10:00:25Z</time>
      </trkpt>
      <trkpt lat="41.771143041551113" lon="-2.191910007968545">
        <ele>1053.5</ele>
        <time>2018-05-28T10:00:45Z</time>
      </trkpt>
      <trkpt lat="41.771561969071627" lon="-2.191354036331177">
        <ele>1052</ele>
        <time>2018-05-28T10:01:03Z</time>
      </trkpt>
      <trkpt lat="41.771620977669954" lon="-2.191266026347876">
        <ele>1051.9000000000001</ele>
        <time>2018-05-28T10:01:05Z</time>
      </trkpt>
      <trkpt lat="41.772164963185787" lon="-2.190552977845073">
        <ele>1051.2</ele>
        <time>2018-05-28T10:01:28Z</time>
      </trkpt>
      <trkpt lat="41.772831995040178" lon="-2.18985996209085">
        <ele>1051.0999999999999</ele>
        <time>2018-05-28T10:01:53Z</time>
      </trkpt>
      <trkpt lat="41.772903995588422" lon="-2.189779998734593">
        <ele>1050.9000000000001</ele>
        <time>2018-05-28T10:01:56Z</time>
      </trkpt>
      <trkpt lat="41.772709032520652" lon="-2.189497025683522">
        <ele>1049.7</ele>
        <time>2018-05-28T10:02:04Z</time>
      </trkpt>
      <trkpt lat="41.772248027846217" lon="-2.189496019855142">
        <ele>1049.5999999999999</ele>
        <time>2018-05-28T10:02:18Z</time>
      </trkpt>
      <trkpt lat="41.771862963214517" lon="-2.189690982922912">
        <ele>1049.8</ele>
        <time>2018-05-28T10:02:30Z</time>
      </trkpt>
      <trkpt lat="41.771689038723707" lon="-2.18985702842474">
        <ele>1050.3</ele>
        <time>2018-05-28T10:02:36Z</time>
      </trkpt>
      <trkpt lat="41.771013038232923" lon="-2.190117035061121">
        <ele>1052.4000000000001</ele>
        <time>2018-05-28T10:02:57Z</time>
      </trkpt>
      <trkpt lat="41.770542981103063" lon="-2.190089039504528">
        <ele>1055.7</ele>
        <time>2018-05-28T10:03:11Z</time>
      </trkpt>
      <trkpt lat="41.770285991951823" lon="-2.189717972651124">
        <ele>1056.9000000000001</ele>
        <time>2018-05-28T10:03:23Z</time>
      </trkpt>
      <trkpt lat="41.77027802914381" lon="-2.189505994319916">
        <ele>1056.7</ele>
        <time>2018-05-28T10:03:27Z</time>
      </trkpt>
      <trkpt lat="41.770174009725451" lon="-2.188143013045192">
        <ele>1058.4000000000001</ele>
        <time>2018-05-28T10:03:57Z</time>
      </trkpt>
      <trkpt lat="41.769974017515779" lon="-2.187475981190801">
        <ele>1061.7</ele>
        <time>2018-05-28T10:04:13Z</time>
      </trkpt>
      <trkpt lat="41.769707975909114" lon="-2.186899976804853">
        <ele>1064.9000000000001</ele>
        <time>2018-05-28T10:04:28Z</time>
      </trkpt>
      <trkpt lat="41.769522987306118" lon="-2.186120040714741">
        <ele>1063.8</ele>
        <time>2018-05-28T10:04:46Z</time>
      </trkpt>
      <trkpt lat="41.769618038088083" lon="-2.185875959694386">
        <ele>1062.5999999999999</ele>
        <time>2018-05-28T10:04:53Z</time>
      </trkpt>
      <trkpt lat="41.769861029461026" lon="-2.18568803742528">
        <ele>1061.3</ele>
        <time>2018-05-28T10:05:01Z</time>
      </trkpt>
      <trkpt lat="41.770050963386893" lon="-2.185541018843651">
        <ele>1060.3</ele>
        <time>2018-05-28T10:05:07Z</time>
      </trkpt>
      <trkpt lat="41.770282974466681" lon="-2.185200965031982">
        <ele>1058.5999999999999</ele>
        <time>2018-05-28T10:05:18Z</time>
      </trkpt>
      <trkpt lat="41.77036302164197" lon="-2.184642981737852">
        <ele>1056.4000000000001</ele>
        <time>2018-05-28T10:05:30Z</time>
      </trkpt>
      <trkpt lat="41.770280040800571" lon="-2.184150964021683">
        <ele>1056.5999999999999</ele>
        <time>2018-05-28T10:05:41Z</time>
      </trkpt>
      <trkpt lat="41.770270988345146" lon="-2.183689959347248">
        <ele>1056.8</ele>
        <time>2018-05-28T10:05:51Z</time>
      </trkpt>
      <trkpt lat="41.77028096280992" lon="-2.183416038751602">
        <ele>1057.0999999999999</ele>
        <time>2018-05-28T10:05:58Z</time>
      </trkpt>
      <trkpt lat="41.770375007763505" lon="-2.182952016592026">
        <ele>1057.2</ele>
        <time>2018-05-28T10:06:08Z</time>
      </trkpt>
      <trkpt lat="41.770654963329434" lon="-2.181958006694913">
        <ele>1056.4000000000001</ele>
        <time>2018-05-28T10:06:32Z</time>
      </trkpt>
      <trkpt lat="41.770660998299718" lon="-2.181751979514957">
        <ele>1056.3</ele>
        <time>2018-05-28T10:06:36Z</time>
      </trkpt>
      <trkpt lat="41.770629985257983" lon="-2.181331962347031">
        <ele>1056.3</ele>
        <time>2018-05-28T10:06:46Z</time>
      </trkpt>
      <trkpt lat="41.770654963329434" lon="-2.180954022333026">
        <ele>1057.4000000000001</ele>
        <time>2018-05-28T10:06:54Z</time>
      </trkpt>
      <trkpt lat="41.770631996914744" lon="-2.18077096156776">
        <ele>1058.2</ele>
        <time>2018-05-28T10:06:58Z</time>
      </trkpt>
      <trkpt lat="41.770452959463" lon="-2.179952971637249">
        <ele>1061.3</ele>
        <time>2018-05-28T10:07:17Z</time>
      </trkpt>
      <trkpt lat="41.770427981391549" lon="-2.179525997489691">
        <ele>1061.7</ele>
        <time>2018-05-28T10:07:26Z</time>
      </trkpt>
      <trkpt lat="41.770795024931431" lon="-2.179032973945141">
        <ele>1058.5999999999999</ele>
        <time>2018-05-28T10:07:42Z</time>
      </trkpt>
      <trkpt lat="41.771071963012218" lon="-2.178544979542494">
        <ele>1057.2</ele>
        <time>2018-05-28T10:07:55Z</time>
      </trkpt>
      <trkpt lat="41.771300034597516" lon="-2.178079029545188">
        <ele>1056.0999999999999</ele>
        <time>2018-05-28T10:08:08Z</time>
      </trkpt>
      <trkpt lat="41.77182499319315" lon="-2.177830003201962">
        <ele>1054.5</ele>
        <time>2018-05-28T10:08:24Z</time>
      </trkpt>
      <trkpt lat="41.772413989529014" lon="-2.17774098739028">
        <ele>1052.2</ele>
        <time>2018-05-28T10:08:42Z</time>
      </trkpt>
      <trkpt lat="41.773100970312953" lon="-2.177516017109156">
        <ele>1048.7</ele>
        <time>2018-05-28T10:09:03Z</time>
      </trkpt>
      <trkpt lat="41.773218987509608" lon="-2.177488021552563">
        <ele>1048.2</ele>
        <time>2018-05-28T10:09:06Z</time>
      </trkpt>
      <trkpt lat="41.773319989442825" lon="-2.177175041288137">
        <ele>1047.5999999999999</ele>
        <time>2018-05-28T10:09:14Z</time>
      </trkpt>
      <trkpt lat="41.773276990279555" lon="-2.177072027698159">
        <ele>1047.7</ele>
        <time>2018-05-28T10:09:16Z</time>
      </trkpt>
      <trkpt lat="41.773228039965034" lon="-2.1768609713763">
        <ele>1047.5999999999999</ele>
        <time>2018-05-28T10:09:21Z</time>
      </trkpt>
      <trkpt lat="41.773300962522626" lon="-2.176742032170296">
        <ele>1047.2</ele>
        <time>2018-05-28T10:09:25Z</time>
      </trkpt>
      <trkpt lat="41.773402970284224" lon="-2.17666701413691">
        <ele>1046.7</ele>
        <time>2018-05-28T10:09:28Z</time>
      </trkpt>
      <trkpt lat="41.773974029347301" lon="-2.176289996132255">
        <ele>1044.2</ele>
        <time>2018-05-28T10:09:47Z</time>
      </trkpt>
      <trkpt lat="41.774048963561654" lon="-2.176114981994033">
        <ele>1043.8</ele>
        <time>2018-05-28T10:09:51Z</time>
      </trkpt>
      <trkpt lat="41.773774959146976" lon="-2.175491033121944">
        <ele>1044</ele>
        <time>2018-05-28T10:10:07Z</time>
      </trkpt>
      <trkpt lat="41.773316971957684" lon="-2.174515966325998">
        <ele>1043.9000000000001</ele>
        <time>2018-05-28T10:10:33Z</time>
      </trkpt>
      <trkpt lat="41.773170959204435" lon="-2.174233999103308">
        <ele>1043.7</ele>
        <time>2018-05-28T10:10:40Z</time>
      </trkpt>
      <trkpt lat="41.773041039705276" lon="-2.173997964709997">
        <ele>1043.4000000000001</ele>
        <time>2018-05-28T10:10:47Z</time>
      </trkpt>
      <trkpt lat="41.772563019767404" lon="-2.173148039728403">
        <ele>1043.0999999999999</ele>
        <time>2018-05-28T10:11:10Z</time>
      </trkpt>
      <trkpt lat="41.772078964859247" lon="-2.172223012894392">
        <ele>1041.5</ele>
        <time>2018-05-28T10:11:35Z</time>
      </trkpt>
      <trkpt lat="41.771728014573455" lon="-2.171344002708793">
        <ele>1041</ele>
        <time>2018-05-28T10:11:57Z</time>
      </trkpt>
      <trkpt lat="41.771215964108706" lon="-2.17037103138864">
        <ele>1040.0999999999999</ele>
        <time>2018-05-28T10:12:24Z</time>
      </trkpt>
      <trkpt lat="41.77088001742959" lon="-2.169826040044427">
        <ele>1040.5999999999999</ele>
        <time>2018-05-28T10:12:39Z</time>
      </trkpt>
      <trkpt lat="41.770405014976859" lon="-2.168920040130615">
        <ele>1041.3</ele>
        <time>2018-05-28T10:13:04Z</time>
      </trkpt>
      <trkpt lat="41.770251039415598" lon="-2.168345041573048">
        <ele>1041.4000000000001</ele>
        <time>2018-05-28T10:13:17Z</time>
      </trkpt>
      <trkpt lat="41.76999899558723" lon="-2.167364023625851">
        <ele>1042.8</ele>
        <time>2018-05-28T10:13:40Z</time>
      </trkpt>
      <trkpt lat="41.769920038059354" lon="-2.167023969814181">
        <ele>1043.5999999999999</ele>
        <time>2018-05-28T10:13:48Z</time>
      </trkpt>
      <trkpt lat="41.769685009494424" lon="-2.166183013468981">
        <ele>1043.2</ele>
        <time>2018-05-28T10:14:08Z</time>
      </trkpt>
      <trkpt lat="41.769661959260702" lon="-2.166085029020906">
        <ele>1043</ele>
        <time>2018-05-28T10:14:10Z</time>
      </trkpt>
      <trkpt lat="41.76937404088676" lon="-2.165334010496736">
        <ele>1041.9000000000001</ele>
        <time>2018-05-28T10:14:29Z</time>
      </trkpt>
      <trkpt lat="41.769046979025006" lon="-2.164757000282407">
        <ele>1041.3</ele>
        <time>2018-05-28T10:14:45Z</time>
      </trkpt>
      <trkpt lat="41.768652023747563" lon="-2.164275040850043">
        <ele>1040.7</ele>
        <time>2018-05-28T10:15:01Z</time>
      </trkpt>
      <trkpt lat="41.768286991864443" lon="-2.163655031472445">
        <ele>1039.3</ele>
        <time>2018-05-28T10:15:18Z</time>
      </trkpt>
      <trkpt lat="41.767888013273478" lon="-2.1629389654845">
        <ele>1037.5</ele>
        <time>2018-05-28T10:15:38Z</time>
      </trkpt>
      <trkpt lat="41.767500014975667" lon="-2.162284003570676">
        <ele>1037.0999999999999</ele>
        <time>2018-05-28T10:15:56Z</time>
      </trkpt>
      <trkpt lat="41.767388032749295" lon="-2.162119969725609">
        <ele>1036.5</ele>
        <time>2018-05-28T10:16:01Z</time>
      </trkpt>
      <trkpt lat="41.767233973369002" lon="-2.161855017766357">
        <ele>1035.8</ele>
        <time>2018-05-28T10:16:09Z</time>
      </trkpt>
      <trkpt lat="41.767130959779024" lon="-2.161608003079891">
        <ele>1034.9000000000001</ele>
        <time>2018-05-28T10:16:15Z</time>
      </trkpt>
      <trkpt lat="41.766785960644484" lon="-2.16072304174304">
        <ele>1034.8</ele>
        <time>2018-05-28T10:16:37Z</time>
      </trkpt>
      <trkpt lat="41.766742961481214" lon="-2.160620028153062">
        <ele>1034.9000000000001</ele>
        <time>2018-05-28T10:16:40Z</time>
      </trkpt>
      <trkpt lat="41.766646988689899" lon="-2.160291038453579">
        <ele>1034.9000000000001</ele>
        <time>2018-05-28T10:16:48Z</time>
      </trkpt>
      <trkpt lat="41.766322022303939" lon="-2.159342961385846">
        <ele>1033.9000000000001</ele>
        <time>2018-05-28T10:17:11Z</time>
      </trkpt>
      <trkpt lat="41.765976017341018" lon="-2.158421035856009">
        <ele>1032.3</ele>
        <time>2018-05-28T10:17:33Z</time>
      </trkpt>
      <trkpt lat="41.7656160145998" lon="-2.15760899707675">
        <ele>1032.5</ele>
        <time>2018-05-28T10:17:54Z</time>
      </trkpt>
      <trkpt lat="41.765500009059906" lon="-2.157398024573922">
        <ele>1032.8</ele>
        <time>2018-05-28T10:18:00Z</time>
      </trkpt>
      <trkpt lat="41.765458015725017" lon="-2.157303979620338">
        <ele>1032.9000000000001</ele>
        <time>2018-05-28T10:18:03Z</time>
      </trkpt>
      <trkpt lat="41.765090972185135" lon="-2.156630996614695">
        <ele>1033.4000000000001</ele>
        <time>2018-05-28T10:18:21Z</time>
      </trkpt>
      <trkpt lat="41.764829959720373" lon="-2.156034959480166">
        <ele>1032.9000000000001</ele>
        <time>2018-05-28T10:18:36Z</time>
      </trkpt>
      <trkpt lat="41.764638014137745" lon="-2.155427020043135">
        <ele>1031.9000000000001</ele>
        <time>2018-05-28T10:18:51Z</time>
      </trkpt>
      <trkpt lat="41.76449803635478" lon="-2.154699973762035">
        <ele>1031.3</ele>
        <time>2018-05-28T10:19:07Z</time>
      </trkpt>
      <trkpt lat="41.764398040249944" lon="-2.154092034325004">
        <ele>1030.9000000000001</ele>
        <time>2018-05-28T10:19:21Z</time>
      </trkpt>
      <trkpt lat="41.764259990304708" lon="-2.153475964441896">
        <ele>1030.3</ele>
        <time>2018-05-28T10:19:35Z</time>
      </trkpt>
      <trkpt lat="41.764138033613563" lon="-2.153047984465957">
        <ele>1029.8</ele>
        <time>2018-05-28T10:19:46Z</time>
      </trkpt>
      <trkpt lat="41.763981962576509" lon="-2.1524119656533">
        <ele>1029.0999999999999</ele>
        <time>2018-05-28T10:20:00Z</time>
      </trkpt>
      <trkpt lat="41.763839973136783" lon="-2.151726996526122">
        <ele>1028.8</ele>
        <time>2018-05-28T10:20:16Z</time>
      </trkpt>
      <trkpt lat="41.763693960383534" lon="-2.151213018223643">
        <ele>1028.9000000000001</ele>
        <time>2018-05-28T10:20:28Z</time>
      </trkpt>
      <trkpt lat="41.763490028679371" lon="-2.150481026619673">
        <ele>1027.2</ele>
        <time>2018-05-28T10:20:45Z</time>
      </trkpt>
      <trkpt lat="41.763364970684052" lon="-2.149893958121538">
        <ele>1025.4000000000001</ele>
        <time>2018-05-28T10:20:59Z</time>
      </trkpt>
      <trkpt lat="41.763422973453999" lon="-2.149222986772656">
        <ele>1023.6</ele>
        <time>2018-05-28T10:21:14Z</time>
      </trkpt>
      <trkpt lat="41.763592036440969" lon="-2.148536005988717">
        <ele>1022.3</ele>
        <time>2018-05-28T10:21:30Z</time>
      </trkpt>
      <trkpt lat="41.763808960095048" lon="-2.147864028811455">
        <ele>1022</ele>
        <time>2018-05-28T10:21:46Z</time>
      </trkpt>
      <trkpt lat="41.763969976454973" lon="-2.147673005238175">
        <ele>1022</ele>
        <time>2018-05-28T10:21:52Z</time>
      </trkpt>
      <trkpt lat="41.764128981158137" lon="-2.147391038015485">
        <ele>1022.1</ele>
        <time>2018-05-28T10:22:00Z</time>
      </trkpt>
      <trkpt lat="41.764151025563478" lon="-2.146643036976457">
        <ele>1022.5</ele>
        <time>2018-05-28T10:22:17Z</time>
      </trkpt>
      <trkpt lat="41.764397034421563" lon="-2.145795961841941">
        <ele>1023</ele>
        <time>2018-05-28T10:22:37Z</time>
      </trkpt>
      <trkpt lat="41.764687970280647" lon="-2.145156003534794">
        <ele>1022.9</ele>
        <time>2018-05-28T10:22:53Z</time>
      </trkpt>
      <trkpt lat="41.76510295830667" lon="-2.144338013604283">
        <ele>1023</ele>
        <time>2018-05-28T10:23:15Z</time>
      </trkpt>
      <trkpt lat="41.76570100709796" lon="-2.143122972920537">
        <ele>1022.1</ele>
        <time>2018-05-28T10:23:47Z</time>
      </trkpt>
      <trkpt lat="41.766258990392089" lon="-2.141956966370344">
        <ele>1022.2</ele>
        <time>2018-05-28T10:24:18Z</time>
      </trkpt>
      <trkpt lat="41.766640031710267" lon="-2.140886010602117">
        <ele>1023</ele>
        <time>2018-05-28T10:24:44Z</time>
      </trkpt>
      <trkpt lat="41.766986036673188" lon="-2.140131974592805">
        <ele>1023.6</ele>
        <time>2018-05-28T10:25:04Z</time>
      </trkpt>
      <trkpt lat="41.767030963674188" lon="-2.139869034290314">
        <ele>1024.2</ele>
        <time>2018-05-28T10:25:10Z</time>
      </trkpt>
      <trkpt lat="41.767016965895891" lon="-2.139528980478644">
        <ele>1024.8</ele>
        <time>2018-05-28T10:25:17Z</time>
      </trkpt>
      <trkpt lat="41.767160966992378" lon="-2.138903019949794">
        <ele>1024.2</ele>
        <time>2018-05-28T10:25:32Z</time>
      </trkpt>
      <trkpt lat="41.767202960327268" lon="-2.138543017208576">
        <ele>1024.2</ele>
        <time>2018-05-28T10:25:40Z</time>
      </trkpt>
      <trkpt lat="41.767218969762325" lon="-2.138481996953487">
        <ele>1024.3</ele>
        <time>2018-05-28T10:25:41Z</time>
      </trkpt>
      <trkpt lat="41.767350984737277" lon="-2.137946980074048">
        <ele>1024.9000000000001</ele>
        <time>2018-05-28T10:25:54Z</time>
      </trkpt>
      <trkpt lat="41.767365988343954" lon="-2.137877997010946">
        <ele>1025.0999999999999</ele>
        <time>2018-05-28T10:25:55Z</time>
      </trkpt>
      <trkpt lat="41.767361965030432" lon="-2.137883026152849">
        <ele>1025.0999999999999</ele>
        <time>2018-05-28T10:25:56Z</time>
      </trkpt>
      <trkpt lat="41.767360959202051" lon="-2.137867016717792">
        <ele>1025.0999999999999</ele>
        <time>2018-05-28T10:25:56Z</time>
      </trkpt>
      <trkpt lat="41.767391972243786" lon="-2.137640034779906">
        <ele>1025.7</ele>
        <time>2018-05-28T10:26:01Z</time>
      </trkpt>
      <trkpt lat="41.767459027469158" lon="-2.137644980102778">
        <ele>1025.9000000000001</ele>
        <time>2018-05-28T10:26:03Z</time>
      </trkpt>
      <trkpt lat="41.767578972503543" lon="-2.137686973437667">
        <ele>1026.2</ele>
        <time>2018-05-28T10:26:07Z</time>
      </trkpt>
      <trkpt lat="41.767581989988685" lon="-2.137711029499769">
        <ele>1026.0999999999999</ele>
        <time>2018-05-28T10:26:07Z</time>
      </trkpt>
      <trkpt lat="41.767568998038769" lon="-2.137724021449685">
        <ele>1026.0999999999999</ele>
        <time>2018-05-28T10:26:08Z</time>
      </trkpt>
      <trkpt lat="41.767575033009052" lon="-2.137738019227982">
        <ele>1026.0999999999999</ele>
        <time>2018-05-28T10:26:08Z</time>
      </trkpt>
      <trkpt lat="41.767576038837433" lon="-2.137717986479402">
        <ele>1026.0999999999999</ele>
        <time>2018-05-28T10:26:08Z</time>
      </trkpt>
      <trkpt lat="41.767572015523911" lon="-2.137723015621305">
        <ele>1026.0999999999999</ele>
        <time>2018-05-28T10:26:09Z</time>
      </trkpt>
      <trkpt lat="41.767409993335605" lon="-2.13779803365469">
        <ele>1025.4000000000001</ele>
        <time>2018-05-28T10:26:14Z</time>
      </trkpt>
      <trkpt lat="41.767393983900547" lon="-2.137795016169548">
        <ele>1025.4000000000001</ele>
        <time>2018-05-28T10:26:14Z</time>
      </trkpt>
      <trkpt lat="41.767389038577676" lon="-2.137796021997929">
        <ele>1025.3</ele>
        <time>2018-05-28T10:26:14Z</time>
      </trkpt>
      <trkpt lat="41.767388032749295" lon="-2.137780012562871">
        <ele>1025.4000000000001</ele>
        <time>2018-05-28T10:26:15Z</time>
      </trkpt>
      <trkpt lat="41.767465984448791" lon="-2.137287994846702">
        <ele>1026.5</ele>
        <time>2018-05-28T10:26:26Z</time>
      </trkpt>
      <trkpt lat="41.767578972503543" lon="-2.136909971013665">
        <ele>1027.4000000000001</ele>
        <time>2018-05-28T10:26:35Z</time>
      </trkpt>
      <trkpt lat="41.767650973051786" lon="-2.136390963569284">
        <ele>1028.2</ele>
        <time>2018-05-28T10:26:46Z</time>
      </trkpt>
      <trkpt lat="41.76785197108984" lon="-2.136114025488496">
        <ele>1028.2</ele>
        <time>2018-05-28T10:26:55Z</time>
      </trkpt>
      <trkpt lat="41.768025979399681" lon="-2.136025009676814">
        <ele>1028.4000000000001</ele>
        <time>2018-05-28T10:27:01Z</time>
      </trkpt>
      <trkpt lat="41.768416995182633" lon="-2.13575704023242">
        <ele>1028.8</ele>
        <time>2018-05-28T10:27:14Z</time>
      </trkpt>
      <trkpt lat="41.768823014572263" lon="-2.135420003905892">
        <ele>1029.0999999999999</ele>
        <time>2018-05-28T10:27:28Z</time>
      </trkpt>
      <trkpt lat="41.768908007070422" lon="-2.135313972830772">
        <ele>1029.4000000000001</ele>
        <time>2018-05-28T10:27:31Z</time>
      </trkpt>
      <trkpt lat="41.769043961539865" lon="-2.134983977302909">
        <ele>1030.2</ele>
        <time>2018-05-28T10:27:39Z</time>
      </trkpt>
      <trkpt lat="41.769041027873755" lon="-2.134676026180387">
        <ele>1030.8</ele>
        <time>2018-05-28T10:27:46Z</time>
      </trkpt>
      <trkpt lat="41.7690110206604" lon="-2.134251985698938">
        <ele>1031.5</ele>
        <time>2018-05-28T10:27:56Z</time>
      </trkpt>
      <trkpt lat="41.76890498958528" lon="-2.133270967751741">
        <ele>1032.4000000000001</ele>
        <time>2018-05-28T10:28:18Z</time>
      </trkpt>
      <trkpt lat="41.768813962116838" lon="-2.132017035037279">
        <ele>1033.2</ele>
        <time>2018-05-28T10:28:45Z</time>
      </trkpt>
      <trkpt lat="41.768794013187289" lon="-2.131816036999226">
        <ele>1033.4000000000001</ele>
        <time>2018-05-28T10:28:50Z</time>
      </trkpt>
      <trkpt lat="41.768765011802316" lon="-2.131466008722782">
        <ele>1033.8</ele>
        <time>2018-05-28T10:28:58Z</time>
      </trkpt>
      <trkpt lat="41.768707009032369" lon="-2.130871983245015">
        <ele>1034</ele>
        <time>2018-05-28T10:29:11Z</time>
      </trkpt>
      <trkpt lat="41.768567031249404" lon="-2.129760039970279">
        <ele>1034</ele>
        <time>2018-05-28T10:29:36Z</time>
      </trkpt>
      <trkpt lat="41.768419006839395" lon="-2.128772987052798">
        <ele>1032.5999999999999</ele>
        <time>2018-05-28T10:29:58Z</time>
      </trkpt>
      <trkpt lat="41.76828196272254" lon="-2.127836979925633">
        <ele>1031.4000000000001</ele>
        <time>2018-05-28T10:30:19Z</time>
      </trkpt>
      <trkpt lat="41.768113989382982" lon="-2.126956041902304">
        <ele>1030.9000000000001</ele>
        <time>2018-05-28T10:30:39Z</time>
      </trkpt>
      <trkpt lat="41.768003012984991" lon="-2.125869998708367">
        <ele>1030.4000000000001</ele>
        <time>2018-05-28T10:31:03Z</time>
      </trkpt>
      <trkpt lat="41.767976023256779" lon="-2.125111017376185">
        <ele>1030.5999999999999</ele>
        <time>2018-05-28T10:31:20Z</time>
      </trkpt>
      <trkpt lat="41.767938975244761" lon="-2.124229995533824">
        <ele>1031.5</ele>
        <time>2018-05-28T10:31:40Z</time>
      </trkpt>
      <trkpt lat="41.767855994403362" lon="-2.123044040054083">
        <ele>1031.9000000000001</ele>
        <time>2018-05-28T10:32:06Z</time>
      </trkpt>
      <trkpt lat="41.767864963039756" lon="-2.121284008026123">
        <ele>1037.8</ele>
        <time>2018-05-28T10:32:45Z</time>
      </trkpt>
      <trkpt lat="41.767878038808703" lon="-2.119609974324703">
        <ele>1040</ele>
        <time>2018-05-28T10:33:22Z</time>
      </trkpt>
      <trkpt lat="41.767861023545265" lon="-2.118442039936781">
        <ele>1038.9000000000001</ele>
        <time>2018-05-28T10:33:48Z</time>
      </trkpt>
      <trkpt lat="41.767898993566632" lon="-2.117034969851375">
        <ele>1040</ele>
        <time>2018-05-28T10:34:19Z</time>
      </trkpt>
      <trkpt lat="41.768028996884823" lon="-2.116039032116532">
        <ele>1039.9000000000001</ele>
        <time>2018-05-28T10:34:41Z</time>
      </trkpt>
      <trkpt lat="41.768206022679806" lon="-2.115007974207401">
        <ele>1038.7</ele>
        <time>2018-05-28T10:35:05Z</time>
      </trkpt>
      <trkpt lat="41.768442979082465" lon="-2.114027040079236">
        <ele>1038.0999999999999</ele>
        <time>2018-05-28T10:35:27Z</time>
      </trkpt>
      <trkpt lat="41.768827959895134" lon="-2.113084997981787">
        <ele>1036.4000000000001</ele>
        <time>2018-05-28T10:35:51Z</time>
      </trkpt>
      <trkpt lat="41.769082015380263" lon="-2.112344037741423">
        <ele>1037.0999999999999</ele>
        <time>2018-05-28T10:36:09Z</time>
      </trkpt>
      <trkpt lat="41.769241020083427" lon="-2.111655967310071">
        <ele>1036.8</ele>
        <time>2018-05-28T10:36:25Z</time>
      </trkpt>
      <trkpt lat="41.769321989268064" lon="-2.11117803119123">
        <ele>1036.4000000000001</ele>
        <time>2018-05-28T10:36:36Z</time>
      </trkpt>
      <trkpt lat="41.769618960097432" lon="-2.109726034104824">
        <ele>1037</ele>
        <time>2018-05-28T10:37:09Z</time>
      </trkpt>
      <trkpt lat="41.770308958366513" lon="-2.107987962663174">
        <ele>1039.8</ele>
        <time>2018-05-28T10:37:53Z</time>
      </trkpt>
      <trkpt lat="41.770457988604903" lon="-2.107770033180714">
        <ele>1040.7</ele>
        <time>2018-05-28T10:37:59Z</time>
      </trkpt>
      <trkpt lat="41.77053501829505" lon="-2.107662996277213">
        <ele>1041.2</ele>
        <time>2018-05-28T10:38:03Z</time>
      </trkpt>
      <trkpt lat="41.770832994952798" lon="-2.10727097466588">
        <ele>1042.7</ele>
        <time>2018-05-28T10:38:15Z</time>
      </trkpt>
      <trkpt lat="41.771042961627245" lon="-2.107008034363389">
        <ele>1043.7</ele>
        <time>2018-05-28T10:38:23Z</time>
      </trkpt>
      <trkpt lat="41.771258963271976" lon="-2.106781974434853">
        <ele>1045.2</ele>
        <time>2018-05-28T10:38:32Z</time>
      </trkpt>
      <trkpt lat="41.771407993510365" lon="-2.106678038835526">
        <ele>1045.5999999999999</ele>
        <time>2018-05-28T10:38:37Z</time>
      </trkpt>
      <trkpt lat="41.772001013159752" lon="-2.106333961710334">
        <ele>1047.4000000000001</ele>
        <time>2018-05-28T10:38:56Z</time>
      </trkpt>
      <trkpt lat="41.772106038406491" lon="-2.106068003922701">
        <ele>1048.5999999999999</ele>
        <time>2018-05-28T10:39:02Z</time>
      </trkpt>
      <trkpt lat="41.77240401506424" lon="-2.10570003837347">
        <ele>1049.5999999999999</ele>
        <time>2018-05-28T10:39:14Z</time>
      </trkpt>
      <trkpt lat="41.772629991173744" lon="-2.105426033958793">
        <ele>1050.9000000000001</ele>
        <time>2018-05-28T10:39:23Z</time>
      </trkpt>
      <trkpt lat="41.772865019738674" lon="-2.105283960700035">
        <ele>1051</ele>
        <time>2018-05-28T10:39:31Z</time>
      </trkpt>
      <trkpt lat="41.772925034165382" lon="-2.105340035632253">
        <ele>1050.9000000000001</ele>
        <time>2018-05-28T10:39:33Z</time>
      </trkpt>
      <trkpt lat="41.772942971438169" lon="-2.105496022850275">
        <ele>1050.2</ele>
        <time>2018-05-28T10:39:37Z</time>
      </trkpt>
      <trkpt lat="41.77294397726655" lon="-2.10550700314343">
        <ele>1050.0999999999999</ele>
        <time>2018-05-28T10:39:37Z</time>
      </trkpt>
      <trkpt lat="41.773000974208117" lon="-2.105495017021895">
        <ele>1049.8</ele>
        <time>2018-05-28T10:39:39Z</time>
      </trkpt>
      <trkpt lat="41.773003991693258" lon="-2.105513038113713">
        <ele>1049.5999999999999</ele>
        <time>2018-05-28T10:39:39Z</time>
      </trkpt>
      <trkpt lat="41.773001980036497" lon="-2.105510020628572">
        <ele>1049.7</ele>
        <time>2018-05-28T10:39:39Z</time>
      </trkpt>
      <trkpt lat="41.7730070091784" lon="-2.105509014800191">
        <ele>1049.5999999999999</ele>
        <time>2018-05-28T10:39:39Z</time>
      </trkpt>
      <trkpt lat="41.772940959781408" lon="-2.105503985658288">
        <ele>1050.2</ele>
        <time>2018-05-28T10:39:41Z</time>
      </trkpt>
      <trkpt lat="41.772940037772059" lon="-2.105505997315049">
        <ele>1050.2</ele>
        <time>2018-05-28T10:39:41Z</time>
      </trkpt>
      <trkpt lat="41.772940959781408" lon="-2.10550800897181">
        <ele>1050.2</ele>
        <time>2018-05-28T10:39:41Z</time>
      </trkpt>
      <trkpt lat="41.772937020286918" lon="-2.10550700314343">
        <ele>1050.2</ele>
        <time>2018-05-28T10:39:41Z</time>
      </trkpt>
      <trkpt lat="41.772940959781408" lon="-2.105509014800191">
        <ele>1050.0999999999999</ele>
        <time>2018-05-28T10:39:42Z</time>
      </trkpt>
      <trkpt lat="41.772968033328652" lon="-2.10550700314343">
        <ele>1049.9000000000001</ele>
        <time>2018-05-28T10:39:42Z</time>
      </trkpt>
      <trkpt lat="41.772944983094931" lon="-2.105388985946775">
        <ele>1050.8</ele>
        <time>2018-05-28T10:39:45Z</time>
      </trkpt>
      <trkpt lat="41.773027963936329" lon="-2.105086985975504">
        <ele>1050.2</ele>
        <time>2018-05-28T10:39:52Z</time>
      </trkpt>
      <trkpt lat="41.773188980296254" lon="-2.104800995439291">
        <ele>1049.4000000000001</ele>
        <time>2018-05-28T10:40:00Z</time>
      </trkpt>
      <trkpt lat="41.773387966677547" lon="-2.104424983263016">
        <ele>1048.5</ele>
        <time>2018-05-28T10:40:10Z</time>
      </trkpt>
      <trkpt lat="41.773429960012436" lon="-2.104285005480051">
        <ele>1048.0999999999999</ele>
        <time>2018-05-28T10:40:14Z</time>
      </trkpt>
      <trkpt lat="41.773544037714601" lon="-2.103914022445679">
        <ele>1047.4000000000001</ele>
        <time>2018-05-28T10:40:23Z</time>
      </trkpt>
      <trkpt lat="41.773701030761003" lon="-2.103351010009646">
        <ele>1047.5</ele>
        <time>2018-05-28T10:40:36Z</time>
      </trkpt>
      <trkpt lat="41.773919966071844" lon="-2.102963011711836">
        <ele>1048.0999999999999</ele>
        <time>2018-05-28T10:40:47Z</time>
      </trkpt>
      <trkpt lat="41.774216014891863" lon="-2.102561015635729">
        <ele>1049.2</ele>
        <time>2018-05-28T10:40:59Z</time>
      </trkpt>
      <trkpt lat="41.774398991838098" lon="-2.102151978760958">
        <ele>1049.9000000000001</ele>
        <time>2018-05-28T10:41:10Z</time>
      </trkpt>
      <trkpt lat="41.774553973227739" lon="-2.10170203819871">
        <ele>1050</ele>
        <time>2018-05-28T10:41:21Z</time>
      </trkpt>
      <trkpt lat="41.77472798153758" lon="-2.101383022964001">
        <ele>1049.8</ele>
        <time>2018-05-28T10:41:29Z</time>
      </trkpt>
      <trkpt lat="41.774730999022722" lon="-2.101383022964001">
        <ele>1049.8</ele>
        <time>2018-05-28T10:41:29Z</time>
      </trkpt>
      <trkpt lat="41.774738039821386" lon="-2.101373970508575">
        <ele>1049.8</ele>
        <time>2018-05-28T10:41:30Z</time>
      </trkpt>
      <trkpt lat="41.774743990972638" lon="-2.101343041285873">
        <ele>1049.8</ele>
        <time>2018-05-28T10:41:30Z</time>
      </trkpt>
      <trkpt lat="41.774742985144258" lon="-2.101343041285873">
        <ele>1049.8</ele>
        <time>2018-05-28T10:41:30Z</time>
      </trkpt>
      <trkpt lat="41.77474801428616" lon="-2.101352009922266">
        <ele>1049.8</ele>
        <time>2018-05-28T10:41:31Z</time>
      </trkpt>
      <trkpt lat="41.774738039821386" lon="-2.101386040449143">
        <ele>1049.8</ele>
        <time>2018-05-28T10:41:31Z</time>
      </trkpt>
      <trkpt lat="41.774720018729568" lon="-2.101375982165337">
        <ele>1049.8</ele>
        <time>2018-05-28T10:41:32Z</time>
      </trkpt>
      <trkpt lat="41.77470501512289" lon="-2.101359972730279">
        <ele>1049.8</ele>
        <time>2018-05-28T10:41:33Z</time>
      </trkpt>
      <trkpt lat="41.774720018729568" lon="-2.101376987993717">
        <ele>1049.8</ele>
        <time>2018-05-28T10:41:33Z</time>
      </trkpt>
      <trkpt lat="41.774730999022722" lon="-2.101383022964001">
        <ele>1049.8</ele>
        <time>2018-05-28T10:41:34Z</time>
      </trkpt>
      <trkpt lat="41.774741979315877" lon="-2.101374976336956">
        <ele>1049.8</ele>
        <time>2018-05-28T10:41:34Z</time>
      </trkpt>
      <trkpt lat="41.774744996801019" lon="-2.101359972730279">
        <ele>1049.8</ele>
        <time>2018-05-28T10:41:34Z</time>
      </trkpt>
      <trkpt lat="41.774751031771302" lon="-2.101357039064169">
        <ele>1049.8</ele>
        <time>2018-05-28T10:41:34Z</time>
      </trkpt>
      <trkpt lat="41.774735022336245" lon="-2.101366007700563">
        <ele>1049.8</ele>
        <time>2018-05-28T10:41:35Z</time>
      </trkpt>
      <trkpt lat="41.774723958224058" lon="-2.101372964680195">
        <ele>1049.8</ele>
        <time>2018-05-28T10:41:35Z</time>
      </trkpt>
      <trkpt lat="41.774722030386329" lon="-2.101372964680195">
        <ele>1049.8</ele>
        <time>2018-05-28T10:41:35Z</time>
      </trkpt>
      <trkpt lat="41.77472798153758" lon="-2.101371036842465">
        <ele>1049.8</ele>
        <time>2018-05-28T10:41:36Z</time>
      </trkpt>
      <trkpt lat="41.774723958224058" lon="-2.101366007700563">
        <ele>1049.8</ele>
        <time>2018-05-28T10:41:36Z</time>
      </trkpt>
      <trkpt lat="41.774738039821386" lon="-2.101368019357324">
        <ele>1049.8</ele>
        <time>2018-05-28T10:41:36Z</time>
      </trkpt>
      <trkpt lat="41.774749020114541" lon="-2.101365001872182">
        <ele>1049.8</ele>
        <time>2018-05-28T10:41:36Z</time>
      </trkpt>
      <trkpt lat="41.774758994579315" lon="-2.101345974951983">
        <ele>1049.8</ele>
        <time>2018-05-28T10:41:37Z</time>
      </trkpt>
      <trkpt lat="41.774761006236076" lon="-2.101371958851814">
        <ele>1049.8</ele>
        <time>2018-05-28T10:41:38Z</time>
      </trkpt>
      <trkpt lat="41.774753965437412" lon="-2.101383022964001">
        <ele>1049.8</ele>
        <time>2018-05-28T10:41:38Z</time>
      </trkpt>
      <trkpt lat="41.774761006236076" lon="-2.101357039064169">
        <ele>1049.8</ele>
        <time>2018-05-28T10:41:38Z</time>
      </trkpt>
      <trkpt lat="41.774752037599683" lon="-2.101343963295221">
        <ele>1049.8</ele>
        <time>2018-05-28T10:41:39Z</time>
      </trkpt>
      <trkpt lat="41.774743990972638" lon="-2.101357039064169">
        <ele>1049.8</ele>
        <time>2018-05-28T10:41:39Z</time>
      </trkpt>
      <trkpt lat="41.774739967659116" lon="-2.101355027407408">
        <ele>1049.8</ele>
        <time>2018-05-28T10:41:39Z</time>
      </trkpt>
      <trkpt lat="41.774741979315877" lon="-2.101343963295221">
        <ele>1049.8</ele>
        <time>2018-05-28T10:41:40Z</time>
      </trkpt>
      <trkpt lat="41.774753965437412" lon="-2.101366007700563">
        <ele>1049.8</ele>
        <time>2018-05-28T10:41:40Z</time>
      </trkpt>
      <trkpt lat="41.774749020114541" lon="-2.101358966901898">
        <ele>1049.8</ele>
        <time>2018-05-28T10:41:40Z</time>
      </trkpt>
      <trkpt lat="41.774743990972638" lon="-2.101371958851814">
        <ele>1049.8</ele>
        <time>2018-05-28T10:41:41Z</time>
      </trkpt>
      <trkpt lat="41.774723958224058" lon="-2.101358966901898">
        <ele>1049.8</ele>
        <time>2018-05-28T10:41:41Z</time>
      </trkpt>
      <trkpt lat="41.774608958512545" lon="-2.101394003257155">
        <ele>1050</ele>
        <time>2018-05-28T10:41:45Z</time>
      </trkpt>
      <trkpt lat="41.774396980181336" lon="-2.101224018260837">
        <ele>1050</ele>
        <time>2018-05-28T10:41:52Z</time>
      </trkpt>
      <trkpt lat="41.774294972419739" lon="-2.101223012432456">
        <ele>1050</ele>
        <time>2018-05-28T10:41:55Z</time>
      </trkpt>
      <trkpt lat="41.774272006005049" lon="-2.101255031302571">
        <ele>1050</ele>
        <time>2018-05-28T10:41:56Z</time>
      </trkpt>
      <trkpt lat="41.774191958829761" lon="-2.101372964680195">
        <ele>1050</ele>
        <time>2018-05-28T10:42:00Z</time>
      </trkpt>
      <trkpt lat="41.774073019623756" lon="-2.101545967161655">
        <ele>1050</ele>
        <time>2018-05-28T10:42:05Z</time>
      </trkpt>
      <trkpt lat="41.774163963273168" lon="-2.101419987156987">
        <ele>1050</ele>
        <time>2018-05-28T10:42:09Z</time>
      </trkpt>
      <trkpt lat="41.77464097738266" lon="-2.100889999419451">
        <ele>1050</ele>
        <time>2018-05-28T10:42:27Z</time>
      </trkpt>
      <trkpt lat="41.775040961802006" lon="-2.100407034158707">
        <ele>1050</ele>
        <time>2018-05-28T10:42:43Z</time>
      </trkpt>
      <trkpt lat="41.775212958455086" lon="-2.100108973681927">
        <ele>1050.7</ele>
        <time>2018-05-28T10:42:51Z</time>
      </trkpt>
      <trkpt lat="41.775485035032034" lon="-2.099689040333033">
        <ele>1051.8</ele>
        <time>2018-05-28T10:43:04Z</time>
      </trkpt>
      <trkpt lat="41.775975041091442" lon="-2.098986972123385">
        <ele>1054.8</ele>
        <time>2018-05-28T10:43:25Z</time>
      </trkpt>
      <trkpt lat="41.776092974469066" lon="-2.098768958821893">
        <ele>1055.7</ele>
        <time>2018-05-28T10:43:31Z</time>
      </trkpt>
      <trkpt lat="41.77614402025938" lon="-2.09869796410203">
        <ele>1056</ele>
        <time>2018-05-28T10:43:33Z</time>
      </trkpt>
      <trkpt lat="41.776503017172217" lon="-2.098278030753136">
        <ele>1058.4000000000001</ele>
        <time>2018-05-28T10:43:47Z</time>
      </trkpt>
      <trkpt lat="41.776771992444992" lon="-2.09807300940156">
        <ele>1060.5</ele>
        <time>2018-05-28T10:43:56Z</time>
      </trkpt>
      <trkpt lat="41.777052031829953" lon="-2.097848039120436">
        <ele>1063</ele>
        <time>2018-05-28T10:44:06Z</time>
      </trkpt>
      <trkpt lat="41.777314972132444" lon="-2.097571017220616">
        <ele>1064.2</ele>
        <time>2018-05-28T10:44:16Z</time>
      </trkpt>
      <trkpt lat="41.777461990714073" lon="-2.097368007525802">
        <ele>1065.0999999999999</ele>
        <time>2018-05-28T10:44:22Z</time>
      </trkpt>
      <trkpt lat="41.777930036187172" lon="-2.096771970391274">
        <ele>1068.2</ele>
        <time>2018-05-28T10:44:41Z</time>
      </trkpt>
      <trkpt lat="41.778002958744764" lon="-2.096670968458056">
        <ele>1068.7</ele>
        <time>2018-05-28T10:44:45Z</time>
      </trkpt>
      <trkpt lat="41.778232036158442" lon="-2.096248017624021">
        <ele>1071.0999999999999</ele>
        <time>2018-05-28T10:44:56Z</time>
      </trkpt>
      <trkpt lat="41.778309987857938" lon="-2.096025981009007">
        <ele>1072.2</ele>
        <time>2018-05-28T10:45:02Z</time>
      </trkpt>
      <trkpt lat="41.77850503474474" lon="-2.095527006313205">
        <ele>1075.0999999999999</ele>
        <time>2018-05-28T10:45:14Z</time>
      </trkpt>
      <trkpt lat="41.778601007536054" lon="-2.095241015776992">
        <ele>1076.9000000000001</ele>
        <time>2018-05-28T10:45:21Z</time>
      </trkpt>
      <trkpt lat="41.77893896587193" lon="-2.094770036637783">
        <ele>1081</ele>
        <time>2018-05-28T10:45:35Z</time>
      </trkpt>
      <trkpt lat="41.779038961976767" lon="-2.09461597725749">
        <ele>1082.2</ele>
        <time>2018-05-28T10:45:40Z</time>
      </trkpt>
      <trkpt lat="41.779198972508311" lon="-2.094325963407755">
        <ele>1084.5999999999999</ele>
        <time>2018-05-28T10:45:48Z</time>
      </trkpt>
      <trkpt lat="41.779387984424829" lon="-2.094253040850163">
        <ele>1086</ele>
        <time>2018-05-28T10:45:54Z</time>
      </trkpt>
      <trkpt lat="41.779670035466552" lon="-2.094286987558007">
        <ele>1087.5999999999999</ele>
        <time>2018-05-28T10:46:02Z</time>
      </trkpt>
      <trkpt lat="41.779931969940662" lon="-2.094295034185052">
        <ele>1089.9000000000001</ele>
        <time>2018-05-28T10:46:10Z</time>
      </trkpt>
      <trkpt lat="41.780106984078884" lon="-2.094282964244485">
        <ele>1091.5999999999999</ele>
        <time>2018-05-28T10:46:15Z</time>
      </trkpt>
      <trkpt lat="41.7802460398525" lon="-2.094197971746326">
        <ele>1093.3</ele>
        <time>2018-05-28T10:46:20Z</time>
      </trkpt>
      <trkpt lat="41.780317034572363" lon="-2.094095963984728">
        <ele>1094.5</ele>
        <time>2018-05-28T10:46:23Z</time>
      </trkpt>
      <trkpt lat="41.780490959063172" lon="-2.093756999820471">
        <ele>1097.8</ele>
        <time>2018-05-28T10:46:32Z</time>
      </trkpt>
      <trkpt lat="41.780682988464832" lon="-2.093465980142355">
        <ele>1101.0999999999999</ele>
        <time>2018-05-28T10:46:41Z</time>
      </trkpt>
      <trkpt lat="41.780744008719921" lon="-2.093405965715647">
        <ele>1102</ele>
        <time>2018-05-28T10:46:43Z</time>
      </trkpt>
      <trkpt lat="41.780947018414736" lon="-2.093201028183103">
        <ele>1104.9000000000001</ele>
        <time>2018-05-28T10:46:50Z</time>
      </trkpt>
      <trkpt lat="41.7811060231179" lon="-2.09304797463119">
        <ele>1107.0999999999999</ele>
        <time>2018-05-28T10:46:56Z</time>
      </trkpt>
      <trkpt lat="41.781411040574312" lon="-2.092815963551402">
        <ele>1111.9000000000001</ele>
        <time>2018-05-28T10:47:07Z</time>
      </trkpt>
      <trkpt lat="41.781583037227392" lon="-2.092641033232212">
        <ele>1115.0999999999999</ele>
        <time>2018-05-28T10:47:13Z</time>
      </trkpt>
      <trkpt lat="41.78173097781837" lon="-2.092485968023539">
        <ele>1118</ele>
        <time>2018-05-28T10:47:19Z</time>
      </trkpt>
      <trkpt lat="41.781885959208012" lon="-2.09237901493907">
        <ele>1120.9000000000001</ele>
        <time>2018-05-28T10:47:24Z</time>
      </trkpt>
      <trkpt lat="41.782164992764592" lon="-2.092265021055937">
        <ele>1126.5</ele>
        <time>2018-05-28T10:47:33Z</time>
      </trkpt>
      <trkpt lat="41.782313017174602" lon="-2.092149015516043">
        <ele>1129.8</ele>
        <time>2018-05-28T10:47:38Z</time>
      </trkpt>
      <trkpt lat="41.782500017434359" lon="-2.092023035511375">
        <ele>1134</ele>
        <time>2018-05-28T10:47:44Z</time>
      </trkpt>
      <trkpt lat="41.78265399299562" lon="-2.091894960030913">
        <ele>1137.3</ele>
        <time>2018-05-28T10:47:50Z</time>
      </trkpt>
      <trkpt lat="41.782731022685766" lon="-2.091840980574489">
        <ele>1138.9000000000001</ele>
        <time>2018-05-28T10:47:52Z</time>
      </trkpt>
      <trkpt lat="41.782772010192275" lon="-2.091817008331418">
        <ele>1139.8</ele>
        <time>2018-05-28T10:47:54Z</time>
      </trkpt>
      <trkpt lat="41.782811991870403" lon="-2.091790018603206">
        <ele>1140.7</ele>
        <time>2018-05-28T10:47:55Z</time>
      </trkpt>
      <trkpt lat="41.782994968816638" lon="-2.091633025556803">
        <ele>1144.5999999999999</ele>
        <time>2018-05-28T10:48:02Z</time>
      </trkpt>
      <trkpt lat="41.78319102153182" lon="-2.09139104001224">
        <ele>1148.7</ele>
        <time>2018-05-28T10:48:10Z</time>
      </trkpt>
      <trkpt lat="41.783247012645006" lon="-2.091275034472346">
        <ele>1149.8</ele>
        <time>2018-05-28T10:48:13Z</time>
      </trkpt>
      <trkpt lat="41.783280037343502" lon="-2.091216025874019">
        <ele>1150.3</ele>
        <time>2018-05-28T10:48:14Z</time>
      </trkpt>
      <trkpt lat="41.783407023176551" lon="-2.091013016179204">
        <ele>1152.3</ele>
        <time>2018-05-28T10:48:20Z</time>
      </trkpt>
      <trkpt lat="41.78344801068306" lon="-2.090977979823947">
        <ele>1153.0999999999999</ele>
        <time>2018-05-28T10:48:22Z</time>
      </trkpt>
      <trkpt lat="41.783597962930799" lon="-2.090840013697743">
        <ele>1155.8</ele>
        <time>2018-05-28T10:48:27Z</time>
      </trkpt>
      <trkpt lat="41.78377297706902" lon="-2.090718979015946">
        <ele>1159.2</ele>
        <time>2018-05-28T10:48:33Z</time>
      </trkpt>
      <trkpt lat="41.784034995362163" lon="-2.09061898291111">
        <ele>1164.2</ele>
        <time>2018-05-28T10:48:41Z</time>
      </trkpt>
      <trkpt lat="41.784276980906725" lon="-2.090459978207946">
        <ele>1168.3</ele>
        <time>2018-05-28T10:48:49Z</time>
      </trkpt>
      <trkpt lat="41.784407990053296" lon="-2.090388983488083">
        <ele>1170.3</ele>
        <time>2018-05-28T10:48:53Z</time>
      </trkpt>
      <trkpt lat="41.784853991121054" lon="-2.090242970734835">
        <ele>1176.0999999999999</ele>
        <time>2018-05-28T10:49:07Z</time>
      </trkpt>
      <trkpt lat="41.785248024389148" lon="-2.090245988219976">
        <ele>1182.4000000000001</ele>
        <time>2018-05-28T10:49:19Z</time>
      </trkpt>
      <trkpt lat="41.785401999950409" lon="-2.090245988219976">
        <ele>1184.9000000000001</ele>
        <time>2018-05-28T10:49:23Z</time>
      </trkpt>
      <trkpt lat="41.785610038787127" lon="-2.090315977111459">
        <ele>1188.0999999999999</ele>
        <time>2018-05-28T10:49:30Z</time>
      </trkpt>
      <trkpt lat="41.785721015185118" lon="-2.090411027893424">
        <ele>1190.5</ele>
        <time>2018-05-28T10:49:34Z</time>
      </trkpt>
      <trkpt lat="41.785772982984781" lon="-2.090444974601269">
        <ele>1191.2</ele>
        <time>2018-05-28T10:49:36Z</time>
      </trkpt>
      <trkpt lat="41.786001976579428" lon="-2.090515969321132">
        <ele>1193.8</ele>
        <time>2018-05-28T10:49:43Z</time>
      </trkpt>
      <trkpt lat="41.786205992102623" lon="-2.090511023998261">
        <ele>1195.5</ele>
        <time>2018-05-28T10:49:49Z</time>
      </trkpt>
      <trkpt lat="41.786500029265881" lon="-2.090402981266379">
        <ele>1197.5999999999999</ele>
        <time>2018-05-28T10:49:58Z</time>
      </trkpt>
      <trkpt lat="41.786513021215796" lon="-2.09016895852983">
        <ele>1195.7</ele>
        <time>2018-05-28T10:50:03Z</time>
      </trkpt>
      <trkpt lat="41.786486031487584" lon="-2.090066028758884">
        <ele>1194.5</ele>
        <time>2018-05-28T10:50:05Z</time>
      </trkpt>
      <trkpt lat="41.786431968212128" lon="-2.089823959395289">
        <ele>1191.5</ele>
        <time>2018-05-28T10:50:11Z</time>
      </trkpt>
      <trkpt lat="41.786383017897606" lon="-2.089727986603975">
        <ele>1189.8</ele>
        <time>2018-05-28T10:50:14Z</time>
      </trkpt>
      <trkpt lat="41.786300037056208" lon="-2.089449036866427">
        <ele>1187.5999999999999</ele>
        <time>2018-05-28T10:50:20Z</time>
      </trkpt>
      <trkpt lat="41.786282015964389" lon="-2.089225994423032">
        <ele>1188.3</ele>
        <time>2018-05-28T10:50:25Z</time>
      </trkpt>
      <trkpt lat="41.786261983215809" lon="-2.089085010811687">
        <ele>1188.5999999999999</ele>
        <time>2018-05-28T10:50:28Z</time>
      </trkpt>
      <trkpt lat="41.786202974617481" lon="-2.088844031095505">
        <ele>1188.5</ele>
        <time>2018-05-28T10:50:34Z</time>
      </trkpt>
      <trkpt lat="41.786185959354043" lon="-2.088744034990668">
        <ele>1188.5</ele>
        <time>2018-05-28T10:50:36Z</time>
      </trkpt>
      <trkpt lat="41.786171961575747" lon="-2.088629035279155">
        <ele>1189.0999999999999</ele>
        <time>2018-05-28T10:50:39Z</time>
      </trkpt>
      <trkpt lat="41.786185959354043" lon="-2.088370034471154">
        <ele>1191.7</ele>
        <time>2018-05-28T10:50:45Z</time>
      </trkpt>
      <trkpt lat="41.786213032901287" lon="-2.088262997567654">
        <ele>1193.2</ele>
        <time>2018-05-28T10:50:47Z</time>
      </trkpt>
      <trkpt lat="41.786254020407796" lon="-2.08808396011591">
        <ele>1195.7</ele>
        <time>2018-05-28T10:50:51Z</time>
      </trkpt>
      <trkpt lat="41.786358039826155" lon="-2.087871981784701">
        <ele>1199.3</ele>
        <time>2018-05-28T10:50:57Z</time>
      </trkpt>
      <trkpt lat="41.786201968789101" lon="-2.087367977946997">
        <ele>1201.2</ele>
        <time>2018-05-28T10:51:09Z</time>
      </trkpt>
      <trkpt lat="41.78619802929461" lon="-2.086915019899607">
        <ele>1205.0999999999999</ele>
        <time>2018-05-28T10:51:19Z</time>
      </trkpt>
      <trkpt lat="41.786261983215809" lon="-2.086613019928336">
        <ele>1208.5</ele>
        <time>2018-05-28T10:51:26Z</time>
      </trkpt>
      <trkpt lat="41.786212027072906" lon="-2.086361981928349">
        <ele>1209.5</ele>
        <time>2018-05-28T10:51:32Z</time>
      </trkpt>
      <trkpt lat="41.786163998767734" lon="-2.086160983890295">
        <ele>1209.9000000000001</ele>
        <time>2018-05-28T10:51:36Z</time>
      </trkpt>
      <trkpt lat="41.7860690318048" lon="-2.085923021659255">
        <ele>1209.7</ele>
        <time>2018-05-28T10:51:42Z</time>
      </trkpt>
      <trkpt lat="41.785998959094286" lon="-2.085710037499666">
        <ele>1210</ele>
        <time>2018-05-28T10:51:48Z</time>
      </trkpt>
      <trkpt lat="41.785751022398472" lon="-2.085474003106356">
        <ele>1208.5</ele>
        <time>2018-05-28T10:51:57Z</time>
      </trkpt>
      <trkpt lat="41.785550024360418" lon="-2.085237968713045">
        <ele>1208.5</ele>
        <time>2018-05-28T10:52:05Z</time>
      </trkpt>
      <trkpt lat="41.785223968327045" lon="-2.084921970963478">
        <ele>1207.7</ele>
        <time>2018-05-28T10:52:16Z</time>
      </trkpt>
      <trkpt lat="41.785096982493997" lon="-2.084734970703721">
        <ele>1208</ele>
        <time>2018-05-28T10:52:22Z</time>
      </trkpt>
      <trkpt lat="41.784786013886333" lon="-2.08438603207469">
        <ele>1207.0999999999999</ele>
        <time>2018-05-28T10:52:34Z</time>
      </trkpt>
      <trkpt lat="41.784571018069983" lon="-2.084055030718446">
        <ele>1207.5</ele>
        <time>2018-05-28T10:52:44Z</time>
      </trkpt>
      <trkpt lat="41.784484013915062" lon="-2.083898037672043">
        <ele>1207.9000000000001</ele>
        <time>2018-05-28T10:52:48Z</time>
      </trkpt>
      <trkpt lat="41.784301036968827" lon="-2.083497969433665">
        <ele>1210.9000000000001</ele>
        <time>2018-05-28T10:52:58Z</time>
      </trkpt>
      <trkpt lat="41.784233981743455" lon="-2.08346301689744">
        <ele>1210.8</ele>
        <time>2018-05-28T10:53:01Z</time>
      </trkpt>
      <trkpt lat="41.784217972308397" lon="-2.083473997190595">
        <ele>1210.5</ele>
        <time>2018-05-28T10:53:01Z</time>
      </trkpt>
      <trkpt lat="41.784211015328765" lon="-2.083480032160878">
        <ele>1210.3</ele>
        <time>2018-05-28T10:53:01Z</time>
      </trkpt>
      <trkpt lat="41.784215960651636" lon="-2.08348598331213">
        <ele>1210.3</ele>
        <time>2018-05-28T10:53:02Z</time>
      </trkpt>
      <trkpt lat="41.784212021157146" lon="-2.083476008847356">
        <ele>1210.4000000000001</ele>
        <time>2018-05-28T10:53:02Z</time>
      </trkpt>
      <trkpt lat="41.784211015328765" lon="-2.083477014675736">
        <ele>1210.3</ele>
        <time>2018-05-28T10:53:02Z</time>
      </trkpt>
      <trkpt lat="41.784212021157146" lon="-2.083477014675736">
        <ele>1210.4000000000001</ele>
        <time>2018-05-28T10:53:02Z</time>
      </trkpt>
      <trkpt lat="41.784214032813907" lon="-2.083479026332498">
        <ele>1210.3</ele>
        <time>2018-05-28T10:53:02Z</time>
      </trkpt>
      <trkpt lat="41.784213026985526" lon="-2.083473997190595">
        <ele>1210.4000000000001</ele>
        <time>2018-05-28T10:53:02Z</time>
      </trkpt>
      <trkpt lat="41.784215038642287" lon="-2.083477014675736">
        <ele>1210.4000000000001</ele>
        <time>2018-05-28T10:53:02Z</time>
      </trkpt>
      <trkpt lat="41.784217972308397" lon="-2.083475003018975">
        <ele>1210.5</ele>
        <time>2018-05-28T10:53:02Z</time>
      </trkpt>
      <trkpt lat="41.784220989793539" lon="-2.083477014675736">
        <ele>1210.4000000000001</ele>
        <time>2018-05-28T10:53:02Z</time>
      </trkpt>
      <trkpt lat="41.784226018935442" lon="-2.083476008847356">
        <ele>1210.5</ele>
        <time>2018-05-28T10:53:03Z</time>
      </trkpt>
      <trkpt lat="41.784224007278681" lon="-2.083470979705453">
        <ele>1210.5999999999999</ele>
        <time>2018-05-28T10:53:03Z</time>
      </trkpt>
      <trkpt lat="41.784229958429933" lon="-2.083473997190595">
        <ele>1210.5999999999999</ele>
        <time>2018-05-28T10:53:03Z</time>
      </trkpt>
      <trkpt lat="41.784226018935442" lon="-2.083477014675736">
        <ele>1210.5</ele>
        <time>2018-05-28T10:53:03Z</time>
      </trkpt>
      <trkpt lat="41.784228030592203" lon="-2.083467040210962">
        <ele>1210.7</ele>
        <time>2018-05-28T10:53:03Z</time>
      </trkpt>
      <trkpt lat="41.784235993400216" lon="-2.083466034382582">
        <ele>1210.8</ele>
        <time>2018-05-28T10:53:03Z</time>
      </trkpt>
      <trkpt lat="41.784246973693371" lon="-2.083466034382582">
        <ele>1210.9000000000001</ele>
        <time>2018-05-28T10:53:04Z</time>
      </trkpt>
      <trkpt lat="41.784247979521751" lon="-2.08346301689744">
        <ele>1210.9000000000001</ele>
        <time>2018-05-28T10:53:04Z</time>
      </trkpt>
      <trkpt lat="41.784290978685021" lon="-2.083365032449365">
        <ele>1212.8</ele>
        <time>2018-05-28T10:53:06Z</time>
      </trkpt>
      <trkpt lat="41.784297013655305" lon="-2.082932023331523">
        <ele>1219.0999999999999</ele>
        <time>2018-05-28T10:53:16Z</time>
      </trkpt>
      <trkpt lat="41.784332972019911" lon="-2.082546036690474">
        <ele>1219.8</ele>
        <time>2018-05-28T10:53:25Z</time>
      </trkpt>
      <trkpt lat="41.784378988668323" lon="-2.082169018685818">
        <ele>1219.9000000000001</ele>
        <time>2018-05-28T10:53:33Z</time>
      </trkpt>
      <trkpt lat="41.784400027245283" lon="-2.081913035362959">
        <ele>1219.2</ele>
        <time>2018-05-28T10:53:39Z</time>
      </trkpt>
      <trkpt lat="41.784434979781508" lon="-2.081575999036431">
        <ele>1217.5</ele>
        <time>2018-05-28T10:53:46Z</time>
      </trkpt>
      <trkpt lat="41.784499017521739" lon="-2.081240974366665">
        <ele>1215.5999999999999</ele>
        <time>2018-05-28T10:53:54Z</time>
      </trkpt>
      <trkpt lat="41.784547967836261" lon="-2.080878037959337">
        <ele>1213.5</ele>
        <time>2018-05-28T10:54:02Z</time>
      </trkpt>
      <trkpt lat="41.784585015848279" lon="-2.080488028004766">
        <ele>1211.3</ele>
        <time>2018-05-28T10:54:11Z</time>
      </trkpt>
      <trkpt lat="41.784604964777827" lon="-2.080304967239499">
        <ele>1209.8</ele>
        <time>2018-05-28T10:54:15Z</time>
      </trkpt>
      <trkpt lat="41.784607982262969" lon="-2.08024000748992">
        <ele>1209.3</ele>
        <time>2018-05-28T10:54:16Z</time>
      </trkpt>
      <trkpt lat="41.784620974212885" lon="-2.080129031091929">
        <ele>1208.3</ele>
        <time>2018-05-28T10:54:19Z</time>
      </trkpt>
      <trkpt lat="41.784743014723063" lon="-2.080043032765389">
        <ele>1205.7</ele>
        <time>2018-05-28T10:54:23Z</time>
      </trkpt>
      <trkpt lat="41.784912999719381" lon="-2.080015037208796">
        <ele>1202.8</ele>
        <time>2018-05-28T10:54:28Z</time>
      </trkpt>
      <trkpt lat="41.785012995824218" lon="-2.079993998631835">
        <ele>1201</ele>
        <time>2018-05-28T10:54:31Z</time>
      </trkpt>
      <trkpt lat="41.785035962238908" lon="-2.079996010288596">
        <ele>1200.5999999999999</ele>
        <time>2018-05-28T10:54:32Z</time>
      </trkpt>
      <trkpt lat="41.785075021907687" lon="-2.079987963661552">
        <ele>1200</ele>
        <time>2018-05-28T10:54:33Z</time>
      </trkpt>
      <trkpt lat="41.785084996372461" lon="-2.079987041652203">
        <ele>1199.8</ele>
        <time>2018-05-28T10:54:33Z</time>
      </trkpt>
      <trkpt lat="41.785291023552418" lon="-2.079935995861888">
        <ele>1196.0999999999999</ele>
        <time>2018-05-28T10:54:40Z</time>
      </trkpt>
      <trkpt lat="41.785481041297317" lon="-2.079868018627167">
        <ele>1192.5999999999999</ele>
        <time>2018-05-28T10:54:46Z</time>
      </trkpt>
      <trkpt lat="41.785644991323352" lon="-2.079812027513981">
        <ele>1189.5999999999999</ele>
        <time>2018-05-28T10:54:51Z</time>
      </trkpt>
      <trkpt lat="41.785783963277936" lon="-2.079713959246874">
        <ele>1187.0999999999999</ele>
        <time>2018-05-28T10:54:55Z</time>
      </trkpt>
      <trkpt lat="41.785870967432857" lon="-2.079539028927684">
        <ele>1184.9000000000001</ele>
        <time>2018-05-28T10:55:00Z</time>
      </trkpt>
      <trkpt lat="41.785909021273255" lon="-2.079440960660577">
        <ele>1183.0999999999999</ele>
        <time>2018-05-28T10:55:03Z</time>
      </trkpt>
      <trkpt lat="41.78602603264153" lon="-2.079310035333037">
        <ele>1180.3</ele>
        <time>2018-05-28T10:55:07Z</time>
      </trkpt>
      <trkpt lat="41.786217978224158" lon="-2.079276004806161">
        <ele>1178.0999999999999</ele>
        <time>2018-05-28T10:55:13Z</time>
      </trkpt>
      <trkpt lat="41.786405984312296" lon="-2.079179026186466">
        <ele>1174.2</ele>
        <time>2018-05-28T10:55:19Z</time>
      </trkpt>
      <trkpt lat="41.786502962931991" lon="-2.0791030023247">
        <ele>1172</ele>
        <time>2018-05-28T10:55:22Z</time>
      </trkpt>
      <trkpt lat="41.786605976521969" lon="-2.079050028696656">
        <ele>1169.8</ele>
        <time>2018-05-28T10:55:26Z</time>
      </trkpt>
      <trkpt lat="41.786766992881894" lon="-2.078965036198497">
        <ele>1166.7</ele>
        <time>2018-05-28T10:55:31Z</time>
      </trkpt>
      <trkpt lat="41.786842010915279" lon="-2.078940980136395">
        <ele>1165.3</ele>
        <time>2018-05-28T10:55:33Z</time>
      </trkpt>
      <trkpt lat="41.786935972049832" lon="-2.078905021771789">
        <ele>1163.5999999999999</ele>
        <time>2018-05-28T10:55:36Z</time>
      </trkpt>
      <trkpt lat="41.78695198148489" lon="-2.078903010115027">
        <ele>1163.4000000000001</ele>
        <time>2018-05-28T10:55:37Z</time>
      </trkpt>
      <trkpt lat="41.787111992016435" lon="-2.078822962939739">
        <ele>1160.8</ele>
        <time>2018-05-28T10:55:42Z</time>
      </trkpt>
      <trkpt lat="41.787148034200072" lon="-2.078736964613199">
        <ele>1160.3</ele>
        <time>2018-05-28T10:55:44Z</time>
      </trkpt>
      <trkpt lat="41.787161026149988" lon="-2.078677034005523">
        <ele>1159.9000000000001</ele>
        <time>2018-05-28T10:55:45Z</time>
      </trkpt>
      <trkpt lat="41.787204025313258" lon="-2.078448040410876">
        <ele>1158.3</ele>
        <time>2018-05-28T10:55:50Z</time>
      </trkpt>
      <trkpt lat="41.787221040576696" lon="-2.078357012942433">
        <ele>1157.7</ele>
        <time>2018-05-28T10:55:53Z</time>
      </trkpt>
      <trkpt lat="41.787223974242806" lon="-2.078335974365473">
        <ele>1157.5999999999999</ele>
        <time>2018-05-28T10:55:53Z</time>
      </trkpt>
      <trkpt lat="41.787307038903236" lon="-2.078089965507388">
        <ele>1155.5</ele>
        <time>2018-05-28T10:55:59Z</time>
      </trkpt>
      <trkpt lat="41.787313995882869" lon="-2.078072028234601">
        <ele>1155.3</ele>
        <time>2018-05-28T10:55:59Z</time>
      </trkpt>
      <trkpt lat="41.787457996979356" lon="-2.077889973297715">
        <ele>1152.9000000000001</ele>
        <time>2018-05-28T10:56:05Z</time>
      </trkpt>
      <trkpt lat="41.787478029727936" lon="-2.077860971912742">
        <ele>1152.5</ele>
        <time>2018-05-28T10:56:06Z</time>
      </trkpt>
      <trkpt lat="41.787650026381016" lon="-2.077498035505414">
        <ele>1149.5999999999999</ele>
        <time>2018-05-28T10:56:16Z</time>
      </trkpt>
      <trkpt lat="41.787628987804055" lon="-2.077411031350493">
        <ele>1149.5</ele>
        <time>2018-05-28T10:56:18Z</time>
      </trkpt>
      <trkpt lat="41.787492027506232" lon="-2.076980033889413">
        <ele>1148.9000000000001</ele>
        <time>2018-05-28T10:56:28Z</time>
      </trkpt>
      <trkpt lat="41.7875109706074" lon="-2.076578037813306">
        <ele>1146.4000000000001</ele>
        <time>2018-05-28T10:56:37Z</time>
      </trkpt>
      <trkpt lat="41.787590011954308" lon="-2.076445017009974">
        <ele>1145.2</ele>
        <time>2018-05-28T10:56:41Z</time>
      </trkpt>
      <trkpt lat="41.787650026381016" lon="-2.076361030340195">
        <ele>1144.5</ele>
        <time>2018-05-28T10:56:43Z</time>
      </trkpt>
      <trkpt lat="41.7879409622401" lon="-2.075832970440388">
        <ele>1142.7</ele>
        <time>2018-05-28T10:56:58Z</time>
      </trkpt>
      <trkpt lat="41.788069037720561" lon="-2.075736997649074">
        <ele>1143.7</ele>
        <time>2018-05-28T10:57:02Z</time>
      </trkpt>
      <trkpt lat="41.788333989679813" lon="-2.075615040957928">
        <ele>1145.3</ele>
        <time>2018-05-28T10:57:11Z</time>
      </trkpt>
      <trkpt lat="41.788389980792999" lon="-2.075590984895825">
        <ele>1145.5999999999999</ele>
        <time>2018-05-28T10:57:12Z</time>
      </trkpt>
      <trkpt lat="41.788707990199327" lon="-2.075408007949591">
        <ele>1146.8</ele>
        <time>2018-05-28T10:57:23Z</time>
      </trkpt>
      <trkpt lat="41.788921980187297" lon="-2.075293008238077">
        <ele>1148.4000000000001</ele>
        <time>2018-05-28T10:57:29Z</time>
      </trkpt>
      <trkpt lat="41.789201013743877" lon="-2.074650032445788">
        <ele>1151</ele>
        <time>2018-05-28T10:57:46Z</time>
      </trkpt>
      <trkpt lat="41.789292963221669" lon="-2.074378039687872">
        <ele>1152.0999999999999</ele>
        <time>2018-05-28T10:57:53Z</time>
      </trkpt>
      <trkpt lat="41.789378961548209" lon="-2.074240995571017">
        <ele>1152.5999999999999</ele>
        <time>2018-05-28T10:57:56Z</time>
      </trkpt>
      <trkpt lat="41.789413997903466" lon="-2.074157008901238">
        <ele>1152.9000000000001</ele>
        <time>2018-05-28T10:57:59Z</time>
      </trkpt>
      <trkpt lat="41.789522040635347" lon="-2.073929021134973">
        <ele>1153.5999999999999</ele>
        <time>2018-05-28T10:58:05Z</time>
      </trkpt>
      <trkpt lat="41.789652965962887" lon="-2.073630038648844">
        <ele>1155</ele>
        <time>2018-05-28T10:58:12Z</time>
      </trkpt>
      <trkpt lat="41.789856981486082" lon="-2.072997037321329">
        <ele>1157.5999999999999</ele>
        <time>2018-05-28T10:58:27Z</time>
      </trkpt>
      <trkpt lat="41.789964018389583" lon="-2.072753040120006">
        <ele>1157.7</ele>
        <time>2018-05-28T10:58:34Z</time>
      </trkpt>
      <trkpt lat="41.790166022256017" lon="-2.072566039860249">
        <ele>1158.2</ele>
        <time>2018-05-28T10:58:41Z</time>
      </trkpt>
      <trkpt lat="41.790382023900747" lon="-2.072146022692323">
        <ele>1158</ele>
        <time>2018-05-28T10:58:52Z</time>
      </trkpt>
      <trkpt lat="41.790575981140137" lon="-2.071775961667299">
        <ele>1158.3</ele>
        <time>2018-05-28T10:59:02Z</time>
      </trkpt>
      <trkpt lat="41.790684023872018" lon="-2.071481002494693">
        <ele>1157.9000000000001</ele>
        <time>2018-05-28T10:59:10Z</time>
      </trkpt>
      <trkpt lat="41.790802963078022" lon="-2.07130397669971">
        <ele>1157.5999999999999</ele>
        <time>2018-05-28T10:59:15Z</time>
      </trkpt>
      <trkpt lat="41.791018964722753" lon="-2.071199035272002">
        <ele>1158.0999999999999</ele>
        <time>2018-05-28T10:59:22Z</time>
      </trkpt>
      <trkpt lat="41.79128902964294" lon="-2.071214960888028">
        <ele>1158.7</ele>
        <time>2018-05-28T10:59:30Z</time>
      </trkpt>
      <trkpt lat="41.791366981342435" lon="-2.071256032213569">
        <ele>1158.3</ele>
        <time>2018-05-28T10:59:32Z</time>
      </trkpt>
      <trkpt lat="41.791481981053948" lon="-2.071387963369489">
        <ele>1158.8</ele>
        <time>2018-05-28T10:59:37Z</time>
      </trkpt>
      <trkpt lat="41.791553981602192" lon="-2.071476979181171">
        <ele>1159.2</ele>
        <time>2018-05-28T10:59:39Z</time>
      </trkpt>
      <trkpt lat="41.79176202043891" lon="-2.071501035243273">
        <ele>1158.5</ele>
        <time>2018-05-28T10:59:46Z</time>
      </trkpt>
      <trkpt lat="41.79202102124691" lon="-2.071372959762812">
        <ele>1155.8</ele>
        <time>2018-05-28T10:59:54Z</time>
      </trkpt>
      <trkpt lat="41.792312962934375" lon="-2.071300037205219">
        <ele>1153.2</ele>
        <time>2018-05-28T11:00:03Z</time>
      </trkpt>
      <trkpt lat="41.792437015101314" lon="-2.071232981979847">
        <ele>1151.8</ele>
        <time>2018-05-28T11:00:07Z</time>
      </trkpt>
      <trkpt lat="41.792591996490955" lon="-2.071227030828595">
        <ele>1150.8</ele>
        <time>2018-05-28T11:00:11Z</time>
      </trkpt>
      <trkpt lat="41.792772961780429" lon="-2.071300037205219">
        <ele>1150.4000000000001</ele>
        <time>2018-05-28T11:00:17Z</time>
      </trkpt>
      <trkpt lat="41.792818978428841" lon="-2.071345970034599">
        <ele>1150.5999999999999</ele>
        <time>2018-05-28T11:00:19Z</time>
      </trkpt>
      <trkpt lat="41.793077979236841" lon="-2.071483014151454">
        <ele>1150.4000000000001</ele>
        <time>2018-05-28T11:00:27Z</time>
      </trkpt>
      <trkpt lat="41.793321976438165" lon="-2.071372037753463">
        <ele>1147.7</ele>
        <time>2018-05-28T11:00:34Z</time>
      </trkpt>
      <trkpt lat="41.793514005839825" lon="-2.071160981431603">
        <ele>1144.4000000000001</ele>
        <time>2018-05-28T11:00:42Z</time>
      </trkpt>
      <trkpt lat="41.793606961145997" lon="-2.071072971448302">
        <ele>1142.8</ele>
        <time>2018-05-28T11:00:45Z</time>
      </trkpt>
      <trkpt lat="41.793832015246153" lon="-2.070968030020595">
        <ele>1140.3</ele>
        <time>2018-05-28T11:00:52Z</time>
      </trkpt>
      <trkpt lat="41.79406201466918" lon="-2.070864010602236">
        <ele>1138</ele>
        <time>2018-05-28T11:01:00Z</time>
      </trkpt>
      <trkpt lat="41.79427701048553" lon="-2.070734007284045">
        <ele>1135.7</ele>
        <time>2018-05-28T11:01:07Z</time>
      </trkpt>
      <trkpt lat="41.79446903988719" lon="-2.070662006735802">
        <ele>1134.0999999999999</ele>
        <time>2018-05-28T11:01:13Z</time>
      </trkpt>
      <trkpt lat="41.794555960223079" lon="-2.070616995915771">
        <ele>1133.3</ele>
        <time>2018-05-28T11:01:15Z</time>
      </trkpt>
      <trkpt lat="41.794782020151615" lon="-2.070403005927801">
        <ele>1129.9000000000001</ele>
        <time>2018-05-28T11:01:24Z</time>
      </trkpt>
      <trkpt lat="41.795006990432739" lon="-2.07025196403265">
        <ele>1127.5</ele>
        <time>2018-05-28T11:01:31Z</time>
      </trkpt>
      <trkpt lat="41.795242018997669" lon="-2.070062030106783">
        <ele>1124.3</ele>
        <time>2018-05-28T11:01:39Z</time>
      </trkpt>
      <trkpt lat="41.795495990663767" lon="-2.069891961291432">
        <ele>1121.0999999999999</ele>
        <time>2018-05-28T11:01:48Z</time>
      </trkpt>
      <trkpt lat="41.795891029760242" lon="-2.069730022922158">
        <ele>1118.9000000000001</ele>
        <time>2018-05-28T11:02:00Z</time>
      </trkpt>
      <trkpt lat="41.796139972284436" lon="-2.069593984633684">
        <ele>1118</ele>
        <time>2018-05-28T11:02:08Z</time>
      </trkpt>
      <trkpt lat="41.796355973929167" lon="-2.069466998800635">
        <ele>1115.4000000000001</ele>
        <time>2018-05-28T11:02:15Z</time>
      </trkpt>
      <trkpt lat="41.796572981402278" lon="-2.069288967177272">
        <ele>1111.5</ele>
        <time>2018-05-28T11:02:23Z</time>
      </trkpt>
      <trkpt lat="41.79681203328073" lon="-2.069142032414675">
        <ele>1108.4000000000001</ele>
        <time>2018-05-28T11:02:30Z</time>
      </trkpt>
      <trkpt lat="41.797078996896744" lon="-2.068945979699493">
        <ele>1105.4000000000001</ele>
        <time>2018-05-28T11:02:39Z</time>
      </trkpt>
      <trkpt lat="41.7972850240767" lon="-2.068755961954594">
        <ele>1102.5999999999999</ele>
        <time>2018-05-28T11:02:47Z</time>
      </trkpt>
      <trkpt lat="41.79745702072978" lon="-2.068641968071461">
        <ele>1100.4000000000001</ele>
        <time>2018-05-28T11:02:53Z</time>
      </trkpt>
      <trkpt lat="41.797495996579528" lon="-2.068629981949925">
        <ele>1100</ele>
        <time>2018-05-28T11:02:54Z</time>
      </trkpt>
      <trkpt lat="41.797503959387541" lon="-2.068639034405351">
        <ele>1100</ele>
        <time>2018-05-28T11:02:54Z</time>
      </trkpt>
      <trkpt lat="41.797503037378192" lon="-2.06863702274859">
        <ele>1100</ele>
        <time>2018-05-28T11:02:54Z</time>
      </trkpt>
      <trkpt lat="41.797491973266006" lon="-2.068649008870125">
        <ele>1100.2</ele>
        <time>2018-05-28T11:02:55Z</time>
      </trkpt>
      <trkpt lat="41.797502031549811" lon="-2.068644985556603">
        <ele>1100.0999999999999</ele>
        <time>2018-05-28T11:02:55Z</time>
      </trkpt>
      <trkpt lat="41.79749901406467" lon="-2.068643979728222">
        <ele>1100.0999999999999</ele>
        <time>2018-05-28T11:02:55Z</time>
      </trkpt>
      <trkpt lat="41.797490967437625" lon="-2.068639034405351">
        <ele>1100.0999999999999</ele>
        <time>2018-05-28T11:02:55Z</time>
      </trkpt>
      <trkpt lat="41.797495996579528" lon="-2.068625036627054">
        <ele>1100</ele>
        <time>2018-05-28T11:02:56Z</time>
      </trkpt>
      <trkpt lat="41.797524997964501" lon="-2.068622019141913">
        <ele>1099.8</ele>
        <time>2018-05-28T11:02:56Z</time>
      </trkpt>
      <trkpt lat="41.797534972429276" lon="-2.068571979179978">
        <ele>1099.3</ele>
        <time>2018-05-28T11:02:58Z</time>
      </trkpt>
      <trkpt lat="41.7976079788059" lon="-2.068513976410031">
        <ele>1098.4000000000001</ele>
        <time>2018-05-28T11:03:00Z</time>
      </trkpt>
      <trkpt lat="41.797644020989537" lon="-2.068497966974974">
        <ele>1098.0999999999999</ele>
        <time>2018-05-28T11:03:01Z</time>
      </trkpt>
      <trkpt lat="41.797708980739117" lon="-2.068464020267129">
        <ele>1097.4000000000001</ele>
        <time>2018-05-28T11:03:03Z</time>
      </trkpt>
      <trkpt lat="41.797803025692701" lon="-2.06840300001204">
        <ele>1096.5</ele>
        <time>2018-05-28T11:03:06Z</time>
      </trkpt>
      <trkpt lat="41.798066971823573" lon="-2.068208958953619">
        <ele>1094.2</ele>
        <time>2018-05-28T11:03:15Z</time>
      </trkpt>
      <trkpt lat="41.798286996781826" lon="-2.067946018651128">
        <ele>1092.2</ele>
        <time>2018-05-28T11:03:24Z</time>
      </trkpt>
      <trkpt lat="41.7984679620713" lon="-2.067643012851477">
        <ele>1088.8</ele>
        <time>2018-05-28T11:03:33Z</time>
      </trkpt>
      <trkpt lat="41.798673989251256" lon="-2.067318968474865">
        <ele>1084.3</ele>
        <time>2018-05-28T11:03:42Z</time>
      </trkpt>
      <trkpt lat="41.798827964812517" lon="-2.06702996045351">
        <ele>1080.4000000000001</ele>
        <time>2018-05-28T11:03:50Z</time>
      </trkpt>
      <trkpt lat="41.799028040841222" lon="-2.066778000444174">
        <ele>1078.2</ele>
        <time>2018-05-28T11:03:58Z</time>
      </trkpt>
      <trkpt lat="41.799256028607488" lon="-2.066678004339337">
        <ele>1076.7</ele>
        <time>2018-05-28T11:04:05Z</time>
      </trkpt>
      <trkpt lat="41.799457026645541" lon="-2.066697031259537">
        <ele>1076.0999999999999</ele>
        <time>2018-05-28T11:04:11Z</time>
      </trkpt>
      <trkpt lat="41.799641009420156" lon="-2.066690996289253">
        <ele>1075</ele>
        <time>2018-05-28T11:04:17Z</time>
      </trkpt>
      <trkpt lat="41.799832032993436" lon="-2.066526040434837">
        <ele>1071.9000000000001</ele>
        <time>2018-05-28T11:04:24Z</time>
      </trkpt>
      <trkpt lat="41.800049962475896" lon="-2.066223034635186">
        <ele>1067.8</ele>
        <time>2018-05-28T11:04:33Z</time>
      </trkpt>
      <trkpt lat="41.800153981894255" lon="-2.065899996086955">
        <ele>1064.7</ele>
        <time>2018-05-28T11:04:41Z</time>
      </trkpt>
      <trkpt lat="41.800183989107609" lon="-2.065552985295653">
        <ele>1062.4000000000001</ele>
        <time>2018-05-28T11:04:49Z</time>
      </trkpt>
      <trkpt lat="41.800217013806105" lon="-2.065215026959777">
        <ele>1060.0999999999999</ele>
        <time>2018-05-28T11:04:56Z</time>
      </trkpt>
      <trkpt lat="41.800281973555684" lon="-2.064909003674984">
        <ele>1057.5999999999999</ele>
        <time>2018-05-28T11:05:03Z</time>
      </trkpt>
      <trkpt lat="41.800447013229132" lon="-2.064701970666647">
        <ele>1054.8</ele>
        <time>2018-05-28T11:05:10Z</time>
      </trkpt>
      <trkpt lat="41.800682963803411" lon="-2.064475994557142">
        <ele>1051.5</ele>
        <time>2018-05-28T11:05:18Z</time>
      </trkpt>
      <trkpt lat="41.800881028175354" lon="-2.064252030104399">
        <ele>1048.4000000000001</ele>
        <time>2018-05-28T11:05:26Z</time>
      </trkpt>
      <trkpt lat="41.801123013719916" lon="-2.064081039279699">
        <ele>1045.0999999999999</ele>
        <time>2018-05-28T11:05:34Z</time>
      </trkpt>
      <trkpt lat="41.801271960139275" lon="-2.063967967405915">
        <ele>1042.9000000000001</ele>
        <time>2018-05-28T11:05:39Z</time>
      </trkpt>
      <trkpt lat="41.801407998427749" lon="-2.063767975196242">
        <ele>1040.2</ele>
        <time>2018-05-28T11:05:45Z</time>
      </trkpt>
      <trkpt lat="41.801376985386014" lon="-2.063405960798264">
        <ele>1038</ele>
        <time>2018-05-28T11:05:54Z</time>
      </trkpt>
      <trkpt lat="41.801354018971324" lon="-2.063041012734175">
        <ele>1035.9000000000001</ele>
        <time>2018-05-28T11:06:02Z</time>
      </trkpt>
      <trkpt lat="41.801602961495519" lon="-2.062787963077426">
        <ele>1032.5</ele>
        <time>2018-05-28T11:06:11Z</time>
      </trkpt>
      <trkpt lat="41.801822986453772" lon="-2.0626459736377">
        <ele>1030</ele>
        <time>2018-05-28T11:06:18Z</time>
      </trkpt>
      <trkpt lat="41.802062960341573" lon="-2.062318995594978">
        <ele>1026.3</ele>
        <time>2018-05-28T11:06:28Z</time>
      </trkpt>
      <trkpt lat="41.802186006680131" lon="-2.061946000903845">
        <ele>1024.2</ele>
        <time>2018-05-28T11:06:37Z</time>
      </trkpt>
      <trkpt lat="41.802318021655083" lon="-2.061491031199694">
        <ele>1022.5</ele>
        <time>2018-05-28T11:06:48Z</time>
      </trkpt>
      <trkpt lat="41.802566964179277" lon="-2.061045030131936">
        <ele>1019.7</ele>
        <time>2018-05-28T11:07:01Z</time>
      </trkpt>
      <trkpt lat="41.802851026877761" lon="-2.0608189702034">
        <ele>1017.2</ele>
        <time>2018-05-28T11:07:10Z</time>
      </trkpt>
      <trkpt lat="41.803050013259053" lon="-2.060316978022456">
        <ele>1014.7</ele>
        <time>2018-05-28T11:07:23Z</time>
      </trkpt>
      <trkpt lat="41.803256962448359" lon="-2.059790007770062">
        <ele>1013.5</ele>
        <time>2018-05-28T11:07:36Z</time>
      </trkpt>
      <trkpt lat="41.803470030426979" lon="-2.059295978397131">
        <ele>1012</ele>
        <time>2018-05-28T11:07:49Z</time>
      </trkpt>
      <trkpt lat="41.80381502956152" lon="-2.058597011491656">
        <ele>1009.4</ele>
        <time>2018-05-28T11:08:07Z</time>
      </trkpt>
      <trkpt lat="41.804113006219268" lon="-2.058021007105708">
        <ele>1007.3</ele>
        <time>2018-05-28T11:08:23Z</time>
      </trkpt>
      <trkpt lat="41.804420035332441" lon="-2.057486996054649">
        <ele>1005.3</ele>
        <time>2018-05-28T11:08:38Z</time>
      </trkpt>
      <trkpt lat="41.804808033630252" lon="-2.056944016367197">
        <ele>1003.8</ele>
        <time>2018-05-28T11:08:54Z</time>
      </trkpt>
      <trkpt lat="41.805211035534739" lon="-2.056343033909798">
        <ele>1002.4</ele>
        <time>2018-05-28T11:09:12Z</time>
      </trkpt>
      <trkpt lat="41.805497026070952" lon="-2.05583299510181">
        <ele>1000.5</ele>
        <time>2018-05-28T11:09:26Z</time>
      </trkpt>
      <trkpt lat="41.805906984955072" lon="-2.05531801097095">
        <ele>998.79999999999995</ele>
        <time>2018-05-28T11:09:43Z</time>
      </trkpt>
      <trkpt lat="41.806272016838193" lon="-2.054917020723224">
        <ele>997.79999999999995</ele>
        <time>2018-05-28T11:09:57Z</time>
      </trkpt>
      <trkpt lat="41.806633025407791" lon="-2.054446041584015">
        <ele>996.10000000000002</ele>
        <time>2018-05-28T11:10:12Z</time>
      </trkpt>
      <trkpt lat="41.807201988995075" lon="-2.053799964487553">
        <ele>994.10000000000002</ele>
        <time>2018-05-28T11:10:34Z</time>
      </trkpt>
      <trkpt lat="41.807414973154664" lon="-2.053496036678553">
        <ele>994.10000000000002</ele>
        <time>2018-05-28T11:10:43Z</time>
      </trkpt>
      <trkpt lat="41.807599039748311" lon="-2.053223960101605">
        <ele>993.79999999999995</ele>
        <time>2018-05-28T11:10:51Z</time>
      </trkpt>
      <trkpt lat="41.80766299366951" lon="-2.053002007305622">
        <ele>993.60000000000002</ele>
        <time>2018-05-28T11:10:56Z</time>
      </trkpt>
      <trkpt lat="41.807732982560992" lon="-2.052772007882595">
        <ele>993.89999999999998</ele>
        <time>2018-05-28T11:11:02Z</time>
      </trkpt>
      <trkpt lat="41.807842031121254" lon="-2.052577966824174">
        <ele>993.79999999999995</ele>
        <time>2018-05-28T11:11:07Z</time>
      </trkpt>
      <trkpt lat="41.808188036084175" lon="-2.052173037081957">
        <ele>994</ele>
        <time>2018-05-28T11:11:21Z</time>
      </trkpt>
      <trkpt lat="41.808275040239096" lon="-2.052033981308341">
        <ele>994.29999999999995</ele>
        <time>2018-05-28T11:11:25Z</time>
      </trkpt>
      <trkpt lat="41.808797987177968" lon="-2.051220014691353">
        <ele>993</ele>
        <time>2018-05-28T11:11:49Z</time>
      </trkpt>
      <trkpt lat="41.809271983802319" lon="-2.050795974209905">
        <ele>992.20000000000005</ele>
        <time>2018-05-28T11:12:06Z</time>
      </trkpt>
      <trkpt lat="41.809345996007323" lon="-2.050710981711745">
        <ele>991.89999999999998</ele>
        <time>2018-05-28T11:12:08Z</time>
      </trkpt>
      <trkpt lat="41.809622012078762" lon="-2.050263974815607">
        <ele>991.29999999999995</ele>
        <time>2018-05-28T11:12:21Z</time>
      </trkpt>
      <trkpt lat="41.809700969606638" lon="-2.050086027011275">
        <ele>991.5</ele>
        <time>2018-05-28T11:12:26Z</time>
      </trkpt>
      <trkpt lat="41.809954019263387" lon="-2.049482027068734">
        <ele>991.29999999999995</ele>
        <time>2018-05-28T11:12:41Z</time>
      </trkpt>
      <trkpt lat="41.810259036719799" lon="-2.048731008544564">
        <ele>988.29999999999995</ele>
        <time>2018-05-28T11:13:00Z</time>
      </trkpt>
      <trkpt lat="41.810522982850671" lon="-2.048042016103864">
        <ele>986.5</ele>
        <time>2018-05-28T11:13:17Z</time>
      </trkpt>
      <trkpt lat="41.810830011963844" lon="-2.047255039215088">
        <ele>984.60000000000002</ele>
        <time>2018-05-28T11:13:37Z</time>
      </trkpt>
      <trkpt lat="41.811027992516756" lon="-2.046501003205776">
        <ele>983.79999999999995</ele>
        <time>2018-05-28T11:13:54Z</time>
      </trkpt>
      <trkpt lat="41.811326975002885" lon="-2.045806981623173">
        <ele>984</ele>
        <time>2018-05-28T11:14:12Z</time>
      </trkpt>
      <trkpt lat="41.811608020216227" lon="-2.045313036069274">
        <ele>984.20000000000005</ele>
        <time>2018-05-28T11:14:26Z</time>
      </trkpt>
      <trkpt lat="41.812155023217201" lon="-2.044324977323413">
        <ele>982.79999999999995</ele>
        <time>2018-05-28T11:14:53Z</time>
      </trkpt>
      <trkpt lat="41.812643017619848" lon="-2.043487038463354">
        <ele>982.20000000000005</ele>
        <time>2018-05-28T11:15:16Z</time>
      </trkpt>
      <trkpt lat="41.812894977629185" lon="-2.042912039905787">
        <ele>982.10000000000002</ele>
        <time>2018-05-28T11:15:31Z</time>
      </trkpt>
      <trkpt lat="41.813113996759057" lon="-2.04236201941967">
        <ele>982.70000000000005</ele>
        <time>2018-05-28T11:15:45Z</time>
      </trkpt>
      <trkpt lat="41.813397975638509" lon="-2.04189196228981">
        <ele>983.20000000000005</ele>
        <time>2018-05-28T11:15:58Z</time>
      </trkpt>
      <trkpt lat="41.813456984236836" lon="-2.041814010590315">
        <ele>983.29999999999995</ele>
        <time>2018-05-28T11:16:01Z</time>
      </trkpt>
      <trkpt lat="41.813692012801766" lon="-2.041648970916867">
        <ele>983.29999999999995</ele>
        <time>2018-05-28T11:16:09Z</time>
      </trkpt>
      <trkpt lat="41.813840037211776" lon="-2.04154503531754">
        <ele>983.20000000000005</ele>
        <time>2018-05-28T11:16:14Z</time>
      </trkpt>
      <trkpt lat="41.813841965049505" lon="-2.041537994518876">
        <ele>983.20000000000005</ele>
        <time>2018-05-28T11:16:14Z</time>
      </trkpt>
      <trkpt lat="41.813855962827802" lon="-2.041518967598677">
        <ele>983.20000000000005</ele>
        <time>2018-05-28T11:16:14Z</time>
      </trkpt>
      <trkpt lat="41.813866021111608" lon="-2.041519973427057">
        <ele>983.10000000000002</ele>
        <time>2018-05-28T11:16:15Z</time>
      </trkpt>
      <trkpt lat="41.814177995547652" lon="-2.041196012869477">
        <ele>982.79999999999995</ele>
        <time>2018-05-28T11:16:26Z</time>
      </trkpt>
      <trkpt lat="41.81438997387886" lon="-2.040914967656136">
        <ele>983.20000000000005</ele>
        <time>2018-05-28T11:16:35Z</time>
      </trkpt>
      <trkpt lat="41.814780989661813" lon="-2.040295964106917">
        <ele>984.5</ele>
        <time>2018-05-28T11:16:53Z</time>
      </trkpt>
      <trkpt lat="41.815296979621053" lon="-2.039642008021474">
        <ele>984.39999999999998</ele>
        <time>2018-05-28T11:17:14Z</time>
      </trkpt>
      <trkpt lat="41.815864015370607" lon="-2.038865005597472">
        <ele>982.70000000000005</ele>
        <time>2018-05-28T11:17:38Z</time>
      </trkpt>
      <trkpt lat="41.816305993124843" lon="-2.038386985659599">
        <ele>981</ele>
        <time>2018-05-28T11:17:55Z</time>
      </trkpt>
      <trkpt lat="41.817007977515459" lon="-2.037523984909058">
        <ele>981.60000000000002</ele>
        <time>2018-05-28T11:18:23Z</time>
      </trkpt>
      <trkpt lat="41.81773703545332" lon="-2.036760980263352">
        <ele>980.60000000000002</ele>
        <time>2018-05-28T11:18:51Z</time>
      </trkpt>
      <trkpt lat="41.818280015140772" lon="-2.036011973395944">
        <ele>980.89999999999998</ele>
        <time>2018-05-28T11:19:14Z</time>
      </trkpt>
      <trkpt lat="41.818930031731725" lon="-2.035359023138881">
        <ele>980.89999999999998</ele>
        <time>2018-05-28T11:19:38Z</time>
      </trkpt>
      <trkpt lat="41.819647019729018" lon="-2.034696014598012">
        <ele>980.79999999999995</ele>
        <time>2018-05-28T11:20:03Z</time>
      </trkpt>
      <trkpt lat="41.820173989981413" lon="-2.034036023542285">
        <ele>980.89999999999998</ele>
        <time>2018-05-28T11:20:25Z</time>
      </trkpt>
      <trkpt lat="41.820856025442481" lon="-2.033215016126633">
        <ele>980.10000000000002</ele>
        <time>2018-05-28T11:20:52Z</time>
      </trkpt>
      <trkpt lat="41.821545017883182" lon="-2.0322410389781">
        <ele>980</ele>
        <time>2018-05-28T11:21:22Z</time>
      </trkpt>
      <trkpt lat="41.821966962888837" lon="-2.031569983810186">
        <ele>981</ele>
        <time>2018-05-28T11:21:41Z</time>
      </trkpt>
      <trkpt lat="41.822421010583639" lon="-2.030787030234933">
        <ele>980.39999999999998</ele>
        <time>2018-05-28T11:22:03Z</time>
      </trkpt>
      <trkpt lat="41.822559982538223" lon="-2.030556024983525">
        <ele>979.70000000000005</ele>
        <time>2018-05-28T11:22:09Z</time>
      </trkpt>
      <trkpt lat="41.822815965861082" lon="-2.030130978673697">
        <ele>978.79999999999995</ele>
        <time>2018-05-28T11:22:22Z</time>
      </trkpt>
      <trkpt lat="41.823237994685769" lon="-2.029365040361881">
        <ele>978.79999999999995</ele>
        <time>2018-05-28T11:22:43Z</time>
      </trkpt>
      <trkpt lat="41.823543012142181" lon="-2.028592983260751">
        <ele>980.20000000000005</ele>
        <time>2018-05-28T11:23:02Z</time>
      </trkpt>
      <trkpt lat="41.824021032080054" lon="-2.027392024174333">
        <ele>982.20000000000005</ele>
        <time>2018-05-28T11:23:32Z</time>
      </trkpt>
      <trkpt lat="41.824523024260998" lon="-2.026172038167715">
        <ele>984.70000000000005</ele>
        <time>2018-05-28T11:24:03Z</time>
      </trkpt>
      <trkpt lat="41.825053011998534" lon="-2.024714006111026">
        <ele>986.29999999999995</ele>
        <time>2018-05-28T11:24:39Z</time>
      </trkpt>
      <trkpt lat="41.825447967275977" lon="-2.023645984008908">
        <ele>986</ele>
        <time>2018-05-28T11:25:05Z</time>
      </trkpt>
      <trkpt lat="41.825704034417868" lon="-2.022353997454047">
        <ele>988.20000000000005</ele>
        <time>2018-05-28T11:25:34Z</time>
      </trkpt>
      <trkpt lat="41.825720965862274" lon="-2.022220976650715">
        <ele>988.60000000000002</ele>
        <time>2018-05-28T11:25:37Z</time>
      </trkpt>
      <trkpt lat="41.825933028012514" lon="-2.02087601646781">
        <ele>989.79999999999995</ele>
        <time>2018-05-28T11:26:08Z</time>
      </trkpt>
      <trkpt lat="41.826117010787129" lon="-2.019714033231139">
        <ele>991.29999999999995</ele>
        <time>2018-05-28T11:26:34Z</time>
      </trkpt>
      <trkpt lat="41.826323959976435" lon="-2.018421040847898">
        <ele>994.39999999999998</ele>
        <time>2018-05-28T11:27:03Z</time>
      </trkpt>
      <trkpt lat="41.826566029340029" lon="-2.017371961846948">
        <ele>992.29999999999995</ele>
        <time>2018-05-28T11:27:27Z</time>
      </trkpt>
      <trkpt lat="41.826842967420816" lon="-2.016249038279057">
        <ele>991.29999999999995</ele>
        <time>2018-05-28T11:27:53Z</time>
      </trkpt>
      <trkpt lat="41.827059974893928" lon="-2.015318982303143">
        <ele>989.20000000000005</ele>
        <time>2018-05-28T11:28:15Z</time>
      </trkpt>
      <trkpt lat="41.827434981241822" lon="-2.013948038220406">
        <ele>988.5</ele>
        <time>2018-05-28T11:28:47Z</time>
      </trkpt>
      <trkpt lat="41.827883999794722" lon="-2.011126019060612">
        <ele>993.29999999999995</ele>
        <time>2018-05-28T11:29:51Z</time>
      </trkpt>
      <trkpt lat="41.827975027263165" lon="-2.005981039255858">
        <ele>990</ele>
        <time>2018-05-28T11:31:45Z</time>
      </trkpt>
      <trkpt lat="41.828107964247465" lon="-2.001778017729521">
        <ele>988</ele>
        <time>2018-05-28T11:33:17Z</time>
      </trkpt>
      <trkpt lat="41.828197985887527" lon="-2.001443998888135">
        <ele>987.5</ele>
        <time>2018-05-28T11:33:25Z</time>
      </trkpt>
      <trkpt lat="41.82873803190887" lon="-1.999509036540985">
        <ele>984.89999999999998</ele>
        <time>2018-05-28T11:34:11Z</time>
      </trkpt>
      <trkpt lat="41.828648010268807" lon="-1.997570972889662">
        <ele>984.20000000000005</ele>
        <time>2018-05-28T11:34:54Z</time>
      </trkpt>
      <trkpt lat="41.82873803190887" lon="-1.997183980420232">
        <ele>984</ele>
        <time>2018-05-28T11:35:03Z</time>
      </trkpt>
      <trkpt lat="41.829679990187287" lon="-1.995025975629687">
        <ele>992.5</ele>
        <time>2018-05-28T11:35:58Z</time>
      </trkpt>
      <trkpt lat="41.830398989841342" lon="-1.990822032094002">
        <ele>1013.7</ele>
        <time>2018-05-28T11:37:33Z</time>
      </trkpt>
      <trkpt lat="41.830535028129816" lon="-1.988388011232019">
        <ele>1030.5</ele>
        <time>2018-05-28T11:38:27Z</time>
      </trkpt>
      <trkpt lat="41.830353979021311" lon="-1.986894020810723">
        <ele>1033.7</ele>
        <time>2018-05-28T11:39:01Z</time>
      </trkpt>
      <trkpt lat="41.83120901696384" lon="-1.984182978048921">
        <ele>1037.4000000000001</ele>
        <time>2018-05-28T11:40:06Z</time>
      </trkpt>
      <trkpt lat="41.831198958680034" lon="-1.983749968931079">
        <ele>1038</ele>
        <time>2018-05-28T11:40:15Z</time>
      </trkpt>
      <trkpt lat="41.831260984763503" lon="-1.983603034168482">
        <ele>1039.2</ele>
        <time>2018-05-28T11:40:19Z</time>
      </trkpt>
      <trkpt lat="41.831457037478685" lon="-1.983478982001543">
        <ele>1041.5999999999999</ele>
        <time>2018-05-28T11:40:26Z</time>
      </trkpt>
      <trkpt lat="41.831571031361818" lon="-1.983443023636937">
        <ele>1042.7</ele>
        <time>2018-05-28T11:40:29Z</time>
      </trkpt>
      <trkpt lat="41.831574970856309" lon="-1.983305979520083">
        <ele>1043.5</ele>
        <time>2018-05-28T11:40:32Z</time>
      </trkpt>
      <trkpt lat="41.831731041893363" lon="-1.98261103592813">
        <ele>1047.2</ele>
        <time>2018-05-28T11:40:48Z</time>
      </trkpt>
      <trkpt lat="41.831851992756128" lon="-1.982012987136841">
        <ele>1048.5</ele>
        <time>2018-05-28T11:41:02Z</time>
      </trkpt>
      <trkpt lat="41.83200404047966" lon="-1.981274960562587">
        <ele>1047.3</ele>
        <time>2018-05-28T11:41:19Z</time>
      </trkpt>
      <trkpt lat="41.832146029919386" lon="-1.98059300892055">
        <ele>1045.4000000000001</ele>
        <time>2018-05-28T11:41:34Z</time>
      </trkpt>
      <trkpt lat="41.832291036844254" lon="-1.979877026751638">
        <ele>1043.9000000000001</ele>
        <time>2018-05-28T11:41:51Z</time>
      </trkpt>
      <trkpt lat="41.832427997142076" lon="-1.979183005169034">
        <ele>1043</ele>
        <time>2018-05-28T11:42:07Z</time>
      </trkpt>
      <trkpt lat="41.832583984360099" lon="-1.978492001071572">
        <ele>1042.3</ele>
        <time>2018-05-28T11:42:23Z</time>
      </trkpt>
      <trkpt lat="41.832720022648573" lon="-1.977966036647558">
        <ele>1041.2</ele>
        <time>2018-05-28T11:42:35Z</time>
      </trkpt>
      <trkpt lat="41.832870980724692" lon="-1.977387014776468">
        <ele>1038.4000000000001</ele>
        <time>2018-05-28T11:42:48Z</time>
      </trkpt>
      <trkpt lat="41.833067033439875" lon="-1.976700033992529">
        <ele>1036</ele>
        <time>2018-05-28T11:43:05Z</time>
      </trkpt>
      <trkpt lat="41.833256967365742" lon="-1.976023027673364">
        <ele>1034.4000000000001</ele>
        <time>2018-05-28T11:43:21Z</time>
      </trkpt>
      <trkpt lat="41.833443967625499" lon="-1.975380973890424">
        <ele>1032.3</ele>
        <time>2018-05-28T11:43:36Z</time>
      </trkpt>
      <trkpt lat="41.833653012290597" lon="-1.974660968407989">
        <ele>1028.4000000000001</ele>
        <time>2018-05-28T11:43:53Z</time>
      </trkpt>
      <trkpt lat="41.833691988140345" lon="-1.973940040916205">
        <ele>1022.9</ele>
        <time>2018-05-28T11:44:09Z</time>
      </trkpt>
      <trkpt lat="41.833611018955708" lon="-1.97341600432992">
        <ele>1021.4</ele>
        <time>2018-05-28T11:44:21Z</time>
      </trkpt>
      <trkpt lat="41.8335319776088" lon="-1.972878975793719">
        <ele>1020.7</ele>
        <time>2018-05-28T11:44:33Z</time>
      </trkpt>
      <trkpt lat="41.833455031737685" lon="-1.972371032461524">
        <ele>1019.4</ele>
        <time>2018-05-28T11:44:44Z</time>
      </trkpt>
      <trkpt lat="41.833357969298959" lon="-1.971820006147027">
        <ele>1018.2</ele>
        <time>2018-05-28T11:44:57Z</time>
      </trkpt>
      <trkpt lat="41.833268031477928" lon="-1.971259005367756">
        <ele>1016.4</ele>
        <time>2018-05-28T11:45:10Z</time>
      </trkpt>
      <trkpt lat="41.833250010386109" lon="-1.971150040626526">
        <ele>1015.8</ele>
        <time>2018-05-28T11:45:12Z</time>
      </trkpt>
      <trkpt lat="41.833126964047551" lon="-1.970544029027224">
        <ele>1011.7</ele>
        <time>2018-05-28T11:45:26Z</time>
      </trkpt>
      <trkpt lat="41.832793029025197" lon="-1.96978303603828">
        <ele>1008</ele>
        <time>2018-05-28T11:45:45Z</time>
      </trkpt>
      <trkpt lat="41.832363959401846" lon="-1.969066970050335">
        <ele>1005</ele>
        <time>2018-05-28T11:46:06Z</time>
      </trkpt>
      <trkpt lat="41.831975961104035" lon="-1.968068014830351">
        <ele>1001.3</ele>
        <time>2018-05-28T11:46:31Z</time>
      </trkpt>
      <trkpt lat="41.831721989437938" lon="-1.966961016878486">
        <ele>998.60000000000002</ele>
        <time>2018-05-28T11:46:56Z</time>
      </trkpt>
      <trkpt lat="41.831779992207885" lon="-1.966579975560308">
        <ele>998.10000000000002</ele>
        <time>2018-05-28T11:47:05Z</time>
      </trkpt>
      <trkpt lat="41.832187017425895" lon="-1.965988967567682">
        <ele>1001.1</ele>
        <time>2018-05-28T11:47:23Z</time>
      </trkpt>
      <trkpt lat="41.833107015118003" lon="-1.964668985456228">
        <ele>1007.2</ele>
        <time>2018-05-28T11:48:03Z</time>
      </trkpt>
      <trkpt lat="41.833446985110641" lon="-1.964191971346736">
        <ele>1010</ele>
        <time>2018-05-28T11:48:17Z</time>
      </trkpt>
      <trkpt lat="41.833926010876894" lon="-1.963503984734416">
        <ele>1013.9</ele>
        <time>2018-05-28T11:48:38Z</time>
      </trkpt>
      <trkpt lat="41.834237985312939" lon="-1.96308103390038">
        <ele>1017.9</ele>
        <time>2018-05-28T11:48:51Z</time>
      </trkpt>
      <trkpt lat="41.834253994747996" lon="-1.963052032515407">
        <ele>1018</ele>
        <time>2018-05-28T11:48:52Z</time>
      </trkpt>
      <trkpt lat="41.834256006404757" lon="-1.963052032515407">
        <ele>1018</ele>
        <time>2018-05-28T11:48:52Z</time>
      </trkpt>
      <trkpt lat="41.834252988919616" lon="-1.963050020858645">
        <ele>1017.9</ele>
        <time>2018-05-28T11:48:52Z</time>
      </trkpt>
      <trkpt lat="41.834256006404757" lon="-1.963051026687026">
        <ele>1018</ele>
        <time>2018-05-28T11:48:52Z</time>
      </trkpt>
      <trkpt lat="41.83426296338439" lon="-1.963052032515407">
        <ele>1018</ele>
        <time>2018-05-28T11:48:52Z</time>
      </trkpt>
      <trkpt lat="41.834362959489226" lon="-1.962915994226933">
        <ele>1018.4</ele>
        <time>2018-05-28T11:48:57Z</time>
      </trkpt>
      <trkpt lat="41.834667976945639" lon="-1.962620029225946">
        <ele>1019.5</ele>
        <time>2018-05-28T11:49:08Z</time>
      </trkpt>
      <trkpt lat="41.835005013272166" lon="-1.962333032861352">
        <ele>1018.6</ele>
        <time>2018-05-28T11:49:20Z</time>
      </trkpt>
      <trkpt lat="41.835268959403038" lon="-1.961999014019966">
        <ele>1015.2</ele>
        <time>2018-05-28T11:49:30Z</time>
      </trkpt>
      <trkpt lat="41.83550801128149" lon="-1.961607998237014">
        <ele>1013.1</ele>
        <time>2018-05-28T11:49:42Z</time>
      </trkpt>
      <trkpt lat="41.835774974897504" lon="-1.961155962198973">
        <ele>1009.9</ele>
        <time>2018-05-28T11:49:54Z</time>
      </trkpt>
      <trkpt lat="41.835977984592319" lon="-1.960819009691477">
        <ele>1008.4</ele>
        <time>2018-05-28T11:50:04Z</time>
      </trkpt>
      <trkpt lat="41.836335975676775" lon="-1.960223978385329">
        <ele>1004.7</ele>
        <time>2018-05-28T11:50:21Z</time>
      </trkpt>
      <trkpt lat="41.836750041693449" lon="-1.959617966786027">
        <ele>1001.5</ele>
        <time>2018-05-28T11:50:39Z</time>
      </trkpt>
      <trkpt lat="41.837195958942175" lon="-1.959154028445482">
        <ele>999.39999999999998</ele>
        <time>2018-05-28T11:50:56Z</time>
      </trkpt>
      <trkpt lat="41.837488990277052" lon="-1.958706015720964">
        <ele>998</ele>
        <time>2018-05-28T11:51:09Z</time>
      </trkpt>
      <trkpt lat="41.837701974436641" lon="-1.958646001294255">
        <ele>996.89999999999998</ele>
        <time>2018-05-28T11:51:15Z</time>
      </trkpt>
      <trkpt lat="41.837825020775199" lon="-1.958725964650512">
        <ele>996.39999999999998</ele>
        <time>2018-05-28T11:51:19Z</time>
      </trkpt>
      <trkpt lat="41.838073041290045" lon="-1.958662010729313">
        <ele>995.89999999999998</ele>
        <time>2018-05-28T11:51:27Z</time>
      </trkpt>
      <trkpt lat="41.838155016303062" lon="-1.958538964390755">
        <ele>995.5</ele>
        <time>2018-05-28T11:51:30Z</time>
      </trkpt>
      <trkpt lat="41.838812995702028" lon="-1.957533974200487">
        <ele>989.79999999999995</ele>
        <time>2018-05-28T11:52:00Z</time>
      </trkpt>
      <trkpt lat="41.839060010388494" lon="-1.957242032513022">
        <ele>990.10000000000002</ele>
        <time>2018-05-28T11:52:10Z</time>
      </trkpt>
      <trkpt lat="41.839394029229879" lon="-1.956838024780154">
        <ele>992.5</ele>
        <time>2018-05-28T11:52:23Z</time>
      </trkpt>
      <trkpt lat="41.839439962059259" lon="-1.956798965111375">
        <ele>992.89999999999998</ele>
        <time>2018-05-28T11:52:25Z</time>
      </trkpt>
      <trkpt lat="41.839627968147397" lon="-1.956669967621565">
        <ele>995</ele>
        <time>2018-05-28T11:52:31Z</time>
      </trkpt>
      <trkpt lat="41.83991395868361" lon="-1.95642102509737">
        <ele>999.10000000000002</ele>
        <time>2018-05-28T11:52:41Z</time>
      </trkpt>
      <trkpt lat="41.840067012235522" lon="-1.956187002360821">
        <ele>1001.7</ele>
        <time>2018-05-28T11:52:48Z</time>
      </trkpt>
      <trkpt lat="41.840158961713314" lon="-1.955420980229974">
        <ele>1007.4</ele>
        <time>2018-05-28T11:53:05Z</time>
      </trkpt>
      <trkpt lat="41.840245965868235" lon="-1.954550016671419">
        <ele>1011.1</ele>
        <time>2018-05-28T11:53:25Z</time>
      </trkpt>
      <trkpt lat="41.840374963358045" lon="-1.953860018402338">
        <ele>1012.8</ele>
        <time>2018-05-28T11:53:40Z</time>
      </trkpt>
      <trkpt lat="41.840398013591766" lon="-1.953634964302182">
        <ele>1012.9</ele>
        <time>2018-05-28T11:53:45Z</time>
      </trkpt>
      <trkpt lat="41.840389966964722" lon="-1.953057032078505">
        <ele>1012.3</ele>
        <time>2018-05-28T11:53:58Z</time>
      </trkpt>
      <trkpt lat="41.840401031076908" lon="-1.952610025182366">
        <ele>1010.9</ele>
        <time>2018-05-28T11:54:08Z</time>
      </trkpt>
      <trkpt lat="41.840458028018475" lon="-1.952133011072874">
        <ele>1008.9</ele>
        <time>2018-05-28T11:54:19Z</time>
      </trkpt>
      <trkpt lat="41.840546960011125" lon="-1.951707964763045">
        <ele>1006.5</ele>
        <time>2018-05-28T11:54:28Z</time>
      </trkpt>
      <trkpt lat="41.84066598303616" lon="-1.951275961473584">
        <ele>1004.5</ele>
        <time>2018-05-28T11:54:39Z</time>
      </trkpt>
      <trkpt lat="41.840763967484236" lon="-1.950934985652566">
        <ele>1002</ele>
        <time>2018-05-28T11:54:47Z</time>
      </trkpt>
      <trkpt lat="41.840878967195749" lon="-1.950614964589477">
        <ele>999.79999999999995</ele>
        <time>2018-05-28T11:54:55Z</time>
      </trkpt>
      <trkpt lat="41.840896988287568" lon="-1.950517985969782">
        <ele>999.20000000000005</ele>
        <time>2018-05-28T11:54:57Z</time>
      </trkpt>
      <trkpt lat="41.841045012697577" lon="-1.95010400377214">
        <ele>996.60000000000002</ele>
        <time>2018-05-28T11:55:07Z</time>
      </trkpt>
      <trkpt lat="41.841078037396073" lon="-1.949458010494709">
        <ele>992.39999999999998</ele>
        <time>2018-05-28T11:55:21Z</time>
      </trkpt>
      <trkpt lat="41.841145008802414" lon="-1.948914024978876">
        <ele>989.39999999999998</ele>
        <time>2018-05-28T11:55:34Z</time>
      </trkpt>
      <trkpt lat="41.841203011572361" lon="-1.948267025873065">
        <ele>988.10000000000002</ele>
        <time>2018-05-28T11:55:48Z</time>
      </trkpt>
      <trkpt lat="41.841210974380374" lon="-1.947680963203311">
        <ele>987.70000000000005</ele>
        <time>2018-05-28T11:56:01Z</time>
      </trkpt>
      <trkpt lat="41.841263025999069" lon="-1.947076041251421">
        <ele>988</ele>
        <time>2018-05-28T11:56:14Z</time>
      </trkpt>
      <trkpt lat="41.841339971870184" lon="-1.946622999384999">
        <ele>987.5</ele>
        <time>2018-05-28T11:56:25Z</time>
      </trkpt>
      <trkpt lat="41.8413529638201" lon="-1.946574971079826">
        <ele>987.39999999999998</ele>
        <time>2018-05-28T11:56:26Z</time>
      </trkpt>
      <trkpt lat="41.841448014602065" lon="-1.946165012195706">
        <ele>986.70000000000005</ele>
        <time>2018-05-28T11:56:35Z</time>
      </trkpt>
      <trkpt lat="41.841494031250477" lon="-1.945921014994383">
        <ele>985.20000000000005</ele>
        <time>2018-05-28T11:56:41Z</time>
      </trkpt>
      <trkpt lat="41.841576006263494" lon="-1.945508038625121">
        <ele>982.70000000000005</ele>
        <time>2018-05-28T11:56:50Z</time>
      </trkpt>
      <trkpt lat="41.841710032895207" lon="-1.945006968453527">
        <ele>979.70000000000005</ele>
        <time>2018-05-28T11:57:02Z</time>
      </trkpt>
      <trkpt lat="41.841756971552968" lon="-1.944500030949712">
        <ele>976.39999999999998</ele>
        <time>2018-05-28T11:57:13Z</time>
      </trkpt>
      <trkpt lat="41.841752026230097" lon="-1.944054029881954">
        <ele>975.10000000000002</ele>
        <time>2018-05-28T11:57:23Z</time>
      </trkpt>
      <trkpt lat="41.84191295877099" lon="-1.943567041307688">
        <ele>973.20000000000005</ele>
        <time>2018-05-28T11:57:35Z</time>
      </trkpt>
      <trkpt lat="41.841956041753292" lon="-1.943458998575807">
        <ele>972.79999999999995</ele>
        <time>2018-05-28T11:57:38Z</time>
      </trkpt>
      <trkpt lat="41.842114962637424" lon="-1.94312104023993">
        <ele>971.39999999999998</ele>
        <time>2018-05-28T11:57:46Z</time>
      </trkpt>
      <trkpt lat="41.842272961512208" lon="-1.942750979214907">
        <ele>970.39999999999998</ele>
        <time>2018-05-28T11:57:56Z</time>
      </trkpt>
      <trkpt lat="41.842403970658779" lon="-1.942377984523773">
        <ele>969.70000000000005</ele>
        <time>2018-05-28T11:58:05Z</time>
      </trkpt>
      <trkpt lat="41.842574961483479" lon="-1.94206802174449">
        <ele>968.39999999999998</ele>
        <time>2018-05-28T11:58:13Z</time>
      </trkpt>
      <trkpt lat="41.842734972015023" lon="-1.941700978204608">
        <ele>965.70000000000005</ele>
        <time>2018-05-28T11:58:23Z</time>
      </trkpt>
      <trkpt lat="41.842908980324864" lon="-1.941051967442036">
        <ele>961.39999999999998</ele>
        <time>2018-05-28T11:58:38Z</time>
      </trkpt>
      <trkpt lat="41.84304996393621" lon="-1.940387031063438">
        <ele>958.89999999999998</ele>
        <time>2018-05-28T11:58:53Z</time>
      </trkpt>
      <trkpt lat="41.843035966157913" lon="-1.940263984724879">
        <ele>959.10000000000002</ele>
        <time>2018-05-28T11:58:56Z</time>
      </trkpt>
      <trkpt lat="41.842939993366599" lon="-1.939797028899193">
        <ele>960.39999999999998</ele>
        <time>2018-05-28T11:59:07Z</time>
      </trkpt>
      <trkpt lat="41.842954996973276" lon="-1.939606005325913">
        <ele>960.79999999999995</ele>
        <time>2018-05-28T11:59:11Z</time>
      </trkpt>
      <trkpt lat="41.843015011399984" lon="-1.939540961757302">
        <ele>960.5</ele>
        <time>2018-05-28T11:59:13Z</time>
      </trkpt>
      <trkpt lat="41.843191031366587" lon="-1.939462004229426">
        <ele>959.5</ele>
        <time>2018-05-28T11:59:19Z</time>
      </trkpt>
      <trkpt lat="41.84332799166441" lon="-1.939291013404727">
        <ele>958.70000000000005</ele>
        <time>2018-05-28T11:59:24Z</time>
      </trkpt>
      <trkpt lat="41.843408960849047" lon="-1.939020026475191">
        <ele>958</ele>
        <time>2018-05-28T11:59:31Z</time>
      </trkpt>
      <trkpt lat="41.843558996915817" lon="-1.938114026561379">
        <ele>953.89999999999998</ele>
        <time>2018-05-28T11:59:51Z</time>
      </trkpt>
      <trkpt lat="41.843851022422314" lon="-1.937040975317359">
        <ele>952.89999999999998</ele>
        <time>2018-05-28T12:00:17Z</time>
      </trkpt>
      <trkpt lat="41.843956969678402" lon="-1.936731012538075">
        <ele>952.89999999999998</ele>
        <time>2018-05-28T12:00:24Z</time>
      </trkpt>
      <trkpt lat="41.843992006033659" lon="-1.936621963977814">
        <ele>952.89999999999998</ele>
        <time>2018-05-28T12:00:27Z</time>
      </trkpt>
      <trkpt lat="41.844026958569884" lon="-1.936520040035248">
        <ele>952.89999999999998</ele>
        <time>2018-05-28T12:00:29Z</time>
      </trkpt>
      <trkpt lat="41.844054032117128" lon="-1.936414008960128">
        <ele>952.70000000000005</ele>
        <time>2018-05-28T12:00:32Z</time>
      </trkpt>
      <trkpt lat="41.84420901350677" lon="-1.935977982357144">
        <ele>952.10000000000002</ele>
        <time>2018-05-28T12:00:42Z</time>
      </trkpt>
      <trkpt lat="41.844335999339819" lon="-1.935600964352489">
        <ele>951</ele>
        <time>2018-05-28T12:00:52Z</time>
      </trkpt>
      <trkpt lat="41.844936981797218" lon="-1.93506401963532">
        <ele>951.39999999999998</ele>
        <time>2018-05-28T12:01:13Z</time>
      </trkpt>
      <trkpt lat="41.845238981768489" lon="-1.934880036860704">
        <ele>951.29999999999995</ele>
        <time>2018-05-28T12:01:23Z</time>
      </trkpt>
      <trkpt lat="41.846003998070955" lon="-1.934663029387593">
        <ele>953.79999999999995</ele>
        <time>2018-05-28T12:01:46Z</time>
      </trkpt>
      <trkpt lat="41.846276996657252" lon="-1.934821028262377">
        <ele>956.29999999999995</ele>
        <time>2018-05-28T12:01:55Z</time>
      </trkpt>
      <trkpt lat="41.846483023837209" lon="-1.935056978836656">
        <ele>957</ele>
        <time>2018-05-28T12:02:03Z</time>
      </trkpt>
      <trkpt lat="41.846644962206483" lon="-1.935126967728138">
        <ele>956.70000000000005</ele>
        <time>2018-05-28T12:02:08Z</time>
      </trkpt>
      <trkpt lat="41.84700395911932" lon="-1.934843994677067">
        <ele>954.20000000000005</ele>
        <time>2018-05-28T12:02:20Z</time>
      </trkpt>
      <trkpt lat="41.847038995474577" lon="-1.934583988040686">
        <ele>953.10000000000002</ele>
        <time>2018-05-28T12:02:26Z</time>
      </trkpt>
      <trkpt lat="41.846994990482926" lon="-1.934376033023">
        <ele>952.20000000000005</ele>
        <time>2018-05-28T12:02:31Z</time>
      </trkpt>
      <trkpt lat="41.846975963562727" lon="-1.934332028031349">
        <ele>952</ele>
        <time>2018-05-28T12:02:32Z</time>
      </trkpt>
      <trkpt lat="41.846891976892948" lon="-1.933786030858755">
        <ele>949.20000000000005</ele>
        <time>2018-05-28T12:02:44Z</time>
      </trkpt>
      <trkpt lat="41.846948973834515" lon="-1.933595007285476">
        <ele>948.79999999999995</ele>
        <time>2018-05-28T12:02:49Z</time>
      </trkpt>
      <trkpt lat="41.8471310287714" lon="-1.933350004255772">
        <ele>948.79999999999995</ele>
        <time>2018-05-28T12:02:56Z</time>
      </trkpt>
      <trkpt lat="41.847729999572039" lon="-1.932545006275177">
        <ele>949.70000000000005</ele>
        <time>2018-05-28T12:03:22Z</time>
      </trkpt>
      <trkpt lat="41.847815997898579" lon="-1.932420032098889">
        <ele>949.39999999999998</ele>
        <time>2018-05-28T12:03:25Z</time>
      </trkpt>
      <trkpt lat="41.848337016999722" lon="-1.931830029934645">
        <ele>948</ele>
        <time>2018-05-28T12:03:45Z</time>
      </trkpt>
      <trkpt lat="41.848902963101864" lon="-1.931299036368728">
        <ele>948.20000000000005</ele>
        <time>2018-05-28T12:04:06Z</time>
      </trkpt>
      <trkpt lat="41.849342007189989" lon="-1.930911038070917">
        <ele>948.39999999999998</ele>
        <time>2018-05-28T12:04:21Z</time>
      </trkpt>
      <trkpt lat="41.84979303739965" lon="-1.930533014237881">
        <ele>947.60000000000002</ele>
        <time>2018-05-28T12:04:37Z</time>
      </trkpt>
      <trkpt lat="41.850228980183601" lon="-1.930110985413194">
        <ele>946.70000000000005</ele>
        <time>2018-05-28T12:04:53Z</time>
      </trkpt>
      <trkpt lat="41.850597029551864" lon="-1.929673030972481">
        <ele>946.29999999999995</ele>
        <time>2018-05-28T12:05:08Z</time>
      </trkpt>
      <trkpt lat="41.851000031456351" lon="-1.929175984114409">
        <ele>945.39999999999998</ele>
        <time>2018-05-28T12:05:24Z</time>
      </trkpt>
      <trkpt lat="41.851396998390555" lon="-1.92866200581193">
        <ele>945.10000000000002</ele>
        <time>2018-05-28T12:05:40Z</time>
      </trkpt>
      <trkpt lat="41.85175197198987" lon="-1.928250035271049">
        <ele>945.20000000000005</ele>
        <time>2018-05-28T12:05:54Z</time>
      </trkpt>
      <trkpt lat="41.851885998621583" lon="-1.928108967840672">
        <ele>945.20000000000005</ele>
        <time>2018-05-28T12:05:59Z</time>
      </trkpt>
      <trkpt lat="41.851909970864654" lon="-1.928015006706119">
        <ele>945.20000000000005</ele>
        <time>2018-05-28T12:06:01Z</time>
      </trkpt>
      <trkpt lat="41.851937966421247" lon="-1.9279779586941">
        <ele>945.20000000000005</ele>
        <time>2018-05-28T12:06:03Z</time>
      </trkpt>
      <trkpt lat="41.852227980270982" lon="-1.927714012563229">
        <ele>944.79999999999995</ele>
        <time>2018-05-28T12:06:13Z</time>
      </trkpt>
      <trkpt lat="41.852451022714376" lon="-1.927460040897131">
        <ele>944.5</ele>
        <time>2018-05-28T12:06:22Z</time>
      </trkpt>
      <trkpt lat="41.852647997438908" lon="-1.927238004282117">
        <ele>944.20000000000005</ele>
        <time>2018-05-28T12:06:29Z</time>
      </trkpt>
      <trkpt lat="41.852820999920368" lon="-1.927068019285798">
        <ele>944</ele>
        <time>2018-05-28T12:06:36Z</time>
      </trkpt>
      <trkpt lat="41.852895012125373" lon="-1.926986966282129">
        <ele>943.79999999999995</ele>
        <time>2018-05-28T12:06:38Z</time>
      </trkpt>
      <trkpt lat="41.852909009903669" lon="-1.926983026787639">
        <ele>943.79999999999995</ele>
        <time>2018-05-28T12:06:39Z</time>
      </trkpt>
      <trkpt lat="41.85291001573205" lon="-1.926983026787639">
        <ele>943.79999999999995</ele>
        <time>2018-05-28T12:06:39Z</time>
      </trkpt>
      <trkpt lat="41.852911021560431" lon="-1.926981015130878">
        <ele>943.79999999999995</ele>
        <time>2018-05-28T12:06:39Z</time>
      </trkpt>
      <trkpt lat="41.85291001573205" lon="-1.926998030394316">
        <ele>943.79999999999995</ele>
        <time>2018-05-28T12:06:39Z</time>
      </trkpt>
      <trkpt lat="41.852905992418528" lon="-1.927017979323864">
        <ele>943.79999999999995</ele>
        <time>2018-05-28T12:06:40Z</time>
      </trkpt>
      <trkpt lat="41.852896017953753" lon="-1.927012028172612">
        <ele>943.79999999999995</ele>
        <time>2018-05-28T12:06:40Z</time>
      </trkpt>
      <trkpt lat="41.852883026003838" lon="-1.927011022344232">
        <ele>943.79999999999995</ele>
        <time>2018-05-28T12:06:40Z</time>
      </trkpt>
      <trkpt lat="41.852890988811851" lon="-1.927013034000993">
        <ele>943.79999999999995</ele>
        <time>2018-05-28T12:06:41Z</time>
      </trkpt>
      <trkpt lat="41.852804990485311" lon="-1.926983026787639">
        <ele>943.79999999999995</ele>
        <time>2018-05-28T12:06:43Z</time>
      </trkpt>
      <trkpt lat="41.852800967171788" lon="-1.926983026787639">
        <ele>943.79999999999995</ele>
        <time>2018-05-28T12:06:43Z</time>
      </trkpt>
      <trkpt lat="41.852784035727382" lon="-1.927003981545568">
        <ele>943.79999999999995</ele>
        <time>2018-05-28T12:06:44Z</time>
      </trkpt>
      <trkpt lat="41.852801973000169" lon="-1.927004987373948">
        <ele>943.79999999999995</ele>
        <time>2018-05-28T12:06:45Z</time>
      </trkpt>
      <trkpt lat="41.852920996025205" lon="-1.926874984055758">
        <ele>943.5</ele>
        <time>2018-05-28T12:06:49Z</time>
      </trkpt>
      <trkpt lat="41.852914039045572" lon="-1.926870960742235">
        <ele>943.5</ele>
        <time>2018-05-28T12:06:49Z</time>
      </trkpt>
      <trkpt lat="41.853012023493648" lon="-1.926869032904506">
        <ele>943.70000000000005</ele>
        <time>2018-05-28T12:06:52Z</time>
      </trkpt>
      <trkpt lat="41.853015962988138" lon="-1.926871966570616">
        <ele>943.70000000000005</ele>
        <time>2018-05-28T12:06:53Z</time>
      </trkpt>
      <trkpt lat="41.853060973808169" lon="-1.926943967118859">
        <ele>944</ele>
        <time>2018-05-28T12:06:55Z</time>
      </trkpt>
      <trkpt lat="41.853466993197799" lon="-1.926769036799669">
        <ele>944.29999999999995</ele>
        <time>2018-05-28T12:07:07Z</time>
      </trkpt>
      <trkpt lat="41.85405096039176" lon="-1.926373997703195">
        <ele>944.29999999999995</ele>
        <time>2018-05-28T12:07:27Z</time>
      </trkpt>
      <trkpt lat="41.85405096039176" lon="-1.926373997703195">
        <ele>944.29999999999995</ele>
        <time>2018-05-29T06:00:00Z</time>
      </trkpt>
      <trkpt lat="41.85405096039176" lon="-1.926373997703195">
        <ele>944.29999999999995</ele>
        <time>2018-05-29T06:00:00Z</time>
      </trkpt>
      <trkpt lat="41.853952975943685" lon="-1.925585009157658">
        <ele>943.5</ele>
        <time>2018-05-29T06:00:17Z</time>
      </trkpt>
      <trkpt lat="41.853762958198786" lon="-1.925206985324621">
        <ele>943.29999999999995</ele>
        <time>2018-05-29T06:00:27Z</time>
      </trkpt>
      <trkpt lat="41.85372699983418" lon="-1.925085028633475">
        <ele>943.29999999999995</ele>
        <time>2018-05-29T06:00:30Z</time>
      </trkpt>
      <trkpt lat="41.853753989562392" lon="-1.924391007050872">
        <ele>943.29999999999995</ele>
        <time>2018-05-29T06:00:45Z</time>
      </trkpt>
      <trkpt lat="41.853848034515977" lon="-1.924027986824513">
        <ele>943</ele>
        <time>2018-05-29T06:00:54Z</time>
      </trkpt>
      <trkpt lat="41.853923974558711" lon="-1.923751970753074">
        <ele>943.29999999999995</ele>
        <time>2018-05-29T06:01:00Z</time>
      </trkpt>
      <trkpt lat="41.853940989822149" lon="-1.923519037663937">
        <ele>942.60000000000002</ele>
        <time>2018-05-29T06:01:06Z</time>
      </trkpt>
      <trkpt lat="41.85383596457541" lon="-1.923534041270614">
        <ele>941.29999999999995</ele>
        <time>2018-05-29T06:01:09Z</time>
      </trkpt>
      <trkpt lat="41.853332966566086" lon="-1.923737972974777">
        <ele>940.5</ele>
        <time>2018-05-29T06:01:24Z</time>
      </trkpt>
      <trkpt lat="41.853275969624519" lon="-1.923692962154746">
        <ele>940.29999999999995</ele>
        <time>2018-05-29T06:01:26Z</time>
      </trkpt>
      <trkpt lat="41.853291979059577" lon="-1.923668989911676">
        <ele>940.29999999999995</ele>
        <time>2018-05-29T06:01:27Z</time>
      </trkpt>
      <trkpt lat="41.853294996544719" lon="-1.923286020755768">
        <ele>939.70000000000005</ele>
        <time>2018-05-29T06:01:35Z</time>
      </trkpt>
      <trkpt lat="41.853387029841542" lon="-1.923031965270639">
        <ele>939.10000000000002</ele>
        <time>2018-05-29T06:01:42Z</time>
      </trkpt>
      <trkpt lat="41.853440003469586" lon="-1.92290598526597">
        <ele>938.70000000000005</ele>
        <time>2018-05-29T06:01:45Z</time>
      </trkpt>
      <trkpt lat="41.85349197126925" lon="-1.922712028026581">
        <ele>938.60000000000002</ele>
        <time>2018-05-29T06:01:49Z</time>
      </trkpt>
      <trkpt lat="41.853665979579091" lon="-1.921989005059004">
        <ele>937.5</ele>
        <time>2018-05-29T06:02:06Z</time>
      </trkpt>
      <trkpt lat="41.853926992043853" lon="-1.921247038990259">
        <ele>937.39999999999998</ele>
        <time>2018-05-29T06:02:24Z</time>
      </trkpt>
      <trkpt lat="41.854109968990088" lon="-1.920725014060736">
        <ele>938.89999999999998</ele>
        <time>2018-05-29T06:02:37Z</time>
      </trkpt>
      <trkpt lat="41.854171995073557" lon="-1.920677991583943">
        <ele>939</ele>
        <time>2018-05-29T06:02:39Z</time>
      </trkpt>
      <trkpt lat="41.854234021157026" lon="-1.920613031834364">
        <ele>939.10000000000002</ele>
        <time>2018-05-29T06:02:41Z</time>
      </trkpt>
      <trkpt lat="41.854454968124628" lon="-1.920301979407668">
        <ele>939.20000000000005</ele>
        <time>2018-05-29T06:02:51Z</time>
      </trkpt>
      <trkpt lat="41.85465001501143" lon="-1.920039961114526">
        <ele>939.10000000000002</ele>
        <time>2018-05-29T06:02:59Z</time>
      </trkpt>
      <trkpt lat="41.854682033881545" lon="-1.919998973608017">
        <ele>939.10000000000002</ele>
        <time>2018-05-29T06:03:00Z</time>
      </trkpt>
      <trkpt lat="41.854657977819443" lon="-1.919737039133906">
        <ele>938.89999999999998</ele>
        <time>2018-05-29T06:03:06Z</time>
      </trkpt>
      <trkpt lat="41.854683961719275" lon="-1.919462028890848">
        <ele>938.5</ele>
        <time>2018-05-29T06:03:12Z</time>
      </trkpt>
      <trkpt lat="41.854486986994743" lon="-1.919189030304551">
        <ele>938.79999999999995</ele>
        <time>2018-05-29T06:03:21Z</time>
      </trkpt>
      <trkpt lat="41.854325970634818" lon="-1.918976968154311">
        <ele>939.10000000000002</ele>
        <time>2018-05-29T06:03:27Z</time>
      </trkpt>
      <trkpt lat="41.85405096039176" lon="-1.918667005375028">
        <ele>939.5</ele>
        <time>2018-05-29T06:03:38Z</time>
      </trkpt>
      <trkpt lat="41.853834958747029" lon="-1.918423008173704">
        <ele>939.70000000000005</ele>
        <time>2018-05-29T06:03:46Z</time>
      </trkpt>
      <trkpt lat="41.853762958198786" lon="-1.918281018733978">
        <ele>939.79999999999995</ele>
        <time>2018-05-29T06:03:50Z</time>
      </trkpt>
      <trkpt lat="41.853773016482592" lon="-1.91811497323215">
        <ele>939.29999999999995</ele>
        <time>2018-05-29T06:03:54Z</time>
      </trkpt>
      <trkpt lat="41.853829007595778" lon="-1.917894026264548">
        <ele>938.20000000000005</ele>
        <time>2018-05-29T06:03:59Z</time>
      </trkpt>
      <trkpt lat="41.853970997035503" lon="-1.917636031284928">
        <ele>935.89999999999998</ele>
        <time>2018-05-29T06:04:06Z</time>
      </trkpt>
      <trkpt lat="41.854296969249845" lon="-1.917216014117003">
        <ele>931.20000000000005</ele>
        <time>2018-05-29T06:04:20Z</time>
      </trkpt>
      <trkpt lat="41.854391014203429" lon="-1.917015016078949">
        <ele>929.5</ele>
        <time>2018-05-29T06:04:25Z</time>
      </trkpt>
      <trkpt lat="41.854411968961358" lon="-1.916944021359086">
        <ele>929</ele>
        <time>2018-05-29T06:04:27Z</time>
      </trkpt>
      <trkpt lat="41.854424960911274" lon="-1.916869003325701">
        <ele>928.5</ele>
        <time>2018-05-29T06:04:28Z</time>
      </trkpt>
      <trkpt lat="41.854643980041146" lon="-1.916816029697657">
        <ele>926.10000000000002</ele>
        <time>2018-05-29T06:04:35Z</time>
      </trkpt>
      <trkpt lat="41.854668958112597" lon="-1.916760038584471">
        <ele>925.60000000000002</ele>
        <time>2018-05-29T06:04:36Z</time>
      </trkpt>
      <trkpt lat="41.854745987802744" lon="-1.916857017204166">
        <ele>925.20000000000005</ele>
        <time>2018-05-29T06:04:39Z</time>
      </trkpt>
      <trkpt lat="41.854760991409421" lon="-1.916807983070612">
        <ele>924.79999999999995</ele>
        <time>2018-05-29T06:04:41Z</time>
      </trkpt>
      <trkpt lat="41.854732995852828" lon="-1.916773030534387">
        <ele>925</ele>
        <time>2018-05-29T06:04:42Z</time>
      </trkpt>
      <trkpt lat="41.854617996141315" lon="-1.916553005576134">
        <ele>925.10000000000002</ele>
        <time>2018-05-29T06:04:48Z</time>
      </trkpt>
      <trkpt lat="41.854582037776709" lon="-1.91626600921154">
        <ele>924.10000000000002</ele>
        <time>2018-05-29T06:04:54Z</time>
      </trkpt>
      <trkpt lat="41.854585977271199" lon="-1.916271038353443">
        <ele>924.10000000000002</ele>
        <time>2018-05-29T06:04:54Z</time>
      </trkpt>
      <trkpt lat="41.854554964229465" lon="-1.916143968701363">
        <ele>922.70000000000005</ele>
        <time>2018-05-29T06:04:57Z</time>
      </trkpt>
      <trkpt lat="41.854496961459517" lon="-1.916170036420226">
        <ele>923.70000000000005</ele>
        <time>2018-05-29T06:04:59Z</time>
      </trkpt>
      <trkpt lat="41.854453962296247" lon="-1.916167018935084">
        <ele>924</ele>
        <time>2018-05-29T06:05:00Z</time>
      </trkpt>
      <trkpt lat="41.854270985350013" lon="-1.916119996458292">
        <ele>925</ele>
        <time>2018-05-29T06:05:06Z</time>
      </trkpt>
      <trkpt lat="41.854333011433482" lon="-1.916081020608544">
        <ele>923.89999999999998</ele>
        <time>2018-05-29T06:05:08Z</time>
      </trkpt>
      <trkpt lat="41.854515988379717" lon="-1.915967026725411">
        <ele>920.5</ele>
        <time>2018-05-29T06:05:14Z</time>
      </trkpt>
      <trkpt lat="41.854859981685877" lon="-1.915973983705044">
        <ele>918.60000000000002</ele>
        <time>2018-05-29T06:05:24Z</time>
      </trkpt>
      <trkpt lat="41.855114037171006" lon="-1.91607004031539">
        <ele>918.29999999999995</ele>
        <time>2018-05-29T06:05:32Z</time>
      </trkpt>
      <trkpt lat="41.855457024648786" lon="-1.916214041411877">
        <ele>917.20000000000005</ele>
        <time>2018-05-29T06:05:43Z</time>
      </trkpt>
      <trkpt lat="41.855516033247113" lon="-1.916196020320058">
        <ele>916.39999999999998</ele>
        <time>2018-05-29T06:05:44Z</time>
      </trkpt>
      <trkpt lat="41.855801017954946" lon="-1.916130976751447">
        <ele>912.5</ele>
        <time>2018-05-29T06:05:53Z</time>
      </trkpt>
      <trkpt lat="41.85600402764976" lon="-1.916020000353456">
        <ele>909.20000000000005</ele>
        <time>2018-05-29T06:06:00Z</time>
      </trkpt>
      <trkpt lat="41.856015007942915" lon="-1.915726969018579">
        <ele>906.89999999999998</ele>
        <time>2018-05-29T06:06:06Z</time>
      </trkpt>
      <trkpt lat="41.856049038469791" lon="-1.915333019569516">
        <ele>904.89999999999998</ele>
        <time>2018-05-29T06:06:15Z</time>
      </trkpt>
      <trkpt lat="41.856250036507845" lon="-1.914959019050002">
        <ele>906.39999999999998</ele>
        <time>2018-05-29T06:06:25Z</time>
      </trkpt>
      <trkpt lat="41.856407029554248" lon="-1.914562974125147">
        <ele>906.89999999999998</ele>
        <time>2018-05-29T06:06:35Z</time>
      </trkpt>
      <trkpt lat="41.856682961806655" lon="-1.914315037429333">
        <ele>901.60000000000002</ele>
        <time>2018-05-29T06:06:45Z</time>
      </trkpt>
      <trkpt lat="41.856765020638704" lon="-1.914257034659386">
        <ele>899.79999999999995</ele>
        <time>2018-05-29T06:06:48Z</time>
      </trkpt>
      <trkpt lat="41.857171962037683" lon="-1.91439600661397">
        <ele>892.60000000000002</ele>
        <time>2018-05-29T06:07:00Z</time>
      </trkpt>
      <trkpt lat="41.85733599588275" lon="-1.914317971095443">
        <ele>892</ele>
        <time>2018-05-29T06:07:05Z</time>
      </trkpt>
      <trkpt lat="41.857491983100772" lon="-1.914266003295779">
        <ele>891.39999999999998</ele>
        <time>2018-05-29T06:07:10Z</time>
      </trkpt>
      <trkpt lat="41.85774696059525" lon="-1.914348984137178">
        <ele>891</ele>
        <time>2018-05-29T06:07:18Z</time>
      </trkpt>
      <trkpt lat="41.857865983620286" lon="-1.914761960506439">
        <ele>895.10000000000002</ele>
        <time>2018-05-29T06:07:28Z</time>
      </trkpt>
      <trkpt lat="41.85798198916018" lon="-1.9149349629879">
        <ele>898</ele>
        <time>2018-05-29T06:07:33Z</time>
      </trkpt>
      <trkpt lat="41.858077961951494" lon="-1.915110982954502">
        <ele>900.89999999999998</ele>
        <time>2018-05-29T06:07:38Z</time>
      </trkpt>
      <trkpt lat="41.85843201354146" lon="-1.915317010134459">
        <ele>903.29999999999995</ele>
        <time>2018-05-29T06:07:49Z</time>
      </trkpt>
      <trkpt lat="41.858621025457978" lon="-1.91534198820591">
        <ele>903</ele>
        <time>2018-05-29T06:07:55Z</time>
      </trkpt>
      <trkpt lat="41.858941968530416" lon="-1.915177032351494">
        <ele>899.39999999999998</ele>
        <time>2018-05-29T06:08:05Z</time>
      </trkpt>
      <trkpt lat="41.859061997383833" lon="-1.915122969076037">
        <ele>898.39999999999998</ele>
        <time>2018-05-29T06:08:09Z</time>
      </trkpt>
      <trkpt lat="41.859337007626891" lon="-1.91489296965301">
        <ele>894</ele>
        <time>2018-05-29T06:08:19Z</time>
      </trkpt>
      <trkpt lat="41.859489977359772" lon="-1.914778975769877">
        <ele>891.79999999999995</ele>
        <time>2018-05-29T06:08:24Z</time>
      </trkpt>
      <trkpt lat="41.859559966251254" lon="-1.914661964401603">
        <ele>889.5</ele>
        <time>2018-05-29T06:08:27Z</time>
      </trkpt>
      <trkpt lat="41.859639007598162" lon="-1.914501031860709">
        <ele>888.60000000000002</ele>
        <time>2018-05-29T06:08:31Z</time>
      </trkpt>
      <trkpt lat="41.859774040058255" lon="-1.914426013827324">
        <ele>890.5</ele>
        <time>2018-05-29T06:08:36Z</time>
      </trkpt>
      <trkpt lat="41.860018959268928" lon="-1.914112027734518">
        <ele>890.79999999999995</ele>
        <time>2018-05-29T06:08:46Z</time>
      </trkpt>
      <trkpt lat="41.860234038904309" lon="-1.913913041353226">
        <ele>890.39999999999998</ele>
        <time>2018-05-29T06:08:54Z</time>
      </trkpt>
      <trkpt lat="41.860697977244854" lon="-1.914003985002637">
        <ele>893.29999999999995</ele>
        <time>2018-05-29T06:09:08Z</time>
      </trkpt>
      <trkpt lat="41.861007018014789" lon="-1.914056036621332">
        <ele>893.70000000000005</ele>
        <time>2018-05-29T06:09:17Z</time>
      </trkpt>
      <trkpt lat="41.861433992162347" lon="-1.914215963333845">
        <ele>895.39999999999998</ele>
        <time>2018-05-29T06:09:30Z</time>
      </trkpt>
      <trkpt lat="41.86189298518002" lon="-1.914401035755873">
        <ele>896.39999999999998</ele>
        <time>2018-05-29T06:09:44Z</time>
      </trkpt>
      <trkpt lat="41.862033968791366" lon="-1.914406986907125">
        <ele>895.70000000000005</ele>
        <time>2018-05-29T06:09:48Z</time>
      </trkpt>
      <trkpt lat="41.862079985439777" lon="-1.914387959986925">
        <ele>895</ele>
        <time>2018-05-29T06:09:50Z</time>
      </trkpt>
      <trkpt lat="41.86240604147315" lon="-1.914147986099124">
        <ele>893.20000000000005</ele>
        <time>2018-05-29T06:10:01Z</time>
      </trkpt>
      <trkpt lat="41.862459015101194" lon="-1.914069028571248">
        <ele>891.79999999999995</ele>
        <time>2018-05-29T06:10:03Z</time>
      </trkpt>
      <trkpt lat="41.862693037837744" lon="-1.913771973922849">
        <ele>886.20000000000005</ele>
        <time>2018-05-29T06:10:13Z</time>
      </trkpt>
      <trkpt lat="41.862796973437071" lon="-1.913656974211335">
        <ele>885.39999999999998</ele>
        <time>2018-05-29T06:10:17Z</time>
      </trkpt>
      <trkpt lat="41.862825974822044" lon="-1.913629984483123">
        <ele>885.29999999999995</ele>
        <time>2018-05-29T06:10:18Z</time>
      </trkpt>
      <trkpt lat="41.86298799701035" lon="-1.913332007825375">
        <ele>884</ele>
        <time>2018-05-29T06:10:26Z</time>
      </trkpt>
      <trkpt lat="41.863269964233041" lon="-1.913064960390329">
        <ele>885.60000000000002</ele>
        <time>2018-05-29T06:10:36Z</time>
      </trkpt>
      <trkpt lat="41.863732980564237" lon="-1.913033025339246">
        <ele>892.70000000000005</ele>
        <time>2018-05-29T06:10:50Z</time>
      </trkpt>
      <trkpt lat="41.864143023267388" lon="-1.913007963448763">
        <ele>891.89999999999998</ele>
        <time>2018-05-29T06:11:02Z</time>
      </trkpt>
      <trkpt lat="41.864429013803601" lon="-1.912894975394011">
        <ele>888.79999999999995</ele>
        <time>2018-05-29T06:11:11Z</time>
      </trkpt>
      <trkpt lat="41.86470796354115" lon="-1.912691965699196">
        <ele>886.10000000000002</ele>
        <time>2018-05-29T06:11:21Z</time>
      </trkpt>
      <trkpt lat="41.864822963252664" lon="-1.912550982087851">
        <ele>885</ele>
        <time>2018-05-29T06:11:25Z</time>
      </trkpt>
      <trkpt lat="41.864891024306417" lon="-1.912400024011731">
        <ele>882.89999999999998</ele>
        <time>2018-05-29T06:11:29Z</time>
      </trkpt>
      <trkpt lat="41.864966964349151" lon="-1.912187961861491">
        <ele>879.70000000000005</ele>
        <time>2018-05-29T06:11:34Z</time>
      </trkpt>
      <trkpt lat="41.864971993491054" lon="-1.912134988233447">
        <ele>878.60000000000002</ele>
        <time>2018-05-29T06:11:36Z</time>
      </trkpt>
      <trkpt lat="41.865063020959496" lon="-1.911800969392061">
        <ele>878.10000000000002</ele>
        <time>2018-05-29T06:11:43Z</time>
      </trkpt>
      <trkpt lat="41.865097973495722" lon="-1.911700973287225">
        <ele>878.10000000000002</ele>
        <time>2018-05-29T06:11:46Z</time>
      </trkpt>
      <trkpt lat="41.865109959617257" lon="-1.911582034081221">
        <ele>877.70000000000005</ele>
        <time>2018-05-29T06:11:48Z</time>
      </trkpt>
      <trkpt lat="41.865239962935448" lon="-1.911424035206437">
        <ele>877.70000000000005</ele>
        <time>2018-05-29T06:11:54Z</time>
      </trkpt>
      <trkpt lat="41.865368960425258" lon="-1.911357985809445">
        <ele>877.79999999999995</ele>
        <time>2018-05-29T06:11:58Z</time>
      </trkpt>
      <trkpt lat="41.865464011207223" lon="-1.911278022453189">
        <ele>878.39999999999998</ele>
        <time>2018-05-29T06:12:01Z</time>
      </trkpt>
      <trkpt lat="41.865532994270325" lon="-1.911186994984746">
        <ele>879</ele>
        <time>2018-05-29T06:12:04Z</time>
      </trkpt>
      <trkpt lat="41.865642964839935" lon="-1.911036036908627">
        <ele>879.39999999999998</ele>
        <time>2018-05-29T06:12:09Z</time>
      </trkpt>
      <trkpt lat="41.8660609703511" lon="-1.910695983096957">
        <ele>882.20000000000005</ele>
        <time>2018-05-29T06:12:23Z</time>
      </trkpt>
      <trkpt lat="41.866276971995831" lon="-1.910576038062573">
        <ele>883.60000000000002</ele>
        <time>2018-05-29T06:12:30Z</time>
      </trkpt>
      <trkpt lat="41.866538990288973" lon="-1.910323994234204">
        <ele>883.29999999999995</ele>
        <time>2018-05-29T06:12:40Z</time>
      </trkpt>
      <trkpt lat="41.866748034954071" lon="-1.910401023924351">
        <ele>887.60000000000002</ele>
        <time>2018-05-29T06:12:46Z</time>
      </trkpt>
      <trkpt lat="41.866894969716668" lon="-1.910014031454921">
        <ele>885</ele>
        <time>2018-05-29T06:12:56Z</time>
      </trkpt>
      <trkpt lat="41.867008041590452" lon="-1.909500975161791">
        <ele>880.60000000000002</ele>
        <time>2018-05-29T06:13:08Z</time>
      </trkpt>
      <trkpt lat="41.867051962763071" lon="-1.908965036273003">
        <ele>874.5</ele>
        <time>2018-05-29T06:13:20Z</time>
      </trkpt>
      <trkpt lat="41.8670470174402" lon="-1.908547030761838">
        <ele>871</ele>
        <time>2018-05-29T06:13:29Z</time>
      </trkpt>
      <trkpt lat="41.867063026875257" lon="-1.908128019422293">
        <ele>869.70000000000005</ele>
        <time>2018-05-29T06:13:38Z</time>
      </trkpt>
      <trkpt lat="41.866968981921673" lon="-1.907770028337836">
        <ele>868</ele>
        <time>2018-05-29T06:13:47Z</time>
      </trkpt>
      <trkpt lat="41.866967976093292" lon="-1.907728035002947">
        <ele>867.79999999999995</ele>
        <time>2018-05-29T06:13:47Z</time>
      </trkpt>
      <trkpt lat="41.867042994126678" lon="-1.907515972852707">
        <ele>867</ele>
        <time>2018-05-29T06:13:53Z</time>
      </trkpt>
      <trkpt lat="41.867236029356718" lon="-1.907138032838702">
        <ele>868.70000000000005</ele>
        <time>2018-05-29T06:14:03Z</time>
      </trkpt>
      <trkpt lat="41.867430992424488" lon="-1.906663030385971">
        <ele>868.10000000000002</ele>
        <time>2018-05-29T06:14:15Z</time>
      </trkpt>
      <trkpt lat="41.867572981864214" lon="-1.906001027673483">
        <ele>864.70000000000005</ele>
        <time>2018-05-29T06:14:30Z</time>
      </trkpt>
      <trkpt lat="41.867597037926316" lon="-1.906113009899855">
        <ele>865.79999999999995</ele>
        <time>2018-05-29T06:14:33Z</time>
      </trkpt>
      <trkpt lat="41.868027029559016" lon="-1.905815033242106">
        <ele>869.20000000000005</ele>
        <time>2018-05-29T06:14:47Z</time>
      </trkpt>
      <trkpt lat="41.868593981489539" lon="-1.905648987740278">
        <ele>874.70000000000005</ele>
        <time>2018-05-29T06:15:04Z</time>
      </trkpt>
      <trkpt lat="41.870400030165911" lon="-1.904605021700263">
        <ele>863.20000000000005</ele>
        <time>2018-05-29T06:16:03Z</time>
      </trkpt>
      <trkpt lat="41.871310975402594" lon="-1.903914017602801">
        <ele>860.5</ele>
        <time>2018-05-29T06:16:34Z</time>
      </trkpt>
      <trkpt lat="41.873270999640226" lon="-1.90228097140789">
        <ele>881</ele>
        <time>2018-05-29T06:17:42Z</time>
      </trkpt>
      <trkpt lat="41.874296022579074" lon="-1.901282016187906">
        <ele>887.10000000000002</ele>
        <time>2018-05-29T06:18:20Z</time>
      </trkpt>
      <trkpt lat="41.874605985358357" lon="-1.90010704100132">
        <ele>881.60000000000002</ele>
        <time>2018-05-29T06:18:47Z</time>
      </trkpt>
      <trkpt lat="41.874863980337977" lon="-1.898322030901909">
        <ele>896.10000000000002</ele>
        <time>2018-05-29T06:19:27Z</time>
      </trkpt>
      <trkpt lat="41.875496981665492" lon="-1.897202041000128">
        <ele>899.39999999999998</ele>
        <time>2018-05-29T06:19:58Z</time>
      </trkpt>
      <trkpt lat="41.876430977135897" lon="-1.896386984735727">
        <ele>895</ele>
        <time>2018-05-29T06:20:31Z</time>
      </trkpt>
      <trkpt lat="41.876767007634044" lon="-1.895430022850633">
        <ele>886.70000000000005</ele>
        <time>2018-05-29T06:20:55Z</time>
      </trkpt>
      <trkpt lat="41.876749992370605" lon="-1.893737968057394">
        <ele>875.5</ele>
        <time>2018-05-29T06:21:32Z</time>
      </trkpt>
      <trkpt lat="41.876345984637737" lon="-1.892330981791019">
        <ele>864.79999999999995</ele>
        <time>2018-05-29T06:22:06Z</time>
      </trkpt>
      <trkpt lat="41.876313965767622" lon="-1.891409978270531">
        <ele>859.10000000000002</ele>
        <time>2018-05-29T06:22:26Z</time>
      </trkpt>
      <trkpt lat="41.876937998458743" lon="-1.889465041458607">
        <ele>858.70000000000005</ele>
        <time>2018-05-29T06:23:13Z</time>
      </trkpt>
      <trkpt lat="41.877568988129497" lon="-1.888194009661675">
        <ele>855.39999999999998</ele>
        <time>2018-05-29T06:23:47Z</time>
      </trkpt>
      <trkpt lat="41.877983976155519" lon="-1.885941037908196">
        <ele>849.60000000000002</ele>
        <time>2018-05-29T06:24:38Z</time>
      </trkpt>
      <trkpt lat="41.878314977511764" lon="-1.884614014998078">
        <ele>839.70000000000005</ele>
        <time>2018-05-29T06:25:09Z</time>
      </trkpt>
      <trkpt lat="41.878783022984862" lon="-1.883795019239187">
        <ele>832.60000000000002</ele>
        <time>2018-05-29T06:25:32Z</time>
      </trkpt>
      <trkpt lat="41.878754021599889" lon="-1.883568037301302">
        <ele>832</ele>
        <time>2018-05-29T06:25:37Z</time>
      </trkpt>
      <trkpt lat="41.878810012713075" lon="-1.883336026221514">
        <ele>832.29999999999995</ele>
        <time>2018-05-29T06:25:42Z</time>
      </trkpt>
      <trkpt lat="41.878857035189867" lon="-1.883131004869938">
        <ele>832.39999999999998</ele>
        <time>2018-05-29T06:25:47Z</time>
      </trkpt>
      <trkpt lat="41.878896011039615" lon="-1.882925983518362">
        <ele>832.39999999999998</ele>
        <time>2018-05-29T06:25:52Z</time>
      </trkpt>
      <trkpt lat="41.878936998546124" lon="-1.882729008793831">
        <ele>834</ele>
        <time>2018-05-29T06:25:56Z</time>
      </trkpt>
      <trkpt lat="41.878983015194535" lon="-1.882545026019216">
        <ele>835.5</ele>
        <time>2018-05-29T06:26:00Z</time>
      </trkpt>
      <trkpt lat="41.879011010751128" lon="-1.882372023537755">
        <ele>836.79999999999995</ele>
        <time>2018-05-29T06:26:04Z</time>
      </trkpt>
      <trkpt lat="41.879047974944115" lon="-1.882206983864307">
        <ele>838</ele>
        <time>2018-05-29T06:26:08Z</time>
      </trkpt>
      <trkpt lat="41.879073958843946" lon="-1.88201897777617">
        <ele>839.29999999999995</ele>
        <time>2018-05-29T06:26:12Z</time>
      </trkpt>
      <trkpt lat="41.879105977714062" lon="-1.881845975294709">
        <ele>840.5</ele>
        <time>2018-05-29T06:26:16Z</time>
      </trkpt>
      <trkpt lat="41.879151994362473" lon="-1.881686970591545">
        <ele>841.60000000000002</ele>
        <time>2018-05-29T06:26:20Z</time>
      </trkpt>
      <trkpt lat="41.879198011010885" lon="-1.881538024172187">
        <ele>842.70000000000005</ele>
        <time>2018-05-29T06:26:24Z</time>
      </trkpt>
      <trkpt lat="41.879238998517394" lon="-1.881371978670359">
        <ele>844</ele>
        <time>2018-05-29T06:26:27Z</time>
      </trkpt>
      <trkpt lat="41.879287026822567" lon="-1.881210040301085">
        <ele>845.29999999999995</ele>
        <time>2018-05-29T06:26:31Z</time>
      </trkpt>
      <trkpt lat="41.879335977137089" lon="-1.881053969264031">
        <ele>846.29999999999995</ele>
        <time>2018-05-29T06:26:35Z</time>
      </trkpt>
      <trkpt lat="41.879390040412545" lon="-1.880891025066376">
        <ele>847.39999999999998</ele>
        <time>2018-05-29T06:26:39Z</time>
      </trkpt>
      <trkpt lat="41.879448965191841" lon="-1.880716010928154">
        <ele>848.60000000000002</ele>
        <time>2018-05-29T06:26:43Z</time>
      </trkpt>
      <trkpt lat="41.879518032073975" lon="-1.880565974861383">
        <ele>849.79999999999995</ele>
        <time>2018-05-29T06:26:47Z</time>
      </trkpt>
      <trkpt lat="41.87957402318716" lon="-1.880419040098786">
        <ele>851</ele>
        <time>2018-05-29T06:26:51Z</time>
      </trkpt>
      <trkpt lat="41.879658009856939" lon="-1.880257017910481">
        <ele>851.10000000000002</ele>
        <time>2018-05-29T06:26:55Z</time>
      </trkpt>
      <trkpt lat="41.879744008183479" lon="-1.88010698184371">
        <ele>851</ele>
        <time>2018-05-29T06:26:59Z</time>
      </trkpt>
      <trkpt lat="41.879824977368116" lon="-1.879959963262081">
        <ele>850.89999999999998</ele>
        <time>2018-05-29T06:27:03Z</time>
      </trkpt>
      <trkpt lat="41.879907958209515" lon="-1.879800958558917">
        <ele>850.70000000000005</ele>
        <time>2018-05-29T06:27:08Z</time>
      </trkpt>
      <trkpt lat="41.88000300899148" lon="-1.879661986604333">
        <ele>850.29999999999995</ele>
        <time>2018-05-29T06:27:12Z</time>
      </trkpt>
      <trkpt lat="41.880084984004498" lon="-1.879523014649749">
        <ele>850</ele>
        <time>2018-05-29T06:27:16Z</time>
      </trkpt>
      <trkpt lat="41.880169976502657" lon="-1.87937599606812">
        <ele>849.89999999999998</ele>
        <time>2018-05-29T06:27:20Z</time>
      </trkpt>
      <trkpt lat="41.880271984264255" lon="-1.879250016063452">
        <ele>849.89999999999998</ele>
        <time>2018-05-29T06:27:24Z</time>
      </trkpt>
      <trkpt lat="41.880382038652897" lon="-1.879114983603358">
        <ele>850</ele>
        <time>2018-05-29T06:27:28Z</time>
      </trkpt>
      <trkpt lat="41.880488991737366" lon="-1.878982968628407">
        <ele>849.89999999999998</ele>
        <time>2018-05-29T06:27:33Z</time>
      </trkpt>
      <trkpt lat="41.880615977570415" lon="-1.878832010552287">
        <ele>849.89999999999998</ele>
        <time>2018-05-29T06:27:38Z</time>
      </trkpt>
      <trkpt lat="41.880740029737353" lon="-1.878694966435432">
        <ele>849.70000000000005</ele>
        <time>2018-05-29T06:27:42Z</time>
      </trkpt>
      <trkpt lat="41.880871960893273" lon="-1.878562029451132">
        <ele>848.89999999999998</ele>
        <time>2018-05-29T06:27:47Z</time>
      </trkpt>
      <trkpt lat="41.881003975868225" lon="-1.878397995606065">
        <ele>848.20000000000005</ele>
        <time>2018-05-29T06:27:53Z</time>
      </trkpt>
      <trkpt lat="41.88114202581346" lon="-1.878230022266507">
        <ele>847.39999999999998</ele>
        <time>2018-05-29T06:27:58Z</time>
      </trkpt>
      <trkpt lat="41.88129298388958" lon="-1.878036987036467">
        <ele>846.70000000000005</ele>
        <time>2018-05-29T06:28:04Z</time>
      </trkpt>
      <trkpt lat="41.881446959450841" lon="-1.877833977341652">
        <ele>846.29999999999995</ele>
        <time>2018-05-29T06:28:11Z</time>
      </trkpt>
      <trkpt lat="41.881610993295908" lon="-1.877631973475218">
        <ele>845.70000000000005</ele>
        <time>2018-05-29T06:28:17Z</time>
      </trkpt>
      <trkpt lat="41.881794976070523" lon="-1.87739996239543">
        <ele>844.79999999999995</ele>
        <time>2018-05-29T06:28:25Z</time>
      </trkpt>
      <trkpt lat="41.881989017128944" lon="-1.877132998779416">
        <ele>843.60000000000002</ele>
        <time>2018-05-29T06:28:33Z</time>
      </trkpt>
      <trkpt lat="41.882162019610405" lon="-1.876852037385106">
        <ele>842.5</ele>
        <time>2018-05-29T06:28:41Z</time>
      </trkpt>
      <trkpt lat="41.882340973243117" lon="-1.876564035192132">
        <ele>841.39999999999998</ele>
        <time>2018-05-29T06:28:49Z</time>
      </trkpt>
      <trkpt lat="41.88249696046114" lon="-1.876242002472282">
        <ele>840</ele>
        <time>2018-05-29T06:28:58Z</time>
      </trkpt>
      <trkpt lat="41.882653031498194" lon="-1.875932961702347">
        <ele>838.60000000000002</ele>
        <time>2018-05-29T06:29:06Z</time>
      </trkpt>
      <trkpt lat="41.882811030372977" lon="-1.875618975609541">
        <ele>837.10000000000002</ele>
        <time>2018-05-29T06:29:15Z</time>
      </trkpt>
      <trkpt lat="41.882962994277477" lon="-1.875296020880342">
        <ele>835.60000000000002</ele>
        <time>2018-05-29T06:29:23Z</time>
      </trkpt>
      <trkpt lat="41.883092997595668" lon="-1.874940963461995">
        <ele>834.70000000000005</ele>
        <time>2018-05-29T06:29:32Z</time>
      </trkpt>
      <trkpt lat="41.883206991478801" lon="-1.874598981812596">
        <ele>834.10000000000002</ele>
        <time>2018-05-29T06:29:40Z</time>
      </trkpt>
      <trkpt lat="41.883320985361934" lon="-1.874278960749507">
        <ele>832.60000000000002</ele>
        <time>2018-05-29T06:29:48Z</time>
      </trkpt>
      <trkpt lat="41.883400026708841" lon="-1.873990036547184">
        <ele>831.29999999999995</ele>
        <time>2018-05-29T06:29:55Z</time>
      </trkpt>
      <trkpt lat="41.883478984236717" lon="-1.873703040182591">
        <ele>830.29999999999995</ele>
        <time>2018-05-29T06:30:01Z</time>
      </trkpt>
      <trkpt lat="41.883566994220018" lon="-1.873472034931183">
        <ele>830.5</ele>
        <time>2018-05-29T06:30:07Z</time>
      </trkpt>
      <trkpt lat="41.883631031960249" lon="-1.873256033286452">
        <ele>830.89999999999998</ele>
        <time>2018-05-29T06:30:12Z</time>
      </trkpt>
      <trkpt lat="41.883691968396306" lon="-1.873050006106496">
        <ele>831.39999999999998</ele>
        <time>2018-05-29T06:30:17Z</time>
      </trkpt>
      <trkpt lat="41.883767992258072" lon="-1.872815983369947">
        <ele>832</ele>
        <time>2018-05-29T06:30:23Z</time>
      </trkpt>
      <trkpt lat="41.883858013898134" lon="-1.872561005875468">
        <ele>832.10000000000002</ele>
        <time>2018-05-29T06:30:29Z</time>
      </trkpt>
      <trkpt lat="41.883953986689448" lon="-1.872288007289171">
        <ele>832.39999999999998</ele>
        <time>2018-05-29T06:30:36Z</time>
      </trkpt>
      <trkpt lat="41.884037973359227" lon="-1.87200796790421">
        <ele>832.29999999999995</ele>
        <time>2018-05-29T06:30:42Z</time>
      </trkpt>
      <trkpt lat="41.884121038019657" lon="-1.871718037873507">
        <ele>831.39999999999998</ele>
        <time>2018-05-29T06:30:49Z</time>
      </trkpt>
      <trkpt lat="41.884202007204294" lon="-1.871442021802068">
        <ele>830.70000000000005</ele>
        <time>2018-05-29T06:30:56Z</time>
      </trkpt>
      <trkpt lat="41.884286999702454" lon="-1.871172040700913">
        <ele>829.5</ele>
        <time>2018-05-29T06:31:02Z</time>
      </trkpt>
      <trkpt lat="41.884368974715471" lon="-1.870898958295584">
        <ele>827</ele>
        <time>2018-05-29T06:31:09Z</time>
      </trkpt>
      <trkpt lat="41.884483974426985" lon="-1.870625037699938">
        <ele>825.5</ele>
        <time>2018-05-29T06:31:16Z</time>
      </trkpt>
      <trkpt lat="41.88455899246037" lon="-1.870376011356711">
        <ele>824.60000000000002</ele>
        <time>2018-05-29T06:31:22Z</time>
      </trkpt>
      <trkpt lat="41.884638033807278" lon="-1.870144000276923">
        <ele>825.29999999999995</ele>
        <time>2018-05-29T06:31:27Z</time>
      </trkpt>
      <trkpt lat="41.884721014648676" lon="-1.869908971711993">
        <ele>825.70000000000005</ele>
        <time>2018-05-29T06:31:33Z</time>
      </trkpt>
      <trkpt lat="41.884797960519791" lon="-1.86968601308763">
        <ele>826</ele>
        <time>2018-05-29T06:31:38Z</time>
      </trkpt>
      <trkpt lat="41.884887982159853" lon="-1.869445033371449">
        <ele>826.60000000000002</ele>
        <time>2018-05-29T06:31:44Z</time>
      </trkpt>
      <trkpt lat="41.884956965222955" lon="-1.869217967614532">
        <ele>827</ele>
        <time>2018-05-29T06:31:50Z</time>
      </trkpt>
      <trkpt lat="41.885039024055004" lon="-1.868980005383492">
        <ele>827.5</ele>
        <time>2018-05-29T06:31:55Z</time>
      </trkpt>
      <trkpt lat="41.885099960491061" lon="-1.868713963776827">
        <ele>827.70000000000005</ele>
        <time>2018-05-29T06:32:02Z</time>
      </trkpt>
      <trkpt lat="41.885182019323111" lon="-1.868510032072663">
        <ele>827.29999999999995</ele>
        <time>2018-05-29T06:32:07Z</time>
      </trkpt>
      <trkpt lat="41.885254019871354" lon="-1.868294030427933">
        <ele>827</ele>
        <time>2018-05-29T06:32:12Z</time>
      </trkpt>
      <trkpt lat="41.885349992662668" lon="-1.868043998256326">
        <ele>826.89999999999998</ele>
        <time>2018-05-29T06:32:18Z</time>
      </trkpt>
      <trkpt lat="41.885443031787872" lon="-1.867765970528126">
        <ele>826.5</ele>
        <time>2018-05-29T06:32:25Z</time>
      </trkpt>
      <trkpt lat="41.885548979043961" lon="-1.867474028840661">
        <ele>825.39999999999998</ele>
        <time>2018-05-29T06:32:32Z</time>
      </trkpt>
      <trkpt lat="41.885651992633939" lon="-1.867174040526152">
        <ele>824.29999999999995</ele>
        <time>2018-05-29T06:32:39Z</time>
      </trkpt>
      <trkpt lat="41.885771015658975" lon="-1.866875980049372">
        <ele>823.5</ele>
        <time>2018-05-29T06:32:47Z</time>
      </trkpt>
      <trkpt lat="41.885887021198869" lon="-1.866554031148553">
        <ele>822.70000000000005</ele>
        <time>2018-05-29T06:32:55Z</time>
      </trkpt>
      <trkpt lat="41.886023981496692" lon="-1.866241972893477">
        <ele>821.79999999999995</ele>
        <time>2018-05-29T06:33:03Z</time>
      </trkpt>
      <trkpt lat="41.88614803366363" lon="-1.865929998457432">
        <ele>820.89999999999998</ele>
        <time>2018-05-29T06:33:10Z</time>
      </trkpt>
      <trkpt lat="41.886268984526396" lon="-1.865621041506529">
        <ele>820.10000000000002</ele>
        <time>2018-05-29T06:33:18Z</time>
      </trkpt>
      <trkpt lat="41.886398987844586" lon="-1.865306971594691">
        <ele>818.60000000000002</ele>
        <time>2018-05-29T06:33:26Z</time>
      </trkpt>
      <trkpt lat="41.886525973677635" lon="-1.865016035735607">
        <ele>816.60000000000002</ele>
        <time>2018-05-29T06:33:34Z</time>
      </trkpt>
      <trkpt lat="41.886652959510684" lon="-1.864729039371014">
        <ele>815.10000000000002</ele>
        <time>2018-05-29T06:33:41Z</time>
      </trkpt>
      <trkpt lat="41.886767959222198" lon="-1.864438019692898">
        <ele>814.10000000000002</ele>
        <time>2018-05-29T06:33:48Z</time>
      </trkpt>
      <trkpt lat="41.886887988075614" lon="-1.86414398252964">
        <ele>813.20000000000005</ele>
        <time>2018-05-29T06:33:56Z</time>
      </trkpt>
      <trkpt lat="41.887001981958747" lon="-1.863861009478569">
        <ele>812.29999999999995</ele>
        <time>2018-05-29T06:34:03Z</time>
      </trkpt>
      <trkpt lat="41.887112036347389" lon="-1.863567978143692">
        <ele>811.5</ele>
        <time>2018-05-29T06:34:10Z</time>
      </trkpt>
      <trkpt lat="41.887228041887283" lon="-1.863289028406143">
        <ele>810.70000000000005</ele>
        <time>2018-05-29T06:34:17Z</time>
      </trkpt>
      <trkpt lat="41.88732803799212" lon="-1.863001026213169">
        <ele>810.10000000000002</ele>
        <time>2018-05-29T06:34:24Z</time>
      </trkpt>
      <trkpt lat="41.887435996904969" lon="-1.86270497739315">
        <ele>809.10000000000002</ele>
        <time>2018-05-29T06:34:31Z</time>
      </trkpt>
      <trkpt lat="41.887556025758386" lon="-1.862410018220544">
        <ele>808</ele>
        <time>2018-05-29T06:34:39Z</time>
      </trkpt>
      <trkpt lat="41.88767303712666" lon="-1.862095026299357">
        <ele>807.20000000000005</ele>
        <time>2018-05-29T06:34:46Z</time>
      </trkpt>
      <trkpt lat="41.887783007696271" lon="-1.861833008006215">
        <ele>806.5</ele>
        <time>2018-05-29T06:34:53Z</time>
      </trkpt>
      <trkpt lat="41.887881997972727" lon="-1.861538970842958">
        <ele>805.89999999999998</ele>
        <time>2018-05-29T06:35:00Z</time>
      </trkpt>
      <trkpt lat="41.887988029047847" lon="-1.861244011670351">
        <ele>805.20000000000005</ele>
        <time>2018-05-29T06:35:07Z</time>
      </trkpt>
      <trkpt lat="41.888088025152683" lon="-1.860959026962519">
        <ele>803.29999999999995</ele>
        <time>2018-05-29T06:35:14Z</time>
      </trkpt>
      <trkpt lat="41.888187015429139" lon="-1.860691979527473">
        <ele>801.89999999999998</ele>
        <time>2018-05-29T06:35:21Z</time>
      </trkpt>
      <trkpt lat="41.888278964906931" lon="-1.860428033396602">
        <ele>801</ele>
        <time>2018-05-29T06:35:27Z</time>
      </trkpt>
      <trkpt lat="41.888376027345657" lon="-1.86016702093184">
        <ele>800.70000000000005</ele>
        <time>2018-05-29T06:35:34Z</time>
      </trkpt>
      <trkpt lat="41.888492032885551" lon="-1.859892010688782">
        <ele>800.70000000000005</ele>
        <time>2018-05-29T06:35:41Z</time>
      </trkpt>
      <trkpt lat="41.888608960434794" lon="-1.859628986567259">
        <ele>801.20000000000005</ele>
        <time>2018-05-29T06:35:48Z</time>
      </trkpt>
      <trkpt lat="41.888712979853153" lon="-1.859364034608007">
        <ele>801.89999999999998</ele>
        <time>2018-05-29T06:35:54Z</time>
      </trkpt>
      <trkpt lat="41.888809036463499" lon="-1.859105033800006">
        <ele>801.89999999999998</ele>
        <time>2018-05-29T06:36:01Z</time>
      </trkpt>
      <trkpt lat="41.888981033116579" lon="-1.85859801247716">
        <ele>801.29999999999995</ele>
        <time>2018-05-29T06:36:13Z</time>
      </trkpt>
      <trkpt lat="41.889040963724256" lon="-1.85866397805512">
        <ele>801.29999999999995</ele>
        <time>2018-05-29T06:36:15Z</time>
      </trkpt>
      <trkpt lat="41.889137020334601" lon="-1.858716029673815">
        <ele>801.5</ele>
        <time>2018-05-29T06:36:18Z</time>
      </trkpt>
      <trkpt lat="41.889238022267818" lon="-1.858760034665465">
        <ele>801.60000000000002</ele>
        <time>2018-05-29T06:36:21Z</time>
      </trkpt>
      <trkpt lat="41.88934899866581" lon="-1.858804039657116">
        <ele>801.79999999999995</ele>
        <time>2018-05-29T06:36:25Z</time>
      </trkpt>
      <trkpt lat="41.889472967013717" lon="-1.858830023556948">
        <ele>801.89999999999998</ele>
        <time>2018-05-29T06:36:29Z</time>
      </trkpt>
      <trkpt lat="41.889577992260456" lon="-1.858846032992005">
        <ele>802</ele>
        <time>2018-05-29T06:36:32Z</time>
      </trkpt>
      <trkpt lat="41.889674970880151" lon="-1.858863970264792">
        <ele>802</ele>
        <time>2018-05-29T06:36:35Z</time>
      </trkpt>
      <trkpt lat="41.88977999612689" lon="-1.858903029933572">
        <ele>801.89999999999998</ele>
        <time>2018-05-29T06:36:38Z</time>
      </trkpt>
      <trkpt lat="41.889869011938572" lon="-1.8589430116117">
        <ele>801.79999999999995</ele>
        <time>2018-05-29T06:36:41Z</time>
      </trkpt>
      <trkpt lat="41.889963978901505" lon="-1.858960026875138">
        <ele>801.70000000000005</ele>
        <time>2018-05-29T06:36:43Z</time>
      </trkpt>
      <trkpt lat="41.890056012198329" lon="-1.858983999118209">
        <ele>801.5</ele>
        <time>2018-05-29T06:36:46Z</time>
      </trkpt>
      <trkpt lat="41.890158019959927" lon="-1.859015012159944">
        <ele>801.29999999999995</ele>
        <time>2018-05-29T06:36:49Z</time>
      </trkpt>
      <trkpt lat="41.890276959165931" lon="-1.859059017151594">
        <ele>801.10000000000002</ele>
        <time>2018-05-29T06:36:53Z</time>
      </trkpt>
      <trkpt lat="41.890405034646392" lon="-1.859103022143245">
        <ele>800.70000000000005</ele>
        <time>2018-05-29T06:36:57Z</time>
      </trkpt>
      <trkpt lat="41.890519028529525" lon="-1.859176028519869">
        <ele>800.29999999999995</ele>
        <time>2018-05-29T06:37:01Z</time>
      </trkpt>
      <trkpt lat="41.890636039897799" lon="-1.859186002984643">
        <ele>800</ele>
        <time>2018-05-29T06:37:04Z</time>
      </trkpt>
      <trkpt lat="41.890747016295791" lon="-1.859160019084811">
        <ele>799.89999999999998</ele>
        <time>2018-05-29T06:37:07Z</time>
      </trkpt>
      <trkpt lat="41.89085204154253" lon="-1.859124982729554">
        <ele>799.79999999999995</ele>
        <time>2018-05-29T06:37:11Z</time>
      </trkpt>
      <trkpt lat="41.89094097353518" lon="-1.85907200910151">
        <ele>799.79999999999995</ele>
        <time>2018-05-29T06:37:14Z</time>
      </trkpt>
      <trkpt lat="41.891038035973907" lon="-1.859040996059775">
        <ele>799.70000000000005</ele>
        <time>2018-05-29T06:37:16Z</time>
      </trkpt>
      <trkpt lat="41.891154963523149" lon="-1.859020963311195">
        <ele>799.5</ele>
        <time>2018-05-29T06:37:20Z</time>
      </trkpt>
      <trkpt lat="41.891283961012959" lon="-1.859013000503182">
        <ele>799.29999999999995</ele>
        <time>2018-05-29T06:37:24Z</time>
      </trkpt>
      <trkpt lat="41.891382029280066" lon="-1.859009983018041">
        <ele>799.20000000000005</ele>
        <time>2018-05-29T06:37:27Z</time>
      </trkpt>
      <trkpt lat="41.891472972929478" lon="-1.859018029645085">
        <ele>799.10000000000002</ele>
        <time>2018-05-29T06:37:29Z</time>
      </trkpt>
      <trkpt lat="41.891589984297752" lon="-1.859037978574634">
        <ele>798.89999999999998</ele>
        <time>2018-05-29T06:37:33Z</time>
      </trkpt>
      <trkpt lat="41.891711018979549" lon="-1.859036972746253">
        <ele>798.79999999999995</ele>
        <time>2018-05-29T06:37:36Z</time>
      </trkpt>
      <trkpt lat="41.891815960407257" lon="-1.859034039080143">
        <ele>798.60000000000002</ele>
        <time>2018-05-29T06:37:40Z</time>
      </trkpt>
      <trkpt lat="41.891932971775532" lon="-1.859030015766621">
        <ele>798.5</ele>
        <time>2018-05-29T06:37:43Z</time>
      </trkpt>
      <trkpt lat="41.892049983143806" lon="-1.858987016603351">
        <ele>798.5</ele>
        <time>2018-05-29T06:37:47Z</time>
      </trkpt>
      <trkpt lat="41.892149979248643" lon="-1.858948040753603">
        <ele>798.39999999999998</ele>
        <time>2018-05-29T06:37:50Z</time>
      </trkpt>
      <trkpt lat="41.892247041687369" lon="-1.858882997184992">
        <ele>798.29999999999995</ele>
        <time>2018-05-29T06:37:53Z</time>
      </trkpt>
      <trkpt lat="41.89235701225698" lon="-1.85883304104209">
        <ele>798.20000000000005</ele>
        <time>2018-05-29T06:37:56Z</time>
      </trkpt>
      <trkpt lat="41.892445022240281" lon="-1.858763974159956">
        <ele>798.10000000000002</ele>
        <time>2018-05-29T06:37:59Z</time>
      </trkpt>
      <trkpt lat="41.892524985596538" lon="-1.8586649838835">
        <ele>797.89999999999998</ele>
        <time>2018-05-29T06:38:03Z</time>
      </trkpt>
      <trkpt lat="41.892610983923078" lon="-1.858602035790682">
        <ele>797.70000000000005</ele>
        <time>2018-05-29T06:38:06Z</time>
      </trkpt>
      <trkpt lat="41.892706034705043" lon="-1.858549984171987">
        <ele>797.5</ele>
        <time>2018-05-29T06:38:09Z</time>
      </trkpt>
      <trkpt lat="41.892814999446273" lon="-1.858516959473491">
        <ele>797.20000000000005</ele>
        <time>2018-05-29T06:38:12Z</time>
      </trkpt>
      <trkpt lat="41.892918013036251" lon="-1.858485024422407">
        <ele>797</ele>
        <time>2018-05-29T06:38:15Z</time>
      </trkpt>
      <trkpt lat="41.893014991655946" lon="-1.858441019430757">
        <ele>796.79999999999995</ele>
        <time>2018-05-29T06:38:18Z</time>
      </trkpt>
      <trkpt lat="41.893100989982486" lon="-1.858386034145951">
        <ele>796.60000000000002</ele>
        <time>2018-05-29T06:38:21Z</time>
      </trkpt>
      <trkpt lat="41.893182964995503" lon="-1.858316967263818">
        <ele>796.29999999999995</ele>
        <time>2018-05-29T06:38:24Z</time>
      </trkpt>
      <trkpt lat="41.893257983028889" lon="-1.858230968937278">
        <ele>796.10000000000002</ele>
        <time>2018-05-29T06:38:27Z</time>
      </trkpt>
      <trkpt lat="41.89332596026361" lon="-1.85812896117568">
        <ele>795.79999999999995</ele>
        <time>2018-05-29T06:38:30Z</time>
      </trkpt>
      <trkpt lat="41.893396032974124" lon="-1.858023013919592">
        <ele>795.39999999999998</ele>
        <time>2018-05-29T06:38:33Z</time>
      </trkpt>
      <trkpt lat="41.893474990502" lon="-1.857924023643136">
        <ele>795</ele>
        <time>2018-05-29T06:38:36Z</time>
      </trkpt>
      <trkpt lat="41.8935820274055" lon="-1.857863003388047">
        <ele>794.29999999999995</ele>
        <time>2018-05-29T06:38:39Z</time>
      </trkpt>
      <trkpt lat="41.893685963004827" lon="-1.857826039195061">
        <ele>793.70000000000005</ele>
        <time>2018-05-29T06:38:43Z</time>
      </trkpt>
      <trkpt lat="41.893791994079947" lon="-1.85782796703279">
        <ele>793.29999999999995</ele>
        <time>2018-05-29T06:38:46Z</time>
      </trkpt>
      <trkpt lat="41.893899030983448" lon="-1.857858980074525">
        <ele>792.89999999999998</ele>
        <time>2018-05-29T06:38:49Z</time>
      </trkpt>
      <trkpt lat="41.89399198628962" lon="-1.85791295953095">
        <ele>792.79999999999995</ele>
        <time>2018-05-29T06:38:52Z</time>
      </trkpt>
      <trkpt lat="41.894102040678263" lon="-1.857964005321264">
        <ele>792.39999999999998</ele>
        <time>2018-05-29T06:38:56Z</time>
      </trkpt>
      <trkpt lat="41.894194995984435" lon="-1.858015973120928">
        <ele>792.20000000000005</ele>
        <time>2018-05-29T06:38:58Z</time>
      </trkpt>
      <trkpt lat="41.894290968775749" lon="-1.858057966455817">
        <ele>791.89999999999998</ele>
        <time>2018-05-29T06:39:01Z</time>
      </trkpt>
      <trkpt lat="41.894393982365727" lon="-1.858094008639455">
        <ele>791.5</ele>
        <time>2018-05-29T06:39:05Z</time>
      </trkpt>
      <trkpt lat="41.894508982077241" lon="-1.858129967004061">
        <ele>791.10000000000002</ele>
        <time>2018-05-29T06:39:08Z</time>
      </trkpt>
      <trkpt lat="41.894619958475232" lon="-1.858157962560654">
        <ele>790.60000000000002</ele>
        <time>2018-05-29T06:39:11Z</time>
      </trkpt>
      <trkpt lat="41.894730012863874" lon="-1.85814798809588">
        <ele>789.60000000000002</ele>
        <time>2018-05-29T06:39:15Z</time>
      </trkpt>
      <trkpt lat="41.894834032282233" lon="-1.858102977275848">
        <ele>788.5</ele>
        <time>2018-05-29T06:39:18Z</time>
      </trkpt>
      <trkpt lat="41.894932016730309" lon="-1.858045980334282">
        <ele>787.29999999999995</ele>
        <time>2018-05-29T06:39:21Z</time>
      </trkpt>
      <trkpt lat="41.895027989521623" lon="-1.857993006706238">
        <ele>786.20000000000005</ele>
        <time>2018-05-29T06:39:24Z</time>
      </trkpt>
      <trkpt lat="41.895124968141317" lon="-1.857941960915923">
        <ele>784.89999999999998</ele>
        <time>2018-05-29T06:39:27Z</time>
      </trkpt>
      <trkpt lat="41.895224964246154" lon="-1.857894016429782">
        <ele>783.79999999999995</ele>
        <time>2018-05-29T06:39:31Z</time>
      </trkpt>
      <trkpt lat="41.895325966179371" lon="-1.857852023094893">
        <ele>782.89999999999998</ele>
        <time>2018-05-29T06:39:34Z</time>
      </trkpt>
      <trkpt lat="41.895426968112588" lon="-1.857797037810087">
        <ele>782.10000000000002</ele>
        <time>2018-05-29T06:39:37Z</time>
      </trkpt>
      <trkpt lat="41.895526964217424" lon="-1.857735011726618">
        <ele>781.79999999999995</ele>
        <time>2018-05-29T06:39:40Z</time>
      </trkpt>
      <trkpt lat="41.89562302082777" lon="-1.857664017006755">
        <ele>781.39999999999998</ele>
        <time>2018-05-29T06:39:43Z</time>
      </trkpt>
      <trkpt lat="41.895712036639452" lon="-1.857580030336976">
        <ele>781.10000000000002</ele>
        <time>2018-05-29T06:39:47Z</time>
      </trkpt>
      <trkpt lat="41.895801974460483" lon="-1.857495959848166">
        <ele>780.70000000000005</ele>
        <time>2018-05-29T06:39:50Z</time>
      </trkpt>
      <trkpt lat="41.895885961130261" lon="-1.857412979006767">
        <ele>780.20000000000005</ele>
        <time>2018-05-29T06:39:53Z</time>
      </trkpt>
      <trkpt lat="41.895968019962311" lon="-1.857339972630143">
        <ele>779.79999999999995</ele>
        <time>2018-05-29T06:39:56Z</time>
      </trkpt>
      <trkpt lat="41.896042032167315" lon="-1.857269983738661">
        <ele>779.39999999999998</ele>
        <time>2018-05-29T06:39:59Z</time>
      </trkpt>
      <trkpt lat="41.896128030493855" lon="-1.857167975977063">
        <ele>778.79999999999995</ele>
        <time>2018-05-29T06:40:02Z</time>
      </trkpt>
      <trkpt lat="41.896207993850112" lon="-1.857089018449187">
        <ele>778.29999999999995</ele>
        <time>2018-05-29T06:40:05Z</time>
      </trkpt>
      <trkpt lat="41.896328022703528" lon="-1.857021041214466">
        <ele>777.89999999999998</ele>
        <time>2018-05-29T06:40:09Z</time>
      </trkpt>
      <trkpt lat="41.896413015201688" lon="-1.856961026787758">
        <ele>777.79999999999995</ele>
        <time>2018-05-29T06:40:12Z</time>
      </trkpt>
      <trkpt lat="41.89650203101337" lon="-1.856906041502953">
        <ele>777.60000000000002</ele>
        <time>2018-05-29T06:40:15Z</time>
      </trkpt>
      <trkpt lat="41.896601021289825" lon="-1.856851978227496">
        <ele>777.5</ele>
        <time>2018-05-29T06:40:18Z</time>
      </trkpt>
      <trkpt lat="41.896702023223042" lon="-1.856801016256213">
        <ele>777.29999999999995</ele>
        <time>2018-05-29T06:40:21Z</time>
      </trkpt>
      <trkpt lat="41.89680595882237" lon="-1.856748964637518">
        <ele>777.10000000000002</ele>
        <time>2018-05-29T06:40:24Z</time>
      </trkpt>
      <trkpt lat="41.896910984069109" lon="-1.856692973524332">
        <ele>776.79999999999995</ele>
        <time>2018-05-29T06:40:28Z</time>
      </trkpt>
      <trkpt lat="41.896992959082127" lon="-1.856615021824837">
        <ele>776.60000000000002</ele>
        <time>2018-05-29T06:40:31Z</time>
      </trkpt>
      <trkpt lat="41.897050961852074" lon="-1.85649398714304">
        <ele>776.39999999999998</ele>
        <time>2018-05-29T06:40:34Z</time>
      </trkpt>
      <trkpt lat="41.897114999592304" lon="-1.856411006301642">
        <ele>776</ele>
        <time>2018-05-29T06:40:36Z</time>
      </trkpt>
      <trkpt lat="41.897195968776941" lon="-1.856345040723681">
        <ele>775.39999999999998</ele>
        <time>2018-05-29T06:40:39Z</time>
      </trkpt>
      <trkpt lat="41.897304011508822" lon="-1.856286032125354">
        <ele>774.70000000000005</ele>
        <time>2018-05-29T06:40:43Z</time>
      </trkpt>
      <trkpt lat="41.897391015663743" lon="-1.856244960799813">
        <ele>774.10000000000002</ele>
        <time>2018-05-29T06:40:45Z</time>
      </trkpt>
      <trkpt lat="41.89747097902" lon="-1.856187041848898">
        <ele>773.5</ele>
        <time>2018-05-29T06:40:48Z</time>
      </trkpt>
      <trkpt lat="41.897556977346539" lon="-1.8560850340873">
        <ele>772.79999999999995</ele>
        <time>2018-05-29T06:40:51Z</time>
      </trkpt>
      <trkpt lat="41.897639036178589" lon="-1.855971962213516">
        <ele>772</ele>
        <time>2018-05-29T06:40:55Z</time>
      </trkpt>
      <trkpt lat="41.897703995928168" lon="-1.855841036885977">
        <ele>771.29999999999995</ele>
        <time>2018-05-29T06:40:58Z</time>
      </trkpt>
      <trkpt lat="41.897749006748199" lon="-1.855736011639237">
        <ele>770.79999999999995</ele>
        <time>2018-05-29T06:41:01Z</time>
      </trkpt>
      <trkpt lat="41.897811032831669" lon="-1.855624029412866">
        <ele>770.10000000000002</ele>
        <time>2018-05-29T06:41:04Z</time>
      </trkpt>
      <trkpt lat="41.897885967046022" lon="-1.855511041358113">
        <ele>769.39999999999998</ele>
        <time>2018-05-29T06:41:08Z</time>
      </trkpt>
      <trkpt lat="41.897952016443014" lon="-1.855407021939755">
        <ele>768.79999999999995</ele>
        <time>2018-05-29T06:41:11Z</time>
      </trkpt>
      <trkpt lat="41.898004990071058" lon="-1.855307025834918">
        <ele>768.20000000000005</ele>
        <time>2018-05-29T06:41:13Z</time>
      </trkpt>
      <trkpt lat="41.898097023367882" lon="-1.855208035558462">
        <ele>767.5</ele>
        <time>2018-05-29T06:41:17Z</time>
      </trkpt>
      <trkpt lat="41.898188972845674" lon="-1.855165036395192">
        <ele>767</ele>
        <time>2018-05-29T06:41:20Z</time>
      </trkpt>
      <trkpt lat="41.898314030840993" lon="-1.855180962011218">
        <ele>766.5</ele>
        <time>2018-05-29T06:41:23Z</time>
      </trkpt>
      <trkpt lat="41.898403968662024" lon="-1.855164030566812">
        <ele>766.10000000000002</ele>
        <time>2018-05-29T06:41:26Z</time>
      </trkpt>
      <trkpt lat="41.898489966988564" lon="-1.855125976726413">
        <ele>765.70000000000005</ele>
        <time>2018-05-29T06:41:29Z</time>
      </trkpt>
      <trkpt lat="41.898563979193568" lon="-1.855036038905382">
        <ele>765.20000000000005</ele>
        <time>2018-05-29T06:41:32Z</time>
      </trkpt>
      <trkpt lat="41.898643020540476" lon="-1.85492598451674">
        <ele>764.79999999999995</ele>
        <time>2018-05-29T06:41:35Z</time>
      </trkpt>
      <trkpt lat="41.898743016645312" lon="-1.854847026988864">
        <ele>764.29999999999995</ele>
        <time>2018-05-29T06:41:38Z</time>
      </trkpt>
      <trkpt lat="41.898849969729781" lon="-1.85481802560389">
        <ele>763.60000000000002</ele>
        <time>2018-05-29T06:41:42Z</time>
      </trkpt>
      <trkpt lat="41.898940997198224" lon="-1.854795981198549">
        <ele>762.89999999999998</ele>
        <time>2018-05-29T06:41:44Z</time>
      </trkpt>
      <trkpt lat="41.899026995524764" lon="-1.854706965386868">
        <ele>762.20000000000005</ele>
        <time>2018-05-29T06:41:48Z</time>
      </trkpt>
      <trkpt lat="41.899087009951472" lon="-1.854607975110412">
        <ele>761.60000000000002</ele>
        <time>2018-05-29T06:41:51Z</time>
      </trkpt>
      <trkpt lat="41.899174014106393" lon="-1.854503033682704">
        <ele>760.89999999999998</ele>
        <time>2018-05-29T06:41:54Z</time>
      </trkpt>
      <trkpt lat="41.899267975240946" lon="-1.854449976235628">
        <ele>760.20000000000005</ele>
        <time>2018-05-29T06:41:57Z</time>
      </trkpt>
      <trkpt lat="41.899366965517402" lon="-1.854416029527783">
        <ele>759.60000000000002</ele>
        <time>2018-05-29T06:42:00Z</time>
      </trkpt>
      <trkpt lat="41.899468973278999" lon="-1.854372024536133">
        <ele>758.89999999999998</ele>
        <time>2018-05-29T06:42:03Z</time>
      </trkpt>
      <trkpt lat="41.899581039324403" lon="-1.854321984574199">
        <ele>758.29999999999995</ele>
        <time>2018-05-29T06:42:07Z</time>
      </trkpt>
      <trkpt lat="41.89968598075211" lon="-1.85428099706769">
        <ele>758</ele>
        <time>2018-05-29T06:42:10Z</time>
      </trkpt>
      <trkpt lat="41.899773990735412" lon="-1.854249984025955">
        <ele>757.70000000000005</ele>
        <time>2018-05-29T06:42:13Z</time>
      </trkpt>
      <trkpt lat="41.899871975183487" lon="-1.854241015389562">
        <ele>757.39999999999998</ele>
        <time>2018-05-29T06:42:16Z</time>
      </trkpt>
      <trkpt lat="41.899967025965452" lon="-1.854231040924788">
        <ele>757</ele>
        <time>2018-05-29T06:42:18Z</time>
      </trkpt>
      <trkpt lat="41.900058975443244" lon="-1.854214025661349">
        <ele>756.70000000000005</ele>
        <time>2018-05-29T06:42:21Z</time>
      </trkpt>
      <trkpt lat="41.900171963497996" lon="-1.854170020669699">
        <ele>756.39999999999998</ele>
        <time>2018-05-29T06:42:25Z</time>
      </trkpt>
      <trkpt lat="41.900257039815187" lon="-1.854118974879384">
        <ele>756.10000000000002</ele>
        <time>2018-05-29T06:42:27Z</time>
      </trkpt>
      <trkpt lat="41.900356030091643" lon="-1.85404596850276">
        <ele>755.89999999999998</ele>
        <time>2018-05-29T06:42:31Z</time>
      </trkpt>
      <trkpt lat="41.900442028418183" lon="-1.853998024016619">
        <ele>755.60000000000002</ele>
        <time>2018-05-29T06:42:34Z</time>
      </trkpt>
      <trkpt lat="41.900525009259582" lon="-1.853926023468375">
        <ele>755.5</ele>
        <time>2018-05-29T06:42:36Z</time>
      </trkpt>
      <trkpt lat="41.900606984272599" lon="-1.853847987949848">
        <ele>755.29999999999995</ele>
        <time>2018-05-29T06:42:39Z</time>
      </trkpt>
      <trkpt lat="41.900697005912662" lon="-1.853780010715127">
        <ele>755</ele>
        <time>2018-05-29T06:42:42Z</time>
      </trkpt>
      <trkpt lat="41.900790967047215" lon="-1.853698035702109">
        <ele>754.60000000000002</ele>
        <time>2018-05-29T06:42:46Z</time>
      </trkpt>
      <trkpt lat="41.900871014222503" lon="-1.853626035153866">
        <ele>754.20000000000005</ele>
        <time>2018-05-29T06:42:49Z</time>
      </trkpt>
      <trkpt lat="41.900935973972082" lon="-1.853540036827326">
        <ele>753.89999999999998</ele>
        <time>2018-05-29T06:42:51Z</time>
      </trkpt>
      <trkpt lat="41.901018032804132" lon="-1.853482034057379">
        <ele>753.5</ele>
        <time>2018-05-29T06:42:54Z</time>
      </trkpt>
      <trkpt lat="41.901120962575078" lon="-1.853453032672405">
        <ele>753.10000000000002</ele>
        <time>2018-05-29T06:42:57Z</time>
      </trkpt>
      <trkpt lat="41.901219030842185" lon="-1.853425959125161">
        <ele>752.70000000000005</ele>
        <time>2018-05-29T06:43:00Z</time>
      </trkpt>
      <trkpt lat="41.901304023340344" lon="-1.853377008810639">
        <ele>752.29999999999995</ele>
        <time>2018-05-29T06:43:03Z</time>
      </trkpt>
      <trkpt lat="41.901388010010123" lon="-1.853293022140861">
        <ele>751.79999999999995</ele>
        <time>2018-05-29T06:43:06Z</time>
      </trkpt>
      <trkpt lat="41.901436038315296" lon="-1.853179028257728">
        <ele>751.39999999999998</ele>
        <time>2018-05-29T06:43:09Z</time>
      </trkpt>
      <trkpt lat="41.901476019993424" lon="-1.85305698774755">
        <ele>751.10000000000002</ele>
        <time>2018-05-29T06:43:12Z</time>
      </trkpt>
      <trkpt lat="41.901537962257862" lon="-1.852964032441378">
        <ele>750.70000000000005</ele>
        <time>2018-05-29T06:43:15Z</time>
      </trkpt>
      <trkpt lat="41.901621026918292" lon="-1.852863030508161">
        <ele>750.20000000000005</ele>
        <time>2018-05-29T06:43:18Z</time>
      </trkpt>
      <trkpt lat="41.90172303467989" lon="-1.852775020524859">
        <ele>749.60000000000002</ele>
        <time>2018-05-29T06:43:22Z</time>
      </trkpt>
      <trkpt lat="41.901815989986062" lon="-1.852701008319855">
        <ele>749</ele>
        <time>2018-05-29T06:43:25Z</time>
      </trkpt>
      <trkpt lat="41.901913974434137" lon="-1.852607969194651">
        <ele>748.39999999999998</ele>
        <time>2018-05-29T06:43:28Z</time>
      </trkpt>
      <trkpt lat="41.902002990245819" lon="-1.852513002231717">
        <ele>747.89999999999998</ele>
        <time>2018-05-29T06:43:32Z</time>
      </trkpt>
      <trkpt lat="41.902083037421107" lon="-1.852439995855093">
        <ele>747.39999999999998</ele>
        <time>2018-05-29T06:43:35Z</time>
      </trkpt>
      <trkpt lat="41.902179010212421" lon="-1.852342011407018">
        <ele>747.20000000000005</ele>
        <time>2018-05-29T06:43:38Z</time>
      </trkpt>
      <trkpt lat="41.902274983003736" lon="-1.85228300280869">
        <ele>747</ele>
        <time>2018-05-29T06:43:41Z</time>
      </trkpt>
      <trkpt lat="41.902352012693882" lon="-1.852185018360615">
        <ele>746.79999999999995</ele>
        <time>2018-05-29T06:43:44Z</time>
      </trkpt>
      <trkpt lat="41.902448991313577" lon="-1.852141013368964">
        <ele>746.60000000000002</ele>
        <time>2018-05-29T06:43:47Z</time>
      </trkpt>
      <trkpt lat="41.902545969933271" lon="-1.85204797424376">
        <ele>746.39999999999998</ele>
        <time>2018-05-29T06:43:51Z</time>
      </trkpt>
      <trkpt lat="41.902630962431431" lon="-1.851941021159291">
        <ele>746.20000000000005</ele>
        <time>2018-05-29T06:43:54Z</time>
      </trkpt>
      <trkpt lat="41.902716960757971" lon="-1.851869020611048">
        <ele>745.89999999999998</ele>
        <time>2018-05-29T06:43:57Z</time>
      </trkpt>
      <trkpt lat="41.90282098017633" lon="-1.851796014234424">
        <ele>745.5</ele>
        <time>2018-05-29T06:44:01Z</time>
      </trkpt>
      <trkpt lat="41.902890969067812" lon="-1.851711021736264">
        <ele>745.20000000000005</ele>
        <time>2018-05-29T06:44:04Z</time>
      </trkpt>
      <trkpt lat="41.902972022071481" lon="-1.851614965125918">
        <ele>744.79999999999995</ele>
        <time>2018-05-29T06:44:07Z</time>
      </trkpt>
      <trkpt lat="41.903045028448105" lon="-1.851498959586024">
        <ele>744.39999999999998</ele>
        <time>2018-05-29T06:44:10Z</time>
      </trkpt>
      <trkpt lat="41.903133038431406" lon="-1.851393012329936">
        <ele>744</ele>
        <time>2018-05-29T06:44:14Z</time>
      </trkpt>
      <trkpt lat="41.903235968202353" lon="-1.851255968213081">
        <ele>743.60000000000002</ele>
        <time>2018-05-29T06:44:18Z</time>
      </trkpt>
      <trkpt lat="41.903345016762614" lon="-1.851109033450484">
        <ele>743.70000000000005</ele>
        <time>2018-05-29T06:44:23Z</time>
      </trkpt>
      <trkpt lat="41.903363037854433" lon="-1.850981963798404">
        <ele>744</ele>
        <time>2018-05-29T06:44:25Z</time>
      </trkpt>
      <trkpt lat="41.903459010645747" lon="-1.850846009328961">
        <ele>744.29999999999995</ele>
        <time>2018-05-29T06:44:30Z</time>
      </trkpt>
      <trkpt lat="41.903561018407345" lon="-1.850723968818784">
        <ele>744.70000000000005</ele>
        <time>2018-05-29T06:44:34Z</time>
      </trkpt>
      <trkpt lat="41.903624972328544" lon="-1.85056303627789">
        <ele>745.29999999999995</ele>
        <time>2018-05-29T06:44:38Z</time>
      </trkpt>
      <trkpt lat="41.903684986755252" lon="-1.850411994382739">
        <ele>745.89999999999998</ele>
        <time>2018-05-29T06:44:41Z</time>
      </trkpt>
      <trkpt lat="41.903752963989973" lon="-1.85026103630662">
        <ele>746.89999999999998</ele>
        <time>2018-05-29T06:44:45Z</time>
      </trkpt>
      <trkpt lat="41.903809038922191" lon="-1.850107982754707">
        <ele>747.89999999999998</ele>
        <time>2018-05-29T06:44:49Z</time>
      </trkpt>
      <trkpt lat="41.903838962316513" lon="-1.849954007193446">
        <ele>748.79999999999995</ele>
        <time>2018-05-29T06:44:53Z</time>
      </trkpt>
      <trkpt lat="41.903893025591969" lon="-1.849825009703636">
        <ele>749.5</ele>
        <time>2018-05-29T06:44:56Z</time>
      </trkpt>
      <trkpt lat="41.903953962028027" lon="-1.8497059866786">
        <ele>750.10000000000002</ele>
        <time>2018-05-29T06:44:59Z</time>
      </trkpt>
      <trkpt lat="41.904026968404651" lon="-1.849583024159074">
        <ele>750.70000000000005</ele>
        <time>2018-05-29T06:45:03Z</time>
      </trkpt>
      <trkpt lat="41.904108021408319" lon="-1.849444974213839">
        <ele>751.29999999999995</ele>
        <time>2018-05-29T06:45:06Z</time>
      </trkpt>
      <trkpt lat="41.904206005856395" lon="-1.849326035007834">
        <ele>751.89999999999998</ele>
        <time>2018-05-29T06:45:10Z</time>
      </trkpt>
      <trkpt lat="41.904304996132851" lon="-1.849229978397489">
        <ele>752.5</ele>
        <time>2018-05-29T06:45:14Z</time>
      </trkpt>
      <trkpt lat="41.904388982802629" lon="-1.849149009212852">
        <ele>753</ele>
        <time>2018-05-29T06:45:17Z</time>
      </trkpt>
      <trkpt lat="41.904471963644028" lon="-1.849025040864945">
        <ele>753.89999999999998</ele>
        <time>2018-05-29T06:45:21Z</time>
      </trkpt>
      <trkpt lat="41.904516974464059" lon="-1.848895959556103">
        <ele>754.79999999999995</ele>
        <time>2018-05-29T06:45:24Z</time>
      </trkpt>
      <trkpt lat="41.904545975849032" lon="-1.848762016743422">
        <ele>755.79999999999995</ele>
        <time>2018-05-29T06:45:27Z</time>
      </trkpt>
      <trkpt lat="41.904584029689431" lon="-1.848614998161793">
        <ele>756</ele>
        <time>2018-05-29T06:45:30Z</time>
      </trkpt>
      <trkpt lat="41.904630968347192" lon="-1.848461022600532">
        <ele>755.79999999999995</ele>
        <time>2018-05-29T06:45:34Z</time>
      </trkpt>
      <trkpt lat="41.904672961682081" lon="-1.84830604121089">
        <ele>755.70000000000005</ele>
        <time>2018-05-29T06:45:38Z</time>
      </trkpt>
      <trkpt lat="41.904717972502112" lon="-1.848156005144119">
        <ele>755.5</ele>
        <time>2018-05-29T06:45:41Z</time>
      </trkpt>
      <trkpt lat="41.904771029949188" lon="-1.847995994612575">
        <ele>755.29999999999995</ele>
        <time>2018-05-29T06:45:45Z</time>
      </trkpt>
      <trkpt lat="41.904816962778568" lon="-1.847832966595888">
        <ele>755.20000000000005</ele>
        <time>2018-05-29T06:45:49Z</time>
      </trkpt>
      <trkpt lat="41.904844036325812" lon="-1.847661975771189">
        <ele>755.10000000000002</ele>
        <time>2018-05-29T06:45:53Z</time>
      </trkpt>
      <trkpt lat="41.904848981648684" lon="-1.847541024908423">
        <ele>755</ele>
        <time>2018-05-29T06:45:55Z</time>
      </trkpt>
      <trkpt lat="41.904859039932489" lon="-1.847417978569865">
        <ele>755</ele>
        <time>2018-05-29T06:45:58Z</time>
      </trkpt>
      <trkpt lat="41.904878988862038" lon="-1.847298033535481">
        <ele>754.89999999999998</ele>
        <time>2018-05-29T06:46:01Z</time>
      </trkpt>
      <trkpt lat="41.904915031045675" lon="-1.847181022167206">
        <ele>754.79999999999995</ele>
        <time>2018-05-29T06:46:04Z</time>
      </trkpt>
      <trkpt lat="41.904958030208945" lon="-1.847068034112454">
        <ele>754.60000000000002</ele>
        <time>2018-05-29T06:46:07Z</time>
      </trkpt>
      <trkpt lat="41.905007986351848" lon="-1.846954962238669">
        <ele>754.5</ele>
        <time>2018-05-29T06:46:09Z</time>
      </trkpt>
      <trkpt lat="41.905066994950175" lon="-1.846851026639342">
        <ele>754.29999999999995</ele>
        <time>2018-05-29T06:46:12Z</time>
      </trkpt>
      <trkpt lat="41.905124997720122" lon="-1.846751030534506">
        <ele>754.20000000000005</ele>
        <time>2018-05-29T06:46:15Z</time>
      </trkpt>
      <trkpt lat="41.905178977176547" lon="-1.846646005287767">
        <ele>754.10000000000002</ele>
        <time>2018-05-29T06:46:18Z</time>
      </trkpt>
      <trkpt lat="41.905233962461352" lon="-1.846533017233014">
        <ele>754</ele>
        <time>2018-05-29T06:46:21Z</time>
      </trkpt>
      <trkpt lat="41.905288025736809" lon="-1.846419023349881">
        <ele>754</ele>
        <time>2018-05-29T06:46:24Z</time>
      </trkpt>
      <trkpt lat="41.905348040163517" lon="-1.846305029466748">
        <ele>754</ele>
        <time>2018-05-29T06:46:27Z</time>
      </trkpt>
      <trkpt lat="41.905411994084716" lon="-1.846191035583615">
        <ele>754.10000000000002</ele>
        <time>2018-05-29T06:46:30Z</time>
      </trkpt>
      <trkpt lat="41.905486006289721" lon="-1.846089027822018">
        <ele>754.20000000000005</ele>
        <time>2018-05-29T06:46:33Z</time>
      </trkpt>
      <trkpt lat="41.905561024323106" lon="-1.845988025888801">
        <ele>754.29999999999995</ele>
        <time>2018-05-29T06:46:36Z</time>
      </trkpt>
      <trkpt lat="41.905633024871349" lon="-1.845887023955584">
        <ele>754.39999999999998</ele>
        <time>2018-05-29T06:46:39Z</time>
      </trkpt>
      <trkpt lat="41.905705025419593" lon="-1.845786022022367">
        <ele>754.60000000000002</ele>
        <time>2018-05-29T06:46:43Z</time>
      </trkpt>
      <trkpt lat="41.905774008482695" lon="-1.84568602591753">
        <ele>754.70000000000005</ele>
        <time>2018-05-29T06:46:46Z</time>
      </trkpt>
      <trkpt lat="41.905838968232274" lon="-1.84557999484241">
        <ele>754.79999999999995</ele>
        <time>2018-05-29T06:46:49Z</time>
      </trkpt>
      <trkpt lat="41.905900994315743" lon="-1.845469018444419">
        <ele>754.89999999999998</ele>
        <time>2018-05-29T06:46:52Z</time>
      </trkpt>
      <trkpt lat="41.905961008742452" lon="-1.845353012904525">
        <ele>755</ele>
        <time>2018-05-29T06:46:55Z</time>
      </trkpt>
      <trkpt lat="41.906015994027257" lon="-1.845231978222728">
        <ele>755.20000000000005</ele>
        <time>2018-05-29T06:46:58Z</time>
      </trkpt>
      <trkpt lat="41.906066033989191" lon="-1.845113039016724">
        <ele>755.29999999999995</ele>
        <time>2018-05-29T06:47:01Z</time>
      </trkpt>
      <trkpt lat="41.90610802732408" lon="-1.84499996714294">
        <ele>755.39999999999998</ele>
        <time>2018-05-29T06:47:04Z</time>
      </trkpt>
      <trkpt lat="41.906158989295363" lon="-1.844840962439776">
        <ele>755.60000000000002</ele>
        <time>2018-05-29T06:47:08Z</time>
      </trkpt>
      <trkpt lat="41.90621598623693" lon="-1.844695033505559">
        <ele>755.79999999999995</ele>
        <time>2018-05-29T06:47:11Z</time>
      </trkpt>
      <trkpt lat="41.906269965693355" lon="-1.844564024358988">
        <ele>756.10000000000002</ele>
        <time>2018-05-29T06:47:14Z</time>
      </trkpt>
      <trkpt lat="41.90632201731205" lon="-1.844423962756991">
        <ele>756.60000000000002</ele>
        <time>2018-05-29T06:47:18Z</time>
      </trkpt>
      <trkpt lat="41.906384965404868" lon="-1.844316003844142">
        <ele>757</ele>
        <time>2018-05-29T06:47:21Z</time>
      </trkpt>
      <trkpt lat="41.90645202063024" lon="-1.844222964718938">
        <ele>757.29999999999995</ele>
        <time>2018-05-29T06:47:24Z</time>
      </trkpt>
      <trkpt lat="41.906541036441922" lon="-1.844113999977708">
        <ele>757.70000000000005</ele>
        <time>2018-05-29T06:47:27Z</time>
      </trkpt>
      <trkpt lat="41.90662401728332" lon="-1.843992965295911">
        <ele>758.10000000000002</ele>
        <time>2018-05-29T06:47:31Z</time>
      </trkpt>
      <trkpt lat="41.906695012003183" lon="-1.843851981684566">
        <ele>758.60000000000002</ele>
        <time>2018-05-29T06:47:35Z</time>
      </trkpt>
      <trkpt lat="41.906749997287989" lon="-1.843727007508278">
        <ele>759.10000000000002</ele>
        <time>2018-05-29T06:47:38Z</time>
      </trkpt>
      <trkpt lat="41.906791990622878" lon="-1.843587029725313">
        <ele>759.79999999999995</ele>
        <time>2018-05-29T06:47:41Z</time>
      </trkpt>
      <trkpt lat="41.90683901309967" lon="-1.84342903085053">
        <ele>760.39999999999998</ele>
        <time>2018-05-29T06:47:45Z</time>
      </trkpt>
      <trkpt lat="41.906888969242573" lon="-1.843274971470237">
        <ele>760.89999999999998</ele>
        <time>2018-05-29T06:47:49Z</time>
      </trkpt>
      <trkpt lat="41.906943032518029" lon="-1.843118984252214">
        <ele>761.29999999999995</ele>
        <time>2018-05-29T06:47:53Z</time>
      </trkpt>
      <trkpt lat="41.907001035287976" lon="-1.842976994812489">
        <ele>761.39999999999998</ele>
        <time>2018-05-29T06:47:56Z</time>
      </trkpt>
      <trkpt lat="41.907060965895653" lon="-1.842831987887621">
        <ele>761.5</ele>
        <time>2018-05-29T06:48:00Z</time>
      </trkpt>
      <trkpt lat="41.907112011685967" lon="-1.842726962640882">
        <ele>761.60000000000002</ele>
        <time>2018-05-29T06:48:03Z</time>
      </trkpt>
      <trkpt lat="41.90716003999114" lon="-1.842611962929368">
        <ele>761.79999999999995</ele>
        <time>2018-05-29T06:48:05Z</time>
      </trkpt>
      <trkpt lat="41.907209996134043" lon="-1.842496041208506">
        <ele>762.10000000000002</ele>
        <time>2018-05-29T06:48:08Z</time>
      </trkpt>
      <trkpt lat="41.907257018610835" lon="-1.842372994869947">
        <ele>762.29999999999995</ele>
        <time>2018-05-29T06:48:11Z</time>
      </trkpt>
      <trkpt lat="41.907308986410499" lon="-1.84225196018815">
        <ele>762.39999999999998</ele>
        <time>2018-05-29T06:48:15Z</time>
      </trkpt>
      <trkpt lat="41.90737402997911" lon="-1.842138972133398">
        <ele>762.39999999999998</ele>
        <time>2018-05-29T06:48:18Z</time>
      </trkpt>
      <trkpt lat="41.907446030527353" lon="-1.842035036534071">
        <ele>762.29999999999995</ele>
        <time>2018-05-29T06:48:21Z</time>
      </trkpt>
      <trkpt lat="41.90750596113503" lon="-1.841930011287332">
        <ele>762</ele>
        <time>2018-05-29T06:48:24Z</time>
      </trkpt>
      <trkpt lat="41.907563963904977" lon="-1.84181903488934">
        <ele>761.70000000000005</ele>
        <time>2018-05-29T06:48:27Z</time>
      </trkpt>
      <trkpt lat="41.907620960846543" lon="-1.841703029349446">
        <ele>761.60000000000002</ele>
        <time>2018-05-29T06:48:30Z</time>
      </trkpt>
      <trkpt lat="41.907679969444871" lon="-1.841577971354127">
        <ele>761.39999999999998</ele>
        <time>2018-05-29T06:48:33Z</time>
      </trkpt>
      <trkpt lat="41.907746018841863" lon="-1.841457020491362">
        <ele>761.29999999999995</ele>
        <time>2018-05-29T06:48:36Z</time>
      </trkpt>
      <trkpt lat="41.907810978591442" lon="-1.841332968324423">
        <ele>761.20000000000005</ele>
        <time>2018-05-29T06:48:40Z</time>
      </trkpt>
      <trkpt lat="41.907871998846531" lon="-1.841217968612909">
        <ele>761.20000000000005</ele>
        <time>2018-05-29T06:48:43Z</time>
      </trkpt>
      <trkpt lat="41.907941987738013" lon="-1.841115960851312">
        <ele>761.60000000000002</ele>
        <time>2018-05-29T06:48:46Z</time>
      </trkpt>
      <trkpt lat="41.90802002325654" lon="-1.841043038293719">
        <ele>762</ele>
        <time>2018-05-29T06:48:49Z</time>
      </trkpt>
      <trkpt lat="41.908120019361377" lon="-1.840927032753825">
        <ele>762.5</ele>
        <time>2018-05-29T06:48:53Z</time>
      </trkpt>
      <trkpt lat="41.90821498632431" lon="-1.840822007507086">
        <ele>762.89999999999998</ele>
        <time>2018-05-29T06:48:56Z</time>
      </trkpt>
      <trkpt lat="41.908309031277895" lon="-1.840747995302081">
        <ele>763.10000000000002</ele>
        <time>2018-05-29T06:48:59Z</time>
      </trkpt>
      <trkpt lat="41.908402992412448" lon="-1.840668031945825">
        <ele>763.20000000000005</ele>
        <time>2018-05-29T06:49:03Z</time>
      </trkpt>
      <trkpt lat="41.908488990738988" lon="-1.840572981163859">
        <ele>763.29999999999995</ele>
        <time>2018-05-29T06:49:06Z</time>
      </trkpt>
      <trkpt lat="41.90860197879374" lon="-1.840512966737151">
        <ele>763.20000000000005</ele>
        <time>2018-05-29T06:49:10Z</time>
      </trkpt>
      <trkpt lat="41.908651012927294" lon="-1.840396039187908">
        <ele>763.20000000000005</ele>
        <time>2018-05-29T06:49:13Z</time>
      </trkpt>
      <trkpt lat="41.908584963530302" lon="-1.840282967314124">
        <ele>763.5</ele>
        <time>2018-05-29T06:49:16Z</time>
      </trkpt>
      <trkpt lat="41.908509023487568" lon="-1.840198980644345">
        <ele>763.79999999999995</ele>
        <time>2018-05-29T06:49:19Z</time>
      </trkpt>
      <trkpt lat="41.908441968262196" lon="-1.840094961225987">
        <ele>764.20000000000005</ele>
        <time>2018-05-29T06:49:22Z</time>
      </trkpt>
      <trkpt lat="41.908395029604435" lon="-1.839965041726828">
        <ele>764.70000000000005</ele>
        <time>2018-05-29T06:49:25Z</time>
      </trkpt>
      <trkpt lat="41.908353958278894" lon="-1.839846018701792">
        <ele>765.10000000000002</ele>
        <time>2018-05-29T06:49:28Z</time>
      </trkpt>
      <trkpt lat="41.908295033499599" lon="-1.839744010940194">
        <ele>765.70000000000005</ele>
        <time>2018-05-29T06:49:31Z</time>
      </trkpt>
      <trkpt lat="41.908226972445846" lon="-1.83964803814888">
        <ele>766.29999999999995</ele>
        <time>2018-05-29T06:49:34Z</time>
      </trkpt>
      <trkpt lat="41.908151032403111" lon="-1.839551981538534">
        <ele>766.89999999999998</ele>
        <time>2018-05-29T06:49:37Z</time>
      </trkpt>
      <trkpt lat="41.908078026026487" lon="-1.839461959898472">
        <ele>767.10000000000002</ele>
        <time>2018-05-29T06:49:40Z</time>
      </trkpt>
      <trkpt lat="41.907993033528328" lon="-1.83939197100699">
        <ele>767.39999999999998</ele>
        <time>2018-05-29T06:49:43Z</time>
      </trkpt>
      <trkpt lat="41.907885996624827" lon="-1.839329022914171">
        <ele>767.60000000000002</ele>
        <time>2018-05-29T06:49:46Z</time>
      </trkpt>
      <trkpt lat="41.907778959721327" lon="-1.839286023750901">
        <ele>767.39999999999998</ele>
        <time>2018-05-29T06:49:49Z</time>
      </trkpt>
      <trkpt lat="41.907681981101632" lon="-1.83926003985107">
        <ele>767.20000000000005</ele>
        <time>2018-05-29T06:49:52Z</time>
      </trkpt>
      <trkpt lat="41.907586008310318" lon="-1.839211005717516">
        <ele>767.10000000000002</ele>
        <time>2018-05-29T06:49:55Z</time>
      </trkpt>
      <trkpt lat="41.907494980841875" lon="-1.839140010997653">
        <ele>767</ele>
        <time>2018-05-29T06:49:58Z</time>
      </trkpt>
      <trkpt lat="41.907403031364083" lon="-1.839044038206339">
        <ele>767.10000000000002</ele>
        <time>2018-05-29T06:50:02Z</time>
      </trkpt>
      <trkpt lat="41.907332958653569" lon="-1.838945969939232">
        <ele>767.29999999999995</ele>
        <time>2018-05-29T06:50:05Z</time>
      </trkpt>
      <trkpt lat="41.907271016389132" lon="-1.838818984106183">
        <ele>767.60000000000002</ele>
        <time>2018-05-29T06:50:08Z</time>
      </trkpt>
      <trkpt lat="41.907214019447565" lon="-1.838672971352935">
        <ele>767.79999999999995</ele>
        <time>2018-05-29T06:50:12Z</time>
      </trkpt>
      <trkpt lat="41.907145958393812" lon="-1.838556965813041">
        <ele>767.70000000000005</ele>
        <time>2018-05-29T06:50:15Z</time>
      </trkpt>
      <trkpt lat="41.907080998644233" lon="-1.83846602216363">
        <ele>767.70000000000005</ele>
        <time>2018-05-29T06:50:18Z</time>
      </trkpt>
      <trkpt lat="41.90701100975275" lon="-1.83838102966547">
        <ele>767.5</ele>
        <time>2018-05-29T06:50:21Z</time>
      </trkpt>
      <trkpt lat="41.906939009204507" lon="-1.838303999975324">
        <ele>767.39999999999998</ele>
        <time>2018-05-29T06:50:23Z</time>
      </trkpt>
      <trkpt lat="41.906856028363109" lon="-1.838233005255461">
        <ele>767.20000000000005</ele>
        <time>2018-05-29T06:50:26Z</time>
      </trkpt>
      <trkpt lat="41.906767012551427" lon="-1.838177014142275">
        <ele>767.10000000000002</ele>
        <time>2018-05-29T06:50:29Z</time>
      </trkpt>
      <trkpt lat="41.906662993133068" lon="-1.838134014979005">
        <ele>766.89999999999998</ele>
        <time>2018-05-29T06:50:32Z</time>
      </trkpt>
      <trkpt lat="41.906568026170135" lon="-1.838119011372328">
        <ele>766.79999999999995</ele>
        <time>2018-05-29T06:50:35Z</time>
      </trkpt>
      <trkpt lat="41.906476998701692" lon="-1.83805899694562">
        <ele>766.60000000000002</ele>
        <time>2018-05-29T06:50:38Z</time>
      </trkpt>
      <trkpt lat="41.906393012031913" lon="-1.837968975305557">
        <ele>766.29999999999995</ele>
        <time>2018-05-29T06:50:42Z</time>
      </trkpt>
      <trkpt lat="41.906312964856625" lon="-1.83786797337234">
        <ele>765.79999999999995</ele>
        <time>2018-05-29T06:50:45Z</time>
      </trkpt>
      <trkpt lat="41.906240964308381" lon="-1.837764959782362">
        <ele>765.10000000000002</ele>
        <time>2018-05-29T06:50:48Z</time>
      </trkpt>
      <trkpt lat="41.906174998730421" lon="-1.837666975334287">
        <ele>764.70000000000005</ele>
        <time>2018-05-29T06:50:51Z</time>
      </trkpt>
      <trkpt lat="41.906113978475332" lon="-1.837558010593057">
        <ele>764.10000000000002</ele>
        <time>2018-05-29T06:50:54Z</time>
      </trkpt>
      <trkpt lat="41.906052958220243" lon="-1.837462037801743">
        <ele>763.60000000000002</ele>
        <time>2018-05-29T06:50:57Z</time>
      </trkpt>
      <trkpt lat="41.905966959893703" lon="-1.837377967312932">
        <ele>763.20000000000005</ele>
        <time>2018-05-29T06:51:00Z</time>
      </trkpt>
      <trkpt lat="41.905865035951138" lon="-1.837305966764689">
        <ele>762.89999999999998</ele>
        <time>2018-05-29T06:51:03Z</time>
      </trkpt>
      <trkpt lat="41.90576596185565" lon="-1.837213011458516">
        <ele>762.5</ele>
        <time>2018-05-29T06:51:07Z</time>
      </trkpt>
      <trkpt lat="41.905694967135787" lon="-1.837123995646834">
        <ele>761.89999999999998</ele>
        <time>2018-05-29T06:51:10Z</time>
      </trkpt>
      <trkpt lat="41.905610980466008" lon="-1.837033974006772">
        <ele>761.5</ele>
        <time>2018-05-29T06:51:13Z</time>
      </trkpt>
      <trkpt lat="41.905519030988216" lon="-1.836943030357361">
        <ele>760.89999999999998</ele>
        <time>2018-05-29T06:51:16Z</time>
      </trkpt>
      <trkpt lat="41.905443007126451" lon="-1.836870023980737">
        <ele>760.5</ele>
        <time>2018-05-29T06:51:19Z</time>
      </trkpt>
      <trkpt lat="41.905373018234968" lon="-1.836789976805449">
        <ele>760.10000000000002</ele>
        <time>2018-05-29T06:51:22Z</time>
      </trkpt>
      <trkpt lat="41.905295988544822" lon="-1.836725017055869">
        <ele>759.89999999999998</ele>
        <time>2018-05-29T06:51:24Z</time>
      </trkpt>
      <trkpt lat="41.905209990218282" lon="-1.836655028164387">
        <ele>759.79999999999995</ele>
        <time>2018-05-29T06:51:27Z</time>
      </trkpt>
      <trkpt lat="41.905102031305432" lon="-1.836582021787763">
        <ele>759.79999999999995</ele>
        <time>2018-05-29T06:51:31Z</time>
      </trkpt>
      <trkpt lat="41.904999017715454" lon="-1.836503986269236">
        <ele>759.70000000000005</ele>
        <time>2018-05-29T06:51:34Z</time>
      </trkpt>
      <trkpt lat="41.904914025217295" lon="-1.836410025134683">
        <ele>759.5</ele>
        <time>2018-05-29T06:51:38Z</time>
      </trkpt>
      <trkpt lat="41.904848981648684" lon="-1.836306005716324">
        <ele>759.10000000000002</ele>
        <time>2018-05-29T06:51:41Z</time>
      </trkpt>
      <trkpt lat="41.904792990535498" lon="-1.836203997954726">
        <ele>758.70000000000005</ele>
        <time>2018-05-29T06:51:44Z</time>
      </trkpt>
      <trkpt lat="41.904742028564215" lon="-1.8360810354352">
        <ele>758</ele>
        <time>2018-05-29T06:51:47Z</time>
      </trkpt>
      <trkpt lat="41.904704980552197" lon="-1.835936028510332">
        <ele>757.10000000000002</ele>
        <time>2018-05-29T06:51:50Z</time>
      </trkpt>
      <trkpt lat="41.904667010530829" lon="-1.835794039070606">
        <ele>756</ele>
        <time>2018-05-29T06:51:53Z</time>
      </trkpt>
      <trkpt lat="41.904627028852701" lon="-1.835680967196822">
        <ele>755.20000000000005</ele>
        <time>2018-05-29T06:51:56Z</time>
      </trkpt>
      <trkpt lat="41.904597021639347" lon="-1.835533026605845">
        <ele>754</ele>
        <time>2018-05-29T06:52:00Z</time>
      </trkpt>
      <trkpt lat="41.904575983062387" lon="-1.835388019680977">
        <ele>753</ele>
        <time>2018-05-29T06:52:03Z</time>
      </trkpt>
      <trkpt lat="41.904529966413975" lon="-1.835247036069632">
        <ele>753</ele>
        <time>2018-05-29T06:52:06Z</time>
      </trkpt>
      <trkpt lat="41.904500965029001" lon="-1.835132036358118">
        <ele>753</ele>
        <time>2018-05-29T06:52:09Z</time>
      </trkpt>
      <trkpt lat="41.904459977522492" lon="-1.835004966706038">
        <ele>753</ele>
        <time>2018-05-29T06:52:12Z</time>
      </trkpt>
      <trkpt lat="41.904403986409307" lon="-1.834883010014892">
        <ele>753</ele>
        <time>2018-05-29T06:52:15Z</time>
      </trkpt>
      <trkpt lat="41.904341038316488" lon="-1.834744960069656">
        <ele>753</ele>
        <time>2018-05-29T06:52:19Z</time>
      </trkpt>
      <trkpt lat="41.904289992526174" lon="-1.834643036127091">
        <ele>753</ele>
        <time>2018-05-29T06:52:21Z</time>
      </trkpt>
      <trkpt lat="41.904232995584607" lon="-1.834491994231939">
        <ele>752.89999999999998</ele>
        <time>2018-05-29T06:52:25Z</time>
      </trkpt>
      <trkpt lat="41.90419795922935" lon="-1.834379006177187">
        <ele>752.79999999999995</ele>
        <time>2018-05-29T06:52:28Z</time>
      </trkpt>
      <trkpt lat="41.904187984764576" lon="-1.834231987595558">
        <ele>752.60000000000002</ele>
        <time>2018-05-29T06:52:31Z</time>
      </trkpt>
      <trkpt lat="41.90419795922935" lon="-1.834103995934129">
        <ele>752.5</ele>
        <time>2018-05-29T06:52:34Z</time>
      </trkpt>
      <trkpt lat="41.904235007241368" lon="-1.833982039242983">
        <ele>752.39999999999998</ele>
        <time>2018-05-29T06:52:37Z</time>
      </trkpt>
      <trkpt lat="41.904266020283103" lon="-1.833853041753173">
        <ele>752.29999999999995</ele>
        <time>2018-05-29T06:52:40Z</time>
      </trkpt>
      <trkpt lat="41.904252022504807" lon="-1.833717003464699">
        <ele>752</ele>
        <time>2018-05-29T06:52:43Z</time>
      </trkpt>
      <trkpt lat="41.904212040826678" lon="-1.833605021238327">
        <ele>751.29999999999995</ele>
        <time>2018-05-29T06:52:46Z</time>
      </trkpt>
      <trkpt lat="41.904183039441705" lon="-1.833464037626982">
        <ele>750.39999999999998</ele>
        <time>2018-05-29T06:52:49Z</time>
      </trkpt>
      <trkpt lat="41.904160995036364" lon="-1.833325987681747">
        <ele>749.39999999999998</ele>
        <time>2018-05-29T06:52:52Z</time>
      </trkpt>
      <trkpt lat="41.90415202639997" lon="-1.833185004070401">
        <ele>748.5</ele>
        <time>2018-05-29T06:52:55Z</time>
      </trkpt>
      <trkpt lat="41.904154038056731" lon="-1.833057012408972">
        <ele>747.70000000000005</ele>
        <time>2018-05-29T06:52:58Z</time>
      </trkpt>
      <trkpt lat="41.90415496006608" lon="-1.832901025190949">
        <ele>746.70000000000005</ele>
        <time>2018-05-29T06:53:01Z</time>
      </trkpt>
      <trkpt lat="41.904169963672757" lon="-1.83275300078094">
        <ele>746.10000000000002</ele>
        <time>2018-05-29T06:53:05Z</time>
      </trkpt>
      <trkpt lat="41.904188990592957" lon="-1.832626014947891">
        <ele>745.60000000000002</ele>
        <time>2018-05-29T06:53:07Z</time>
      </trkpt>
      <trkpt lat="41.904209023341537" lon="-1.832503974437714">
        <ele>745.20000000000005</ele>
        <time>2018-05-29T06:53:10Z</time>
      </trkpt>
      <trkpt lat="41.904224026948214" lon="-1.832384029403329">
        <ele>744.70000000000005</ele>
        <time>2018-05-29T06:53:13Z</time>
      </trkpt>
      <trkpt lat="41.904241964221001" lon="-1.832265006378293">
        <ele>744.29999999999995</ele>
        <time>2018-05-29T06:53:16Z</time>
      </trkpt>
      <trkpt lat="41.904255961999297" lon="-1.832141038030386">
        <ele>743.79999999999995</ele>
        <time>2018-05-29T06:53:18Z</time>
      </trkpt>
      <trkpt lat="41.904269959777594" lon="-1.832014974206686">
        <ele>743.70000000000005</ele>
        <time>2018-05-29T06:53:21Z</time>
      </trkpt>
      <trkpt lat="41.904297033324838" lon="-1.831868961453438">
        <ele>744</ele>
        <time>2018-05-29T06:53:24Z</time>
      </trkpt>
      <trkpt lat="41.904329974204302" lon="-1.831736024469137">
        <ele>744.39999999999998</ele>
        <time>2018-05-29T06:53:28Z</time>
      </trkpt>
      <trkpt lat="41.904370961710811" lon="-1.831610966473818">
        <ele>744.89999999999998</ele>
        <time>2018-05-29T06:53:31Z</time>
      </trkpt>
      <trkpt lat="41.904409015551209" lon="-1.831482974812388">
        <ele>745.20000000000005</ele>
        <time>2018-05-29T06:53:34Z</time>
      </trkpt>
      <trkpt lat="41.904441034421325" lon="-1.831363029778004">
        <ele>745.5</ele>
        <time>2018-05-29T06:53:36Z</time>
      </trkpt>
      <trkpt lat="41.904490990564227" lon="-1.831244006752968">
        <ele>745.89999999999998</ele>
        <time>2018-05-29T06:53:39Z</time>
      </trkpt>
      <trkpt lat="41.904545975849032" lon="-1.831132024526596">
        <ele>746.39999999999998</ele>
        <time>2018-05-29T06:53:42Z</time>
      </trkpt>
      <trkpt lat="41.904596015810966" lon="-1.831014007329941">
        <ele>746.70000000000005</ele>
        <time>2018-05-29T06:53:45Z</time>
      </trkpt>
      <trkpt lat="41.904643960297108" lon="-1.830894984304905">
        <ele>746.70000000000005</ele>
        <time>2018-05-29T06:53:48Z</time>
      </trkpt>
      <trkpt lat="41.904710009694099" lon="-1.830800017341971">
        <ele>746.60000000000002</ele>
        <time>2018-05-29T06:53:51Z</time>
      </trkpt>
      <trkpt lat="41.904771029949188" lon="-1.830692980438471">
        <ele>746.5</ele>
        <time>2018-05-29T06:53:54Z</time>
      </trkpt>
      <trkpt lat="41.904830038547516" lon="-1.830588039010763">
        <ele>746.29999999999995</ele>
        <time>2018-05-29T06:53:57Z</time>
      </trkpt>
      <trkpt lat="41.904884018003941" lon="-1.830484019592404">
        <ele>746.10000000000002</ele>
        <time>2018-05-29T06:54:00Z</time>
      </trkpt>
      <trkpt lat="41.904922993853688" lon="-1.830366002395749">
        <ele>746</ele>
        <time>2018-05-29T06:54:03Z</time>
      </trkpt>
      <trkpt lat="41.904956018552184" lon="-1.830224012956023">
        <ele>746</ele>
        <time>2018-05-29T06:54:06Z</time>
      </trkpt>
      <trkpt lat="41.905008992180228" lon="-1.830128040164709">
        <ele>745.79999999999995</ele>
        <time>2018-05-29T06:54:09Z</time>
      </trkpt>
      <trkpt lat="41.905076969414949" lon="-1.830027960240841">
        <ele>745.5</ele>
        <time>2018-05-29T06:54:12Z</time>
      </trkpt>
      <trkpt lat="41.90516397356987" lon="-1.829964006319642">
        <ele>745</ele>
        <time>2018-05-29T06:54:15Z</time>
      </trkpt>
      <trkpt lat="41.905247960239649" lon="-1.829912038519979">
        <ele>744.39999999999998</ele>
        <time>2018-05-29T06:54:17Z</time>
      </trkpt>
      <trkpt lat="41.905323984101415" lon="-1.829825034365058">
        <ele>743.70000000000005</ele>
        <time>2018-05-29T06:54:20Z</time>
      </trkpt>
      <trkpt lat="41.905411994084716" lon="-1.829772982746363">
        <ele>742.89999999999998</ele>
        <time>2018-05-29T06:54:23Z</time>
      </trkpt>
      <trkpt lat="41.905512996017933" lon="-1.82976602576673">
        <ele>741.5</ele>
        <time>2018-05-29T06:54:26Z</time>
      </trkpt>
      <trkpt lat="41.90561399795115" lon="-1.829789998009801">
        <ele>740.20000000000005</ele>
        <time>2018-05-29T06:54:29Z</time>
      </trkpt>
      <trkpt lat="41.905710976570845" lon="-1.829811036586762">
        <ele>739</ele>
        <time>2018-05-29T06:54:32Z</time>
      </trkpt>
      <trkpt lat="41.90580896101892" lon="-1.829835008829832">
        <ele>737.70000000000005</ele>
        <time>2018-05-29T06:54:35Z</time>
      </trkpt>
      <trkpt lat="41.905899988487363" lon="-1.829840037971735">
        <ele>736.5</ele>
        <time>2018-05-29T06:54:38Z</time>
      </trkpt>
      <trkpt lat="41.906004007905722" lon="-1.82983098551631">
        <ele>734.89999999999998</ele>
        <time>2018-05-29T06:54:41Z</time>
      </trkpt>
      <trkpt lat="41.906097969040275" lon="-1.829782035201788">
        <ele>733.29999999999995</ele>
        <time>2018-05-29T06:54:44Z</time>
      </trkpt>
      <trkpt lat="41.906196037307382" lon="-1.82972202077508">
        <ele>731.60000000000002</ele>
        <time>2018-05-29T06:54:47Z</time>
      </trkpt>
      <trkpt lat="41.906282035633922" lon="-1.829668041318655">
        <ele>730.29999999999995</ele>
        <time>2018-05-29T06:54:50Z</time>
      </trkpt>
      <trkpt lat="41.906361998990178" lon="-1.829604003578425">
        <ele>729.20000000000005</ele>
        <time>2018-05-29T06:54:53Z</time>
      </trkpt>
      <trkpt lat="41.906458977609873" lon="-1.829542983323336">
        <ele>728.60000000000002</ele>
        <time>2018-05-29T06:54:56Z</time>
      </trkpt>
      <trkpt lat="41.906554028391838" lon="-1.829482968896627">
        <ele>728.29999999999995</ele>
        <time>2018-05-29T06:54:59Z</time>
      </trkpt>
      <trkpt lat="41.906643966212869" lon="-1.829419014975429">
        <ele>728</ele>
        <time>2018-05-29T06:55:02Z</time>
      </trkpt>
      <trkpt lat="41.906730970367789" lon="-1.829319018870592">
        <ele>727.89999999999998</ele>
        <time>2018-05-29T06:55:06Z</time>
      </trkpt>
      <trkpt lat="41.906814035028219" lon="-1.829237965866923">
        <ele>727.39999999999998</ele>
        <time>2018-05-29T06:55:09Z</time>
      </trkpt>
      <trkpt lat="41.906905984506011" lon="-1.829150039702654">
        <ele>726.79999999999995</ele>
        <time>2018-05-29T06:55:12Z</time>
      </trkpt>
      <trkpt lat="41.906971028074622" lon="-1.829062029719353">
        <ele>726.39999999999998</ele>
        <time>2018-05-29T06:55:15Z</time>
      </trkpt>
      <trkpt lat="41.907043028622866" lon="-1.828958010300994">
        <ele>725.79999999999995</ele>
        <time>2018-05-29T06:55:18Z</time>
      </trkpt>
      <trkpt lat="41.907072030007839" lon="-1.82882197201252">
        <ele>725.89999999999998</ele>
        <time>2018-05-29T06:55:21Z</time>
      </trkpt>
      <trkpt lat="41.907055014744401" lon="-1.828699009492993">
        <ele>726.60000000000002</ele>
        <time>2018-05-29T06:55:24Z</time>
      </trkpt>
      <trkpt lat="41.907030958682299" lon="-1.828574035316706">
        <ele>727.29999999999995</ele>
        <time>2018-05-29T06:55:27Z</time>
      </trkpt>
      <trkpt lat="41.906998017802835" lon="-1.828454006463289">
        <ele>728.10000000000002</ele>
        <time>2018-05-29T06:55:29Z</time>
      </trkpt>
      <trkpt lat="41.906988965347409" lon="-1.828324003145099">
        <ele>728.5</ele>
        <time>2018-05-29T06:55:32Z</time>
      </trkpt>
      <trkpt lat="41.907002041116357" lon="-1.828195005655289">
        <ele>728.60000000000002</ele>
        <time>2018-05-29T06:55:35Z</time>
      </trkpt>
      <trkpt lat="41.906973961740732" lon="-1.828052010387182">
        <ele>729.39999999999998</ele>
        <time>2018-05-29T06:55:38Z</time>
      </trkpt>
      <trkpt lat="41.906954012811184" lon="-1.827919995412231">
        <ele>730</ele>
        <time>2018-05-29T06:55:41Z</time>
      </trkpt>
      <trkpt lat="41.906928028911352" lon="-1.827786974608898">
        <ele>729.20000000000005</ele>
        <time>2018-05-29T06:55:44Z</time>
      </trkpt>
      <trkpt lat="41.906915958970785" lon="-1.827662000432611">
        <ele>728.20000000000005</ele>
        <time>2018-05-29T06:55:47Z</time>
      </trkpt>
      <trkpt lat="41.906907996162772" lon="-1.827519005164504">
        <ele>727</ele>
        <time>2018-05-29T06:55:50Z</time>
      </trkpt>
      <trkpt lat="41.90692501142621" lon="-1.827381961047649">
        <ele>725.5</ele>
        <time>2018-05-29T06:55:53Z</time>
      </trkpt>
      <trkpt lat="41.906959963962436" lon="-1.827256986871362">
        <ele>723.89999999999998</ele>
        <time>2018-05-29T06:55:56Z</time>
      </trkpt>
      <trkpt lat="41.906940015032887" lon="-1.827133018523455">
        <ele>723</ele>
        <time>2018-05-29T06:55:59Z</time>
      </trkpt>
      <trkpt lat="41.906953006982803" lon="-1.827001003548503">
        <ele>721.39999999999998</ele>
        <time>2018-05-29T06:56:02Z</time>
      </trkpt>
      <trkpt lat="41.906936997547746" lon="-1.826863959431648">
        <ele>719.79999999999995</ele>
        <time>2018-05-29T06:56:05Z</time>
      </trkpt>
      <trkpt lat="41.90690397284925" lon="-1.826745020225644">
        <ele>718.70000000000005</ele>
        <time>2018-05-29T06:56:08Z</time>
      </trkpt>
      <trkpt lat="41.906849993392825" lon="-1.826642006635666">
        <ele>718.10000000000002</ele>
        <time>2018-05-29T06:56:11Z</time>
      </trkpt>
      <trkpt lat="41.906790984794497" lon="-1.826542010530829">
        <ele>717.70000000000005</ele>
        <time>2018-05-29T06:56:14Z</time>
      </trkpt>
      <trkpt lat="41.906714038923383" lon="-1.826440002769232">
        <ele>717.5</ele>
        <time>2018-05-29T06:56:17Z</time>
      </trkpt>
      <trkpt lat="41.906625023111701" lon="-1.826364984735847">
        <ele>717.89999999999998</ele>
        <time>2018-05-29T06:56:20Z</time>
      </trkpt>
      <trkpt lat="41.906539024785161" lon="-1.826296001672745">
        <ele>718.29999999999995</ele>
        <time>2018-05-29T06:56:23Z</time>
      </trkpt>
      <trkpt lat="41.906513040885329" lon="-1.826160969212651">
        <ele>717</ele>
        <time>2018-05-29T06:56:26Z</time>
      </trkpt>
      <trkpt lat="41.90658001229167" lon="-1.826047981157899">
        <ele>714.5</ele>
        <time>2018-05-29T06:56:29Z</time>
      </trkpt>
      <trkpt lat="41.906681014224887" lon="-1.825988972559571">
        <ele>712.39999999999998</ele>
        <time>2018-05-29T06:56:33Z</time>
      </trkpt>
      <trkpt lat="41.906787967309356" lon="-1.82589802891016">
        <ele>709.89999999999998</ele>
        <time>2018-05-29T06:56:36Z</time>
      </trkpt>
      <trkpt lat="41.906816968694329" lon="-1.825755033642054">
        <ele>707.70000000000005</ele>
        <time>2018-05-29T06:56:40Z</time>
      </trkpt>
      <trkpt lat="41.906773969531059" lon="-1.825644979253411">
        <ele>706.79999999999995</ele>
        <time>2018-05-29T06:56:43Z</time>
      </trkpt>
      <trkpt lat="41.906730970367789" lon="-1.825529979541898">
        <ele>705.79999999999995</ele>
        <time>2018-05-29T06:56:45Z</time>
      </trkpt>
      <trkpt lat="41.906683025881648" lon="-1.825406011193991">
        <ele>704.79999999999995</ele>
        <time>2018-05-29T06:56:48Z</time>
      </trkpt>
      <trkpt lat="41.906640026718378" lon="-1.825284976512194">
        <ele>704.5</ele>
        <time>2018-05-29T06:56:51Z</time>
      </trkpt>
      <trkpt lat="41.906598033383489" lon="-1.82516603730619">
        <ele>704.20000000000005</ele>
        <time>2018-05-29T06:56:54Z</time>
      </trkpt>
      <trkpt lat="41.906565008684993" lon="-1.825049025937915">
        <ele>703.70000000000005</ele>
        <time>2018-05-29T06:56:57Z</time>
      </trkpt>
      <trkpt lat="41.906547993421555" lon="-1.824928997084498">
        <ele>703.10000000000002</ele>
        <time>2018-05-29T06:57:00Z</time>
      </trkpt>
      <trkpt lat="41.906551010906696" lon="-1.82480201125145">
        <ele>702.29999999999995</ele>
        <time>2018-05-29T06:57:03Z</time>
      </trkpt>
      <trkpt lat="41.906575988978148" lon="-1.824663961306214">
        <ele>701.29999999999995</ele>
        <time>2018-05-29T06:57:06Z</time>
      </trkpt>
      <trkpt lat="41.906612031161785" lon="-1.824534041807056">
        <ele>700.5</ele>
        <time>2018-05-29T06:57:09Z</time>
      </trkpt>
      <trkpt lat="41.906653018668294" lon="-1.824402026832104">
        <ele>699.79999999999995</ele>
        <time>2018-05-29T06:57:12Z</time>
      </trkpt>
      <trkpt lat="41.906690988689661" lon="-1.824285015463829">
        <ele>699.10000000000002</ele>
        <time>2018-05-29T06:57:15Z</time>
      </trkpt>
      <trkpt lat="41.906746979802847" lon="-1.824163980782032">
        <ele>698.20000000000005</ele>
        <time>2018-05-29T06:57:18Z</time>
      </trkpt>
      <trkpt lat="41.906798025593162" lon="-1.824038000777364">
        <ele>697.20000000000005</ele>
        <time>2018-05-29T06:57:21Z</time>
      </trkpt>
      <trkpt lat="41.906820992007852" lon="-1.823918977752328">
        <ele>696.39999999999998</ele>
        <time>2018-05-29T06:57:24Z</time>
      </trkpt>
      <trkpt lat="41.906870026141405" lon="-1.823781011626124">
        <ele>695.20000000000005</ele>
        <time>2018-05-29T06:57:27Z</time>
      </trkpt>
      <trkpt lat="41.90692501142621" lon="-1.823645979166031">
        <ele>694.79999999999995</ele>
        <time>2018-05-29T06:57:31Z</time>
      </trkpt>
      <trkpt lat="41.906973039731383" lon="-1.823516981676221">
        <ele>694.5</ele>
        <time>2018-05-29T06:57:34Z</time>
      </trkpt>
      <trkpt lat="41.90703297033906" lon="-1.823411034420133">
        <ele>694</ele>
        <time>2018-05-29T06:57:37Z</time>
      </trkpt>
      <trkpt lat="41.907087033614516" lon="-1.823284970596433">
        <ele>693.60000000000002</ele>
        <time>2018-05-29T06:57:40Z</time>
      </trkpt>
      <trkpt lat="41.907145958393812" lon="-1.823167959228158">
        <ele>694.29999999999995</ele>
        <time>2018-05-29T06:57:43Z</time>
      </trkpt>
      <trkpt lat="41.907208990305662" lon="-1.823048014193773">
        <ele>694.79999999999995</ele>
        <time>2018-05-29T06:57:46Z</time>
      </trkpt>
      <trkpt lat="41.907277973368764" lon="-1.822946006432176">
        <ele>695.20000000000005</ele>
        <time>2018-05-29T06:57:49Z</time>
      </trkpt>
      <trkpt lat="41.907342011108994" lon="-1.822857996448875">
        <ele>695.5</ele>
        <time>2018-05-29T06:57:52Z</time>
      </trkpt>
      <trkpt lat="41.907410994172096" lon="-1.822737967595458">
        <ele>695.60000000000002</ele>
        <time>2018-05-29T06:57:55Z</time>
      </trkpt>
      <trkpt lat="41.907464973628521" lon="-1.822619028389454">
        <ele>695.39999999999998</ele>
        <time>2018-05-29T06:57:58Z</time>
      </trkpt>
      <trkpt lat="41.907514007762074" lon="-1.822502017021179">
        <ele>695</ele>
        <time>2018-05-29T06:58:01Z</time>
      </trkpt>
      <trkpt lat="41.90754996612668" lon="-1.822389028966427">
        <ele>694.39999999999998</ele>
        <time>2018-05-29T06:58:04Z</time>
      </trkpt>
      <trkpt lat="41.907591037452221" lon="-1.822257013991475">
        <ele>693.60000000000002</ele>
        <time>2018-05-29T06:58:07Z</time>
      </trkpt>
      <trkpt lat="41.907620960846543" lon="-1.822132039815188">
        <ele>692.79999999999995</ele>
        <time>2018-05-29T06:58:10Z</time>
      </trkpt>
      <trkpt lat="41.907660020515323" lon="-1.822006981819868">
        <ele>691.89999999999998</ele>
        <time>2018-05-29T06:58:13Z</time>
      </trkpt>
      <trkpt lat="41.907706959173083" lon="-1.821865998208523">
        <ele>690.89999999999998</ele>
        <time>2018-05-29T06:58:17Z</time>
      </trkpt>
      <trkpt lat="41.907754987478256" lon="-1.821743035688996">
        <ele>689.70000000000005</ele>
        <time>2018-05-29T06:58:20Z</time>
      </trkpt>
      <trkpt lat="41.907807039096951" lon="-1.821628035977483">
        <ele>688.39999999999998</ele>
        <time>2018-05-29T06:58:23Z</time>
      </trkpt>
      <trkpt lat="41.907865963876247" lon="-1.821529967710376">
        <ele>686.79999999999995</ele>
        <time>2018-05-29T06:58:26Z</time>
      </trkpt>
      <trkpt lat="41.907922960817814" lon="-1.821426032111049">
        <ele>685.39999999999998</ele>
        <time>2018-05-29T06:58:28Z</time>
      </trkpt>
      <trkpt lat="41.907980041578412" lon="-1.821311032399535">
        <ele>685.29999999999995</ele>
        <time>2018-05-29T06:58:31Z</time>
      </trkpt>
      <trkpt lat="41.908028991892934" lon="-1.821186980232596">
        <ele>685.39999999999998</ele>
        <time>2018-05-29T06:58:35Z</time>
      </trkpt>
      <trkpt lat="41.908083977177739" lon="-1.821068041026592">
        <ele>685.79999999999995</ele>
        <time>2018-05-29T06:58:38Z</time>
      </trkpt>
      <trkpt lat="41.908137034624815" lon="-1.820953041315079">
        <ele>686.10000000000002</ele>
        <time>2018-05-29T06:58:41Z</time>
      </trkpt>
      <trkpt lat="41.908185984939337" lon="-1.820838963612914">
        <ele>686.10000000000002</ele>
        <time>2018-05-29T06:58:44Z</time>
      </trkpt>
      <trkpt lat="41.908237030729651" lon="-1.820733016356826">
        <ele>686.10000000000002</ele>
        <time>2018-05-29T06:58:46Z</time>
      </trkpt>
      <trkpt lat="41.908306013792753" lon="-1.820616004988551">
        <ele>685.89999999999998</ele>
        <time>2018-05-29T06:58:50Z</time>
      </trkpt>
      <trkpt lat="41.908368039876223" lon="-1.820521960034967">
        <ele>685.70000000000005</ele>
        <time>2018-05-29T06:58:52Z</time>
      </trkpt>
      <trkpt lat="41.908421013504267" lon="-1.82041903026402">
        <ele>685.20000000000005</ele>
        <time>2018-05-29T06:58:55Z</time>
      </trkpt>
      <trkpt lat="41.908467030152678" lon="-1.820308975875378">
        <ele>685.10000000000002</ele>
        <time>2018-05-29T06:58:58Z</time>
      </trkpt>
      <trkpt lat="41.908522015437484" lon="-1.820194981992245">
        <ele>684.70000000000005</ele>
        <time>2018-05-29T06:59:01Z</time>
      </trkpt>
      <trkpt lat="41.908569959923625" lon="-1.820086017251015">
        <ele>684.20000000000005</ele>
        <time>2018-05-29T06:59:04Z</time>
      </trkpt>
      <trkpt lat="41.908646989613771" lon="-1.819988032802939">
        <ele>683.39999999999998</ele>
        <time>2018-05-29T06:59:07Z</time>
      </trkpt>
      <trkpt lat="41.90873097628355" lon="-1.819876972585917">
        <ele>682.20000000000005</ele>
        <time>2018-05-29T06:59:10Z</time>
      </trkpt>
      <trkpt lat="41.908805994316936" lon="-1.819756021723151">
        <ele>681.29999999999995</ele>
        <time>2018-05-29T06:59:14Z</time>
      </trkpt>
      <trkpt lat="41.908869026228786" lon="-1.819630041718483">
        <ele>680.29999999999995</ele>
        <time>2018-05-29T06:59:17Z</time>
      </trkpt>
      <trkpt lat="41.908924011513591" lon="-1.819499032571912">
        <ele>679.89999999999998</ele>
        <time>2018-05-29T06:59:21Z</time>
      </trkpt>
      <trkpt lat="41.908974973484874" lon="-1.819373974576592">
        <ele>679.60000000000002</ele>
        <time>2018-05-29T06:59:24Z</time>
      </trkpt>
      <trkpt lat="41.909029958769679" lon="-1.819240031763911">
        <ele>679.20000000000005</ele>
        <time>2018-05-29T06:59:27Z</time>
      </trkpt>
      <trkpt lat="41.90907103009522" lon="-1.819118997082114">
        <ele>678.70000000000005</ele>
        <time>2018-05-29T06:59:30Z</time>
      </trkpt>
      <trkpt lat="41.90911796875298" lon="-1.818996034562588">
        <ele>678.10000000000002</ele>
        <time>2018-05-29T06:59:33Z</time>
      </trkpt>
      <trkpt lat="41.909168008714914" lon="-1.818867037072778">
        <ele>677.39999999999998</ele>
        <time>2018-05-29T06:59:36Z</time>
      </trkpt>
      <trkpt lat="41.909213019534945" lon="-1.818742984905839">
        <ele>676.60000000000002</ele>
        <time>2018-05-29T06:59:39Z</time>
      </trkpt>
      <trkpt lat="41.909260964021087" lon="-1.818621028214693">
        <ele>675.5</ele>
        <time>2018-05-29T06:59:42Z</time>
      </trkpt>
      <trkpt lat="41.90930999815464" lon="-1.818508040159941">
        <ele>674.39999999999998</ele>
        <time>2018-05-29T06:59:45Z</time>
      </trkpt>
      <trkpt lat="41.909392978996038" lon="-1.818424975499511">
        <ele>673.10000000000002</ele>
        <time>2018-05-29T06:59:48Z</time>
      </trkpt>
      <trkpt lat="41.909488029778004" lon="-1.818410977721214">
        <ele>672.10000000000002</ele>
        <time>2018-05-29T06:59:51Z</time>
      </trkpt>
      <trkpt lat="41.909586014226079" lon="-1.818402009084821">
        <ele>671.10000000000002</ele>
        <time>2018-05-29T06:59:54Z</time>
      </trkpt>
      <trkpt lat="41.90967402420938" lon="-1.818344006314874">
        <ele>671.29999999999995</ele>
        <time>2018-05-29T06:59:57Z</time>
      </trkpt>
      <trkpt lat="41.909677963703871" lon="-1.818203022703528">
        <ele>670.10000000000002</ele>
        <time>2018-05-29T07:00:00Z</time>
      </trkpt>
      <trkpt lat="41.909615015611053" lon="-1.818088022992015">
        <ele>668.70000000000005</ele>
        <time>2018-05-29T07:00:03Z</time>
      </trkpt>
      <trkpt lat="41.909548966214061" lon="-1.817990960553289">
        <ele>668.10000000000002</ele>
        <time>2018-05-29T07:00:06Z</time>
      </trkpt>
      <trkpt lat="41.909477971494198" lon="-1.817888030782342">
        <ele>668.20000000000005</ele>
        <time>2018-05-29T07:00:09Z</time>
      </trkpt>
      <trkpt lat="41.909401025623083" lon="-1.81777898222208">
        <ele>668.70000000000005</ele>
        <time>2018-05-29T07:00:13Z</time>
      </trkpt>
      <trkpt lat="41.909342017024755" lon="-1.817661970853806">
        <ele>668.79999999999995</ele>
        <time>2018-05-29T07:00:16Z</time>
      </trkpt>
      <trkpt lat="41.909298012033105" lon="-1.817526016384363">
        <ele>668.70000000000005</ele>
        <time>2018-05-29T07:00:19Z</time>
      </trkpt>
      <trkpt lat="41.909305974841118" lon="-1.81736902333796">
        <ele>667.79999999999995</ele>
        <time>2018-05-29T07:00:22Z</time>
      </trkpt>
      <trkpt lat="41.90932902507484" lon="-1.817213036119938">
        <ele>666.70000000000005</ele>
        <time>2018-05-29T07:00:26Z</time>
      </trkpt>
      <trkpt lat="41.909333970397711" lon="-1.817064005881548">
        <ele>665.79999999999995</ele>
        <time>2018-05-29T07:00:29Z</time>
      </trkpt>
      <trkpt lat="41.909320978447795" lon="-1.816923022270203">
        <ele>665.79999999999995</ele>
        <time>2018-05-29T07:00:32Z</time>
      </trkpt>
      <trkpt lat="41.909313015639782" lon="-1.816797964274883">
        <ele>665.60000000000002</ele>
        <time>2018-05-29T07:00:35Z</time>
      </trkpt>
      <trkpt lat="41.909320978447795" lon="-1.816653041169047">
        <ele>665.20000000000005</ele>
        <time>2018-05-29T07:00:38Z</time>
      </trkpt>
      <trkpt lat="41.909346962347627" lon="-1.816378030925989">
        <ele>664.20000000000005</ele>
        <time>2018-05-29T07:00:45Z</time>
      </trkpt>
      <trkpt lat="41.9093759637326" lon="-1.816258002072573">
        <ele>663.5</ele>
        <time>2018-05-29T07:00:47Z</time>
      </trkpt>
      <trkpt lat="41.909424997866154" lon="-1.81612397544086">
        <ele>662.5</ele>
        <time>2018-05-29T07:00:51Z</time>
      </trkpt>
      <trkpt lat="41.909494986757636" lon="-1.816007969900966">
        <ele>661.10000000000002</ele>
        <time>2018-05-29T07:00:54Z</time>
      </trkpt>
      <trkpt lat="41.90954796038568" lon="-1.815891964361072">
        <ele>659.79999999999995</ele>
        <time>2018-05-29T07:00:57Z</time>
      </trkpt>
      <trkpt lat="41.909592971205711" lon="-1.815786017104983">
        <ele>658.89999999999998</ele>
        <time>2018-05-29T07:01:00Z</time>
      </trkpt>
      <trkpt lat="41.909648962318897" lon="-1.815660037100315">
        <ele>658.79999999999995</ele>
        <time>2018-05-29T07:01:03Z</time>
      </trkpt>
      <trkpt lat="41.909709982573986" lon="-1.81554595939815">
        <ele>658.79999999999995</ele>
        <time>2018-05-29T07:01:06Z</time>
      </trkpt>
      <trkpt lat="41.909767985343933" lon="-1.815442023798823">
        <ele>658.70000000000005</ele>
        <time>2018-05-29T07:01:09Z</time>
      </trkpt>
      <trkpt lat="41.909812996163964" lon="-1.815323000773788">
        <ele>659.20000000000005</ele>
        <time>2018-05-29T07:01:12Z</time>
      </trkpt>
      <trkpt lat="41.909795980900526" lon="-1.815019994974136">
        <ele>660.5</ele>
        <time>2018-05-29T07:01:18Z</time>
      </trkpt>
      <trkpt lat="41.909820958971977" lon="-1.814880017191172">
        <ele>661</ele>
        <time>2018-05-29T07:01:22Z</time>
      </trkpt>
      <trkpt lat="41.909861024469137" lon="-1.814759988337755">
        <ele>661.10000000000002</ele>
        <time>2018-05-29T07:01:25Z</time>
      </trkpt>
      <trkpt lat="41.909909974783659" lon="-1.814631996676326">
        <ele>661</ele>
        <time>2018-05-29T07:01:28Z</time>
      </trkpt>
      <trkpt lat="41.909956997260451" lon="-1.814506016671658">
        <ele>660.39999999999998</ele>
        <time>2018-05-29T07:01:31Z</time>
      </trkpt>
      <trkpt lat="41.909999996423721" lon="-1.814380958676338">
        <ele>659.60000000000002</ele>
        <time>2018-05-29T07:01:34Z</time>
      </trkpt>
      <trkpt lat="41.91006001085043" lon="-1.814234023913741">
        <ele>658.60000000000002</ele>
        <time>2018-05-29T07:01:38Z</time>
      </trkpt>
      <trkpt lat="41.91010401584208" lon="-1.814078036695719">
        <ele>657.79999999999995</ele>
        <time>2018-05-29T07:01:41Z</time>
      </trkpt>
      <trkpt lat="41.910079959779978" lon="-1.81391098536551">
        <ele>657.79999999999995</ele>
        <time>2018-05-29T07:01:45Z</time>
      </trkpt>
      <trkpt lat="41.910021035000682" lon="-1.813777964562178">
        <ele>658.29999999999995</ele>
        <time>2018-05-29T07:01:48Z</time>
      </trkpt>
      <trkpt lat="41.909945011138916" lon="-1.813674028962851">
        <ele>658.39999999999998</ele>
        <time>2018-05-29T07:01:52Z</time>
      </trkpt>
      <trkpt lat="41.909875022247434" lon="-1.813574032858014">
        <ele>657.89999999999998</ele>
        <time>2018-05-29T07:01:55Z</time>
      </trkpt>
      <trkpt lat="41.909789023920894" lon="-1.813475964590907">
        <ele>657.20000000000005</ele>
        <time>2018-05-29T07:01:58Z</time>
      </trkpt>
      <trkpt lat="41.909693973138928" lon="-1.813382003456354">
        <ele>656.39999999999998</ele>
        <time>2018-05-29T07:02:02Z</time>
      </trkpt>
      <trkpt lat="41.909608980640769" lon="-1.813277984037995">
        <ele>654.89999999999998</ele>
        <time>2018-05-29T07:02:05Z</time>
      </trkpt>
      <trkpt lat="41.909536980092525" lon="-1.813155021518469">
        <ele>653.10000000000002</ele>
        <time>2018-05-29T07:02:08Z</time>
      </trkpt>
      <trkpt lat="41.909489035606384" lon="-1.813018983229995">
        <ele>651.20000000000005</ele>
        <time>2018-05-29T07:02:12Z</time>
      </trkpt>
      <trkpt lat="41.90945802256465" lon="-1.812884034588933">
        <ele>649.70000000000005</ele>
        <time>2018-05-29T07:02:15Z</time>
      </trkpt>
      <trkpt lat="41.909403959289193" lon="-1.812737016007304">
        <ele>650.20000000000005</ele>
        <time>2018-05-29T07:02:19Z</time>
      </trkpt>
      <trkpt lat="41.909334976226091" lon="-1.812612041831017">
        <ele>650.89999999999998</ele>
        <time>2018-05-29T07:02:22Z</time>
      </trkpt>
      <trkpt lat="41.90928602591157" lon="-1.812509028241038">
        <ele>651.29999999999995</ele>
        <time>2018-05-29T07:02:25Z</time>
      </trkpt>
      <trkpt lat="41.909256018698215" lon="-1.812350023537874">
        <ele>651.20000000000005</ele>
        <time>2018-05-29T07:02:28Z</time>
      </trkpt>
      <trkpt lat="41.909271022304893" lon="-1.812069984152913">
        <ele>650.29999999999995</ele>
        <time>2018-05-29T07:02:34Z</time>
      </trkpt>
      <trkpt lat="41.909292982891202" lon="-1.811939980834723">
        <ele>649.39999999999998</ele>
        <time>2018-05-29T07:02:37Z</time>
      </trkpt>
      <trkpt lat="41.90930999815464" lon="-1.811808971688151">
        <ele>648.70000000000005</ele>
        <time>2018-05-29T07:02:40Z</time>
      </trkpt>
      <trkpt lat="41.909317960962653" lon="-1.811679974198341">
        <ele>648</ele>
        <time>2018-05-29T07:02:43Z</time>
      </trkpt>
      <trkpt lat="41.90928895957768" lon="-1.811542008072138">
        <ele>647.39999999999998</ele>
        <time>2018-05-29T07:02:46Z</time>
      </trkpt>
      <trkpt lat="41.909230034798384" lon="-1.811433965340257">
        <ele>646.89999999999998</ele>
        <time>2018-05-29T07:02:49Z</time>
      </trkpt>
      <trkpt lat="41.909131966531277" lon="-1.811360036954284">
        <ele>646.20000000000005</ele>
        <time>2018-05-29T07:02:53Z</time>
      </trkpt>
      <trkpt lat="41.909042028710246" lon="-1.811306979507208">
        <ele>645.60000000000002</ele>
        <time>2018-05-29T07:02:56Z</time>
      </trkpt>
      <trkpt lat="41.90894496627152" lon="-1.811257023364306">
        <ele>644.79999999999995</ele>
        <time>2018-05-29T07:02:59Z</time>
      </trkpt>
      <trkpt lat="41.908846981823444" lon="-1.811184016987681">
        <ele>644</ele>
        <time>2018-05-29T07:03:02Z</time>
      </trkpt>
      <trkpt lat="41.908756960183382" lon="-1.81111796759069">
        <ele>643.20000000000005</ele>
        <time>2018-05-29T07:03:05Z</time>
      </trkpt>
      <trkpt lat="41.908658975735307" lon="-1.811050996184349">
        <ele>643.70000000000005</ele>
        <time>2018-05-29T07:03:08Z</time>
      </trkpt>
      <trkpt lat="41.90857800655067" lon="-1.810996010899544">
        <ele>643.89999999999998</ele>
        <time>2018-05-29T07:03:11Z</time>
      </trkpt>
      <trkpt lat="41.908475998789072" lon="-1.810932978987694">
        <ele>644.10000000000002</ele>
        <time>2018-05-29T07:03:14Z</time>
      </trkpt>
      <trkpt lat="41.908383965492249" lon="-1.810842035338283">
        <ele>643.60000000000002</ele>
        <time>2018-05-29T07:03:18Z</time>
      </trkpt>
      <trkpt lat="41.908323029056191" lon="-1.810727035626769">
        <ele>642.29999999999995</ele>
        <time>2018-05-29T07:03:21Z</time>
      </trkpt>
      <trkpt lat="41.908215992152691" lon="-1.810553027316928">
        <ele>639.89999999999998</ele>
        <time>2018-05-29T07:03:26Z</time>
      </trkpt>
      <trkpt lat="41.908101998269558" lon="-1.810424029827118">
        <ele>637.60000000000002</ele>
        <time>2018-05-29T07:03:30Z</time>
      </trkpt>
      <trkpt lat="41.908051036298275" lon="-1.810267958790064">
        <ele>637.10000000000002</ele>
        <time>2018-05-29T07:03:34Z</time>
      </trkpt>
      <trkpt lat="41.908010970801115" lon="-1.810120018199086">
        <ele>636.60000000000002</ele>
        <time>2018-05-29T07:03:38Z</time>
      </trkpt>
      <trkpt lat="41.907971994951367" lon="-1.809979034587741">
        <ele>635.89999999999998</ele>
        <time>2018-05-29T07:03:41Z</time>
      </trkpt>
      <trkpt lat="41.907928995788097" lon="-1.80980603210628">
        <ele>635</ele>
        <time>2018-05-29T07:03:45Z</time>
      </trkpt>
      <trkpt lat="41.907880967482924" lon="-1.809702012687922">
        <ele>635</ele>
        <time>2018-05-29T07:03:48Z</time>
      </trkpt>
      <trkpt lat="41.907822964712977" lon="-1.809600004926324">
        <ele>635.29999999999995</ele>
        <time>2018-05-29T07:03:50Z</time>
      </trkpt>
      <trkpt lat="41.907770996913314" lon="-1.809473019093275">
        <ele>635.89999999999998</ele>
        <time>2018-05-29T07:03:54Z</time>
      </trkpt>
      <trkpt lat="41.90774098969996" lon="-1.809327006340027">
        <ele>636.10000000000002</ele>
        <time>2018-05-29T07:03:57Z</time>
      </trkpt>
      <trkpt lat="41.907737972214818" lon="-1.809169007465243">
        <ele>636</ele>
        <time>2018-05-29T07:04:00Z</time>
      </trkpt>
      <trkpt lat="41.907754987478256" lon="-1.809016037732363">
        <ele>635.79999999999995</ele>
        <time>2018-05-29T07:04:04Z</time>
      </trkpt>
      <trkpt lat="41.907789018005133" lon="-1.808853009715676">
        <ele>635.70000000000005</ele>
        <time>2018-05-29T07:04:08Z</time>
      </trkpt>
      <trkpt lat="41.907832017168403" lon="-1.808737004175782">
        <ele>635.79999999999995</ele>
        <time>2018-05-29T07:04:10Z</time>
      </trkpt>
      <trkpt lat="41.907864036038518" lon="-1.808597026392818">
        <ele>636</ele>
        <time>2018-05-29T07:04:14Z</time>
      </trkpt>
      <trkpt lat="41.90789395943284" lon="-1.808442967012525">
        <ele>636.20000000000005</ele>
        <time>2018-05-29T07:04:17Z</time>
      </trkpt>
      <trkpt lat="41.907898988574743" lon="-1.808312963694334">
        <ele>636.39999999999998</ele>
        <time>2018-05-29T07:04:20Z</time>
      </trkpt>
      <trkpt lat="41.907895971089602" lon="-1.808177009224892">
        <ele>636.5</ele>
        <time>2018-05-29T07:04:23Z</time>
      </trkpt>
      <trkpt lat="41.90785096026957" lon="-1.808046000078321">
        <ele>636.20000000000005</ele>
        <time>2018-05-29T07:04:26Z</time>
      </trkpt>
      <trkpt lat="41.907778959721327" lon="-1.807933012023568">
        <ele>635.5</ele>
        <time>2018-05-29T07:04:30Z</time>
      </trkpt>
      <trkpt lat="41.907724980264902" lon="-1.807834021747112">
        <ele>635.29999999999995</ele>
        <time>2018-05-29T07:04:32Z</time>
      </trkpt>
      <trkpt lat="41.907661026343703" lon="-1.807702006772161">
        <ele>635</ele>
        <time>2018-05-29T07:04:36Z</time>
      </trkpt>
      <trkpt lat="41.907604029402137" lon="-1.807597987353802">
        <ele>634.70000000000005</ele>
        <time>2018-05-29T07:04:39Z</time>
      </trkpt>
      <trkpt lat="41.907540997490287" lon="-1.80746597237885">
        <ele>634.20000000000005</ele>
        <time>2018-05-29T07:04:42Z</time>
      </trkpt>
      <trkpt lat="41.907479977235198" lon="-1.807344015687704">
        <ele>633.60000000000002</ele>
        <time>2018-05-29T07:04:45Z</time>
      </trkpt>
      <trkpt lat="41.907409988343716" lon="-1.807229015976191">
        <ele>632.60000000000002</ele>
        <time>2018-05-29T07:04:49Z</time>
      </trkpt>
      <trkpt lat="41.907356008887291" lon="-1.807104963809252">
        <ele>631.89999999999998</ele>
        <time>2018-05-29T07:04:52Z</time>
      </trkpt>
      <trkpt lat="41.907323990017176" lon="-1.806977977976203">
        <ele>631.29999999999995</ele>
        <time>2018-05-29T07:04:55Z</time>
      </trkpt>
      <trkpt lat="41.90728803165257" lon="-1.806844035163522">
        <ele>630.70000000000005</ele>
        <time>2018-05-29T07:04:58Z</time>
      </trkpt>
      <trkpt lat="41.907249977812171" lon="-1.806715037673712">
        <ele>630</ele>
        <time>2018-05-29T07:05:01Z</time>
      </trkpt>
      <trkpt lat="41.907219970598817" lon="-1.806580005213618">
        <ele>629.5</ele>
        <time>2018-05-29T07:05:04Z</time>
      </trkpt>
      <trkpt lat="41.907206978648901" lon="-1.806442039087415">
        <ele>629.20000000000005</ele>
        <time>2018-05-29T07:05:07Z</time>
      </trkpt>
      <trkpt lat="41.907193986698985" lon="-1.806313041597605">
        <ele>629</ele>
        <time>2018-05-29T07:05:10Z</time>
      </trkpt>
      <trkpt lat="41.907111005857587" lon="-1.806224025785923">
        <ele>627.5</ele>
        <time>2018-05-29T07:05:13Z</time>
      </trkpt>
      <trkpt lat="41.907012015581131" lon="-1.806197036057711">
        <ele>626.60000000000002</ele>
        <time>2018-05-29T07:05:16Z</time>
      </trkpt>
      <trkpt lat="41.906887963414192" lon="-1.806222014129162">
        <ele>625.79999999999995</ele>
        <time>2018-05-29T07:05:20Z</time>
      </trkpt>
      <trkpt lat="41.906791990622878" lon="-1.8062390293926">
        <ele>625.20000000000005</ele>
        <time>2018-05-29T07:05:23Z</time>
      </trkpt>
      <trkpt lat="41.906694006174803" lon="-1.806199969723821">
        <ele>624.60000000000002</ele>
        <time>2018-05-29T07:05:26Z</time>
      </trkpt>
      <trkpt lat="41.906618988141418" lon="-1.80610902607441">
        <ele>624</ele>
        <time>2018-05-29T07:05:29Z</time>
      </trkpt>
      <trkpt lat="41.906555034220219" lon="-1.806000983342528">
        <ele>623.5</ele>
        <time>2018-05-29T07:05:32Z</time>
      </trkpt>
      <trkpt lat="41.90647498704493" lon="-1.805912973359227">
        <ele>622.79999999999995</ele>
        <time>2018-05-29T07:05:35Z</time>
      </trkpt>
      <trkpt lat="41.906373985111713" lon="-1.805865028873086">
        <ele>622</ele>
        <time>2018-05-29T07:05:38Z</time>
      </trkpt>
      <trkpt lat="41.906281029805541" lon="-1.805848013609648">
        <ele>621.29999999999995</ele>
        <time>2018-05-29T07:05:41Z</time>
      </trkpt>
      <trkpt lat="41.906183967366815" lon="-1.80583200417459">
        <ele>621.89999999999998</ele>
        <time>2018-05-29T07:05:44Z</time>
      </trkpt>
      <trkpt lat="41.906082965433598" lon="-1.805803002789617">
        <ele>623.20000000000005</ele>
        <time>2018-05-29T07:05:47Z</time>
      </trkpt>
      <trkpt lat="41.905981963500381" lon="-1.805747011676431">
        <ele>624.29999999999995</ele>
        <time>2018-05-29T07:05:50Z</time>
      </trkpt>
      <trkpt lat="41.905891019850969" lon="-1.805709041655064">
        <ele>625.29999999999995</ele>
        <time>2018-05-29T07:05:53Z</time>
      </trkpt>
      <trkpt lat="41.905799992382526" lon="-1.80565900169313">
        <ele>626.20000000000005</ele>
        <time>2018-05-29T07:05:56Z</time>
      </trkpt>
      <trkpt lat="41.905714999884367" lon="-1.805562023073435">
        <ele>626.70000000000005</ele>
        <time>2018-05-29T07:05:59Z</time>
      </trkpt>
      <trkpt lat="41.905648028478026" lon="-1.805478036403656">
        <ele>626.89999999999998</ele>
        <time>2018-05-29T07:06:02Z</time>
      </trkpt>
      <trkpt lat="41.905559012666345" lon="-1.805378962308168">
        <ele>627.10000000000002</ele>
        <time>2018-05-29T07:06:05Z</time>
      </trkpt>
      <trkpt lat="41.905492963269353" lon="-1.805286007001996">
        <ele>626.89999999999998</ele>
        <time>2018-05-29T07:06:08Z</time>
      </trkpt>
      <trkpt lat="41.905431021004915" lon="-1.805191962048411">
        <ele>626.5</ele>
        <time>2018-05-29T07:06:11Z</time>
      </trkpt>
      <trkpt lat="41.905375029891729" lon="-1.805099006742239">
        <ele>625.60000000000002</ele>
        <time>2018-05-29T07:06:14Z</time>
      </trkpt>
      <trkpt lat="41.90529297105968" lon="-1.804986018687487">
        <ele>624.39999999999998</ele>
        <time>2018-05-29T07:06:17Z</time>
      </trkpt>
      <trkpt lat="41.905217031016946" lon="-1.804881999269128">
        <ele>623.20000000000005</ele>
        <time>2018-05-29T07:06:20Z</time>
      </trkpt>
      <trkpt lat="41.905158022418618" lon="-1.804744033142924">
        <ele>621.70000000000005</ele>
        <time>2018-05-29T07:06:24Z</time>
      </trkpt>
      <trkpt lat="41.905132038518786" lon="-1.804596008732915">
        <ele>620.10000000000002</ele>
        <time>2018-05-29T07:06:27Z</time>
      </trkpt>
      <trkpt lat="41.905103959143162" lon="-1.804444966837764">
        <ele>619</ele>
        <time>2018-05-29T07:06:31Z</time>
      </trkpt>
      <trkpt lat="41.905057020485401" lon="-1.804296020418406">
        <ele>617.89999999999998</ele>
        <time>2018-05-29T07:06:34Z</time>
      </trkpt>
      <trkpt lat="41.904988959431648" lon="-1.80415503680706">
        <ele>616.89999999999998</ele>
        <time>2018-05-29T07:06:38Z</time>
      </trkpt>
      <trkpt lat="41.904916958883405" lon="-1.804012041538954">
        <ele>615.89999999999998</ele>
        <time>2018-05-29T07:06:42Z</time>
      </trkpt>
      <trkpt lat="41.904865996912122" lon="-1.803911039605737">
        <ele>615.20000000000005</ele>
        <time>2018-05-29T07:06:44Z</time>
      </trkpt>
      <trkpt lat="41.904789973050356" lon="-1.80381003767252">
        <ele>614.39999999999998</ele>
        <time>2018-05-29T07:06:48Z</time>
      </trkpt>
      <trkpt lat="41.904718978330493" lon="-1.803733007982373">
        <ele>614</ele>
        <time>2018-05-29T07:06:50Z</time>
      </trkpt>
      <trkpt lat="41.904633985832334" lon="-1.803669976070523">
        <ele>613.89999999999998</ele>
        <time>2018-05-29T07:06:53Z</time>
      </trkpt>
      <trkpt lat="41.904541030526161" lon="-1.803611973300576">
        <ele>613.79999999999995</ele>
        <time>2018-05-29T07:06:56Z</time>
      </trkpt>
      <trkpt lat="41.904443968087435" lon="-1.803556988015771">
        <ele>613.70000000000005</ele>
        <time>2018-05-29T07:06:59Z</time>
      </trkpt>
      <trkpt lat="41.904327962547541" lon="-1.803467972204089">
        <ele>613.5</ele>
        <time>2018-05-29T07:07:03Z</time>
      </trkpt>
      <trkpt lat="41.904244981706142" lon="-1.803364036604762">
        <ele>613</ele>
        <time>2018-05-29T07:07:07Z</time>
      </trkpt>
      <trkpt lat="41.904224026948214" lon="-1.80321098305285">
        <ele>612.39999999999998</ele>
        <time>2018-05-29T07:07:10Z</time>
      </trkpt>
      <trkpt lat="41.904184967279434" lon="-1.803048960864544">
        <ele>611.60000000000002</ele>
        <time>2018-05-29T07:07:14Z</time>
      </trkpt>
      <trkpt lat="41.904143979772925" lon="-1.802899008616805">
        <ele>611</ele>
        <time>2018-05-29T07:07:17Z</time>
      </trkpt>
      <trkpt lat="41.90411196090281" lon="-1.80276196449995">
        <ele>611.29999999999995</ele>
        <time>2018-05-29T07:07:21Z</time>
      </trkpt>
      <trkpt lat="41.904077008366585" lon="-1.80262902751565">
        <ele>611.60000000000002</ele>
        <time>2018-05-29T07:07:24Z</time>
      </trkpt>
      <trkpt lat="41.904039960354567" lon="-1.802498018369079">
        <ele>611.79999999999995</ele>
        <time>2018-05-29T07:07:27Z</time>
      </trkpt>
      <trkpt lat="41.904005007818341" lon="-1.802369020879269">
        <ele>611.89999999999998</ele>
        <time>2018-05-29T07:07:30Z</time>
      </trkpt>
      <trkpt lat="41.903965026140213" lon="-1.80224203504622">
        <ele>611.89999999999998</ele>
        <time>2018-05-29T07:07:33Z</time>
      </trkpt>
      <trkpt lat="41.903924038633704" lon="-1.802121000364423">
        <ele>611.79999999999995</ele>
        <time>2018-05-29T07:07:36Z</time>
      </trkpt>
      <trkpt lat="41.903884978964925" lon="-1.802009018138051">
        <ele>611.70000000000005</ele>
        <time>2018-05-29T07:07:38Z</time>
      </trkpt>
      <trkpt lat="41.903837034478784" lon="-1.801844984292984">
        <ele>611.79999999999995</ele>
        <time>2018-05-29T07:07:42Z</time>
      </trkpt>
      <trkpt lat="41.903809038922191" lon="-1.801712969318032">
        <ele>612</ele>
        <time>2018-05-29T07:07:45Z</time>
      </trkpt>
      <trkpt lat="41.903780959546566" lon="-1.801562011241913">
        <ele>612.20000000000005</ele>
        <time>2018-05-29T07:07:49Z</time>
      </trkpt>
      <trkpt lat="41.903752963989973" lon="-1.801437959074974">
        <ele>612.39999999999998</ele>
        <time>2018-05-29T07:07:52Z</time>
      </trkpt>
      <trkpt lat="41.903715999796987" lon="-1.801288006827235">
        <ele>612.60000000000002</ele>
        <time>2018-05-29T07:07:55Z</time>
      </trkpt>
      <trkpt lat="41.903708958998322" lon="-1.801137970760465">
        <ele>612.70000000000005</ele>
        <time>2018-05-29T07:07:58Z</time>
      </trkpt>
      <trkpt lat="41.903690015897155" lon="-1.800991035997868">
        <ele>612.5</ele>
        <time>2018-05-29T07:08:02Z</time>
      </trkpt>
      <trkpt lat="41.903647016733885" lon="-1.800862960517407">
        <ele>612.10000000000002</ele>
        <time>2018-05-29T07:08:05Z</time>
      </trkpt>
      <trkpt lat="41.903596976771951" lon="-1.800746032968164">
        <ele>611.70000000000005</ele>
        <time>2018-05-29T07:08:08Z</time>
      </trkpt>
      <trkpt lat="41.903567975386977" lon="-1.800612006336451">
        <ele>611.5</ele>
        <time>2018-05-29T07:08:11Z</time>
      </trkpt>
      <trkpt lat="41.903546014800668" lon="-1.800460964441299">
        <ele>611.29999999999995</ele>
        <time>2018-05-29T07:08:14Z</time>
      </trkpt>
      <trkpt lat="41.903527993708849" lon="-1.800317969173193">
        <ele>610.89999999999998</ele>
        <time>2018-05-29T07:08:18Z</time>
      </trkpt>
      <trkpt lat="41.903539979830384" lon="-1.800171034410596">
        <ele>610.60000000000002</ele>
        <time>2018-05-29T07:08:21Z</time>
      </trkpt>
      <trkpt lat="41.903537968173623" lon="-1.800034996122122">
        <ele>610.20000000000005</ele>
        <time>2018-05-29T07:08:24Z</time>
      </trkpt>
      <trkpt lat="41.903527993708849" lon="-1.799898035824299">
        <ele>609.79999999999995</ele>
        <time>2018-05-29T07:08:27Z</time>
      </trkpt>
      <trkpt lat="41.903496980667114" lon="-1.799756968393922">
        <ele>609.20000000000005</ele>
        <time>2018-05-29T07:08:30Z</time>
      </trkpt>
      <trkpt lat="41.903448030352592" lon="-1.799631994217634">
        <ele>608.70000000000005</ele>
        <time>2018-05-29T07:08:33Z</time>
      </trkpt>
      <trkpt lat="41.903408970683813" lon="-1.799496039748192">
        <ele>608.29999999999995</ele>
        <time>2018-05-29T07:08:36Z</time>
      </trkpt>
      <trkpt lat="41.90338097512722" lon="-1.799351032823324">
        <ele>608.10000000000002</ele>
        <time>2018-05-29T07:08:40Z</time>
      </trkpt>
      <trkpt lat="41.903347028419375" lon="-1.799210971221328">
        <ele>607.89999999999998</ele>
        <time>2018-05-29T07:08:43Z</time>
      </trkpt>
      <trkpt lat="41.903306962922215" lon="-1.799078034237027">
        <ele>607.5</ele>
        <time>2018-05-29T07:08:46Z</time>
      </trkpt>
      <trkpt lat="41.903262035921216" lon="-1.798953982070088">
        <ele>607.10000000000002</ele>
        <time>2018-05-29T07:08:49Z</time>
      </trkpt>
      <trkpt lat="41.903219958767295" lon="-1.798810986801982">
        <ele>606.60000000000002</ele>
        <time>2018-05-29T07:08:53Z</time>
      </trkpt>
      <trkpt lat="41.903201015666127" lon="-1.798666985705495">
        <ele>606.29999999999995</ele>
        <time>2018-05-29T07:08:56Z</time>
      </trkpt>
      <trkpt lat="41.903178971260786" lon="-1.798518039286137">
        <ele>606</ele>
        <time>2018-05-29T07:08:59Z</time>
      </trkpt>
      <trkpt lat="41.903153993189335" lon="-1.798369009047747">
        <ele>605.70000000000005</ele>
        <time>2018-05-29T07:09:02Z</time>
      </trkpt>
      <trkpt lat="41.903144018724561" lon="-1.798214027658105">
        <ele>605.39999999999998</ele>
        <time>2018-05-29T07:09:06Z</time>
      </trkpt>
      <trkpt lat="41.903145024552941" lon="-1.798048987984657">
        <ele>605.29999999999995</ele>
        <time>2018-05-29T07:09:10Z</time>
      </trkpt>
      <trkpt lat="41.90314301289618" lon="-1.797899035736918">
        <ele>605.10000000000002</ele>
        <time>2018-05-29T07:09:13Z</time>
      </trkpt>
      <trkpt lat="41.903101019561291" lon="-1.797750005498529">
        <ele>604.39999999999998</ele>
        <time>2018-05-29T07:09:16Z</time>
      </trkpt>
      <trkpt lat="41.90305701456964" lon="-1.797625031322241">
        <ele>603.70000000000005</ele>
        <time>2018-05-29T07:09:19Z</time>
      </trkpt>
      <trkpt lat="41.902991971001029" lon="-1.797503996640444">
        <ele>602.79999999999995</ele>
        <time>2018-05-29T07:09:23Z</time>
      </trkpt>
      <trkpt lat="41.90290697850287" lon="-1.797407018020749">
        <ele>601.70000000000005</ele>
        <time>2018-05-29T07:09:26Z</time>
      </trkpt>
      <trkpt lat="41.902802959084511" lon="-1.797328982502222">
        <ele>600.70000000000005</ele>
        <time>2018-05-29T07:09:30Z</time>
      </trkpt>
      <trkpt lat="41.90271302126348" lon="-1.797223035246134">
        <ele>599.79999999999995</ele>
        <time>2018-05-29T07:09:33Z</time>
      </trkpt>
      <trkpt lat="41.902686031535268" lon="-1.797077022492886">
        <ele>599.29999999999995</ele>
        <time>2018-05-29T07:09:36Z</time>
      </trkpt>
      <trkpt lat="41.902697011828423" lon="-1.796921035274863">
        <ele>599.60000000000002</ele>
        <time>2018-05-29T07:09:40Z</time>
      </trkpt>
      <trkpt lat="41.90266901627183" lon="-1.796794971451163">
        <ele>599.60000000000002</ele>
        <time>2018-05-29T07:09:43Z</time>
      </trkpt>
      <trkpt lat="41.902619982138276" lon="-1.796674020588398">
        <ele>599.39999999999998</ele>
        <time>2018-05-29T07:09:46Z</time>
      </trkpt>
      <trkpt lat="41.902578994631767" lon="-1.796533958986402">
        <ele>599.20000000000005</ele>
        <time>2018-05-29T07:09:49Z</time>
      </trkpt>
      <trkpt lat="41.902561979368329" lon="-1.796390041708946">
        <ele>599.29999999999995</ele>
        <time>2018-05-29T07:09:52Z</time>
      </trkpt>
      <trkpt lat="41.902548987418413" lon="-1.796246040612459">
        <ele>599.39999999999998</ele>
        <time>2018-05-29T07:09:56Z</time>
      </trkpt>
      <trkpt lat="41.902529960498214" lon="-1.796092987060547">
        <ele>599.5</ele>
        <time>2018-05-29T07:09:59Z</time>
      </trkpt>
      <trkpt lat="41.902495007961988" lon="-1.795918978750706">
        <ele>599.60000000000002</ele>
        <time>2018-05-29T07:10:03Z</time>
      </trkpt>
      <trkpt lat="41.902472963556647" lon="-1.795770032331348">
        <ele>599.60000000000002</ele>
        <time>2018-05-29T07:10:06Z</time>
      </trkpt>
      <trkpt lat="41.902456032112241" lon="-1.795629970729351">
        <ele>599.79999999999995</ele>
        <time>2018-05-29T07:10:09Z</time>
      </trkpt>
      <trkpt lat="41.902425019070506" lon="-1.795488987118006">
        <ele>599.70000000000005</ele>
        <time>2018-05-29T07:10:13Z</time>
      </trkpt>
      <trkpt lat="41.902374979108572" lon="-1.795337023213506">
        <ele>599.5</ele>
        <time>2018-05-29T07:10:16Z</time>
      </trkpt>
      <trkpt lat="41.902342960238457" lon="-1.795219006016851">
        <ele>599.10000000000002</ele>
        <time>2018-05-29T07:10:19Z</time>
      </trkpt>
      <trkpt lat="41.902312031015754" lon="-1.795105012133718">
        <ele>598.79999999999995</ele>
        <time>2018-05-29T07:10:22Z</time>
      </trkpt>
      <trkpt lat="41.902270959690213" lon="-1.794949024915695">
        <ele>598.20000000000005</ele>
        <time>2018-05-29T07:10:25Z</time>
      </trkpt>
      <trkpt lat="41.902233995497227" lon="-1.794791026040912">
        <ele>597.60000000000002</ele>
        <time>2018-05-29T07:10:29Z</time>
      </trkpt>
      <trkpt lat="41.902212034910917" lon="-1.794612994417548">
        <ele>597</ele>
        <time>2018-05-29T07:10:33Z</time>
      </trkpt>
      <trkpt lat="41.902216980233788" lon="-1.794462036341429">
        <ele>598.20000000000005</ele>
        <time>2018-05-29T07:10:36Z</time>
      </trkpt>
      <trkpt lat="41.90224296413362" lon="-1.794345024973154">
        <ele>599.60000000000002</ele>
        <time>2018-05-29T07:10:39Z</time>
      </trkpt>
      <trkpt lat="41.902275988832116" lon="-1.794218039140105">
        <ele>601.10000000000002</ele>
        <time>2018-05-29T07:10:42Z</time>
      </trkpt>
      <trkpt lat="41.902320999652147" lon="-1.794077977538109">
        <ele>602.79999999999995</ele>
        <time>2018-05-29T07:10:46Z</time>
      </trkpt>
      <trkpt lat="41.90239199437201" lon="-1.793942023068667">
        <ele>604.5</ele>
        <time>2018-05-29T07:10:49Z</time>
      </trkpt>
      <trkpt lat="41.902457037940621" lon="-1.793810008093715">
        <ele>605.89999999999998</ele>
        <time>2018-05-29T07:10:53Z</time>
      </trkpt>
      <trkpt lat="41.902481010183692" lon="-1.793681010603905">
        <ele>606.39999999999998</ele>
        <time>2018-05-29T07:10:56Z</time>
      </trkpt>
      <trkpt lat="41.902495007961988" lon="-1.793542038649321">
        <ele>606.39999999999998</ele>
        <time>2018-05-29T07:10:59Z</time>
      </trkpt>
      <trkpt lat="41.902518980205059" lon="-1.793401977047324">
        <ele>606.29999999999995</ele>
        <time>2018-05-29T07:11:02Z</time>
      </trkpt>
      <trkpt lat="41.902561979368329" lon="-1.793294018134475">
        <ele>606.29999999999995</ele>
        <time>2018-05-29T07:11:05Z</time>
      </trkpt>
      <trkpt lat="41.902610007673502" lon="-1.793178012594581">
        <ele>606.20000000000005</ele>
        <time>2018-05-29T07:11:08Z</time>
      </trkpt>
      <trkpt lat="41.902640014886856" lon="-1.793064018711448">
        <ele>606</ele>
        <time>2018-05-29T07:11:10Z</time>
      </trkpt>
      <trkpt lat="41.902662981301546" lon="-1.792946001514792">
        <ele>605.70000000000005</ele>
        <time>2018-05-29T07:11:13Z</time>
      </trkpt>
      <trkpt lat="41.90269198268652" lon="-1.792825972661376">
        <ele>604.89999999999998</ele>
        <time>2018-05-29T07:11:16Z</time>
      </trkpt>
      <trkpt lat="41.902717966586351" lon="-1.792707033455372">
        <ele>604.10000000000002</ele>
        <time>2018-05-29T07:11:18Z</time>
      </trkpt>
      <trkpt lat="41.902759037911892" lon="-1.79255498573184">
        <ele>602.89999999999998</ele>
        <time>2018-05-29T07:11:22Z</time>
      </trkpt>
      <trkpt lat="41.90277798101306" lon="-1.79240201599896">
        <ele>601.79999999999995</ele>
        <time>2018-05-29T07:11:25Z</time>
      </trkpt>
      <trkpt lat="41.902794996276498" lon="-1.792280981317163">
        <ele>600.89999999999998</ele>
        <time>2018-05-29T07:11:28Z</time>
      </trkpt>
      <trkpt lat="41.902837995439768" lon="-1.792135974392295">
        <ele>599.70000000000005</ele>
        <time>2018-05-29T07:11:32Z</time>
      </trkpt>
      <trkpt lat="41.902888035401702" lon="-1.791999014094472">
        <ele>598.79999999999995</ele>
        <time>2018-05-29T07:11:35Z</time>
      </trkpt>
      <trkpt lat="41.902917036786675" lon="-1.791882002726197">
        <ele>598.29999999999995</ele>
        <time>2018-05-29T07:11:38Z</time>
      </trkpt>
      <trkpt lat="41.902945032343268" lon="-1.791730038821697">
        <ele>597.70000000000005</ele>
        <time>2018-05-29T07:11:41Z</time>
      </trkpt>
      <trkpt lat="41.902976967394352" lon="-1.791601041331887">
        <ele>597.20000000000005</ele>
        <time>2018-05-29T07:11:44Z</time>
      </trkpt>
      <trkpt lat="41.903019966557622" lon="-1.791466008871794">
        <ele>596.70000000000005</ele>
        <time>2018-05-29T07:11:47Z</time>
      </trkpt>
      <trkpt lat="41.903065983206034" lon="-1.791328964754939">
        <ele>596.29999999999995</ele>
        <time>2018-05-29T07:11:51Z</time>
      </trkpt>
      <trkpt lat="41.903119962662458" lon="-1.791208013892174">
        <ele>595.79999999999995</ele>
        <time>2018-05-29T07:11:54Z</time>
      </trkpt>
      <trkpt lat="41.903188023716211" lon="-1.791094020009041">
        <ele>595.20000000000005</ele>
        <time>2018-05-29T07:11:57Z</time>
      </trkpt>
      <trkpt lat="41.903262035921216" lon="-1.790982037782669">
        <ele>594.70000000000005</ele>
        <time>2018-05-29T07:12:00Z</time>
      </trkpt>
      <trkpt lat="41.903332024812698" lon="-1.790875000879169">
        <ele>594.20000000000005</ele>
        <time>2018-05-29T07:12:04Z</time>
      </trkpt>
      <trkpt lat="41.903397990390658" lon="-1.790752038359642">
        <ele>593.70000000000005</ele>
        <time>2018-05-29T07:12:07Z</time>
      </trkpt>
      <trkpt lat="41.903462028130889" lon="-1.790627986192703">
        <ele>593.20000000000005</ele>
        <time>2018-05-29T07:12:10Z</time>
      </trkpt>
      <trkpt lat="41.903525982052088" lon="-1.790493037551642">
        <ele>592.79999999999995</ele>
        <time>2018-05-29T07:12:14Z</time>
      </trkpt>
      <trkpt lat="41.903597982600331" lon="-1.79036496207118">
        <ele>592.39999999999998</ele>
        <time>2018-05-29T07:12:17Z</time>
      </trkpt>
      <trkpt lat="41.903654979541898" lon="-1.790241999551654">
        <ele>591.79999999999995</ele>
        <time>2018-05-29T07:12:21Z</time>
      </trkpt>
      <trkpt lat="41.903694961220026" lon="-1.790119959041476">
        <ele>591.10000000000002</ele>
        <time>2018-05-29T07:12:23Z</time>
      </trkpt>
      <trkpt lat="41.903725974261761" lon="-1.789990961551666">
        <ele>590.39999999999998</ele>
        <time>2018-05-29T07:12:26Z</time>
      </trkpt>
      <trkpt lat="41.903755981475115" lon="-1.789850983768702">
        <ele>589.70000000000005</ele>
        <time>2018-05-29T07:12:30Z</time>
      </trkpt>
      <trkpt lat="41.903784982860088" lon="-1.789730032905936">
        <ele>589.20000000000005</ele>
        <time>2018-05-29T07:12:32Z</time>
      </trkpt>
      <trkpt lat="41.903825970366597" lon="-1.789613021537662">
        <ele>588.79999999999995</ele>
        <time>2018-05-29T07:12:35Z</time>
      </trkpt>
      <trkpt lat="41.903864024206996" lon="-1.789473965764046">
        <ele>589</ele>
        <time>2018-05-29T07:12:39Z</time>
      </trkpt>
      <trkpt lat="41.903908029198647" lon="-1.789356032386422">
        <ele>589.39999999999998</ele>
        <time>2018-05-29T07:12:41Z</time>
      </trkpt>
      <trkpt lat="41.903945999220014" lon="-1.789209013804793">
        <ele>589.79999999999995</ele>
        <time>2018-05-29T07:12:45Z</time>
      </trkpt>
      <trkpt lat="41.903979023918509" lon="-1.789064006879926">
        <ele>590</ele>
        <time>2018-05-29T07:12:48Z</time>
      </trkpt>
      <trkpt lat="41.903994027525187" lon="-1.788925034925342">
        <ele>590.10000000000002</ele>
        <time>2018-05-29T07:12:51Z</time>
      </trkpt>
      <trkpt lat="41.904022023081779" lon="-1.788796037435532">
        <ele>590.29999999999995</ele>
        <time>2018-05-29T07:12:54Z</time>
      </trkpt>
      <trkpt lat="41.904042977839708" lon="-1.788666034117341">
        <ele>590.29999999999995</ele>
        <time>2018-05-29T07:12:57Z</time>
      </trkpt>
      <trkpt lat="41.904072985053062" lon="-1.788536030799151">
        <ele>590.29999999999995</ele>
        <time>2018-05-29T07:13:00Z</time>
      </trkpt>
      <trkpt lat="41.904097963124514" lon="-1.788391023874283">
        <ele>590.10000000000002</ele>
        <time>2018-05-29T07:13:04Z</time>
      </trkpt>
      <trkpt lat="41.904093017801642" lon="-1.788263032212853">
        <ele>589.89999999999998</ele>
        <time>2018-05-29T07:13:06Z</time>
      </trkpt>
      <trkpt lat="41.904121013358235" lon="-1.788116013631225">
        <ele>589.79999999999995</ele>
        <time>2018-05-29T07:13:10Z</time>
      </trkpt>
      <trkpt lat="41.90415496006608" lon="-1.787993973121047">
        <ele>589.60000000000002</ele>
        <time>2018-05-29T07:13:13Z</time>
      </trkpt>
      <trkpt lat="41.904198965057731" lon="-1.787860030308366">
        <ele>589.29999999999995</ele>
        <time>2018-05-29T07:13:16Z</time>
      </trkpt>
      <trkpt lat="41.904236013069749" lon="-1.787727009505034">
        <ele>588.89999999999998</ele>
        <time>2018-05-29T07:13:19Z</time>
      </trkpt>
      <trkpt lat="41.904270965605974" lon="-1.787598012015224">
        <ele>588.39999999999998</ele>
        <time>2018-05-29T07:13:22Z</time>
      </trkpt>
      <trkpt lat="41.904314970597625" lon="-1.787482006475329">
        <ele>587.89999999999998</ele>
        <time>2018-05-29T07:13:25Z</time>
      </trkpt>
      <trkpt lat="41.904371967539191" lon="-1.787341022863984">
        <ele>587.29999999999995</ele>
        <time>2018-05-29T07:13:28Z</time>
      </trkpt>
      <trkpt lat="41.904426030814648" lon="-1.787219988182187">
        <ele>586.79999999999995</ele>
        <time>2018-05-29T07:13:32Z</time>
      </trkpt>
      <trkpt lat="41.904472969472408" lon="-1.787113035097718">
        <ele>586.29999999999995</ele>
        <time>2018-05-29T07:13:34Z</time>
      </trkpt>
      <trkpt lat="41.904528038576245" lon="-1.787013038992882">
        <ele>585.70000000000005</ele>
        <time>2018-05-29T07:13:37Z</time>
      </trkpt>
      <trkpt lat="41.904571037739515" lon="-1.786900972947478">
        <ele>585.10000000000002</ele>
        <time>2018-05-29T07:13:40Z</time>
      </trkpt>
      <trkpt lat="41.904615964740515" lon="-1.786783039569855">
        <ele>584.60000000000002</ele>
        <time>2018-05-29T07:13:43Z</time>
      </trkpt>
      <trkpt lat="41.904664998874068" lon="-1.786639038473368">
        <ele>584</ele>
        <time>2018-05-29T07:13:46Z</time>
      </trkpt>
      <trkpt lat="41.904700035229325" lon="-1.786522027105093">
        <ele>583.5</ele>
        <time>2018-05-29T07:13:49Z</time>
      </trkpt>
      <trkpt lat="41.90473398193717" lon="-1.786409039050341">
        <ele>583.10000000000002</ele>
        <time>2018-05-29T07:13:52Z</time>
      </trkpt>
      <trkpt lat="41.904782010242343" lon="-1.786265959963203">
        <ele>582.60000000000002</ele>
        <time>2018-05-29T07:13:55Z</time>
      </trkpt>
      <trkpt lat="41.904833978042006" lon="-1.786159006878734">
        <ele>582.39999999999998</ele>
        <time>2018-05-29T07:13:58Z</time>
      </trkpt>
      <trkpt lat="41.904889969155192" lon="-1.786053981631994">
        <ele>582.20000000000005</ele>
        <time>2018-05-29T07:14:01Z</time>
      </trkpt>
      <trkpt lat="41.904931962490082" lon="-1.78593403659761">
        <ele>581.89999999999998</ele>
        <time>2018-05-29T07:14:04Z</time>
      </trkpt>
      <trkpt lat="41.904966998845339" lon="-1.78578500635922">
        <ele>581.5</ele>
        <time>2018-05-29T07:14:07Z</time>
      </trkpt>
      <trkpt lat="41.905002035200596" lon="-1.785660032182932">
        <ele>581.20000000000005</ele>
        <time>2018-05-29T07:14:10Z</time>
      </trkpt>
      <trkpt lat="41.905042016878724" lon="-1.785530028864741">
        <ele>580.89999999999998</ele>
        <time>2018-05-29T07:14:13Z</time>
      </trkpt>
      <trkpt lat="41.905092978850007" lon="-1.785406982526183">
        <ele>580.60000000000002</ele>
        <time>2018-05-29T07:14:16Z</time>
      </trkpt>
      <trkpt lat="41.905136983841658" lon="-1.785286031663418">
        <ele>580.60000000000002</ele>
        <time>2018-05-29T07:14:19Z</time>
      </trkpt>
      <trkpt lat="41.905175959691405" lon="-1.785168014466763">
        <ele>580.60000000000002</ele>
        <time>2018-05-29T07:14:22Z</time>
      </trkpt>
      <trkpt lat="41.905220970511436" lon="-1.785042034462094">
        <ele>580.70000000000005</ele>
        <time>2018-05-29T07:14:25Z</time>
      </trkpt>
      <trkpt lat="41.905263969674706" lon="-1.784913958981633">
        <ele>580.70000000000005</ele>
        <time>2018-05-29T07:14:28Z</time>
      </trkpt>
      <trkpt lat="41.905278973281384" lon="-1.784786973148584">
        <ele>580.70000000000005</ele>
        <time>2018-05-29T07:14:31Z</time>
      </trkpt>
      <trkpt lat="41.905299006029963" lon="-1.784626040607691">
        <ele>580.70000000000005</ele>
        <time>2018-05-29T07:14:35Z</time>
      </trkpt>
      <trkpt lat="41.905322978273034" lon="-1.784500982612371">
        <ele>580.70000000000005</ele>
        <time>2018-05-29T07:14:38Z</time>
      </trkpt>
      <trkpt lat="41.905353991314769" lon="-1.784367961809039">
        <ele>580.60000000000002</ele>
        <time>2018-05-29T07:14:41Z</time>
      </trkpt>
      <trkpt lat="41.905391961336136" lon="-1.784206023439765">
        <ele>580.5</ele>
        <time>2018-05-29T07:14:44Z</time>
      </trkpt>
      <trkpt lat="41.905409982427955" lon="-1.784081971272826">
        <ele>580.39999999999998</ele>
        <time>2018-05-29T07:14:47Z</time>
      </trkpt>
      <trkpt lat="41.905420962721109" lon="-1.783958002924919">
        <ele>580.29999999999995</ele>
        <time>2018-05-29T07:14:50Z</time>
      </trkpt>
      <trkpt lat="41.905418029054999" lon="-1.783792963251472">
        <ele>580.10000000000002</ele>
        <time>2018-05-29T07:14:54Z</time>
      </trkpt>
      <trkpt lat="41.90541903488338" lon="-1.783633958548307">
        <ele>580</ele>
        <time>2018-05-29T07:14:57Z</time>
      </trkpt>
      <trkpt lat="41.905420962721109" lon="-1.783477971330285">
        <ele>580</ele>
        <time>2018-05-29T07:15:01Z</time>
      </trkpt>
      <trkpt lat="41.905403025448322" lon="-1.78335702046752">
        <ele>580</ele>
        <time>2018-05-29T07:15:03Z</time>
      </trkpt>
      <trkpt lat="41.905362037941813" lon="-1.783219976350665">
        <ele>579.89999999999998</ele>
        <time>2018-05-29T07:15:07Z</time>
      </trkpt>
      <trkpt lat="41.905333958566189" lon="-1.78310195915401">
        <ele>579.79999999999995</ele>
        <time>2018-05-29T07:15:09Z</time>
      </trkpt>
      <trkpt lat="41.905309986323118" lon="-1.78294999524951">
        <ele>579.70000000000005</ele>
        <time>2018-05-29T07:15:13Z</time>
      </trkpt>
      <trkpt lat="41.905288025736809" lon="-1.7828019708395">
        <ele>579.5</ele>
        <time>2018-05-29T07:15:16Z</time>
      </trkpt>
      <trkpt lat="41.905276961624622" lon="-1.782664004713297">
        <ele>579.29999999999995</ele>
        <time>2018-05-29T07:15:19Z</time>
      </trkpt>
      <trkpt lat="41.905265981331468" lon="-1.782513968646526">
        <ele>579</ele>
        <time>2018-05-29T07:15:22Z</time>
      </trkpt>
      <trkpt lat="41.905256006866693" lon="-1.782379020005465">
        <ele>578.70000000000005</ele>
        <time>2018-05-29T07:15:25Z</time>
      </trkpt>
      <trkpt lat="41.90524997189641" lon="-1.782253962010145">
        <ele>578.5</ele>
        <time>2018-05-29T07:15:28Z</time>
      </trkpt>
      <trkpt lat="41.905248966068029" lon="-1.782123958691955">
        <ele>578.29999999999995</ele>
        <time>2018-05-29T07:15:31Z</time>
      </trkpt>
      <trkpt lat="41.905253995209932" lon="-1.781997978687286">
        <ele>578</ele>
        <time>2018-05-29T07:15:34Z</time>
      </trkpt>
      <trkpt lat="41.905276961624622" lon="-1.781840985640883">
        <ele>577.79999999999995</ele>
        <time>2018-05-29T07:15:37Z</time>
      </trkpt>
      <trkpt lat="41.905348962172866" lon="-1.781721040606499">
        <ele>577.79999999999995</ele>
        <time>2018-05-29T07:15:41Z</time>
      </trkpt>
      <trkpt lat="41.905407970771194" lon="-1.781619032844901">
        <ele>577.89999999999998</ele>
        <time>2018-05-29T07:15:44Z</time>
      </trkpt>
      <trkpt lat="41.905478965491056" lon="-1.781494980677962">
        <ele>577.89999999999998</ele>
        <time>2018-05-29T07:15:47Z</time>
      </trkpt>
      <trkpt lat="41.905547026544809" lon="-1.781396996229887">
        <ele>578</ele>
        <time>2018-05-29T07:15:50Z</time>
      </trkpt>
      <trkpt lat="41.905620032921433" lon="-1.781289959326387">
        <ele>578.10000000000002</ele>
        <time>2018-05-29T07:15:53Z</time>
      </trkpt>
      <trkpt lat="41.905698990449309" lon="-1.781188035383821">
        <ele>578.10000000000002</ele>
        <time>2018-05-29T07:15:56Z</time>
      </trkpt>
      <trkpt lat="41.90576596185565" lon="-1.781083010137081">
        <ele>577.79999999999995</ele>
        <time>2018-05-29T07:15:59Z</time>
      </trkpt>
      <trkpt lat="41.905814995989203" lon="-1.780944960191846">
        <ele>577.10000000000002</ele>
        <time>2018-05-29T07:16:03Z</time>
      </trkpt>
      <trkpt lat="41.905855983495712" lon="-1.780829038470984">
        <ele>576.5</ele>
        <time>2018-05-29T07:16:06Z</time>
      </trkpt>
      <trkpt lat="41.90589495934546" lon="-1.780689982697368">
        <ele>575.60000000000002</ele>
        <time>2018-05-29T07:16:09Z</time>
      </trkpt>
      <trkpt lat="41.905929995700717" lon="-1.780555034056306">
        <ele>574.70000000000005</ele>
        <time>2018-05-29T07:16:12Z</time>
      </trkpt>
      <trkpt lat="41.905970983207226" lon="-1.780426036566496">
        <ele>573.70000000000005</ele>
        <time>2018-05-29T07:16:15Z</time>
      </trkpt>
      <trkpt lat="41.905990010127425" lon="-1.780283963307738">
        <ele>572.89999999999998</ele>
        <time>2018-05-29T07:16:18Z</time>
      </trkpt>
      <trkpt lat="41.906025968492031" lon="-1.780151026323438">
        <ele>572</ele>
        <time>2018-05-29T07:16:22Z</time>
      </trkpt>
      <trkpt lat="41.906066033989191" lon="-1.780004007741809">
        <ele>570.89999999999998</ele>
        <time>2018-05-29T07:16:25Z</time>
      </trkpt>
      <trkpt lat="41.906096963211894" lon="-1.779864029958844">
        <ele>569.89999999999998</ele>
        <time>2018-05-29T07:16:28Z</time>
      </trkpt>
      <trkpt lat="41.906140968203545" lon="-1.779719023033977">
        <ele>568.70000000000005</ele>
        <time>2018-05-29T07:16:32Z</time>
      </trkpt>
      <trkpt lat="41.90617399290204" lon="-1.779605029150844">
        <ele>567.70000000000005</ele>
        <time>2018-05-29T07:16:34Z</time>
      </trkpt>
      <trkpt lat="41.90621699206531" lon="-1.779480976983905">
        <ele>566.89999999999998</ele>
        <time>2018-05-29T07:16:37Z</time>
      </trkpt>
      <trkpt lat="41.906253034248948" lon="-1.779349967837334">
        <ele>566.10000000000002</ele>
        <time>2018-05-29T07:16:41Z</time>
      </trkpt>
      <trkpt lat="41.906287986785173" lon="-1.779227005317807">
        <ele>565.39999999999998</ele>
        <time>2018-05-29T07:16:43Z</time>
      </trkpt>
      <trkpt lat="41.906318999826908" lon="-1.779090967029333">
        <ele>564.70000000000005</ele>
        <time>2018-05-29T07:16:47Z</time>
      </trkpt>
      <trkpt lat="41.906358981505036" lon="-1.778929028660059">
        <ele>563.79999999999995</ele>
        <time>2018-05-29T07:16:50Z</time>
      </trkpt>
      <trkpt lat="41.906399969011545" lon="-1.778798019513488">
        <ele>563.10000000000002</ele>
        <time>2018-05-29T07:16:54Z</time>
      </trkpt>
      <trkpt lat="41.906459983438253" lon="-1.778647983446717">
        <ele>561.89999999999998</ele>
        <time>2018-05-29T07:16:57Z</time>
      </trkpt>
      <trkpt lat="41.90649401396513" lon="-1.778497025370598">
        <ele>560.79999999999995</ele>
        <time>2018-05-29T07:17:01Z</time>
      </trkpt>
      <trkpt lat="41.906484039500356" lon="-1.778356963768601">
        <ele>560.10000000000002</ele>
        <time>2018-05-29T07:17:04Z</time>
      </trkpt>
      <trkpt lat="41.90645101480186" lon="-1.778226960450411">
        <ele>559.39999999999998</ele>
        <time>2018-05-29T07:17:07Z</time>
      </trkpt>
      <trkpt lat="41.906397035345435" lon="-1.778106009587646">
        <ele>558.60000000000002</ele>
        <time>2018-05-29T07:17:10Z</time>
      </trkpt>
      <trkpt lat="41.906341966241598" lon="-1.777982041239739">
        <ele>557.70000000000005</ele>
        <time>2018-05-29T07:17:13Z</time>
      </trkpt>
      <trkpt lat="41.906288992613554" lon="-1.777863018214703">
        <ele>557</ele>
        <time>2018-05-29T07:17:16Z</time>
      </trkpt>
      <trkpt lat="41.906246999278665" lon="-1.777751035988331">
        <ele>556.60000000000002</ele>
        <time>2018-05-29T07:17:19Z</time>
      </trkpt>
      <trkpt lat="41.906213974580169" lon="-1.77762103267014">
        <ele>556.70000000000005</ele>
        <time>2018-05-29T07:17:22Z</time>
      </trkpt>
      <trkpt lat="41.90621598623693" lon="-1.777488011866808">
        <ele>556.29999999999995</ele>
        <time>2018-05-29T07:17:25Z</time>
      </trkpt>
      <trkpt lat="41.906234007328749" lon="-1.777349961921573">
        <ele>555.79999999999995</ele>
        <time>2018-05-29T07:17:28Z</time>
      </trkpt>
      <trkpt lat="41.906221015378833" lon="-1.777187017723918">
        <ele>555.5</ele>
        <time>2018-05-29T07:17:32Z</time>
      </trkpt>
      <trkpt lat="41.906199976801872" lon="-1.77706397138536">
        <ele>555.39999999999998</ele>
        <time>2018-05-29T07:17:35Z</time>
      </trkpt>
      <trkpt lat="41.906184973195195" lon="-1.776943020522595">
        <ele>555.39999999999998</ele>
        <time>2018-05-29T07:17:37Z</time>
      </trkpt>
      <trkpt lat="41.906148009002209" lon="-1.776771023869515">
        <ele>555.5</ele>
        <time>2018-05-29T07:17:41Z</time>
      </trkpt>
      <trkpt lat="41.906114984303713" lon="-1.776657029986382">
        <ele>555.60000000000002</ele>
        <time>2018-05-29T07:17:44Z</time>
      </trkpt>
      <trkpt lat="41.906092017889023" lon="-1.776531971991062">
        <ele>555.5</ele>
        <time>2018-05-29T07:17:47Z</time>
      </trkpt>
      <trkpt lat="41.906076008453965" lon="-1.776351006701589">
        <ele>555.29999999999995</ele>
        <time>2018-05-29T07:17:51Z</time>
      </trkpt>
      <trkpt lat="41.906069973483682" lon="-1.776227038353682">
        <ele>555.20000000000005</ele>
        <time>2018-05-29T07:17:53Z</time>
      </trkpt>
      <trkpt lat="41.906067961826921" lon="-1.776100974529982">
        <ele>555.20000000000005</ele>
        <time>2018-05-29T07:17:56Z</time>
      </trkpt>
      <trkpt lat="41.906063016504049" lon="-1.77596602588892">
        <ele>555.29999999999995</ele>
        <time>2018-05-29T07:17:59Z</time>
      </trkpt>
      <trkpt lat="41.906062010675669" lon="-1.775828981772065">
        <ele>555.29999999999995</ele>
        <time>2018-05-29T07:18:02Z</time>
      </trkpt>
      <trkpt lat="41.906056981533766" lon="-1.775701995939016">
        <ele>555.29999999999995</ele>
        <time>2018-05-29T07:18:05Z</time>
      </trkpt>
      <trkpt lat="41.906050024554133" lon="-1.775575010105968">
        <ele>555.29999999999995</ele>
        <time>2018-05-29T07:18:08Z</time>
      </trkpt>
      <trkpt lat="41.906041977927089" lon="-1.77545003592968">
        <ele>555.29999999999995</ele>
        <time>2018-05-29T07:18:11Z</time>
      </trkpt>
      <trkpt lat="41.906038038432598" lon="-1.775315003469586">
        <ele>555.39999999999998</ele>
        <time>2018-05-29T07:18:14Z</time>
      </trkpt>
      <trkpt lat="41.906035020947456" lon="-1.775180976837874">
        <ele>555.60000000000002</ele>
        <time>2018-05-29T07:18:17Z</time>
      </trkpt>
      <trkpt lat="41.906028985977173" lon="-1.775048961862922">
        <ele>555.70000000000005</ele>
        <time>2018-05-29T07:18:19Z</time>
      </trkpt>
      <trkpt lat="41.906025968492031" lon="-1.774917030707002">
        <ele>555.89999999999998</ele>
        <time>2018-05-29T07:18:22Z</time>
      </trkpt>
      <trkpt lat="41.906027980148792" lon="-1.774786021560431">
        <ele>556.10000000000002</ele>
        <time>2018-05-29T07:18:25Z</time>
      </trkpt>
      <trkpt lat="41.906028985977173" lon="-1.774659035727382">
        <ele>556.29999999999995</ele>
        <time>2018-05-29T07:18:28Z</time>
      </trkpt>
      <trkpt lat="41.906024962663651" lon="-1.774530038237572">
        <ele>556.39999999999998</ele>
        <time>2018-05-29T07:18:31Z</time>
      </trkpt>
      <trkpt lat="41.906024040654302" lon="-1.774393999949098">
        <ele>556.5</ele>
        <time>2018-05-29T07:18:34Z</time>
      </trkpt>
      <trkpt lat="41.906024962663651" lon="-1.774263996630907">
        <ele>556.70000000000005</ele>
        <time>2018-05-29T07:18:37Z</time>
      </trkpt>
      <trkpt lat="41.906027980148792" lon="-1.774131981655955">
        <ele>556.79999999999995</ele>
        <time>2018-05-29T07:18:40Z</time>
      </trkpt>
      <trkpt lat="41.906014988198876" lon="-1.773829981684685">
        <ele>557</ele>
        <time>2018-05-29T07:18:46Z</time>
      </trkpt>
      <trkpt lat="41.906008031219244" lon="-1.773654967546463">
        <ele>556.89999999999998</ele>
        <time>2018-05-29T07:18:50Z</time>
      </trkpt>
      <trkpt lat="41.905995961278677" lon="-1.77349403500557">
        <ele>556.70000000000005</ele>
        <time>2018-05-29T07:18:54Z</time>
      </trkpt>
      <trkpt lat="41.905983975157142" lon="-1.773318015038967">
        <ele>556.60000000000002</ele>
        <time>2018-05-29T07:18:58Z</time>
      </trkpt>
      <trkpt lat="41.905991015955806" lon="-1.77319304086268">
        <ele>556.60000000000002</ele>
        <time>2018-05-29T07:19:00Z</time>
      </trkpt>
      <trkpt lat="41.906005013734102" lon="-1.773072006180883">
        <ele>556.60000000000002</ele>
        <time>2018-05-29T07:19:03Z</time>
      </trkpt>
      <trkpt lat="41.906033009290695" lon="-1.7728949803859">
        <ele>556.70000000000005</ele>
        <time>2018-05-29T07:19:07Z</time>
      </trkpt>
      <trkpt lat="41.906056981533766" lon="-1.772776963189244">
        <ele>556.70000000000005</ele>
        <time>2018-05-29T07:19:10Z</time>
      </trkpt>
      <trkpt lat="41.906081959605217" lon="-1.77265802398324">
        <ele>556.70000000000005</ele>
        <time>2018-05-29T07:19:13Z</time>
      </trkpt>
      <trkpt lat="41.906111966818571" lon="-1.772530032321811">
        <ele>556.79999999999995</ele>
        <time>2018-05-29T07:19:16Z</time>
      </trkpt>
      <trkpt lat="41.906139040365815" lon="-1.772412015125155">
        <ele>556.79999999999995</ele>
        <time>2018-05-29T07:19:18Z</time>
      </trkpt>
      <trkpt lat="41.906159995123744" lon="-1.7722939979285">
        <ele>556.79999999999995</ele>
        <time>2018-05-29T07:19:21Z</time>
      </trkpt>
      <trkpt lat="41.906181033700705" lon="-1.772172041237354">
        <ele>556.79999999999995</ele>
        <time>2018-05-29T07:19:24Z</time>
      </trkpt>
      <trkpt lat="41.906207017600536" lon="-1.77205502986908">
        <ele>556.79999999999995</ele>
        <time>2018-05-29T07:19:26Z</time>
      </trkpt>
      <trkpt lat="41.906238030642271" lon="-1.77192896604538">
        <ele>556.89999999999998</ele>
        <time>2018-05-29T07:19:29Z</time>
      </trkpt>
      <trkpt lat="41.906267032027245" lon="-1.771813966333866">
        <ele>557.10000000000002</ele>
        <time>2018-05-29T07:19:32Z</time>
      </trkpt>
      <trkpt lat="41.906295027583838" lon="-1.771644987165928">
        <ele>557.20000000000005</ele>
        <time>2018-05-29T07:19:36Z</time>
      </trkpt>
      <trkpt lat="41.906298967078328" lon="-1.771484976634383">
        <ele>557.29999999999995</ele>
        <time>2018-05-29T07:19:39Z</time>
      </trkpt>
      <trkpt lat="41.906311959028244" lon="-1.771333012729883">
        <ele>557.39999999999998</ele>
        <time>2018-05-29T07:19:43Z</time>
      </trkpt>
      <trkpt lat="41.906330985948443" lon="-1.771212983876467">
        <ele>557.39999999999998</ele>
        <time>2018-05-29T07:19:45Z</time>
      </trkpt>
      <trkpt lat="41.90636501647532" lon="-1.771095972508192">
        <ele>557.5</ele>
        <time>2018-05-29T07:19:48Z</time>
      </trkpt>
      <trkpt lat="41.906400974839926" lon="-1.770974015817046">
        <ele>557.60000000000002</ele>
        <time>2018-05-29T07:19:51Z</time>
      </trkpt>
      <trkpt lat="41.906437017023563" lon="-1.770846024155617">
        <ele>557.70000000000005</ele>
        <time>2018-05-29T07:19:54Z</time>
      </trkpt>
      <trkpt lat="41.90647498704493" lon="-1.770711997523904">
        <ele>557.89999999999998</ele>
        <time>2018-05-29T07:19:57Z</time>
      </trkpt>
      <trkpt lat="41.906498959288001" lon="-1.770581994205713">
        <ele>557.89999999999998</ele>
        <time>2018-05-29T07:20:00Z</time>
      </trkpt>
      <trkpt lat="41.906514968723059" lon="-1.770449979230762">
        <ele>557.89999999999998</ele>
        <time>2018-05-29T07:20:03Z</time>
      </trkpt>
      <trkpt lat="41.906530978158116" lon="-1.770331040024757">
        <ele>557.60000000000002</ele>
        <time>2018-05-29T07:20:06Z</time>
      </trkpt>
      <trkpt lat="41.906548999249935" lon="-1.770201036706567">
        <ele>557.20000000000005</ele>
        <time>2018-05-29T07:20:09Z</time>
      </trkpt>
      <trkpt lat="41.906570037826896" lon="-1.77006097510457">
        <ele>556.79999999999995</ele>
        <time>2018-05-29T07:20:12Z</time>
      </trkpt>
      <trkpt lat="41.906584035605192" lon="-1.769925020635128">
        <ele>556.29999999999995</ele>
        <time>2018-05-29T07:20:15Z</time>
      </trkpt>
      <trkpt lat="41.906579006463289" lon="-1.769789988175035">
        <ele>555.70000000000005</ele>
        <time>2018-05-29T07:20:18Z</time>
      </trkpt>
      <trkpt lat="41.906557967886329" lon="-1.769665013998747">
        <ele>554.89999999999998</ele>
        <time>2018-05-29T07:20:21Z</time>
      </trkpt>
      <trkpt lat="41.906552016735077" lon="-1.769497040659189">
        <ele>554.39999999999998</ele>
        <time>2018-05-29T07:20:24Z</time>
      </trkpt>
      <trkpt lat="41.90655997954309" lon="-1.769369971007109">
        <ele>554.20000000000005</ele>
        <time>2018-05-29T07:20:27Z</time>
      </trkpt>
      <trkpt lat="41.906567020341754" lon="-1.769237034022808">
        <ele>553.89999999999998</ele>
        <time>2018-05-29T07:20:30Z</time>
      </trkpt>
      <trkpt lat="41.906566014513373" lon="-1.769106024876237">
        <ele>553.60000000000002</ele>
        <time>2018-05-29T07:20:33Z</time>
      </trkpt>
      <trkpt lat="41.906569031998515" lon="-1.768975015729666">
        <ele>553.39999999999998</ele>
        <time>2018-05-29T07:20:36Z</time>
      </trkpt>
      <trkpt lat="41.906570959836245" lon="-1.768841994926333">
        <ele>553.10000000000002</ele>
        <time>2018-05-29T07:20:39Z</time>
      </trkpt>
      <trkpt lat="41.906572971493006" lon="-1.768420971930027">
        <ele>552.70000000000005</ele>
        <time>2018-05-29T07:20:48Z</time>
      </trkpt>
      <trkpt lat="41.906570959836245" lon="-1.768287029117346">
        <ele>552.60000000000002</ele>
        <time>2018-05-29T07:20:51Z</time>
      </trkpt>
      <trkpt lat="41.906566014513373" lon="-1.768155014142394">
        <ele>552.5</ele>
        <time>2018-05-29T07:20:54Z</time>
      </trkpt>
      <trkpt lat="41.906561991199851" lon="-1.768028028309345">
        <ele>552.29999999999995</ele>
        <time>2018-05-29T07:20:57Z</time>
      </trkpt>
      <trkpt lat="41.90655997954309" lon="-1.767900958657265">
        <ele>552.20000000000005</ele>
        <time>2018-05-29T07:21:00Z</time>
      </trkpt>
      <trkpt lat="41.906553022563457" lon="-1.767767015844584">
        <ele>552.20000000000005</ele>
        <time>2018-05-29T07:21:03Z</time>
      </trkpt>
      <trkpt lat="41.906548999249935" lon="-1.767636006698012">
        <ele>552.20000000000005</ele>
        <time>2018-05-29T07:21:06Z</time>
      </trkpt>
      <trkpt lat="41.906543970108032" lon="-1.76750298589468">
        <ele>552.29999999999995</ele>
        <time>2018-05-29T07:21:08Z</time>
      </trkpt>
      <trkpt lat="41.906533995643258" lon="-1.767364013940096">
        <ele>552.29999999999995</ele>
        <time>2018-05-29T07:21:12Z</time>
      </trkpt>
      <trkpt lat="41.906524021178484" lon="-1.767220012843609">
        <ele>552.29999999999995</ele>
        <time>2018-05-29T07:21:15Z</time>
      </trkpt>
      <trkpt lat="41.906507005915046" lon="-1.767083974555135">
        <ele>552.20000000000005</ele>
        <time>2018-05-29T07:21:18Z</time>
      </trkpt>
      <trkpt lat="41.906489990651608" lon="-1.76696302369237">
        <ele>552.29999999999995</ele>
        <time>2018-05-29T07:21:20Z</time>
      </trkpt>
      <trkpt lat="41.90647498704493" lon="-1.766795972362161">
        <ele>552.29999999999995</ele>
        <time>2018-05-29T07:21:24Z</time>
      </trkpt>
      <trkpt lat="41.906437017023563" lon="-1.766681978479028">
        <ele>552.29999999999995</ele>
        <time>2018-05-29T07:21:27Z</time>
      </trkpt>
      <trkpt lat="41.906426958739758" lon="-1.766532026231289">
        <ele>552.39999999999998</ele>
        <time>2018-05-29T07:21:30Z</time>
      </trkpt>
      <trkpt lat="41.906422013416886" lon="-1.766365980729461">
        <ele>552.5</ele>
        <time>2018-05-29T07:21:34Z</time>
      </trkpt>
      <trkpt lat="41.906436011195183" lon="-1.766230026260018">
        <ele>552.70000000000005</ele>
        <time>2018-05-29T07:21:37Z</time>
      </trkpt>
      <trkpt lat="41.906414972618222" lon="-1.766074039041996">
        <ele>552.5</ele>
        <time>2018-05-29T07:21:40Z</time>
      </trkpt>
      <trkpt lat="41.906240964308381" lon="-1.765729039907455">
        <ele>552</ele>
        <time>2018-05-29T07:21:50Z</time>
      </trkpt>
      <trkpt lat="41.90623995848" lon="-1.765572968870401">
        <ele>552</ele>
        <time>2018-05-29T07:21:53Z</time>
      </trkpt>
      <trkpt lat="41.906235013157129" lon="-1.765428967773914">
        <ele>551.89999999999998</ele>
        <time>2018-05-29T07:21:56Z</time>
      </trkpt>
      <trkpt lat="41.906225038692355" lon="-1.765242973342538">
        <ele>551.29999999999995</ele>
        <time>2018-05-29T07:22:00Z</time>
      </trkpt>
      <trkpt lat="41.906214980408549" lon="-1.765100983902812">
        <ele>550.70000000000005</ele>
        <time>2018-05-29T07:22:04Z</time>
      </trkpt>
      <trkpt lat="41.906210035085678" lon="-1.7649220302701">
        <ele>550</ele>
        <time>2018-05-29T07:22:07Z</time>
      </trkpt>
      <trkpt lat="41.906207017600536" lon="-1.764797978103161">
        <ele>549.60000000000002</ele>
        <time>2018-05-29T07:22:10Z</time>
      </trkpt>
      <trkpt lat="41.906205005943775" lon="-1.764649031683803">
        <ele>549</ele>
        <time>2018-05-29T07:22:13Z</time>
      </trkpt>
      <trkpt lat="41.906202994287014" lon="-1.764508970081806">
        <ele>548.79999999999995</ele>
        <time>2018-05-29T07:22:17Z</time>
      </trkpt>
      <trkpt lat="41.906201988458633" lon="-1.764351977035403">
        <ele>548.79999999999995</ele>
        <time>2018-05-29T07:22:20Z</time>
      </trkpt>
      <trkpt lat="41.906200982630253" lon="-1.7642140109092">
        <ele>548.70000000000005</ele>
        <time>2018-05-29T07:22:23Z</time>
      </trkpt>
      <trkpt lat="41.906205005943775" lon="-1.764046037569642">
        <ele>548.70000000000005</ele>
        <time>2018-05-29T07:22:27Z</time>
      </trkpt>
      <trkpt lat="41.906212968751788" lon="-1.763876974582672">
        <ele>548.79999999999995</ele>
        <time>2018-05-29T07:22:31Z</time>
      </trkpt>
      <trkpt lat="41.906242975965142" lon="-1.76367798820138">
        <ele>549</ele>
        <time>2018-05-29T07:22:35Z</time>
      </trkpt>
      <trkpt lat="41.906272983178496" lon="-1.763554019853473">
        <ele>549</ele>
        <time>2018-05-29T07:22:38Z</time>
      </trkpt>
      <trkpt lat="41.906306007876992" lon="-1.763424016535282">
        <ele>549</ele>
        <time>2018-05-29T07:22:41Z</time>
      </trkpt>
      <trkpt lat="41.906341966241598" lon="-1.763261994346976">
        <ele>549.10000000000002</ele>
        <time>2018-05-29T07:22:45Z</time>
      </trkpt>
      <trkpt lat="41.906370967626572" lon="-1.763107012957335">
        <ele>549.10000000000002</ele>
        <time>2018-05-29T07:22:48Z</time>
      </trkpt>
      <trkpt lat="41.90638798289001" lon="-1.76296703517437">
        <ele>549.20000000000005</ele>
        <time>2018-05-29T07:22:51Z</time>
      </trkpt>
      <trkpt lat="41.906397035345435" lon="-1.762834014371038">
        <ele>549.10000000000002</ele>
        <time>2018-05-29T07:22:54Z</time>
      </trkpt>
      <trkpt lat="41.906402986496687" lon="-1.762637961655855">
        <ele>548.79999999999995</ele>
        <time>2018-05-29T07:22:59Z</time>
      </trkpt>
      <trkpt lat="41.906401980668306" lon="-1.762511981651187">
        <ele>548.60000000000002</ele>
        <time>2018-05-29T07:23:01Z</time>
      </trkpt>
      <trkpt lat="41.90638898871839" lon="-1.762349037453532">
        <ele>548.39999999999998</ele>
        <time>2018-05-29T07:23:05Z</time>
      </trkpt>
      <trkpt lat="41.906369961798191" lon="-1.762208975851536">
        <ele>548.20000000000005</ele>
        <time>2018-05-29T07:23:08Z</time>
      </trkpt>
      <trkpt lat="41.906354958191514" lon="-1.762065980583429">
        <ele>547.89999999999998</ele>
        <time>2018-05-29T07:23:11Z</time>
      </trkpt>
      <trkpt lat="41.906341966241598" lon="-1.761920973658562">
        <ele>547.5</ele>
        <time>2018-05-29T07:23:15Z</time>
      </trkpt>
      <trkpt lat="41.906328974291682" lon="-1.761745037510991">
        <ele>546.89999999999998</ele>
        <time>2018-05-29T07:23:18Z</time>
      </trkpt>
      <trkpt lat="41.906317993998528" lon="-1.761589972302318">
        <ele>546.29999999999995</ele>
        <time>2018-05-29T07:23:22Z</time>
      </trkpt>
      <trkpt lat="41.906306007876992" lon="-1.761404983699322">
        <ele>545.70000000000005</ele>
        <time>2018-05-29T07:23:26Z</time>
      </trkpt>
      <trkpt lat="41.906294021755457" lon="-1.761237010359764">
        <ele>545.10000000000002</ele>
        <time>2018-05-29T07:23:30Z</time>
      </trkpt>
      <trkpt lat="41.906281029805541" lon="-1.761052021756768">
        <ele>545.10000000000002</ele>
        <time>2018-05-29T07:23:34Z</time>
      </trkpt>
      <trkpt lat="41.906268959864974" lon="-1.760909026488662">
        <ele>545</ele>
        <time>2018-05-29T07:23:37Z</time>
      </trkpt>
      <trkpt lat="41.906256973743439" lon="-1.760733006522059">
        <ele>545</ele>
        <time>2018-05-29T07:23:41Z</time>
      </trkpt>
      <trkpt lat="41.906243981793523" lon="-1.760556986555457">
        <ele>545</ele>
        <time>2018-05-29T07:23:45Z</time>
      </trkpt>
      <trkpt lat="41.906234007328749" lon="-1.760405022650957">
        <ele>545</ele>
        <time>2018-05-29T07:23:48Z</time>
      </trkpt>
      <trkpt lat="41.906222021207213" lon="-1.760224979370832">
        <ele>545.5</ele>
        <time>2018-05-29T07:23:52Z</time>
      </trkpt>
      <trkpt lat="41.906210035085678" lon="-1.760033033788204">
        <ele>545.89999999999998</ele>
        <time>2018-05-29T07:23:56Z</time>
      </trkpt>
      <trkpt lat="41.906198970973492" lon="-1.75983102992177">
        <ele>546.39999999999998</ele>
        <time>2018-05-29T07:24:01Z</time>
      </trkpt>
      <trkpt lat="41.90619402565062" lon="-1.759631037712097">
        <ele>546.89999999999998</ele>
        <time>2018-05-29T07:24:05Z</time>
      </trkpt>
      <trkpt lat="41.906192013993859" lon="-1.759419981390238">
        <ele>547.39999999999998</ele>
        <time>2018-05-29T07:24:10Z</time>
      </trkpt>
      <trkpt lat="41.906183967366815" lon="-1.759200040251017">
        <ele>548</ele>
        <time>2018-05-29T07:24:15Z</time>
      </trkpt>
      <trkpt lat="41.906169969588518" lon="-1.758969034999609">
        <ele>548.70000000000005</ele>
        <time>2018-05-29T07:24:20Z</time>
      </trkpt>
      <trkpt lat="41.906162006780505" lon="-1.758755967020989">
        <ele>549.29999999999995</ele>
        <time>2018-05-29T07:24:25Z</time>
      </trkpt>
      <trkpt lat="41.906157983466983" lon="-1.758540971204639">
        <ele>550.10000000000002</ele>
        <time>2018-05-29T07:24:29Z</time>
      </trkpt>
      <trkpt lat="41.906155971810222" lon="-1.758322035893798">
        <ele>551</ele>
        <time>2018-05-29T07:24:34Z</time>
      </trkpt>
      <trkpt lat="41.906153960153461" lon="-1.758121959865093">
        <ele>551.79999999999995</ele>
        <time>2018-05-29T07:24:39Z</time>
      </trkpt>
      <trkpt lat="41.906152032315731" lon="-1.75794099457562">
        <ele>552.5</ele>
        <time>2018-05-29T07:24:43Z</time>
      </trkpt>
      <trkpt lat="41.906149014830589" lon="-1.757762962952256">
        <ele>552.79999999999995</ele>
        <time>2018-05-29T07:24:46Z</time>
      </trkpt>
      <trkpt lat="41.906142979860306" lon="-1.757595995441079">
        <ele>553</ele>
        <time>2018-05-29T07:24:50Z</time>
      </trkpt>
      <trkpt lat="41.906139040365815" lon="-1.75742500461638">
        <ele>553.20000000000005</ele>
        <time>2018-05-29T07:24:54Z</time>
      </trkpt>
      <trkpt lat="41.906135017052293" lon="-1.7572339810431">
        <ele>553.39999999999998</ele>
        <time>2018-05-29T07:24:58Z</time>
      </trkpt>
      <trkpt lat="41.906136022880673" lon="-1.757045974954963">
        <ele>553.70000000000005</ele>
        <time>2018-05-29T07:25:02Z</time>
      </trkpt>
      <trkpt lat="41.906140968203545" lon="-1.756847994402051">
        <ele>554.29999999999995</ele>
        <time>2018-05-29T07:25:07Z</time>
      </trkpt>
      <trkpt lat="41.90615102648735" lon="-1.756650013849139">
        <ele>554.79999999999995</ele>
        <time>2018-05-29T07:25:11Z</time>
      </trkpt>
      <trkpt lat="41.906124958768487" lon="-1.756452033296228">
        <ele>555.5</ele>
        <time>2018-05-29T07:25:15Z</time>
      </trkpt>
      <trkpt lat="41.906154965981841" lon="-1.756255980581045">
        <ele>556.10000000000002</ele>
        <time>2018-05-29T07:25:20Z</time>
      </trkpt>
      <trkpt lat="41.906153960153461" lon="-1.756074009463191">
        <ele>556.79999999999995</ele>
        <time>2018-05-29T07:25:24Z</time>
      </trkpt>
      <trkpt lat="41.906164018437266" lon="-1.755892038345337">
        <ele>557.39999999999998</ele>
        <time>2018-05-29T07:25:28Z</time>
      </trkpt>
      <trkpt lat="41.906174998730421" lon="-1.75572800450027">
        <ele>558</ele>
        <time>2018-05-29T07:25:32Z</time>
      </trkpt>
      <trkpt lat="41.906191008165479" lon="-1.755574028939009">
        <ele>558.60000000000002</ele>
        <time>2018-05-29T07:25:35Z</time>
      </trkpt>
      <trkpt lat="41.906206011772156" lon="-1.755411000922322">
        <ele>559.10000000000002</ele>
        <time>2018-05-29T07:25:39Z</time>
      </trkpt>
      <trkpt lat="41.906225960701704" lon="-1.755261970683932">
        <ele>560</ele>
        <time>2018-05-29T07:25:42Z</time>
      </trkpt>
      <trkpt lat="41.90623995848" lon="-1.755096009001136">
        <ele>560.89999999999998</ele>
        <time>2018-05-29T07:25:46Z</time>
      </trkpt>
      <trkpt lat="41.906264014542103" lon="-1.754943039268255">
        <ele>561.79999999999995</ele>
        <time>2018-05-29T07:25:49Z</time>
      </trkpt>
      <trkpt lat="41.906272983178496" lon="-1.754628969356418">
        <ele>563.60000000000002</ele>
        <time>2018-05-29T07:25:56Z</time>
      </trkpt>
      <trkpt lat="41.906297039240599" lon="-1.754467030987144">
        <ele>564.10000000000002</ele>
        <time>2018-05-29T07:26:00Z</time>
      </trkpt>
      <trkpt lat="41.906297961249948" lon="-1.754322024062276">
        <ele>564.39999999999998</ele>
        <time>2018-05-29T07:26:03Z</time>
      </trkpt>
      <trkpt lat="41.906294021755457" lon="-1.754155978560448">
        <ele>564.79999999999995</ele>
        <time>2018-05-29T07:26:07Z</time>
      </trkpt>
      <trkpt lat="41.906311959028244" lon="-1.754012983292341">
        <ele>565</ele>
        <time>2018-05-29T07:26:10Z</time>
      </trkpt>
      <trkpt lat="41.906307013705373" lon="-1.753864036872983">
        <ele>565.39999999999998</ele>
        <time>2018-05-29T07:26:13Z</time>
      </trkpt>
      <trkpt lat="41.906299972906709" lon="-1.753720035776496">
        <ele>565.70000000000005</ele>
        <time>2018-05-29T07:26:16Z</time>
      </trkpt>
      <trkpt lat="41.906311959028244" lon="-1.75355801358819">
        <ele>565.39999999999998</ele>
        <time>2018-05-29T07:26:20Z</time>
      </trkpt>
      <trkpt lat="41.906317993998528" lon="-1.753379981964827">
        <ele>565.10000000000002</ele>
        <time>2018-05-29T07:26:24Z</time>
      </trkpt>
      <trkpt lat="41.906337020918727" lon="-1.753204967826605">
        <ele>564.79999999999995</ele>
        <time>2018-05-29T07:26:28Z</time>
      </trkpt>
      <trkpt lat="41.906331991776824" lon="-1.753048980608583">
        <ele>564.70000000000005</ele>
        <time>2018-05-29T07:26:31Z</time>
      </trkpt>
      <trkpt lat="41.906332997605205" lon="-1.752893999218941">
        <ele>564.5</ele>
        <time>2018-05-29T07:26:35Z</time>
      </trkpt>
      <trkpt lat="41.906346995383501" lon="-1.75274396315217">
        <ele>564.39999999999998</ele>
        <time>2018-05-29T07:26:38Z</time>
      </trkpt>
      <trkpt lat="41.906354958191514" lon="-1.752573978155851">
        <ele>564.39999999999998</ele>
        <time>2018-05-29T07:26:42Z</time>
      </trkpt>
      <trkpt lat="41.90636501647532" lon="-1.752412039786577">
        <ele>564.29999999999995</ele>
        <time>2018-05-29T07:26:45Z</time>
      </trkpt>
      <trkpt lat="41.906380020081997" lon="-1.75222503952682">
        <ele>564.20000000000005</ele>
        <time>2018-05-29T07:26:49Z</time>
      </trkpt>
      <trkpt lat="41.906383037567139" lon="-1.752040972933173">
        <ele>564.29999999999995</ele>
        <time>2018-05-29T07:26:53Z</time>
      </trkpt>
      <trkpt lat="41.906389994546771" lon="-1.751865036785603">
        <ele>564.60000000000002</ele>
        <time>2018-05-29T07:26:57Z</time>
      </trkpt>
      <trkpt lat="41.90638898871839" lon="-1.751679964363575">
        <ele>565.10000000000002</ele>
        <time>2018-05-29T07:27:01Z</time>
      </trkpt>
      <trkpt lat="41.906402986496687" lon="-1.751509979367256">
        <ele>565.29999999999995</ele>
        <time>2018-05-29T07:27:05Z</time>
      </trkpt>
      <trkpt lat="41.906411033123732" lon="-1.751329014077783">
        <ele>565.70000000000005</ele>
        <time>2018-05-29T07:27:09Z</time>
      </trkpt>
      <trkpt lat="41.906404998153448" lon="-1.751146037131548">
        <ele>566.29999999999995</ele>
        <time>2018-05-29T07:27:13Z</time>
      </trkpt>
      <trkpt lat="41.906410027295351" lon="-1.750978985801339">
        <ele>567</ele>
        <time>2018-05-29T07:27:17Z</time>
      </trkpt>
      <trkpt lat="41.90640902146697" lon="-1.750810006633401">
        <ele>567.79999999999995</ele>
        <time>2018-05-29T07:27:21Z</time>
      </trkpt>
      <trkpt lat="41.906422013416886" lon="-1.750643039122224">
        <ele>568.39999999999998</ele>
        <time>2018-05-29T07:27:24Z</time>
      </trkpt>
      <trkpt lat="41.906433999538422" lon="-1.75048403441906">
        <ele>568.89999999999998</ele>
        <time>2018-05-29T07:27:28Z</time>
      </trkpt>
      <trkpt lat="41.906441962346435" lon="-1.75033500418067">
        <ele>569.39999999999998</ele>
        <time>2018-05-29T07:27:31Z</time>
      </trkpt>
      <trkpt lat="41.906466018408537" lon="-1.750183962285519">
        <ele>569.70000000000005</ele>
        <time>2018-05-29T07:27:35Z</time>
      </trkpt>
      <trkpt lat="41.906497031450272" lon="-1.750051025301218">
        <ele>569.79999999999995</ele>
        <time>2018-05-29T07:27:38Z</time>
      </trkpt>
      <trkpt lat="41.906488984823227" lon="-1.749907024204731">
        <ele>570.39999999999998</ele>
        <time>2018-05-29T07:27:41Z</time>
      </trkpt>
      <trkpt lat="41.906483033671975" lon="-1.749772997573018">
        <ele>570.89999999999998</ele>
        <time>2018-05-29T07:27:44Z</time>
      </trkpt>
      <trkpt lat="41.906455038115382" lon="-1.749621033668518">
        <ele>571.70000000000005</ele>
        <time>2018-05-29T07:27:47Z</time>
      </trkpt>
      <trkpt lat="41.906433999538422" lon="-1.749464962631464">
        <ele>571.70000000000005</ele>
        <time>2018-05-29T07:27:51Z</time>
      </trkpt>
      <trkpt lat="41.906354958191514" lon="-1.749363038688898">
        <ele>572.20000000000005</ele>
        <time>2018-05-29T07:27:54Z</time>
      </trkpt>
      <trkpt lat="41.906295027583838" lon="-1.749222977086902">
        <ele>572.29999999999995</ele>
        <time>2018-05-29T07:27:58Z</time>
      </trkpt>
      <trkpt lat="41.906239036470652" lon="-1.749073024839163">
        <ele>572.29999999999995</ele>
        <time>2018-05-29T07:28:01Z</time>
      </trkpt>
      <trkpt lat="41.906183967366815" lon="-1.748920977115631">
        <ele>572.20000000000005</ele>
        <time>2018-05-29T07:28:05Z</time>
      </trkpt>
      <trkpt lat="41.906122025102377" lon="-1.748761972412467">
        <ele>572.10000000000002</ele>
        <time>2018-05-29T07:28:09Z</time>
      </trkpt>
      <trkpt lat="41.906098974868655" lon="-1.748610008507967">
        <ele>572.29999999999995</ele>
        <time>2018-05-29T07:28:12Z</time>
      </trkpt>
      <trkpt lat="41.906096963211894" lon="-1.74846600741148">
        <ele>572.29999999999995</ele>
        <time>2018-05-29T07:28:16Z</time>
      </trkpt>
      <trkpt lat="41.906112972646952" lon="-1.748334998264909">
        <ele>572.20000000000005</ele>
        <time>2018-05-29T07:28:18Z</time>
      </trkpt>
      <trkpt lat="41.906125964596868" lon="-1.748210024088621">
        <ele>572.10000000000002</ele>
        <time>2018-05-29T07:28:21Z</time>
      </trkpt>
      <trkpt lat="41.906134011223912" lon="-1.748073985800147">
        <ele>572.10000000000002</ele>
        <time>2018-05-29T07:28:24Z</time>
      </trkpt>
      <trkpt lat="41.906137028709054" lon="-1.747936019673944">
        <ele>572.10000000000002</ele>
        <time>2018-05-29T07:28:27Z</time>
      </trkpt>
      <trkpt lat="41.906136022880673" lon="-1.747795036062598">
        <ele>572.10000000000002</ele>
        <time>2018-05-29T07:28:30Z</time>
      </trkpt>
      <trkpt lat="41.906134011223912" lon="-1.747522037476301">
        <ele>572</ele>
        <time>2018-05-29T07:28:36Z</time>
      </trkpt>
      <trkpt lat="41.906124958768487" lon="-1.747392034158111">
        <ele>572.10000000000002</ele>
        <time>2018-05-29T07:28:39Z</time>
      </trkpt>
      <trkpt lat="41.90612998791039" lon="-1.747258007526398">
        <ele>572</ele>
        <time>2018-05-29T07:28:42Z</time>
      </trkpt>
      <trkpt lat="41.90613099373877" lon="-1.747128004208207">
        <ele>572</ele>
        <time>2018-05-29T07:28:45Z</time>
      </trkpt>
      <trkpt lat="41.906115990132093" lon="-1.746821980923414">
        <ele>572.60000000000002</ele>
        <time>2018-05-29T07:28:52Z</time>
      </trkpt>
      <trkpt lat="41.9061070214957" lon="-1.746654007583857">
        <ele>573</ele>
        <time>2018-05-29T07:28:56Z</time>
      </trkpt>
      <trkpt lat="41.906096041202545" lon="-1.746500032022595">
        <ele>573.29999999999995</ele>
        <time>2018-05-29T07:28:59Z</time>
      </trkpt>
      <trkpt lat="41.906081959605217" lon="-1.746357036754489">
        <ele>573.60000000000002</ele>
        <time>2018-05-29T07:29:02Z</time>
      </trkpt>
      <trkpt lat="41.906067039817572" lon="-1.746203983202577">
        <ele>573.79999999999995</ele>
        <time>2018-05-29T07:29:06Z</time>
      </trkpt>
      <trkpt lat="41.906053964048624" lon="-1.746053025126457">
        <ele>573.60000000000002</ele>
        <time>2018-05-29T07:29:09Z</time>
      </trkpt>
      <trkpt lat="41.90604398958385" lon="-1.74588798545301">
        <ele>573.39999999999998</ele>
        <time>2018-05-29T07:29:13Z</time>
      </trkpt>
      <trkpt lat="41.906035020947456" lon="-1.745722023770213">
        <ele>573.20000000000005</ele>
        <time>2018-05-29T07:29:16Z</time>
      </trkpt>
      <trkpt lat="41.906038960441947" lon="-1.745554972440004">
        <ele>573</ele>
        <time>2018-05-29T07:29:20Z</time>
      </trkpt>
      <trkpt lat="41.906049018725753" lon="-1.74543502740562">
        <ele>572.79999999999995</ele>
        <time>2018-05-29T07:29:23Z</time>
      </trkpt>
      <trkpt lat="41.906035020947456" lon="-1.745293959975243">
        <ele>572.29999999999995</ele>
        <time>2018-05-29T07:29:26Z</time>
      </trkpt>
      <trkpt lat="41.905995961278677" lon="-1.74517996609211">
        <ele>572</ele>
        <time>2018-05-29T07:29:28Z</time>
      </trkpt>
      <trkpt lat="41.905948016792536" lon="-1.745046023279429">
        <ele>571.60000000000002</ele>
        <time>2018-05-29T07:29:32Z</time>
      </trkpt>
      <trkpt lat="41.905903005972505" lon="-1.744893975555897">
        <ele>571.29999999999995</ele>
        <time>2018-05-29T07:29:35Z</time>
      </trkpt>
      <trkpt lat="41.905862018465996" lon="-1.744739999994636">
        <ele>570.89999999999998</ele>
        <time>2018-05-29T07:29:39Z</time>
      </trkpt>
      <trkpt lat="41.905842991545796" lon="-1.744580995291472">
        <ele>570.39999999999998</ele>
        <time>2018-05-29T07:29:43Z</time>
      </trkpt>
      <trkpt lat="41.905836034566164" lon="-1.744428025558591">
        <ele>569.89999999999998</ele>
        <time>2018-05-29T07:29:46Z</time>
      </trkpt>
      <trkpt lat="41.905843997374177" lon="-1.744258962571621">
        <ele>569.29999999999995</ele>
        <time>2018-05-29T07:29:50Z</time>
      </trkpt>
      <trkpt lat="41.905875010415912" lon="-1.744110016152263">
        <ele>568.60000000000002</ele>
        <time>2018-05-29T07:29:53Z</time>
      </trkpt>
      <trkpt lat="41.905908035114408" lon="-1.743969032540917">
        <ele>568</ele>
        <time>2018-05-29T07:29:56Z</time>
      </trkpt>
      <trkpt lat="41.905932007357478" lon="-1.74382695928216">
        <ele>567.39999999999998</ele>
        <time>2018-05-29T07:30:00Z</time>
      </trkpt>
      <trkpt lat="41.905944999307394" lon="-1.74369502812624">
        <ele>566.89999999999998</ele>
        <time>2018-05-29T07:30:02Z</time>
      </trkpt>
      <trkpt lat="41.905947010964155" lon="-1.743561001494527">
        <ele>566.39999999999998</ele>
        <time>2018-05-29T07:30:05Z</time>
      </trkpt>
      <trkpt lat="41.905954973772168" lon="-1.743421023711562">
        <ele>565.89999999999998</ele>
        <time>2018-05-29T07:30:09Z</time>
      </trkpt>
      <trkpt lat="41.905972994863987" lon="-1.743292026221752">
        <ele>565.29999999999995</ele>
        <time>2018-05-29T07:30:11Z</time>
      </trkpt>
      <trkpt lat="41.905984980985522" lon="-1.743165040388703">
        <ele>564.89999999999998</ele>
        <time>2018-05-29T07:30:14Z</time>
      </trkpt>
      <trkpt lat="41.905996967107058" lon="-1.743035037070513">
        <ele>564.39999999999998</ele>
        <time>2018-05-29T07:30:17Z</time>
      </trkpt>
      <trkpt lat="41.906023034825921" lon="-1.742900004610419">
        <ele>563.89999999999998</ele>
        <time>2018-05-29T07:30:20Z</time>
      </trkpt>
      <trkpt lat="41.906052958220243" lon="-1.742768995463848">
        <ele>563.5</ele>
        <time>2018-05-29T07:30:23Z</time>
      </trkpt>
      <trkpt lat="41.90606502816081" lon="-1.742633040994406">
        <ele>563.10000000000002</ele>
        <time>2018-05-29T07:30:26Z</time>
      </trkpt>
      <trkpt lat="41.906076008453965" lon="-1.742498008534312">
        <ele>562.60000000000002</ele>
        <time>2018-05-29T07:30:29Z</time>
      </trkpt>
      <trkpt lat="41.906081959605217" lon="-1.742357024922967">
        <ele>562.10000000000002</ele>
        <time>2018-05-29T07:30:32Z</time>
      </trkpt>
      <trkpt lat="41.906083971261978" lon="-1.742211012169719">
        <ele>561.60000000000002</ele>
        <time>2018-05-29T07:30:36Z</time>
      </trkpt>
      <trkpt lat="41.906072990968823" lon="-1.742073968052864">
        <ele>561.20000000000005</ele>
        <time>2018-05-29T07:30:39Z</time>
      </trkpt>
      <trkpt lat="41.906076008453965" lon="-1.741932984441519">
        <ele>560.5</ele>
        <time>2018-05-29T07:30:42Z</time>
      </trkpt>
      <trkpt lat="41.906077014282346" lon="-1.741796024143696">
        <ele>559.89999999999998</ele>
        <time>2018-05-29T07:30:45Z</time>
      </trkpt>
      <trkpt lat="41.906071985140443" lon="-1.741635007783771">
        <ele>559.20000000000005</ele>
        <time>2018-05-29T07:30:48Z</time>
      </trkpt>
      <trkpt lat="41.9060879945755" lon="-1.741506010293961">
        <ele>558.60000000000002</ele>
        <time>2018-05-29T07:30:51Z</time>
      </trkpt>
      <trkpt lat="41.906113978475332" lon="-1.741373995319009">
        <ele>557.89999999999998</ele>
        <time>2018-05-29T07:30:54Z</time>
      </trkpt>
      <trkpt lat="41.906136022880673" lon="-1.741250026971102">
        <ele>557.29999999999995</ele>
        <time>2018-05-29T07:30:57Z</time>
      </trkpt>
      <trkpt lat="41.906165024265647" lon="-1.741092028096318">
        <ele>556.60000000000002</ele>
        <time>2018-05-29T07:31:01Z</time>
      </trkpt>
      <trkpt lat="41.906185979023576" lon="-1.74096797592938">
        <ele>556.10000000000002</ele>
        <time>2018-05-29T07:31:03Z</time>
      </trkpt>
      <trkpt lat="41.906213974580169" lon="-1.740852976217866">
        <ele>555.60000000000002</ele>
        <time>2018-05-29T07:31:06Z</time>
      </trkpt>
      <trkpt lat="41.90623702481389" lon="-1.74073101952672">
        <ele>555.20000000000005</ele>
        <time>2018-05-29T07:31:09Z</time>
      </trkpt>
      <trkpt lat="41.906267032027245" lon="-1.740616019815207">
        <ele>554.70000000000005</ele>
        <time>2018-05-29T07:31:12Z</time>
      </trkpt>
      <trkpt lat="41.90630198456347" lon="-1.740491967648268">
        <ele>554.20000000000005</ele>
        <time>2018-05-29T07:31:15Z</time>
      </trkpt>
      <trkpt lat="41.906342972069979" lon="-1.740372022613883">
        <ele>553.70000000000005</ele>
        <time>2018-05-29T07:31:17Z</time>
      </trkpt>
      <trkpt lat="41.906369961798191" lon="-1.740240007638931">
        <ele>553</ele>
        <time>2018-05-29T07:31:20Z</time>
      </trkpt>
      <trkpt lat="41.906394017860293" lon="-1.74010899849236">
        <ele>552.39999999999998</ele>
        <time>2018-05-29T07:31:23Z</time>
      </trkpt>
      <trkpt lat="41.906418995931745" lon="-1.739987041801214">
        <ele>551.70000000000005</ele>
        <time>2018-05-29T07:31:26Z</time>
      </trkpt>
      <trkpt lat="41.906445985659957" lon="-1.739856032654643">
        <ele>551.10000000000002</ele>
        <time>2018-05-29T07:31:29Z</time>
      </trkpt>
      <trkpt lat="41.906484961509705" lon="-1.739723011851311">
        <ele>550.39999999999998</ele>
        <time>2018-05-29T07:31:32Z</time>
      </trkpt>
      <trkpt lat="41.906518992036581" lon="-1.739600971341133">
        <ele>549.79999999999995</ele>
        <time>2018-05-29T07:31:35Z</time>
      </trkpt>
      <trkpt lat="41.906561991199851" lon="-1.739475997164846">
        <ele>549.20000000000005</ele>
        <time>2018-05-29T07:31:38Z</time>
      </trkpt>
      <trkpt lat="41.906604990363121" lon="-1.7393540404737">
        <ele>548.70000000000005</ele>
        <time>2018-05-29T07:31:41Z</time>
      </trkpt>
      <trkpt lat="41.906631980091333" lon="-1.739214984700084">
        <ele>548.20000000000005</ele>
        <time>2018-05-29T07:31:44Z</time>
      </trkpt>
      <trkpt lat="41.906642038375139" lon="-1.739095039665699">
        <ele>547.79999999999995</ele>
        <time>2018-05-29T07:31:47Z</time>
      </trkpt>
      <trkpt lat="41.906631980091333" lon="-1.738974004983902">
        <ele>547.39999999999998</ele>
        <time>2018-05-29T07:31:50Z</time>
      </trkpt>
      <trkpt lat="41.906620999798179" lon="-1.738848024979234">
        <ele>546.89999999999998</ele>
        <time>2018-05-29T07:31:53Z</time>
      </trkpt>
      <trkpt lat="41.906618988141418" lon="-1.738564968109131">
        <ele>546.10000000000002</ele>
        <time>2018-05-29T07:31:59Z</time>
      </trkpt>
      <trkpt lat="41.906597027555108" lon="-1.738422978669405">
        <ele>545.89999999999998</ele>
        <time>2018-05-29T07:32:02Z</time>
      </trkpt>
      <trkpt lat="41.906569031998515" lon="-1.738275038078427">
        <ele>545.60000000000002</ele>
        <time>2018-05-29T07:32:05Z</time>
      </trkpt>
      <trkpt lat="41.906533995643258" lon="-1.738136988133192">
        <ele>545.39999999999998</ele>
        <time>2018-05-29T07:32:09Z</time>
      </trkpt>
      <trkpt lat="41.906490996479988" lon="-1.73800203949213">
        <ele>545.29999999999995</ele>
        <time>2018-05-29T07:32:12Z</time>
      </trkpt>
      <trkpt lat="41.906455960124731" lon="-1.737857032567263">
        <ele>545.10000000000002</ele>
        <time>2018-05-29T07:32:15Z</time>
      </trkpt>
      <trkpt lat="41.906425030902028" lon="-1.73770003952086">
        <ele>544.89999999999998</ele>
        <time>2018-05-29T07:32:19Z</time>
      </trkpt>
      <trkpt lat="41.906394017860293" lon="-1.737542040646076">
        <ele>544.60000000000002</ele>
        <time>2018-05-29T07:32:22Z</time>
      </trkpt>
      <trkpt lat="41.906367028132081" lon="-1.737383035942912">
        <ele>544.29999999999995</ele>
        <time>2018-05-29T07:32:26Z</time>
      </trkpt>
      <trkpt lat="41.906354958191514" lon="-1.737221013754606">
        <ele>544</ele>
        <time>2018-05-29T07:32:30Z</time>
      </trkpt>
      <trkpt lat="41.906350012868643" lon="-1.737068966031075">
        <ele>543.60000000000002</ele>
        <time>2018-05-29T07:32:33Z</time>
      </trkpt>
      <trkpt lat="41.906331991776824" lon="-1.736921025440097">
        <ele>542.89999999999998</ele>
        <time>2018-05-29T07:32:36Z</time>
      </trkpt>
      <trkpt lat="41.906316988170147" lon="-1.736779036000371">
        <ele>542.29999999999995</ele>
        <time>2018-05-29T07:32:39Z</time>
      </trkpt>
      <trkpt lat="41.90623995848" lon="-1.736656995490193">
        <ele>542</ele>
        <time>2018-05-29T07:32:43Z</time>
      </trkpt>
      <trkpt lat="41.906154965981841" lon="-1.736558005213738">
        <ele>541.5</ele>
        <time>2018-05-29T07:32:46Z</time>
      </trkpt>
      <trkpt lat="41.906079025939107" lon="-1.736439988017082">
        <ele>540.89999999999998</ele>
        <time>2018-05-29T07:32:50Z</time>
      </trkpt>
      <trkpt lat="41.906007025390863" lon="-1.736314008012414">
        <ele>540.29999999999995</ele>
        <time>2018-05-29T07:32:53Z</time>
      </trkpt>
      <trkpt lat="41.905944999307394" lon="-1.73617503605783">
        <ele>539.70000000000005</ele>
        <time>2018-05-29T07:32:57Z</time>
      </trkpt>
      <trkpt lat="41.905891019850969" lon="-1.736077973619103">
        <ele>539.29999999999995</ele>
        <time>2018-05-29T07:33:00Z</time>
      </trkpt>
      <trkpt lat="41.905827987939119" lon="-1.735947970300913">
        <ele>538.70000000000005</ele>
        <time>2018-05-29T07:33:03Z</time>
      </trkpt>
      <trkpt lat="41.90578599460423" lon="-1.735820984467864">
        <ele>538.10000000000002</ele>
        <time>2018-05-29T07:33:06Z</time>
      </trkpt>
      <trkpt lat="41.90576596185565" lon="-1.735685029998422">
        <ele>537.5</ele>
        <time>2018-05-29T07:33:09Z</time>
      </trkpt>
      <trkpt lat="41.905751964077353" lon="-1.735540023073554">
        <ele>536.79999999999995</ele>
        <time>2018-05-29T07:33:12Z</time>
      </trkpt>
      <trkpt lat="41.905766967684031" lon="-1.735409013926983">
        <ele>536.20000000000005</ele>
        <time>2018-05-29T07:33:15Z</time>
      </trkpt>
      <trkpt lat="41.905778031796217" lon="-1.735278004780412">
        <ele>535.89999999999998</ele>
        <time>2018-05-29T07:33:18Z</time>
      </trkpt>
      <trkpt lat="41.90580896101892" lon="-1.735140038654208">
        <ele>535.60000000000002</ele>
        <time>2018-05-29T07:33:21Z</time>
      </trkpt>
      <trkpt lat="41.905869981274009" lon="-1.735011041164398">
        <ele>535.39999999999998</ele>
        <time>2018-05-29T07:33:25Z</time>
      </trkpt>
      <trkpt lat="41.905923960730433" lon="-1.734909033402801">
        <ele>535.39999999999998</ele>
        <time>2018-05-29T07:33:27Z</time>
      </trkpt>
      <trkpt lat="41.90597902983427" lon="-1.734804008156061">
        <ele>535.29999999999995</ele>
        <time>2018-05-29T07:33:30Z</time>
      </trkpt>
      <trkpt lat="41.906035020947456" lon="-1.734682973474264">
        <ele>535.20000000000005</ele>
        <time>2018-05-29T07:33:33Z</time>
      </trkpt>
      <trkpt lat="41.906095035374165" lon="-1.734583983197808">
        <ele>535.29999999999995</ele>
        <time>2018-05-29T07:33:36Z</time>
      </trkpt>
      <trkpt lat="41.906145997345448" lon="-1.73447996377945">
        <ele>535.29999999999995</ele>
        <time>2018-05-29T07:33:39Z</time>
      </trkpt>
      <trkpt lat="41.906186984851956" lon="-1.734360018745065">
        <ele>535.20000000000005</ele>
        <time>2018-05-29T07:33:42Z</time>
      </trkpt>
      <trkpt lat="41.906234007328749" lon="-1.734236972406507">
        <ele>535.10000000000002</ele>
        <time>2018-05-29T07:33:45Z</time>
      </trkpt>
      <trkpt lat="41.906294021755457" lon="-1.734105041250587">
        <ele>534.70000000000005</ele>
        <time>2018-05-29T07:33:48Z</time>
      </trkpt>
      <trkpt lat="41.906369039788842" lon="-1.733983000740409">
        <ele>534.10000000000002</ele>
        <time>2018-05-29T07:33:52Z</time>
      </trkpt>
      <trkpt lat="41.906436011195183" lon="-1.733895996585488">
        <ele>533.60000000000002</ele>
        <time>2018-05-29T07:33:55Z</time>
      </trkpt>
      <trkpt lat="41.906490996479988" lon="-1.73379298299551">
        <ele>533.20000000000005</ele>
        <time>2018-05-29T07:33:57Z</time>
      </trkpt>
      <trkpt lat="41.906556040048599" lon="-1.733661973848939">
        <ele>532.5</ele>
        <time>2018-05-29T07:34:01Z</time>
      </trkpt>
      <trkpt lat="41.906613958999515" lon="-1.733530964702368">
        <ele>531.79999999999995</ele>
        <time>2018-05-29T07:34:04Z</time>
      </trkpt>
      <trkpt lat="41.906659975647926" lon="-1.733419988304377">
        <ele>531.10000000000002</ele>
        <time>2018-05-29T07:34:07Z</time>
      </trkpt>
      <trkpt lat="41.906714038923383" lon="-1.733310017734766">
        <ele>530.5</ele>
        <time>2018-05-29T07:34:10Z</time>
      </trkpt>
      <trkpt lat="41.90677204169333" lon="-1.733197029680014">
        <ele>529.89999999999998</ele>
        <time>2018-05-29T07:34:13Z</time>
      </trkpt>
      <trkpt lat="41.906813029199839" lon="-1.733084041625261">
        <ele>529.29999999999995</ele>
        <time>2018-05-29T07:34:16Z</time>
      </trkpt>
      <trkpt lat="41.906858962029219" lon="-1.732957977801561">
        <ele>528.70000000000005</ele>
        <time>2018-05-29T07:34:19Z</time>
      </trkpt>
      <trkpt lat="41.906899027526379" lon="-1.732851024717093">
        <ele>528.10000000000002</ele>
        <time>2018-05-29T07:34:22Z</time>
      </trkpt>
      <trkpt lat="41.906928028911352" lon="-1.732710041105747">
        <ele>527.39999999999998</ele>
        <time>2018-05-29T07:34:25Z</time>
      </trkpt>
      <trkpt lat="41.906971028074622" lon="-1.732583977282047">
        <ele>526.70000000000005</ele>
        <time>2018-05-29T07:34:28Z</time>
      </trkpt>
      <trkpt lat="41.907018972560763" lon="-1.732464032247663">
        <ele>526</ele>
        <time>2018-05-29T07:34:31Z</time>
      </trkpt>
      <trkpt lat="41.907072030007839" lon="-1.732332017272711">
        <ele>525.20000000000005</ele>
        <time>2018-05-29T07:34:34Z</time>
      </trkpt>
      <trkpt lat="41.907126009464264" lon="-1.732215005904436">
        <ele>524.5</ele>
        <time>2018-05-29T07:34:37Z</time>
      </trkpt>
      <trkpt lat="41.907174959778786" lon="-1.732107969000936">
        <ele>523.89999999999998</ele>
        <time>2018-05-29T07:34:40Z</time>
      </trkpt>
      <trkpt lat="41.907219970598817" lon="-1.731982994824648">
        <ele>523.10000000000002</ele>
        <time>2018-05-29T07:34:43Z</time>
      </trkpt>
      <trkpt lat="41.907228017225862" lon="-1.731849974021316">
        <ele>522.29999999999995</ele>
        <time>2018-05-29T07:34:46Z</time>
      </trkpt>
      <trkpt lat="41.907213013619184" lon="-1.731720976531506">
        <ele>521.60000000000002</ele>
        <time>2018-05-29T07:34:49Z</time>
      </trkpt>
      <trkpt lat="41.907189963385463" lon="-1.731594996526837">
        <ele>520.89999999999998</ele>
        <time>2018-05-29T07:34:52Z</time>
      </trkpt>
      <trkpt lat="41.907136989757419" lon="-1.731640007346869">
        <ele>521.20000000000005</ele>
        <time>2018-05-29T07:34:54Z</time>
      </trkpt>
      <trkpt lat="41.906800959259272" lon="-1.730638034641743">
        <ele>516.79999999999995</ele>
        <time>2018-05-29T07:35:18Z</time>
      </trkpt>
      <trkpt lat="41.906547993421555" lon="-1.729887016117573">
        <ele>511.39999999999998</ele>
        <time>2018-05-29T07:35:36Z</time>
      </trkpt>
      <trkpt lat="41.906786961480975" lon="-1.729546040296555">
        <ele>510.69999999999999</ele>
        <time>2018-05-29T07:35:46Z</time>
      </trkpt>
      <trkpt lat="41.906971028074622" lon="-1.728600980713964">
        <ele>507.80000000000001</ele>
        <time>2018-05-29T07:36:08Z</time>
      </trkpt>
      <trkpt lat="41.906757960096002" lon="-1.727318968623877">
        <ele>500.19999999999999</ele>
        <time>2018-05-29T07:36:37Z</time>
      </trkpt>
      <trkpt lat="41.906896010041237" lon="-1.726928036659956">
        <ele>498.39999999999998</ele>
        <time>2018-05-29T07:36:47Z</time>
      </trkpt>
      <trkpt lat="41.906987959519029" lon="-1.726665012538433">
        <ele>496.89999999999998</ele>
        <time>2018-05-29T07:36:53Z</time>
      </trkpt>
      <trkpt lat="41.907074963673949" lon="-1.726439958438277">
        <ele>495.39999999999998</ele>
        <time>2018-05-29T07:36:59Z</time>
      </trkpt>
      <trkpt lat="41.907320972532034" lon="-1.726066041737795">
        <ele>490.69999999999999</ele>
        <time>2018-05-29T07:37:10Z</time>
      </trkpt>
      <trkpt lat="41.907534962520003" lon="-1.725773010402918">
        <ele>486.10000000000002</ele>
        <time>2018-05-29T07:37:19Z</time>
      </trkpt>
      <trkpt lat="41.907722968608141" lon="-1.725487019866705">
        <ele>482</ele>
        <time>2018-05-29T07:37:27Z</time>
      </trkpt>
      <trkpt lat="41.907825982198119" lon="-1.7253059707582">
        <ele>480.19999999999999</ele>
        <time>2018-05-29T07:37:32Z</time>
      </trkpt>
      <trkpt lat="41.907781977206469" lon="-1.724997013807297">
        <ele>478</ele>
        <time>2018-05-29T07:37:39Z</time>
      </trkpt>
      <trkpt lat="41.90746296197176" lon="-1.724927024915814">
        <ele>477.5</ele>
        <time>2018-05-29T07:37:49Z</time>
      </trkpt>
      <trkpt lat="41.907260958105326" lon="-1.724744969978929">
        <ele>476.19999999999999</ele>
        <time>2018-05-29T07:37:56Z</time>
      </trkpt>
      <trkpt lat="41.906098974868655" lon="-1.722196033224464">
        <ele>481.10000000000002</ele>
        <time>2018-05-29T07:39:02Z</time>
      </trkpt>
      <trkpt lat="41.905998978763819" lon="-1.721909958869219">
        <ele>481.60000000000002</ele>
        <time>2018-05-29T07:39:09Z</time>
      </trkpt>
      <trkpt lat="41.90580896101892" lon="-1.721895039081574">
        <ele>481.69999999999999</ele>
        <time>2018-05-29T07:39:15Z</time>
      </trkpt>
      <trkpt lat="41.905833017081022" lon="-1.721594966948032">
        <ele>482.10000000000002</ele>
        <time>2018-05-29T07:39:21Z</time>
      </trkpt>
      <trkpt lat="41.905551971867681" lon="-1.721294978633523">
        <ele>482.10000000000002</ele>
        <time>2018-05-29T07:39:32Z</time>
      </trkpt>
      <trkpt lat="41.905358014628291" lon="-1.721362033858895">
        <ele>482.19999999999999</ele>
        <time>2018-05-29T07:39:38Z</time>
      </trkpt>
      <trkpt lat="41.905768979340792" lon="-1.720817964524031">
        <ele>484.39999999999998</ele>
        <time>2018-05-29T07:39:55Z</time>
      </trkpt>
      <trkpt lat="41.905798986554146" lon="-1.720775971189141">
        <ele>484.60000000000002</ele>
        <time>2018-05-29T07:39:56Z</time>
      </trkpt>
      <trkpt lat="41.906352024525404" lon="-1.720012966543436">
        <ele>483.80000000000001</ele>
        <time>2018-05-29T07:40:20Z</time>
      </trkpt>
      <trkpt lat="41.906487978994846" lon="-1.719823032617569">
        <ele>483.5</ele>
        <time>2018-05-29T07:40:26Z</time>
      </trkpt>
      <trkpt lat="41.906556962057948" lon="-1.719480967149139">
        <ele>483.30000000000001</ele>
        <time>2018-05-29T07:40:33Z</time>
      </trkpt>
      <trkpt lat="41.906628962606192" lon="-1.719286004081368">
        <ele>483.10000000000002</ele>
        <time>2018-05-29T07:40:38Z</time>
      </trkpt>
      <trkpt lat="41.907145958393812" lon="-1.718485029414296">
        <ele>480.80000000000001</ele>
        <time>2018-05-29T07:41:01Z</time>
      </trkpt>
      <trkpt lat="41.90720303915441" lon="-1.718277996405959">
        <ele>480.69999999999999</ele>
        <time>2018-05-29T07:41:06Z</time>
      </trkpt>
      <trkpt lat="41.907349973917007" lon="-1.718067023903132">
        <ele>480.39999999999998</ele>
        <time>2018-05-29T07:41:13Z</time>
      </trkpt>
      <trkpt lat="41.907802009955049" lon="-1.71742295846343">
        <ele>479.39999999999998</ele>
        <time>2018-05-29T07:41:32Z</time>
      </trkpt>
      <trkpt lat="41.908028991892934" lon="-1.71711802482605">
        <ele>478.5</ele>
        <time>2018-05-29T07:41:42Z</time>
      </trkpt>
      <trkpt lat="41.908093029633164" lon="-1.717019034549594">
        <ele>478.19999999999999</ele>
        <time>2018-05-29T07:41:45Z</time>
      </trkpt>
      <trkpt lat="41.908657969906926" lon="-1.716264998540282">
        <ele>476.39999999999998</ele>
        <time>2018-05-29T07:42:08Z</time>
      </trkpt>
      <trkpt lat="41.908723013475537" lon="-1.71617497690022">
        <ele>476.5</ele>
        <time>2018-05-29T07:42:11Z</time>
      </trkpt>
      <trkpt lat="41.908828038722277" lon="-1.716048996895552">
        <ele>476.80000000000001</ele>
        <time>2018-05-29T07:42:15Z</time>
      </trkpt>
      <trkpt lat="41.90922299399972" lon="-1.715596038848162">
        <ele>476.30000000000001</ele>
        <time>2018-05-29T07:42:31Z</time>
      </trkpt>
      <trkpt lat="41.909335982054472" lon="-1.715466035529971">
        <ele>475.80000000000001</ele>
        <time>2018-05-29T07:42:35Z</time>
      </trkpt>
      <trkpt lat="41.909494986757636" lon="-1.715320022776723">
        <ele>475.10000000000002</ele>
        <time>2018-05-29T07:42:41Z</time>
      </trkpt>
      <trkpt lat="41.909766979515553" lon="-1.715050041675568">
        <ele>475.39999999999998</ele>
        <time>2018-05-29T07:42:51Z</time>
      </trkpt>
      <trkpt lat="41.910109966993332" lon="-1.714716022834182">
        <ele>475.19999999999999</ele>
        <time>2018-05-29T07:43:03Z</time>
      </trkpt>
      <trkpt lat="41.910553034394979" lon="-1.714273039251566">
        <ele>475.80000000000001</ele>
        <time>2018-05-29T07:43:20Z</time>
      </trkpt>
      <trkpt lat="41.910981014370918" lon="-1.713866014033556">
        <ele>475.60000000000002</ele>
        <time>2018-05-29T07:43:35Z</time>
      </trkpt>
      <trkpt lat="41.911618961021304" lon="-1.713234018534422">
        <ele>474</ele>
        <time>2018-05-29T07:43:59Z</time>
      </trkpt>
      <trkpt lat="41.911964965984225" lon="-1.712892036885023">
        <ele>472.80000000000001</ele>
        <time>2018-05-29T07:44:11Z</time>
      </trkpt>
      <trkpt lat="41.912083989009261" lon="-1.712786005809903">
        <ele>472.60000000000002</ele>
        <time>2018-05-29T07:44:16Z</time>
      </trkpt>
      <trkpt lat="41.912763006985188" lon="-1.712126014754176">
        <ele>470.10000000000002</ele>
        <time>2018-05-29T07:44:40Z</time>
      </trkpt>
      <trkpt lat="41.912802988663316" lon="-1.712087960913777">
        <ele>469.89999999999998</ele>
        <time>2018-05-29T07:44:42Z</time>
      </trkpt>
      <trkpt lat="41.91343498416245" lon="-1.71148999594152">
        <ele>468.89999999999998</ele>
        <time>2018-05-29T07:45:05Z</time>
      </trkpt>
      <trkpt lat="41.913558030501008" lon="-1.711349012330174">
        <ele>468.39999999999998</ele>
        <time>2018-05-29T07:45:10Z</time>
      </trkpt>
      <trkpt lat="41.91407703794539" lon="-1.710577961057425">
        <ele>468.19999999999999</ele>
        <time>2018-05-29T07:45:33Z</time>
      </trkpt>
      <trkpt lat="41.914181979373097" lon="-1.710369000211358">
        <ele>468.39999999999998</ele>
        <time>2018-05-29T07:45:38Z</time>
      </trkpt>
      <trkpt lat="41.914235036820173" lon="-1.710263974964619">
        <ele>468.30000000000001</ele>
        <time>2018-05-29T07:45:41Z</time>
      </trkpt>
      <trkpt lat="41.914627980440855" lon="-1.709465011954308">
        <ele>466.80000000000001</ele>
        <time>2018-05-29T07:46:02Z</time>
      </trkpt>
      <trkpt lat="41.915032994002104" lon="-1.70863201841712">
        <ele>466.19999999999999</ele>
        <time>2018-05-29T07:46:24Z</time>
      </trkpt>
      <trkpt lat="41.915688961744308" lon="-1.70727800577879">
        <ele>467.60000000000002</ele>
        <time>2018-05-29T07:47:00Z</time>
      </trkpt>
      <trkpt lat="41.916105961427093" lon="-1.706378040835261">
        <ele>466.39999999999998</ele>
        <time>2018-05-29T07:47:23Z</time>
      </trkpt>
      <trkpt lat="41.916190031915903" lon="-1.706219036132097">
        <ele>466.10000000000002</ele>
        <time>2018-05-29T07:47:27Z</time>
      </trkpt>
      <trkpt lat="41.916307965293527" lon="-1.706003034487367">
        <ele>465.80000000000001</ele>
        <time>2018-05-29T07:47:33Z</time>
      </trkpt>
      <trkpt lat="41.916308971121907" lon="-1.706007979810238">
        <ele>465.80000000000001</ele>
        <time>2018-05-29T07:47:33Z</time>
      </trkpt>
      <trkpt lat="41.916321963071823" lon="-1.706018038094044">
        <ele>465.69999999999999</ele>
        <time>2018-05-29T07:47:34Z</time>
      </trkpt>
      <trkpt lat="41.916709961369634" lon="-1.705190995708108">
        <ele>463.69999999999999</ele>
        <time>2018-05-29T07:47:55Z</time>
      </trkpt>
      <trkpt lat="41.917559970170259" lon="-1.703393999487162">
        <ele>462</ele>
        <time>2018-05-29T07:48:42Z</time>
      </trkpt>
      <trkpt lat="41.917855013161898" lon="-1.702762003988028">
        <ele>461</ele>
        <time>2018-05-29T07:48:59Z</time>
      </trkpt>
      <trkpt lat="41.917948974296451" lon="-1.702570980414748">
        <ele>460.5</ele>
        <time>2018-05-29T07:49:04Z</time>
      </trkpt>
      <trkpt lat="41.91807696595788" lon="-1.702311979606748">
        <ele>459.89999999999998</ele>
        <time>2018-05-29T07:49:11Z</time>
      </trkpt>
      <trkpt lat="41.918229013681412" lon="-1.702005034312606">
        <ele>459.19999999999999</ele>
        <time>2018-05-29T07:49:19Z</time>
      </trkpt>
      <trkpt lat="41.918517015874386" lon="-1.701427018269897">
        <ele>458.30000000000001</ele>
        <time>2018-05-29T07:49:34Z</time>
      </trkpt>
      <trkpt lat="41.919039962813258" lon="-1.700352039188147">
        <ele>457.69999999999999</ele>
        <time>2018-05-29T07:50:02Z</time>
      </trkpt>
      <trkpt lat="41.919485963881016" lon="-1.699444027617574">
        <ele>457.10000000000002</ele>
        <time>2018-05-29T07:50:26Z</time>
      </trkpt>
      <trkpt lat="41.91985703073442" lon="-1.698736008256674">
        <ele>456.69999999999999</ele>
        <time>2018-05-29T07:50:45Z</time>
      </trkpt>
      <trkpt lat="41.920130029320717" lon="-1.698295036330819">
        <ele>456.19999999999999</ele>
        <time>2018-05-29T07:50:58Z</time>
      </trkpt>
      <trkpt lat="41.920795971527696" lon="-1.697361962869763">
        <ele>454.5</ele>
        <time>2018-05-29T07:51:27Z</time>
      </trkpt>
      <trkpt lat="41.921380022540689" lon="-1.696684034541249">
        <ele>453.80000000000001</ele>
        <time>2018-05-29T07:51:49Z</time>
      </trkpt>
      <trkpt lat="41.922106985002756" lon="-1.695994958281517">
        <ele>452.69999999999999</ele>
        <time>2018-05-29T07:52:16Z</time>
      </trkpt>
      <trkpt lat="41.922723976895213" lon="-1.695491038262844">
        <ele>451.39999999999998</ele>
        <time>2018-05-29T07:52:37Z</time>
      </trkpt>
      <trkpt lat="41.923556970432401" lon="-1.694958033040166">
        <ele>451</ele>
        <time>2018-05-29T07:53:04Z</time>
      </trkpt>
      <trkpt lat="41.924446960911155" lon="-1.694551007822156">
        <ele>452.60000000000002</ele>
        <time>2018-05-29T07:53:32Z</time>
      </trkpt>
      <trkpt lat="41.925251958891749" lon="-1.694210032001138">
        <ele>452.80000000000001</ele>
        <time>2018-05-29T07:53:57Z</time>
      </trkpt>
      <trkpt lat="41.925347009673715" lon="-1.694176001474261">
        <ele>452.89999999999998</ele>
        <time>2018-05-29T07:54:00Z</time>
      </trkpt>
      <trkpt lat="41.926105991005898" lon="-1.693852040916681">
        <ele>451.5</ele>
        <time>2018-05-29T07:54:24Z</time>
      </trkpt>
      <trkpt lat="41.926815016195178" lon="-1.693541994318366">
        <ele>448.10000000000002</ele>
        <time>2018-05-29T07:54:46Z</time>
      </trkpt>
      <trkpt lat="41.927581960335374" lon="-1.693205963820219">
        <ele>445.80000000000001</ele>
        <time>2018-05-29T07:55:10Z</time>
      </trkpt>
      <trkpt lat="41.928382012993097" lon="-1.692870017141104">
        <ele>444.5</ele>
        <time>2018-05-29T07:55:35Z</time>
      </trkpt>
      <trkpt lat="41.92851603962481" lon="-1.692808996886015">
        <ele>444.10000000000002</ele>
        <time>2018-05-29T07:55:39Z</time>
      </trkpt>
      <trkpt lat="41.929379962384701" lon="-1.692442959174514">
        <ele>443.5</ele>
        <time>2018-05-29T07:56:06Z</time>
      </trkpt>
      <trkpt lat="41.930103991180658" lon="-1.692151017487049">
        <ele>442.69999999999999</ele>
        <time>2018-05-29T07:56:28Z</time>
      </trkpt>
      <trkpt lat="41.930775968357921" lon="-1.691850023344159">
        <ele>441.80000000000001</ele>
        <time>2018-05-29T07:56:49Z</time>
      </trkpt>
      <trkpt lat="41.931742988526821" lon="-1.69142497703433">
        <ele>440</ele>
        <time>2018-05-29T07:57:19Z</time>
      </trkpt>
      <trkpt lat="41.932456959038973" lon="-1.691121971234679">
        <ele>438</ele>
        <time>2018-05-29T07:57:41Z</time>
      </trkpt>
      <trkpt lat="41.93326698616147" lon="-1.690777977928519">
        <ele>436.80000000000001</ele>
        <time>2018-05-29T07:58:07Z</time>
      </trkpt>
      <trkpt lat="41.934250015765429" lon="-1.690357960760593">
        <ele>435.80000000000001</ele>
        <time>2018-05-29T07:58:37Z</time>
      </trkpt>
      <trkpt lat="41.934969015419483" lon="-1.690055960789323">
        <ele>435.30000000000001</ele>
        <time>2018-05-29T07:58:59Z</time>
      </trkpt>
      <trkpt lat="41.935703018680215" lon="-1.689745998010039">
        <ele>434.69999999999999</ele>
        <time>2018-05-29T07:59:22Z</time>
      </trkpt>
      <trkpt lat="41.93638295866549" lon="-1.689434023573995">
        <ele>432.30000000000001</ele>
        <time>2018-05-29T07:59:44Z</time>
      </trkpt>
      <trkpt lat="41.937143029645085" lon="-1.689109979197383">
        <ele>431</ele>
        <time>2018-05-29T08:00:07Z</time>
      </trkpt>
      <trkpt lat="41.937874015420675" lon="-1.688800016418099">
        <ele>427.19999999999999</ele>
        <time>2018-05-29T08:00:30Z</time>
      </trkpt>
      <trkpt lat="41.938683958724141" lon="-1.688398020341992">
        <ele>427.10000000000002</ele>
        <time>2018-05-29T08:00:56Z</time>
      </trkpt>
      <trkpt lat="41.938882023096085" lon="-1.688278997316957">
        <ele>427.39999999999998</ele>
        <time>2018-05-29T08:01:02Z</time>
      </trkpt>
      <trkpt lat="41.939362976700068" lon="-1.687952019274235">
        <ele>427.10000000000002</ele>
        <time>2018-05-29T08:01:18Z</time>
      </trkpt>
      <trkpt lat="41.939474958926439" lon="-1.687866020947695">
        <ele>426.89999999999998</ele>
        <time>2018-05-29T08:01:22Z</time>
      </trkpt>
      <trkpt lat="41.940136961638927" lon="-1.687320023775101">
        <ele>424.80000000000001</ele>
        <time>2018-05-29T08:01:45Z</time>
      </trkpt>
      <trkpt lat="41.940450025722384" lon="-1.686989022418857">
        <ele>423.10000000000002</ele>
        <time>2018-05-29T08:01:57Z</time>
      </trkpt>
      <trkpt lat="41.940586986020207" lon="-1.686854995787144">
        <ele>422.69999999999999</ele>
        <time>2018-05-29T08:02:02Z</time>
      </trkpt>
      <trkpt lat="41.94065798074007" lon="-1.686788024380803">
        <ele>422.39999999999998</ele>
        <time>2018-05-29T08:02:04Z</time>
      </trkpt>
      <trkpt lat="41.940941037610173" lon="-1.68650102801621">
        <ele>421.39999999999998</ele>
        <time>2018-05-29T08:02:15Z</time>
      </trkpt>
      <trkpt lat="41.941513018682599" lon="-1.6859420388937">
        <ele>419.5</ele>
        <time>2018-05-29T08:02:36Z</time>
      </trkpt>
      <trkpt lat="41.942250039428473" lon="-1.685211975127459">
        <ele>418.39999999999998</ele>
        <time>2018-05-29T08:03:03Z</time>
      </trkpt>
      <trkpt lat="41.942552961409092" lon="-1.684920033439994">
        <ele>417.60000000000002</ele>
        <time>2018-05-29T08:03:14Z</time>
      </trkpt>
      <trkpt lat="41.943223010748625" lon="-1.684243027120829">
        <ele>417.69999999999999</ele>
        <time>2018-05-29T08:03:39Z</time>
      </trkpt>
      <trkpt lat="41.943297022953629" lon="-1.684174966067076">
        <ele>417.80000000000001</ele>
        <time>2018-05-29T08:03:41Z</time>
      </trkpt>
      <trkpt lat="41.943506989628077" lon="-1.683969022706151">
        <ele>418</ele>
        <time>2018-05-29T08:03:49Z</time>
      </trkpt>
      <trkpt lat="41.943788034841418" lon="-1.683683032169938">
        <ele>417.69999999999999</ele>
        <time>2018-05-29T08:03:59Z</time>
      </trkpt>
      <trkpt lat="41.944434028118849" lon="-1.683050030842423">
        <ele>414.39999999999998</ele>
        <time>2018-05-29T08:04:23Z</time>
      </trkpt>
      <trkpt lat="41.945035010576248" lon="-1.682446030899882">
        <ele>413.5</ele>
        <time>2018-05-29T08:04:45Z</time>
      </trkpt>
      <trkpt lat="41.945471959188581" lon="-1.682013021782041">
        <ele>412.89999999999998</ele>
        <time>2018-05-29T08:05:01Z</time>
      </trkpt>
      <trkpt lat="41.946061961352825" lon="-1.681412039324641">
        <ele>411.5</ele>
        <time>2018-05-29T08:05:23Z</time>
      </trkpt>
      <trkpt lat="41.946607958525419" lon="-1.680903006345034">
        <ele>411.19999999999999</ele>
        <time>2018-05-29T08:05:43Z</time>
      </trkpt>
      <trkpt lat="41.946689011529088" lon="-1.68082999996841">
        <ele>411.19999999999999</ele>
        <time>2018-05-29T08:05:46Z</time>
      </trkpt>
      <trkpt lat="41.94733701646328" lon="-1.680305963382125">
        <ele>411.39999999999998</ele>
        <time>2018-05-29T08:06:08Z</time>
      </trkpt>
      <trkpt lat="41.947955014184117" lon="-1.679851999506354">
        <ele>411.30000000000001</ele>
        <time>2018-05-29T08:06:29Z</time>
      </trkpt>
      <trkpt lat="41.948072025552392" lon="-1.679732976481319">
        <ele>411.5</ele>
        <time>2018-05-29T08:06:34Z</time>
      </trkpt>
      <trkpt lat="41.948574017733335" lon="-1.679415972903371">
        <ele>411.89999999999998</ele>
        <time>2018-05-29T08:06:50Z</time>
      </trkpt>
      <trkpt lat="41.948789013549685" lon="-1.679295022040606">
        <ele>412</ele>
        <time>2018-05-29T08:06:57Z</time>
      </trkpt>
      <trkpt lat="41.94892899133265" lon="-1.679227966815233">
        <ele>411.89999999999998</ele>
        <time>2018-05-29T08:07:01Z</time>
      </trkpt>
      <trkpt lat="41.949886037036777" lon="-1.678749024868012">
        <ele>410.60000000000002</ele>
        <time>2018-05-29T08:07:32Z</time>
      </trkpt>
      <trkpt lat="41.950634038075805" lon="-1.678478959947825">
        <ele>409.19999999999999</ele>
        <time>2018-05-29T08:07:54Z</time>
      </trkpt>
      <trkpt lat="41.951339961960912" lon="-1.678265975788236">
        <ele>406.89999999999998</ele>
        <time>2018-05-29T08:08:16Z</time>
      </trkpt>
      <trkpt lat="41.951727960258722" lon="-1.678154999390245">
        <ele>406.39999999999998</ele>
        <time>2018-05-29T08:08:28Z</time>
      </trkpt>
      <trkpt lat="41.952373031526804" lon="-1.677977973595262">
        <ele>405.30000000000001</ele>
        <time>2018-05-29T08:08:47Z</time>
      </trkpt>
      <trkpt lat="41.953079961240292" lon="-1.67775803245604">
        <ele>403.80000000000001</ele>
        <time>2018-05-29T08:09:09Z</time>
      </trkpt>
      <trkpt lat="41.95373903028667" lon="-1.677572960034013">
        <ele>403.39999999999998</ele>
        <time>2018-05-29T08:09:29Z</time>
      </trkpt>
      <trkpt lat="41.954362979158759" lon="-1.677384031936526">
        <ele>402.89999999999998</ele>
        <time>2018-05-29T08:09:48Z</time>
      </trkpt>
      <trkpt lat="41.955049959942698" lon="-1.677176998928189">
        <ele>401.69999999999999</ele>
        <time>2018-05-29T08:10:08Z</time>
      </trkpt>
      <trkpt lat="41.955844983458519" lon="-1.676965020596981">
        <ele>400.5</ele>
        <time>2018-05-29T08:10:32Z</time>
      </trkpt>
      <trkpt lat="41.956561971455812" lon="-1.676747007295489">
        <ele>399.5</ele>
        <time>2018-05-29T08:10:54Z</time>
      </trkpt>
      <trkpt lat="41.957102017477155" lon="-1.676593031734228">
        <ele>398.39999999999998</ele>
        <time>2018-05-29T08:11:11Z</time>
      </trkpt>
      <trkpt lat="41.957798972725868" lon="-1.676377030089498">
        <ele>397.19999999999999</ele>
        <time>2018-05-29T08:11:32Z</time>
      </trkpt>
      <trkpt lat="41.958502968773246" lon="-1.676162034273148">
        <ele>394.89999999999998</ele>
        <time>2018-05-29T08:11:53Z</time>
      </trkpt>
      <trkpt lat="41.959207970649004" lon="-1.675957012921572">
        <ele>393.5</ele>
        <time>2018-05-29T08:12:15Z</time>
      </trkpt>
      <trkpt lat="41.959964018315077" lon="-1.675731958821416">
        <ele>392.10000000000002</ele>
        <time>2018-05-29T08:12:37Z</time>
      </trkpt>
      <trkpt lat="41.960634989663959" lon="-1.675543030723929">
        <ele>390.69999999999999</ele>
        <time>2018-05-29T08:12:58Z</time>
      </trkpt>
      <trkpt lat="41.961233960464597" lon="-1.675361981615424">
        <ele>390.10000000000002</ele>
        <time>2018-05-29T08:13:16Z</time>
      </trkpt>
      <trkpt lat="41.961851958185434" lon="-1.675195014104247">
        <ele>389.5</ele>
        <time>2018-05-29T08:13:35Z</time>
      </trkpt>
      <trkpt lat="41.962539022788405" lon="-1.67498798109591">
        <ele>389</ele>
        <time>2018-05-29T08:13:56Z</time>
      </trkpt>
      <trkpt lat="41.962817972525954" lon="-1.674898965284228">
        <ele>388.69999999999999</ele>
        <time>2018-05-29T08:14:04Z</time>
      </trkpt>
      <trkpt lat="41.963522974401712" lon="-1.674681035801768">
        <ele>387.39999999999998</ele>
        <time>2018-05-29T08:14:25Z</time>
      </trkpt>
      <trkpt lat="41.964264018461108" lon="-1.674467967823148">
        <ele>387.10000000000002</ele>
        <time>2018-05-29T08:14:48Z</time>
      </trkpt>
      <trkpt lat="41.965075973421335" lon="-1.674235034734011">
        <ele>387</ele>
        <time>2018-05-29T08:15:12Z</time>
      </trkpt>
      <trkpt lat="41.965877031907439" lon="-1.673992965370417">
        <ele>386.10000000000002</ele>
        <time>2018-05-29T08:15:37Z</time>
      </trkpt>
      <trkpt lat="41.96658899076283" lon="-1.673778975382447">
        <ele>384.19999999999999</ele>
        <time>2018-05-29T08:15:58Z</time>
      </trkpt>
      <trkpt lat="41.966966008767486" lon="-1.673671016469598">
        <ele>383.30000000000001</ele>
        <time>2018-05-29T08:16:10Z</time>
      </trkpt>
      <trkpt lat="41.967489961534739" lon="-1.673514023423195">
        <ele>382.69999999999999</ele>
        <time>2018-05-29T08:16:26Z</time>
      </trkpt>
      <trkpt lat="41.968081975355744" lon="-1.673330962657929">
        <ele>382.30000000000001</ele>
        <time>2018-05-29T08:16:44Z</time>
      </trkpt>
      <trkpt lat="41.968571981415153" lon="-1.673200037330389">
        <ele>381.89999999999998</ele>
        <time>2018-05-29T08:16:59Z</time>
      </trkpt>
      <trkpt lat="41.96918897330761" lon="-1.673067016527057">
        <ele>380.89999999999998</ele>
        <time>2018-05-29T08:17:17Z</time>
      </trkpt>
      <trkpt lat="41.969850976020098" lon="-1.673070034012198">
        <ele>380</ele>
        <time>2018-05-29T08:17:37Z</time>
      </trkpt>
      <trkpt lat="41.970364032313228" lon="-1.673170030117035">
        <ele>380</ele>
        <time>2018-05-29T08:17:52Z</time>
      </trkpt>
      <trkpt lat="41.970825958997011" lon="-1.673315037041903">
        <ele>379.30000000000001</ele>
        <time>2018-05-29T08:18:06Z</time>
      </trkpt>
      <trkpt lat="41.971271960064769" lon="-1.673517040908337">
        <ele>378.30000000000001</ele>
        <time>2018-05-29T08:18:20Z</time>
      </trkpt>
      <trkpt lat="41.971821980550885" lon="-1.67376397177577">
        <ele>377.30000000000001</ele>
        <time>2018-05-29T08:18:37Z</time>
      </trkpt>
      <trkpt lat="41.972377030178905" lon="-1.674005035310984">
        <ele>377.10000000000002</ele>
        <time>2018-05-29T08:18:54Z</time>
      </trkpt>
      <trkpt lat="41.973129976540804" lon="-1.674359003081918">
        <ele>377</ele>
        <time>2018-05-29T08:19:18Z</time>
      </trkpt>
      <trkpt lat="41.973773958161473" lon="-1.674651028588414">
        <ele>376</ele>
        <time>2018-05-29T08:19:38Z</time>
      </trkpt>
      <trkpt lat="41.974526988342404" lon="-1.674854038283229">
        <ele>375.10000000000002</ele>
        <time>2018-05-29T08:20:01Z</time>
      </trkpt>
      <trkpt lat="41.974723963066936" lon="-1.674869041889906">
        <ele>374.69999999999999</ele>
        <time>2018-05-29T08:20:07Z</time>
      </trkpt>
      <trkpt lat="41.97509796358645" lon="-1.674837023019791">
        <ele>374</ele>
        <time>2018-05-29T08:20:18Z</time>
      </trkpt>
      <trkpt lat="41.975883012637496" lon="-1.674680029973388">
        <ele>373.69999999999999</ele>
        <time>2018-05-29T08:20:41Z</time>
      </trkpt>
      <trkpt lat="41.97653504088521" lon="-1.674558995291591">
        <ele>374</ele>
        <time>2018-05-29T08:21:01Z</time>
      </trkpt>
      <trkpt lat="41.977211041375995" lon="-1.674417005851865">
        <ele>373.5</ele>
        <time>2018-05-29T08:21:21Z</time>
      </trkpt>
      <trkpt lat="41.977931968867779" lon="-1.674262024462223">
        <ele>372</ele>
        <time>2018-05-29T08:21:43Z</time>
      </trkpt>
      <trkpt lat="41.978677958250046" lon="-1.674103019759059">
        <ele>371.5</ele>
        <time>2018-05-29T08:22:05Z</time>
      </trkpt>
      <trkpt lat="41.979357982054353" lon="-1.673979973420501">
        <ele>370.10000000000002</ele>
        <time>2018-05-29T08:22:26Z</time>
      </trkpt>
      <trkpt lat="41.979948990046978" lon="-1.673861034214497">
        <ele>369.89999999999998</ele>
        <time>2018-05-29T08:22:43Z</time>
      </trkpt>
      <trkpt lat="41.980347968637943" lon="-1.673772018402815">
        <ele>370</ele>
        <time>2018-05-29T08:22:55Z</time>
      </trkpt>
      <trkpt lat="41.980981975793839" lon="-1.673652995377779">
        <ele>367.19999999999999</ele>
        <time>2018-05-29T08:23:14Z</time>
      </trkpt>
      <trkpt lat="41.981165958568454" lon="-1.673609996214509">
        <ele>366.39999999999998</ele>
        <time>2018-05-29T08:23:20Z</time>
      </trkpt>
      <trkpt lat="41.981797032058239" lon="-1.673474041745067">
        <ele>365.30000000000001</ele>
        <time>2018-05-29T08:23:39Z</time>
      </trkpt>
      <trkpt lat="41.981928963214159" lon="-1.6734619718045">
        <ele>365.19999999999999</ele>
        <time>2018-05-29T08:23:43Z</time>
      </trkpt>
      <trkpt lat="41.982388962060213" lon="-1.673346972092986">
        <ele>365</ele>
        <time>2018-05-29T08:23:57Z</time>
      </trkpt>
      <trkpt lat="41.983222961425781" lon="-1.673183022066951">
        <ele>364.89999999999998</ele>
        <time>2018-05-29T08:24:21Z</time>
      </trkpt>
      <trkpt lat="41.984066013246775" lon="-1.672996021807194">
        <ele>364.19999999999999</ele>
        <time>2018-05-29T08:24:47Z</time>
      </trkpt>
      <trkpt lat="41.984778977930546" lon="-1.672885967418551">
        <ele>362.69999999999999</ele>
        <time>2018-05-29T08:25:08Z</time>
      </trkpt>
      <trkpt lat="41.985580958425999" lon="-1.672913962975144">
        <ele>361.60000000000002</ele>
        <time>2018-05-29T08:25:32Z</time>
      </trkpt>
      <trkpt lat="41.986409006640315" lon="-1.673152009025216">
        <ele>359.39999999999998</ele>
        <time>2018-05-29T08:25:57Z</time>
      </trkpt>
      <trkpt lat="41.987324981018901" lon="-1.673491979017854">
        <ele>357.89999999999998</ele>
        <time>2018-05-29T08:26:25Z</time>
      </trkpt>
      <trkpt lat="41.987464036792517" lon="-1.673546964302659">
        <ele>357.89999999999998</ele>
        <time>2018-05-29T08:26:29Z</time>
      </trkpt>
      <trkpt lat="41.988313961774111" lon="-1.673861034214497">
        <ele>357.30000000000001</ele>
        <time>2018-05-29T08:26:55Z</time>
      </trkpt>
      <trkpt lat="41.988528035581112" lon="-1.67393202893436">
        <ele>356.80000000000001</ele>
        <time>2018-05-29T08:27:02Z</time>
      </trkpt>
      <trkpt lat="41.988569023087621" lon="-1.673948960378766">
        <ele>356.69999999999999</ele>
        <time>2018-05-29T08:27:03Z</time>
      </trkpt>
      <trkpt lat="41.989208981394768" lon="-1.674188012257218">
        <ele>356.19999999999999</ele>
        <time>2018-05-29T08:27:23Z</time>
      </trkpt>
      <trkpt lat="41.989957988262177" lon="-1.674465034157038">
        <ele>355.5</ele>
        <time>2018-05-29T08:27:46Z</time>
      </trkpt>
      <trkpt lat="41.990687968209386" lon="-1.674670977517963">
        <ele>355.5</ele>
        <time>2018-05-29T08:28:08Z</time>
      </trkpt>
      <trkpt lat="41.991537977010012" lon="-1.674653040245175">
        <ele>355.69999999999999</ele>
        <time>2018-05-29T08:28:33Z</time>
      </trkpt>
      <trkpt lat="41.992311039939523" lon="-1.674407031387091">
        <ele>354.69999999999999</ele>
        <time>2018-05-29T08:28:57Z</time>
      </trkpt>
      <trkpt lat="41.992969019338489" lon="-1.67410695925355">
        <ele>353.89999999999998</ele>
        <time>2018-05-29T08:29:17Z</time>
      </trkpt>
      <trkpt lat="41.993889017030597" lon="-1.673730025067926">
        <ele>353.60000000000002</ele>
        <time>2018-05-29T08:29:46Z</time>
      </trkpt>
      <trkpt lat="41.99471203610301" lon="-1.673370022326708">
        <ele>351.80000000000001</ele>
        <time>2018-05-29T08:30:12Z</time>
      </trkpt>
      <trkpt lat="41.995753990486264" lon="-1.672968026250601">
        <ele>350.60000000000002</ele>
        <time>2018-05-29T08:30:44Z</time>
      </trkpt>
      <trkpt lat="41.996625037863851" lon="-1.672624032944441">
        <ele>348.69999999999999</ele>
        <time>2018-05-29T08:31:11Z</time>
      </trkpt>
      <trkpt lat="41.997528020292521" lon="-1.672261012718082">
        <ele>347.10000000000002</ele>
        <time>2018-05-29T08:31:38Z</time>
      </trkpt>
      <trkpt lat="41.998182982206345" lon="-1.671964041888714">
        <ele>346.60000000000002</ele>
        <time>2018-05-29T08:31:59Z</time>
      </trkpt>
      <trkpt lat="41.998940035700798" lon="-1.671454003080726">
        <ele>345.60000000000002</ele>
        <time>2018-05-29T08:32:24Z</time>
      </trkpt>
      <trkpt lat="41.999027039855719" lon="-1.671385020017624">
        <ele>345.39999999999998</ele>
        <time>2018-05-29T08:32:27Z</time>
      </trkpt>
      <trkpt lat="41.99956800788641" lon="-1.670858971774578">
        <ele>343.60000000000002</ele>
        <time>2018-05-29T08:32:47Z</time>
      </trkpt>
      <trkpt lat="42.000245014205575" lon="-1.670165034011006">
        <ele>342.19999999999999</ele>
        <time>2018-05-29T08:33:12Z</time>
      </trkpt>
      <trkpt lat="42.000340986996889" lon="-1.670051962137222">
        <ele>342.10000000000002</ele>
        <time>2018-05-29T08:33:16Z</time>
      </trkpt>
      <trkpt lat="42.000983962789178" lon="-1.669407980516553">
        <ele>341.60000000000002</ele>
        <time>2018-05-29T08:33:40Z</time>
      </trkpt>
      <trkpt lat="42.001598021015525" lon="-1.668794006109238">
        <ele>341.60000000000002</ele>
        <time>2018-05-29T08:34:02Z</time>
      </trkpt>
      <trkpt lat="42.002331018447876" lon="-1.668039970099926">
        <ele>339.60000000000002</ele>
        <time>2018-05-29T08:34:30Z</time>
      </trkpt>
      <trkpt lat="42.002403018996119" lon="-1.667962018400431">
        <ele>339.30000000000001</ele>
        <time>2018-05-29T08:34:32Z</time>
      </trkpt>
      <trkpt lat="42.00300601311028" lon="-1.667355000972748">
        <ele>338.69999999999999</ele>
        <time>2018-05-29T08:34:55Z</time>
      </trkpt>
      <trkpt lat="42.003658963367343" lon="-1.666700039058924">
        <ele>338.5</ele>
        <time>2018-05-29T08:35:19Z</time>
      </trkpt>
      <trkpt lat="42.00380003079772" lon="-1.666556037962437">
        <ele>338.30000000000001</ele>
        <time>2018-05-29T08:35:24Z</time>
      </trkpt>
      <trkpt lat="42.004158021882176" lon="-1.666190000250936">
        <ele>337.5</ele>
        <time>2018-05-29T08:35:37Z</time>
      </trkpt>
      <trkpt lat="42.004345022141933" lon="-1.665995959192514">
        <ele>337.39999999999998</ele>
        <time>2018-05-29T08:35:44Z</time>
      </trkpt>
      <trkpt lat="42.004438983276486" lon="-1.665915995836258">
        <ele>337.39999999999998</ele>
        <time>2018-05-29T08:35:48Z</time>
      </trkpt>
      <trkpt lat="42.004548031836748" lon="-1.665783980861306">
        <ele>337.60000000000002</ele>
        <time>2018-05-29T08:35:52Z</time>
      </trkpt>
      <trkpt lat="42.004733020439744" lon="-1.665601003915072">
        <ele>337.5</ele>
        <time>2018-05-29T08:35:59Z</time>
      </trkpt>
      <trkpt lat="42.00504801236093" lon="-1.665270002558827">
        <ele>337</ele>
        <time>2018-05-29T08:36:11Z</time>
      </trkpt>
      <trkpt lat="42.005575988441706" lon="-1.664729034528136">
        <ele>336.60000000000002</ele>
        <time>2018-05-29T08:36:30Z</time>
      </trkpt>
      <trkpt lat="42.005759971216321" lon="-1.664557037875056">
        <ele>336.60000000000002</ele>
        <time>2018-05-29T08:36:37Z</time>
      </trkpt>
      <trkpt lat="42.006027018651366" lon="-1.664281021803618">
        <ele>336.39999999999998</ele>
        <time>2018-05-29T08:36:47Z</time>
      </trkpt>
      <trkpt lat="42.00659497641027" lon="-1.663694037124515">
        <ele>336.10000000000002</ele>
        <time>2018-05-29T08:37:08Z</time>
      </trkpt>
      <trkpt lat="42.007018011063337" lon="-1.663262033835053">
        <ele>336.60000000000002</ele>
        <time>2018-05-29T08:37:24Z</time>
      </trkpt>
      <trkpt lat="42.007585968822241" lon="-1.662681000307202">
        <ele>337.60000000000002</ele>
        <time>2018-05-29T08:37:45Z</time>
      </trkpt>
      <trkpt lat="42.008173037320375" lon="-1.662083035334945">
        <ele>338.30000000000001</ele>
        <time>2018-05-29T08:38:07Z</time>
      </trkpt>
      <trkpt lat="42.008605962619185" lon="-1.661661006510258">
        <ele>337.39999999999998</ele>
        <time>2018-05-29T08:38:23Z</time>
      </trkpt>
      <trkpt lat="42.009168975055218" lon="-1.661095982417464">
        <ele>335.19999999999999</ele>
        <time>2018-05-29T08:38:43Z</time>
      </trkpt>
      <trkpt lat="42.009754031896591" lon="-1.660489970818162">
        <ele>333.10000000000002</ele>
        <time>2018-05-29T08:39:05Z</time>
      </trkpt>
      <trkpt lat="42.010379992425442" lon="-1.65984196588397">
        <ele>331.60000000000002</ele>
        <time>2018-05-29T08:39:29Z</time>
      </trkpt>
      <trkpt lat="42.010451992973685" lon="-1.659767031669617">
        <ele>331.5</ele>
        <time>2018-05-29T08:39:31Z</time>
      </trkpt>
      <trkpt lat="42.011040989309549" lon="-1.659179963171482">
        <ele>331.30000000000001</ele>
        <time>2018-05-29T08:39:53Z</time>
      </trkpt>
      <trkpt lat="42.011078037321568" lon="-1.65915003977716">
        <ele>331.19999999999999</ele>
        <time>2018-05-29T08:39:54Z</time>
      </trkpt>
      <trkpt lat="42.011612970381975" lon="-1.658589038997889">
        <ele>330.10000000000002</ele>
        <time>2018-05-29T08:40:14Z</time>
      </trkpt>
      <trkpt lat="42.012275978922844" lon="-1.657923012971878">
        <ele>328.5</ele>
        <time>2018-05-29T08:40:39Z</time>
      </trkpt>
      <trkpt lat="42.012677974998951" lon="-1.657513976097107">
        <ele>328.60000000000002</ele>
        <time>2018-05-29T08:40:54Z</time>
      </trkpt>
      <trkpt lat="42.013305025175214" lon="-1.656876029446721">
        <ele>328</ele>
        <time>2018-05-29T08:41:17Z</time>
      </trkpt>
      <trkpt lat="42.013926962390542" lon="-1.656243028119206">
        <ele>327</ele>
        <time>2018-05-29T08:41:40Z</time>
      </trkpt>
      <trkpt lat="42.014400959014893" lon="-1.655757967382669">
        <ele>325.80000000000001</ele>
        <time>2018-05-29T08:41:58Z</time>
      </trkpt>
      <trkpt lat="42.015009988099337" lon="-1.655151033774018">
        <ele>324</ele>
        <time>2018-05-29T08:42:20Z</time>
      </trkpt>
      <trkpt lat="42.015594961121678" lon="-1.654544016346335">
        <ele>322.69999999999999</ele>
        <time>2018-05-29T08:42:42Z</time>
      </trkpt>
      <trkpt lat="42.016155961900949" lon="-1.653981003910303">
        <ele>321.39999999999998</ele>
        <time>2018-05-29T08:43:03Z</time>
      </trkpt>
      <trkpt lat="42.016403982415795" lon="-1.65373700670898">
        <ele>320.60000000000002</ele>
        <time>2018-05-29T08:43:12Z</time>
      </trkpt>
      <trkpt lat="42.016888959333301" lon="-1.653247000649571">
        <ele>319.30000000000001</ele>
        <time>2018-05-29T08:43:30Z</time>
      </trkpt>
      <trkpt lat="42.01692801900208" lon="-1.653206013143063">
        <ele>319.30000000000001</ele>
        <time>2018-05-29T08:43:32Z</time>
      </trkpt>
      <trkpt lat="42.017475022003055" lon="-1.652637971565127">
        <ele>318.69999999999999</ele>
        <time>2018-05-29T08:43:52Z</time>
      </trkpt>
      <trkpt lat="42.018142975866795" lon="-1.651958031579852">
        <ele>317.89999999999998</ele>
        <time>2018-05-29T08:44:17Z</time>
      </trkpt>
      <trkpt lat="42.018846971914172" lon="-1.651226039975882">
        <ele>318</ele>
        <time>2018-05-29T08:44:43Z</time>
      </trkpt>
      <trkpt lat="42.019362961873412" lon="-1.650546016171575">
        <ele>318.80000000000001</ele>
        <time>2018-05-29T08:45:05Z</time>
      </trkpt>
      <trkpt lat="42.019707038998604" lon="-1.649914020672441">
        <ele>319.19999999999999</ele>
        <time>2018-05-29T08:45:22Z</time>
      </trkpt>
      <trkpt lat="42.020126972347498" lon="-1.649112040176988">
        <ele>320.5</ele>
        <time>2018-05-29T08:45:43Z</time>
      </trkpt>
      <trkpt lat="42.020455962046981" lon="-1.648471998050809">
        <ele>319.89999999999998</ele>
        <time>2018-05-29T08:46:01Z</time>
      </trkpt>
      <trkpt lat="42.020783023908734" lon="-1.647845031693578">
        <ele>318</ele>
        <time>2018-05-29T08:46:17Z</time>
      </trkpt>
      <trkpt lat="42.021216033026576" lon="-1.647027963772416">
        <ele>317.89999999999998</ele>
        <time>2018-05-29T08:46:39Z</time>
      </trkpt>
      <trkpt lat="42.021696986630559" lon="-1.646121963858604">
        <ele>316.80000000000001</ele>
        <time>2018-05-29T08:47:04Z</time>
      </trkpt>
      <trkpt lat="42.022166959941387" lon="-1.64522903971374">
        <ele>315.10000000000002</ele>
        <time>2018-05-29T08:47:28Z</time>
      </trkpt>
      <trkpt lat="42.02264497987926" lon="-1.644307030364871">
        <ele>314.69999999999999</ele>
        <time>2018-05-29T08:47:53Z</time>
      </trkpt>
      <trkpt lat="42.023191982880235" lon="-1.643260968849063">
        <ele>314.5</ele>
        <time>2018-05-29T08:48:21Z</time>
      </trkpt>
      <trkpt lat="42.023680983111262" lon="-1.642324961721897">
        <ele>314.30000000000001</ele>
        <time>2018-05-29T08:48:46Z</time>
      </trkpt>
      <trkpt lat="42.024163026362658" lon="-1.641376968473196">
        <ele>312.69999999999999</ele>
        <time>2018-05-29T08:49:11Z</time>
      </trkpt>
      <trkpt lat="42.024553958326578" lon="-1.640633996576071">
        <ele>311.30000000000001</ele>
        <time>2018-05-29T08:49:31Z</time>
      </trkpt>
      <trkpt lat="42.025041030719876" lon="-1.63970603607595">
        <ele>309.69999999999999</ele>
        <time>2018-05-29T08:49:56Z</time>
      </trkpt>
      <trkpt lat="42.025217972695827" lon="-1.639360031113029">
        <ele>309.19999999999999</ele>
        <time>2018-05-29T08:50:06Z</time>
      </trkpt>
      <trkpt lat="42.025634972378612" lon="-1.638542041182518">
        <ele>309.30000000000001</ele>
        <time>2018-05-29T08:50:28Z</time>
      </trkpt>
      <trkpt lat="42.026177030056715" lon="-1.637506037950516">
        <ele>308.60000000000002</ele>
        <time>2018-05-29T08:50:55Z</time>
      </trkpt>
      <trkpt lat="42.026225980371237" lon="-1.637406041845679">
        <ele>308.19999999999999</ele>
        <time>2018-05-29T08:50:58Z</time>
      </trkpt>
      <trkpt lat="42.026642980054021" lon="-1.636602971702814">
        <ele>307.5</ele>
        <time>2018-05-29T08:51:20Z</time>
      </trkpt>
      <trkpt lat="42.026998037472367" lon="-1.635932000353932">
        <ele>307.60000000000002</ele>
        <time>2018-05-29T08:51:38Z</time>
      </trkpt>
      <trkpt lat="42.02749902382493" lon="-1.634960034862161">
        <ele>306</ele>
        <time>2018-05-29T08:52:04Z</time>
      </trkpt>
      <trkpt lat="42.027901019901037" lon="-1.63418403826654">
        <ele>305.5</ele>
        <time>2018-05-29T08:52:25Z</time>
      </trkpt>
      <trkpt lat="42.028362024575472" lon="-1.633302010595799">
        <ele>306.30000000000001</ele>
        <time>2018-05-29T08:52:48Z</time>
      </trkpt>
      <trkpt lat="42.028863010928035" lon="-1.632347982376814">
        <ele>305.10000000000002</ele>
        <time>2018-05-29T08:53:14Z</time>
      </trkpt>
      <trkpt lat="42.029314041137695" lon="-1.631480036303401">
        <ele>304.89999999999998</ele>
        <time>2018-05-29T08:53:37Z</time>
      </trkpt>
      <trkpt lat="42.029452007263899" lon="-1.631236039102078">
        <ele>304.80000000000001</ele>
        <time>2018-05-29T08:53:44Z</time>
      </trkpt>
      <trkpt lat="42.029803963378072" lon="-1.630613012239337">
        <ele>305.60000000000002</ele>
        <time>2018-05-29T08:54:01Z</time>
      </trkpt>
      <trkpt lat="42.029846962541342" lon="-1.630451995879412">
        <ele>305.60000000000002</ele>
        <time>2018-05-29T08:54:05Z</time>
      </trkpt>
      <trkpt lat="42.029922986403108" lon="-1.630312018096447">
        <ele>305.89999999999998</ele>
        <time>2018-05-29T08:54:09Z</time>
      </trkpt>
      <trkpt lat="42.030369993299246" lon="-1.629430996254087">
        <ele>304.80000000000001</ele>
        <time>2018-05-29T08:54:32Z</time>
      </trkpt>
      <trkpt lat="42.030812976881862" lon="-1.628576964139938">
        <ele>302.39999999999998</ele>
        <time>2018-05-29T08:54:55Z</time>
      </trkpt>
      <trkpt lat="42.031214972957969" lon="-1.627801973372698">
        <ele>301.89999999999998</ele>
        <time>2018-05-29T08:55:16Z</time>
      </trkpt>
      <trkpt lat="42.031728029251099" lon="-1.626822967082262">
        <ele>300.39999999999998</ele>
        <time>2018-05-29T08:55:43Z</time>
      </trkpt>
      <trkpt lat="42.031842023134232" lon="-1.626605037599802">
        <ele>300.30000000000001</ele>
        <time>2018-05-29T08:55:48Z</time>
      </trkpt>
      <trkpt lat="42.032286012545228" lon="-1.625756034627557">
        <ele>299.5</ele>
        <time>2018-05-29T08:56:11Z</time>
      </trkpt>
      <trkpt lat="42.032422972843051" lon="-1.625498961657286">
        <ele>299.19999999999999</ele>
        <time>2018-05-29T08:56:18Z</time>
      </trkpt>
      <trkpt lat="42.032611984759569" lon="-1.625123033300042">
        <ele>299</ele>
        <time>2018-05-29T08:56:28Z</time>
      </trkpt>
      <trkpt lat="42.033035019412637" lon="-1.624307977035642">
        <ele>299.19999999999999</ele>
        <time>2018-05-29T08:56:50Z</time>
      </trkpt>
      <trkpt lat="42.033197963610291" lon="-1.623988961800933">
        <ele>299.39999999999998</ele>
        <time>2018-05-29T08:56:59Z</time>
      </trkpt>
      <trkpt lat="42.033302988857031" lon="-1.623784024268389">
        <ele>299.5</ele>
        <time>2018-05-29T08:57:04Z</time>
      </trkpt>
      <trkpt lat="42.033805986866355" lon="-1.622808035463095">
        <ele>298.69999999999999</ele>
        <time>2018-05-29T08:57:30Z</time>
      </trkpt>
      <trkpt lat="42.034242013469338" lon="-1.621990967541933">
        <ele>296.19999999999999</ele>
        <time>2018-05-29T08:57:52Z</time>
      </trkpt>
      <trkpt lat="42.03454895876348" lon="-1.621400965377688">
        <ele>295.80000000000001</ele>
        <time>2018-05-29T08:58:08Z</time>
      </trkpt>
      <trkpt lat="42.034621965140104" lon="-1.62125201895833">
        <ele>295.89999999999998</ele>
        <time>2018-05-29T08:58:12Z</time>
      </trkpt>
      <trkpt lat="42.034669993445277" lon="-1.621169038116932">
        <ele>295.69999999999999</ele>
        <time>2018-05-29T08:58:14Z</time>
      </trkpt>
      <trkpt lat="42.035052962601185" lon="-1.620421959087253">
        <ele>296</ele>
        <time>2018-05-29T08:58:34Z</time>
      </trkpt>
      <trkpt lat="42.035444984212518" lon="-1.619680998846889">
        <ele>296.80000000000001</ele>
        <time>2018-05-29T08:58:54Z</time>
      </trkpt>
      <trkpt lat="42.035759976133704" lon="-1.619069036096335">
        <ele>296.60000000000002</ele>
        <time>2018-05-29T08:59:11Z</time>
      </trkpt>
      <trkpt lat="42.035975977778435" lon="-1.618664022535086">
        <ele>296.30000000000001</ele>
        <time>2018-05-29T08:59:22Z</time>
      </trkpt>
      <trkpt lat="42.036207988858223" lon="-1.618443997576833">
        <ele>296.39999999999998</ele>
        <time>2018-05-29T08:59:30Z</time>
      </trkpt>
      <trkpt lat="42.036317959427834" lon="-1.618333021178842">
        <ele>296.30000000000001</ele>
        <time>2018-05-29T08:59:34Z</time>
      </trkpt>
      <trkpt lat="42.037214990705252" lon="-1.617580996826291">
        <ele>295</ele>
        <time>2018-05-29T09:00:06Z</time>
      </trkpt>
      <trkpt lat="42.037324039265513" lon="-1.617533974349499">
        <ele>294.69999999999999</ele>
        <time>2018-05-29T09:00:09Z</time>
      </trkpt>
      <trkpt lat="42.03933703713119" lon="-1.616538036614656">
        <ele>291.30000000000001</ele>
        <time>2018-05-29T09:01:13Z</time>
      </trkpt>
      <trkpt lat="42.039352962747216" lon="-1.616518003866077">
        <ele>291.30000000000001</ele>
        <time>2018-05-29T09:01:13Z</time>
      </trkpt>
      <trkpt lat="42.040862962603569" lon="-1.615789029747248">
        <ele>293.80000000000001</ele>
        <time>2018-05-29T09:02:01Z</time>
      </trkpt>
      <trkpt lat="42.040951978415251" lon="-1.615719962865114">
        <ele>293.89999999999998</ele>
        <time>2018-05-29T09:02:04Z</time>
      </trkpt>
      <trkpt lat="42.041006963700056" lon="-1.615631030872464">
        <ele>293.89999999999998</ele>
        <time>2018-05-29T09:02:06Z</time>
      </trkpt>
      <trkpt lat="42.041852027177811" lon="-1.614856040105224">
        <ele>291.60000000000002</ele>
        <time>2018-05-29T09:02:37Z</time>
      </trkpt>
      <trkpt lat="42.041868958622217" lon="-1.614726036787033">
        <ele>291.19999999999999</ele>
        <time>2018-05-29T09:02:39Z</time>
      </trkpt>
      <trkpt lat="42.042731959372759" lon="-1.613950040191412">
        <ele>289.60000000000002</ele>
        <time>2018-05-29T09:03:10Z</time>
      </trkpt>
      <trkpt lat="42.043538969010115" lon="-1.61306600086391">
        <ele>286.30000000000001</ele>
        <time>2018-05-29T09:03:41Z</time>
      </trkpt>
      <trkpt lat="42.043577022850513" lon="-1.613021995872259">
        <ele>286.30000000000001</ele>
        <time>2018-05-29T09:03:43Z</time>
      </trkpt>
      <trkpt lat="42.043969966471195" lon="-1.612399974837899">
        <ele>284.80000000000001</ele>
        <time>2018-05-29T09:04:01Z</time>
      </trkpt>
      <trkpt lat="42.043987987563014" lon="-1.612399974837899">
        <ele>284.80000000000001</ele>
        <time>2018-05-29T09:04:01Z</time>
      </trkpt>
      <trkpt lat="42.044152021408081" lon="-1.612004013732076">
        <ele>284.5</ele>
        <time>2018-05-29T09:04:11Z</time>
      </trkpt>
      <trkpt lat="42.044169958680868" lon="-1.611936036497355">
        <ele>284.60000000000002</ele>
        <time>2018-05-29T09:04:13Z</time>
      </trkpt>
      <trkpt lat="42.044346984475851" lon="-1.611404037103057">
        <ele>285.30000000000001</ele>
        <time>2018-05-29T09:04:25Z</time>
      </trkpt>
      <trkpt lat="42.044367017224431" lon="-1.611385010182858">
        <ele>285.39999999999998</ele>
        <time>2018-05-29T09:04:26Z</time>
      </trkpt>
      <trkpt lat="42.044673040509224" lon="-1.611141012981534">
        <ele>285.69999999999999</ele>
        <time>2018-05-29T09:04:37Z</time>
      </trkpt>
      <trkpt lat="42.04468896612525" lon="-1.611160961911082">
        <ele>285.80000000000001</ele>
        <time>2018-05-29T09:04:37Z</time>
      </trkpt>
      <trkpt lat="42.044942015781999" lon="-1.611117040738463">
        <ele>285.69999999999999</ele>
        <time>2018-05-29T09:04:45Z</time>
      </trkpt>
      <trkpt lat="42.044993983581662" lon="-1.611098013818264">
        <ele>285.60000000000002</ele>
        <time>2018-05-29T09:04:47Z</time>
      </trkpt>
      <trkpt lat="42.045352980494499" lon="-1.611005980521441">
        <ele>285.39999999999998</ele>
        <time>2018-05-29T09:04:57Z</time>
      </trkpt>
      <trkpt lat="42.048515975475311" lon="-1.610366022214294">
        <ele>291.89999999999998</ele>
        <time>2018-05-29T09:06:32Z</time>
      </trkpt>
      <trkpt lat="42.049991022795439" lon="-1.609748024493456">
        <ele>291.30000000000001</ele>
        <time>2018-05-29T09:07:18Z</time>
      </trkpt>
      <trkpt lat="42.050008960068226" lon="-1.609766967594624">
        <ele>291.39999999999998</ele>
        <time>2018-05-29T09:07:19Z</time>
      </trkpt>
      <trkpt lat="42.051859013736248" lon="-1.60926103591919">
        <ele>292.89999999999998</ele>
        <time>2018-05-29T09:08:14Z</time>
      </trkpt>
      <trkpt lat="42.053872011601925" lon="-1.608991976827383">
        <ele>296.5</ele>
        <time>2018-05-29T09:09:14Z</time>
      </trkpt>
      <trkpt lat="42.053944012150168" lon="-1.608972027897835">
        <ele>296.60000000000002</ele>
        <time>2018-05-29T09:09:17Z</time>
      </trkpt>
      <trkpt lat="42.055953992530704" lon="-1.609146958217025">
        <ele>297.80000000000001</ele>
        <time>2018-05-29T09:10:16Z</time>
      </trkpt>
      <trkpt lat="42.056384989991784" lon="-1.609103037044406">
        <ele>297.10000000000002</ele>
        <time>2018-05-29T09:10:29Z</time>
      </trkpt>
      <trkpt lat="42.05708596855402" lon="-1.608728030696511">
        <ele>295.89999999999998</ele>
        <time>2018-05-29T09:10:51Z</time>
      </trkpt>
      <trkpt lat="42.057339018210769" lon="-1.608284041285515">
        <ele>293</ele>
        <time>2018-05-29T09:11:04Z</time>
      </trkpt>
      <trkpt lat="42.057390986010432" lon="-1.608284041285515">
        <ele>292.69999999999999</ele>
        <time>2018-05-29T09:11:05Z</time>
      </trkpt>
      <trkpt lat="42.057645041495562" lon="-1.608441034331918">
        <ele>291.60000000000002</ele>
        <time>2018-05-29T09:11:14Z</time>
      </trkpt>
      <trkpt lat="42.057588966563344" lon="-1.608859961852431">
        <ele>292.5</ele>
        <time>2018-05-29T09:11:23Z</time>
      </trkpt>
      <trkpt lat="42.058037985116243" lon="-1.609791023656726">
        <ele>289.19999999999999</ele>
        <time>2018-05-29T09:11:47Z</time>
      </trkpt>
      <trkpt lat="42.058019964024425" lon="-1.611141012981534">
        <ele>287.30000000000001</ele>
        <time>2018-05-29T09:12:17Z</time>
      </trkpt>
      <trkpt lat="42.057627020403743" lon="-1.6116280015558">
        <ele>290.5</ele>
        <time>2018-05-29T09:12:33Z</time>
      </trkpt>
    </trkseg>
  </trk>
</gpx>
